<?xml version="1.0" encoding="UTF-8" standalone="no" ?>
<gpx xmlns="http://www.topografix.com/GPX/1/1" xmlns:xsi="http://www.w3.org/2001/XMLSchema-instance" xsi:schemaLocation="http://www.topografix.com/GPX/1/1 http://www.topografix.com/GPX/1/1/gpx.xsd" version="1.1" creator="VisuGPX - https://www.visugpx.com">
  <metadata>
    <name>Cascade des combes noires via col du Tricot</name>
    <desc><![CDATA[Au départ du parking de Bionnassay, belle boucle, le plus souvent roulante qui vous conduira à la cascade de Combe Noire en passant par 3 refuges emblématiques que sont ceux de Miage, du Truc et de Tre la Tête. 
Bonne balade]]></desc>
  </metadata>
  <wpt lat="45.92765" lon="6.35103">
    <ele>2003.2</ele>
    <name><![CDATA[74230]]></name>
  </wpt>
  <wpt lat="45.92548" lon="6.35664">
    <ele>1699.8</ele>
    <name><![CDATA[74230]]></name>
  </wpt>
  <wpt lat="45.93121" lon="6.3668">
    <ele>1730.9</ele>
    <name><![CDATA[74230]]></name>
  </wpt>
  <wpt lat="45.93354" lon="6.37876">
    <ele>1611.4</ele>
    <name><![CDATA[74450]]></name>
  </wpt>
  <wpt lat="45.93686" lon="6.38393">
    <ele>1630.2</ele>
    <name><![CDATA[74450]]></name>
  </wpt>
  <wpt lat="45.94031" lon="6.38194">
    <ele>1813.6</ele>
    <name><![CDATA[74450]]></name>
  </wpt>
  <wpt lat="45.9282" lon="6.39106">
    <ele>1152.7</ele>
    <name><![CDATA[74450]]></name>
  </wpt>
  <wpt lat="45.92325" lon="6.38563">
    <ele>1022.2</ele>
    <name><![CDATA[74230]]></name>
  </wpt>
  <wpt lat="45.9223" lon="6.37493">
    <ele>1194.7</ele>
    <name><![CDATA[74230]]></name>
  </wpt>
  <wpt lat="45.92478" lon="6.37329">
    <ele>1344.7</ele>
    <name><![CDATA[74230]]></name>
  </wpt>
  <wpt lat="45.92118" lon="6.36744">
    <ele>1296.4</ele>
    <name><![CDATA[74230]]></name>
  </wpt>
  <wpt lat="45.9187" lon="6.36144">
    <ele>1228.8</ele>
    <name><![CDATA[185 Route de Praz Cornet, Les Villards-sur-Thônes, 74230]]></name>
  </wpt>
  <wpt lat="45.91398" lon="6.36533">
    <ele>920.2</ele>
    <name><![CDATA[74230]]></name>
  </wpt>
  <wpt lat="45.91215" lon="6.35659">
    <ele>976.5</ele>
    <name><![CDATA[74230]]></name>
  </wpt>
  <wpt lat="45.91313" lon="6.35128">
    <ele>1095</ele>
    <name><![CDATA[74230]]></name>
  </wpt>
  <wpt lat="45.91225" lon="6.34845">
    <ele>1132.4</ele>
    <name><![CDATA[1 Chemin Rural de Mont Jean aux Diors, Thônes, 74230]]></name>
  </wpt>
  <wpt lat="45.90692" lon="6.33758">
    <ele>1170.6</ele>
    <name><![CDATA[74230]]></name>
  </wpt>
  <wpt lat="45.90096" lon="6.33683">
    <ele>911.6</ele>
    <name><![CDATA[2550 Route du Fetelay, Thônes, 74230]]></name>
  </wpt>
  <wpt lat="45.89985" lon="6.33541">
    <ele>897.2</ele>
    <name><![CDATA[2710 Route du Fetelay, Thônes, 74230]]></name>
  </wpt>
  <wpt lat="45.89817" lon="6.33607">
    <ele>827.1</ele>
    <name><![CDATA[3288 Route du Fetelay, Thônes, 74230]]></name>
  </wpt>
  <wpt lat="45.89885" lon="6.34326">
    <ele>676.8</ele>
    <name><![CDATA[2 Chemin des Maisons Fleuries, Thônes, 74230]]></name>
  </wpt>
  <wpt lat="45.89774" lon="6.34711">
    <ele>668.7</ele>
    <name><![CDATA[6 Route des Aravis, Thônes, 74230]]></name>
  </wpt>
  <wpt lat="45.89307" lon="6.3396">
    <ele>652.7</ele>
    <name><![CDATA[74230]]></name>
  </wpt>
  <wpt lat="45.88901" lon="6.33344">
    <ele>650.9</ele>
    <name><![CDATA[489 Route de Glapigny, Thônes, 74230]]></name>
  </wpt>
  <wpt lat="45.88311" lon="6.3278">
    <ele>627.8</ele>
    <name><![CDATA[4 Rue du Clos, Thônes, 74230]]></name>
  </wpt>
  <trk>
    <name><![CDATA[nicolas_malabre_2026-08-14_05-57-35]]></name>
    <extensions>
      <line xmlns="http://www.topografix.com/GPX/gpx_style/0/2">
        <color>0000FF</color>
        <width>4</width>
      </line>
    </extensions>
    <trkseg>
      <trkpt lat="45.8682" lon="6.76121">
        <ele>1406</ele>
        <time>2026-08-14T03:57:35.346Z</time>
      </trkpt>
      <trkpt lat="45.8682" lon="6.76121">
        <ele>1406</ele>
        <time>2026-08-14T03:57:36.376Z</time>
      </trkpt>
      <trkpt lat="45.8682" lon="6.76121">
        <ele>1406</ele>
        <time>2026-08-14T03:57:37.376Z</time>
      </trkpt>
      <trkpt lat="45.8682" lon="6.76121">
        <ele>1406</ele>
        <time>2026-08-14T03:57:38.376Z</time>
      </trkpt>
      <trkpt lat="45.8682" lon="6.76121">
        <ele>1406</ele>
        <time>2026-08-14T03:57:39.376Z</time>
      </trkpt>
      <trkpt lat="45.8682" lon="6.76121">
        <ele>1406</ele>
        <time>2026-08-14T03:57:40.376Z</time>
      </trkpt>
      <trkpt lat="45.8682" lon="6.76121">
        <ele>1406</ele>
        <time>2026-08-14T03:57:41.376Z</time>
      </trkpt>
      <trkpt lat="45.8682" lon="6.76121">
        <ele>1407</ele>
        <time>2026-08-14T03:57:42.376Z</time>
      </trkpt>
      <trkpt lat="45.8682" lon="6.76121">
        <ele>1407</ele>
        <time>2026-08-14T03:57:43.376Z</time>
      </trkpt>
      <trkpt lat="45.8682" lon="6.76121">
        <ele>1407</ele>
        <time>2026-08-14T03:57:44.376Z</time>
      </trkpt>
      <trkpt lat="45.8682" lon="6.76121">
        <ele>1407</ele>
        <time>2026-08-14T03:57:45.376Z</time>
      </trkpt>
      <trkpt lat="45.8682" lon="6.76121">
        <ele>1407</ele>
        <time>2026-08-14T03:57:46.376Z</time>
      </trkpt>
      <trkpt lat="45.8682" lon="6.76121">
        <ele>1407</ele>
        <time>2026-08-14T03:57:47.376Z</time>
      </trkpt>
      <trkpt lat="45.8682" lon="6.76121">
        <ele>1407</ele>
        <time>2026-08-14T03:57:48.376Z</time>
      </trkpt>
      <trkpt lat="45.8682" lon="6.76121">
        <ele>1407</ele>
        <time>2026-08-14T03:57:49.376Z</time>
      </trkpt>
      <trkpt lat="45.8682" lon="6.76121">
        <ele>1407</ele>
        <time>2026-08-14T03:57:50.376Z</time>
      </trkpt>
      <trkpt lat="45.8682" lon="6.76121">
        <ele>1407</ele>
        <time>2026-08-14T03:57:51.376Z</time>
      </trkpt>
      <trkpt lat="45.86821" lon="6.76123">
        <ele>1407</ele>
        <time>2026-08-14T03:57:52.376Z</time>
      </trkpt>
      <trkpt lat="45.86821" lon="6.76123">
        <ele>1407</ele>
        <time>2026-08-14T03:57:53.376Z</time>
      </trkpt>
      <trkpt lat="45.86821" lon="6.76125">
        <ele>1408</ele>
        <time>2026-08-14T03:57:54.376Z</time>
      </trkpt>
      <trkpt lat="45.86822" lon="6.76129">
        <ele>1409</ele>
        <time>2026-08-14T03:57:55.376Z</time>
      </trkpt>
      <trkpt lat="45.86822" lon="6.76129">
        <ele>1409</ele>
        <time>2026-08-14T03:57:56.376Z</time>
      </trkpt>
      <trkpt lat="45.86822" lon="6.76131">
        <ele>1409</ele>
        <time>2026-08-14T03:57:57.376Z</time>
      </trkpt>
      <trkpt lat="45.86823" lon="6.76133">
        <ele>1410</ele>
        <time>2026-08-14T03:57:58.376Z</time>
      </trkpt>
      <trkpt lat="45.86823" lon="6.76137">
        <ele>1411</ele>
        <time>2026-08-14T03:57:59.376Z</time>
      </trkpt>
      <trkpt lat="45.86823" lon="6.76137">
        <ele>1411</ele>
        <time>2026-08-14T03:58:00.376Z</time>
      </trkpt>
      <trkpt lat="45.86824" lon="6.76139">
        <ele>1412</ele>
        <time>2026-08-14T03:58:01.376Z</time>
      </trkpt>
      <trkpt lat="45.86823" lon="6.76141">
        <ele>1412</ele>
        <time>2026-08-14T03:58:02.376Z</time>
      </trkpt>
      <trkpt lat="45.86823" lon="6.76142">
        <ele>1413</ele>
        <time>2026-08-14T03:58:03.376Z</time>
      </trkpt>
      <trkpt lat="45.86824" lon="6.76145">
        <ele>1415</ele>
        <time>2026-08-14T03:58:04.376Z</time>
      </trkpt>
      <trkpt lat="45.86824" lon="6.76145">
        <ele>1415</ele>
        <time>2026-08-14T03:58:05.376Z</time>
      </trkpt>
      <trkpt lat="45.86825" lon="6.76147">
        <ele>1415</ele>
        <time>2026-08-14T03:58:06.376Z</time>
      </trkpt>
      <trkpt lat="45.86825" lon="6.7615">
        <ele>1417</ele>
        <time>2026-08-14T03:58:07.376Z</time>
      </trkpt>
      <trkpt lat="45.86825" lon="6.7615">
        <ele>1417</ele>
        <time>2026-08-14T03:58:08.376Z</time>
      </trkpt>
      <trkpt lat="45.86826" lon="6.76151">
        <ele>1417</ele>
        <time>2026-08-14T03:58:09.376Z</time>
      </trkpt>
      <trkpt lat="45.86826" lon="6.76152">
        <ele>1418</ele>
        <time>2026-08-14T03:58:10.376Z</time>
      </trkpt>
      <trkpt lat="45.86827" lon="6.76154">
        <ele>1418</ele>
        <time>2026-08-14T03:58:11.376Z</time>
      </trkpt>
      <trkpt lat="45.86827" lon="6.76154">
        <ele>1418</ele>
        <time>2026-08-14T03:58:12.376Z</time>
      </trkpt>
      <trkpt lat="45.86827" lon="6.76154">
        <ele>1418</ele>
        <time>2026-08-14T03:58:13.376Z</time>
      </trkpt>
      <trkpt lat="45.86828" lon="6.76154">
        <ele>1418</ele>
        <time>2026-08-14T03:58:14.376Z</time>
      </trkpt>
      <trkpt lat="45.86828" lon="6.76153">
        <ele>1418</ele>
        <time>2026-08-14T03:58:15.376Z</time>
      </trkpt>
      <trkpt lat="45.86829" lon="6.76152">
        <ele>1417</ele>
        <time>2026-08-14T03:58:16.376Z</time>
      </trkpt>
      <trkpt lat="45.86829" lon="6.76152">
        <ele>1417</ele>
        <time>2026-08-14T03:58:17.376Z</time>
      </trkpt>
      <trkpt lat="45.86828" lon="6.76151">
        <ele>1418</ele>
        <time>2026-08-14T03:58:18.376Z</time>
      </trkpt>
      <trkpt lat="45.86827" lon="6.76151">
        <ele>1417</ele>
        <time>2026-08-14T03:58:19.376Z</time>
      </trkpt>
      <trkpt lat="45.86827" lon="6.76151">
        <ele>1417</ele>
        <time>2026-08-14T03:58:20.376Z</time>
      </trkpt>
      <trkpt lat="45.86828" lon="6.76152">
        <ele>1417</ele>
        <time>2026-08-14T03:58:21.376Z</time>
      </trkpt>
      <trkpt lat="45.86828" lon="6.76152">
        <ele>1417</ele>
        <time>2026-08-14T03:58:22.376Z</time>
      </trkpt>
      <trkpt lat="45.86827" lon="6.76152">
        <ele>1417</ele>
        <time>2026-08-14T03:58:23.376Z</time>
      </trkpt>
      <trkpt lat="45.86827" lon="6.76153">
        <ele>1417</ele>
        <time>2026-08-14T03:58:24.376Z</time>
      </trkpt>
      <trkpt lat="45.86827" lon="6.76153">
        <ele>1417</ele>
        <time>2026-08-14T03:58:25.376Z</time>
      </trkpt>
      <trkpt lat="45.86827" lon="6.76152">
        <ele>1417</ele>
        <time>2026-08-14T03:58:26.376Z</time>
      </trkpt>
      <trkpt lat="45.86827" lon="6.76152">
        <ele>1417</ele>
        <time>2026-08-14T03:58:27.376Z</time>
      </trkpt>
      <trkpt lat="45.86826" lon="6.7615">
        <ele>1417</ele>
        <time>2026-08-14T03:58:28.376Z</time>
      </trkpt>
      <trkpt lat="45.86825" lon="6.76149">
        <ele>1417</ele>
        <time>2026-08-14T03:58:29.376Z</time>
      </trkpt>
      <trkpt lat="45.86825" lon="6.76147">
        <ele>1417</ele>
        <time>2026-08-14T03:58:30.376Z</time>
      </trkpt>
      <trkpt lat="45.86824" lon="6.76146">
        <ele>1416</ele>
        <time>2026-08-14T03:58:31.376Z</time>
      </trkpt>
      <trkpt lat="45.86824" lon="6.76144">
        <ele>1416</ele>
        <time>2026-08-14T03:58:32.376Z</time>
      </trkpt>
      <trkpt lat="45.86823" lon="6.76143">
        <ele>1416</ele>
        <time>2026-08-14T03:58:33.376Z</time>
      </trkpt>
      <trkpt lat="45.86822" lon="6.76143">
        <ele>1417</ele>
        <time>2026-08-14T03:58:34.376Z</time>
      </trkpt>
      <trkpt lat="45.86821" lon="6.76142">
        <ele>1417</ele>
        <time>2026-08-14T03:58:35.376Z</time>
      </trkpt>
      <trkpt lat="45.86821" lon="6.76142">
        <ele>1417</ele>
        <time>2026-08-14T03:58:36.376Z</time>
      </trkpt>
      <trkpt lat="45.8682" lon="6.76143">
        <ele>1417</ele>
        <time>2026-08-14T03:58:37.376Z</time>
      </trkpt>
      <trkpt lat="45.8682" lon="6.76143">
        <ele>1418</ele>
        <time>2026-08-14T03:58:38.376Z</time>
      </trkpt>
      <trkpt lat="45.86819" lon="6.76143">
        <ele>1418</ele>
        <time>2026-08-14T03:58:39.376Z</time>
      </trkpt>
      <trkpt lat="45.86818" lon="6.76144">
        <ele>1419</ele>
        <time>2026-08-14T03:58:40.376Z</time>
      </trkpt>
      <trkpt lat="45.86818" lon="6.76144">
        <ele>1419</ele>
        <time>2026-08-14T03:58:41.376Z</time>
      </trkpt>
      <trkpt lat="45.86818" lon="6.76145">
        <ele>1420</ele>
        <time>2026-08-14T03:58:42.376Z</time>
      </trkpt>
      <trkpt lat="45.86817" lon="6.76145">
        <ele>1420</ele>
        <time>2026-08-14T03:58:43.376Z</time>
      </trkpt>
      <trkpt lat="45.86817" lon="6.76145">
        <ele>1421</ele>
        <time>2026-08-14T03:58:44.376Z</time>
      </trkpt>
      <trkpt lat="45.86817" lon="6.76145">
        <ele>1421</ele>
        <time>2026-08-14T03:58:45.376Z</time>
      </trkpt>
      <trkpt lat="45.86817" lon="6.76145">
        <ele>1422</ele>
        <time>2026-08-14T03:58:46.376Z</time>
      </trkpt>
      <trkpt lat="45.86816" lon="6.76144">
        <ele>1423</ele>
        <time>2026-08-14T03:58:47.376Z</time>
      </trkpt>
      <trkpt lat="45.86816" lon="6.76144">
        <ele>1423</ele>
        <time>2026-08-14T03:58:48.376Z</time>
      </trkpt>
      <trkpt lat="45.86815" lon="6.76144">
        <ele>1423</ele>
        <time>2026-08-14T03:58:49.376Z</time>
      </trkpt>
      <trkpt lat="45.86814" lon="6.76144">
        <ele>1424</ele>
        <time>2026-08-14T03:58:50.376Z</time>
      </trkpt>
      <trkpt lat="45.86814" lon="6.76143">
        <ele>1425</ele>
        <time>2026-08-14T03:58:51.376Z</time>
      </trkpt>
      <trkpt lat="45.86814" lon="6.76143">
        <ele>1425</ele>
        <time>2026-08-14T03:58:52.376Z</time>
      </trkpt>
      <trkpt lat="45.86814" lon="6.76143">
        <ele>1425</ele>
        <time>2026-08-14T03:58:53.376Z</time>
      </trkpt>
      <trkpt lat="45.86813" lon="6.76145">
        <ele>1425</ele>
        <time>2026-08-14T03:58:54.376Z</time>
      </trkpt>
      <trkpt lat="45.86813" lon="6.76145">
        <ele>1425</ele>
        <time>2026-08-14T03:58:55.376Z</time>
      </trkpt>
      <trkpt lat="45.86812" lon="6.76146">
        <ele>1425</ele>
        <time>2026-08-14T03:58:56.376Z</time>
      </trkpt>
      <trkpt lat="45.86812" lon="6.76147">
        <ele>1425</ele>
        <time>2026-08-14T03:58:57.376Z</time>
      </trkpt>
      <trkpt lat="45.86812" lon="6.76148">
        <ele>1425</ele>
        <time>2026-08-14T03:58:58.376Z</time>
      </trkpt>
      <trkpt lat="45.86812" lon="6.76149">
        <ele>1426</ele>
        <time>2026-08-14T03:58:59.376Z</time>
      </trkpt>
      <trkpt lat="45.86812" lon="6.7615">
        <ele>1425</ele>
        <time>2026-08-14T03:59:00.376Z</time>
      </trkpt>
      <trkpt lat="45.86811" lon="6.7615">
        <ele>1425</ele>
        <time>2026-08-14T03:59:01.376Z</time>
      </trkpt>
      <trkpt lat="45.86811" lon="6.7615">
        <ele>1425</ele>
        <time>2026-08-14T03:59:02.376Z</time>
      </trkpt>
      <trkpt lat="45.86811" lon="6.7615">
        <ele>1425</ele>
        <time>2026-08-14T03:59:03.376Z</time>
      </trkpt>
      <trkpt lat="45.86811" lon="6.7615">
        <ele>1424</ele>
        <time>2026-08-14T03:59:04.376Z</time>
      </trkpt>
      <trkpt lat="45.86811" lon="6.76151">
        <ele>1424</ele>
        <time>2026-08-14T03:59:05.376Z</time>
      </trkpt>
      <trkpt lat="45.8681" lon="6.76151">
        <ele>1424</ele>
        <time>2026-08-14T03:59:06.376Z</time>
      </trkpt>
      <trkpt lat="45.8681" lon="6.76152">
        <ele>1424</ele>
        <time>2026-08-14T03:59:07.376Z</time>
      </trkpt>
      <trkpt lat="45.86809" lon="6.76153">
        <ele>1424</ele>
        <time>2026-08-14T03:59:08.376Z</time>
      </trkpt>
      <trkpt lat="45.86808" lon="6.76153">
        <ele>1423</ele>
        <time>2026-08-14T03:59:09.376Z</time>
      </trkpt>
      <trkpt lat="45.86808" lon="6.76153">
        <ele>1423</ele>
        <time>2026-08-14T03:59:10.376Z</time>
      </trkpt>
      <trkpt lat="45.86808" lon="6.76154">
        <ele>1423</ele>
        <time>2026-08-14T03:59:11.376Z</time>
      </trkpt>
      <trkpt lat="45.86808" lon="6.76154">
        <ele>1423</ele>
        <time>2026-08-14T03:59:12.376Z</time>
      </trkpt>
      <trkpt lat="45.86807" lon="6.76156">
        <ele>1423</ele>
        <time>2026-08-14T03:59:13.376Z</time>
      </trkpt>
      <trkpt lat="45.86807" lon="6.76156">
        <ele>1423</ele>
        <time>2026-08-14T03:59:14.376Z</time>
      </trkpt>
      <trkpt lat="45.86807" lon="6.76157">
        <ele>1423</ele>
        <time>2026-08-14T03:59:15.376Z</time>
      </trkpt>
      <trkpt lat="45.86807" lon="6.76158">
        <ele>1423</ele>
        <time>2026-08-14T03:59:16.376Z</time>
      </trkpt>
      <trkpt lat="45.86806" lon="6.76159">
        <ele>1423</ele>
        <time>2026-08-14T03:59:17.376Z</time>
      </trkpt>
      <trkpt lat="45.86806" lon="6.7616">
        <ele>1424</ele>
        <time>2026-08-14T03:59:18.376Z</time>
      </trkpt>
      <trkpt lat="45.86806" lon="6.76161">
        <ele>1424</ele>
        <time>2026-08-14T03:59:19.376Z</time>
      </trkpt>
      <trkpt lat="45.86807" lon="6.76162">
        <ele>1424</ele>
        <time>2026-08-14T03:59:20.376Z</time>
      </trkpt>
      <trkpt lat="45.86807" lon="6.76164">
        <ele>1423</ele>
        <time>2026-08-14T03:59:21.376Z</time>
      </trkpt>
      <trkpt lat="45.86807" lon="6.76165">
        <ele>1423</ele>
        <time>2026-08-14T03:59:22.376Z</time>
      </trkpt>
      <trkpt lat="45.86808" lon="6.76167">
        <ele>1423</ele>
        <time>2026-08-14T03:59:23.376Z</time>
      </trkpt>
      <trkpt lat="45.86808" lon="6.76168">
        <ele>1424</ele>
        <time>2026-08-14T03:59:24.376Z</time>
      </trkpt>
      <trkpt lat="45.86809" lon="6.76169">
        <ele>1424</ele>
        <time>2026-08-14T03:59:25.376Z</time>
      </trkpt>
      <trkpt lat="45.86809" lon="6.7617">
        <ele>1424</ele>
        <time>2026-08-14T03:59:26.376Z</time>
      </trkpt>
      <trkpt lat="45.86809" lon="6.7617">
        <ele>1424</ele>
        <time>2026-08-14T03:59:27.376Z</time>
      </trkpt>
      <trkpt lat="45.86809" lon="6.7617">
        <ele>1424</ele>
        <time>2026-08-14T03:59:28.376Z</time>
      </trkpt>
      <trkpt lat="45.86809" lon="6.76172">
        <ele>1425</ele>
        <time>2026-08-14T03:59:29.376Z</time>
      </trkpt>
      <trkpt lat="45.86809" lon="6.76173">
        <ele>1425</ele>
        <time>2026-08-14T03:59:30.376Z</time>
      </trkpt>
      <trkpt lat="45.86809" lon="6.76175">
        <ele>1425</ele>
        <time>2026-08-14T03:59:31.376Z</time>
      </trkpt>
      <trkpt lat="45.86809" lon="6.76176">
        <ele>1424</ele>
        <time>2026-08-14T03:59:32.376Z</time>
      </trkpt>
      <trkpt lat="45.86809" lon="6.76177">
        <ele>1424</ele>
        <time>2026-08-14T03:59:33.376Z</time>
      </trkpt>
      <trkpt lat="45.8681" lon="6.76178">
        <ele>1424</ele>
        <time>2026-08-14T03:59:34.376Z</time>
      </trkpt>
      <trkpt lat="45.8681" lon="6.7618">
        <ele>1424</ele>
        <time>2026-08-14T03:59:35.376Z</time>
      </trkpt>
      <trkpt lat="45.8681" lon="6.76182">
        <ele>1424</ele>
        <time>2026-08-14T03:59:36.376Z</time>
      </trkpt>
      <trkpt lat="45.86811" lon="6.76184">
        <ele>1424</ele>
        <time>2026-08-14T03:59:37.376Z</time>
      </trkpt>
      <trkpt lat="45.86811" lon="6.76186">
        <ele>1424</ele>
        <time>2026-08-14T03:59:38.376Z</time>
      </trkpt>
      <trkpt lat="45.86811" lon="6.76188">
        <ele>1424</ele>
        <time>2026-08-14T03:59:39.376Z</time>
      </trkpt>
      <trkpt lat="45.86811" lon="6.76191">
        <ele>1424</ele>
        <time>2026-08-14T03:59:40.376Z</time>
      </trkpt>
      <trkpt lat="45.86813" lon="6.76194">
        <ele>1423</ele>
        <time>2026-08-14T03:59:41.376Z</time>
      </trkpt>
      <trkpt lat="45.86813" lon="6.76194">
        <ele>1423</ele>
        <time>2026-08-14T03:59:42.376Z</time>
      </trkpt>
      <trkpt lat="45.86815" lon="6.76196">
        <ele>1424</ele>
        <time>2026-08-14T03:59:43.376Z</time>
      </trkpt>
      <trkpt lat="45.86816" lon="6.76199">
        <ele>1425</ele>
        <time>2026-08-14T03:59:44.376Z</time>
      </trkpt>
      <trkpt lat="45.86816" lon="6.76199">
        <ele>1425</ele>
        <time>2026-08-14T03:59:45.376Z</time>
      </trkpt>
      <trkpt lat="45.86817" lon="6.762">
        <ele>1426</ele>
        <time>2026-08-14T03:59:46.376Z</time>
      </trkpt>
      <trkpt lat="45.86817" lon="6.76202">
        <ele>1427</ele>
        <time>2026-08-14T03:59:47.376Z</time>
      </trkpt>
      <trkpt lat="45.86817" lon="6.76203">
        <ele>1427</ele>
        <time>2026-08-14T03:59:48.376Z</time>
      </trkpt>
      <trkpt lat="45.86817" lon="6.76205">
        <ele>1428</ele>
        <time>2026-08-14T03:59:49.376Z</time>
      </trkpt>
      <trkpt lat="45.86816" lon="6.76207">
        <ele>1429</ele>
        <time>2026-08-14T03:59:50.376Z</time>
      </trkpt>
      <trkpt lat="45.86816" lon="6.76208">
        <ele>1429</ele>
        <time>2026-08-14T03:59:51.376Z</time>
      </trkpt>
      <trkpt lat="45.86815" lon="6.76209">
        <ele>1430</ele>
        <time>2026-08-14T03:59:52.376Z</time>
      </trkpt>
      <trkpt lat="45.86816" lon="6.76211">
        <ele>1430</ele>
        <time>2026-08-14T03:59:53.376Z</time>
      </trkpt>
      <trkpt lat="45.86816" lon="6.76212">
        <ele>1431</ele>
        <time>2026-08-14T03:59:54.376Z</time>
      </trkpt>
      <trkpt lat="45.86815" lon="6.76215">
        <ele>1431</ele>
        <time>2026-08-14T03:59:55.376Z</time>
      </trkpt>
      <trkpt lat="45.86815" lon="6.76217">
        <ele>1431</ele>
        <time>2026-08-14T03:59:56.376Z</time>
      </trkpt>
      <trkpt lat="45.86816" lon="6.76219">
        <ele>1432</ele>
        <time>2026-08-14T03:59:57.376Z</time>
      </trkpt>
      <trkpt lat="45.86816" lon="6.76221">
        <ele>1432</ele>
        <time>2026-08-14T03:59:58.376Z</time>
      </trkpt>
      <trkpt lat="45.86816" lon="6.76222">
        <ele>1433</ele>
        <time>2026-08-14T03:59:59.376Z</time>
      </trkpt>
      <trkpt lat="45.86816" lon="6.76223">
        <ele>1433</ele>
        <time>2026-08-14T04:00:00.376Z</time>
      </trkpt>
      <trkpt lat="45.86817" lon="6.76224">
        <ele>1434</ele>
        <time>2026-08-14T04:00:01.376Z</time>
      </trkpt>
      <trkpt lat="45.86817" lon="6.76225">
        <ele>1434</ele>
        <time>2026-08-14T04:00:02.376Z</time>
      </trkpt>
      <trkpt lat="45.86818" lon="6.76228">
        <ele>1435</ele>
        <time>2026-08-14T04:00:03.376Z</time>
      </trkpt>
      <trkpt lat="45.86818" lon="6.76229">
        <ele>1436</ele>
        <time>2026-08-14T04:00:04.376Z</time>
      </trkpt>
      <trkpt lat="45.86818" lon="6.76229">
        <ele>1436</ele>
        <time>2026-08-14T04:00:05.376Z</time>
      </trkpt>
      <trkpt lat="45.86819" lon="6.76231">
        <ele>1436</ele>
        <time>2026-08-14T04:00:06.376Z</time>
      </trkpt>
      <trkpt lat="45.8682" lon="6.76235">
        <ele>1436</ele>
        <time>2026-08-14T04:00:07.376Z</time>
      </trkpt>
      <trkpt lat="45.8682" lon="6.76235">
        <ele>1436</ele>
        <time>2026-08-14T04:00:08.376Z</time>
      </trkpt>
      <trkpt lat="45.86821" lon="6.76236">
        <ele>1436</ele>
        <time>2026-08-14T04:00:09.376Z</time>
      </trkpt>
      <trkpt lat="45.86822" lon="6.76237">
        <ele>1436</ele>
        <time>2026-08-14T04:00:10.376Z</time>
      </trkpt>
      <trkpt lat="45.86824" lon="6.76239">
        <ele>1436</ele>
        <time>2026-08-14T04:00:11.376Z</time>
      </trkpt>
      <trkpt lat="45.86824" lon="6.7624">
        <ele>1436</ele>
        <time>2026-08-14T04:00:12.376Z</time>
      </trkpt>
      <trkpt lat="45.86826" lon="6.76242">
        <ele>1436</ele>
        <time>2026-08-14T04:00:13.376Z</time>
      </trkpt>
      <trkpt lat="45.86827" lon="6.76243">
        <ele>1436</ele>
        <time>2026-08-14T04:00:14.376Z</time>
      </trkpt>
      <trkpt lat="45.86827" lon="6.76244">
        <ele>1436</ele>
        <time>2026-08-14T04:00:15.376Z</time>
      </trkpt>
      <trkpt lat="45.86827" lon="6.76245">
        <ele>1437</ele>
        <time>2026-08-14T04:00:16.376Z</time>
      </trkpt>
      <trkpt lat="45.86828" lon="6.76247">
        <ele>1438</ele>
        <time>2026-08-14T04:00:17.376Z</time>
      </trkpt>
      <trkpt lat="45.86828" lon="6.76248">
        <ele>1438</ele>
        <time>2026-08-14T04:00:18.376Z</time>
      </trkpt>
      <trkpt lat="45.86829" lon="6.7625">
        <ele>1438</ele>
        <time>2026-08-14T04:00:19.376Z</time>
      </trkpt>
      <trkpt lat="45.86829" lon="6.76251">
        <ele>1438</ele>
        <time>2026-08-14T04:00:20.376Z</time>
      </trkpt>
      <trkpt lat="45.8683" lon="6.76252">
        <ele>1437</ele>
        <time>2026-08-14T04:00:21.376Z</time>
      </trkpt>
      <trkpt lat="45.8683" lon="6.76255">
        <ele>1437</ele>
        <time>2026-08-14T04:00:22.376Z</time>
      </trkpt>
      <trkpt lat="45.86829" lon="6.76258">
        <ele>1437</ele>
        <time>2026-08-14T04:00:23.376Z</time>
      </trkpt>
      <trkpt lat="45.86829" lon="6.7626">
        <ele>1436</ele>
        <time>2026-08-14T04:00:24.376Z</time>
      </trkpt>
      <trkpt lat="45.86829" lon="6.76261">
        <ele>1436</ele>
        <time>2026-08-14T04:00:25.376Z</time>
      </trkpt>
      <trkpt lat="45.86828" lon="6.76263">
        <ele>1436</ele>
        <time>2026-08-14T04:00:26.376Z</time>
      </trkpt>
      <trkpt lat="45.86829" lon="6.76265">
        <ele>1436</ele>
        <time>2026-08-14T04:00:27.376Z</time>
      </trkpt>
      <trkpt lat="45.86829" lon="6.76267">
        <ele>1436</ele>
        <time>2026-08-14T04:00:28.376Z</time>
      </trkpt>
      <trkpt lat="45.86829" lon="6.76269">
        <ele>1437</ele>
        <time>2026-08-14T04:00:29.376Z</time>
      </trkpt>
      <trkpt lat="45.86829" lon="6.76271">
        <ele>1437</ele>
        <time>2026-08-14T04:00:30.376Z</time>
      </trkpt>
      <trkpt lat="45.86829" lon="6.76274">
        <ele>1438</ele>
        <time>2026-08-14T04:00:31.376Z</time>
      </trkpt>
      <trkpt lat="45.86829" lon="6.76274">
        <ele>1438</ele>
        <time>2026-08-14T04:00:32.376Z</time>
      </trkpt>
      <trkpt lat="45.86829" lon="6.76276">
        <ele>1439</ele>
        <time>2026-08-14T04:00:33.376Z</time>
      </trkpt>
      <trkpt lat="45.86828" lon="6.7628">
        <ele>1440</ele>
        <time>2026-08-14T04:00:34.376Z</time>
      </trkpt>
      <trkpt lat="45.86828" lon="6.76281">
        <ele>1440</ele>
        <time>2026-08-14T04:00:35.376Z</time>
      </trkpt>
      <trkpt lat="45.86828" lon="6.76281">
        <ele>1440</ele>
        <time>2026-08-14T04:00:36.376Z</time>
      </trkpt>
      <trkpt lat="45.86828" lon="6.76282">
        <ele>1441</ele>
        <time>2026-08-14T04:00:37.376Z</time>
      </trkpt>
      <trkpt lat="45.86827" lon="6.76284">
        <ele>1442</ele>
        <time>2026-08-14T04:00:38.376Z</time>
      </trkpt>
      <trkpt lat="45.86827" lon="6.76284">
        <ele>1442</ele>
        <time>2026-08-14T04:00:39.376Z</time>
      </trkpt>
      <trkpt lat="45.86827" lon="6.76287">
        <ele>1443</ele>
        <time>2026-08-14T04:00:40.376Z</time>
      </trkpt>
      <trkpt lat="45.86827" lon="6.76287">
        <ele>1443</ele>
        <time>2026-08-14T04:00:41.376Z</time>
      </trkpt>
      <trkpt lat="45.86828" lon="6.76288">
        <ele>1443</ele>
        <time>2026-08-14T04:00:42.376Z</time>
      </trkpt>
      <trkpt lat="45.86828" lon="6.76289">
        <ele>1444</ele>
        <time>2026-08-14T04:00:43.376Z</time>
      </trkpt>
      <trkpt lat="45.86828" lon="6.76291">
        <ele>1444</ele>
        <time>2026-08-14T04:00:44.376Z</time>
      </trkpt>
      <trkpt lat="45.86828" lon="6.76295">
        <ele>1445</ele>
        <time>2026-08-14T04:00:45.376Z</time>
      </trkpt>
      <trkpt lat="45.86828" lon="6.76295">
        <ele>1445</ele>
        <time>2026-08-14T04:00:46.376Z</time>
      </trkpt>
      <trkpt lat="45.86827" lon="6.76298">
        <ele>1446</ele>
        <time>2026-08-14T04:00:47.376Z</time>
      </trkpt>
      <trkpt lat="45.86827" lon="6.76298">
        <ele>1446</ele>
        <time>2026-08-14T04:00:48.376Z</time>
      </trkpt>
      <trkpt lat="45.86827" lon="6.763">
        <ele>1447</ele>
        <time>2026-08-14T04:00:49.376Z</time>
      </trkpt>
      <trkpt lat="45.86827" lon="6.76301">
        <ele>1447</ele>
        <time>2026-08-14T04:00:50.376Z</time>
      </trkpt>
      <trkpt lat="45.86827" lon="6.76302">
        <ele>1447</ele>
        <time>2026-08-14T04:00:51.376Z</time>
      </trkpt>
      <trkpt lat="45.86826" lon="6.76304">
        <ele>1448</ele>
        <time>2026-08-14T04:00:52.376Z</time>
      </trkpt>
      <trkpt lat="45.86826" lon="6.76306">
        <ele>1448</ele>
        <time>2026-08-14T04:00:53.376Z</time>
      </trkpt>
      <trkpt lat="45.86825" lon="6.76308">
        <ele>1447</ele>
        <time>2026-08-14T04:00:54.376Z</time>
      </trkpt>
      <trkpt lat="45.86825" lon="6.7631">
        <ele>1447</ele>
        <time>2026-08-14T04:00:55.376Z</time>
      </trkpt>
      <trkpt lat="45.86825" lon="6.76313">
        <ele>1446</ele>
        <time>2026-08-14T04:00:56.376Z</time>
      </trkpt>
      <trkpt lat="45.86825" lon="6.76313">
        <ele>1446</ele>
        <time>2026-08-14T04:00:57.376Z</time>
      </trkpt>
      <trkpt lat="45.86824" lon="6.76315">
        <ele>1445</ele>
        <time>2026-08-14T04:00:58.376Z</time>
      </trkpt>
      <trkpt lat="45.86824" lon="6.76317">
        <ele>1445</ele>
        <time>2026-08-14T04:00:59.376Z</time>
      </trkpt>
      <trkpt lat="45.86824" lon="6.76319">
        <ele>1445</ele>
        <time>2026-08-14T04:01:00.376Z</time>
      </trkpt>
      <trkpt lat="45.86824" lon="6.76321">
        <ele>1445</ele>
        <time>2026-08-14T04:01:01.376Z</time>
      </trkpt>
      <trkpt lat="45.86824" lon="6.76323">
        <ele>1445</ele>
        <time>2026-08-14T04:01:02.376Z</time>
      </trkpt>
      <trkpt lat="45.86824" lon="6.76325">
        <ele>1445</ele>
        <time>2026-08-14T04:01:03.376Z</time>
      </trkpt>
      <trkpt lat="45.86824" lon="6.76327">
        <ele>1445</ele>
        <time>2026-08-14T04:01:04.376Z</time>
      </trkpt>
      <trkpt lat="45.86824" lon="6.76329">
        <ele>1445</ele>
        <time>2026-08-14T04:01:05.376Z</time>
      </trkpt>
      <trkpt lat="45.86824" lon="6.7633">
        <ele>1445</ele>
        <time>2026-08-14T04:01:06.376Z</time>
      </trkpt>
      <trkpt lat="45.86823" lon="6.76332">
        <ele>1444</ele>
        <time>2026-08-14T04:01:07.376Z</time>
      </trkpt>
      <trkpt lat="45.86823" lon="6.76334">
        <ele>1444</ele>
        <time>2026-08-14T04:01:08.376Z</time>
      </trkpt>
      <trkpt lat="45.86822" lon="6.76336">
        <ele>1444</ele>
        <time>2026-08-14T04:01:09.376Z</time>
      </trkpt>
      <trkpt lat="45.86822" lon="6.76338">
        <ele>1444</ele>
        <time>2026-08-14T04:01:10.376Z</time>
      </trkpt>
      <trkpt lat="45.86821" lon="6.76342">
        <ele>1444</ele>
        <time>2026-08-14T04:01:11.376Z</time>
      </trkpt>
      <trkpt lat="45.86821" lon="6.76342">
        <ele>1444</ele>
        <time>2026-08-14T04:01:12.376Z</time>
      </trkpt>
      <trkpt lat="45.86821" lon="6.76343">
        <ele>1444</ele>
        <time>2026-08-14T04:01:13.376Z</time>
      </trkpt>
      <trkpt lat="45.8682" lon="6.76345">
        <ele>1444</ele>
        <time>2026-08-14T04:01:14.376Z</time>
      </trkpt>
      <trkpt lat="45.8682" lon="6.76347">
        <ele>1444</ele>
        <time>2026-08-14T04:01:15.376Z</time>
      </trkpt>
      <trkpt lat="45.8682" lon="6.76349">
        <ele>1444</ele>
        <time>2026-08-14T04:01:16.376Z</time>
      </trkpt>
      <trkpt lat="45.86819" lon="6.76352">
        <ele>1444</ele>
        <time>2026-08-14T04:01:17.376Z</time>
      </trkpt>
      <trkpt lat="45.86819" lon="6.76353">
        <ele>1445</ele>
        <time>2026-08-14T04:01:18.376Z</time>
      </trkpt>
      <trkpt lat="45.86819" lon="6.76355">
        <ele>1445</ele>
        <time>2026-08-14T04:01:19.376Z</time>
      </trkpt>
      <trkpt lat="45.86818" lon="6.76357">
        <ele>1446</ele>
        <time>2026-08-14T04:01:20.376Z</time>
      </trkpt>
      <trkpt lat="45.86818" lon="6.76359">
        <ele>1447</ele>
        <time>2026-08-14T04:01:21.376Z</time>
      </trkpt>
      <trkpt lat="45.86818" lon="6.7636">
        <ele>1448</ele>
        <time>2026-08-14T04:01:22.376Z</time>
      </trkpt>
      <trkpt lat="45.86817" lon="6.76362">
        <ele>1448</ele>
        <time>2026-08-14T04:01:23.376Z</time>
      </trkpt>
      <trkpt lat="45.86817" lon="6.76363">
        <ele>1448</ele>
        <time>2026-08-14T04:01:24.376Z</time>
      </trkpt>
      <trkpt lat="45.86817" lon="6.76364">
        <ele>1449</ele>
        <time>2026-08-14T04:01:25.376Z</time>
      </trkpt>
      <trkpt lat="45.86816" lon="6.76366">
        <ele>1449</ele>
        <time>2026-08-14T04:01:26.376Z</time>
      </trkpt>
      <trkpt lat="45.86816" lon="6.76367">
        <ele>1449</ele>
        <time>2026-08-14T04:01:27.376Z</time>
      </trkpt>
      <trkpt lat="45.86816" lon="6.76369">
        <ele>1450</ele>
        <time>2026-08-14T04:01:28.376Z</time>
      </trkpt>
      <trkpt lat="45.86815" lon="6.7637">
        <ele>1450</ele>
        <time>2026-08-14T04:01:29.376Z</time>
      </trkpt>
      <trkpt lat="45.86815" lon="6.76372">
        <ele>1450</ele>
        <time>2026-08-14T04:01:30.376Z</time>
      </trkpt>
      <trkpt lat="45.86815" lon="6.76374">
        <ele>1450</ele>
        <time>2026-08-14T04:01:31.376Z</time>
      </trkpt>
      <trkpt lat="45.86814" lon="6.76375">
        <ele>1450</ele>
        <time>2026-08-14T04:01:32.376Z</time>
      </trkpt>
      <trkpt lat="45.86814" lon="6.76377">
        <ele>1451</ele>
        <time>2026-08-14T04:01:33.376Z</time>
      </trkpt>
      <trkpt lat="45.86813" lon="6.76378">
        <ele>1451</ele>
        <time>2026-08-14T04:01:34.376Z</time>
      </trkpt>
      <trkpt lat="45.86813" lon="6.7638">
        <ele>1451</ele>
        <time>2026-08-14T04:01:35.376Z</time>
      </trkpt>
      <trkpt lat="45.86813" lon="6.76381">
        <ele>1451</ele>
        <time>2026-08-14T04:01:36.376Z</time>
      </trkpt>
      <trkpt lat="45.86813" lon="6.76383">
        <ele>1451</ele>
        <time>2026-08-14T04:01:37.376Z</time>
      </trkpt>
      <trkpt lat="45.86813" lon="6.76384">
        <ele>1451</ele>
        <time>2026-08-14T04:01:38.376Z</time>
      </trkpt>
      <trkpt lat="45.86813" lon="6.76386">
        <ele>1451</ele>
        <time>2026-08-14T04:01:39.376Z</time>
      </trkpt>
      <trkpt lat="45.86813" lon="6.76387">
        <ele>1451</ele>
        <time>2026-08-14T04:01:40.376Z</time>
      </trkpt>
      <trkpt lat="45.86813" lon="6.76389">
        <ele>1451</ele>
        <time>2026-08-14T04:01:41.376Z</time>
      </trkpt>
      <trkpt lat="45.86813" lon="6.7639">
        <ele>1451</ele>
        <time>2026-08-14T04:01:42.376Z</time>
      </trkpt>
      <trkpt lat="45.86814" lon="6.76392">
        <ele>1451</ele>
        <time>2026-08-14T04:01:43.376Z</time>
      </trkpt>
      <trkpt lat="45.86814" lon="6.76393">
        <ele>1451</ele>
        <time>2026-08-14T04:01:44.376Z</time>
      </trkpt>
      <trkpt lat="45.86815" lon="6.76395">
        <ele>1451</ele>
        <time>2026-08-14T04:01:45.376Z</time>
      </trkpt>
      <trkpt lat="45.86815" lon="6.76397">
        <ele>1451</ele>
        <time>2026-08-14T04:01:46.376Z</time>
      </trkpt>
      <trkpt lat="45.86814" lon="6.76399">
        <ele>1451</ele>
        <time>2026-08-14T04:01:47.376Z</time>
      </trkpt>
      <trkpt lat="45.86814" lon="6.764">
        <ele>1451</ele>
        <time>2026-08-14T04:01:48.376Z</time>
      </trkpt>
      <trkpt lat="45.86815" lon="6.76402">
        <ele>1451</ele>
        <time>2026-08-14T04:01:49.376Z</time>
      </trkpt>
      <trkpt lat="45.86815" lon="6.76404">
        <ele>1450</ele>
        <time>2026-08-14T04:01:50.376Z</time>
      </trkpt>
      <trkpt lat="45.86815" lon="6.76406">
        <ele>1451</ele>
        <time>2026-08-14T04:01:51.376Z</time>
      </trkpt>
      <trkpt lat="45.86815" lon="6.76408">
        <ele>1451</ele>
        <time>2026-08-14T04:01:52.376Z</time>
      </trkpt>
      <trkpt lat="45.86815" lon="6.7641">
        <ele>1451</ele>
        <time>2026-08-14T04:01:53.376Z</time>
      </trkpt>
      <trkpt lat="45.86815" lon="6.76412">
        <ele>1451</ele>
        <time>2026-08-14T04:01:54.376Z</time>
      </trkpt>
      <trkpt lat="45.86815" lon="6.76415">
        <ele>1450</ele>
        <time>2026-08-14T04:01:55.376Z</time>
      </trkpt>
      <trkpt lat="45.86815" lon="6.76417">
        <ele>1450</ele>
        <time>2026-08-14T04:01:56.376Z</time>
      </trkpt>
      <trkpt lat="45.86815" lon="6.76419">
        <ele>1450</ele>
        <time>2026-08-14T04:01:57.376Z</time>
      </trkpt>
      <trkpt lat="45.86815" lon="6.76421">
        <ele>1450</ele>
        <time>2026-08-14T04:01:58.376Z</time>
      </trkpt>
      <trkpt lat="45.86816" lon="6.76424">
        <ele>1450</ele>
        <time>2026-08-14T04:01:59.376Z</time>
      </trkpt>
      <trkpt lat="45.86816" lon="6.76426">
        <ele>1450</ele>
        <time>2026-08-14T04:02:00.376Z</time>
      </trkpt>
      <trkpt lat="45.86816" lon="6.76429">
        <ele>1450</ele>
        <time>2026-08-14T04:02:01.376Z</time>
      </trkpt>
      <trkpt lat="45.86816" lon="6.76431">
        <ele>1450</ele>
        <time>2026-08-14T04:02:02.376Z</time>
      </trkpt>
      <trkpt lat="45.86816" lon="6.76433">
        <ele>1450</ele>
        <time>2026-08-14T04:02:03.376Z</time>
      </trkpt>
      <trkpt lat="45.86816" lon="6.76435">
        <ele>1450</ele>
        <time>2026-08-14T04:02:04.376Z</time>
      </trkpt>
      <trkpt lat="45.86816" lon="6.76437">
        <ele>1450</ele>
        <time>2026-08-14T04:02:05.376Z</time>
      </trkpt>
      <trkpt lat="45.86816" lon="6.76439">
        <ele>1450</ele>
        <time>2026-08-14T04:02:06.376Z</time>
      </trkpt>
      <trkpt lat="45.86816" lon="6.7644">
        <ele>1450</ele>
        <time>2026-08-14T04:02:07.376Z</time>
      </trkpt>
      <trkpt lat="45.86816" lon="6.76442">
        <ele>1450</ele>
        <time>2026-08-14T04:02:08.376Z</time>
      </trkpt>
      <trkpt lat="45.86816" lon="6.76444">
        <ele>1450</ele>
        <time>2026-08-14T04:02:09.376Z</time>
      </trkpt>
      <trkpt lat="45.86816" lon="6.76446">
        <ele>1450</ele>
        <time>2026-08-14T04:02:10.376Z</time>
      </trkpt>
      <trkpt lat="45.86816" lon="6.76447">
        <ele>1450</ele>
        <time>2026-08-14T04:02:11.376Z</time>
      </trkpt>
      <trkpt lat="45.86816" lon="6.76449">
        <ele>1451</ele>
        <time>2026-08-14T04:02:12.376Z</time>
      </trkpt>
      <trkpt lat="45.86816" lon="6.7645">
        <ele>1451</ele>
        <time>2026-08-14T04:02:13.376Z</time>
      </trkpt>
      <trkpt lat="45.86816" lon="6.76452">
        <ele>1451</ele>
        <time>2026-08-14T04:02:14.376Z</time>
      </trkpt>
      <trkpt lat="45.86816" lon="6.76454">
        <ele>1452</ele>
        <time>2026-08-14T04:02:15.376Z</time>
      </trkpt>
      <trkpt lat="45.86816" lon="6.76456">
        <ele>1452</ele>
        <time>2026-08-14T04:02:16.376Z</time>
      </trkpt>
      <trkpt lat="45.86816" lon="6.76458">
        <ele>1452</ele>
        <time>2026-08-14T04:02:17.376Z</time>
      </trkpt>
      <trkpt lat="45.86815" lon="6.76459">
        <ele>1453</ele>
        <time>2026-08-14T04:02:18.376Z</time>
      </trkpt>
      <trkpt lat="45.86815" lon="6.76461">
        <ele>1453</ele>
        <time>2026-08-14T04:02:19.376Z</time>
      </trkpt>
      <trkpt lat="45.86814" lon="6.76463">
        <ele>1453</ele>
        <time>2026-08-14T04:02:20.376Z</time>
      </trkpt>
      <trkpt lat="45.86814" lon="6.76465">
        <ele>1453</ele>
        <time>2026-08-14T04:02:21.376Z</time>
      </trkpt>
      <trkpt lat="45.86814" lon="6.76466">
        <ele>1454</ele>
        <time>2026-08-14T04:02:22.376Z</time>
      </trkpt>
      <trkpt lat="45.86813" lon="6.76468">
        <ele>1454</ele>
        <time>2026-08-14T04:02:23.376Z</time>
      </trkpt>
      <trkpt lat="45.86813" lon="6.7647">
        <ele>1455</ele>
        <time>2026-08-14T04:02:24.376Z</time>
      </trkpt>
      <trkpt lat="45.86813" lon="6.76472">
        <ele>1455</ele>
        <time>2026-08-14T04:02:25.376Z</time>
      </trkpt>
      <trkpt lat="45.86813" lon="6.76474">
        <ele>1455</ele>
        <time>2026-08-14T04:02:26.376Z</time>
      </trkpt>
      <trkpt lat="45.86813" lon="6.76476">
        <ele>1455</ele>
        <time>2026-08-14T04:02:27.376Z</time>
      </trkpt>
      <trkpt lat="45.86813" lon="6.76477">
        <ele>1456</ele>
        <time>2026-08-14T04:02:28.376Z</time>
      </trkpt>
      <trkpt lat="45.86813" lon="6.76479">
        <ele>1456</ele>
        <time>2026-08-14T04:02:29.376Z</time>
      </trkpt>
      <trkpt lat="45.86813" lon="6.76481">
        <ele>1456</ele>
        <time>2026-08-14T04:02:30.376Z</time>
      </trkpt>
      <trkpt lat="45.86813" lon="6.76483">
        <ele>1456</ele>
        <time>2026-08-14T04:02:31.376Z</time>
      </trkpt>
      <trkpt lat="45.86812" lon="6.76484">
        <ele>1456</ele>
        <time>2026-08-14T04:02:32.376Z</time>
      </trkpt>
      <trkpt lat="45.86812" lon="6.76486">
        <ele>1456</ele>
        <time>2026-08-14T04:02:33.376Z</time>
      </trkpt>
      <trkpt lat="45.86813" lon="6.76488">
        <ele>1456</ele>
        <time>2026-08-14T04:02:34.376Z</time>
      </trkpt>
      <trkpt lat="45.86813" lon="6.7649">
        <ele>1456</ele>
        <time>2026-08-14T04:02:35.376Z</time>
      </trkpt>
      <trkpt lat="45.86813" lon="6.76492">
        <ele>1456</ele>
        <time>2026-08-14T04:02:36.376Z</time>
      </trkpt>
      <trkpt lat="45.86813" lon="6.76493">
        <ele>1457</ele>
        <time>2026-08-14T04:02:37.376Z</time>
      </trkpt>
      <trkpt lat="45.86813" lon="6.76495">
        <ele>1457</ele>
        <time>2026-08-14T04:02:38.376Z</time>
      </trkpt>
      <trkpt lat="45.86813" lon="6.76497">
        <ele>1457</ele>
        <time>2026-08-14T04:02:39.376Z</time>
      </trkpt>
      <trkpt lat="45.86813" lon="6.76499">
        <ele>1458</ele>
        <time>2026-08-14T04:02:40.376Z</time>
      </trkpt>
      <trkpt lat="45.86813" lon="6.76501">
        <ele>1458</ele>
        <time>2026-08-14T04:02:41.376Z</time>
      </trkpt>
      <trkpt lat="45.86813" lon="6.76503">
        <ele>1459</ele>
        <time>2026-08-14T04:02:42.376Z</time>
      </trkpt>
      <trkpt lat="45.86812" lon="6.76505">
        <ele>1459</ele>
        <time>2026-08-14T04:02:43.376Z</time>
      </trkpt>
      <trkpt lat="45.86811" lon="6.76507">
        <ele>1459</ele>
        <time>2026-08-14T04:02:44.376Z</time>
      </trkpt>
      <trkpt lat="45.86811" lon="6.76509">
        <ele>1459</ele>
        <time>2026-08-14T04:02:45.376Z</time>
      </trkpt>
      <trkpt lat="45.86811" lon="6.76511">
        <ele>1460</ele>
        <time>2026-08-14T04:02:46.376Z</time>
      </trkpt>
      <trkpt lat="45.86811" lon="6.76513">
        <ele>1460</ele>
        <time>2026-08-14T04:02:47.376Z</time>
      </trkpt>
      <trkpt lat="45.86811" lon="6.76515">
        <ele>1460</ele>
        <time>2026-08-14T04:02:48.376Z</time>
      </trkpt>
      <trkpt lat="45.86811" lon="6.76517">
        <ele>1460</ele>
        <time>2026-08-14T04:02:49.376Z</time>
      </trkpt>
      <trkpt lat="45.8681" lon="6.76519">
        <ele>1460</ele>
        <time>2026-08-14T04:02:50.376Z</time>
      </trkpt>
      <trkpt lat="45.8681" lon="6.7652">
        <ele>1459</ele>
        <time>2026-08-14T04:02:51.376Z</time>
      </trkpt>
      <trkpt lat="45.86809" lon="6.76522">
        <ele>1459</ele>
        <time>2026-08-14T04:02:52.376Z</time>
      </trkpt>
      <trkpt lat="45.86809" lon="6.76524">
        <ele>1459</ele>
        <time>2026-08-14T04:02:53.376Z</time>
      </trkpt>
      <trkpt lat="45.86809" lon="6.76526">
        <ele>1459</ele>
        <time>2026-08-14T04:02:54.376Z</time>
      </trkpt>
      <trkpt lat="45.86809" lon="6.76527">
        <ele>1459</ele>
        <time>2026-08-14T04:02:55.376Z</time>
      </trkpt>
      <trkpt lat="45.86809" lon="6.76529">
        <ele>1460</ele>
        <time>2026-08-14T04:02:56.376Z</time>
      </trkpt>
      <trkpt lat="45.86809" lon="6.76531">
        <ele>1460</ele>
        <time>2026-08-14T04:02:57.376Z</time>
      </trkpt>
      <trkpt lat="45.86808" lon="6.76532">
        <ele>1461</ele>
        <time>2026-08-14T04:02:58.376Z</time>
      </trkpt>
      <trkpt lat="45.86808" lon="6.76534">
        <ele>1461</ele>
        <time>2026-08-14T04:02:59.376Z</time>
      </trkpt>
      <trkpt lat="45.86808" lon="6.76536">
        <ele>1462</ele>
        <time>2026-08-14T04:03:00.376Z</time>
      </trkpt>
      <trkpt lat="45.86808" lon="6.76538">
        <ele>1463</ele>
        <time>2026-08-14T04:03:01.376Z</time>
      </trkpt>
      <trkpt lat="45.86807" lon="6.7654">
        <ele>1463</ele>
        <time>2026-08-14T04:03:02.376Z</time>
      </trkpt>
      <trkpt lat="45.86807" lon="6.76541">
        <ele>1464</ele>
        <time>2026-08-14T04:03:03.376Z</time>
      </trkpt>
      <trkpt lat="45.86807" lon="6.76543">
        <ele>1464</ele>
        <time>2026-08-14T04:03:04.376Z</time>
      </trkpt>
      <trkpt lat="45.86806" lon="6.76545">
        <ele>1465</ele>
        <time>2026-08-14T04:03:05.376Z</time>
      </trkpt>
      <trkpt lat="45.86806" lon="6.76546">
        <ele>1465</ele>
        <time>2026-08-14T04:03:06.376Z</time>
      </trkpt>
      <trkpt lat="45.86806" lon="6.76548">
        <ele>1465</ele>
        <time>2026-08-14T04:03:07.376Z</time>
      </trkpt>
      <trkpt lat="45.86807" lon="6.7655">
        <ele>1466</ele>
        <time>2026-08-14T04:03:08.376Z</time>
      </trkpt>
      <trkpt lat="45.86807" lon="6.76552">
        <ele>1466</ele>
        <time>2026-08-14T04:03:09.376Z</time>
      </trkpt>
      <trkpt lat="45.86807" lon="6.76553">
        <ele>1467</ele>
        <time>2026-08-14T04:03:10.376Z</time>
      </trkpt>
      <trkpt lat="45.86807" lon="6.76555">
        <ele>1467</ele>
        <time>2026-08-14T04:03:11.376Z</time>
      </trkpt>
      <trkpt lat="45.86806" lon="6.76557">
        <ele>1468</ele>
        <time>2026-08-14T04:03:12.376Z</time>
      </trkpt>
      <trkpt lat="45.86806" lon="6.76559">
        <ele>1468</ele>
        <time>2026-08-14T04:03:13.376Z</time>
      </trkpt>
      <trkpt lat="45.86806" lon="6.7656">
        <ele>1468</ele>
        <time>2026-08-14T04:03:14.376Z</time>
      </trkpt>
      <trkpt lat="45.86806" lon="6.76562">
        <ele>1468</ele>
        <time>2026-08-14T04:03:15.376Z</time>
      </trkpt>
      <trkpt lat="45.86806" lon="6.76563">
        <ele>1468</ele>
        <time>2026-08-14T04:03:16.376Z</time>
      </trkpt>
      <trkpt lat="45.86806" lon="6.76564">
        <ele>1468</ele>
        <time>2026-08-14T04:03:17.376Z</time>
      </trkpt>
      <trkpt lat="45.86806" lon="6.76566">
        <ele>1468</ele>
        <time>2026-08-14T04:03:18.376Z</time>
      </trkpt>
      <trkpt lat="45.86806" lon="6.76567">
        <ele>1469</ele>
        <time>2026-08-14T04:03:19.376Z</time>
      </trkpt>
      <trkpt lat="45.86807" lon="6.76568">
        <ele>1469</ele>
        <time>2026-08-14T04:03:20.376Z</time>
      </trkpt>
      <trkpt lat="45.86807" lon="6.7657">
        <ele>1469</ele>
        <time>2026-08-14T04:03:21.376Z</time>
      </trkpt>
      <trkpt lat="45.86807" lon="6.76571">
        <ele>1469</ele>
        <time>2026-08-14T04:03:22.376Z</time>
      </trkpt>
      <trkpt lat="45.86807" lon="6.76572">
        <ele>1469</ele>
        <time>2026-08-14T04:03:23.376Z</time>
      </trkpt>
      <trkpt lat="45.86807" lon="6.76573">
        <ele>1468</ele>
        <time>2026-08-14T04:03:24.376Z</time>
      </trkpt>
      <trkpt lat="45.86808" lon="6.76575">
        <ele>1469</ele>
        <time>2026-08-14T04:03:25.376Z</time>
      </trkpt>
      <trkpt lat="45.86807" lon="6.76576">
        <ele>1468</ele>
        <time>2026-08-14T04:03:26.376Z</time>
      </trkpt>
      <trkpt lat="45.86807" lon="6.76578">
        <ele>1468</ele>
        <time>2026-08-14T04:03:27.376Z</time>
      </trkpt>
      <trkpt lat="45.86807" lon="6.76579">
        <ele>1468</ele>
        <time>2026-08-14T04:03:28.376Z</time>
      </trkpt>
      <trkpt lat="45.86807" lon="6.76581">
        <ele>1468</ele>
        <time>2026-08-14T04:03:29.376Z</time>
      </trkpt>
      <trkpt lat="45.86807" lon="6.76582">
        <ele>1468</ele>
        <time>2026-08-14T04:03:30.376Z</time>
      </trkpt>
      <trkpt lat="45.86807" lon="6.76584">
        <ele>1467</ele>
        <time>2026-08-14T04:03:31.376Z</time>
      </trkpt>
      <trkpt lat="45.86807" lon="6.76585">
        <ele>1467</ele>
        <time>2026-08-14T04:03:32.376Z</time>
      </trkpt>
      <trkpt lat="45.86807" lon="6.76587">
        <ele>1467</ele>
        <time>2026-08-14T04:03:33.376Z</time>
      </trkpt>
      <trkpt lat="45.86807" lon="6.76588">
        <ele>1467</ele>
        <time>2026-08-14T04:03:34.376Z</time>
      </trkpt>
      <trkpt lat="45.86807" lon="6.7659">
        <ele>1468</ele>
        <time>2026-08-14T04:03:35.376Z</time>
      </trkpt>
      <trkpt lat="45.86807" lon="6.76592">
        <ele>1468</ele>
        <time>2026-08-14T04:03:36.376Z</time>
      </trkpt>
      <trkpt lat="45.86807" lon="6.76593">
        <ele>1469</ele>
        <time>2026-08-14T04:03:37.376Z</time>
      </trkpt>
      <trkpt lat="45.86807" lon="6.76594">
        <ele>1469</ele>
        <time>2026-08-14T04:03:38.376Z</time>
      </trkpt>
      <trkpt lat="45.86807" lon="6.76596">
        <ele>1470</ele>
        <time>2026-08-14T04:03:39.376Z</time>
      </trkpt>
      <trkpt lat="45.86807" lon="6.76597">
        <ele>1470</ele>
        <time>2026-08-14T04:03:40.376Z</time>
      </trkpt>
      <trkpt lat="45.86807" lon="6.76599">
        <ele>1471</ele>
        <time>2026-08-14T04:03:41.376Z</time>
      </trkpt>
      <trkpt lat="45.86806" lon="6.766">
        <ele>1471</ele>
        <time>2026-08-14T04:03:42.376Z</time>
      </trkpt>
      <trkpt lat="45.86806" lon="6.76602">
        <ele>1472</ele>
        <time>2026-08-14T04:03:43.376Z</time>
      </trkpt>
      <trkpt lat="45.86806" lon="6.76603">
        <ele>1473</ele>
        <time>2026-08-14T04:03:44.376Z</time>
      </trkpt>
      <trkpt lat="45.86805" lon="6.76605">
        <ele>1474</ele>
        <time>2026-08-14T04:03:45.376Z</time>
      </trkpt>
      <trkpt lat="45.86805" lon="6.76606">
        <ele>1474</ele>
        <time>2026-08-14T04:03:46.376Z</time>
      </trkpt>
      <trkpt lat="45.86804" lon="6.76608">
        <ele>1474</ele>
        <time>2026-08-14T04:03:47.376Z</time>
      </trkpt>
      <trkpt lat="45.86804" lon="6.76609">
        <ele>1475</ele>
        <time>2026-08-14T04:03:48.376Z</time>
      </trkpt>
      <trkpt lat="45.86803" lon="6.76611">
        <ele>1475</ele>
        <time>2026-08-14T04:03:49.376Z</time>
      </trkpt>
      <trkpt lat="45.86803" lon="6.76612">
        <ele>1475</ele>
        <time>2026-08-14T04:03:50.376Z</time>
      </trkpt>
      <trkpt lat="45.86803" lon="6.76614">
        <ele>1476</ele>
        <time>2026-08-14T04:03:51.376Z</time>
      </trkpt>
      <trkpt lat="45.86803" lon="6.76616">
        <ele>1477</ele>
        <time>2026-08-14T04:03:52.376Z</time>
      </trkpt>
      <trkpt lat="45.86803" lon="6.76617">
        <ele>1478</ele>
        <time>2026-08-14T04:03:53.376Z</time>
      </trkpt>
      <trkpt lat="45.86803" lon="6.76618">
        <ele>1478</ele>
        <time>2026-08-14T04:03:54.376Z</time>
      </trkpt>
      <trkpt lat="45.86804" lon="6.7662">
        <ele>1479</ele>
        <time>2026-08-14T04:03:55.376Z</time>
      </trkpt>
      <trkpt lat="45.86804" lon="6.76621">
        <ele>1479</ele>
        <time>2026-08-14T04:03:56.376Z</time>
      </trkpt>
      <trkpt lat="45.86804" lon="6.76623">
        <ele>1480</ele>
        <time>2026-08-14T04:03:57.376Z</time>
      </trkpt>
      <trkpt lat="45.86804" lon="6.76625">
        <ele>1480</ele>
        <time>2026-08-14T04:03:58.376Z</time>
      </trkpt>
      <trkpt lat="45.86805" lon="6.76626">
        <ele>1481</ele>
        <time>2026-08-14T04:03:59.376Z</time>
      </trkpt>
      <trkpt lat="45.86805" lon="6.76628">
        <ele>1481</ele>
        <time>2026-08-14T04:04:00.376Z</time>
      </trkpt>
      <trkpt lat="45.86805" lon="6.7663">
        <ele>1482</ele>
        <time>2026-08-14T04:04:01.376Z</time>
      </trkpt>
      <trkpt lat="45.86806" lon="6.76632">
        <ele>1482</ele>
        <time>2026-08-14T04:04:02.376Z</time>
      </trkpt>
      <trkpt lat="45.86806" lon="6.76634">
        <ele>1482</ele>
        <time>2026-08-14T04:04:03.376Z</time>
      </trkpt>
      <trkpt lat="45.86806" lon="6.76636">
        <ele>1482</ele>
        <time>2026-08-14T04:04:04.376Z</time>
      </trkpt>
      <trkpt lat="45.86807" lon="6.76638">
        <ele>1483</ele>
        <time>2026-08-14T04:04:05.376Z</time>
      </trkpt>
      <trkpt lat="45.86806" lon="6.7664">
        <ele>1483</ele>
        <time>2026-08-14T04:04:06.376Z</time>
      </trkpt>
      <trkpt lat="45.86805" lon="6.76642">
        <ele>1483</ele>
        <time>2026-08-14T04:04:07.376Z</time>
      </trkpt>
      <trkpt lat="45.86805" lon="6.76644">
        <ele>1483</ele>
        <time>2026-08-14T04:04:08.376Z</time>
      </trkpt>
      <trkpt lat="45.86804" lon="6.76646">
        <ele>1483</ele>
        <time>2026-08-14T04:04:09.376Z</time>
      </trkpt>
      <trkpt lat="45.86803" lon="6.76648">
        <ele>1482</ele>
        <time>2026-08-14T04:04:10.376Z</time>
      </trkpt>
      <trkpt lat="45.86802" lon="6.7665">
        <ele>1482</ele>
        <time>2026-08-14T04:04:11.376Z</time>
      </trkpt>
      <trkpt lat="45.86801" lon="6.76652">
        <ele>1482</ele>
        <time>2026-08-14T04:04:12.376Z</time>
      </trkpt>
      <trkpt lat="45.868" lon="6.76654">
        <ele>1481</ele>
        <time>2026-08-14T04:04:13.376Z</time>
      </trkpt>
      <trkpt lat="45.868" lon="6.76656">
        <ele>1481</ele>
        <time>2026-08-14T04:04:14.376Z</time>
      </trkpt>
      <trkpt lat="45.86799" lon="6.76657">
        <ele>1482</ele>
        <time>2026-08-14T04:04:15.376Z</time>
      </trkpt>
      <trkpt lat="45.86799" lon="6.76659">
        <ele>1482</ele>
        <time>2026-08-14T04:04:16.376Z</time>
      </trkpt>
      <trkpt lat="45.86799" lon="6.76661">
        <ele>1482</ele>
        <time>2026-08-14T04:04:17.376Z</time>
      </trkpt>
      <trkpt lat="45.86799" lon="6.76663">
        <ele>1482</ele>
        <time>2026-08-14T04:04:18.376Z</time>
      </trkpt>
      <trkpt lat="45.86799" lon="6.76665">
        <ele>1483</ele>
        <time>2026-08-14T04:04:19.376Z</time>
      </trkpt>
      <trkpt lat="45.86799" lon="6.76667">
        <ele>1484</ele>
        <time>2026-08-14T04:04:20.376Z</time>
      </trkpt>
      <trkpt lat="45.868" lon="6.7667">
        <ele>1485</ele>
        <time>2026-08-14T04:04:21.376Z</time>
      </trkpt>
      <trkpt lat="45.868" lon="6.76672">
        <ele>1485</ele>
        <time>2026-08-14T04:04:22.376Z</time>
      </trkpt>
      <trkpt lat="45.868" lon="6.76674">
        <ele>1485</ele>
        <time>2026-08-14T04:04:23.376Z</time>
      </trkpt>
      <trkpt lat="45.868" lon="6.76677">
        <ele>1486</ele>
        <time>2026-08-14T04:04:24.376Z</time>
      </trkpt>
      <trkpt lat="45.868" lon="6.76679">
        <ele>1486</ele>
        <time>2026-08-14T04:04:25.376Z</time>
      </trkpt>
      <trkpt lat="45.86799" lon="6.76681">
        <ele>1486</ele>
        <time>2026-08-14T04:04:26.376Z</time>
      </trkpt>
      <trkpt lat="45.86799" lon="6.76684">
        <ele>1485</ele>
        <time>2026-08-14T04:04:27.376Z</time>
      </trkpt>
      <trkpt lat="45.86799" lon="6.76686">
        <ele>1485</ele>
        <time>2026-08-14T04:04:28.376Z</time>
      </trkpt>
      <trkpt lat="45.86799" lon="6.76688">
        <ele>1484</ele>
        <time>2026-08-14T04:04:29.376Z</time>
      </trkpt>
      <trkpt lat="45.86799" lon="6.7669">
        <ele>1484</ele>
        <time>2026-08-14T04:04:30.376Z</time>
      </trkpt>
      <trkpt lat="45.86799" lon="6.76692">
        <ele>1483</ele>
        <time>2026-08-14T04:04:31.376Z</time>
      </trkpt>
      <trkpt lat="45.86799" lon="6.76694">
        <ele>1483</ele>
        <time>2026-08-14T04:04:32.376Z</time>
      </trkpt>
      <trkpt lat="45.868" lon="6.76696">
        <ele>1482</ele>
        <time>2026-08-14T04:04:33.376Z</time>
      </trkpt>
      <trkpt lat="45.868" lon="6.76698">
        <ele>1482</ele>
        <time>2026-08-14T04:04:34.376Z</time>
      </trkpt>
      <trkpt lat="45.86801" lon="6.76701">
        <ele>1482</ele>
        <time>2026-08-14T04:04:35.376Z</time>
      </trkpt>
      <trkpt lat="45.86801" lon="6.76703">
        <ele>1481</ele>
        <time>2026-08-14T04:04:36.376Z</time>
      </trkpt>
      <trkpt lat="45.86801" lon="6.76705">
        <ele>1481</ele>
        <time>2026-08-14T04:04:37.376Z</time>
      </trkpt>
      <trkpt lat="45.86801" lon="6.76707">
        <ele>1481</ele>
        <time>2026-08-14T04:04:38.376Z</time>
      </trkpt>
      <trkpt lat="45.868" lon="6.76709">
        <ele>1480</ele>
        <time>2026-08-14T04:04:39.376Z</time>
      </trkpt>
      <trkpt lat="45.868" lon="6.7671">
        <ele>1480</ele>
        <time>2026-08-14T04:04:40.376Z</time>
      </trkpt>
      <trkpt lat="45.868" lon="6.76712">
        <ele>1480</ele>
        <time>2026-08-14T04:04:41.376Z</time>
      </trkpt>
      <trkpt lat="45.868" lon="6.76714">
        <ele>1481</ele>
        <time>2026-08-14T04:04:42.376Z</time>
      </trkpt>
      <trkpt lat="45.868" lon="6.76716">
        <ele>1481</ele>
        <time>2026-08-14T04:04:43.376Z</time>
      </trkpt>
      <trkpt lat="45.86799" lon="6.76718">
        <ele>1481</ele>
        <time>2026-08-14T04:04:44.376Z</time>
      </trkpt>
      <trkpt lat="45.86799" lon="6.7672">
        <ele>1481</ele>
        <time>2026-08-14T04:04:45.376Z</time>
      </trkpt>
      <trkpt lat="45.86799" lon="6.76722">
        <ele>1482</ele>
        <time>2026-08-14T04:04:46.376Z</time>
      </trkpt>
      <trkpt lat="45.86799" lon="6.76724">
        <ele>1482</ele>
        <time>2026-08-14T04:04:47.376Z</time>
      </trkpt>
      <trkpt lat="45.86798" lon="6.76726">
        <ele>1482</ele>
        <time>2026-08-14T04:04:48.376Z</time>
      </trkpt>
      <trkpt lat="45.86798" lon="6.76728">
        <ele>1482</ele>
        <time>2026-08-14T04:04:49.376Z</time>
      </trkpt>
      <trkpt lat="45.86798" lon="6.7673">
        <ele>1482</ele>
        <time>2026-08-14T04:04:50.376Z</time>
      </trkpt>
      <trkpt lat="45.86799" lon="6.76731">
        <ele>1482</ele>
        <time>2026-08-14T04:04:51.376Z</time>
      </trkpt>
      <trkpt lat="45.86799" lon="6.76733">
        <ele>1483</ele>
        <time>2026-08-14T04:04:52.376Z</time>
      </trkpt>
      <trkpt lat="45.86799" lon="6.76735">
        <ele>1483</ele>
        <time>2026-08-14T04:04:53.376Z</time>
      </trkpt>
      <trkpt lat="45.86799" lon="6.76736">
        <ele>1484</ele>
        <time>2026-08-14T04:04:54.376Z</time>
      </trkpt>
      <trkpt lat="45.86799" lon="6.76738">
        <ele>1484</ele>
        <time>2026-08-14T04:04:55.376Z</time>
      </trkpt>
      <trkpt lat="45.86799" lon="6.7674">
        <ele>1485</ele>
        <time>2026-08-14T04:04:56.376Z</time>
      </trkpt>
      <trkpt lat="45.86799" lon="6.76742">
        <ele>1486</ele>
        <time>2026-08-14T04:04:57.376Z</time>
      </trkpt>
      <trkpt lat="45.86799" lon="6.76744">
        <ele>1486</ele>
        <time>2026-08-14T04:04:58.376Z</time>
      </trkpt>
      <trkpt lat="45.86799" lon="6.76746">
        <ele>1487</ele>
        <time>2026-08-14T04:04:59.376Z</time>
      </trkpt>
      <trkpt lat="45.86798" lon="6.76747">
        <ele>1488</ele>
        <time>2026-08-14T04:05:00.376Z</time>
      </trkpt>
      <trkpt lat="45.86798" lon="6.76749">
        <ele>1489</ele>
        <time>2026-08-14T04:05:01.376Z</time>
      </trkpt>
      <trkpt lat="45.86798" lon="6.76751">
        <ele>1490</ele>
        <time>2026-08-14T04:05:02.376Z</time>
      </trkpt>
      <trkpt lat="45.86799" lon="6.76753">
        <ele>1490</ele>
        <time>2026-08-14T04:05:03.376Z</time>
      </trkpt>
      <trkpt lat="45.86799" lon="6.76755">
        <ele>1491</ele>
        <time>2026-08-14T04:05:04.376Z</time>
      </trkpt>
      <trkpt lat="45.868" lon="6.76757">
        <ele>1491</ele>
        <time>2026-08-14T04:05:05.376Z</time>
      </trkpt>
      <trkpt lat="45.86801" lon="6.76759">
        <ele>1492</ele>
        <time>2026-08-14T04:05:06.376Z</time>
      </trkpt>
      <trkpt lat="45.86801" lon="6.76761">
        <ele>1493</ele>
        <time>2026-08-14T04:05:07.376Z</time>
      </trkpt>
      <trkpt lat="45.86801" lon="6.76762">
        <ele>1493</ele>
        <time>2026-08-14T04:05:08.376Z</time>
      </trkpt>
      <trkpt lat="45.868" lon="6.76765">
        <ele>1494</ele>
        <time>2026-08-14T04:05:09.376Z</time>
      </trkpt>
      <trkpt lat="45.868" lon="6.76767">
        <ele>1495</ele>
        <time>2026-08-14T04:05:10.376Z</time>
      </trkpt>
      <trkpt lat="45.868" lon="6.76769">
        <ele>1495</ele>
        <time>2026-08-14T04:05:11.376Z</time>
      </trkpt>
      <trkpt lat="45.868" lon="6.76771">
        <ele>1496</ele>
        <time>2026-08-14T04:05:12.376Z</time>
      </trkpt>
      <trkpt lat="45.86799" lon="6.76773">
        <ele>1496</ele>
        <time>2026-08-14T04:05:13.376Z</time>
      </trkpt>
      <trkpt lat="45.86799" lon="6.76775">
        <ele>1496</ele>
        <time>2026-08-14T04:05:14.376Z</time>
      </trkpt>
      <trkpt lat="45.86798" lon="6.76778">
        <ele>1496</ele>
        <time>2026-08-14T04:05:15.376Z</time>
      </trkpt>
      <trkpt lat="45.86797" lon="6.7678">
        <ele>1496</ele>
        <time>2026-08-14T04:05:16.376Z</time>
      </trkpt>
      <trkpt lat="45.86797" lon="6.76782">
        <ele>1495</ele>
        <time>2026-08-14T04:05:17.376Z</time>
      </trkpt>
      <trkpt lat="45.86796" lon="6.76784">
        <ele>1495</ele>
        <time>2026-08-14T04:05:18.376Z</time>
      </trkpt>
      <trkpt lat="45.86795" lon="6.76786">
        <ele>1494</ele>
        <time>2026-08-14T04:05:19.376Z</time>
      </trkpt>
      <trkpt lat="45.86795" lon="6.76788">
        <ele>1494</ele>
        <time>2026-08-14T04:05:20.376Z</time>
      </trkpt>
      <trkpt lat="45.86794" lon="6.7679">
        <ele>1494</ele>
        <time>2026-08-14T04:05:21.376Z</time>
      </trkpt>
      <trkpt lat="45.86794" lon="6.76792">
        <ele>1494</ele>
        <time>2026-08-14T04:05:22.376Z</time>
      </trkpt>
      <trkpt lat="45.86794" lon="6.76795">
        <ele>1494</ele>
        <time>2026-08-14T04:05:23.376Z</time>
      </trkpt>
      <trkpt lat="45.86794" lon="6.76797">
        <ele>1494</ele>
        <time>2026-08-14T04:05:24.376Z</time>
      </trkpt>
      <trkpt lat="45.86794" lon="6.76799">
        <ele>1494</ele>
        <time>2026-08-14T04:05:25.376Z</time>
      </trkpt>
      <trkpt lat="45.86794" lon="6.76801">
        <ele>1494</ele>
        <time>2026-08-14T04:05:26.376Z</time>
      </trkpt>
      <trkpt lat="45.86793" lon="6.76803">
        <ele>1495</ele>
        <time>2026-08-14T04:05:27.376Z</time>
      </trkpt>
      <trkpt lat="45.86793" lon="6.76805">
        <ele>1495</ele>
        <time>2026-08-14T04:05:28.376Z</time>
      </trkpt>
      <trkpt lat="45.86793" lon="6.76806">
        <ele>1495</ele>
        <time>2026-08-14T04:05:29.376Z</time>
      </trkpt>
      <trkpt lat="45.86792" lon="6.76808">
        <ele>1496</ele>
        <time>2026-08-14T04:05:30.376Z</time>
      </trkpt>
      <trkpt lat="45.86793" lon="6.7681">
        <ele>1496</ele>
        <time>2026-08-14T04:05:31.376Z</time>
      </trkpt>
      <trkpt lat="45.86793" lon="6.76811">
        <ele>1496</ele>
        <time>2026-08-14T04:05:32.376Z</time>
      </trkpt>
      <trkpt lat="45.86792" lon="6.76813">
        <ele>1496</ele>
        <time>2026-08-14T04:05:33.376Z</time>
      </trkpt>
      <trkpt lat="45.86792" lon="6.76815">
        <ele>1496</ele>
        <time>2026-08-14T04:05:34.376Z</time>
      </trkpt>
      <trkpt lat="45.86792" lon="6.76816">
        <ele>1495</ele>
        <time>2026-08-14T04:05:35.376Z</time>
      </trkpt>
      <trkpt lat="45.86791" lon="6.76817">
        <ele>1495</ele>
        <time>2026-08-14T04:05:36.376Z</time>
      </trkpt>
      <trkpt lat="45.86791" lon="6.76818">
        <ele>1495</ele>
        <time>2026-08-14T04:05:37.376Z</time>
      </trkpt>
      <trkpt lat="45.86791" lon="6.76819">
        <ele>1494</ele>
        <time>2026-08-14T04:05:38.376Z</time>
      </trkpt>
      <trkpt lat="45.8679" lon="6.76821">
        <ele>1494</ele>
        <time>2026-08-14T04:05:39.376Z</time>
      </trkpt>
      <trkpt lat="45.8679" lon="6.76822">
        <ele>1494</ele>
        <time>2026-08-14T04:05:40.376Z</time>
      </trkpt>
      <trkpt lat="45.8679" lon="6.76824">
        <ele>1495</ele>
        <time>2026-08-14T04:05:41.376Z</time>
      </trkpt>
      <trkpt lat="45.8679" lon="6.76826">
        <ele>1495</ele>
        <time>2026-08-14T04:05:42.376Z</time>
      </trkpt>
      <trkpt lat="45.86789" lon="6.76827">
        <ele>1496</ele>
        <time>2026-08-14T04:05:43.376Z</time>
      </trkpt>
      <trkpt lat="45.86789" lon="6.76828">
        <ele>1496</ele>
        <time>2026-08-14T04:05:44.376Z</time>
      </trkpt>
      <trkpt lat="45.86788" lon="6.7683">
        <ele>1497</ele>
        <time>2026-08-14T04:05:45.376Z</time>
      </trkpt>
      <trkpt lat="45.86788" lon="6.76831">
        <ele>1497</ele>
        <time>2026-08-14T04:05:46.376Z</time>
      </trkpt>
      <trkpt lat="45.86788" lon="6.76832">
        <ele>1498</ele>
        <time>2026-08-14T04:05:47.376Z</time>
      </trkpt>
      <trkpt lat="45.86788" lon="6.76834">
        <ele>1498</ele>
        <time>2026-08-14T04:05:48.376Z</time>
      </trkpt>
      <trkpt lat="45.86788" lon="6.76835">
        <ele>1498</ele>
        <time>2026-08-14T04:05:49.376Z</time>
      </trkpt>
      <trkpt lat="45.86788" lon="6.76836">
        <ele>1499</ele>
        <time>2026-08-14T04:05:50.376Z</time>
      </trkpt>
      <trkpt lat="45.86788" lon="6.76838">
        <ele>1499</ele>
        <time>2026-08-14T04:05:51.376Z</time>
      </trkpt>
      <trkpt lat="45.86788" lon="6.76839">
        <ele>1499</ele>
        <time>2026-08-14T04:05:52.376Z</time>
      </trkpt>
      <trkpt lat="45.86787" lon="6.76841">
        <ele>1499</ele>
        <time>2026-08-14T04:05:53.376Z</time>
      </trkpt>
      <trkpt lat="45.86786" lon="6.76842">
        <ele>1499</ele>
        <time>2026-08-14T04:05:54.376Z</time>
      </trkpt>
      <trkpt lat="45.86786" lon="6.76844">
        <ele>1499</ele>
        <time>2026-08-14T04:05:55.376Z</time>
      </trkpt>
      <trkpt lat="45.86785" lon="6.76845">
        <ele>1498</ele>
        <time>2026-08-14T04:05:56.376Z</time>
      </trkpt>
      <trkpt lat="45.86785" lon="6.76846">
        <ele>1498</ele>
        <time>2026-08-14T04:05:57.376Z</time>
      </trkpt>
      <trkpt lat="45.86785" lon="6.76847">
        <ele>1498</ele>
        <time>2026-08-14T04:05:58.376Z</time>
      </trkpt>
      <trkpt lat="45.86785" lon="6.76847">
        <ele>1498</ele>
        <time>2026-08-14T04:05:59.376Z</time>
      </trkpt>
      <trkpt lat="45.86785" lon="6.76848">
        <ele>1499</ele>
        <time>2026-08-14T04:06:00.376Z</time>
      </trkpt>
      <trkpt lat="45.86785" lon="6.7685">
        <ele>1499</ele>
        <time>2026-08-14T04:06:01.376Z</time>
      </trkpt>
      <trkpt lat="45.86785" lon="6.76851">
        <ele>1499</ele>
        <time>2026-08-14T04:06:02.376Z</time>
      </trkpt>
      <trkpt lat="45.86785" lon="6.76852">
        <ele>1500</ele>
        <time>2026-08-14T04:06:03.376Z</time>
      </trkpt>
      <trkpt lat="45.86784" lon="6.76853">
        <ele>1500</ele>
        <time>2026-08-14T04:06:04.376Z</time>
      </trkpt>
      <trkpt lat="45.86784" lon="6.76854">
        <ele>1501</ele>
        <time>2026-08-14T04:06:05.376Z</time>
      </trkpt>
      <trkpt lat="45.86784" lon="6.76855">
        <ele>1501</ele>
        <time>2026-08-14T04:06:06.376Z</time>
      </trkpt>
      <trkpt lat="45.86784" lon="6.76857">
        <ele>1502</ele>
        <time>2026-08-14T04:06:07.376Z</time>
      </trkpt>
      <trkpt lat="45.86784" lon="6.76858">
        <ele>1502</ele>
        <time>2026-08-14T04:06:08.376Z</time>
      </trkpt>
      <trkpt lat="45.86783" lon="6.7686">
        <ele>1503</ele>
        <time>2026-08-14T04:06:09.376Z</time>
      </trkpt>
      <trkpt lat="45.86783" lon="6.76861">
        <ele>1503</ele>
        <time>2026-08-14T04:06:10.376Z</time>
      </trkpt>
      <trkpt lat="45.86782" lon="6.76862">
        <ele>1503</ele>
        <time>2026-08-14T04:06:11.376Z</time>
      </trkpt>
      <trkpt lat="45.86781" lon="6.76864">
        <ele>1503</ele>
        <time>2026-08-14T04:06:12.376Z</time>
      </trkpt>
      <trkpt lat="45.86781" lon="6.76865">
        <ele>1503</ele>
        <time>2026-08-14T04:06:13.376Z</time>
      </trkpt>
      <trkpt lat="45.86781" lon="6.76866">
        <ele>1504</ele>
        <time>2026-08-14T04:06:14.376Z</time>
      </trkpt>
      <trkpt lat="45.86781" lon="6.76868">
        <ele>1504</ele>
        <time>2026-08-14T04:06:15.376Z</time>
      </trkpt>
      <trkpt lat="45.86781" lon="6.76869">
        <ele>1504</ele>
        <time>2026-08-14T04:06:16.376Z</time>
      </trkpt>
      <trkpt lat="45.86781" lon="6.7687">
        <ele>1504</ele>
        <time>2026-08-14T04:06:17.376Z</time>
      </trkpt>
      <trkpt lat="45.8678" lon="6.76871">
        <ele>1504</ele>
        <time>2026-08-14T04:06:18.376Z</time>
      </trkpt>
      <trkpt lat="45.8678" lon="6.76872">
        <ele>1504</ele>
        <time>2026-08-14T04:06:19.376Z</time>
      </trkpt>
      <trkpt lat="45.8678" lon="6.76873">
        <ele>1504</ele>
        <time>2026-08-14T04:06:20.376Z</time>
      </trkpt>
      <trkpt lat="45.8678" lon="6.76874">
        <ele>1504</ele>
        <time>2026-08-14T04:06:21.376Z</time>
      </trkpt>
      <trkpt lat="45.86781" lon="6.76875">
        <ele>1504</ele>
        <time>2026-08-14T04:06:22.376Z</time>
      </trkpt>
      <trkpt lat="45.86781" lon="6.76876">
        <ele>1505</ele>
        <time>2026-08-14T04:06:23.376Z</time>
      </trkpt>
      <trkpt lat="45.8678" lon="6.76877">
        <ele>1505</ele>
        <time>2026-08-14T04:06:24.376Z</time>
      </trkpt>
      <trkpt lat="45.8678" lon="6.76879">
        <ele>1505</ele>
        <time>2026-08-14T04:06:25.376Z</time>
      </trkpt>
      <trkpt lat="45.8678" lon="6.7688">
        <ele>1505</ele>
        <time>2026-08-14T04:06:26.376Z</time>
      </trkpt>
      <trkpt lat="45.8678" lon="6.76881">
        <ele>1505</ele>
        <time>2026-08-14T04:06:27.376Z</time>
      </trkpt>
      <trkpt lat="45.8678" lon="6.76882">
        <ele>1506</ele>
        <time>2026-08-14T04:06:28.376Z</time>
      </trkpt>
      <trkpt lat="45.8678" lon="6.76883">
        <ele>1506</ele>
        <time>2026-08-14T04:06:29.376Z</time>
      </trkpt>
      <trkpt lat="45.86779" lon="6.76885">
        <ele>1506</ele>
        <time>2026-08-14T04:06:30.376Z</time>
      </trkpt>
      <trkpt lat="45.86778" lon="6.76887">
        <ele>1507</ele>
        <time>2026-08-14T04:06:31.376Z</time>
      </trkpt>
      <trkpt lat="45.86778" lon="6.76889">
        <ele>1507</ele>
        <time>2026-08-14T04:06:32.376Z</time>
      </trkpt>
      <trkpt lat="45.86778" lon="6.7689">
        <ele>1508</ele>
        <time>2026-08-14T04:06:33.376Z</time>
      </trkpt>
      <trkpt lat="45.86777" lon="6.76892">
        <ele>1508</ele>
        <time>2026-08-14T04:06:34.376Z</time>
      </trkpt>
      <trkpt lat="45.86777" lon="6.76895">
        <ele>1508</ele>
        <time>2026-08-14T04:06:35.376Z</time>
      </trkpt>
      <trkpt lat="45.86777" lon="6.76897">
        <ele>1508</ele>
        <time>2026-08-14T04:06:36.376Z</time>
      </trkpt>
      <trkpt lat="45.86778" lon="6.76899">
        <ele>1508</ele>
        <time>2026-08-14T04:06:37.376Z</time>
      </trkpt>
      <trkpt lat="45.8678" lon="6.769">
        <ele>1509</ele>
        <time>2026-08-14T04:06:38.376Z</time>
      </trkpt>
      <trkpt lat="45.8678" lon="6.76901">
        <ele>1509</ele>
        <time>2026-08-14T04:06:39.376Z</time>
      </trkpt>
      <trkpt lat="45.86779" lon="6.76904">
        <ele>1510</ele>
        <time>2026-08-14T04:06:40.376Z</time>
      </trkpt>
      <trkpt lat="45.86778" lon="6.76906">
        <ele>1510</ele>
        <time>2026-08-14T04:06:41.376Z</time>
      </trkpt>
      <trkpt lat="45.86778" lon="6.76908">
        <ele>1510</ele>
        <time>2026-08-14T04:06:42.376Z</time>
      </trkpt>
      <trkpt lat="45.86777" lon="6.76909">
        <ele>1511</ele>
        <time>2026-08-14T04:06:43.376Z</time>
      </trkpt>
      <trkpt lat="45.86776" lon="6.76911">
        <ele>1511</ele>
        <time>2026-08-14T04:06:44.376Z</time>
      </trkpt>
      <trkpt lat="45.86776" lon="6.76912">
        <ele>1511</ele>
        <time>2026-08-14T04:06:45.376Z</time>
      </trkpt>
      <trkpt lat="45.86775" lon="6.76913">
        <ele>1511</ele>
        <time>2026-08-14T04:06:46.376Z</time>
      </trkpt>
      <trkpt lat="45.86775" lon="6.76914">
        <ele>1512</ele>
        <time>2026-08-14T04:06:47.376Z</time>
      </trkpt>
      <trkpt lat="45.86775" lon="6.76916">
        <ele>1512</ele>
        <time>2026-08-14T04:06:48.376Z</time>
      </trkpt>
      <trkpt lat="45.86775" lon="6.76917">
        <ele>1513</ele>
        <time>2026-08-14T04:06:49.376Z</time>
      </trkpt>
      <trkpt lat="45.86775" lon="6.76918">
        <ele>1514</ele>
        <time>2026-08-14T04:06:50.376Z</time>
      </trkpt>
      <trkpt lat="45.86776" lon="6.76919">
        <ele>1514</ele>
        <time>2026-08-14T04:06:51.376Z</time>
      </trkpt>
      <trkpt lat="45.86777" lon="6.7692">
        <ele>1515</ele>
        <time>2026-08-14T04:06:52.376Z</time>
      </trkpt>
      <trkpt lat="45.86776" lon="6.76921">
        <ele>1515</ele>
        <time>2026-08-14T04:06:53.376Z</time>
      </trkpt>
      <trkpt lat="45.86776" lon="6.76923">
        <ele>1516</ele>
        <time>2026-08-14T04:06:54.376Z</time>
      </trkpt>
      <trkpt lat="45.86776" lon="6.76924">
        <ele>1516</ele>
        <time>2026-08-14T04:06:55.376Z</time>
      </trkpt>
      <trkpt lat="45.86776" lon="6.76925">
        <ele>1517</ele>
        <time>2026-08-14T04:06:56.376Z</time>
      </trkpt>
      <trkpt lat="45.86776" lon="6.76926">
        <ele>1517</ele>
        <time>2026-08-14T04:06:57.376Z</time>
      </trkpt>
      <trkpt lat="45.86775" lon="6.76927">
        <ele>1517</ele>
        <time>2026-08-14T04:06:58.376Z</time>
      </trkpt>
      <trkpt lat="45.86774" lon="6.76928">
        <ele>1516</ele>
        <time>2026-08-14T04:06:59.376Z</time>
      </trkpt>
      <trkpt lat="45.86773" lon="6.76929">
        <ele>1516</ele>
        <time>2026-08-14T04:07:00.376Z</time>
      </trkpt>
      <trkpt lat="45.86773" lon="6.7693">
        <ele>1516</ele>
        <time>2026-08-14T04:07:01.376Z</time>
      </trkpt>
      <trkpt lat="45.86773" lon="6.76931">
        <ele>1516</ele>
        <time>2026-08-14T04:07:02.376Z</time>
      </trkpt>
      <trkpt lat="45.86773" lon="6.76932">
        <ele>1516</ele>
        <time>2026-08-14T04:07:03.376Z</time>
      </trkpt>
      <trkpt lat="45.86773" lon="6.76934">
        <ele>1516</ele>
        <time>2026-08-14T04:07:04.376Z</time>
      </trkpt>
      <trkpt lat="45.86772" lon="6.76935">
        <ele>1516</ele>
        <time>2026-08-14T04:07:05.376Z</time>
      </trkpt>
      <trkpt lat="45.86772" lon="6.76936">
        <ele>1516</ele>
        <time>2026-08-14T04:07:06.376Z</time>
      </trkpt>
      <trkpt lat="45.86772" lon="6.76937">
        <ele>1516</ele>
        <time>2026-08-14T04:07:07.376Z</time>
      </trkpt>
      <trkpt lat="45.86772" lon="6.76938">
        <ele>1516</ele>
        <time>2026-08-14T04:07:08.376Z</time>
      </trkpt>
      <trkpt lat="45.86771" lon="6.76938">
        <ele>1517</ele>
        <time>2026-08-14T04:07:09.376Z</time>
      </trkpt>
      <trkpt lat="45.86771" lon="6.76939">
        <ele>1517</ele>
        <time>2026-08-14T04:07:10.376Z</time>
      </trkpt>
      <trkpt lat="45.86771" lon="6.76939">
        <ele>1517</ele>
        <time>2026-08-14T04:07:11.376Z</time>
      </trkpt>
      <trkpt lat="45.86771" lon="6.76939">
        <ele>1516</ele>
        <time>2026-08-14T04:07:12.376Z</time>
      </trkpt>
      <trkpt lat="45.8677" lon="6.76939">
        <ele>1516</ele>
        <time>2026-08-14T04:07:13.376Z</time>
      </trkpt>
      <trkpt lat="45.8677" lon="6.76939">
        <ele>1515</ele>
        <time>2026-08-14T04:07:14.376Z</time>
      </trkpt>
      <trkpt lat="45.8677" lon="6.76939">
        <ele>1514</ele>
        <time>2026-08-14T04:07:15.376Z</time>
      </trkpt>
      <trkpt lat="45.8677" lon="6.76939">
        <ele>1513</ele>
        <time>2026-08-14T04:07:16.376Z</time>
      </trkpt>
      <trkpt lat="45.8677" lon="6.76939">
        <ele>1513</ele>
        <time>2026-08-14T04:07:17.376Z</time>
      </trkpt>
      <trkpt lat="45.8677" lon="6.76939">
        <ele>1512</ele>
        <time>2026-08-14T04:07:18.376Z</time>
      </trkpt>
      <trkpt lat="45.8677" lon="6.76939">
        <ele>1512</ele>
        <time>2026-08-14T04:07:19.376Z</time>
      </trkpt>
      <trkpt lat="45.8677" lon="6.76939">
        <ele>1511</ele>
        <time>2026-08-14T04:07:20.376Z</time>
      </trkpt>
      <trkpt lat="45.8677" lon="6.76939">
        <ele>1511</ele>
        <time>2026-08-14T04:07:21.376Z</time>
      </trkpt>
      <trkpt lat="45.8677" lon="6.76939">
        <ele>1510</ele>
        <time>2026-08-14T04:07:22.376Z</time>
      </trkpt>
      <trkpt lat="45.8677" lon="6.76939">
        <ele>1510</ele>
        <time>2026-08-14T04:07:23.376Z</time>
      </trkpt>
      <trkpt lat="45.8677" lon="6.76939">
        <ele>1510</ele>
        <time>2026-08-14T04:07:24.376Z</time>
      </trkpt>
      <trkpt lat="45.8677" lon="6.76939">
        <ele>1509</ele>
        <time>2026-08-14T04:07:25.376Z</time>
      </trkpt>
      <trkpt lat="45.8677" lon="6.76939">
        <ele>1509</ele>
        <time>2026-08-14T04:07:26.376Z</time>
      </trkpt>
      <trkpt lat="45.8677" lon="6.76939">
        <ele>1509</ele>
        <time>2026-08-14T04:07:27.376Z</time>
      </trkpt>
      <trkpt lat="45.8677" lon="6.76939">
        <ele>1509</ele>
        <time>2026-08-14T04:07:28.376Z</time>
      </trkpt>
      <trkpt lat="45.8677" lon="6.76939">
        <ele>1509</ele>
        <time>2026-08-14T04:07:29.376Z</time>
      </trkpt>
      <trkpt lat="45.8677" lon="6.76939">
        <ele>1509</ele>
        <time>2026-08-14T04:07:30.376Z</time>
      </trkpt>
      <trkpt lat="45.8677" lon="6.76939">
        <ele>1509</ele>
        <time>2026-08-14T04:07:31.376Z</time>
      </trkpt>
      <trkpt lat="45.8677" lon="6.76939">
        <ele>1509</ele>
        <time>2026-08-14T04:07:32.376Z</time>
      </trkpt>
      <trkpt lat="45.8677" lon="6.76939">
        <ele>1509</ele>
        <time>2026-08-14T04:07:33.376Z</time>
      </trkpt>
      <trkpt lat="45.86771" lon="6.76939">
        <ele>1509</ele>
        <time>2026-08-14T04:07:34.376Z</time>
      </trkpt>
      <trkpt lat="45.86771" lon="6.76939">
        <ele>1508</ele>
        <time>2026-08-14T04:07:35.376Z</time>
      </trkpt>
      <trkpt lat="45.86771" lon="6.76939">
        <ele>1508</ele>
        <time>2026-08-14T04:07:36.376Z</time>
      </trkpt>
      <trkpt lat="45.86771" lon="6.76939">
        <ele>1508</ele>
        <time>2026-08-14T04:07:37.376Z</time>
      </trkpt>
      <trkpt lat="45.86771" lon="6.76939">
        <ele>1508</ele>
        <time>2026-08-14T04:07:38.376Z</time>
      </trkpt>
      <trkpt lat="45.86771" lon="6.76939">
        <ele>1508</ele>
        <time>2026-08-14T04:07:39.376Z</time>
      </trkpt>
      <trkpt lat="45.86771" lon="6.76939">
        <ele>1508</ele>
        <time>2026-08-14T04:07:40.376Z</time>
      </trkpt>
      <trkpt lat="45.8677" lon="6.76939">
        <ele>1508</ele>
        <time>2026-08-14T04:07:41.376Z</time>
      </trkpt>
      <trkpt lat="45.8677" lon="6.76939">
        <ele>1508</ele>
        <time>2026-08-14T04:07:42.376Z</time>
      </trkpt>
      <trkpt lat="45.8677" lon="6.76939">
        <ele>1508</ele>
        <time>2026-08-14T04:07:43.376Z</time>
      </trkpt>
      <trkpt lat="45.8677" lon="6.76939">
        <ele>1508</ele>
        <time>2026-08-14T04:07:44.376Z</time>
      </trkpt>
      <trkpt lat="45.86771" lon="6.76939">
        <ele>1508</ele>
        <time>2026-08-14T04:07:45.376Z</time>
      </trkpt>
      <trkpt lat="45.86771" lon="6.76939">
        <ele>1508</ele>
        <time>2026-08-14T04:07:46.376Z</time>
      </trkpt>
      <trkpt lat="45.86771" lon="6.7694">
        <ele>1508</ele>
        <time>2026-08-14T04:07:47.376Z</time>
      </trkpt>
      <trkpt lat="45.86771" lon="6.76942">
        <ele>1508</ele>
        <time>2026-08-14T04:07:48.376Z</time>
      </trkpt>
      <trkpt lat="45.86772" lon="6.76943">
        <ele>1508</ele>
        <time>2026-08-14T04:07:49.376Z</time>
      </trkpt>
      <trkpt lat="45.86773" lon="6.76945">
        <ele>1508</ele>
        <time>2026-08-14T04:07:50.376Z</time>
      </trkpt>
      <trkpt lat="45.86774" lon="6.76947">
        <ele>1508</ele>
        <time>2026-08-14T04:07:51.376Z</time>
      </trkpt>
      <trkpt lat="45.86775" lon="6.76949">
        <ele>1509</ele>
        <time>2026-08-14T04:07:52.376Z</time>
      </trkpt>
      <trkpt lat="45.86776" lon="6.7695">
        <ele>1509</ele>
        <time>2026-08-14T04:07:53.376Z</time>
      </trkpt>
      <trkpt lat="45.86777" lon="6.76953">
        <ele>1510</ele>
        <time>2026-08-14T04:07:54.376Z</time>
      </trkpt>
      <trkpt lat="45.86778" lon="6.76954">
        <ele>1510</ele>
        <time>2026-08-14T04:07:55.376Z</time>
      </trkpt>
      <trkpt lat="45.86778" lon="6.76956">
        <ele>1511</ele>
        <time>2026-08-14T04:07:56.376Z</time>
      </trkpt>
      <trkpt lat="45.86778" lon="6.76957">
        <ele>1511</ele>
        <time>2026-08-14T04:07:57.376Z</time>
      </trkpt>
      <trkpt lat="45.86778" lon="6.76959">
        <ele>1511</ele>
        <time>2026-08-14T04:07:58.376Z</time>
      </trkpt>
      <trkpt lat="45.86778" lon="6.7696">
        <ele>1512</ele>
        <time>2026-08-14T04:07:59.376Z</time>
      </trkpt>
      <trkpt lat="45.86777" lon="6.76961">
        <ele>1512</ele>
        <time>2026-08-14T04:08:00.376Z</time>
      </trkpt>
      <trkpt lat="45.86777" lon="6.76962">
        <ele>1512</ele>
        <time>2026-08-14T04:08:01.376Z</time>
      </trkpt>
      <trkpt lat="45.86778" lon="6.76964">
        <ele>1512</ele>
        <time>2026-08-14T04:08:02.376Z</time>
      </trkpt>
      <trkpt lat="45.86778" lon="6.76965">
        <ele>1512</ele>
        <time>2026-08-14T04:08:03.376Z</time>
      </trkpt>
      <trkpt lat="45.86778" lon="6.76966">
        <ele>1512</ele>
        <time>2026-08-14T04:08:04.376Z</time>
      </trkpt>
      <trkpt lat="45.86778" lon="6.76968">
        <ele>1512</ele>
        <time>2026-08-14T04:08:05.376Z</time>
      </trkpt>
      <trkpt lat="45.86778" lon="6.76969">
        <ele>1512</ele>
        <time>2026-08-14T04:08:06.376Z</time>
      </trkpt>
      <trkpt lat="45.86778" lon="6.7697">
        <ele>1512</ele>
        <time>2026-08-14T04:08:07.376Z</time>
      </trkpt>
      <trkpt lat="45.86779" lon="6.76971">
        <ele>1512</ele>
        <time>2026-08-14T04:08:08.376Z</time>
      </trkpt>
      <trkpt lat="45.86779" lon="6.76972">
        <ele>1512</ele>
        <time>2026-08-14T04:08:09.376Z</time>
      </trkpt>
      <trkpt lat="45.86779" lon="6.76973">
        <ele>1512</ele>
        <time>2026-08-14T04:08:10.376Z</time>
      </trkpt>
      <trkpt lat="45.86779" lon="6.76974">
        <ele>1512</ele>
        <time>2026-08-14T04:08:11.376Z</time>
      </trkpt>
      <trkpt lat="45.8678" lon="6.76975">
        <ele>1512</ele>
        <time>2026-08-14T04:08:12.376Z</time>
      </trkpt>
      <trkpt lat="45.8678" lon="6.76976">
        <ele>1512</ele>
        <time>2026-08-14T04:08:13.376Z</time>
      </trkpt>
      <trkpt lat="45.86781" lon="6.76978">
        <ele>1512</ele>
        <time>2026-08-14T04:08:14.376Z</time>
      </trkpt>
      <trkpt lat="45.86781" lon="6.76979">
        <ele>1511</ele>
        <time>2026-08-14T04:08:15.376Z</time>
      </trkpt>
      <trkpt lat="45.86781" lon="6.7698">
        <ele>1511</ele>
        <time>2026-08-14T04:08:16.376Z</time>
      </trkpt>
      <trkpt lat="45.86781" lon="6.7698">
        <ele>1510</ele>
        <time>2026-08-14T04:08:17.376Z</time>
      </trkpt>
      <trkpt lat="45.86781" lon="6.7698">
        <ele>1510</ele>
        <time>2026-08-14T04:08:18.376Z</time>
      </trkpt>
      <trkpt lat="45.86781" lon="6.76981">
        <ele>1510</ele>
        <time>2026-08-14T04:08:19.376Z</time>
      </trkpt>
      <trkpt lat="45.86781" lon="6.76981">
        <ele>1510</ele>
        <time>2026-08-14T04:08:20.376Z</time>
      </trkpt>
      <trkpt lat="45.86781" lon="6.76981">
        <ele>1510</ele>
        <time>2026-08-14T04:08:21.376Z</time>
      </trkpt>
      <trkpt lat="45.86781" lon="6.76981">
        <ele>1510</ele>
        <time>2026-08-14T04:08:22.376Z</time>
      </trkpt>
      <trkpt lat="45.86781" lon="6.76982">
        <ele>1510</ele>
        <time>2026-08-14T04:08:23.376Z</time>
      </trkpt>
      <trkpt lat="45.8678" lon="6.76982">
        <ele>1509</ele>
        <time>2026-08-14T04:08:24.376Z</time>
      </trkpt>
      <trkpt lat="45.8678" lon="6.76982">
        <ele>1509</ele>
        <time>2026-08-14T04:08:25.376Z</time>
      </trkpt>
      <trkpt lat="45.8678" lon="6.76982">
        <ele>1509</ele>
        <time>2026-08-14T04:08:26.376Z</time>
      </trkpt>
      <trkpt lat="45.8678" lon="6.76982">
        <ele>1509</ele>
        <time>2026-08-14T04:08:27.376Z</time>
      </trkpt>
      <trkpt lat="45.8678" lon="6.76982">
        <ele>1510</ele>
        <time>2026-08-14T04:08:28.376Z</time>
      </trkpt>
      <trkpt lat="45.8678" lon="6.76982">
        <ele>1510</ele>
        <time>2026-08-14T04:08:29.376Z</time>
      </trkpt>
      <trkpt lat="45.8678" lon="6.76982">
        <ele>1511</ele>
        <time>2026-08-14T04:08:30.376Z</time>
      </trkpt>
      <trkpt lat="45.8678" lon="6.76982">
        <ele>1511</ele>
        <time>2026-08-14T04:08:31.376Z</time>
      </trkpt>
      <trkpt lat="45.8678" lon="6.76982">
        <ele>1511</ele>
        <time>2026-08-14T04:08:32.376Z</time>
      </trkpt>
      <trkpt lat="45.8678" lon="6.76982">
        <ele>1511</ele>
        <time>2026-08-14T04:08:33.376Z</time>
      </trkpt>
      <trkpt lat="45.8678" lon="6.76982">
        <ele>1511</ele>
        <time>2026-08-14T04:08:34.376Z</time>
      </trkpt>
      <trkpt lat="45.8678" lon="6.76982">
        <ele>1511</ele>
        <time>2026-08-14T04:08:35.376Z</time>
      </trkpt>
      <trkpt lat="45.8678" lon="6.76982">
        <ele>1511</ele>
        <time>2026-08-14T04:08:36.376Z</time>
      </trkpt>
      <trkpt lat="45.8678" lon="6.76982">
        <ele>1512</ele>
        <time>2026-08-14T04:08:37.376Z</time>
      </trkpt>
      <trkpt lat="45.8678" lon="6.76982">
        <ele>1512</ele>
        <time>2026-08-14T04:08:38.376Z</time>
      </trkpt>
      <trkpt lat="45.8678" lon="6.76982">
        <ele>1512</ele>
        <time>2026-08-14T04:08:39.376Z</time>
      </trkpt>
      <trkpt lat="45.8678" lon="6.76982">
        <ele>1512</ele>
        <time>2026-08-14T04:08:40.376Z</time>
      </trkpt>
      <trkpt lat="45.8678" lon="6.76982">
        <ele>1512</ele>
        <time>2026-08-14T04:08:41.376Z</time>
      </trkpt>
      <trkpt lat="45.8678" lon="6.76982">
        <ele>1512</ele>
        <time>2026-08-14T04:08:42.376Z</time>
      </trkpt>
      <trkpt lat="45.8678" lon="6.76982">
        <ele>1512</ele>
        <time>2026-08-14T04:08:43.376Z</time>
      </trkpt>
      <trkpt lat="45.8678" lon="6.76982">
        <ele>1512</ele>
        <time>2026-08-14T04:08:44.376Z</time>
      </trkpt>
      <trkpt lat="45.8678" lon="6.76982">
        <ele>1513</ele>
        <time>2026-08-14T04:08:45.376Z</time>
      </trkpt>
      <trkpt lat="45.8678" lon="6.76982">
        <ele>1513</ele>
        <time>2026-08-14T04:08:46.376Z</time>
      </trkpt>
      <trkpt lat="45.8678" lon="6.76982">
        <ele>1513</ele>
        <time>2026-08-14T04:08:47.376Z</time>
      </trkpt>
      <trkpt lat="45.8678" lon="6.76982">
        <ele>1513</ele>
        <time>2026-08-14T04:08:48.376Z</time>
      </trkpt>
      <trkpt lat="45.8678" lon="6.76983">
        <ele>1513</ele>
        <time>2026-08-14T04:08:49.376Z</time>
      </trkpt>
      <trkpt lat="45.86781" lon="6.76985">
        <ele>1513</ele>
        <time>2026-08-14T04:08:50.376Z</time>
      </trkpt>
      <trkpt lat="45.86781" lon="6.76987">
        <ele>1513</ele>
        <time>2026-08-14T04:08:51.376Z</time>
      </trkpt>
      <trkpt lat="45.86781" lon="6.7699">
        <ele>1513</ele>
        <time>2026-08-14T04:08:52.376Z</time>
      </trkpt>
      <trkpt lat="45.86782" lon="6.76992">
        <ele>1513</ele>
        <time>2026-08-14T04:08:53.376Z</time>
      </trkpt>
      <trkpt lat="45.86782" lon="6.76995">
        <ele>1513</ele>
        <time>2026-08-14T04:08:54.376Z</time>
      </trkpt>
      <trkpt lat="45.86782" lon="6.76997">
        <ele>1513</ele>
        <time>2026-08-14T04:08:55.376Z</time>
      </trkpt>
      <trkpt lat="45.86783" lon="6.76999">
        <ele>1512</ele>
        <time>2026-08-14T04:08:56.376Z</time>
      </trkpt>
      <trkpt lat="45.86784" lon="6.77002">
        <ele>1513</ele>
        <time>2026-08-14T04:08:57.376Z</time>
      </trkpt>
      <trkpt lat="45.86784" lon="6.77004">
        <ele>1513</ele>
        <time>2026-08-14T04:08:58.376Z</time>
      </trkpt>
      <trkpt lat="45.86785" lon="6.77006">
        <ele>1513</ele>
        <time>2026-08-14T04:08:59.376Z</time>
      </trkpt>
      <trkpt lat="45.86785" lon="6.77007">
        <ele>1514</ele>
        <time>2026-08-14T04:09:00.376Z</time>
      </trkpt>
      <trkpt lat="45.86786" lon="6.77009">
        <ele>1514</ele>
        <time>2026-08-14T04:09:01.376Z</time>
      </trkpt>
      <trkpt lat="45.86786" lon="6.77011">
        <ele>1514</ele>
        <time>2026-08-14T04:09:02.376Z</time>
      </trkpt>
      <trkpt lat="45.86786" lon="6.77012">
        <ele>1514</ele>
        <time>2026-08-14T04:09:03.376Z</time>
      </trkpt>
      <trkpt lat="45.86787" lon="6.77013">
        <ele>1515</ele>
        <time>2026-08-14T04:09:04.376Z</time>
      </trkpt>
      <trkpt lat="45.86788" lon="6.77013">
        <ele>1515</ele>
        <time>2026-08-14T04:09:05.376Z</time>
      </trkpt>
      <trkpt lat="45.86789" lon="6.77015">
        <ele>1515</ele>
        <time>2026-08-14T04:09:06.376Z</time>
      </trkpt>
      <trkpt lat="45.86789" lon="6.77016">
        <ele>1516</ele>
        <time>2026-08-14T04:09:07.376Z</time>
      </trkpt>
      <trkpt lat="45.8679" lon="6.77017">
        <ele>1516</ele>
        <time>2026-08-14T04:09:08.376Z</time>
      </trkpt>
      <trkpt lat="45.8679" lon="6.77019">
        <ele>1516</ele>
        <time>2026-08-14T04:09:09.376Z</time>
      </trkpt>
      <trkpt lat="45.8679" lon="6.7702">
        <ele>1517</ele>
        <time>2026-08-14T04:09:10.376Z</time>
      </trkpt>
      <trkpt lat="45.86791" lon="6.77022">
        <ele>1517</ele>
        <time>2026-08-14T04:09:11.376Z</time>
      </trkpt>
      <trkpt lat="45.86792" lon="6.77023">
        <ele>1517</ele>
        <time>2026-08-14T04:09:12.376Z</time>
      </trkpt>
      <trkpt lat="45.86793" lon="6.77024">
        <ele>1517</ele>
        <time>2026-08-14T04:09:13.376Z</time>
      </trkpt>
      <trkpt lat="45.86793" lon="6.77025">
        <ele>1518</ele>
        <time>2026-08-14T04:09:14.376Z</time>
      </trkpt>
      <trkpt lat="45.86794" lon="6.77027">
        <ele>1518</ele>
        <time>2026-08-14T04:09:15.376Z</time>
      </trkpt>
      <trkpt lat="45.86794" lon="6.77028">
        <ele>1519</ele>
        <time>2026-08-14T04:09:16.376Z</time>
      </trkpt>
      <trkpt lat="45.86795" lon="6.77029">
        <ele>1519</ele>
        <time>2026-08-14T04:09:17.376Z</time>
      </trkpt>
      <trkpt lat="45.86796" lon="6.77031">
        <ele>1519</ele>
        <time>2026-08-14T04:09:18.376Z</time>
      </trkpt>
      <trkpt lat="45.86796" lon="6.77032">
        <ele>1519</ele>
        <time>2026-08-14T04:09:19.376Z</time>
      </trkpt>
      <trkpt lat="45.86797" lon="6.77033">
        <ele>1520</ele>
        <time>2026-08-14T04:09:20.376Z</time>
      </trkpt>
      <trkpt lat="45.86798" lon="6.77034">
        <ele>1520</ele>
        <time>2026-08-14T04:09:21.376Z</time>
      </trkpt>
      <trkpt lat="45.86799" lon="6.77036">
        <ele>1521</ele>
        <time>2026-08-14T04:09:22.376Z</time>
      </trkpt>
      <trkpt lat="45.868" lon="6.77036">
        <ele>1521</ele>
        <time>2026-08-14T04:09:23.376Z</time>
      </trkpt>
      <trkpt lat="45.86801" lon="6.77037">
        <ele>1522</ele>
        <time>2026-08-14T04:09:24.376Z</time>
      </trkpt>
      <trkpt lat="45.86801" lon="6.77038">
        <ele>1522</ele>
        <time>2026-08-14T04:09:25.376Z</time>
      </trkpt>
      <trkpt lat="45.86802" lon="6.77039">
        <ele>1522</ele>
        <time>2026-08-14T04:09:26.376Z</time>
      </trkpt>
      <trkpt lat="45.86803" lon="6.7704">
        <ele>1521</ele>
        <time>2026-08-14T04:09:27.376Z</time>
      </trkpt>
      <trkpt lat="45.86804" lon="6.77041">
        <ele>1521</ele>
        <time>2026-08-14T04:09:28.376Z</time>
      </trkpt>
      <trkpt lat="45.86804" lon="6.77042">
        <ele>1521</ele>
        <time>2026-08-14T04:09:29.376Z</time>
      </trkpt>
      <trkpt lat="45.86805" lon="6.77043">
        <ele>1520</ele>
        <time>2026-08-14T04:09:30.376Z</time>
      </trkpt>
      <trkpt lat="45.86806" lon="6.77044">
        <ele>1520</ele>
        <time>2026-08-14T04:09:31.376Z</time>
      </trkpt>
      <trkpt lat="45.86807" lon="6.77045">
        <ele>1521</ele>
        <time>2026-08-14T04:09:32.376Z</time>
      </trkpt>
      <trkpt lat="45.86807" lon="6.77047">
        <ele>1521</ele>
        <time>2026-08-14T04:09:33.376Z</time>
      </trkpt>
      <trkpt lat="45.86808" lon="6.77048">
        <ele>1522</ele>
        <time>2026-08-14T04:09:34.376Z</time>
      </trkpt>
      <trkpt lat="45.86809" lon="6.77049">
        <ele>1523</ele>
        <time>2026-08-14T04:09:35.376Z</time>
      </trkpt>
      <trkpt lat="45.8681" lon="6.77051">
        <ele>1525</ele>
        <time>2026-08-14T04:09:36.376Z</time>
      </trkpt>
      <trkpt lat="45.86811" lon="6.77052">
        <ele>1526</ele>
        <time>2026-08-14T04:09:37.376Z</time>
      </trkpt>
      <trkpt lat="45.86812" lon="6.77054">
        <ele>1527</ele>
        <time>2026-08-14T04:09:38.376Z</time>
      </trkpt>
      <trkpt lat="45.86812" lon="6.77055">
        <ele>1527</ele>
        <time>2026-08-14T04:09:39.376Z</time>
      </trkpt>
      <trkpt lat="45.86813" lon="6.77056">
        <ele>1528</ele>
        <time>2026-08-14T04:09:40.376Z</time>
      </trkpt>
      <trkpt lat="45.86813" lon="6.77058">
        <ele>1528</ele>
        <time>2026-08-14T04:09:41.376Z</time>
      </trkpt>
      <trkpt lat="45.86814" lon="6.77059">
        <ele>1529</ele>
        <time>2026-08-14T04:09:42.376Z</time>
      </trkpt>
      <trkpt lat="45.86815" lon="6.7706">
        <ele>1529</ele>
        <time>2026-08-14T04:09:43.376Z</time>
      </trkpt>
      <trkpt lat="45.86816" lon="6.77062">
        <ele>1529</ele>
        <time>2026-08-14T04:09:44.376Z</time>
      </trkpt>
      <trkpt lat="45.86817" lon="6.77064">
        <ele>1529</ele>
        <time>2026-08-14T04:09:45.376Z</time>
      </trkpt>
      <trkpt lat="45.86818" lon="6.77065">
        <ele>1529</ele>
        <time>2026-08-14T04:09:46.376Z</time>
      </trkpt>
      <trkpt lat="45.86819" lon="6.77067">
        <ele>1529</ele>
        <time>2026-08-14T04:09:47.376Z</time>
      </trkpt>
      <trkpt lat="45.8682" lon="6.77068">
        <ele>1528</ele>
        <time>2026-08-14T04:09:48.376Z</time>
      </trkpt>
      <trkpt lat="45.86821" lon="6.77071">
        <ele>1528</ele>
        <time>2026-08-14T04:09:49.376Z</time>
      </trkpt>
      <trkpt lat="45.86822" lon="6.77073">
        <ele>1528</ele>
        <time>2026-08-14T04:09:50.376Z</time>
      </trkpt>
      <trkpt lat="45.86824" lon="6.77075">
        <ele>1527</ele>
        <time>2026-08-14T04:09:51.376Z</time>
      </trkpt>
      <trkpt lat="45.86825" lon="6.77077">
        <ele>1527</ele>
        <time>2026-08-14T04:09:52.376Z</time>
      </trkpt>
      <trkpt lat="45.86826" lon="6.7708">
        <ele>1527</ele>
        <time>2026-08-14T04:09:53.376Z</time>
      </trkpt>
      <trkpt lat="45.86827" lon="6.77082">
        <ele>1528</ele>
        <time>2026-08-14T04:09:54.376Z</time>
      </trkpt>
      <trkpt lat="45.86829" lon="6.77084">
        <ele>1528</ele>
        <time>2026-08-14T04:09:55.376Z</time>
      </trkpt>
      <trkpt lat="45.8683" lon="6.77086">
        <ele>1529</ele>
        <time>2026-08-14T04:09:56.376Z</time>
      </trkpt>
      <trkpt lat="45.8683" lon="6.77087">
        <ele>1530</ele>
        <time>2026-08-14T04:09:57.376Z</time>
      </trkpt>
      <trkpt lat="45.86831" lon="6.77088">
        <ele>1530</ele>
        <time>2026-08-14T04:09:58.376Z</time>
      </trkpt>
      <trkpt lat="45.8683" lon="6.77091">
        <ele>1531</ele>
        <time>2026-08-14T04:09:59.376Z</time>
      </trkpt>
      <trkpt lat="45.86831" lon="6.77093">
        <ele>1531</ele>
        <time>2026-08-14T04:10:00.376Z</time>
      </trkpt>
      <trkpt lat="45.86832" lon="6.77095">
        <ele>1531</ele>
        <time>2026-08-14T04:10:01.376Z</time>
      </trkpt>
      <trkpt lat="45.86833" lon="6.77097">
        <ele>1531</ele>
        <time>2026-08-14T04:10:02.376Z</time>
      </trkpt>
      <trkpt lat="45.86834" lon="6.771">
        <ele>1532</ele>
        <time>2026-08-14T04:10:03.376Z</time>
      </trkpt>
      <trkpt lat="45.86835" lon="6.77103">
        <ele>1532</ele>
        <time>2026-08-14T04:10:04.376Z</time>
      </trkpt>
      <trkpt lat="45.86835" lon="6.77105">
        <ele>1532</ele>
        <time>2026-08-14T04:10:05.376Z</time>
      </trkpt>
      <trkpt lat="45.86835" lon="6.77107">
        <ele>1532</ele>
        <time>2026-08-14T04:10:06.376Z</time>
      </trkpt>
      <trkpt lat="45.86835" lon="6.77109">
        <ele>1532</ele>
        <time>2026-08-14T04:10:07.376Z</time>
      </trkpt>
      <trkpt lat="45.86835" lon="6.77112">
        <ele>1531</ele>
        <time>2026-08-14T04:10:08.376Z</time>
      </trkpt>
      <trkpt lat="45.86835" lon="6.77113">
        <ele>1531</ele>
        <time>2026-08-14T04:10:09.376Z</time>
      </trkpt>
      <trkpt lat="45.86835" lon="6.77115">
        <ele>1530</ele>
        <time>2026-08-14T04:10:10.376Z</time>
      </trkpt>
      <trkpt lat="45.86835" lon="6.77116">
        <ele>1530</ele>
        <time>2026-08-14T04:10:11.376Z</time>
      </trkpt>
      <trkpt lat="45.86836" lon="6.77118">
        <ele>1529</ele>
        <time>2026-08-14T04:10:12.376Z</time>
      </trkpt>
      <trkpt lat="45.86837" lon="6.7712">
        <ele>1529</ele>
        <time>2026-08-14T04:10:13.376Z</time>
      </trkpt>
      <trkpt lat="45.86837" lon="6.77122">
        <ele>1529</ele>
        <time>2026-08-14T04:10:14.376Z</time>
      </trkpt>
      <trkpt lat="45.86838" lon="6.77124">
        <ele>1529</ele>
        <time>2026-08-14T04:10:15.376Z</time>
      </trkpt>
      <trkpt lat="45.86839" lon="6.77126">
        <ele>1529</ele>
        <time>2026-08-14T04:10:16.376Z</time>
      </trkpt>
      <trkpt lat="45.8684" lon="6.77128">
        <ele>1530</ele>
        <time>2026-08-14T04:10:17.376Z</time>
      </trkpt>
      <trkpt lat="45.8684" lon="6.7713">
        <ele>1530</ele>
        <time>2026-08-14T04:10:18.376Z</time>
      </trkpt>
      <trkpt lat="45.86841" lon="6.77132">
        <ele>1531</ele>
        <time>2026-08-14T04:10:19.376Z</time>
      </trkpt>
      <trkpt lat="45.86841" lon="6.77134">
        <ele>1531</ele>
        <time>2026-08-14T04:10:20.376Z</time>
      </trkpt>
      <trkpt lat="45.86841" lon="6.77136">
        <ele>1532</ele>
        <time>2026-08-14T04:10:21.376Z</time>
      </trkpt>
      <trkpt lat="45.8684" lon="6.77138">
        <ele>1532</ele>
        <time>2026-08-14T04:10:22.376Z</time>
      </trkpt>
      <trkpt lat="45.86839" lon="6.77141">
        <ele>1532</ele>
        <time>2026-08-14T04:10:23.376Z</time>
      </trkpt>
      <trkpt lat="45.86838" lon="6.77142">
        <ele>1533</ele>
        <time>2026-08-14T04:10:24.376Z</time>
      </trkpt>
      <trkpt lat="45.86838" lon="6.77144">
        <ele>1533</ele>
        <time>2026-08-14T04:10:25.376Z</time>
      </trkpt>
      <trkpt lat="45.86837" lon="6.77147">
        <ele>1533</ele>
        <time>2026-08-14T04:10:26.376Z</time>
      </trkpt>
      <trkpt lat="45.86836" lon="6.77149">
        <ele>1533</ele>
        <time>2026-08-14T04:10:27.376Z</time>
      </trkpt>
      <trkpt lat="45.86836" lon="6.77151">
        <ele>1534</ele>
        <time>2026-08-14T04:10:28.376Z</time>
      </trkpt>
      <trkpt lat="45.86836" lon="6.77153">
        <ele>1534</ele>
        <time>2026-08-14T04:10:29.376Z</time>
      </trkpt>
      <trkpt lat="45.86836" lon="6.77155">
        <ele>1534</ele>
        <time>2026-08-14T04:10:30.376Z</time>
      </trkpt>
      <trkpt lat="45.86836" lon="6.77158">
        <ele>1534</ele>
        <time>2026-08-14T04:10:31.376Z</time>
      </trkpt>
      <trkpt lat="45.86837" lon="6.7716">
        <ele>1534</ele>
        <time>2026-08-14T04:10:32.376Z</time>
      </trkpt>
      <trkpt lat="45.86838" lon="6.77162">
        <ele>1534</ele>
        <time>2026-08-14T04:10:33.376Z</time>
      </trkpt>
      <trkpt lat="45.86839" lon="6.77164">
        <ele>1534</ele>
        <time>2026-08-14T04:10:34.376Z</time>
      </trkpt>
      <trkpt lat="45.86839" lon="6.77166">
        <ele>1534</ele>
        <time>2026-08-14T04:10:35.376Z</time>
      </trkpt>
      <trkpt lat="45.8684" lon="6.77169">
        <ele>1534</ele>
        <time>2026-08-14T04:10:36.376Z</time>
      </trkpt>
      <trkpt lat="45.8684" lon="6.77171">
        <ele>1534</ele>
        <time>2026-08-14T04:10:37.376Z</time>
      </trkpt>
      <trkpt lat="45.86841" lon="6.77173">
        <ele>1534</ele>
        <time>2026-08-14T04:10:38.376Z</time>
      </trkpt>
      <trkpt lat="45.86841" lon="6.77175">
        <ele>1535</ele>
        <time>2026-08-14T04:10:39.376Z</time>
      </trkpt>
      <trkpt lat="45.86841" lon="6.77177">
        <ele>1535</ele>
        <time>2026-08-14T04:10:40.376Z</time>
      </trkpt>
      <trkpt lat="45.86841" lon="6.7718">
        <ele>1535</ele>
        <time>2026-08-14T04:10:41.376Z</time>
      </trkpt>
      <trkpt lat="45.86842" lon="6.77182">
        <ele>1534</ele>
        <time>2026-08-14T04:10:42.376Z</time>
      </trkpt>
      <trkpt lat="45.86843" lon="6.77184">
        <ele>1534</ele>
        <time>2026-08-14T04:10:43.376Z</time>
      </trkpt>
      <trkpt lat="45.86843" lon="6.77187">
        <ele>1534</ele>
        <time>2026-08-14T04:10:44.376Z</time>
      </trkpt>
      <trkpt lat="45.86843" lon="6.77189">
        <ele>1533</ele>
        <time>2026-08-14T04:10:45.376Z</time>
      </trkpt>
      <trkpt lat="45.86843" lon="6.77191">
        <ele>1533</ele>
        <time>2026-08-14T04:10:46.376Z</time>
      </trkpt>
      <trkpt lat="45.86843" lon="6.77193">
        <ele>1532</ele>
        <time>2026-08-14T04:10:47.376Z</time>
      </trkpt>
      <trkpt lat="45.86844" lon="6.77194">
        <ele>1532</ele>
        <time>2026-08-14T04:10:48.376Z</time>
      </trkpt>
      <trkpt lat="45.86845" lon="6.77196">
        <ele>1532</ele>
        <time>2026-08-14T04:10:49.376Z</time>
      </trkpt>
      <trkpt lat="45.86845" lon="6.77198">
        <ele>1532</ele>
        <time>2026-08-14T04:10:50.376Z</time>
      </trkpt>
      <trkpt lat="45.86845" lon="6.772">
        <ele>1532</ele>
        <time>2026-08-14T04:10:51.376Z</time>
      </trkpt>
      <trkpt lat="45.86846" lon="6.77202">
        <ele>1531</ele>
        <time>2026-08-14T04:10:52.376Z</time>
      </trkpt>
      <trkpt lat="45.86846" lon="6.77203">
        <ele>1531</ele>
        <time>2026-08-14T04:10:53.376Z</time>
      </trkpt>
      <trkpt lat="45.86848" lon="6.77204">
        <ele>1531</ele>
        <time>2026-08-14T04:10:54.376Z</time>
      </trkpt>
      <trkpt lat="45.86849" lon="6.77206">
        <ele>1531</ele>
        <time>2026-08-14T04:10:55.376Z</time>
      </trkpt>
      <trkpt lat="45.8685" lon="6.77208">
        <ele>1531</ele>
        <time>2026-08-14T04:10:56.376Z</time>
      </trkpt>
      <trkpt lat="45.8685" lon="6.77209">
        <ele>1532</ele>
        <time>2026-08-14T04:10:57.376Z</time>
      </trkpt>
      <trkpt lat="45.86851" lon="6.77212">
        <ele>1532</ele>
        <time>2026-08-14T04:10:58.376Z</time>
      </trkpt>
      <trkpt lat="45.86851" lon="6.77214">
        <ele>1533</ele>
        <time>2026-08-14T04:10:59.376Z</time>
      </trkpt>
      <trkpt lat="45.86851" lon="6.77215">
        <ele>1534</ele>
        <time>2026-08-14T04:11:00.376Z</time>
      </trkpt>
      <trkpt lat="45.86851" lon="6.77218">
        <ele>1535</ele>
        <time>2026-08-14T04:11:01.376Z</time>
      </trkpt>
      <trkpt lat="45.86851" lon="6.7722">
        <ele>1536</ele>
        <time>2026-08-14T04:11:02.376Z</time>
      </trkpt>
      <trkpt lat="45.86851" lon="6.77222">
        <ele>1537</ele>
        <time>2026-08-14T04:11:03.376Z</time>
      </trkpt>
      <trkpt lat="45.86851" lon="6.77225">
        <ele>1537</ele>
        <time>2026-08-14T04:11:04.376Z</time>
      </trkpt>
      <trkpt lat="45.86851" lon="6.77227">
        <ele>1538</ele>
        <time>2026-08-14T04:11:05.376Z</time>
      </trkpt>
      <trkpt lat="45.86852" lon="6.77231">
        <ele>1538</ele>
        <time>2026-08-14T04:11:06.376Z</time>
      </trkpt>
      <trkpt lat="45.86852" lon="6.77234">
        <ele>1538</ele>
        <time>2026-08-14T04:11:07.376Z</time>
      </trkpt>
      <trkpt lat="45.86853" lon="6.77236">
        <ele>1538</ele>
        <time>2026-08-14T04:11:08.376Z</time>
      </trkpt>
      <trkpt lat="45.86855" lon="6.77238">
        <ele>1538</ele>
        <time>2026-08-14T04:11:09.376Z</time>
      </trkpt>
      <trkpt lat="45.86856" lon="6.7724">
        <ele>1538</ele>
        <time>2026-08-14T04:11:10.376Z</time>
      </trkpt>
      <trkpt lat="45.86857" lon="6.77243">
        <ele>1538</ele>
        <time>2026-08-14T04:11:11.376Z</time>
      </trkpt>
      <trkpt lat="45.86857" lon="6.77245">
        <ele>1538</ele>
        <time>2026-08-14T04:11:12.376Z</time>
      </trkpt>
      <trkpt lat="45.86858" lon="6.77247">
        <ele>1538</ele>
        <time>2026-08-14T04:11:13.376Z</time>
      </trkpt>
      <trkpt lat="45.86858" lon="6.77248">
        <ele>1538</ele>
        <time>2026-08-14T04:11:14.376Z</time>
      </trkpt>
      <trkpt lat="45.86858" lon="6.77251">
        <ele>1538</ele>
        <time>2026-08-14T04:11:15.376Z</time>
      </trkpt>
      <trkpt lat="45.86859" lon="6.77253">
        <ele>1538</ele>
        <time>2026-08-14T04:11:16.376Z</time>
      </trkpt>
      <trkpt lat="45.86859" lon="6.77255">
        <ele>1538</ele>
        <time>2026-08-14T04:11:17.376Z</time>
      </trkpt>
      <trkpt lat="45.86859" lon="6.77258">
        <ele>1539</ele>
        <time>2026-08-14T04:11:18.376Z</time>
      </trkpt>
      <trkpt lat="45.86859" lon="6.7726">
        <ele>1540</ele>
        <time>2026-08-14T04:11:19.376Z</time>
      </trkpt>
      <trkpt lat="45.8686" lon="6.77262">
        <ele>1540</ele>
        <time>2026-08-14T04:11:20.376Z</time>
      </trkpt>
      <trkpt lat="45.8686" lon="6.77263">
        <ele>1541</ele>
        <time>2026-08-14T04:11:21.376Z</time>
      </trkpt>
      <trkpt lat="45.86861" lon="6.77265">
        <ele>1541</ele>
        <time>2026-08-14T04:11:22.376Z</time>
      </trkpt>
      <trkpt lat="45.86862" lon="6.77267">
        <ele>1542</ele>
        <time>2026-08-14T04:11:23.376Z</time>
      </trkpt>
      <trkpt lat="45.86863" lon="6.77268">
        <ele>1542</ele>
        <time>2026-08-14T04:11:24.376Z</time>
      </trkpt>
      <trkpt lat="45.86864" lon="6.7727">
        <ele>1541</ele>
        <time>2026-08-14T04:11:25.376Z</time>
      </trkpt>
      <trkpt lat="45.86865" lon="6.77272">
        <ele>1541</ele>
        <time>2026-08-14T04:11:26.376Z</time>
      </trkpt>
      <trkpt lat="45.86865" lon="6.77274">
        <ele>1540</ele>
        <time>2026-08-14T04:11:27.376Z</time>
      </trkpt>
      <trkpt lat="45.86866" lon="6.77276">
        <ele>1540</ele>
        <time>2026-08-14T04:11:28.376Z</time>
      </trkpt>
      <trkpt lat="45.86867" lon="6.77277">
        <ele>1540</ele>
        <time>2026-08-14T04:11:29.376Z</time>
      </trkpt>
      <trkpt lat="45.86869" lon="6.77279">
        <ele>1540</ele>
        <time>2026-08-14T04:11:30.376Z</time>
      </trkpt>
      <trkpt lat="45.8687" lon="6.77281">
        <ele>1541</ele>
        <time>2026-08-14T04:11:31.376Z</time>
      </trkpt>
      <trkpt lat="45.86871" lon="6.77283">
        <ele>1541</ele>
        <time>2026-08-14T04:11:32.376Z</time>
      </trkpt>
      <trkpt lat="45.86872" lon="6.77285">
        <ele>1542</ele>
        <time>2026-08-14T04:11:33.376Z</time>
      </trkpt>
      <trkpt lat="45.86873" lon="6.77286">
        <ele>1542</ele>
        <time>2026-08-14T04:11:34.376Z</time>
      </trkpt>
      <trkpt lat="45.86874" lon="6.77288">
        <ele>1542</ele>
        <time>2026-08-14T04:11:35.376Z</time>
      </trkpt>
      <trkpt lat="45.86875" lon="6.77288">
        <ele>1542</ele>
        <time>2026-08-14T04:11:36.376Z</time>
      </trkpt>
      <trkpt lat="45.86876" lon="6.77289">
        <ele>1542</ele>
        <time>2026-08-14T04:11:37.376Z</time>
      </trkpt>
      <trkpt lat="45.86877" lon="6.7729">
        <ele>1542</ele>
        <time>2026-08-14T04:11:38.376Z</time>
      </trkpt>
      <trkpt lat="45.86879" lon="6.77292">
        <ele>1541</ele>
        <time>2026-08-14T04:11:39.376Z</time>
      </trkpt>
      <trkpt lat="45.8688" lon="6.77294">
        <ele>1541</ele>
        <time>2026-08-14T04:11:40.376Z</time>
      </trkpt>
      <trkpt lat="45.8688" lon="6.77295">
        <ele>1541</ele>
        <time>2026-08-14T04:11:41.376Z</time>
      </trkpt>
      <trkpt lat="45.86881" lon="6.77297">
        <ele>1542</ele>
        <time>2026-08-14T04:11:42.376Z</time>
      </trkpt>
      <trkpt lat="45.86881" lon="6.773">
        <ele>1542</ele>
        <time>2026-08-14T04:11:43.376Z</time>
      </trkpt>
      <trkpt lat="45.86881" lon="6.77302">
        <ele>1542</ele>
        <time>2026-08-14T04:11:44.376Z</time>
      </trkpt>
      <trkpt lat="45.86882" lon="6.77304">
        <ele>1542</ele>
        <time>2026-08-14T04:11:45.376Z</time>
      </trkpt>
      <trkpt lat="45.86883" lon="6.77306">
        <ele>1542</ele>
        <time>2026-08-14T04:11:46.376Z</time>
      </trkpt>
      <trkpt lat="45.86883" lon="6.77309">
        <ele>1542</ele>
        <time>2026-08-14T04:11:47.376Z</time>
      </trkpt>
      <trkpt lat="45.86883" lon="6.77311">
        <ele>1542</ele>
        <time>2026-08-14T04:11:48.376Z</time>
      </trkpt>
      <trkpt lat="45.86883" lon="6.77313">
        <ele>1542</ele>
        <time>2026-08-14T04:11:49.376Z</time>
      </trkpt>
      <trkpt lat="45.86883" lon="6.77316">
        <ele>1542</ele>
        <time>2026-08-14T04:11:50.376Z</time>
      </trkpt>
      <trkpt lat="45.86883" lon="6.77318">
        <ele>1542</ele>
        <time>2026-08-14T04:11:51.376Z</time>
      </trkpt>
      <trkpt lat="45.86883" lon="6.77319">
        <ele>1541</ele>
        <time>2026-08-14T04:11:52.376Z</time>
      </trkpt>
      <trkpt lat="45.86884" lon="6.77321">
        <ele>1541</ele>
        <time>2026-08-14T04:11:53.376Z</time>
      </trkpt>
      <trkpt lat="45.86883" lon="6.77323">
        <ele>1541</ele>
        <time>2026-08-14T04:11:54.376Z</time>
      </trkpt>
      <trkpt lat="45.86884" lon="6.77325">
        <ele>1541</ele>
        <time>2026-08-14T04:11:55.376Z</time>
      </trkpt>
      <trkpt lat="45.86884" lon="6.77327">
        <ele>1541</ele>
        <time>2026-08-14T04:11:56.376Z</time>
      </trkpt>
      <trkpt lat="45.86885" lon="6.77328">
        <ele>1542</ele>
        <time>2026-08-14T04:11:57.376Z</time>
      </trkpt>
      <trkpt lat="45.86886" lon="6.7733">
        <ele>1542</ele>
        <time>2026-08-14T04:11:58.376Z</time>
      </trkpt>
      <trkpt lat="45.86886" lon="6.77332">
        <ele>1542</ele>
        <time>2026-08-14T04:11:59.376Z</time>
      </trkpt>
      <trkpt lat="45.86886" lon="6.77334">
        <ele>1543</ele>
        <time>2026-08-14T04:12:00.376Z</time>
      </trkpt>
      <trkpt lat="45.86886" lon="6.77337">
        <ele>1543</ele>
        <time>2026-08-14T04:12:01.376Z</time>
      </trkpt>
      <trkpt lat="45.86886" lon="6.77339">
        <ele>1543</ele>
        <time>2026-08-14T04:12:02.376Z</time>
      </trkpt>
      <trkpt lat="45.86886" lon="6.77342">
        <ele>1543</ele>
        <time>2026-08-14T04:12:03.376Z</time>
      </trkpt>
      <trkpt lat="45.86886" lon="6.77344">
        <ele>1543</ele>
        <time>2026-08-14T04:12:04.376Z</time>
      </trkpt>
      <trkpt lat="45.86887" lon="6.77346">
        <ele>1543</ele>
        <time>2026-08-14T04:12:05.376Z</time>
      </trkpt>
      <trkpt lat="45.86887" lon="6.77349">
        <ele>1543</ele>
        <time>2026-08-14T04:12:06.376Z</time>
      </trkpt>
      <trkpt lat="45.86887" lon="6.77351">
        <ele>1543</ele>
        <time>2026-08-14T04:12:07.377Z</time>
      </trkpt>
      <trkpt lat="45.86887" lon="6.77353">
        <ele>1543</ele>
        <time>2026-08-14T04:12:08.376Z</time>
      </trkpt>
      <trkpt lat="45.86887" lon="6.77356">
        <ele>1543</ele>
        <time>2026-08-14T04:12:09.376Z</time>
      </trkpt>
      <trkpt lat="45.86888" lon="6.77358">
        <ele>1542</ele>
        <time>2026-08-14T04:12:10.376Z</time>
      </trkpt>
      <trkpt lat="45.86888" lon="6.77359">
        <ele>1542</ele>
        <time>2026-08-14T04:12:11.376Z</time>
      </trkpt>
      <trkpt lat="45.86889" lon="6.7736">
        <ele>1542</ele>
        <time>2026-08-14T04:12:12.376Z</time>
      </trkpt>
      <trkpt lat="45.86889" lon="6.7736">
        <ele>1541</ele>
        <time>2026-08-14T04:12:13.376Z</time>
      </trkpt>
      <trkpt lat="45.86889" lon="6.77361">
        <ele>1541</ele>
        <time>2026-08-14T04:12:14.376Z</time>
      </trkpt>
      <trkpt lat="45.86889" lon="6.77363">
        <ele>1541</ele>
        <time>2026-08-14T04:12:15.376Z</time>
      </trkpt>
      <trkpt lat="45.86888" lon="6.77365">
        <ele>1541</ele>
        <time>2026-08-14T04:12:16.376Z</time>
      </trkpt>
      <trkpt lat="45.86888" lon="6.77367">
        <ele>1541</ele>
        <time>2026-08-14T04:12:17.376Z</time>
      </trkpt>
      <trkpt lat="45.86888" lon="6.7737">
        <ele>1541</ele>
        <time>2026-08-14T04:12:18.376Z</time>
      </trkpt>
      <trkpt lat="45.86889" lon="6.77372">
        <ele>1541</ele>
        <time>2026-08-14T04:12:19.376Z</time>
      </trkpt>
      <trkpt lat="45.86889" lon="6.77374">
        <ele>1541</ele>
        <time>2026-08-14T04:12:20.376Z</time>
      </trkpt>
      <trkpt lat="45.8689" lon="6.77376">
        <ele>1542</ele>
        <time>2026-08-14T04:12:21.376Z</time>
      </trkpt>
      <trkpt lat="45.8689" lon="6.77378">
        <ele>1542</ele>
        <time>2026-08-14T04:12:22.376Z</time>
      </trkpt>
      <trkpt lat="45.8689" lon="6.77381">
        <ele>1542</ele>
        <time>2026-08-14T04:12:23.376Z</time>
      </trkpt>
      <trkpt lat="45.8689" lon="6.77383">
        <ele>1542</ele>
        <time>2026-08-14T04:12:24.376Z</time>
      </trkpt>
      <trkpt lat="45.86891" lon="6.77385">
        <ele>1543</ele>
        <time>2026-08-14T04:12:25.376Z</time>
      </trkpt>
      <trkpt lat="45.86892" lon="6.77387">
        <ele>1543</ele>
        <time>2026-08-14T04:12:26.376Z</time>
      </trkpt>
      <trkpt lat="45.86892" lon="6.77389">
        <ele>1543</ele>
        <time>2026-08-14T04:12:27.376Z</time>
      </trkpt>
      <trkpt lat="45.86893" lon="6.77391">
        <ele>1542</ele>
        <time>2026-08-14T04:12:28.376Z</time>
      </trkpt>
      <trkpt lat="45.86894" lon="6.77392">
        <ele>1542</ele>
        <time>2026-08-14T04:12:29.376Z</time>
      </trkpt>
      <trkpt lat="45.86895" lon="6.77394">
        <ele>1542</ele>
        <time>2026-08-14T04:12:30.376Z</time>
      </trkpt>
      <trkpt lat="45.86895" lon="6.77396">
        <ele>1542</ele>
        <time>2026-08-14T04:12:31.376Z</time>
      </trkpt>
      <trkpt lat="45.86896" lon="6.77399">
        <ele>1542</ele>
        <time>2026-08-14T04:12:32.376Z</time>
      </trkpt>
      <trkpt lat="45.86897" lon="6.774">
        <ele>1542</ele>
        <time>2026-08-14T04:12:33.376Z</time>
      </trkpt>
      <trkpt lat="45.86898" lon="6.77402">
        <ele>1542</ele>
        <time>2026-08-14T04:12:34.376Z</time>
      </trkpt>
      <trkpt lat="45.86899" lon="6.77404">
        <ele>1542</ele>
        <time>2026-08-14T04:12:35.376Z</time>
      </trkpt>
      <trkpt lat="45.86899" lon="6.77406">
        <ele>1543</ele>
        <time>2026-08-14T04:12:36.376Z</time>
      </trkpt>
      <trkpt lat="45.86899" lon="6.77408">
        <ele>1543</ele>
        <time>2026-08-14T04:12:37.376Z</time>
      </trkpt>
      <trkpt lat="45.869" lon="6.77411">
        <ele>1543</ele>
        <time>2026-08-14T04:12:38.376Z</time>
      </trkpt>
      <trkpt lat="45.869" lon="6.77413">
        <ele>1544</ele>
        <time>2026-08-14T04:12:39.376Z</time>
      </trkpt>
      <trkpt lat="45.869" lon="6.77415">
        <ele>1544</ele>
        <time>2026-08-14T04:12:40.376Z</time>
      </trkpt>
      <trkpt lat="45.869" lon="6.77417">
        <ele>1545</ele>
        <time>2026-08-14T04:12:41.376Z</time>
      </trkpt>
      <trkpt lat="45.869" lon="6.7742">
        <ele>1546</ele>
        <time>2026-08-14T04:12:42.376Z</time>
      </trkpt>
      <trkpt lat="45.869" lon="6.77422">
        <ele>1546</ele>
        <time>2026-08-14T04:12:43.376Z</time>
      </trkpt>
      <trkpt lat="45.86899" lon="6.77424">
        <ele>1547</ele>
        <time>2026-08-14T04:12:44.376Z</time>
      </trkpt>
      <trkpt lat="45.86899" lon="6.77427">
        <ele>1548</ele>
        <time>2026-08-14T04:12:45.376Z</time>
      </trkpt>
      <trkpt lat="45.86898" lon="6.77429">
        <ele>1548</ele>
        <time>2026-08-14T04:12:46.376Z</time>
      </trkpt>
      <trkpt lat="45.86898" lon="6.77432">
        <ele>1549</ele>
        <time>2026-08-14T04:12:47.376Z</time>
      </trkpt>
      <trkpt lat="45.86898" lon="6.77434">
        <ele>1549</ele>
        <time>2026-08-14T04:12:48.376Z</time>
      </trkpt>
      <trkpt lat="45.86897" lon="6.77436">
        <ele>1550</ele>
        <time>2026-08-14T04:12:49.376Z</time>
      </trkpt>
      <trkpt lat="45.86897" lon="6.77438">
        <ele>1550</ele>
        <time>2026-08-14T04:12:50.376Z</time>
      </trkpt>
      <trkpt lat="45.86896" lon="6.77441">
        <ele>1551</ele>
        <time>2026-08-14T04:12:51.376Z</time>
      </trkpt>
      <trkpt lat="45.86896" lon="6.77443">
        <ele>1551</ele>
        <time>2026-08-14T04:12:52.376Z</time>
      </trkpt>
      <trkpt lat="45.86896" lon="6.77446">
        <ele>1551</ele>
        <time>2026-08-14T04:12:53.376Z</time>
      </trkpt>
      <trkpt lat="45.86896" lon="6.77448">
        <ele>1552</ele>
        <time>2026-08-14T04:12:54.376Z</time>
      </trkpt>
      <trkpt lat="45.86896" lon="6.77451">
        <ele>1551</ele>
        <time>2026-08-14T04:12:55.376Z</time>
      </trkpt>
      <trkpt lat="45.86896" lon="6.77453">
        <ele>1551</ele>
        <time>2026-08-14T04:12:56.376Z</time>
      </trkpt>
      <trkpt lat="45.86896" lon="6.77456">
        <ele>1551</ele>
        <time>2026-08-14T04:12:57.376Z</time>
      </trkpt>
      <trkpt lat="45.86896" lon="6.77458">
        <ele>1550</ele>
        <time>2026-08-14T04:12:58.376Z</time>
      </trkpt>
      <trkpt lat="45.86896" lon="6.77461">
        <ele>1550</ele>
        <time>2026-08-14T04:12:59.376Z</time>
      </trkpt>
      <trkpt lat="45.86896" lon="6.77463">
        <ele>1549</ele>
        <time>2026-08-14T04:13:00.376Z</time>
      </trkpt>
      <trkpt lat="45.86896" lon="6.77466">
        <ele>1549</ele>
        <time>2026-08-14T04:13:01.376Z</time>
      </trkpt>
      <trkpt lat="45.86896" lon="6.77468">
        <ele>1548</ele>
        <time>2026-08-14T04:13:02.376Z</time>
      </trkpt>
      <trkpt lat="45.86896" lon="6.77471">
        <ele>1548</ele>
        <time>2026-08-14T04:13:03.376Z</time>
      </trkpt>
      <trkpt lat="45.86896" lon="6.77474">
        <ele>1548</ele>
        <time>2026-08-14T04:13:04.376Z</time>
      </trkpt>
      <trkpt lat="45.86896" lon="6.77476">
        <ele>1548</ele>
        <time>2026-08-14T04:13:05.376Z</time>
      </trkpt>
      <trkpt lat="45.86897" lon="6.77479">
        <ele>1549</ele>
        <time>2026-08-14T04:13:06.376Z</time>
      </trkpt>
      <trkpt lat="45.86897" lon="6.77482">
        <ele>1548</ele>
        <time>2026-08-14T04:13:07.376Z</time>
      </trkpt>
      <trkpt lat="45.86897" lon="6.77484">
        <ele>1548</ele>
        <time>2026-08-14T04:13:08.376Z</time>
      </trkpt>
      <trkpt lat="45.86898" lon="6.77487">
        <ele>1548</ele>
        <time>2026-08-14T04:13:09.376Z</time>
      </trkpt>
      <trkpt lat="45.86898" lon="6.7749">
        <ele>1548</ele>
        <time>2026-08-14T04:13:10.376Z</time>
      </trkpt>
      <trkpt lat="45.86898" lon="6.77493">
        <ele>1548</ele>
        <time>2026-08-14T04:13:11.376Z</time>
      </trkpt>
      <trkpt lat="45.86898" lon="6.77495">
        <ele>1548</ele>
        <time>2026-08-14T04:13:12.376Z</time>
      </trkpt>
      <trkpt lat="45.86899" lon="6.77498">
        <ele>1547</ele>
        <time>2026-08-14T04:13:13.376Z</time>
      </trkpt>
      <trkpt lat="45.86899" lon="6.77501">
        <ele>1547</ele>
        <time>2026-08-14T04:13:14.376Z</time>
      </trkpt>
      <trkpt lat="45.869" lon="6.77503">
        <ele>1547</ele>
        <time>2026-08-14T04:13:15.376Z</time>
      </trkpt>
      <trkpt lat="45.869" lon="6.77506">
        <ele>1548</ele>
        <time>2026-08-14T04:13:16.376Z</time>
      </trkpt>
      <trkpt lat="45.869" lon="6.77509">
        <ele>1548</ele>
        <time>2026-08-14T04:13:17.376Z</time>
      </trkpt>
      <trkpt lat="45.86901" lon="6.77511">
        <ele>1548</ele>
        <time>2026-08-14T04:13:18.376Z</time>
      </trkpt>
      <trkpt lat="45.86901" lon="6.77514">
        <ele>1548</ele>
        <time>2026-08-14T04:13:19.376Z</time>
      </trkpt>
      <trkpt lat="45.86901" lon="6.77516">
        <ele>1548</ele>
        <time>2026-08-14T04:13:20.376Z</time>
      </trkpt>
      <trkpt lat="45.86901" lon="6.77519">
        <ele>1548</ele>
        <time>2026-08-14T04:13:21.376Z</time>
      </trkpt>
      <trkpt lat="45.86901" lon="6.77522">
        <ele>1548</ele>
        <time>2026-08-14T04:13:22.376Z</time>
      </trkpt>
      <trkpt lat="45.86901" lon="6.77524">
        <ele>1548</ele>
        <time>2026-08-14T04:13:23.376Z</time>
      </trkpt>
      <trkpt lat="45.86901" lon="6.77526">
        <ele>1548</ele>
        <time>2026-08-14T04:13:24.376Z</time>
      </trkpt>
      <trkpt lat="45.86901" lon="6.77529">
        <ele>1548</ele>
        <time>2026-08-14T04:13:25.376Z</time>
      </trkpt>
      <trkpt lat="45.86901" lon="6.77531">
        <ele>1549</ele>
        <time>2026-08-14T04:13:26.376Z</time>
      </trkpt>
      <trkpt lat="45.86901" lon="6.77534">
        <ele>1549</ele>
        <time>2026-08-14T04:13:27.376Z</time>
      </trkpt>
      <trkpt lat="45.86901" lon="6.77536">
        <ele>1549</ele>
        <time>2026-08-14T04:13:28.376Z</time>
      </trkpt>
      <trkpt lat="45.86902" lon="6.77538">
        <ele>1550</ele>
        <time>2026-08-14T04:13:29.376Z</time>
      </trkpt>
      <trkpt lat="45.86902" lon="6.7754">
        <ele>1550</ele>
        <time>2026-08-14T04:13:30.376Z</time>
      </trkpt>
      <trkpt lat="45.86903" lon="6.77543">
        <ele>1551</ele>
        <time>2026-08-14T04:13:31.376Z</time>
      </trkpt>
      <trkpt lat="45.86903" lon="6.77545">
        <ele>1552</ele>
        <time>2026-08-14T04:13:32.376Z</time>
      </trkpt>
      <trkpt lat="45.86904" lon="6.77547">
        <ele>1552</ele>
        <time>2026-08-14T04:13:33.376Z</time>
      </trkpt>
      <trkpt lat="45.86904" lon="6.77549">
        <ele>1553</ele>
        <time>2026-08-14T04:13:34.376Z</time>
      </trkpt>
      <trkpt lat="45.86905" lon="6.77551">
        <ele>1553</ele>
        <time>2026-08-14T04:13:35.376Z</time>
      </trkpt>
      <trkpt lat="45.86905" lon="6.77554">
        <ele>1554</ele>
        <time>2026-08-14T04:13:36.376Z</time>
      </trkpt>
      <trkpt lat="45.86905" lon="6.77556">
        <ele>1553</ele>
        <time>2026-08-14T04:13:37.376Z</time>
      </trkpt>
      <trkpt lat="45.86905" lon="6.77558">
        <ele>1553</ele>
        <time>2026-08-14T04:13:38.376Z</time>
      </trkpt>
      <trkpt lat="45.86906" lon="6.77561">
        <ele>1553</ele>
        <time>2026-08-14T04:13:39.376Z</time>
      </trkpt>
      <trkpt lat="45.86907" lon="6.77564">
        <ele>1553</ele>
        <time>2026-08-14T04:13:40.376Z</time>
      </trkpt>
      <trkpt lat="45.86908" lon="6.77567">
        <ele>1553</ele>
        <time>2026-08-14T04:13:41.376Z</time>
      </trkpt>
      <trkpt lat="45.86908" lon="6.77569">
        <ele>1553</ele>
        <time>2026-08-14T04:13:42.376Z</time>
      </trkpt>
      <trkpt lat="45.86907" lon="6.77572">
        <ele>1553</ele>
        <time>2026-08-14T04:13:43.376Z</time>
      </trkpt>
      <trkpt lat="45.86906" lon="6.77575">
        <ele>1553</ele>
        <time>2026-08-14T04:13:44.376Z</time>
      </trkpt>
      <trkpt lat="45.86905" lon="6.77577">
        <ele>1553</ele>
        <time>2026-08-14T04:13:45.376Z</time>
      </trkpt>
      <trkpt lat="45.86906" lon="6.77581">
        <ele>1553</ele>
        <time>2026-08-14T04:13:46.376Z</time>
      </trkpt>
      <trkpt lat="45.86906" lon="6.77584">
        <ele>1553</ele>
        <time>2026-08-14T04:13:47.376Z</time>
      </trkpt>
      <trkpt lat="45.86906" lon="6.77586">
        <ele>1554</ele>
        <time>2026-08-14T04:13:48.376Z</time>
      </trkpt>
      <trkpt lat="45.86906" lon="6.77589">
        <ele>1555</ele>
        <time>2026-08-14T04:13:49.376Z</time>
      </trkpt>
      <trkpt lat="45.86906" lon="6.77592">
        <ele>1556</ele>
        <time>2026-08-14T04:13:50.376Z</time>
      </trkpt>
      <trkpt lat="45.86905" lon="6.77595">
        <ele>1557</ele>
        <time>2026-08-14T04:13:51.376Z</time>
      </trkpt>
      <trkpt lat="45.86905" lon="6.77597">
        <ele>1558</ele>
        <time>2026-08-14T04:13:52.376Z</time>
      </trkpt>
      <trkpt lat="45.86904" lon="6.776">
        <ele>1558</ele>
        <time>2026-08-14T04:13:53.376Z</time>
      </trkpt>
      <trkpt lat="45.86904" lon="6.77602">
        <ele>1559</ele>
        <time>2026-08-14T04:13:54.376Z</time>
      </trkpt>
      <trkpt lat="45.86904" lon="6.77605">
        <ele>1560</ele>
        <time>2026-08-14T04:13:55.376Z</time>
      </trkpt>
      <trkpt lat="45.86904" lon="6.77607">
        <ele>1561</ele>
        <time>2026-08-14T04:13:56.376Z</time>
      </trkpt>
      <trkpt lat="45.86904" lon="6.7761">
        <ele>1562</ele>
        <time>2026-08-14T04:13:57.376Z</time>
      </trkpt>
      <trkpt lat="45.86904" lon="6.77613">
        <ele>1563</ele>
        <time>2026-08-14T04:13:58.376Z</time>
      </trkpt>
      <trkpt lat="45.86904" lon="6.77615">
        <ele>1564</ele>
        <time>2026-08-14T04:13:59.376Z</time>
      </trkpt>
      <trkpt lat="45.86905" lon="6.77618">
        <ele>1564</ele>
        <time>2026-08-14T04:14:00.376Z</time>
      </trkpt>
      <trkpt lat="45.86905" lon="6.77621">
        <ele>1564</ele>
        <time>2026-08-14T04:14:01.376Z</time>
      </trkpt>
      <trkpt lat="45.86905" lon="6.77624">
        <ele>1564</ele>
        <time>2026-08-14T04:14:02.376Z</time>
      </trkpt>
      <trkpt lat="45.86905" lon="6.77626">
        <ele>1564</ele>
        <time>2026-08-14T04:14:03.376Z</time>
      </trkpt>
      <trkpt lat="45.86905" lon="6.77629">
        <ele>1565</ele>
        <time>2026-08-14T04:14:04.376Z</time>
      </trkpt>
      <trkpt lat="45.86905" lon="6.77632">
        <ele>1566</ele>
        <time>2026-08-14T04:14:05.376Z</time>
      </trkpt>
      <trkpt lat="45.86906" lon="6.77635">
        <ele>1566</ele>
        <time>2026-08-14T04:14:06.376Z</time>
      </trkpt>
      <trkpt lat="45.86906" lon="6.77637">
        <ele>1566</ele>
        <time>2026-08-14T04:14:07.376Z</time>
      </trkpt>
      <trkpt lat="45.86907" lon="6.7764">
        <ele>1567</ele>
        <time>2026-08-14T04:14:08.376Z</time>
      </trkpt>
      <trkpt lat="45.86907" lon="6.77642">
        <ele>1567</ele>
        <time>2026-08-14T04:14:09.376Z</time>
      </trkpt>
      <trkpt lat="45.86906" lon="6.77644">
        <ele>1567</ele>
        <time>2026-08-14T04:14:10.376Z</time>
      </trkpt>
      <trkpt lat="45.86907" lon="6.77646">
        <ele>1567</ele>
        <time>2026-08-14T04:14:11.376Z</time>
      </trkpt>
      <trkpt lat="45.86907" lon="6.77648">
        <ele>1567</ele>
        <time>2026-08-14T04:14:12.376Z</time>
      </trkpt>
      <trkpt lat="45.86908" lon="6.77649">
        <ele>1568</ele>
        <time>2026-08-14T04:14:13.376Z</time>
      </trkpt>
      <trkpt lat="45.86909" lon="6.77651">
        <ele>1568</ele>
        <time>2026-08-14T04:14:14.376Z</time>
      </trkpt>
      <trkpt lat="45.86909" lon="6.77653">
        <ele>1569</ele>
        <time>2026-08-14T04:14:15.376Z</time>
      </trkpt>
      <trkpt lat="45.8691" lon="6.77655">
        <ele>1569</ele>
        <time>2026-08-14T04:14:16.376Z</time>
      </trkpt>
      <trkpt lat="45.8691" lon="6.77657">
        <ele>1569</ele>
        <time>2026-08-14T04:14:17.376Z</time>
      </trkpt>
      <trkpt lat="45.86911" lon="6.77659">
        <ele>1568</ele>
        <time>2026-08-14T04:14:18.376Z</time>
      </trkpt>
      <trkpt lat="45.86911" lon="6.7766">
        <ele>1568</ele>
        <time>2026-08-14T04:14:19.376Z</time>
      </trkpt>
      <trkpt lat="45.86912" lon="6.77662">
        <ele>1568</ele>
        <time>2026-08-14T04:14:20.376Z</time>
      </trkpt>
      <trkpt lat="45.86913" lon="6.77664">
        <ele>1567</ele>
        <time>2026-08-14T04:14:21.376Z</time>
      </trkpt>
      <trkpt lat="45.86914" lon="6.77665">
        <ele>1566</ele>
        <time>2026-08-14T04:14:22.376Z</time>
      </trkpt>
      <trkpt lat="45.86915" lon="6.77667">
        <ele>1566</ele>
        <time>2026-08-14T04:14:23.376Z</time>
      </trkpt>
      <trkpt lat="45.86916" lon="6.77668">
        <ele>1565</ele>
        <time>2026-08-14T04:14:24.376Z</time>
      </trkpt>
      <trkpt lat="45.86917" lon="6.7767">
        <ele>1564</ele>
        <time>2026-08-14T04:14:25.376Z</time>
      </trkpt>
      <trkpt lat="45.86918" lon="6.77672">
        <ele>1562</ele>
        <time>2026-08-14T04:14:26.376Z</time>
      </trkpt>
      <trkpt lat="45.86918" lon="6.77674">
        <ele>1561</ele>
        <time>2026-08-14T04:14:27.376Z</time>
      </trkpt>
      <trkpt lat="45.86918" lon="6.77676">
        <ele>1560</ele>
        <time>2026-08-14T04:14:28.376Z</time>
      </trkpt>
      <trkpt lat="45.86918" lon="6.77678">
        <ele>1560</ele>
        <time>2026-08-14T04:14:29.376Z</time>
      </trkpt>
      <trkpt lat="45.86918" lon="6.77681">
        <ele>1559</ele>
        <time>2026-08-14T04:14:30.376Z</time>
      </trkpt>
      <trkpt lat="45.86918" lon="6.77683">
        <ele>1558</ele>
        <time>2026-08-14T04:14:31.376Z</time>
      </trkpt>
      <trkpt lat="45.86918" lon="6.77685">
        <ele>1558</ele>
        <time>2026-08-14T04:14:32.376Z</time>
      </trkpt>
      <trkpt lat="45.86918" lon="6.77687">
        <ele>1557</ele>
        <time>2026-08-14T04:14:33.376Z</time>
      </trkpt>
      <trkpt lat="45.86918" lon="6.77689">
        <ele>1557</ele>
        <time>2026-08-14T04:14:34.376Z</time>
      </trkpt>
      <trkpt lat="45.86918" lon="6.77692">
        <ele>1556</ele>
        <time>2026-08-14T04:14:35.376Z</time>
      </trkpt>
      <trkpt lat="45.86918" lon="6.77694">
        <ele>1557</ele>
        <time>2026-08-14T04:14:36.376Z</time>
      </trkpt>
      <trkpt lat="45.86918" lon="6.77697">
        <ele>1557</ele>
        <time>2026-08-14T04:14:37.376Z</time>
      </trkpt>
      <trkpt lat="45.86918" lon="6.777">
        <ele>1557</ele>
        <time>2026-08-14T04:14:38.376Z</time>
      </trkpt>
      <trkpt lat="45.86918" lon="6.77702">
        <ele>1557</ele>
        <time>2026-08-14T04:14:39.376Z</time>
      </trkpt>
      <trkpt lat="45.86918" lon="6.77705">
        <ele>1558</ele>
        <time>2026-08-14T04:14:40.376Z</time>
      </trkpt>
      <trkpt lat="45.86917" lon="6.77707">
        <ele>1558</ele>
        <time>2026-08-14T04:14:41.376Z</time>
      </trkpt>
      <trkpt lat="45.86917" lon="6.7771">
        <ele>1558</ele>
        <time>2026-08-14T04:14:42.376Z</time>
      </trkpt>
      <trkpt lat="45.86917" lon="6.77713">
        <ele>1559</ele>
        <time>2026-08-14T04:14:43.376Z</time>
      </trkpt>
      <trkpt lat="45.86917" lon="6.77715">
        <ele>1559</ele>
        <time>2026-08-14T04:14:44.376Z</time>
      </trkpt>
      <trkpt lat="45.86917" lon="6.77717">
        <ele>1559</ele>
        <time>2026-08-14T04:14:45.376Z</time>
      </trkpt>
      <trkpt lat="45.86916" lon="6.7772">
        <ele>1560</ele>
        <time>2026-08-14T04:14:46.376Z</time>
      </trkpt>
      <trkpt lat="45.86916" lon="6.77722">
        <ele>1560</ele>
        <time>2026-08-14T04:14:47.376Z</time>
      </trkpt>
      <trkpt lat="45.86915" lon="6.77725">
        <ele>1561</ele>
        <time>2026-08-14T04:14:48.376Z</time>
      </trkpt>
      <trkpt lat="45.86915" lon="6.77727">
        <ele>1561</ele>
        <time>2026-08-14T04:14:49.376Z</time>
      </trkpt>
      <trkpt lat="45.86914" lon="6.7773">
        <ele>1561</ele>
        <time>2026-08-14T04:14:50.376Z</time>
      </trkpt>
      <trkpt lat="45.86914" lon="6.77733">
        <ele>1561</ele>
        <time>2026-08-14T04:14:51.376Z</time>
      </trkpt>
      <trkpt lat="45.86913" lon="6.77735">
        <ele>1561</ele>
        <time>2026-08-14T04:14:52.376Z</time>
      </trkpt>
      <trkpt lat="45.86912" lon="6.77738">
        <ele>1561</ele>
        <time>2026-08-14T04:14:53.376Z</time>
      </trkpt>
      <trkpt lat="45.86911" lon="6.7774">
        <ele>1561</ele>
        <time>2026-08-14T04:14:54.376Z</time>
      </trkpt>
      <trkpt lat="45.8691" lon="6.77743">
        <ele>1560</ele>
        <time>2026-08-14T04:14:55.376Z</time>
      </trkpt>
      <trkpt lat="45.86909" lon="6.77745">
        <ele>1560</ele>
        <time>2026-08-14T04:14:56.376Z</time>
      </trkpt>
      <trkpt lat="45.86908" lon="6.77747">
        <ele>1560</ele>
        <time>2026-08-14T04:14:57.376Z</time>
      </trkpt>
      <trkpt lat="45.86907" lon="6.77749">
        <ele>1561</ele>
        <time>2026-08-14T04:14:58.376Z</time>
      </trkpt>
      <trkpt lat="45.86906" lon="6.77751">
        <ele>1561</ele>
        <time>2026-08-14T04:14:59.376Z</time>
      </trkpt>
      <trkpt lat="45.86905" lon="6.77753">
        <ele>1561</ele>
        <time>2026-08-14T04:15:00.376Z</time>
      </trkpt>
      <trkpt lat="45.86905" lon="6.77755">
        <ele>1561</ele>
        <time>2026-08-14T04:15:01.376Z</time>
      </trkpt>
      <trkpt lat="45.86904" lon="6.77758">
        <ele>1561</ele>
        <time>2026-08-14T04:15:02.376Z</time>
      </trkpt>
      <trkpt lat="45.86903" lon="6.7776">
        <ele>1561</ele>
        <time>2026-08-14T04:15:03.376Z</time>
      </trkpt>
      <trkpt lat="45.86902" lon="6.77762">
        <ele>1562</ele>
        <time>2026-08-14T04:15:04.376Z</time>
      </trkpt>
      <trkpt lat="45.869" lon="6.77764">
        <ele>1562</ele>
        <time>2026-08-14T04:15:05.376Z</time>
      </trkpt>
      <trkpt lat="45.86899" lon="6.77766">
        <ele>1562</ele>
        <time>2026-08-14T04:15:06.376Z</time>
      </trkpt>
      <trkpt lat="45.86898" lon="6.77768">
        <ele>1562</ele>
        <time>2026-08-14T04:15:07.376Z</time>
      </trkpt>
      <trkpt lat="45.86898" lon="6.7777">
        <ele>1562</ele>
        <time>2026-08-14T04:15:08.376Z</time>
      </trkpt>
      <trkpt lat="45.86897" lon="6.77772">
        <ele>1562</ele>
        <time>2026-08-14T04:15:09.376Z</time>
      </trkpt>
      <trkpt lat="45.86896" lon="6.77774">
        <ele>1562</ele>
        <time>2026-08-14T04:15:10.376Z</time>
      </trkpt>
      <trkpt lat="45.86895" lon="6.77776">
        <ele>1562</ele>
        <time>2026-08-14T04:15:11.376Z</time>
      </trkpt>
      <trkpt lat="45.86893" lon="6.77778">
        <ele>1562</ele>
        <time>2026-08-14T04:15:12.376Z</time>
      </trkpt>
      <trkpt lat="45.86892" lon="6.7778">
        <ele>1562</ele>
        <time>2026-08-14T04:15:13.376Z</time>
      </trkpt>
      <trkpt lat="45.86892" lon="6.77782">
        <ele>1562</ele>
        <time>2026-08-14T04:15:14.376Z</time>
      </trkpt>
      <trkpt lat="45.8689" lon="6.77784">
        <ele>1562</ele>
        <time>2026-08-14T04:15:15.376Z</time>
      </trkpt>
      <trkpt lat="45.86889" lon="6.77787">
        <ele>1563</ele>
        <time>2026-08-14T04:15:16.376Z</time>
      </trkpt>
      <trkpt lat="45.86888" lon="6.77789">
        <ele>1563</ele>
        <time>2026-08-14T04:15:17.376Z</time>
      </trkpt>
      <trkpt lat="45.86887" lon="6.7779">
        <ele>1563</ele>
        <time>2026-08-14T04:15:18.376Z</time>
      </trkpt>
      <trkpt lat="45.86886" lon="6.77793">
        <ele>1564</ele>
        <time>2026-08-14T04:15:19.376Z</time>
      </trkpt>
      <trkpt lat="45.86885" lon="6.77795">
        <ele>1564</ele>
        <time>2026-08-14T04:15:20.376Z</time>
      </trkpt>
      <trkpt lat="45.86883" lon="6.77797">
        <ele>1564</ele>
        <time>2026-08-14T04:15:21.376Z</time>
      </trkpt>
      <trkpt lat="45.86882" lon="6.77799">
        <ele>1564</ele>
        <time>2026-08-14T04:15:22.376Z</time>
      </trkpt>
      <trkpt lat="45.86881" lon="6.77801">
        <ele>1564</ele>
        <time>2026-08-14T04:15:23.376Z</time>
      </trkpt>
      <trkpt lat="45.8688" lon="6.77804">
        <ele>1564</ele>
        <time>2026-08-14T04:15:24.376Z</time>
      </trkpt>
      <trkpt lat="45.86879" lon="6.77806">
        <ele>1565</ele>
        <time>2026-08-14T04:15:25.376Z</time>
      </trkpt>
      <trkpt lat="45.86878" lon="6.77808">
        <ele>1565</ele>
        <time>2026-08-14T04:15:26.376Z</time>
      </trkpt>
      <trkpt lat="45.86877" lon="6.7781">
        <ele>1565</ele>
        <time>2026-08-14T04:15:27.376Z</time>
      </trkpt>
      <trkpt lat="45.86875" lon="6.77812">
        <ele>1565</ele>
        <time>2026-08-14T04:15:28.376Z</time>
      </trkpt>
      <trkpt lat="45.86874" lon="6.77814">
        <ele>1565</ele>
        <time>2026-08-14T04:15:29.376Z</time>
      </trkpt>
      <trkpt lat="45.86873" lon="6.77816">
        <ele>1565</ele>
        <time>2026-08-14T04:15:30.376Z</time>
      </trkpt>
      <trkpt lat="45.86872" lon="6.77818">
        <ele>1565</ele>
        <time>2026-08-14T04:15:31.376Z</time>
      </trkpt>
      <trkpt lat="45.86871" lon="6.7782">
        <ele>1565</ele>
        <time>2026-08-14T04:15:32.376Z</time>
      </trkpt>
      <trkpt lat="45.8687" lon="6.77822">
        <ele>1565</ele>
        <time>2026-08-14T04:15:33.376Z</time>
      </trkpt>
      <trkpt lat="45.86869" lon="6.77824">
        <ele>1565</ele>
        <time>2026-08-14T04:15:34.376Z</time>
      </trkpt>
      <trkpt lat="45.86868" lon="6.77826">
        <ele>1565</ele>
        <time>2026-08-14T04:15:35.376Z</time>
      </trkpt>
      <trkpt lat="45.86867" lon="6.77828">
        <ele>1565</ele>
        <time>2026-08-14T04:15:36.376Z</time>
      </trkpt>
      <trkpt lat="45.86866" lon="6.7783">
        <ele>1564</ele>
        <time>2026-08-14T04:15:37.376Z</time>
      </trkpt>
      <trkpt lat="45.86865" lon="6.77832">
        <ele>1564</ele>
        <time>2026-08-14T04:15:38.376Z</time>
      </trkpt>
      <trkpt lat="45.86865" lon="6.77834">
        <ele>1563</ele>
        <time>2026-08-14T04:15:39.376Z</time>
      </trkpt>
      <trkpt lat="45.86864" lon="6.77836">
        <ele>1563</ele>
        <time>2026-08-14T04:15:40.376Z</time>
      </trkpt>
      <trkpt lat="45.86863" lon="6.77838">
        <ele>1563</ele>
        <time>2026-08-14T04:15:41.376Z</time>
      </trkpt>
      <trkpt lat="45.86863" lon="6.77841">
        <ele>1563</ele>
        <time>2026-08-14T04:15:42.376Z</time>
      </trkpt>
      <trkpt lat="45.86863" lon="6.77843">
        <ele>1563</ele>
        <time>2026-08-14T04:15:43.376Z</time>
      </trkpt>
      <trkpt lat="45.86863" lon="6.77845">
        <ele>1563</ele>
        <time>2026-08-14T04:15:44.376Z</time>
      </trkpt>
      <trkpt lat="45.86862" lon="6.77847">
        <ele>1563</ele>
        <time>2026-08-14T04:15:45.376Z</time>
      </trkpt>
      <trkpt lat="45.86862" lon="6.77849">
        <ele>1563</ele>
        <time>2026-08-14T04:15:46.376Z</time>
      </trkpt>
      <trkpt lat="45.86861" lon="6.77851">
        <ele>1563</ele>
        <time>2026-08-14T04:15:47.376Z</time>
      </trkpt>
      <trkpt lat="45.86861" lon="6.77853">
        <ele>1562</ele>
        <time>2026-08-14T04:15:48.376Z</time>
      </trkpt>
      <trkpt lat="45.86861" lon="6.77855">
        <ele>1562</ele>
        <time>2026-08-14T04:15:49.376Z</time>
      </trkpt>
      <trkpt lat="45.86861" lon="6.77858">
        <ele>1562</ele>
        <time>2026-08-14T04:15:50.376Z</time>
      </trkpt>
      <trkpt lat="45.8686" lon="6.7786">
        <ele>1562</ele>
        <time>2026-08-14T04:15:51.376Z</time>
      </trkpt>
      <trkpt lat="45.8686" lon="6.77862">
        <ele>1563</ele>
        <time>2026-08-14T04:15:52.376Z</time>
      </trkpt>
      <trkpt lat="45.8686" lon="6.77864">
        <ele>1563</ele>
        <time>2026-08-14T04:15:53.376Z</time>
      </trkpt>
      <trkpt lat="45.86859" lon="6.77866">
        <ele>1563</ele>
        <time>2026-08-14T04:15:54.376Z</time>
      </trkpt>
      <trkpt lat="45.86858" lon="6.77869">
        <ele>1564</ele>
        <time>2026-08-14T04:15:55.376Z</time>
      </trkpt>
      <trkpt lat="45.86858" lon="6.77871">
        <ele>1564</ele>
        <time>2026-08-14T04:15:56.376Z</time>
      </trkpt>
      <trkpt lat="45.86857" lon="6.77873">
        <ele>1564</ele>
        <time>2026-08-14T04:15:57.376Z</time>
      </trkpt>
      <trkpt lat="45.86856" lon="6.77876">
        <ele>1565</ele>
        <time>2026-08-14T04:15:58.376Z</time>
      </trkpt>
      <trkpt lat="45.86856" lon="6.77878">
        <ele>1565</ele>
        <time>2026-08-14T04:15:59.376Z</time>
      </trkpt>
      <trkpt lat="45.86855" lon="6.7788">
        <ele>1566</ele>
        <time>2026-08-14T04:16:00.376Z</time>
      </trkpt>
      <trkpt lat="45.86854" lon="6.77882">
        <ele>1566</ele>
        <time>2026-08-14T04:16:01.376Z</time>
      </trkpt>
      <trkpt lat="45.86854" lon="6.77885">
        <ele>1567</ele>
        <time>2026-08-14T04:16:02.376Z</time>
      </trkpt>
      <trkpt lat="45.86853" lon="6.77887">
        <ele>1567</ele>
        <time>2026-08-14T04:16:03.376Z</time>
      </trkpt>
      <trkpt lat="45.86852" lon="6.77889">
        <ele>1567</ele>
        <time>2026-08-14T04:16:04.376Z</time>
      </trkpt>
      <trkpt lat="45.86851" lon="6.77891">
        <ele>1567</ele>
        <time>2026-08-14T04:16:05.376Z</time>
      </trkpt>
      <trkpt lat="45.86851" lon="6.77893">
        <ele>1568</ele>
        <time>2026-08-14T04:16:06.376Z</time>
      </trkpt>
      <trkpt lat="45.8685" lon="6.77896">
        <ele>1568</ele>
        <time>2026-08-14T04:16:07.376Z</time>
      </trkpt>
      <trkpt lat="45.86849" lon="6.77897">
        <ele>1568</ele>
        <time>2026-08-14T04:16:08.376Z</time>
      </trkpt>
      <trkpt lat="45.86848" lon="6.77899">
        <ele>1568</ele>
        <time>2026-08-14T04:16:09.376Z</time>
      </trkpt>
      <trkpt lat="45.86847" lon="6.77901">
        <ele>1568</ele>
        <time>2026-08-14T04:16:10.376Z</time>
      </trkpt>
      <trkpt lat="45.86846" lon="6.77904">
        <ele>1568</ele>
        <time>2026-08-14T04:16:11.376Z</time>
      </trkpt>
      <trkpt lat="45.86845" lon="6.77906">
        <ele>1568</ele>
        <time>2026-08-14T04:16:12.376Z</time>
      </trkpt>
      <trkpt lat="45.86845" lon="6.77908">
        <ele>1568</ele>
        <time>2026-08-14T04:16:13.376Z</time>
      </trkpt>
      <trkpt lat="45.86844" lon="6.7791">
        <ele>1568</ele>
        <time>2026-08-14T04:16:14.376Z</time>
      </trkpt>
      <trkpt lat="45.86844" lon="6.77912">
        <ele>1568</ele>
        <time>2026-08-14T04:16:15.376Z</time>
      </trkpt>
      <trkpt lat="45.86844" lon="6.77914">
        <ele>1568</ele>
        <time>2026-08-14T04:16:16.376Z</time>
      </trkpt>
      <trkpt lat="45.86844" lon="6.77917">
        <ele>1569</ele>
        <time>2026-08-14T04:16:17.376Z</time>
      </trkpt>
      <trkpt lat="45.86844" lon="6.77919">
        <ele>1569</ele>
        <time>2026-08-14T04:16:18.376Z</time>
      </trkpt>
      <trkpt lat="45.86843" lon="6.77921">
        <ele>1569</ele>
        <time>2026-08-14T04:16:19.376Z</time>
      </trkpt>
      <trkpt lat="45.86843" lon="6.77923">
        <ele>1570</ele>
        <time>2026-08-14T04:16:20.376Z</time>
      </trkpt>
      <trkpt lat="45.86842" lon="6.77925">
        <ele>1571</ele>
        <time>2026-08-14T04:16:21.376Z</time>
      </trkpt>
      <trkpt lat="45.86841" lon="6.77927">
        <ele>1571</ele>
        <time>2026-08-14T04:16:22.376Z</time>
      </trkpt>
      <trkpt lat="45.86841" lon="6.77929">
        <ele>1571</ele>
        <time>2026-08-14T04:16:23.376Z</time>
      </trkpt>
      <trkpt lat="45.8684" lon="6.7793">
        <ele>1570</ele>
        <time>2026-08-14T04:16:24.376Z</time>
      </trkpt>
      <trkpt lat="45.8684" lon="6.77932">
        <ele>1570</ele>
        <time>2026-08-14T04:16:25.376Z</time>
      </trkpt>
      <trkpt lat="45.86839" lon="6.77933">
        <ele>1570</ele>
        <time>2026-08-14T04:16:26.376Z</time>
      </trkpt>
      <trkpt lat="45.86839" lon="6.77934">
        <ele>1571</ele>
        <time>2026-08-14T04:16:27.376Z</time>
      </trkpt>
      <trkpt lat="45.86839" lon="6.77936">
        <ele>1571</ele>
        <time>2026-08-14T04:16:28.376Z</time>
      </trkpt>
      <trkpt lat="45.86838" lon="6.77938">
        <ele>1572</ele>
        <time>2026-08-14T04:16:29.376Z</time>
      </trkpt>
      <trkpt lat="45.86838" lon="6.7794">
        <ele>1572</ele>
        <time>2026-08-14T04:16:30.376Z</time>
      </trkpt>
      <trkpt lat="45.86838" lon="6.77942">
        <ele>1573</ele>
        <time>2026-08-14T04:16:31.376Z</time>
      </trkpt>
      <trkpt lat="45.86837" lon="6.77944">
        <ele>1573</ele>
        <time>2026-08-14T04:16:32.376Z</time>
      </trkpt>
      <trkpt lat="45.86837" lon="6.77946">
        <ele>1574</ele>
        <time>2026-08-14T04:16:33.376Z</time>
      </trkpt>
      <trkpt lat="45.86836" lon="6.77948">
        <ele>1575</ele>
        <time>2026-08-14T04:16:34.376Z</time>
      </trkpt>
      <trkpt lat="45.86835" lon="6.7795">
        <ele>1575</ele>
        <time>2026-08-14T04:16:35.376Z</time>
      </trkpt>
      <trkpt lat="45.86835" lon="6.77952">
        <ele>1574</ele>
        <time>2026-08-14T04:16:36.376Z</time>
      </trkpt>
      <trkpt lat="45.86834" lon="6.77954">
        <ele>1574</ele>
        <time>2026-08-14T04:16:37.376Z</time>
      </trkpt>
      <trkpt lat="45.86834" lon="6.77956">
        <ele>1574</ele>
        <time>2026-08-14T04:16:38.376Z</time>
      </trkpt>
      <trkpt lat="45.86833" lon="6.77958">
        <ele>1573</ele>
        <time>2026-08-14T04:16:39.376Z</time>
      </trkpt>
      <trkpt lat="45.86833" lon="6.7796">
        <ele>1573</ele>
        <time>2026-08-14T04:16:40.376Z</time>
      </trkpt>
      <trkpt lat="45.86832" lon="6.77963">
        <ele>1573</ele>
        <time>2026-08-14T04:16:41.376Z</time>
      </trkpt>
      <trkpt lat="45.86832" lon="6.77965">
        <ele>1573</ele>
        <time>2026-08-14T04:16:42.376Z</time>
      </trkpt>
      <trkpt lat="45.86832" lon="6.77967">
        <ele>1572</ele>
        <time>2026-08-14T04:16:43.376Z</time>
      </trkpt>
      <trkpt lat="45.86831" lon="6.77969">
        <ele>1572</ele>
        <time>2026-08-14T04:16:44.376Z</time>
      </trkpt>
      <trkpt lat="45.8683" lon="6.77972">
        <ele>1572</ele>
        <time>2026-08-14T04:16:45.376Z</time>
      </trkpt>
      <trkpt lat="45.8683" lon="6.77974">
        <ele>1572</ele>
        <time>2026-08-14T04:16:46.376Z</time>
      </trkpt>
      <trkpt lat="45.86829" lon="6.77976">
        <ele>1572</ele>
        <time>2026-08-14T04:16:47.376Z</time>
      </trkpt>
      <trkpt lat="45.86828" lon="6.77978">
        <ele>1572</ele>
        <time>2026-08-14T04:16:48.376Z</time>
      </trkpt>
      <trkpt lat="45.86828" lon="6.7798">
        <ele>1573</ele>
        <time>2026-08-14T04:16:49.376Z</time>
      </trkpt>
      <trkpt lat="45.86827" lon="6.77982">
        <ele>1573</ele>
        <time>2026-08-14T04:16:50.376Z</time>
      </trkpt>
      <trkpt lat="45.86826" lon="6.77984">
        <ele>1573</ele>
        <time>2026-08-14T04:16:51.376Z</time>
      </trkpt>
      <trkpt lat="45.86826" lon="6.77986">
        <ele>1574</ele>
        <time>2026-08-14T04:16:52.376Z</time>
      </trkpt>
      <trkpt lat="45.86825" lon="6.77988">
        <ele>1574</ele>
        <time>2026-08-14T04:16:53.376Z</time>
      </trkpt>
      <trkpt lat="45.86824" lon="6.7799">
        <ele>1574</ele>
        <time>2026-08-14T04:16:54.376Z</time>
      </trkpt>
      <trkpt lat="45.86823" lon="6.77991">
        <ele>1575</ele>
        <time>2026-08-14T04:16:55.376Z</time>
      </trkpt>
      <trkpt lat="45.86822" lon="6.77993">
        <ele>1576</ele>
        <time>2026-08-14T04:16:56.376Z</time>
      </trkpt>
      <trkpt lat="45.86822" lon="6.77995">
        <ele>1576</ele>
        <time>2026-08-14T04:16:57.376Z</time>
      </trkpt>
      <trkpt lat="45.86821" lon="6.77997">
        <ele>1577</ele>
        <time>2026-08-14T04:16:58.376Z</time>
      </trkpt>
      <trkpt lat="45.8682" lon="6.77998">
        <ele>1577</ele>
        <time>2026-08-14T04:16:59.376Z</time>
      </trkpt>
      <trkpt lat="45.86819" lon="6.78">
        <ele>1578</ele>
        <time>2026-08-14T04:17:00.376Z</time>
      </trkpt>
      <trkpt lat="45.86818" lon="6.78001">
        <ele>1578</ele>
        <time>2026-08-14T04:17:01.376Z</time>
      </trkpt>
      <trkpt lat="45.86817" lon="6.78003">
        <ele>1579</ele>
        <time>2026-08-14T04:17:02.376Z</time>
      </trkpt>
      <trkpt lat="45.86816" lon="6.78005">
        <ele>1580</ele>
        <time>2026-08-14T04:17:03.376Z</time>
      </trkpt>
      <trkpt lat="45.86815" lon="6.78007">
        <ele>1581</ele>
        <time>2026-08-14T04:17:04.376Z</time>
      </trkpt>
      <trkpt lat="45.86815" lon="6.78009">
        <ele>1582</ele>
        <time>2026-08-14T04:17:05.376Z</time>
      </trkpt>
      <trkpt lat="45.86814" lon="6.78011">
        <ele>1583</ele>
        <time>2026-08-14T04:17:06.376Z</time>
      </trkpt>
      <trkpt lat="45.86813" lon="6.78013">
        <ele>1584</ele>
        <time>2026-08-14T04:17:07.376Z</time>
      </trkpt>
      <trkpt lat="45.86812" lon="6.78014">
        <ele>1585</ele>
        <time>2026-08-14T04:17:08.376Z</time>
      </trkpt>
      <trkpt lat="45.86811" lon="6.78015">
        <ele>1586</ele>
        <time>2026-08-14T04:17:09.376Z</time>
      </trkpt>
      <trkpt lat="45.8681" lon="6.78016">
        <ele>1586</ele>
        <time>2026-08-14T04:17:10.376Z</time>
      </trkpt>
      <trkpt lat="45.86809" lon="6.78018">
        <ele>1587</ele>
        <time>2026-08-14T04:17:11.376Z</time>
      </trkpt>
      <trkpt lat="45.86808" lon="6.78019">
        <ele>1587</ele>
        <time>2026-08-14T04:17:12.376Z</time>
      </trkpt>
      <trkpt lat="45.86807" lon="6.7802">
        <ele>1587</ele>
        <time>2026-08-14T04:17:13.376Z</time>
      </trkpt>
      <trkpt lat="45.86807" lon="6.7802">
        <ele>1587</ele>
        <time>2026-08-14T04:17:14.376Z</time>
      </trkpt>
      <trkpt lat="45.86806" lon="6.7802">
        <ele>1587</ele>
        <time>2026-08-14T04:17:15.376Z</time>
      </trkpt>
      <trkpt lat="45.86806" lon="6.78019">
        <ele>1586</ele>
        <time>2026-08-14T04:17:16.376Z</time>
      </trkpt>
      <trkpt lat="45.86806" lon="6.78019">
        <ele>1586</ele>
        <time>2026-08-14T04:17:17.376Z</time>
      </trkpt>
      <trkpt lat="45.86805" lon="6.78019">
        <ele>1586</ele>
        <time>2026-08-14T04:17:18.376Z</time>
      </trkpt>
      <trkpt lat="45.86805" lon="6.78019">
        <ele>1587</ele>
        <time>2026-08-14T04:17:19.376Z</time>
      </trkpt>
      <trkpt lat="45.86805" lon="6.78019">
        <ele>1587</ele>
        <time>2026-08-14T04:17:20.376Z</time>
      </trkpt>
      <trkpt lat="45.86805" lon="6.7802">
        <ele>1587</ele>
        <time>2026-08-14T04:17:21.376Z</time>
      </trkpt>
      <trkpt lat="45.86805" lon="6.78021">
        <ele>1588</ele>
        <time>2026-08-14T04:17:22.376Z</time>
      </trkpt>
      <trkpt lat="45.86804" lon="6.78022">
        <ele>1588</ele>
        <time>2026-08-14T04:17:23.376Z</time>
      </trkpt>
      <trkpt lat="45.86804" lon="6.78024">
        <ele>1588</ele>
        <time>2026-08-14T04:17:24.376Z</time>
      </trkpt>
      <trkpt lat="45.86804" lon="6.78024">
        <ele>1588</ele>
        <time>2026-08-14T04:17:25.376Z</time>
      </trkpt>
      <trkpt lat="45.86804" lon="6.78025">
        <ele>1588</ele>
        <time>2026-08-14T04:17:26.376Z</time>
      </trkpt>
      <trkpt lat="45.86804" lon="6.78027">
        <ele>1588</ele>
        <time>2026-08-14T04:17:27.376Z</time>
      </trkpt>
      <trkpt lat="45.86804" lon="6.78029">
        <ele>1588</ele>
        <time>2026-08-14T04:17:28.376Z</time>
      </trkpt>
      <trkpt lat="45.86804" lon="6.7803">
        <ele>1589</ele>
        <time>2026-08-14T04:17:29.376Z</time>
      </trkpt>
      <trkpt lat="45.86803" lon="6.78032">
        <ele>1589</ele>
        <time>2026-08-14T04:17:30.376Z</time>
      </trkpt>
      <trkpt lat="45.86803" lon="6.78034">
        <ele>1589</ele>
        <time>2026-08-14T04:17:31.376Z</time>
      </trkpt>
      <trkpt lat="45.86802" lon="6.78035">
        <ele>1589</ele>
        <time>2026-08-14T04:17:32.376Z</time>
      </trkpt>
      <trkpt lat="45.86802" lon="6.78036">
        <ele>1589</ele>
        <time>2026-08-14T04:17:33.376Z</time>
      </trkpt>
      <trkpt lat="45.86801" lon="6.78037">
        <ele>1589</ele>
        <time>2026-08-14T04:17:34.376Z</time>
      </trkpt>
      <trkpt lat="45.868" lon="6.78038">
        <ele>1589</ele>
        <time>2026-08-14T04:17:35.376Z</time>
      </trkpt>
      <trkpt lat="45.868" lon="6.7804">
        <ele>1589</ele>
        <time>2026-08-14T04:17:36.376Z</time>
      </trkpt>
      <trkpt lat="45.868" lon="6.78041">
        <ele>1589</ele>
        <time>2026-08-14T04:17:37.376Z</time>
      </trkpt>
      <trkpt lat="45.868" lon="6.78042">
        <ele>1590</ele>
        <time>2026-08-14T04:17:38.376Z</time>
      </trkpt>
      <trkpt lat="45.868" lon="6.78043">
        <ele>1590</ele>
        <time>2026-08-14T04:17:39.376Z</time>
      </trkpt>
      <trkpt lat="45.86799" lon="6.78044">
        <ele>1590</ele>
        <time>2026-08-14T04:17:40.376Z</time>
      </trkpt>
      <trkpt lat="45.86799" lon="6.78045">
        <ele>1590</ele>
        <time>2026-08-14T04:17:41.376Z</time>
      </trkpt>
      <trkpt lat="45.86798" lon="6.78046">
        <ele>1591</ele>
        <time>2026-08-14T04:17:42.376Z</time>
      </trkpt>
      <trkpt lat="45.86797" lon="6.78048">
        <ele>1591</ele>
        <time>2026-08-14T04:17:43.376Z</time>
      </trkpt>
      <trkpt lat="45.86797" lon="6.78049">
        <ele>1592</ele>
        <time>2026-08-14T04:17:44.376Z</time>
      </trkpt>
      <trkpt lat="45.86797" lon="6.78051">
        <ele>1592</ele>
        <time>2026-08-14T04:17:45.376Z</time>
      </trkpt>
      <trkpt lat="45.86797" lon="6.78053">
        <ele>1593</ele>
        <time>2026-08-14T04:17:46.376Z</time>
      </trkpt>
      <trkpt lat="45.86796" lon="6.78054">
        <ele>1593</ele>
        <time>2026-08-14T04:17:47.376Z</time>
      </trkpt>
      <trkpt lat="45.86795" lon="6.78055">
        <ele>1594</ele>
        <time>2026-08-14T04:17:48.376Z</time>
      </trkpt>
      <trkpt lat="45.86795" lon="6.78056">
        <ele>1595</ele>
        <time>2026-08-14T04:17:49.376Z</time>
      </trkpt>
      <trkpt lat="45.86795" lon="6.78057">
        <ele>1595</ele>
        <time>2026-08-14T04:17:50.376Z</time>
      </trkpt>
      <trkpt lat="45.86794" lon="6.78058">
        <ele>1595</ele>
        <time>2026-08-14T04:17:51.376Z</time>
      </trkpt>
      <trkpt lat="45.86793" lon="6.7806">
        <ele>1596</ele>
        <time>2026-08-14T04:17:52.376Z</time>
      </trkpt>
      <trkpt lat="45.86793" lon="6.78061">
        <ele>1596</ele>
        <time>2026-08-14T04:17:53.376Z</time>
      </trkpt>
      <trkpt lat="45.86791" lon="6.78062">
        <ele>1596</ele>
        <time>2026-08-14T04:17:54.376Z</time>
      </trkpt>
      <trkpt lat="45.86791" lon="6.78063">
        <ele>1596</ele>
        <time>2026-08-14T04:17:55.376Z</time>
      </trkpt>
      <trkpt lat="45.86791" lon="6.78064">
        <ele>1597</ele>
        <time>2026-08-14T04:17:56.376Z</time>
      </trkpt>
      <trkpt lat="45.86791" lon="6.78065">
        <ele>1598</ele>
        <time>2026-08-14T04:17:57.376Z</time>
      </trkpt>
      <trkpt lat="45.86791" lon="6.78066">
        <ele>1598</ele>
        <time>2026-08-14T04:17:58.376Z</time>
      </trkpt>
      <trkpt lat="45.8679" lon="6.78067">
        <ele>1599</ele>
        <time>2026-08-14T04:17:59.376Z</time>
      </trkpt>
      <trkpt lat="45.8679" lon="6.78068">
        <ele>1599</ele>
        <time>2026-08-14T04:18:00.376Z</time>
      </trkpt>
      <trkpt lat="45.86789" lon="6.78068">
        <ele>1600</ele>
        <time>2026-08-14T04:18:01.376Z</time>
      </trkpt>
      <trkpt lat="45.86789" lon="6.78068">
        <ele>1600</ele>
        <time>2026-08-14T04:18:02.376Z</time>
      </trkpt>
      <trkpt lat="45.86789" lon="6.78069">
        <ele>1601</ele>
        <time>2026-08-14T04:18:03.376Z</time>
      </trkpt>
      <trkpt lat="45.86788" lon="6.7807">
        <ele>1601</ele>
        <time>2026-08-14T04:18:04.376Z</time>
      </trkpt>
      <trkpt lat="45.86788" lon="6.78072">
        <ele>1601</ele>
        <time>2026-08-14T04:18:05.376Z</time>
      </trkpt>
      <trkpt lat="45.86788" lon="6.78073">
        <ele>1602</ele>
        <time>2026-08-14T04:18:06.376Z</time>
      </trkpt>
      <trkpt lat="45.86787" lon="6.78074">
        <ele>1602</ele>
        <time>2026-08-14T04:18:07.376Z</time>
      </trkpt>
      <trkpt lat="45.86787" lon="6.78075">
        <ele>1602</ele>
        <time>2026-08-14T04:18:08.376Z</time>
      </trkpt>
      <trkpt lat="45.86787" lon="6.78077">
        <ele>1602</ele>
        <time>2026-08-14T04:18:09.376Z</time>
      </trkpt>
      <trkpt lat="45.86788" lon="6.78078">
        <ele>1603</ele>
        <time>2026-08-14T04:18:10.376Z</time>
      </trkpt>
      <trkpt lat="45.86788" lon="6.7808">
        <ele>1604</ele>
        <time>2026-08-14T04:18:11.376Z</time>
      </trkpt>
      <trkpt lat="45.86788" lon="6.78082">
        <ele>1605</ele>
        <time>2026-08-14T04:18:12.376Z</time>
      </trkpt>
      <trkpt lat="45.86788" lon="6.78084">
        <ele>1605</ele>
        <time>2026-08-14T04:18:13.376Z</time>
      </trkpt>
      <trkpt lat="45.86787" lon="6.78085">
        <ele>1606</ele>
        <time>2026-08-14T04:18:14.376Z</time>
      </trkpt>
      <trkpt lat="45.86787" lon="6.78085">
        <ele>1607</ele>
        <time>2026-08-14T04:18:15.376Z</time>
      </trkpt>
      <trkpt lat="45.86786" lon="6.78086">
        <ele>1607</ele>
        <time>2026-08-14T04:18:16.376Z</time>
      </trkpt>
      <trkpt lat="45.86786" lon="6.78087">
        <ele>1607</ele>
        <time>2026-08-14T04:18:17.376Z</time>
      </trkpt>
      <trkpt lat="45.86786" lon="6.78088">
        <ele>1607</ele>
        <time>2026-08-14T04:18:18.376Z</time>
      </trkpt>
      <trkpt lat="45.86785" lon="6.78089">
        <ele>1607</ele>
        <time>2026-08-14T04:18:19.376Z</time>
      </trkpt>
      <trkpt lat="45.86784" lon="6.7809">
        <ele>1607</ele>
        <time>2026-08-14T04:18:20.376Z</time>
      </trkpt>
      <trkpt lat="45.86783" lon="6.7809">
        <ele>1607</ele>
        <time>2026-08-14T04:18:21.376Z</time>
      </trkpt>
      <trkpt lat="45.86781" lon="6.78091">
        <ele>1607</ele>
        <time>2026-08-14T04:18:22.376Z</time>
      </trkpt>
      <trkpt lat="45.8678" lon="6.78092">
        <ele>1607</ele>
        <time>2026-08-14T04:18:23.376Z</time>
      </trkpt>
      <trkpt lat="45.86778" lon="6.78093">
        <ele>1607</ele>
        <time>2026-08-14T04:18:24.376Z</time>
      </trkpt>
      <trkpt lat="45.86778" lon="6.78094">
        <ele>1607</ele>
        <time>2026-08-14T04:18:25.376Z</time>
      </trkpt>
      <trkpt lat="45.86777" lon="6.78095">
        <ele>1607</ele>
        <time>2026-08-14T04:18:26.376Z</time>
      </trkpt>
      <trkpt lat="45.86776" lon="6.78096">
        <ele>1607</ele>
        <time>2026-08-14T04:18:27.376Z</time>
      </trkpt>
      <trkpt lat="45.86775" lon="6.78098">
        <ele>1607</ele>
        <time>2026-08-14T04:18:28.376Z</time>
      </trkpt>
      <trkpt lat="45.86775" lon="6.781">
        <ele>1608</ele>
        <time>2026-08-14T04:18:29.376Z</time>
      </trkpt>
      <trkpt lat="45.86775" lon="6.78101">
        <ele>1608</ele>
        <time>2026-08-14T04:18:30.376Z</time>
      </trkpt>
      <trkpt lat="45.86774" lon="6.78102">
        <ele>1608</ele>
        <time>2026-08-14T04:18:31.376Z</time>
      </trkpt>
      <trkpt lat="45.86773" lon="6.78103">
        <ele>1607</ele>
        <time>2026-08-14T04:18:32.376Z</time>
      </trkpt>
      <trkpt lat="45.86772" lon="6.78104">
        <ele>1607</ele>
        <time>2026-08-14T04:18:33.376Z</time>
      </trkpt>
      <trkpt lat="45.86771" lon="6.78104">
        <ele>1607</ele>
        <time>2026-08-14T04:18:34.376Z</time>
      </trkpt>
      <trkpt lat="45.8677" lon="6.78106">
        <ele>1606</ele>
        <time>2026-08-14T04:18:35.376Z</time>
      </trkpt>
      <trkpt lat="45.8677" lon="6.78107">
        <ele>1606</ele>
        <time>2026-08-14T04:18:36.376Z</time>
      </trkpt>
      <trkpt lat="45.86769" lon="6.78109">
        <ele>1605</ele>
        <time>2026-08-14T04:18:37.376Z</time>
      </trkpt>
      <trkpt lat="45.86769" lon="6.7811">
        <ele>1605</ele>
        <time>2026-08-14T04:18:38.376Z</time>
      </trkpt>
      <trkpt lat="45.86769" lon="6.78111">
        <ele>1605</ele>
        <time>2026-08-14T04:18:39.376Z</time>
      </trkpt>
      <trkpt lat="45.86769" lon="6.78113">
        <ele>1605</ele>
        <time>2026-08-14T04:18:40.376Z</time>
      </trkpt>
      <trkpt lat="45.86768" lon="6.78114">
        <ele>1605</ele>
        <time>2026-08-14T04:18:41.376Z</time>
      </trkpt>
      <trkpt lat="45.86768" lon="6.78115">
        <ele>1605</ele>
        <time>2026-08-14T04:18:42.376Z</time>
      </trkpt>
      <trkpt lat="45.86768" lon="6.78117">
        <ele>1606</ele>
        <time>2026-08-14T04:18:43.376Z</time>
      </trkpt>
      <trkpt lat="45.86768" lon="6.78118">
        <ele>1606</ele>
        <time>2026-08-14T04:18:44.376Z</time>
      </trkpt>
      <trkpt lat="45.86767" lon="6.78119">
        <ele>1607</ele>
        <time>2026-08-14T04:18:45.376Z</time>
      </trkpt>
      <trkpt lat="45.86767" lon="6.7812">
        <ele>1607</ele>
        <time>2026-08-14T04:18:46.376Z</time>
      </trkpt>
      <trkpt lat="45.86767" lon="6.78121">
        <ele>1608</ele>
        <time>2026-08-14T04:18:47.376Z</time>
      </trkpt>
      <trkpt lat="45.86767" lon="6.78123">
        <ele>1608</ele>
        <time>2026-08-14T04:18:48.376Z</time>
      </trkpt>
      <trkpt lat="45.86766" lon="6.78124">
        <ele>1609</ele>
        <time>2026-08-14T04:18:49.376Z</time>
      </trkpt>
      <trkpt lat="45.86766" lon="6.78125">
        <ele>1610</ele>
        <time>2026-08-14T04:18:50.376Z</time>
      </trkpt>
      <trkpt lat="45.86766" lon="6.78126">
        <ele>1610</ele>
        <time>2026-08-14T04:18:51.376Z</time>
      </trkpt>
      <trkpt lat="45.86766" lon="6.78128">
        <ele>1611</ele>
        <time>2026-08-14T04:18:52.376Z</time>
      </trkpt>
      <trkpt lat="45.86766" lon="6.78129">
        <ele>1611</ele>
        <time>2026-08-14T04:18:53.376Z</time>
      </trkpt>
      <trkpt lat="45.86765" lon="6.7813">
        <ele>1612</ele>
        <time>2026-08-14T04:18:54.376Z</time>
      </trkpt>
      <trkpt lat="45.86765" lon="6.78131">
        <ele>1612</ele>
        <time>2026-08-14T04:18:55.376Z</time>
      </trkpt>
      <trkpt lat="45.86765" lon="6.78132">
        <ele>1612</ele>
        <time>2026-08-14T04:18:56.376Z</time>
      </trkpt>
      <trkpt lat="45.86765" lon="6.78133">
        <ele>1612</ele>
        <time>2026-08-14T04:18:57.376Z</time>
      </trkpt>
      <trkpt lat="45.86765" lon="6.78134">
        <ele>1611</ele>
        <time>2026-08-14T04:18:58.376Z</time>
      </trkpt>
      <trkpt lat="45.86766" lon="6.78135">
        <ele>1611</ele>
        <time>2026-08-14T04:18:59.376Z</time>
      </trkpt>
      <trkpt lat="45.86766" lon="6.78136">
        <ele>1610</ele>
        <time>2026-08-14T04:19:00.376Z</time>
      </trkpt>
      <trkpt lat="45.86766" lon="6.78138">
        <ele>1610</ele>
        <time>2026-08-14T04:19:01.376Z</time>
      </trkpt>
      <trkpt lat="45.86767" lon="6.78139">
        <ele>1609</ele>
        <time>2026-08-14T04:19:02.376Z</time>
      </trkpt>
      <trkpt lat="45.86767" lon="6.78139">
        <ele>1609</ele>
        <time>2026-08-14T04:19:03.376Z</time>
      </trkpt>
      <trkpt lat="45.86767" lon="6.7814">
        <ele>1608</ele>
        <time>2026-08-14T04:19:04.376Z</time>
      </trkpt>
      <trkpt lat="45.86767" lon="6.78141">
        <ele>1607</ele>
        <time>2026-08-14T04:19:05.376Z</time>
      </trkpt>
      <trkpt lat="45.86767" lon="6.78142">
        <ele>1607</ele>
        <time>2026-08-14T04:19:06.376Z</time>
      </trkpt>
      <trkpt lat="45.86768" lon="6.78143">
        <ele>1607</ele>
        <time>2026-08-14T04:19:07.376Z</time>
      </trkpt>
      <trkpt lat="45.86768" lon="6.78144">
        <ele>1607</ele>
        <time>2026-08-14T04:19:08.376Z</time>
      </trkpt>
      <trkpt lat="45.86768" lon="6.78146">
        <ele>1607</ele>
        <time>2026-08-14T04:19:09.376Z</time>
      </trkpt>
      <trkpt lat="45.86768" lon="6.78147">
        <ele>1607</ele>
        <time>2026-08-14T04:19:10.376Z</time>
      </trkpt>
      <trkpt lat="45.86768" lon="6.78148">
        <ele>1607</ele>
        <time>2026-08-14T04:19:11.376Z</time>
      </trkpt>
      <trkpt lat="45.86768" lon="6.78149">
        <ele>1607</ele>
        <time>2026-08-14T04:19:12.376Z</time>
      </trkpt>
      <trkpt lat="45.86769" lon="6.7815">
        <ele>1608</ele>
        <time>2026-08-14T04:19:13.376Z</time>
      </trkpt>
      <trkpt lat="45.86769" lon="6.78149">
        <ele>1608</ele>
        <time>2026-08-14T04:19:14.376Z</time>
      </trkpt>
      <trkpt lat="45.86769" lon="6.7815">
        <ele>1608</ele>
        <time>2026-08-14T04:19:15.376Z</time>
      </trkpt>
      <trkpt lat="45.86769" lon="6.78151">
        <ele>1608</ele>
        <time>2026-08-14T04:19:16.376Z</time>
      </trkpt>
      <trkpt lat="45.86769" lon="6.78152">
        <ele>1608</ele>
        <time>2026-08-14T04:19:17.376Z</time>
      </trkpt>
      <trkpt lat="45.8677" lon="6.78152">
        <ele>1608</ele>
        <time>2026-08-14T04:19:18.376Z</time>
      </trkpt>
      <trkpt lat="45.8677" lon="6.78153">
        <ele>1609</ele>
        <time>2026-08-14T04:19:19.376Z</time>
      </trkpt>
      <trkpt lat="45.8677" lon="6.78154">
        <ele>1609</ele>
        <time>2026-08-14T04:19:20.376Z</time>
      </trkpt>
      <trkpt lat="45.8677" lon="6.78154">
        <ele>1609</ele>
        <time>2026-08-14T04:19:21.376Z</time>
      </trkpt>
      <trkpt lat="45.8677" lon="6.78154">
        <ele>1610</ele>
        <time>2026-08-14T04:19:22.376Z</time>
      </trkpt>
      <trkpt lat="45.86769" lon="6.78155">
        <ele>1610</ele>
        <time>2026-08-14T04:19:23.376Z</time>
      </trkpt>
      <trkpt lat="45.86769" lon="6.78155">
        <ele>1610</ele>
        <time>2026-08-14T04:19:24.376Z</time>
      </trkpt>
      <trkpt lat="45.8677" lon="6.78155">
        <ele>1610</ele>
        <time>2026-08-14T04:19:25.376Z</time>
      </trkpt>
      <trkpt lat="45.8677" lon="6.78155">
        <ele>1611</ele>
        <time>2026-08-14T04:19:26.376Z</time>
      </trkpt>
      <trkpt lat="45.8677" lon="6.78155">
        <ele>1611</ele>
        <time>2026-08-14T04:19:27.376Z</time>
      </trkpt>
      <trkpt lat="45.8677" lon="6.78155">
        <ele>1611</ele>
        <time>2026-08-14T04:19:28.376Z</time>
      </trkpt>
      <trkpt lat="45.86771" lon="6.78155">
        <ele>1611</ele>
        <time>2026-08-14T04:19:29.376Z</time>
      </trkpt>
      <trkpt lat="45.86772" lon="6.78155">
        <ele>1611</ele>
        <time>2026-08-14T04:19:30.376Z</time>
      </trkpt>
      <trkpt lat="45.86772" lon="6.78156">
        <ele>1610</ele>
        <time>2026-08-14T04:19:31.376Z</time>
      </trkpt>
      <trkpt lat="45.86772" lon="6.78156">
        <ele>1610</ele>
        <time>2026-08-14T04:19:32.376Z</time>
      </trkpt>
      <trkpt lat="45.86773" lon="6.78157">
        <ele>1610</ele>
        <time>2026-08-14T04:19:33.376Z</time>
      </trkpt>
      <trkpt lat="45.86772" lon="6.78158">
        <ele>1609</ele>
        <time>2026-08-14T04:19:34.376Z</time>
      </trkpt>
      <trkpt lat="45.86773" lon="6.78159">
        <ele>1609</ele>
        <time>2026-08-14T04:19:35.376Z</time>
      </trkpt>
      <trkpt lat="45.86773" lon="6.78159">
        <ele>1608</ele>
        <time>2026-08-14T04:19:36.376Z</time>
      </trkpt>
      <trkpt lat="45.86773" lon="6.7816">
        <ele>1607</ele>
        <time>2026-08-14T04:19:37.376Z</time>
      </trkpt>
      <trkpt lat="45.86773" lon="6.78161">
        <ele>1606</ele>
        <time>2026-08-14T04:19:38.376Z</time>
      </trkpt>
      <trkpt lat="45.86773" lon="6.78162">
        <ele>1606</ele>
        <time>2026-08-14T04:19:39.376Z</time>
      </trkpt>
      <trkpt lat="45.86773" lon="6.78163">
        <ele>1606</ele>
        <time>2026-08-14T04:19:40.376Z</time>
      </trkpt>
      <trkpt lat="45.86773" lon="6.78164">
        <ele>1605</ele>
        <time>2026-08-14T04:19:41.376Z</time>
      </trkpt>
      <trkpt lat="45.86773" lon="6.78164">
        <ele>1606</ele>
        <time>2026-08-14T04:19:42.376Z</time>
      </trkpt>
      <trkpt lat="45.86773" lon="6.78165">
        <ele>1606</ele>
        <time>2026-08-14T04:19:43.376Z</time>
      </trkpt>
      <trkpt lat="45.86772" lon="6.78166">
        <ele>1607</ele>
        <time>2026-08-14T04:19:44.376Z</time>
      </trkpt>
      <trkpt lat="45.86772" lon="6.78167">
        <ele>1607</ele>
        <time>2026-08-14T04:19:45.376Z</time>
      </trkpt>
      <trkpt lat="45.86772" lon="6.78167">
        <ele>1608</ele>
        <time>2026-08-14T04:19:46.376Z</time>
      </trkpt>
      <trkpt lat="45.86772" lon="6.78168">
        <ele>1608</ele>
        <time>2026-08-14T04:19:47.376Z</time>
      </trkpt>
      <trkpt lat="45.86772" lon="6.78169">
        <ele>1609</ele>
        <time>2026-08-14T04:19:48.376Z</time>
      </trkpt>
      <trkpt lat="45.86773" lon="6.78169">
        <ele>1609</ele>
        <time>2026-08-14T04:19:49.376Z</time>
      </trkpt>
      <trkpt lat="45.86773" lon="6.7817">
        <ele>1609</ele>
        <time>2026-08-14T04:19:50.376Z</time>
      </trkpt>
      <trkpt lat="45.86774" lon="6.78171">
        <ele>1608</ele>
        <time>2026-08-14T04:19:51.376Z</time>
      </trkpt>
      <trkpt lat="45.86774" lon="6.78172">
        <ele>1609</ele>
        <time>2026-08-14T04:19:52.376Z</time>
      </trkpt>
      <trkpt lat="45.86774" lon="6.78173">
        <ele>1609</ele>
        <time>2026-08-14T04:19:53.376Z</time>
      </trkpt>
      <trkpt lat="45.86774" lon="6.78175">
        <ele>1609</ele>
        <time>2026-08-14T04:19:54.376Z</time>
      </trkpt>
      <trkpt lat="45.86773" lon="6.78176">
        <ele>1610</ele>
        <time>2026-08-14T04:19:55.376Z</time>
      </trkpt>
      <trkpt lat="45.86773" lon="6.78177">
        <ele>1610</ele>
        <time>2026-08-14T04:19:56.376Z</time>
      </trkpt>
      <trkpt lat="45.86773" lon="6.78178">
        <ele>1611</ele>
        <time>2026-08-14T04:19:57.376Z</time>
      </trkpt>
      <trkpt lat="45.86773" lon="6.78179">
        <ele>1612</ele>
        <time>2026-08-14T04:19:58.376Z</time>
      </trkpt>
      <trkpt lat="45.86773" lon="6.7818">
        <ele>1612</ele>
        <time>2026-08-14T04:19:59.376Z</time>
      </trkpt>
      <trkpt lat="45.86773" lon="6.7818">
        <ele>1613</ele>
        <time>2026-08-14T04:20:00.376Z</time>
      </trkpt>
      <trkpt lat="45.86773" lon="6.78181">
        <ele>1613</ele>
        <time>2026-08-14T04:20:01.376Z</time>
      </trkpt>
      <trkpt lat="45.86774" lon="6.78181">
        <ele>1613</ele>
        <time>2026-08-14T04:20:02.376Z</time>
      </trkpt>
      <trkpt lat="45.86774" lon="6.78182">
        <ele>1613</ele>
        <time>2026-08-14T04:20:03.376Z</time>
      </trkpt>
      <trkpt lat="45.86774" lon="6.78182">
        <ele>1614</ele>
        <time>2026-08-14T04:20:04.376Z</time>
      </trkpt>
      <trkpt lat="45.86774" lon="6.78183">
        <ele>1614</ele>
        <time>2026-08-14T04:20:05.376Z</time>
      </trkpt>
      <trkpt lat="45.86775" lon="6.78183">
        <ele>1615</ele>
        <time>2026-08-14T04:20:06.376Z</time>
      </trkpt>
      <trkpt lat="45.86775" lon="6.78183">
        <ele>1615</ele>
        <time>2026-08-14T04:20:07.376Z</time>
      </trkpt>
      <trkpt lat="45.86776" lon="6.78185">
        <ele>1615</ele>
        <time>2026-08-14T04:20:08.376Z</time>
      </trkpt>
      <trkpt lat="45.86776" lon="6.78186">
        <ele>1616</ele>
        <time>2026-08-14T04:20:09.376Z</time>
      </trkpt>
      <trkpt lat="45.86776" lon="6.78187">
        <ele>1616</ele>
        <time>2026-08-14T04:20:10.376Z</time>
      </trkpt>
      <trkpt lat="45.86778" lon="6.78188">
        <ele>1616</ele>
        <time>2026-08-14T04:20:11.376Z</time>
      </trkpt>
      <trkpt lat="45.86777" lon="6.78188">
        <ele>1616</ele>
        <time>2026-08-14T04:20:12.376Z</time>
      </trkpt>
      <trkpt lat="45.86777" lon="6.78189">
        <ele>1616</ele>
        <time>2026-08-14T04:20:13.376Z</time>
      </trkpt>
      <trkpt lat="45.86777" lon="6.78189">
        <ele>1616</ele>
        <time>2026-08-14T04:20:14.376Z</time>
      </trkpt>
      <trkpt lat="45.86778" lon="6.7819">
        <ele>1616</ele>
        <time>2026-08-14T04:20:15.376Z</time>
      </trkpt>
      <trkpt lat="45.86778" lon="6.7819">
        <ele>1615</ele>
        <time>2026-08-14T04:20:16.376Z</time>
      </trkpt>
      <trkpt lat="45.86779" lon="6.7819">
        <ele>1615</ele>
        <time>2026-08-14T04:20:17.376Z</time>
      </trkpt>
      <trkpt lat="45.86779" lon="6.7819">
        <ele>1615</ele>
        <time>2026-08-14T04:20:18.376Z</time>
      </trkpt>
      <trkpt lat="45.8678" lon="6.7819">
        <ele>1616</ele>
        <time>2026-08-14T04:20:19.376Z</time>
      </trkpt>
      <trkpt lat="45.8678" lon="6.7819">
        <ele>1616</ele>
        <time>2026-08-14T04:20:20.376Z</time>
      </trkpt>
      <trkpt lat="45.8678" lon="6.7819">
        <ele>1617</ele>
        <time>2026-08-14T04:20:21.376Z</time>
      </trkpt>
      <trkpt lat="45.86781" lon="6.7819">
        <ele>1617</ele>
        <time>2026-08-14T04:20:22.376Z</time>
      </trkpt>
      <trkpt lat="45.86781" lon="6.7819">
        <ele>1617</ele>
        <time>2026-08-14T04:20:23.376Z</time>
      </trkpt>
      <trkpt lat="45.8678" lon="6.7819">
        <ele>1617</ele>
        <time>2026-08-14T04:20:24.376Z</time>
      </trkpt>
      <trkpt lat="45.8678" lon="6.7819">
        <ele>1618</ele>
        <time>2026-08-14T04:20:25.376Z</time>
      </trkpt>
      <trkpt lat="45.8678" lon="6.7819">
        <ele>1618</ele>
        <time>2026-08-14T04:20:26.376Z</time>
      </trkpt>
      <trkpt lat="45.8678" lon="6.7819">
        <ele>1618</ele>
        <time>2026-08-14T04:20:27.376Z</time>
      </trkpt>
      <trkpt lat="45.8678" lon="6.7819">
        <ele>1619</ele>
        <time>2026-08-14T04:20:28.376Z</time>
      </trkpt>
      <trkpt lat="45.8678" lon="6.7819">
        <ele>1619</ele>
        <time>2026-08-14T04:20:29.376Z</time>
      </trkpt>
      <trkpt lat="45.8678" lon="6.7819">
        <ele>1620</ele>
        <time>2026-08-14T04:20:30.376Z</time>
      </trkpt>
      <trkpt lat="45.8678" lon="6.7819">
        <ele>1620</ele>
        <time>2026-08-14T04:20:31.376Z</time>
      </trkpt>
      <trkpt lat="45.8678" lon="6.7819">
        <ele>1620</ele>
        <time>2026-08-14T04:20:32.376Z</time>
      </trkpt>
      <trkpt lat="45.8678" lon="6.7819">
        <ele>1620</ele>
        <time>2026-08-14T04:20:33.376Z</time>
      </trkpt>
      <trkpt lat="45.8678" lon="6.7819">
        <ele>1621</ele>
        <time>2026-08-14T04:20:34.376Z</time>
      </trkpt>
      <trkpt lat="45.8678" lon="6.7819">
        <ele>1621</ele>
        <time>2026-08-14T04:20:35.376Z</time>
      </trkpt>
      <trkpt lat="45.8678" lon="6.7819">
        <ele>1621</ele>
        <time>2026-08-14T04:20:36.376Z</time>
      </trkpt>
      <trkpt lat="45.8678" lon="6.7819">
        <ele>1621</ele>
        <time>2026-08-14T04:20:37.376Z</time>
      </trkpt>
      <trkpt lat="45.8678" lon="6.7819">
        <ele>1621</ele>
        <time>2026-08-14T04:20:38.376Z</time>
      </trkpt>
      <trkpt lat="45.8678" lon="6.7819">
        <ele>1621</ele>
        <time>2026-08-14T04:20:39.376Z</time>
      </trkpt>
      <trkpt lat="45.8678" lon="6.7819">
        <ele>1621</ele>
        <time>2026-08-14T04:20:40.376Z</time>
      </trkpt>
      <trkpt lat="45.8678" lon="6.7819">
        <ele>1621</ele>
        <time>2026-08-14T04:20:41.376Z</time>
      </trkpt>
      <trkpt lat="45.8678" lon="6.7819">
        <ele>1621</ele>
        <time>2026-08-14T04:20:42.376Z</time>
      </trkpt>
      <trkpt lat="45.8678" lon="6.7819">
        <ele>1621</ele>
        <time>2026-08-14T04:20:43.376Z</time>
      </trkpt>
      <trkpt lat="45.8678" lon="6.7819">
        <ele>1621</ele>
        <time>2026-08-14T04:20:44.376Z</time>
      </trkpt>
      <trkpt lat="45.8678" lon="6.7819">
        <ele>1621</ele>
        <time>2026-08-14T04:20:45.376Z</time>
      </trkpt>
      <trkpt lat="45.8678" lon="6.7819">
        <ele>1621</ele>
        <time>2026-08-14T04:20:46.376Z</time>
      </trkpt>
      <trkpt lat="45.8678" lon="6.7819">
        <ele>1621</ele>
        <time>2026-08-14T04:20:47.376Z</time>
      </trkpt>
      <trkpt lat="45.8678" lon="6.7819">
        <ele>1621</ele>
        <time>2026-08-14T04:20:48.376Z</time>
      </trkpt>
      <trkpt lat="45.86781" lon="6.78191">
        <ele>1621</ele>
        <time>2026-08-14T04:20:49.376Z</time>
      </trkpt>
      <trkpt lat="45.8678" lon="6.78194">
        <ele>1621</ele>
        <time>2026-08-14T04:20:50.376Z</time>
      </trkpt>
      <trkpt lat="45.8678" lon="6.78196">
        <ele>1621</ele>
        <time>2026-08-14T04:20:51.376Z</time>
      </trkpt>
      <trkpt lat="45.8678" lon="6.78198">
        <ele>1621</ele>
        <time>2026-08-14T04:20:52.376Z</time>
      </trkpt>
      <trkpt lat="45.86779" lon="6.782">
        <ele>1621</ele>
        <time>2026-08-14T04:20:53.376Z</time>
      </trkpt>
      <trkpt lat="45.86779" lon="6.78203">
        <ele>1621</ele>
        <time>2026-08-14T04:20:54.376Z</time>
      </trkpt>
      <trkpt lat="45.86779" lon="6.78205">
        <ele>1622</ele>
        <time>2026-08-14T04:20:55.376Z</time>
      </trkpt>
      <trkpt lat="45.86779" lon="6.78207">
        <ele>1622</ele>
        <time>2026-08-14T04:20:56.376Z</time>
      </trkpt>
      <trkpt lat="45.86778" lon="6.78209">
        <ele>1622</ele>
        <time>2026-08-14T04:20:57.376Z</time>
      </trkpt>
      <trkpt lat="45.86777" lon="6.78211">
        <ele>1623</ele>
        <time>2026-08-14T04:20:58.376Z</time>
      </trkpt>
      <trkpt lat="45.86776" lon="6.78212">
        <ele>1623</ele>
        <time>2026-08-14T04:20:59.376Z</time>
      </trkpt>
      <trkpt lat="45.86775" lon="6.78214">
        <ele>1624</ele>
        <time>2026-08-14T04:21:00.376Z</time>
      </trkpt>
      <trkpt lat="45.86775" lon="6.78215">
        <ele>1624</ele>
        <time>2026-08-14T04:21:01.376Z</time>
      </trkpt>
      <trkpt lat="45.86774" lon="6.78216">
        <ele>1624</ele>
        <time>2026-08-14T04:21:02.376Z</time>
      </trkpt>
      <trkpt lat="45.86773" lon="6.78217">
        <ele>1624</ele>
        <time>2026-08-14T04:21:03.376Z</time>
      </trkpt>
      <trkpt lat="45.86772" lon="6.78219">
        <ele>1624</ele>
        <time>2026-08-14T04:21:04.376Z</time>
      </trkpt>
      <trkpt lat="45.86772" lon="6.78221">
        <ele>1624</ele>
        <time>2026-08-14T04:21:05.376Z</time>
      </trkpt>
      <trkpt lat="45.86771" lon="6.78222">
        <ele>1625</ele>
        <time>2026-08-14T04:21:06.376Z</time>
      </trkpt>
      <trkpt lat="45.8677" lon="6.78223">
        <ele>1626</ele>
        <time>2026-08-14T04:21:07.376Z</time>
      </trkpt>
      <trkpt lat="45.86769" lon="6.78224">
        <ele>1627</ele>
        <time>2026-08-14T04:21:08.376Z</time>
      </trkpt>
      <trkpt lat="45.86768" lon="6.78225">
        <ele>1627</ele>
        <time>2026-08-14T04:21:09.376Z</time>
      </trkpt>
      <trkpt lat="45.86768" lon="6.78225">
        <ele>1628</ele>
        <time>2026-08-14T04:21:10.376Z</time>
      </trkpt>
      <trkpt lat="45.86767" lon="6.78226">
        <ele>1628</ele>
        <time>2026-08-14T04:21:11.376Z</time>
      </trkpt>
      <trkpt lat="45.86766" lon="6.78228">
        <ele>1629</ele>
        <time>2026-08-14T04:21:12.376Z</time>
      </trkpt>
      <trkpt lat="45.86765" lon="6.78229">
        <ele>1629</ele>
        <time>2026-08-14T04:21:13.376Z</time>
      </trkpt>
      <trkpt lat="45.86765" lon="6.7823">
        <ele>1629</ele>
        <time>2026-08-14T04:21:14.376Z</time>
      </trkpt>
      <trkpt lat="45.86764" lon="6.78231">
        <ele>1630</ele>
        <time>2026-08-14T04:21:15.376Z</time>
      </trkpt>
      <trkpt lat="45.86763" lon="6.78232">
        <ele>1630</ele>
        <time>2026-08-14T04:21:16.376Z</time>
      </trkpt>
      <trkpt lat="45.86763" lon="6.78234">
        <ele>1631</ele>
        <time>2026-08-14T04:21:17.376Z</time>
      </trkpt>
      <trkpt lat="45.86762" lon="6.78235">
        <ele>1631</ele>
        <time>2026-08-14T04:21:18.376Z</time>
      </trkpt>
      <trkpt lat="45.86761" lon="6.78236">
        <ele>1631</ele>
        <time>2026-08-14T04:21:19.376Z</time>
      </trkpt>
      <trkpt lat="45.8676" lon="6.78238">
        <ele>1631</ele>
        <time>2026-08-14T04:21:20.376Z</time>
      </trkpt>
      <trkpt lat="45.86759" lon="6.78239">
        <ele>1632</ele>
        <time>2026-08-14T04:21:21.376Z</time>
      </trkpt>
      <trkpt lat="45.86758" lon="6.78241">
        <ele>1632</ele>
        <time>2026-08-14T04:21:22.376Z</time>
      </trkpt>
      <trkpt lat="45.86757" lon="6.78241">
        <ele>1633</ele>
        <time>2026-08-14T04:21:23.376Z</time>
      </trkpt>
      <trkpt lat="45.86756" lon="6.78242">
        <ele>1633</ele>
        <time>2026-08-14T04:21:24.376Z</time>
      </trkpt>
      <trkpt lat="45.86755" lon="6.78244">
        <ele>1634</ele>
        <time>2026-08-14T04:21:25.376Z</time>
      </trkpt>
      <trkpt lat="45.86754" lon="6.78245">
        <ele>1634</ele>
        <time>2026-08-14T04:21:26.376Z</time>
      </trkpt>
      <trkpt lat="45.86753" lon="6.78246">
        <ele>1634</ele>
        <time>2026-08-14T04:21:27.376Z</time>
      </trkpt>
      <trkpt lat="45.86752" lon="6.78247">
        <ele>1635</ele>
        <time>2026-08-14T04:21:28.376Z</time>
      </trkpt>
      <trkpt lat="45.86752" lon="6.78248">
        <ele>1635</ele>
        <time>2026-08-14T04:21:29.376Z</time>
      </trkpt>
      <trkpt lat="45.86751" lon="6.7825">
        <ele>1635</ele>
        <time>2026-08-14T04:21:30.376Z</time>
      </trkpt>
      <trkpt lat="45.8675" lon="6.78251">
        <ele>1636</ele>
        <time>2026-08-14T04:21:31.376Z</time>
      </trkpt>
      <trkpt lat="45.86749" lon="6.78252">
        <ele>1636</ele>
        <time>2026-08-14T04:21:32.376Z</time>
      </trkpt>
      <trkpt lat="45.86748" lon="6.78253">
        <ele>1636</ele>
        <time>2026-08-14T04:21:33.376Z</time>
      </trkpt>
      <trkpt lat="45.86747" lon="6.78255">
        <ele>1637</ele>
        <time>2026-08-14T04:21:34.376Z</time>
      </trkpt>
      <trkpt lat="45.86747" lon="6.78256">
        <ele>1637</ele>
        <time>2026-08-14T04:21:35.376Z</time>
      </trkpt>
      <trkpt lat="45.86747" lon="6.78258">
        <ele>1637</ele>
        <time>2026-08-14T04:21:36.376Z</time>
      </trkpt>
      <trkpt lat="45.86747" lon="6.7826">
        <ele>1637</ele>
        <time>2026-08-14T04:21:37.376Z</time>
      </trkpt>
      <trkpt lat="45.86747" lon="6.78262">
        <ele>1636</ele>
        <time>2026-08-14T04:21:38.376Z</time>
      </trkpt>
      <trkpt lat="45.86747" lon="6.78263">
        <ele>1636</ele>
        <time>2026-08-14T04:21:39.376Z</time>
      </trkpt>
      <trkpt lat="45.86747" lon="6.78265">
        <ele>1636</ele>
        <time>2026-08-14T04:21:40.376Z</time>
      </trkpt>
      <trkpt lat="45.86747" lon="6.78267">
        <ele>1636</ele>
        <time>2026-08-14T04:21:41.377Z</time>
      </trkpt>
      <trkpt lat="45.86746" lon="6.78269">
        <ele>1636</ele>
        <time>2026-08-14T04:21:42.376Z</time>
      </trkpt>
      <trkpt lat="45.86746" lon="6.7827">
        <ele>1636</ele>
        <time>2026-08-14T04:21:43.376Z</time>
      </trkpt>
      <trkpt lat="45.86746" lon="6.78272">
        <ele>1636</ele>
        <time>2026-08-14T04:21:44.376Z</time>
      </trkpt>
      <trkpt lat="45.86746" lon="6.78273">
        <ele>1636</ele>
        <time>2026-08-14T04:21:45.376Z</time>
      </trkpt>
      <trkpt lat="45.86746" lon="6.78275">
        <ele>1636</ele>
        <time>2026-08-14T04:21:46.376Z</time>
      </trkpt>
      <trkpt lat="45.86746" lon="6.78277">
        <ele>1636</ele>
        <time>2026-08-14T04:21:47.376Z</time>
      </trkpt>
      <trkpt lat="45.86746" lon="6.78279">
        <ele>1636</ele>
        <time>2026-08-14T04:21:48.376Z</time>
      </trkpt>
      <trkpt lat="45.86746" lon="6.78281">
        <ele>1637</ele>
        <time>2026-08-14T04:21:49.376Z</time>
      </trkpt>
      <trkpt lat="45.86746" lon="6.78282">
        <ele>1637</ele>
        <time>2026-08-14T04:21:50.376Z</time>
      </trkpt>
      <trkpt lat="45.86746" lon="6.78283">
        <ele>1637</ele>
        <time>2026-08-14T04:21:51.376Z</time>
      </trkpt>
      <trkpt lat="45.86745" lon="6.78285">
        <ele>1638</ele>
        <time>2026-08-14T04:21:52.376Z</time>
      </trkpt>
      <trkpt lat="45.86746" lon="6.78287">
        <ele>1638</ele>
        <time>2026-08-14T04:21:53.376Z</time>
      </trkpt>
      <trkpt lat="45.86747" lon="6.78289">
        <ele>1637</ele>
        <time>2026-08-14T04:21:54.376Z</time>
      </trkpt>
      <trkpt lat="45.86746" lon="6.7829">
        <ele>1637</ele>
        <time>2026-08-14T04:21:55.376Z</time>
      </trkpt>
      <trkpt lat="45.86746" lon="6.78292">
        <ele>1638</ele>
        <time>2026-08-14T04:21:56.376Z</time>
      </trkpt>
      <trkpt lat="45.86746" lon="6.78293">
        <ele>1638</ele>
        <time>2026-08-14T04:21:57.376Z</time>
      </trkpt>
      <trkpt lat="45.86745" lon="6.78294">
        <ele>1638</ele>
        <time>2026-08-14T04:21:58.376Z</time>
      </trkpt>
      <trkpt lat="45.86745" lon="6.78296">
        <ele>1638</ele>
        <time>2026-08-14T04:21:59.376Z</time>
      </trkpt>
      <trkpt lat="45.86744" lon="6.78298">
        <ele>1638</ele>
        <time>2026-08-14T04:22:00.376Z</time>
      </trkpt>
      <trkpt lat="45.86744" lon="6.78299">
        <ele>1638</ele>
        <time>2026-08-14T04:22:01.376Z</time>
      </trkpt>
      <trkpt lat="45.86745" lon="6.78301">
        <ele>1638</ele>
        <time>2026-08-14T04:22:02.376Z</time>
      </trkpt>
      <trkpt lat="45.86746" lon="6.78302">
        <ele>1637</ele>
        <time>2026-08-14T04:22:03.376Z</time>
      </trkpt>
      <trkpt lat="45.86746" lon="6.78303">
        <ele>1637</ele>
        <time>2026-08-14T04:22:04.376Z</time>
      </trkpt>
      <trkpt lat="45.86746" lon="6.78305">
        <ele>1637</ele>
        <time>2026-08-14T04:22:05.376Z</time>
      </trkpt>
      <trkpt lat="45.86746" lon="6.78307">
        <ele>1637</ele>
        <time>2026-08-14T04:22:06.376Z</time>
      </trkpt>
      <trkpt lat="45.86745" lon="6.78309">
        <ele>1637</ele>
        <time>2026-08-14T04:22:07.376Z</time>
      </trkpt>
      <trkpt lat="45.86745" lon="6.7831">
        <ele>1637</ele>
        <time>2026-08-14T04:22:08.376Z</time>
      </trkpt>
      <trkpt lat="45.86743" lon="6.78311">
        <ele>1637</ele>
        <time>2026-08-14T04:22:09.376Z</time>
      </trkpt>
      <trkpt lat="45.86742" lon="6.78313">
        <ele>1637</ele>
        <time>2026-08-14T04:22:10.376Z</time>
      </trkpt>
      <trkpt lat="45.86741" lon="6.78314">
        <ele>1638</ele>
        <time>2026-08-14T04:22:11.376Z</time>
      </trkpt>
      <trkpt lat="45.86741" lon="6.78315">
        <ele>1638</ele>
        <time>2026-08-14T04:22:12.376Z</time>
      </trkpt>
      <trkpt lat="45.8674" lon="6.78315">
        <ele>1638</ele>
        <time>2026-08-14T04:22:13.376Z</time>
      </trkpt>
      <trkpt lat="45.8674" lon="6.78315">
        <ele>1638</ele>
        <time>2026-08-14T04:22:14.376Z</time>
      </trkpt>
      <trkpt lat="45.8674" lon="6.78316">
        <ele>1639</ele>
        <time>2026-08-14T04:22:15.376Z</time>
      </trkpt>
      <trkpt lat="45.8674" lon="6.78317">
        <ele>1639</ele>
        <time>2026-08-14T04:22:16.376Z</time>
      </trkpt>
      <trkpt lat="45.8674" lon="6.78318">
        <ele>1640</ele>
        <time>2026-08-14T04:22:17.376Z</time>
      </trkpt>
      <trkpt lat="45.8674" lon="6.7832">
        <ele>1640</ele>
        <time>2026-08-14T04:22:18.376Z</time>
      </trkpt>
      <trkpt lat="45.86739" lon="6.78321">
        <ele>1640</ele>
        <time>2026-08-14T04:22:19.376Z</time>
      </trkpt>
      <trkpt lat="45.86738" lon="6.78321">
        <ele>1641</ele>
        <time>2026-08-14T04:22:20.376Z</time>
      </trkpt>
      <trkpt lat="45.86738" lon="6.78321">
        <ele>1641</ele>
        <time>2026-08-14T04:22:21.376Z</time>
      </trkpt>
      <trkpt lat="45.86737" lon="6.7832">
        <ele>1642</ele>
        <time>2026-08-14T04:22:22.376Z</time>
      </trkpt>
      <trkpt lat="45.86736" lon="6.7832">
        <ele>1642</ele>
        <time>2026-08-14T04:22:23.376Z</time>
      </trkpt>
      <trkpt lat="45.86735" lon="6.7832">
        <ele>1642</ele>
        <time>2026-08-14T04:22:24.376Z</time>
      </trkpt>
      <trkpt lat="45.86734" lon="6.7832">
        <ele>1643</ele>
        <time>2026-08-14T04:22:25.376Z</time>
      </trkpt>
      <trkpt lat="45.86733" lon="6.7832">
        <ele>1643</ele>
        <time>2026-08-14T04:22:26.376Z</time>
      </trkpt>
      <trkpt lat="45.86732" lon="6.7832">
        <ele>1643</ele>
        <time>2026-08-14T04:22:27.376Z</time>
      </trkpt>
      <trkpt lat="45.8673" lon="6.7832">
        <ele>1644</ele>
        <time>2026-08-14T04:22:28.376Z</time>
      </trkpt>
      <trkpt lat="45.86729" lon="6.78321">
        <ele>1644</ele>
        <time>2026-08-14T04:22:29.376Z</time>
      </trkpt>
      <trkpt lat="45.86728" lon="6.78321">
        <ele>1645</ele>
        <time>2026-08-14T04:22:30.376Z</time>
      </trkpt>
      <trkpt lat="45.86727" lon="6.78322">
        <ele>1645</ele>
        <time>2026-08-14T04:22:31.376Z</time>
      </trkpt>
      <trkpt lat="45.86726" lon="6.78324">
        <ele>1645</ele>
        <time>2026-08-14T04:22:32.376Z</time>
      </trkpt>
      <trkpt lat="45.86725" lon="6.78324">
        <ele>1646</ele>
        <time>2026-08-14T04:22:33.376Z</time>
      </trkpt>
      <trkpt lat="45.86724" lon="6.78324">
        <ele>1646</ele>
        <time>2026-08-14T04:22:34.376Z</time>
      </trkpt>
      <trkpt lat="45.86723" lon="6.78324">
        <ele>1646</ele>
        <time>2026-08-14T04:22:35.376Z</time>
      </trkpt>
      <trkpt lat="45.86722" lon="6.78323">
        <ele>1647</ele>
        <time>2026-08-14T04:22:36.376Z</time>
      </trkpt>
      <trkpt lat="45.86721" lon="6.78322">
        <ele>1647</ele>
        <time>2026-08-14T04:22:37.376Z</time>
      </trkpt>
      <trkpt lat="45.8672" lon="6.78322">
        <ele>1647</ele>
        <time>2026-08-14T04:22:38.376Z</time>
      </trkpt>
      <trkpt lat="45.86718" lon="6.78322">
        <ele>1648</ele>
        <time>2026-08-14T04:22:39.376Z</time>
      </trkpt>
      <trkpt lat="45.86717" lon="6.78322">
        <ele>1648</ele>
        <time>2026-08-14T04:22:40.376Z</time>
      </trkpt>
      <trkpt lat="45.86716" lon="6.78323">
        <ele>1648</ele>
        <time>2026-08-14T04:22:41.376Z</time>
      </trkpt>
      <trkpt lat="45.86715" lon="6.78323">
        <ele>1648</ele>
        <time>2026-08-14T04:22:42.376Z</time>
      </trkpt>
      <trkpt lat="45.86714" lon="6.78324">
        <ele>1648</ele>
        <time>2026-08-14T04:22:43.376Z</time>
      </trkpt>
      <trkpt lat="45.86713" lon="6.78324">
        <ele>1648</ele>
        <time>2026-08-14T04:22:44.376Z</time>
      </trkpt>
      <trkpt lat="45.86712" lon="6.78324">
        <ele>1648</ele>
        <time>2026-08-14T04:22:45.376Z</time>
      </trkpt>
      <trkpt lat="45.86711" lon="6.78324">
        <ele>1649</ele>
        <time>2026-08-14T04:22:46.376Z</time>
      </trkpt>
      <trkpt lat="45.8671" lon="6.78324">
        <ele>1649</ele>
        <time>2026-08-14T04:22:47.376Z</time>
      </trkpt>
      <trkpt lat="45.86709" lon="6.78325">
        <ele>1649</ele>
        <time>2026-08-14T04:22:48.376Z</time>
      </trkpt>
      <trkpt lat="45.86708" lon="6.78325">
        <ele>1649</ele>
        <time>2026-08-14T04:22:49.376Z</time>
      </trkpt>
      <trkpt lat="45.86707" lon="6.78326">
        <ele>1649</ele>
        <time>2026-08-14T04:22:50.376Z</time>
      </trkpt>
      <trkpt lat="45.86706" lon="6.78327">
        <ele>1649</ele>
        <time>2026-08-14T04:22:51.376Z</time>
      </trkpt>
      <trkpt lat="45.86706" lon="6.78327">
        <ele>1649</ele>
        <time>2026-08-14T04:22:52.376Z</time>
      </trkpt>
      <trkpt lat="45.86706" lon="6.78328">
        <ele>1649</ele>
        <time>2026-08-14T04:22:53.376Z</time>
      </trkpt>
      <trkpt lat="45.86706" lon="6.78329">
        <ele>1650</ele>
        <time>2026-08-14T04:22:54.376Z</time>
      </trkpt>
      <trkpt lat="45.86705" lon="6.7833">
        <ele>1650</ele>
        <time>2026-08-14T04:22:55.376Z</time>
      </trkpt>
      <trkpt lat="45.86704" lon="6.78331">
        <ele>1650</ele>
        <time>2026-08-14T04:22:56.376Z</time>
      </trkpt>
      <trkpt lat="45.86702" lon="6.78331">
        <ele>1651</ele>
        <time>2026-08-14T04:22:57.376Z</time>
      </trkpt>
      <trkpt lat="45.86701" lon="6.78332">
        <ele>1651</ele>
        <time>2026-08-14T04:22:58.376Z</time>
      </trkpt>
      <trkpt lat="45.86699" lon="6.78332">
        <ele>1651</ele>
        <time>2026-08-14T04:22:59.376Z</time>
      </trkpt>
      <trkpt lat="45.86697" lon="6.78333">
        <ele>1652</ele>
        <time>2026-08-14T04:23:00.376Z</time>
      </trkpt>
      <trkpt lat="45.86695" lon="6.78333">
        <ele>1652</ele>
        <time>2026-08-14T04:23:01.376Z</time>
      </trkpt>
      <trkpt lat="45.86693" lon="6.78333">
        <ele>1652</ele>
        <time>2026-08-14T04:23:02.376Z</time>
      </trkpt>
      <trkpt lat="45.86692" lon="6.78332">
        <ele>1653</ele>
        <time>2026-08-14T04:23:03.376Z</time>
      </trkpt>
      <trkpt lat="45.86691" lon="6.78333">
        <ele>1653</ele>
        <time>2026-08-14T04:23:04.376Z</time>
      </trkpt>
      <trkpt lat="45.8669" lon="6.78333">
        <ele>1653</ele>
        <time>2026-08-14T04:23:05.376Z</time>
      </trkpt>
      <trkpt lat="45.8669" lon="6.78335">
        <ele>1654</ele>
        <time>2026-08-14T04:23:06.376Z</time>
      </trkpt>
      <trkpt lat="45.86689" lon="6.78337">
        <ele>1654</ele>
        <time>2026-08-14T04:23:07.376Z</time>
      </trkpt>
      <trkpt lat="45.86689" lon="6.78338">
        <ele>1654</ele>
        <time>2026-08-14T04:23:08.376Z</time>
      </trkpt>
      <trkpt lat="45.86688" lon="6.78338">
        <ele>1654</ele>
        <time>2026-08-14T04:23:09.376Z</time>
      </trkpt>
      <trkpt lat="45.86687" lon="6.78338">
        <ele>1655</ele>
        <time>2026-08-14T04:23:10.376Z</time>
      </trkpt>
      <trkpt lat="45.86687" lon="6.78338">
        <ele>1655</ele>
        <time>2026-08-14T04:23:11.376Z</time>
      </trkpt>
      <trkpt lat="45.86687" lon="6.78339">
        <ele>1655</ele>
        <time>2026-08-14T04:23:12.376Z</time>
      </trkpt>
      <trkpt lat="45.86686" lon="6.78339">
        <ele>1655</ele>
        <time>2026-08-14T04:23:13.376Z</time>
      </trkpt>
      <trkpt lat="45.86685" lon="6.78341">
        <ele>1655</ele>
        <time>2026-08-14T04:23:14.376Z</time>
      </trkpt>
      <trkpt lat="45.86684" lon="6.78342">
        <ele>1655</ele>
        <time>2026-08-14T04:23:15.376Z</time>
      </trkpt>
      <trkpt lat="45.86683" lon="6.78342">
        <ele>1655</ele>
        <time>2026-08-14T04:23:16.376Z</time>
      </trkpt>
      <trkpt lat="45.86683" lon="6.78342">
        <ele>1655</ele>
        <time>2026-08-14T04:23:17.376Z</time>
      </trkpt>
      <trkpt lat="45.86682" lon="6.78343">
        <ele>1655</ele>
        <time>2026-08-14T04:23:18.376Z</time>
      </trkpt>
      <trkpt lat="45.86681" lon="6.78343">
        <ele>1655</ele>
        <time>2026-08-14T04:23:19.376Z</time>
      </trkpt>
      <trkpt lat="45.86681" lon="6.78343">
        <ele>1655</ele>
        <time>2026-08-14T04:23:20.376Z</time>
      </trkpt>
      <trkpt lat="45.8668" lon="6.78343">
        <ele>1655</ele>
        <time>2026-08-14T04:23:21.376Z</time>
      </trkpt>
      <trkpt lat="45.86679" lon="6.78343">
        <ele>1656</ele>
        <time>2026-08-14T04:23:22.376Z</time>
      </trkpt>
      <trkpt lat="45.86678" lon="6.78343">
        <ele>1656</ele>
        <time>2026-08-14T04:23:23.376Z</time>
      </trkpt>
      <trkpt lat="45.86677" lon="6.78343">
        <ele>1656</ele>
        <time>2026-08-14T04:23:24.376Z</time>
      </trkpt>
      <trkpt lat="45.86676" lon="6.78343">
        <ele>1657</ele>
        <time>2026-08-14T04:23:25.376Z</time>
      </trkpt>
      <trkpt lat="45.86675" lon="6.78343">
        <ele>1657</ele>
        <time>2026-08-14T04:23:26.376Z</time>
      </trkpt>
      <trkpt lat="45.86674" lon="6.78344">
        <ele>1658</ele>
        <time>2026-08-14T04:23:27.376Z</time>
      </trkpt>
      <trkpt lat="45.86673" lon="6.78344">
        <ele>1658</ele>
        <time>2026-08-14T04:23:28.376Z</time>
      </trkpt>
      <trkpt lat="45.86671" lon="6.78343">
        <ele>1659</ele>
        <time>2026-08-14T04:23:29.376Z</time>
      </trkpt>
      <trkpt lat="45.8667" lon="6.78343">
        <ele>1659</ele>
        <time>2026-08-14T04:23:30.376Z</time>
      </trkpt>
      <trkpt lat="45.86669" lon="6.78344">
        <ele>1659</ele>
        <time>2026-08-14T04:23:31.376Z</time>
      </trkpt>
      <trkpt lat="45.86669" lon="6.78344">
        <ele>1659</ele>
        <time>2026-08-14T04:23:32.376Z</time>
      </trkpt>
      <trkpt lat="45.86668" lon="6.78344">
        <ele>1659</ele>
        <time>2026-08-14T04:23:33.376Z</time>
      </trkpt>
      <trkpt lat="45.86668" lon="6.78345">
        <ele>1660</ele>
        <time>2026-08-14T04:23:34.376Z</time>
      </trkpt>
      <trkpt lat="45.86667" lon="6.78345">
        <ele>1660</ele>
        <time>2026-08-14T04:23:35.376Z</time>
      </trkpt>
      <trkpt lat="45.86665" lon="6.78345">
        <ele>1660</ele>
        <time>2026-08-14T04:23:36.376Z</time>
      </trkpt>
      <trkpt lat="45.86665" lon="6.78346">
        <ele>1660</ele>
        <time>2026-08-14T04:23:37.376Z</time>
      </trkpt>
      <trkpt lat="45.86664" lon="6.78346">
        <ele>1661</ele>
        <time>2026-08-14T04:23:38.376Z</time>
      </trkpt>
      <trkpt lat="45.86664" lon="6.78347">
        <ele>1661</ele>
        <time>2026-08-14T04:23:39.376Z</time>
      </trkpt>
      <trkpt lat="45.86662" lon="6.78348">
        <ele>1661</ele>
        <time>2026-08-14T04:23:40.376Z</time>
      </trkpt>
      <trkpt lat="45.86662" lon="6.78348">
        <ele>1661</ele>
        <time>2026-08-14T04:23:41.376Z</time>
      </trkpt>
      <trkpt lat="45.8666" lon="6.78349">
        <ele>1661</ele>
        <time>2026-08-14T04:23:42.376Z</time>
      </trkpt>
      <trkpt lat="45.86659" lon="6.78349">
        <ele>1661</ele>
        <time>2026-08-14T04:23:43.376Z</time>
      </trkpt>
      <trkpt lat="45.86658" lon="6.78348">
        <ele>1661</ele>
        <time>2026-08-14T04:23:44.376Z</time>
      </trkpt>
      <trkpt lat="45.86657" lon="6.78348">
        <ele>1661</ele>
        <time>2026-08-14T04:23:45.376Z</time>
      </trkpt>
      <trkpt lat="45.86657" lon="6.78347">
        <ele>1661</ele>
        <time>2026-08-14T04:23:46.376Z</time>
      </trkpt>
      <trkpt lat="45.86657" lon="6.78348">
        <ele>1661</ele>
        <time>2026-08-14T04:23:47.376Z</time>
      </trkpt>
      <trkpt lat="45.86657" lon="6.78349">
        <ele>1661</ele>
        <time>2026-08-14T04:23:48.376Z</time>
      </trkpt>
      <trkpt lat="45.86656" lon="6.7835">
        <ele>1661</ele>
        <time>2026-08-14T04:23:49.376Z</time>
      </trkpt>
      <trkpt lat="45.86656" lon="6.78351">
        <ele>1661</ele>
        <time>2026-08-14T04:23:50.376Z</time>
      </trkpt>
      <trkpt lat="45.86655" lon="6.78351">
        <ele>1661</ele>
        <time>2026-08-14T04:23:51.376Z</time>
      </trkpt>
      <trkpt lat="45.86655" lon="6.78351">
        <ele>1661</ele>
        <time>2026-08-14T04:23:52.376Z</time>
      </trkpt>
      <trkpt lat="45.86654" lon="6.78352">
        <ele>1661</ele>
        <time>2026-08-14T04:23:53.376Z</time>
      </trkpt>
      <trkpt lat="45.86654" lon="6.78352">
        <ele>1661</ele>
        <time>2026-08-14T04:23:54.376Z</time>
      </trkpt>
      <trkpt lat="45.86653" lon="6.78352">
        <ele>1661</ele>
        <time>2026-08-14T04:23:55.376Z</time>
      </trkpt>
      <trkpt lat="45.86653" lon="6.78353">
        <ele>1661</ele>
        <time>2026-08-14T04:23:56.376Z</time>
      </trkpt>
      <trkpt lat="45.86652" lon="6.78353">
        <ele>1662</ele>
        <time>2026-08-14T04:23:57.376Z</time>
      </trkpt>
      <trkpt lat="45.86652" lon="6.78353">
        <ele>1662</ele>
        <time>2026-08-14T04:23:58.376Z</time>
      </trkpt>
      <trkpt lat="45.86651" lon="6.78353">
        <ele>1663</ele>
        <time>2026-08-14T04:23:59.376Z</time>
      </trkpt>
      <trkpt lat="45.86651" lon="6.78354">
        <ele>1663</ele>
        <time>2026-08-14T04:24:00.376Z</time>
      </trkpt>
      <trkpt lat="45.86651" lon="6.78354">
        <ele>1664</ele>
        <time>2026-08-14T04:24:01.376Z</time>
      </trkpt>
      <trkpt lat="45.86651" lon="6.78355">
        <ele>1665</ele>
        <time>2026-08-14T04:24:02.376Z</time>
      </trkpt>
      <trkpt lat="45.86651" lon="6.78356">
        <ele>1665</ele>
        <time>2026-08-14T04:24:03.376Z</time>
      </trkpt>
      <trkpt lat="45.8665" lon="6.78356">
        <ele>1666</ele>
        <time>2026-08-14T04:24:04.376Z</time>
      </trkpt>
      <trkpt lat="45.86649" lon="6.78357">
        <ele>1666</ele>
        <time>2026-08-14T04:24:05.376Z</time>
      </trkpt>
      <trkpt lat="45.86649" lon="6.78357">
        <ele>1666</ele>
        <time>2026-08-14T04:24:06.376Z</time>
      </trkpt>
      <trkpt lat="45.8665" lon="6.78357">
        <ele>1667</ele>
        <time>2026-08-14T04:24:07.376Z</time>
      </trkpt>
      <trkpt lat="45.8665" lon="6.78358">
        <ele>1667</ele>
        <time>2026-08-14T04:24:08.376Z</time>
      </trkpt>
      <trkpt lat="45.8665" lon="6.78358">
        <ele>1667</ele>
        <time>2026-08-14T04:24:09.376Z</time>
      </trkpt>
      <trkpt lat="45.86651" lon="6.78359">
        <ele>1668</ele>
        <time>2026-08-14T04:24:10.376Z</time>
      </trkpt>
      <trkpt lat="45.86651" lon="6.78358">
        <ele>1668</ele>
        <time>2026-08-14T04:24:11.376Z</time>
      </trkpt>
      <trkpt lat="45.86651" lon="6.78358">
        <ele>1668</ele>
        <time>2026-08-14T04:24:12.376Z</time>
      </trkpt>
      <trkpt lat="45.86652" lon="6.78358">
        <ele>1668</ele>
        <time>2026-08-14T04:24:13.376Z</time>
      </trkpt>
      <trkpt lat="45.86652" lon="6.78358">
        <ele>1669</ele>
        <time>2026-08-14T04:24:14.376Z</time>
      </trkpt>
      <trkpt lat="45.86653" lon="6.78359">
        <ele>1669</ele>
        <time>2026-08-14T04:24:15.376Z</time>
      </trkpt>
      <trkpt lat="45.86654" lon="6.78359">
        <ele>1669</ele>
        <time>2026-08-14T04:24:16.376Z</time>
      </trkpt>
      <trkpt lat="45.86656" lon="6.78359">
        <ele>1670</ele>
        <time>2026-08-14T04:24:17.376Z</time>
      </trkpt>
      <trkpt lat="45.86657" lon="6.78359">
        <ele>1670</ele>
        <time>2026-08-14T04:24:18.376Z</time>
      </trkpt>
      <trkpt lat="45.86657" lon="6.78359">
        <ele>1670</ele>
        <time>2026-08-14T04:24:19.376Z</time>
      </trkpt>
      <trkpt lat="45.86658" lon="6.78358">
        <ele>1671</ele>
        <time>2026-08-14T04:24:20.376Z</time>
      </trkpt>
      <trkpt lat="45.86659" lon="6.78359">
        <ele>1671</ele>
        <time>2026-08-14T04:24:21.376Z</time>
      </trkpt>
      <trkpt lat="45.86659" lon="6.78358">
        <ele>1671</ele>
        <time>2026-08-14T04:24:22.376Z</time>
      </trkpt>
      <trkpt lat="45.8666" lon="6.78358">
        <ele>1672</ele>
        <time>2026-08-14T04:24:23.376Z</time>
      </trkpt>
      <trkpt lat="45.8666" lon="6.78358">
        <ele>1673</ele>
        <time>2026-08-14T04:24:24.376Z</time>
      </trkpt>
      <trkpt lat="45.86661" lon="6.78359">
        <ele>1673</ele>
        <time>2026-08-14T04:24:25.376Z</time>
      </trkpt>
      <trkpt lat="45.86661" lon="6.7836">
        <ele>1674</ele>
        <time>2026-08-14T04:24:26.376Z</time>
      </trkpt>
      <trkpt lat="45.86662" lon="6.78361">
        <ele>1674</ele>
        <time>2026-08-14T04:24:27.376Z</time>
      </trkpt>
      <trkpt lat="45.86663" lon="6.78361">
        <ele>1674</ele>
        <time>2026-08-14T04:24:28.376Z</time>
      </trkpt>
      <trkpt lat="45.86664" lon="6.78362">
        <ele>1674</ele>
        <time>2026-08-14T04:24:29.376Z</time>
      </trkpt>
      <trkpt lat="45.86665" lon="6.78361">
        <ele>1674</ele>
        <time>2026-08-14T04:24:30.376Z</time>
      </trkpt>
      <trkpt lat="45.86667" lon="6.78362">
        <ele>1674</ele>
        <time>2026-08-14T04:24:31.376Z</time>
      </trkpt>
      <trkpt lat="45.86668" lon="6.78362">
        <ele>1674</ele>
        <time>2026-08-14T04:24:32.376Z</time>
      </trkpt>
      <trkpt lat="45.8667" lon="6.78363">
        <ele>1674</ele>
        <time>2026-08-14T04:24:33.376Z</time>
      </trkpt>
      <trkpt lat="45.86671" lon="6.78364">
        <ele>1674</ele>
        <time>2026-08-14T04:24:34.376Z</time>
      </trkpt>
      <trkpt lat="45.86672" lon="6.78364">
        <ele>1674</ele>
        <time>2026-08-14T04:24:35.376Z</time>
      </trkpt>
      <trkpt lat="45.86673" lon="6.78364">
        <ele>1674</ele>
        <time>2026-08-14T04:24:36.376Z</time>
      </trkpt>
      <trkpt lat="45.86673" lon="6.78365">
        <ele>1675</ele>
        <time>2026-08-14T04:24:37.376Z</time>
      </trkpt>
      <trkpt lat="45.86674" lon="6.78365">
        <ele>1675</ele>
        <time>2026-08-14T04:24:38.376Z</time>
      </trkpt>
      <trkpt lat="45.86675" lon="6.78365">
        <ele>1675</ele>
        <time>2026-08-14T04:24:39.376Z</time>
      </trkpt>
      <trkpt lat="45.86676" lon="6.78366">
        <ele>1676</ele>
        <time>2026-08-14T04:24:40.376Z</time>
      </trkpt>
      <trkpt lat="45.86676" lon="6.78366">
        <ele>1676</ele>
        <time>2026-08-14T04:24:41.376Z</time>
      </trkpt>
      <trkpt lat="45.86677" lon="6.78366">
        <ele>1676</ele>
        <time>2026-08-14T04:24:42.376Z</time>
      </trkpt>
      <trkpt lat="45.86678" lon="6.78367">
        <ele>1676</ele>
        <time>2026-08-14T04:24:43.376Z</time>
      </trkpt>
      <trkpt lat="45.86678" lon="6.78366">
        <ele>1676</ele>
        <time>2026-08-14T04:24:44.376Z</time>
      </trkpt>
      <trkpt lat="45.86679" lon="6.78366">
        <ele>1676</ele>
        <time>2026-08-14T04:24:45.376Z</time>
      </trkpt>
      <trkpt lat="45.8668" lon="6.78367">
        <ele>1676</ele>
        <time>2026-08-14T04:24:46.376Z</time>
      </trkpt>
      <trkpt lat="45.8668" lon="6.78367">
        <ele>1676</ele>
        <time>2026-08-14T04:24:47.376Z</time>
      </trkpt>
      <trkpt lat="45.86681" lon="6.78367">
        <ele>1676</ele>
        <time>2026-08-14T04:24:48.376Z</time>
      </trkpt>
      <trkpt lat="45.86683" lon="6.78366">
        <ele>1676</ele>
        <time>2026-08-14T04:24:49.376Z</time>
      </trkpt>
      <trkpt lat="45.86683" lon="6.78366">
        <ele>1677</ele>
        <time>2026-08-14T04:24:50.376Z</time>
      </trkpt>
      <trkpt lat="45.86684" lon="6.78365">
        <ele>1677</ele>
        <time>2026-08-14T04:24:51.376Z</time>
      </trkpt>
      <trkpt lat="45.86684" lon="6.78365">
        <ele>1678</ele>
        <time>2026-08-14T04:24:52.376Z</time>
      </trkpt>
      <trkpt lat="45.86685" lon="6.78364">
        <ele>1678</ele>
        <time>2026-08-14T04:24:53.376Z</time>
      </trkpt>
      <trkpt lat="45.86686" lon="6.78364">
        <ele>1679</ele>
        <time>2026-08-14T04:24:54.376Z</time>
      </trkpt>
      <trkpt lat="45.86686" lon="6.78364">
        <ele>1679</ele>
        <time>2026-08-14T04:24:55.376Z</time>
      </trkpt>
      <trkpt lat="45.86687" lon="6.78364">
        <ele>1680</ele>
        <time>2026-08-14T04:24:56.376Z</time>
      </trkpt>
      <trkpt lat="45.86687" lon="6.78363">
        <ele>1681</ele>
        <time>2026-08-14T04:24:57.376Z</time>
      </trkpt>
      <trkpt lat="45.86688" lon="6.78363">
        <ele>1681</ele>
        <time>2026-08-14T04:24:58.376Z</time>
      </trkpt>
      <trkpt lat="45.86689" lon="6.78362">
        <ele>1682</ele>
        <time>2026-08-14T04:24:59.376Z</time>
      </trkpt>
      <trkpt lat="45.8669" lon="6.78361">
        <ele>1683</ele>
        <time>2026-08-14T04:25:00.376Z</time>
      </trkpt>
      <trkpt lat="45.86691" lon="6.78361">
        <ele>1684</ele>
        <time>2026-08-14T04:25:01.376Z</time>
      </trkpt>
      <trkpt lat="45.86691" lon="6.78361">
        <ele>1684</ele>
        <time>2026-08-14T04:25:02.376Z</time>
      </trkpt>
      <trkpt lat="45.86691" lon="6.78361">
        <ele>1684</ele>
        <time>2026-08-14T04:25:03.376Z</time>
      </trkpt>
      <trkpt lat="45.86692" lon="6.78361">
        <ele>1685</ele>
        <time>2026-08-14T04:25:04.376Z</time>
      </trkpt>
      <trkpt lat="45.86693" lon="6.78361">
        <ele>1685</ele>
        <time>2026-08-14T04:25:05.376Z</time>
      </trkpt>
      <trkpt lat="45.86694" lon="6.78362">
        <ele>1686</ele>
        <time>2026-08-14T04:25:06.376Z</time>
      </trkpt>
      <trkpt lat="45.86695" lon="6.78362">
        <ele>1687</ele>
        <time>2026-08-14T04:25:07.376Z</time>
      </trkpt>
      <trkpt lat="45.86695" lon="6.78363">
        <ele>1687</ele>
        <time>2026-08-14T04:25:08.376Z</time>
      </trkpt>
      <trkpt lat="45.86696" lon="6.78363">
        <ele>1688</ele>
        <time>2026-08-14T04:25:09.376Z</time>
      </trkpt>
      <trkpt lat="45.86696" lon="6.78364">
        <ele>1688</ele>
        <time>2026-08-14T04:25:10.376Z</time>
      </trkpt>
      <trkpt lat="45.86696" lon="6.78364">
        <ele>1688</ele>
        <time>2026-08-14T04:25:11.376Z</time>
      </trkpt>
      <trkpt lat="45.86696" lon="6.78365">
        <ele>1689</ele>
        <time>2026-08-14T04:25:12.376Z</time>
      </trkpt>
      <trkpt lat="45.86697" lon="6.78366">
        <ele>1689</ele>
        <time>2026-08-14T04:25:13.376Z</time>
      </trkpt>
      <trkpt lat="45.86698" lon="6.78368">
        <ele>1689</ele>
        <time>2026-08-14T04:25:14.376Z</time>
      </trkpt>
      <trkpt lat="45.86699" lon="6.7837">
        <ele>1689</ele>
        <time>2026-08-14T04:25:15.376Z</time>
      </trkpt>
      <trkpt lat="45.867" lon="6.78373">
        <ele>1689</ele>
        <time>2026-08-14T04:25:16.376Z</time>
      </trkpt>
      <trkpt lat="45.86701" lon="6.78374">
        <ele>1690</ele>
        <time>2026-08-14T04:25:17.376Z</time>
      </trkpt>
      <trkpt lat="45.867" lon="6.78374">
        <ele>1690</ele>
        <time>2026-08-14T04:25:18.376Z</time>
      </trkpt>
      <trkpt lat="45.867" lon="6.78375">
        <ele>1690</ele>
        <time>2026-08-14T04:25:19.376Z</time>
      </trkpt>
      <trkpt lat="45.867" lon="6.78375">
        <ele>1691</ele>
        <time>2026-08-14T04:25:20.376Z</time>
      </trkpt>
      <trkpt lat="45.867" lon="6.78376">
        <ele>1691</ele>
        <time>2026-08-14T04:25:21.376Z</time>
      </trkpt>
      <trkpt lat="45.86699" lon="6.78377">
        <ele>1691</ele>
        <time>2026-08-14T04:25:22.376Z</time>
      </trkpt>
      <trkpt lat="45.86699" lon="6.78378">
        <ele>1692</ele>
        <time>2026-08-14T04:25:23.376Z</time>
      </trkpt>
      <trkpt lat="45.86698" lon="6.78378">
        <ele>1692</ele>
        <time>2026-08-14T04:25:24.376Z</time>
      </trkpt>
      <trkpt lat="45.86698" lon="6.78379">
        <ele>1692</ele>
        <time>2026-08-14T04:25:25.376Z</time>
      </trkpt>
      <trkpt lat="45.86697" lon="6.78379">
        <ele>1692</ele>
        <time>2026-08-14T04:25:26.376Z</time>
      </trkpt>
      <trkpt lat="45.86696" lon="6.78379">
        <ele>1692</ele>
        <time>2026-08-14T04:25:27.376Z</time>
      </trkpt>
      <trkpt lat="45.86695" lon="6.78379">
        <ele>1692</ele>
        <time>2026-08-14T04:25:28.376Z</time>
      </trkpt>
      <trkpt lat="45.86695" lon="6.78379">
        <ele>1692</ele>
        <time>2026-08-14T04:25:29.376Z</time>
      </trkpt>
      <trkpt lat="45.86695" lon="6.7838">
        <ele>1691</ele>
        <time>2026-08-14T04:25:30.376Z</time>
      </trkpt>
      <trkpt lat="45.86694" lon="6.7838">
        <ele>1691</ele>
        <time>2026-08-14T04:25:31.376Z</time>
      </trkpt>
      <trkpt lat="45.86694" lon="6.7838">
        <ele>1691</ele>
        <time>2026-08-14T04:25:32.376Z</time>
      </trkpt>
      <trkpt lat="45.86694" lon="6.78381">
        <ele>1691</ele>
        <time>2026-08-14T04:25:33.376Z</time>
      </trkpt>
      <trkpt lat="45.86694" lon="6.78381">
        <ele>1691</ele>
        <time>2026-08-14T04:25:34.376Z</time>
      </trkpt>
      <trkpt lat="45.86693" lon="6.78382">
        <ele>1691</ele>
        <time>2026-08-14T04:25:35.376Z</time>
      </trkpt>
      <trkpt lat="45.86692" lon="6.78383">
        <ele>1692</ele>
        <time>2026-08-14T04:25:36.376Z</time>
      </trkpt>
      <trkpt lat="45.86691" lon="6.78383">
        <ele>1692</ele>
        <time>2026-08-14T04:25:37.376Z</time>
      </trkpt>
      <trkpt lat="45.86691" lon="6.78384">
        <ele>1693</ele>
        <time>2026-08-14T04:25:38.376Z</time>
      </trkpt>
      <trkpt lat="45.86691" lon="6.78385">
        <ele>1694</ele>
        <time>2026-08-14T04:25:39.376Z</time>
      </trkpt>
      <trkpt lat="45.86691" lon="6.78385">
        <ele>1694</ele>
        <time>2026-08-14T04:25:40.376Z</time>
      </trkpt>
      <trkpt lat="45.86691" lon="6.78386">
        <ele>1695</ele>
        <time>2026-08-14T04:25:41.376Z</time>
      </trkpt>
      <trkpt lat="45.86692" lon="6.78387">
        <ele>1696</ele>
        <time>2026-08-14T04:25:42.376Z</time>
      </trkpt>
      <trkpt lat="45.86692" lon="6.78388">
        <ele>1696</ele>
        <time>2026-08-14T04:25:43.376Z</time>
      </trkpt>
      <trkpt lat="45.86692" lon="6.78388">
        <ele>1697</ele>
        <time>2026-08-14T04:25:44.376Z</time>
      </trkpt>
      <trkpt lat="45.86693" lon="6.78388">
        <ele>1697</ele>
        <time>2026-08-14T04:25:45.376Z</time>
      </trkpt>
      <trkpt lat="45.86693" lon="6.78387">
        <ele>1697</ele>
        <time>2026-08-14T04:25:46.376Z</time>
      </trkpt>
      <trkpt lat="45.86693" lon="6.78387">
        <ele>1698</ele>
        <time>2026-08-14T04:25:47.376Z</time>
      </trkpt>
      <trkpt lat="45.86694" lon="6.78386">
        <ele>1698</ele>
        <time>2026-08-14T04:25:48.376Z</time>
      </trkpt>
      <trkpt lat="45.86693" lon="6.78386">
        <ele>1698</ele>
        <time>2026-08-14T04:25:49.376Z</time>
      </trkpt>
      <trkpt lat="45.86694" lon="6.78385">
        <ele>1698</ele>
        <time>2026-08-14T04:25:50.376Z</time>
      </trkpt>
      <trkpt lat="45.86695" lon="6.78385">
        <ele>1698</ele>
        <time>2026-08-14T04:25:51.376Z</time>
      </trkpt>
      <trkpt lat="45.86696" lon="6.78385">
        <ele>1699</ele>
        <time>2026-08-14T04:25:52.376Z</time>
      </trkpt>
      <trkpt lat="45.86697" lon="6.78386">
        <ele>1699</ele>
        <time>2026-08-14T04:25:53.376Z</time>
      </trkpt>
      <trkpt lat="45.86698" lon="6.78387">
        <ele>1699</ele>
        <time>2026-08-14T04:25:54.376Z</time>
      </trkpt>
      <trkpt lat="45.86699" lon="6.78387">
        <ele>1699</ele>
        <time>2026-08-14T04:25:55.376Z</time>
      </trkpt>
      <trkpt lat="45.867" lon="6.78388">
        <ele>1699</ele>
        <time>2026-08-14T04:25:56.376Z</time>
      </trkpt>
      <trkpt lat="45.867" lon="6.78389">
        <ele>1700</ele>
        <time>2026-08-14T04:25:57.376Z</time>
      </trkpt>
      <trkpt lat="45.86701" lon="6.78389">
        <ele>1700</ele>
        <time>2026-08-14T04:25:58.376Z</time>
      </trkpt>
      <trkpt lat="45.86701" lon="6.7839">
        <ele>1700</ele>
        <time>2026-08-14T04:25:59.376Z</time>
      </trkpt>
      <trkpt lat="45.86701" lon="6.78391">
        <ele>1700</ele>
        <time>2026-08-14T04:26:00.376Z</time>
      </trkpt>
      <trkpt lat="45.86701" lon="6.78391">
        <ele>1700</ele>
        <time>2026-08-14T04:26:01.376Z</time>
      </trkpt>
      <trkpt lat="45.86701" lon="6.78391">
        <ele>1700</ele>
        <time>2026-08-14T04:26:02.376Z</time>
      </trkpt>
      <trkpt lat="45.86702" lon="6.78392">
        <ele>1700</ele>
        <time>2026-08-14T04:26:03.376Z</time>
      </trkpt>
      <trkpt lat="45.86703" lon="6.78393">
        <ele>1699</ele>
        <time>2026-08-14T04:26:04.376Z</time>
      </trkpt>
      <trkpt lat="45.86704" lon="6.78393">
        <ele>1699</ele>
        <time>2026-08-14T04:26:05.376Z</time>
      </trkpt>
      <trkpt lat="45.86704" lon="6.78393">
        <ele>1699</ele>
        <time>2026-08-14T04:26:06.376Z</time>
      </trkpt>
      <trkpt lat="45.86705" lon="6.78394">
        <ele>1699</ele>
        <time>2026-08-14T04:26:07.376Z</time>
      </trkpt>
      <trkpt lat="45.86706" lon="6.78394">
        <ele>1700</ele>
        <time>2026-08-14T04:26:08.376Z</time>
      </trkpt>
      <trkpt lat="45.86707" lon="6.78395">
        <ele>1700</ele>
        <time>2026-08-14T04:26:09.376Z</time>
      </trkpt>
      <trkpt lat="45.86708" lon="6.78395">
        <ele>1700</ele>
        <time>2026-08-14T04:26:10.376Z</time>
      </trkpt>
      <trkpt lat="45.86709" lon="6.78395">
        <ele>1701</ele>
        <time>2026-08-14T04:26:11.376Z</time>
      </trkpt>
      <trkpt lat="45.8671" lon="6.78396">
        <ele>1701</ele>
        <time>2026-08-14T04:26:12.376Z</time>
      </trkpt>
      <trkpt lat="45.8671" lon="6.78397">
        <ele>1701</ele>
        <time>2026-08-14T04:26:13.376Z</time>
      </trkpt>
      <trkpt lat="45.8671" lon="6.78397">
        <ele>1702</ele>
        <time>2026-08-14T04:26:14.376Z</time>
      </trkpt>
      <trkpt lat="45.8671" lon="6.78399">
        <ele>1702</ele>
        <time>2026-08-14T04:26:15.376Z</time>
      </trkpt>
      <trkpt lat="45.8671" lon="6.78399">
        <ele>1702</ele>
        <time>2026-08-14T04:26:16.376Z</time>
      </trkpt>
      <trkpt lat="45.8671" lon="6.784">
        <ele>1703</ele>
        <time>2026-08-14T04:26:17.376Z</time>
      </trkpt>
      <trkpt lat="45.8671" lon="6.784">
        <ele>1703</ele>
        <time>2026-08-14T04:26:18.376Z</time>
      </trkpt>
      <trkpt lat="45.8671" lon="6.78401">
        <ele>1703</ele>
        <time>2026-08-14T04:26:19.376Z</time>
      </trkpt>
      <trkpt lat="45.86709" lon="6.78402">
        <ele>1703</ele>
        <time>2026-08-14T04:26:20.376Z</time>
      </trkpt>
      <trkpt lat="45.86709" lon="6.78403">
        <ele>1703</ele>
        <time>2026-08-14T04:26:21.376Z</time>
      </trkpt>
      <trkpt lat="45.86708" lon="6.78404">
        <ele>1703</ele>
        <time>2026-08-14T04:26:22.376Z</time>
      </trkpt>
      <trkpt lat="45.86707" lon="6.78405">
        <ele>1704</ele>
        <time>2026-08-14T04:26:23.376Z</time>
      </trkpt>
      <trkpt lat="45.86706" lon="6.78405">
        <ele>1704</ele>
        <time>2026-08-14T04:26:24.376Z</time>
      </trkpt>
      <trkpt lat="45.86706" lon="6.78406">
        <ele>1704</ele>
        <time>2026-08-14T04:26:25.376Z</time>
      </trkpt>
      <trkpt lat="45.86705" lon="6.78407">
        <ele>1705</ele>
        <time>2026-08-14T04:26:26.376Z</time>
      </trkpt>
      <trkpt lat="45.86705" lon="6.78409">
        <ele>1705</ele>
        <time>2026-08-14T04:26:27.376Z</time>
      </trkpt>
      <trkpt lat="45.86705" lon="6.78409">
        <ele>1705</ele>
        <time>2026-08-14T04:26:28.376Z</time>
      </trkpt>
      <trkpt lat="45.86705" lon="6.78409">
        <ele>1705</ele>
        <time>2026-08-14T04:26:29.376Z</time>
      </trkpt>
      <trkpt lat="45.86705" lon="6.7841">
        <ele>1705</ele>
        <time>2026-08-14T04:26:30.376Z</time>
      </trkpt>
      <trkpt lat="45.86705" lon="6.78411">
        <ele>1705</ele>
        <time>2026-08-14T04:26:31.376Z</time>
      </trkpt>
      <trkpt lat="45.86705" lon="6.78411">
        <ele>1705</ele>
        <time>2026-08-14T04:26:32.376Z</time>
      </trkpt>
      <trkpt lat="45.86704" lon="6.78412">
        <ele>1706</ele>
        <time>2026-08-14T04:26:33.376Z</time>
      </trkpt>
      <trkpt lat="45.86703" lon="6.78413">
        <ele>1706</ele>
        <time>2026-08-14T04:26:34.376Z</time>
      </trkpt>
      <trkpt lat="45.86702" lon="6.78414">
        <ele>1707</ele>
        <time>2026-08-14T04:26:35.376Z</time>
      </trkpt>
      <trkpt lat="45.86702" lon="6.78414">
        <ele>1707</ele>
        <time>2026-08-14T04:26:36.376Z</time>
      </trkpt>
      <trkpt lat="45.86702" lon="6.78415">
        <ele>1708</ele>
        <time>2026-08-14T04:26:37.376Z</time>
      </trkpt>
      <trkpt lat="45.86701" lon="6.78415">
        <ele>1708</ele>
        <time>2026-08-14T04:26:38.376Z</time>
      </trkpt>
      <trkpt lat="45.86701" lon="6.78416">
        <ele>1709</ele>
        <time>2026-08-14T04:26:39.376Z</time>
      </trkpt>
      <trkpt lat="45.867" lon="6.78416">
        <ele>1709</ele>
        <time>2026-08-14T04:26:40.376Z</time>
      </trkpt>
      <trkpt lat="45.86699" lon="6.78416">
        <ele>1709</ele>
        <time>2026-08-14T04:26:41.376Z</time>
      </trkpt>
      <trkpt lat="45.86698" lon="6.78416">
        <ele>1710</ele>
        <time>2026-08-14T04:26:42.376Z</time>
      </trkpt>
      <trkpt lat="45.86697" lon="6.78417">
        <ele>1710</ele>
        <time>2026-08-14T04:26:43.376Z</time>
      </trkpt>
      <trkpt lat="45.86696" lon="6.78418">
        <ele>1710</ele>
        <time>2026-08-14T04:26:44.376Z</time>
      </trkpt>
      <trkpt lat="45.86695" lon="6.78419">
        <ele>1711</ele>
        <time>2026-08-14T04:26:45.376Z</time>
      </trkpt>
      <trkpt lat="45.86695" lon="6.7842">
        <ele>1711</ele>
        <time>2026-08-14T04:26:46.376Z</time>
      </trkpt>
      <trkpt lat="45.86694" lon="6.7842">
        <ele>1711</ele>
        <time>2026-08-14T04:26:47.376Z</time>
      </trkpt>
      <trkpt lat="45.86693" lon="6.7842">
        <ele>1711</ele>
        <time>2026-08-14T04:26:48.376Z</time>
      </trkpt>
      <trkpt lat="45.86692" lon="6.78422">
        <ele>1712</ele>
        <time>2026-08-14T04:26:49.376Z</time>
      </trkpt>
      <trkpt lat="45.86692" lon="6.78422">
        <ele>1712</ele>
        <time>2026-08-14T04:26:50.376Z</time>
      </trkpt>
      <trkpt lat="45.86691" lon="6.78422">
        <ele>1712</ele>
        <time>2026-08-14T04:26:51.376Z</time>
      </trkpt>
      <trkpt lat="45.8669" lon="6.78423">
        <ele>1712</ele>
        <time>2026-08-14T04:26:52.376Z</time>
      </trkpt>
      <trkpt lat="45.86688" lon="6.78424">
        <ele>1711</ele>
        <time>2026-08-14T04:26:53.376Z</time>
      </trkpt>
      <trkpt lat="45.86687" lon="6.78424">
        <ele>1711</ele>
        <time>2026-08-14T04:26:54.376Z</time>
      </trkpt>
      <trkpt lat="45.86687" lon="6.78425">
        <ele>1711</ele>
        <time>2026-08-14T04:26:55.376Z</time>
      </trkpt>
      <trkpt lat="45.86686" lon="6.78425">
        <ele>1711</ele>
        <time>2026-08-14T04:26:56.376Z</time>
      </trkpt>
      <trkpt lat="45.86685" lon="6.78426">
        <ele>1711</ele>
        <time>2026-08-14T04:26:57.376Z</time>
      </trkpt>
      <trkpt lat="45.86685" lon="6.78426">
        <ele>1711</ele>
        <time>2026-08-14T04:26:58.376Z</time>
      </trkpt>
      <trkpt lat="45.86684" lon="6.78426">
        <ele>1710</ele>
        <time>2026-08-14T04:26:59.376Z</time>
      </trkpt>
      <trkpt lat="45.86684" lon="6.78425">
        <ele>1710</ele>
        <time>2026-08-14T04:27:00.376Z</time>
      </trkpt>
      <trkpt lat="45.86683" lon="6.78425">
        <ele>1709</ele>
        <time>2026-08-14T04:27:01.376Z</time>
      </trkpt>
      <trkpt lat="45.86683" lon="6.78426">
        <ele>1709</ele>
        <time>2026-08-14T04:27:02.376Z</time>
      </trkpt>
      <trkpt lat="45.86682" lon="6.78427">
        <ele>1709</ele>
        <time>2026-08-14T04:27:03.376Z</time>
      </trkpt>
      <trkpt lat="45.86682" lon="6.78428">
        <ele>1709</ele>
        <time>2026-08-14T04:27:04.376Z</time>
      </trkpt>
      <trkpt lat="45.86682" lon="6.78429">
        <ele>1708</ele>
        <time>2026-08-14T04:27:05.376Z</time>
      </trkpt>
      <trkpt lat="45.86681" lon="6.78429">
        <ele>1708</ele>
        <time>2026-08-14T04:27:06.376Z</time>
      </trkpt>
      <trkpt lat="45.8668" lon="6.78429">
        <ele>1708</ele>
        <time>2026-08-14T04:27:07.376Z</time>
      </trkpt>
      <trkpt lat="45.8668" lon="6.78429">
        <ele>1708</ele>
        <time>2026-08-14T04:27:08.376Z</time>
      </trkpt>
      <trkpt lat="45.86679" lon="6.78429">
        <ele>1709</ele>
        <time>2026-08-14T04:27:09.376Z</time>
      </trkpt>
      <trkpt lat="45.86679" lon="6.7843">
        <ele>1709</ele>
        <time>2026-08-14T04:27:10.376Z</time>
      </trkpt>
      <trkpt lat="45.86678" lon="6.7843">
        <ele>1709</ele>
        <time>2026-08-14T04:27:11.376Z</time>
      </trkpt>
      <trkpt lat="45.86677" lon="6.78431">
        <ele>1710</ele>
        <time>2026-08-14T04:27:12.376Z</time>
      </trkpt>
      <trkpt lat="45.86677" lon="6.78431">
        <ele>1711</ele>
        <time>2026-08-14T04:27:13.376Z</time>
      </trkpt>
      <trkpt lat="45.86676" lon="6.78431">
        <ele>1711</ele>
        <time>2026-08-14T04:27:14.376Z</time>
      </trkpt>
      <trkpt lat="45.86675" lon="6.78432">
        <ele>1712</ele>
        <time>2026-08-14T04:27:15.376Z</time>
      </trkpt>
      <trkpt lat="45.86674" lon="6.78431">
        <ele>1712</ele>
        <time>2026-08-14T04:27:16.376Z</time>
      </trkpt>
      <trkpt lat="45.86673" lon="6.78432">
        <ele>1713</ele>
        <time>2026-08-14T04:27:17.376Z</time>
      </trkpt>
      <trkpt lat="45.86673" lon="6.78432">
        <ele>1713</ele>
        <time>2026-08-14T04:27:18.376Z</time>
      </trkpt>
      <trkpt lat="45.86672" lon="6.78433">
        <ele>1714</ele>
        <time>2026-08-14T04:27:19.376Z</time>
      </trkpt>
      <trkpt lat="45.86672" lon="6.78432">
        <ele>1714</ele>
        <time>2026-08-14T04:27:20.376Z</time>
      </trkpt>
      <trkpt lat="45.86671" lon="6.78432">
        <ele>1715</ele>
        <time>2026-08-14T04:27:21.376Z</time>
      </trkpt>
      <trkpt lat="45.86671" lon="6.78431">
        <ele>1715</ele>
        <time>2026-08-14T04:27:22.376Z</time>
      </trkpt>
      <trkpt lat="45.86671" lon="6.78432">
        <ele>1716</ele>
        <time>2026-08-14T04:27:23.376Z</time>
      </trkpt>
      <trkpt lat="45.86671" lon="6.78432">
        <ele>1717</ele>
        <time>2026-08-14T04:27:24.376Z</time>
      </trkpt>
      <trkpt lat="45.8667" lon="6.78433">
        <ele>1717</ele>
        <time>2026-08-14T04:27:25.376Z</time>
      </trkpt>
      <trkpt lat="45.8667" lon="6.78433">
        <ele>1717</ele>
        <time>2026-08-14T04:27:26.376Z</time>
      </trkpt>
      <trkpt lat="45.8667" lon="6.78434">
        <ele>1718</ele>
        <time>2026-08-14T04:27:27.376Z</time>
      </trkpt>
      <trkpt lat="45.86669" lon="6.78434">
        <ele>1718</ele>
        <time>2026-08-14T04:27:28.376Z</time>
      </trkpt>
      <trkpt lat="45.86669" lon="6.78434">
        <ele>1719</ele>
        <time>2026-08-14T04:27:29.376Z</time>
      </trkpt>
      <trkpt lat="45.86669" lon="6.78435">
        <ele>1719</ele>
        <time>2026-08-14T04:27:30.376Z</time>
      </trkpt>
      <trkpt lat="45.86671" lon="6.78436">
        <ele>1719</ele>
        <time>2026-08-14T04:27:31.376Z</time>
      </trkpt>
      <trkpt lat="45.86672" lon="6.78437">
        <ele>1719</ele>
        <time>2026-08-14T04:27:32.376Z</time>
      </trkpt>
      <trkpt lat="45.86673" lon="6.78438">
        <ele>1720</ele>
        <time>2026-08-14T04:27:33.376Z</time>
      </trkpt>
      <trkpt lat="45.86673" lon="6.78438">
        <ele>1720</ele>
        <time>2026-08-14T04:27:34.376Z</time>
      </trkpt>
      <trkpt lat="45.86673" lon="6.78439">
        <ele>1721</ele>
        <time>2026-08-14T04:27:35.376Z</time>
      </trkpt>
      <trkpt lat="45.86673" lon="6.78439">
        <ele>1721</ele>
        <time>2026-08-14T04:27:36.376Z</time>
      </trkpt>
      <trkpt lat="45.86673" lon="6.78439">
        <ele>1721</ele>
        <time>2026-08-14T04:27:37.376Z</time>
      </trkpt>
      <trkpt lat="45.86673" lon="6.7844">
        <ele>1722</ele>
        <time>2026-08-14T04:27:38.376Z</time>
      </trkpt>
      <trkpt lat="45.86672" lon="6.7844">
        <ele>1722</ele>
        <time>2026-08-14T04:27:39.376Z</time>
      </trkpt>
      <trkpt lat="45.86672" lon="6.7844">
        <ele>1723</ele>
        <time>2026-08-14T04:27:40.376Z</time>
      </trkpt>
      <trkpt lat="45.86672" lon="6.7844">
        <ele>1723</ele>
        <time>2026-08-14T04:27:41.376Z</time>
      </trkpt>
      <trkpt lat="45.86672" lon="6.7844">
        <ele>1724</ele>
        <time>2026-08-14T04:27:42.376Z</time>
      </trkpt>
      <trkpt lat="45.86672" lon="6.78441">
        <ele>1724</ele>
        <time>2026-08-14T04:27:43.376Z</time>
      </trkpt>
      <trkpt lat="45.86671" lon="6.78441">
        <ele>1725</ele>
        <time>2026-08-14T04:27:44.376Z</time>
      </trkpt>
      <trkpt lat="45.8667" lon="6.78441">
        <ele>1725</ele>
        <time>2026-08-14T04:27:45.376Z</time>
      </trkpt>
      <trkpt lat="45.8667" lon="6.78441">
        <ele>1725</ele>
        <time>2026-08-14T04:27:46.376Z</time>
      </trkpt>
      <trkpt lat="45.86669" lon="6.78441">
        <ele>1725</ele>
        <time>2026-08-14T04:27:47.376Z</time>
      </trkpt>
      <trkpt lat="45.86669" lon="6.78441">
        <ele>1725</ele>
        <time>2026-08-14T04:27:48.376Z</time>
      </trkpt>
      <trkpt lat="45.86668" lon="6.78441">
        <ele>1725</ele>
        <time>2026-08-14T04:27:49.376Z</time>
      </trkpt>
      <trkpt lat="45.86668" lon="6.78441">
        <ele>1725</ele>
        <time>2026-08-14T04:27:50.376Z</time>
      </trkpt>
      <trkpt lat="45.86668" lon="6.78442">
        <ele>1726</ele>
        <time>2026-08-14T04:27:51.376Z</time>
      </trkpt>
      <trkpt lat="45.86668" lon="6.78442">
        <ele>1726</ele>
        <time>2026-08-14T04:27:52.376Z</time>
      </trkpt>
      <trkpt lat="45.86667" lon="6.78443">
        <ele>1726</ele>
        <time>2026-08-14T04:27:53.376Z</time>
      </trkpt>
      <trkpt lat="45.86667" lon="6.78444">
        <ele>1726</ele>
        <time>2026-08-14T04:27:54.376Z</time>
      </trkpt>
      <trkpt lat="45.86666" lon="6.78444">
        <ele>1727</ele>
        <time>2026-08-14T04:27:55.376Z</time>
      </trkpt>
      <trkpt lat="45.86666" lon="6.78445">
        <ele>1727</ele>
        <time>2026-08-14T04:27:56.376Z</time>
      </trkpt>
      <trkpt lat="45.86665" lon="6.78446">
        <ele>1727</ele>
        <time>2026-08-14T04:27:57.376Z</time>
      </trkpt>
      <trkpt lat="45.86665" lon="6.78446">
        <ele>1727</ele>
        <time>2026-08-14T04:27:58.376Z</time>
      </trkpt>
      <trkpt lat="45.86665" lon="6.78447">
        <ele>1727</ele>
        <time>2026-08-14T04:27:59.376Z</time>
      </trkpt>
      <trkpt lat="45.86665" lon="6.78447">
        <ele>1727</ele>
        <time>2026-08-14T04:28:00.376Z</time>
      </trkpt>
      <trkpt lat="45.86664" lon="6.78448">
        <ele>1727</ele>
        <time>2026-08-14T04:28:01.376Z</time>
      </trkpt>
      <trkpt lat="45.86663" lon="6.78448">
        <ele>1727</ele>
        <time>2026-08-14T04:28:02.376Z</time>
      </trkpt>
      <trkpt lat="45.86663" lon="6.78448">
        <ele>1727</ele>
        <time>2026-08-14T04:28:03.376Z</time>
      </trkpt>
      <trkpt lat="45.86661" lon="6.78447">
        <ele>1727</ele>
        <time>2026-08-14T04:28:04.376Z</time>
      </trkpt>
      <trkpt lat="45.8666" lon="6.78447">
        <ele>1727</ele>
        <time>2026-08-14T04:28:05.376Z</time>
      </trkpt>
      <trkpt lat="45.86659" lon="6.78448">
        <ele>1727</ele>
        <time>2026-08-14T04:28:06.376Z</time>
      </trkpt>
      <trkpt lat="45.86659" lon="6.78449">
        <ele>1727</ele>
        <time>2026-08-14T04:28:07.376Z</time>
      </trkpt>
      <trkpt lat="45.86659" lon="6.7845">
        <ele>1727</ele>
        <time>2026-08-14T04:28:08.376Z</time>
      </trkpt>
      <trkpt lat="45.86658" lon="6.78451">
        <ele>1727</ele>
        <time>2026-08-14T04:28:09.376Z</time>
      </trkpt>
      <trkpt lat="45.86657" lon="6.78451">
        <ele>1727</ele>
        <time>2026-08-14T04:28:10.376Z</time>
      </trkpt>
      <trkpt lat="45.86657" lon="6.78452">
        <ele>1727</ele>
        <time>2026-08-14T04:28:11.376Z</time>
      </trkpt>
      <trkpt lat="45.86656" lon="6.78453">
        <ele>1727</ele>
        <time>2026-08-14T04:28:12.376Z</time>
      </trkpt>
      <trkpt lat="45.86656" lon="6.78454">
        <ele>1727</ele>
        <time>2026-08-14T04:28:13.376Z</time>
      </trkpt>
      <trkpt lat="45.86656" lon="6.78454">
        <ele>1726</ele>
        <time>2026-08-14T04:28:14.376Z</time>
      </trkpt>
      <trkpt lat="45.86656" lon="6.78454">
        <ele>1726</ele>
        <time>2026-08-14T04:28:15.376Z</time>
      </trkpt>
      <trkpt lat="45.86655" lon="6.78453">
        <ele>1726</ele>
        <time>2026-08-14T04:28:16.376Z</time>
      </trkpt>
      <trkpt lat="45.86655" lon="6.78453">
        <ele>1726</ele>
        <time>2026-08-14T04:28:17.376Z</time>
      </trkpt>
      <trkpt lat="45.86655" lon="6.78453">
        <ele>1726</ele>
        <time>2026-08-14T04:28:18.376Z</time>
      </trkpt>
      <trkpt lat="45.86655" lon="6.78453">
        <ele>1725</ele>
        <time>2026-08-14T04:28:19.376Z</time>
      </trkpt>
      <trkpt lat="45.86655" lon="6.78453">
        <ele>1725</ele>
        <time>2026-08-14T04:28:20.376Z</time>
      </trkpt>
      <trkpt lat="45.86655" lon="6.78453">
        <ele>1725</ele>
        <time>2026-08-14T04:28:21.376Z</time>
      </trkpt>
      <trkpt lat="45.86655" lon="6.78453">
        <ele>1725</ele>
        <time>2026-08-14T04:28:22.376Z</time>
      </trkpt>
      <trkpt lat="45.86656" lon="6.78453">
        <ele>1725</ele>
        <time>2026-08-14T04:28:23.376Z</time>
      </trkpt>
      <trkpt lat="45.86657" lon="6.78453">
        <ele>1725</ele>
        <time>2026-08-14T04:28:24.376Z</time>
      </trkpt>
      <trkpt lat="45.86657" lon="6.78454">
        <ele>1725</ele>
        <time>2026-08-14T04:28:25.376Z</time>
      </trkpt>
      <trkpt lat="45.86658" lon="6.78455">
        <ele>1725</ele>
        <time>2026-08-14T04:28:26.376Z</time>
      </trkpt>
      <trkpt lat="45.86659" lon="6.78455">
        <ele>1724</ele>
        <time>2026-08-14T04:28:27.376Z</time>
      </trkpt>
      <trkpt lat="45.8666" lon="6.78455">
        <ele>1724</ele>
        <time>2026-08-14T04:28:28.376Z</time>
      </trkpt>
      <trkpt lat="45.8666" lon="6.78455">
        <ele>1724</ele>
        <time>2026-08-14T04:28:29.376Z</time>
      </trkpt>
      <trkpt lat="45.86661" lon="6.78456">
        <ele>1724</ele>
        <time>2026-08-14T04:28:30.376Z</time>
      </trkpt>
      <trkpt lat="45.86661" lon="6.78456">
        <ele>1723</ele>
        <time>2026-08-14T04:28:31.376Z</time>
      </trkpt>
      <trkpt lat="45.86661" lon="6.78457">
        <ele>1723</ele>
        <time>2026-08-14T04:28:32.376Z</time>
      </trkpt>
      <trkpt lat="45.86662" lon="6.78458">
        <ele>1724</ele>
        <time>2026-08-14T04:28:33.376Z</time>
      </trkpt>
      <trkpt lat="45.86663" lon="6.78458">
        <ele>1724</ele>
        <time>2026-08-14T04:28:34.376Z</time>
      </trkpt>
      <trkpt lat="45.86663" lon="6.78459">
        <ele>1725</ele>
        <time>2026-08-14T04:28:35.376Z</time>
      </trkpt>
      <trkpt lat="45.86664" lon="6.78461">
        <ele>1725</ele>
        <time>2026-08-14T04:28:36.376Z</time>
      </trkpt>
      <trkpt lat="45.86665" lon="6.78462">
        <ele>1725</ele>
        <time>2026-08-14T04:28:37.376Z</time>
      </trkpt>
      <trkpt lat="45.86665" lon="6.78463">
        <ele>1725</ele>
        <time>2026-08-14T04:28:38.376Z</time>
      </trkpt>
      <trkpt lat="45.86664" lon="6.78464">
        <ele>1726</ele>
        <time>2026-08-14T04:28:39.376Z</time>
      </trkpt>
      <trkpt lat="45.86664" lon="6.78465">
        <ele>1726</ele>
        <time>2026-08-14T04:28:40.376Z</time>
      </trkpt>
      <trkpt lat="45.86663" lon="6.78465">
        <ele>1726</ele>
        <time>2026-08-14T04:28:41.376Z</time>
      </trkpt>
      <trkpt lat="45.86662" lon="6.78466">
        <ele>1727</ele>
        <time>2026-08-14T04:28:42.376Z</time>
      </trkpt>
      <trkpt lat="45.86662" lon="6.78467">
        <ele>1728</ele>
        <time>2026-08-14T04:28:43.376Z</time>
      </trkpt>
      <trkpt lat="45.86661" lon="6.78468">
        <ele>1728</ele>
        <time>2026-08-14T04:28:44.376Z</time>
      </trkpt>
      <trkpt lat="45.8666" lon="6.78469">
        <ele>1729</ele>
        <time>2026-08-14T04:28:45.376Z</time>
      </trkpt>
      <trkpt lat="45.8666" lon="6.78469">
        <ele>1730</ele>
        <time>2026-08-14T04:28:46.376Z</time>
      </trkpt>
      <trkpt lat="45.8666" lon="6.7847">
        <ele>1730</ele>
        <time>2026-08-14T04:28:47.376Z</time>
      </trkpt>
      <trkpt lat="45.8666" lon="6.7847">
        <ele>1731</ele>
        <time>2026-08-14T04:28:48.376Z</time>
      </trkpt>
      <trkpt lat="45.86659" lon="6.78469">
        <ele>1732</ele>
        <time>2026-08-14T04:28:49.376Z</time>
      </trkpt>
      <trkpt lat="45.86659" lon="6.78469">
        <ele>1733</ele>
        <time>2026-08-14T04:28:50.376Z</time>
      </trkpt>
      <trkpt lat="45.86659" lon="6.78469">
        <ele>1733</ele>
        <time>2026-08-14T04:28:51.376Z</time>
      </trkpt>
      <trkpt lat="45.86658" lon="6.78469">
        <ele>1734</ele>
        <time>2026-08-14T04:28:52.376Z</time>
      </trkpt>
      <trkpt lat="45.86657" lon="6.78469">
        <ele>1734</ele>
        <time>2026-08-14T04:28:53.376Z</time>
      </trkpt>
      <trkpt lat="45.86657" lon="6.7847">
        <ele>1735</ele>
        <time>2026-08-14T04:28:54.376Z</time>
      </trkpt>
      <trkpt lat="45.86657" lon="6.78471">
        <ele>1735</ele>
        <time>2026-08-14T04:28:55.376Z</time>
      </trkpt>
      <trkpt lat="45.86657" lon="6.78472">
        <ele>1735</ele>
        <time>2026-08-14T04:28:56.376Z</time>
      </trkpt>
      <trkpt lat="45.86657" lon="6.78472">
        <ele>1736</ele>
        <time>2026-08-14T04:28:57.376Z</time>
      </trkpt>
      <trkpt lat="45.86656" lon="6.78472">
        <ele>1736</ele>
        <time>2026-08-14T04:28:58.376Z</time>
      </trkpt>
      <trkpt lat="45.86656" lon="6.78471">
        <ele>1736</ele>
        <time>2026-08-14T04:28:59.376Z</time>
      </trkpt>
      <trkpt lat="45.86656" lon="6.78471">
        <ele>1737</ele>
        <time>2026-08-14T04:29:00.376Z</time>
      </trkpt>
      <trkpt lat="45.86656" lon="6.78472">
        <ele>1737</ele>
        <time>2026-08-14T04:29:01.376Z</time>
      </trkpt>
      <trkpt lat="45.86655" lon="6.78472">
        <ele>1737</ele>
        <time>2026-08-14T04:29:02.376Z</time>
      </trkpt>
      <trkpt lat="45.86654" lon="6.78473">
        <ele>1737</ele>
        <time>2026-08-14T04:29:03.376Z</time>
      </trkpt>
      <trkpt lat="45.86653" lon="6.78473">
        <ele>1737</ele>
        <time>2026-08-14T04:29:04.376Z</time>
      </trkpt>
      <trkpt lat="45.86652" lon="6.78474">
        <ele>1737</ele>
        <time>2026-08-14T04:29:05.376Z</time>
      </trkpt>
      <trkpt lat="45.86651" lon="6.78474">
        <ele>1737</ele>
        <time>2026-08-14T04:29:06.376Z</time>
      </trkpt>
      <trkpt lat="45.8665" lon="6.78475">
        <ele>1738</ele>
        <time>2026-08-14T04:29:07.376Z</time>
      </trkpt>
      <trkpt lat="45.86649" lon="6.78475">
        <ele>1738</ele>
        <time>2026-08-14T04:29:08.376Z</time>
      </trkpt>
      <trkpt lat="45.86648" lon="6.78475">
        <ele>1738</ele>
        <time>2026-08-14T04:29:09.376Z</time>
      </trkpt>
      <trkpt lat="45.86647" lon="6.78476">
        <ele>1738</ele>
        <time>2026-08-14T04:29:10.376Z</time>
      </trkpt>
      <trkpt lat="45.86646" lon="6.78476">
        <ele>1739</ele>
        <time>2026-08-14T04:29:11.376Z</time>
      </trkpt>
      <trkpt lat="45.86645" lon="6.78476">
        <ele>1739</ele>
        <time>2026-08-14T04:29:12.376Z</time>
      </trkpt>
      <trkpt lat="45.86644" lon="6.78476">
        <ele>1740</ele>
        <time>2026-08-14T04:29:13.376Z</time>
      </trkpt>
      <trkpt lat="45.86643" lon="6.78476">
        <ele>1741</ele>
        <time>2026-08-14T04:29:14.376Z</time>
      </trkpt>
      <trkpt lat="45.86642" lon="6.78475">
        <ele>1741</ele>
        <time>2026-08-14T04:29:15.376Z</time>
      </trkpt>
      <trkpt lat="45.86642" lon="6.78476">
        <ele>1742</ele>
        <time>2026-08-14T04:29:16.376Z</time>
      </trkpt>
      <trkpt lat="45.86642" lon="6.78477">
        <ele>1743</ele>
        <time>2026-08-14T04:29:17.376Z</time>
      </trkpt>
      <trkpt lat="45.86642" lon="6.78478">
        <ele>1743</ele>
        <time>2026-08-14T04:29:18.376Z</time>
      </trkpt>
      <trkpt lat="45.86642" lon="6.78478">
        <ele>1744</ele>
        <time>2026-08-14T04:29:19.376Z</time>
      </trkpt>
      <trkpt lat="45.86641" lon="6.78479">
        <ele>1744</ele>
        <time>2026-08-14T04:29:20.376Z</time>
      </trkpt>
      <trkpt lat="45.86641" lon="6.7848">
        <ele>1744</ele>
        <time>2026-08-14T04:29:21.376Z</time>
      </trkpt>
      <trkpt lat="45.8664" lon="6.78481">
        <ele>1745</ele>
        <time>2026-08-14T04:29:22.376Z</time>
      </trkpt>
      <trkpt lat="45.86639" lon="6.78481">
        <ele>1745</ele>
        <time>2026-08-14T04:29:23.376Z</time>
      </trkpt>
      <trkpt lat="45.86637" lon="6.78481">
        <ele>1745</ele>
        <time>2026-08-14T04:29:24.376Z</time>
      </trkpt>
      <trkpt lat="45.86637" lon="6.78482">
        <ele>1745</ele>
        <time>2026-08-14T04:29:25.376Z</time>
      </trkpt>
      <trkpt lat="45.86636" lon="6.78483">
        <ele>1745</ele>
        <time>2026-08-14T04:29:26.376Z</time>
      </trkpt>
      <trkpt lat="45.86635" lon="6.78483">
        <ele>1746</ele>
        <time>2026-08-14T04:29:27.376Z</time>
      </trkpt>
      <trkpt lat="45.86634" lon="6.78485">
        <ele>1746</ele>
        <time>2026-08-14T04:29:28.376Z</time>
      </trkpt>
      <trkpt lat="45.86634" lon="6.78486">
        <ele>1746</ele>
        <time>2026-08-14T04:29:29.376Z</time>
      </trkpt>
      <trkpt lat="45.86633" lon="6.78487">
        <ele>1747</ele>
        <time>2026-08-14T04:29:30.376Z</time>
      </trkpt>
      <trkpt lat="45.86632" lon="6.78488">
        <ele>1747</ele>
        <time>2026-08-14T04:29:31.376Z</time>
      </trkpt>
      <trkpt lat="45.86631" lon="6.78489">
        <ele>1748</ele>
        <time>2026-08-14T04:29:32.376Z</time>
      </trkpt>
      <trkpt lat="45.8663" lon="6.7849">
        <ele>1748</ele>
        <time>2026-08-14T04:29:33.376Z</time>
      </trkpt>
      <trkpt lat="45.86631" lon="6.78491">
        <ele>1748</ele>
        <time>2026-08-14T04:29:34.376Z</time>
      </trkpt>
      <trkpt lat="45.86631" lon="6.78492">
        <ele>1749</ele>
        <time>2026-08-14T04:29:35.376Z</time>
      </trkpt>
      <trkpt lat="45.86631" lon="6.78492">
        <ele>1749</ele>
        <time>2026-08-14T04:29:36.376Z</time>
      </trkpt>
      <trkpt lat="45.8663" lon="6.78493">
        <ele>1749</ele>
        <time>2026-08-14T04:29:37.376Z</time>
      </trkpt>
      <trkpt lat="45.8663" lon="6.78494">
        <ele>1749</ele>
        <time>2026-08-14T04:29:38.376Z</time>
      </trkpt>
      <trkpt lat="45.8663" lon="6.78495">
        <ele>1749</ele>
        <time>2026-08-14T04:29:39.376Z</time>
      </trkpt>
      <trkpt lat="45.8663" lon="6.78496">
        <ele>1749</ele>
        <time>2026-08-14T04:29:40.376Z</time>
      </trkpt>
      <trkpt lat="45.86631" lon="6.78496">
        <ele>1749</ele>
        <time>2026-08-14T04:29:41.376Z</time>
      </trkpt>
      <trkpt lat="45.86631" lon="6.78495">
        <ele>1748</ele>
        <time>2026-08-14T04:29:42.376Z</time>
      </trkpt>
      <trkpt lat="45.86631" lon="6.78495">
        <ele>1748</ele>
        <time>2026-08-14T04:29:43.376Z</time>
      </trkpt>
      <trkpt lat="45.86632" lon="6.78494">
        <ele>1748</ele>
        <time>2026-08-14T04:29:44.376Z</time>
      </trkpt>
      <trkpt lat="45.86632" lon="6.78494">
        <ele>1748</ele>
        <time>2026-08-14T04:29:45.376Z</time>
      </trkpt>
      <trkpt lat="45.86633" lon="6.78493">
        <ele>1748</ele>
        <time>2026-08-14T04:29:46.376Z</time>
      </trkpt>
      <trkpt lat="45.86634" lon="6.78493">
        <ele>1748</ele>
        <time>2026-08-14T04:29:47.376Z</time>
      </trkpt>
      <trkpt lat="45.86635" lon="6.78493">
        <ele>1747</ele>
        <time>2026-08-14T04:29:48.376Z</time>
      </trkpt>
      <trkpt lat="45.86635" lon="6.78492">
        <ele>1747</ele>
        <time>2026-08-14T04:29:49.376Z</time>
      </trkpt>
      <trkpt lat="45.86636" lon="6.78492">
        <ele>1746</ele>
        <time>2026-08-14T04:29:50.376Z</time>
      </trkpt>
      <trkpt lat="45.86636" lon="6.78491">
        <ele>1746</ele>
        <time>2026-08-14T04:29:51.376Z</time>
      </trkpt>
      <trkpt lat="45.86636" lon="6.7849">
        <ele>1747</ele>
        <time>2026-08-14T04:29:52.376Z</time>
      </trkpt>
      <trkpt lat="45.86636" lon="6.78491">
        <ele>1747</ele>
        <time>2026-08-14T04:29:53.376Z</time>
      </trkpt>
      <trkpt lat="45.86636" lon="6.78491">
        <ele>1747</ele>
        <time>2026-08-14T04:29:54.376Z</time>
      </trkpt>
      <trkpt lat="45.86637" lon="6.78492">
        <ele>1747</ele>
        <time>2026-08-14T04:29:55.376Z</time>
      </trkpt>
      <trkpt lat="45.86637" lon="6.78492">
        <ele>1747</ele>
        <time>2026-08-14T04:29:56.376Z</time>
      </trkpt>
      <trkpt lat="45.86637" lon="6.78492">
        <ele>1747</ele>
        <time>2026-08-14T04:29:57.376Z</time>
      </trkpt>
      <trkpt lat="45.86637" lon="6.78492">
        <ele>1747</ele>
        <time>2026-08-14T04:29:58.376Z</time>
      </trkpt>
      <trkpt lat="45.86637" lon="6.78493">
        <ele>1748</ele>
        <time>2026-08-14T04:29:59.376Z</time>
      </trkpt>
      <trkpt lat="45.86637" lon="6.78493">
        <ele>1748</ele>
        <time>2026-08-14T04:30:00.376Z</time>
      </trkpt>
      <trkpt lat="45.86638" lon="6.78495">
        <ele>1748</ele>
        <time>2026-08-14T04:30:01.376Z</time>
      </trkpt>
      <trkpt lat="45.86639" lon="6.78496">
        <ele>1749</ele>
        <time>2026-08-14T04:30:02.376Z</time>
      </trkpt>
      <trkpt lat="45.8664" lon="6.78497">
        <ele>1749</ele>
        <time>2026-08-14T04:30:03.376Z</time>
      </trkpt>
      <trkpt lat="45.8664" lon="6.78497">
        <ele>1750</ele>
        <time>2026-08-14T04:30:04.376Z</time>
      </trkpt>
      <trkpt lat="45.8664" lon="6.78497">
        <ele>1750</ele>
        <time>2026-08-14T04:30:05.376Z</time>
      </trkpt>
      <trkpt lat="45.8664" lon="6.78498">
        <ele>1751</ele>
        <time>2026-08-14T04:30:06.376Z</time>
      </trkpt>
      <trkpt lat="45.8664" lon="6.78498">
        <ele>1752</ele>
        <time>2026-08-14T04:30:07.376Z</time>
      </trkpt>
      <trkpt lat="45.8664" lon="6.785">
        <ele>1752</ele>
        <time>2026-08-14T04:30:08.376Z</time>
      </trkpt>
      <trkpt lat="45.8664" lon="6.78501">
        <ele>1753</ele>
        <time>2026-08-14T04:30:09.376Z</time>
      </trkpt>
      <trkpt lat="45.86639" lon="6.78502">
        <ele>1753</ele>
        <time>2026-08-14T04:30:10.376Z</time>
      </trkpt>
      <trkpt lat="45.86639" lon="6.78502">
        <ele>1754</ele>
        <time>2026-08-14T04:30:11.376Z</time>
      </trkpt>
      <trkpt lat="45.86638" lon="6.78503">
        <ele>1754</ele>
        <time>2026-08-14T04:30:12.376Z</time>
      </trkpt>
      <trkpt lat="45.86638" lon="6.78503">
        <ele>1755</ele>
        <time>2026-08-14T04:30:13.376Z</time>
      </trkpt>
      <trkpt lat="45.86637" lon="6.78503">
        <ele>1755</ele>
        <time>2026-08-14T04:30:14.376Z</time>
      </trkpt>
      <trkpt lat="45.86637" lon="6.78503">
        <ele>1756</ele>
        <time>2026-08-14T04:30:15.376Z</time>
      </trkpt>
      <trkpt lat="45.86636" lon="6.78503">
        <ele>1756</ele>
        <time>2026-08-14T04:30:16.376Z</time>
      </trkpt>
      <trkpt lat="45.86636" lon="6.78503">
        <ele>1756</ele>
        <time>2026-08-14T04:30:17.376Z</time>
      </trkpt>
      <trkpt lat="45.86636" lon="6.78503">
        <ele>1757</ele>
        <time>2026-08-14T04:30:18.376Z</time>
      </trkpt>
      <trkpt lat="45.86635" lon="6.78504">
        <ele>1758</ele>
        <time>2026-08-14T04:30:19.376Z</time>
      </trkpt>
      <trkpt lat="45.86635" lon="6.78504">
        <ele>1759</ele>
        <time>2026-08-14T04:30:20.376Z</time>
      </trkpt>
      <trkpt lat="45.86635" lon="6.78505">
        <ele>1759</ele>
        <time>2026-08-14T04:30:21.376Z</time>
      </trkpt>
      <trkpt lat="45.86635" lon="6.78506">
        <ele>1760</ele>
        <time>2026-08-14T04:30:22.376Z</time>
      </trkpt>
      <trkpt lat="45.86635" lon="6.78507">
        <ele>1760</ele>
        <time>2026-08-14T04:30:23.376Z</time>
      </trkpt>
      <trkpt lat="45.86635" lon="6.78507">
        <ele>1761</ele>
        <time>2026-08-14T04:30:24.376Z</time>
      </trkpt>
      <trkpt lat="45.86634" lon="6.78508">
        <ele>1761</ele>
        <time>2026-08-14T04:30:25.376Z</time>
      </trkpt>
      <trkpt lat="45.86634" lon="6.78509">
        <ele>1762</ele>
        <time>2026-08-14T04:30:26.376Z</time>
      </trkpt>
      <trkpt lat="45.86633" lon="6.7851">
        <ele>1762</ele>
        <time>2026-08-14T04:30:27.376Z</time>
      </trkpt>
      <trkpt lat="45.86632" lon="6.78509">
        <ele>1763</ele>
        <time>2026-08-14T04:30:28.376Z</time>
      </trkpt>
      <trkpt lat="45.86631" lon="6.7851">
        <ele>1764</ele>
        <time>2026-08-14T04:30:29.376Z</time>
      </trkpt>
      <trkpt lat="45.8663" lon="6.78511">
        <ele>1764</ele>
        <time>2026-08-14T04:30:30.376Z</time>
      </trkpt>
      <trkpt lat="45.8663" lon="6.78512">
        <ele>1764</ele>
        <time>2026-08-14T04:30:31.376Z</time>
      </trkpt>
      <trkpt lat="45.86629" lon="6.78512">
        <ele>1764</ele>
        <time>2026-08-14T04:30:32.376Z</time>
      </trkpt>
      <trkpt lat="45.86629" lon="6.78512">
        <ele>1764</ele>
        <time>2026-08-14T04:30:33.376Z</time>
      </trkpt>
      <trkpt lat="45.86629" lon="6.78513">
        <ele>1764</ele>
        <time>2026-08-14T04:30:34.376Z</time>
      </trkpt>
      <trkpt lat="45.86629" lon="6.78514">
        <ele>1764</ele>
        <time>2026-08-14T04:30:35.376Z</time>
      </trkpt>
      <trkpt lat="45.86629" lon="6.78515">
        <ele>1764</ele>
        <time>2026-08-14T04:30:36.376Z</time>
      </trkpt>
      <trkpt lat="45.86628" lon="6.78516">
        <ele>1764</ele>
        <time>2026-08-14T04:30:37.376Z</time>
      </trkpt>
      <trkpt lat="45.86627" lon="6.78517">
        <ele>1763</ele>
        <time>2026-08-14T04:30:38.376Z</time>
      </trkpt>
      <trkpt lat="45.86627" lon="6.78518">
        <ele>1763</ele>
        <time>2026-08-14T04:30:39.376Z</time>
      </trkpt>
      <trkpt lat="45.86627" lon="6.78518">
        <ele>1763</ele>
        <time>2026-08-14T04:30:40.376Z</time>
      </trkpt>
      <trkpt lat="45.86626" lon="6.78519">
        <ele>1762</ele>
        <time>2026-08-14T04:30:41.376Z</time>
      </trkpt>
      <trkpt lat="45.86626" lon="6.78519">
        <ele>1762</ele>
        <time>2026-08-14T04:30:42.376Z</time>
      </trkpt>
      <trkpt lat="45.86626" lon="6.7852">
        <ele>1762</ele>
        <time>2026-08-14T04:30:43.376Z</time>
      </trkpt>
      <trkpt lat="45.86626" lon="6.7852">
        <ele>1761</ele>
        <time>2026-08-14T04:30:44.376Z</time>
      </trkpt>
      <trkpt lat="45.86626" lon="6.7852">
        <ele>1761</ele>
        <time>2026-08-14T04:30:45.376Z</time>
      </trkpt>
      <trkpt lat="45.86626" lon="6.7852">
        <ele>1761</ele>
        <time>2026-08-14T04:30:46.376Z</time>
      </trkpt>
      <trkpt lat="45.86625" lon="6.78522">
        <ele>1760</ele>
        <time>2026-08-14T04:30:47.376Z</time>
      </trkpt>
      <trkpt lat="45.86625" lon="6.78522">
        <ele>1760</ele>
        <time>2026-08-14T04:30:48.376Z</time>
      </trkpt>
      <trkpt lat="45.86624" lon="6.78523">
        <ele>1760</ele>
        <time>2026-08-14T04:30:49.376Z</time>
      </trkpt>
      <trkpt lat="45.86624" lon="6.78523">
        <ele>1759</ele>
        <time>2026-08-14T04:30:50.376Z</time>
      </trkpt>
      <trkpt lat="45.86624" lon="6.78523">
        <ele>1759</ele>
        <time>2026-08-14T04:30:51.376Z</time>
      </trkpt>
      <trkpt lat="45.86623" lon="6.78524">
        <ele>1759</ele>
        <time>2026-08-14T04:30:52.376Z</time>
      </trkpt>
      <trkpt lat="45.86622" lon="6.78524">
        <ele>1759</ele>
        <time>2026-08-14T04:30:53.376Z</time>
      </trkpt>
      <trkpt lat="45.86621" lon="6.78525">
        <ele>1759</ele>
        <time>2026-08-14T04:30:54.376Z</time>
      </trkpt>
      <trkpt lat="45.86619" lon="6.78525">
        <ele>1759</ele>
        <time>2026-08-14T04:30:55.376Z</time>
      </trkpt>
      <trkpt lat="45.86618" lon="6.78525">
        <ele>1759</ele>
        <time>2026-08-14T04:30:56.376Z</time>
      </trkpt>
      <trkpt lat="45.86616" lon="6.78525">
        <ele>1759</ele>
        <time>2026-08-14T04:30:57.376Z</time>
      </trkpt>
      <trkpt lat="45.86614" lon="6.78525">
        <ele>1759</ele>
        <time>2026-08-14T04:30:58.376Z</time>
      </trkpt>
      <trkpt lat="45.86612" lon="6.78526">
        <ele>1759</ele>
        <time>2026-08-14T04:30:59.376Z</time>
      </trkpt>
      <trkpt lat="45.8661" lon="6.78527">
        <ele>1759</ele>
        <time>2026-08-14T04:31:00.376Z</time>
      </trkpt>
      <trkpt lat="45.86608" lon="6.78527">
        <ele>1760</ele>
        <time>2026-08-14T04:31:01.376Z</time>
      </trkpt>
      <trkpt lat="45.86607" lon="6.78527">
        <ele>1760</ele>
        <time>2026-08-14T04:31:02.376Z</time>
      </trkpt>
      <trkpt lat="45.86605" lon="6.78528">
        <ele>1760</ele>
        <time>2026-08-14T04:31:03.376Z</time>
      </trkpt>
      <trkpt lat="45.86603" lon="6.78529">
        <ele>1760</ele>
        <time>2026-08-14T04:31:04.376Z</time>
      </trkpt>
      <trkpt lat="45.86602" lon="6.78529">
        <ele>1761</ele>
        <time>2026-08-14T04:31:05.376Z</time>
      </trkpt>
      <trkpt lat="45.866" lon="6.78529">
        <ele>1761</ele>
        <time>2026-08-14T04:31:06.376Z</time>
      </trkpt>
      <trkpt lat="45.86599" lon="6.78529">
        <ele>1762</ele>
        <time>2026-08-14T04:31:07.376Z</time>
      </trkpt>
      <trkpt lat="45.86598" lon="6.7853">
        <ele>1763</ele>
        <time>2026-08-14T04:31:08.376Z</time>
      </trkpt>
      <trkpt lat="45.86597" lon="6.7853">
        <ele>1763</ele>
        <time>2026-08-14T04:31:09.376Z</time>
      </trkpt>
      <trkpt lat="45.86596" lon="6.7853">
        <ele>1763</ele>
        <time>2026-08-14T04:31:10.376Z</time>
      </trkpt>
      <trkpt lat="45.86595" lon="6.7853">
        <ele>1763</ele>
        <time>2026-08-14T04:31:11.376Z</time>
      </trkpt>
      <trkpt lat="45.86594" lon="6.78529">
        <ele>1763</ele>
        <time>2026-08-14T04:31:12.376Z</time>
      </trkpt>
      <trkpt lat="45.86593" lon="6.78529">
        <ele>1763</ele>
        <time>2026-08-14T04:31:13.376Z</time>
      </trkpt>
      <trkpt lat="45.86591" lon="6.78528">
        <ele>1763</ele>
        <time>2026-08-14T04:31:14.376Z</time>
      </trkpt>
      <trkpt lat="45.8659" lon="6.78527">
        <ele>1763</ele>
        <time>2026-08-14T04:31:15.376Z</time>
      </trkpt>
      <trkpt lat="45.86588" lon="6.78526">
        <ele>1763</ele>
        <time>2026-08-14T04:31:16.376Z</time>
      </trkpt>
      <trkpt lat="45.86587" lon="6.78525">
        <ele>1763</ele>
        <time>2026-08-14T04:31:17.376Z</time>
      </trkpt>
      <trkpt lat="45.86586" lon="6.78525">
        <ele>1763</ele>
        <time>2026-08-14T04:31:18.376Z</time>
      </trkpt>
      <trkpt lat="45.86584" lon="6.78525">
        <ele>1762</ele>
        <time>2026-08-14T04:31:19.376Z</time>
      </trkpt>
      <trkpt lat="45.86583" lon="6.78525">
        <ele>1762</ele>
        <time>2026-08-14T04:31:20.376Z</time>
      </trkpt>
      <trkpt lat="45.86582" lon="6.78525">
        <ele>1762</ele>
        <time>2026-08-14T04:31:21.376Z</time>
      </trkpt>
      <trkpt lat="45.86581" lon="6.78526">
        <ele>1762</ele>
        <time>2026-08-14T04:31:22.376Z</time>
      </trkpt>
      <trkpt lat="45.8658" lon="6.78526">
        <ele>1762</ele>
        <time>2026-08-14T04:31:23.376Z</time>
      </trkpt>
      <trkpt lat="45.86579" lon="6.78528">
        <ele>1762</ele>
        <time>2026-08-14T04:31:24.376Z</time>
      </trkpt>
      <trkpt lat="45.86578" lon="6.78529">
        <ele>1761</ele>
        <time>2026-08-14T04:31:25.376Z</time>
      </trkpt>
      <trkpt lat="45.86577" lon="6.78532">
        <ele>1761</ele>
        <time>2026-08-14T04:31:26.376Z</time>
      </trkpt>
      <trkpt lat="45.86576" lon="6.78533">
        <ele>1761</ele>
        <time>2026-08-14T04:31:27.376Z</time>
      </trkpt>
      <trkpt lat="45.86575" lon="6.78535">
        <ele>1761</ele>
        <time>2026-08-14T04:31:28.376Z</time>
      </trkpt>
      <trkpt lat="45.86574" lon="6.78537">
        <ele>1761</ele>
        <time>2026-08-14T04:31:29.376Z</time>
      </trkpt>
      <trkpt lat="45.86574" lon="6.78539">
        <ele>1760</ele>
        <time>2026-08-14T04:31:30.376Z</time>
      </trkpt>
      <trkpt lat="45.86574" lon="6.7854">
        <ele>1760</ele>
        <time>2026-08-14T04:31:31.376Z</time>
      </trkpt>
      <trkpt lat="45.86573" lon="6.78543">
        <ele>1759</ele>
        <time>2026-08-14T04:31:32.376Z</time>
      </trkpt>
      <trkpt lat="45.86573" lon="6.78545">
        <ele>1759</ele>
        <time>2026-08-14T04:31:33.376Z</time>
      </trkpt>
      <trkpt lat="45.86574" lon="6.78548">
        <ele>1759</ele>
        <time>2026-08-14T04:31:34.376Z</time>
      </trkpt>
      <trkpt lat="45.86574" lon="6.78551">
        <ele>1758</ele>
        <time>2026-08-14T04:31:35.376Z</time>
      </trkpt>
      <trkpt lat="45.86573" lon="6.78554">
        <ele>1758</ele>
        <time>2026-08-14T04:31:36.376Z</time>
      </trkpt>
      <trkpt lat="45.86573" lon="6.78556">
        <ele>1758</ele>
        <time>2026-08-14T04:31:37.376Z</time>
      </trkpt>
      <trkpt lat="45.86573" lon="6.78558">
        <ele>1758</ele>
        <time>2026-08-14T04:31:38.376Z</time>
      </trkpt>
      <trkpt lat="45.86573" lon="6.7856">
        <ele>1758</ele>
        <time>2026-08-14T04:31:39.376Z</time>
      </trkpt>
      <trkpt lat="45.86573" lon="6.78561">
        <ele>1758</ele>
        <time>2026-08-14T04:31:40.376Z</time>
      </trkpt>
      <trkpt lat="45.86573" lon="6.78562">
        <ele>1758</ele>
        <time>2026-08-14T04:31:41.376Z</time>
      </trkpt>
      <trkpt lat="45.86574" lon="6.78562">
        <ele>1758</ele>
        <time>2026-08-14T04:31:42.376Z</time>
      </trkpt>
      <trkpt lat="45.86574" lon="6.78564">
        <ele>1757</ele>
        <time>2026-08-14T04:31:43.376Z</time>
      </trkpt>
      <trkpt lat="45.86574" lon="6.78565">
        <ele>1757</ele>
        <time>2026-08-14T04:31:44.376Z</time>
      </trkpt>
      <trkpt lat="45.86575" lon="6.78567">
        <ele>1757</ele>
        <time>2026-08-14T04:31:45.376Z</time>
      </trkpt>
      <trkpt lat="45.86574" lon="6.78569">
        <ele>1757</ele>
        <time>2026-08-14T04:31:46.376Z</time>
      </trkpt>
      <trkpt lat="45.86573" lon="6.78572">
        <ele>1757</ele>
        <time>2026-08-14T04:31:47.376Z</time>
      </trkpt>
      <trkpt lat="45.86573" lon="6.78575">
        <ele>1758</ele>
        <time>2026-08-14T04:31:48.376Z</time>
      </trkpt>
      <trkpt lat="45.86572" lon="6.78578">
        <ele>1758</ele>
        <time>2026-08-14T04:31:49.376Z</time>
      </trkpt>
      <trkpt lat="45.86571" lon="6.78581">
        <ele>1757</ele>
        <time>2026-08-14T04:31:50.376Z</time>
      </trkpt>
      <trkpt lat="45.8657" lon="6.78584">
        <ele>1757</ele>
        <time>2026-08-14T04:31:51.376Z</time>
      </trkpt>
      <trkpt lat="45.86569" lon="6.78588">
        <ele>1757</ele>
        <time>2026-08-14T04:31:52.376Z</time>
      </trkpt>
      <trkpt lat="45.86568" lon="6.7859">
        <ele>1757</ele>
        <time>2026-08-14T04:31:53.376Z</time>
      </trkpt>
      <trkpt lat="45.86567" lon="6.78594">
        <ele>1757</ele>
        <time>2026-08-14T04:31:54.376Z</time>
      </trkpt>
      <trkpt lat="45.86566" lon="6.78597">
        <ele>1757</ele>
        <time>2026-08-14T04:31:55.376Z</time>
      </trkpt>
      <trkpt lat="45.86564" lon="6.78599">
        <ele>1757</ele>
        <time>2026-08-14T04:31:56.376Z</time>
      </trkpt>
      <trkpt lat="45.86563" lon="6.78602">
        <ele>1757</ele>
        <time>2026-08-14T04:31:57.376Z</time>
      </trkpt>
      <trkpt lat="45.86562" lon="6.78604">
        <ele>1757</ele>
        <time>2026-08-14T04:31:58.376Z</time>
      </trkpt>
      <trkpt lat="45.8656" lon="6.78606">
        <ele>1757</ele>
        <time>2026-08-14T04:31:59.376Z</time>
      </trkpt>
      <trkpt lat="45.86558" lon="6.78608">
        <ele>1757</ele>
        <time>2026-08-14T04:32:00.376Z</time>
      </trkpt>
      <trkpt lat="45.86557" lon="6.7861">
        <ele>1758</ele>
        <time>2026-08-14T04:32:01.376Z</time>
      </trkpt>
      <trkpt lat="45.86555" lon="6.78613">
        <ele>1758</ele>
        <time>2026-08-14T04:32:02.376Z</time>
      </trkpt>
      <trkpt lat="45.86555" lon="6.78615">
        <ele>1758</ele>
        <time>2026-08-14T04:32:03.376Z</time>
      </trkpt>
      <trkpt lat="45.86554" lon="6.78617">
        <ele>1758</ele>
        <time>2026-08-14T04:32:04.376Z</time>
      </trkpt>
      <trkpt lat="45.86553" lon="6.7862">
        <ele>1758</ele>
        <time>2026-08-14T04:32:05.376Z</time>
      </trkpt>
      <trkpt lat="45.86552" lon="6.78622">
        <ele>1759</ele>
        <time>2026-08-14T04:32:06.376Z</time>
      </trkpt>
      <trkpt lat="45.86551" lon="6.78624">
        <ele>1759</ele>
        <time>2026-08-14T04:32:07.376Z</time>
      </trkpt>
      <trkpt lat="45.8655" lon="6.78626">
        <ele>1759</ele>
        <time>2026-08-14T04:32:08.376Z</time>
      </trkpt>
      <trkpt lat="45.8655" lon="6.78628">
        <ele>1759</ele>
        <time>2026-08-14T04:32:09.376Z</time>
      </trkpt>
      <trkpt lat="45.86549" lon="6.78629">
        <ele>1759</ele>
        <time>2026-08-14T04:32:10.376Z</time>
      </trkpt>
      <trkpt lat="45.86549" lon="6.7863">
        <ele>1760</ele>
        <time>2026-08-14T04:32:11.376Z</time>
      </trkpt>
      <trkpt lat="45.86548" lon="6.78631">
        <ele>1761</ele>
        <time>2026-08-14T04:32:12.376Z</time>
      </trkpt>
      <trkpt lat="45.86547" lon="6.78631">
        <ele>1761</ele>
        <time>2026-08-14T04:32:13.376Z</time>
      </trkpt>
      <trkpt lat="45.86545" lon="6.78632">
        <ele>1762</ele>
        <time>2026-08-14T04:32:14.376Z</time>
      </trkpt>
      <trkpt lat="45.86544" lon="6.78633">
        <ele>1763</ele>
        <time>2026-08-14T04:32:15.376Z</time>
      </trkpt>
      <trkpt lat="45.86543" lon="6.78634">
        <ele>1764</ele>
        <time>2026-08-14T04:32:16.376Z</time>
      </trkpt>
      <trkpt lat="45.86542" lon="6.78635">
        <ele>1765</ele>
        <time>2026-08-14T04:32:17.376Z</time>
      </trkpt>
      <trkpt lat="45.8654" lon="6.78636">
        <ele>1765</ele>
        <time>2026-08-14T04:32:18.376Z</time>
      </trkpt>
      <trkpt lat="45.86539" lon="6.78638">
        <ele>1766</ele>
        <time>2026-08-14T04:32:19.376Z</time>
      </trkpt>
      <trkpt lat="45.86538" lon="6.78639">
        <ele>1766</ele>
        <time>2026-08-14T04:32:20.376Z</time>
      </trkpt>
      <trkpt lat="45.86537" lon="6.7864">
        <ele>1767</ele>
        <time>2026-08-14T04:32:21.376Z</time>
      </trkpt>
      <trkpt lat="45.86536" lon="6.78641">
        <ele>1767</ele>
        <time>2026-08-14T04:32:22.376Z</time>
      </trkpt>
      <trkpt lat="45.86535" lon="6.78643">
        <ele>1768</ele>
        <time>2026-08-14T04:32:23.376Z</time>
      </trkpt>
      <trkpt lat="45.86534" lon="6.78644">
        <ele>1768</ele>
        <time>2026-08-14T04:32:24.376Z</time>
      </trkpt>
      <trkpt lat="45.86533" lon="6.78646">
        <ele>1768</ele>
        <time>2026-08-14T04:32:25.376Z</time>
      </trkpt>
      <trkpt lat="45.86532" lon="6.78647">
        <ele>1769</ele>
        <time>2026-08-14T04:32:26.376Z</time>
      </trkpt>
      <trkpt lat="45.86531" lon="6.78649">
        <ele>1769</ele>
        <time>2026-08-14T04:32:27.376Z</time>
      </trkpt>
      <trkpt lat="45.8653" lon="6.7865">
        <ele>1769</ele>
        <time>2026-08-14T04:32:28.376Z</time>
      </trkpt>
      <trkpt lat="45.86529" lon="6.78651">
        <ele>1770</ele>
        <time>2026-08-14T04:32:29.376Z</time>
      </trkpt>
      <trkpt lat="45.86529" lon="6.78653">
        <ele>1770</ele>
        <time>2026-08-14T04:32:30.376Z</time>
      </trkpt>
      <trkpt lat="45.86528" lon="6.78653">
        <ele>1770</ele>
        <time>2026-08-14T04:32:31.376Z</time>
      </trkpt>
      <trkpt lat="45.86528" lon="6.78654">
        <ele>1771</ele>
        <time>2026-08-14T04:32:32.376Z</time>
      </trkpt>
      <trkpt lat="45.86528" lon="6.78655">
        <ele>1771</ele>
        <time>2026-08-14T04:32:33.376Z</time>
      </trkpt>
      <trkpt lat="45.86528" lon="6.78656">
        <ele>1772</ele>
        <time>2026-08-14T04:32:34.376Z</time>
      </trkpt>
      <trkpt lat="45.86527" lon="6.78657">
        <ele>1772</ele>
        <time>2026-08-14T04:32:35.376Z</time>
      </trkpt>
      <trkpt lat="45.86526" lon="6.78658">
        <ele>1772</ele>
        <time>2026-08-14T04:32:36.376Z</time>
      </trkpt>
      <trkpt lat="45.86525" lon="6.7866">
        <ele>1772</ele>
        <time>2026-08-14T04:32:37.376Z</time>
      </trkpt>
      <trkpt lat="45.86525" lon="6.78661">
        <ele>1772</ele>
        <time>2026-08-14T04:32:38.376Z</time>
      </trkpt>
      <trkpt lat="45.86524" lon="6.78663">
        <ele>1772</ele>
        <time>2026-08-14T04:32:39.376Z</time>
      </trkpt>
      <trkpt lat="45.86523" lon="6.78665">
        <ele>1771</ele>
        <time>2026-08-14T04:32:40.376Z</time>
      </trkpt>
      <trkpt lat="45.86523" lon="6.78667">
        <ele>1771</ele>
        <time>2026-08-14T04:32:41.376Z</time>
      </trkpt>
      <trkpt lat="45.86523" lon="6.78669">
        <ele>1770</ele>
        <time>2026-08-14T04:32:42.376Z</time>
      </trkpt>
      <trkpt lat="45.86522" lon="6.78671">
        <ele>1770</ele>
        <time>2026-08-14T04:32:43.376Z</time>
      </trkpt>
      <trkpt lat="45.86522" lon="6.78673">
        <ele>1770</ele>
        <time>2026-08-14T04:32:44.376Z</time>
      </trkpt>
      <trkpt lat="45.86522" lon="6.78674">
        <ele>1770</ele>
        <time>2026-08-14T04:32:45.376Z</time>
      </trkpt>
      <trkpt lat="45.86521" lon="6.78676">
        <ele>1769</ele>
        <time>2026-08-14T04:32:46.376Z</time>
      </trkpt>
      <trkpt lat="45.86521" lon="6.78678">
        <ele>1769</ele>
        <time>2026-08-14T04:32:47.376Z</time>
      </trkpt>
      <trkpt lat="45.86521" lon="6.78679">
        <ele>1769</ele>
        <time>2026-08-14T04:32:48.376Z</time>
      </trkpt>
      <trkpt lat="45.86521" lon="6.78681">
        <ele>1768</ele>
        <time>2026-08-14T04:32:49.376Z</time>
      </trkpt>
      <trkpt lat="45.86521" lon="6.78682">
        <ele>1768</ele>
        <time>2026-08-14T04:32:50.376Z</time>
      </trkpt>
      <trkpt lat="45.86521" lon="6.78684">
        <ele>1767</ele>
        <time>2026-08-14T04:32:51.376Z</time>
      </trkpt>
      <trkpt lat="45.86521" lon="6.78685">
        <ele>1767</ele>
        <time>2026-08-14T04:32:52.376Z</time>
      </trkpt>
      <trkpt lat="45.8652" lon="6.78687">
        <ele>1767</ele>
        <time>2026-08-14T04:32:53.376Z</time>
      </trkpt>
      <trkpt lat="45.8652" lon="6.78689">
        <ele>1767</ele>
        <time>2026-08-14T04:32:54.376Z</time>
      </trkpt>
      <trkpt lat="45.8652" lon="6.78691">
        <ele>1767</ele>
        <time>2026-08-14T04:32:55.376Z</time>
      </trkpt>
      <trkpt lat="45.8652" lon="6.78692">
        <ele>1767</ele>
        <time>2026-08-14T04:32:56.376Z</time>
      </trkpt>
      <trkpt lat="45.86519" lon="6.78694">
        <ele>1766</ele>
        <time>2026-08-14T04:32:57.376Z</time>
      </trkpt>
      <trkpt lat="45.86518" lon="6.78696">
        <ele>1766</ele>
        <time>2026-08-14T04:32:58.376Z</time>
      </trkpt>
      <trkpt lat="45.86517" lon="6.78699">
        <ele>1766</ele>
        <time>2026-08-14T04:32:59.376Z</time>
      </trkpt>
      <trkpt lat="45.86516" lon="6.78701">
        <ele>1766</ele>
        <time>2026-08-14T04:33:00.376Z</time>
      </trkpt>
      <trkpt lat="45.86516" lon="6.78703">
        <ele>1766</ele>
        <time>2026-08-14T04:33:01.376Z</time>
      </trkpt>
      <trkpt lat="45.86515" lon="6.78705">
        <ele>1766</ele>
        <time>2026-08-14T04:33:02.376Z</time>
      </trkpt>
      <trkpt lat="45.86514" lon="6.78708">
        <ele>1766</ele>
        <time>2026-08-14T04:33:03.376Z</time>
      </trkpt>
      <trkpt lat="45.86514" lon="6.7871">
        <ele>1767</ele>
        <time>2026-08-14T04:33:04.376Z</time>
      </trkpt>
      <trkpt lat="45.86513" lon="6.78713">
        <ele>1767</ele>
        <time>2026-08-14T04:33:05.376Z</time>
      </trkpt>
      <trkpt lat="45.86513" lon="6.78715">
        <ele>1767</ele>
        <time>2026-08-14T04:33:06.376Z</time>
      </trkpt>
      <trkpt lat="45.86512" lon="6.78717">
        <ele>1767</ele>
        <time>2026-08-14T04:33:07.376Z</time>
      </trkpt>
      <trkpt lat="45.86511" lon="6.7872">
        <ele>1767</ele>
        <time>2026-08-14T04:33:08.376Z</time>
      </trkpt>
      <trkpt lat="45.8651" lon="6.78722">
        <ele>1768</ele>
        <time>2026-08-14T04:33:09.376Z</time>
      </trkpt>
      <trkpt lat="45.86509" lon="6.78723">
        <ele>1768</ele>
        <time>2026-08-14T04:33:10.376Z</time>
      </trkpt>
      <trkpt lat="45.86509" lon="6.78725">
        <ele>1769</ele>
        <time>2026-08-14T04:33:11.376Z</time>
      </trkpt>
      <trkpt lat="45.86508" lon="6.78727">
        <ele>1769</ele>
        <time>2026-08-14T04:33:12.376Z</time>
      </trkpt>
      <trkpt lat="45.86507" lon="6.78729">
        <ele>1769</ele>
        <time>2026-08-14T04:33:13.376Z</time>
      </trkpt>
      <trkpt lat="45.86506" lon="6.78731">
        <ele>1769</ele>
        <time>2026-08-14T04:33:14.376Z</time>
      </trkpt>
      <trkpt lat="45.86505" lon="6.78733">
        <ele>1768</ele>
        <time>2026-08-14T04:33:15.376Z</time>
      </trkpt>
      <trkpt lat="45.86504" lon="6.78735">
        <ele>1768</ele>
        <time>2026-08-14T04:33:16.376Z</time>
      </trkpt>
      <trkpt lat="45.86503" lon="6.78737">
        <ele>1768</ele>
        <time>2026-08-14T04:33:17.376Z</time>
      </trkpt>
      <trkpt lat="45.86501" lon="6.78739">
        <ele>1768</ele>
        <time>2026-08-14T04:33:18.376Z</time>
      </trkpt>
      <trkpt lat="45.865" lon="6.78741">
        <ele>1768</ele>
        <time>2026-08-14T04:33:19.376Z</time>
      </trkpt>
      <trkpt lat="45.86499" lon="6.78743">
        <ele>1768</ele>
        <time>2026-08-14T04:33:20.376Z</time>
      </trkpt>
      <trkpt lat="45.86498" lon="6.78745">
        <ele>1768</ele>
        <time>2026-08-14T04:33:21.376Z</time>
      </trkpt>
      <trkpt lat="45.86498" lon="6.78747">
        <ele>1769</ele>
        <time>2026-08-14T04:33:22.376Z</time>
      </trkpt>
      <trkpt lat="45.86497" lon="6.78748">
        <ele>1769</ele>
        <time>2026-08-14T04:33:23.376Z</time>
      </trkpt>
      <trkpt lat="45.86496" lon="6.7875">
        <ele>1769</ele>
        <time>2026-08-14T04:33:24.376Z</time>
      </trkpt>
      <trkpt lat="45.86495" lon="6.78752">
        <ele>1770</ele>
        <time>2026-08-14T04:33:25.376Z</time>
      </trkpt>
      <trkpt lat="45.86495" lon="6.78754">
        <ele>1770</ele>
        <time>2026-08-14T04:33:26.376Z</time>
      </trkpt>
      <trkpt lat="45.86494" lon="6.78755">
        <ele>1770</ele>
        <time>2026-08-14T04:33:27.376Z</time>
      </trkpt>
      <trkpt lat="45.86493" lon="6.78757">
        <ele>1771</ele>
        <time>2026-08-14T04:33:28.376Z</time>
      </trkpt>
      <trkpt lat="45.86492" lon="6.78758">
        <ele>1771</ele>
        <time>2026-08-14T04:33:29.376Z</time>
      </trkpt>
      <trkpt lat="45.86492" lon="6.78759">
        <ele>1771</ele>
        <time>2026-08-14T04:33:30.376Z</time>
      </trkpt>
      <trkpt lat="45.86491" lon="6.78759">
        <ele>1772</ele>
        <time>2026-08-14T04:33:31.376Z</time>
      </trkpt>
      <trkpt lat="45.86491" lon="6.7876">
        <ele>1772</ele>
        <time>2026-08-14T04:33:32.376Z</time>
      </trkpt>
      <trkpt lat="45.86489" lon="6.78761">
        <ele>1772</ele>
        <time>2026-08-14T04:33:33.376Z</time>
      </trkpt>
      <trkpt lat="45.86488" lon="6.7876">
        <ele>1772</ele>
        <time>2026-08-14T04:33:34.376Z</time>
      </trkpt>
      <trkpt lat="45.86487" lon="6.7876">
        <ele>1773</ele>
        <time>2026-08-14T04:33:35.376Z</time>
      </trkpt>
      <trkpt lat="45.86486" lon="6.78759">
        <ele>1773</ele>
        <time>2026-08-14T04:33:36.376Z</time>
      </trkpt>
      <trkpt lat="45.86485" lon="6.78758">
        <ele>1773</ele>
        <time>2026-08-14T04:33:37.376Z</time>
      </trkpt>
      <trkpt lat="45.86485" lon="6.78757">
        <ele>1773</ele>
        <time>2026-08-14T04:33:38.376Z</time>
      </trkpt>
      <trkpt lat="45.86484" lon="6.78756">
        <ele>1773</ele>
        <time>2026-08-14T04:33:39.376Z</time>
      </trkpt>
      <trkpt lat="45.86483" lon="6.78755">
        <ele>1773</ele>
        <time>2026-08-14T04:33:40.376Z</time>
      </trkpt>
      <trkpt lat="45.86483" lon="6.78754">
        <ele>1773</ele>
        <time>2026-08-14T04:33:41.376Z</time>
      </trkpt>
      <trkpt lat="45.86482" lon="6.78753">
        <ele>1773</ele>
        <time>2026-08-14T04:33:42.376Z</time>
      </trkpt>
      <trkpt lat="45.86481" lon="6.78752">
        <ele>1774</ele>
        <time>2026-08-14T04:33:43.376Z</time>
      </trkpt>
      <trkpt lat="45.86479" lon="6.78751">
        <ele>1774</ele>
        <time>2026-08-14T04:33:44.376Z</time>
      </trkpt>
      <trkpt lat="45.86478" lon="6.78749">
        <ele>1775</ele>
        <time>2026-08-14T04:33:45.376Z</time>
      </trkpt>
      <trkpt lat="45.86477" lon="6.78747">
        <ele>1775</ele>
        <time>2026-08-14T04:33:46.376Z</time>
      </trkpt>
      <trkpt lat="45.86476" lon="6.78746">
        <ele>1776</ele>
        <time>2026-08-14T04:33:47.376Z</time>
      </trkpt>
      <trkpt lat="45.86475" lon="6.78744">
        <ele>1776</ele>
        <time>2026-08-14T04:33:48.376Z</time>
      </trkpt>
      <trkpt lat="45.86473" lon="6.78743">
        <ele>1776</ele>
        <time>2026-08-14T04:33:49.376Z</time>
      </trkpt>
      <trkpt lat="45.86472" lon="6.78741">
        <ele>1776</ele>
        <time>2026-08-14T04:33:50.376Z</time>
      </trkpt>
      <trkpt lat="45.86471" lon="6.78739">
        <ele>1776</ele>
        <time>2026-08-14T04:33:51.376Z</time>
      </trkpt>
      <trkpt lat="45.8647" lon="6.78737">
        <ele>1776</ele>
        <time>2026-08-14T04:33:52.376Z</time>
      </trkpt>
      <trkpt lat="45.86469" lon="6.78735">
        <ele>1777</ele>
        <time>2026-08-14T04:33:53.376Z</time>
      </trkpt>
      <trkpt lat="45.86467" lon="6.78734">
        <ele>1777</ele>
        <time>2026-08-14T04:33:54.376Z</time>
      </trkpt>
      <trkpt lat="45.86466" lon="6.78733">
        <ele>1778</ele>
        <time>2026-08-14T04:33:55.376Z</time>
      </trkpt>
      <trkpt lat="45.86465" lon="6.78732">
        <ele>1778</ele>
        <time>2026-08-14T04:33:56.376Z</time>
      </trkpt>
      <trkpt lat="45.86463" lon="6.7873">
        <ele>1779</ele>
        <time>2026-08-14T04:33:57.376Z</time>
      </trkpt>
      <trkpt lat="45.86462" lon="6.78729">
        <ele>1779</ele>
        <time>2026-08-14T04:33:58.376Z</time>
      </trkpt>
      <trkpt lat="45.86461" lon="6.78727">
        <ele>1779</ele>
        <time>2026-08-14T04:33:59.376Z</time>
      </trkpt>
      <trkpt lat="45.86459" lon="6.78727">
        <ele>1779</ele>
        <time>2026-08-14T04:34:00.376Z</time>
      </trkpt>
      <trkpt lat="45.86458" lon="6.78726">
        <ele>1779</ele>
        <time>2026-08-14T04:34:01.376Z</time>
      </trkpt>
      <trkpt lat="45.86457" lon="6.78725">
        <ele>1779</ele>
        <time>2026-08-14T04:34:02.376Z</time>
      </trkpt>
      <trkpt lat="45.86455" lon="6.78724">
        <ele>1779</ele>
        <time>2026-08-14T04:34:03.376Z</time>
      </trkpt>
      <trkpt lat="45.86454" lon="6.78723">
        <ele>1779</ele>
        <time>2026-08-14T04:34:04.376Z</time>
      </trkpt>
      <trkpt lat="45.86453" lon="6.78722">
        <ele>1780</ele>
        <time>2026-08-14T04:34:05.376Z</time>
      </trkpt>
      <trkpt lat="45.86452" lon="6.78721">
        <ele>1780</ele>
        <time>2026-08-14T04:34:06.376Z</time>
      </trkpt>
      <trkpt lat="45.86451" lon="6.7872">
        <ele>1779</ele>
        <time>2026-08-14T04:34:07.376Z</time>
      </trkpt>
      <trkpt lat="45.86451" lon="6.78718">
        <ele>1779</ele>
        <time>2026-08-14T04:34:08.376Z</time>
      </trkpt>
      <trkpt lat="45.8645" lon="6.78717">
        <ele>1779</ele>
        <time>2026-08-14T04:34:09.376Z</time>
      </trkpt>
      <trkpt lat="45.8645" lon="6.78716">
        <ele>1779</ele>
        <time>2026-08-14T04:34:10.376Z</time>
      </trkpt>
      <trkpt lat="45.86449" lon="6.78715">
        <ele>1779</ele>
        <time>2026-08-14T04:34:11.376Z</time>
      </trkpt>
      <trkpt lat="45.86449" lon="6.78714">
        <ele>1779</ele>
        <time>2026-08-14T04:34:12.376Z</time>
      </trkpt>
      <trkpt lat="45.86448" lon="6.78713">
        <ele>1780</ele>
        <time>2026-08-14T04:34:13.376Z</time>
      </trkpt>
      <trkpt lat="45.86448" lon="6.78712">
        <ele>1780</ele>
        <time>2026-08-14T04:34:14.376Z</time>
      </trkpt>
      <trkpt lat="45.86447" lon="6.78711">
        <ele>1780</ele>
        <time>2026-08-14T04:34:15.376Z</time>
      </trkpt>
      <trkpt lat="45.86446" lon="6.78709">
        <ele>1780</ele>
        <time>2026-08-14T04:34:16.376Z</time>
      </trkpt>
      <trkpt lat="45.86445" lon="6.78708">
        <ele>1781</ele>
        <time>2026-08-14T04:34:17.376Z</time>
      </trkpt>
      <trkpt lat="45.86444" lon="6.78706">
        <ele>1781</ele>
        <time>2026-08-14T04:34:18.376Z</time>
      </trkpt>
      <trkpt lat="45.86443" lon="6.78704">
        <ele>1781</ele>
        <time>2026-08-14T04:34:19.376Z</time>
      </trkpt>
      <trkpt lat="45.86442" lon="6.78703">
        <ele>1781</ele>
        <time>2026-08-14T04:34:20.376Z</time>
      </trkpt>
      <trkpt lat="45.86441" lon="6.78702">
        <ele>1781</ele>
        <time>2026-08-14T04:34:21.376Z</time>
      </trkpt>
      <trkpt lat="45.86439" lon="6.78701">
        <ele>1781</ele>
        <time>2026-08-14T04:34:22.376Z</time>
      </trkpt>
      <trkpt lat="45.86437" lon="6.78701">
        <ele>1782</ele>
        <time>2026-08-14T04:34:23.376Z</time>
      </trkpt>
      <trkpt lat="45.86435" lon="6.78701">
        <ele>1782</ele>
        <time>2026-08-14T04:34:24.376Z</time>
      </trkpt>
      <trkpt lat="45.86433" lon="6.787">
        <ele>1781</ele>
        <time>2026-08-14T04:34:25.376Z</time>
      </trkpt>
      <trkpt lat="45.86431" lon="6.78699">
        <ele>1782</ele>
        <time>2026-08-14T04:34:26.376Z</time>
      </trkpt>
      <trkpt lat="45.8643" lon="6.78698">
        <ele>1781</ele>
        <time>2026-08-14T04:34:27.376Z</time>
      </trkpt>
      <trkpt lat="45.86428" lon="6.78696">
        <ele>1782</ele>
        <time>2026-08-14T04:34:28.376Z</time>
      </trkpt>
      <trkpt lat="45.86427" lon="6.78694">
        <ele>1782</ele>
        <time>2026-08-14T04:34:29.376Z</time>
      </trkpt>
      <trkpt lat="45.86426" lon="6.78693">
        <ele>1782</ele>
        <time>2026-08-14T04:34:30.376Z</time>
      </trkpt>
      <trkpt lat="45.86426" lon="6.78692">
        <ele>1782</ele>
        <time>2026-08-14T04:34:31.376Z</time>
      </trkpt>
      <trkpt lat="45.86425" lon="6.7869">
        <ele>1782</ele>
        <time>2026-08-14T04:34:32.376Z</time>
      </trkpt>
      <trkpt lat="45.86424" lon="6.78689">
        <ele>1783</ele>
        <time>2026-08-14T04:34:33.376Z</time>
      </trkpt>
      <trkpt lat="45.86423" lon="6.78688">
        <ele>1783</ele>
        <time>2026-08-14T04:34:34.376Z</time>
      </trkpt>
      <trkpt lat="45.86422" lon="6.78687">
        <ele>1783</ele>
        <time>2026-08-14T04:34:35.376Z</time>
      </trkpt>
      <trkpt lat="45.86421" lon="6.78687">
        <ele>1784</ele>
        <time>2026-08-14T04:34:36.376Z</time>
      </trkpt>
      <trkpt lat="45.8642" lon="6.78686">
        <ele>1784</ele>
        <time>2026-08-14T04:34:37.376Z</time>
      </trkpt>
      <trkpt lat="45.86418" lon="6.78686">
        <ele>1785</ele>
        <time>2026-08-14T04:34:38.376Z</time>
      </trkpt>
      <trkpt lat="45.86417" lon="6.78686">
        <ele>1785</ele>
        <time>2026-08-14T04:34:39.376Z</time>
      </trkpt>
      <trkpt lat="45.86416" lon="6.78685">
        <ele>1786</ele>
        <time>2026-08-14T04:34:40.376Z</time>
      </trkpt>
      <trkpt lat="45.86415" lon="6.78684">
        <ele>1786</ele>
        <time>2026-08-14T04:34:41.376Z</time>
      </trkpt>
      <trkpt lat="45.86415" lon="6.78682">
        <ele>1786</ele>
        <time>2026-08-14T04:34:42.376Z</time>
      </trkpt>
      <trkpt lat="45.86414" lon="6.7868">
        <ele>1786</ele>
        <time>2026-08-14T04:34:43.376Z</time>
      </trkpt>
      <trkpt lat="45.86414" lon="6.78678">
        <ele>1786</ele>
        <time>2026-08-14T04:34:44.376Z</time>
      </trkpt>
      <trkpt lat="45.86414" lon="6.78676">
        <ele>1786</ele>
        <time>2026-08-14T04:34:45.376Z</time>
      </trkpt>
      <trkpt lat="45.86414" lon="6.78675">
        <ele>1785</ele>
        <time>2026-08-14T04:34:46.376Z</time>
      </trkpt>
      <trkpt lat="45.86414" lon="6.78673">
        <ele>1785</ele>
        <time>2026-08-14T04:34:47.376Z</time>
      </trkpt>
      <trkpt lat="45.86414" lon="6.7867">
        <ele>1785</ele>
        <time>2026-08-14T04:34:48.376Z</time>
      </trkpt>
      <trkpt lat="45.86415" lon="6.78669">
        <ele>1785</ele>
        <time>2026-08-14T04:34:49.376Z</time>
      </trkpt>
      <trkpt lat="45.86414" lon="6.78668">
        <ele>1785</ele>
        <time>2026-08-14T04:34:50.376Z</time>
      </trkpt>
      <trkpt lat="45.86413" lon="6.78668">
        <ele>1785</ele>
        <time>2026-08-14T04:34:51.376Z</time>
      </trkpt>
      <trkpt lat="45.86413" lon="6.78667">
        <ele>1785</ele>
        <time>2026-08-14T04:34:52.376Z</time>
      </trkpt>
      <trkpt lat="45.86412" lon="6.78666">
        <ele>1785</ele>
        <time>2026-08-14T04:34:53.376Z</time>
      </trkpt>
      <trkpt lat="45.86412" lon="6.78665">
        <ele>1786</ele>
        <time>2026-08-14T04:34:54.376Z</time>
      </trkpt>
      <trkpt lat="45.86411" lon="6.78665">
        <ele>1786</ele>
        <time>2026-08-14T04:34:55.376Z</time>
      </trkpt>
      <trkpt lat="45.8641" lon="6.78664">
        <ele>1786</ele>
        <time>2026-08-14T04:34:56.376Z</time>
      </trkpt>
      <trkpt lat="45.86408" lon="6.78663">
        <ele>1786</ele>
        <time>2026-08-14T04:34:57.376Z</time>
      </trkpt>
      <trkpt lat="45.86406" lon="6.78662">
        <ele>1786</ele>
        <time>2026-08-14T04:34:58.376Z</time>
      </trkpt>
      <trkpt lat="45.86405" lon="6.7866">
        <ele>1787</ele>
        <time>2026-08-14T04:34:59.376Z</time>
      </trkpt>
      <trkpt lat="45.86404" lon="6.7866">
        <ele>1787</ele>
        <time>2026-08-14T04:35:00.376Z</time>
      </trkpt>
      <trkpt lat="45.86403" lon="6.7866">
        <ele>1788</ele>
        <time>2026-08-14T04:35:01.376Z</time>
      </trkpt>
      <trkpt lat="45.86401" lon="6.78661">
        <ele>1788</ele>
        <time>2026-08-14T04:35:02.376Z</time>
      </trkpt>
      <trkpt lat="45.864" lon="6.7866">
        <ele>1788</ele>
        <time>2026-08-14T04:35:03.376Z</time>
      </trkpt>
      <trkpt lat="45.864" lon="6.78659">
        <ele>1789</ele>
        <time>2026-08-14T04:35:04.376Z</time>
      </trkpt>
      <trkpt lat="45.864" lon="6.78658">
        <ele>1789</ele>
        <time>2026-08-14T04:35:05.376Z</time>
      </trkpt>
      <trkpt lat="45.86399" lon="6.78656">
        <ele>1789</ele>
        <time>2026-08-14T04:35:06.376Z</time>
      </trkpt>
      <trkpt lat="45.86399" lon="6.78655">
        <ele>1789</ele>
        <time>2026-08-14T04:35:07.376Z</time>
      </trkpt>
      <trkpt lat="45.86398" lon="6.78653">
        <ele>1788</ele>
        <time>2026-08-14T04:35:08.376Z</time>
      </trkpt>
      <trkpt lat="45.86397" lon="6.78651">
        <ele>1788</ele>
        <time>2026-08-14T04:35:09.376Z</time>
      </trkpt>
      <trkpt lat="45.86396" lon="6.78649">
        <ele>1788</ele>
        <time>2026-08-14T04:35:10.376Z</time>
      </trkpt>
      <trkpt lat="45.86395" lon="6.78648">
        <ele>1788</ele>
        <time>2026-08-14T04:35:11.376Z</time>
      </trkpt>
      <trkpt lat="45.86393" lon="6.78648">
        <ele>1788</ele>
        <time>2026-08-14T04:35:12.376Z</time>
      </trkpt>
      <trkpt lat="45.86391" lon="6.78648">
        <ele>1788</ele>
        <time>2026-08-14T04:35:13.376Z</time>
      </trkpt>
      <trkpt lat="45.8639" lon="6.78648">
        <ele>1789</ele>
        <time>2026-08-14T04:35:14.376Z</time>
      </trkpt>
      <trkpt lat="45.86388" lon="6.78647">
        <ele>1789</ele>
        <time>2026-08-14T04:35:15.376Z</time>
      </trkpt>
      <trkpt lat="45.86388" lon="6.78647">
        <ele>1789</ele>
        <time>2026-08-14T04:35:16.376Z</time>
      </trkpt>
      <trkpt lat="45.86387" lon="6.78645">
        <ele>1790</ele>
        <time>2026-08-14T04:35:17.376Z</time>
      </trkpt>
      <trkpt lat="45.86386" lon="6.78643">
        <ele>1790</ele>
        <time>2026-08-14T04:35:18.376Z</time>
      </trkpt>
      <trkpt lat="45.86384" lon="6.78641">
        <ele>1791</ele>
        <time>2026-08-14T04:35:19.376Z</time>
      </trkpt>
      <trkpt lat="45.86382" lon="6.7864">
        <ele>1791</ele>
        <time>2026-08-14T04:35:20.376Z</time>
      </trkpt>
      <trkpt lat="45.86382" lon="6.78639">
        <ele>1791</ele>
        <time>2026-08-14T04:35:21.376Z</time>
      </trkpt>
      <trkpt lat="45.86382" lon="6.78638">
        <ele>1791</ele>
        <time>2026-08-14T04:35:22.376Z</time>
      </trkpt>
      <trkpt lat="45.86381" lon="6.78638">
        <ele>1791</ele>
        <time>2026-08-14T04:35:23.376Z</time>
      </trkpt>
      <trkpt lat="45.86381" lon="6.78637">
        <ele>1790</ele>
        <time>2026-08-14T04:35:24.376Z</time>
      </trkpt>
      <trkpt lat="45.86381" lon="6.78636">
        <ele>1790</ele>
        <time>2026-08-14T04:35:25.376Z</time>
      </trkpt>
      <trkpt lat="45.8638" lon="6.78635">
        <ele>1789</ele>
        <time>2026-08-14T04:35:26.376Z</time>
      </trkpt>
      <trkpt lat="45.8638" lon="6.78635">
        <ele>1789</ele>
        <time>2026-08-14T04:35:27.376Z</time>
      </trkpt>
      <trkpt lat="45.8638" lon="6.78634">
        <ele>1789</ele>
        <time>2026-08-14T04:35:28.376Z</time>
      </trkpt>
      <trkpt lat="45.8638" lon="6.78634">
        <ele>1788</ele>
        <time>2026-08-14T04:35:29.376Z</time>
      </trkpt>
      <trkpt lat="45.8638" lon="6.78633">
        <ele>1788</ele>
        <time>2026-08-14T04:35:30.376Z</time>
      </trkpt>
      <trkpt lat="45.8638" lon="6.78632">
        <ele>1788</ele>
        <time>2026-08-14T04:35:31.376Z</time>
      </trkpt>
      <trkpt lat="45.86381" lon="6.78632">
        <ele>1788</ele>
        <time>2026-08-14T04:35:32.376Z</time>
      </trkpt>
      <trkpt lat="45.86381" lon="6.78632">
        <ele>1787</ele>
        <time>2026-08-14T04:35:33.376Z</time>
      </trkpt>
      <trkpt lat="45.86382" lon="6.78631">
        <ele>1787</ele>
        <time>2026-08-14T04:35:34.376Z</time>
      </trkpt>
      <trkpt lat="45.86382" lon="6.78631">
        <ele>1787</ele>
        <time>2026-08-14T04:35:35.376Z</time>
      </trkpt>
      <trkpt lat="45.86381" lon="6.7863">
        <ele>1787</ele>
        <time>2026-08-14T04:35:36.376Z</time>
      </trkpt>
      <trkpt lat="45.8638" lon="6.7863">
        <ele>1787</ele>
        <time>2026-08-14T04:35:37.376Z</time>
      </trkpt>
      <trkpt lat="45.8638" lon="6.7863">
        <ele>1787</ele>
        <time>2026-08-14T04:35:38.376Z</time>
      </trkpt>
      <trkpt lat="45.8638" lon="6.7863">
        <ele>1787</ele>
        <time>2026-08-14T04:35:39.376Z</time>
      </trkpt>
      <trkpt lat="45.86379" lon="6.7863">
        <ele>1787</ele>
        <time>2026-08-14T04:35:40.376Z</time>
      </trkpt>
      <trkpt lat="45.86378" lon="6.7863">
        <ele>1788</ele>
        <time>2026-08-14T04:35:41.376Z</time>
      </trkpt>
      <trkpt lat="45.86378" lon="6.7863">
        <ele>1788</ele>
        <time>2026-08-14T04:35:42.376Z</time>
      </trkpt>
      <trkpt lat="45.86377" lon="6.78629">
        <ele>1788</ele>
        <time>2026-08-14T04:35:43.376Z</time>
      </trkpt>
      <trkpt lat="45.86377" lon="6.78628">
        <ele>1788</ele>
        <time>2026-08-14T04:35:44.376Z</time>
      </trkpt>
      <trkpt lat="45.86377" lon="6.78626">
        <ele>1788</ele>
        <time>2026-08-14T04:35:45.376Z</time>
      </trkpt>
      <trkpt lat="45.86377" lon="6.78625">
        <ele>1788</ele>
        <time>2026-08-14T04:35:46.376Z</time>
      </trkpt>
      <trkpt lat="45.86379" lon="6.78625">
        <ele>1787</ele>
        <time>2026-08-14T04:35:47.376Z</time>
      </trkpt>
      <trkpt lat="45.86379" lon="6.78625">
        <ele>1786</ele>
        <time>2026-08-14T04:35:48.376Z</time>
      </trkpt>
      <trkpt lat="45.86379" lon="6.78624">
        <ele>1786</ele>
        <time>2026-08-14T04:35:49.376Z</time>
      </trkpt>
      <trkpt lat="45.86379" lon="6.78623">
        <ele>1786</ele>
        <time>2026-08-14T04:35:50.376Z</time>
      </trkpt>
      <trkpt lat="45.86379" lon="6.78623">
        <ele>1785</ele>
        <time>2026-08-14T04:35:51.376Z</time>
      </trkpt>
      <trkpt lat="45.86379" lon="6.78623">
        <ele>1786</ele>
        <time>2026-08-14T04:35:52.376Z</time>
      </trkpt>
      <trkpt lat="45.86378" lon="6.78622">
        <ele>1786</ele>
        <time>2026-08-14T04:35:53.376Z</time>
      </trkpt>
      <trkpt lat="45.86378" lon="6.78622">
        <ele>1785</ele>
        <time>2026-08-14T04:35:54.376Z</time>
      </trkpt>
      <trkpt lat="45.86377" lon="6.78622">
        <ele>1785</ele>
        <time>2026-08-14T04:35:55.376Z</time>
      </trkpt>
      <trkpt lat="45.86377" lon="6.78622">
        <ele>1785</ele>
        <time>2026-08-14T04:35:56.376Z</time>
      </trkpt>
      <trkpt lat="45.86376" lon="6.78621">
        <ele>1785</ele>
        <time>2026-08-14T04:35:57.376Z</time>
      </trkpt>
      <trkpt lat="45.86375" lon="6.78621">
        <ele>1785</ele>
        <time>2026-08-14T04:35:58.376Z</time>
      </trkpt>
      <trkpt lat="45.86376" lon="6.78619">
        <ele>1784</ele>
        <time>2026-08-14T04:35:59.376Z</time>
      </trkpt>
      <trkpt lat="45.86377" lon="6.78619">
        <ele>1784</ele>
        <time>2026-08-14T04:36:00.376Z</time>
      </trkpt>
      <trkpt lat="45.86377" lon="6.78618">
        <ele>1783</ele>
        <time>2026-08-14T04:36:01.376Z</time>
      </trkpt>
      <trkpt lat="45.86377" lon="6.78618">
        <ele>1783</ele>
        <time>2026-08-14T04:36:02.376Z</time>
      </trkpt>
      <trkpt lat="45.86378" lon="6.78617">
        <ele>1782</ele>
        <time>2026-08-14T04:36:03.376Z</time>
      </trkpt>
      <trkpt lat="45.86379" lon="6.78617">
        <ele>1781</ele>
        <time>2026-08-14T04:36:04.376Z</time>
      </trkpt>
      <trkpt lat="45.86379" lon="6.78616">
        <ele>1781</ele>
        <time>2026-08-14T04:36:05.376Z</time>
      </trkpt>
      <trkpt lat="45.86379" lon="6.78616">
        <ele>1781</ele>
        <time>2026-08-14T04:36:06.376Z</time>
      </trkpt>
      <trkpt lat="45.8638" lon="6.78615">
        <ele>1780</ele>
        <time>2026-08-14T04:36:07.376Z</time>
      </trkpt>
      <trkpt lat="45.86379" lon="6.78614">
        <ele>1780</ele>
        <time>2026-08-14T04:36:08.376Z</time>
      </trkpt>
      <trkpt lat="45.86379" lon="6.78613">
        <ele>1780</ele>
        <time>2026-08-14T04:36:09.376Z</time>
      </trkpt>
      <trkpt lat="45.86379" lon="6.78612">
        <ele>1780</ele>
        <time>2026-08-14T04:36:10.376Z</time>
      </trkpt>
      <trkpt lat="45.86379" lon="6.78611">
        <ele>1779</ele>
        <time>2026-08-14T04:36:11.376Z</time>
      </trkpt>
      <trkpt lat="45.86379" lon="6.78611">
        <ele>1779</ele>
        <time>2026-08-14T04:36:12.376Z</time>
      </trkpt>
      <trkpt lat="45.8638" lon="6.7861">
        <ele>1778</ele>
        <time>2026-08-14T04:36:13.376Z</time>
      </trkpt>
      <trkpt lat="45.8638" lon="6.78609">
        <ele>1777</ele>
        <time>2026-08-14T04:36:14.376Z</time>
      </trkpt>
      <trkpt lat="45.86381" lon="6.78608">
        <ele>1776</ele>
        <time>2026-08-14T04:36:15.376Z</time>
      </trkpt>
      <trkpt lat="45.86381" lon="6.78607">
        <ele>1776</ele>
        <time>2026-08-14T04:36:16.376Z</time>
      </trkpt>
      <trkpt lat="45.86382" lon="6.78607">
        <ele>1775</ele>
        <time>2026-08-14T04:36:17.376Z</time>
      </trkpt>
      <trkpt lat="45.86382" lon="6.78606">
        <ele>1775</ele>
        <time>2026-08-14T04:36:18.376Z</time>
      </trkpt>
      <trkpt lat="45.86382" lon="6.78606">
        <ele>1775</ele>
        <time>2026-08-14T04:36:19.376Z</time>
      </trkpt>
      <trkpt lat="45.86383" lon="6.78605">
        <ele>1775</ele>
        <time>2026-08-14T04:36:20.376Z</time>
      </trkpt>
      <trkpt lat="45.86382" lon="6.78604">
        <ele>1774</ele>
        <time>2026-08-14T04:36:21.376Z</time>
      </trkpt>
      <trkpt lat="45.86382" lon="6.78604">
        <ele>1774</ele>
        <time>2026-08-14T04:36:22.376Z</time>
      </trkpt>
      <trkpt lat="45.86382" lon="6.78604">
        <ele>1774</ele>
        <time>2026-08-14T04:36:23.376Z</time>
      </trkpt>
      <trkpt lat="45.86382" lon="6.78604">
        <ele>1773</ele>
        <time>2026-08-14T04:36:24.376Z</time>
      </trkpt>
      <trkpt lat="45.86382" lon="6.78604">
        <ele>1773</ele>
        <time>2026-08-14T04:36:25.376Z</time>
      </trkpt>
      <trkpt lat="45.86381" lon="6.78604">
        <ele>1773</ele>
        <time>2026-08-14T04:36:26.376Z</time>
      </trkpt>
      <trkpt lat="45.8638" lon="6.78605">
        <ele>1773</ele>
        <time>2026-08-14T04:36:27.376Z</time>
      </trkpt>
      <trkpt lat="45.86379" lon="6.78605">
        <ele>1772</ele>
        <time>2026-08-14T04:36:28.376Z</time>
      </trkpt>
      <trkpt lat="45.86379" lon="6.78606">
        <ele>1772</ele>
        <time>2026-08-14T04:36:29.376Z</time>
      </trkpt>
      <trkpt lat="45.86378" lon="6.78607">
        <ele>1772</ele>
        <time>2026-08-14T04:36:30.376Z</time>
      </trkpt>
      <trkpt lat="45.86377" lon="6.78607">
        <ele>1772</ele>
        <time>2026-08-14T04:36:31.376Z</time>
      </trkpt>
      <trkpt lat="45.86377" lon="6.78607">
        <ele>1772</ele>
        <time>2026-08-14T04:36:32.376Z</time>
      </trkpt>
      <trkpt lat="45.86376" lon="6.78605">
        <ele>1771</ele>
        <time>2026-08-14T04:36:33.376Z</time>
      </trkpt>
      <trkpt lat="45.86375" lon="6.78604">
        <ele>1770</ele>
        <time>2026-08-14T04:36:34.376Z</time>
      </trkpt>
      <trkpt lat="45.86375" lon="6.78603">
        <ele>1770</ele>
        <time>2026-08-14T04:36:35.376Z</time>
      </trkpt>
      <trkpt lat="45.86376" lon="6.78601">
        <ele>1769</ele>
        <time>2026-08-14T04:36:36.376Z</time>
      </trkpt>
      <trkpt lat="45.86377" lon="6.786">
        <ele>1768</ele>
        <time>2026-08-14T04:36:37.376Z</time>
      </trkpt>
      <trkpt lat="45.86378" lon="6.78598">
        <ele>1768</ele>
        <time>2026-08-14T04:36:38.376Z</time>
      </trkpt>
      <trkpt lat="45.86379" lon="6.78596">
        <ele>1768</ele>
        <time>2026-08-14T04:36:39.376Z</time>
      </trkpt>
      <trkpt lat="45.8638" lon="6.78594">
        <ele>1767</ele>
        <time>2026-08-14T04:36:40.376Z</time>
      </trkpt>
      <trkpt lat="45.86381" lon="6.78592">
        <ele>1767</ele>
        <time>2026-08-14T04:36:41.376Z</time>
      </trkpt>
      <trkpt lat="45.86383" lon="6.7859">
        <ele>1766</ele>
        <time>2026-08-14T04:36:42.376Z</time>
      </trkpt>
      <trkpt lat="45.86384" lon="6.78587">
        <ele>1766</ele>
        <time>2026-08-14T04:36:43.376Z</time>
      </trkpt>
      <trkpt lat="45.86385" lon="6.78585">
        <ele>1766</ele>
        <time>2026-08-14T04:36:44.376Z</time>
      </trkpt>
      <trkpt lat="45.86386" lon="6.78581">
        <ele>1765</ele>
        <time>2026-08-14T04:36:45.376Z</time>
      </trkpt>
      <trkpt lat="45.86387" lon="6.78578">
        <ele>1765</ele>
        <time>2026-08-14T04:36:46.376Z</time>
      </trkpt>
      <trkpt lat="45.86389" lon="6.78575">
        <ele>1765</ele>
        <time>2026-08-14T04:36:47.376Z</time>
      </trkpt>
      <trkpt lat="45.8639" lon="6.78572">
        <ele>1765</ele>
        <time>2026-08-14T04:36:48.376Z</time>
      </trkpt>
      <trkpt lat="45.86391" lon="6.78569">
        <ele>1764</ele>
        <time>2026-08-14T04:36:49.376Z</time>
      </trkpt>
      <trkpt lat="45.86391" lon="6.78567">
        <ele>1764</ele>
        <time>2026-08-14T04:36:50.376Z</time>
      </trkpt>
      <trkpt lat="45.86392" lon="6.78564">
        <ele>1764</ele>
        <time>2026-08-14T04:36:51.376Z</time>
      </trkpt>
      <trkpt lat="45.86392" lon="6.78561">
        <ele>1763</ele>
        <time>2026-08-14T04:36:52.376Z</time>
      </trkpt>
      <trkpt lat="45.86392" lon="6.78559">
        <ele>1763</ele>
        <time>2026-08-14T04:36:53.376Z</time>
      </trkpt>
      <trkpt lat="45.86391" lon="6.78557">
        <ele>1763</ele>
        <time>2026-08-14T04:36:54.376Z</time>
      </trkpt>
      <trkpt lat="45.86391" lon="6.78554">
        <ele>1763</ele>
        <time>2026-08-14T04:36:55.376Z</time>
      </trkpt>
      <trkpt lat="45.8639" lon="6.78551">
        <ele>1763</ele>
        <time>2026-08-14T04:36:56.376Z</time>
      </trkpt>
      <trkpt lat="45.8639" lon="6.78548">
        <ele>1763</ele>
        <time>2026-08-14T04:36:57.376Z</time>
      </trkpt>
      <trkpt lat="45.86389" lon="6.78545">
        <ele>1763</ele>
        <time>2026-08-14T04:36:58.376Z</time>
      </trkpt>
      <trkpt lat="45.86389" lon="6.78542">
        <ele>1763</ele>
        <time>2026-08-14T04:36:59.376Z</time>
      </trkpt>
      <trkpt lat="45.86389" lon="6.7854">
        <ele>1762</ele>
        <time>2026-08-14T04:37:00.376Z</time>
      </trkpt>
      <trkpt lat="45.86388" lon="6.78538">
        <ele>1762</ele>
        <time>2026-08-14T04:37:01.376Z</time>
      </trkpt>
      <trkpt lat="45.86389" lon="6.78536">
        <ele>1762</ele>
        <time>2026-08-14T04:37:02.376Z</time>
      </trkpt>
      <trkpt lat="45.86389" lon="6.78535">
        <ele>1761</ele>
        <time>2026-08-14T04:37:03.376Z</time>
      </trkpt>
      <trkpt lat="45.86389" lon="6.78534">
        <ele>1761</ele>
        <time>2026-08-14T04:37:04.376Z</time>
      </trkpt>
      <trkpt lat="45.86389" lon="6.78532">
        <ele>1760</ele>
        <time>2026-08-14T04:37:05.376Z</time>
      </trkpt>
      <trkpt lat="45.86389" lon="6.78531">
        <ele>1760</ele>
        <time>2026-08-14T04:37:06.376Z</time>
      </trkpt>
      <trkpt lat="45.86389" lon="6.78529">
        <ele>1759</ele>
        <time>2026-08-14T04:37:07.376Z</time>
      </trkpt>
      <trkpt lat="45.86389" lon="6.78528">
        <ele>1759</ele>
        <time>2026-08-14T04:37:08.376Z</time>
      </trkpt>
      <trkpt lat="45.86388" lon="6.78526">
        <ele>1759</ele>
        <time>2026-08-14T04:37:09.376Z</time>
      </trkpt>
      <trkpt lat="45.86387" lon="6.78525">
        <ele>1759</ele>
        <time>2026-08-14T04:37:10.376Z</time>
      </trkpt>
      <trkpt lat="45.86386" lon="6.78524">
        <ele>1759</ele>
        <time>2026-08-14T04:37:11.376Z</time>
      </trkpt>
      <trkpt lat="45.86385" lon="6.78523">
        <ele>1758</ele>
        <time>2026-08-14T04:37:12.376Z</time>
      </trkpt>
      <trkpt lat="45.86383" lon="6.78522">
        <ele>1758</ele>
        <time>2026-08-14T04:37:13.376Z</time>
      </trkpt>
      <trkpt lat="45.86382" lon="6.78521">
        <ele>1759</ele>
        <time>2026-08-14T04:37:14.376Z</time>
      </trkpt>
      <trkpt lat="45.8638" lon="6.7852">
        <ele>1759</ele>
        <time>2026-08-14T04:37:15.376Z</time>
      </trkpt>
      <trkpt lat="45.86379" lon="6.7852">
        <ele>1759</ele>
        <time>2026-08-14T04:37:16.376Z</time>
      </trkpt>
      <trkpt lat="45.86377" lon="6.78519">
        <ele>1759</ele>
        <time>2026-08-14T04:37:17.376Z</time>
      </trkpt>
      <trkpt lat="45.86375" lon="6.78517">
        <ele>1759</ele>
        <time>2026-08-14T04:37:18.376Z</time>
      </trkpt>
      <trkpt lat="45.86374" lon="6.78516">
        <ele>1758</ele>
        <time>2026-08-14T04:37:19.376Z</time>
      </trkpt>
      <trkpt lat="45.86372" lon="6.78515">
        <ele>1758</ele>
        <time>2026-08-14T04:37:20.376Z</time>
      </trkpt>
      <trkpt lat="45.86371" lon="6.78514">
        <ele>1758</ele>
        <time>2026-08-14T04:37:21.376Z</time>
      </trkpt>
      <trkpt lat="45.8637" lon="6.78513">
        <ele>1759</ele>
        <time>2026-08-14T04:37:22.376Z</time>
      </trkpt>
      <trkpt lat="45.86369" lon="6.78513">
        <ele>1759</ele>
        <time>2026-08-14T04:37:23.376Z</time>
      </trkpt>
      <trkpt lat="45.86368" lon="6.78512">
        <ele>1759</ele>
        <time>2026-08-14T04:37:24.376Z</time>
      </trkpt>
      <trkpt lat="45.86367" lon="6.78512">
        <ele>1758</ele>
        <time>2026-08-14T04:37:25.376Z</time>
      </trkpt>
      <trkpt lat="45.86366" lon="6.78511">
        <ele>1758</ele>
        <time>2026-08-14T04:37:26.376Z</time>
      </trkpt>
      <trkpt lat="45.86365" lon="6.7851">
        <ele>1758</ele>
        <time>2026-08-14T04:37:27.376Z</time>
      </trkpt>
      <trkpt lat="45.86364" lon="6.78508">
        <ele>1758</ele>
        <time>2026-08-14T04:37:28.376Z</time>
      </trkpt>
      <trkpt lat="45.86364" lon="6.78507">
        <ele>1757</ele>
        <time>2026-08-14T04:37:29.376Z</time>
      </trkpt>
      <trkpt lat="45.86363" lon="6.78507">
        <ele>1757</ele>
        <time>2026-08-14T04:37:30.376Z</time>
      </trkpt>
      <trkpt lat="45.86362" lon="6.78506">
        <ele>1757</ele>
        <time>2026-08-14T04:37:31.376Z</time>
      </trkpt>
      <trkpt lat="45.86362" lon="6.78505">
        <ele>1756</ele>
        <time>2026-08-14T04:37:32.376Z</time>
      </trkpt>
      <trkpt lat="45.86362" lon="6.78504">
        <ele>1756</ele>
        <time>2026-08-14T04:37:33.376Z</time>
      </trkpt>
      <trkpt lat="45.86361" lon="6.78503">
        <ele>1756</ele>
        <time>2026-08-14T04:37:34.376Z</time>
      </trkpt>
      <trkpt lat="45.86361" lon="6.78502">
        <ele>1755</ele>
        <time>2026-08-14T04:37:35.376Z</time>
      </trkpt>
      <trkpt lat="45.8636" lon="6.78501">
        <ele>1755</ele>
        <time>2026-08-14T04:37:36.376Z</time>
      </trkpt>
      <trkpt lat="45.8636" lon="6.785">
        <ele>1754</ele>
        <time>2026-08-14T04:37:37.376Z</time>
      </trkpt>
      <trkpt lat="45.8636" lon="6.78499">
        <ele>1754</ele>
        <time>2026-08-14T04:37:38.376Z</time>
      </trkpt>
      <trkpt lat="45.8636" lon="6.78498">
        <ele>1753</ele>
        <time>2026-08-14T04:37:39.376Z</time>
      </trkpt>
      <trkpt lat="45.86359" lon="6.78498">
        <ele>1753</ele>
        <time>2026-08-14T04:37:40.376Z</time>
      </trkpt>
      <trkpt lat="45.86359" lon="6.78498">
        <ele>1752</ele>
        <time>2026-08-14T04:37:41.376Z</time>
      </trkpt>
      <trkpt lat="45.86358" lon="6.78497">
        <ele>1752</ele>
        <time>2026-08-14T04:37:42.376Z</time>
      </trkpt>
      <trkpt lat="45.86358" lon="6.78496">
        <ele>1752</ele>
        <time>2026-08-14T04:37:43.376Z</time>
      </trkpt>
      <trkpt lat="45.86357" lon="6.78495">
        <ele>1751</ele>
        <time>2026-08-14T04:37:44.376Z</time>
      </trkpt>
      <trkpt lat="45.86357" lon="6.78495">
        <ele>1751</ele>
        <time>2026-08-14T04:37:45.376Z</time>
      </trkpt>
      <trkpt lat="45.86357" lon="6.78494">
        <ele>1750</ele>
        <time>2026-08-14T04:37:46.376Z</time>
      </trkpt>
      <trkpt lat="45.86357" lon="6.78493">
        <ele>1750</ele>
        <time>2026-08-14T04:37:47.376Z</time>
      </trkpt>
      <trkpt lat="45.86356" lon="6.78492">
        <ele>1750</ele>
        <time>2026-08-14T04:37:48.376Z</time>
      </trkpt>
      <trkpt lat="45.86356" lon="6.78492">
        <ele>1749</ele>
        <time>2026-08-14T04:37:49.376Z</time>
      </trkpt>
      <trkpt lat="45.86355" lon="6.78491">
        <ele>1749</ele>
        <time>2026-08-14T04:37:50.376Z</time>
      </trkpt>
      <trkpt lat="45.86355" lon="6.78491">
        <ele>1748</ele>
        <time>2026-08-14T04:37:51.376Z</time>
      </trkpt>
      <trkpt lat="45.86354" lon="6.7849">
        <ele>1748</ele>
        <time>2026-08-14T04:37:52.376Z</time>
      </trkpt>
      <trkpt lat="45.86353" lon="6.78489">
        <ele>1748</ele>
        <time>2026-08-14T04:37:53.376Z</time>
      </trkpt>
      <trkpt lat="45.86352" lon="6.78487">
        <ele>1747</ele>
        <time>2026-08-14T04:37:54.376Z</time>
      </trkpt>
      <trkpt lat="45.86353" lon="6.78486">
        <ele>1747</ele>
        <time>2026-08-14T04:37:55.376Z</time>
      </trkpt>
      <trkpt lat="45.86353" lon="6.78485">
        <ele>1747</ele>
        <time>2026-08-14T04:37:56.376Z</time>
      </trkpt>
      <trkpt lat="45.86354" lon="6.78484">
        <ele>1746</ele>
        <time>2026-08-14T04:37:57.376Z</time>
      </trkpt>
      <trkpt lat="45.86355" lon="6.78484">
        <ele>1745</ele>
        <time>2026-08-14T04:37:58.376Z</time>
      </trkpt>
      <trkpt lat="45.86357" lon="6.78483">
        <ele>1745</ele>
        <time>2026-08-14T04:37:59.376Z</time>
      </trkpt>
      <trkpt lat="45.86358" lon="6.78482">
        <ele>1744</ele>
        <time>2026-08-14T04:38:00.376Z</time>
      </trkpt>
      <trkpt lat="45.8636" lon="6.78481">
        <ele>1743</ele>
        <time>2026-08-14T04:38:01.376Z</time>
      </trkpt>
      <trkpt lat="45.86361" lon="6.7848">
        <ele>1743</ele>
        <time>2026-08-14T04:38:02.376Z</time>
      </trkpt>
      <trkpt lat="45.86363" lon="6.78479">
        <ele>1743</ele>
        <time>2026-08-14T04:38:03.376Z</time>
      </trkpt>
      <trkpt lat="45.86364" lon="6.78478">
        <ele>1743</ele>
        <time>2026-08-14T04:38:04.376Z</time>
      </trkpt>
      <trkpt lat="45.86364" lon="6.78476">
        <ele>1743</ele>
        <time>2026-08-14T04:38:05.376Z</time>
      </trkpt>
      <trkpt lat="45.86364" lon="6.78475">
        <ele>1743</ele>
        <time>2026-08-14T04:38:06.376Z</time>
      </trkpt>
      <trkpt lat="45.86364" lon="6.78473">
        <ele>1743</ele>
        <time>2026-08-14T04:38:07.376Z</time>
      </trkpt>
      <trkpt lat="45.86364" lon="6.7847">
        <ele>1742</ele>
        <time>2026-08-14T04:38:08.376Z</time>
      </trkpt>
      <trkpt lat="45.86364" lon="6.78467">
        <ele>1743</ele>
        <time>2026-08-14T04:38:09.376Z</time>
      </trkpt>
      <trkpt lat="45.86365" lon="6.78464">
        <ele>1743</ele>
        <time>2026-08-14T04:38:10.376Z</time>
      </trkpt>
      <trkpt lat="45.86365" lon="6.78462">
        <ele>1743</ele>
        <time>2026-08-14T04:38:11.376Z</time>
      </trkpt>
      <trkpt lat="45.86365" lon="6.78459">
        <ele>1743</ele>
        <time>2026-08-14T04:38:12.376Z</time>
      </trkpt>
      <trkpt lat="45.86365" lon="6.78457">
        <ele>1743</ele>
        <time>2026-08-14T04:38:13.376Z</time>
      </trkpt>
      <trkpt lat="45.86365" lon="6.78454">
        <ele>1743</ele>
        <time>2026-08-14T04:38:14.376Z</time>
      </trkpt>
      <trkpt lat="45.86365" lon="6.78452">
        <ele>1743</ele>
        <time>2026-08-14T04:38:15.376Z</time>
      </trkpt>
      <trkpt lat="45.86364" lon="6.7845">
        <ele>1743</ele>
        <time>2026-08-14T04:38:16.376Z</time>
      </trkpt>
      <trkpt lat="45.86364" lon="6.78448">
        <ele>1743</ele>
        <time>2026-08-14T04:38:17.376Z</time>
      </trkpt>
      <trkpt lat="45.86365" lon="6.78444">
        <ele>1742</ele>
        <time>2026-08-14T04:38:18.376Z</time>
      </trkpt>
      <trkpt lat="45.86365" lon="6.78443">
        <ele>1742</ele>
        <time>2026-08-14T04:38:19.376Z</time>
      </trkpt>
      <trkpt lat="45.86365" lon="6.78441">
        <ele>1742</ele>
        <time>2026-08-14T04:38:20.376Z</time>
      </trkpt>
      <trkpt lat="45.86366" lon="6.7844">
        <ele>1741</ele>
        <time>2026-08-14T04:38:21.376Z</time>
      </trkpt>
      <trkpt lat="45.86366" lon="6.78439">
        <ele>1740</ele>
        <time>2026-08-14T04:38:22.376Z</time>
      </trkpt>
      <trkpt lat="45.86365" lon="6.78437">
        <ele>1740</ele>
        <time>2026-08-14T04:38:23.376Z</time>
      </trkpt>
      <trkpt lat="45.86365" lon="6.78435">
        <ele>1739</ele>
        <time>2026-08-14T04:38:24.376Z</time>
      </trkpt>
      <trkpt lat="45.86365" lon="6.78434">
        <ele>1739</ele>
        <time>2026-08-14T04:38:25.376Z</time>
      </trkpt>
      <trkpt lat="45.86364" lon="6.78433">
        <ele>1738</ele>
        <time>2026-08-14T04:38:26.376Z</time>
      </trkpt>
      <trkpt lat="45.86363" lon="6.78432">
        <ele>1738</ele>
        <time>2026-08-14T04:38:27.376Z</time>
      </trkpt>
      <trkpt lat="45.86362" lon="6.78431">
        <ele>1737</ele>
        <time>2026-08-14T04:38:28.376Z</time>
      </trkpt>
      <trkpt lat="45.86361" lon="6.7843">
        <ele>1737</ele>
        <time>2026-08-14T04:38:29.376Z</time>
      </trkpt>
      <trkpt lat="45.8636" lon="6.78428">
        <ele>1737</ele>
        <time>2026-08-14T04:38:30.376Z</time>
      </trkpt>
      <trkpt lat="45.86359" lon="6.78426">
        <ele>1737</ele>
        <time>2026-08-14T04:38:31.376Z</time>
      </trkpt>
      <trkpt lat="45.86359" lon="6.78424">
        <ele>1737</ele>
        <time>2026-08-14T04:38:32.376Z</time>
      </trkpt>
      <trkpt lat="45.86358" lon="6.78423">
        <ele>1736</ele>
        <time>2026-08-14T04:38:33.376Z</time>
      </trkpt>
      <trkpt lat="45.86358" lon="6.78421">
        <ele>1736</ele>
        <time>2026-08-14T04:38:34.376Z</time>
      </trkpt>
      <trkpt lat="45.86357" lon="6.7842">
        <ele>1736</ele>
        <time>2026-08-14T04:38:35.376Z</time>
      </trkpt>
      <trkpt lat="45.86357" lon="6.78419">
        <ele>1736</ele>
        <time>2026-08-14T04:38:36.376Z</time>
      </trkpt>
      <trkpt lat="45.86357" lon="6.78418">
        <ele>1736</ele>
        <time>2026-08-14T04:38:37.376Z</time>
      </trkpt>
      <trkpt lat="45.86356" lon="6.78418">
        <ele>1736</ele>
        <time>2026-08-14T04:38:38.376Z</time>
      </trkpt>
      <trkpt lat="45.86356" lon="6.78418">
        <ele>1735</ele>
        <time>2026-08-14T04:38:39.376Z</time>
      </trkpt>
      <trkpt lat="45.86355" lon="6.78417">
        <ele>1735</ele>
        <time>2026-08-14T04:38:40.376Z</time>
      </trkpt>
      <trkpt lat="45.86355" lon="6.78415">
        <ele>1735</ele>
        <time>2026-08-14T04:38:41.376Z</time>
      </trkpt>
      <trkpt lat="45.86354" lon="6.78413">
        <ele>1735</ele>
        <time>2026-08-14T04:38:42.376Z</time>
      </trkpt>
      <trkpt lat="45.86354" lon="6.78411">
        <ele>1734</ele>
        <time>2026-08-14T04:38:43.376Z</time>
      </trkpt>
      <trkpt lat="45.86354" lon="6.7841">
        <ele>1734</ele>
        <time>2026-08-14T04:38:44.376Z</time>
      </trkpt>
      <trkpt lat="45.86353" lon="6.78408">
        <ele>1734</ele>
        <time>2026-08-14T04:38:45.376Z</time>
      </trkpt>
      <trkpt lat="45.86352" lon="6.78407">
        <ele>1734</ele>
        <time>2026-08-14T04:38:46.376Z</time>
      </trkpt>
      <trkpt lat="45.86352" lon="6.78406">
        <ele>1734</ele>
        <time>2026-08-14T04:38:47.376Z</time>
      </trkpt>
      <trkpt lat="45.86352" lon="6.78404">
        <ele>1734</ele>
        <time>2026-08-14T04:38:48.376Z</time>
      </trkpt>
      <trkpt lat="45.86352" lon="6.78402">
        <ele>1733</ele>
        <time>2026-08-14T04:38:49.376Z</time>
      </trkpt>
      <trkpt lat="45.86352" lon="6.78399">
        <ele>1733</ele>
        <time>2026-08-14T04:38:50.376Z</time>
      </trkpt>
      <trkpt lat="45.86353" lon="6.78397">
        <ele>1733</ele>
        <time>2026-08-14T04:38:51.376Z</time>
      </trkpt>
      <trkpt lat="45.86354" lon="6.78395">
        <ele>1732</ele>
        <time>2026-08-14T04:38:52.376Z</time>
      </trkpt>
      <trkpt lat="45.86354" lon="6.78392">
        <ele>1732</ele>
        <time>2026-08-14T04:38:53.376Z</time>
      </trkpt>
      <trkpt lat="45.86353" lon="6.78391">
        <ele>1731</ele>
        <time>2026-08-14T04:38:54.376Z</time>
      </trkpt>
      <trkpt lat="45.86353" lon="6.78389">
        <ele>1731</ele>
        <time>2026-08-14T04:38:55.376Z</time>
      </trkpt>
      <trkpt lat="45.86353" lon="6.78388">
        <ele>1731</ele>
        <time>2026-08-14T04:38:56.376Z</time>
      </trkpt>
      <trkpt lat="45.86353" lon="6.78386">
        <ele>1731</ele>
        <time>2026-08-14T04:38:57.376Z</time>
      </trkpt>
      <trkpt lat="45.86354" lon="6.78384">
        <ele>1731</ele>
        <time>2026-08-14T04:38:58.376Z</time>
      </trkpt>
      <trkpt lat="45.86354" lon="6.78383">
        <ele>1731</ele>
        <time>2026-08-14T04:38:59.376Z</time>
      </trkpt>
      <trkpt lat="45.86354" lon="6.78382">
        <ele>1731</ele>
        <time>2026-08-14T04:39:00.376Z</time>
      </trkpt>
      <trkpt lat="45.86355" lon="6.78381">
        <ele>1731</ele>
        <time>2026-08-14T04:39:01.376Z</time>
      </trkpt>
      <trkpt lat="45.86355" lon="6.78379">
        <ele>1731</ele>
        <time>2026-08-14T04:39:02.376Z</time>
      </trkpt>
      <trkpt lat="45.86356" lon="6.78378">
        <ele>1731</ele>
        <time>2026-08-14T04:39:03.376Z</time>
      </trkpt>
      <trkpt lat="45.86356" lon="6.78377">
        <ele>1731</ele>
        <time>2026-08-14T04:39:04.376Z</time>
      </trkpt>
      <trkpt lat="45.86356" lon="6.78376">
        <ele>1731</ele>
        <time>2026-08-14T04:39:05.376Z</time>
      </trkpt>
      <trkpt lat="45.86356" lon="6.78374">
        <ele>1731</ele>
        <time>2026-08-14T04:39:06.376Z</time>
      </trkpt>
      <trkpt lat="45.86356" lon="6.78372">
        <ele>1731</ele>
        <time>2026-08-14T04:39:07.376Z</time>
      </trkpt>
      <trkpt lat="45.86356" lon="6.78369">
        <ele>1730</ele>
        <time>2026-08-14T04:39:08.376Z</time>
      </trkpt>
      <trkpt lat="45.86356" lon="6.78366">
        <ele>1730</ele>
        <time>2026-08-14T04:39:09.376Z</time>
      </trkpt>
      <trkpt lat="45.86355" lon="6.78364">
        <ele>1729</ele>
        <time>2026-08-14T04:39:10.376Z</time>
      </trkpt>
      <trkpt lat="45.86354" lon="6.78362">
        <ele>1729</ele>
        <time>2026-08-14T04:39:11.376Z</time>
      </trkpt>
      <trkpt lat="45.86354" lon="6.7836">
        <ele>1728</ele>
        <time>2026-08-14T04:39:12.376Z</time>
      </trkpt>
      <trkpt lat="45.86353" lon="6.78359">
        <ele>1728</ele>
        <time>2026-08-14T04:39:13.376Z</time>
      </trkpt>
      <trkpt lat="45.86352" lon="6.78357">
        <ele>1728</ele>
        <time>2026-08-14T04:39:14.376Z</time>
      </trkpt>
      <trkpt lat="45.86352" lon="6.78356">
        <ele>1727</ele>
        <time>2026-08-14T04:39:15.376Z</time>
      </trkpt>
      <trkpt lat="45.86351" lon="6.78355">
        <ele>1727</ele>
        <time>2026-08-14T04:39:16.376Z</time>
      </trkpt>
      <trkpt lat="45.8635" lon="6.78354">
        <ele>1728</ele>
        <time>2026-08-14T04:39:17.376Z</time>
      </trkpt>
      <trkpt lat="45.86349" lon="6.78354">
        <ele>1728</ele>
        <time>2026-08-14T04:39:18.376Z</time>
      </trkpt>
      <trkpt lat="45.86349" lon="6.78354">
        <ele>1728</ele>
        <time>2026-08-14T04:39:19.376Z</time>
      </trkpt>
      <trkpt lat="45.86349" lon="6.78354">
        <ele>1728</ele>
        <time>2026-08-14T04:39:20.376Z</time>
      </trkpt>
      <trkpt lat="45.86349" lon="6.78354">
        <ele>1728</ele>
        <time>2026-08-14T04:39:21.376Z</time>
      </trkpt>
      <trkpt lat="45.86348" lon="6.78354">
        <ele>1728</ele>
        <time>2026-08-14T04:39:22.376Z</time>
      </trkpt>
      <trkpt lat="45.86347" lon="6.78353">
        <ele>1728</ele>
        <time>2026-08-14T04:39:23.376Z</time>
      </trkpt>
      <trkpt lat="45.86346" lon="6.78353">
        <ele>1728</ele>
        <time>2026-08-14T04:39:24.376Z</time>
      </trkpt>
      <trkpt lat="45.86344" lon="6.78353">
        <ele>1728</ele>
        <time>2026-08-14T04:39:25.376Z</time>
      </trkpt>
      <trkpt lat="45.86343" lon="6.78353">
        <ele>1728</ele>
        <time>2026-08-14T04:39:26.376Z</time>
      </trkpt>
      <trkpt lat="45.86342" lon="6.78352">
        <ele>1728</ele>
        <time>2026-08-14T04:39:27.376Z</time>
      </trkpt>
      <trkpt lat="45.86341" lon="6.78352">
        <ele>1727</ele>
        <time>2026-08-14T04:39:28.376Z</time>
      </trkpt>
      <trkpt lat="45.8634" lon="6.78352">
        <ele>1727</ele>
        <time>2026-08-14T04:39:29.376Z</time>
      </trkpt>
      <trkpt lat="45.86338" lon="6.78353">
        <ele>1727</ele>
        <time>2026-08-14T04:39:30.376Z</time>
      </trkpt>
      <trkpt lat="45.86337" lon="6.78353">
        <ele>1727</ele>
        <time>2026-08-14T04:39:31.376Z</time>
      </trkpt>
      <trkpt lat="45.86335" lon="6.78353">
        <ele>1727</ele>
        <time>2026-08-14T04:39:32.376Z</time>
      </trkpt>
      <trkpt lat="45.86334" lon="6.78353">
        <ele>1726</ele>
        <time>2026-08-14T04:39:33.376Z</time>
      </trkpt>
      <trkpt lat="45.86333" lon="6.78353">
        <ele>1726</ele>
        <time>2026-08-14T04:39:34.376Z</time>
      </trkpt>
      <trkpt lat="45.86332" lon="6.78353">
        <ele>1726</ele>
        <time>2026-08-14T04:39:35.376Z</time>
      </trkpt>
      <trkpt lat="45.8633" lon="6.78353">
        <ele>1725</ele>
        <time>2026-08-14T04:39:36.376Z</time>
      </trkpt>
      <trkpt lat="45.86329" lon="6.78354">
        <ele>1725</ele>
        <time>2026-08-14T04:39:37.376Z</time>
      </trkpt>
      <trkpt lat="45.86329" lon="6.78354">
        <ele>1725</ele>
        <time>2026-08-14T04:39:38.376Z</time>
      </trkpt>
      <trkpt lat="45.86327" lon="6.78354">
        <ele>1724</ele>
        <time>2026-08-14T04:39:39.376Z</time>
      </trkpt>
      <trkpt lat="45.86326" lon="6.78354">
        <ele>1724</ele>
        <time>2026-08-14T04:39:40.376Z</time>
      </trkpt>
      <trkpt lat="45.86324" lon="6.78355">
        <ele>1723</ele>
        <time>2026-08-14T04:39:41.376Z</time>
      </trkpt>
      <trkpt lat="45.86323" lon="6.78355">
        <ele>1723</ele>
        <time>2026-08-14T04:39:42.376Z</time>
      </trkpt>
      <trkpt lat="45.86322" lon="6.78355">
        <ele>1722</ele>
        <time>2026-08-14T04:39:43.376Z</time>
      </trkpt>
      <trkpt lat="45.86322" lon="6.78355">
        <ele>1721</ele>
        <time>2026-08-14T04:39:44.376Z</time>
      </trkpt>
      <trkpt lat="45.86322" lon="6.78355">
        <ele>1721</ele>
        <time>2026-08-14T04:39:45.376Z</time>
      </trkpt>
      <trkpt lat="45.86322" lon="6.78355">
        <ele>1720</ele>
        <time>2026-08-14T04:39:46.376Z</time>
      </trkpt>
      <trkpt lat="45.86322" lon="6.78354">
        <ele>1720</ele>
        <time>2026-08-14T04:39:47.376Z</time>
      </trkpt>
      <trkpt lat="45.86322" lon="6.78354">
        <ele>1720</ele>
        <time>2026-08-14T04:39:48.376Z</time>
      </trkpt>
      <trkpt lat="45.86322" lon="6.78354">
        <ele>1720</ele>
        <time>2026-08-14T04:39:49.376Z</time>
      </trkpt>
      <trkpt lat="45.86321" lon="6.78354">
        <ele>1720</ele>
        <time>2026-08-14T04:39:50.376Z</time>
      </trkpt>
      <trkpt lat="45.8632" lon="6.78354">
        <ele>1720</ele>
        <time>2026-08-14T04:39:51.376Z</time>
      </trkpt>
      <trkpt lat="45.86319" lon="6.78354">
        <ele>1719</ele>
        <time>2026-08-14T04:39:52.376Z</time>
      </trkpt>
      <trkpt lat="45.86319" lon="6.78353">
        <ele>1719</ele>
        <time>2026-08-14T04:39:53.376Z</time>
      </trkpt>
      <trkpt lat="45.86318" lon="6.78353">
        <ele>1719</ele>
        <time>2026-08-14T04:39:54.376Z</time>
      </trkpt>
      <trkpt lat="45.86317" lon="6.78352">
        <ele>1719</ele>
        <time>2026-08-14T04:39:55.376Z</time>
      </trkpt>
      <trkpt lat="45.86317" lon="6.78352">
        <ele>1719</ele>
        <time>2026-08-14T04:39:56.376Z</time>
      </trkpt>
      <trkpt lat="45.86317" lon="6.78352">
        <ele>1718</ele>
        <time>2026-08-14T04:39:57.376Z</time>
      </trkpt>
      <trkpt lat="45.86316" lon="6.78351">
        <ele>1718</ele>
        <time>2026-08-14T04:39:58.376Z</time>
      </trkpt>
      <trkpt lat="45.86315" lon="6.7835">
        <ele>1718</ele>
        <time>2026-08-14T04:39:59.376Z</time>
      </trkpt>
      <trkpt lat="45.86314" lon="6.7835">
        <ele>1718</ele>
        <time>2026-08-14T04:40:00.376Z</time>
      </trkpt>
      <trkpt lat="45.86313" lon="6.78349">
        <ele>1718</ele>
        <time>2026-08-14T04:40:01.376Z</time>
      </trkpt>
      <trkpt lat="45.86313" lon="6.78348">
        <ele>1718</ele>
        <time>2026-08-14T04:40:02.376Z</time>
      </trkpt>
      <trkpt lat="45.86312" lon="6.78348">
        <ele>1718</ele>
        <time>2026-08-14T04:40:03.376Z</time>
      </trkpt>
      <trkpt lat="45.86312" lon="6.78347">
        <ele>1718</ele>
        <time>2026-08-14T04:40:04.376Z</time>
      </trkpt>
      <trkpt lat="45.86311" lon="6.78348">
        <ele>1718</ele>
        <time>2026-08-14T04:40:05.376Z</time>
      </trkpt>
      <trkpt lat="45.86311" lon="6.78347">
        <ele>1718</ele>
        <time>2026-08-14T04:40:06.376Z</time>
      </trkpt>
      <trkpt lat="45.8631" lon="6.78347">
        <ele>1719</ele>
        <time>2026-08-14T04:40:07.376Z</time>
      </trkpt>
      <trkpt lat="45.86309" lon="6.78347">
        <ele>1719</ele>
        <time>2026-08-14T04:40:08.376Z</time>
      </trkpt>
      <trkpt lat="45.86308" lon="6.78347">
        <ele>1719</ele>
        <time>2026-08-14T04:40:09.376Z</time>
      </trkpt>
      <trkpt lat="45.86307" lon="6.78347">
        <ele>1719</ele>
        <time>2026-08-14T04:40:10.376Z</time>
      </trkpt>
      <trkpt lat="45.86306" lon="6.78347">
        <ele>1719</ele>
        <time>2026-08-14T04:40:11.376Z</time>
      </trkpt>
      <trkpt lat="45.86305" lon="6.78346">
        <ele>1719</ele>
        <time>2026-08-14T04:40:12.376Z</time>
      </trkpt>
      <trkpt lat="45.86303" lon="6.78345">
        <ele>1719</ele>
        <time>2026-08-14T04:40:13.376Z</time>
      </trkpt>
      <trkpt lat="45.86302" lon="6.78345">
        <ele>1718</ele>
        <time>2026-08-14T04:40:14.376Z</time>
      </trkpt>
      <trkpt lat="45.86301" lon="6.78344">
        <ele>1718</ele>
        <time>2026-08-14T04:40:15.376Z</time>
      </trkpt>
      <trkpt lat="45.863" lon="6.78343">
        <ele>1719</ele>
        <time>2026-08-14T04:40:16.376Z</time>
      </trkpt>
      <trkpt lat="45.86299" lon="6.78343">
        <ele>1719</ele>
        <time>2026-08-14T04:40:17.376Z</time>
      </trkpt>
      <trkpt lat="45.86299" lon="6.78343">
        <ele>1718</ele>
        <time>2026-08-14T04:40:18.376Z</time>
      </trkpt>
      <trkpt lat="45.86298" lon="6.78343">
        <ele>1718</ele>
        <time>2026-08-14T04:40:19.376Z</time>
      </trkpt>
      <trkpt lat="45.86298" lon="6.78342">
        <ele>1718</ele>
        <time>2026-08-14T04:40:20.376Z</time>
      </trkpt>
      <trkpt lat="45.86297" lon="6.78342">
        <ele>1717</ele>
        <time>2026-08-14T04:40:21.376Z</time>
      </trkpt>
      <trkpt lat="45.86297" lon="6.78342">
        <ele>1716</ele>
        <time>2026-08-14T04:40:22.376Z</time>
      </trkpt>
      <trkpt lat="45.86297" lon="6.78342">
        <ele>1716</ele>
        <time>2026-08-14T04:40:23.376Z</time>
      </trkpt>
      <trkpt lat="45.86297" lon="6.78341">
        <ele>1715</ele>
        <time>2026-08-14T04:40:24.376Z</time>
      </trkpt>
      <trkpt lat="45.86296" lon="6.78341">
        <ele>1715</ele>
        <time>2026-08-14T04:40:25.376Z</time>
      </trkpt>
      <trkpt lat="45.86295" lon="6.7834">
        <ele>1714</ele>
        <time>2026-08-14T04:40:26.376Z</time>
      </trkpt>
      <trkpt lat="45.86295" lon="6.7834">
        <ele>1714</ele>
        <time>2026-08-14T04:40:27.376Z</time>
      </trkpt>
      <trkpt lat="45.86295" lon="6.7834">
        <ele>1713</ele>
        <time>2026-08-14T04:40:28.376Z</time>
      </trkpt>
      <trkpt lat="45.86295" lon="6.78339">
        <ele>1712</ele>
        <time>2026-08-14T04:40:29.376Z</time>
      </trkpt>
      <trkpt lat="45.86295" lon="6.78338">
        <ele>1712</ele>
        <time>2026-08-14T04:40:30.376Z</time>
      </trkpt>
      <trkpt lat="45.86294" lon="6.78337">
        <ele>1711</ele>
        <time>2026-08-14T04:40:31.376Z</time>
      </trkpt>
      <trkpt lat="45.86294" lon="6.78337">
        <ele>1710</ele>
        <time>2026-08-14T04:40:32.376Z</time>
      </trkpt>
      <trkpt lat="45.86294" lon="6.78336">
        <ele>1709</ele>
        <time>2026-08-14T04:40:33.376Z</time>
      </trkpt>
      <trkpt lat="45.86294" lon="6.78335">
        <ele>1708</ele>
        <time>2026-08-14T04:40:34.376Z</time>
      </trkpt>
      <trkpt lat="45.86294" lon="6.78335">
        <ele>1707</ele>
        <time>2026-08-14T04:40:35.376Z</time>
      </trkpt>
      <trkpt lat="45.86294" lon="6.78334">
        <ele>1706</ele>
        <time>2026-08-14T04:40:36.376Z</time>
      </trkpt>
      <trkpt lat="45.86294" lon="6.78334">
        <ele>1705</ele>
        <time>2026-08-14T04:40:37.376Z</time>
      </trkpt>
      <trkpt lat="45.86294" lon="6.78334">
        <ele>1704</ele>
        <time>2026-08-14T04:40:38.376Z</time>
      </trkpt>
      <trkpt lat="45.86294" lon="6.78333">
        <ele>1704</ele>
        <time>2026-08-14T04:40:39.376Z</time>
      </trkpt>
      <trkpt lat="45.86294" lon="6.78333">
        <ele>1703</ele>
        <time>2026-08-14T04:40:40.376Z</time>
      </trkpt>
      <trkpt lat="45.86293" lon="6.78332">
        <ele>1703</ele>
        <time>2026-08-14T04:40:41.376Z</time>
      </trkpt>
      <trkpt lat="45.86293" lon="6.78332">
        <ele>1703</ele>
        <time>2026-08-14T04:40:42.376Z</time>
      </trkpt>
      <trkpt lat="45.86294" lon="6.78331">
        <ele>1703</ele>
        <time>2026-08-14T04:40:43.376Z</time>
      </trkpt>
      <trkpt lat="45.86294" lon="6.7833">
        <ele>1703</ele>
        <time>2026-08-14T04:40:44.376Z</time>
      </trkpt>
      <trkpt lat="45.86294" lon="6.7833">
        <ele>1702</ele>
        <time>2026-08-14T04:40:45.376Z</time>
      </trkpt>
      <trkpt lat="45.86294" lon="6.78329">
        <ele>1702</ele>
        <time>2026-08-14T04:40:46.376Z</time>
      </trkpt>
      <trkpt lat="45.86294" lon="6.78328">
        <ele>1702</ele>
        <time>2026-08-14T04:40:47.376Z</time>
      </trkpt>
      <trkpt lat="45.86295" lon="6.78328">
        <ele>1702</ele>
        <time>2026-08-14T04:40:48.376Z</time>
      </trkpt>
      <trkpt lat="45.86295" lon="6.78327">
        <ele>1702</ele>
        <time>2026-08-14T04:40:49.376Z</time>
      </trkpt>
      <trkpt lat="45.86295" lon="6.78327">
        <ele>1702</ele>
        <time>2026-08-14T04:40:50.376Z</time>
      </trkpt>
      <trkpt lat="45.86296" lon="6.78326">
        <ele>1702</ele>
        <time>2026-08-14T04:40:51.376Z</time>
      </trkpt>
      <trkpt lat="45.86296" lon="6.78326">
        <ele>1702</ele>
        <time>2026-08-14T04:40:52.376Z</time>
      </trkpt>
      <trkpt lat="45.86296" lon="6.78325">
        <ele>1702</ele>
        <time>2026-08-14T04:40:53.376Z</time>
      </trkpt>
      <trkpt lat="45.86295" lon="6.78325">
        <ele>1702</ele>
        <time>2026-08-14T04:40:54.376Z</time>
      </trkpt>
      <trkpt lat="45.86295" lon="6.78324">
        <ele>1701</ele>
        <time>2026-08-14T04:40:55.376Z</time>
      </trkpt>
      <trkpt lat="45.86295" lon="6.78323">
        <ele>1701</ele>
        <time>2026-08-14T04:40:56.376Z</time>
      </trkpt>
      <trkpt lat="45.86295" lon="6.78322">
        <ele>1702</ele>
        <time>2026-08-14T04:40:57.376Z</time>
      </trkpt>
      <trkpt lat="45.86296" lon="6.78321">
        <ele>1702</ele>
        <time>2026-08-14T04:40:58.376Z</time>
      </trkpt>
      <trkpt lat="45.86296" lon="6.7832">
        <ele>1702</ele>
        <time>2026-08-14T04:40:59.376Z</time>
      </trkpt>
      <trkpt lat="45.86296" lon="6.7832">
        <ele>1702</ele>
        <time>2026-08-14T04:41:00.376Z</time>
      </trkpt>
      <trkpt lat="45.86296" lon="6.7832">
        <ele>1702</ele>
        <time>2026-08-14T04:41:01.376Z</time>
      </trkpt>
      <trkpt lat="45.86296" lon="6.78319">
        <ele>1701</ele>
        <time>2026-08-14T04:41:02.376Z</time>
      </trkpt>
      <trkpt lat="45.86296" lon="6.78319">
        <ele>1701</ele>
        <time>2026-08-14T04:41:03.376Z</time>
      </trkpt>
      <trkpt lat="45.86295" lon="6.78318">
        <ele>1701</ele>
        <time>2026-08-14T04:41:04.376Z</time>
      </trkpt>
      <trkpt lat="45.86295" lon="6.78317">
        <ele>1701</ele>
        <time>2026-08-14T04:41:05.376Z</time>
      </trkpt>
      <trkpt lat="45.86294" lon="6.78317">
        <ele>1701</ele>
        <time>2026-08-14T04:41:06.376Z</time>
      </trkpt>
      <trkpt lat="45.86293" lon="6.78316">
        <ele>1701</ele>
        <time>2026-08-14T04:41:07.376Z</time>
      </trkpt>
      <trkpt lat="45.86293" lon="6.78315">
        <ele>1701</ele>
        <time>2026-08-14T04:41:08.376Z</time>
      </trkpt>
      <trkpt lat="45.86292" lon="6.78315">
        <ele>1702</ele>
        <time>2026-08-14T04:41:09.376Z</time>
      </trkpt>
      <trkpt lat="45.86291" lon="6.78314">
        <ele>1702</ele>
        <time>2026-08-14T04:41:10.376Z</time>
      </trkpt>
      <trkpt lat="45.8629" lon="6.78314">
        <ele>1703</ele>
        <time>2026-08-14T04:41:11.376Z</time>
      </trkpt>
      <trkpt lat="45.8629" lon="6.78313">
        <ele>1703</ele>
        <time>2026-08-14T04:41:12.376Z</time>
      </trkpt>
      <trkpt lat="45.86289" lon="6.78312">
        <ele>1703</ele>
        <time>2026-08-14T04:41:13.376Z</time>
      </trkpt>
      <trkpt lat="45.86288" lon="6.78312">
        <ele>1703</ele>
        <time>2026-08-14T04:41:14.376Z</time>
      </trkpt>
      <trkpt lat="45.86287" lon="6.78311">
        <ele>1703</ele>
        <time>2026-08-14T04:41:15.376Z</time>
      </trkpt>
      <trkpt lat="45.86287" lon="6.7831">
        <ele>1703</ele>
        <time>2026-08-14T04:41:16.376Z</time>
      </trkpt>
      <trkpt lat="45.86286" lon="6.7831">
        <ele>1703</ele>
        <time>2026-08-14T04:41:17.376Z</time>
      </trkpt>
      <trkpt lat="45.86285" lon="6.78309">
        <ele>1703</ele>
        <time>2026-08-14T04:41:18.376Z</time>
      </trkpt>
      <trkpt lat="45.86284" lon="6.78308">
        <ele>1703</ele>
        <time>2026-08-14T04:41:19.376Z</time>
      </trkpt>
      <trkpt lat="45.86283" lon="6.78308">
        <ele>1702</ele>
        <time>2026-08-14T04:41:20.376Z</time>
      </trkpt>
      <trkpt lat="45.86283" lon="6.78307">
        <ele>1702</ele>
        <time>2026-08-14T04:41:21.376Z</time>
      </trkpt>
      <trkpt lat="45.86282" lon="6.78307">
        <ele>1702</ele>
        <time>2026-08-14T04:41:22.376Z</time>
      </trkpt>
      <trkpt lat="45.86281" lon="6.78306">
        <ele>1702</ele>
        <time>2026-08-14T04:41:23.376Z</time>
      </trkpt>
      <trkpt lat="45.8628" lon="6.78305">
        <ele>1702</ele>
        <time>2026-08-14T04:41:24.376Z</time>
      </trkpt>
      <trkpt lat="45.8628" lon="6.78304">
        <ele>1703</ele>
        <time>2026-08-14T04:41:25.376Z</time>
      </trkpt>
      <trkpt lat="45.86279" lon="6.78303">
        <ele>1702</ele>
        <time>2026-08-14T04:41:26.376Z</time>
      </trkpt>
      <trkpt lat="45.86278" lon="6.78303">
        <ele>1702</ele>
        <time>2026-08-14T04:41:27.376Z</time>
      </trkpt>
      <trkpt lat="45.86278" lon="6.78302">
        <ele>1702</ele>
        <time>2026-08-14T04:41:28.376Z</time>
      </trkpt>
      <trkpt lat="45.86277" lon="6.78301">
        <ele>1702</ele>
        <time>2026-08-14T04:41:29.376Z</time>
      </trkpt>
      <trkpt lat="45.86277" lon="6.78301">
        <ele>1702</ele>
        <time>2026-08-14T04:41:30.376Z</time>
      </trkpt>
      <trkpt lat="45.86276" lon="6.783">
        <ele>1702</ele>
        <time>2026-08-14T04:41:31.376Z</time>
      </trkpt>
      <trkpt lat="45.86275" lon="6.783">
        <ele>1702</ele>
        <time>2026-08-14T04:41:32.376Z</time>
      </trkpt>
      <trkpt lat="45.86274" lon="6.78299">
        <ele>1702</ele>
        <time>2026-08-14T04:41:33.376Z</time>
      </trkpt>
      <trkpt lat="45.86274" lon="6.78298">
        <ele>1702</ele>
        <time>2026-08-14T04:41:34.376Z</time>
      </trkpt>
      <trkpt lat="45.86273" lon="6.78298">
        <ele>1701</ele>
        <time>2026-08-14T04:41:35.376Z</time>
      </trkpt>
      <trkpt lat="45.86272" lon="6.78297">
        <ele>1701</ele>
        <time>2026-08-14T04:41:36.376Z</time>
      </trkpt>
      <trkpt lat="45.86271" lon="6.78296">
        <ele>1701</ele>
        <time>2026-08-14T04:41:37.376Z</time>
      </trkpt>
      <trkpt lat="45.8627" lon="6.78295">
        <ele>1701</ele>
        <time>2026-08-14T04:41:38.376Z</time>
      </trkpt>
      <trkpt lat="45.8627" lon="6.78295">
        <ele>1702</ele>
        <time>2026-08-14T04:41:39.376Z</time>
      </trkpt>
      <trkpt lat="45.86269" lon="6.78296">
        <ele>1702</ele>
        <time>2026-08-14T04:41:40.376Z</time>
      </trkpt>
      <trkpt lat="45.86268" lon="6.78296">
        <ele>1702</ele>
        <time>2026-08-14T04:41:41.376Z</time>
      </trkpt>
      <trkpt lat="45.86268" lon="6.78296">
        <ele>1702</ele>
        <time>2026-08-14T04:41:42.376Z</time>
      </trkpt>
      <trkpt lat="45.86268" lon="6.78295">
        <ele>1702</ele>
        <time>2026-08-14T04:41:43.376Z</time>
      </trkpt>
      <trkpt lat="45.86267" lon="6.78296">
        <ele>1703</ele>
        <time>2026-08-14T04:41:44.376Z</time>
      </trkpt>
      <trkpt lat="45.86267" lon="6.78296">
        <ele>1703</ele>
        <time>2026-08-14T04:41:45.376Z</time>
      </trkpt>
      <trkpt lat="45.86266" lon="6.78298">
        <ele>1703</ele>
        <time>2026-08-14T04:41:46.376Z</time>
      </trkpt>
      <trkpt lat="45.86266" lon="6.78299">
        <ele>1703</ele>
        <time>2026-08-14T04:41:47.376Z</time>
      </trkpt>
      <trkpt lat="45.86266" lon="6.78299">
        <ele>1703</ele>
        <time>2026-08-14T04:41:48.376Z</time>
      </trkpt>
      <trkpt lat="45.86266" lon="6.783">
        <ele>1703</ele>
        <time>2026-08-14T04:41:49.376Z</time>
      </trkpt>
      <trkpt lat="45.86266" lon="6.783">
        <ele>1704</ele>
        <time>2026-08-14T04:41:50.376Z</time>
      </trkpt>
      <trkpt lat="45.86266" lon="6.78301">
        <ele>1704</ele>
        <time>2026-08-14T04:41:51.376Z</time>
      </trkpt>
      <trkpt lat="45.86266" lon="6.78301">
        <ele>1705</ele>
        <time>2026-08-14T04:41:52.376Z</time>
      </trkpt>
      <trkpt lat="45.86265" lon="6.78302">
        <ele>1705</ele>
        <time>2026-08-14T04:41:53.376Z</time>
      </trkpt>
      <trkpt lat="45.86264" lon="6.78302">
        <ele>1706</ele>
        <time>2026-08-14T04:41:54.376Z</time>
      </trkpt>
      <trkpt lat="45.86264" lon="6.78303">
        <ele>1706</ele>
        <time>2026-08-14T04:41:55.376Z</time>
      </trkpt>
      <trkpt lat="45.86263" lon="6.78304">
        <ele>1707</ele>
        <time>2026-08-14T04:41:56.376Z</time>
      </trkpt>
      <trkpt lat="45.86263" lon="6.78304">
        <ele>1708</ele>
        <time>2026-08-14T04:41:57.376Z</time>
      </trkpt>
      <trkpt lat="45.86263" lon="6.78304">
        <ele>1709</ele>
        <time>2026-08-14T04:41:58.376Z</time>
      </trkpt>
      <trkpt lat="45.86262" lon="6.78305">
        <ele>1710</ele>
        <time>2026-08-14T04:41:59.376Z</time>
      </trkpt>
      <trkpt lat="45.86261" lon="6.78306">
        <ele>1711</ele>
        <time>2026-08-14T04:42:00.376Z</time>
      </trkpt>
      <trkpt lat="45.86261" lon="6.78307">
        <ele>1711</ele>
        <time>2026-08-14T04:42:01.376Z</time>
      </trkpt>
      <trkpt lat="45.8626" lon="6.78308">
        <ele>1712</ele>
        <time>2026-08-14T04:42:02.376Z</time>
      </trkpt>
      <trkpt lat="45.86259" lon="6.78308">
        <ele>1712</ele>
        <time>2026-08-14T04:42:03.376Z</time>
      </trkpt>
      <trkpt lat="45.86259" lon="6.78308">
        <ele>1713</ele>
        <time>2026-08-14T04:42:04.376Z</time>
      </trkpt>
      <trkpt lat="45.86258" lon="6.78307">
        <ele>1713</ele>
        <time>2026-08-14T04:42:05.376Z</time>
      </trkpt>
      <trkpt lat="45.86258" lon="6.78306">
        <ele>1714</ele>
        <time>2026-08-14T04:42:06.376Z</time>
      </trkpt>
      <trkpt lat="45.86258" lon="6.78305">
        <ele>1714</ele>
        <time>2026-08-14T04:42:07.376Z</time>
      </trkpt>
      <trkpt lat="45.86258" lon="6.78304">
        <ele>1714</ele>
        <time>2026-08-14T04:42:08.376Z</time>
      </trkpt>
      <trkpt lat="45.86257" lon="6.78304">
        <ele>1714</ele>
        <time>2026-08-14T04:42:09.376Z</time>
      </trkpt>
      <trkpt lat="45.86256" lon="6.78303">
        <ele>1714</ele>
        <time>2026-08-14T04:42:10.376Z</time>
      </trkpt>
      <trkpt lat="45.86255" lon="6.78303">
        <ele>1714</ele>
        <time>2026-08-14T04:42:11.376Z</time>
      </trkpt>
      <trkpt lat="45.86253" lon="6.78303">
        <ele>1714</ele>
        <time>2026-08-14T04:42:12.376Z</time>
      </trkpt>
      <trkpt lat="45.86252" lon="6.78303">
        <ele>1714</ele>
        <time>2026-08-14T04:42:13.376Z</time>
      </trkpt>
      <trkpt lat="45.8625" lon="6.78305">
        <ele>1714</ele>
        <time>2026-08-14T04:42:14.376Z</time>
      </trkpt>
      <trkpt lat="45.8625" lon="6.78305">
        <ele>1713</ele>
        <time>2026-08-14T04:42:15.376Z</time>
      </trkpt>
      <trkpt lat="45.86249" lon="6.78305">
        <ele>1713</ele>
        <time>2026-08-14T04:42:16.376Z</time>
      </trkpt>
      <trkpt lat="45.86248" lon="6.78305">
        <ele>1713</ele>
        <time>2026-08-14T04:42:17.376Z</time>
      </trkpt>
      <trkpt lat="45.86248" lon="6.78305">
        <ele>1713</ele>
        <time>2026-08-14T04:42:18.376Z</time>
      </trkpt>
      <trkpt lat="45.86247" lon="6.78306">
        <ele>1713</ele>
        <time>2026-08-14T04:42:19.376Z</time>
      </trkpt>
      <trkpt lat="45.86247" lon="6.78306">
        <ele>1713</ele>
        <time>2026-08-14T04:42:20.376Z</time>
      </trkpt>
      <trkpt lat="45.86246" lon="6.78306">
        <ele>1713</ele>
        <time>2026-08-14T04:42:21.376Z</time>
      </trkpt>
      <trkpt lat="45.86246" lon="6.78306">
        <ele>1713</ele>
        <time>2026-08-14T04:42:22.376Z</time>
      </trkpt>
      <trkpt lat="45.86245" lon="6.78306">
        <ele>1713</ele>
        <time>2026-08-14T04:42:23.376Z</time>
      </trkpt>
      <trkpt lat="45.86244" lon="6.78306">
        <ele>1713</ele>
        <time>2026-08-14T04:42:24.376Z</time>
      </trkpt>
      <trkpt lat="45.86243" lon="6.78305">
        <ele>1713</ele>
        <time>2026-08-14T04:42:25.376Z</time>
      </trkpt>
      <trkpt lat="45.86242" lon="6.78305">
        <ele>1714</ele>
        <time>2026-08-14T04:42:26.376Z</time>
      </trkpt>
      <trkpt lat="45.86242" lon="6.78305">
        <ele>1714</ele>
        <time>2026-08-14T04:42:27.376Z</time>
      </trkpt>
      <trkpt lat="45.86242" lon="6.78305">
        <ele>1714</ele>
        <time>2026-08-14T04:42:28.376Z</time>
      </trkpt>
      <trkpt lat="45.86242" lon="6.78305">
        <ele>1714</ele>
        <time>2026-08-14T04:42:29.376Z</time>
      </trkpt>
      <trkpt lat="45.86241" lon="6.78306">
        <ele>1714</ele>
        <time>2026-08-14T04:42:30.376Z</time>
      </trkpt>
      <trkpt lat="45.86241" lon="6.78306">
        <ele>1714</ele>
        <time>2026-08-14T04:42:31.376Z</time>
      </trkpt>
      <trkpt lat="45.8624" lon="6.78306">
        <ele>1713</ele>
        <time>2026-08-14T04:42:32.376Z</time>
      </trkpt>
      <trkpt lat="45.86239" lon="6.78306">
        <ele>1713</ele>
        <time>2026-08-14T04:42:33.376Z</time>
      </trkpt>
      <trkpt lat="45.86239" lon="6.78306">
        <ele>1713</ele>
        <time>2026-08-14T04:42:34.376Z</time>
      </trkpt>
      <trkpt lat="45.86238" lon="6.78307">
        <ele>1713</ele>
        <time>2026-08-14T04:42:35.376Z</time>
      </trkpt>
      <trkpt lat="45.86238" lon="6.78307">
        <ele>1713</ele>
        <time>2026-08-14T04:42:36.376Z</time>
      </trkpt>
      <trkpt lat="45.86238" lon="6.78308">
        <ele>1714</ele>
        <time>2026-08-14T04:42:37.376Z</time>
      </trkpt>
      <trkpt lat="45.86237" lon="6.78308">
        <ele>1714</ele>
        <time>2026-08-14T04:42:38.376Z</time>
      </trkpt>
      <trkpt lat="45.86236" lon="6.78308">
        <ele>1714</ele>
        <time>2026-08-14T04:42:39.376Z</time>
      </trkpt>
      <trkpt lat="45.86235" lon="6.78308">
        <ele>1714</ele>
        <time>2026-08-14T04:42:40.376Z</time>
      </trkpt>
      <trkpt lat="45.86234" lon="6.78308">
        <ele>1714</ele>
        <time>2026-08-14T04:42:41.376Z</time>
      </trkpt>
      <trkpt lat="45.86234" lon="6.78308">
        <ele>1715</ele>
        <time>2026-08-14T04:42:42.376Z</time>
      </trkpt>
      <trkpt lat="45.86233" lon="6.78308">
        <ele>1716</ele>
        <time>2026-08-14T04:42:43.376Z</time>
      </trkpt>
      <trkpt lat="45.86233" lon="6.78308">
        <ele>1716</ele>
        <time>2026-08-14T04:42:44.376Z</time>
      </trkpt>
      <trkpt lat="45.86232" lon="6.78307">
        <ele>1717</ele>
        <time>2026-08-14T04:42:45.376Z</time>
      </trkpt>
      <trkpt lat="45.86231" lon="6.78306">
        <ele>1717</ele>
        <time>2026-08-14T04:42:46.376Z</time>
      </trkpt>
      <trkpt lat="45.8623" lon="6.78306">
        <ele>1718</ele>
        <time>2026-08-14T04:42:47.376Z</time>
      </trkpt>
      <trkpt lat="45.8623" lon="6.78306">
        <ele>1718</ele>
        <time>2026-08-14T04:42:48.376Z</time>
      </trkpt>
      <trkpt lat="45.86229" lon="6.78305">
        <ele>1718</ele>
        <time>2026-08-14T04:42:49.376Z</time>
      </trkpt>
      <trkpt lat="45.86228" lon="6.78305">
        <ele>1719</ele>
        <time>2026-08-14T04:42:50.376Z</time>
      </trkpt>
      <trkpt lat="45.86228" lon="6.78304">
        <ele>1719</ele>
        <time>2026-08-14T04:42:51.376Z</time>
      </trkpt>
      <trkpt lat="45.86227" lon="6.78303">
        <ele>1719</ele>
        <time>2026-08-14T04:42:52.376Z</time>
      </trkpt>
      <trkpt lat="45.86227" lon="6.78302">
        <ele>1720</ele>
        <time>2026-08-14T04:42:53.376Z</time>
      </trkpt>
      <trkpt lat="45.86226" lon="6.783">
        <ele>1720</ele>
        <time>2026-08-14T04:42:54.376Z</time>
      </trkpt>
      <trkpt lat="45.86226" lon="6.78299">
        <ele>1720</ele>
        <time>2026-08-14T04:42:55.376Z</time>
      </trkpt>
      <trkpt lat="45.86227" lon="6.78298">
        <ele>1720</ele>
        <time>2026-08-14T04:42:56.376Z</time>
      </trkpt>
      <trkpt lat="45.86227" lon="6.78297">
        <ele>1720</ele>
        <time>2026-08-14T04:42:57.376Z</time>
      </trkpt>
      <trkpt lat="45.86227" lon="6.78297">
        <ele>1720</ele>
        <time>2026-08-14T04:42:58.376Z</time>
      </trkpt>
      <trkpt lat="45.86227" lon="6.78296">
        <ele>1721</ele>
        <time>2026-08-14T04:42:59.376Z</time>
      </trkpt>
      <trkpt lat="45.86227" lon="6.78295">
        <ele>1721</ele>
        <time>2026-08-14T04:43:00.376Z</time>
      </trkpt>
      <trkpt lat="45.86227" lon="6.78294">
        <ele>1722</ele>
        <time>2026-08-14T04:43:01.376Z</time>
      </trkpt>
      <trkpt lat="45.86227" lon="6.78293">
        <ele>1723</ele>
        <time>2026-08-14T04:43:02.376Z</time>
      </trkpt>
      <trkpt lat="45.86226" lon="6.78291">
        <ele>1724</ele>
        <time>2026-08-14T04:43:03.376Z</time>
      </trkpt>
      <trkpt lat="45.86226" lon="6.78291">
        <ele>1724</ele>
        <time>2026-08-14T04:43:04.376Z</time>
      </trkpt>
      <trkpt lat="45.86226" lon="6.7829">
        <ele>1725</ele>
        <time>2026-08-14T04:43:05.376Z</time>
      </trkpt>
      <trkpt lat="45.86225" lon="6.78289">
        <ele>1725</ele>
        <time>2026-08-14T04:43:06.376Z</time>
      </trkpt>
      <trkpt lat="45.86225" lon="6.78288">
        <ele>1725</ele>
        <time>2026-08-14T04:43:07.376Z</time>
      </trkpt>
      <trkpt lat="45.86224" lon="6.78288">
        <ele>1724</ele>
        <time>2026-08-14T04:43:08.376Z</time>
      </trkpt>
      <trkpt lat="45.86224" lon="6.78288">
        <ele>1724</ele>
        <time>2026-08-14T04:43:09.376Z</time>
      </trkpt>
      <trkpt lat="45.86223" lon="6.78288">
        <ele>1724</ele>
        <time>2026-08-14T04:43:10.376Z</time>
      </trkpt>
      <trkpt lat="45.86223" lon="6.78288">
        <ele>1724</ele>
        <time>2026-08-14T04:43:11.376Z</time>
      </trkpt>
      <trkpt lat="45.86223" lon="6.78288">
        <ele>1724</ele>
        <time>2026-08-14T04:43:12.376Z</time>
      </trkpt>
      <trkpt lat="45.86222" lon="6.78288">
        <ele>1724</ele>
        <time>2026-08-14T04:43:13.376Z</time>
      </trkpt>
      <trkpt lat="45.86222" lon="6.78288">
        <ele>1724</ele>
        <time>2026-08-14T04:43:14.376Z</time>
      </trkpt>
      <trkpt lat="45.86222" lon="6.78288">
        <ele>1724</ele>
        <time>2026-08-14T04:43:15.376Z</time>
      </trkpt>
      <trkpt lat="45.86222" lon="6.78288">
        <ele>1724</ele>
        <time>2026-08-14T04:43:16.376Z</time>
      </trkpt>
      <trkpt lat="45.86221" lon="6.78288">
        <ele>1724</ele>
        <time>2026-08-14T04:43:17.376Z</time>
      </trkpt>
      <trkpt lat="45.86221" lon="6.78288">
        <ele>1724</ele>
        <time>2026-08-14T04:43:18.376Z</time>
      </trkpt>
      <trkpt lat="45.8622" lon="6.78288">
        <ele>1724</ele>
        <time>2026-08-14T04:43:19.376Z</time>
      </trkpt>
      <trkpt lat="45.8622" lon="6.78287">
        <ele>1724</ele>
        <time>2026-08-14T04:43:20.376Z</time>
      </trkpt>
      <trkpt lat="45.86219" lon="6.78286">
        <ele>1724</ele>
        <time>2026-08-14T04:43:21.376Z</time>
      </trkpt>
      <trkpt lat="45.86219" lon="6.78286">
        <ele>1724</ele>
        <time>2026-08-14T04:43:22.376Z</time>
      </trkpt>
      <trkpt lat="45.86219" lon="6.78286">
        <ele>1724</ele>
        <time>2026-08-14T04:43:23.376Z</time>
      </trkpt>
      <trkpt lat="45.86219" lon="6.78286">
        <ele>1723</ele>
        <time>2026-08-14T04:43:24.376Z</time>
      </trkpt>
      <trkpt lat="45.86219" lon="6.78287">
        <ele>1723</ele>
        <time>2026-08-14T04:43:25.376Z</time>
      </trkpt>
      <trkpt lat="45.8622" lon="6.78287">
        <ele>1723</ele>
        <time>2026-08-14T04:43:26.376Z</time>
      </trkpt>
      <trkpt lat="45.8622" lon="6.78288">
        <ele>1723</ele>
        <time>2026-08-14T04:43:27.376Z</time>
      </trkpt>
      <trkpt lat="45.8622" lon="6.78288">
        <ele>1723</ele>
        <time>2026-08-14T04:43:28.376Z</time>
      </trkpt>
      <trkpt lat="45.8622" lon="6.78288">
        <ele>1723</ele>
        <time>2026-08-14T04:43:29.376Z</time>
      </trkpt>
      <trkpt lat="45.8622" lon="6.78288">
        <ele>1723</ele>
        <time>2026-08-14T04:43:30.376Z</time>
      </trkpt>
      <trkpt lat="45.8622" lon="6.78288">
        <ele>1723</ele>
        <time>2026-08-14T04:43:31.376Z</time>
      </trkpt>
      <trkpt lat="45.8622" lon="6.78289">
        <ele>1723</ele>
        <time>2026-08-14T04:43:32.376Z</time>
      </trkpt>
      <trkpt lat="45.8622" lon="6.78289">
        <ele>1723</ele>
        <time>2026-08-14T04:43:33.376Z</time>
      </trkpt>
      <trkpt lat="45.86219" lon="6.78289">
        <ele>1723</ele>
        <time>2026-08-14T04:43:34.376Z</time>
      </trkpt>
      <trkpt lat="45.86219" lon="6.78289">
        <ele>1722</ele>
        <time>2026-08-14T04:43:35.376Z</time>
      </trkpt>
      <trkpt lat="45.86219" lon="6.78289">
        <ele>1723</ele>
        <time>2026-08-14T04:43:36.376Z</time>
      </trkpt>
      <trkpt lat="45.86219" lon="6.78289">
        <ele>1723</ele>
        <time>2026-08-14T04:43:37.376Z</time>
      </trkpt>
      <trkpt lat="45.86219" lon="6.78289">
        <ele>1723</ele>
        <time>2026-08-14T04:43:38.376Z</time>
      </trkpt>
      <trkpt lat="45.86219" lon="6.78289">
        <ele>1723</ele>
        <time>2026-08-14T04:43:39.376Z</time>
      </trkpt>
      <trkpt lat="45.86219" lon="6.78288">
        <ele>1723</ele>
        <time>2026-08-14T04:43:40.376Z</time>
      </trkpt>
      <trkpt lat="45.86218" lon="6.78287">
        <ele>1723</ele>
        <time>2026-08-14T04:43:41.376Z</time>
      </trkpt>
      <trkpt lat="45.86217" lon="6.78286">
        <ele>1723</ele>
        <time>2026-08-14T04:43:42.376Z</time>
      </trkpt>
      <trkpt lat="45.86216" lon="6.78285">
        <ele>1723</ele>
        <time>2026-08-14T04:43:43.376Z</time>
      </trkpt>
      <trkpt lat="45.86216" lon="6.78285">
        <ele>1723</ele>
        <time>2026-08-14T04:43:44.376Z</time>
      </trkpt>
      <trkpt lat="45.86215" lon="6.78285">
        <ele>1723</ele>
        <time>2026-08-14T04:43:45.376Z</time>
      </trkpt>
      <trkpt lat="45.86214" lon="6.78285">
        <ele>1724</ele>
        <time>2026-08-14T04:43:46.376Z</time>
      </trkpt>
      <trkpt lat="45.86214" lon="6.78285">
        <ele>1724</ele>
        <time>2026-08-14T04:43:47.376Z</time>
      </trkpt>
      <trkpt lat="45.86214" lon="6.78286">
        <ele>1723</ele>
        <time>2026-08-14T04:43:48.376Z</time>
      </trkpt>
      <trkpt lat="45.86213" lon="6.78286">
        <ele>1723</ele>
        <time>2026-08-14T04:43:49.376Z</time>
      </trkpt>
      <trkpt lat="45.86213" lon="6.78286">
        <ele>1723</ele>
        <time>2026-08-14T04:43:50.376Z</time>
      </trkpt>
      <trkpt lat="45.86213" lon="6.78287">
        <ele>1723</ele>
        <time>2026-08-14T04:43:51.376Z</time>
      </trkpt>
      <trkpt lat="45.86212" lon="6.78287">
        <ele>1723</ele>
        <time>2026-08-14T04:43:52.376Z</time>
      </trkpt>
      <trkpt lat="45.86212" lon="6.78288">
        <ele>1723</ele>
        <time>2026-08-14T04:43:53.376Z</time>
      </trkpt>
      <trkpt lat="45.86211" lon="6.78289">
        <ele>1723</ele>
        <time>2026-08-14T04:43:54.376Z</time>
      </trkpt>
      <trkpt lat="45.86211" lon="6.78289">
        <ele>1723</ele>
        <time>2026-08-14T04:43:55.376Z</time>
      </trkpt>
      <trkpt lat="45.8621" lon="6.78289">
        <ele>1723</ele>
        <time>2026-08-14T04:43:56.376Z</time>
      </trkpt>
      <trkpt lat="45.86209" lon="6.7829">
        <ele>1723</ele>
        <time>2026-08-14T04:43:57.376Z</time>
      </trkpt>
      <trkpt lat="45.86209" lon="6.7829">
        <ele>1723</ele>
        <time>2026-08-14T04:43:58.376Z</time>
      </trkpt>
      <trkpt lat="45.86208" lon="6.7829">
        <ele>1723</ele>
        <time>2026-08-14T04:43:59.376Z</time>
      </trkpt>
      <trkpt lat="45.86208" lon="6.78291">
        <ele>1723</ele>
        <time>2026-08-14T04:44:00.376Z</time>
      </trkpt>
      <trkpt lat="45.86208" lon="6.78291">
        <ele>1723</ele>
        <time>2026-08-14T04:44:01.376Z</time>
      </trkpt>
      <trkpt lat="45.86207" lon="6.78292">
        <ele>1723</ele>
        <time>2026-08-14T04:44:02.376Z</time>
      </trkpt>
      <trkpt lat="45.86207" lon="6.78293">
        <ele>1722</ele>
        <time>2026-08-14T04:44:03.376Z</time>
      </trkpt>
      <trkpt lat="45.86206" lon="6.78293">
        <ele>1723</ele>
        <time>2026-08-14T04:44:04.376Z</time>
      </trkpt>
      <trkpt lat="45.86206" lon="6.78294">
        <ele>1723</ele>
        <time>2026-08-14T04:44:05.376Z</time>
      </trkpt>
      <trkpt lat="45.86205" lon="6.78294">
        <ele>1723</ele>
        <time>2026-08-14T04:44:06.376Z</time>
      </trkpt>
      <trkpt lat="45.86204" lon="6.78294">
        <ele>1724</ele>
        <time>2026-08-14T04:44:07.376Z</time>
      </trkpt>
      <trkpt lat="45.86203" lon="6.78295">
        <ele>1724</ele>
        <time>2026-08-14T04:44:08.376Z</time>
      </trkpt>
      <trkpt lat="45.86202" lon="6.78296">
        <ele>1724</ele>
        <time>2026-08-14T04:44:09.376Z</time>
      </trkpt>
      <trkpt lat="45.86201" lon="6.78297">
        <ele>1724</ele>
        <time>2026-08-14T04:44:10.376Z</time>
      </trkpt>
      <trkpt lat="45.86201" lon="6.78298">
        <ele>1724</ele>
        <time>2026-08-14T04:44:11.376Z</time>
      </trkpt>
      <trkpt lat="45.86202" lon="6.78299">
        <ele>1724</ele>
        <time>2026-08-14T04:44:12.376Z</time>
      </trkpt>
      <trkpt lat="45.86203" lon="6.78301">
        <ele>1725</ele>
        <time>2026-08-14T04:44:13.376Z</time>
      </trkpt>
      <trkpt lat="45.86203" lon="6.78302">
        <ele>1725</ele>
        <time>2026-08-14T04:44:14.376Z</time>
      </trkpt>
      <trkpt lat="45.86203" lon="6.78302">
        <ele>1725</ele>
        <time>2026-08-14T04:44:15.376Z</time>
      </trkpt>
      <trkpt lat="45.86203" lon="6.78303">
        <ele>1726</ele>
        <time>2026-08-14T04:44:16.376Z</time>
      </trkpt>
      <trkpt lat="45.86202" lon="6.78304">
        <ele>1726</ele>
        <time>2026-08-14T04:44:17.376Z</time>
      </trkpt>
      <trkpt lat="45.86201" lon="6.78305">
        <ele>1726</ele>
        <time>2026-08-14T04:44:18.376Z</time>
      </trkpt>
      <trkpt lat="45.862" lon="6.78306">
        <ele>1727</ele>
        <time>2026-08-14T04:44:19.376Z</time>
      </trkpt>
      <trkpt lat="45.86199" lon="6.78307">
        <ele>1727</ele>
        <time>2026-08-14T04:44:20.376Z</time>
      </trkpt>
      <trkpt lat="45.86199" lon="6.78308">
        <ele>1727</ele>
        <time>2026-08-14T04:44:21.376Z</time>
      </trkpt>
      <trkpt lat="45.86199" lon="6.78308">
        <ele>1727</ele>
        <time>2026-08-14T04:44:22.376Z</time>
      </trkpt>
      <trkpt lat="45.86198" lon="6.78309">
        <ele>1728</ele>
        <time>2026-08-14T04:44:23.376Z</time>
      </trkpt>
      <trkpt lat="45.86198" lon="6.78309">
        <ele>1728</ele>
        <time>2026-08-14T04:44:24.376Z</time>
      </trkpt>
      <trkpt lat="45.86198" lon="6.78308">
        <ele>1729</ele>
        <time>2026-08-14T04:44:25.376Z</time>
      </trkpt>
      <trkpt lat="45.86197" lon="6.78308">
        <ele>1729</ele>
        <time>2026-08-14T04:44:26.376Z</time>
      </trkpt>
      <trkpt lat="45.86198" lon="6.78307">
        <ele>1729</ele>
        <time>2026-08-14T04:44:27.376Z</time>
      </trkpt>
      <trkpt lat="45.86197" lon="6.78306">
        <ele>1730</ele>
        <time>2026-08-14T04:44:28.376Z</time>
      </trkpt>
      <trkpt lat="45.86196" lon="6.78305">
        <ele>1730</ele>
        <time>2026-08-14T04:44:29.376Z</time>
      </trkpt>
      <trkpt lat="45.86195" lon="6.78305">
        <ele>1730</ele>
        <time>2026-08-14T04:44:30.376Z</time>
      </trkpt>
      <trkpt lat="45.86194" lon="6.78305">
        <ele>1731</ele>
        <time>2026-08-14T04:44:31.376Z</time>
      </trkpt>
      <trkpt lat="45.86193" lon="6.78304">
        <ele>1731</ele>
        <time>2026-08-14T04:44:32.376Z</time>
      </trkpt>
      <trkpt lat="45.86193" lon="6.78304">
        <ele>1731</ele>
        <time>2026-08-14T04:44:33.376Z</time>
      </trkpt>
      <trkpt lat="45.86193" lon="6.78303">
        <ele>1731</ele>
        <time>2026-08-14T04:44:34.376Z</time>
      </trkpt>
      <trkpt lat="45.86193" lon="6.78302">
        <ele>1731</ele>
        <time>2026-08-14T04:44:35.376Z</time>
      </trkpt>
      <trkpt lat="45.86193" lon="6.78301">
        <ele>1732</ele>
        <time>2026-08-14T04:44:36.376Z</time>
      </trkpt>
      <trkpt lat="45.86193" lon="6.78301">
        <ele>1732</ele>
        <time>2026-08-14T04:44:37.376Z</time>
      </trkpt>
      <trkpt lat="45.86193" lon="6.78301">
        <ele>1733</ele>
        <time>2026-08-14T04:44:38.376Z</time>
      </trkpt>
      <trkpt lat="45.86192" lon="6.78301">
        <ele>1734</ele>
        <time>2026-08-14T04:44:39.376Z</time>
      </trkpt>
      <trkpt lat="45.86192" lon="6.78301">
        <ele>1735</ele>
        <time>2026-08-14T04:44:40.376Z</time>
      </trkpt>
      <trkpt lat="45.86191" lon="6.78302">
        <ele>1736</ele>
        <time>2026-08-14T04:44:41.376Z</time>
      </trkpt>
      <trkpt lat="45.8619" lon="6.78302">
        <ele>1736</ele>
        <time>2026-08-14T04:44:42.376Z</time>
      </trkpt>
      <trkpt lat="45.8619" lon="6.78302">
        <ele>1737</ele>
        <time>2026-08-14T04:44:43.376Z</time>
      </trkpt>
      <trkpt lat="45.86189" lon="6.78302">
        <ele>1738</ele>
        <time>2026-08-14T04:44:44.376Z</time>
      </trkpt>
      <trkpt lat="45.86188" lon="6.78302">
        <ele>1738</ele>
        <time>2026-08-14T04:44:45.376Z</time>
      </trkpt>
      <trkpt lat="45.86187" lon="6.78303">
        <ele>1738</ele>
        <time>2026-08-14T04:44:46.376Z</time>
      </trkpt>
      <trkpt lat="45.86187" lon="6.78303">
        <ele>1739</ele>
        <time>2026-08-14T04:44:47.376Z</time>
      </trkpt>
      <trkpt lat="45.86187" lon="6.78303">
        <ele>1739</ele>
        <time>2026-08-14T04:44:48.376Z</time>
      </trkpt>
      <trkpt lat="45.86187" lon="6.78304">
        <ele>1740</ele>
        <time>2026-08-14T04:44:49.376Z</time>
      </trkpt>
      <trkpt lat="45.86187" lon="6.78304">
        <ele>1740</ele>
        <time>2026-08-14T04:44:50.376Z</time>
      </trkpt>
      <trkpt lat="45.86187" lon="6.78305">
        <ele>1740</ele>
        <time>2026-08-14T04:44:51.376Z</time>
      </trkpt>
      <trkpt lat="45.86187" lon="6.78306">
        <ele>1741</ele>
        <time>2026-08-14T04:44:52.376Z</time>
      </trkpt>
      <trkpt lat="45.86187" lon="6.78306">
        <ele>1741</ele>
        <time>2026-08-14T04:44:53.376Z</time>
      </trkpt>
      <trkpt lat="45.86186" lon="6.78307">
        <ele>1741</ele>
        <time>2026-08-14T04:44:54.376Z</time>
      </trkpt>
      <trkpt lat="45.86186" lon="6.78307">
        <ele>1741</ele>
        <time>2026-08-14T04:44:55.376Z</time>
      </trkpt>
      <trkpt lat="45.86185" lon="6.78308">
        <ele>1741</ele>
        <time>2026-08-14T04:44:56.376Z</time>
      </trkpt>
      <trkpt lat="45.86184" lon="6.78309">
        <ele>1741</ele>
        <time>2026-08-14T04:44:57.376Z</time>
      </trkpt>
      <trkpt lat="45.86183" lon="6.78309">
        <ele>1741</ele>
        <time>2026-08-14T04:44:58.376Z</time>
      </trkpt>
      <trkpt lat="45.86182" lon="6.78309">
        <ele>1741</ele>
        <time>2026-08-14T04:44:59.376Z</time>
      </trkpt>
      <trkpt lat="45.86181" lon="6.7831">
        <ele>1741</ele>
        <time>2026-08-14T04:45:00.376Z</time>
      </trkpt>
      <trkpt lat="45.8618" lon="6.78311">
        <ele>1741</ele>
        <time>2026-08-14T04:45:01.376Z</time>
      </trkpt>
      <trkpt lat="45.8618" lon="6.78311">
        <ele>1741</ele>
        <time>2026-08-14T04:45:02.376Z</time>
      </trkpt>
      <trkpt lat="45.86179" lon="6.78311">
        <ele>1741</ele>
        <time>2026-08-14T04:45:03.376Z</time>
      </trkpt>
      <trkpt lat="45.86178" lon="6.78312">
        <ele>1741</ele>
        <time>2026-08-14T04:45:04.376Z</time>
      </trkpt>
      <trkpt lat="45.86178" lon="6.78312">
        <ele>1741</ele>
        <time>2026-08-14T04:45:05.376Z</time>
      </trkpt>
      <trkpt lat="45.86178" lon="6.78312">
        <ele>1741</ele>
        <time>2026-08-14T04:45:06.376Z</time>
      </trkpt>
      <trkpt lat="45.86177" lon="6.78312">
        <ele>1741</ele>
        <time>2026-08-14T04:45:07.376Z</time>
      </trkpt>
      <trkpt lat="45.86177" lon="6.78313">
        <ele>1741</ele>
        <time>2026-08-14T04:45:08.376Z</time>
      </trkpt>
      <trkpt lat="45.86177" lon="6.78314">
        <ele>1742</ele>
        <time>2026-08-14T04:45:09.376Z</time>
      </trkpt>
      <trkpt lat="45.86177" lon="6.78315">
        <ele>1742</ele>
        <time>2026-08-14T04:45:10.376Z</time>
      </trkpt>
      <trkpt lat="45.86177" lon="6.78316">
        <ele>1742</ele>
        <time>2026-08-14T04:45:11.376Z</time>
      </trkpt>
      <trkpt lat="45.86177" lon="6.78316">
        <ele>1742</ele>
        <time>2026-08-14T04:45:12.376Z</time>
      </trkpt>
      <trkpt lat="45.86177" lon="6.78317">
        <ele>1742</ele>
        <time>2026-08-14T04:45:13.376Z</time>
      </trkpt>
      <trkpt lat="45.86177" lon="6.78317">
        <ele>1742</ele>
        <time>2026-08-14T04:45:14.376Z</time>
      </trkpt>
      <trkpt lat="45.86177" lon="6.78317">
        <ele>1742</ele>
        <time>2026-08-14T04:45:15.376Z</time>
      </trkpt>
      <trkpt lat="45.86177" lon="6.78317">
        <ele>1743</ele>
        <time>2026-08-14T04:45:16.376Z</time>
      </trkpt>
      <trkpt lat="45.86177" lon="6.78317">
        <ele>1743</ele>
        <time>2026-08-14T04:45:17.376Z</time>
      </trkpt>
      <trkpt lat="45.86176" lon="6.78317">
        <ele>1743</ele>
        <time>2026-08-14T04:45:18.376Z</time>
      </trkpt>
      <trkpt lat="45.86176" lon="6.78317">
        <ele>1743</ele>
        <time>2026-08-14T04:45:19.376Z</time>
      </trkpt>
      <trkpt lat="45.86176" lon="6.78316">
        <ele>1743</ele>
        <time>2026-08-14T04:45:20.376Z</time>
      </trkpt>
      <trkpt lat="45.86175" lon="6.78316">
        <ele>1743</ele>
        <time>2026-08-14T04:45:21.376Z</time>
      </trkpt>
      <trkpt lat="45.86174" lon="6.78316">
        <ele>1743</ele>
        <time>2026-08-14T04:45:22.377Z</time>
      </trkpt>
      <trkpt lat="45.86174" lon="6.78316">
        <ele>1743</ele>
        <time>2026-08-14T04:45:23.376Z</time>
      </trkpt>
      <trkpt lat="45.86173" lon="6.78316">
        <ele>1744</ele>
        <time>2026-08-14T04:45:24.376Z</time>
      </trkpt>
      <trkpt lat="45.86173" lon="6.78316">
        <ele>1744</ele>
        <time>2026-08-14T04:45:25.376Z</time>
      </trkpt>
      <trkpt lat="45.86172" lon="6.78315">
        <ele>1744</ele>
        <time>2026-08-14T04:45:26.376Z</time>
      </trkpt>
      <trkpt lat="45.86172" lon="6.78315">
        <ele>1744</ele>
        <time>2026-08-14T04:45:27.376Z</time>
      </trkpt>
      <trkpt lat="45.86171" lon="6.78315">
        <ele>1744</ele>
        <time>2026-08-14T04:45:28.376Z</time>
      </trkpt>
      <trkpt lat="45.86171" lon="6.78315">
        <ele>1744</ele>
        <time>2026-08-14T04:45:29.376Z</time>
      </trkpt>
      <trkpt lat="45.8617" lon="6.78315">
        <ele>1744</ele>
        <time>2026-08-14T04:45:30.376Z</time>
      </trkpt>
      <trkpt lat="45.8617" lon="6.78314">
        <ele>1744</ele>
        <time>2026-08-14T04:45:31.376Z</time>
      </trkpt>
      <trkpt lat="45.8617" lon="6.78314">
        <ele>1744</ele>
        <time>2026-08-14T04:45:32.376Z</time>
      </trkpt>
      <trkpt lat="45.8617" lon="6.78312">
        <ele>1744</ele>
        <time>2026-08-14T04:45:33.376Z</time>
      </trkpt>
      <trkpt lat="45.86169" lon="6.78311">
        <ele>1744</ele>
        <time>2026-08-14T04:45:34.376Z</time>
      </trkpt>
      <trkpt lat="45.86168" lon="6.7831">
        <ele>1745</ele>
        <time>2026-08-14T04:45:35.376Z</time>
      </trkpt>
      <trkpt lat="45.86168" lon="6.78309">
        <ele>1745</ele>
        <time>2026-08-14T04:45:36.376Z</time>
      </trkpt>
      <trkpt lat="45.86168" lon="6.78308">
        <ele>1746</ele>
        <time>2026-08-14T04:45:37.376Z</time>
      </trkpt>
      <trkpt lat="45.86168" lon="6.78307">
        <ele>1746</ele>
        <time>2026-08-14T04:45:38.376Z</time>
      </trkpt>
      <trkpt lat="45.86168" lon="6.78307">
        <ele>1747</ele>
        <time>2026-08-14T04:45:39.376Z</time>
      </trkpt>
      <trkpt lat="45.86168" lon="6.78306">
        <ele>1747</ele>
        <time>2026-08-14T04:45:40.376Z</time>
      </trkpt>
      <trkpt lat="45.86168" lon="6.78305">
        <ele>1748</ele>
        <time>2026-08-14T04:45:41.376Z</time>
      </trkpt>
      <trkpt lat="45.86168" lon="6.78304">
        <ele>1748</ele>
        <time>2026-08-14T04:45:42.376Z</time>
      </trkpt>
      <trkpt lat="45.86168" lon="6.78304">
        <ele>1749</ele>
        <time>2026-08-14T04:45:43.376Z</time>
      </trkpt>
      <trkpt lat="45.86168" lon="6.78303">
        <ele>1749</ele>
        <time>2026-08-14T04:45:44.376Z</time>
      </trkpt>
      <trkpt lat="45.86167" lon="6.78302">
        <ele>1750</ele>
        <time>2026-08-14T04:45:45.376Z</time>
      </trkpt>
      <trkpt lat="45.86168" lon="6.78301">
        <ele>1750</ele>
        <time>2026-08-14T04:45:46.376Z</time>
      </trkpt>
      <trkpt lat="45.86168" lon="6.783">
        <ele>1751</ele>
        <time>2026-08-14T04:45:47.376Z</time>
      </trkpt>
      <trkpt lat="45.86168" lon="6.783">
        <ele>1751</ele>
        <time>2026-08-14T04:45:48.376Z</time>
      </trkpt>
      <trkpt lat="45.86168" lon="6.78299">
        <ele>1751</ele>
        <time>2026-08-14T04:45:49.376Z</time>
      </trkpt>
      <trkpt lat="45.86168" lon="6.78299">
        <ele>1751</ele>
        <time>2026-08-14T04:45:50.376Z</time>
      </trkpt>
      <trkpt lat="45.86168" lon="6.78299">
        <ele>1752</ele>
        <time>2026-08-14T04:45:51.376Z</time>
      </trkpt>
      <trkpt lat="45.86167" lon="6.78299">
        <ele>1752</ele>
        <time>2026-08-14T04:45:52.376Z</time>
      </trkpt>
      <trkpt lat="45.86168" lon="6.78299">
        <ele>1752</ele>
        <time>2026-08-14T04:45:53.376Z</time>
      </trkpt>
      <trkpt lat="45.86168" lon="6.78299">
        <ele>1753</ele>
        <time>2026-08-14T04:45:54.376Z</time>
      </trkpt>
      <trkpt lat="45.86167" lon="6.783">
        <ele>1753</ele>
        <time>2026-08-14T04:45:55.376Z</time>
      </trkpt>
      <trkpt lat="45.86167" lon="6.783">
        <ele>1754</ele>
        <time>2026-08-14T04:45:56.376Z</time>
      </trkpt>
      <trkpt lat="45.86167" lon="6.783">
        <ele>1754</ele>
        <time>2026-08-14T04:45:57.376Z</time>
      </trkpt>
      <trkpt lat="45.86166" lon="6.78301">
        <ele>1755</ele>
        <time>2026-08-14T04:45:58.376Z</time>
      </trkpt>
      <trkpt lat="45.86166" lon="6.783">
        <ele>1755</ele>
        <time>2026-08-14T04:45:59.376Z</time>
      </trkpt>
      <trkpt lat="45.86166" lon="6.783">
        <ele>1756</ele>
        <time>2026-08-14T04:46:00.376Z</time>
      </trkpt>
      <trkpt lat="45.86165" lon="6.78299">
        <ele>1756</ele>
        <time>2026-08-14T04:46:01.376Z</time>
      </trkpt>
      <trkpt lat="45.86165" lon="6.78298">
        <ele>1756</ele>
        <time>2026-08-14T04:46:02.376Z</time>
      </trkpt>
      <trkpt lat="45.86165" lon="6.78298">
        <ele>1756</ele>
        <time>2026-08-14T04:46:03.376Z</time>
      </trkpt>
      <trkpt lat="45.86164" lon="6.78297">
        <ele>1756</ele>
        <time>2026-08-14T04:46:04.376Z</time>
      </trkpt>
      <trkpt lat="45.86164" lon="6.78297">
        <ele>1757</ele>
        <time>2026-08-14T04:46:05.376Z</time>
      </trkpt>
      <trkpt lat="45.86164" lon="6.78296">
        <ele>1757</ele>
        <time>2026-08-14T04:46:06.376Z</time>
      </trkpt>
      <trkpt lat="45.86164" lon="6.78296">
        <ele>1757</ele>
        <time>2026-08-14T04:46:07.376Z</time>
      </trkpt>
      <trkpt lat="45.86164" lon="6.78296">
        <ele>1757</ele>
        <time>2026-08-14T04:46:08.376Z</time>
      </trkpt>
      <trkpt lat="45.86164" lon="6.78295">
        <ele>1758</ele>
        <time>2026-08-14T04:46:09.376Z</time>
      </trkpt>
      <trkpt lat="45.86165" lon="6.78294">
        <ele>1758</ele>
        <time>2026-08-14T04:46:10.376Z</time>
      </trkpt>
      <trkpt lat="45.86165" lon="6.78293">
        <ele>1758</ele>
        <time>2026-08-14T04:46:11.376Z</time>
      </trkpt>
      <trkpt lat="45.86165" lon="6.78292">
        <ele>1758</ele>
        <time>2026-08-14T04:46:12.376Z</time>
      </trkpt>
      <trkpt lat="45.86165" lon="6.78291">
        <ele>1758</ele>
        <time>2026-08-14T04:46:13.376Z</time>
      </trkpt>
      <trkpt lat="45.86165" lon="6.78289">
        <ele>1758</ele>
        <time>2026-08-14T04:46:14.376Z</time>
      </trkpt>
      <trkpt lat="45.86165" lon="6.78288">
        <ele>1759</ele>
        <time>2026-08-14T04:46:15.376Z</time>
      </trkpt>
      <trkpt lat="45.86166" lon="6.78286">
        <ele>1759</ele>
        <time>2026-08-14T04:46:16.376Z</time>
      </trkpt>
      <trkpt lat="45.86167" lon="6.78285">
        <ele>1759</ele>
        <time>2026-08-14T04:46:17.376Z</time>
      </trkpt>
      <trkpt lat="45.86167" lon="6.78284">
        <ele>1760</ele>
        <time>2026-08-14T04:46:18.376Z</time>
      </trkpt>
      <trkpt lat="45.86167" lon="6.78282">
        <ele>1760</ele>
        <time>2026-08-14T04:46:19.376Z</time>
      </trkpt>
      <trkpt lat="45.86167" lon="6.78281">
        <ele>1761</ele>
        <time>2026-08-14T04:46:20.376Z</time>
      </trkpt>
      <trkpt lat="45.86167" lon="6.7828">
        <ele>1761</ele>
        <time>2026-08-14T04:46:21.376Z</time>
      </trkpt>
      <trkpt lat="45.86168" lon="6.78279">
        <ele>1761</ele>
        <time>2026-08-14T04:46:22.376Z</time>
      </trkpt>
      <trkpt lat="45.86168" lon="6.78278">
        <ele>1762</ele>
        <time>2026-08-14T04:46:23.376Z</time>
      </trkpt>
      <trkpt lat="45.86169" lon="6.78278">
        <ele>1762</ele>
        <time>2026-08-14T04:46:24.376Z</time>
      </trkpt>
      <trkpt lat="45.86169" lon="6.78277">
        <ele>1762</ele>
        <time>2026-08-14T04:46:25.376Z</time>
      </trkpt>
      <trkpt lat="45.86169" lon="6.78277">
        <ele>1762</ele>
        <time>2026-08-14T04:46:26.376Z</time>
      </trkpt>
      <trkpt lat="45.86169" lon="6.78277">
        <ele>1763</ele>
        <time>2026-08-14T04:46:27.376Z</time>
      </trkpt>
      <trkpt lat="45.86169" lon="6.78277">
        <ele>1763</ele>
        <time>2026-08-14T04:46:28.376Z</time>
      </trkpt>
      <trkpt lat="45.86169" lon="6.78276">
        <ele>1763</ele>
        <time>2026-08-14T04:46:29.376Z</time>
      </trkpt>
      <trkpt lat="45.86169" lon="6.78276">
        <ele>1764</ele>
        <time>2026-08-14T04:46:30.376Z</time>
      </trkpt>
      <trkpt lat="45.8617" lon="6.78275">
        <ele>1764</ele>
        <time>2026-08-14T04:46:31.376Z</time>
      </trkpt>
      <trkpt lat="45.8617" lon="6.78275">
        <ele>1764</ele>
        <time>2026-08-14T04:46:32.376Z</time>
      </trkpt>
      <trkpt lat="45.8617" lon="6.78275">
        <ele>1764</ele>
        <time>2026-08-14T04:46:33.376Z</time>
      </trkpt>
      <trkpt lat="45.8617" lon="6.78275">
        <ele>1764</ele>
        <time>2026-08-14T04:46:34.376Z</time>
      </trkpt>
      <trkpt lat="45.8617" lon="6.78275">
        <ele>1765</ele>
        <time>2026-08-14T04:46:35.376Z</time>
      </trkpt>
      <trkpt lat="45.8617" lon="6.78275">
        <ele>1765</ele>
        <time>2026-08-14T04:46:36.376Z</time>
      </trkpt>
      <trkpt lat="45.8617" lon="6.78275">
        <ele>1765</ele>
        <time>2026-08-14T04:46:37.376Z</time>
      </trkpt>
      <trkpt lat="45.8617" lon="6.78275">
        <ele>1765</ele>
        <time>2026-08-14T04:46:38.376Z</time>
      </trkpt>
      <trkpt lat="45.8617" lon="6.78275">
        <ele>1765</ele>
        <time>2026-08-14T04:46:39.376Z</time>
      </trkpt>
      <trkpt lat="45.8617" lon="6.78275">
        <ele>1765</ele>
        <time>2026-08-14T04:46:40.376Z</time>
      </trkpt>
      <trkpt lat="45.8617" lon="6.78276">
        <ele>1765</ele>
        <time>2026-08-14T04:46:41.376Z</time>
      </trkpt>
      <trkpt lat="45.8617" lon="6.78277">
        <ele>1765</ele>
        <time>2026-08-14T04:46:42.376Z</time>
      </trkpt>
      <trkpt lat="45.8617" lon="6.78278">
        <ele>1764</ele>
        <time>2026-08-14T04:46:43.376Z</time>
      </trkpt>
      <trkpt lat="45.86169" lon="6.78279">
        <ele>1764</ele>
        <time>2026-08-14T04:46:44.376Z</time>
      </trkpt>
      <trkpt lat="45.86168" lon="6.78279">
        <ele>1764</ele>
        <time>2026-08-14T04:46:45.376Z</time>
      </trkpt>
      <trkpt lat="45.86168" lon="6.78279">
        <ele>1764</ele>
        <time>2026-08-14T04:46:46.376Z</time>
      </trkpt>
      <trkpt lat="45.86168" lon="6.78279">
        <ele>1764</ele>
        <time>2026-08-14T04:46:47.376Z</time>
      </trkpt>
      <trkpt lat="45.86167" lon="6.78278">
        <ele>1764</ele>
        <time>2026-08-14T04:46:48.376Z</time>
      </trkpt>
      <trkpt lat="45.86167" lon="6.78277">
        <ele>1764</ele>
        <time>2026-08-14T04:46:49.376Z</time>
      </trkpt>
      <trkpt lat="45.86167" lon="6.78277">
        <ele>1764</ele>
        <time>2026-08-14T04:46:50.376Z</time>
      </trkpt>
      <trkpt lat="45.86167" lon="6.78276">
        <ele>1764</ele>
        <time>2026-08-14T04:46:51.376Z</time>
      </trkpt>
      <trkpt lat="45.86167" lon="6.78275">
        <ele>1764</ele>
        <time>2026-08-14T04:46:52.376Z</time>
      </trkpt>
      <trkpt lat="45.86167" lon="6.78275">
        <ele>1764</ele>
        <time>2026-08-14T04:46:53.376Z</time>
      </trkpt>
      <trkpt lat="45.86167" lon="6.78276">
        <ele>1764</ele>
        <time>2026-08-14T04:46:54.376Z</time>
      </trkpt>
      <trkpt lat="45.86166" lon="6.78276">
        <ele>1764</ele>
        <time>2026-08-14T04:46:55.376Z</time>
      </trkpt>
      <trkpt lat="45.86166" lon="6.78276">
        <ele>1764</ele>
        <time>2026-08-14T04:46:56.376Z</time>
      </trkpt>
      <trkpt lat="45.86165" lon="6.78276">
        <ele>1765</ele>
        <time>2026-08-14T04:46:57.376Z</time>
      </trkpt>
      <trkpt lat="45.86165" lon="6.78276">
        <ele>1765</ele>
        <time>2026-08-14T04:46:58.376Z</time>
      </trkpt>
      <trkpt lat="45.86165" lon="6.78276">
        <ele>1765</ele>
        <time>2026-08-14T04:46:59.376Z</time>
      </trkpt>
      <trkpt lat="45.86165" lon="6.78276">
        <ele>1765</ele>
        <time>2026-08-14T04:47:00.376Z</time>
      </trkpt>
      <trkpt lat="45.86164" lon="6.78276">
        <ele>1766</ele>
        <time>2026-08-14T04:47:01.376Z</time>
      </trkpt>
      <trkpt lat="45.86164" lon="6.78277">
        <ele>1766</ele>
        <time>2026-08-14T04:47:02.376Z</time>
      </trkpt>
      <trkpt lat="45.86164" lon="6.78277">
        <ele>1766</ele>
        <time>2026-08-14T04:47:03.376Z</time>
      </trkpt>
      <trkpt lat="45.86163" lon="6.78277">
        <ele>1766</ele>
        <time>2026-08-14T04:47:04.376Z</time>
      </trkpt>
      <trkpt lat="45.86162" lon="6.78277">
        <ele>1766</ele>
        <time>2026-08-14T04:47:05.376Z</time>
      </trkpt>
      <trkpt lat="45.86162" lon="6.78276">
        <ele>1765</ele>
        <time>2026-08-14T04:47:06.376Z</time>
      </trkpt>
      <trkpt lat="45.86162" lon="6.78276">
        <ele>1765</ele>
        <time>2026-08-14T04:47:07.376Z</time>
      </trkpt>
      <trkpt lat="45.86162" lon="6.78276">
        <ele>1765</ele>
        <time>2026-08-14T04:47:08.376Z</time>
      </trkpt>
      <trkpt lat="45.86161" lon="6.78276">
        <ele>1765</ele>
        <time>2026-08-14T04:47:09.376Z</time>
      </trkpt>
      <trkpt lat="45.86161" lon="6.78276">
        <ele>1765</ele>
        <time>2026-08-14T04:47:10.376Z</time>
      </trkpt>
      <trkpt lat="45.8616" lon="6.78276">
        <ele>1766</ele>
        <time>2026-08-14T04:47:11.376Z</time>
      </trkpt>
      <trkpt lat="45.8616" lon="6.78275">
        <ele>1766</ele>
        <time>2026-08-14T04:47:12.376Z</time>
      </trkpt>
      <trkpt lat="45.8616" lon="6.78275">
        <ele>1766</ele>
        <time>2026-08-14T04:47:13.376Z</time>
      </trkpt>
      <trkpt lat="45.8616" lon="6.78274">
        <ele>1766</ele>
        <time>2026-08-14T04:47:14.376Z</time>
      </trkpt>
      <trkpt lat="45.8616" lon="6.78273">
        <ele>1766</ele>
        <time>2026-08-14T04:47:15.376Z</time>
      </trkpt>
      <trkpt lat="45.8616" lon="6.78272">
        <ele>1766</ele>
        <time>2026-08-14T04:47:16.376Z</time>
      </trkpt>
      <trkpt lat="45.8616" lon="6.78271">
        <ele>1767</ele>
        <time>2026-08-14T04:47:17.376Z</time>
      </trkpt>
      <trkpt lat="45.8616" lon="6.7827">
        <ele>1767</ele>
        <time>2026-08-14T04:47:18.376Z</time>
      </trkpt>
      <trkpt lat="45.8616" lon="6.78269">
        <ele>1767</ele>
        <time>2026-08-14T04:47:19.376Z</time>
      </trkpt>
      <trkpt lat="45.86159" lon="6.78268">
        <ele>1767</ele>
        <time>2026-08-14T04:47:20.376Z</time>
      </trkpt>
      <trkpt lat="45.86159" lon="6.78267">
        <ele>1767</ele>
        <time>2026-08-14T04:47:21.376Z</time>
      </trkpt>
      <trkpt lat="45.86158" lon="6.78266">
        <ele>1767</ele>
        <time>2026-08-14T04:47:22.376Z</time>
      </trkpt>
      <trkpt lat="45.86157" lon="6.78265">
        <ele>1768</ele>
        <time>2026-08-14T04:47:23.376Z</time>
      </trkpt>
      <trkpt lat="45.86157" lon="6.78264">
        <ele>1768</ele>
        <time>2026-08-14T04:47:24.376Z</time>
      </trkpt>
      <trkpt lat="45.86157" lon="6.78263">
        <ele>1768</ele>
        <time>2026-08-14T04:47:25.376Z</time>
      </trkpt>
      <trkpt lat="45.86157" lon="6.78262">
        <ele>1768</ele>
        <time>2026-08-14T04:47:26.376Z</time>
      </trkpt>
      <trkpt lat="45.86156" lon="6.78262">
        <ele>1768</ele>
        <time>2026-08-14T04:47:27.376Z</time>
      </trkpt>
      <trkpt lat="45.86156" lon="6.78261">
        <ele>1768</ele>
        <time>2026-08-14T04:47:28.376Z</time>
      </trkpt>
      <trkpt lat="45.86155" lon="6.7826">
        <ele>1768</ele>
        <time>2026-08-14T04:47:29.376Z</time>
      </trkpt>
      <trkpt lat="45.86155" lon="6.78259">
        <ele>1768</ele>
        <time>2026-08-14T04:47:30.376Z</time>
      </trkpt>
      <trkpt lat="45.86155" lon="6.78258">
        <ele>1768</ele>
        <time>2026-08-14T04:47:31.376Z</time>
      </trkpt>
      <trkpt lat="45.86155" lon="6.78257">
        <ele>1768</ele>
        <time>2026-08-14T04:47:32.376Z</time>
      </trkpt>
      <trkpt lat="45.86154" lon="6.78255">
        <ele>1768</ele>
        <time>2026-08-14T04:47:33.376Z</time>
      </trkpt>
      <trkpt lat="45.86154" lon="6.78254">
        <ele>1769</ele>
        <time>2026-08-14T04:47:34.376Z</time>
      </trkpt>
      <trkpt lat="45.86154" lon="6.78252">
        <ele>1769</ele>
        <time>2026-08-14T04:47:35.376Z</time>
      </trkpt>
      <trkpt lat="45.86153" lon="6.78252">
        <ele>1769</ele>
        <time>2026-08-14T04:47:36.376Z</time>
      </trkpt>
      <trkpt lat="45.86153" lon="6.78251">
        <ele>1769</ele>
        <time>2026-08-14T04:47:37.376Z</time>
      </trkpt>
      <trkpt lat="45.86153" lon="6.78251">
        <ele>1769</ele>
        <time>2026-08-14T04:47:38.376Z</time>
      </trkpt>
      <trkpt lat="45.86153" lon="6.7825">
        <ele>1769</ele>
        <time>2026-08-14T04:47:39.376Z</time>
      </trkpt>
      <trkpt lat="45.86152" lon="6.78248">
        <ele>1770</ele>
        <time>2026-08-14T04:47:40.376Z</time>
      </trkpt>
      <trkpt lat="45.86152" lon="6.78247">
        <ele>1770</ele>
        <time>2026-08-14T04:47:41.376Z</time>
      </trkpt>
      <trkpt lat="45.86152" lon="6.78246">
        <ele>1770</ele>
        <time>2026-08-14T04:47:42.376Z</time>
      </trkpt>
      <trkpt lat="45.86152" lon="6.78244">
        <ele>1771</ele>
        <time>2026-08-14T04:47:43.376Z</time>
      </trkpt>
      <trkpt lat="45.86152" lon="6.78242">
        <ele>1771</ele>
        <time>2026-08-14T04:47:44.376Z</time>
      </trkpt>
      <trkpt lat="45.86152" lon="6.78241">
        <ele>1772</ele>
        <time>2026-08-14T04:47:45.376Z</time>
      </trkpt>
      <trkpt lat="45.86152" lon="6.78241">
        <ele>1772</ele>
        <time>2026-08-14T04:47:46.376Z</time>
      </trkpt>
      <trkpt lat="45.86152" lon="6.7824">
        <ele>1773</ele>
        <time>2026-08-14T04:47:47.376Z</time>
      </trkpt>
      <trkpt lat="45.86152" lon="6.7824">
        <ele>1773</ele>
        <time>2026-08-14T04:47:48.376Z</time>
      </trkpt>
      <trkpt lat="45.86152" lon="6.7824">
        <ele>1773</ele>
        <time>2026-08-14T04:47:49.376Z</time>
      </trkpt>
      <trkpt lat="45.86152" lon="6.78239">
        <ele>1773</ele>
        <time>2026-08-14T04:47:50.376Z</time>
      </trkpt>
      <trkpt lat="45.86151" lon="6.78239">
        <ele>1774</ele>
        <time>2026-08-14T04:47:51.376Z</time>
      </trkpt>
      <trkpt lat="45.86151" lon="6.78239">
        <ele>1774</ele>
        <time>2026-08-14T04:47:52.376Z</time>
      </trkpt>
      <trkpt lat="45.8615" lon="6.78239">
        <ele>1774</ele>
        <time>2026-08-14T04:47:53.376Z</time>
      </trkpt>
      <trkpt lat="45.86149" lon="6.78238">
        <ele>1774</ele>
        <time>2026-08-14T04:47:54.376Z</time>
      </trkpt>
      <trkpt lat="45.86148" lon="6.78238">
        <ele>1774</ele>
        <time>2026-08-14T04:47:55.376Z</time>
      </trkpt>
      <trkpt lat="45.86148" lon="6.78238">
        <ele>1775</ele>
        <time>2026-08-14T04:47:56.376Z</time>
      </trkpt>
      <trkpt lat="45.86147" lon="6.78237">
        <ele>1775</ele>
        <time>2026-08-14T04:47:57.376Z</time>
      </trkpt>
      <trkpt lat="45.86147" lon="6.78236">
        <ele>1775</ele>
        <time>2026-08-14T04:47:58.376Z</time>
      </trkpt>
      <trkpt lat="45.86146" lon="6.78235">
        <ele>1775</ele>
        <time>2026-08-14T04:47:59.376Z</time>
      </trkpt>
      <trkpt lat="45.86146" lon="6.78233">
        <ele>1776</ele>
        <time>2026-08-14T04:48:00.376Z</time>
      </trkpt>
      <trkpt lat="45.86146" lon="6.78232">
        <ele>1776</ele>
        <time>2026-08-14T04:48:01.376Z</time>
      </trkpt>
      <trkpt lat="45.86146" lon="6.7823">
        <ele>1776</ele>
        <time>2026-08-14T04:48:02.376Z</time>
      </trkpt>
      <trkpt lat="45.86146" lon="6.78228">
        <ele>1776</ele>
        <time>2026-08-14T04:48:03.376Z</time>
      </trkpt>
      <trkpt lat="45.86146" lon="6.78227">
        <ele>1776</ele>
        <time>2026-08-14T04:48:04.376Z</time>
      </trkpt>
      <trkpt lat="45.86146" lon="6.78225">
        <ele>1777</ele>
        <time>2026-08-14T04:48:05.376Z</time>
      </trkpt>
      <trkpt lat="45.86145" lon="6.78223">
        <ele>1777</ele>
        <time>2026-08-14T04:48:06.376Z</time>
      </trkpt>
      <trkpt lat="45.86145" lon="6.78221">
        <ele>1777</ele>
        <time>2026-08-14T04:48:07.376Z</time>
      </trkpt>
      <trkpt lat="45.86144" lon="6.78219">
        <ele>1777</ele>
        <time>2026-08-14T04:48:08.376Z</time>
      </trkpt>
      <trkpt lat="45.86144" lon="6.78217">
        <ele>1777</ele>
        <time>2026-08-14T04:48:09.376Z</time>
      </trkpt>
      <trkpt lat="45.86144" lon="6.78216">
        <ele>1778</ele>
        <time>2026-08-14T04:48:10.376Z</time>
      </trkpt>
      <trkpt lat="45.86144" lon="6.78215">
        <ele>1778</ele>
        <time>2026-08-14T04:48:11.376Z</time>
      </trkpt>
      <trkpt lat="45.86143" lon="6.78213">
        <ele>1778</ele>
        <time>2026-08-14T04:48:12.376Z</time>
      </trkpt>
      <trkpt lat="45.86142" lon="6.78212">
        <ele>1778</ele>
        <time>2026-08-14T04:48:13.376Z</time>
      </trkpt>
      <trkpt lat="45.86141" lon="6.78211">
        <ele>1779</ele>
        <time>2026-08-14T04:48:14.376Z</time>
      </trkpt>
      <trkpt lat="45.8614" lon="6.78209">
        <ele>1779</ele>
        <time>2026-08-14T04:48:15.376Z</time>
      </trkpt>
      <trkpt lat="45.86139" lon="6.78208">
        <ele>1779</ele>
        <time>2026-08-14T04:48:16.376Z</time>
      </trkpt>
      <trkpt lat="45.86138" lon="6.78206">
        <ele>1779</ele>
        <time>2026-08-14T04:48:17.376Z</time>
      </trkpt>
      <trkpt lat="45.86137" lon="6.78205">
        <ele>1780</ele>
        <time>2026-08-14T04:48:18.376Z</time>
      </trkpt>
      <trkpt lat="45.86137" lon="6.78204">
        <ele>1780</ele>
        <time>2026-08-14T04:48:19.376Z</time>
      </trkpt>
      <trkpt lat="45.86137" lon="6.78204">
        <ele>1781</ele>
        <time>2026-08-14T04:48:20.376Z</time>
      </trkpt>
      <trkpt lat="45.86136" lon="6.78203">
        <ele>1781</ele>
        <time>2026-08-14T04:48:21.376Z</time>
      </trkpt>
      <trkpt lat="45.86136" lon="6.78202">
        <ele>1781</ele>
        <time>2026-08-14T04:48:22.376Z</time>
      </trkpt>
      <trkpt lat="45.86136" lon="6.782">
        <ele>1782</ele>
        <time>2026-08-14T04:48:23.376Z</time>
      </trkpt>
      <trkpt lat="45.86136" lon="6.78197">
        <ele>1782</ele>
        <time>2026-08-14T04:48:24.376Z</time>
      </trkpt>
      <trkpt lat="45.86135" lon="6.78196">
        <ele>1783</ele>
        <time>2026-08-14T04:48:25.376Z</time>
      </trkpt>
      <trkpt lat="45.86134" lon="6.78194">
        <ele>1783</ele>
        <time>2026-08-14T04:48:26.376Z</time>
      </trkpt>
      <trkpt lat="45.86133" lon="6.78192">
        <ele>1783</ele>
        <time>2026-08-14T04:48:27.376Z</time>
      </trkpt>
      <trkpt lat="45.86132" lon="6.7819">
        <ele>1783</ele>
        <time>2026-08-14T04:48:28.376Z</time>
      </trkpt>
      <trkpt lat="45.86131" lon="6.7819">
        <ele>1783</ele>
        <time>2026-08-14T04:48:29.376Z</time>
      </trkpt>
      <trkpt lat="45.8613" lon="6.7819">
        <ele>1783</ele>
        <time>2026-08-14T04:48:30.376Z</time>
      </trkpt>
      <trkpt lat="45.86129" lon="6.78189">
        <ele>1784</ele>
        <time>2026-08-14T04:48:31.376Z</time>
      </trkpt>
      <trkpt lat="45.86129" lon="6.78189">
        <ele>1784</ele>
        <time>2026-08-14T04:48:32.376Z</time>
      </trkpt>
      <trkpt lat="45.86129" lon="6.78187">
        <ele>1784</ele>
        <time>2026-08-14T04:48:33.376Z</time>
      </trkpt>
      <trkpt lat="45.86129" lon="6.78185">
        <ele>1784</ele>
        <time>2026-08-14T04:48:34.376Z</time>
      </trkpt>
      <trkpt lat="45.86129" lon="6.78182">
        <ele>1784</ele>
        <time>2026-08-14T04:48:35.376Z</time>
      </trkpt>
      <trkpt lat="45.86128" lon="6.7818">
        <ele>1784</ele>
        <time>2026-08-14T04:48:36.376Z</time>
      </trkpt>
      <trkpt lat="45.86127" lon="6.78177">
        <ele>1784</ele>
        <time>2026-08-14T04:48:37.376Z</time>
      </trkpt>
      <trkpt lat="45.86126" lon="6.78175">
        <ele>1784</ele>
        <time>2026-08-14T04:48:38.376Z</time>
      </trkpt>
      <trkpt lat="45.86125" lon="6.78173">
        <ele>1785</ele>
        <time>2026-08-14T04:48:39.376Z</time>
      </trkpt>
      <trkpt lat="45.86124" lon="6.78171">
        <ele>1785</ele>
        <time>2026-08-14T04:48:40.376Z</time>
      </trkpt>
      <trkpt lat="45.86124" lon="6.78169">
        <ele>1785</ele>
        <time>2026-08-14T04:48:41.376Z</time>
      </trkpt>
      <trkpt lat="45.86123" lon="6.78167">
        <ele>1786</ele>
        <time>2026-08-14T04:48:42.376Z</time>
      </trkpt>
      <trkpt lat="45.86123" lon="6.78165">
        <ele>1786</ele>
        <time>2026-08-14T04:48:43.376Z</time>
      </trkpt>
      <trkpt lat="45.86122" lon="6.78163">
        <ele>1786</ele>
        <time>2026-08-14T04:48:44.376Z</time>
      </trkpt>
      <trkpt lat="45.86121" lon="6.78162">
        <ele>1786</ele>
        <time>2026-08-14T04:48:45.376Z</time>
      </trkpt>
      <trkpt lat="45.8612" lon="6.78162">
        <ele>1786</ele>
        <time>2026-08-14T04:48:46.376Z</time>
      </trkpt>
      <trkpt lat="45.86119" lon="6.78162">
        <ele>1786</ele>
        <time>2026-08-14T04:48:47.376Z</time>
      </trkpt>
      <trkpt lat="45.86119" lon="6.78161">
        <ele>1786</ele>
        <time>2026-08-14T04:48:48.376Z</time>
      </trkpt>
      <trkpt lat="45.86118" lon="6.78161">
        <ele>1786</ele>
        <time>2026-08-14T04:48:49.376Z</time>
      </trkpt>
      <trkpt lat="45.86118" lon="6.78161">
        <ele>1786</ele>
        <time>2026-08-14T04:48:50.376Z</time>
      </trkpt>
      <trkpt lat="45.86117" lon="6.78161">
        <ele>1786</ele>
        <time>2026-08-14T04:48:51.376Z</time>
      </trkpt>
      <trkpt lat="45.86116" lon="6.7816">
        <ele>1786</ele>
        <time>2026-08-14T04:48:52.376Z</time>
      </trkpt>
      <trkpt lat="45.86116" lon="6.7816">
        <ele>1787</ele>
        <time>2026-08-14T04:48:53.376Z</time>
      </trkpt>
      <trkpt lat="45.86115" lon="6.78159">
        <ele>1787</ele>
        <time>2026-08-14T04:48:54.376Z</time>
      </trkpt>
      <trkpt lat="45.86113" lon="6.78159">
        <ele>1787</ele>
        <time>2026-08-14T04:48:55.376Z</time>
      </trkpt>
      <trkpt lat="45.86113" lon="6.78158">
        <ele>1787</ele>
        <time>2026-08-14T04:48:56.376Z</time>
      </trkpt>
      <trkpt lat="45.86112" lon="6.78157">
        <ele>1787</ele>
        <time>2026-08-14T04:48:57.376Z</time>
      </trkpt>
      <trkpt lat="45.86111" lon="6.78157">
        <ele>1787</ele>
        <time>2026-08-14T04:48:58.376Z</time>
      </trkpt>
      <trkpt lat="45.86109" lon="6.78157">
        <ele>1787</ele>
        <time>2026-08-14T04:48:59.376Z</time>
      </trkpt>
      <trkpt lat="45.86108" lon="6.78158">
        <ele>1787</ele>
        <time>2026-08-14T04:49:00.376Z</time>
      </trkpt>
      <trkpt lat="45.86106" lon="6.78157">
        <ele>1787</ele>
        <time>2026-08-14T04:49:01.376Z</time>
      </trkpt>
      <trkpt lat="45.86106" lon="6.78156">
        <ele>1787</ele>
        <time>2026-08-14T04:49:02.376Z</time>
      </trkpt>
      <trkpt lat="45.86105" lon="6.78156">
        <ele>1787</ele>
        <time>2026-08-14T04:49:03.376Z</time>
      </trkpt>
      <trkpt lat="45.86104" lon="6.78155">
        <ele>1787</ele>
        <time>2026-08-14T04:49:04.376Z</time>
      </trkpt>
      <trkpt lat="45.86103" lon="6.78154">
        <ele>1787</ele>
        <time>2026-08-14T04:49:05.376Z</time>
      </trkpt>
      <trkpt lat="45.86103" lon="6.78153">
        <ele>1787</ele>
        <time>2026-08-14T04:49:06.376Z</time>
      </trkpt>
      <trkpt lat="45.86102" lon="6.78153">
        <ele>1787</ele>
        <time>2026-08-14T04:49:07.376Z</time>
      </trkpt>
      <trkpt lat="45.86101" lon="6.78152">
        <ele>1788</ele>
        <time>2026-08-14T04:49:08.376Z</time>
      </trkpt>
      <trkpt lat="45.861" lon="6.78152">
        <ele>1788</ele>
        <time>2026-08-14T04:49:09.376Z</time>
      </trkpt>
      <trkpt lat="45.86099" lon="6.78151">
        <ele>1789</ele>
        <time>2026-08-14T04:49:10.376Z</time>
      </trkpt>
      <trkpt lat="45.86099" lon="6.78151">
        <ele>1789</ele>
        <time>2026-08-14T04:49:11.376Z</time>
      </trkpt>
      <trkpt lat="45.86098" lon="6.7815">
        <ele>1789</ele>
        <time>2026-08-14T04:49:12.376Z</time>
      </trkpt>
      <trkpt lat="45.86097" lon="6.7815">
        <ele>1790</ele>
        <time>2026-08-14T04:49:13.376Z</time>
      </trkpt>
      <trkpt lat="45.86096" lon="6.78149">
        <ele>1790</ele>
        <time>2026-08-14T04:49:14.376Z</time>
      </trkpt>
      <trkpt lat="45.86095" lon="6.78148">
        <ele>1791</ele>
        <time>2026-08-14T04:49:15.376Z</time>
      </trkpt>
      <trkpt lat="45.86094" lon="6.78148">
        <ele>1791</ele>
        <time>2026-08-14T04:49:16.376Z</time>
      </trkpt>
      <trkpt lat="45.86093" lon="6.78148">
        <ele>1791</ele>
        <time>2026-08-14T04:49:17.376Z</time>
      </trkpt>
      <trkpt lat="45.86093" lon="6.78148">
        <ele>1791</ele>
        <time>2026-08-14T04:49:18.376Z</time>
      </trkpt>
      <trkpt lat="45.86092" lon="6.78148">
        <ele>1791</ele>
        <time>2026-08-14T04:49:19.376Z</time>
      </trkpt>
      <trkpt lat="45.86092" lon="6.78148">
        <ele>1791</ele>
        <time>2026-08-14T04:49:20.376Z</time>
      </trkpt>
      <trkpt lat="45.86091" lon="6.78148">
        <ele>1791</ele>
        <time>2026-08-14T04:49:21.376Z</time>
      </trkpt>
      <trkpt lat="45.8609" lon="6.78149">
        <ele>1791</ele>
        <time>2026-08-14T04:49:22.376Z</time>
      </trkpt>
      <trkpt lat="45.86089" lon="6.78149">
        <ele>1792</ele>
        <time>2026-08-14T04:49:23.376Z</time>
      </trkpt>
      <trkpt lat="45.86089" lon="6.78149">
        <ele>1792</ele>
        <time>2026-08-14T04:49:24.376Z</time>
      </trkpt>
      <trkpt lat="45.86088" lon="6.78149">
        <ele>1792</ele>
        <time>2026-08-14T04:49:25.376Z</time>
      </trkpt>
      <trkpt lat="45.86088" lon="6.78149">
        <ele>1792</ele>
        <time>2026-08-14T04:49:26.376Z</time>
      </trkpt>
      <trkpt lat="45.86087" lon="6.78149">
        <ele>1792</ele>
        <time>2026-08-14T04:49:27.376Z</time>
      </trkpt>
      <trkpt lat="45.86086" lon="6.78148">
        <ele>1792</ele>
        <time>2026-08-14T04:49:28.376Z</time>
      </trkpt>
      <trkpt lat="45.86085" lon="6.78148">
        <ele>1792</ele>
        <time>2026-08-14T04:49:29.376Z</time>
      </trkpt>
      <trkpt lat="45.86084" lon="6.78147">
        <ele>1792</ele>
        <time>2026-08-14T04:49:30.376Z</time>
      </trkpt>
      <trkpt lat="45.86083" lon="6.78146">
        <ele>1792</ele>
        <time>2026-08-14T04:49:31.376Z</time>
      </trkpt>
      <trkpt lat="45.86083" lon="6.78146">
        <ele>1792</ele>
        <time>2026-08-14T04:49:32.376Z</time>
      </trkpt>
      <trkpt lat="45.86082" lon="6.78146">
        <ele>1792</ele>
        <time>2026-08-14T04:49:33.376Z</time>
      </trkpt>
      <trkpt lat="45.86081" lon="6.78147">
        <ele>1792</ele>
        <time>2026-08-14T04:49:34.376Z</time>
      </trkpt>
      <trkpt lat="45.8608" lon="6.78148">
        <ele>1793</ele>
        <time>2026-08-14T04:49:35.376Z</time>
      </trkpt>
      <trkpt lat="45.8608" lon="6.78148">
        <ele>1793</ele>
        <time>2026-08-14T04:49:36.376Z</time>
      </trkpt>
      <trkpt lat="45.86079" lon="6.78148">
        <ele>1793</ele>
        <time>2026-08-14T04:49:37.376Z</time>
      </trkpt>
      <trkpt lat="45.86079" lon="6.78148">
        <ele>1793</ele>
        <time>2026-08-14T04:49:38.376Z</time>
      </trkpt>
      <trkpt lat="45.86078" lon="6.78148">
        <ele>1793</ele>
        <time>2026-08-14T04:49:39.376Z</time>
      </trkpt>
      <trkpt lat="45.86078" lon="6.78148">
        <ele>1793</ele>
        <time>2026-08-14T04:49:40.376Z</time>
      </trkpt>
      <trkpt lat="45.86077" lon="6.78147">
        <ele>1793</ele>
        <time>2026-08-14T04:49:41.376Z</time>
      </trkpt>
      <trkpt lat="45.86077" lon="6.78148">
        <ele>1794</ele>
        <time>2026-08-14T04:49:42.376Z</time>
      </trkpt>
      <trkpt lat="45.86076" lon="6.78148">
        <ele>1794</ele>
        <time>2026-08-14T04:49:43.376Z</time>
      </trkpt>
      <trkpt lat="45.86076" lon="6.78148">
        <ele>1794</ele>
        <time>2026-08-14T04:49:44.376Z</time>
      </trkpt>
      <trkpt lat="45.86075" lon="6.78147">
        <ele>1794</ele>
        <time>2026-08-14T04:49:45.376Z</time>
      </trkpt>
      <trkpt lat="45.86074" lon="6.78147">
        <ele>1795</ele>
        <time>2026-08-14T04:49:46.376Z</time>
      </trkpt>
      <trkpt lat="45.86074" lon="6.78147">
        <ele>1795</ele>
        <time>2026-08-14T04:49:47.376Z</time>
      </trkpt>
      <trkpt lat="45.86073" lon="6.78146">
        <ele>1795</ele>
        <time>2026-08-14T04:49:48.376Z</time>
      </trkpt>
      <trkpt lat="45.86073" lon="6.78146">
        <ele>1796</ele>
        <time>2026-08-14T04:49:49.376Z</time>
      </trkpt>
      <trkpt lat="45.86073" lon="6.78146">
        <ele>1796</ele>
        <time>2026-08-14T04:49:50.376Z</time>
      </trkpt>
      <trkpt lat="45.86072" lon="6.78146">
        <ele>1796</ele>
        <time>2026-08-14T04:49:51.376Z</time>
      </trkpt>
      <trkpt lat="45.86072" lon="6.78145">
        <ele>1797</ele>
        <time>2026-08-14T04:49:52.376Z</time>
      </trkpt>
      <trkpt lat="45.86071" lon="6.78144">
        <ele>1798</ele>
        <time>2026-08-14T04:49:53.376Z</time>
      </trkpt>
      <trkpt lat="45.8607" lon="6.78143">
        <ele>1798</ele>
        <time>2026-08-14T04:49:54.376Z</time>
      </trkpt>
      <trkpt lat="45.8607" lon="6.78142">
        <ele>1798</ele>
        <time>2026-08-14T04:49:55.376Z</time>
      </trkpt>
      <trkpt lat="45.86069" lon="6.78142">
        <ele>1799</ele>
        <time>2026-08-14T04:49:56.376Z</time>
      </trkpt>
      <trkpt lat="45.86068" lon="6.78142">
        <ele>1799</ele>
        <time>2026-08-14T04:49:57.376Z</time>
      </trkpt>
      <trkpt lat="45.86068" lon="6.78142">
        <ele>1799</ele>
        <time>2026-08-14T04:49:58.376Z</time>
      </trkpt>
      <trkpt lat="45.86068" lon="6.78141">
        <ele>1799</ele>
        <time>2026-08-14T04:49:59.376Z</time>
      </trkpt>
      <trkpt lat="45.86067" lon="6.78141">
        <ele>1799</ele>
        <time>2026-08-14T04:50:00.376Z</time>
      </trkpt>
      <trkpt lat="45.86066" lon="6.78141">
        <ele>1799</ele>
        <time>2026-08-14T04:50:01.376Z</time>
      </trkpt>
      <trkpt lat="45.86065" lon="6.7814">
        <ele>1800</ele>
        <time>2026-08-14T04:50:02.376Z</time>
      </trkpt>
      <trkpt lat="45.86065" lon="6.78139">
        <ele>1800</ele>
        <time>2026-08-14T04:50:03.376Z</time>
      </trkpt>
      <trkpt lat="45.86064" lon="6.78139">
        <ele>1800</ele>
        <time>2026-08-14T04:50:04.376Z</time>
      </trkpt>
      <trkpt lat="45.86064" lon="6.78137">
        <ele>1801</ele>
        <time>2026-08-14T04:50:05.376Z</time>
      </trkpt>
      <trkpt lat="45.86063" lon="6.78136">
        <ele>1801</ele>
        <time>2026-08-14T04:50:06.376Z</time>
      </trkpt>
      <trkpt lat="45.86063" lon="6.78136">
        <ele>1802</ele>
        <time>2026-08-14T04:50:07.376Z</time>
      </trkpt>
      <trkpt lat="45.86063" lon="6.78136">
        <ele>1802</ele>
        <time>2026-08-14T04:50:08.376Z</time>
      </trkpt>
      <trkpt lat="45.86063" lon="6.78135">
        <ele>1803</ele>
        <time>2026-08-14T04:50:09.376Z</time>
      </trkpt>
      <trkpt lat="45.86063" lon="6.78135">
        <ele>1803</ele>
        <time>2026-08-14T04:50:10.376Z</time>
      </trkpt>
      <trkpt lat="45.86063" lon="6.78135">
        <ele>1804</ele>
        <time>2026-08-14T04:50:11.376Z</time>
      </trkpt>
      <trkpt lat="45.86063" lon="6.78135">
        <ele>1805</ele>
        <time>2026-08-14T04:50:12.376Z</time>
      </trkpt>
      <trkpt lat="45.86063" lon="6.78135">
        <ele>1806</ele>
        <time>2026-08-14T04:50:13.376Z</time>
      </trkpt>
      <trkpt lat="45.86062" lon="6.78135">
        <ele>1806</ele>
        <time>2026-08-14T04:50:14.376Z</time>
      </trkpt>
      <trkpt lat="45.86062" lon="6.78135">
        <ele>1807</ele>
        <time>2026-08-14T04:50:15.376Z</time>
      </trkpt>
      <trkpt lat="45.86061" lon="6.78135">
        <ele>1807</ele>
        <time>2026-08-14T04:50:16.376Z</time>
      </trkpt>
      <trkpt lat="45.8606" lon="6.78135">
        <ele>1807</ele>
        <time>2026-08-14T04:50:17.376Z</time>
      </trkpt>
      <trkpt lat="45.8606" lon="6.78134">
        <ele>1808</ele>
        <time>2026-08-14T04:50:18.376Z</time>
      </trkpt>
      <trkpt lat="45.86059" lon="6.78133">
        <ele>1808</ele>
        <time>2026-08-14T04:50:19.376Z</time>
      </trkpt>
      <trkpt lat="45.86058" lon="6.78132">
        <ele>1808</ele>
        <time>2026-08-14T04:50:20.376Z</time>
      </trkpt>
      <trkpt lat="45.86057" lon="6.78131">
        <ele>1808</ele>
        <time>2026-08-14T04:50:21.376Z</time>
      </trkpt>
      <trkpt lat="45.86056" lon="6.7813">
        <ele>1808</ele>
        <time>2026-08-14T04:50:22.376Z</time>
      </trkpt>
      <trkpt lat="45.86055" lon="6.7813">
        <ele>1808</ele>
        <time>2026-08-14T04:50:23.376Z</time>
      </trkpt>
      <trkpt lat="45.86054" lon="6.78129">
        <ele>1808</ele>
        <time>2026-08-14T04:50:24.376Z</time>
      </trkpt>
      <trkpt lat="45.86054" lon="6.78128">
        <ele>1808</ele>
        <time>2026-08-14T04:50:25.376Z</time>
      </trkpt>
      <trkpt lat="45.86054" lon="6.78127">
        <ele>1809</ele>
        <time>2026-08-14T04:50:26.376Z</time>
      </trkpt>
      <trkpt lat="45.86053" lon="6.78126">
        <ele>1809</ele>
        <time>2026-08-14T04:50:27.376Z</time>
      </trkpt>
      <trkpt lat="45.86053" lon="6.78125">
        <ele>1809</ele>
        <time>2026-08-14T04:50:28.376Z</time>
      </trkpt>
      <trkpt lat="45.86052" lon="6.78124">
        <ele>1809</ele>
        <time>2026-08-14T04:50:29.376Z</time>
      </trkpt>
      <trkpt lat="45.86052" lon="6.78124">
        <ele>1810</ele>
        <time>2026-08-14T04:50:30.376Z</time>
      </trkpt>
      <trkpt lat="45.86051" lon="6.78123">
        <ele>1810</ele>
        <time>2026-08-14T04:50:31.376Z</time>
      </trkpt>
      <trkpt lat="45.8605" lon="6.78123">
        <ele>1810</ele>
        <time>2026-08-14T04:50:32.376Z</time>
      </trkpt>
      <trkpt lat="45.8605" lon="6.78122">
        <ele>1810</ele>
        <time>2026-08-14T04:50:33.376Z</time>
      </trkpt>
      <trkpt lat="45.8605" lon="6.78121">
        <ele>1810</ele>
        <time>2026-08-14T04:50:34.376Z</time>
      </trkpt>
      <trkpt lat="45.86049" lon="6.78121">
        <ele>1810</ele>
        <time>2026-08-14T04:50:35.376Z</time>
      </trkpt>
      <trkpt lat="45.86049" lon="6.78121">
        <ele>1809</ele>
        <time>2026-08-14T04:50:36.376Z</time>
      </trkpt>
      <trkpt lat="45.86048" lon="6.78121">
        <ele>1809</ele>
        <time>2026-08-14T04:50:37.376Z</time>
      </trkpt>
      <trkpt lat="45.86048" lon="6.7812">
        <ele>1809</ele>
        <time>2026-08-14T04:50:38.376Z</time>
      </trkpt>
      <trkpt lat="45.86047" lon="6.78119">
        <ele>1809</ele>
        <time>2026-08-14T04:50:39.376Z</time>
      </trkpt>
      <trkpt lat="45.86047" lon="6.78118">
        <ele>1809</ele>
        <time>2026-08-14T04:50:40.376Z</time>
      </trkpt>
      <trkpt lat="45.86047" lon="6.78116">
        <ele>1810</ele>
        <time>2026-08-14T04:50:41.376Z</time>
      </trkpt>
      <trkpt lat="45.86047" lon="6.78115">
        <ele>1810</ele>
        <time>2026-08-14T04:50:42.376Z</time>
      </trkpt>
      <trkpt lat="45.86047" lon="6.78113">
        <ele>1811</ele>
        <time>2026-08-14T04:50:43.376Z</time>
      </trkpt>
      <trkpt lat="45.86048" lon="6.78112">
        <ele>1811</ele>
        <time>2026-08-14T04:50:44.376Z</time>
      </trkpt>
      <trkpt lat="45.86048" lon="6.78111">
        <ele>1812</ele>
        <time>2026-08-14T04:50:45.376Z</time>
      </trkpt>
      <trkpt lat="45.86049" lon="6.78109">
        <ele>1812</ele>
        <time>2026-08-14T04:50:46.376Z</time>
      </trkpt>
      <trkpt lat="45.8605" lon="6.78108">
        <ele>1812</ele>
        <time>2026-08-14T04:50:47.376Z</time>
      </trkpt>
      <trkpt lat="45.8605" lon="6.78106">
        <ele>1812</ele>
        <time>2026-08-14T04:50:48.376Z</time>
      </trkpt>
      <trkpt lat="45.86051" lon="6.78105">
        <ele>1812</ele>
        <time>2026-08-14T04:50:49.376Z</time>
      </trkpt>
      <trkpt lat="45.86052" lon="6.78104">
        <ele>1812</ele>
        <time>2026-08-14T04:50:50.376Z</time>
      </trkpt>
      <trkpt lat="45.86052" lon="6.78103">
        <ele>1812</ele>
        <time>2026-08-14T04:50:51.376Z</time>
      </trkpt>
      <trkpt lat="45.86052" lon="6.78101">
        <ele>1812</ele>
        <time>2026-08-14T04:50:52.376Z</time>
      </trkpt>
      <trkpt lat="45.86052" lon="6.781">
        <ele>1812</ele>
        <time>2026-08-14T04:50:53.376Z</time>
      </trkpt>
      <trkpt lat="45.86053" lon="6.78099">
        <ele>1813</ele>
        <time>2026-08-14T04:50:54.376Z</time>
      </trkpt>
      <trkpt lat="45.86053" lon="6.78098">
        <ele>1814</ele>
        <time>2026-08-14T04:50:55.376Z</time>
      </trkpt>
      <trkpt lat="45.86053" lon="6.78097">
        <ele>1814</ele>
        <time>2026-08-14T04:50:56.376Z</time>
      </trkpt>
      <trkpt lat="45.86053" lon="6.78096">
        <ele>1815</ele>
        <time>2026-08-14T04:50:57.376Z</time>
      </trkpt>
      <trkpt lat="45.86053" lon="6.78094">
        <ele>1815</ele>
        <time>2026-08-14T04:50:58.376Z</time>
      </trkpt>
      <trkpt lat="45.86052" lon="6.78093">
        <ele>1816</ele>
        <time>2026-08-14T04:50:59.376Z</time>
      </trkpt>
      <trkpt lat="45.86052" lon="6.78093">
        <ele>1816</ele>
        <time>2026-08-14T04:51:00.376Z</time>
      </trkpt>
      <trkpt lat="45.86052" lon="6.78093">
        <ele>1817</ele>
        <time>2026-08-14T04:51:01.376Z</time>
      </trkpt>
      <trkpt lat="45.86051" lon="6.78093">
        <ele>1817</ele>
        <time>2026-08-14T04:51:02.376Z</time>
      </trkpt>
      <trkpt lat="45.86051" lon="6.78093">
        <ele>1817</ele>
        <time>2026-08-14T04:51:03.376Z</time>
      </trkpt>
      <trkpt lat="45.8605" lon="6.78093">
        <ele>1817</ele>
        <time>2026-08-14T04:51:04.376Z</time>
      </trkpt>
      <trkpt lat="45.8605" lon="6.78091">
        <ele>1817</ele>
        <time>2026-08-14T04:51:05.376Z</time>
      </trkpt>
      <trkpt lat="45.86049" lon="6.7809">
        <ele>1818</ele>
        <time>2026-08-14T04:51:06.376Z</time>
      </trkpt>
      <trkpt lat="45.86049" lon="6.78089">
        <ele>1818</ele>
        <time>2026-08-14T04:51:07.376Z</time>
      </trkpt>
      <trkpt lat="45.86048" lon="6.78087">
        <ele>1818</ele>
        <time>2026-08-14T04:51:08.376Z</time>
      </trkpt>
      <trkpt lat="45.86048" lon="6.78086">
        <ele>1819</ele>
        <time>2026-08-14T04:51:09.376Z</time>
      </trkpt>
      <trkpt lat="45.86047" lon="6.78085">
        <ele>1819</ele>
        <time>2026-08-14T04:51:10.376Z</time>
      </trkpt>
      <trkpt lat="45.86046" lon="6.78084">
        <ele>1819</ele>
        <time>2026-08-14T04:51:11.376Z</time>
      </trkpt>
      <trkpt lat="45.86045" lon="6.78083">
        <ele>1819</ele>
        <time>2026-08-14T04:51:12.376Z</time>
      </trkpt>
      <trkpt lat="45.86044" lon="6.78083">
        <ele>1819</ele>
        <time>2026-08-14T04:51:13.376Z</time>
      </trkpt>
      <trkpt lat="45.86043" lon="6.78082">
        <ele>1819</ele>
        <time>2026-08-14T04:51:14.376Z</time>
      </trkpt>
      <trkpt lat="45.86042" lon="6.78081">
        <ele>1819</ele>
        <time>2026-08-14T04:51:15.376Z</time>
      </trkpt>
      <trkpt lat="45.86041" lon="6.7808">
        <ele>1818</ele>
        <time>2026-08-14T04:51:16.376Z</time>
      </trkpt>
      <trkpt lat="45.8604" lon="6.7808">
        <ele>1818</ele>
        <time>2026-08-14T04:51:17.376Z</time>
      </trkpt>
      <trkpt lat="45.86039" lon="6.78079">
        <ele>1818</ele>
        <time>2026-08-14T04:51:18.376Z</time>
      </trkpt>
      <trkpt lat="45.86038" lon="6.78078">
        <ele>1819</ele>
        <time>2026-08-14T04:51:19.376Z</time>
      </trkpt>
      <trkpt lat="45.86037" lon="6.78077">
        <ele>1819</ele>
        <time>2026-08-14T04:51:20.376Z</time>
      </trkpt>
      <trkpt lat="45.86036" lon="6.78076">
        <ele>1819</ele>
        <time>2026-08-14T04:51:21.376Z</time>
      </trkpt>
      <trkpt lat="45.86035" lon="6.78076">
        <ele>1819</ele>
        <time>2026-08-14T04:51:22.376Z</time>
      </trkpt>
      <trkpt lat="45.86034" lon="6.78075">
        <ele>1819</ele>
        <time>2026-08-14T04:51:23.376Z</time>
      </trkpt>
      <trkpt lat="45.86033" lon="6.78075">
        <ele>1819</ele>
        <time>2026-08-14T04:51:24.376Z</time>
      </trkpt>
      <trkpt lat="45.86032" lon="6.78075">
        <ele>1819</ele>
        <time>2026-08-14T04:51:25.376Z</time>
      </trkpt>
      <trkpt lat="45.86031" lon="6.78074">
        <ele>1820</ele>
        <time>2026-08-14T04:51:26.376Z</time>
      </trkpt>
      <trkpt lat="45.86031" lon="6.78074">
        <ele>1821</ele>
        <time>2026-08-14T04:51:27.376Z</time>
      </trkpt>
      <trkpt lat="45.8603" lon="6.78074">
        <ele>1821</ele>
        <time>2026-08-14T04:51:28.376Z</time>
      </trkpt>
      <trkpt lat="45.86029" lon="6.78074">
        <ele>1822</ele>
        <time>2026-08-14T04:51:29.376Z</time>
      </trkpt>
      <trkpt lat="45.86028" lon="6.78073">
        <ele>1822</ele>
        <time>2026-08-14T04:51:30.376Z</time>
      </trkpt>
      <trkpt lat="45.86027" lon="6.78073">
        <ele>1822</ele>
        <time>2026-08-14T04:51:31.376Z</time>
      </trkpt>
      <trkpt lat="45.86026" lon="6.78073">
        <ele>1822</ele>
        <time>2026-08-14T04:51:32.376Z</time>
      </trkpt>
      <trkpt lat="45.86025" lon="6.78074">
        <ele>1823</ele>
        <time>2026-08-14T04:51:33.376Z</time>
      </trkpt>
      <trkpt lat="45.86025" lon="6.78073">
        <ele>1823</ele>
        <time>2026-08-14T04:51:34.376Z</time>
      </trkpt>
      <trkpt lat="45.86024" lon="6.78074">
        <ele>1823</ele>
        <time>2026-08-14T04:51:35.376Z</time>
      </trkpt>
      <trkpt lat="45.86023" lon="6.78076">
        <ele>1823</ele>
        <time>2026-08-14T04:51:36.376Z</time>
      </trkpt>
      <trkpt lat="45.86022" lon="6.78077">
        <ele>1823</ele>
        <time>2026-08-14T04:51:37.376Z</time>
      </trkpt>
      <trkpt lat="45.86022" lon="6.78077">
        <ele>1823</ele>
        <time>2026-08-14T04:51:38.376Z</time>
      </trkpt>
      <trkpt lat="45.86021" lon="6.78077">
        <ele>1822</ele>
        <time>2026-08-14T04:51:39.376Z</time>
      </trkpt>
      <trkpt lat="45.86021" lon="6.78077">
        <ele>1822</ele>
        <time>2026-08-14T04:51:40.376Z</time>
      </trkpt>
      <trkpt lat="45.8602" lon="6.78077">
        <ele>1822</ele>
        <time>2026-08-14T04:51:41.376Z</time>
      </trkpt>
      <trkpt lat="45.86019" lon="6.78077">
        <ele>1822</ele>
        <time>2026-08-14T04:51:42.376Z</time>
      </trkpt>
      <trkpt lat="45.86018" lon="6.78077">
        <ele>1822</ele>
        <time>2026-08-14T04:51:43.376Z</time>
      </trkpt>
      <trkpt lat="45.86018" lon="6.78077">
        <ele>1822</ele>
        <time>2026-08-14T04:51:44.376Z</time>
      </trkpt>
      <trkpt lat="45.86017" lon="6.78077">
        <ele>1822</ele>
        <time>2026-08-14T04:51:45.376Z</time>
      </trkpt>
      <trkpt lat="45.86017" lon="6.78078">
        <ele>1822</ele>
        <time>2026-08-14T04:51:46.376Z</time>
      </trkpt>
      <trkpt lat="45.86016" lon="6.78078">
        <ele>1823</ele>
        <time>2026-08-14T04:51:47.376Z</time>
      </trkpt>
      <trkpt lat="45.86015" lon="6.78079">
        <ele>1823</ele>
        <time>2026-08-14T04:51:48.376Z</time>
      </trkpt>
      <trkpt lat="45.86014" lon="6.78079">
        <ele>1823</ele>
        <time>2026-08-14T04:51:49.376Z</time>
      </trkpt>
      <trkpt lat="45.86013" lon="6.78079">
        <ele>1823</ele>
        <time>2026-08-14T04:51:50.376Z</time>
      </trkpt>
      <trkpt lat="45.86012" lon="6.78079">
        <ele>1822</ele>
        <time>2026-08-14T04:51:51.376Z</time>
      </trkpt>
      <trkpt lat="45.86011" lon="6.78078">
        <ele>1822</ele>
        <time>2026-08-14T04:51:52.376Z</time>
      </trkpt>
      <trkpt lat="45.86011" lon="6.78078">
        <ele>1822</ele>
        <time>2026-08-14T04:51:53.376Z</time>
      </trkpt>
      <trkpt lat="45.8601" lon="6.78078">
        <ele>1822</ele>
        <time>2026-08-14T04:51:54.376Z</time>
      </trkpt>
      <trkpt lat="45.8601" lon="6.78078">
        <ele>1823</ele>
        <time>2026-08-14T04:51:55.376Z</time>
      </trkpt>
      <trkpt lat="45.86009" lon="6.78078">
        <ele>1823</ele>
        <time>2026-08-14T04:51:56.376Z</time>
      </trkpt>
      <trkpt lat="45.86008" lon="6.78078">
        <ele>1823</ele>
        <time>2026-08-14T04:51:57.376Z</time>
      </trkpt>
      <trkpt lat="45.86008" lon="6.78078">
        <ele>1823</ele>
        <time>2026-08-14T04:51:58.376Z</time>
      </trkpt>
      <trkpt lat="45.86008" lon="6.78078">
        <ele>1824</ele>
        <time>2026-08-14T04:51:59.376Z</time>
      </trkpt>
      <trkpt lat="45.86008" lon="6.78076">
        <ele>1824</ele>
        <time>2026-08-14T04:52:00.376Z</time>
      </trkpt>
      <trkpt lat="45.86008" lon="6.78075">
        <ele>1824</ele>
        <time>2026-08-14T04:52:01.376Z</time>
      </trkpt>
      <trkpt lat="45.86008" lon="6.78074">
        <ele>1824</ele>
        <time>2026-08-14T04:52:02.376Z</time>
      </trkpt>
      <trkpt lat="45.86008" lon="6.78072">
        <ele>1825</ele>
        <time>2026-08-14T04:52:03.376Z</time>
      </trkpt>
      <trkpt lat="45.86009" lon="6.78071">
        <ele>1825</ele>
        <time>2026-08-14T04:52:04.376Z</time>
      </trkpt>
      <trkpt lat="45.86009" lon="6.7807">
        <ele>1826</ele>
        <time>2026-08-14T04:52:05.376Z</time>
      </trkpt>
      <trkpt lat="45.86009" lon="6.78068">
        <ele>1826</ele>
        <time>2026-08-14T04:52:06.376Z</time>
      </trkpt>
      <trkpt lat="45.8601" lon="6.78067">
        <ele>1827</ele>
        <time>2026-08-14T04:52:07.376Z</time>
      </trkpt>
      <trkpt lat="45.8601" lon="6.78066">
        <ele>1827</ele>
        <time>2026-08-14T04:52:08.376Z</time>
      </trkpt>
      <trkpt lat="45.8601" lon="6.78064">
        <ele>1827</ele>
        <time>2026-08-14T04:52:09.376Z</time>
      </trkpt>
      <trkpt lat="45.86009" lon="6.78063">
        <ele>1827</ele>
        <time>2026-08-14T04:52:10.376Z</time>
      </trkpt>
      <trkpt lat="45.86009" lon="6.78061">
        <ele>1827</ele>
        <time>2026-08-14T04:52:11.376Z</time>
      </trkpt>
      <trkpt lat="45.86009" lon="6.7806">
        <ele>1826</ele>
        <time>2026-08-14T04:52:12.376Z</time>
      </trkpt>
      <trkpt lat="45.86008" lon="6.78059">
        <ele>1826</ele>
        <time>2026-08-14T04:52:13.376Z</time>
      </trkpt>
      <trkpt lat="45.86007" lon="6.78059">
        <ele>1826</ele>
        <time>2026-08-14T04:52:14.376Z</time>
      </trkpt>
      <trkpt lat="45.86006" lon="6.78059">
        <ele>1826</ele>
        <time>2026-08-14T04:52:15.376Z</time>
      </trkpt>
      <trkpt lat="45.86005" lon="6.78058">
        <ele>1826</ele>
        <time>2026-08-14T04:52:16.376Z</time>
      </trkpt>
      <trkpt lat="45.86004" lon="6.78057">
        <ele>1826</ele>
        <time>2026-08-14T04:52:17.376Z</time>
      </trkpt>
      <trkpt lat="45.86003" lon="6.78056">
        <ele>1826</ele>
        <time>2026-08-14T04:52:18.376Z</time>
      </trkpt>
      <trkpt lat="45.86003" lon="6.78055">
        <ele>1827</ele>
        <time>2026-08-14T04:52:19.376Z</time>
      </trkpt>
      <trkpt lat="45.86003" lon="6.78054">
        <ele>1827</ele>
        <time>2026-08-14T04:52:20.376Z</time>
      </trkpt>
      <trkpt lat="45.86002" lon="6.78053">
        <ele>1827</ele>
        <time>2026-08-14T04:52:21.376Z</time>
      </trkpt>
      <trkpt lat="45.86002" lon="6.78051">
        <ele>1827</ele>
        <time>2026-08-14T04:52:22.376Z</time>
      </trkpt>
      <trkpt lat="45.86002" lon="6.7805">
        <ele>1827</ele>
        <time>2026-08-14T04:52:23.376Z</time>
      </trkpt>
      <trkpt lat="45.86001" lon="6.7805">
        <ele>1828</ele>
        <time>2026-08-14T04:52:24.376Z</time>
      </trkpt>
      <trkpt lat="45.86" lon="6.78049">
        <ele>1828</ele>
        <time>2026-08-14T04:52:25.376Z</time>
      </trkpt>
      <trkpt lat="45.86" lon="6.78049">
        <ele>1829</ele>
        <time>2026-08-14T04:52:26.376Z</time>
      </trkpt>
      <trkpt lat="45.85999" lon="6.78048">
        <ele>1829</ele>
        <time>2026-08-14T04:52:27.376Z</time>
      </trkpt>
      <trkpt lat="45.85998" lon="6.78047">
        <ele>1829</ele>
        <time>2026-08-14T04:52:28.376Z</time>
      </trkpt>
      <trkpt lat="45.85998" lon="6.78047">
        <ele>1830</ele>
        <time>2026-08-14T04:52:29.376Z</time>
      </trkpt>
      <trkpt lat="45.85997" lon="6.78046">
        <ele>1830</ele>
        <time>2026-08-14T04:52:30.376Z</time>
      </trkpt>
      <trkpt lat="45.85996" lon="6.78045">
        <ele>1830</ele>
        <time>2026-08-14T04:52:31.376Z</time>
      </trkpt>
      <trkpt lat="45.85995" lon="6.78044">
        <ele>1830</ele>
        <time>2026-08-14T04:52:32.376Z</time>
      </trkpt>
      <trkpt lat="45.85995" lon="6.78043">
        <ele>1830</ele>
        <time>2026-08-14T04:52:33.376Z</time>
      </trkpt>
      <trkpt lat="45.85994" lon="6.78042">
        <ele>1831</ele>
        <time>2026-08-14T04:52:34.376Z</time>
      </trkpt>
      <trkpt lat="45.85994" lon="6.78041">
        <ele>1831</ele>
        <time>2026-08-14T04:52:35.376Z</time>
      </trkpt>
      <trkpt lat="45.85993" lon="6.78041">
        <ele>1832</ele>
        <time>2026-08-14T04:52:36.376Z</time>
      </trkpt>
      <trkpt lat="45.85993" lon="6.7804">
        <ele>1833</ele>
        <time>2026-08-14T04:52:37.376Z</time>
      </trkpt>
      <trkpt lat="45.85993" lon="6.7804">
        <ele>1833</ele>
        <time>2026-08-14T04:52:38.376Z</time>
      </trkpt>
      <trkpt lat="45.85993" lon="6.78039">
        <ele>1833</ele>
        <time>2026-08-14T04:52:39.376Z</time>
      </trkpt>
      <trkpt lat="45.85992" lon="6.78038">
        <ele>1834</ele>
        <time>2026-08-14T04:52:40.376Z</time>
      </trkpt>
      <trkpt lat="45.85991" lon="6.78037">
        <ele>1834</ele>
        <time>2026-08-14T04:52:41.376Z</time>
      </trkpt>
      <trkpt lat="45.8599" lon="6.78036">
        <ele>1835</ele>
        <time>2026-08-14T04:52:42.376Z</time>
      </trkpt>
      <trkpt lat="45.85989" lon="6.78036">
        <ele>1835</ele>
        <time>2026-08-14T04:52:43.376Z</time>
      </trkpt>
      <trkpt lat="45.85988" lon="6.78036">
        <ele>1835</ele>
        <time>2026-08-14T04:52:44.376Z</time>
      </trkpt>
      <trkpt lat="45.85987" lon="6.78035">
        <ele>1836</ele>
        <time>2026-08-14T04:52:45.376Z</time>
      </trkpt>
      <trkpt lat="45.85986" lon="6.78035">
        <ele>1836</ele>
        <time>2026-08-14T04:52:46.376Z</time>
      </trkpt>
      <trkpt lat="45.85985" lon="6.78035">
        <ele>1837</ele>
        <time>2026-08-14T04:52:47.376Z</time>
      </trkpt>
      <trkpt lat="45.85983" lon="6.78034">
        <ele>1837</ele>
        <time>2026-08-14T04:52:48.376Z</time>
      </trkpt>
      <trkpt lat="45.85982" lon="6.78033">
        <ele>1837</ele>
        <time>2026-08-14T04:52:49.376Z</time>
      </trkpt>
      <trkpt lat="45.85981" lon="6.78032">
        <ele>1838</ele>
        <time>2026-08-14T04:52:50.376Z</time>
      </trkpt>
      <trkpt lat="45.8598" lon="6.78031">
        <ele>1838</ele>
        <time>2026-08-14T04:52:51.376Z</time>
      </trkpt>
      <trkpt lat="45.85979" lon="6.7803">
        <ele>1839</ele>
        <time>2026-08-14T04:52:52.376Z</time>
      </trkpt>
      <trkpt lat="45.85978" lon="6.7803">
        <ele>1839</ele>
        <time>2026-08-14T04:52:53.376Z</time>
      </trkpt>
      <trkpt lat="45.85977" lon="6.78029">
        <ele>1839</ele>
        <time>2026-08-14T04:52:54.376Z</time>
      </trkpt>
      <trkpt lat="45.85976" lon="6.78028">
        <ele>1840</ele>
        <time>2026-08-14T04:52:55.376Z</time>
      </trkpt>
      <trkpt lat="45.85975" lon="6.78028">
        <ele>1840</ele>
        <time>2026-08-14T04:52:56.376Z</time>
      </trkpt>
      <trkpt lat="45.85975" lon="6.78027">
        <ele>1840</ele>
        <time>2026-08-14T04:52:57.376Z</time>
      </trkpt>
      <trkpt lat="45.85974" lon="6.78027">
        <ele>1840</ele>
        <time>2026-08-14T04:52:58.376Z</time>
      </trkpt>
      <trkpt lat="45.85972" lon="6.78026">
        <ele>1841</ele>
        <time>2026-08-14T04:52:59.376Z</time>
      </trkpt>
      <trkpt lat="45.85971" lon="6.78026">
        <ele>1841</ele>
        <time>2026-08-14T04:53:00.376Z</time>
      </trkpt>
      <trkpt lat="45.8597" lon="6.78025">
        <ele>1841</ele>
        <time>2026-08-14T04:53:01.376Z</time>
      </trkpt>
      <trkpt lat="45.85968" lon="6.78024">
        <ele>1841</ele>
        <time>2026-08-14T04:53:02.376Z</time>
      </trkpt>
      <trkpt lat="45.85967" lon="6.78023">
        <ele>1841</ele>
        <time>2026-08-14T04:53:03.376Z</time>
      </trkpt>
      <trkpt lat="45.85966" lon="6.78023">
        <ele>1841</ele>
        <time>2026-08-14T04:53:04.376Z</time>
      </trkpt>
      <trkpt lat="45.85965" lon="6.78022">
        <ele>1841</ele>
        <time>2026-08-14T04:53:05.376Z</time>
      </trkpt>
      <trkpt lat="45.85964" lon="6.78022">
        <ele>1841</ele>
        <time>2026-08-14T04:53:06.376Z</time>
      </trkpt>
      <trkpt lat="45.85964" lon="6.78022">
        <ele>1841</ele>
        <time>2026-08-14T04:53:07.376Z</time>
      </trkpt>
      <trkpt lat="45.85963" lon="6.78021">
        <ele>1840</ele>
        <time>2026-08-14T04:53:08.376Z</time>
      </trkpt>
      <trkpt lat="45.85962" lon="6.7802">
        <ele>1840</ele>
        <time>2026-08-14T04:53:09.376Z</time>
      </trkpt>
      <trkpt lat="45.85961" lon="6.78019">
        <ele>1840</ele>
        <time>2026-08-14T04:53:10.376Z</time>
      </trkpt>
      <trkpt lat="45.85959" lon="6.78017">
        <ele>1839</ele>
        <time>2026-08-14T04:53:11.376Z</time>
      </trkpt>
      <trkpt lat="45.85958" lon="6.78015">
        <ele>1839</ele>
        <time>2026-08-14T04:53:12.376Z</time>
      </trkpt>
      <trkpt lat="45.85957" lon="6.78013">
        <ele>1838</ele>
        <time>2026-08-14T04:53:13.376Z</time>
      </trkpt>
      <trkpt lat="45.85955" lon="6.78012">
        <ele>1838</ele>
        <time>2026-08-14T04:53:14.376Z</time>
      </trkpt>
      <trkpt lat="45.85954" lon="6.7801">
        <ele>1838</ele>
        <time>2026-08-14T04:53:15.376Z</time>
      </trkpt>
      <trkpt lat="45.85953" lon="6.78008">
        <ele>1838</ele>
        <time>2026-08-14T04:53:16.376Z</time>
      </trkpt>
      <trkpt lat="45.85952" lon="6.78006">
        <ele>1838</ele>
        <time>2026-08-14T04:53:17.376Z</time>
      </trkpt>
      <trkpt lat="45.8595" lon="6.78005">
        <ele>1838</ele>
        <time>2026-08-14T04:53:18.376Z</time>
      </trkpt>
      <trkpt lat="45.85949" lon="6.78004">
        <ele>1838</ele>
        <time>2026-08-14T04:53:19.376Z</time>
      </trkpt>
      <trkpt lat="45.85947" lon="6.78004">
        <ele>1839</ele>
        <time>2026-08-14T04:53:20.376Z</time>
      </trkpt>
      <trkpt lat="45.85945" lon="6.78004">
        <ele>1839</ele>
        <time>2026-08-14T04:53:21.376Z</time>
      </trkpt>
      <trkpt lat="45.85944" lon="6.78004">
        <ele>1839</ele>
        <time>2026-08-14T04:53:22.376Z</time>
      </trkpt>
      <trkpt lat="45.85942" lon="6.78004">
        <ele>1840</ele>
        <time>2026-08-14T04:53:23.376Z</time>
      </trkpt>
      <trkpt lat="45.85941" lon="6.78003">
        <ele>1840</ele>
        <time>2026-08-14T04:53:24.376Z</time>
      </trkpt>
      <trkpt lat="45.85939" lon="6.78003">
        <ele>1840</ele>
        <time>2026-08-14T04:53:25.376Z</time>
      </trkpt>
      <trkpt lat="45.85938" lon="6.78003">
        <ele>1840</ele>
        <time>2026-08-14T04:53:26.376Z</time>
      </trkpt>
      <trkpt lat="45.85936" lon="6.78002">
        <ele>1841</ele>
        <time>2026-08-14T04:53:27.376Z</time>
      </trkpt>
      <trkpt lat="45.85935" lon="6.78002">
        <ele>1841</ele>
        <time>2026-08-14T04:53:28.376Z</time>
      </trkpt>
      <trkpt lat="45.85933" lon="6.78002">
        <ele>1841</ele>
        <time>2026-08-14T04:53:29.376Z</time>
      </trkpt>
      <trkpt lat="45.85931" lon="6.78002">
        <ele>1841</ele>
        <time>2026-08-14T04:53:30.376Z</time>
      </trkpt>
      <trkpt lat="45.8593" lon="6.78002">
        <ele>1841</ele>
        <time>2026-08-14T04:53:31.376Z</time>
      </trkpt>
      <trkpt lat="45.85928" lon="6.78002">
        <ele>1842</ele>
        <time>2026-08-14T04:53:32.376Z</time>
      </trkpt>
      <trkpt lat="45.85927" lon="6.78003">
        <ele>1842</ele>
        <time>2026-08-14T04:53:33.376Z</time>
      </trkpt>
      <trkpt lat="45.85925" lon="6.78003">
        <ele>1842</ele>
        <time>2026-08-14T04:53:34.376Z</time>
      </trkpt>
      <trkpt lat="45.85924" lon="6.78003">
        <ele>1843</ele>
        <time>2026-08-14T04:53:35.376Z</time>
      </trkpt>
      <trkpt lat="45.85923" lon="6.78002">
        <ele>1843</ele>
        <time>2026-08-14T04:53:36.376Z</time>
      </trkpt>
      <trkpt lat="45.85922" lon="6.78">
        <ele>1843</ele>
        <time>2026-08-14T04:53:37.376Z</time>
      </trkpt>
      <trkpt lat="45.85921" lon="6.77999">
        <ele>1843</ele>
        <time>2026-08-14T04:53:38.376Z</time>
      </trkpt>
      <trkpt lat="45.85919" lon="6.77997">
        <ele>1843</ele>
        <time>2026-08-14T04:53:39.376Z</time>
      </trkpt>
      <trkpt lat="45.85918" lon="6.77996">
        <ele>1844</ele>
        <time>2026-08-14T04:53:40.376Z</time>
      </trkpt>
      <trkpt lat="45.85917" lon="6.77995">
        <ele>1844</ele>
        <time>2026-08-14T04:53:41.376Z</time>
      </trkpt>
      <trkpt lat="45.85916" lon="6.77995">
        <ele>1844</ele>
        <time>2026-08-14T04:53:42.376Z</time>
      </trkpt>
      <trkpt lat="45.85915" lon="6.77994">
        <ele>1844</ele>
        <time>2026-08-14T04:53:43.376Z</time>
      </trkpt>
      <trkpt lat="45.85915" lon="6.77994">
        <ele>1844</ele>
        <time>2026-08-14T04:53:44.376Z</time>
      </trkpt>
      <trkpt lat="45.85914" lon="6.77993">
        <ele>1845</ele>
        <time>2026-08-14T04:53:45.376Z</time>
      </trkpt>
      <trkpt lat="45.85914" lon="6.77992">
        <ele>1845</ele>
        <time>2026-08-14T04:53:46.376Z</time>
      </trkpt>
      <trkpt lat="45.85913" lon="6.7799">
        <ele>1845</ele>
        <time>2026-08-14T04:53:47.376Z</time>
      </trkpt>
      <trkpt lat="45.85913" lon="6.77988">
        <ele>1845</ele>
        <time>2026-08-14T04:53:48.376Z</time>
      </trkpt>
      <trkpt lat="45.85913" lon="6.77985">
        <ele>1846</ele>
        <time>2026-08-14T04:53:49.376Z</time>
      </trkpt>
      <trkpt lat="45.85913" lon="6.77983">
        <ele>1846</ele>
        <time>2026-08-14T04:53:50.376Z</time>
      </trkpt>
      <trkpt lat="45.85913" lon="6.77981">
        <ele>1846</ele>
        <time>2026-08-14T04:53:51.376Z</time>
      </trkpt>
      <trkpt lat="45.85913" lon="6.77979">
        <ele>1846</ele>
        <time>2026-08-14T04:53:52.376Z</time>
      </trkpt>
      <trkpt lat="45.85913" lon="6.77978">
        <ele>1847</ele>
        <time>2026-08-14T04:53:53.376Z</time>
      </trkpt>
      <trkpt lat="45.85912" lon="6.77977">
        <ele>1847</ele>
        <time>2026-08-14T04:53:54.376Z</time>
      </trkpt>
      <trkpt lat="45.85912" lon="6.77977">
        <ele>1847</ele>
        <time>2026-08-14T04:53:55.376Z</time>
      </trkpt>
      <trkpt lat="45.85912" lon="6.77976">
        <ele>1847</ele>
        <time>2026-08-14T04:53:56.376Z</time>
      </trkpt>
      <trkpt lat="45.85911" lon="6.77976">
        <ele>1847</ele>
        <time>2026-08-14T04:53:57.376Z</time>
      </trkpt>
      <trkpt lat="45.8591" lon="6.77976">
        <ele>1847</ele>
        <time>2026-08-14T04:53:58.376Z</time>
      </trkpt>
      <trkpt lat="45.85909" lon="6.77976">
        <ele>1848</ele>
        <time>2026-08-14T04:53:59.376Z</time>
      </trkpt>
      <trkpt lat="45.85908" lon="6.77975">
        <ele>1848</ele>
        <time>2026-08-14T04:54:00.376Z</time>
      </trkpt>
      <trkpt lat="45.85907" lon="6.77973">
        <ele>1848</ele>
        <time>2026-08-14T04:54:01.376Z</time>
      </trkpt>
      <trkpt lat="45.85906" lon="6.77973">
        <ele>1848</ele>
        <time>2026-08-14T04:54:02.376Z</time>
      </trkpt>
      <trkpt lat="45.85906" lon="6.77972">
        <ele>1848</ele>
        <time>2026-08-14T04:54:03.376Z</time>
      </trkpt>
      <trkpt lat="45.85905" lon="6.77972">
        <ele>1848</ele>
        <time>2026-08-14T04:54:04.376Z</time>
      </trkpt>
      <trkpt lat="45.85904" lon="6.77971">
        <ele>1848</ele>
        <time>2026-08-14T04:54:05.376Z</time>
      </trkpt>
      <trkpt lat="45.85904" lon="6.7797">
        <ele>1848</ele>
        <time>2026-08-14T04:54:06.376Z</time>
      </trkpt>
      <trkpt lat="45.85903" lon="6.77969">
        <ele>1848</ele>
        <time>2026-08-14T04:54:07.376Z</time>
      </trkpt>
      <trkpt lat="45.85902" lon="6.77969">
        <ele>1849</ele>
        <time>2026-08-14T04:54:08.376Z</time>
      </trkpt>
      <trkpt lat="45.85901" lon="6.77969">
        <ele>1849</ele>
        <time>2026-08-14T04:54:09.376Z</time>
      </trkpt>
      <trkpt lat="45.859" lon="6.77969">
        <ele>1849</ele>
        <time>2026-08-14T04:54:10.376Z</time>
      </trkpt>
      <trkpt lat="45.85899" lon="6.77968">
        <ele>1849</ele>
        <time>2026-08-14T04:54:11.376Z</time>
      </trkpt>
      <trkpt lat="45.85898" lon="6.77967">
        <ele>1849</ele>
        <time>2026-08-14T04:54:12.376Z</time>
      </trkpt>
      <trkpt lat="45.85897" lon="6.77966">
        <ele>1849</ele>
        <time>2026-08-14T04:54:13.376Z</time>
      </trkpt>
      <trkpt lat="45.85897" lon="6.77966">
        <ele>1850</ele>
        <time>2026-08-14T04:54:14.376Z</time>
      </trkpt>
      <trkpt lat="45.85896" lon="6.77965">
        <ele>1850</ele>
        <time>2026-08-14T04:54:15.376Z</time>
      </trkpt>
      <trkpt lat="45.85896" lon="6.77964">
        <ele>1850</ele>
        <time>2026-08-14T04:54:16.376Z</time>
      </trkpt>
      <trkpt lat="45.85895" lon="6.77962">
        <ele>1851</ele>
        <time>2026-08-14T04:54:17.376Z</time>
      </trkpt>
      <trkpt lat="45.85894" lon="6.77962">
        <ele>1851</ele>
        <time>2026-08-14T04:54:18.376Z</time>
      </trkpt>
      <trkpt lat="45.85894" lon="6.77961">
        <ele>1851</ele>
        <time>2026-08-14T04:54:19.376Z</time>
      </trkpt>
      <trkpt lat="45.85893" lon="6.77961">
        <ele>1851</ele>
        <time>2026-08-14T04:54:20.376Z</time>
      </trkpt>
      <trkpt lat="45.85891" lon="6.7796">
        <ele>1851</ele>
        <time>2026-08-14T04:54:21.376Z</time>
      </trkpt>
      <trkpt lat="45.8589" lon="6.7796">
        <ele>1852</ele>
        <time>2026-08-14T04:54:22.376Z</time>
      </trkpt>
      <trkpt lat="45.85889" lon="6.77959">
        <ele>1852</ele>
        <time>2026-08-14T04:54:23.376Z</time>
      </trkpt>
      <trkpt lat="45.85888" lon="6.77958">
        <ele>1852</ele>
        <time>2026-08-14T04:54:24.376Z</time>
      </trkpt>
      <trkpt lat="45.85887" lon="6.77956">
        <ele>1852</ele>
        <time>2026-08-14T04:54:25.376Z</time>
      </trkpt>
      <trkpt lat="45.85886" lon="6.77955">
        <ele>1852</ele>
        <time>2026-08-14T04:54:26.376Z</time>
      </trkpt>
      <trkpt lat="45.85885" lon="6.77954">
        <ele>1852</ele>
        <time>2026-08-14T04:54:27.376Z</time>
      </trkpt>
      <trkpt lat="45.85884" lon="6.77953">
        <ele>1852</ele>
        <time>2026-08-14T04:54:28.376Z</time>
      </trkpt>
      <trkpt lat="45.85883" lon="6.77953">
        <ele>1853</ele>
        <time>2026-08-14T04:54:29.376Z</time>
      </trkpt>
      <trkpt lat="45.85881" lon="6.77953">
        <ele>1853</ele>
        <time>2026-08-14T04:54:30.376Z</time>
      </trkpt>
      <trkpt lat="45.8588" lon="6.77952">
        <ele>1853</ele>
        <time>2026-08-14T04:54:31.376Z</time>
      </trkpt>
      <trkpt lat="45.85879" lon="6.77952">
        <ele>1853</ele>
        <time>2026-08-14T04:54:32.376Z</time>
      </trkpt>
      <trkpt lat="45.85878" lon="6.77951">
        <ele>1853</ele>
        <time>2026-08-14T04:54:33.376Z</time>
      </trkpt>
      <trkpt lat="45.85877" lon="6.77949">
        <ele>1853</ele>
        <time>2026-08-14T04:54:34.376Z</time>
      </trkpt>
      <trkpt lat="45.85876" lon="6.77947">
        <ele>1853</ele>
        <time>2026-08-14T04:54:35.376Z</time>
      </trkpt>
      <trkpt lat="45.85876" lon="6.77944">
        <ele>1853</ele>
        <time>2026-08-14T04:54:36.376Z</time>
      </trkpt>
      <trkpt lat="45.85876" lon="6.77942">
        <ele>1853</ele>
        <time>2026-08-14T04:54:37.376Z</time>
      </trkpt>
      <trkpt lat="45.85876" lon="6.7794">
        <ele>1853</ele>
        <time>2026-08-14T04:54:38.376Z</time>
      </trkpt>
      <trkpt lat="45.85876" lon="6.77938">
        <ele>1853</ele>
        <time>2026-08-14T04:54:39.376Z</time>
      </trkpt>
      <trkpt lat="45.85875" lon="6.77936">
        <ele>1853</ele>
        <time>2026-08-14T04:54:40.376Z</time>
      </trkpt>
      <trkpt lat="45.85875" lon="6.77935">
        <ele>1853</ele>
        <time>2026-08-14T04:54:41.376Z</time>
      </trkpt>
      <trkpt lat="45.85874" lon="6.77933">
        <ele>1853</ele>
        <time>2026-08-14T04:54:42.376Z</time>
      </trkpt>
      <trkpt lat="45.85874" lon="6.77932">
        <ele>1853</ele>
        <time>2026-08-14T04:54:43.376Z</time>
      </trkpt>
      <trkpt lat="45.85875" lon="6.7793">
        <ele>1854</ele>
        <time>2026-08-14T04:54:44.376Z</time>
      </trkpt>
      <trkpt lat="45.85875" lon="6.77929">
        <ele>1854</ele>
        <time>2026-08-14T04:54:45.376Z</time>
      </trkpt>
      <trkpt lat="45.85875" lon="6.77928">
        <ele>1855</ele>
        <time>2026-08-14T04:54:46.376Z</time>
      </trkpt>
      <trkpt lat="45.85875" lon="6.77926">
        <ele>1856</ele>
        <time>2026-08-14T04:54:47.376Z</time>
      </trkpt>
      <trkpt lat="45.85875" lon="6.77924">
        <ele>1856</ele>
        <time>2026-08-14T04:54:48.376Z</time>
      </trkpt>
      <trkpt lat="45.85875" lon="6.77923">
        <ele>1857</ele>
        <time>2026-08-14T04:54:49.376Z</time>
      </trkpt>
      <trkpt lat="45.85875" lon="6.77921">
        <ele>1857</ele>
        <time>2026-08-14T04:54:50.376Z</time>
      </trkpt>
      <trkpt lat="45.85874" lon="6.7792">
        <ele>1858</ele>
        <time>2026-08-14T04:54:51.376Z</time>
      </trkpt>
      <trkpt lat="45.85874" lon="6.77918">
        <ele>1859</ele>
        <time>2026-08-14T04:54:52.376Z</time>
      </trkpt>
      <trkpt lat="45.85873" lon="6.77917">
        <ele>1859</ele>
        <time>2026-08-14T04:54:53.376Z</time>
      </trkpt>
      <trkpt lat="45.85873" lon="6.77916">
        <ele>1859</ele>
        <time>2026-08-14T04:54:54.376Z</time>
      </trkpt>
      <trkpt lat="45.85872" lon="6.77916">
        <ele>1859</ele>
        <time>2026-08-14T04:54:55.376Z</time>
      </trkpt>
      <trkpt lat="45.85871" lon="6.77916">
        <ele>1860</ele>
        <time>2026-08-14T04:54:56.376Z</time>
      </trkpt>
      <trkpt lat="45.8587" lon="6.77916">
        <ele>1860</ele>
        <time>2026-08-14T04:54:57.376Z</time>
      </trkpt>
      <trkpt lat="45.85869" lon="6.77916">
        <ele>1860</ele>
        <time>2026-08-14T04:54:58.376Z</time>
      </trkpt>
      <trkpt lat="45.85868" lon="6.77915">
        <ele>1860</ele>
        <time>2026-08-14T04:54:59.376Z</time>
      </trkpt>
      <trkpt lat="45.85867" lon="6.77915">
        <ele>1860</ele>
        <time>2026-08-14T04:55:00.376Z</time>
      </trkpt>
      <trkpt lat="45.85866" lon="6.77916">
        <ele>1860</ele>
        <time>2026-08-14T04:55:01.376Z</time>
      </trkpt>
      <trkpt lat="45.85865" lon="6.77916">
        <ele>1860</ele>
        <time>2026-08-14T04:55:02.376Z</time>
      </trkpt>
      <trkpt lat="45.85864" lon="6.77915">
        <ele>1860</ele>
        <time>2026-08-14T04:55:03.376Z</time>
      </trkpt>
      <trkpt lat="45.85864" lon="6.77915">
        <ele>1860</ele>
        <time>2026-08-14T04:55:04.376Z</time>
      </trkpt>
      <trkpt lat="45.85864" lon="6.77915">
        <ele>1860</ele>
        <time>2026-08-14T04:55:05.376Z</time>
      </trkpt>
      <trkpt lat="45.85864" lon="6.77914">
        <ele>1859</ele>
        <time>2026-08-14T04:55:06.376Z</time>
      </trkpt>
      <trkpt lat="45.85863" lon="6.77914">
        <ele>1859</ele>
        <time>2026-08-14T04:55:07.376Z</time>
      </trkpt>
      <trkpt lat="45.85863" lon="6.77914">
        <ele>1859</ele>
        <time>2026-08-14T04:55:08.376Z</time>
      </trkpt>
      <trkpt lat="45.85862" lon="6.77914">
        <ele>1859</ele>
        <time>2026-08-14T04:55:09.376Z</time>
      </trkpt>
      <trkpt lat="45.85861" lon="6.77913">
        <ele>1859</ele>
        <time>2026-08-14T04:55:10.376Z</time>
      </trkpt>
      <trkpt lat="45.8586" lon="6.77913">
        <ele>1859</ele>
        <time>2026-08-14T04:55:11.376Z</time>
      </trkpt>
      <trkpt lat="45.85859" lon="6.77912">
        <ele>1859</ele>
        <time>2026-08-14T04:55:12.376Z</time>
      </trkpt>
      <trkpt lat="45.85859" lon="6.77911">
        <ele>1859</ele>
        <time>2026-08-14T04:55:13.376Z</time>
      </trkpt>
      <trkpt lat="45.85858" lon="6.77911">
        <ele>1859</ele>
        <time>2026-08-14T04:55:14.376Z</time>
      </trkpt>
      <trkpt lat="45.85857" lon="6.7791">
        <ele>1859</ele>
        <time>2026-08-14T04:55:15.376Z</time>
      </trkpt>
      <trkpt lat="45.85856" lon="6.7791">
        <ele>1859</ele>
        <time>2026-08-14T04:55:16.376Z</time>
      </trkpt>
      <trkpt lat="45.85856" lon="6.7791">
        <ele>1860</ele>
        <time>2026-08-14T04:55:17.376Z</time>
      </trkpt>
      <trkpt lat="45.85855" lon="6.7791">
        <ele>1860</ele>
        <time>2026-08-14T04:55:18.376Z</time>
      </trkpt>
      <trkpt lat="45.85854" lon="6.77909">
        <ele>1861</ele>
        <time>2026-08-14T04:55:19.376Z</time>
      </trkpt>
      <trkpt lat="45.85853" lon="6.77909">
        <ele>1861</ele>
        <time>2026-08-14T04:55:20.376Z</time>
      </trkpt>
      <trkpt lat="45.85853" lon="6.77909">
        <ele>1862</ele>
        <time>2026-08-14T04:55:21.376Z</time>
      </trkpt>
      <trkpt lat="45.85852" lon="6.77909">
        <ele>1863</ele>
        <time>2026-08-14T04:55:22.376Z</time>
      </trkpt>
      <trkpt lat="45.85851" lon="6.77908">
        <ele>1863</ele>
        <time>2026-08-14T04:55:23.376Z</time>
      </trkpt>
      <trkpt lat="45.85851" lon="6.77908">
        <ele>1863</ele>
        <time>2026-08-14T04:55:24.376Z</time>
      </trkpt>
      <trkpt lat="45.8585" lon="6.77908">
        <ele>1864</ele>
        <time>2026-08-14T04:55:25.376Z</time>
      </trkpt>
      <trkpt lat="45.85849" lon="6.77907">
        <ele>1864</ele>
        <time>2026-08-14T04:55:26.376Z</time>
      </trkpt>
      <trkpt lat="45.85849" lon="6.77907">
        <ele>1865</ele>
        <time>2026-08-14T04:55:27.376Z</time>
      </trkpt>
      <trkpt lat="45.85848" lon="6.77906">
        <ele>1865</ele>
        <time>2026-08-14T04:55:28.376Z</time>
      </trkpt>
      <trkpt lat="45.85848" lon="6.77905">
        <ele>1866</ele>
        <time>2026-08-14T04:55:29.376Z</time>
      </trkpt>
      <trkpt lat="45.85848" lon="6.77904">
        <ele>1866</ele>
        <time>2026-08-14T04:55:30.376Z</time>
      </trkpt>
      <trkpt lat="45.85848" lon="6.77904">
        <ele>1866</ele>
        <time>2026-08-14T04:55:31.376Z</time>
      </trkpt>
      <trkpt lat="45.85848" lon="6.77904">
        <ele>1867</ele>
        <time>2026-08-14T04:55:32.376Z</time>
      </trkpt>
      <trkpt lat="45.85848" lon="6.77904">
        <ele>1867</ele>
        <time>2026-08-14T04:55:33.376Z</time>
      </trkpt>
      <trkpt lat="45.85848" lon="6.77904">
        <ele>1867</ele>
        <time>2026-08-14T04:55:34.376Z</time>
      </trkpt>
      <trkpt lat="45.85849" lon="6.77904">
        <ele>1867</ele>
        <time>2026-08-14T04:55:35.376Z</time>
      </trkpt>
      <trkpt lat="45.85849" lon="6.77904">
        <ele>1867</ele>
        <time>2026-08-14T04:55:36.376Z</time>
      </trkpt>
      <trkpt lat="45.85849" lon="6.77904">
        <ele>1867</ele>
        <time>2026-08-14T04:55:37.376Z</time>
      </trkpt>
      <trkpt lat="45.85849" lon="6.77904">
        <ele>1868</ele>
        <time>2026-08-14T04:55:38.376Z</time>
      </trkpt>
      <trkpt lat="45.85849" lon="6.77904">
        <ele>1868</ele>
        <time>2026-08-14T04:55:39.376Z</time>
      </trkpt>
      <trkpt lat="45.85849" lon="6.77903">
        <ele>1867</ele>
        <time>2026-08-14T04:55:40.376Z</time>
      </trkpt>
      <trkpt lat="45.85849" lon="6.77903">
        <ele>1867</ele>
        <time>2026-08-14T04:55:41.376Z</time>
      </trkpt>
      <trkpt lat="45.85849" lon="6.77903">
        <ele>1867</ele>
        <time>2026-08-14T04:55:42.376Z</time>
      </trkpt>
      <trkpt lat="45.85849" lon="6.77903">
        <ele>1867</ele>
        <time>2026-08-14T04:55:43.376Z</time>
      </trkpt>
      <trkpt lat="45.85849" lon="6.77903">
        <ele>1867</ele>
        <time>2026-08-14T04:55:44.376Z</time>
      </trkpt>
      <trkpt lat="45.85849" lon="6.77903">
        <ele>1866</ele>
        <time>2026-08-14T04:55:45.376Z</time>
      </trkpt>
      <trkpt lat="45.85849" lon="6.77903">
        <ele>1866</ele>
        <time>2026-08-14T04:55:46.376Z</time>
      </trkpt>
      <trkpt lat="45.85849" lon="6.77903">
        <ele>1866</ele>
        <time>2026-08-14T04:55:47.376Z</time>
      </trkpt>
      <trkpt lat="45.85849" lon="6.77903">
        <ele>1866</ele>
        <time>2026-08-14T04:55:48.376Z</time>
      </trkpt>
      <trkpt lat="45.85849" lon="6.77903">
        <ele>1866</ele>
        <time>2026-08-14T04:55:49.376Z</time>
      </trkpt>
      <trkpt lat="45.85849" lon="6.77903">
        <ele>1866</ele>
        <time>2026-08-14T04:55:50.376Z</time>
      </trkpt>
      <trkpt lat="45.85849" lon="6.77903">
        <ele>1866</ele>
        <time>2026-08-14T04:55:51.376Z</time>
      </trkpt>
      <trkpt lat="45.85849" lon="6.77903">
        <ele>1866</ele>
        <time>2026-08-14T04:55:52.376Z</time>
      </trkpt>
      <trkpt lat="45.85849" lon="6.77903">
        <ele>1866</ele>
        <time>2026-08-14T04:55:53.376Z</time>
      </trkpt>
      <trkpt lat="45.85849" lon="6.77903">
        <ele>1866</ele>
        <time>2026-08-14T04:55:54.376Z</time>
      </trkpt>
      <trkpt lat="45.85849" lon="6.77903">
        <ele>1866</ele>
        <time>2026-08-14T04:55:55.376Z</time>
      </trkpt>
      <trkpt lat="45.85849" lon="6.77903">
        <ele>1866</ele>
        <time>2026-08-14T04:55:56.376Z</time>
      </trkpt>
      <trkpt lat="45.85849" lon="6.77903">
        <ele>1866</ele>
        <time>2026-08-14T04:55:57.376Z</time>
      </trkpt>
      <trkpt lat="45.85849" lon="6.77903">
        <ele>1866</ele>
        <time>2026-08-14T04:55:58.376Z</time>
      </trkpt>
      <trkpt lat="45.85849" lon="6.77903">
        <ele>1866</ele>
        <time>2026-08-14T04:55:59.376Z</time>
      </trkpt>
      <trkpt lat="45.85849" lon="6.77903">
        <ele>1866</ele>
        <time>2026-08-14T04:56:00.376Z</time>
      </trkpt>
      <trkpt lat="45.85849" lon="6.77903">
        <ele>1866</ele>
        <time>2026-08-14T04:56:01.376Z</time>
      </trkpt>
      <trkpt lat="45.85849" lon="6.77903">
        <ele>1866</ele>
        <time>2026-08-14T04:56:02.376Z</time>
      </trkpt>
      <trkpt lat="45.85849" lon="6.77903">
        <ele>1866</ele>
        <time>2026-08-14T04:56:03.376Z</time>
      </trkpt>
      <trkpt lat="45.85849" lon="6.77903">
        <ele>1865</ele>
        <time>2026-08-14T04:56:04.376Z</time>
      </trkpt>
      <trkpt lat="45.85849" lon="6.77903">
        <ele>1865</ele>
        <time>2026-08-14T04:56:05.376Z</time>
      </trkpt>
      <trkpt lat="45.85849" lon="6.77903">
        <ele>1865</ele>
        <time>2026-08-14T04:56:06.376Z</time>
      </trkpt>
      <trkpt lat="45.85849" lon="6.77903">
        <ele>1865</ele>
        <time>2026-08-14T04:56:07.376Z</time>
      </trkpt>
      <trkpt lat="45.85849" lon="6.77903">
        <ele>1865</ele>
        <time>2026-08-14T04:56:08.376Z</time>
      </trkpt>
      <trkpt lat="45.85849" lon="6.77903">
        <ele>1865</ele>
        <time>2026-08-14T04:56:09.376Z</time>
      </trkpt>
      <trkpt lat="45.85849" lon="6.77904">
        <ele>1865</ele>
        <time>2026-08-14T04:56:10.376Z</time>
      </trkpt>
      <trkpt lat="45.85849" lon="6.77904">
        <ele>1865</ele>
        <time>2026-08-14T04:56:11.376Z</time>
      </trkpt>
      <trkpt lat="45.85849" lon="6.77904">
        <ele>1865</ele>
        <time>2026-08-14T04:56:12.376Z</time>
      </trkpt>
      <trkpt lat="45.85848" lon="6.77904">
        <ele>1865</ele>
        <time>2026-08-14T04:56:13.376Z</time>
      </trkpt>
      <trkpt lat="45.85848" lon="6.77905">
        <ele>1865</ele>
        <time>2026-08-14T04:56:14.376Z</time>
      </trkpt>
      <trkpt lat="45.85848" lon="6.77905">
        <ele>1865</ele>
        <time>2026-08-14T04:56:15.376Z</time>
      </trkpt>
      <trkpt lat="45.85848" lon="6.77905">
        <ele>1865</ele>
        <time>2026-08-14T04:56:16.376Z</time>
      </trkpt>
      <trkpt lat="45.85848" lon="6.77905">
        <ele>1865</ele>
        <time>2026-08-14T04:56:17.376Z</time>
      </trkpt>
      <trkpt lat="45.85848" lon="6.77905">
        <ele>1865</ele>
        <time>2026-08-14T04:56:18.376Z</time>
      </trkpt>
      <trkpt lat="45.85848" lon="6.77905">
        <ele>1865</ele>
        <time>2026-08-14T04:56:19.376Z</time>
      </trkpt>
      <trkpt lat="45.85848" lon="6.77905">
        <ele>1865</ele>
        <time>2026-08-14T04:56:20.376Z</time>
      </trkpt>
      <trkpt lat="45.85848" lon="6.77905">
        <ele>1865</ele>
        <time>2026-08-14T04:56:21.376Z</time>
      </trkpt>
      <trkpt lat="45.85848" lon="6.77905">
        <ele>1865</ele>
        <time>2026-08-14T04:56:22.376Z</time>
      </trkpt>
      <trkpt lat="45.85848" lon="6.77905">
        <ele>1865</ele>
        <time>2026-08-14T04:56:23.376Z</time>
      </trkpt>
      <trkpt lat="45.85848" lon="6.77905">
        <ele>1865</ele>
        <time>2026-08-14T04:56:24.376Z</time>
      </trkpt>
      <trkpt lat="45.85848" lon="6.77905">
        <ele>1865</ele>
        <time>2026-08-14T04:56:25.376Z</time>
      </trkpt>
      <trkpt lat="45.85848" lon="6.77905">
        <ele>1865</ele>
        <time>2026-08-14T04:56:26.376Z</time>
      </trkpt>
      <trkpt lat="45.85848" lon="6.77905">
        <ele>1865</ele>
        <time>2026-08-14T04:56:27.376Z</time>
      </trkpt>
      <trkpt lat="45.85848" lon="6.77904">
        <ele>1865</ele>
        <time>2026-08-14T04:56:28.376Z</time>
      </trkpt>
      <trkpt lat="45.85848" lon="6.77904">
        <ele>1865</ele>
        <time>2026-08-14T04:56:29.376Z</time>
      </trkpt>
      <trkpt lat="45.85848" lon="6.77904">
        <ele>1865</ele>
        <time>2026-08-14T04:56:30.376Z</time>
      </trkpt>
      <trkpt lat="45.85848" lon="6.77904">
        <ele>1865</ele>
        <time>2026-08-14T04:56:31.376Z</time>
      </trkpt>
      <trkpt lat="45.85848" lon="6.77904">
        <ele>1865</ele>
        <time>2026-08-14T04:56:32.376Z</time>
      </trkpt>
      <trkpt lat="45.85848" lon="6.77903">
        <ele>1865</ele>
        <time>2026-08-14T04:56:33.376Z</time>
      </trkpt>
      <trkpt lat="45.85848" lon="6.77903">
        <ele>1865</ele>
        <time>2026-08-14T04:56:34.376Z</time>
      </trkpt>
      <trkpt lat="45.85848" lon="6.77903">
        <ele>1865</ele>
        <time>2026-08-14T04:56:35.376Z</time>
      </trkpt>
      <trkpt lat="45.85848" lon="6.77903">
        <ele>1865</ele>
        <time>2026-08-14T04:56:36.376Z</time>
      </trkpt>
      <trkpt lat="45.85848" lon="6.77903">
        <ele>1865</ele>
        <time>2026-08-14T04:56:37.376Z</time>
      </trkpt>
      <trkpt lat="45.85848" lon="6.77903">
        <ele>1865</ele>
        <time>2026-08-14T04:56:38.376Z</time>
      </trkpt>
      <trkpt lat="45.85848" lon="6.77903">
        <ele>1865</ele>
        <time>2026-08-14T04:56:39.376Z</time>
      </trkpt>
      <trkpt lat="45.85848" lon="6.77903">
        <ele>1865</ele>
        <time>2026-08-14T04:56:40.376Z</time>
      </trkpt>
      <trkpt lat="45.85848" lon="6.77903">
        <ele>1865</ele>
        <time>2026-08-14T04:56:41.376Z</time>
      </trkpt>
      <trkpt lat="45.85848" lon="6.77903">
        <ele>1865</ele>
        <time>2026-08-14T04:56:42.376Z</time>
      </trkpt>
      <trkpt lat="45.85848" lon="6.77903">
        <ele>1865</ele>
        <time>2026-08-14T04:56:43.376Z</time>
      </trkpt>
      <trkpt lat="45.85848" lon="6.77903">
        <ele>1865</ele>
        <time>2026-08-14T04:56:44.376Z</time>
      </trkpt>
      <trkpt lat="45.85848" lon="6.77903">
        <ele>1865</ele>
        <time>2026-08-14T04:56:45.376Z</time>
      </trkpt>
      <trkpt lat="45.85848" lon="6.77903">
        <ele>1865</ele>
        <time>2026-08-14T04:56:46.376Z</time>
      </trkpt>
      <trkpt lat="45.85848" lon="6.77903">
        <ele>1865</ele>
        <time>2026-08-14T04:56:47.376Z</time>
      </trkpt>
      <trkpt lat="45.85848" lon="6.77903">
        <ele>1865</ele>
        <time>2026-08-14T04:56:48.376Z</time>
      </trkpt>
      <trkpt lat="45.85848" lon="6.77903">
        <ele>1865</ele>
        <time>2026-08-14T04:56:49.376Z</time>
      </trkpt>
      <trkpt lat="45.85848" lon="6.77903">
        <ele>1865</ele>
        <time>2026-08-14T04:56:50.376Z</time>
      </trkpt>
      <trkpt lat="45.85848" lon="6.77903">
        <ele>1865</ele>
        <time>2026-08-14T04:56:51.376Z</time>
      </trkpt>
      <trkpt lat="45.85848" lon="6.77903">
        <ele>1865</ele>
        <time>2026-08-14T04:56:52.376Z</time>
      </trkpt>
      <trkpt lat="45.85847" lon="6.77903">
        <ele>1865</ele>
        <time>2026-08-14T04:56:53.376Z</time>
      </trkpt>
      <trkpt lat="45.85847" lon="6.77903">
        <ele>1865</ele>
        <time>2026-08-14T04:56:54.376Z</time>
      </trkpt>
      <trkpt lat="45.85847" lon="6.77903">
        <ele>1865</ele>
        <time>2026-08-14T04:56:55.376Z</time>
      </trkpt>
      <trkpt lat="45.85847" lon="6.77903">
        <ele>1865</ele>
        <time>2026-08-14T04:56:56.376Z</time>
      </trkpt>
      <trkpt lat="45.85847" lon="6.77903">
        <ele>1865</ele>
        <time>2026-08-14T04:56:57.376Z</time>
      </trkpt>
      <trkpt lat="45.85847" lon="6.77903">
        <ele>1865</ele>
        <time>2026-08-14T04:56:58.376Z</time>
      </trkpt>
      <trkpt lat="45.85847" lon="6.77903">
        <ele>1865</ele>
        <time>2026-08-14T04:56:59.376Z</time>
      </trkpt>
      <trkpt lat="45.85847" lon="6.77903">
        <ele>1865</ele>
        <time>2026-08-14T04:57:00.376Z</time>
      </trkpt>
      <trkpt lat="45.85847" lon="6.77904">
        <ele>1865</ele>
        <time>2026-08-14T04:57:01.376Z</time>
      </trkpt>
      <trkpt lat="45.85847" lon="6.77904">
        <ele>1865</ele>
        <time>2026-08-14T04:57:02.376Z</time>
      </trkpt>
      <trkpt lat="45.85847" lon="6.77904">
        <ele>1865</ele>
        <time>2026-08-14T04:57:03.376Z</time>
      </trkpt>
      <trkpt lat="45.85847" lon="6.77904">
        <ele>1865</ele>
        <time>2026-08-14T04:57:04.376Z</time>
      </trkpt>
      <trkpt lat="45.85847" lon="6.77904">
        <ele>1865</ele>
        <time>2026-08-14T04:57:05.376Z</time>
      </trkpt>
      <trkpt lat="45.85847" lon="6.77904">
        <ele>1865</ele>
        <time>2026-08-14T04:57:06.376Z</time>
      </trkpt>
      <trkpt lat="45.85847" lon="6.77904">
        <ele>1865</ele>
        <time>2026-08-14T04:57:07.376Z</time>
      </trkpt>
      <trkpt lat="45.85847" lon="6.77904">
        <ele>1865</ele>
        <time>2026-08-14T04:57:08.376Z</time>
      </trkpt>
      <trkpt lat="45.85847" lon="6.77904">
        <ele>1865</ele>
        <time>2026-08-14T04:57:09.376Z</time>
      </trkpt>
      <trkpt lat="45.85847" lon="6.77904">
        <ele>1865</ele>
        <time>2026-08-14T04:57:10.376Z</time>
      </trkpt>
      <trkpt lat="45.85847" lon="6.77904">
        <ele>1865</ele>
        <time>2026-08-14T04:57:11.376Z</time>
      </trkpt>
      <trkpt lat="45.85848" lon="6.77904">
        <ele>1865</ele>
        <time>2026-08-14T04:57:12.376Z</time>
      </trkpt>
      <trkpt lat="45.85848" lon="6.77904">
        <ele>1865</ele>
        <time>2026-08-14T04:57:13.376Z</time>
      </trkpt>
      <trkpt lat="45.85848" lon="6.77904">
        <ele>1865</ele>
        <time>2026-08-14T04:57:14.376Z</time>
      </trkpt>
      <trkpt lat="45.85848" lon="6.77904">
        <ele>1865</ele>
        <time>2026-08-14T04:57:15.376Z</time>
      </trkpt>
      <trkpt lat="45.85848" lon="6.77904">
        <ele>1865</ele>
        <time>2026-08-14T04:57:16.376Z</time>
      </trkpt>
      <trkpt lat="45.85848" lon="6.77904">
        <ele>1865</ele>
        <time>2026-08-14T04:57:17.376Z</time>
      </trkpt>
      <trkpt lat="45.85848" lon="6.77904">
        <ele>1865</ele>
        <time>2026-08-14T04:57:18.376Z</time>
      </trkpt>
      <trkpt lat="45.85848" lon="6.77904">
        <ele>1865</ele>
        <time>2026-08-14T04:57:19.376Z</time>
      </trkpt>
      <trkpt lat="45.85848" lon="6.77904">
        <ele>1865</ele>
        <time>2026-08-14T04:57:20.376Z</time>
      </trkpt>
      <trkpt lat="45.85848" lon="6.77904">
        <ele>1865</ele>
        <time>2026-08-14T04:57:21.376Z</time>
      </trkpt>
      <trkpt lat="45.85848" lon="6.77904">
        <ele>1865</ele>
        <time>2026-08-14T04:57:22.376Z</time>
      </trkpt>
      <trkpt lat="45.85848" lon="6.77904">
        <ele>1865</ele>
        <time>2026-08-14T04:57:23.376Z</time>
      </trkpt>
      <trkpt lat="45.85848" lon="6.77904">
        <ele>1865</ele>
        <time>2026-08-14T04:57:24.376Z</time>
      </trkpt>
      <trkpt lat="45.85849" lon="6.77904">
        <ele>1865</ele>
        <time>2026-08-14T04:57:25.376Z</time>
      </trkpt>
      <trkpt lat="45.85849" lon="6.77904">
        <ele>1865</ele>
        <time>2026-08-14T04:57:26.376Z</time>
      </trkpt>
      <trkpt lat="45.85849" lon="6.77904">
        <ele>1865</ele>
        <time>2026-08-14T04:57:27.376Z</time>
      </trkpt>
      <trkpt lat="45.85849" lon="6.77904">
        <ele>1865</ele>
        <time>2026-08-14T04:57:28.376Z</time>
      </trkpt>
      <trkpt lat="45.85849" lon="6.77904">
        <ele>1865</ele>
        <time>2026-08-14T04:57:29.376Z</time>
      </trkpt>
      <trkpt lat="45.85849" lon="6.77903">
        <ele>1865</ele>
        <time>2026-08-14T04:57:30.376Z</time>
      </trkpt>
      <trkpt lat="45.85849" lon="6.77903">
        <ele>1865</ele>
        <time>2026-08-14T04:57:31.376Z</time>
      </trkpt>
      <trkpt lat="45.85849" lon="6.77903">
        <ele>1865</ele>
        <time>2026-08-14T04:57:32.376Z</time>
      </trkpt>
      <trkpt lat="45.85849" lon="6.77903">
        <ele>1865</ele>
        <time>2026-08-14T04:57:33.376Z</time>
      </trkpt>
      <trkpt lat="45.85849" lon="6.77903">
        <ele>1865</ele>
        <time>2026-08-14T04:57:34.376Z</time>
      </trkpt>
      <trkpt lat="45.85849" lon="6.77903">
        <ele>1865</ele>
        <time>2026-08-14T04:57:35.376Z</time>
      </trkpt>
      <trkpt lat="45.85849" lon="6.77903">
        <ele>1865</ele>
        <time>2026-08-14T04:57:36.376Z</time>
      </trkpt>
      <trkpt lat="45.85849" lon="6.77903">
        <ele>1865</ele>
        <time>2026-08-14T04:57:37.376Z</time>
      </trkpt>
      <trkpt lat="45.85849" lon="6.77903">
        <ele>1865</ele>
        <time>2026-08-14T04:57:38.376Z</time>
      </trkpt>
      <trkpt lat="45.85849" lon="6.77903">
        <ele>1865</ele>
        <time>2026-08-14T04:57:39.376Z</time>
      </trkpt>
      <trkpt lat="45.85849" lon="6.77903">
        <ele>1865</ele>
        <time>2026-08-14T04:57:40.376Z</time>
      </trkpt>
      <trkpt lat="45.85849" lon="6.77903">
        <ele>1865</ele>
        <time>2026-08-14T04:57:41.376Z</time>
      </trkpt>
      <trkpt lat="45.85849" lon="6.77903">
        <ele>1865</ele>
        <time>2026-08-14T04:57:42.376Z</time>
      </trkpt>
      <trkpt lat="45.85849" lon="6.77903">
        <ele>1865</ele>
        <time>2026-08-14T04:57:43.376Z</time>
      </trkpt>
      <trkpt lat="45.85849" lon="6.77903">
        <ele>1865</ele>
        <time>2026-08-14T04:57:44.376Z</time>
      </trkpt>
      <trkpt lat="45.85849" lon="6.77903">
        <ele>1865</ele>
        <time>2026-08-14T04:57:45.376Z</time>
      </trkpt>
      <trkpt lat="45.85849" lon="6.77903">
        <ele>1865</ele>
        <time>2026-08-14T04:57:46.376Z</time>
      </trkpt>
      <trkpt lat="45.85849" lon="6.77903">
        <ele>1865</ele>
        <time>2026-08-14T04:57:47.376Z</time>
      </trkpt>
      <trkpt lat="45.85849" lon="6.77903">
        <ele>1865</ele>
        <time>2026-08-14T04:57:48.376Z</time>
      </trkpt>
      <trkpt lat="45.85849" lon="6.77903">
        <ele>1865</ele>
        <time>2026-08-14T04:57:49.376Z</time>
      </trkpt>
      <trkpt lat="45.85849" lon="6.77903">
        <ele>1865</ele>
        <time>2026-08-14T04:57:50.376Z</time>
      </trkpt>
      <trkpt lat="45.85849" lon="6.77904">
        <ele>1865</ele>
        <time>2026-08-14T04:57:51.376Z</time>
      </trkpt>
      <trkpt lat="45.85849" lon="6.77904">
        <ele>1865</ele>
        <time>2026-08-14T04:57:52.376Z</time>
      </trkpt>
      <trkpt lat="45.85849" lon="6.77904">
        <ele>1865</ele>
        <time>2026-08-14T04:57:53.376Z</time>
      </trkpt>
      <trkpt lat="45.85849" lon="6.77904">
        <ele>1865</ele>
        <time>2026-08-14T04:57:54.376Z</time>
      </trkpt>
      <trkpt lat="45.85849" lon="6.77904">
        <ele>1865</ele>
        <time>2026-08-14T04:57:55.376Z</time>
      </trkpt>
      <trkpt lat="45.85849" lon="6.77904">
        <ele>1865</ele>
        <time>2026-08-14T04:57:56.376Z</time>
      </trkpt>
      <trkpt lat="45.85849" lon="6.77904">
        <ele>1865</ele>
        <time>2026-08-14T04:57:57.376Z</time>
      </trkpt>
      <trkpt lat="45.85849" lon="6.77904">
        <ele>1865</ele>
        <time>2026-08-14T04:57:58.376Z</time>
      </trkpt>
      <trkpt lat="45.85849" lon="6.77904">
        <ele>1865</ele>
        <time>2026-08-14T04:57:59.376Z</time>
      </trkpt>
      <trkpt lat="45.85849" lon="6.77904">
        <ele>1865</ele>
        <time>2026-08-14T04:58:00.376Z</time>
      </trkpt>
      <trkpt lat="45.85849" lon="6.77904">
        <ele>1865</ele>
        <time>2026-08-14T04:58:01.376Z</time>
      </trkpt>
      <trkpt lat="45.85849" lon="6.77904">
        <ele>1865</ele>
        <time>2026-08-14T04:58:02.376Z</time>
      </trkpt>
      <trkpt lat="45.85849" lon="6.77904">
        <ele>1865</ele>
        <time>2026-08-14T04:58:03.376Z</time>
      </trkpt>
      <trkpt lat="45.85849" lon="6.77904">
        <ele>1865</ele>
        <time>2026-08-14T04:58:04.376Z</time>
      </trkpt>
      <trkpt lat="45.85849" lon="6.77904">
        <ele>1865</ele>
        <time>2026-08-14T04:58:05.376Z</time>
      </trkpt>
      <trkpt lat="45.85849" lon="6.77904">
        <ele>1865</ele>
        <time>2026-08-14T04:58:06.376Z</time>
      </trkpt>
      <trkpt lat="45.85849" lon="6.77904">
        <ele>1865</ele>
        <time>2026-08-14T04:58:07.376Z</time>
      </trkpt>
      <trkpt lat="45.85849" lon="6.77904">
        <ele>1865</ele>
        <time>2026-08-14T04:58:08.376Z</time>
      </trkpt>
      <trkpt lat="45.85849" lon="6.77904">
        <ele>1865</ele>
        <time>2026-08-14T04:58:09.376Z</time>
      </trkpt>
      <trkpt lat="45.85849" lon="6.77904">
        <ele>1865</ele>
        <time>2026-08-14T04:58:10.376Z</time>
      </trkpt>
      <trkpt lat="45.85849" lon="6.77904">
        <ele>1865</ele>
        <time>2026-08-14T04:58:11.376Z</time>
      </trkpt>
      <trkpt lat="45.85848" lon="6.77904">
        <ele>1865</ele>
        <time>2026-08-14T04:58:12.376Z</time>
      </trkpt>
      <trkpt lat="45.85848" lon="6.77904">
        <ele>1865</ele>
        <time>2026-08-14T04:58:13.376Z</time>
      </trkpt>
      <trkpt lat="45.85848" lon="6.77904">
        <ele>1865</ele>
        <time>2026-08-14T04:58:14.376Z</time>
      </trkpt>
      <trkpt lat="45.85848" lon="6.77904">
        <ele>1865</ele>
        <time>2026-08-14T04:58:15.376Z</time>
      </trkpt>
      <trkpt lat="45.85848" lon="6.77904">
        <ele>1865</ele>
        <time>2026-08-14T04:58:16.376Z</time>
      </trkpt>
      <trkpt lat="45.85848" lon="6.77904">
        <ele>1865</ele>
        <time>2026-08-14T04:58:17.376Z</time>
      </trkpt>
      <trkpt lat="45.85848" lon="6.77904">
        <ele>1865</ele>
        <time>2026-08-14T04:58:18.376Z</time>
      </trkpt>
      <trkpt lat="45.85848" lon="6.77904">
        <ele>1865</ele>
        <time>2026-08-14T04:58:19.376Z</time>
      </trkpt>
      <trkpt lat="45.85848" lon="6.77904">
        <ele>1865</ele>
        <time>2026-08-14T04:58:20.376Z</time>
      </trkpt>
      <trkpt lat="45.85848" lon="6.77904">
        <ele>1865</ele>
        <time>2026-08-14T04:58:21.376Z</time>
      </trkpt>
      <trkpt lat="45.85848" lon="6.77904">
        <ele>1865</ele>
        <time>2026-08-14T04:58:22.376Z</time>
      </trkpt>
      <trkpt lat="45.85848" lon="6.77904">
        <ele>1865</ele>
        <time>2026-08-14T04:58:23.376Z</time>
      </trkpt>
      <trkpt lat="45.85847" lon="6.77904">
        <ele>1866</ele>
        <time>2026-08-14T04:58:24.376Z</time>
      </trkpt>
      <trkpt lat="45.85847" lon="6.77904">
        <ele>1866</ele>
        <time>2026-08-14T04:58:25.376Z</time>
      </trkpt>
      <trkpt lat="45.85847" lon="6.77904">
        <ele>1866</ele>
        <time>2026-08-14T04:58:26.376Z</time>
      </trkpt>
      <trkpt lat="45.85847" lon="6.77904">
        <ele>1866</ele>
        <time>2026-08-14T04:58:27.376Z</time>
      </trkpt>
      <trkpt lat="45.85847" lon="6.77904">
        <ele>1866</ele>
        <time>2026-08-14T04:58:28.376Z</time>
      </trkpt>
      <trkpt lat="45.85847" lon="6.77904">
        <ele>1866</ele>
        <time>2026-08-14T04:58:29.376Z</time>
      </trkpt>
      <trkpt lat="45.85847" lon="6.77904">
        <ele>1866</ele>
        <time>2026-08-14T04:58:30.376Z</time>
      </trkpt>
      <trkpt lat="45.85847" lon="6.77904">
        <ele>1866</ele>
        <time>2026-08-14T04:58:31.376Z</time>
      </trkpt>
      <trkpt lat="45.85847" lon="6.77904">
        <ele>1866</ele>
        <time>2026-08-14T04:58:32.376Z</time>
      </trkpt>
      <trkpt lat="45.85847" lon="6.77903">
        <ele>1866</ele>
        <time>2026-08-14T04:58:33.376Z</time>
      </trkpt>
      <trkpt lat="45.85847" lon="6.77903">
        <ele>1866</ele>
        <time>2026-08-14T04:58:34.376Z</time>
      </trkpt>
      <trkpt lat="45.85847" lon="6.77903">
        <ele>1866</ele>
        <time>2026-08-14T04:58:35.376Z</time>
      </trkpt>
      <trkpt lat="45.85847" lon="6.77903">
        <ele>1866</ele>
        <time>2026-08-14T04:58:36.376Z</time>
      </trkpt>
      <trkpt lat="45.85847" lon="6.77903">
        <ele>1866</ele>
        <time>2026-08-14T04:58:37.376Z</time>
      </trkpt>
      <trkpt lat="45.85847" lon="6.77903">
        <ele>1866</ele>
        <time>2026-08-14T04:58:38.376Z</time>
      </trkpt>
      <trkpt lat="45.85847" lon="6.77903">
        <ele>1866</ele>
        <time>2026-08-14T04:58:39.376Z</time>
      </trkpt>
      <trkpt lat="45.85847" lon="6.77903">
        <ele>1866</ele>
        <time>2026-08-14T04:58:40.376Z</time>
      </trkpt>
      <trkpt lat="45.85847" lon="6.77903">
        <ele>1866</ele>
        <time>2026-08-14T04:58:41.376Z</time>
      </trkpt>
      <trkpt lat="45.85847" lon="6.77903">
        <ele>1866</ele>
        <time>2026-08-14T04:58:42.376Z</time>
      </trkpt>
      <trkpt lat="45.85847" lon="6.77903">
        <ele>1866</ele>
        <time>2026-08-14T04:58:43.376Z</time>
      </trkpt>
      <trkpt lat="45.85847" lon="6.77903">
        <ele>1866</ele>
        <time>2026-08-14T04:58:44.376Z</time>
      </trkpt>
      <trkpt lat="45.85847" lon="6.77903">
        <ele>1866</ele>
        <time>2026-08-14T04:58:45.376Z</time>
      </trkpt>
      <trkpt lat="45.85847" lon="6.77903">
        <ele>1866</ele>
        <time>2026-08-14T04:58:46.376Z</time>
      </trkpt>
      <trkpt lat="45.85847" lon="6.77903">
        <ele>1866</ele>
        <time>2026-08-14T04:58:47.376Z</time>
      </trkpt>
      <trkpt lat="45.85847" lon="6.77903">
        <ele>1866</ele>
        <time>2026-08-14T04:58:48.376Z</time>
      </trkpt>
      <trkpt lat="45.85847" lon="6.77903">
        <ele>1866</ele>
        <time>2026-08-14T04:58:49.376Z</time>
      </trkpt>
      <trkpt lat="45.85847" lon="6.77903">
        <ele>1866</ele>
        <time>2026-08-14T04:58:50.376Z</time>
      </trkpt>
      <trkpt lat="45.85847" lon="6.77903">
        <ele>1866</ele>
        <time>2026-08-14T04:58:51.376Z</time>
      </trkpt>
      <trkpt lat="45.85847" lon="6.77903">
        <ele>1866</ele>
        <time>2026-08-14T04:58:52.376Z</time>
      </trkpt>
      <trkpt lat="45.85847" lon="6.77903">
        <ele>1866</ele>
        <time>2026-08-14T04:58:53.376Z</time>
      </trkpt>
      <trkpt lat="45.85847" lon="6.77903">
        <ele>1866</ele>
        <time>2026-08-14T04:58:54.376Z</time>
      </trkpt>
      <trkpt lat="45.85847" lon="6.77903">
        <ele>1866</ele>
        <time>2026-08-14T04:58:55.376Z</time>
      </trkpt>
      <trkpt lat="45.85847" lon="6.77903">
        <ele>1866</ele>
        <time>2026-08-14T04:58:56.376Z</time>
      </trkpt>
      <trkpt lat="45.85847" lon="6.77902">
        <ele>1866</ele>
        <time>2026-08-14T04:58:57.376Z</time>
      </trkpt>
      <trkpt lat="45.85847" lon="6.77902">
        <ele>1866</ele>
        <time>2026-08-14T04:58:58.376Z</time>
      </trkpt>
      <trkpt lat="45.85847" lon="6.77902">
        <ele>1866</ele>
        <time>2026-08-14T04:58:59.376Z</time>
      </trkpt>
      <trkpt lat="45.85847" lon="6.77902">
        <ele>1866</ele>
        <time>2026-08-14T04:59:00.376Z</time>
      </trkpt>
      <trkpt lat="45.85847" lon="6.77902">
        <ele>1866</ele>
        <time>2026-08-14T04:59:01.376Z</time>
      </trkpt>
      <trkpt lat="45.85847" lon="6.77902">
        <ele>1866</ele>
        <time>2026-08-14T04:59:02.376Z</time>
      </trkpt>
      <trkpt lat="45.85847" lon="6.77902">
        <ele>1866</ele>
        <time>2026-08-14T04:59:03.376Z</time>
      </trkpt>
      <trkpt lat="45.85847" lon="6.77902">
        <ele>1866</ele>
        <time>2026-08-14T04:59:04.376Z</time>
      </trkpt>
      <trkpt lat="45.85847" lon="6.77902">
        <ele>1866</ele>
        <time>2026-08-14T04:59:05.376Z</time>
      </trkpt>
      <trkpt lat="45.85847" lon="6.77902">
        <ele>1866</ele>
        <time>2026-08-14T04:59:06.376Z</time>
      </trkpt>
      <trkpt lat="45.85847" lon="6.77902">
        <ele>1866</ele>
        <time>2026-08-14T04:59:07.376Z</time>
      </trkpt>
      <trkpt lat="45.85847" lon="6.77902">
        <ele>1866</ele>
        <time>2026-08-14T04:59:08.376Z</time>
      </trkpt>
      <trkpt lat="45.85847" lon="6.77902">
        <ele>1866</ele>
        <time>2026-08-14T04:59:09.376Z</time>
      </trkpt>
      <trkpt lat="45.85847" lon="6.77902">
        <ele>1866</ele>
        <time>2026-08-14T04:59:10.376Z</time>
      </trkpt>
      <trkpt lat="45.85847" lon="6.77902">
        <ele>1866</ele>
        <time>2026-08-14T04:59:11.376Z</time>
      </trkpt>
      <trkpt lat="45.85847" lon="6.77902">
        <ele>1866</ele>
        <time>2026-08-14T04:59:12.376Z</time>
      </trkpt>
      <trkpt lat="45.85847" lon="6.77902">
        <ele>1866</ele>
        <time>2026-08-14T04:59:13.376Z</time>
      </trkpt>
      <trkpt lat="45.85847" lon="6.77902">
        <ele>1866</ele>
        <time>2026-08-14T04:59:14.376Z</time>
      </trkpt>
      <trkpt lat="45.85847" lon="6.77902">
        <ele>1866</ele>
        <time>2026-08-14T04:59:15.376Z</time>
      </trkpt>
      <trkpt lat="45.85847" lon="6.77902">
        <ele>1866</ele>
        <time>2026-08-14T04:59:16.376Z</time>
      </trkpt>
      <trkpt lat="45.85847" lon="6.77902">
        <ele>1866</ele>
        <time>2026-08-14T04:59:17.376Z</time>
      </trkpt>
      <trkpt lat="45.85847" lon="6.77902">
        <ele>1866</ele>
        <time>2026-08-14T04:59:18.376Z</time>
      </trkpt>
      <trkpt lat="45.85847" lon="6.77902">
        <ele>1866</ele>
        <time>2026-08-14T04:59:19.376Z</time>
      </trkpt>
      <trkpt lat="45.85847" lon="6.77902">
        <ele>1866</ele>
        <time>2026-08-14T04:59:20.376Z</time>
      </trkpt>
      <trkpt lat="45.85847" lon="6.77902">
        <ele>1866</ele>
        <time>2026-08-14T04:59:21.376Z</time>
      </trkpt>
      <trkpt lat="45.85847" lon="6.77902">
        <ele>1866</ele>
        <time>2026-08-14T04:59:22.376Z</time>
      </trkpt>
      <trkpt lat="45.85847" lon="6.77902">
        <ele>1866</ele>
        <time>2026-08-14T04:59:23.376Z</time>
      </trkpt>
      <trkpt lat="45.85847" lon="6.77902">
        <ele>1866</ele>
        <time>2026-08-14T04:59:24.376Z</time>
      </trkpt>
      <trkpt lat="45.85847" lon="6.77902">
        <ele>1866</ele>
        <time>2026-08-14T04:59:25.376Z</time>
      </trkpt>
      <trkpt lat="45.85847" lon="6.77902">
        <ele>1866</ele>
        <time>2026-08-14T04:59:26.376Z</time>
      </trkpt>
      <trkpt lat="45.85847" lon="6.77902">
        <ele>1866</ele>
        <time>2026-08-14T04:59:27.376Z</time>
      </trkpt>
      <trkpt lat="45.85847" lon="6.77902">
        <ele>1866</ele>
        <time>2026-08-14T04:59:28.376Z</time>
      </trkpt>
      <trkpt lat="45.85847" lon="6.77902">
        <ele>1866</ele>
        <time>2026-08-14T04:59:29.376Z</time>
      </trkpt>
      <trkpt lat="45.85847" lon="6.77902">
        <ele>1866</ele>
        <time>2026-08-14T04:59:30.376Z</time>
      </trkpt>
      <trkpt lat="45.85847" lon="6.77902">
        <ele>1866</ele>
        <time>2026-08-14T04:59:31.376Z</time>
      </trkpt>
      <trkpt lat="45.85847" lon="6.77902">
        <ele>1866</ele>
        <time>2026-08-14T04:59:32.376Z</time>
      </trkpt>
      <trkpt lat="45.85847" lon="6.77902">
        <ele>1866</ele>
        <time>2026-08-14T04:59:33.376Z</time>
      </trkpt>
      <trkpt lat="45.85847" lon="6.77902">
        <ele>1866</ele>
        <time>2026-08-14T04:59:34.376Z</time>
      </trkpt>
      <trkpt lat="45.85847" lon="6.77902">
        <ele>1866</ele>
        <time>2026-08-14T04:59:35.376Z</time>
      </trkpt>
      <trkpt lat="45.85847" lon="6.77902">
        <ele>1866</ele>
        <time>2026-08-14T04:59:36.376Z</time>
      </trkpt>
      <trkpt lat="45.85847" lon="6.77902">
        <ele>1866</ele>
        <time>2026-08-14T04:59:37.376Z</time>
      </trkpt>
      <trkpt lat="45.85846" lon="6.779">
        <ele>1866</ele>
        <time>2026-08-14T04:59:38.376Z</time>
      </trkpt>
      <trkpt lat="45.85845" lon="6.77899">
        <ele>1866</ele>
        <time>2026-08-14T04:59:39.376Z</time>
      </trkpt>
      <trkpt lat="45.85844" lon="6.77897">
        <ele>1866</ele>
        <time>2026-08-14T04:59:40.376Z</time>
      </trkpt>
      <trkpt lat="45.85844" lon="6.77895">
        <ele>1866</ele>
        <time>2026-08-14T04:59:41.376Z</time>
      </trkpt>
      <trkpt lat="45.85844" lon="6.77893">
        <ele>1867</ele>
        <time>2026-08-14T04:59:42.376Z</time>
      </trkpt>
      <trkpt lat="45.85844" lon="6.77891">
        <ele>1867</ele>
        <time>2026-08-14T04:59:43.376Z</time>
      </trkpt>
      <trkpt lat="45.85844" lon="6.77889">
        <ele>1867</ele>
        <time>2026-08-14T04:59:44.376Z</time>
      </trkpt>
      <trkpt lat="45.85844" lon="6.77888">
        <ele>1867</ele>
        <time>2026-08-14T04:59:45.376Z</time>
      </trkpt>
      <trkpt lat="45.85843" lon="6.77886">
        <ele>1868</ele>
        <time>2026-08-14T04:59:46.376Z</time>
      </trkpt>
      <trkpt lat="45.85843" lon="6.77886">
        <ele>1868</ele>
        <time>2026-08-14T04:59:47.376Z</time>
      </trkpt>
      <trkpt lat="45.85842" lon="6.77886">
        <ele>1869</ele>
        <time>2026-08-14T04:59:48.376Z</time>
      </trkpt>
      <trkpt lat="45.85841" lon="6.77885">
        <ele>1869</ele>
        <time>2026-08-14T04:59:49.376Z</time>
      </trkpt>
      <trkpt lat="45.85841" lon="6.77885">
        <ele>1870</ele>
        <time>2026-08-14T04:59:50.376Z</time>
      </trkpt>
      <trkpt lat="45.8584" lon="6.77884">
        <ele>1870</ele>
        <time>2026-08-14T04:59:51.376Z</time>
      </trkpt>
      <trkpt lat="45.8584" lon="6.77883">
        <ele>1871</ele>
        <time>2026-08-14T04:59:52.376Z</time>
      </trkpt>
      <trkpt lat="45.85839" lon="6.77883">
        <ele>1871</ele>
        <time>2026-08-14T04:59:53.376Z</time>
      </trkpt>
      <trkpt lat="45.85838" lon="6.77882">
        <ele>1871</ele>
        <time>2026-08-14T04:59:54.376Z</time>
      </trkpt>
      <trkpt lat="45.85838" lon="6.77881">
        <ele>1871</ele>
        <time>2026-08-14T04:59:55.376Z</time>
      </trkpt>
      <trkpt lat="45.85837" lon="6.7788">
        <ele>1871</ele>
        <time>2026-08-14T04:59:56.376Z</time>
      </trkpt>
      <trkpt lat="45.85838" lon="6.77878">
        <ele>1871</ele>
        <time>2026-08-14T04:59:57.376Z</time>
      </trkpt>
      <trkpt lat="45.85838" lon="6.77877">
        <ele>1871</ele>
        <time>2026-08-14T04:59:58.376Z</time>
      </trkpt>
      <trkpt lat="45.85838" lon="6.77876">
        <ele>1871</ele>
        <time>2026-08-14T04:59:59.376Z</time>
      </trkpt>
      <trkpt lat="45.85838" lon="6.77875">
        <ele>1871</ele>
        <time>2026-08-14T05:00:00.376Z</time>
      </trkpt>
      <trkpt lat="45.85839" lon="6.77874">
        <ele>1872</ele>
        <time>2026-08-14T05:00:01.376Z</time>
      </trkpt>
      <trkpt lat="45.85838" lon="6.77874">
        <ele>1872</ele>
        <time>2026-08-14T05:00:02.376Z</time>
      </trkpt>
      <trkpt lat="45.85838" lon="6.77873">
        <ele>1873</ele>
        <time>2026-08-14T05:00:03.376Z</time>
      </trkpt>
      <trkpt lat="45.85838" lon="6.77872">
        <ele>1873</ele>
        <time>2026-08-14T05:00:04.376Z</time>
      </trkpt>
      <trkpt lat="45.85838" lon="6.77871">
        <ele>1873</ele>
        <time>2026-08-14T05:00:05.376Z</time>
      </trkpt>
      <trkpt lat="45.85837" lon="6.77871">
        <ele>1874</ele>
        <time>2026-08-14T05:00:06.376Z</time>
      </trkpt>
      <trkpt lat="45.85837" lon="6.77871">
        <ele>1873</ele>
        <time>2026-08-14T05:00:07.376Z</time>
      </trkpt>
      <trkpt lat="45.85836" lon="6.7787">
        <ele>1873</ele>
        <time>2026-08-14T05:00:08.376Z</time>
      </trkpt>
      <trkpt lat="45.85835" lon="6.77869">
        <ele>1874</ele>
        <time>2026-08-14T05:00:09.376Z</time>
      </trkpt>
      <trkpt lat="45.85834" lon="6.77868">
        <ele>1874</ele>
        <time>2026-08-14T05:00:10.376Z</time>
      </trkpt>
      <trkpt lat="45.85834" lon="6.77867">
        <ele>1874</ele>
        <time>2026-08-14T05:00:11.376Z</time>
      </trkpt>
      <trkpt lat="45.85834" lon="6.77866">
        <ele>1874</ele>
        <time>2026-08-14T05:00:12.376Z</time>
      </trkpt>
      <trkpt lat="45.85834" lon="6.77865">
        <ele>1874</ele>
        <time>2026-08-14T05:00:13.376Z</time>
      </trkpt>
      <trkpt lat="45.85834" lon="6.77864">
        <ele>1874</ele>
        <time>2026-08-14T05:00:14.376Z</time>
      </trkpt>
      <trkpt lat="45.85834" lon="6.77863">
        <ele>1874</ele>
        <time>2026-08-14T05:00:15.376Z</time>
      </trkpt>
      <trkpt lat="45.85833" lon="6.77862">
        <ele>1874</ele>
        <time>2026-08-14T05:00:16.376Z</time>
      </trkpt>
      <trkpt lat="45.85833" lon="6.77861">
        <ele>1874</ele>
        <time>2026-08-14T05:00:17.376Z</time>
      </trkpt>
      <trkpt lat="45.85833" lon="6.7786">
        <ele>1874</ele>
        <time>2026-08-14T05:00:18.376Z</time>
      </trkpt>
      <trkpt lat="45.85832" lon="6.77859">
        <ele>1875</ele>
        <time>2026-08-14T05:00:19.376Z</time>
      </trkpt>
      <trkpt lat="45.85832" lon="6.77858">
        <ele>1875</ele>
        <time>2026-08-14T05:00:20.376Z</time>
      </trkpt>
      <trkpt lat="45.85832" lon="6.77857">
        <ele>1875</ele>
        <time>2026-08-14T05:00:21.376Z</time>
      </trkpt>
      <trkpt lat="45.85831" lon="6.77857">
        <ele>1876</ele>
        <time>2026-08-14T05:00:22.376Z</time>
      </trkpt>
      <trkpt lat="45.85831" lon="6.77857">
        <ele>1876</ele>
        <time>2026-08-14T05:00:23.376Z</time>
      </trkpt>
      <trkpt lat="45.8583" lon="6.77856">
        <ele>1876</ele>
        <time>2026-08-14T05:00:24.376Z</time>
      </trkpt>
      <trkpt lat="45.85829" lon="6.77855">
        <ele>1876</ele>
        <time>2026-08-14T05:00:25.376Z</time>
      </trkpt>
      <trkpt lat="45.85828" lon="6.77855">
        <ele>1876</ele>
        <time>2026-08-14T05:00:26.376Z</time>
      </trkpt>
      <trkpt lat="45.85827" lon="6.77854">
        <ele>1876</ele>
        <time>2026-08-14T05:00:27.376Z</time>
      </trkpt>
      <trkpt lat="45.85826" lon="6.77853">
        <ele>1876</ele>
        <time>2026-08-14T05:00:28.376Z</time>
      </trkpt>
      <trkpt lat="45.85826" lon="6.77852">
        <ele>1876</ele>
        <time>2026-08-14T05:00:29.376Z</time>
      </trkpt>
      <trkpt lat="45.85826" lon="6.77851">
        <ele>1876</ele>
        <time>2026-08-14T05:00:30.376Z</time>
      </trkpt>
      <trkpt lat="45.85826" lon="6.77851">
        <ele>1877</ele>
        <time>2026-08-14T05:00:31.376Z</time>
      </trkpt>
      <trkpt lat="45.85826" lon="6.7785">
        <ele>1877</ele>
        <time>2026-08-14T05:00:32.376Z</time>
      </trkpt>
      <trkpt lat="45.85825" lon="6.7785">
        <ele>1877</ele>
        <time>2026-08-14T05:00:33.376Z</time>
      </trkpt>
      <trkpt lat="45.85825" lon="6.77849">
        <ele>1877</ele>
        <time>2026-08-14T05:00:34.376Z</time>
      </trkpt>
      <trkpt lat="45.85824" lon="6.77847">
        <ele>1878</ele>
        <time>2026-08-14T05:00:35.376Z</time>
      </trkpt>
      <trkpt lat="45.85824" lon="6.77846">
        <ele>1879</ele>
        <time>2026-08-14T05:00:36.376Z</time>
      </trkpt>
      <trkpt lat="45.85823" lon="6.77845">
        <ele>1879</ele>
        <time>2026-08-14T05:00:37.376Z</time>
      </trkpt>
      <trkpt lat="45.85822" lon="6.77845">
        <ele>1880</ele>
        <time>2026-08-14T05:00:38.376Z</time>
      </trkpt>
      <trkpt lat="45.85822" lon="6.77845">
        <ele>1880</ele>
        <time>2026-08-14T05:00:39.376Z</time>
      </trkpt>
      <trkpt lat="45.85821" lon="6.77844">
        <ele>1880</ele>
        <time>2026-08-14T05:00:40.376Z</time>
      </trkpt>
      <trkpt lat="45.8582" lon="6.77844">
        <ele>1880</ele>
        <time>2026-08-14T05:00:41.376Z</time>
      </trkpt>
      <trkpt lat="45.85819" lon="6.77843">
        <ele>1880</ele>
        <time>2026-08-14T05:00:42.376Z</time>
      </trkpt>
      <trkpt lat="45.85819" lon="6.77842">
        <ele>1880</ele>
        <time>2026-08-14T05:00:43.376Z</time>
      </trkpt>
      <trkpt lat="45.85818" lon="6.77841">
        <ele>1881</ele>
        <time>2026-08-14T05:00:44.376Z</time>
      </trkpt>
      <trkpt lat="45.85818" lon="6.7784">
        <ele>1881</ele>
        <time>2026-08-14T05:00:45.376Z</time>
      </trkpt>
      <trkpt lat="45.85817" lon="6.7784">
        <ele>1881</ele>
        <time>2026-08-14T05:00:46.376Z</time>
      </trkpt>
      <trkpt lat="45.85816" lon="6.7784">
        <ele>1881</ele>
        <time>2026-08-14T05:00:47.376Z</time>
      </trkpt>
      <trkpt lat="45.85815" lon="6.7784">
        <ele>1881</ele>
        <time>2026-08-14T05:00:48.376Z</time>
      </trkpt>
      <trkpt lat="45.85814" lon="6.7784">
        <ele>1881</ele>
        <time>2026-08-14T05:00:49.376Z</time>
      </trkpt>
      <trkpt lat="45.85813" lon="6.77839">
        <ele>1881</ele>
        <time>2026-08-14T05:00:50.376Z</time>
      </trkpt>
      <trkpt lat="45.85813" lon="6.77838">
        <ele>1881</ele>
        <time>2026-08-14T05:00:51.376Z</time>
      </trkpt>
      <trkpt lat="45.85812" lon="6.77838">
        <ele>1881</ele>
        <time>2026-08-14T05:00:52.376Z</time>
      </trkpt>
      <trkpt lat="45.85812" lon="6.77837">
        <ele>1882</ele>
        <time>2026-08-14T05:00:53.376Z</time>
      </trkpt>
      <trkpt lat="45.85811" lon="6.77837">
        <ele>1882</ele>
        <time>2026-08-14T05:00:54.376Z</time>
      </trkpt>
      <trkpt lat="45.8581" lon="6.77836">
        <ele>1882</ele>
        <time>2026-08-14T05:00:55.376Z</time>
      </trkpt>
      <trkpt lat="45.8581" lon="6.77836">
        <ele>1883</ele>
        <time>2026-08-14T05:00:56.376Z</time>
      </trkpt>
      <trkpt lat="45.85809" lon="6.77835">
        <ele>1883</ele>
        <time>2026-08-14T05:00:57.376Z</time>
      </trkpt>
      <trkpt lat="45.85809" lon="6.77835">
        <ele>1883</ele>
        <time>2026-08-14T05:00:58.376Z</time>
      </trkpt>
      <trkpt lat="45.85808" lon="6.77834">
        <ele>1884</ele>
        <time>2026-08-14T05:00:59.376Z</time>
      </trkpt>
      <trkpt lat="45.85808" lon="6.77834">
        <ele>1884</ele>
        <time>2026-08-14T05:01:00.376Z</time>
      </trkpt>
      <trkpt lat="45.85807" lon="6.77834">
        <ele>1884</ele>
        <time>2026-08-14T05:01:01.376Z</time>
      </trkpt>
      <trkpt lat="45.85807" lon="6.77834">
        <ele>1884</ele>
        <time>2026-08-14T05:01:02.376Z</time>
      </trkpt>
      <trkpt lat="45.85806" lon="6.77834">
        <ele>1885</ele>
        <time>2026-08-14T05:01:03.376Z</time>
      </trkpt>
      <trkpt lat="45.85805" lon="6.77834">
        <ele>1885</ele>
        <time>2026-08-14T05:01:04.376Z</time>
      </trkpt>
      <trkpt lat="45.85804" lon="6.77835">
        <ele>1885</ele>
        <time>2026-08-14T05:01:05.376Z</time>
      </trkpt>
      <trkpt lat="45.85803" lon="6.77835">
        <ele>1885</ele>
        <time>2026-08-14T05:01:06.376Z</time>
      </trkpt>
      <trkpt lat="45.85802" lon="6.77835">
        <ele>1885</ele>
        <time>2026-08-14T05:01:07.376Z</time>
      </trkpt>
      <trkpt lat="45.85801" lon="6.77835">
        <ele>1885</ele>
        <time>2026-08-14T05:01:08.376Z</time>
      </trkpt>
      <trkpt lat="45.858" lon="6.77835">
        <ele>1885</ele>
        <time>2026-08-14T05:01:09.376Z</time>
      </trkpt>
      <trkpt lat="45.85799" lon="6.77835">
        <ele>1885</ele>
        <time>2026-08-14T05:01:10.376Z</time>
      </trkpt>
      <trkpt lat="45.85798" lon="6.77835">
        <ele>1885</ele>
        <time>2026-08-14T05:01:11.376Z</time>
      </trkpt>
      <trkpt lat="45.85797" lon="6.77835">
        <ele>1886</ele>
        <time>2026-08-14T05:01:12.376Z</time>
      </trkpt>
      <trkpt lat="45.85797" lon="6.77835">
        <ele>1886</ele>
        <time>2026-08-14T05:01:13.376Z</time>
      </trkpt>
      <trkpt lat="45.85796" lon="6.77835">
        <ele>1886</ele>
        <time>2026-08-14T05:01:14.376Z</time>
      </trkpt>
      <trkpt lat="45.85795" lon="6.77834">
        <ele>1886</ele>
        <time>2026-08-14T05:01:15.376Z</time>
      </trkpt>
      <trkpt lat="45.85795" lon="6.77834">
        <ele>1886</ele>
        <time>2026-08-14T05:01:16.376Z</time>
      </trkpt>
      <trkpt lat="45.85794" lon="6.77833">
        <ele>1887</ele>
        <time>2026-08-14T05:01:17.376Z</time>
      </trkpt>
      <trkpt lat="45.85794" lon="6.77832">
        <ele>1887</ele>
        <time>2026-08-14T05:01:18.376Z</time>
      </trkpt>
      <trkpt lat="45.85793" lon="6.77832">
        <ele>1887</ele>
        <time>2026-08-14T05:01:19.376Z</time>
      </trkpt>
      <trkpt lat="45.85793" lon="6.77832">
        <ele>1887</ele>
        <time>2026-08-14T05:01:20.376Z</time>
      </trkpt>
      <trkpt lat="45.85792" lon="6.77831">
        <ele>1887</ele>
        <time>2026-08-14T05:01:21.376Z</time>
      </trkpt>
      <trkpt lat="45.85792" lon="6.77831">
        <ele>1888</ele>
        <time>2026-08-14T05:01:22.376Z</time>
      </trkpt>
      <trkpt lat="45.85791" lon="6.77832">
        <ele>1888</ele>
        <time>2026-08-14T05:01:23.376Z</time>
      </trkpt>
      <trkpt lat="45.85791" lon="6.77832">
        <ele>1888</ele>
        <time>2026-08-14T05:01:24.376Z</time>
      </trkpt>
      <trkpt lat="45.8579" lon="6.77833">
        <ele>1888</ele>
        <time>2026-08-14T05:01:25.376Z</time>
      </trkpt>
      <trkpt lat="45.85789" lon="6.77833">
        <ele>1888</ele>
        <time>2026-08-14T05:01:26.376Z</time>
      </trkpt>
      <trkpt lat="45.85789" lon="6.77833">
        <ele>1889</ele>
        <time>2026-08-14T05:01:27.376Z</time>
      </trkpt>
      <trkpt lat="45.85788" lon="6.77832">
        <ele>1889</ele>
        <time>2026-08-14T05:01:28.376Z</time>
      </trkpt>
      <trkpt lat="45.85788" lon="6.77832">
        <ele>1889</ele>
        <time>2026-08-14T05:01:29.376Z</time>
      </trkpt>
      <trkpt lat="45.85788" lon="6.77831">
        <ele>1890</ele>
        <time>2026-08-14T05:01:30.376Z</time>
      </trkpt>
      <trkpt lat="45.85787" lon="6.7783">
        <ele>1890</ele>
        <time>2026-08-14T05:01:31.376Z</time>
      </trkpt>
      <trkpt lat="45.85787" lon="6.7783">
        <ele>1890</ele>
        <time>2026-08-14T05:01:32.376Z</time>
      </trkpt>
      <trkpt lat="45.85787" lon="6.77829">
        <ele>1890</ele>
        <time>2026-08-14T05:01:33.376Z</time>
      </trkpt>
      <trkpt lat="45.85787" lon="6.77829">
        <ele>1891</ele>
        <time>2026-08-14T05:01:34.376Z</time>
      </trkpt>
      <trkpt lat="45.85787" lon="6.77829">
        <ele>1891</ele>
        <time>2026-08-14T05:01:35.376Z</time>
      </trkpt>
      <trkpt lat="45.85787" lon="6.77828">
        <ele>1892</ele>
        <time>2026-08-14T05:01:36.376Z</time>
      </trkpt>
      <trkpt lat="45.85787" lon="6.77828">
        <ele>1893</ele>
        <time>2026-08-14T05:01:37.376Z</time>
      </trkpt>
      <trkpt lat="45.85787" lon="6.77828">
        <ele>1893</ele>
        <time>2026-08-14T05:01:38.376Z</time>
      </trkpt>
      <trkpt lat="45.85786" lon="6.77828">
        <ele>1894</ele>
        <time>2026-08-14T05:01:39.376Z</time>
      </trkpt>
      <trkpt lat="45.85786" lon="6.77828">
        <ele>1894</ele>
        <time>2026-08-14T05:01:40.376Z</time>
      </trkpt>
      <trkpt lat="45.85785" lon="6.77828">
        <ele>1894</ele>
        <time>2026-08-14T05:01:41.376Z</time>
      </trkpt>
      <trkpt lat="45.85784" lon="6.77828">
        <ele>1894</ele>
        <time>2026-08-14T05:01:42.376Z</time>
      </trkpt>
      <trkpt lat="45.85784" lon="6.77828">
        <ele>1895</ele>
        <time>2026-08-14T05:01:43.376Z</time>
      </trkpt>
      <trkpt lat="45.85784" lon="6.77827">
        <ele>1895</ele>
        <time>2026-08-14T05:01:44.376Z</time>
      </trkpt>
      <trkpt lat="45.85784" lon="6.77827">
        <ele>1895</ele>
        <time>2026-08-14T05:01:45.376Z</time>
      </trkpt>
      <trkpt lat="45.85784" lon="6.77826">
        <ele>1896</ele>
        <time>2026-08-14T05:01:46.376Z</time>
      </trkpt>
      <trkpt lat="45.85784" lon="6.77826">
        <ele>1896</ele>
        <time>2026-08-14T05:01:47.376Z</time>
      </trkpt>
      <trkpt lat="45.85784" lon="6.77826">
        <ele>1896</ele>
        <time>2026-08-14T05:01:48.376Z</time>
      </trkpt>
      <trkpt lat="45.85783" lon="6.77826">
        <ele>1896</ele>
        <time>2026-08-14T05:01:49.376Z</time>
      </trkpt>
      <trkpt lat="45.85783" lon="6.77826">
        <ele>1896</ele>
        <time>2026-08-14T05:01:50.376Z</time>
      </trkpt>
      <trkpt lat="45.85782" lon="6.77826">
        <ele>1896</ele>
        <time>2026-08-14T05:01:51.376Z</time>
      </trkpt>
      <trkpt lat="45.85781" lon="6.77826">
        <ele>1896</ele>
        <time>2026-08-14T05:01:52.376Z</time>
      </trkpt>
      <trkpt lat="45.85781" lon="6.77826">
        <ele>1896</ele>
        <time>2026-08-14T05:01:53.376Z</time>
      </trkpt>
      <trkpt lat="45.8578" lon="6.77826">
        <ele>1896</ele>
        <time>2026-08-14T05:01:54.376Z</time>
      </trkpt>
      <trkpt lat="45.85779" lon="6.77825">
        <ele>1896</ele>
        <time>2026-08-14T05:01:55.376Z</time>
      </trkpt>
      <trkpt lat="45.85779" lon="6.77824">
        <ele>1896</ele>
        <time>2026-08-14T05:01:56.376Z</time>
      </trkpt>
      <trkpt lat="45.85778" lon="6.77824">
        <ele>1896</ele>
        <time>2026-08-14T05:01:57.376Z</time>
      </trkpt>
      <trkpt lat="45.85778" lon="6.77824">
        <ele>1896</ele>
        <time>2026-08-14T05:01:58.376Z</time>
      </trkpt>
      <trkpt lat="45.85777" lon="6.77824">
        <ele>1896</ele>
        <time>2026-08-14T05:01:59.376Z</time>
      </trkpt>
      <trkpt lat="45.85777" lon="6.77824">
        <ele>1897</ele>
        <time>2026-08-14T05:02:00.376Z</time>
      </trkpt>
      <trkpt lat="45.85776" lon="6.77824">
        <ele>1897</ele>
        <time>2026-08-14T05:02:01.376Z</time>
      </trkpt>
      <trkpt lat="45.85775" lon="6.77824">
        <ele>1897</ele>
        <time>2026-08-14T05:02:02.376Z</time>
      </trkpt>
      <trkpt lat="45.85774" lon="6.77824">
        <ele>1897</ele>
        <time>2026-08-14T05:02:03.376Z</time>
      </trkpt>
      <trkpt lat="45.85774" lon="6.77824">
        <ele>1898</ele>
        <time>2026-08-14T05:02:04.376Z</time>
      </trkpt>
      <trkpt lat="45.85773" lon="6.77823">
        <ele>1898</ele>
        <time>2026-08-14T05:02:05.376Z</time>
      </trkpt>
      <trkpt lat="45.85772" lon="6.77822">
        <ele>1898</ele>
        <time>2026-08-14T05:02:06.376Z</time>
      </trkpt>
      <trkpt lat="45.85772" lon="6.77821">
        <ele>1899</ele>
        <time>2026-08-14T05:02:07.376Z</time>
      </trkpt>
      <trkpt lat="45.85772" lon="6.77821">
        <ele>1899</ele>
        <time>2026-08-14T05:02:08.376Z</time>
      </trkpt>
      <trkpt lat="45.85772" lon="6.7782">
        <ele>1900</ele>
        <time>2026-08-14T05:02:09.376Z</time>
      </trkpt>
      <trkpt lat="45.85772" lon="6.7782">
        <ele>1900</ele>
        <time>2026-08-14T05:02:10.376Z</time>
      </trkpt>
      <trkpt lat="45.85771" lon="6.77819">
        <ele>1901</ele>
        <time>2026-08-14T05:02:11.376Z</time>
      </trkpt>
      <trkpt lat="45.85771" lon="6.77819">
        <ele>1901</ele>
        <time>2026-08-14T05:02:12.376Z</time>
      </trkpt>
      <trkpt lat="45.85771" lon="6.77818">
        <ele>1901</ele>
        <time>2026-08-14T05:02:13.376Z</time>
      </trkpt>
      <trkpt lat="45.85771" lon="6.77817">
        <ele>1901</ele>
        <time>2026-08-14T05:02:14.376Z</time>
      </trkpt>
      <trkpt lat="45.85771" lon="6.77815">
        <ele>1901</ele>
        <time>2026-08-14T05:02:15.376Z</time>
      </trkpt>
      <trkpt lat="45.85771" lon="6.77815">
        <ele>1901</ele>
        <time>2026-08-14T05:02:16.376Z</time>
      </trkpt>
      <trkpt lat="45.8577" lon="6.77813">
        <ele>1902</ele>
        <time>2026-08-14T05:02:17.376Z</time>
      </trkpt>
      <trkpt lat="45.8577" lon="6.77812">
        <ele>1902</ele>
        <time>2026-08-14T05:02:18.376Z</time>
      </trkpt>
      <trkpt lat="45.85769" lon="6.77811">
        <ele>1902</ele>
        <time>2026-08-14T05:02:19.376Z</time>
      </trkpt>
      <trkpt lat="45.85769" lon="6.77809">
        <ele>1902</ele>
        <time>2026-08-14T05:02:20.376Z</time>
      </trkpt>
      <trkpt lat="45.85769" lon="6.77808">
        <ele>1902</ele>
        <time>2026-08-14T05:02:21.376Z</time>
      </trkpt>
      <trkpt lat="45.85769" lon="6.77807">
        <ele>1902</ele>
        <time>2026-08-14T05:02:22.376Z</time>
      </trkpt>
      <trkpt lat="45.85769" lon="6.77806">
        <ele>1902</ele>
        <time>2026-08-14T05:02:23.376Z</time>
      </trkpt>
      <trkpt lat="45.85769" lon="6.77805">
        <ele>1902</ele>
        <time>2026-08-14T05:02:24.376Z</time>
      </trkpt>
      <trkpt lat="45.8577" lon="6.77803">
        <ele>1902</ele>
        <time>2026-08-14T05:02:25.376Z</time>
      </trkpt>
      <trkpt lat="45.8577" lon="6.77802">
        <ele>1902</ele>
        <time>2026-08-14T05:02:26.376Z</time>
      </trkpt>
      <trkpt lat="45.8577" lon="6.77801">
        <ele>1902</ele>
        <time>2026-08-14T05:02:27.376Z</time>
      </trkpt>
      <trkpt lat="45.8577" lon="6.77799">
        <ele>1902</ele>
        <time>2026-08-14T05:02:28.376Z</time>
      </trkpt>
      <trkpt lat="45.8577" lon="6.77798">
        <ele>1903</ele>
        <time>2026-08-14T05:02:29.376Z</time>
      </trkpt>
      <trkpt lat="45.85769" lon="6.77797">
        <ele>1903</ele>
        <time>2026-08-14T05:02:30.376Z</time>
      </trkpt>
      <trkpt lat="45.85769" lon="6.77796">
        <ele>1903</ele>
        <time>2026-08-14T05:02:31.376Z</time>
      </trkpt>
      <trkpt lat="45.85769" lon="6.77794">
        <ele>1904</ele>
        <time>2026-08-14T05:02:32.376Z</time>
      </trkpt>
      <trkpt lat="45.85769" lon="6.77793">
        <ele>1904</ele>
        <time>2026-08-14T05:02:33.376Z</time>
      </trkpt>
      <trkpt lat="45.85769" lon="6.77792">
        <ele>1905</ele>
        <time>2026-08-14T05:02:34.376Z</time>
      </trkpt>
      <trkpt lat="45.85769" lon="6.77791">
        <ele>1906</ele>
        <time>2026-08-14T05:02:35.376Z</time>
      </trkpt>
      <trkpt lat="45.85768" lon="6.77789">
        <ele>1906</ele>
        <time>2026-08-14T05:02:36.376Z</time>
      </trkpt>
      <trkpt lat="45.85768" lon="6.77788">
        <ele>1906</ele>
        <time>2026-08-14T05:02:37.376Z</time>
      </trkpt>
      <trkpt lat="45.85768" lon="6.77787">
        <ele>1907</ele>
        <time>2026-08-14T05:02:38.376Z</time>
      </trkpt>
      <trkpt lat="45.85768" lon="6.77786">
        <ele>1907</ele>
        <time>2026-08-14T05:02:39.376Z</time>
      </trkpt>
      <trkpt lat="45.85768" lon="6.77785">
        <ele>1907</ele>
        <time>2026-08-14T05:02:40.376Z</time>
      </trkpt>
      <trkpt lat="45.85768" lon="6.77784">
        <ele>1907</ele>
        <time>2026-08-14T05:02:41.376Z</time>
      </trkpt>
      <trkpt lat="45.85768" lon="6.77783">
        <ele>1907</ele>
        <time>2026-08-14T05:02:42.376Z</time>
      </trkpt>
      <trkpt lat="45.85768" lon="6.77782">
        <ele>1907</ele>
        <time>2026-08-14T05:02:43.376Z</time>
      </trkpt>
      <trkpt lat="45.85768" lon="6.77781">
        <ele>1907</ele>
        <time>2026-08-14T05:02:44.376Z</time>
      </trkpt>
      <trkpt lat="45.85767" lon="6.7778">
        <ele>1907</ele>
        <time>2026-08-14T05:02:45.376Z</time>
      </trkpt>
      <trkpt lat="45.85767" lon="6.77779">
        <ele>1907</ele>
        <time>2026-08-14T05:02:46.376Z</time>
      </trkpt>
      <trkpt lat="45.85767" lon="6.77779">
        <ele>1907</ele>
        <time>2026-08-14T05:02:47.376Z</time>
      </trkpt>
      <trkpt lat="45.85766" lon="6.77778">
        <ele>1907</ele>
        <time>2026-08-14T05:02:48.376Z</time>
      </trkpt>
      <trkpt lat="45.85766" lon="6.77777">
        <ele>1907</ele>
        <time>2026-08-14T05:02:49.376Z</time>
      </trkpt>
      <trkpt lat="45.85765" lon="6.77777">
        <ele>1907</ele>
        <time>2026-08-14T05:02:50.376Z</time>
      </trkpt>
      <trkpt lat="45.85764" lon="6.77776">
        <ele>1907</ele>
        <time>2026-08-14T05:02:51.376Z</time>
      </trkpt>
      <trkpt lat="45.85764" lon="6.77775">
        <ele>1907</ele>
        <time>2026-08-14T05:02:52.376Z</time>
      </trkpt>
      <trkpt lat="45.85763" lon="6.77775">
        <ele>1907</ele>
        <time>2026-08-14T05:02:53.376Z</time>
      </trkpt>
      <trkpt lat="45.85763" lon="6.77774">
        <ele>1907</ele>
        <time>2026-08-14T05:02:54.376Z</time>
      </trkpt>
      <trkpt lat="45.85763" lon="6.77773">
        <ele>1907</ele>
        <time>2026-08-14T05:02:55.376Z</time>
      </trkpt>
      <trkpt lat="45.85764" lon="6.77773">
        <ele>1907</ele>
        <time>2026-08-14T05:02:56.376Z</time>
      </trkpt>
      <trkpt lat="45.85764" lon="6.77772">
        <ele>1907</ele>
        <time>2026-08-14T05:02:57.376Z</time>
      </trkpt>
      <trkpt lat="45.85764" lon="6.77772">
        <ele>1907</ele>
        <time>2026-08-14T05:02:58.376Z</time>
      </trkpt>
      <trkpt lat="45.85764" lon="6.77771">
        <ele>1908</ele>
        <time>2026-08-14T05:02:59.376Z</time>
      </trkpt>
      <trkpt lat="45.85764" lon="6.7777">
        <ele>1908</ele>
        <time>2026-08-14T05:03:00.376Z</time>
      </trkpt>
      <trkpt lat="45.85763" lon="6.77769">
        <ele>1908</ele>
        <time>2026-08-14T05:03:01.376Z</time>
      </trkpt>
      <trkpt lat="45.85763" lon="6.77768">
        <ele>1909</ele>
        <time>2026-08-14T05:03:02.376Z</time>
      </trkpt>
      <trkpt lat="45.85763" lon="6.77768">
        <ele>1909</ele>
        <time>2026-08-14T05:03:03.376Z</time>
      </trkpt>
      <trkpt lat="45.85762" lon="6.77768">
        <ele>1909</ele>
        <time>2026-08-14T05:03:04.376Z</time>
      </trkpt>
      <trkpt lat="45.85761" lon="6.77767">
        <ele>1909</ele>
        <time>2026-08-14T05:03:05.376Z</time>
      </trkpt>
      <trkpt lat="45.85761" lon="6.77767">
        <ele>1910</ele>
        <time>2026-08-14T05:03:06.376Z</time>
      </trkpt>
      <trkpt lat="45.85761" lon="6.77766">
        <ele>1910</ele>
        <time>2026-08-14T05:03:07.376Z</time>
      </trkpt>
      <trkpt lat="45.85761" lon="6.77765">
        <ele>1910</ele>
        <time>2026-08-14T05:03:08.376Z</time>
      </trkpt>
      <trkpt lat="45.85761" lon="6.77764">
        <ele>1910</ele>
        <time>2026-08-14T05:03:09.376Z</time>
      </trkpt>
      <trkpt lat="45.85761" lon="6.77763">
        <ele>1910</ele>
        <time>2026-08-14T05:03:10.376Z</time>
      </trkpt>
      <trkpt lat="45.85761" lon="6.77762">
        <ele>1911</ele>
        <time>2026-08-14T05:03:11.376Z</time>
      </trkpt>
      <trkpt lat="45.85761" lon="6.77761">
        <ele>1911</ele>
        <time>2026-08-14T05:03:12.376Z</time>
      </trkpt>
      <trkpt lat="45.8576" lon="6.7776">
        <ele>1911</ele>
        <time>2026-08-14T05:03:13.376Z</time>
      </trkpt>
      <trkpt lat="45.8576" lon="6.77759">
        <ele>1911</ele>
        <time>2026-08-14T05:03:14.376Z</time>
      </trkpt>
      <trkpt lat="45.8576" lon="6.77758">
        <ele>1912</ele>
        <time>2026-08-14T05:03:15.376Z</time>
      </trkpt>
      <trkpt lat="45.8576" lon="6.77757">
        <ele>1912</ele>
        <time>2026-08-14T05:03:16.376Z</time>
      </trkpt>
      <trkpt lat="45.8576" lon="6.77756">
        <ele>1912</ele>
        <time>2026-08-14T05:03:17.376Z</time>
      </trkpt>
      <trkpt lat="45.8576" lon="6.77755">
        <ele>1912</ele>
        <time>2026-08-14T05:03:18.376Z</time>
      </trkpt>
      <trkpt lat="45.85759" lon="6.77754">
        <ele>1912</ele>
        <time>2026-08-14T05:03:19.376Z</time>
      </trkpt>
      <trkpt lat="45.85758" lon="6.77753">
        <ele>1913</ele>
        <time>2026-08-14T05:03:20.376Z</time>
      </trkpt>
      <trkpt lat="45.85758" lon="6.77752">
        <ele>1913</ele>
        <time>2026-08-14T05:03:21.376Z</time>
      </trkpt>
      <trkpt lat="45.85757" lon="6.77752">
        <ele>1914</ele>
        <time>2026-08-14T05:03:22.376Z</time>
      </trkpt>
      <trkpt lat="45.85756" lon="6.77751">
        <ele>1914</ele>
        <time>2026-08-14T05:03:23.376Z</time>
      </trkpt>
      <trkpt lat="45.85755" lon="6.77749">
        <ele>1914</ele>
        <time>2026-08-14T05:03:24.376Z</time>
      </trkpt>
      <trkpt lat="45.85755" lon="6.77748">
        <ele>1915</ele>
        <time>2026-08-14T05:03:25.376Z</time>
      </trkpt>
      <trkpt lat="45.85754" lon="6.77747">
        <ele>1915</ele>
        <time>2026-08-14T05:03:26.376Z</time>
      </trkpt>
      <trkpt lat="45.85753" lon="6.77747">
        <ele>1916</ele>
        <time>2026-08-14T05:03:27.376Z</time>
      </trkpt>
      <trkpt lat="45.85753" lon="6.77746">
        <ele>1916</ele>
        <time>2026-08-14T05:03:28.376Z</time>
      </trkpt>
      <trkpt lat="45.85752" lon="6.77744">
        <ele>1916</ele>
        <time>2026-08-14T05:03:29.377Z</time>
      </trkpt>
      <trkpt lat="45.85751" lon="6.77743">
        <ele>1916</ele>
        <time>2026-08-14T05:03:30.376Z</time>
      </trkpt>
      <trkpt lat="45.8575" lon="6.77742">
        <ele>1916</ele>
        <time>2026-08-14T05:03:31.376Z</time>
      </trkpt>
      <trkpt lat="45.8575" lon="6.77741">
        <ele>1916</ele>
        <time>2026-08-14T05:03:32.376Z</time>
      </trkpt>
      <trkpt lat="45.85748" lon="6.77741">
        <ele>1916</ele>
        <time>2026-08-14T05:03:33.376Z</time>
      </trkpt>
      <trkpt lat="45.85748" lon="6.7774">
        <ele>1917</ele>
        <time>2026-08-14T05:03:34.376Z</time>
      </trkpt>
      <trkpt lat="45.85747" lon="6.7774">
        <ele>1917</ele>
        <time>2026-08-14T05:03:35.376Z</time>
      </trkpt>
      <trkpt lat="45.85746" lon="6.77739">
        <ele>1917</ele>
        <time>2026-08-14T05:03:36.376Z</time>
      </trkpt>
      <trkpt lat="45.85745" lon="6.77739">
        <ele>1918</ele>
        <time>2026-08-14T05:03:37.376Z</time>
      </trkpt>
      <trkpt lat="45.85744" lon="6.77739">
        <ele>1918</ele>
        <time>2026-08-14T05:03:38.376Z</time>
      </trkpt>
      <trkpt lat="45.85743" lon="6.77738">
        <ele>1919</ele>
        <time>2026-08-14T05:03:39.376Z</time>
      </trkpt>
      <trkpt lat="45.85742" lon="6.77737">
        <ele>1919</ele>
        <time>2026-08-14T05:03:40.376Z</time>
      </trkpt>
      <trkpt lat="45.85741" lon="6.77737">
        <ele>1919</ele>
        <time>2026-08-14T05:03:41.376Z</time>
      </trkpt>
      <trkpt lat="45.8574" lon="6.77736">
        <ele>1919</ele>
        <time>2026-08-14T05:03:42.376Z</time>
      </trkpt>
      <trkpt lat="45.85739" lon="6.77735">
        <ele>1919</ele>
        <time>2026-08-14T05:03:43.376Z</time>
      </trkpt>
      <trkpt lat="45.85738" lon="6.77734">
        <ele>1919</ele>
        <time>2026-08-14T05:03:44.376Z</time>
      </trkpt>
      <trkpt lat="45.85738" lon="6.77733">
        <ele>1919</ele>
        <time>2026-08-14T05:03:45.376Z</time>
      </trkpt>
      <trkpt lat="45.85738" lon="6.77732">
        <ele>1919</ele>
        <time>2026-08-14T05:03:46.376Z</time>
      </trkpt>
      <trkpt lat="45.85737" lon="6.77731">
        <ele>1919</ele>
        <time>2026-08-14T05:03:47.376Z</time>
      </trkpt>
      <trkpt lat="45.85737" lon="6.77731">
        <ele>1919</ele>
        <time>2026-08-14T05:03:48.376Z</time>
      </trkpt>
      <trkpt lat="45.85736" lon="6.7773">
        <ele>1920</ele>
        <time>2026-08-14T05:03:49.376Z</time>
      </trkpt>
      <trkpt lat="45.85735" lon="6.7773">
        <ele>1920</ele>
        <time>2026-08-14T05:03:50.376Z</time>
      </trkpt>
      <trkpt lat="45.85735" lon="6.77729">
        <ele>1921</ele>
        <time>2026-08-14T05:03:51.376Z</time>
      </trkpt>
      <trkpt lat="45.85735" lon="6.77727">
        <ele>1921</ele>
        <time>2026-08-14T05:03:52.376Z</time>
      </trkpt>
      <trkpt lat="45.85735" lon="6.77726">
        <ele>1921</ele>
        <time>2026-08-14T05:03:53.376Z</time>
      </trkpt>
      <trkpt lat="45.85734" lon="6.77725">
        <ele>1921</ele>
        <time>2026-08-14T05:03:54.376Z</time>
      </trkpt>
      <trkpt lat="45.85734" lon="6.77724">
        <ele>1921</ele>
        <time>2026-08-14T05:03:55.376Z</time>
      </trkpt>
      <trkpt lat="45.85733" lon="6.77724">
        <ele>1921</ele>
        <time>2026-08-14T05:03:56.376Z</time>
      </trkpt>
      <trkpt lat="45.85731" lon="6.77723">
        <ele>1921</ele>
        <time>2026-08-14T05:03:57.376Z</time>
      </trkpt>
      <trkpt lat="45.8573" lon="6.77723">
        <ele>1921</ele>
        <time>2026-08-14T05:03:58.376Z</time>
      </trkpt>
      <trkpt lat="45.85729" lon="6.77723">
        <ele>1922</ele>
        <time>2026-08-14T05:03:59.376Z</time>
      </trkpt>
      <trkpt lat="45.85728" lon="6.77722">
        <ele>1922</ele>
        <time>2026-08-14T05:04:00.376Z</time>
      </trkpt>
      <trkpt lat="45.85727" lon="6.77723">
        <ele>1922</ele>
        <time>2026-08-14T05:04:01.376Z</time>
      </trkpt>
      <trkpt lat="45.85726" lon="6.77722">
        <ele>1922</ele>
        <time>2026-08-14T05:04:02.376Z</time>
      </trkpt>
      <trkpt lat="45.85725" lon="6.77722">
        <ele>1923</ele>
        <time>2026-08-14T05:04:03.376Z</time>
      </trkpt>
      <trkpt lat="45.85724" lon="6.77722">
        <ele>1923</ele>
        <time>2026-08-14T05:04:04.376Z</time>
      </trkpt>
      <trkpt lat="45.85723" lon="6.77721">
        <ele>1923</ele>
        <time>2026-08-14T05:04:05.376Z</time>
      </trkpt>
      <trkpt lat="45.85722" lon="6.7772">
        <ele>1923</ele>
        <time>2026-08-14T05:04:06.376Z</time>
      </trkpt>
      <trkpt lat="45.85721" lon="6.77718">
        <ele>1923</ele>
        <time>2026-08-14T05:04:07.376Z</time>
      </trkpt>
      <trkpt lat="45.85721" lon="6.77717">
        <ele>1923</ele>
        <time>2026-08-14T05:04:08.376Z</time>
      </trkpt>
      <trkpt lat="45.85721" lon="6.77716">
        <ele>1924</ele>
        <time>2026-08-14T05:04:09.376Z</time>
      </trkpt>
      <trkpt lat="45.85721" lon="6.77715">
        <ele>1924</ele>
        <time>2026-08-14T05:04:10.376Z</time>
      </trkpt>
      <trkpt lat="45.8572" lon="6.77714">
        <ele>1925</ele>
        <time>2026-08-14T05:04:11.376Z</time>
      </trkpt>
      <trkpt lat="45.85719" lon="6.77713">
        <ele>1925</ele>
        <time>2026-08-14T05:04:12.376Z</time>
      </trkpt>
      <trkpt lat="45.85719" lon="6.77712">
        <ele>1925</ele>
        <time>2026-08-14T05:04:13.376Z</time>
      </trkpt>
      <trkpt lat="45.85717" lon="6.77711">
        <ele>1925</ele>
        <time>2026-08-14T05:04:14.376Z</time>
      </trkpt>
      <trkpt lat="45.85716" lon="6.7771">
        <ele>1925</ele>
        <time>2026-08-14T05:04:15.376Z</time>
      </trkpt>
      <trkpt lat="45.85715" lon="6.77709">
        <ele>1925</ele>
        <time>2026-08-14T05:04:16.376Z</time>
      </trkpt>
      <trkpt lat="45.85714" lon="6.77708">
        <ele>1925</ele>
        <time>2026-08-14T05:04:17.376Z</time>
      </trkpt>
      <trkpt lat="45.85713" lon="6.77708">
        <ele>1925</ele>
        <time>2026-08-14T05:04:18.376Z</time>
      </trkpt>
      <trkpt lat="45.85712" lon="6.77707">
        <ele>1926</ele>
        <time>2026-08-14T05:04:19.376Z</time>
      </trkpt>
      <trkpt lat="45.8571" lon="6.77705">
        <ele>1926</ele>
        <time>2026-08-14T05:04:20.376Z</time>
      </trkpt>
      <trkpt lat="45.85709" lon="6.77703">
        <ele>1927</ele>
        <time>2026-08-14T05:04:21.376Z</time>
      </trkpt>
      <trkpt lat="45.85708" lon="6.77702">
        <ele>1927</ele>
        <time>2026-08-14T05:04:22.376Z</time>
      </trkpt>
      <trkpt lat="45.85707" lon="6.777">
        <ele>1927</ele>
        <time>2026-08-14T05:04:23.376Z</time>
      </trkpt>
      <trkpt lat="45.85705" lon="6.77698">
        <ele>1927</ele>
        <time>2026-08-14T05:04:24.376Z</time>
      </trkpt>
      <trkpt lat="45.85705" lon="6.77696">
        <ele>1928</ele>
        <time>2026-08-14T05:04:25.376Z</time>
      </trkpt>
      <trkpt lat="45.85705" lon="6.77693">
        <ele>1928</ele>
        <time>2026-08-14T05:04:26.376Z</time>
      </trkpt>
      <trkpt lat="45.85704" lon="6.77691">
        <ele>1928</ele>
        <time>2026-08-14T05:04:27.376Z</time>
      </trkpt>
      <trkpt lat="45.85703" lon="6.77689">
        <ele>1928</ele>
        <time>2026-08-14T05:04:28.376Z</time>
      </trkpt>
      <trkpt lat="45.85703" lon="6.77687">
        <ele>1928</ele>
        <time>2026-08-14T05:04:29.376Z</time>
      </trkpt>
      <trkpt lat="45.85702" lon="6.77685">
        <ele>1928</ele>
        <time>2026-08-14T05:04:30.376Z</time>
      </trkpt>
      <trkpt lat="45.85701" lon="6.77683">
        <ele>1927</ele>
        <time>2026-08-14T05:04:31.376Z</time>
      </trkpt>
      <trkpt lat="45.85701" lon="6.77681">
        <ele>1927</ele>
        <time>2026-08-14T05:04:32.376Z</time>
      </trkpt>
      <trkpt lat="45.857" lon="6.7768">
        <ele>1927</ele>
        <time>2026-08-14T05:04:33.376Z</time>
      </trkpt>
      <trkpt lat="45.857" lon="6.77678">
        <ele>1928</ele>
        <time>2026-08-14T05:04:34.376Z</time>
      </trkpt>
      <trkpt lat="45.85699" lon="6.77676">
        <ele>1928</ele>
        <time>2026-08-14T05:04:35.376Z</time>
      </trkpt>
      <trkpt lat="45.85699" lon="6.77675">
        <ele>1929</ele>
        <time>2026-08-14T05:04:36.376Z</time>
      </trkpt>
      <trkpt lat="45.85699" lon="6.77673">
        <ele>1929</ele>
        <time>2026-08-14T05:04:37.376Z</time>
      </trkpt>
      <trkpt lat="45.85699" lon="6.77671">
        <ele>1930</ele>
        <time>2026-08-14T05:04:38.376Z</time>
      </trkpt>
      <trkpt lat="45.85698" lon="6.7767">
        <ele>1930</ele>
        <time>2026-08-14T05:04:39.376Z</time>
      </trkpt>
      <trkpt lat="45.85698" lon="6.77668">
        <ele>1931</ele>
        <time>2026-08-14T05:04:40.376Z</time>
      </trkpt>
      <trkpt lat="45.85699" lon="6.77667">
        <ele>1931</ele>
        <time>2026-08-14T05:04:41.376Z</time>
      </trkpt>
      <trkpt lat="45.85699" lon="6.77665">
        <ele>1931</ele>
        <time>2026-08-14T05:04:42.376Z</time>
      </trkpt>
      <trkpt lat="45.85699" lon="6.77664">
        <ele>1931</ele>
        <time>2026-08-14T05:04:43.376Z</time>
      </trkpt>
      <trkpt lat="45.85699" lon="6.77662">
        <ele>1931</ele>
        <time>2026-08-14T05:04:44.376Z</time>
      </trkpt>
      <trkpt lat="45.85699" lon="6.77661">
        <ele>1932</ele>
        <time>2026-08-14T05:04:45.376Z</time>
      </trkpt>
      <trkpt lat="45.85698" lon="6.77659">
        <ele>1932</ele>
        <time>2026-08-14T05:04:46.376Z</time>
      </trkpt>
      <trkpt lat="45.85698" lon="6.77658">
        <ele>1932</ele>
        <time>2026-08-14T05:04:47.376Z</time>
      </trkpt>
      <trkpt lat="45.85697" lon="6.77657">
        <ele>1932</ele>
        <time>2026-08-14T05:04:48.376Z</time>
      </trkpt>
      <trkpt lat="45.85696" lon="6.77656">
        <ele>1933</ele>
        <time>2026-08-14T05:04:49.376Z</time>
      </trkpt>
      <trkpt lat="45.85695" lon="6.77655">
        <ele>1933</ele>
        <time>2026-08-14T05:04:50.376Z</time>
      </trkpt>
      <trkpt lat="45.85695" lon="6.77654">
        <ele>1933</ele>
        <time>2026-08-14T05:04:51.376Z</time>
      </trkpt>
      <trkpt lat="45.85694" lon="6.77654">
        <ele>1933</ele>
        <time>2026-08-14T05:04:52.376Z</time>
      </trkpt>
      <trkpt lat="45.85693" lon="6.77654">
        <ele>1933</ele>
        <time>2026-08-14T05:04:53.376Z</time>
      </trkpt>
      <trkpt lat="45.85692" lon="6.77654">
        <ele>1933</ele>
        <time>2026-08-14T05:04:54.376Z</time>
      </trkpt>
      <trkpt lat="45.85691" lon="6.77653">
        <ele>1934</ele>
        <time>2026-08-14T05:04:55.376Z</time>
      </trkpt>
      <trkpt lat="45.8569" lon="6.77652">
        <ele>1934</ele>
        <time>2026-08-14T05:04:56.376Z</time>
      </trkpt>
      <trkpt lat="45.85689" lon="6.77651">
        <ele>1934</ele>
        <time>2026-08-14T05:04:57.376Z</time>
      </trkpt>
      <trkpt lat="45.85689" lon="6.77649">
        <ele>1934</ele>
        <time>2026-08-14T05:04:58.376Z</time>
      </trkpt>
      <trkpt lat="45.85688" lon="6.77648">
        <ele>1934</ele>
        <time>2026-08-14T05:04:59.376Z</time>
      </trkpt>
      <trkpt lat="45.85688" lon="6.77646">
        <ele>1934</ele>
        <time>2026-08-14T05:05:00.376Z</time>
      </trkpt>
      <trkpt lat="45.85687" lon="6.77645">
        <ele>1934</ele>
        <time>2026-08-14T05:05:01.376Z</time>
      </trkpt>
      <trkpt lat="45.85686" lon="6.77644">
        <ele>1934</ele>
        <time>2026-08-14T05:05:02.376Z</time>
      </trkpt>
      <trkpt lat="45.85685" lon="6.77643">
        <ele>1934</ele>
        <time>2026-08-14T05:05:03.376Z</time>
      </trkpt>
      <trkpt lat="45.85684" lon="6.77643">
        <ele>1934</ele>
        <time>2026-08-14T05:05:04.376Z</time>
      </trkpt>
      <trkpt lat="45.85683" lon="6.77643">
        <ele>1934</ele>
        <time>2026-08-14T05:05:05.376Z</time>
      </trkpt>
      <trkpt lat="45.85682" lon="6.77643">
        <ele>1934</ele>
        <time>2026-08-14T05:05:06.376Z</time>
      </trkpt>
      <trkpt lat="45.85681" lon="6.77644">
        <ele>1934</ele>
        <time>2026-08-14T05:05:07.376Z</time>
      </trkpt>
      <trkpt lat="45.8568" lon="6.77644">
        <ele>1934</ele>
        <time>2026-08-14T05:05:08.376Z</time>
      </trkpt>
      <trkpt lat="45.85679" lon="6.77643">
        <ele>1934</ele>
        <time>2026-08-14T05:05:09.376Z</time>
      </trkpt>
      <trkpt lat="45.85678" lon="6.77642">
        <ele>1934</ele>
        <time>2026-08-14T05:05:10.376Z</time>
      </trkpt>
      <trkpt lat="45.85678" lon="6.77642">
        <ele>1935</ele>
        <time>2026-08-14T05:05:11.376Z</time>
      </trkpt>
      <trkpt lat="45.85677" lon="6.77641">
        <ele>1935</ele>
        <time>2026-08-14T05:05:12.376Z</time>
      </trkpt>
      <trkpt lat="45.85676" lon="6.77641">
        <ele>1936</ele>
        <time>2026-08-14T05:05:13.376Z</time>
      </trkpt>
      <trkpt lat="45.85675" lon="6.77641">
        <ele>1936</ele>
        <time>2026-08-14T05:05:14.376Z</time>
      </trkpt>
      <trkpt lat="45.85674" lon="6.77641">
        <ele>1937</ele>
        <time>2026-08-14T05:05:15.376Z</time>
      </trkpt>
      <trkpt lat="45.85673" lon="6.77641">
        <ele>1937</ele>
        <time>2026-08-14T05:05:16.376Z</time>
      </trkpt>
      <trkpt lat="45.85673" lon="6.77641">
        <ele>1938</ele>
        <time>2026-08-14T05:05:17.376Z</time>
      </trkpt>
      <trkpt lat="45.85672" lon="6.7764">
        <ele>1938</ele>
        <time>2026-08-14T05:05:18.376Z</time>
      </trkpt>
      <trkpt lat="45.85671" lon="6.77639">
        <ele>1938</ele>
        <time>2026-08-14T05:05:19.376Z</time>
      </trkpt>
      <trkpt lat="45.8567" lon="6.77638">
        <ele>1939</ele>
        <time>2026-08-14T05:05:20.376Z</time>
      </trkpt>
      <trkpt lat="45.85669" lon="6.77638">
        <ele>1939</ele>
        <time>2026-08-14T05:05:21.376Z</time>
      </trkpt>
      <trkpt lat="45.85668" lon="6.77637">
        <ele>1940</ele>
        <time>2026-08-14T05:05:22.376Z</time>
      </trkpt>
      <trkpt lat="45.85667" lon="6.77637">
        <ele>1941</ele>
        <time>2026-08-14T05:05:23.376Z</time>
      </trkpt>
      <trkpt lat="45.85666" lon="6.77636">
        <ele>1941</ele>
        <time>2026-08-14T05:05:24.376Z</time>
      </trkpt>
      <trkpt lat="45.85664" lon="6.77635">
        <ele>1941</ele>
        <time>2026-08-14T05:05:25.376Z</time>
      </trkpt>
      <trkpt lat="45.85663" lon="6.77634">
        <ele>1941</ele>
        <time>2026-08-14T05:05:26.376Z</time>
      </trkpt>
      <trkpt lat="45.85662" lon="6.77632">
        <ele>1942</ele>
        <time>2026-08-14T05:05:27.376Z</time>
      </trkpt>
      <trkpt lat="45.85661" lon="6.7763">
        <ele>1942</ele>
        <time>2026-08-14T05:05:28.376Z</time>
      </trkpt>
      <trkpt lat="45.8566" lon="6.77629">
        <ele>1942</ele>
        <time>2026-08-14T05:05:29.376Z</time>
      </trkpt>
      <trkpt lat="45.85659" lon="6.77627">
        <ele>1942</ele>
        <time>2026-08-14T05:05:30.376Z</time>
      </trkpt>
      <trkpt lat="45.85658" lon="6.77625">
        <ele>1941</ele>
        <time>2026-08-14T05:05:31.376Z</time>
      </trkpt>
      <trkpt lat="45.85657" lon="6.77623">
        <ele>1941</ele>
        <time>2026-08-14T05:05:32.376Z</time>
      </trkpt>
      <trkpt lat="45.85656" lon="6.77622">
        <ele>1941</ele>
        <time>2026-08-14T05:05:33.376Z</time>
      </trkpt>
      <trkpt lat="45.85655" lon="6.7762">
        <ele>1941</ele>
        <time>2026-08-14T05:05:34.376Z</time>
      </trkpt>
      <trkpt lat="45.85654" lon="6.77619">
        <ele>1941</ele>
        <time>2026-08-14T05:05:35.376Z</time>
      </trkpt>
      <trkpt lat="45.85653" lon="6.77617">
        <ele>1941</ele>
        <time>2026-08-14T05:05:36.376Z</time>
      </trkpt>
      <trkpt lat="45.85652" lon="6.77616">
        <ele>1942</ele>
        <time>2026-08-14T05:05:37.376Z</time>
      </trkpt>
      <trkpt lat="45.85651" lon="6.77614">
        <ele>1942</ele>
        <time>2026-08-14T05:05:38.376Z</time>
      </trkpt>
      <trkpt lat="45.8565" lon="6.77612">
        <ele>1942</ele>
        <time>2026-08-14T05:05:39.376Z</time>
      </trkpt>
      <trkpt lat="45.85649" lon="6.77611">
        <ele>1942</ele>
        <time>2026-08-14T05:05:40.376Z</time>
      </trkpt>
      <trkpt lat="45.85648" lon="6.7761">
        <ele>1942</ele>
        <time>2026-08-14T05:05:41.376Z</time>
      </trkpt>
      <trkpt lat="45.85648" lon="6.77609">
        <ele>1942</ele>
        <time>2026-08-14T05:05:42.376Z</time>
      </trkpt>
      <trkpt lat="45.85647" lon="6.77608">
        <ele>1943</ele>
        <time>2026-08-14T05:05:43.376Z</time>
      </trkpt>
      <trkpt lat="45.85645" lon="6.77606">
        <ele>1943</ele>
        <time>2026-08-14T05:05:44.376Z</time>
      </trkpt>
      <trkpt lat="45.85644" lon="6.77605">
        <ele>1944</ele>
        <time>2026-08-14T05:05:45.376Z</time>
      </trkpt>
      <trkpt lat="45.85643" lon="6.77604">
        <ele>1944</ele>
        <time>2026-08-14T05:05:46.376Z</time>
      </trkpt>
      <trkpt lat="45.85642" lon="6.77603">
        <ele>1944</ele>
        <time>2026-08-14T05:05:47.376Z</time>
      </trkpt>
      <trkpt lat="45.85641" lon="6.77602">
        <ele>1945</ele>
        <time>2026-08-14T05:05:48.376Z</time>
      </trkpt>
      <trkpt lat="45.8564" lon="6.776">
        <ele>1945</ele>
        <time>2026-08-14T05:05:49.376Z</time>
      </trkpt>
      <trkpt lat="45.85639" lon="6.77599">
        <ele>1946</ele>
        <time>2026-08-14T05:05:50.376Z</time>
      </trkpt>
      <trkpt lat="45.85639" lon="6.77598">
        <ele>1946</ele>
        <time>2026-08-14T05:05:51.376Z</time>
      </trkpt>
      <trkpt lat="45.85638" lon="6.77597">
        <ele>1946</ele>
        <time>2026-08-14T05:05:52.376Z</time>
      </trkpt>
      <trkpt lat="45.85637" lon="6.77596">
        <ele>1946</ele>
        <time>2026-08-14T05:05:53.376Z</time>
      </trkpt>
      <trkpt lat="45.85636" lon="6.77594">
        <ele>1946</ele>
        <time>2026-08-14T05:05:54.376Z</time>
      </trkpt>
      <trkpt lat="45.85635" lon="6.77593">
        <ele>1947</ele>
        <time>2026-08-14T05:05:55.376Z</time>
      </trkpt>
      <trkpt lat="45.85634" lon="6.77593">
        <ele>1947</ele>
        <time>2026-08-14T05:05:56.376Z</time>
      </trkpt>
      <trkpt lat="45.85633" lon="6.77592">
        <ele>1948</ele>
        <time>2026-08-14T05:05:57.376Z</time>
      </trkpt>
      <trkpt lat="45.85633" lon="6.77591">
        <ele>1948</ele>
        <time>2026-08-14T05:05:58.376Z</time>
      </trkpt>
      <trkpt lat="45.85632" lon="6.7759">
        <ele>1948</ele>
        <time>2026-08-14T05:05:59.376Z</time>
      </trkpt>
      <trkpt lat="45.85632" lon="6.77588">
        <ele>1948</ele>
        <time>2026-08-14T05:06:00.376Z</time>
      </trkpt>
      <trkpt lat="45.85631" lon="6.77587">
        <ele>1947</ele>
        <time>2026-08-14T05:06:01.376Z</time>
      </trkpt>
      <trkpt lat="45.85631" lon="6.77586">
        <ele>1948</ele>
        <time>2026-08-14T05:06:02.376Z</time>
      </trkpt>
      <trkpt lat="45.8563" lon="6.77584">
        <ele>1948</ele>
        <time>2026-08-14T05:06:03.376Z</time>
      </trkpt>
      <trkpt lat="45.8563" lon="6.77583">
        <ele>1949</ele>
        <time>2026-08-14T05:06:04.376Z</time>
      </trkpt>
      <trkpt lat="45.85629" lon="6.77582">
        <ele>1949</ele>
        <time>2026-08-14T05:06:05.376Z</time>
      </trkpt>
      <trkpt lat="45.85629" lon="6.77581">
        <ele>1950</ele>
        <time>2026-08-14T05:06:06.376Z</time>
      </trkpt>
      <trkpt lat="45.85628" lon="6.77581">
        <ele>1950</ele>
        <time>2026-08-14T05:06:07.376Z</time>
      </trkpt>
      <trkpt lat="45.85628" lon="6.7758">
        <ele>1950</ele>
        <time>2026-08-14T05:06:08.376Z</time>
      </trkpt>
      <trkpt lat="45.85628" lon="6.77579">
        <ele>1951</ele>
        <time>2026-08-14T05:06:09.376Z</time>
      </trkpt>
      <trkpt lat="45.85627" lon="6.77578">
        <ele>1951</ele>
        <time>2026-08-14T05:06:10.376Z</time>
      </trkpt>
      <trkpt lat="45.85627" lon="6.77576">
        <ele>1951</ele>
        <time>2026-08-14T05:06:11.376Z</time>
      </trkpt>
      <trkpt lat="45.85627" lon="6.77575">
        <ele>1952</ele>
        <time>2026-08-14T05:06:12.376Z</time>
      </trkpt>
      <trkpt lat="45.85627" lon="6.77573">
        <ele>1952</ele>
        <time>2026-08-14T05:06:13.376Z</time>
      </trkpt>
      <trkpt lat="45.85627" lon="6.77572">
        <ele>1952</ele>
        <time>2026-08-14T05:06:14.376Z</time>
      </trkpt>
      <trkpt lat="45.85627" lon="6.77571">
        <ele>1953</ele>
        <time>2026-08-14T05:06:15.376Z</time>
      </trkpt>
      <trkpt lat="45.85627" lon="6.77569">
        <ele>1953</ele>
        <time>2026-08-14T05:06:16.376Z</time>
      </trkpt>
      <trkpt lat="45.85626" lon="6.77568">
        <ele>1953</ele>
        <time>2026-08-14T05:06:17.376Z</time>
      </trkpt>
      <trkpt lat="45.85626" lon="6.77567">
        <ele>1953</ele>
        <time>2026-08-14T05:06:18.376Z</time>
      </trkpt>
      <trkpt lat="45.85625" lon="6.77566">
        <ele>1953</ele>
        <time>2026-08-14T05:06:19.376Z</time>
      </trkpt>
      <trkpt lat="45.85625" lon="6.77565">
        <ele>1953</ele>
        <time>2026-08-14T05:06:20.376Z</time>
      </trkpt>
      <trkpt lat="45.85625" lon="6.77564">
        <ele>1953</ele>
        <time>2026-08-14T05:06:21.376Z</time>
      </trkpt>
      <trkpt lat="45.85625" lon="6.77564">
        <ele>1953</ele>
        <time>2026-08-14T05:06:22.376Z</time>
      </trkpt>
      <trkpt lat="45.85625" lon="6.77563">
        <ele>1954</ele>
        <time>2026-08-14T05:06:23.376Z</time>
      </trkpt>
      <trkpt lat="45.85625" lon="6.77561">
        <ele>1954</ele>
        <time>2026-08-14T05:06:24.376Z</time>
      </trkpt>
      <trkpt lat="45.85625" lon="6.7756">
        <ele>1955</ele>
        <time>2026-08-14T05:06:25.376Z</time>
      </trkpt>
      <trkpt lat="45.85624" lon="6.77559">
        <ele>1955</ele>
        <time>2026-08-14T05:06:26.376Z</time>
      </trkpt>
      <trkpt lat="45.85624" lon="6.77558">
        <ele>1956</ele>
        <time>2026-08-14T05:06:27.376Z</time>
      </trkpt>
      <trkpt lat="45.85624" lon="6.77557">
        <ele>1956</ele>
        <time>2026-08-14T05:06:28.376Z</time>
      </trkpt>
      <trkpt lat="45.85624" lon="6.77556">
        <ele>1956</ele>
        <time>2026-08-14T05:06:29.376Z</time>
      </trkpt>
      <trkpt lat="45.85624" lon="6.77555">
        <ele>1956</ele>
        <time>2026-08-14T05:06:30.376Z</time>
      </trkpt>
      <trkpt lat="45.85623" lon="6.77554">
        <ele>1955</ele>
        <time>2026-08-14T05:06:31.376Z</time>
      </trkpt>
      <trkpt lat="45.85623" lon="6.77553">
        <ele>1955</ele>
        <time>2026-08-14T05:06:32.376Z</time>
      </trkpt>
      <trkpt lat="45.85624" lon="6.77552">
        <ele>1956</ele>
        <time>2026-08-14T05:06:33.376Z</time>
      </trkpt>
      <trkpt lat="45.85624" lon="6.77551">
        <ele>1956</ele>
        <time>2026-08-14T05:06:34.376Z</time>
      </trkpt>
      <trkpt lat="45.85625" lon="6.77551">
        <ele>1956</ele>
        <time>2026-08-14T05:06:35.376Z</time>
      </trkpt>
      <trkpt lat="45.85625" lon="6.77551">
        <ele>1956</ele>
        <time>2026-08-14T05:06:36.376Z</time>
      </trkpt>
      <trkpt lat="45.85626" lon="6.7755">
        <ele>1957</ele>
        <time>2026-08-14T05:06:37.376Z</time>
      </trkpt>
      <trkpt lat="45.85627" lon="6.7755">
        <ele>1957</ele>
        <time>2026-08-14T05:06:38.376Z</time>
      </trkpt>
      <trkpt lat="45.85627" lon="6.7755">
        <ele>1957</ele>
        <time>2026-08-14T05:06:39.376Z</time>
      </trkpt>
      <trkpt lat="45.85627" lon="6.7755">
        <ele>1958</ele>
        <time>2026-08-14T05:06:40.376Z</time>
      </trkpt>
      <trkpt lat="45.85627" lon="6.7755">
        <ele>1958</ele>
        <time>2026-08-14T05:06:41.376Z</time>
      </trkpt>
      <trkpt lat="45.85627" lon="6.7755">
        <ele>1958</ele>
        <time>2026-08-14T05:06:42.376Z</time>
      </trkpt>
      <trkpt lat="45.85627" lon="6.7755">
        <ele>1958</ele>
        <time>2026-08-14T05:06:43.376Z</time>
      </trkpt>
      <trkpt lat="45.85627" lon="6.7755">
        <ele>1958</ele>
        <time>2026-08-14T05:06:44.376Z</time>
      </trkpt>
      <trkpt lat="45.85627" lon="6.7755">
        <ele>1958</ele>
        <time>2026-08-14T05:06:45.376Z</time>
      </trkpt>
      <trkpt lat="45.85627" lon="6.7755">
        <ele>1957</ele>
        <time>2026-08-14T05:06:46.376Z</time>
      </trkpt>
      <trkpt lat="45.85627" lon="6.7755">
        <ele>1957</ele>
        <time>2026-08-14T05:06:47.376Z</time>
      </trkpt>
      <trkpt lat="45.85627" lon="6.7755">
        <ele>1957</ele>
        <time>2026-08-14T05:06:48.376Z</time>
      </trkpt>
      <trkpt lat="45.85627" lon="6.7755">
        <ele>1957</ele>
        <time>2026-08-14T05:06:49.376Z</time>
      </trkpt>
      <trkpt lat="45.85627" lon="6.7755">
        <ele>1957</ele>
        <time>2026-08-14T05:06:50.376Z</time>
      </trkpt>
      <trkpt lat="45.85627" lon="6.7755">
        <ele>1957</ele>
        <time>2026-08-14T05:06:51.376Z</time>
      </trkpt>
      <trkpt lat="45.85627" lon="6.7755">
        <ele>1957</ele>
        <time>2026-08-14T05:06:52.376Z</time>
      </trkpt>
      <trkpt lat="45.85627" lon="6.7755">
        <ele>1957</ele>
        <time>2026-08-14T05:06:53.376Z</time>
      </trkpt>
      <trkpt lat="45.85627" lon="6.7755">
        <ele>1957</ele>
        <time>2026-08-14T05:06:54.376Z</time>
      </trkpt>
      <trkpt lat="45.85629" lon="6.77549">
        <ele>1957</ele>
        <time>2026-08-14T05:06:55.376Z</time>
      </trkpt>
      <trkpt lat="45.8563" lon="6.77548">
        <ele>1957</ele>
        <time>2026-08-14T05:06:56.376Z</time>
      </trkpt>
      <trkpt lat="45.85632" lon="6.77547">
        <ele>1957</ele>
        <time>2026-08-14T05:06:57.376Z</time>
      </trkpt>
      <trkpt lat="45.85633" lon="6.77547">
        <ele>1957</ele>
        <time>2026-08-14T05:06:58.376Z</time>
      </trkpt>
      <trkpt lat="45.85635" lon="6.77546">
        <ele>1957</ele>
        <time>2026-08-14T05:06:59.376Z</time>
      </trkpt>
      <trkpt lat="45.85637" lon="6.77545">
        <ele>1957</ele>
        <time>2026-08-14T05:07:00.376Z</time>
      </trkpt>
      <trkpt lat="45.85639" lon="6.77544">
        <ele>1957</ele>
        <time>2026-08-14T05:07:01.376Z</time>
      </trkpt>
      <trkpt lat="45.8564" lon="6.77543">
        <ele>1958</ele>
        <time>2026-08-14T05:07:02.376Z</time>
      </trkpt>
      <trkpt lat="45.85642" lon="6.77543">
        <ele>1958</ele>
        <time>2026-08-14T05:07:03.376Z</time>
      </trkpt>
      <trkpt lat="45.85644" lon="6.77542">
        <ele>1958</ele>
        <time>2026-08-14T05:07:04.376Z</time>
      </trkpt>
      <trkpt lat="45.85645" lon="6.77542">
        <ele>1958</ele>
        <time>2026-08-14T05:07:05.376Z</time>
      </trkpt>
      <trkpt lat="45.85646" lon="6.77541">
        <ele>1958</ele>
        <time>2026-08-14T05:07:06.376Z</time>
      </trkpt>
      <trkpt lat="45.85648" lon="6.7754">
        <ele>1959</ele>
        <time>2026-08-14T05:07:07.376Z</time>
      </trkpt>
      <trkpt lat="45.85649" lon="6.7754">
        <ele>1959</ele>
        <time>2026-08-14T05:07:08.376Z</time>
      </trkpt>
      <trkpt lat="45.85651" lon="6.77539">
        <ele>1959</ele>
        <time>2026-08-14T05:07:09.376Z</time>
      </trkpt>
      <trkpt lat="45.85652" lon="6.77539">
        <ele>1960</ele>
        <time>2026-08-14T05:07:10.376Z</time>
      </trkpt>
      <trkpt lat="45.85654" lon="6.7754">
        <ele>1960</ele>
        <time>2026-08-14T05:07:11.376Z</time>
      </trkpt>
      <trkpt lat="45.85656" lon="6.7754">
        <ele>1960</ele>
        <time>2026-08-14T05:07:12.376Z</time>
      </trkpt>
      <trkpt lat="45.85658" lon="6.77541">
        <ele>1960</ele>
        <time>2026-08-14T05:07:13.376Z</time>
      </trkpt>
      <trkpt lat="45.85659" lon="6.77542">
        <ele>1961</ele>
        <time>2026-08-14T05:07:14.376Z</time>
      </trkpt>
      <trkpt lat="45.85661" lon="6.77543">
        <ele>1961</ele>
        <time>2026-08-14T05:07:15.376Z</time>
      </trkpt>
      <trkpt lat="45.85663" lon="6.77543">
        <ele>1961</ele>
        <time>2026-08-14T05:07:16.376Z</time>
      </trkpt>
      <trkpt lat="45.85665" lon="6.77544">
        <ele>1961</ele>
        <time>2026-08-14T05:07:17.376Z</time>
      </trkpt>
      <trkpt lat="45.85667" lon="6.77544">
        <ele>1961</ele>
        <time>2026-08-14T05:07:18.376Z</time>
      </trkpt>
      <trkpt lat="45.85668" lon="6.77545">
        <ele>1961</ele>
        <time>2026-08-14T05:07:19.376Z</time>
      </trkpt>
      <trkpt lat="45.8567" lon="6.77546">
        <ele>1961</ele>
        <time>2026-08-14T05:07:20.376Z</time>
      </trkpt>
      <trkpt lat="45.85672" lon="6.77546">
        <ele>1961</ele>
        <time>2026-08-14T05:07:21.376Z</time>
      </trkpt>
      <trkpt lat="45.85674" lon="6.77547">
        <ele>1962</ele>
        <time>2026-08-14T05:07:22.376Z</time>
      </trkpt>
      <trkpt lat="45.85676" lon="6.77546">
        <ele>1962</ele>
        <time>2026-08-14T05:07:23.376Z</time>
      </trkpt>
      <trkpt lat="45.85677" lon="6.77546">
        <ele>1962</ele>
        <time>2026-08-14T05:07:24.376Z</time>
      </trkpt>
      <trkpt lat="45.85679" lon="6.77546">
        <ele>1962</ele>
        <time>2026-08-14T05:07:25.376Z</time>
      </trkpt>
      <trkpt lat="45.85681" lon="6.77546">
        <ele>1963</ele>
        <time>2026-08-14T05:07:26.376Z</time>
      </trkpt>
      <trkpt lat="45.85683" lon="6.77546">
        <ele>1963</ele>
        <time>2026-08-14T05:07:27.376Z</time>
      </trkpt>
      <trkpt lat="45.85685" lon="6.77546">
        <ele>1963</ele>
        <time>2026-08-14T05:07:28.376Z</time>
      </trkpt>
      <trkpt lat="45.85688" lon="6.77546">
        <ele>1964</ele>
        <time>2026-08-14T05:07:29.376Z</time>
      </trkpt>
      <trkpt lat="45.8569" lon="6.77547">
        <ele>1964</ele>
        <time>2026-08-14T05:07:30.376Z</time>
      </trkpt>
      <trkpt lat="45.85691" lon="6.77548">
        <ele>1965</ele>
        <time>2026-08-14T05:07:31.376Z</time>
      </trkpt>
      <trkpt lat="45.85693" lon="6.77549">
        <ele>1965</ele>
        <time>2026-08-14T05:07:32.376Z</time>
      </trkpt>
      <trkpt lat="45.85694" lon="6.7755">
        <ele>1965</ele>
        <time>2026-08-14T05:07:33.376Z</time>
      </trkpt>
      <trkpt lat="45.85696" lon="6.7755">
        <ele>1966</ele>
        <time>2026-08-14T05:07:34.376Z</time>
      </trkpt>
      <trkpt lat="45.85697" lon="6.77551">
        <ele>1966</ele>
        <time>2026-08-14T05:07:35.376Z</time>
      </trkpt>
      <trkpt lat="45.85699" lon="6.77551">
        <ele>1966</ele>
        <time>2026-08-14T05:07:36.376Z</time>
      </trkpt>
      <trkpt lat="45.857" lon="6.77552">
        <ele>1967</ele>
        <time>2026-08-14T05:07:37.376Z</time>
      </trkpt>
      <trkpt lat="45.85702" lon="6.77553">
        <ele>1967</ele>
        <time>2026-08-14T05:07:38.376Z</time>
      </trkpt>
      <trkpt lat="45.85703" lon="6.77554">
        <ele>1967</ele>
        <time>2026-08-14T05:07:39.376Z</time>
      </trkpt>
      <trkpt lat="45.85705" lon="6.77554">
        <ele>1967</ele>
        <time>2026-08-14T05:07:40.376Z</time>
      </trkpt>
      <trkpt lat="45.85707" lon="6.77554">
        <ele>1968</ele>
        <time>2026-08-14T05:07:41.376Z</time>
      </trkpt>
      <trkpt lat="45.85709" lon="6.77554">
        <ele>1968</ele>
        <time>2026-08-14T05:07:42.376Z</time>
      </trkpt>
      <trkpt lat="45.8571" lon="6.77554">
        <ele>1968</ele>
        <time>2026-08-14T05:07:43.376Z</time>
      </trkpt>
      <trkpt lat="45.85711" lon="6.77554">
        <ele>1968</ele>
        <time>2026-08-14T05:07:44.376Z</time>
      </trkpt>
      <trkpt lat="45.85712" lon="6.77555">
        <ele>1968</ele>
        <time>2026-08-14T05:07:45.376Z</time>
      </trkpt>
      <trkpt lat="45.85713" lon="6.77555">
        <ele>1968</ele>
        <time>2026-08-14T05:07:46.376Z</time>
      </trkpt>
      <trkpt lat="45.85714" lon="6.77555">
        <ele>1969</ele>
        <time>2026-08-14T05:07:47.376Z</time>
      </trkpt>
      <trkpt lat="45.85716" lon="6.77555">
        <ele>1969</ele>
        <time>2026-08-14T05:07:48.376Z</time>
      </trkpt>
      <trkpt lat="45.85717" lon="6.77556">
        <ele>1969</ele>
        <time>2026-08-14T05:07:49.376Z</time>
      </trkpt>
      <trkpt lat="45.85719" lon="6.77556">
        <ele>1969</ele>
        <time>2026-08-14T05:07:50.376Z</time>
      </trkpt>
      <trkpt lat="45.85721" lon="6.77556">
        <ele>1969</ele>
        <time>2026-08-14T05:07:51.376Z</time>
      </trkpt>
      <trkpt lat="45.85722" lon="6.77556">
        <ele>1969</ele>
        <time>2026-08-14T05:07:52.376Z</time>
      </trkpt>
      <trkpt lat="45.85724" lon="6.77557">
        <ele>1969</ele>
        <time>2026-08-14T05:07:53.376Z</time>
      </trkpt>
      <trkpt lat="45.85726" lon="6.77557">
        <ele>1969</ele>
        <time>2026-08-14T05:07:54.376Z</time>
      </trkpt>
      <trkpt lat="45.85727" lon="6.77557">
        <ele>1969</ele>
        <time>2026-08-14T05:07:55.376Z</time>
      </trkpt>
      <trkpt lat="45.85729" lon="6.77557">
        <ele>1969</ele>
        <time>2026-08-14T05:07:56.376Z</time>
      </trkpt>
      <trkpt lat="45.85731" lon="6.77557">
        <ele>1969</ele>
        <time>2026-08-14T05:07:57.376Z</time>
      </trkpt>
      <trkpt lat="45.85732" lon="6.77557">
        <ele>1969</ele>
        <time>2026-08-14T05:07:58.376Z</time>
      </trkpt>
      <trkpt lat="45.85733" lon="6.77558">
        <ele>1969</ele>
        <time>2026-08-14T05:07:59.376Z</time>
      </trkpt>
      <trkpt lat="45.85734" lon="6.77558">
        <ele>1969</ele>
        <time>2026-08-14T05:08:00.376Z</time>
      </trkpt>
      <trkpt lat="45.85735" lon="6.77559">
        <ele>1969</ele>
        <time>2026-08-14T05:08:01.376Z</time>
      </trkpt>
      <trkpt lat="45.85736" lon="6.77559">
        <ele>1969</ele>
        <time>2026-08-14T05:08:02.376Z</time>
      </trkpt>
      <trkpt lat="45.85737" lon="6.7756">
        <ele>1969</ele>
        <time>2026-08-14T05:08:03.376Z</time>
      </trkpt>
      <trkpt lat="45.85739" lon="6.77561">
        <ele>1970</ele>
        <time>2026-08-14T05:08:04.376Z</time>
      </trkpt>
      <trkpt lat="45.85739" lon="6.77561">
        <ele>1970</ele>
        <time>2026-08-14T05:08:05.376Z</time>
      </trkpt>
      <trkpt lat="45.8574" lon="6.77561">
        <ele>1970</ele>
        <time>2026-08-14T05:08:06.376Z</time>
      </trkpt>
      <trkpt lat="45.85742" lon="6.77561">
        <ele>1970</ele>
        <time>2026-08-14T05:08:07.376Z</time>
      </trkpt>
      <trkpt lat="45.85743" lon="6.77562">
        <ele>1970</ele>
        <time>2026-08-14T05:08:08.376Z</time>
      </trkpt>
      <trkpt lat="45.85744" lon="6.77562">
        <ele>1970</ele>
        <time>2026-08-14T05:08:09.376Z</time>
      </trkpt>
      <trkpt lat="45.85746" lon="6.77562">
        <ele>1971</ele>
        <time>2026-08-14T05:08:10.376Z</time>
      </trkpt>
      <trkpt lat="45.85747" lon="6.77562">
        <ele>1971</ele>
        <time>2026-08-14T05:08:11.376Z</time>
      </trkpt>
      <trkpt lat="45.85749" lon="6.77563">
        <ele>1971</ele>
        <time>2026-08-14T05:08:12.376Z</time>
      </trkpt>
      <trkpt lat="45.85751" lon="6.77563">
        <ele>1971</ele>
        <time>2026-08-14T05:08:13.376Z</time>
      </trkpt>
      <trkpt lat="45.85753" lon="6.77564">
        <ele>1971</ele>
        <time>2026-08-14T05:08:14.376Z</time>
      </trkpt>
      <trkpt lat="45.85754" lon="6.77564">
        <ele>1972</ele>
        <time>2026-08-14T05:08:15.376Z</time>
      </trkpt>
      <trkpt lat="45.85756" lon="6.77565">
        <ele>1972</ele>
        <time>2026-08-14T05:08:16.376Z</time>
      </trkpt>
      <trkpt lat="45.85757" lon="6.77566">
        <ele>1972</ele>
        <time>2026-08-14T05:08:17.376Z</time>
      </trkpt>
      <trkpt lat="45.85759" lon="6.77566">
        <ele>1972</ele>
        <time>2026-08-14T05:08:18.376Z</time>
      </trkpt>
      <trkpt lat="45.85761" lon="6.77567">
        <ele>1972</ele>
        <time>2026-08-14T05:08:19.376Z</time>
      </trkpt>
      <trkpt lat="45.85763" lon="6.77568">
        <ele>1973</ele>
        <time>2026-08-14T05:08:20.376Z</time>
      </trkpt>
      <trkpt lat="45.85764" lon="6.77569">
        <ele>1973</ele>
        <time>2026-08-14T05:08:21.376Z</time>
      </trkpt>
      <trkpt lat="45.85766" lon="6.77569">
        <ele>1973</ele>
        <time>2026-08-14T05:08:22.376Z</time>
      </trkpt>
      <trkpt lat="45.85767" lon="6.7757">
        <ele>1973</ele>
        <time>2026-08-14T05:08:23.376Z</time>
      </trkpt>
      <trkpt lat="45.85769" lon="6.7757">
        <ele>1973</ele>
        <time>2026-08-14T05:08:24.376Z</time>
      </trkpt>
      <trkpt lat="45.8577" lon="6.77571">
        <ele>1974</ele>
        <time>2026-08-14T05:08:25.376Z</time>
      </trkpt>
      <trkpt lat="45.85772" lon="6.77571">
        <ele>1974</ele>
        <time>2026-08-14T05:08:26.376Z</time>
      </trkpt>
      <trkpt lat="45.85773" lon="6.77572">
        <ele>1974</ele>
        <time>2026-08-14T05:08:27.376Z</time>
      </trkpt>
      <trkpt lat="45.85775" lon="6.77574">
        <ele>1974</ele>
        <time>2026-08-14T05:08:28.376Z</time>
      </trkpt>
      <trkpt lat="45.85776" lon="6.77575">
        <ele>1974</ele>
        <time>2026-08-14T05:08:29.376Z</time>
      </trkpt>
      <trkpt lat="45.85778" lon="6.77576">
        <ele>1974</ele>
        <time>2026-08-14T05:08:30.376Z</time>
      </trkpt>
      <trkpt lat="45.85779" lon="6.77577">
        <ele>1975</ele>
        <time>2026-08-14T05:08:31.376Z</time>
      </trkpt>
      <trkpt lat="45.85781" lon="6.77578">
        <ele>1975</ele>
        <time>2026-08-14T05:08:32.376Z</time>
      </trkpt>
      <trkpt lat="45.85782" lon="6.77578">
        <ele>1975</ele>
        <time>2026-08-14T05:08:33.376Z</time>
      </trkpt>
      <trkpt lat="45.85784" lon="6.77579">
        <ele>1976</ele>
        <time>2026-08-14T05:08:34.376Z</time>
      </trkpt>
      <trkpt lat="45.85785" lon="6.7758">
        <ele>1976</ele>
        <time>2026-08-14T05:08:35.376Z</time>
      </trkpt>
      <trkpt lat="45.85787" lon="6.77581">
        <ele>1976</ele>
        <time>2026-08-14T05:08:36.376Z</time>
      </trkpt>
      <trkpt lat="45.85788" lon="6.77581">
        <ele>1976</ele>
        <time>2026-08-14T05:08:37.376Z</time>
      </trkpt>
      <trkpt lat="45.8579" lon="6.77582">
        <ele>1976</ele>
        <time>2026-08-14T05:08:38.376Z</time>
      </trkpt>
      <trkpt lat="45.85791" lon="6.77583">
        <ele>1976</ele>
        <time>2026-08-14T05:08:39.377Z</time>
      </trkpt>
      <trkpt lat="45.85792" lon="6.77583">
        <ele>1976</ele>
        <time>2026-08-14T05:08:40.376Z</time>
      </trkpt>
      <trkpt lat="45.85794" lon="6.77583">
        <ele>1976</ele>
        <time>2026-08-14T05:08:41.376Z</time>
      </trkpt>
      <trkpt lat="45.85795" lon="6.77583">
        <ele>1976</ele>
        <time>2026-08-14T05:08:42.376Z</time>
      </trkpt>
      <trkpt lat="45.85796" lon="6.77584">
        <ele>1977</ele>
        <time>2026-08-14T05:08:43.376Z</time>
      </trkpt>
      <trkpt lat="45.85797" lon="6.77584">
        <ele>1977</ele>
        <time>2026-08-14T05:08:44.376Z</time>
      </trkpt>
      <trkpt lat="45.85799" lon="6.77585">
        <ele>1977</ele>
        <time>2026-08-14T05:08:45.376Z</time>
      </trkpt>
      <trkpt lat="45.858" lon="6.77585">
        <ele>1977</ele>
        <time>2026-08-14T05:08:46.376Z</time>
      </trkpt>
      <trkpt lat="45.85802" lon="6.77586">
        <ele>1977</ele>
        <time>2026-08-14T05:08:47.376Z</time>
      </trkpt>
      <trkpt lat="45.85803" lon="6.77587">
        <ele>1977</ele>
        <time>2026-08-14T05:08:48.376Z</time>
      </trkpt>
      <trkpt lat="45.85805" lon="6.77588">
        <ele>1977</ele>
        <time>2026-08-14T05:08:49.376Z</time>
      </trkpt>
      <trkpt lat="45.85806" lon="6.77589">
        <ele>1977</ele>
        <time>2026-08-14T05:08:50.376Z</time>
      </trkpt>
      <trkpt lat="45.85808" lon="6.7759">
        <ele>1977</ele>
        <time>2026-08-14T05:08:51.376Z</time>
      </trkpt>
      <trkpt lat="45.8581" lon="6.77591">
        <ele>1978</ele>
        <time>2026-08-14T05:08:52.376Z</time>
      </trkpt>
      <trkpt lat="45.85812" lon="6.77592">
        <ele>1978</ele>
        <time>2026-08-14T05:08:53.376Z</time>
      </trkpt>
      <trkpt lat="45.85813" lon="6.77593">
        <ele>1979</ele>
        <time>2026-08-14T05:08:54.376Z</time>
      </trkpt>
      <trkpt lat="45.85814" lon="6.77594">
        <ele>1979</ele>
        <time>2026-08-14T05:08:55.376Z</time>
      </trkpt>
      <trkpt lat="45.85816" lon="6.77595">
        <ele>1979</ele>
        <time>2026-08-14T05:08:56.376Z</time>
      </trkpt>
      <trkpt lat="45.85818" lon="6.77596">
        <ele>1979</ele>
        <time>2026-08-14T05:08:57.376Z</time>
      </trkpt>
      <trkpt lat="45.85819" lon="6.77596">
        <ele>1979</ele>
        <time>2026-08-14T05:08:58.376Z</time>
      </trkpt>
      <trkpt lat="45.8582" lon="6.77596">
        <ele>1979</ele>
        <time>2026-08-14T05:08:59.376Z</time>
      </trkpt>
      <trkpt lat="45.85821" lon="6.77596">
        <ele>1979</ele>
        <time>2026-08-14T05:09:00.376Z</time>
      </trkpt>
      <trkpt lat="45.85821" lon="6.77596">
        <ele>1979</ele>
        <time>2026-08-14T05:09:01.376Z</time>
      </trkpt>
      <trkpt lat="45.85822" lon="6.77597">
        <ele>1979</ele>
        <time>2026-08-14T05:09:02.376Z</time>
      </trkpt>
      <trkpt lat="45.85823" lon="6.77597">
        <ele>1979</ele>
        <time>2026-08-14T05:09:03.376Z</time>
      </trkpt>
      <trkpt lat="45.85824" lon="6.77597">
        <ele>1979</ele>
        <time>2026-08-14T05:09:04.376Z</time>
      </trkpt>
      <trkpt lat="45.85825" lon="6.77597">
        <ele>1979</ele>
        <time>2026-08-14T05:09:05.376Z</time>
      </trkpt>
      <trkpt lat="45.85826" lon="6.77598">
        <ele>1979</ele>
        <time>2026-08-14T05:09:06.376Z</time>
      </trkpt>
      <trkpt lat="45.85827" lon="6.77598">
        <ele>1979</ele>
        <time>2026-08-14T05:09:07.376Z</time>
      </trkpt>
      <trkpt lat="45.85827" lon="6.77599">
        <ele>1980</ele>
        <time>2026-08-14T05:09:08.376Z</time>
      </trkpt>
      <trkpt lat="45.85829" lon="6.776">
        <ele>1980</ele>
        <time>2026-08-14T05:09:09.376Z</time>
      </trkpt>
      <trkpt lat="45.8583" lon="6.776">
        <ele>1981</ele>
        <time>2026-08-14T05:09:10.376Z</time>
      </trkpt>
      <trkpt lat="45.85831" lon="6.776">
        <ele>1981</ele>
        <time>2026-08-14T05:09:11.376Z</time>
      </trkpt>
      <trkpt lat="45.85832" lon="6.77601">
        <ele>1981</ele>
        <time>2026-08-14T05:09:12.376Z</time>
      </trkpt>
      <trkpt lat="45.85833" lon="6.77601">
        <ele>1981</ele>
        <time>2026-08-14T05:09:13.376Z</time>
      </trkpt>
      <trkpt lat="45.85834" lon="6.77601">
        <ele>1982</ele>
        <time>2026-08-14T05:09:14.376Z</time>
      </trkpt>
      <trkpt lat="45.85835" lon="6.77601">
        <ele>1982</ele>
        <time>2026-08-14T05:09:15.376Z</time>
      </trkpt>
      <trkpt lat="45.85835" lon="6.77601">
        <ele>1982</ele>
        <time>2026-08-14T05:09:16.376Z</time>
      </trkpt>
      <trkpt lat="45.85836" lon="6.77601">
        <ele>1982</ele>
        <time>2026-08-14T05:09:17.376Z</time>
      </trkpt>
      <trkpt lat="45.85836" lon="6.77601">
        <ele>1982</ele>
        <time>2026-08-14T05:09:18.376Z</time>
      </trkpt>
      <trkpt lat="45.85836" lon="6.77601">
        <ele>1982</ele>
        <time>2026-08-14T05:09:19.376Z</time>
      </trkpt>
      <trkpt lat="45.85837" lon="6.77602">
        <ele>1982</ele>
        <time>2026-08-14T05:09:20.376Z</time>
      </trkpt>
      <trkpt lat="45.85837" lon="6.77602">
        <ele>1982</ele>
        <time>2026-08-14T05:09:21.376Z</time>
      </trkpt>
      <trkpt lat="45.85838" lon="6.77601">
        <ele>1982</ele>
        <time>2026-08-14T05:09:22.376Z</time>
      </trkpt>
      <trkpt lat="45.85838" lon="6.77601">
        <ele>1982</ele>
        <time>2026-08-14T05:09:23.376Z</time>
      </trkpt>
      <trkpt lat="45.85839" lon="6.77601">
        <ele>1982</ele>
        <time>2026-08-14T05:09:24.376Z</time>
      </trkpt>
      <trkpt lat="45.85839" lon="6.77601">
        <ele>1982</ele>
        <time>2026-08-14T05:09:25.376Z</time>
      </trkpt>
      <trkpt lat="45.85839" lon="6.77601">
        <ele>1982</ele>
        <time>2026-08-14T05:09:26.376Z</time>
      </trkpt>
      <trkpt lat="45.85839" lon="6.77601">
        <ele>1982</ele>
        <time>2026-08-14T05:09:27.376Z</time>
      </trkpt>
      <trkpt lat="45.85839" lon="6.776">
        <ele>1982</ele>
        <time>2026-08-14T05:09:28.376Z</time>
      </trkpt>
      <trkpt lat="45.8584" lon="6.776">
        <ele>1982</ele>
        <time>2026-08-14T05:09:29.376Z</time>
      </trkpt>
      <trkpt lat="45.8584" lon="6.776">
        <ele>1981</ele>
        <time>2026-08-14T05:09:30.376Z</time>
      </trkpt>
      <trkpt lat="45.8584" lon="6.776">
        <ele>1981</ele>
        <time>2026-08-14T05:09:31.376Z</time>
      </trkpt>
      <trkpt lat="45.85841" lon="6.776">
        <ele>1981</ele>
        <time>2026-08-14T05:09:32.376Z</time>
      </trkpt>
      <trkpt lat="45.85841" lon="6.776">
        <ele>1982</ele>
        <time>2026-08-14T05:09:33.376Z</time>
      </trkpt>
      <trkpt lat="45.85842" lon="6.776">
        <ele>1982</ele>
        <time>2026-08-14T05:09:34.376Z</time>
      </trkpt>
      <trkpt lat="45.85842" lon="6.77599">
        <ele>1982</ele>
        <time>2026-08-14T05:09:35.376Z</time>
      </trkpt>
      <trkpt lat="45.85844" lon="6.77599">
        <ele>1982</ele>
        <time>2026-08-14T05:09:36.376Z</time>
      </trkpt>
      <trkpt lat="45.85845" lon="6.77599">
        <ele>1982</ele>
        <time>2026-08-14T05:09:37.376Z</time>
      </trkpt>
      <trkpt lat="45.85846" lon="6.77599">
        <ele>1983</ele>
        <time>2026-08-14T05:09:38.376Z</time>
      </trkpt>
      <trkpt lat="45.85847" lon="6.776">
        <ele>1983</ele>
        <time>2026-08-14T05:09:39.376Z</time>
      </trkpt>
      <trkpt lat="45.85848" lon="6.776">
        <ele>1983</ele>
        <time>2026-08-14T05:09:40.376Z</time>
      </trkpt>
      <trkpt lat="45.8585" lon="6.77601">
        <ele>1984</ele>
        <time>2026-08-14T05:09:41.376Z</time>
      </trkpt>
      <trkpt lat="45.85851" lon="6.77601">
        <ele>1985</ele>
        <time>2026-08-14T05:09:42.376Z</time>
      </trkpt>
      <trkpt lat="45.85852" lon="6.77601">
        <ele>1985</ele>
        <time>2026-08-14T05:09:43.376Z</time>
      </trkpt>
      <trkpt lat="45.85853" lon="6.77601">
        <ele>1986</ele>
        <time>2026-08-14T05:09:44.376Z</time>
      </trkpt>
      <trkpt lat="45.85854" lon="6.77602">
        <ele>1986</ele>
        <time>2026-08-14T05:09:45.376Z</time>
      </trkpt>
      <trkpt lat="45.85855" lon="6.77602">
        <ele>1986</ele>
        <time>2026-08-14T05:09:46.376Z</time>
      </trkpt>
      <trkpt lat="45.85856" lon="6.77602">
        <ele>1986</ele>
        <time>2026-08-14T05:09:47.376Z</time>
      </trkpt>
      <trkpt lat="45.85858" lon="6.77603">
        <ele>1986</ele>
        <time>2026-08-14T05:09:48.376Z</time>
      </trkpt>
      <trkpt lat="45.85859" lon="6.77603">
        <ele>1986</ele>
        <time>2026-08-14T05:09:49.376Z</time>
      </trkpt>
      <trkpt lat="45.8586" lon="6.77604">
        <ele>1986</ele>
        <time>2026-08-14T05:09:50.376Z</time>
      </trkpt>
      <trkpt lat="45.85861" lon="6.77604">
        <ele>1985</ele>
        <time>2026-08-14T05:09:51.376Z</time>
      </trkpt>
      <trkpt lat="45.85862" lon="6.77605">
        <ele>1985</ele>
        <time>2026-08-14T05:09:52.376Z</time>
      </trkpt>
      <trkpt lat="45.85864" lon="6.77605">
        <ele>1985</ele>
        <time>2026-08-14T05:09:53.376Z</time>
      </trkpt>
      <trkpt lat="45.85865" lon="6.77606">
        <ele>1985</ele>
        <time>2026-08-14T05:09:54.376Z</time>
      </trkpt>
      <trkpt lat="45.85866" lon="6.77606">
        <ele>1985</ele>
        <time>2026-08-14T05:09:55.376Z</time>
      </trkpt>
      <trkpt lat="45.85868" lon="6.77606">
        <ele>1985</ele>
        <time>2026-08-14T05:09:56.376Z</time>
      </trkpt>
      <trkpt lat="45.85869" lon="6.77606">
        <ele>1985</ele>
        <time>2026-08-14T05:09:57.376Z</time>
      </trkpt>
      <trkpt lat="45.8587" lon="6.77606">
        <ele>1985</ele>
        <time>2026-08-14T05:09:58.376Z</time>
      </trkpt>
      <trkpt lat="45.85871" lon="6.77606">
        <ele>1986</ele>
        <time>2026-08-14T05:09:59.376Z</time>
      </trkpt>
      <trkpt lat="45.85872" lon="6.77605">
        <ele>1986</ele>
        <time>2026-08-14T05:10:00.376Z</time>
      </trkpt>
      <trkpt lat="45.85873" lon="6.77604">
        <ele>1986</ele>
        <time>2026-08-14T05:10:01.376Z</time>
      </trkpt>
      <trkpt lat="45.85873" lon="6.77603">
        <ele>1987</ele>
        <time>2026-08-14T05:10:02.376Z</time>
      </trkpt>
      <trkpt lat="45.85874" lon="6.77602">
        <ele>1987</ele>
        <time>2026-08-14T05:10:03.376Z</time>
      </trkpt>
      <trkpt lat="45.85875" lon="6.77602">
        <ele>1987</ele>
        <time>2026-08-14T05:10:04.376Z</time>
      </trkpt>
      <trkpt lat="45.85876" lon="6.77603">
        <ele>1987</ele>
        <time>2026-08-14T05:10:05.376Z</time>
      </trkpt>
      <trkpt lat="45.85876" lon="6.77603">
        <ele>1987</ele>
        <time>2026-08-14T05:10:06.376Z</time>
      </trkpt>
      <trkpt lat="45.85877" lon="6.77604">
        <ele>1987</ele>
        <time>2026-08-14T05:10:07.376Z</time>
      </trkpt>
      <trkpt lat="45.85877" lon="6.77605">
        <ele>1987</ele>
        <time>2026-08-14T05:10:08.376Z</time>
      </trkpt>
      <trkpt lat="45.85877" lon="6.77606">
        <ele>1987</ele>
        <time>2026-08-14T05:10:09.376Z</time>
      </trkpt>
      <trkpt lat="45.85877" lon="6.77606">
        <ele>1987</ele>
        <time>2026-08-14T05:10:10.376Z</time>
      </trkpt>
      <trkpt lat="45.85877" lon="6.77606">
        <ele>1987</ele>
        <time>2026-08-14T05:10:11.376Z</time>
      </trkpt>
      <trkpt lat="45.85877" lon="6.77606">
        <ele>1987</ele>
        <time>2026-08-14T05:10:12.376Z</time>
      </trkpt>
      <trkpt lat="45.85877" lon="6.77605">
        <ele>1987</ele>
        <time>2026-08-14T05:10:13.376Z</time>
      </trkpt>
      <trkpt lat="45.85876" lon="6.77605">
        <ele>1987</ele>
        <time>2026-08-14T05:10:14.376Z</time>
      </trkpt>
      <trkpt lat="45.85876" lon="6.77604">
        <ele>1987</ele>
        <time>2026-08-14T05:10:15.376Z</time>
      </trkpt>
      <trkpt lat="45.85876" lon="6.77603">
        <ele>1987</ele>
        <time>2026-08-14T05:10:16.377Z</time>
      </trkpt>
      <trkpt lat="45.85876" lon="6.77603">
        <ele>1987</ele>
        <time>2026-08-14T05:10:17.376Z</time>
      </trkpt>
      <trkpt lat="45.85876" lon="6.77603">
        <ele>1987</ele>
        <time>2026-08-14T05:10:18.376Z</time>
      </trkpt>
      <trkpt lat="45.85877" lon="6.77603">
        <ele>1987</ele>
        <time>2026-08-14T05:10:19.376Z</time>
      </trkpt>
      <trkpt lat="45.85877" lon="6.77603">
        <ele>1987</ele>
        <time>2026-08-14T05:10:20.376Z</time>
      </trkpt>
      <trkpt lat="45.85877" lon="6.77604">
        <ele>1987</ele>
        <time>2026-08-14T05:10:21.376Z</time>
      </trkpt>
      <trkpt lat="45.85877" lon="6.77605">
        <ele>1987</ele>
        <time>2026-08-14T05:10:22.376Z</time>
      </trkpt>
      <trkpt lat="45.85877" lon="6.77606">
        <ele>1988</ele>
        <time>2026-08-14T05:10:23.376Z</time>
      </trkpt>
      <trkpt lat="45.85878" lon="6.77606">
        <ele>1987</ele>
        <time>2026-08-14T05:10:24.376Z</time>
      </trkpt>
      <trkpt lat="45.85877" lon="6.77607">
        <ele>1987</ele>
        <time>2026-08-14T05:10:25.376Z</time>
      </trkpt>
      <trkpt lat="45.85877" lon="6.77607">
        <ele>1987</ele>
        <time>2026-08-14T05:10:26.376Z</time>
      </trkpt>
      <trkpt lat="45.85877" lon="6.77607">
        <ele>1988</ele>
        <time>2026-08-14T05:10:27.376Z</time>
      </trkpt>
      <trkpt lat="45.85877" lon="6.77607">
        <ele>1988</ele>
        <time>2026-08-14T05:10:28.376Z</time>
      </trkpt>
      <trkpt lat="45.85877" lon="6.77607">
        <ele>1989</ele>
        <time>2026-08-14T05:10:29.376Z</time>
      </trkpt>
      <trkpt lat="45.85877" lon="6.77607">
        <ele>1989</ele>
        <time>2026-08-14T05:10:30.376Z</time>
      </trkpt>
      <trkpt lat="45.85877" lon="6.77607">
        <ele>1989</ele>
        <time>2026-08-14T05:10:31.376Z</time>
      </trkpt>
      <trkpt lat="45.85877" lon="6.77607">
        <ele>1989</ele>
        <time>2026-08-14T05:10:32.376Z</time>
      </trkpt>
      <trkpt lat="45.85877" lon="6.77607">
        <ele>1990</ele>
        <time>2026-08-14T05:10:33.376Z</time>
      </trkpt>
      <trkpt lat="45.85877" lon="6.77607">
        <ele>1990</ele>
        <time>2026-08-14T05:10:34.376Z</time>
      </trkpt>
      <trkpt lat="45.85877" lon="6.77607">
        <ele>1990</ele>
        <time>2026-08-14T05:10:35.376Z</time>
      </trkpt>
      <trkpt lat="45.85877" lon="6.77607">
        <ele>1990</ele>
        <time>2026-08-14T05:10:36.376Z</time>
      </trkpt>
      <trkpt lat="45.85877" lon="6.77607">
        <ele>1990</ele>
        <time>2026-08-14T05:10:37.376Z</time>
      </trkpt>
      <trkpt lat="45.85877" lon="6.77606">
        <ele>1990</ele>
        <time>2026-08-14T05:10:38.376Z</time>
      </trkpt>
      <trkpt lat="45.85877" lon="6.77606">
        <ele>1990</ele>
        <time>2026-08-14T05:10:39.376Z</time>
      </trkpt>
      <trkpt lat="45.85877" lon="6.77606">
        <ele>1990</ele>
        <time>2026-08-14T05:10:40.376Z</time>
      </trkpt>
      <trkpt lat="45.85877" lon="6.77606">
        <ele>1990</ele>
        <time>2026-08-14T05:10:41.376Z</time>
      </trkpt>
      <trkpt lat="45.85877" lon="6.77606">
        <ele>1990</ele>
        <time>2026-08-14T05:10:42.376Z</time>
      </trkpt>
      <trkpt lat="45.85877" lon="6.77606">
        <ele>1990</ele>
        <time>2026-08-14T05:10:43.376Z</time>
      </trkpt>
      <trkpt lat="45.85877" lon="6.77606">
        <ele>1990</ele>
        <time>2026-08-14T05:10:44.376Z</time>
      </trkpt>
      <trkpt lat="45.85877" lon="6.77606">
        <ele>1990</ele>
        <time>2026-08-14T05:10:45.376Z</time>
      </trkpt>
      <trkpt lat="45.85877" lon="6.77606">
        <ele>1990</ele>
        <time>2026-08-14T05:10:46.376Z</time>
      </trkpt>
      <trkpt lat="45.85877" lon="6.77606">
        <ele>1990</ele>
        <time>2026-08-14T05:10:47.376Z</time>
      </trkpt>
      <trkpt lat="45.85877" lon="6.77606">
        <ele>1990</ele>
        <time>2026-08-14T05:10:48.376Z</time>
      </trkpt>
      <trkpt lat="45.85877" lon="6.77606">
        <ele>1990</ele>
        <time>2026-08-14T05:10:49.376Z</time>
      </trkpt>
      <trkpt lat="45.85877" lon="6.77606">
        <ele>1990</ele>
        <time>2026-08-14T05:10:50.376Z</time>
      </trkpt>
      <trkpt lat="45.85877" lon="6.77606">
        <ele>1990</ele>
        <time>2026-08-14T05:10:51.376Z</time>
      </trkpt>
      <trkpt lat="45.85877" lon="6.77606">
        <ele>1990</ele>
        <time>2026-08-14T05:10:52.376Z</time>
      </trkpt>
      <trkpt lat="45.85877" lon="6.77607">
        <ele>1990</ele>
        <time>2026-08-14T05:10:53.376Z</time>
      </trkpt>
      <trkpt lat="45.85877" lon="6.77607">
        <ele>1991</ele>
        <time>2026-08-14T05:10:54.376Z</time>
      </trkpt>
      <trkpt lat="45.85877" lon="6.77607">
        <ele>1991</ele>
        <time>2026-08-14T05:10:55.376Z</time>
      </trkpt>
      <trkpt lat="45.85877" lon="6.77607">
        <ele>1991</ele>
        <time>2026-08-14T05:10:56.376Z</time>
      </trkpt>
      <trkpt lat="45.85877" lon="6.77607">
        <ele>1991</ele>
        <time>2026-08-14T05:10:57.376Z</time>
      </trkpt>
      <trkpt lat="45.85877" lon="6.77607">
        <ele>1991</ele>
        <time>2026-08-14T05:10:58.376Z</time>
      </trkpt>
      <trkpt lat="45.85877" lon="6.77607">
        <ele>1991</ele>
        <time>2026-08-14T05:10:59.376Z</time>
      </trkpt>
      <trkpt lat="45.85877" lon="6.77607">
        <ele>1991</ele>
        <time>2026-08-14T05:11:00.376Z</time>
      </trkpt>
      <trkpt lat="45.85877" lon="6.77607">
        <ele>1991</ele>
        <time>2026-08-14T05:11:01.376Z</time>
      </trkpt>
      <trkpt lat="45.85877" lon="6.77606">
        <ele>1991</ele>
        <time>2026-08-14T05:11:02.376Z</time>
      </trkpt>
      <trkpt lat="45.85876" lon="6.77605">
        <ele>1991</ele>
        <time>2026-08-14T05:11:03.376Z</time>
      </trkpt>
      <trkpt lat="45.85875" lon="6.77604">
        <ele>1991</ele>
        <time>2026-08-14T05:11:04.376Z</time>
      </trkpt>
      <trkpt lat="45.85874" lon="6.77604">
        <ele>1991</ele>
        <time>2026-08-14T05:11:05.376Z</time>
      </trkpt>
      <trkpt lat="45.85873" lon="6.77602">
        <ele>1990</ele>
        <time>2026-08-14T05:11:06.376Z</time>
      </trkpt>
      <trkpt lat="45.85872" lon="6.776">
        <ele>1990</ele>
        <time>2026-08-14T05:11:07.376Z</time>
      </trkpt>
      <trkpt lat="45.85872" lon="6.77599">
        <ele>1990</ele>
        <time>2026-08-14T05:11:08.376Z</time>
      </trkpt>
      <trkpt lat="45.85872" lon="6.77597">
        <ele>1990</ele>
        <time>2026-08-14T05:11:09.376Z</time>
      </trkpt>
      <trkpt lat="45.85871" lon="6.77595">
        <ele>1990</ele>
        <time>2026-08-14T05:11:10.376Z</time>
      </trkpt>
      <trkpt lat="45.8587" lon="6.77594">
        <ele>1990</ele>
        <time>2026-08-14T05:11:11.376Z</time>
      </trkpt>
      <trkpt lat="45.85869" lon="6.77593">
        <ele>1991</ele>
        <time>2026-08-14T05:11:12.376Z</time>
      </trkpt>
      <trkpt lat="45.85868" lon="6.77593">
        <ele>1991</ele>
        <time>2026-08-14T05:11:13.376Z</time>
      </trkpt>
      <trkpt lat="45.85867" lon="6.77592">
        <ele>1991</ele>
        <time>2026-08-14T05:11:14.376Z</time>
      </trkpt>
      <trkpt lat="45.85866" lon="6.77591">
        <ele>1991</ele>
        <time>2026-08-14T05:11:15.376Z</time>
      </trkpt>
      <trkpt lat="45.85865" lon="6.7759">
        <ele>1992</ele>
        <time>2026-08-14T05:11:16.376Z</time>
      </trkpt>
      <trkpt lat="45.85864" lon="6.77588">
        <ele>1992</ele>
        <time>2026-08-14T05:11:17.376Z</time>
      </trkpt>
      <trkpt lat="45.85863" lon="6.77587">
        <ele>1992</ele>
        <time>2026-08-14T05:11:18.376Z</time>
      </trkpt>
      <trkpt lat="45.85862" lon="6.77586">
        <ele>1992</ele>
        <time>2026-08-14T05:11:19.376Z</time>
      </trkpt>
      <trkpt lat="45.85861" lon="6.77585">
        <ele>1992</ele>
        <time>2026-08-14T05:11:20.376Z</time>
      </trkpt>
      <trkpt lat="45.8586" lon="6.77584">
        <ele>1993</ele>
        <time>2026-08-14T05:11:21.376Z</time>
      </trkpt>
      <trkpt lat="45.85859" lon="6.77582">
        <ele>1993</ele>
        <time>2026-08-14T05:11:22.376Z</time>
      </trkpt>
      <trkpt lat="45.85858" lon="6.77581">
        <ele>1993</ele>
        <time>2026-08-14T05:11:23.376Z</time>
      </trkpt>
      <trkpt lat="45.85857" lon="6.7758">
        <ele>1993</ele>
        <time>2026-08-14T05:11:24.376Z</time>
      </trkpt>
      <trkpt lat="45.85856" lon="6.7758">
        <ele>1993</ele>
        <time>2026-08-14T05:11:25.376Z</time>
      </trkpt>
      <trkpt lat="45.85855" lon="6.77578">
        <ele>1993</ele>
        <time>2026-08-14T05:11:26.376Z</time>
      </trkpt>
      <trkpt lat="45.85854" lon="6.77577">
        <ele>1993</ele>
        <time>2026-08-14T05:11:27.376Z</time>
      </trkpt>
      <trkpt lat="45.85854" lon="6.77576">
        <ele>1993</ele>
        <time>2026-08-14T05:11:28.376Z</time>
      </trkpt>
      <trkpt lat="45.85853" lon="6.77575">
        <ele>1993</ele>
        <time>2026-08-14T05:11:29.376Z</time>
      </trkpt>
      <trkpt lat="45.85852" lon="6.77574">
        <ele>1994</ele>
        <time>2026-08-14T05:11:30.376Z</time>
      </trkpt>
      <trkpt lat="45.85851" lon="6.77572">
        <ele>1994</ele>
        <time>2026-08-14T05:11:31.376Z</time>
      </trkpt>
      <trkpt lat="45.85851" lon="6.77572">
        <ele>1994</ele>
        <time>2026-08-14T05:11:32.376Z</time>
      </trkpt>
      <trkpt lat="45.8585" lon="6.77571">
        <ele>1994</ele>
        <time>2026-08-14T05:11:33.376Z</time>
      </trkpt>
      <trkpt lat="45.85849" lon="6.77571">
        <ele>1994</ele>
        <time>2026-08-14T05:11:34.376Z</time>
      </trkpt>
      <trkpt lat="45.85848" lon="6.7757">
        <ele>1995</ele>
        <time>2026-08-14T05:11:35.376Z</time>
      </trkpt>
      <trkpt lat="45.85847" lon="6.77569">
        <ele>1995</ele>
        <time>2026-08-14T05:11:36.376Z</time>
      </trkpt>
      <trkpt lat="45.85846" lon="6.77568">
        <ele>1995</ele>
        <time>2026-08-14T05:11:37.376Z</time>
      </trkpt>
      <trkpt lat="45.85845" lon="6.77567">
        <ele>1996</ele>
        <time>2026-08-14T05:11:38.376Z</time>
      </trkpt>
      <trkpt lat="45.85845" lon="6.77566">
        <ele>1996</ele>
        <time>2026-08-14T05:11:39.376Z</time>
      </trkpt>
      <trkpt lat="45.85844" lon="6.77565">
        <ele>1996</ele>
        <time>2026-08-14T05:11:40.376Z</time>
      </trkpt>
      <trkpt lat="45.85843" lon="6.77564">
        <ele>1997</ele>
        <time>2026-08-14T05:11:41.376Z</time>
      </trkpt>
      <trkpt lat="45.85843" lon="6.77563">
        <ele>1997</ele>
        <time>2026-08-14T05:11:42.376Z</time>
      </trkpt>
      <trkpt lat="45.85842" lon="6.77562">
        <ele>1997</ele>
        <time>2026-08-14T05:11:43.376Z</time>
      </trkpt>
      <trkpt lat="45.85841" lon="6.77561">
        <ele>1997</ele>
        <time>2026-08-14T05:11:44.376Z</time>
      </trkpt>
      <trkpt lat="45.8584" lon="6.7756">
        <ele>1998</ele>
        <time>2026-08-14T05:11:45.376Z</time>
      </trkpt>
      <trkpt lat="45.85839" lon="6.77559">
        <ele>1998</ele>
        <time>2026-08-14T05:11:46.376Z</time>
      </trkpt>
      <trkpt lat="45.85838" lon="6.77558">
        <ele>1998</ele>
        <time>2026-08-14T05:11:47.376Z</time>
      </trkpt>
      <trkpt lat="45.85838" lon="6.77557">
        <ele>1999</ele>
        <time>2026-08-14T05:11:48.376Z</time>
      </trkpt>
      <trkpt lat="45.85837" lon="6.77556">
        <ele>1999</ele>
        <time>2026-08-14T05:11:49.376Z</time>
      </trkpt>
      <trkpt lat="45.85837" lon="6.77555">
        <ele>1999</ele>
        <time>2026-08-14T05:11:50.376Z</time>
      </trkpt>
      <trkpt lat="45.85836" lon="6.77554">
        <ele>2000</ele>
        <time>2026-08-14T05:11:51.376Z</time>
      </trkpt>
      <trkpt lat="45.85835" lon="6.77553">
        <ele>2000</ele>
        <time>2026-08-14T05:11:52.376Z</time>
      </trkpt>
      <trkpt lat="45.85834" lon="6.77552">
        <ele>2000</ele>
        <time>2026-08-14T05:11:53.376Z</time>
      </trkpt>
      <trkpt lat="45.85833" lon="6.77551">
        <ele>2000</ele>
        <time>2026-08-14T05:11:54.376Z</time>
      </trkpt>
      <trkpt lat="45.85833" lon="6.7755">
        <ele>2000</ele>
        <time>2026-08-14T05:11:55.376Z</time>
      </trkpt>
      <trkpt lat="45.85832" lon="6.77549">
        <ele>2001</ele>
        <time>2026-08-14T05:11:56.376Z</time>
      </trkpt>
      <trkpt lat="45.85831" lon="6.77548">
        <ele>2001</ele>
        <time>2026-08-14T05:11:57.376Z</time>
      </trkpt>
      <trkpt lat="45.8583" lon="6.77547">
        <ele>2001</ele>
        <time>2026-08-14T05:11:58.376Z</time>
      </trkpt>
      <trkpt lat="45.8583" lon="6.77547">
        <ele>2002</ele>
        <time>2026-08-14T05:11:59.376Z</time>
      </trkpt>
      <trkpt lat="45.85829" lon="6.77546">
        <ele>2002</ele>
        <time>2026-08-14T05:12:00.376Z</time>
      </trkpt>
      <trkpt lat="45.85828" lon="6.77545">
        <ele>2002</ele>
        <time>2026-08-14T05:12:01.376Z</time>
      </trkpt>
      <trkpt lat="45.85828" lon="6.77544">
        <ele>2002</ele>
        <time>2026-08-14T05:12:02.376Z</time>
      </trkpt>
      <trkpt lat="45.85827" lon="6.77543">
        <ele>2002</ele>
        <time>2026-08-14T05:12:03.376Z</time>
      </trkpt>
      <trkpt lat="45.85826" lon="6.77542">
        <ele>2002</ele>
        <time>2026-08-14T05:12:04.376Z</time>
      </trkpt>
      <trkpt lat="45.85825" lon="6.7754">
        <ele>2002</ele>
        <time>2026-08-14T05:12:05.376Z</time>
      </trkpt>
      <trkpt lat="45.85824" lon="6.77539">
        <ele>2002</ele>
        <time>2026-08-14T05:12:06.376Z</time>
      </trkpt>
      <trkpt lat="45.85823" lon="6.77538">
        <ele>2003</ele>
        <time>2026-08-14T05:12:07.376Z</time>
      </trkpt>
      <trkpt lat="45.85822" lon="6.77537">
        <ele>2003</ele>
        <time>2026-08-14T05:12:08.376Z</time>
      </trkpt>
      <trkpt lat="45.85821" lon="6.77536">
        <ele>2003</ele>
        <time>2026-08-14T05:12:09.376Z</time>
      </trkpt>
      <trkpt lat="45.85821" lon="6.77535">
        <ele>2003</ele>
        <time>2026-08-14T05:12:10.376Z</time>
      </trkpt>
      <trkpt lat="45.8582" lon="6.77534">
        <ele>2003</ele>
        <time>2026-08-14T05:12:11.376Z</time>
      </trkpt>
      <trkpt lat="45.85819" lon="6.77533">
        <ele>2003</ele>
        <time>2026-08-14T05:12:12.376Z</time>
      </trkpt>
      <trkpt lat="45.85819" lon="6.77532">
        <ele>2003</ele>
        <time>2026-08-14T05:12:13.376Z</time>
      </trkpt>
      <trkpt lat="45.85819" lon="6.77531">
        <ele>2003</ele>
        <time>2026-08-14T05:12:14.376Z</time>
      </trkpt>
      <trkpt lat="45.85818" lon="6.7753">
        <ele>2003</ele>
        <time>2026-08-14T05:12:15.376Z</time>
      </trkpt>
      <trkpt lat="45.85818" lon="6.7753">
        <ele>2003</ele>
        <time>2026-08-14T05:12:16.376Z</time>
      </trkpt>
      <trkpt lat="45.85817" lon="6.77529">
        <ele>2003</ele>
        <time>2026-08-14T05:12:17.376Z</time>
      </trkpt>
      <trkpt lat="45.85816" lon="6.77528">
        <ele>2004</ele>
        <time>2026-08-14T05:12:18.376Z</time>
      </trkpt>
      <trkpt lat="45.85816" lon="6.77527">
        <ele>2004</ele>
        <time>2026-08-14T05:12:19.376Z</time>
      </trkpt>
      <trkpt lat="45.85815" lon="6.77526">
        <ele>2004</ele>
        <time>2026-08-14T05:12:20.376Z</time>
      </trkpt>
      <trkpt lat="45.85814" lon="6.77525">
        <ele>2005</ele>
        <time>2026-08-14T05:12:21.376Z</time>
      </trkpt>
      <trkpt lat="45.85814" lon="6.77524">
        <ele>2005</ele>
        <time>2026-08-14T05:12:22.376Z</time>
      </trkpt>
      <trkpt lat="45.85813" lon="6.77523">
        <ele>2005</ele>
        <time>2026-08-14T05:12:23.376Z</time>
      </trkpt>
      <trkpt lat="45.85813" lon="6.77522">
        <ele>2006</ele>
        <time>2026-08-14T05:12:24.376Z</time>
      </trkpt>
      <trkpt lat="45.85812" lon="6.77521">
        <ele>2006</ele>
        <time>2026-08-14T05:12:25.376Z</time>
      </trkpt>
      <trkpt lat="45.85812" lon="6.7752">
        <ele>2007</ele>
        <time>2026-08-14T05:12:26.376Z</time>
      </trkpt>
      <trkpt lat="45.85811" lon="6.77519">
        <ele>2007</ele>
        <time>2026-08-14T05:12:27.376Z</time>
      </trkpt>
      <trkpt lat="45.85811" lon="6.77518">
        <ele>2008</ele>
        <time>2026-08-14T05:12:28.376Z</time>
      </trkpt>
      <trkpt lat="45.8581" lon="6.77517">
        <ele>2008</ele>
        <time>2026-08-14T05:12:29.376Z</time>
      </trkpt>
      <trkpt lat="45.85809" lon="6.77516">
        <ele>2008</ele>
        <time>2026-08-14T05:12:30.376Z</time>
      </trkpt>
      <trkpt lat="45.85809" lon="6.77515">
        <ele>2008</ele>
        <time>2026-08-14T05:12:31.376Z</time>
      </trkpt>
      <trkpt lat="45.85808" lon="6.77513">
        <ele>2008</ele>
        <time>2026-08-14T05:12:32.376Z</time>
      </trkpt>
      <trkpt lat="45.85808" lon="6.77512">
        <ele>2008</ele>
        <time>2026-08-14T05:12:33.376Z</time>
      </trkpt>
      <trkpt lat="45.85807" lon="6.77511">
        <ele>2008</ele>
        <time>2026-08-14T05:12:34.376Z</time>
      </trkpt>
      <trkpt lat="45.85807" lon="6.77511">
        <ele>2009</ele>
        <time>2026-08-14T05:12:35.376Z</time>
      </trkpt>
      <trkpt lat="45.85807" lon="6.7751">
        <ele>2009</ele>
        <time>2026-08-14T05:12:36.376Z</time>
      </trkpt>
      <trkpt lat="45.85806" lon="6.77509">
        <ele>2010</ele>
        <time>2026-08-14T05:12:37.376Z</time>
      </trkpt>
      <trkpt lat="45.85806" lon="6.77508">
        <ele>2010</ele>
        <time>2026-08-14T05:12:38.376Z</time>
      </trkpt>
      <trkpt lat="45.85806" lon="6.77507">
        <ele>2011</ele>
        <time>2026-08-14T05:12:39.376Z</time>
      </trkpt>
      <trkpt lat="45.85805" lon="6.77507">
        <ele>2011</ele>
        <time>2026-08-14T05:12:40.376Z</time>
      </trkpt>
      <trkpt lat="45.85805" lon="6.77506">
        <ele>2011</ele>
        <time>2026-08-14T05:12:41.376Z</time>
      </trkpt>
      <trkpt lat="45.85804" lon="6.77505">
        <ele>2011</ele>
        <time>2026-08-14T05:12:42.376Z</time>
      </trkpt>
      <trkpt lat="45.85804" lon="6.77504">
        <ele>2011</ele>
        <time>2026-08-14T05:12:43.376Z</time>
      </trkpt>
      <trkpt lat="45.85803" lon="6.77504">
        <ele>2011</ele>
        <time>2026-08-14T05:12:44.376Z</time>
      </trkpt>
      <trkpt lat="45.85803" lon="6.77503">
        <ele>2011</ele>
        <time>2026-08-14T05:12:45.376Z</time>
      </trkpt>
      <trkpt lat="45.85802" lon="6.77502">
        <ele>2011</ele>
        <time>2026-08-14T05:12:46.376Z</time>
      </trkpt>
      <trkpt lat="45.85802" lon="6.77501">
        <ele>2012</ele>
        <time>2026-08-14T05:12:47.376Z</time>
      </trkpt>
      <trkpt lat="45.85802" lon="6.77501">
        <ele>2012</ele>
        <time>2026-08-14T05:12:48.376Z</time>
      </trkpt>
      <trkpt lat="45.85801" lon="6.775">
        <ele>2012</ele>
        <time>2026-08-14T05:12:49.376Z</time>
      </trkpt>
      <trkpt lat="45.85801" lon="6.775">
        <ele>2012</ele>
        <time>2026-08-14T05:12:50.376Z</time>
      </trkpt>
      <trkpt lat="45.858" lon="6.77499">
        <ele>2013</ele>
        <time>2026-08-14T05:12:51.376Z</time>
      </trkpt>
      <trkpt lat="45.858" lon="6.77499">
        <ele>2014</ele>
        <time>2026-08-14T05:12:52.376Z</time>
      </trkpt>
      <trkpt lat="45.85799" lon="6.77498">
        <ele>2014</ele>
        <time>2026-08-14T05:12:53.376Z</time>
      </trkpt>
      <trkpt lat="45.85799" lon="6.77498">
        <ele>2015</ele>
        <time>2026-08-14T05:12:54.376Z</time>
      </trkpt>
      <trkpt lat="45.85799" lon="6.77497">
        <ele>2015</ele>
        <time>2026-08-14T05:12:55.376Z</time>
      </trkpt>
      <trkpt lat="45.85798" lon="6.77497">
        <ele>2015</ele>
        <time>2026-08-14T05:12:56.376Z</time>
      </trkpt>
      <trkpt lat="45.85798" lon="6.77496">
        <ele>2016</ele>
        <time>2026-08-14T05:12:57.376Z</time>
      </trkpt>
      <trkpt lat="45.85797" lon="6.77496">
        <ele>2016</ele>
        <time>2026-08-14T05:12:58.376Z</time>
      </trkpt>
      <trkpt lat="45.85797" lon="6.77495">
        <ele>2016</ele>
        <time>2026-08-14T05:12:59.376Z</time>
      </trkpt>
      <trkpt lat="45.85796" lon="6.77495">
        <ele>2017</ele>
        <time>2026-08-14T05:13:00.376Z</time>
      </trkpt>
      <trkpt lat="45.85796" lon="6.77494">
        <ele>2017</ele>
        <time>2026-08-14T05:13:01.376Z</time>
      </trkpt>
      <trkpt lat="45.85795" lon="6.77493">
        <ele>2018</ele>
        <time>2026-08-14T05:13:02.376Z</time>
      </trkpt>
      <trkpt lat="45.85794" lon="6.77493">
        <ele>2018</ele>
        <time>2026-08-14T05:13:03.376Z</time>
      </trkpt>
      <trkpt lat="45.85794" lon="6.77492">
        <ele>2018</ele>
        <time>2026-08-14T05:13:04.376Z</time>
      </trkpt>
      <trkpt lat="45.85793" lon="6.77491">
        <ele>2018</ele>
        <time>2026-08-14T05:13:05.376Z</time>
      </trkpt>
      <trkpt lat="45.85793" lon="6.77491">
        <ele>2018</ele>
        <time>2026-08-14T05:13:06.376Z</time>
      </trkpt>
      <trkpt lat="45.85793" lon="6.7749">
        <ele>2018</ele>
        <time>2026-08-14T05:13:07.376Z</time>
      </trkpt>
      <trkpt lat="45.85793" lon="6.7749">
        <ele>2018</ele>
        <time>2026-08-14T05:13:08.376Z</time>
      </trkpt>
      <trkpt lat="45.85793" lon="6.77489">
        <ele>2018</ele>
        <time>2026-08-14T05:13:09.376Z</time>
      </trkpt>
      <trkpt lat="45.85793" lon="6.77489">
        <ele>2019</ele>
        <time>2026-08-14T05:13:10.376Z</time>
      </trkpt>
      <trkpt lat="45.85792" lon="6.77489">
        <ele>2019</ele>
        <time>2026-08-14T05:13:11.376Z</time>
      </trkpt>
      <trkpt lat="45.85792" lon="6.77488">
        <ele>2019</ele>
        <time>2026-08-14T05:13:12.376Z</time>
      </trkpt>
      <trkpt lat="45.85792" lon="6.77488">
        <ele>2019</ele>
        <time>2026-08-14T05:13:13.376Z</time>
      </trkpt>
      <trkpt lat="45.85791" lon="6.77487">
        <ele>2019</ele>
        <time>2026-08-14T05:13:14.376Z</time>
      </trkpt>
      <trkpt lat="45.85791" lon="6.77486">
        <ele>2019</ele>
        <time>2026-08-14T05:13:15.376Z</time>
      </trkpt>
      <trkpt lat="45.8579" lon="6.77486">
        <ele>2019</ele>
        <time>2026-08-14T05:13:16.376Z</time>
      </trkpt>
      <trkpt lat="45.8579" lon="6.77485">
        <ele>2019</ele>
        <time>2026-08-14T05:13:17.376Z</time>
      </trkpt>
      <trkpt lat="45.85789" lon="6.77484">
        <ele>2019</ele>
        <time>2026-08-14T05:13:18.376Z</time>
      </trkpt>
      <trkpt lat="45.85788" lon="6.77484">
        <ele>2019</ele>
        <time>2026-08-14T05:13:19.376Z</time>
      </trkpt>
      <trkpt lat="45.85788" lon="6.77483">
        <ele>2020</ele>
        <time>2026-08-14T05:13:20.376Z</time>
      </trkpt>
      <trkpt lat="45.85787" lon="6.77482">
        <ele>2020</ele>
        <time>2026-08-14T05:13:21.376Z</time>
      </trkpt>
      <trkpt lat="45.85787" lon="6.77481">
        <ele>2021</ele>
        <time>2026-08-14T05:13:22.376Z</time>
      </trkpt>
      <trkpt lat="45.85786" lon="6.7748">
        <ele>2021</ele>
        <time>2026-08-14T05:13:23.376Z</time>
      </trkpt>
      <trkpt lat="45.85786" lon="6.77479">
        <ele>2021</ele>
        <time>2026-08-14T05:13:24.376Z</time>
      </trkpt>
      <trkpt lat="45.85785" lon="6.77478">
        <ele>2021</ele>
        <time>2026-08-14T05:13:25.376Z</time>
      </trkpt>
      <trkpt lat="45.85785" lon="6.77477">
        <ele>2021</ele>
        <time>2026-08-14T05:13:26.376Z</time>
      </trkpt>
      <trkpt lat="45.85785" lon="6.77476">
        <ele>2021</ele>
        <time>2026-08-14T05:13:27.376Z</time>
      </trkpt>
      <trkpt lat="45.85785" lon="6.77476">
        <ele>2021</ele>
        <time>2026-08-14T05:13:28.376Z</time>
      </trkpt>
      <trkpt lat="45.85785" lon="6.77475">
        <ele>2021</ele>
        <time>2026-08-14T05:13:29.376Z</time>
      </trkpt>
      <trkpt lat="45.85784" lon="6.77475">
        <ele>2022</ele>
        <time>2026-08-14T05:13:30.376Z</time>
      </trkpt>
      <trkpt lat="45.85783" lon="6.77474">
        <ele>2022</ele>
        <time>2026-08-14T05:13:31.376Z</time>
      </trkpt>
      <trkpt lat="45.85783" lon="6.77474">
        <ele>2022</ele>
        <time>2026-08-14T05:13:32.376Z</time>
      </trkpt>
      <trkpt lat="45.85782" lon="6.77473">
        <ele>2022</ele>
        <time>2026-08-14T05:13:33.376Z</time>
      </trkpt>
      <trkpt lat="45.85781" lon="6.77472">
        <ele>2023</ele>
        <time>2026-08-14T05:13:34.376Z</time>
      </trkpt>
      <trkpt lat="45.85781" lon="6.77471">
        <ele>2023</ele>
        <time>2026-08-14T05:13:35.376Z</time>
      </trkpt>
      <trkpt lat="45.8578" lon="6.7747">
        <ele>2023</ele>
        <time>2026-08-14T05:13:36.376Z</time>
      </trkpt>
      <trkpt lat="45.85779" lon="6.77469">
        <ele>2023</ele>
        <time>2026-08-14T05:13:37.376Z</time>
      </trkpt>
      <trkpt lat="45.85779" lon="6.77468">
        <ele>2023</ele>
        <time>2026-08-14T05:13:38.376Z</time>
      </trkpt>
      <trkpt lat="45.85778" lon="6.77467">
        <ele>2023</ele>
        <time>2026-08-14T05:13:39.376Z</time>
      </trkpt>
      <trkpt lat="45.85778" lon="6.77466">
        <ele>2023</ele>
        <time>2026-08-14T05:13:40.376Z</time>
      </trkpt>
      <trkpt lat="45.85777" lon="6.77465">
        <ele>2023</ele>
        <time>2026-08-14T05:13:41.376Z</time>
      </trkpt>
      <trkpt lat="45.85777" lon="6.77465">
        <ele>2024</ele>
        <time>2026-08-14T05:13:42.376Z</time>
      </trkpt>
      <trkpt lat="45.85776" lon="6.77464">
        <ele>2024</ele>
        <time>2026-08-14T05:13:43.376Z</time>
      </trkpt>
      <trkpt lat="45.85776" lon="6.77463">
        <ele>2025</ele>
        <time>2026-08-14T05:13:44.376Z</time>
      </trkpt>
      <trkpt lat="45.85775" lon="6.77462">
        <ele>2025</ele>
        <time>2026-08-14T05:13:45.376Z</time>
      </trkpt>
      <trkpt lat="45.85774" lon="6.77461">
        <ele>2025</ele>
        <time>2026-08-14T05:13:46.376Z</time>
      </trkpt>
      <trkpt lat="45.85774" lon="6.7746">
        <ele>2026</ele>
        <time>2026-08-14T05:13:47.376Z</time>
      </trkpt>
      <trkpt lat="45.85773" lon="6.7746">
        <ele>2026</ele>
        <time>2026-08-14T05:13:48.376Z</time>
      </trkpt>
      <trkpt lat="45.85772" lon="6.77459">
        <ele>2027</ele>
        <time>2026-08-14T05:13:49.376Z</time>
      </trkpt>
      <trkpt lat="45.85772" lon="6.77457">
        <ele>2027</ele>
        <time>2026-08-14T05:13:50.376Z</time>
      </trkpt>
      <trkpt lat="45.85772" lon="6.77456">
        <ele>2027</ele>
        <time>2026-08-14T05:13:51.376Z</time>
      </trkpt>
      <trkpt lat="45.85771" lon="6.77455">
        <ele>2027</ele>
        <time>2026-08-14T05:13:52.376Z</time>
      </trkpt>
      <trkpt lat="45.85771" lon="6.77454">
        <ele>2028</ele>
        <time>2026-08-14T05:13:53.376Z</time>
      </trkpt>
      <trkpt lat="45.8577" lon="6.77454">
        <ele>2028</ele>
        <time>2026-08-14T05:13:54.376Z</time>
      </trkpt>
      <trkpt lat="45.8577" lon="6.77453">
        <ele>2028</ele>
        <time>2026-08-14T05:13:55.376Z</time>
      </trkpt>
      <trkpt lat="45.85769" lon="6.77452">
        <ele>2028</ele>
        <time>2026-08-14T05:13:56.376Z</time>
      </trkpt>
      <trkpt lat="45.85769" lon="6.77451">
        <ele>2028</ele>
        <time>2026-08-14T05:13:57.376Z</time>
      </trkpt>
      <trkpt lat="45.85768" lon="6.7745">
        <ele>2028</ele>
        <time>2026-08-14T05:13:58.376Z</time>
      </trkpt>
      <trkpt lat="45.85767" lon="6.77449">
        <ele>2028</ele>
        <time>2026-08-14T05:13:59.376Z</time>
      </trkpt>
      <trkpt lat="45.85766" lon="6.77448">
        <ele>2028</ele>
        <time>2026-08-14T05:14:00.376Z</time>
      </trkpt>
      <trkpt lat="45.85765" lon="6.77447">
        <ele>2029</ele>
        <time>2026-08-14T05:14:01.376Z</time>
      </trkpt>
      <trkpt lat="45.85764" lon="6.77446">
        <ele>2029</ele>
        <time>2026-08-14T05:14:02.376Z</time>
      </trkpt>
      <trkpt lat="45.85764" lon="6.77445">
        <ele>2029</ele>
        <time>2026-08-14T05:14:03.376Z</time>
      </trkpt>
      <trkpt lat="45.85763" lon="6.77444">
        <ele>2029</ele>
        <time>2026-08-14T05:14:04.376Z</time>
      </trkpt>
      <trkpt lat="45.85762" lon="6.77443">
        <ele>2029</ele>
        <time>2026-08-14T05:14:05.376Z</time>
      </trkpt>
      <trkpt lat="45.85761" lon="6.77442">
        <ele>2029</ele>
        <time>2026-08-14T05:14:06.376Z</time>
      </trkpt>
      <trkpt lat="45.85761" lon="6.77441">
        <ele>2029</ele>
        <time>2026-08-14T05:14:07.376Z</time>
      </trkpt>
      <trkpt lat="45.8576" lon="6.7744">
        <ele>2030</ele>
        <time>2026-08-14T05:14:08.376Z</time>
      </trkpt>
      <trkpt lat="45.8576" lon="6.77439">
        <ele>2030</ele>
        <time>2026-08-14T05:14:09.376Z</time>
      </trkpt>
      <trkpt lat="45.85759" lon="6.77438">
        <ele>2030</ele>
        <time>2026-08-14T05:14:10.376Z</time>
      </trkpt>
      <trkpt lat="45.85758" lon="6.77437">
        <ele>2030</ele>
        <time>2026-08-14T05:14:11.376Z</time>
      </trkpt>
      <trkpt lat="45.85758" lon="6.77436">
        <ele>2030</ele>
        <time>2026-08-14T05:14:12.376Z</time>
      </trkpt>
      <trkpt lat="45.85757" lon="6.77435">
        <ele>2031</ele>
        <time>2026-08-14T05:14:13.376Z</time>
      </trkpt>
      <trkpt lat="45.85757" lon="6.77434">
        <ele>2031</ele>
        <time>2026-08-14T05:14:14.376Z</time>
      </trkpt>
      <trkpt lat="45.85756" lon="6.77433">
        <ele>2031</ele>
        <time>2026-08-14T05:14:15.376Z</time>
      </trkpt>
      <trkpt lat="45.85755" lon="6.77432">
        <ele>2032</ele>
        <time>2026-08-14T05:14:16.376Z</time>
      </trkpt>
      <trkpt lat="45.85754" lon="6.77431">
        <ele>2032</ele>
        <time>2026-08-14T05:14:17.376Z</time>
      </trkpt>
      <trkpt lat="45.85754" lon="6.77429">
        <ele>2033</ele>
        <time>2026-08-14T05:14:18.376Z</time>
      </trkpt>
      <trkpt lat="45.85753" lon="6.77428">
        <ele>2033</ele>
        <time>2026-08-14T05:14:19.376Z</time>
      </trkpt>
      <trkpt lat="45.85753" lon="6.77427">
        <ele>2033</ele>
        <time>2026-08-14T05:14:20.376Z</time>
      </trkpt>
      <trkpt lat="45.85752" lon="6.77426">
        <ele>2033</ele>
        <time>2026-08-14T05:14:21.376Z</time>
      </trkpt>
      <trkpt lat="45.85752" lon="6.77425">
        <ele>2033</ele>
        <time>2026-08-14T05:14:22.376Z</time>
      </trkpt>
      <trkpt lat="45.85752" lon="6.77424">
        <ele>2033</ele>
        <time>2026-08-14T05:14:23.376Z</time>
      </trkpt>
      <trkpt lat="45.85752" lon="6.77423">
        <ele>2034</ele>
        <time>2026-08-14T05:14:24.376Z</time>
      </trkpt>
      <trkpt lat="45.85752" lon="6.77423">
        <ele>2034</ele>
        <time>2026-08-14T05:14:25.376Z</time>
      </trkpt>
      <trkpt lat="45.85751" lon="6.77422">
        <ele>2034</ele>
        <time>2026-08-14T05:14:26.376Z</time>
      </trkpt>
      <trkpt lat="45.85751" lon="6.77421">
        <ele>2035</ele>
        <time>2026-08-14T05:14:27.376Z</time>
      </trkpt>
      <trkpt lat="45.8575" lon="6.7742">
        <ele>2035</ele>
        <time>2026-08-14T05:14:28.376Z</time>
      </trkpt>
      <trkpt lat="45.8575" lon="6.77419">
        <ele>2036</ele>
        <time>2026-08-14T05:14:29.376Z</time>
      </trkpt>
      <trkpt lat="45.8575" lon="6.77418">
        <ele>2036</ele>
        <time>2026-08-14T05:14:30.376Z</time>
      </trkpt>
      <trkpt lat="45.8575" lon="6.77417">
        <ele>2036</ele>
        <time>2026-08-14T05:14:31.376Z</time>
      </trkpt>
      <trkpt lat="45.85749" lon="6.77416">
        <ele>2037</ele>
        <time>2026-08-14T05:14:32.376Z</time>
      </trkpt>
      <trkpt lat="45.85749" lon="6.77415">
        <ele>2037</ele>
        <time>2026-08-14T05:14:33.376Z</time>
      </trkpt>
      <trkpt lat="45.85748" lon="6.77414">
        <ele>2038</ele>
        <time>2026-08-14T05:14:34.376Z</time>
      </trkpt>
      <trkpt lat="45.85748" lon="6.77413">
        <ele>2038</ele>
        <time>2026-08-14T05:14:35.376Z</time>
      </trkpt>
      <trkpt lat="45.85747" lon="6.77413">
        <ele>2038</ele>
        <time>2026-08-14T05:14:36.376Z</time>
      </trkpt>
      <trkpt lat="45.85747" lon="6.77412">
        <ele>2039</ele>
        <time>2026-08-14T05:14:37.376Z</time>
      </trkpt>
      <trkpt lat="45.85746" lon="6.77411">
        <ele>2039</ele>
        <time>2026-08-14T05:14:38.376Z</time>
      </trkpt>
      <trkpt lat="45.85746" lon="6.7741">
        <ele>2039</ele>
        <time>2026-08-14T05:14:39.376Z</time>
      </trkpt>
      <trkpt lat="45.85745" lon="6.7741">
        <ele>2040</ele>
        <time>2026-08-14T05:14:40.376Z</time>
      </trkpt>
      <trkpt lat="45.85745" lon="6.77409">
        <ele>2040</ele>
        <time>2026-08-14T05:14:41.376Z</time>
      </trkpt>
      <trkpt lat="45.85744" lon="6.77409">
        <ele>2040</ele>
        <time>2026-08-14T05:14:42.376Z</time>
      </trkpt>
      <trkpt lat="45.85744" lon="6.77408">
        <ele>2040</ele>
        <time>2026-08-14T05:14:43.376Z</time>
      </trkpt>
      <trkpt lat="45.85743" lon="6.77407">
        <ele>2041</ele>
        <time>2026-08-14T05:14:44.376Z</time>
      </trkpt>
      <trkpt lat="45.85743" lon="6.77406">
        <ele>2041</ele>
        <time>2026-08-14T05:14:45.376Z</time>
      </trkpt>
      <trkpt lat="45.85742" lon="6.77406">
        <ele>2041</ele>
        <time>2026-08-14T05:14:46.376Z</time>
      </trkpt>
      <trkpt lat="45.85742" lon="6.77405">
        <ele>2041</ele>
        <time>2026-08-14T05:14:47.376Z</time>
      </trkpt>
      <trkpt lat="45.85741" lon="6.77404">
        <ele>2041</ele>
        <time>2026-08-14T05:14:48.376Z</time>
      </trkpt>
      <trkpt lat="45.85741" lon="6.77403">
        <ele>2042</ele>
        <time>2026-08-14T05:14:49.376Z</time>
      </trkpt>
      <trkpt lat="45.8574" lon="6.77402">
        <ele>2042</ele>
        <time>2026-08-14T05:14:50.376Z</time>
      </trkpt>
      <trkpt lat="45.8574" lon="6.77401">
        <ele>2042</ele>
        <time>2026-08-14T05:14:51.376Z</time>
      </trkpt>
      <trkpt lat="45.85739" lon="6.774">
        <ele>2042</ele>
        <time>2026-08-14T05:14:52.376Z</time>
      </trkpt>
      <trkpt lat="45.85739" lon="6.77399">
        <ele>2042</ele>
        <time>2026-08-14T05:14:53.376Z</time>
      </trkpt>
      <trkpt lat="45.85738" lon="6.77398">
        <ele>2043</ele>
        <time>2026-08-14T05:14:54.376Z</time>
      </trkpt>
      <trkpt lat="45.85738" lon="6.77397">
        <ele>2043</ele>
        <time>2026-08-14T05:14:55.376Z</time>
      </trkpt>
      <trkpt lat="45.85738" lon="6.77396">
        <ele>2043</ele>
        <time>2026-08-14T05:14:56.376Z</time>
      </trkpt>
      <trkpt lat="45.85737" lon="6.77395">
        <ele>2043</ele>
        <time>2026-08-14T05:14:57.376Z</time>
      </trkpt>
      <trkpt lat="45.85737" lon="6.77394">
        <ele>2043</ele>
        <time>2026-08-14T05:14:58.376Z</time>
      </trkpt>
      <trkpt lat="45.85736" lon="6.77393">
        <ele>2043</ele>
        <time>2026-08-14T05:14:59.376Z</time>
      </trkpt>
      <trkpt lat="45.85736" lon="6.77392">
        <ele>2043</ele>
        <time>2026-08-14T05:15:00.376Z</time>
      </trkpt>
      <trkpt lat="45.85736" lon="6.77392">
        <ele>2043</ele>
        <time>2026-08-14T05:15:01.376Z</time>
      </trkpt>
      <trkpt lat="45.85735" lon="6.77391">
        <ele>2043</ele>
        <time>2026-08-14T05:15:02.376Z</time>
      </trkpt>
      <trkpt lat="45.85735" lon="6.7739">
        <ele>2043</ele>
        <time>2026-08-14T05:15:03.376Z</time>
      </trkpt>
      <trkpt lat="45.85735" lon="6.77389">
        <ele>2043</ele>
        <time>2026-08-14T05:15:04.376Z</time>
      </trkpt>
      <trkpt lat="45.85734" lon="6.77388">
        <ele>2044</ele>
        <time>2026-08-14T05:15:05.376Z</time>
      </trkpt>
      <trkpt lat="45.85734" lon="6.77388">
        <ele>2044</ele>
        <time>2026-08-14T05:15:06.376Z</time>
      </trkpt>
      <trkpt lat="45.85734" lon="6.77387">
        <ele>2045</ele>
        <time>2026-08-14T05:15:07.376Z</time>
      </trkpt>
      <trkpt lat="45.85733" lon="6.77386">
        <ele>2045</ele>
        <time>2026-08-14T05:15:08.376Z</time>
      </trkpt>
      <trkpt lat="45.85732" lon="6.77386">
        <ele>2045</ele>
        <time>2026-08-14T05:15:09.376Z</time>
      </trkpt>
      <trkpt lat="45.85732" lon="6.77385">
        <ele>2045</ele>
        <time>2026-08-14T05:15:10.376Z</time>
      </trkpt>
      <trkpt lat="45.85731" lon="6.77384">
        <ele>2045</ele>
        <time>2026-08-14T05:15:11.376Z</time>
      </trkpt>
      <trkpt lat="45.8573" lon="6.77383">
        <ele>2046</ele>
        <time>2026-08-14T05:15:12.376Z</time>
      </trkpt>
      <trkpt lat="45.85729" lon="6.77382">
        <ele>2046</ele>
        <time>2026-08-14T05:15:13.376Z</time>
      </trkpt>
      <trkpt lat="45.85728" lon="6.77381">
        <ele>2047</ele>
        <time>2026-08-14T05:15:14.376Z</time>
      </trkpt>
      <trkpt lat="45.85728" lon="6.7738">
        <ele>2047</ele>
        <time>2026-08-14T05:15:15.376Z</time>
      </trkpt>
      <trkpt lat="45.85727" lon="6.77379">
        <ele>2048</ele>
        <time>2026-08-14T05:15:16.376Z</time>
      </trkpt>
      <trkpt lat="45.85727" lon="6.77378">
        <ele>2048</ele>
        <time>2026-08-14T05:15:17.376Z</time>
      </trkpt>
      <trkpt lat="45.85726" lon="6.77377">
        <ele>2048</ele>
        <time>2026-08-14T05:15:18.376Z</time>
      </trkpt>
      <trkpt lat="45.85725" lon="6.77377">
        <ele>2048</ele>
        <time>2026-08-14T05:15:19.376Z</time>
      </trkpt>
      <trkpt lat="45.85724" lon="6.77376">
        <ele>2049</ele>
        <time>2026-08-14T05:15:20.376Z</time>
      </trkpt>
      <trkpt lat="45.85724" lon="6.77375">
        <ele>2049</ele>
        <time>2026-08-14T05:15:21.376Z</time>
      </trkpt>
      <trkpt lat="45.85723" lon="6.77374">
        <ele>2049</ele>
        <time>2026-08-14T05:15:22.376Z</time>
      </trkpt>
      <trkpt lat="45.85723" lon="6.77373">
        <ele>2049</ele>
        <time>2026-08-14T05:15:23.376Z</time>
      </trkpt>
      <trkpt lat="45.85723" lon="6.77373">
        <ele>2049</ele>
        <time>2026-08-14T05:15:24.376Z</time>
      </trkpt>
      <trkpt lat="45.85723" lon="6.77372">
        <ele>2049</ele>
        <time>2026-08-14T05:15:25.376Z</time>
      </trkpt>
      <trkpt lat="45.85723" lon="6.77371">
        <ele>2049</ele>
        <time>2026-08-14T05:15:26.376Z</time>
      </trkpt>
      <trkpt lat="45.85722" lon="6.77371">
        <ele>2049</ele>
        <time>2026-08-14T05:15:27.376Z</time>
      </trkpt>
      <trkpt lat="45.85722" lon="6.7737">
        <ele>2050</ele>
        <time>2026-08-14T05:15:28.376Z</time>
      </trkpt>
      <trkpt lat="45.85721" lon="6.77369">
        <ele>2050</ele>
        <time>2026-08-14T05:15:29.376Z</time>
      </trkpt>
      <trkpt lat="45.85721" lon="6.77368">
        <ele>2050</ele>
        <time>2026-08-14T05:15:30.376Z</time>
      </trkpt>
      <trkpt lat="45.85721" lon="6.77367">
        <ele>2050</ele>
        <time>2026-08-14T05:15:31.376Z</time>
      </trkpt>
      <trkpt lat="45.8572" lon="6.77366">
        <ele>2050</ele>
        <time>2026-08-14T05:15:32.376Z</time>
      </trkpt>
      <trkpt lat="45.8572" lon="6.77365">
        <ele>2050</ele>
        <time>2026-08-14T05:15:33.376Z</time>
      </trkpt>
      <trkpt lat="45.85719" lon="6.77365">
        <ele>2050</ele>
        <time>2026-08-14T05:15:34.376Z</time>
      </trkpt>
      <trkpt lat="45.85719" lon="6.77364">
        <ele>2051</ele>
        <time>2026-08-14T05:15:35.376Z</time>
      </trkpt>
      <trkpt lat="45.85718" lon="6.77363">
        <ele>2051</ele>
        <time>2026-08-14T05:15:36.376Z</time>
      </trkpt>
      <trkpt lat="45.85718" lon="6.77362">
        <ele>2051</ele>
        <time>2026-08-14T05:15:37.376Z</time>
      </trkpt>
      <trkpt lat="45.85718" lon="6.77362">
        <ele>2052</ele>
        <time>2026-08-14T05:15:38.376Z</time>
      </trkpt>
      <trkpt lat="45.85717" lon="6.77361">
        <ele>2052</ele>
        <time>2026-08-14T05:15:39.376Z</time>
      </trkpt>
      <trkpt lat="45.85717" lon="6.7736">
        <ele>2052</ele>
        <time>2026-08-14T05:15:40.376Z</time>
      </trkpt>
      <trkpt lat="45.85717" lon="6.77359">
        <ele>2052</ele>
        <time>2026-08-14T05:15:41.376Z</time>
      </trkpt>
      <trkpt lat="45.85716" lon="6.77358">
        <ele>2053</ele>
        <time>2026-08-14T05:15:42.376Z</time>
      </trkpt>
      <trkpt lat="45.85716" lon="6.77358">
        <ele>2053</ele>
        <time>2026-08-14T05:15:43.376Z</time>
      </trkpt>
      <trkpt lat="45.85715" lon="6.77357">
        <ele>2053</ele>
        <time>2026-08-14T05:15:44.376Z</time>
      </trkpt>
      <trkpt lat="45.85714" lon="6.77356">
        <ele>2054</ele>
        <time>2026-08-14T05:15:45.376Z</time>
      </trkpt>
      <trkpt lat="45.85714" lon="6.77355">
        <ele>2054</ele>
        <time>2026-08-14T05:15:46.376Z</time>
      </trkpt>
      <trkpt lat="45.85713" lon="6.77355">
        <ele>2054</ele>
        <time>2026-08-14T05:15:47.376Z</time>
      </trkpt>
      <trkpt lat="45.85713" lon="6.77354">
        <ele>2054</ele>
        <time>2026-08-14T05:15:48.376Z</time>
      </trkpt>
      <trkpt lat="45.85712" lon="6.77353">
        <ele>2054</ele>
        <time>2026-08-14T05:15:49.376Z</time>
      </trkpt>
      <trkpt lat="45.85712" lon="6.77352">
        <ele>2054</ele>
        <time>2026-08-14T05:15:50.376Z</time>
      </trkpt>
      <trkpt lat="45.85712" lon="6.77351">
        <ele>2054</ele>
        <time>2026-08-14T05:15:51.376Z</time>
      </trkpt>
      <trkpt lat="45.85711" lon="6.7735">
        <ele>2054</ele>
        <time>2026-08-14T05:15:52.376Z</time>
      </trkpt>
      <trkpt lat="45.85711" lon="6.7735">
        <ele>2054</ele>
        <time>2026-08-14T05:15:53.376Z</time>
      </trkpt>
      <trkpt lat="45.85711" lon="6.77349">
        <ele>2054</ele>
        <time>2026-08-14T05:15:54.376Z</time>
      </trkpt>
      <trkpt lat="45.8571" lon="6.77348">
        <ele>2055</ele>
        <time>2026-08-14T05:15:55.376Z</time>
      </trkpt>
      <trkpt lat="45.8571" lon="6.77347">
        <ele>2055</ele>
        <time>2026-08-14T05:15:56.376Z</time>
      </trkpt>
      <trkpt lat="45.8571" lon="6.77347">
        <ele>2055</ele>
        <time>2026-08-14T05:15:57.376Z</time>
      </trkpt>
      <trkpt lat="45.8571" lon="6.77346">
        <ele>2055</ele>
        <time>2026-08-14T05:15:58.376Z</time>
      </trkpt>
      <trkpt lat="45.8571" lon="6.77345">
        <ele>2055</ele>
        <time>2026-08-14T05:15:59.376Z</time>
      </trkpt>
      <trkpt lat="45.85709" lon="6.77344">
        <ele>2055</ele>
        <time>2026-08-14T05:16:00.376Z</time>
      </trkpt>
      <trkpt lat="45.85709" lon="6.77343">
        <ele>2055</ele>
        <time>2026-08-14T05:16:01.376Z</time>
      </trkpt>
      <trkpt lat="45.85708" lon="6.77343">
        <ele>2055</ele>
        <time>2026-08-14T05:16:02.376Z</time>
      </trkpt>
      <trkpt lat="45.85708" lon="6.77342">
        <ele>2056</ele>
        <time>2026-08-14T05:16:03.376Z</time>
      </trkpt>
      <trkpt lat="45.85708" lon="6.77341">
        <ele>2056</ele>
        <time>2026-08-14T05:16:04.376Z</time>
      </trkpt>
      <trkpt lat="45.85707" lon="6.7734">
        <ele>2056</ele>
        <time>2026-08-14T05:16:05.376Z</time>
      </trkpt>
      <trkpt lat="45.85707" lon="6.77339">
        <ele>2056</ele>
        <time>2026-08-14T05:16:06.376Z</time>
      </trkpt>
      <trkpt lat="45.85706" lon="6.77338">
        <ele>2057</ele>
        <time>2026-08-14T05:16:07.376Z</time>
      </trkpt>
      <trkpt lat="45.85706" lon="6.77337">
        <ele>2057</ele>
        <time>2026-08-14T05:16:08.376Z</time>
      </trkpt>
      <trkpt lat="45.85705" lon="6.77336">
        <ele>2057</ele>
        <time>2026-08-14T05:16:09.376Z</time>
      </trkpt>
      <trkpt lat="45.85704" lon="6.77336">
        <ele>2058</ele>
        <time>2026-08-14T05:16:10.376Z</time>
      </trkpt>
      <trkpt lat="45.85704" lon="6.77335">
        <ele>2058</ele>
        <time>2026-08-14T05:16:11.376Z</time>
      </trkpt>
      <trkpt lat="45.85703" lon="6.77334">
        <ele>2059</ele>
        <time>2026-08-14T05:16:12.376Z</time>
      </trkpt>
      <trkpt lat="45.85703" lon="6.77333">
        <ele>2059</ele>
        <time>2026-08-14T05:16:13.376Z</time>
      </trkpt>
      <trkpt lat="45.85702" lon="6.77332">
        <ele>2059</ele>
        <time>2026-08-14T05:16:14.376Z</time>
      </trkpt>
      <trkpt lat="45.85702" lon="6.7733">
        <ele>2059</ele>
        <time>2026-08-14T05:16:15.376Z</time>
      </trkpt>
      <trkpt lat="45.85701" lon="6.77329">
        <ele>2059</ele>
        <time>2026-08-14T05:16:16.376Z</time>
      </trkpt>
      <trkpt lat="45.85701" lon="6.77328">
        <ele>2060</ele>
        <time>2026-08-14T05:16:17.376Z</time>
      </trkpt>
      <trkpt lat="45.85701" lon="6.77327">
        <ele>2060</ele>
        <time>2026-08-14T05:16:18.376Z</time>
      </trkpt>
      <trkpt lat="45.857" lon="6.77326">
        <ele>2060</ele>
        <time>2026-08-14T05:16:19.376Z</time>
      </trkpt>
      <trkpt lat="45.857" lon="6.77325">
        <ele>2060</ele>
        <time>2026-08-14T05:16:20.376Z</time>
      </trkpt>
      <trkpt lat="45.85699" lon="6.77324">
        <ele>2061</ele>
        <time>2026-08-14T05:16:21.376Z</time>
      </trkpt>
      <trkpt lat="45.85698" lon="6.77324">
        <ele>2061</ele>
        <time>2026-08-14T05:16:22.376Z</time>
      </trkpt>
      <trkpt lat="45.85697" lon="6.77323">
        <ele>2062</ele>
        <time>2026-08-14T05:16:23.376Z</time>
      </trkpt>
      <trkpt lat="45.85696" lon="6.77322">
        <ele>2062</ele>
        <time>2026-08-14T05:16:24.376Z</time>
      </trkpt>
      <trkpt lat="45.85695" lon="6.77322">
        <ele>2062</ele>
        <time>2026-08-14T05:16:25.376Z</time>
      </trkpt>
      <trkpt lat="45.85695" lon="6.77321">
        <ele>2062</ele>
        <time>2026-08-14T05:16:26.376Z</time>
      </trkpt>
      <trkpt lat="45.85695" lon="6.77321">
        <ele>2063</ele>
        <time>2026-08-14T05:16:27.376Z</time>
      </trkpt>
      <trkpt lat="45.85695" lon="6.77321">
        <ele>2063</ele>
        <time>2026-08-14T05:16:28.376Z</time>
      </trkpt>
      <trkpt lat="45.85695" lon="6.77321">
        <ele>2063</ele>
        <time>2026-08-14T05:16:29.376Z</time>
      </trkpt>
      <trkpt lat="45.85694" lon="6.77321">
        <ele>2063</ele>
        <time>2026-08-14T05:16:30.376Z</time>
      </trkpt>
      <trkpt lat="45.85694" lon="6.77321">
        <ele>2063</ele>
        <time>2026-08-14T05:16:31.376Z</time>
      </trkpt>
      <trkpt lat="45.85693" lon="6.7732">
        <ele>2063</ele>
        <time>2026-08-14T05:16:32.376Z</time>
      </trkpt>
      <trkpt lat="45.85692" lon="6.77319">
        <ele>2063</ele>
        <time>2026-08-14T05:16:33.376Z</time>
      </trkpt>
      <trkpt lat="45.85691" lon="6.77318">
        <ele>2063</ele>
        <time>2026-08-14T05:16:34.376Z</time>
      </trkpt>
      <trkpt lat="45.8569" lon="6.77317">
        <ele>2064</ele>
        <time>2026-08-14T05:16:35.376Z</time>
      </trkpt>
      <trkpt lat="45.85689" lon="6.77316">
        <ele>2064</ele>
        <time>2026-08-14T05:16:36.376Z</time>
      </trkpt>
      <trkpt lat="45.85688" lon="6.77315">
        <ele>2065</ele>
        <time>2026-08-14T05:16:37.376Z</time>
      </trkpt>
      <trkpt lat="45.85687" lon="6.77314">
        <ele>2065</ele>
        <time>2026-08-14T05:16:38.376Z</time>
      </trkpt>
      <trkpt lat="45.85686" lon="6.77314">
        <ele>2065</ele>
        <time>2026-08-14T05:16:39.376Z</time>
      </trkpt>
      <trkpt lat="45.85684" lon="6.77313">
        <ele>2066</ele>
        <time>2026-08-14T05:16:40.376Z</time>
      </trkpt>
      <trkpt lat="45.85683" lon="6.77313">
        <ele>2066</ele>
        <time>2026-08-14T05:16:41.376Z</time>
      </trkpt>
      <trkpt lat="45.85681" lon="6.77313">
        <ele>2066</ele>
        <time>2026-08-14T05:16:42.376Z</time>
      </trkpt>
      <trkpt lat="45.85679" lon="6.77313">
        <ele>2066</ele>
        <time>2026-08-14T05:16:43.376Z</time>
      </trkpt>
      <trkpt lat="45.85677" lon="6.77312">
        <ele>2066</ele>
        <time>2026-08-14T05:16:44.376Z</time>
      </trkpt>
      <trkpt lat="45.85676" lon="6.77312">
        <ele>2066</ele>
        <time>2026-08-14T05:16:45.376Z</time>
      </trkpt>
      <trkpt lat="45.85675" lon="6.77311">
        <ele>2065</ele>
        <time>2026-08-14T05:16:46.376Z</time>
      </trkpt>
      <trkpt lat="45.85673" lon="6.77311">
        <ele>2065</ele>
        <time>2026-08-14T05:16:47.376Z</time>
      </trkpt>
      <trkpt lat="45.85672" lon="6.77312">
        <ele>2065</ele>
        <time>2026-08-14T05:16:48.376Z</time>
      </trkpt>
      <trkpt lat="45.8567" lon="6.77312">
        <ele>2066</ele>
        <time>2026-08-14T05:16:49.376Z</time>
      </trkpt>
      <trkpt lat="45.85668" lon="6.77311">
        <ele>2066</ele>
        <time>2026-08-14T05:16:50.376Z</time>
      </trkpt>
      <trkpt lat="45.85666" lon="6.77311">
        <ele>2066</ele>
        <time>2026-08-14T05:16:51.376Z</time>
      </trkpt>
      <trkpt lat="45.85664" lon="6.7731">
        <ele>2066</ele>
        <time>2026-08-14T05:16:52.376Z</time>
      </trkpt>
      <trkpt lat="45.85663" lon="6.77309">
        <ele>2066</ele>
        <time>2026-08-14T05:16:53.376Z</time>
      </trkpt>
      <trkpt lat="45.85662" lon="6.77309">
        <ele>2066</ele>
        <time>2026-08-14T05:16:54.376Z</time>
      </trkpt>
      <trkpt lat="45.8566" lon="6.77309">
        <ele>2066</ele>
        <time>2026-08-14T05:16:55.376Z</time>
      </trkpt>
      <trkpt lat="45.85659" lon="6.7731">
        <ele>2066</ele>
        <time>2026-08-14T05:16:56.376Z</time>
      </trkpt>
      <trkpt lat="45.85657" lon="6.7731">
        <ele>2066</ele>
        <time>2026-08-14T05:16:57.376Z</time>
      </trkpt>
      <trkpt lat="45.85655" lon="6.7731">
        <ele>2066</ele>
        <time>2026-08-14T05:16:58.376Z</time>
      </trkpt>
      <trkpt lat="45.85653" lon="6.7731">
        <ele>2066</ele>
        <time>2026-08-14T05:16:59.376Z</time>
      </trkpt>
      <trkpt lat="45.85651" lon="6.7731">
        <ele>2066</ele>
        <time>2026-08-14T05:17:00.376Z</time>
      </trkpt>
      <trkpt lat="45.85649" lon="6.7731">
        <ele>2066</ele>
        <time>2026-08-14T05:17:01.376Z</time>
      </trkpt>
      <trkpt lat="45.85647" lon="6.7731">
        <ele>2065</ele>
        <time>2026-08-14T05:17:02.376Z</time>
      </trkpt>
      <trkpt lat="45.85645" lon="6.7731">
        <ele>2065</ele>
        <time>2026-08-14T05:17:03.376Z</time>
      </trkpt>
      <trkpt lat="45.85644" lon="6.7731">
        <ele>2065</ele>
        <time>2026-08-14T05:17:04.376Z</time>
      </trkpt>
      <trkpt lat="45.85642" lon="6.7731">
        <ele>2065</ele>
        <time>2026-08-14T05:17:05.376Z</time>
      </trkpt>
      <trkpt lat="45.85641" lon="6.7731">
        <ele>2064</ele>
        <time>2026-08-14T05:17:06.376Z</time>
      </trkpt>
      <trkpt lat="45.85639" lon="6.7731">
        <ele>2064</ele>
        <time>2026-08-14T05:17:07.376Z</time>
      </trkpt>
      <trkpt lat="45.85636" lon="6.77309">
        <ele>2064</ele>
        <time>2026-08-14T05:17:08.376Z</time>
      </trkpt>
      <trkpt lat="45.85634" lon="6.77309">
        <ele>2063</ele>
        <time>2026-08-14T05:17:09.376Z</time>
      </trkpt>
      <trkpt lat="45.85633" lon="6.77308">
        <ele>2063</ele>
        <time>2026-08-14T05:17:10.376Z</time>
      </trkpt>
      <trkpt lat="45.85631" lon="6.77307">
        <ele>2063</ele>
        <time>2026-08-14T05:17:11.376Z</time>
      </trkpt>
      <trkpt lat="45.85629" lon="6.77306">
        <ele>2063</ele>
        <time>2026-08-14T05:17:12.376Z</time>
      </trkpt>
      <trkpt lat="45.85626" lon="6.77305">
        <ele>2062</ele>
        <time>2026-08-14T05:17:13.376Z</time>
      </trkpt>
      <trkpt lat="45.85624" lon="6.77304">
        <ele>2062</ele>
        <time>2026-08-14T05:17:14.376Z</time>
      </trkpt>
      <trkpt lat="45.85622" lon="6.77303">
        <ele>2061</ele>
        <time>2026-08-14T05:17:15.376Z</time>
      </trkpt>
      <trkpt lat="45.8562" lon="6.77303">
        <ele>2061</ele>
        <time>2026-08-14T05:17:16.376Z</time>
      </trkpt>
      <trkpt lat="45.85618" lon="6.77302">
        <ele>2061</ele>
        <time>2026-08-14T05:17:17.376Z</time>
      </trkpt>
      <trkpt lat="45.85616" lon="6.77301">
        <ele>2061</ele>
        <time>2026-08-14T05:17:18.376Z</time>
      </trkpt>
      <trkpt lat="45.85614" lon="6.773">
        <ele>2061</ele>
        <time>2026-08-14T05:17:19.376Z</time>
      </trkpt>
      <trkpt lat="45.85613" lon="6.77298">
        <ele>2060</ele>
        <time>2026-08-14T05:17:20.376Z</time>
      </trkpt>
      <trkpt lat="45.85611" lon="6.77297">
        <ele>2060</ele>
        <time>2026-08-14T05:17:21.376Z</time>
      </trkpt>
      <trkpt lat="45.8561" lon="6.77295">
        <ele>2060</ele>
        <time>2026-08-14T05:17:22.376Z</time>
      </trkpt>
      <trkpt lat="45.85609" lon="6.77294">
        <ele>2060</ele>
        <time>2026-08-14T05:17:23.376Z</time>
      </trkpt>
      <trkpt lat="45.85608" lon="6.77293">
        <ele>2060</ele>
        <time>2026-08-14T05:17:24.376Z</time>
      </trkpt>
      <trkpt lat="45.85606" lon="6.77293">
        <ele>2060</ele>
        <time>2026-08-14T05:17:25.376Z</time>
      </trkpt>
      <trkpt lat="45.85605" lon="6.77292">
        <ele>2060</ele>
        <time>2026-08-14T05:17:26.376Z</time>
      </trkpt>
      <trkpt lat="45.85603" lon="6.77291">
        <ele>2060</ele>
        <time>2026-08-14T05:17:27.376Z</time>
      </trkpt>
      <trkpt lat="45.85602" lon="6.7729">
        <ele>2061</ele>
        <time>2026-08-14T05:17:28.376Z</time>
      </trkpt>
      <trkpt lat="45.856" lon="6.77289">
        <ele>2061</ele>
        <time>2026-08-14T05:17:29.376Z</time>
      </trkpt>
      <trkpt lat="45.85598" lon="6.77287">
        <ele>2061</ele>
        <time>2026-08-14T05:17:30.376Z</time>
      </trkpt>
      <trkpt lat="45.85597" lon="6.77286">
        <ele>2062</ele>
        <time>2026-08-14T05:17:31.376Z</time>
      </trkpt>
      <trkpt lat="45.85595" lon="6.77285">
        <ele>2062</ele>
        <time>2026-08-14T05:17:32.376Z</time>
      </trkpt>
      <trkpt lat="45.85594" lon="6.77284">
        <ele>2062</ele>
        <time>2026-08-14T05:17:33.376Z</time>
      </trkpt>
      <trkpt lat="45.85592" lon="6.77283">
        <ele>2062</ele>
        <time>2026-08-14T05:17:34.376Z</time>
      </trkpt>
      <trkpt lat="45.8559" lon="6.77282">
        <ele>2062</ele>
        <time>2026-08-14T05:17:35.376Z</time>
      </trkpt>
      <trkpt lat="45.85588" lon="6.7728">
        <ele>2062</ele>
        <time>2026-08-14T05:17:36.376Z</time>
      </trkpt>
      <trkpt lat="45.85587" lon="6.77278">
        <ele>2062</ele>
        <time>2026-08-14T05:17:37.376Z</time>
      </trkpt>
      <trkpt lat="45.85585" lon="6.77277">
        <ele>2062</ele>
        <time>2026-08-14T05:17:38.376Z</time>
      </trkpt>
      <trkpt lat="45.85584" lon="6.77275">
        <ele>2062</ele>
        <time>2026-08-14T05:17:39.376Z</time>
      </trkpt>
      <trkpt lat="45.85583" lon="6.77275">
        <ele>2063</ele>
        <time>2026-08-14T05:17:40.376Z</time>
      </trkpt>
      <trkpt lat="45.85581" lon="6.77274">
        <ele>2063</ele>
        <time>2026-08-14T05:17:41.376Z</time>
      </trkpt>
      <trkpt lat="45.8558" lon="6.77272">
        <ele>2063</ele>
        <time>2026-08-14T05:17:42.376Z</time>
      </trkpt>
      <trkpt lat="45.85578" lon="6.77271">
        <ele>2063</ele>
        <time>2026-08-14T05:17:43.376Z</time>
      </trkpt>
      <trkpt lat="45.85577" lon="6.7727">
        <ele>2063</ele>
        <time>2026-08-14T05:17:44.376Z</time>
      </trkpt>
      <trkpt lat="45.85576" lon="6.77269">
        <ele>2063</ele>
        <time>2026-08-14T05:17:45.376Z</time>
      </trkpt>
      <trkpt lat="45.85574" lon="6.77267">
        <ele>2064</ele>
        <time>2026-08-14T05:17:46.376Z</time>
      </trkpt>
      <trkpt lat="45.85573" lon="6.77266">
        <ele>2064</ele>
        <time>2026-08-14T05:17:47.376Z</time>
      </trkpt>
      <trkpt lat="45.85572" lon="6.77265">
        <ele>2065</ele>
        <time>2026-08-14T05:17:48.376Z</time>
      </trkpt>
      <trkpt lat="45.8557" lon="6.77264">
        <ele>2065</ele>
        <time>2026-08-14T05:17:49.376Z</time>
      </trkpt>
      <trkpt lat="45.85569" lon="6.77263">
        <ele>2065</ele>
        <time>2026-08-14T05:17:50.376Z</time>
      </trkpt>
      <trkpt lat="45.85567" lon="6.77262">
        <ele>2066</ele>
        <time>2026-08-14T05:17:51.376Z</time>
      </trkpt>
      <trkpt lat="45.85565" lon="6.7726">
        <ele>2066</ele>
        <time>2026-08-14T05:17:52.376Z</time>
      </trkpt>
      <trkpt lat="45.85564" lon="6.77259">
        <ele>2066</ele>
        <time>2026-08-14T05:17:53.376Z</time>
      </trkpt>
      <trkpt lat="45.85562" lon="6.77257">
        <ele>2066</ele>
        <time>2026-08-14T05:17:54.376Z</time>
      </trkpt>
      <trkpt lat="45.85561" lon="6.77256">
        <ele>2066</ele>
        <time>2026-08-14T05:17:55.376Z</time>
      </trkpt>
      <trkpt lat="45.85559" lon="6.77255">
        <ele>2066</ele>
        <time>2026-08-14T05:17:56.376Z</time>
      </trkpt>
      <trkpt lat="45.85558" lon="6.77253">
        <ele>2066</ele>
        <time>2026-08-14T05:17:57.376Z</time>
      </trkpt>
      <trkpt lat="45.85557" lon="6.77252">
        <ele>2066</ele>
        <time>2026-08-14T05:17:58.376Z</time>
      </trkpt>
      <trkpt lat="45.85555" lon="6.77251">
        <ele>2066</ele>
        <time>2026-08-14T05:17:59.376Z</time>
      </trkpt>
      <trkpt lat="45.85554" lon="6.7725">
        <ele>2066</ele>
        <time>2026-08-14T05:18:00.376Z</time>
      </trkpt>
      <trkpt lat="45.85553" lon="6.77249">
        <ele>2066</ele>
        <time>2026-08-14T05:18:01.376Z</time>
      </trkpt>
      <trkpt lat="45.85551" lon="6.77248">
        <ele>2066</ele>
        <time>2026-08-14T05:18:02.376Z</time>
      </trkpt>
      <trkpt lat="45.8555" lon="6.77247">
        <ele>2067</ele>
        <time>2026-08-14T05:18:03.376Z</time>
      </trkpt>
      <trkpt lat="45.85548" lon="6.77246">
        <ele>2067</ele>
        <time>2026-08-14T05:18:04.376Z</time>
      </trkpt>
      <trkpt lat="45.85547" lon="6.77245">
        <ele>2068</ele>
        <time>2026-08-14T05:18:05.376Z</time>
      </trkpt>
      <trkpt lat="45.85545" lon="6.77243">
        <ele>2068</ele>
        <time>2026-08-14T05:18:06.376Z</time>
      </trkpt>
      <trkpt lat="45.85544" lon="6.77242">
        <ele>2068</ele>
        <time>2026-08-14T05:18:07.376Z</time>
      </trkpt>
      <trkpt lat="45.85543" lon="6.77241">
        <ele>2068</ele>
        <time>2026-08-14T05:18:08.376Z</time>
      </trkpt>
      <trkpt lat="45.85541" lon="6.7724">
        <ele>2068</ele>
        <time>2026-08-14T05:18:09.376Z</time>
      </trkpt>
      <trkpt lat="45.8554" lon="6.77239">
        <ele>2068</ele>
        <time>2026-08-14T05:18:10.376Z</time>
      </trkpt>
      <trkpt lat="45.85538" lon="6.77238">
        <ele>2069</ele>
        <time>2026-08-14T05:18:11.376Z</time>
      </trkpt>
      <trkpt lat="45.85537" lon="6.77237">
        <ele>2069</ele>
        <time>2026-08-14T05:18:12.376Z</time>
      </trkpt>
      <trkpt lat="45.85536" lon="6.77236">
        <ele>2069</ele>
        <time>2026-08-14T05:18:13.376Z</time>
      </trkpt>
      <trkpt lat="45.85534" lon="6.77234">
        <ele>2069</ele>
        <time>2026-08-14T05:18:14.376Z</time>
      </trkpt>
      <trkpt lat="45.85533" lon="6.77233">
        <ele>2070</ele>
        <time>2026-08-14T05:18:15.376Z</time>
      </trkpt>
      <trkpt lat="45.85531" lon="6.77232">
        <ele>2070</ele>
        <time>2026-08-14T05:18:16.376Z</time>
      </trkpt>
      <trkpt lat="45.8553" lon="6.77231">
        <ele>2070</ele>
        <time>2026-08-14T05:18:17.376Z</time>
      </trkpt>
      <trkpt lat="45.85528" lon="6.7723">
        <ele>2071</ele>
        <time>2026-08-14T05:18:18.376Z</time>
      </trkpt>
      <trkpt lat="45.85527" lon="6.77229">
        <ele>2071</ele>
        <time>2026-08-14T05:18:19.376Z</time>
      </trkpt>
      <trkpt lat="45.85525" lon="6.77228">
        <ele>2071</ele>
        <time>2026-08-14T05:18:20.376Z</time>
      </trkpt>
      <trkpt lat="45.85524" lon="6.77227">
        <ele>2071</ele>
        <time>2026-08-14T05:18:21.376Z</time>
      </trkpt>
      <trkpt lat="45.85522" lon="6.77227">
        <ele>2071</ele>
        <time>2026-08-14T05:18:22.376Z</time>
      </trkpt>
      <trkpt lat="45.8552" lon="6.77226">
        <ele>2072</ele>
        <time>2026-08-14T05:18:23.376Z</time>
      </trkpt>
      <trkpt lat="45.85519" lon="6.77225">
        <ele>2072</ele>
        <time>2026-08-14T05:18:24.376Z</time>
      </trkpt>
      <trkpt lat="45.85517" lon="6.77224">
        <ele>2072</ele>
        <time>2026-08-14T05:18:25.376Z</time>
      </trkpt>
      <trkpt lat="45.85516" lon="6.77223">
        <ele>2072</ele>
        <time>2026-08-14T05:18:26.376Z</time>
      </trkpt>
      <trkpt lat="45.85514" lon="6.77222">
        <ele>2072</ele>
        <time>2026-08-14T05:18:27.376Z</time>
      </trkpt>
      <trkpt lat="45.85512" lon="6.77221">
        <ele>2072</ele>
        <time>2026-08-14T05:18:28.376Z</time>
      </trkpt>
      <trkpt lat="45.85511" lon="6.7722">
        <ele>2072</ele>
        <time>2026-08-14T05:18:29.376Z</time>
      </trkpt>
      <trkpt lat="45.85509" lon="6.77219">
        <ele>2072</ele>
        <time>2026-08-14T05:18:30.376Z</time>
      </trkpt>
      <trkpt lat="45.85507" lon="6.77218">
        <ele>2072</ele>
        <time>2026-08-14T05:18:31.376Z</time>
      </trkpt>
      <trkpt lat="45.85506" lon="6.77218">
        <ele>2072</ele>
        <time>2026-08-14T05:18:32.376Z</time>
      </trkpt>
      <trkpt lat="45.85504" lon="6.77217">
        <ele>2072</ele>
        <time>2026-08-14T05:18:33.376Z</time>
      </trkpt>
      <trkpt lat="45.85503" lon="6.77216">
        <ele>2073</ele>
        <time>2026-08-14T05:18:34.376Z</time>
      </trkpt>
      <trkpt lat="45.85501" lon="6.77215">
        <ele>2073</ele>
        <time>2026-08-14T05:18:35.376Z</time>
      </trkpt>
      <trkpt lat="45.855" lon="6.77214">
        <ele>2073</ele>
        <time>2026-08-14T05:18:36.376Z</time>
      </trkpt>
      <trkpt lat="45.85498" lon="6.77213">
        <ele>2073</ele>
        <time>2026-08-14T05:18:37.376Z</time>
      </trkpt>
      <trkpt lat="45.85497" lon="6.77212">
        <ele>2073</ele>
        <time>2026-08-14T05:18:38.376Z</time>
      </trkpt>
      <trkpt lat="45.85495" lon="6.77211">
        <ele>2073</ele>
        <time>2026-08-14T05:18:39.376Z</time>
      </trkpt>
      <trkpt lat="45.85494" lon="6.7721">
        <ele>2073</ele>
        <time>2026-08-14T05:18:40.376Z</time>
      </trkpt>
      <trkpt lat="45.85492" lon="6.77209">
        <ele>2073</ele>
        <time>2026-08-14T05:18:41.376Z</time>
      </trkpt>
      <trkpt lat="45.85491" lon="6.77208">
        <ele>2074</ele>
        <time>2026-08-14T05:18:42.376Z</time>
      </trkpt>
      <trkpt lat="45.8549" lon="6.77207">
        <ele>2074</ele>
        <time>2026-08-14T05:18:43.376Z</time>
      </trkpt>
      <trkpt lat="45.85488" lon="6.77206">
        <ele>2074</ele>
        <time>2026-08-14T05:18:44.376Z</time>
      </trkpt>
      <trkpt lat="45.85487" lon="6.77205">
        <ele>2074</ele>
        <time>2026-08-14T05:18:45.376Z</time>
      </trkpt>
      <trkpt lat="45.85485" lon="6.77204">
        <ele>2074</ele>
        <time>2026-08-14T05:18:46.376Z</time>
      </trkpt>
      <trkpt lat="45.85484" lon="6.77203">
        <ele>2074</ele>
        <time>2026-08-14T05:18:47.376Z</time>
      </trkpt>
      <trkpt lat="45.85482" lon="6.77202">
        <ele>2074</ele>
        <time>2026-08-14T05:18:48.376Z</time>
      </trkpt>
      <trkpt lat="45.8548" lon="6.77201">
        <ele>2074</ele>
        <time>2026-08-14T05:18:49.376Z</time>
      </trkpt>
      <trkpt lat="45.85479" lon="6.77201">
        <ele>2074</ele>
        <time>2026-08-14T05:18:50.376Z</time>
      </trkpt>
      <trkpt lat="45.85477" lon="6.772">
        <ele>2074</ele>
        <time>2026-08-14T05:18:51.376Z</time>
      </trkpt>
      <trkpt lat="45.85475" lon="6.772">
        <ele>2074</ele>
        <time>2026-08-14T05:18:52.376Z</time>
      </trkpt>
      <trkpt lat="45.85473" lon="6.77199">
        <ele>2074</ele>
        <time>2026-08-14T05:18:53.376Z</time>
      </trkpt>
      <trkpt lat="45.85471" lon="6.77198">
        <ele>2074</ele>
        <time>2026-08-14T05:18:54.376Z</time>
      </trkpt>
      <trkpt lat="45.85469" lon="6.77198">
        <ele>2074</ele>
        <time>2026-08-14T05:18:55.376Z</time>
      </trkpt>
      <trkpt lat="45.85467" lon="6.77197">
        <ele>2074</ele>
        <time>2026-08-14T05:18:56.376Z</time>
      </trkpt>
      <trkpt lat="45.85466" lon="6.77197">
        <ele>2075</ele>
        <time>2026-08-14T05:18:57.376Z</time>
      </trkpt>
      <trkpt lat="45.85464" lon="6.77197">
        <ele>2075</ele>
        <time>2026-08-14T05:18:58.376Z</time>
      </trkpt>
      <trkpt lat="45.85462" lon="6.77196">
        <ele>2075</ele>
        <time>2026-08-14T05:18:59.376Z</time>
      </trkpt>
      <trkpt lat="45.8546" lon="6.77195">
        <ele>2075</ele>
        <time>2026-08-14T05:19:00.376Z</time>
      </trkpt>
      <trkpt lat="45.85458" lon="6.77195">
        <ele>2075</ele>
        <time>2026-08-14T05:19:01.376Z</time>
      </trkpt>
      <trkpt lat="45.85456" lon="6.77195">
        <ele>2075</ele>
        <time>2026-08-14T05:19:02.376Z</time>
      </trkpt>
      <trkpt lat="45.85455" lon="6.77195">
        <ele>2076</ele>
        <time>2026-08-14T05:19:03.376Z</time>
      </trkpt>
      <trkpt lat="45.85453" lon="6.77195">
        <ele>2076</ele>
        <time>2026-08-14T05:19:04.376Z</time>
      </trkpt>
      <trkpt lat="45.85451" lon="6.77195">
        <ele>2076</ele>
        <time>2026-08-14T05:19:05.376Z</time>
      </trkpt>
      <trkpt lat="45.8545" lon="6.77195">
        <ele>2077</ele>
        <time>2026-08-14T05:19:06.376Z</time>
      </trkpt>
      <trkpt lat="45.85448" lon="6.77194">
        <ele>2077</ele>
        <time>2026-08-14T05:19:07.376Z</time>
      </trkpt>
      <trkpt lat="45.85447" lon="6.77194">
        <ele>2077</ele>
        <time>2026-08-14T05:19:08.376Z</time>
      </trkpt>
      <trkpt lat="45.85446" lon="6.77194">
        <ele>2078</ele>
        <time>2026-08-14T05:19:09.376Z</time>
      </trkpt>
      <trkpt lat="45.85444" lon="6.77194">
        <ele>2078</ele>
        <time>2026-08-14T05:19:10.376Z</time>
      </trkpt>
      <trkpt lat="45.85442" lon="6.77195">
        <ele>2078</ele>
        <time>2026-08-14T05:19:11.376Z</time>
      </trkpt>
      <trkpt lat="45.8544" lon="6.77195">
        <ele>2078</ele>
        <time>2026-08-14T05:19:12.376Z</time>
      </trkpt>
      <trkpt lat="45.85438" lon="6.77195">
        <ele>2078</ele>
        <time>2026-08-14T05:19:13.376Z</time>
      </trkpt>
      <trkpt lat="45.85436" lon="6.77195">
        <ele>2077</ele>
        <time>2026-08-14T05:19:14.376Z</time>
      </trkpt>
      <trkpt lat="45.85435" lon="6.77195">
        <ele>2077</ele>
        <time>2026-08-14T05:19:15.376Z</time>
      </trkpt>
      <trkpt lat="45.85434" lon="6.77195">
        <ele>2077</ele>
        <time>2026-08-14T05:19:16.376Z</time>
      </trkpt>
      <trkpt lat="45.85432" lon="6.77195">
        <ele>2077</ele>
        <time>2026-08-14T05:19:17.376Z</time>
      </trkpt>
      <trkpt lat="45.85432" lon="6.77194">
        <ele>2078</ele>
        <time>2026-08-14T05:19:18.376Z</time>
      </trkpt>
      <trkpt lat="45.85431" lon="6.77193">
        <ele>2078</ele>
        <time>2026-08-14T05:19:19.376Z</time>
      </trkpt>
      <trkpt lat="45.8543" lon="6.77193">
        <ele>2078</ele>
        <time>2026-08-14T05:19:20.376Z</time>
      </trkpt>
      <trkpt lat="45.85429" lon="6.77193">
        <ele>2078</ele>
        <time>2026-08-14T05:19:21.376Z</time>
      </trkpt>
      <trkpt lat="45.85428" lon="6.77192">
        <ele>2078</ele>
        <time>2026-08-14T05:19:22.376Z</time>
      </trkpt>
      <trkpt lat="45.85427" lon="6.77192">
        <ele>2079</ele>
        <time>2026-08-14T05:19:23.376Z</time>
      </trkpt>
      <trkpt lat="45.85427" lon="6.77191">
        <ele>2079</ele>
        <time>2026-08-14T05:19:24.376Z</time>
      </trkpt>
      <trkpt lat="45.85426" lon="6.77191">
        <ele>2078</ele>
        <time>2026-08-14T05:19:25.376Z</time>
      </trkpt>
      <trkpt lat="45.85425" lon="6.7719">
        <ele>2078</ele>
        <time>2026-08-14T05:19:26.376Z</time>
      </trkpt>
      <trkpt lat="45.85424" lon="6.77189">
        <ele>2078</ele>
        <time>2026-08-14T05:19:27.376Z</time>
      </trkpt>
      <trkpt lat="45.85423" lon="6.77188">
        <ele>2079</ele>
        <time>2026-08-14T05:19:28.376Z</time>
      </trkpt>
      <trkpt lat="45.85423" lon="6.77187">
        <ele>2079</ele>
        <time>2026-08-14T05:19:29.376Z</time>
      </trkpt>
      <trkpt lat="45.85422" lon="6.77186">
        <ele>2080</ele>
        <time>2026-08-14T05:19:30.376Z</time>
      </trkpt>
      <trkpt lat="45.85421" lon="6.77186">
        <ele>2080</ele>
        <time>2026-08-14T05:19:31.376Z</time>
      </trkpt>
      <trkpt lat="45.8542" lon="6.77186">
        <ele>2081</ele>
        <time>2026-08-14T05:19:32.376Z</time>
      </trkpt>
      <trkpt lat="45.85419" lon="6.77185">
        <ele>2081</ele>
        <time>2026-08-14T05:19:33.376Z</time>
      </trkpt>
      <trkpt lat="45.85418" lon="6.77185">
        <ele>2081</ele>
        <time>2026-08-14T05:19:34.376Z</time>
      </trkpt>
      <trkpt lat="45.85417" lon="6.77184">
        <ele>2081</ele>
        <time>2026-08-14T05:19:35.376Z</time>
      </trkpt>
      <trkpt lat="45.85416" lon="6.77184">
        <ele>2081</ele>
        <time>2026-08-14T05:19:36.376Z</time>
      </trkpt>
      <trkpt lat="45.85415" lon="6.77183">
        <ele>2081</ele>
        <time>2026-08-14T05:19:37.376Z</time>
      </trkpt>
      <trkpt lat="45.85414" lon="6.77183">
        <ele>2081</ele>
        <time>2026-08-14T05:19:38.376Z</time>
      </trkpt>
      <trkpt lat="45.85413" lon="6.77183">
        <ele>2081</ele>
        <time>2026-08-14T05:19:39.376Z</time>
      </trkpt>
      <trkpt lat="45.85412" lon="6.77182">
        <ele>2081</ele>
        <time>2026-08-14T05:19:40.376Z</time>
      </trkpt>
      <trkpt lat="45.85411" lon="6.77182">
        <ele>2082</ele>
        <time>2026-08-14T05:19:41.376Z</time>
      </trkpt>
      <trkpt lat="45.85409" lon="6.77181">
        <ele>2082</ele>
        <time>2026-08-14T05:19:42.376Z</time>
      </trkpt>
      <trkpt lat="45.85408" lon="6.77181">
        <ele>2083</ele>
        <time>2026-08-14T05:19:43.376Z</time>
      </trkpt>
      <trkpt lat="45.85407" lon="6.7718">
        <ele>2083</ele>
        <time>2026-08-14T05:19:44.376Z</time>
      </trkpt>
      <trkpt lat="45.85405" lon="6.77179">
        <ele>2084</ele>
        <time>2026-08-14T05:19:45.376Z</time>
      </trkpt>
      <trkpt lat="45.85404" lon="6.77179">
        <ele>2084</ele>
        <time>2026-08-14T05:19:46.376Z</time>
      </trkpt>
      <trkpt lat="45.85402" lon="6.77178">
        <ele>2084</ele>
        <time>2026-08-14T05:19:47.376Z</time>
      </trkpt>
      <trkpt lat="45.85401" lon="6.77177">
        <ele>2084</ele>
        <time>2026-08-14T05:19:48.376Z</time>
      </trkpt>
      <trkpt lat="45.85399" lon="6.77177">
        <ele>2084</ele>
        <time>2026-08-14T05:19:49.376Z</time>
      </trkpt>
      <trkpt lat="45.85398" lon="6.77176">
        <ele>2084</ele>
        <time>2026-08-14T05:19:50.376Z</time>
      </trkpt>
      <trkpt lat="45.85396" lon="6.77176">
        <ele>2084</ele>
        <time>2026-08-14T05:19:51.376Z</time>
      </trkpt>
      <trkpt lat="45.85394" lon="6.77175">
        <ele>2084</ele>
        <time>2026-08-14T05:19:52.376Z</time>
      </trkpt>
      <trkpt lat="45.85393" lon="6.77175">
        <ele>2084</ele>
        <time>2026-08-14T05:19:53.376Z</time>
      </trkpt>
      <trkpt lat="45.85391" lon="6.77174">
        <ele>2084</ele>
        <time>2026-08-14T05:19:54.376Z</time>
      </trkpt>
      <trkpt lat="45.8539" lon="6.77173">
        <ele>2084</ele>
        <time>2026-08-14T05:19:55.376Z</time>
      </trkpt>
      <trkpt lat="45.85388" lon="6.77172">
        <ele>2085</ele>
        <time>2026-08-14T05:19:56.376Z</time>
      </trkpt>
      <trkpt lat="45.85387" lon="6.77171">
        <ele>2085</ele>
        <time>2026-08-14T05:19:57.376Z</time>
      </trkpt>
      <trkpt lat="45.85385" lon="6.7717">
        <ele>2085</ele>
        <time>2026-08-14T05:19:58.376Z</time>
      </trkpt>
      <trkpt lat="45.85384" lon="6.77169">
        <ele>2085</ele>
        <time>2026-08-14T05:19:59.376Z</time>
      </trkpt>
      <trkpt lat="45.85382" lon="6.77168">
        <ele>2085</ele>
        <time>2026-08-14T05:20:00.376Z</time>
      </trkpt>
      <trkpt lat="45.85381" lon="6.77167">
        <ele>2086</ele>
        <time>2026-08-14T05:20:01.376Z</time>
      </trkpt>
      <trkpt lat="45.8538" lon="6.77166">
        <ele>2086</ele>
        <time>2026-08-14T05:20:02.376Z</time>
      </trkpt>
      <trkpt lat="45.85378" lon="6.77165">
        <ele>2086</ele>
        <time>2026-08-14T05:20:03.376Z</time>
      </trkpt>
      <trkpt lat="45.85377" lon="6.77164">
        <ele>2086</ele>
        <time>2026-08-14T05:20:04.376Z</time>
      </trkpt>
      <trkpt lat="45.85375" lon="6.77163">
        <ele>2086</ele>
        <time>2026-08-14T05:20:05.376Z</time>
      </trkpt>
      <trkpt lat="45.85374" lon="6.77162">
        <ele>2087</ele>
        <time>2026-08-14T05:20:06.376Z</time>
      </trkpt>
      <trkpt lat="45.85373" lon="6.7716">
        <ele>2087</ele>
        <time>2026-08-14T05:20:07.376Z</time>
      </trkpt>
      <trkpt lat="45.85372" lon="6.77159">
        <ele>2087</ele>
        <time>2026-08-14T05:20:08.376Z</time>
      </trkpt>
      <trkpt lat="45.8537" lon="6.77158">
        <ele>2087</ele>
        <time>2026-08-14T05:20:09.376Z</time>
      </trkpt>
      <trkpt lat="45.85369" lon="6.77156">
        <ele>2087</ele>
        <time>2026-08-14T05:20:10.376Z</time>
      </trkpt>
      <trkpt lat="45.85368" lon="6.77155">
        <ele>2087</ele>
        <time>2026-08-14T05:20:11.376Z</time>
      </trkpt>
      <trkpt lat="45.85366" lon="6.77154">
        <ele>2087</ele>
        <time>2026-08-14T05:20:12.376Z</time>
      </trkpt>
      <trkpt lat="45.85365" lon="6.77152">
        <ele>2087</ele>
        <time>2026-08-14T05:20:13.376Z</time>
      </trkpt>
      <trkpt lat="45.85363" lon="6.77151">
        <ele>2087</ele>
        <time>2026-08-14T05:20:14.376Z</time>
      </trkpt>
      <trkpt lat="45.85362" lon="6.77149">
        <ele>2087</ele>
        <time>2026-08-14T05:20:15.376Z</time>
      </trkpt>
      <trkpt lat="45.8536" lon="6.77148">
        <ele>2087</ele>
        <time>2026-08-14T05:20:16.376Z</time>
      </trkpt>
      <trkpt lat="45.85359" lon="6.77147">
        <ele>2087</ele>
        <time>2026-08-14T05:20:17.376Z</time>
      </trkpt>
      <trkpt lat="45.85357" lon="6.77145">
        <ele>2088</ele>
        <time>2026-08-14T05:20:18.376Z</time>
      </trkpt>
      <trkpt lat="45.85356" lon="6.77144">
        <ele>2088</ele>
        <time>2026-08-14T05:20:19.376Z</time>
      </trkpt>
      <trkpt lat="45.85355" lon="6.77143">
        <ele>2088</ele>
        <time>2026-08-14T05:20:20.376Z</time>
      </trkpt>
      <trkpt lat="45.85353" lon="6.77142">
        <ele>2088</ele>
        <time>2026-08-14T05:20:21.376Z</time>
      </trkpt>
      <trkpt lat="45.85352" lon="6.77141">
        <ele>2089</ele>
        <time>2026-08-14T05:20:22.376Z</time>
      </trkpt>
      <trkpt lat="45.85351" lon="6.7714">
        <ele>2089</ele>
        <time>2026-08-14T05:20:23.376Z</time>
      </trkpt>
      <trkpt lat="45.85349" lon="6.77139">
        <ele>2089</ele>
        <time>2026-08-14T05:20:24.376Z</time>
      </trkpt>
      <trkpt lat="45.85348" lon="6.77138">
        <ele>2089</ele>
        <time>2026-08-14T05:20:25.376Z</time>
      </trkpt>
      <trkpt lat="45.85347" lon="6.77136">
        <ele>2089</ele>
        <time>2026-08-14T05:20:26.376Z</time>
      </trkpt>
      <trkpt lat="45.85345" lon="6.77135">
        <ele>2089</ele>
        <time>2026-08-14T05:20:27.376Z</time>
      </trkpt>
      <trkpt lat="45.85344" lon="6.77134">
        <ele>2089</ele>
        <time>2026-08-14T05:20:28.376Z</time>
      </trkpt>
      <trkpt lat="45.85343" lon="6.77133">
        <ele>2089</ele>
        <time>2026-08-14T05:20:29.376Z</time>
      </trkpt>
      <trkpt lat="45.85341" lon="6.77132">
        <ele>2089</ele>
        <time>2026-08-14T05:20:30.376Z</time>
      </trkpt>
      <trkpt lat="45.8534" lon="6.77131">
        <ele>2089</ele>
        <time>2026-08-14T05:20:31.376Z</time>
      </trkpt>
      <trkpt lat="45.85338" lon="6.7713">
        <ele>2089</ele>
        <time>2026-08-14T05:20:32.376Z</time>
      </trkpt>
      <trkpt lat="45.85337" lon="6.77129">
        <ele>2089</ele>
        <time>2026-08-14T05:20:33.376Z</time>
      </trkpt>
      <trkpt lat="45.85336" lon="6.77128">
        <ele>2090</ele>
        <time>2026-08-14T05:20:34.376Z</time>
      </trkpt>
      <trkpt lat="45.85334" lon="6.77127">
        <ele>2090</ele>
        <time>2026-08-14T05:20:35.376Z</time>
      </trkpt>
      <trkpt lat="45.85333" lon="6.77126">
        <ele>2090</ele>
        <time>2026-08-14T05:20:36.376Z</time>
      </trkpt>
      <trkpt lat="45.85332" lon="6.77125">
        <ele>2091</ele>
        <time>2026-08-14T05:20:37.376Z</time>
      </trkpt>
      <trkpt lat="45.8533" lon="6.77125">
        <ele>2091</ele>
        <time>2026-08-14T05:20:38.376Z</time>
      </trkpt>
      <trkpt lat="45.85329" lon="6.77124">
        <ele>2091</ele>
        <time>2026-08-14T05:20:39.376Z</time>
      </trkpt>
      <trkpt lat="45.85327" lon="6.77124">
        <ele>2091</ele>
        <time>2026-08-14T05:20:40.376Z</time>
      </trkpt>
      <trkpt lat="45.85326" lon="6.77123">
        <ele>2091</ele>
        <time>2026-08-14T05:20:41.376Z</time>
      </trkpt>
      <trkpt lat="45.85324" lon="6.77122">
        <ele>2091</ele>
        <time>2026-08-14T05:20:42.376Z</time>
      </trkpt>
      <trkpt lat="45.85323" lon="6.77122">
        <ele>2091</ele>
        <time>2026-08-14T05:20:43.376Z</time>
      </trkpt>
      <trkpt lat="45.85321" lon="6.77121">
        <ele>2092</ele>
        <time>2026-08-14T05:20:44.376Z</time>
      </trkpt>
      <trkpt lat="45.8532" lon="6.77121">
        <ele>2092</ele>
        <time>2026-08-14T05:20:45.376Z</time>
      </trkpt>
      <trkpt lat="45.85318" lon="6.7712">
        <ele>2092</ele>
        <time>2026-08-14T05:20:46.376Z</time>
      </trkpt>
      <trkpt lat="45.85316" lon="6.77119">
        <ele>2092</ele>
        <time>2026-08-14T05:20:47.376Z</time>
      </trkpt>
      <trkpt lat="45.85315" lon="6.77118">
        <ele>2092</ele>
        <time>2026-08-14T05:20:48.376Z</time>
      </trkpt>
      <trkpt lat="45.85313" lon="6.77118">
        <ele>2092</ele>
        <time>2026-08-14T05:20:49.376Z</time>
      </trkpt>
      <trkpt lat="45.85312" lon="6.77117">
        <ele>2092</ele>
        <time>2026-08-14T05:20:50.376Z</time>
      </trkpt>
      <trkpt lat="45.8531" lon="6.77117">
        <ele>2092</ele>
        <time>2026-08-14T05:20:51.376Z</time>
      </trkpt>
      <trkpt lat="45.85309" lon="6.77116">
        <ele>2093</ele>
        <time>2026-08-14T05:20:52.376Z</time>
      </trkpt>
      <trkpt lat="45.85307" lon="6.77116">
        <ele>2093</ele>
        <time>2026-08-14T05:20:53.376Z</time>
      </trkpt>
      <trkpt lat="45.85305" lon="6.77115">
        <ele>2093</ele>
        <time>2026-08-14T05:20:54.376Z</time>
      </trkpt>
      <trkpt lat="45.85303" lon="6.77114">
        <ele>2093</ele>
        <time>2026-08-14T05:20:55.376Z</time>
      </trkpt>
      <trkpt lat="45.85301" lon="6.77114">
        <ele>2093</ele>
        <time>2026-08-14T05:20:56.376Z</time>
      </trkpt>
      <trkpt lat="45.853" lon="6.77113">
        <ele>2094</ele>
        <time>2026-08-14T05:20:57.376Z</time>
      </trkpt>
      <trkpt lat="45.85298" lon="6.77112">
        <ele>2094</ele>
        <time>2026-08-14T05:20:58.376Z</time>
      </trkpt>
      <trkpt lat="45.85296" lon="6.77111">
        <ele>2094</ele>
        <time>2026-08-14T05:20:59.376Z</time>
      </trkpt>
      <trkpt lat="45.85294" lon="6.77111">
        <ele>2095</ele>
        <time>2026-08-14T05:21:00.376Z</time>
      </trkpt>
      <trkpt lat="45.85293" lon="6.7711">
        <ele>2095</ele>
        <time>2026-08-14T05:21:01.376Z</time>
      </trkpt>
      <trkpt lat="45.85292" lon="6.7711">
        <ele>2095</ele>
        <time>2026-08-14T05:21:02.376Z</time>
      </trkpt>
      <trkpt lat="45.8529" lon="6.77109">
        <ele>2095</ele>
        <time>2026-08-14T05:21:03.376Z</time>
      </trkpt>
      <trkpt lat="45.85288" lon="6.77109">
        <ele>2096</ele>
        <time>2026-08-14T05:21:04.376Z</time>
      </trkpt>
      <trkpt lat="45.85287" lon="6.77109">
        <ele>2096</ele>
        <time>2026-08-14T05:21:05.376Z</time>
      </trkpt>
      <trkpt lat="45.85285" lon="6.77109">
        <ele>2097</ele>
        <time>2026-08-14T05:21:06.376Z</time>
      </trkpt>
      <trkpt lat="45.85283" lon="6.77108">
        <ele>2097</ele>
        <time>2026-08-14T05:21:07.376Z</time>
      </trkpt>
      <trkpt lat="45.85281" lon="6.77108">
        <ele>2097</ele>
        <time>2026-08-14T05:21:08.376Z</time>
      </trkpt>
      <trkpt lat="45.8528" lon="6.77107">
        <ele>2096</ele>
        <time>2026-08-14T05:21:09.376Z</time>
      </trkpt>
      <trkpt lat="45.85279" lon="6.77107">
        <ele>2096</ele>
        <time>2026-08-14T05:21:10.376Z</time>
      </trkpt>
      <trkpt lat="45.85277" lon="6.77106">
        <ele>2096</ele>
        <time>2026-08-14T05:21:11.376Z</time>
      </trkpt>
      <trkpt lat="45.85276" lon="6.77106">
        <ele>2096</ele>
        <time>2026-08-14T05:21:12.376Z</time>
      </trkpt>
      <trkpt lat="45.85274" lon="6.77105">
        <ele>2096</ele>
        <time>2026-08-14T05:21:13.376Z</time>
      </trkpt>
      <trkpt lat="45.85272" lon="6.77105">
        <ele>2096</ele>
        <time>2026-08-14T05:21:14.376Z</time>
      </trkpt>
      <trkpt lat="45.85271" lon="6.77104">
        <ele>2096</ele>
        <time>2026-08-14T05:21:15.376Z</time>
      </trkpt>
      <trkpt lat="45.85269" lon="6.77103">
        <ele>2096</ele>
        <time>2026-08-14T05:21:16.376Z</time>
      </trkpt>
      <trkpt lat="45.85268" lon="6.77103">
        <ele>2096</ele>
        <time>2026-08-14T05:21:17.376Z</time>
      </trkpt>
      <trkpt lat="45.85266" lon="6.77102">
        <ele>2096</ele>
        <time>2026-08-14T05:21:18.376Z</time>
      </trkpt>
      <trkpt lat="45.85264" lon="6.77102">
        <ele>2096</ele>
        <time>2026-08-14T05:21:19.376Z</time>
      </trkpt>
      <trkpt lat="45.85262" lon="6.77101">
        <ele>2096</ele>
        <time>2026-08-14T05:21:20.376Z</time>
      </trkpt>
      <trkpt lat="45.85261" lon="6.77101">
        <ele>2096</ele>
        <time>2026-08-14T05:21:21.376Z</time>
      </trkpt>
      <trkpt lat="45.85259" lon="6.771">
        <ele>2096</ele>
        <time>2026-08-14T05:21:22.376Z</time>
      </trkpt>
      <trkpt lat="45.85258" lon="6.77099">
        <ele>2096</ele>
        <time>2026-08-14T05:21:23.376Z</time>
      </trkpt>
      <trkpt lat="45.85256" lon="6.77099">
        <ele>2097</ele>
        <time>2026-08-14T05:21:24.376Z</time>
      </trkpt>
      <trkpt lat="45.85255" lon="6.77098">
        <ele>2097</ele>
        <time>2026-08-14T05:21:25.376Z</time>
      </trkpt>
      <trkpt lat="45.85253" lon="6.77097">
        <ele>2097</ele>
        <time>2026-08-14T05:21:26.376Z</time>
      </trkpt>
      <trkpt lat="45.85252" lon="6.77097">
        <ele>2097</ele>
        <time>2026-08-14T05:21:27.376Z</time>
      </trkpt>
      <trkpt lat="45.8525" lon="6.77096">
        <ele>2097</ele>
        <time>2026-08-14T05:21:28.376Z</time>
      </trkpt>
      <trkpt lat="45.85248" lon="6.77095">
        <ele>2097</ele>
        <time>2026-08-14T05:21:29.376Z</time>
      </trkpt>
      <trkpt lat="45.85247" lon="6.77095">
        <ele>2097</ele>
        <time>2026-08-14T05:21:30.376Z</time>
      </trkpt>
      <trkpt lat="45.85245" lon="6.77094">
        <ele>2097</ele>
        <time>2026-08-14T05:21:31.376Z</time>
      </trkpt>
      <trkpt lat="45.85244" lon="6.77093">
        <ele>2097</ele>
        <time>2026-08-14T05:21:32.376Z</time>
      </trkpt>
      <trkpt lat="45.85242" lon="6.77092">
        <ele>2097</ele>
        <time>2026-08-14T05:21:33.376Z</time>
      </trkpt>
      <trkpt lat="45.85241" lon="6.77092">
        <ele>2098</ele>
        <time>2026-08-14T05:21:34.376Z</time>
      </trkpt>
      <trkpt lat="45.85239" lon="6.77091">
        <ele>2098</ele>
        <time>2026-08-14T05:21:35.376Z</time>
      </trkpt>
      <trkpt lat="45.85238" lon="6.7709">
        <ele>2098</ele>
        <time>2026-08-14T05:21:36.376Z</time>
      </trkpt>
      <trkpt lat="45.85236" lon="6.77089">
        <ele>2098</ele>
        <time>2026-08-14T05:21:37.376Z</time>
      </trkpt>
      <trkpt lat="45.85234" lon="6.77089">
        <ele>2098</ele>
        <time>2026-08-14T05:21:38.376Z</time>
      </trkpt>
      <trkpt lat="45.85233" lon="6.77088">
        <ele>2098</ele>
        <time>2026-08-14T05:21:39.376Z</time>
      </trkpt>
      <trkpt lat="45.85231" lon="6.77087">
        <ele>2099</ele>
        <time>2026-08-14T05:21:40.376Z</time>
      </trkpt>
      <trkpt lat="45.8523" lon="6.77086">
        <ele>2099</ele>
        <time>2026-08-14T05:21:41.376Z</time>
      </trkpt>
      <trkpt lat="45.85229" lon="6.77085">
        <ele>2099</ele>
        <time>2026-08-14T05:21:42.376Z</time>
      </trkpt>
      <trkpt lat="45.85227" lon="6.77084">
        <ele>2100</ele>
        <time>2026-08-14T05:21:43.376Z</time>
      </trkpt>
      <trkpt lat="45.85226" lon="6.77083">
        <ele>2101</ele>
        <time>2026-08-14T05:21:44.376Z</time>
      </trkpt>
      <trkpt lat="45.85224" lon="6.77082">
        <ele>2101</ele>
        <time>2026-08-14T05:21:45.376Z</time>
      </trkpt>
      <trkpt lat="45.85223" lon="6.77081">
        <ele>2101</ele>
        <time>2026-08-14T05:21:46.376Z</time>
      </trkpt>
      <trkpt lat="45.85222" lon="6.77081">
        <ele>2101</ele>
        <time>2026-08-14T05:21:47.376Z</time>
      </trkpt>
      <trkpt lat="45.8522" lon="6.7708">
        <ele>2102</ele>
        <time>2026-08-14T05:21:48.376Z</time>
      </trkpt>
      <trkpt lat="45.85219" lon="6.77079">
        <ele>2102</ele>
        <time>2026-08-14T05:21:49.376Z</time>
      </trkpt>
      <trkpt lat="45.85217" lon="6.77078">
        <ele>2102</ele>
        <time>2026-08-14T05:21:50.376Z</time>
      </trkpt>
      <trkpt lat="45.85216" lon="6.77078">
        <ele>2102</ele>
        <time>2026-08-14T05:21:51.376Z</time>
      </trkpt>
      <trkpt lat="45.85214" lon="6.77077">
        <ele>2102</ele>
        <time>2026-08-14T05:21:52.376Z</time>
      </trkpt>
      <trkpt lat="45.85213" lon="6.77076">
        <ele>2102</ele>
        <time>2026-08-14T05:21:53.376Z</time>
      </trkpt>
      <trkpt lat="45.85211" lon="6.77074">
        <ele>2102</ele>
        <time>2026-08-14T05:21:54.376Z</time>
      </trkpt>
      <trkpt lat="45.8521" lon="6.77073">
        <ele>2102</ele>
        <time>2026-08-14T05:21:55.376Z</time>
      </trkpt>
      <trkpt lat="45.85208" lon="6.77072">
        <ele>2102</ele>
        <time>2026-08-14T05:21:56.376Z</time>
      </trkpt>
      <trkpt lat="45.85207" lon="6.77072">
        <ele>2102</ele>
        <time>2026-08-14T05:21:57.376Z</time>
      </trkpt>
      <trkpt lat="45.85205" lon="6.7707">
        <ele>2102</ele>
        <time>2026-08-14T05:21:58.376Z</time>
      </trkpt>
      <trkpt lat="45.85204" lon="6.77069">
        <ele>2103</ele>
        <time>2026-08-14T05:21:59.376Z</time>
      </trkpt>
      <trkpt lat="45.85202" lon="6.77069">
        <ele>2103</ele>
        <time>2026-08-14T05:22:00.376Z</time>
      </trkpt>
      <trkpt lat="45.85201" lon="6.77067">
        <ele>2103</ele>
        <time>2026-08-14T05:22:01.376Z</time>
      </trkpt>
      <trkpt lat="45.85199" lon="6.77066">
        <ele>2103</ele>
        <time>2026-08-14T05:22:02.376Z</time>
      </trkpt>
      <trkpt lat="45.85198" lon="6.77065">
        <ele>2103</ele>
        <time>2026-08-14T05:22:03.376Z</time>
      </trkpt>
      <trkpt lat="45.85197" lon="6.77064">
        <ele>2104</ele>
        <time>2026-08-14T05:22:04.376Z</time>
      </trkpt>
      <trkpt lat="45.85195" lon="6.77063">
        <ele>2104</ele>
        <time>2026-08-14T05:22:05.376Z</time>
      </trkpt>
      <trkpt lat="45.85194" lon="6.77062">
        <ele>2104</ele>
        <time>2026-08-14T05:22:06.376Z</time>
      </trkpt>
      <trkpt lat="45.85192" lon="6.77061">
        <ele>2105</ele>
        <time>2026-08-14T05:22:07.376Z</time>
      </trkpt>
      <trkpt lat="45.8519" lon="6.7706">
        <ele>2105</ele>
        <time>2026-08-14T05:22:08.376Z</time>
      </trkpt>
      <trkpt lat="45.85189" lon="6.77059">
        <ele>2105</ele>
        <time>2026-08-14T05:22:09.376Z</time>
      </trkpt>
      <trkpt lat="45.85188" lon="6.77058">
        <ele>2105</ele>
        <time>2026-08-14T05:22:10.376Z</time>
      </trkpt>
      <trkpt lat="45.85186" lon="6.77057">
        <ele>2106</ele>
        <time>2026-08-14T05:22:11.376Z</time>
      </trkpt>
      <trkpt lat="45.85185" lon="6.77056">
        <ele>2106</ele>
        <time>2026-08-14T05:22:12.376Z</time>
      </trkpt>
      <trkpt lat="45.85183" lon="6.77055">
        <ele>2106</ele>
        <time>2026-08-14T05:22:13.376Z</time>
      </trkpt>
      <trkpt lat="45.85182" lon="6.77054">
        <ele>2106</ele>
        <time>2026-08-14T05:22:14.376Z</time>
      </trkpt>
      <trkpt lat="45.8518" lon="6.77053">
        <ele>2106</ele>
        <time>2026-08-14T05:22:15.376Z</time>
      </trkpt>
      <trkpt lat="45.85179" lon="6.77052">
        <ele>2107</ele>
        <time>2026-08-14T05:22:16.376Z</time>
      </trkpt>
      <trkpt lat="45.85177" lon="6.77051">
        <ele>2107</ele>
        <time>2026-08-14T05:22:17.376Z</time>
      </trkpt>
      <trkpt lat="45.85176" lon="6.7705">
        <ele>2107</ele>
        <time>2026-08-14T05:22:18.376Z</time>
      </trkpt>
      <trkpt lat="45.85175" lon="6.77049">
        <ele>2107</ele>
        <time>2026-08-14T05:22:19.376Z</time>
      </trkpt>
      <trkpt lat="45.85173" lon="6.77048">
        <ele>2107</ele>
        <time>2026-08-14T05:22:20.376Z</time>
      </trkpt>
      <trkpt lat="45.85171" lon="6.77048">
        <ele>2108</ele>
        <time>2026-08-14T05:22:21.376Z</time>
      </trkpt>
      <trkpt lat="45.8517" lon="6.77047">
        <ele>2108</ele>
        <time>2026-08-14T05:22:22.376Z</time>
      </trkpt>
      <trkpt lat="45.85168" lon="6.77046">
        <ele>2108</ele>
        <time>2026-08-14T05:22:23.376Z</time>
      </trkpt>
      <trkpt lat="45.85167" lon="6.77046">
        <ele>2108</ele>
        <time>2026-08-14T05:22:24.376Z</time>
      </trkpt>
      <trkpt lat="45.85165" lon="6.77045">
        <ele>2108</ele>
        <time>2026-08-14T05:22:25.376Z</time>
      </trkpt>
      <trkpt lat="45.85164" lon="6.77044">
        <ele>2108</ele>
        <time>2026-08-14T05:22:26.376Z</time>
      </trkpt>
      <trkpt lat="45.85163" lon="6.77043">
        <ele>2108</ele>
        <time>2026-08-14T05:22:27.376Z</time>
      </trkpt>
      <trkpt lat="45.85161" lon="6.77042">
        <ele>2108</ele>
        <time>2026-08-14T05:22:28.376Z</time>
      </trkpt>
      <trkpt lat="45.85159" lon="6.77041">
        <ele>2108</ele>
        <time>2026-08-14T05:22:29.376Z</time>
      </trkpt>
      <trkpt lat="45.85158" lon="6.77041">
        <ele>2108</ele>
        <time>2026-08-14T05:22:30.376Z</time>
      </trkpt>
      <trkpt lat="45.85157" lon="6.7704">
        <ele>2108</ele>
        <time>2026-08-14T05:22:31.376Z</time>
      </trkpt>
      <trkpt lat="45.85155" lon="6.77039">
        <ele>2108</ele>
        <time>2026-08-14T05:22:32.376Z</time>
      </trkpt>
      <trkpt lat="45.85154" lon="6.77039">
        <ele>2108</ele>
        <time>2026-08-14T05:22:33.376Z</time>
      </trkpt>
      <trkpt lat="45.85152" lon="6.77038">
        <ele>2108</ele>
        <time>2026-08-14T05:22:34.376Z</time>
      </trkpt>
      <trkpt lat="45.8515" lon="6.77037">
        <ele>2108</ele>
        <time>2026-08-14T05:22:35.376Z</time>
      </trkpt>
      <trkpt lat="45.85148" lon="6.77037">
        <ele>2108</ele>
        <time>2026-08-14T05:22:36.376Z</time>
      </trkpt>
      <trkpt lat="45.85147" lon="6.77036">
        <ele>2108</ele>
        <time>2026-08-14T05:22:37.376Z</time>
      </trkpt>
      <trkpt lat="45.85145" lon="6.77035">
        <ele>2109</ele>
        <time>2026-08-14T05:22:38.376Z</time>
      </trkpt>
      <trkpt lat="45.85144" lon="6.77034">
        <ele>2109</ele>
        <time>2026-08-14T05:22:39.376Z</time>
      </trkpt>
      <trkpt lat="45.85142" lon="6.77033">
        <ele>2109</ele>
        <time>2026-08-14T05:22:40.376Z</time>
      </trkpt>
      <trkpt lat="45.85141" lon="6.77032">
        <ele>2109</ele>
        <time>2026-08-14T05:22:41.376Z</time>
      </trkpt>
      <trkpt lat="45.85139" lon="6.77031">
        <ele>2110</ele>
        <time>2026-08-14T05:22:42.376Z</time>
      </trkpt>
      <trkpt lat="45.85138" lon="6.77031">
        <ele>2110</ele>
        <time>2026-08-14T05:22:43.376Z</time>
      </trkpt>
      <trkpt lat="45.85136" lon="6.7703">
        <ele>2110</ele>
        <time>2026-08-14T05:22:44.376Z</time>
      </trkpt>
      <trkpt lat="45.85134" lon="6.7703">
        <ele>2110</ele>
        <time>2026-08-14T05:22:45.376Z</time>
      </trkpt>
      <trkpt lat="45.85132" lon="6.77029">
        <ele>2110</ele>
        <time>2026-08-14T05:22:46.376Z</time>
      </trkpt>
      <trkpt lat="45.85131" lon="6.77029">
        <ele>2110</ele>
        <time>2026-08-14T05:22:47.376Z</time>
      </trkpt>
      <trkpt lat="45.85129" lon="6.77029">
        <ele>2111</ele>
        <time>2026-08-14T05:22:48.376Z</time>
      </trkpt>
      <trkpt lat="45.85127" lon="6.77029">
        <ele>2111</ele>
        <time>2026-08-14T05:22:49.376Z</time>
      </trkpt>
      <trkpt lat="45.85125" lon="6.77028">
        <ele>2111</ele>
        <time>2026-08-14T05:22:50.376Z</time>
      </trkpt>
      <trkpt lat="45.85124" lon="6.77028">
        <ele>2111</ele>
        <time>2026-08-14T05:22:51.376Z</time>
      </trkpt>
      <trkpt lat="45.85122" lon="6.77028">
        <ele>2111</ele>
        <time>2026-08-14T05:22:52.376Z</time>
      </trkpt>
      <trkpt lat="45.8512" lon="6.77027">
        <ele>2112</ele>
        <time>2026-08-14T05:22:53.376Z</time>
      </trkpt>
      <trkpt lat="45.85119" lon="6.77026">
        <ele>2112</ele>
        <time>2026-08-14T05:22:54.376Z</time>
      </trkpt>
      <trkpt lat="45.85117" lon="6.77025">
        <ele>2113</ele>
        <time>2026-08-14T05:22:55.376Z</time>
      </trkpt>
      <trkpt lat="45.85115" lon="6.77024">
        <ele>2113</ele>
        <time>2026-08-14T05:22:56.376Z</time>
      </trkpt>
      <trkpt lat="45.85114" lon="6.77023">
        <ele>2113</ele>
        <time>2026-08-14T05:22:57.376Z</time>
      </trkpt>
      <trkpt lat="45.85112" lon="6.77022">
        <ele>2114</ele>
        <time>2026-08-14T05:22:58.376Z</time>
      </trkpt>
      <trkpt lat="45.85111" lon="6.77021">
        <ele>2114</ele>
        <time>2026-08-14T05:22:59.376Z</time>
      </trkpt>
      <trkpt lat="45.85109" lon="6.7702">
        <ele>2115</ele>
        <time>2026-08-14T05:23:00.376Z</time>
      </trkpt>
      <trkpt lat="45.85107" lon="6.77019">
        <ele>2116</ele>
        <time>2026-08-14T05:23:01.376Z</time>
      </trkpt>
      <trkpt lat="45.85106" lon="6.77019">
        <ele>2116</ele>
        <time>2026-08-14T05:23:02.376Z</time>
      </trkpt>
      <trkpt lat="45.85104" lon="6.77018">
        <ele>2116</ele>
        <time>2026-08-14T05:23:03.376Z</time>
      </trkpt>
      <trkpt lat="45.85103" lon="6.77017">
        <ele>2116</ele>
        <time>2026-08-14T05:23:04.376Z</time>
      </trkpt>
      <trkpt lat="45.85101" lon="6.77017">
        <ele>2116</ele>
        <time>2026-08-14T05:23:05.376Z</time>
      </trkpt>
      <trkpt lat="45.851" lon="6.77016">
        <ele>2116</ele>
        <time>2026-08-14T05:23:06.376Z</time>
      </trkpt>
      <trkpt lat="45.85098" lon="6.77015">
        <ele>2116</ele>
        <time>2026-08-14T05:23:07.376Z</time>
      </trkpt>
      <trkpt lat="45.85097" lon="6.77014">
        <ele>2116</ele>
        <time>2026-08-14T05:23:08.376Z</time>
      </trkpt>
      <trkpt lat="45.85095" lon="6.77014">
        <ele>2116</ele>
        <time>2026-08-14T05:23:09.376Z</time>
      </trkpt>
      <trkpt lat="45.85094" lon="6.77013">
        <ele>2116</ele>
        <time>2026-08-14T05:23:10.376Z</time>
      </trkpt>
      <trkpt lat="45.85092" lon="6.77012">
        <ele>2116</ele>
        <time>2026-08-14T05:23:11.376Z</time>
      </trkpt>
      <trkpt lat="45.8509" lon="6.77012">
        <ele>2116</ele>
        <time>2026-08-14T05:23:12.376Z</time>
      </trkpt>
      <trkpt lat="45.85089" lon="6.77011">
        <ele>2116</ele>
        <time>2026-08-14T05:23:13.376Z</time>
      </trkpt>
      <trkpt lat="45.85087" lon="6.77011">
        <ele>2117</ele>
        <time>2026-08-14T05:23:14.376Z</time>
      </trkpt>
      <trkpt lat="45.85086" lon="6.7701">
        <ele>2117</ele>
        <time>2026-08-14T05:23:15.376Z</time>
      </trkpt>
      <trkpt lat="45.85084" lon="6.7701">
        <ele>2117</ele>
        <time>2026-08-14T05:23:16.376Z</time>
      </trkpt>
      <trkpt lat="45.85082" lon="6.77009">
        <ele>2117</ele>
        <time>2026-08-14T05:23:17.376Z</time>
      </trkpt>
      <trkpt lat="45.8508" lon="6.77008">
        <ele>2118</ele>
        <time>2026-08-14T05:23:18.376Z</time>
      </trkpt>
      <trkpt lat="45.85079" lon="6.77008">
        <ele>2118</ele>
        <time>2026-08-14T05:23:19.376Z</time>
      </trkpt>
      <trkpt lat="45.85077" lon="6.77007">
        <ele>2118</ele>
        <time>2026-08-14T05:23:20.376Z</time>
      </trkpt>
      <trkpt lat="45.85075" lon="6.77007">
        <ele>2118</ele>
        <time>2026-08-14T05:23:21.376Z</time>
      </trkpt>
      <trkpt lat="45.85074" lon="6.77006">
        <ele>2119</ele>
        <time>2026-08-14T05:23:22.376Z</time>
      </trkpt>
      <trkpt lat="45.85072" lon="6.77006">
        <ele>2119</ele>
        <time>2026-08-14T05:23:23.376Z</time>
      </trkpt>
      <trkpt lat="45.8507" lon="6.77006">
        <ele>2119</ele>
        <time>2026-08-14T05:23:24.376Z</time>
      </trkpt>
      <trkpt lat="45.85069" lon="6.77006">
        <ele>2119</ele>
        <time>2026-08-14T05:23:25.376Z</time>
      </trkpt>
      <trkpt lat="45.85067" lon="6.77005">
        <ele>2119</ele>
        <time>2026-08-14T05:23:26.376Z</time>
      </trkpt>
      <trkpt lat="45.85066" lon="6.77004">
        <ele>2119</ele>
        <time>2026-08-14T05:23:27.376Z</time>
      </trkpt>
      <trkpt lat="45.85064" lon="6.77004">
        <ele>2120</ele>
        <time>2026-08-14T05:23:28.376Z</time>
      </trkpt>
      <trkpt lat="45.85062" lon="6.77003">
        <ele>2120</ele>
        <time>2026-08-14T05:23:29.376Z</time>
      </trkpt>
      <trkpt lat="45.85061" lon="6.77003">
        <ele>2120</ele>
        <time>2026-08-14T05:23:30.376Z</time>
      </trkpt>
      <trkpt lat="45.85059" lon="6.77004">
        <ele>2120</ele>
        <time>2026-08-14T05:23:31.376Z</time>
      </trkpt>
      <trkpt lat="45.85057" lon="6.77003">
        <ele>2120</ele>
        <time>2026-08-14T05:23:32.376Z</time>
      </trkpt>
      <trkpt lat="45.85055" lon="6.77003">
        <ele>2121</ele>
        <time>2026-08-14T05:23:33.376Z</time>
      </trkpt>
      <trkpt lat="45.85054" lon="6.77002">
        <ele>2121</ele>
        <time>2026-08-14T05:23:34.376Z</time>
      </trkpt>
      <trkpt lat="45.85052" lon="6.77002">
        <ele>2121</ele>
        <time>2026-08-14T05:23:35.376Z</time>
      </trkpt>
      <trkpt lat="45.85051" lon="6.77001">
        <ele>2122</ele>
        <time>2026-08-14T05:23:36.376Z</time>
      </trkpt>
      <trkpt lat="45.8505" lon="6.77">
        <ele>2122</ele>
        <time>2026-08-14T05:23:37.376Z</time>
      </trkpt>
      <trkpt lat="45.85048" lon="6.77">
        <ele>2122</ele>
        <time>2026-08-14T05:23:38.376Z</time>
      </trkpt>
      <trkpt lat="45.85047" lon="6.76999">
        <ele>2122</ele>
        <time>2026-08-14T05:23:39.376Z</time>
      </trkpt>
      <trkpt lat="45.85045" lon="6.76999">
        <ele>2122</ele>
        <time>2026-08-14T05:23:40.376Z</time>
      </trkpt>
      <trkpt lat="45.85044" lon="6.76999">
        <ele>2123</ele>
        <time>2026-08-14T05:23:41.376Z</time>
      </trkpt>
      <trkpt lat="45.85042" lon="6.76999">
        <ele>2123</ele>
        <time>2026-08-14T05:23:42.376Z</time>
      </trkpt>
      <trkpt lat="45.85041" lon="6.77">
        <ele>2123</ele>
        <time>2026-08-14T05:23:43.376Z</time>
      </trkpt>
      <trkpt lat="45.8504" lon="6.77001">
        <ele>2123</ele>
        <time>2026-08-14T05:23:44.376Z</time>
      </trkpt>
      <trkpt lat="45.85039" lon="6.77001">
        <ele>2123</ele>
        <time>2026-08-14T05:23:45.376Z</time>
      </trkpt>
      <trkpt lat="45.85039" lon="6.77001">
        <ele>2123</ele>
        <time>2026-08-14T05:23:46.376Z</time>
      </trkpt>
      <trkpt lat="45.85038" lon="6.77001">
        <ele>2123</ele>
        <time>2026-08-14T05:23:47.376Z</time>
      </trkpt>
      <trkpt lat="45.85038" lon="6.77001">
        <ele>2124</ele>
        <time>2026-08-14T05:23:48.376Z</time>
      </trkpt>
      <trkpt lat="45.85038" lon="6.77">
        <ele>2124</ele>
        <time>2026-08-14T05:23:49.376Z</time>
      </trkpt>
      <trkpt lat="45.85038" lon="6.76999">
        <ele>2124</ele>
        <time>2026-08-14T05:23:50.376Z</time>
      </trkpt>
      <trkpt lat="45.85038" lon="6.76998">
        <ele>2124</ele>
        <time>2026-08-14T05:23:51.376Z</time>
      </trkpt>
      <trkpt lat="45.85038" lon="6.76997">
        <ele>2124</ele>
        <time>2026-08-14T05:23:52.376Z</time>
      </trkpt>
      <trkpt lat="45.85037" lon="6.76997">
        <ele>2125</ele>
        <time>2026-08-14T05:23:53.376Z</time>
      </trkpt>
      <trkpt lat="45.85036" lon="6.76997">
        <ele>2125</ele>
        <time>2026-08-14T05:23:54.376Z</time>
      </trkpt>
      <trkpt lat="45.85035" lon="6.76997">
        <ele>2125</ele>
        <time>2026-08-14T05:23:55.376Z</time>
      </trkpt>
      <trkpt lat="45.85035" lon="6.76997">
        <ele>2126</ele>
        <time>2026-08-14T05:23:56.376Z</time>
      </trkpt>
      <trkpt lat="45.85035" lon="6.76997">
        <ele>2126</ele>
        <time>2026-08-14T05:23:57.376Z</time>
      </trkpt>
      <trkpt lat="45.85036" lon="6.76997">
        <ele>2126</ele>
        <time>2026-08-14T05:23:58.376Z</time>
      </trkpt>
      <trkpt lat="45.85037" lon="6.76997">
        <ele>2127</ele>
        <time>2026-08-14T05:23:59.376Z</time>
      </trkpt>
      <trkpt lat="45.85037" lon="6.76998">
        <ele>2127</ele>
        <time>2026-08-14T05:24:00.376Z</time>
      </trkpt>
      <trkpt lat="45.85037" lon="6.76998">
        <ele>2127</ele>
        <time>2026-08-14T05:24:01.376Z</time>
      </trkpt>
      <trkpt lat="45.85036" lon="6.76998">
        <ele>2127</ele>
        <time>2026-08-14T05:24:02.376Z</time>
      </trkpt>
      <trkpt lat="45.85035" lon="6.76999">
        <ele>2127</ele>
        <time>2026-08-14T05:24:03.376Z</time>
      </trkpt>
      <trkpt lat="45.85034" lon="6.76999">
        <ele>2127</ele>
        <time>2026-08-14T05:24:04.376Z</time>
      </trkpt>
      <trkpt lat="45.85034" lon="6.77">
        <ele>2127</ele>
        <time>2026-08-14T05:24:05.376Z</time>
      </trkpt>
      <trkpt lat="45.85033" lon="6.77">
        <ele>2127</ele>
        <time>2026-08-14T05:24:06.376Z</time>
      </trkpt>
      <trkpt lat="45.85033" lon="6.76999">
        <ele>2127</ele>
        <time>2026-08-14T05:24:07.376Z</time>
      </trkpt>
      <trkpt lat="45.85033" lon="6.77">
        <ele>2127</ele>
        <time>2026-08-14T05:24:08.376Z</time>
      </trkpt>
      <trkpt lat="45.85032" lon="6.77">
        <ele>2126</ele>
        <time>2026-08-14T05:24:09.376Z</time>
      </trkpt>
      <trkpt lat="45.85032" lon="6.77">
        <ele>2126</ele>
        <time>2026-08-14T05:24:10.376Z</time>
      </trkpt>
      <trkpt lat="45.85031" lon="6.77">
        <ele>2125</ele>
        <time>2026-08-14T05:24:11.376Z</time>
      </trkpt>
      <trkpt lat="45.85031" lon="6.77">
        <ele>2125</ele>
        <time>2026-08-14T05:24:12.376Z</time>
      </trkpt>
      <trkpt lat="45.8503" lon="6.77001">
        <ele>2125</ele>
        <time>2026-08-14T05:24:13.376Z</time>
      </trkpt>
      <trkpt lat="45.8503" lon="6.77001">
        <ele>2125</ele>
        <time>2026-08-14T05:24:14.376Z</time>
      </trkpt>
      <trkpt lat="45.85029" lon="6.77001">
        <ele>2125</ele>
        <time>2026-08-14T05:24:15.376Z</time>
      </trkpt>
      <trkpt lat="45.85029" lon="6.77002">
        <ele>2125</ele>
        <time>2026-08-14T05:24:16.376Z</time>
      </trkpt>
      <trkpt lat="45.85028" lon="6.77003">
        <ele>2125</ele>
        <time>2026-08-14T05:24:17.376Z</time>
      </trkpt>
      <trkpt lat="45.85027" lon="6.77004">
        <ele>2125</ele>
        <time>2026-08-14T05:24:18.376Z</time>
      </trkpt>
      <trkpt lat="45.85026" lon="6.77005">
        <ele>2125</ele>
        <time>2026-08-14T05:24:19.376Z</time>
      </trkpt>
      <trkpt lat="45.85025" lon="6.77006">
        <ele>2124</ele>
        <time>2026-08-14T05:24:20.376Z</time>
      </trkpt>
      <trkpt lat="45.85024" lon="6.77007">
        <ele>2124</ele>
        <time>2026-08-14T05:24:21.376Z</time>
      </trkpt>
      <trkpt lat="45.85024" lon="6.77009">
        <ele>2123</ele>
        <time>2026-08-14T05:24:22.377Z</time>
      </trkpt>
      <trkpt lat="45.85023" lon="6.7701">
        <ele>2123</ele>
        <time>2026-08-14T05:24:23.376Z</time>
      </trkpt>
      <trkpt lat="45.85022" lon="6.77012">
        <ele>2123</ele>
        <time>2026-08-14T05:24:24.376Z</time>
      </trkpt>
      <trkpt lat="45.85021" lon="6.77014">
        <ele>2122</ele>
        <time>2026-08-14T05:24:25.376Z</time>
      </trkpt>
      <trkpt lat="45.85021" lon="6.77014">
        <ele>2122</ele>
        <time>2026-08-14T05:24:26.376Z</time>
      </trkpt>
      <trkpt lat="45.85021" lon="6.77015">
        <ele>2122</ele>
        <time>2026-08-14T05:24:27.376Z</time>
      </trkpt>
      <trkpt lat="45.8502" lon="6.77015">
        <ele>2122</ele>
        <time>2026-08-14T05:24:28.376Z</time>
      </trkpt>
      <trkpt lat="45.8502" lon="6.77016">
        <ele>2122</ele>
        <time>2026-08-14T05:24:29.376Z</time>
      </trkpt>
      <trkpt lat="45.8502" lon="6.77017">
        <ele>2122</ele>
        <time>2026-08-14T05:24:30.376Z</time>
      </trkpt>
      <trkpt lat="45.85019" lon="6.77017">
        <ele>2122</ele>
        <time>2026-08-14T05:24:31.376Z</time>
      </trkpt>
      <trkpt lat="45.85019" lon="6.77017">
        <ele>2122</ele>
        <time>2026-08-14T05:24:32.376Z</time>
      </trkpt>
      <trkpt lat="45.85019" lon="6.77018">
        <ele>2122</ele>
        <time>2026-08-14T05:24:33.376Z</time>
      </trkpt>
      <trkpt lat="45.85019" lon="6.77018">
        <ele>2122</ele>
        <time>2026-08-14T05:24:34.376Z</time>
      </trkpt>
      <trkpt lat="45.85018" lon="6.77018">
        <ele>2122</ele>
        <time>2026-08-14T05:24:35.376Z</time>
      </trkpt>
      <trkpt lat="45.85018" lon="6.77019">
        <ele>2123</ele>
        <time>2026-08-14T05:24:36.376Z</time>
      </trkpt>
      <trkpt lat="45.85018" lon="6.77019">
        <ele>2123</ele>
        <time>2026-08-14T05:24:37.376Z</time>
      </trkpt>
      <trkpt lat="45.85018" lon="6.77021">
        <ele>2122</ele>
        <time>2026-08-14T05:24:38.376Z</time>
      </trkpt>
      <trkpt lat="45.85017" lon="6.77022">
        <ele>2122</ele>
        <time>2026-08-14T05:24:39.376Z</time>
      </trkpt>
      <trkpt lat="45.85017" lon="6.77023">
        <ele>2122</ele>
        <time>2026-08-14T05:24:40.376Z</time>
      </trkpt>
      <trkpt lat="45.85016" lon="6.77025">
        <ele>2122</ele>
        <time>2026-08-14T05:24:41.376Z</time>
      </trkpt>
      <trkpt lat="45.85015" lon="6.77024">
        <ele>2122</ele>
        <time>2026-08-14T05:24:42.376Z</time>
      </trkpt>
      <trkpt lat="45.85014" lon="6.77023">
        <ele>2122</ele>
        <time>2026-08-14T05:24:43.376Z</time>
      </trkpt>
      <trkpt lat="45.85014" lon="6.77022">
        <ele>2121</ele>
        <time>2026-08-14T05:24:44.376Z</time>
      </trkpt>
      <trkpt lat="45.85013" lon="6.77021">
        <ele>2121</ele>
        <time>2026-08-14T05:24:45.376Z</time>
      </trkpt>
      <trkpt lat="45.85013" lon="6.77019">
        <ele>2121</ele>
        <time>2026-08-14T05:24:46.376Z</time>
      </trkpt>
      <trkpt lat="45.85013" lon="6.77017">
        <ele>2120</ele>
        <time>2026-08-14T05:24:47.376Z</time>
      </trkpt>
      <trkpt lat="45.85013" lon="6.77014">
        <ele>2120</ele>
        <time>2026-08-14T05:24:48.376Z</time>
      </trkpt>
      <trkpt lat="45.85013" lon="6.77013">
        <ele>2119</ele>
        <time>2026-08-14T05:24:49.376Z</time>
      </trkpt>
      <trkpt lat="45.85012" lon="6.77011">
        <ele>2119</ele>
        <time>2026-08-14T05:24:50.376Z</time>
      </trkpt>
      <trkpt lat="45.85012" lon="6.77009">
        <ele>2118</ele>
        <time>2026-08-14T05:24:51.376Z</time>
      </trkpt>
      <trkpt lat="45.85011" lon="6.77008">
        <ele>2117</ele>
        <time>2026-08-14T05:24:52.376Z</time>
      </trkpt>
      <trkpt lat="45.8501" lon="6.77007">
        <ele>2116</ele>
        <time>2026-08-14T05:24:53.376Z</time>
      </trkpt>
      <trkpt lat="45.85009" lon="6.77007">
        <ele>2116</ele>
        <time>2026-08-14T05:24:54.376Z</time>
      </trkpt>
      <trkpt lat="45.85008" lon="6.77007">
        <ele>2116</ele>
        <time>2026-08-14T05:24:55.376Z</time>
      </trkpt>
      <trkpt lat="45.85008" lon="6.77009">
        <ele>2115</ele>
        <time>2026-08-14T05:24:56.376Z</time>
      </trkpt>
      <trkpt lat="45.85007" lon="6.7701">
        <ele>2115</ele>
        <time>2026-08-14T05:24:57.376Z</time>
      </trkpt>
      <trkpt lat="45.85007" lon="6.77012">
        <ele>2114</ele>
        <time>2026-08-14T05:24:58.376Z</time>
      </trkpt>
      <trkpt lat="45.85006" lon="6.77014">
        <ele>2114</ele>
        <time>2026-08-14T05:24:59.376Z</time>
      </trkpt>
      <trkpt lat="45.85005" lon="6.77015">
        <ele>2114</ele>
        <time>2026-08-14T05:25:00.376Z</time>
      </trkpt>
      <trkpt lat="45.85004" lon="6.77015">
        <ele>2113</ele>
        <time>2026-08-14T05:25:01.376Z</time>
      </trkpt>
      <trkpt lat="45.85003" lon="6.77016">
        <ele>2113</ele>
        <time>2026-08-14T05:25:02.376Z</time>
      </trkpt>
      <trkpt lat="45.85002" lon="6.77017">
        <ele>2113</ele>
        <time>2026-08-14T05:25:03.376Z</time>
      </trkpt>
      <trkpt lat="45.85001" lon="6.77016">
        <ele>2113</ele>
        <time>2026-08-14T05:25:04.376Z</time>
      </trkpt>
      <trkpt lat="45.85" lon="6.77015">
        <ele>2112</ele>
        <time>2026-08-14T05:25:05.376Z</time>
      </trkpt>
      <trkpt lat="45.85" lon="6.77014">
        <ele>2112</ele>
        <time>2026-08-14T05:25:06.376Z</time>
      </trkpt>
      <trkpt lat="45.85" lon="6.77012">
        <ele>2111</ele>
        <time>2026-08-14T05:25:07.376Z</time>
      </trkpt>
      <trkpt lat="45.85" lon="6.77011">
        <ele>2111</ele>
        <time>2026-08-14T05:25:08.376Z</time>
      </trkpt>
      <trkpt lat="45.84999" lon="6.77009">
        <ele>2111</ele>
        <time>2026-08-14T05:25:09.376Z</time>
      </trkpt>
      <trkpt lat="45.84998" lon="6.77007">
        <ele>2110</ele>
        <time>2026-08-14T05:25:10.376Z</time>
      </trkpt>
      <trkpt lat="45.84997" lon="6.77006">
        <ele>2110</ele>
        <time>2026-08-14T05:25:11.376Z</time>
      </trkpt>
      <trkpt lat="45.84996" lon="6.77004">
        <ele>2110</ele>
        <time>2026-08-14T05:25:12.376Z</time>
      </trkpt>
      <trkpt lat="45.84996" lon="6.77001">
        <ele>2110</ele>
        <time>2026-08-14T05:25:13.376Z</time>
      </trkpt>
      <trkpt lat="45.84995" lon="6.76999">
        <ele>2110</ele>
        <time>2026-08-14T05:25:14.376Z</time>
      </trkpt>
      <trkpt lat="45.84995" lon="6.76997">
        <ele>2110</ele>
        <time>2026-08-14T05:25:15.376Z</time>
      </trkpt>
      <trkpt lat="45.84996" lon="6.76995">
        <ele>2109</ele>
        <time>2026-08-14T05:25:16.376Z</time>
      </trkpt>
      <trkpt lat="45.84997" lon="6.76993">
        <ele>2109</ele>
        <time>2026-08-14T05:25:17.376Z</time>
      </trkpt>
      <trkpt lat="45.84998" lon="6.76992">
        <ele>2108</ele>
        <time>2026-08-14T05:25:18.376Z</time>
      </trkpt>
      <trkpt lat="45.84998" lon="6.76991">
        <ele>2107</ele>
        <time>2026-08-14T05:25:19.376Z</time>
      </trkpt>
      <trkpt lat="45.84998" lon="6.7699">
        <ele>2107</ele>
        <time>2026-08-14T05:25:20.376Z</time>
      </trkpt>
      <trkpt lat="45.84997" lon="6.76989">
        <ele>2107</ele>
        <time>2026-08-14T05:25:21.376Z</time>
      </trkpt>
      <trkpt lat="45.84997" lon="6.76987">
        <ele>2106</ele>
        <time>2026-08-14T05:25:22.376Z</time>
      </trkpt>
      <trkpt lat="45.84997" lon="6.76985">
        <ele>2106</ele>
        <time>2026-08-14T05:25:23.376Z</time>
      </trkpt>
      <trkpt lat="45.84998" lon="6.76982">
        <ele>2106</ele>
        <time>2026-08-14T05:25:24.376Z</time>
      </trkpt>
      <trkpt lat="45.85" lon="6.7698">
        <ele>2105</ele>
        <time>2026-08-14T05:25:25.376Z</time>
      </trkpt>
      <trkpt lat="45.85001" lon="6.76978">
        <ele>2105</ele>
        <time>2026-08-14T05:25:26.376Z</time>
      </trkpt>
      <trkpt lat="45.85003" lon="6.76976">
        <ele>2105</ele>
        <time>2026-08-14T05:25:27.376Z</time>
      </trkpt>
      <trkpt lat="45.85004" lon="6.76974">
        <ele>2104</ele>
        <time>2026-08-14T05:25:28.376Z</time>
      </trkpt>
      <trkpt lat="45.85005" lon="6.76972">
        <ele>2104</ele>
        <time>2026-08-14T05:25:29.376Z</time>
      </trkpt>
      <trkpt lat="45.85005" lon="6.7697">
        <ele>2104</ele>
        <time>2026-08-14T05:25:30.376Z</time>
      </trkpt>
      <trkpt lat="45.85006" lon="6.76968">
        <ele>2104</ele>
        <time>2026-08-14T05:25:31.376Z</time>
      </trkpt>
      <trkpt lat="45.85006" lon="6.76966">
        <ele>2104</ele>
        <time>2026-08-14T05:25:32.376Z</time>
      </trkpt>
      <trkpt lat="45.85006" lon="6.76964">
        <ele>2104</ele>
        <time>2026-08-14T05:25:33.376Z</time>
      </trkpt>
      <trkpt lat="45.85007" lon="6.76962">
        <ele>2104</ele>
        <time>2026-08-14T05:25:34.376Z</time>
      </trkpt>
      <trkpt lat="45.85007" lon="6.7696">
        <ele>2104</ele>
        <time>2026-08-14T05:25:35.376Z</time>
      </trkpt>
      <trkpt lat="45.85008" lon="6.76958">
        <ele>2104</ele>
        <time>2026-08-14T05:25:36.376Z</time>
      </trkpt>
      <trkpt lat="45.85009" lon="6.76956">
        <ele>2103</ele>
        <time>2026-08-14T05:25:37.376Z</time>
      </trkpt>
      <trkpt lat="45.85009" lon="6.76955">
        <ele>2103</ele>
        <time>2026-08-14T05:25:38.376Z</time>
      </trkpt>
      <trkpt lat="45.8501" lon="6.76953">
        <ele>2103</ele>
        <time>2026-08-14T05:25:39.376Z</time>
      </trkpt>
      <trkpt lat="45.8501" lon="6.76951">
        <ele>2102</ele>
        <time>2026-08-14T05:25:40.376Z</time>
      </trkpt>
      <trkpt lat="45.8501" lon="6.76949">
        <ele>2102</ele>
        <time>2026-08-14T05:25:41.376Z</time>
      </trkpt>
      <trkpt lat="45.85009" lon="6.76948">
        <ele>2101</ele>
        <time>2026-08-14T05:25:42.376Z</time>
      </trkpt>
      <trkpt lat="45.85008" lon="6.76948">
        <ele>2101</ele>
        <time>2026-08-14T05:25:43.376Z</time>
      </trkpt>
      <trkpt lat="45.85007" lon="6.76947">
        <ele>2101</ele>
        <time>2026-08-14T05:25:44.376Z</time>
      </trkpt>
      <trkpt lat="45.85006" lon="6.76948">
        <ele>2101</ele>
        <time>2026-08-14T05:25:45.376Z</time>
      </trkpt>
      <trkpt lat="45.85004" lon="6.76949">
        <ele>2100</ele>
        <time>2026-08-14T05:25:46.376Z</time>
      </trkpt>
      <trkpt lat="45.85002" lon="6.7695">
        <ele>2100</ele>
        <time>2026-08-14T05:25:47.376Z</time>
      </trkpt>
      <trkpt lat="45.85001" lon="6.76951">
        <ele>2099</ele>
        <time>2026-08-14T05:25:48.376Z</time>
      </trkpt>
      <trkpt lat="45.85" lon="6.76952">
        <ele>2099</ele>
        <time>2026-08-14T05:25:49.376Z</time>
      </trkpt>
      <trkpt lat="45.84998" lon="6.76953">
        <ele>2098</ele>
        <time>2026-08-14T05:25:50.376Z</time>
      </trkpt>
      <trkpt lat="45.84997" lon="6.76954">
        <ele>2098</ele>
        <time>2026-08-14T05:25:51.376Z</time>
      </trkpt>
      <trkpt lat="45.84996" lon="6.76954">
        <ele>2097</ele>
        <time>2026-08-14T05:25:52.376Z</time>
      </trkpt>
      <trkpt lat="45.84996" lon="6.76955">
        <ele>2097</ele>
        <time>2026-08-14T05:25:53.376Z</time>
      </trkpt>
      <trkpt lat="45.84995" lon="6.76955">
        <ele>2096</ele>
        <time>2026-08-14T05:25:54.376Z</time>
      </trkpt>
      <trkpt lat="45.84994" lon="6.76956">
        <ele>2096</ele>
        <time>2026-08-14T05:25:55.376Z</time>
      </trkpt>
      <trkpt lat="45.84994" lon="6.76956">
        <ele>2095</ele>
        <time>2026-08-14T05:25:56.376Z</time>
      </trkpt>
      <trkpt lat="45.84994" lon="6.76956">
        <ele>2094</ele>
        <time>2026-08-14T05:25:57.376Z</time>
      </trkpt>
      <trkpt lat="45.84994" lon="6.76955">
        <ele>2094</ele>
        <time>2026-08-14T05:25:58.376Z</time>
      </trkpt>
      <trkpt lat="45.84994" lon="6.76955">
        <ele>2093</ele>
        <time>2026-08-14T05:25:59.376Z</time>
      </trkpt>
      <trkpt lat="45.84994" lon="6.76955">
        <ele>2092</ele>
        <time>2026-08-14T05:26:00.376Z</time>
      </trkpt>
      <trkpt lat="45.84994" lon="6.76955">
        <ele>2091</ele>
        <time>2026-08-14T05:26:01.376Z</time>
      </trkpt>
      <trkpt lat="45.84994" lon="6.76955">
        <ele>2090</ele>
        <time>2026-08-14T05:26:02.376Z</time>
      </trkpt>
      <trkpt lat="45.84994" lon="6.76955">
        <ele>2089</ele>
        <time>2026-08-14T05:26:03.376Z</time>
      </trkpt>
      <trkpt lat="45.84994" lon="6.76955">
        <ele>2089</ele>
        <time>2026-08-14T05:26:04.376Z</time>
      </trkpt>
      <trkpt lat="45.84994" lon="6.76955">
        <ele>2088</ele>
        <time>2026-08-14T05:26:05.376Z</time>
      </trkpt>
      <trkpt lat="45.84994" lon="6.76955">
        <ele>2087</ele>
        <time>2026-08-14T05:26:06.376Z</time>
      </trkpt>
      <trkpt lat="45.84993" lon="6.76955">
        <ele>2087</ele>
        <time>2026-08-14T05:26:07.376Z</time>
      </trkpt>
      <trkpt lat="45.84993" lon="6.76955">
        <ele>2088</ele>
        <time>2026-08-14T05:26:08.376Z</time>
      </trkpt>
      <trkpt lat="45.84993" lon="6.76955">
        <ele>2088</ele>
        <time>2026-08-14T05:26:09.376Z</time>
      </trkpt>
      <trkpt lat="45.84993" lon="6.76955">
        <ele>2088</ele>
        <time>2026-08-14T05:26:10.376Z</time>
      </trkpt>
      <trkpt lat="45.84993" lon="6.76955">
        <ele>2088</ele>
        <time>2026-08-14T05:26:11.376Z</time>
      </trkpt>
      <trkpt lat="45.84993" lon="6.76955">
        <ele>2088</ele>
        <time>2026-08-14T05:26:12.376Z</time>
      </trkpt>
      <trkpt lat="45.84993" lon="6.76955">
        <ele>2088</ele>
        <time>2026-08-14T05:26:13.376Z</time>
      </trkpt>
      <trkpt lat="45.84993" lon="6.76955">
        <ele>2088</ele>
        <time>2026-08-14T05:26:14.376Z</time>
      </trkpt>
      <trkpt lat="45.84993" lon="6.76955">
        <ele>2088</ele>
        <time>2026-08-14T05:26:15.376Z</time>
      </trkpt>
      <trkpt lat="45.84993" lon="6.76955">
        <ele>2088</ele>
        <time>2026-08-14T05:26:16.376Z</time>
      </trkpt>
      <trkpt lat="45.84993" lon="6.76955">
        <ele>2088</ele>
        <time>2026-08-14T05:26:17.376Z</time>
      </trkpt>
      <trkpt lat="45.84993" lon="6.76956">
        <ele>2088</ele>
        <time>2026-08-14T05:26:18.376Z</time>
      </trkpt>
      <trkpt lat="45.84992" lon="6.76956">
        <ele>2088</ele>
        <time>2026-08-14T05:26:19.376Z</time>
      </trkpt>
      <trkpt lat="45.84991" lon="6.76957">
        <ele>2087</ele>
        <time>2026-08-14T05:26:20.376Z</time>
      </trkpt>
      <trkpt lat="45.8499" lon="6.76958">
        <ele>2087</ele>
        <time>2026-08-14T05:26:21.376Z</time>
      </trkpt>
      <trkpt lat="45.84989" lon="6.76959">
        <ele>2087</ele>
        <time>2026-08-14T05:26:22.376Z</time>
      </trkpt>
      <trkpt lat="45.84987" lon="6.7696">
        <ele>2087</ele>
        <time>2026-08-14T05:26:23.376Z</time>
      </trkpt>
      <trkpt lat="45.84986" lon="6.76961">
        <ele>2086</ele>
        <time>2026-08-14T05:26:24.376Z</time>
      </trkpt>
      <trkpt lat="45.84985" lon="6.76961">
        <ele>2086</ele>
        <time>2026-08-14T05:26:25.376Z</time>
      </trkpt>
      <trkpt lat="45.84983" lon="6.76962">
        <ele>2086</ele>
        <time>2026-08-14T05:26:26.376Z</time>
      </trkpt>
      <trkpt lat="45.84982" lon="6.76963">
        <ele>2086</ele>
        <time>2026-08-14T05:26:27.376Z</time>
      </trkpt>
      <trkpt lat="45.84981" lon="6.76963">
        <ele>2086</ele>
        <time>2026-08-14T05:26:28.376Z</time>
      </trkpt>
      <trkpt lat="45.8498" lon="6.76964">
        <ele>2086</ele>
        <time>2026-08-14T05:26:29.376Z</time>
      </trkpt>
      <trkpt lat="45.84979" lon="6.76965">
        <ele>2086</ele>
        <time>2026-08-14T05:26:30.376Z</time>
      </trkpt>
      <trkpt lat="45.84978" lon="6.76966">
        <ele>2085</ele>
        <time>2026-08-14T05:26:31.376Z</time>
      </trkpt>
      <trkpt lat="45.84978" lon="6.76967">
        <ele>2086</ele>
        <time>2026-08-14T05:26:32.376Z</time>
      </trkpt>
      <trkpt lat="45.84977" lon="6.76968">
        <ele>2086</ele>
        <time>2026-08-14T05:26:33.376Z</time>
      </trkpt>
      <trkpt lat="45.84976" lon="6.76969">
        <ele>2086</ele>
        <time>2026-08-14T05:26:34.376Z</time>
      </trkpt>
      <trkpt lat="45.84974" lon="6.7697">
        <ele>2086</ele>
        <time>2026-08-14T05:26:35.376Z</time>
      </trkpt>
      <trkpt lat="45.84973" lon="6.76971">
        <ele>2087</ele>
        <time>2026-08-14T05:26:36.376Z</time>
      </trkpt>
      <trkpt lat="45.84971" lon="6.76971">
        <ele>2087</ele>
        <time>2026-08-14T05:26:37.376Z</time>
      </trkpt>
      <trkpt lat="45.8497" lon="6.76971">
        <ele>2088</ele>
        <time>2026-08-14T05:26:38.376Z</time>
      </trkpt>
      <trkpt lat="45.8497" lon="6.7697">
        <ele>2088</ele>
        <time>2026-08-14T05:26:39.376Z</time>
      </trkpt>
      <trkpt lat="45.8497" lon="6.76968">
        <ele>2088</ele>
        <time>2026-08-14T05:26:40.376Z</time>
      </trkpt>
      <trkpt lat="45.8497" lon="6.76967">
        <ele>2087</ele>
        <time>2026-08-14T05:26:41.376Z</time>
      </trkpt>
      <trkpt lat="45.8497" lon="6.76966">
        <ele>2087</ele>
        <time>2026-08-14T05:26:42.376Z</time>
      </trkpt>
      <trkpt lat="45.84969" lon="6.76964">
        <ele>2086</ele>
        <time>2026-08-14T05:26:43.376Z</time>
      </trkpt>
      <trkpt lat="45.84969" lon="6.76962">
        <ele>2086</ele>
        <time>2026-08-14T05:26:44.376Z</time>
      </trkpt>
      <trkpt lat="45.84969" lon="6.76961">
        <ele>2086</ele>
        <time>2026-08-14T05:26:45.376Z</time>
      </trkpt>
      <trkpt lat="45.84968" lon="6.76958">
        <ele>2086</ele>
        <time>2026-08-14T05:26:46.376Z</time>
      </trkpt>
      <trkpt lat="45.84968" lon="6.76957">
        <ele>2085</ele>
        <time>2026-08-14T05:26:47.376Z</time>
      </trkpt>
      <trkpt lat="45.84967" lon="6.76955">
        <ele>2085</ele>
        <time>2026-08-14T05:26:48.376Z</time>
      </trkpt>
      <trkpt lat="45.84967" lon="6.76953">
        <ele>2085</ele>
        <time>2026-08-14T05:26:49.376Z</time>
      </trkpt>
      <trkpt lat="45.84966" lon="6.76952">
        <ele>2085</ele>
        <time>2026-08-14T05:26:50.376Z</time>
      </trkpt>
      <trkpt lat="45.84965" lon="6.7695">
        <ele>2085</ele>
        <time>2026-08-14T05:26:51.376Z</time>
      </trkpt>
      <trkpt lat="45.84965" lon="6.76949">
        <ele>2085</ele>
        <time>2026-08-14T05:26:52.376Z</time>
      </trkpt>
      <trkpt lat="45.84964" lon="6.76947">
        <ele>2085</ele>
        <time>2026-08-14T05:26:53.376Z</time>
      </trkpt>
      <trkpt lat="45.84964" lon="6.76946">
        <ele>2085</ele>
        <time>2026-08-14T05:26:54.376Z</time>
      </trkpt>
      <trkpt lat="45.84964" lon="6.76944">
        <ele>2084</ele>
        <time>2026-08-14T05:26:55.376Z</time>
      </trkpt>
      <trkpt lat="45.84964" lon="6.76941">
        <ele>2084</ele>
        <time>2026-08-14T05:26:56.376Z</time>
      </trkpt>
      <trkpt lat="45.84965" lon="6.7694">
        <ele>2083</ele>
        <time>2026-08-14T05:26:57.376Z</time>
      </trkpt>
      <trkpt lat="45.84965" lon="6.76938">
        <ele>2083</ele>
        <time>2026-08-14T05:26:58.376Z</time>
      </trkpt>
      <trkpt lat="45.84964" lon="6.76937">
        <ele>2082</ele>
        <time>2026-08-14T05:26:59.376Z</time>
      </trkpt>
      <trkpt lat="45.84964" lon="6.76936">
        <ele>2081</ele>
        <time>2026-08-14T05:27:00.376Z</time>
      </trkpt>
      <trkpt lat="45.84964" lon="6.76936">
        <ele>2081</ele>
        <time>2026-08-14T05:27:01.376Z</time>
      </trkpt>
      <trkpt lat="45.84964" lon="6.76936">
        <ele>2080</ele>
        <time>2026-08-14T05:27:02.376Z</time>
      </trkpt>
      <trkpt lat="45.84963" lon="6.76937">
        <ele>2080</ele>
        <time>2026-08-14T05:27:03.376Z</time>
      </trkpt>
      <trkpt lat="45.84962" lon="6.76938">
        <ele>2079</ele>
        <time>2026-08-14T05:27:04.376Z</time>
      </trkpt>
      <trkpt lat="45.84962" lon="6.76939">
        <ele>2079</ele>
        <time>2026-08-14T05:27:05.376Z</time>
      </trkpt>
      <trkpt lat="45.84961" lon="6.76941">
        <ele>2078</ele>
        <time>2026-08-14T05:27:06.376Z</time>
      </trkpt>
      <trkpt lat="45.8496" lon="6.76942">
        <ele>2078</ele>
        <time>2026-08-14T05:27:07.376Z</time>
      </trkpt>
      <trkpt lat="45.84959" lon="6.76942">
        <ele>2078</ele>
        <time>2026-08-14T05:27:08.376Z</time>
      </trkpt>
      <trkpt lat="45.84957" lon="6.76943">
        <ele>2078</ele>
        <time>2026-08-14T05:27:09.376Z</time>
      </trkpt>
      <trkpt lat="45.84956" lon="6.76944">
        <ele>2077</ele>
        <time>2026-08-14T05:27:10.376Z</time>
      </trkpt>
      <trkpt lat="45.84955" lon="6.76945">
        <ele>2077</ele>
        <time>2026-08-14T05:27:11.376Z</time>
      </trkpt>
      <trkpt lat="45.84953" lon="6.76946">
        <ele>2076</ele>
        <time>2026-08-14T05:27:12.376Z</time>
      </trkpt>
      <trkpt lat="45.84952" lon="6.76947">
        <ele>2075</ele>
        <time>2026-08-14T05:27:13.376Z</time>
      </trkpt>
      <trkpt lat="45.8495" lon="6.76948">
        <ele>2075</ele>
        <time>2026-08-14T05:27:14.376Z</time>
      </trkpt>
      <trkpt lat="45.84949" lon="6.76949">
        <ele>2074</ele>
        <time>2026-08-14T05:27:15.376Z</time>
      </trkpt>
      <trkpt lat="45.84948" lon="6.7695">
        <ele>2073</ele>
        <time>2026-08-14T05:27:16.376Z</time>
      </trkpt>
      <trkpt lat="45.84947" lon="6.76952">
        <ele>2073</ele>
        <time>2026-08-14T05:27:17.376Z</time>
      </trkpt>
      <trkpt lat="45.84946" lon="6.76953">
        <ele>2073</ele>
        <time>2026-08-14T05:27:18.376Z</time>
      </trkpt>
      <trkpt lat="45.84945" lon="6.76953">
        <ele>2072</ele>
        <time>2026-08-14T05:27:19.376Z</time>
      </trkpt>
      <trkpt lat="45.84944" lon="6.76953">
        <ele>2072</ele>
        <time>2026-08-14T05:27:20.376Z</time>
      </trkpt>
      <trkpt lat="45.84944" lon="6.76951">
        <ele>2072</ele>
        <time>2026-08-14T05:27:21.376Z</time>
      </trkpt>
      <trkpt lat="45.84943" lon="6.7695">
        <ele>2071</ele>
        <time>2026-08-14T05:27:22.376Z</time>
      </trkpt>
      <trkpt lat="45.84943" lon="6.76948">
        <ele>2071</ele>
        <time>2026-08-14T05:27:23.376Z</time>
      </trkpt>
      <trkpt lat="45.84943" lon="6.76947">
        <ele>2070</ele>
        <time>2026-08-14T05:27:24.376Z</time>
      </trkpt>
      <trkpt lat="45.84943" lon="6.76946">
        <ele>2070</ele>
        <time>2026-08-14T05:27:25.376Z</time>
      </trkpt>
      <trkpt lat="45.84942" lon="6.76944">
        <ele>2070</ele>
        <time>2026-08-14T05:27:26.376Z</time>
      </trkpt>
      <trkpt lat="45.84942" lon="6.76943">
        <ele>2070</ele>
        <time>2026-08-14T05:27:27.376Z</time>
      </trkpt>
      <trkpt lat="45.84941" lon="6.76942">
        <ele>2070</ele>
        <time>2026-08-14T05:27:28.376Z</time>
      </trkpt>
      <trkpt lat="45.84941" lon="6.7694">
        <ele>2070</ele>
        <time>2026-08-14T05:27:29.376Z</time>
      </trkpt>
      <trkpt lat="45.8494" lon="6.76939">
        <ele>2069</ele>
        <time>2026-08-14T05:27:30.376Z</time>
      </trkpt>
      <trkpt lat="45.8494" lon="6.76937">
        <ele>2069</ele>
        <time>2026-08-14T05:27:31.376Z</time>
      </trkpt>
      <trkpt lat="45.84941" lon="6.76936">
        <ele>2068</ele>
        <time>2026-08-14T05:27:32.376Z</time>
      </trkpt>
      <trkpt lat="45.84941" lon="6.76935">
        <ele>2067</ele>
        <time>2026-08-14T05:27:33.376Z</time>
      </trkpt>
      <trkpt lat="45.8494" lon="6.76934">
        <ele>2067</ele>
        <time>2026-08-14T05:27:34.376Z</time>
      </trkpt>
      <trkpt lat="45.8494" lon="6.76932">
        <ele>2066</ele>
        <time>2026-08-14T05:27:35.376Z</time>
      </trkpt>
      <trkpt lat="45.8494" lon="6.76931">
        <ele>2066</ele>
        <time>2026-08-14T05:27:36.376Z</time>
      </trkpt>
      <trkpt lat="45.8494" lon="6.76929">
        <ele>2065</ele>
        <time>2026-08-14T05:27:37.376Z</time>
      </trkpt>
      <trkpt lat="45.84939" lon="6.76927">
        <ele>2064</ele>
        <time>2026-08-14T05:27:38.376Z</time>
      </trkpt>
      <trkpt lat="45.84939" lon="6.76925">
        <ele>2063</ele>
        <time>2026-08-14T05:27:39.376Z</time>
      </trkpt>
      <trkpt lat="45.84938" lon="6.76924">
        <ele>2062</ele>
        <time>2026-08-14T05:27:40.376Z</time>
      </trkpt>
      <trkpt lat="45.84936" lon="6.76924">
        <ele>2061</ele>
        <time>2026-08-14T05:27:41.376Z</time>
      </trkpt>
      <trkpt lat="45.84935" lon="6.76924">
        <ele>2060</ele>
        <time>2026-08-14T05:27:42.376Z</time>
      </trkpt>
      <trkpt lat="45.84934" lon="6.76924">
        <ele>2059</ele>
        <time>2026-08-14T05:27:43.376Z</time>
      </trkpt>
      <trkpt lat="45.84934" lon="6.76925">
        <ele>2058</ele>
        <time>2026-08-14T05:27:44.376Z</time>
      </trkpt>
      <trkpt lat="45.84933" lon="6.76926">
        <ele>2058</ele>
        <time>2026-08-14T05:27:45.376Z</time>
      </trkpt>
      <trkpt lat="45.84932" lon="6.76927">
        <ele>2057</ele>
        <time>2026-08-14T05:27:46.376Z</time>
      </trkpt>
      <trkpt lat="45.84931" lon="6.76927">
        <ele>2056</ele>
        <time>2026-08-14T05:27:47.376Z</time>
      </trkpt>
      <trkpt lat="45.8493" lon="6.76927">
        <ele>2055</ele>
        <time>2026-08-14T05:27:48.376Z</time>
      </trkpt>
      <trkpt lat="45.84929" lon="6.76927">
        <ele>2054</ele>
        <time>2026-08-14T05:27:49.376Z</time>
      </trkpt>
      <trkpt lat="45.84929" lon="6.76928">
        <ele>2054</ele>
        <time>2026-08-14T05:27:50.376Z</time>
      </trkpt>
      <trkpt lat="45.84928" lon="6.76929">
        <ele>2054</ele>
        <time>2026-08-14T05:27:51.376Z</time>
      </trkpt>
      <trkpt lat="45.84927" lon="6.76931">
        <ele>2054</ele>
        <time>2026-08-14T05:27:52.376Z</time>
      </trkpt>
      <trkpt lat="45.84926" lon="6.76932">
        <ele>2054</ele>
        <time>2026-08-14T05:27:53.376Z</time>
      </trkpt>
      <trkpt lat="45.84925" lon="6.76932">
        <ele>2055</ele>
        <time>2026-08-14T05:27:54.376Z</time>
      </trkpt>
      <trkpt lat="45.84924" lon="6.76931">
        <ele>2055</ele>
        <time>2026-08-14T05:27:55.376Z</time>
      </trkpt>
      <trkpt lat="45.84924" lon="6.7693">
        <ele>2055</ele>
        <time>2026-08-14T05:27:56.376Z</time>
      </trkpt>
      <trkpt lat="45.84923" lon="6.76928">
        <ele>2055</ele>
        <time>2026-08-14T05:27:57.376Z</time>
      </trkpt>
      <trkpt lat="45.84923" lon="6.76926">
        <ele>2055</ele>
        <time>2026-08-14T05:27:58.376Z</time>
      </trkpt>
      <trkpt lat="45.84923" lon="6.76924">
        <ele>2054</ele>
        <time>2026-08-14T05:27:59.376Z</time>
      </trkpt>
      <trkpt lat="45.84923" lon="6.76922">
        <ele>2054</ele>
        <time>2026-08-14T05:28:00.376Z</time>
      </trkpt>
      <trkpt lat="45.84923" lon="6.76921">
        <ele>2053</ele>
        <time>2026-08-14T05:28:01.376Z</time>
      </trkpt>
      <trkpt lat="45.84923" lon="6.76919">
        <ele>2053</ele>
        <time>2026-08-14T05:28:02.376Z</time>
      </trkpt>
      <trkpt lat="45.84923" lon="6.76918">
        <ele>2052</ele>
        <time>2026-08-14T05:28:03.376Z</time>
      </trkpt>
      <trkpt lat="45.84923" lon="6.76916">
        <ele>2052</ele>
        <time>2026-08-14T05:28:04.376Z</time>
      </trkpt>
      <trkpt lat="45.84923" lon="6.76914">
        <ele>2051</ele>
        <time>2026-08-14T05:28:05.376Z</time>
      </trkpt>
      <trkpt lat="45.84923" lon="6.76913">
        <ele>2051</ele>
        <time>2026-08-14T05:28:06.376Z</time>
      </trkpt>
      <trkpt lat="45.84923" lon="6.76912">
        <ele>2051</ele>
        <time>2026-08-14T05:28:07.376Z</time>
      </trkpt>
      <trkpt lat="45.84923" lon="6.7691">
        <ele>2051</ele>
        <time>2026-08-14T05:28:08.376Z</time>
      </trkpt>
      <trkpt lat="45.84923" lon="6.76908">
        <ele>2050</ele>
        <time>2026-08-14T05:28:09.376Z</time>
      </trkpt>
      <trkpt lat="45.84923" lon="6.76907">
        <ele>2049</ele>
        <time>2026-08-14T05:28:10.376Z</time>
      </trkpt>
      <trkpt lat="45.84922" lon="6.76906">
        <ele>2048</ele>
        <time>2026-08-14T05:28:11.376Z</time>
      </trkpt>
      <trkpt lat="45.84921" lon="6.76906">
        <ele>2047</ele>
        <time>2026-08-14T05:28:12.376Z</time>
      </trkpt>
      <trkpt lat="45.8492" lon="6.76907">
        <ele>2046</ele>
        <time>2026-08-14T05:28:13.376Z</time>
      </trkpt>
      <trkpt lat="45.84919" lon="6.76909">
        <ele>2045</ele>
        <time>2026-08-14T05:28:14.376Z</time>
      </trkpt>
      <trkpt lat="45.84918" lon="6.7691">
        <ele>2045</ele>
        <time>2026-08-14T05:28:15.376Z</time>
      </trkpt>
      <trkpt lat="45.84917" lon="6.76912">
        <ele>2044</ele>
        <time>2026-08-14T05:28:16.376Z</time>
      </trkpt>
      <trkpt lat="45.84916" lon="6.76914">
        <ele>2044</ele>
        <time>2026-08-14T05:28:17.376Z</time>
      </trkpt>
      <trkpt lat="45.84915" lon="6.76915">
        <ele>2044</ele>
        <time>2026-08-14T05:28:18.376Z</time>
      </trkpt>
      <trkpt lat="45.84915" lon="6.76916">
        <ele>2044</ele>
        <time>2026-08-14T05:28:19.376Z</time>
      </trkpt>
      <trkpt lat="45.84914" lon="6.76918">
        <ele>2044</ele>
        <time>2026-08-14T05:28:20.376Z</time>
      </trkpt>
      <trkpt lat="45.84913" lon="6.76918">
        <ele>2044</ele>
        <time>2026-08-14T05:28:21.376Z</time>
      </trkpt>
      <trkpt lat="45.84912" lon="6.76918">
        <ele>2044</ele>
        <time>2026-08-14T05:28:22.376Z</time>
      </trkpt>
      <trkpt lat="45.84912" lon="6.76917">
        <ele>2044</ele>
        <time>2026-08-14T05:28:23.376Z</time>
      </trkpt>
      <trkpt lat="45.84912" lon="6.76916">
        <ele>2043</ele>
        <time>2026-08-14T05:28:24.376Z</time>
      </trkpt>
      <trkpt lat="45.84913" lon="6.76915">
        <ele>2043</ele>
        <time>2026-08-14T05:28:25.376Z</time>
      </trkpt>
      <trkpt lat="45.84913" lon="6.76914">
        <ele>2043</ele>
        <time>2026-08-14T05:28:26.376Z</time>
      </trkpt>
      <trkpt lat="45.84913" lon="6.76913">
        <ele>2043</ele>
        <time>2026-08-14T05:28:27.376Z</time>
      </trkpt>
      <trkpt lat="45.84912" lon="6.76913">
        <ele>2043</ele>
        <time>2026-08-14T05:28:28.376Z</time>
      </trkpt>
      <trkpt lat="45.84911" lon="6.76913">
        <ele>2043</ele>
        <time>2026-08-14T05:28:29.376Z</time>
      </trkpt>
      <trkpt lat="45.84911" lon="6.76913">
        <ele>2043</ele>
        <time>2026-08-14T05:28:30.376Z</time>
      </trkpt>
      <trkpt lat="45.8491" lon="6.76914">
        <ele>2043</ele>
        <time>2026-08-14T05:28:31.376Z</time>
      </trkpt>
      <trkpt lat="45.84909" lon="6.76914">
        <ele>2042</ele>
        <time>2026-08-14T05:28:32.376Z</time>
      </trkpt>
      <trkpt lat="45.84908" lon="6.76913">
        <ele>2042</ele>
        <time>2026-08-14T05:28:33.376Z</time>
      </trkpt>
      <trkpt lat="45.84907" lon="6.76913">
        <ele>2042</ele>
        <time>2026-08-14T05:28:34.376Z</time>
      </trkpt>
      <trkpt lat="45.84906" lon="6.76911">
        <ele>2041</ele>
        <time>2026-08-14T05:28:35.376Z</time>
      </trkpt>
      <trkpt lat="45.84905" lon="6.76909">
        <ele>2041</ele>
        <time>2026-08-14T05:28:36.376Z</time>
      </trkpt>
      <trkpt lat="45.84905" lon="6.76907">
        <ele>2041</ele>
        <time>2026-08-14T05:28:37.376Z</time>
      </trkpt>
      <trkpt lat="45.84906" lon="6.76905">
        <ele>2040</ele>
        <time>2026-08-14T05:28:38.376Z</time>
      </trkpt>
      <trkpt lat="45.84907" lon="6.76903">
        <ele>2040</ele>
        <time>2026-08-14T05:28:39.376Z</time>
      </trkpt>
      <trkpt lat="45.84907" lon="6.76902">
        <ele>2039</ele>
        <time>2026-08-14T05:28:40.376Z</time>
      </trkpt>
      <trkpt lat="45.84908" lon="6.769">
        <ele>2039</ele>
        <time>2026-08-14T05:28:41.376Z</time>
      </trkpt>
      <trkpt lat="45.84908" lon="6.76899">
        <ele>2039</ele>
        <time>2026-08-14T05:28:42.376Z</time>
      </trkpt>
      <trkpt lat="45.84909" lon="6.76897">
        <ele>2039</ele>
        <time>2026-08-14T05:28:43.376Z</time>
      </trkpt>
      <trkpt lat="45.84909" lon="6.76897">
        <ele>2039</ele>
        <time>2026-08-14T05:28:44.376Z</time>
      </trkpt>
      <trkpt lat="45.84908" lon="6.76896">
        <ele>2039</ele>
        <time>2026-08-14T05:28:45.376Z</time>
      </trkpt>
      <trkpt lat="45.84908" lon="6.76896">
        <ele>2039</ele>
        <time>2026-08-14T05:28:46.376Z</time>
      </trkpt>
      <trkpt lat="45.84906" lon="6.76896">
        <ele>2039</ele>
        <time>2026-08-14T05:28:47.376Z</time>
      </trkpt>
      <trkpt lat="45.84905" lon="6.76897">
        <ele>2038</ele>
        <time>2026-08-14T05:28:48.376Z</time>
      </trkpt>
      <trkpt lat="45.84903" lon="6.76897">
        <ele>2037</ele>
        <time>2026-08-14T05:28:49.376Z</time>
      </trkpt>
      <trkpt lat="45.84902" lon="6.76897">
        <ele>2037</ele>
        <time>2026-08-14T05:28:50.376Z</time>
      </trkpt>
      <trkpt lat="45.849" lon="6.76898">
        <ele>2037</ele>
        <time>2026-08-14T05:28:51.376Z</time>
      </trkpt>
      <trkpt lat="45.84899" lon="6.76899">
        <ele>2036</ele>
        <time>2026-08-14T05:28:52.376Z</time>
      </trkpt>
      <trkpt lat="45.84897" lon="6.76901">
        <ele>2036</ele>
        <time>2026-08-14T05:28:53.376Z</time>
      </trkpt>
      <trkpt lat="45.84897" lon="6.76902">
        <ele>2035</ele>
        <time>2026-08-14T05:28:54.376Z</time>
      </trkpt>
      <trkpt lat="45.84896" lon="6.76904">
        <ele>2035</ele>
        <time>2026-08-14T05:28:55.376Z</time>
      </trkpt>
      <trkpt lat="45.84896" lon="6.76905">
        <ele>2035</ele>
        <time>2026-08-14T05:28:56.376Z</time>
      </trkpt>
      <trkpt lat="45.84895" lon="6.76907">
        <ele>2034</ele>
        <time>2026-08-14T05:28:57.376Z</time>
      </trkpt>
      <trkpt lat="45.84894" lon="6.76908">
        <ele>2033</ele>
        <time>2026-08-14T05:28:58.376Z</time>
      </trkpt>
      <trkpt lat="45.84894" lon="6.76909">
        <ele>2033</ele>
        <time>2026-08-14T05:28:59.376Z</time>
      </trkpt>
      <trkpt lat="45.84894" lon="6.76911">
        <ele>2032</ele>
        <time>2026-08-14T05:29:00.376Z</time>
      </trkpt>
      <trkpt lat="45.84894" lon="6.76912">
        <ele>2032</ele>
        <time>2026-08-14T05:29:01.376Z</time>
      </trkpt>
      <trkpt lat="45.84893" lon="6.76914">
        <ele>2031</ele>
        <time>2026-08-14T05:29:02.376Z</time>
      </trkpt>
      <trkpt lat="45.84892" lon="6.76915">
        <ele>2031</ele>
        <time>2026-08-14T05:29:03.376Z</time>
      </trkpt>
      <trkpt lat="45.84891" lon="6.76916">
        <ele>2031</ele>
        <time>2026-08-14T05:29:04.376Z</time>
      </trkpt>
      <trkpt lat="45.84891" lon="6.76916">
        <ele>2030</ele>
        <time>2026-08-14T05:29:05.376Z</time>
      </trkpt>
      <trkpt lat="45.8489" lon="6.76915">
        <ele>2031</ele>
        <time>2026-08-14T05:29:06.376Z</time>
      </trkpt>
      <trkpt lat="45.84889" lon="6.76914">
        <ele>2031</ele>
        <time>2026-08-14T05:29:07.376Z</time>
      </trkpt>
      <trkpt lat="45.84889" lon="6.76913">
        <ele>2031</ele>
        <time>2026-08-14T05:29:08.376Z</time>
      </trkpt>
      <trkpt lat="45.84889" lon="6.76912">
        <ele>2031</ele>
        <time>2026-08-14T05:29:09.376Z</time>
      </trkpt>
      <trkpt lat="45.84889" lon="6.76911">
        <ele>2030</ele>
        <time>2026-08-14T05:29:10.376Z</time>
      </trkpt>
      <trkpt lat="45.84889" lon="6.7691">
        <ele>2030</ele>
        <time>2026-08-14T05:29:11.376Z</time>
      </trkpt>
      <trkpt lat="45.84889" lon="6.76908">
        <ele>2030</ele>
        <time>2026-08-14T05:29:12.376Z</time>
      </trkpt>
      <trkpt lat="45.84888" lon="6.76907">
        <ele>2030</ele>
        <time>2026-08-14T05:29:13.376Z</time>
      </trkpt>
      <trkpt lat="45.84887" lon="6.76905">
        <ele>2029</ele>
        <time>2026-08-14T05:29:14.376Z</time>
      </trkpt>
      <trkpt lat="45.84887" lon="6.76903">
        <ele>2029</ele>
        <time>2026-08-14T05:29:15.376Z</time>
      </trkpt>
      <trkpt lat="45.84887" lon="6.76902">
        <ele>2029</ele>
        <time>2026-08-14T05:29:16.376Z</time>
      </trkpt>
      <trkpt lat="45.84886" lon="6.769">
        <ele>2029</ele>
        <time>2026-08-14T05:29:17.376Z</time>
      </trkpt>
      <trkpt lat="45.84886" lon="6.76898">
        <ele>2028</ele>
        <time>2026-08-14T05:29:18.376Z</time>
      </trkpt>
      <trkpt lat="45.84886" lon="6.76896">
        <ele>2028</ele>
        <time>2026-08-14T05:29:19.376Z</time>
      </trkpt>
      <trkpt lat="45.84885" lon="6.76894">
        <ele>2028</ele>
        <time>2026-08-14T05:29:20.376Z</time>
      </trkpt>
      <trkpt lat="45.84885" lon="6.76893">
        <ele>2028</ele>
        <time>2026-08-14T05:29:21.376Z</time>
      </trkpt>
      <trkpt lat="45.84885" lon="6.76891">
        <ele>2027</ele>
        <time>2026-08-14T05:29:22.376Z</time>
      </trkpt>
      <trkpt lat="45.84885" lon="6.7689">
        <ele>2027</ele>
        <time>2026-08-14T05:29:23.376Z</time>
      </trkpt>
      <trkpt lat="45.84885" lon="6.76889">
        <ele>2027</ele>
        <time>2026-08-14T05:29:24.376Z</time>
      </trkpt>
      <trkpt lat="45.84885" lon="6.76888">
        <ele>2026</ele>
        <time>2026-08-14T05:29:25.376Z</time>
      </trkpt>
      <trkpt lat="45.84886" lon="6.76886">
        <ele>2025</ele>
        <time>2026-08-14T05:29:26.376Z</time>
      </trkpt>
      <trkpt lat="45.84886" lon="6.76885">
        <ele>2025</ele>
        <time>2026-08-14T05:29:27.376Z</time>
      </trkpt>
      <trkpt lat="45.84886" lon="6.76884">
        <ele>2024</ele>
        <time>2026-08-14T05:29:28.376Z</time>
      </trkpt>
      <trkpt lat="45.84887" lon="6.76883">
        <ele>2024</ele>
        <time>2026-08-14T05:29:29.376Z</time>
      </trkpt>
      <trkpt lat="45.84887" lon="6.76882">
        <ele>2023</ele>
        <time>2026-08-14T05:29:30.376Z</time>
      </trkpt>
      <trkpt lat="45.84887" lon="6.76882">
        <ele>2022</ele>
        <time>2026-08-14T05:29:31.376Z</time>
      </trkpt>
      <trkpt lat="45.84886" lon="6.76881">
        <ele>2022</ele>
        <time>2026-08-14T05:29:32.376Z</time>
      </trkpt>
      <trkpt lat="45.84885" lon="6.76881">
        <ele>2021</ele>
        <time>2026-08-14T05:29:33.376Z</time>
      </trkpt>
      <trkpt lat="45.84884" lon="6.76881">
        <ele>2020</ele>
        <time>2026-08-14T05:29:34.376Z</time>
      </trkpt>
      <trkpt lat="45.84883" lon="6.76881">
        <ele>2019</ele>
        <time>2026-08-14T05:29:35.376Z</time>
      </trkpt>
      <trkpt lat="45.84882" lon="6.76881">
        <ele>2018</ele>
        <time>2026-08-14T05:29:36.376Z</time>
      </trkpt>
      <trkpt lat="45.84881" lon="6.76882">
        <ele>2018</ele>
        <time>2026-08-14T05:29:37.376Z</time>
      </trkpt>
      <trkpt lat="45.8488" lon="6.76883">
        <ele>2018</ele>
        <time>2026-08-14T05:29:38.376Z</time>
      </trkpt>
      <trkpt lat="45.84879" lon="6.76884">
        <ele>2018</ele>
        <time>2026-08-14T05:29:39.376Z</time>
      </trkpt>
      <trkpt lat="45.84878" lon="6.76885">
        <ele>2018</ele>
        <time>2026-08-14T05:29:40.376Z</time>
      </trkpt>
      <trkpt lat="45.84877" lon="6.76884">
        <ele>2018</ele>
        <time>2026-08-14T05:29:41.376Z</time>
      </trkpt>
      <trkpt lat="45.84877" lon="6.76884">
        <ele>2018</ele>
        <time>2026-08-14T05:29:42.376Z</time>
      </trkpt>
      <trkpt lat="45.84876" lon="6.76883">
        <ele>2017</ele>
        <time>2026-08-14T05:29:43.376Z</time>
      </trkpt>
      <trkpt lat="45.84875" lon="6.76882">
        <ele>2017</ele>
        <time>2026-08-14T05:29:44.376Z</time>
      </trkpt>
      <trkpt lat="45.84875" lon="6.7688">
        <ele>2016</ele>
        <time>2026-08-14T05:29:45.376Z</time>
      </trkpt>
      <trkpt lat="45.84875" lon="6.76878">
        <ele>2016</ele>
        <time>2026-08-14T05:29:46.376Z</time>
      </trkpt>
      <trkpt lat="45.84875" lon="6.76876">
        <ele>2015</ele>
        <time>2026-08-14T05:29:47.376Z</time>
      </trkpt>
      <trkpt lat="45.84875" lon="6.76875">
        <ele>2015</ele>
        <time>2026-08-14T05:29:48.376Z</time>
      </trkpt>
      <trkpt lat="45.84876" lon="6.76873">
        <ele>2015</ele>
        <time>2026-08-14T05:29:49.376Z</time>
      </trkpt>
      <trkpt lat="45.84876" lon="6.76872">
        <ele>2015</ele>
        <time>2026-08-14T05:29:50.376Z</time>
      </trkpt>
      <trkpt lat="45.84876" lon="6.76871">
        <ele>2015</ele>
        <time>2026-08-14T05:29:51.376Z</time>
      </trkpt>
      <trkpt lat="45.84876" lon="6.76869">
        <ele>2015</ele>
        <time>2026-08-14T05:29:52.376Z</time>
      </trkpt>
      <trkpt lat="45.84876" lon="6.76868">
        <ele>2015</ele>
        <time>2026-08-14T05:29:53.376Z</time>
      </trkpt>
      <trkpt lat="45.84876" lon="6.76866">
        <ele>2014</ele>
        <time>2026-08-14T05:29:54.376Z</time>
      </trkpt>
      <trkpt lat="45.84877" lon="6.76865">
        <ele>2014</ele>
        <time>2026-08-14T05:29:55.376Z</time>
      </trkpt>
      <trkpt lat="45.84877" lon="6.76863">
        <ele>2013</ele>
        <time>2026-08-14T05:29:56.376Z</time>
      </trkpt>
      <trkpt lat="45.84877" lon="6.76861">
        <ele>2013</ele>
        <time>2026-08-14T05:29:57.376Z</time>
      </trkpt>
      <trkpt lat="45.84878" lon="6.76859">
        <ele>2012</ele>
        <time>2026-08-14T05:29:58.376Z</time>
      </trkpt>
      <trkpt lat="45.84878" lon="6.76858">
        <ele>2011</ele>
        <time>2026-08-14T05:29:59.376Z</time>
      </trkpt>
      <trkpt lat="45.84877" lon="6.76856">
        <ele>2011</ele>
        <time>2026-08-14T05:30:00.376Z</time>
      </trkpt>
      <trkpt lat="45.84877" lon="6.76855">
        <ele>2011</ele>
        <time>2026-08-14T05:30:01.376Z</time>
      </trkpt>
      <trkpt lat="45.84876" lon="6.76854">
        <ele>2010</ele>
        <time>2026-08-14T05:30:02.376Z</time>
      </trkpt>
      <trkpt lat="45.84875" lon="6.76853">
        <ele>2010</ele>
        <time>2026-08-14T05:30:03.376Z</time>
      </trkpt>
      <trkpt lat="45.84874" lon="6.76852">
        <ele>2009</ele>
        <time>2026-08-14T05:30:04.376Z</time>
      </trkpt>
      <trkpt lat="45.84873" lon="6.76851">
        <ele>2009</ele>
        <time>2026-08-14T05:30:05.376Z</time>
      </trkpt>
      <trkpt lat="45.84872" lon="6.7685">
        <ele>2008</ele>
        <time>2026-08-14T05:30:06.376Z</time>
      </trkpt>
      <trkpt lat="45.84872" lon="6.76848">
        <ele>2008</ele>
        <time>2026-08-14T05:30:07.376Z</time>
      </trkpt>
      <trkpt lat="45.84871" lon="6.76847">
        <ele>2007</ele>
        <time>2026-08-14T05:30:08.376Z</time>
      </trkpt>
      <trkpt lat="45.8487" lon="6.76846">
        <ele>2007</ele>
        <time>2026-08-14T05:30:09.376Z</time>
      </trkpt>
      <trkpt lat="45.8487" lon="6.76845">
        <ele>2006</ele>
        <time>2026-08-14T05:30:10.376Z</time>
      </trkpt>
      <trkpt lat="45.84869" lon="6.76843">
        <ele>2005</ele>
        <time>2026-08-14T05:30:11.376Z</time>
      </trkpt>
      <trkpt lat="45.84868" lon="6.76842">
        <ele>2004</ele>
        <time>2026-08-14T05:30:12.376Z</time>
      </trkpt>
      <trkpt lat="45.84868" lon="6.7684">
        <ele>2003</ele>
        <time>2026-08-14T05:30:13.376Z</time>
      </trkpt>
      <trkpt lat="45.84867" lon="6.76838">
        <ele>2003</ele>
        <time>2026-08-14T05:30:14.376Z</time>
      </trkpt>
      <trkpt lat="45.84866" lon="6.76836">
        <ele>2002</ele>
        <time>2026-08-14T05:30:15.376Z</time>
      </trkpt>
      <trkpt lat="45.84865" lon="6.76834">
        <ele>2001</ele>
        <time>2026-08-14T05:30:16.376Z</time>
      </trkpt>
      <trkpt lat="45.84865" lon="6.76832">
        <ele>2001</ele>
        <time>2026-08-14T05:30:17.376Z</time>
      </trkpt>
      <trkpt lat="45.84864" lon="6.7683">
        <ele>2000</ele>
        <time>2026-08-14T05:30:18.376Z</time>
      </trkpt>
      <trkpt lat="45.84863" lon="6.76828">
        <ele>1999</ele>
        <time>2026-08-14T05:30:19.376Z</time>
      </trkpt>
      <trkpt lat="45.84863" lon="6.76825">
        <ele>1999</ele>
        <time>2026-08-14T05:30:20.376Z</time>
      </trkpt>
      <trkpt lat="45.84862" lon="6.76822">
        <ele>1999</ele>
        <time>2026-08-14T05:30:21.376Z</time>
      </trkpt>
      <trkpt lat="45.84862" lon="6.76819">
        <ele>1998</ele>
        <time>2026-08-14T05:30:22.376Z</time>
      </trkpt>
      <trkpt lat="45.84862" lon="6.76817">
        <ele>1998</ele>
        <time>2026-08-14T05:30:23.376Z</time>
      </trkpt>
      <trkpt lat="45.84861" lon="6.76813">
        <ele>1998</ele>
        <time>2026-08-14T05:30:24.376Z</time>
      </trkpt>
      <trkpt lat="45.8486" lon="6.7681">
        <ele>1998</ele>
        <time>2026-08-14T05:30:25.376Z</time>
      </trkpt>
      <trkpt lat="45.84859" lon="6.76807">
        <ele>1997</ele>
        <time>2026-08-14T05:30:26.376Z</time>
      </trkpt>
      <trkpt lat="45.84857" lon="6.76804">
        <ele>1997</ele>
        <time>2026-08-14T05:30:27.376Z</time>
      </trkpt>
      <trkpt lat="45.84856" lon="6.76801">
        <ele>1996</ele>
        <time>2026-08-14T05:30:28.376Z</time>
      </trkpt>
      <trkpt lat="45.84855" lon="6.76799">
        <ele>1995</ele>
        <time>2026-08-14T05:30:29.376Z</time>
      </trkpt>
      <trkpt lat="45.84854" lon="6.76798">
        <ele>1995</ele>
        <time>2026-08-14T05:30:30.376Z</time>
      </trkpt>
      <trkpt lat="45.84853" lon="6.76797">
        <ele>1995</ele>
        <time>2026-08-14T05:30:31.376Z</time>
      </trkpt>
      <trkpt lat="45.84852" lon="6.76796">
        <ele>1994</ele>
        <time>2026-08-14T05:30:32.376Z</time>
      </trkpt>
      <trkpt lat="45.84851" lon="6.76795">
        <ele>1994</ele>
        <time>2026-08-14T05:30:33.376Z</time>
      </trkpt>
      <trkpt lat="45.8485" lon="6.76794">
        <ele>1993</ele>
        <time>2026-08-14T05:30:34.376Z</time>
      </trkpt>
      <trkpt lat="45.8485" lon="6.76793">
        <ele>1993</ele>
        <time>2026-08-14T05:30:35.376Z</time>
      </trkpt>
      <trkpt lat="45.8485" lon="6.76792">
        <ele>1992</ele>
        <time>2026-08-14T05:30:36.376Z</time>
      </trkpt>
      <trkpt lat="45.84849" lon="6.76792">
        <ele>1992</ele>
        <time>2026-08-14T05:30:37.376Z</time>
      </trkpt>
      <trkpt lat="45.84848" lon="6.76791">
        <ele>1991</ele>
        <time>2026-08-14T05:30:38.376Z</time>
      </trkpt>
      <trkpt lat="45.84847" lon="6.7679">
        <ele>1991</ele>
        <time>2026-08-14T05:30:39.376Z</time>
      </trkpt>
      <trkpt lat="45.84847" lon="6.76789">
        <ele>1991</ele>
        <time>2026-08-14T05:30:40.376Z</time>
      </trkpt>
      <trkpt lat="45.84846" lon="6.76789">
        <ele>1990</ele>
        <time>2026-08-14T05:30:41.376Z</time>
      </trkpt>
      <trkpt lat="45.84846" lon="6.76788">
        <ele>1990</ele>
        <time>2026-08-14T05:30:42.376Z</time>
      </trkpt>
      <trkpt lat="45.84846" lon="6.76787">
        <ele>1989</ele>
        <time>2026-08-14T05:30:43.376Z</time>
      </trkpt>
      <trkpt lat="45.84847" lon="6.76786">
        <ele>1989</ele>
        <time>2026-08-14T05:30:44.376Z</time>
      </trkpt>
      <trkpt lat="45.84848" lon="6.76785">
        <ele>1988</ele>
        <time>2026-08-14T05:30:45.376Z</time>
      </trkpt>
      <trkpt lat="45.84848" lon="6.76784">
        <ele>1987</ele>
        <time>2026-08-14T05:30:46.376Z</time>
      </trkpt>
      <trkpt lat="45.84849" lon="6.76782">
        <ele>1987</ele>
        <time>2026-08-14T05:30:47.376Z</time>
      </trkpt>
      <trkpt lat="45.84849" lon="6.76781">
        <ele>1986</ele>
        <time>2026-08-14T05:30:48.376Z</time>
      </trkpt>
      <trkpt lat="45.84849" lon="6.76779">
        <ele>1986</ele>
        <time>2026-08-14T05:30:49.376Z</time>
      </trkpt>
      <trkpt lat="45.84849" lon="6.76778">
        <ele>1986</ele>
        <time>2026-08-14T05:30:50.376Z</time>
      </trkpt>
      <trkpt lat="45.84849" lon="6.76777">
        <ele>1986</ele>
        <time>2026-08-14T05:30:51.376Z</time>
      </trkpt>
      <trkpt lat="45.84848" lon="6.76775">
        <ele>1986</ele>
        <time>2026-08-14T05:30:52.376Z</time>
      </trkpt>
      <trkpt lat="45.84847" lon="6.76774">
        <ele>1986</ele>
        <time>2026-08-14T05:30:53.376Z</time>
      </trkpt>
      <trkpt lat="45.84846" lon="6.76773">
        <ele>1985</ele>
        <time>2026-08-14T05:30:54.376Z</time>
      </trkpt>
      <trkpt lat="45.84846" lon="6.76772">
        <ele>1985</ele>
        <time>2026-08-14T05:30:55.376Z</time>
      </trkpt>
      <trkpt lat="45.84845" lon="6.7677">
        <ele>1984</ele>
        <time>2026-08-14T05:30:56.376Z</time>
      </trkpt>
      <trkpt lat="45.84844" lon="6.76769">
        <ele>1984</ele>
        <time>2026-08-14T05:30:57.376Z</time>
      </trkpt>
      <trkpt lat="45.84843" lon="6.76768">
        <ele>1983</ele>
        <time>2026-08-14T05:30:58.376Z</time>
      </trkpt>
      <trkpt lat="45.84842" lon="6.76766">
        <ele>1982</ele>
        <time>2026-08-14T05:30:59.376Z</time>
      </trkpt>
      <trkpt lat="45.84842" lon="6.76765">
        <ele>1982</ele>
        <time>2026-08-14T05:31:00.376Z</time>
      </trkpt>
      <trkpt lat="45.84841" lon="6.76764">
        <ele>1981</ele>
        <time>2026-08-14T05:31:01.376Z</time>
      </trkpt>
      <trkpt lat="45.8484" lon="6.76762">
        <ele>1980</ele>
        <time>2026-08-14T05:31:02.376Z</time>
      </trkpt>
      <trkpt lat="45.84839" lon="6.7676">
        <ele>1980</ele>
        <time>2026-08-14T05:31:03.376Z</time>
      </trkpt>
      <trkpt lat="45.84839" lon="6.76759">
        <ele>1979</ele>
        <time>2026-08-14T05:31:04.376Z</time>
      </trkpt>
      <trkpt lat="45.84838" lon="6.76758">
        <ele>1979</ele>
        <time>2026-08-14T05:31:05.376Z</time>
      </trkpt>
      <trkpt lat="45.84837" lon="6.76757">
        <ele>1978</ele>
        <time>2026-08-14T05:31:06.376Z</time>
      </trkpt>
      <trkpt lat="45.84836" lon="6.76756">
        <ele>1977</ele>
        <time>2026-08-14T05:31:07.376Z</time>
      </trkpt>
      <trkpt lat="45.84835" lon="6.76756">
        <ele>1976</ele>
        <time>2026-08-14T05:31:08.376Z</time>
      </trkpt>
      <trkpt lat="45.84834" lon="6.76756">
        <ele>1976</ele>
        <time>2026-08-14T05:31:09.376Z</time>
      </trkpt>
      <trkpt lat="45.84834" lon="6.76757">
        <ele>1975</ele>
        <time>2026-08-14T05:31:10.376Z</time>
      </trkpt>
      <trkpt lat="45.84834" lon="6.76758">
        <ele>1975</ele>
        <time>2026-08-14T05:31:11.376Z</time>
      </trkpt>
      <trkpt lat="45.84833" lon="6.76759">
        <ele>1975</ele>
        <time>2026-08-14T05:31:12.376Z</time>
      </trkpt>
      <trkpt lat="45.84833" lon="6.76761">
        <ele>1975</ele>
        <time>2026-08-14T05:31:13.376Z</time>
      </trkpt>
      <trkpt lat="45.84833" lon="6.76762">
        <ele>1974</ele>
        <time>2026-08-14T05:31:14.376Z</time>
      </trkpt>
      <trkpt lat="45.84832" lon="6.76764">
        <ele>1974</ele>
        <time>2026-08-14T05:31:15.376Z</time>
      </trkpt>
      <trkpt lat="45.84832" lon="6.76765">
        <ele>1973</ele>
        <time>2026-08-14T05:31:16.376Z</time>
      </trkpt>
      <trkpt lat="45.84831" lon="6.76766">
        <ele>1973</ele>
        <time>2026-08-14T05:31:17.376Z</time>
      </trkpt>
      <trkpt lat="45.84831" lon="6.76767">
        <ele>1973</ele>
        <time>2026-08-14T05:31:18.376Z</time>
      </trkpt>
      <trkpt lat="45.8483" lon="6.76769">
        <ele>1972</ele>
        <time>2026-08-14T05:31:19.376Z</time>
      </trkpt>
      <trkpt lat="45.84829" lon="6.7677">
        <ele>1972</ele>
        <time>2026-08-14T05:31:20.376Z</time>
      </trkpt>
      <trkpt lat="45.84828" lon="6.76771">
        <ele>1971</ele>
        <time>2026-08-14T05:31:21.376Z</time>
      </trkpt>
      <trkpt lat="45.84827" lon="6.76772">
        <ele>1970</ele>
        <time>2026-08-14T05:31:22.376Z</time>
      </trkpt>
      <trkpt lat="45.84827" lon="6.76773">
        <ele>1970</ele>
        <time>2026-08-14T05:31:23.376Z</time>
      </trkpt>
      <trkpt lat="45.84826" lon="6.76773">
        <ele>1969</ele>
        <time>2026-08-14T05:31:24.376Z</time>
      </trkpt>
      <trkpt lat="45.84825" lon="6.76774">
        <ele>1969</ele>
        <time>2026-08-14T05:31:25.376Z</time>
      </trkpt>
      <trkpt lat="45.84824" lon="6.76775">
        <ele>1969</ele>
        <time>2026-08-14T05:31:26.376Z</time>
      </trkpt>
      <trkpt lat="45.84823" lon="6.76776">
        <ele>1968</ele>
        <time>2026-08-14T05:31:27.376Z</time>
      </trkpt>
      <trkpt lat="45.84822" lon="6.76778">
        <ele>1968</ele>
        <time>2026-08-14T05:31:28.376Z</time>
      </trkpt>
      <trkpt lat="45.84822" lon="6.7678">
        <ele>1968</ele>
        <time>2026-08-14T05:31:29.376Z</time>
      </trkpt>
      <trkpt lat="45.84822" lon="6.76781">
        <ele>1967</ele>
        <time>2026-08-14T05:31:30.376Z</time>
      </trkpt>
      <trkpt lat="45.84821" lon="6.76782">
        <ele>1967</ele>
        <time>2026-08-14T05:31:31.376Z</time>
      </trkpt>
      <trkpt lat="45.84821" lon="6.76783">
        <ele>1966</ele>
        <time>2026-08-14T05:31:32.376Z</time>
      </trkpt>
      <trkpt lat="45.8482" lon="6.76784">
        <ele>1965</ele>
        <time>2026-08-14T05:31:33.376Z</time>
      </trkpt>
      <trkpt lat="45.8482" lon="6.76785">
        <ele>1965</ele>
        <time>2026-08-14T05:31:34.376Z</time>
      </trkpt>
      <trkpt lat="45.8482" lon="6.76786">
        <ele>1965</ele>
        <time>2026-08-14T05:31:35.376Z</time>
      </trkpt>
      <trkpt lat="45.84819" lon="6.76787">
        <ele>1964</ele>
        <time>2026-08-14T05:31:36.376Z</time>
      </trkpt>
      <trkpt lat="45.84819" lon="6.76789">
        <ele>1964</ele>
        <time>2026-08-14T05:31:37.376Z</time>
      </trkpt>
      <trkpt lat="45.84819" lon="6.7679">
        <ele>1963</ele>
        <time>2026-08-14T05:31:38.376Z</time>
      </trkpt>
      <trkpt lat="45.84818" lon="6.76792">
        <ele>1963</ele>
        <time>2026-08-14T05:31:39.376Z</time>
      </trkpt>
      <trkpt lat="45.84818" lon="6.76793">
        <ele>1962</ele>
        <time>2026-08-14T05:31:40.376Z</time>
      </trkpt>
      <trkpt lat="45.84817" lon="6.76796">
        <ele>1961</ele>
        <time>2026-08-14T05:31:41.376Z</time>
      </trkpt>
      <trkpt lat="45.84817" lon="6.76797">
        <ele>1960</ele>
        <time>2026-08-14T05:31:42.376Z</time>
      </trkpt>
      <trkpt lat="45.84816" lon="6.76799">
        <ele>1959</ele>
        <time>2026-08-14T05:31:43.376Z</time>
      </trkpt>
      <trkpt lat="45.84816" lon="6.76801">
        <ele>1958</ele>
        <time>2026-08-14T05:31:44.376Z</time>
      </trkpt>
      <trkpt lat="45.84815" lon="6.76804">
        <ele>1958</ele>
        <time>2026-08-14T05:31:45.376Z</time>
      </trkpt>
      <trkpt lat="45.84814" lon="6.76806">
        <ele>1957</ele>
        <time>2026-08-14T05:31:46.376Z</time>
      </trkpt>
      <trkpt lat="45.84813" lon="6.76807">
        <ele>1957</ele>
        <time>2026-08-14T05:31:47.376Z</time>
      </trkpt>
      <trkpt lat="45.84812" lon="6.76809">
        <ele>1957</ele>
        <time>2026-08-14T05:31:48.376Z</time>
      </trkpt>
      <trkpt lat="45.84811" lon="6.76811">
        <ele>1956</ele>
        <time>2026-08-14T05:31:49.376Z</time>
      </trkpt>
      <trkpt lat="45.8481" lon="6.76812">
        <ele>1956</ele>
        <time>2026-08-14T05:31:50.376Z</time>
      </trkpt>
      <trkpt lat="45.84808" lon="6.76814">
        <ele>1955</ele>
        <time>2026-08-14T05:31:51.376Z</time>
      </trkpt>
      <trkpt lat="45.84807" lon="6.76815">
        <ele>1955</ele>
        <time>2026-08-14T05:31:52.376Z</time>
      </trkpt>
      <trkpt lat="45.84805" lon="6.76817">
        <ele>1955</ele>
        <time>2026-08-14T05:31:53.376Z</time>
      </trkpt>
      <trkpt lat="45.84804" lon="6.76818">
        <ele>1954</ele>
        <time>2026-08-14T05:31:54.376Z</time>
      </trkpt>
      <trkpt lat="45.84803" lon="6.76819">
        <ele>1954</ele>
        <time>2026-08-14T05:31:55.376Z</time>
      </trkpt>
      <trkpt lat="45.84801" lon="6.76819">
        <ele>1954</ele>
        <time>2026-08-14T05:31:56.376Z</time>
      </trkpt>
      <trkpt lat="45.848" lon="6.7682">
        <ele>1954</ele>
        <time>2026-08-14T05:31:57.376Z</time>
      </trkpt>
      <trkpt lat="45.84798" lon="6.76821">
        <ele>1953</ele>
        <time>2026-08-14T05:31:58.376Z</time>
      </trkpt>
      <trkpt lat="45.84796" lon="6.76822">
        <ele>1953</ele>
        <time>2026-08-14T05:31:59.376Z</time>
      </trkpt>
      <trkpt lat="45.84795" lon="6.76823">
        <ele>1953</ele>
        <time>2026-08-14T05:32:00.376Z</time>
      </trkpt>
      <trkpt lat="45.84793" lon="6.76824">
        <ele>1953</ele>
        <time>2026-08-14T05:32:01.376Z</time>
      </trkpt>
      <trkpt lat="45.84792" lon="6.76825">
        <ele>1952</ele>
        <time>2026-08-14T05:32:02.376Z</time>
      </trkpt>
      <trkpt lat="45.8479" lon="6.76827">
        <ele>1952</ele>
        <time>2026-08-14T05:32:03.376Z</time>
      </trkpt>
      <trkpt lat="45.84789" lon="6.76828">
        <ele>1952</ele>
        <time>2026-08-14T05:32:04.376Z</time>
      </trkpt>
      <trkpt lat="45.84787" lon="6.7683">
        <ele>1952</ele>
        <time>2026-08-14T05:32:05.376Z</time>
      </trkpt>
      <trkpt lat="45.84786" lon="6.76831">
        <ele>1952</ele>
        <time>2026-08-14T05:32:06.376Z</time>
      </trkpt>
      <trkpt lat="45.84784" lon="6.76832">
        <ele>1952</ele>
        <time>2026-08-14T05:32:07.376Z</time>
      </trkpt>
      <trkpt lat="45.84783" lon="6.76832">
        <ele>1952</ele>
        <time>2026-08-14T05:32:08.376Z</time>
      </trkpt>
      <trkpt lat="45.84783" lon="6.76833">
        <ele>1951</ele>
        <time>2026-08-14T05:32:09.376Z</time>
      </trkpt>
      <trkpt lat="45.84782" lon="6.76835">
        <ele>1951</ele>
        <time>2026-08-14T05:32:10.376Z</time>
      </trkpt>
      <trkpt lat="45.84781" lon="6.76835">
        <ele>1951</ele>
        <time>2026-08-14T05:32:11.376Z</time>
      </trkpt>
      <trkpt lat="45.8478" lon="6.76836">
        <ele>1951</ele>
        <time>2026-08-14T05:32:12.376Z</time>
      </trkpt>
      <trkpt lat="45.84779" lon="6.76836">
        <ele>1951</ele>
        <time>2026-08-14T05:32:13.376Z</time>
      </trkpt>
      <trkpt lat="45.84778" lon="6.76837">
        <ele>1951</ele>
        <time>2026-08-14T05:32:14.376Z</time>
      </trkpt>
      <trkpt lat="45.84777" lon="6.76838">
        <ele>1950</ele>
        <time>2026-08-14T05:32:15.376Z</time>
      </trkpt>
      <trkpt lat="45.84776" lon="6.76839">
        <ele>1950</ele>
        <time>2026-08-14T05:32:16.376Z</time>
      </trkpt>
      <trkpt lat="45.84775" lon="6.7684">
        <ele>1950</ele>
        <time>2026-08-14T05:32:17.376Z</time>
      </trkpt>
      <trkpt lat="45.84773" lon="6.76841">
        <ele>1949</ele>
        <time>2026-08-14T05:32:18.376Z</time>
      </trkpt>
      <trkpt lat="45.84772" lon="6.76842">
        <ele>1949</ele>
        <time>2026-08-14T05:32:19.376Z</time>
      </trkpt>
      <trkpt lat="45.8477" lon="6.76842">
        <ele>1949</ele>
        <time>2026-08-14T05:32:20.376Z</time>
      </trkpt>
      <trkpt lat="45.84769" lon="6.76843">
        <ele>1949</ele>
        <time>2026-08-14T05:32:21.376Z</time>
      </trkpt>
      <trkpt lat="45.84768" lon="6.76843">
        <ele>1949</ele>
        <time>2026-08-14T05:32:22.376Z</time>
      </trkpt>
      <trkpt lat="45.84766" lon="6.76843">
        <ele>1948</ele>
        <time>2026-08-14T05:32:23.376Z</time>
      </trkpt>
      <trkpt lat="45.84765" lon="6.76843">
        <ele>1948</ele>
        <time>2026-08-14T05:32:24.376Z</time>
      </trkpt>
      <trkpt lat="45.84763" lon="6.76843">
        <ele>1948</ele>
        <time>2026-08-14T05:32:25.376Z</time>
      </trkpt>
      <trkpt lat="45.84762" lon="6.76843">
        <ele>1947</ele>
        <time>2026-08-14T05:32:26.376Z</time>
      </trkpt>
      <trkpt lat="45.84761" lon="6.76843">
        <ele>1947</ele>
        <time>2026-08-14T05:32:27.376Z</time>
      </trkpt>
      <trkpt lat="45.84761" lon="6.76842">
        <ele>1946</ele>
        <time>2026-08-14T05:32:28.376Z</time>
      </trkpt>
      <trkpt lat="45.84761" lon="6.7684">
        <ele>1945</ele>
        <time>2026-08-14T05:32:29.376Z</time>
      </trkpt>
      <trkpt lat="45.84761" lon="6.76838">
        <ele>1945</ele>
        <time>2026-08-14T05:32:30.376Z</time>
      </trkpt>
      <trkpt lat="45.84761" lon="6.76837">
        <ele>1945</ele>
        <time>2026-08-14T05:32:31.376Z</time>
      </trkpt>
      <trkpt lat="45.84762" lon="6.76836">
        <ele>1944</ele>
        <time>2026-08-14T05:32:32.376Z</time>
      </trkpt>
      <trkpt lat="45.84763" lon="6.76834">
        <ele>1944</ele>
        <time>2026-08-14T05:32:33.376Z</time>
      </trkpt>
      <trkpt lat="45.84763" lon="6.76832">
        <ele>1943</ele>
        <time>2026-08-14T05:32:34.376Z</time>
      </trkpt>
      <trkpt lat="45.84764" lon="6.7683">
        <ele>1943</ele>
        <time>2026-08-14T05:32:35.376Z</time>
      </trkpt>
      <trkpt lat="45.84764" lon="6.76829">
        <ele>1943</ele>
        <time>2026-08-14T05:32:36.376Z</time>
      </trkpt>
      <trkpt lat="45.84763" lon="6.76827">
        <ele>1942</ele>
        <time>2026-08-14T05:32:37.376Z</time>
      </trkpt>
      <trkpt lat="45.84763" lon="6.76826">
        <ele>1942</ele>
        <time>2026-08-14T05:32:38.376Z</time>
      </trkpt>
      <trkpt lat="45.84763" lon="6.76824">
        <ele>1941</ele>
        <time>2026-08-14T05:32:39.376Z</time>
      </trkpt>
      <trkpt lat="45.84763" lon="6.76824">
        <ele>1941</ele>
        <time>2026-08-14T05:32:40.376Z</time>
      </trkpt>
      <trkpt lat="45.84763" lon="6.76823">
        <ele>1940</ele>
        <time>2026-08-14T05:32:41.376Z</time>
      </trkpt>
      <trkpt lat="45.84763" lon="6.76822">
        <ele>1940</ele>
        <time>2026-08-14T05:32:42.376Z</time>
      </trkpt>
      <trkpt lat="45.84763" lon="6.76821">
        <ele>1939</ele>
        <time>2026-08-14T05:32:43.376Z</time>
      </trkpt>
      <trkpt lat="45.84762" lon="6.7682">
        <ele>1939</ele>
        <time>2026-08-14T05:32:44.376Z</time>
      </trkpt>
      <trkpt lat="45.84762" lon="6.7682">
        <ele>1939</ele>
        <time>2026-08-14T05:32:45.376Z</time>
      </trkpt>
      <trkpt lat="45.84762" lon="6.76819">
        <ele>1940</ele>
        <time>2026-08-14T05:32:46.376Z</time>
      </trkpt>
      <trkpt lat="45.84762" lon="6.76818">
        <ele>1940</ele>
        <time>2026-08-14T05:32:47.376Z</time>
      </trkpt>
      <trkpt lat="45.84762" lon="6.76817">
        <ele>1940</ele>
        <time>2026-08-14T05:32:48.376Z</time>
      </trkpt>
      <trkpt lat="45.84763" lon="6.76816">
        <ele>1940</ele>
        <time>2026-08-14T05:32:49.376Z</time>
      </trkpt>
      <trkpt lat="45.84763" lon="6.76814">
        <ele>1940</ele>
        <time>2026-08-14T05:32:50.376Z</time>
      </trkpt>
      <trkpt lat="45.84763" lon="6.76812">
        <ele>1940</ele>
        <time>2026-08-14T05:32:51.376Z</time>
      </trkpt>
      <trkpt lat="45.84763" lon="6.7681">
        <ele>1940</ele>
        <time>2026-08-14T05:32:52.376Z</time>
      </trkpt>
      <trkpt lat="45.84763" lon="6.76808">
        <ele>1939</ele>
        <time>2026-08-14T05:32:53.376Z</time>
      </trkpt>
      <trkpt lat="45.84763" lon="6.76806">
        <ele>1939</ele>
        <time>2026-08-14T05:32:54.376Z</time>
      </trkpt>
      <trkpt lat="45.84764" lon="6.76804">
        <ele>1938</ele>
        <time>2026-08-14T05:32:55.376Z</time>
      </trkpt>
      <trkpt lat="45.84764" lon="6.76803">
        <ele>1937</ele>
        <time>2026-08-14T05:32:56.376Z</time>
      </trkpt>
      <trkpt lat="45.84764" lon="6.76801">
        <ele>1936</ele>
        <time>2026-08-14T05:32:57.376Z</time>
      </trkpt>
      <trkpt lat="45.84764" lon="6.76799">
        <ele>1935</ele>
        <time>2026-08-14T05:32:58.376Z</time>
      </trkpt>
      <trkpt lat="45.84764" lon="6.76798">
        <ele>1935</ele>
        <time>2026-08-14T05:32:59.376Z</time>
      </trkpt>
      <trkpt lat="45.84764" lon="6.76796">
        <ele>1933</ele>
        <time>2026-08-14T05:33:00.376Z</time>
      </trkpt>
      <trkpt lat="45.84763" lon="6.76795">
        <ele>1933</ele>
        <time>2026-08-14T05:33:01.376Z</time>
      </trkpt>
      <trkpt lat="45.84763" lon="6.76793">
        <ele>1932</ele>
        <time>2026-08-14T05:33:02.376Z</time>
      </trkpt>
      <trkpt lat="45.84764" lon="6.76791">
        <ele>1931</ele>
        <time>2026-08-14T05:33:03.376Z</time>
      </trkpt>
      <trkpt lat="45.84764" lon="6.7679">
        <ele>1931</ele>
        <time>2026-08-14T05:33:04.376Z</time>
      </trkpt>
      <trkpt lat="45.84765" lon="6.76788">
        <ele>1931</ele>
        <time>2026-08-14T05:33:05.376Z</time>
      </trkpt>
      <trkpt lat="45.84765" lon="6.76788">
        <ele>1930</ele>
        <time>2026-08-14T05:33:06.376Z</time>
      </trkpt>
      <trkpt lat="45.84765" lon="6.76787">
        <ele>1930</ele>
        <time>2026-08-14T05:33:07.376Z</time>
      </trkpt>
      <trkpt lat="45.84765" lon="6.76787">
        <ele>1930</ele>
        <time>2026-08-14T05:33:08.376Z</time>
      </trkpt>
      <trkpt lat="45.84766" lon="6.76786">
        <ele>1929</ele>
        <time>2026-08-14T05:33:09.376Z</time>
      </trkpt>
      <trkpt lat="45.84766" lon="6.76786">
        <ele>1929</ele>
        <time>2026-08-14T05:33:10.376Z</time>
      </trkpt>
      <trkpt lat="45.84766" lon="6.76785">
        <ele>1929</ele>
        <time>2026-08-14T05:33:11.376Z</time>
      </trkpt>
      <trkpt lat="45.84766" lon="6.76784">
        <ele>1929</ele>
        <time>2026-08-14T05:33:12.376Z</time>
      </trkpt>
      <trkpt lat="45.84766" lon="6.76783">
        <ele>1929</ele>
        <time>2026-08-14T05:33:13.376Z</time>
      </trkpt>
      <trkpt lat="45.84766" lon="6.76782">
        <ele>1929</ele>
        <time>2026-08-14T05:33:14.376Z</time>
      </trkpt>
      <trkpt lat="45.84765" lon="6.76781">
        <ele>1929</ele>
        <time>2026-08-14T05:33:15.376Z</time>
      </trkpt>
      <trkpt lat="45.84765" lon="6.7678">
        <ele>1929</ele>
        <time>2026-08-14T05:33:16.376Z</time>
      </trkpt>
      <trkpt lat="45.84765" lon="6.76778">
        <ele>1929</ele>
        <time>2026-08-14T05:33:17.376Z</time>
      </trkpt>
      <trkpt lat="45.84764" lon="6.76777">
        <ele>1929</ele>
        <time>2026-08-14T05:33:18.376Z</time>
      </trkpt>
      <trkpt lat="45.84764" lon="6.76776">
        <ele>1929</ele>
        <time>2026-08-14T05:33:19.376Z</time>
      </trkpt>
      <trkpt lat="45.84764" lon="6.76775">
        <ele>1929</ele>
        <time>2026-08-14T05:33:20.376Z</time>
      </trkpt>
      <trkpt lat="45.84763" lon="6.76773">
        <ele>1929</ele>
        <time>2026-08-14T05:33:21.376Z</time>
      </trkpt>
      <trkpt lat="45.84763" lon="6.76772">
        <ele>1929</ele>
        <time>2026-08-14T05:33:22.376Z</time>
      </trkpt>
      <trkpt lat="45.84763" lon="6.76771">
        <ele>1929</ele>
        <time>2026-08-14T05:33:23.376Z</time>
      </trkpt>
      <trkpt lat="45.84763" lon="6.7677">
        <ele>1928</ele>
        <time>2026-08-14T05:33:24.376Z</time>
      </trkpt>
      <trkpt lat="45.84762" lon="6.76768">
        <ele>1928</ele>
        <time>2026-08-14T05:33:25.376Z</time>
      </trkpt>
      <trkpt lat="45.84762" lon="6.76767">
        <ele>1927</ele>
        <time>2026-08-14T05:33:26.376Z</time>
      </trkpt>
      <trkpt lat="45.84761" lon="6.76765">
        <ele>1927</ele>
        <time>2026-08-14T05:33:27.376Z</time>
      </trkpt>
      <trkpt lat="45.84761" lon="6.76764">
        <ele>1927</ele>
        <time>2026-08-14T05:33:28.376Z</time>
      </trkpt>
      <trkpt lat="45.8476" lon="6.76763">
        <ele>1926</ele>
        <time>2026-08-14T05:33:29.376Z</time>
      </trkpt>
      <trkpt lat="45.84759" lon="6.76762">
        <ele>1925</ele>
        <time>2026-08-14T05:33:30.376Z</time>
      </trkpt>
      <trkpt lat="45.84759" lon="6.76761">
        <ele>1925</ele>
        <time>2026-08-14T05:33:31.376Z</time>
      </trkpt>
      <trkpt lat="45.84758" lon="6.7676">
        <ele>1925</ele>
        <time>2026-08-14T05:33:32.376Z</time>
      </trkpt>
      <trkpt lat="45.84757" lon="6.76759">
        <ele>1925</ele>
        <time>2026-08-14T05:33:33.376Z</time>
      </trkpt>
      <trkpt lat="45.84757" lon="6.76757">
        <ele>1924</ele>
        <time>2026-08-14T05:33:34.376Z</time>
      </trkpt>
      <trkpt lat="45.84757" lon="6.76756">
        <ele>1924</ele>
        <time>2026-08-14T05:33:35.376Z</time>
      </trkpt>
      <trkpt lat="45.84757" lon="6.76755">
        <ele>1923</ele>
        <time>2026-08-14T05:33:36.376Z</time>
      </trkpt>
      <trkpt lat="45.84757" lon="6.76754">
        <ele>1923</ele>
        <time>2026-08-14T05:33:37.376Z</time>
      </trkpt>
      <trkpt lat="45.84756" lon="6.76754">
        <ele>1923</ele>
        <time>2026-08-14T05:33:38.376Z</time>
      </trkpt>
      <trkpt lat="45.84755" lon="6.76754">
        <ele>1922</ele>
        <time>2026-08-14T05:33:39.376Z</time>
      </trkpt>
      <trkpt lat="45.84755" lon="6.76754">
        <ele>1922</ele>
        <time>2026-08-14T05:33:40.376Z</time>
      </trkpt>
      <trkpt lat="45.84754" lon="6.76753">
        <ele>1921</ele>
        <time>2026-08-14T05:33:41.376Z</time>
      </trkpt>
      <trkpt lat="45.84754" lon="6.76753">
        <ele>1921</ele>
        <time>2026-08-14T05:33:42.376Z</time>
      </trkpt>
      <trkpt lat="45.84754" lon="6.76752">
        <ele>1920</ele>
        <time>2026-08-14T05:33:43.376Z</time>
      </trkpt>
      <trkpt lat="45.84753" lon="6.76751">
        <ele>1920</ele>
        <time>2026-08-14T05:33:44.376Z</time>
      </trkpt>
      <trkpt lat="45.84753" lon="6.7675">
        <ele>1919</ele>
        <time>2026-08-14T05:33:45.376Z</time>
      </trkpt>
      <trkpt lat="45.84753" lon="6.76749">
        <ele>1918</ele>
        <time>2026-08-14T05:33:46.376Z</time>
      </trkpt>
      <trkpt lat="45.84752" lon="6.76748">
        <ele>1918</ele>
        <time>2026-08-14T05:33:47.376Z</time>
      </trkpt>
      <trkpt lat="45.84752" lon="6.76747">
        <ele>1917</ele>
        <time>2026-08-14T05:33:48.376Z</time>
      </trkpt>
      <trkpt lat="45.84751" lon="6.76746">
        <ele>1917</ele>
        <time>2026-08-14T05:33:49.376Z</time>
      </trkpt>
      <trkpt lat="45.84751" lon="6.76744">
        <ele>1916</ele>
        <time>2026-08-14T05:33:50.376Z</time>
      </trkpt>
      <trkpt lat="45.84751" lon="6.76743">
        <ele>1916</ele>
        <time>2026-08-14T05:33:51.376Z</time>
      </trkpt>
      <trkpt lat="45.84751" lon="6.76742">
        <ele>1915</ele>
        <time>2026-08-14T05:33:52.376Z</time>
      </trkpt>
      <trkpt lat="45.84751" lon="6.76741">
        <ele>1915</ele>
        <time>2026-08-14T05:33:53.376Z</time>
      </trkpt>
      <trkpt lat="45.84751" lon="6.7674">
        <ele>1914</ele>
        <time>2026-08-14T05:33:54.376Z</time>
      </trkpt>
      <trkpt lat="45.84751" lon="6.76738">
        <ele>1914</ele>
        <time>2026-08-14T05:33:55.376Z</time>
      </trkpt>
      <trkpt lat="45.84751" lon="6.76737">
        <ele>1914</ele>
        <time>2026-08-14T05:33:56.376Z</time>
      </trkpt>
      <trkpt lat="45.84751" lon="6.76736">
        <ele>1914</ele>
        <time>2026-08-14T05:33:57.376Z</time>
      </trkpt>
      <trkpt lat="45.84751" lon="6.76735">
        <ele>1914</ele>
        <time>2026-08-14T05:33:58.376Z</time>
      </trkpt>
      <trkpt lat="45.84751" lon="6.76734">
        <ele>1914</ele>
        <time>2026-08-14T05:33:59.376Z</time>
      </trkpt>
      <trkpt lat="45.8475" lon="6.76732">
        <ele>1914</ele>
        <time>2026-08-14T05:34:00.376Z</time>
      </trkpt>
      <trkpt lat="45.84749" lon="6.76731">
        <ele>1914</ele>
        <time>2026-08-14T05:34:01.376Z</time>
      </trkpt>
      <trkpt lat="45.84749" lon="6.7673">
        <ele>1913</ele>
        <time>2026-08-14T05:34:02.376Z</time>
      </trkpt>
      <trkpt lat="45.84748" lon="6.76729">
        <ele>1913</ele>
        <time>2026-08-14T05:34:03.376Z</time>
      </trkpt>
      <trkpt lat="45.84747" lon="6.76729">
        <ele>1912</ele>
        <time>2026-08-14T05:34:04.376Z</time>
      </trkpt>
      <trkpt lat="45.84746" lon="6.76728">
        <ele>1911</ele>
        <time>2026-08-14T05:34:05.376Z</time>
      </trkpt>
      <trkpt lat="45.84746" lon="6.76727">
        <ele>1911</ele>
        <time>2026-08-14T05:34:06.376Z</time>
      </trkpt>
      <trkpt lat="45.84745" lon="6.76726">
        <ele>1910</ele>
        <time>2026-08-14T05:34:07.376Z</time>
      </trkpt>
      <trkpt lat="45.84745" lon="6.76725">
        <ele>1910</ele>
        <time>2026-08-14T05:34:08.376Z</time>
      </trkpt>
      <trkpt lat="45.84744" lon="6.76725">
        <ele>1910</ele>
        <time>2026-08-14T05:34:09.376Z</time>
      </trkpt>
      <trkpt lat="45.84743" lon="6.76725">
        <ele>1910</ele>
        <time>2026-08-14T05:34:10.376Z</time>
      </trkpt>
      <trkpt lat="45.84743" lon="6.76727">
        <ele>1909</ele>
        <time>2026-08-14T05:34:11.376Z</time>
      </trkpt>
      <trkpt lat="45.84742" lon="6.76728">
        <ele>1908</ele>
        <time>2026-08-14T05:34:12.376Z</time>
      </trkpt>
      <trkpt lat="45.84742" lon="6.7673">
        <ele>1907</ele>
        <time>2026-08-14T05:34:13.376Z</time>
      </trkpt>
      <trkpt lat="45.84741" lon="6.76733">
        <ele>1907</ele>
        <time>2026-08-14T05:34:14.376Z</time>
      </trkpt>
      <trkpt lat="45.8474" lon="6.76734">
        <ele>1906</ele>
        <time>2026-08-14T05:34:15.376Z</time>
      </trkpt>
      <trkpt lat="45.84739" lon="6.76736">
        <ele>1906</ele>
        <time>2026-08-14T05:34:16.376Z</time>
      </trkpt>
      <trkpt lat="45.84738" lon="6.76738">
        <ele>1906</ele>
        <time>2026-08-14T05:34:17.376Z</time>
      </trkpt>
      <trkpt lat="45.84737" lon="6.7674">
        <ele>1906</ele>
        <time>2026-08-14T05:34:18.376Z</time>
      </trkpt>
      <trkpt lat="45.84736" lon="6.76741">
        <ele>1906</ele>
        <time>2026-08-14T05:34:19.376Z</time>
      </trkpt>
      <trkpt lat="45.84734" lon="6.76742">
        <ele>1905</ele>
        <time>2026-08-14T05:34:20.376Z</time>
      </trkpt>
      <trkpt lat="45.84734" lon="6.76744">
        <ele>1905</ele>
        <time>2026-08-14T05:34:21.376Z</time>
      </trkpt>
      <trkpt lat="45.84733" lon="6.76745">
        <ele>1905</ele>
        <time>2026-08-14T05:34:22.376Z</time>
      </trkpt>
      <trkpt lat="45.84732" lon="6.76746">
        <ele>1905</ele>
        <time>2026-08-14T05:34:23.376Z</time>
      </trkpt>
      <trkpt lat="45.84732" lon="6.76747">
        <ele>1905</ele>
        <time>2026-08-14T05:34:24.376Z</time>
      </trkpt>
      <trkpt lat="45.84732" lon="6.76748">
        <ele>1905</ele>
        <time>2026-08-14T05:34:25.376Z</time>
      </trkpt>
      <trkpt lat="45.84731" lon="6.76748">
        <ele>1904</ele>
        <time>2026-08-14T05:34:26.376Z</time>
      </trkpt>
      <trkpt lat="45.8473" lon="6.76749">
        <ele>1903</ele>
        <time>2026-08-14T05:34:27.376Z</time>
      </trkpt>
      <trkpt lat="45.84728" lon="6.76749">
        <ele>1902</ele>
        <time>2026-08-14T05:34:28.376Z</time>
      </trkpt>
      <trkpt lat="45.84727" lon="6.76751">
        <ele>1902</ele>
        <time>2026-08-14T05:34:29.376Z</time>
      </trkpt>
      <trkpt lat="45.84726" lon="6.76752">
        <ele>1901</ele>
        <time>2026-08-14T05:34:30.376Z</time>
      </trkpt>
      <trkpt lat="45.84725" lon="6.76754">
        <ele>1901</ele>
        <time>2026-08-14T05:34:31.376Z</time>
      </trkpt>
      <trkpt lat="45.84724" lon="6.76756">
        <ele>1901</ele>
        <time>2026-08-14T05:34:32.376Z</time>
      </trkpt>
      <trkpt lat="45.84723" lon="6.76757">
        <ele>1901</ele>
        <time>2026-08-14T05:34:33.376Z</time>
      </trkpt>
      <trkpt lat="45.84722" lon="6.76759">
        <ele>1902</ele>
        <time>2026-08-14T05:34:34.376Z</time>
      </trkpt>
      <trkpt lat="45.84721" lon="6.7676">
        <ele>1903</ele>
        <time>2026-08-14T05:34:35.376Z</time>
      </trkpt>
      <trkpt lat="45.84721" lon="6.7676">
        <ele>1903</ele>
        <time>2026-08-14T05:34:36.376Z</time>
      </trkpt>
      <trkpt lat="45.8472" lon="6.76762">
        <ele>1903</ele>
        <time>2026-08-14T05:34:37.376Z</time>
      </trkpt>
      <trkpt lat="45.84719" lon="6.76762">
        <ele>1904</ele>
        <time>2026-08-14T05:34:38.376Z</time>
      </trkpt>
      <trkpt lat="45.84718" lon="6.76763">
        <ele>1904</ele>
        <time>2026-08-14T05:34:39.376Z</time>
      </trkpt>
      <trkpt lat="45.84718" lon="6.76762">
        <ele>1903</ele>
        <time>2026-08-14T05:34:40.376Z</time>
      </trkpt>
      <trkpt lat="45.84717" lon="6.76762">
        <ele>1903</ele>
        <time>2026-08-14T05:34:41.376Z</time>
      </trkpt>
      <trkpt lat="45.84717" lon="6.76761">
        <ele>1903</ele>
        <time>2026-08-14T05:34:42.376Z</time>
      </trkpt>
      <trkpt lat="45.84716" lon="6.7676">
        <ele>1902</ele>
        <time>2026-08-14T05:34:43.376Z</time>
      </trkpt>
      <trkpt lat="45.84716" lon="6.76758">
        <ele>1902</ele>
        <time>2026-08-14T05:34:44.376Z</time>
      </trkpt>
      <trkpt lat="45.84716" lon="6.76757">
        <ele>1901</ele>
        <time>2026-08-14T05:34:45.376Z</time>
      </trkpt>
      <trkpt lat="45.84716" lon="6.76756">
        <ele>1900</ele>
        <time>2026-08-14T05:34:46.376Z</time>
      </trkpt>
      <trkpt lat="45.84716" lon="6.76754">
        <ele>1899</ele>
        <time>2026-08-14T05:34:47.376Z</time>
      </trkpt>
      <trkpt lat="45.84716" lon="6.76753">
        <ele>1899</ele>
        <time>2026-08-14T05:34:48.376Z</time>
      </trkpt>
      <trkpt lat="45.84716" lon="6.76752">
        <ele>1899</ele>
        <time>2026-08-14T05:34:49.376Z</time>
      </trkpt>
      <trkpt lat="45.84716" lon="6.76751">
        <ele>1899</ele>
        <time>2026-08-14T05:34:50.376Z</time>
      </trkpt>
      <trkpt lat="45.84716" lon="6.76751">
        <ele>1898</ele>
        <time>2026-08-14T05:34:51.376Z</time>
      </trkpt>
      <trkpt lat="45.84716" lon="6.7675">
        <ele>1898</ele>
        <time>2026-08-14T05:34:52.376Z</time>
      </trkpt>
      <trkpt lat="45.84715" lon="6.76749">
        <ele>1898</ele>
        <time>2026-08-14T05:34:53.376Z</time>
      </trkpt>
      <trkpt lat="45.84715" lon="6.76749">
        <ele>1897</ele>
        <time>2026-08-14T05:34:54.376Z</time>
      </trkpt>
      <trkpt lat="45.84715" lon="6.76748">
        <ele>1898</ele>
        <time>2026-08-14T05:34:55.376Z</time>
      </trkpt>
      <trkpt lat="45.84714" lon="6.76747">
        <ele>1897</ele>
        <time>2026-08-14T05:34:56.376Z</time>
      </trkpt>
      <trkpt lat="45.84714" lon="6.76746">
        <ele>1897</ele>
        <time>2026-08-14T05:34:57.376Z</time>
      </trkpt>
      <trkpt lat="45.84714" lon="6.76745">
        <ele>1897</ele>
        <time>2026-08-14T05:34:58.376Z</time>
      </trkpt>
      <trkpt lat="45.84714" lon="6.76744">
        <ele>1896</ele>
        <time>2026-08-14T05:34:59.376Z</time>
      </trkpt>
      <trkpt lat="45.84714" lon="6.76742">
        <ele>1895</ele>
        <time>2026-08-14T05:35:00.376Z</time>
      </trkpt>
      <trkpt lat="45.84714" lon="6.7674">
        <ele>1895</ele>
        <time>2026-08-14T05:35:01.376Z</time>
      </trkpt>
      <trkpt lat="45.84714" lon="6.76739">
        <ele>1894</ele>
        <time>2026-08-14T05:35:02.376Z</time>
      </trkpt>
      <trkpt lat="45.84715" lon="6.76738">
        <ele>1893</ele>
        <time>2026-08-14T05:35:03.376Z</time>
      </trkpt>
      <trkpt lat="45.84715" lon="6.76738">
        <ele>1893</ele>
        <time>2026-08-14T05:35:04.376Z</time>
      </trkpt>
      <trkpt lat="45.84715" lon="6.76737">
        <ele>1893</ele>
        <time>2026-08-14T05:35:05.376Z</time>
      </trkpt>
      <trkpt lat="45.84715" lon="6.76736">
        <ele>1893</ele>
        <time>2026-08-14T05:35:06.376Z</time>
      </trkpt>
      <trkpt lat="45.84715" lon="6.76735">
        <ele>1892</ele>
        <time>2026-08-14T05:35:07.376Z</time>
      </trkpt>
      <trkpt lat="45.84715" lon="6.76734">
        <ele>1892</ele>
        <time>2026-08-14T05:35:08.376Z</time>
      </trkpt>
      <trkpt lat="45.84714" lon="6.76733">
        <ele>1892</ele>
        <time>2026-08-14T05:35:09.376Z</time>
      </trkpt>
      <trkpt lat="45.84714" lon="6.76731">
        <ele>1891</ele>
        <time>2026-08-14T05:35:10.376Z</time>
      </trkpt>
      <trkpt lat="45.84714" lon="6.76731">
        <ele>1890</ele>
        <time>2026-08-14T05:35:11.376Z</time>
      </trkpt>
      <trkpt lat="45.84714" lon="6.76729">
        <ele>1890</ele>
        <time>2026-08-14T05:35:12.376Z</time>
      </trkpt>
      <trkpt lat="45.84714" lon="6.76728">
        <ele>1889</ele>
        <time>2026-08-14T05:35:13.376Z</time>
      </trkpt>
      <trkpt lat="45.84714" lon="6.76727">
        <ele>1889</ele>
        <time>2026-08-14T05:35:14.376Z</time>
      </trkpt>
      <trkpt lat="45.84714" lon="6.76726">
        <ele>1889</ele>
        <time>2026-08-14T05:35:15.376Z</time>
      </trkpt>
      <trkpt lat="45.84713" lon="6.76726">
        <ele>1888</ele>
        <time>2026-08-14T05:35:16.376Z</time>
      </trkpt>
      <trkpt lat="45.84713" lon="6.76726">
        <ele>1888</ele>
        <time>2026-08-14T05:35:17.376Z</time>
      </trkpt>
      <trkpt lat="45.84712" lon="6.76726">
        <ele>1888</ele>
        <time>2026-08-14T05:35:18.376Z</time>
      </trkpt>
      <trkpt lat="45.84711" lon="6.76726">
        <ele>1888</ele>
        <time>2026-08-14T05:35:19.376Z</time>
      </trkpt>
      <trkpt lat="45.84711" lon="6.76726">
        <ele>1888</ele>
        <time>2026-08-14T05:35:20.376Z</time>
      </trkpt>
      <trkpt lat="45.8471" lon="6.76726">
        <ele>1887</ele>
        <time>2026-08-14T05:35:21.376Z</time>
      </trkpt>
      <trkpt lat="45.84709" lon="6.76725">
        <ele>1887</ele>
        <time>2026-08-14T05:35:22.376Z</time>
      </trkpt>
      <trkpt lat="45.8471" lon="6.76724">
        <ele>1887</ele>
        <time>2026-08-14T05:35:23.376Z</time>
      </trkpt>
      <trkpt lat="45.8471" lon="6.76723">
        <ele>1886</ele>
        <time>2026-08-14T05:35:24.376Z</time>
      </trkpt>
      <trkpt lat="45.8471" lon="6.76722">
        <ele>1886</ele>
        <time>2026-08-14T05:35:25.376Z</time>
      </trkpt>
      <trkpt lat="45.8471" lon="6.76722">
        <ele>1886</ele>
        <time>2026-08-14T05:35:26.376Z</time>
      </trkpt>
      <trkpt lat="45.8471" lon="6.76721">
        <ele>1885</ele>
        <time>2026-08-14T05:35:27.376Z</time>
      </trkpt>
      <trkpt lat="45.8471" lon="6.7672">
        <ele>1884</ele>
        <time>2026-08-14T05:35:28.376Z</time>
      </trkpt>
      <trkpt lat="45.8471" lon="6.76719">
        <ele>1883</ele>
        <time>2026-08-14T05:35:29.376Z</time>
      </trkpt>
      <trkpt lat="45.8471" lon="6.76718">
        <ele>1883</ele>
        <time>2026-08-14T05:35:30.376Z</time>
      </trkpt>
      <trkpt lat="45.8471" lon="6.76717">
        <ele>1882</ele>
        <time>2026-08-14T05:35:31.376Z</time>
      </trkpt>
      <trkpt lat="45.84709" lon="6.76716">
        <ele>1882</ele>
        <time>2026-08-14T05:35:32.376Z</time>
      </trkpt>
      <trkpt lat="45.84709" lon="6.76716">
        <ele>1882</ele>
        <time>2026-08-14T05:35:33.376Z</time>
      </trkpt>
      <trkpt lat="45.84708" lon="6.76716">
        <ele>1881</ele>
        <time>2026-08-14T05:35:34.376Z</time>
      </trkpt>
      <trkpt lat="45.84707" lon="6.76715">
        <ele>1881</ele>
        <time>2026-08-14T05:35:35.376Z</time>
      </trkpt>
      <trkpt lat="45.84707" lon="6.76715">
        <ele>1881</ele>
        <time>2026-08-14T05:35:36.376Z</time>
      </trkpt>
      <trkpt lat="45.84706" lon="6.76714">
        <ele>1880</ele>
        <time>2026-08-14T05:35:37.376Z</time>
      </trkpt>
      <trkpt lat="45.84706" lon="6.76712">
        <ele>1880</ele>
        <time>2026-08-14T05:35:38.376Z</time>
      </trkpt>
      <trkpt lat="45.84705" lon="6.76711">
        <ele>1880</ele>
        <time>2026-08-14T05:35:39.376Z</time>
      </trkpt>
      <trkpt lat="45.84705" lon="6.76709">
        <ele>1880</ele>
        <time>2026-08-14T05:35:40.376Z</time>
      </trkpt>
      <trkpt lat="45.84705" lon="6.76708">
        <ele>1880</ele>
        <time>2026-08-14T05:35:41.376Z</time>
      </trkpt>
      <trkpt lat="45.84705" lon="6.76707">
        <ele>1879</ele>
        <time>2026-08-14T05:35:42.376Z</time>
      </trkpt>
      <trkpt lat="45.84705" lon="6.76706">
        <ele>1879</ele>
        <time>2026-08-14T05:35:43.376Z</time>
      </trkpt>
      <trkpt lat="45.84704" lon="6.76705">
        <ele>1879</ele>
        <time>2026-08-14T05:35:44.376Z</time>
      </trkpt>
      <trkpt lat="45.84703" lon="6.76703">
        <ele>1879</ele>
        <time>2026-08-14T05:35:45.376Z</time>
      </trkpt>
      <trkpt lat="45.84703" lon="6.76702">
        <ele>1879</ele>
        <time>2026-08-14T05:35:46.376Z</time>
      </trkpt>
      <trkpt lat="45.84702" lon="6.76701">
        <ele>1879</ele>
        <time>2026-08-14T05:35:47.376Z</time>
      </trkpt>
      <trkpt lat="45.84702" lon="6.76699">
        <ele>1879</ele>
        <time>2026-08-14T05:35:48.376Z</time>
      </trkpt>
      <trkpt lat="45.84701" lon="6.76698">
        <ele>1878</ele>
        <time>2026-08-14T05:35:49.376Z</time>
      </trkpt>
      <trkpt lat="45.84701" lon="6.76696">
        <ele>1878</ele>
        <time>2026-08-14T05:35:50.376Z</time>
      </trkpt>
      <trkpt lat="45.847" lon="6.76694">
        <ele>1878</ele>
        <time>2026-08-14T05:35:51.376Z</time>
      </trkpt>
      <trkpt lat="45.84699" lon="6.76693">
        <ele>1877</ele>
        <time>2026-08-14T05:35:52.376Z</time>
      </trkpt>
      <trkpt lat="45.84698" lon="6.76692">
        <ele>1877</ele>
        <time>2026-08-14T05:35:53.376Z</time>
      </trkpt>
      <trkpt lat="45.84698" lon="6.76691">
        <ele>1876</ele>
        <time>2026-08-14T05:35:54.376Z</time>
      </trkpt>
      <trkpt lat="45.84697" lon="6.76689">
        <ele>1876</ele>
        <time>2026-08-14T05:35:55.376Z</time>
      </trkpt>
      <trkpt lat="45.84696" lon="6.76688">
        <ele>1876</ele>
        <time>2026-08-14T05:35:56.376Z</time>
      </trkpt>
      <trkpt lat="45.84696" lon="6.76686">
        <ele>1875</ele>
        <time>2026-08-14T05:35:57.376Z</time>
      </trkpt>
      <trkpt lat="45.84695" lon="6.76685">
        <ele>1874</ele>
        <time>2026-08-14T05:35:58.376Z</time>
      </trkpt>
      <trkpt lat="45.84695" lon="6.76684">
        <ele>1874</ele>
        <time>2026-08-14T05:35:59.376Z</time>
      </trkpt>
      <trkpt lat="45.84695" lon="6.76683">
        <ele>1873</ele>
        <time>2026-08-14T05:36:00.376Z</time>
      </trkpt>
      <trkpt lat="45.84695" lon="6.76683">
        <ele>1873</ele>
        <time>2026-08-14T05:36:01.376Z</time>
      </trkpt>
      <trkpt lat="45.84695" lon="6.76682">
        <ele>1872</ele>
        <time>2026-08-14T05:36:02.376Z</time>
      </trkpt>
      <trkpt lat="45.84695" lon="6.76682">
        <ele>1872</ele>
        <time>2026-08-14T05:36:03.376Z</time>
      </trkpt>
      <trkpt lat="45.84695" lon="6.76681">
        <ele>1872</ele>
        <time>2026-08-14T05:36:04.376Z</time>
      </trkpt>
      <trkpt lat="45.84695" lon="6.76681">
        <ele>1872</ele>
        <time>2026-08-14T05:36:05.376Z</time>
      </trkpt>
      <trkpt lat="45.84694" lon="6.76681">
        <ele>1872</ele>
        <time>2026-08-14T05:36:06.376Z</time>
      </trkpt>
      <trkpt lat="45.84693" lon="6.76681">
        <ele>1872</ele>
        <time>2026-08-14T05:36:07.376Z</time>
      </trkpt>
      <trkpt lat="45.84692" lon="6.76681">
        <ele>1871</ele>
        <time>2026-08-14T05:36:08.376Z</time>
      </trkpt>
      <trkpt lat="45.84692" lon="6.76682">
        <ele>1871</ele>
        <time>2026-08-14T05:36:09.376Z</time>
      </trkpt>
      <trkpt lat="45.84691" lon="6.76683">
        <ele>1871</ele>
        <time>2026-08-14T05:36:10.376Z</time>
      </trkpt>
      <trkpt lat="45.84691" lon="6.76684">
        <ele>1870</ele>
        <time>2026-08-14T05:36:11.376Z</time>
      </trkpt>
      <trkpt lat="45.84691" lon="6.76685">
        <ele>1871</ele>
        <time>2026-08-14T05:36:12.376Z</time>
      </trkpt>
      <trkpt lat="45.84691" lon="6.76687">
        <ele>1871</ele>
        <time>2026-08-14T05:36:13.376Z</time>
      </trkpt>
      <trkpt lat="45.8469" lon="6.76689">
        <ele>1871</ele>
        <time>2026-08-14T05:36:14.376Z</time>
      </trkpt>
      <trkpt lat="45.8469" lon="6.76691">
        <ele>1871</ele>
        <time>2026-08-14T05:36:15.376Z</time>
      </trkpt>
      <trkpt lat="45.8469" lon="6.76693">
        <ele>1871</ele>
        <time>2026-08-14T05:36:16.376Z</time>
      </trkpt>
      <trkpt lat="45.8469" lon="6.76694">
        <ele>1871</ele>
        <time>2026-08-14T05:36:17.376Z</time>
      </trkpt>
      <trkpt lat="45.8469" lon="6.76696">
        <ele>1871</ele>
        <time>2026-08-14T05:36:18.376Z</time>
      </trkpt>
      <trkpt lat="45.84689" lon="6.76698">
        <ele>1870</ele>
        <time>2026-08-14T05:36:19.376Z</time>
      </trkpt>
      <trkpt lat="45.84688" lon="6.76701">
        <ele>1870</ele>
        <time>2026-08-14T05:36:20.376Z</time>
      </trkpt>
      <trkpt lat="45.84688" lon="6.76702">
        <ele>1870</ele>
        <time>2026-08-14T05:36:21.376Z</time>
      </trkpt>
      <trkpt lat="45.84687" lon="6.76704">
        <ele>1870</ele>
        <time>2026-08-14T05:36:22.376Z</time>
      </trkpt>
      <trkpt lat="45.84686" lon="6.76705">
        <ele>1869</ele>
        <time>2026-08-14T05:36:23.376Z</time>
      </trkpt>
      <trkpt lat="45.84685" lon="6.76706">
        <ele>1869</ele>
        <time>2026-08-14T05:36:24.376Z</time>
      </trkpt>
      <trkpt lat="45.84684" lon="6.76706">
        <ele>1868</ele>
        <time>2026-08-14T05:36:25.377Z</time>
      </trkpt>
      <trkpt lat="45.84683" lon="6.76706">
        <ele>1868</ele>
        <time>2026-08-14T05:36:26.376Z</time>
      </trkpt>
      <trkpt lat="45.84682" lon="6.76706">
        <ele>1868</ele>
        <time>2026-08-14T05:36:27.376Z</time>
      </trkpt>
      <trkpt lat="45.84682" lon="6.76706">
        <ele>1868</ele>
        <time>2026-08-14T05:36:28.376Z</time>
      </trkpt>
      <trkpt lat="45.84681" lon="6.76706">
        <ele>1867</ele>
        <time>2026-08-14T05:36:29.376Z</time>
      </trkpt>
      <trkpt lat="45.8468" lon="6.76706">
        <ele>1867</ele>
        <time>2026-08-14T05:36:30.376Z</time>
      </trkpt>
      <trkpt lat="45.84679" lon="6.76706">
        <ele>1866</ele>
        <time>2026-08-14T05:36:31.376Z</time>
      </trkpt>
      <trkpt lat="45.84678" lon="6.76707">
        <ele>1866</ele>
        <time>2026-08-14T05:36:32.376Z</time>
      </trkpt>
      <trkpt lat="45.84678" lon="6.76707">
        <ele>1866</ele>
        <time>2026-08-14T05:36:33.376Z</time>
      </trkpt>
      <trkpt lat="45.84677" lon="6.76707">
        <ele>1866</ele>
        <time>2026-08-14T05:36:34.376Z</time>
      </trkpt>
      <trkpt lat="45.84677" lon="6.76707">
        <ele>1866</ele>
        <time>2026-08-14T05:36:35.376Z</time>
      </trkpt>
      <trkpt lat="45.84676" lon="6.76707">
        <ele>1866</ele>
        <time>2026-08-14T05:36:36.376Z</time>
      </trkpt>
      <trkpt lat="45.84675" lon="6.76707">
        <ele>1866</ele>
        <time>2026-08-14T05:36:37.376Z</time>
      </trkpt>
      <trkpt lat="45.84675" lon="6.76708">
        <ele>1865</ele>
        <time>2026-08-14T05:36:38.376Z</time>
      </trkpt>
      <trkpt lat="45.84674" lon="6.76708">
        <ele>1865</ele>
        <time>2026-08-14T05:36:39.376Z</time>
      </trkpt>
      <trkpt lat="45.84674" lon="6.76708">
        <ele>1865</ele>
        <time>2026-08-14T05:36:40.376Z</time>
      </trkpt>
      <trkpt lat="45.84673" lon="6.76709">
        <ele>1864</ele>
        <time>2026-08-14T05:36:41.376Z</time>
      </trkpt>
      <trkpt lat="45.84673" lon="6.76709">
        <ele>1864</ele>
        <time>2026-08-14T05:36:42.376Z</time>
      </trkpt>
      <trkpt lat="45.84672" lon="6.76708">
        <ele>1863</ele>
        <time>2026-08-14T05:36:43.376Z</time>
      </trkpt>
      <trkpt lat="45.84671" lon="6.76708">
        <ele>1863</ele>
        <time>2026-08-14T05:36:44.376Z</time>
      </trkpt>
      <trkpt lat="45.84671" lon="6.76708">
        <ele>1863</ele>
        <time>2026-08-14T05:36:45.376Z</time>
      </trkpt>
      <trkpt lat="45.8467" lon="6.76707">
        <ele>1863</ele>
        <time>2026-08-14T05:36:46.376Z</time>
      </trkpt>
      <trkpt lat="45.8467" lon="6.76707">
        <ele>1863</ele>
        <time>2026-08-14T05:36:47.376Z</time>
      </trkpt>
      <trkpt lat="45.84669" lon="6.76707">
        <ele>1863</ele>
        <time>2026-08-14T05:36:48.376Z</time>
      </trkpt>
      <trkpt lat="45.84669" lon="6.76707">
        <ele>1863</ele>
        <time>2026-08-14T05:36:49.376Z</time>
      </trkpt>
      <trkpt lat="45.84669" lon="6.76707">
        <ele>1862</ele>
        <time>2026-08-14T05:36:50.376Z</time>
      </trkpt>
      <trkpt lat="45.84668" lon="6.76706">
        <ele>1862</ele>
        <time>2026-08-14T05:36:51.376Z</time>
      </trkpt>
      <trkpt lat="45.84668" lon="6.76706">
        <ele>1861</ele>
        <time>2026-08-14T05:36:52.376Z</time>
      </trkpt>
      <trkpt lat="45.84667" lon="6.76706">
        <ele>1861</ele>
        <time>2026-08-14T05:36:53.376Z</time>
      </trkpt>
      <trkpt lat="45.84667" lon="6.76707">
        <ele>1860</ele>
        <time>2026-08-14T05:36:54.376Z</time>
      </trkpt>
      <trkpt lat="45.84666" lon="6.76707">
        <ele>1860</ele>
        <time>2026-08-14T05:36:55.376Z</time>
      </trkpt>
      <trkpt lat="45.84665" lon="6.76708">
        <ele>1860</ele>
        <time>2026-08-14T05:36:56.376Z</time>
      </trkpt>
      <trkpt lat="45.84664" lon="6.76709">
        <ele>1860</ele>
        <time>2026-08-14T05:36:57.376Z</time>
      </trkpt>
      <trkpt lat="45.84663" lon="6.76709">
        <ele>1860</ele>
        <time>2026-08-14T05:36:58.376Z</time>
      </trkpt>
      <trkpt lat="45.84663" lon="6.7671">
        <ele>1860</ele>
        <time>2026-08-14T05:36:59.376Z</time>
      </trkpt>
      <trkpt lat="45.84662" lon="6.76709">
        <ele>1860</ele>
        <time>2026-08-14T05:37:00.376Z</time>
      </trkpt>
      <trkpt lat="45.84661" lon="6.76709">
        <ele>1859</ele>
        <time>2026-08-14T05:37:01.376Z</time>
      </trkpt>
      <trkpt lat="45.8466" lon="6.7671">
        <ele>1859</ele>
        <time>2026-08-14T05:37:02.376Z</time>
      </trkpt>
      <trkpt lat="45.8466" lon="6.76711">
        <ele>1859</ele>
        <time>2026-08-14T05:37:03.376Z</time>
      </trkpt>
      <trkpt lat="45.84659" lon="6.76712">
        <ele>1859</ele>
        <time>2026-08-14T05:37:04.376Z</time>
      </trkpt>
      <trkpt lat="45.84658" lon="6.76713">
        <ele>1859</ele>
        <time>2026-08-14T05:37:05.376Z</time>
      </trkpt>
      <trkpt lat="45.84657" lon="6.76714">
        <ele>1859</ele>
        <time>2026-08-14T05:37:06.376Z</time>
      </trkpt>
      <trkpt lat="45.84656" lon="6.76714">
        <ele>1858</ele>
        <time>2026-08-14T05:37:07.376Z</time>
      </trkpt>
      <trkpt lat="45.84656" lon="6.76714">
        <ele>1858</ele>
        <time>2026-08-14T05:37:08.376Z</time>
      </trkpt>
      <trkpt lat="45.84655" lon="6.76713">
        <ele>1857</ele>
        <time>2026-08-14T05:37:09.376Z</time>
      </trkpt>
      <trkpt lat="45.84654" lon="6.76713">
        <ele>1857</ele>
        <time>2026-08-14T05:37:10.376Z</time>
      </trkpt>
      <trkpt lat="45.84653" lon="6.76713">
        <ele>1857</ele>
        <time>2026-08-14T05:37:11.376Z</time>
      </trkpt>
      <trkpt lat="45.84652" lon="6.76712">
        <ele>1856</ele>
        <time>2026-08-14T05:37:12.376Z</time>
      </trkpt>
      <trkpt lat="45.84652" lon="6.76711">
        <ele>1856</ele>
        <time>2026-08-14T05:37:13.376Z</time>
      </trkpt>
      <trkpt lat="45.84651" lon="6.7671">
        <ele>1856</ele>
        <time>2026-08-14T05:37:14.376Z</time>
      </trkpt>
      <trkpt lat="45.84651" lon="6.76708">
        <ele>1855</ele>
        <time>2026-08-14T05:37:15.376Z</time>
      </trkpt>
      <trkpt lat="45.84652" lon="6.76707">
        <ele>1855</ele>
        <time>2026-08-14T05:37:16.376Z</time>
      </trkpt>
      <trkpt lat="45.84652" lon="6.76705">
        <ele>1855</ele>
        <time>2026-08-14T05:37:17.376Z</time>
      </trkpt>
      <trkpt lat="45.84652" lon="6.76703">
        <ele>1854</ele>
        <time>2026-08-14T05:37:18.376Z</time>
      </trkpt>
      <trkpt lat="45.84652" lon="6.76702">
        <ele>1854</ele>
        <time>2026-08-14T05:37:19.376Z</time>
      </trkpt>
      <trkpt lat="45.84653" lon="6.767">
        <ele>1853</ele>
        <time>2026-08-14T05:37:20.376Z</time>
      </trkpt>
      <trkpt lat="45.84653" lon="6.76699">
        <ele>1853</ele>
        <time>2026-08-14T05:37:21.376Z</time>
      </trkpt>
      <trkpt lat="45.84653" lon="6.76699">
        <ele>1852</ele>
        <time>2026-08-14T05:37:22.376Z</time>
      </trkpt>
      <trkpt lat="45.84653" lon="6.76698">
        <ele>1852</ele>
        <time>2026-08-14T05:37:23.376Z</time>
      </trkpt>
      <trkpt lat="45.84653" lon="6.76697">
        <ele>1852</ele>
        <time>2026-08-14T05:37:24.376Z</time>
      </trkpt>
      <trkpt lat="45.84652" lon="6.76696">
        <ele>1852</ele>
        <time>2026-08-14T05:37:25.376Z</time>
      </trkpt>
      <trkpt lat="45.84652" lon="6.76695">
        <ele>1852</ele>
        <time>2026-08-14T05:37:26.376Z</time>
      </trkpt>
      <trkpt lat="45.84652" lon="6.76694">
        <ele>1852</ele>
        <time>2026-08-14T05:37:27.376Z</time>
      </trkpt>
      <trkpt lat="45.84651" lon="6.76692">
        <ele>1851</ele>
        <time>2026-08-14T05:37:28.376Z</time>
      </trkpt>
      <trkpt lat="45.84651" lon="6.76691">
        <ele>1851</ele>
        <time>2026-08-14T05:37:29.376Z</time>
      </trkpt>
      <trkpt lat="45.84651" lon="6.7669">
        <ele>1850</ele>
        <time>2026-08-14T05:37:30.376Z</time>
      </trkpt>
      <trkpt lat="45.84651" lon="6.76689">
        <ele>1850</ele>
        <time>2026-08-14T05:37:31.376Z</time>
      </trkpt>
      <trkpt lat="45.8465" lon="6.76688">
        <ele>1849</ele>
        <time>2026-08-14T05:37:32.376Z</time>
      </trkpt>
      <trkpt lat="45.8465" lon="6.76687">
        <ele>1849</ele>
        <time>2026-08-14T05:37:33.376Z</time>
      </trkpt>
      <trkpt lat="45.8465" lon="6.76687">
        <ele>1849</ele>
        <time>2026-08-14T05:37:34.376Z</time>
      </trkpt>
      <trkpt lat="45.8465" lon="6.76686">
        <ele>1849</ele>
        <time>2026-08-14T05:37:35.376Z</time>
      </trkpt>
      <trkpt lat="45.8465" lon="6.76687">
        <ele>1848</ele>
        <time>2026-08-14T05:37:36.376Z</time>
      </trkpt>
      <trkpt lat="45.84649" lon="6.76687">
        <ele>1848</ele>
        <time>2026-08-14T05:37:37.376Z</time>
      </trkpt>
      <trkpt lat="45.84648" lon="6.76688">
        <ele>1847</ele>
        <time>2026-08-14T05:37:38.376Z</time>
      </trkpt>
      <trkpt lat="45.84648" lon="6.76687">
        <ele>1847</ele>
        <time>2026-08-14T05:37:39.376Z</time>
      </trkpt>
      <trkpt lat="45.84647" lon="6.76687">
        <ele>1847</ele>
        <time>2026-08-14T05:37:40.376Z</time>
      </trkpt>
      <trkpt lat="45.84647" lon="6.76686">
        <ele>1846</ele>
        <time>2026-08-14T05:37:41.376Z</time>
      </trkpt>
      <trkpt lat="45.84646" lon="6.76686">
        <ele>1846</ele>
        <time>2026-08-14T05:37:42.376Z</time>
      </trkpt>
      <trkpt lat="45.84646" lon="6.76686">
        <ele>1846</ele>
        <time>2026-08-14T05:37:43.376Z</time>
      </trkpt>
      <trkpt lat="45.84645" lon="6.76685">
        <ele>1845</ele>
        <time>2026-08-14T05:37:44.376Z</time>
      </trkpt>
      <trkpt lat="45.84644" lon="6.76685">
        <ele>1845</ele>
        <time>2026-08-14T05:37:45.376Z</time>
      </trkpt>
      <trkpt lat="45.84644" lon="6.76685">
        <ele>1845</ele>
        <time>2026-08-14T05:37:46.376Z</time>
      </trkpt>
      <trkpt lat="45.84643" lon="6.76685">
        <ele>1845</ele>
        <time>2026-08-14T05:37:47.376Z</time>
      </trkpt>
      <trkpt lat="45.84643" lon="6.76685">
        <ele>1845</ele>
        <time>2026-08-14T05:37:48.376Z</time>
      </trkpt>
      <trkpt lat="45.84642" lon="6.76686">
        <ele>1845</ele>
        <time>2026-08-14T05:37:49.376Z</time>
      </trkpt>
      <trkpt lat="45.84641" lon="6.76686">
        <ele>1845</ele>
        <time>2026-08-14T05:37:50.376Z</time>
      </trkpt>
      <trkpt lat="45.8464" lon="6.76688">
        <ele>1845</ele>
        <time>2026-08-14T05:37:51.376Z</time>
      </trkpt>
      <trkpt lat="45.84639" lon="6.76688">
        <ele>1845</ele>
        <time>2026-08-14T05:37:52.376Z</time>
      </trkpt>
      <trkpt lat="45.84637" lon="6.76689">
        <ele>1845</ele>
        <time>2026-08-14T05:37:53.376Z</time>
      </trkpt>
      <trkpt lat="45.84636" lon="6.76689">
        <ele>1845</ele>
        <time>2026-08-14T05:37:54.376Z</time>
      </trkpt>
      <trkpt lat="45.84635" lon="6.76689">
        <ele>1845</ele>
        <time>2026-08-14T05:37:55.376Z</time>
      </trkpt>
      <trkpt lat="45.84634" lon="6.7669">
        <ele>1844</ele>
        <time>2026-08-14T05:37:56.376Z</time>
      </trkpt>
      <trkpt lat="45.84633" lon="6.7669">
        <ele>1844</ele>
        <time>2026-08-14T05:37:57.376Z</time>
      </trkpt>
      <trkpt lat="45.84632" lon="6.76691">
        <ele>1844</ele>
        <time>2026-08-14T05:37:58.376Z</time>
      </trkpt>
      <trkpt lat="45.84631" lon="6.76691">
        <ele>1843</ele>
        <time>2026-08-14T05:37:59.376Z</time>
      </trkpt>
      <trkpt lat="45.84629" lon="6.76692">
        <ele>1843</ele>
        <time>2026-08-14T05:38:00.376Z</time>
      </trkpt>
      <trkpt lat="45.84628" lon="6.76693">
        <ele>1843</ele>
        <time>2026-08-14T05:38:01.376Z</time>
      </trkpt>
      <trkpt lat="45.84627" lon="6.76693">
        <ele>1842</ele>
        <time>2026-08-14T05:38:02.376Z</time>
      </trkpt>
      <trkpt lat="45.84626" lon="6.76694">
        <ele>1842</ele>
        <time>2026-08-14T05:38:03.376Z</time>
      </trkpt>
      <trkpt lat="45.84625" lon="6.76694">
        <ele>1841</ele>
        <time>2026-08-14T05:38:04.376Z</time>
      </trkpt>
      <trkpt lat="45.84623" lon="6.76695">
        <ele>1841</ele>
        <time>2026-08-14T05:38:05.376Z</time>
      </trkpt>
      <trkpt lat="45.84622" lon="6.76694">
        <ele>1840</ele>
        <time>2026-08-14T05:38:06.376Z</time>
      </trkpt>
      <trkpt lat="45.8462" lon="6.76695">
        <ele>1839</ele>
        <time>2026-08-14T05:38:07.376Z</time>
      </trkpt>
      <trkpt lat="45.84619" lon="6.76695">
        <ele>1839</ele>
        <time>2026-08-14T05:38:08.376Z</time>
      </trkpt>
      <trkpt lat="45.84617" lon="6.76696">
        <ele>1839</ele>
        <time>2026-08-14T05:38:09.376Z</time>
      </trkpt>
      <trkpt lat="45.84616" lon="6.76696">
        <ele>1839</ele>
        <time>2026-08-14T05:38:10.376Z</time>
      </trkpt>
      <trkpt lat="45.84615" lon="6.76696">
        <ele>1839</ele>
        <time>2026-08-14T05:38:11.376Z</time>
      </trkpt>
      <trkpt lat="45.84615" lon="6.76695">
        <ele>1838</ele>
        <time>2026-08-14T05:38:12.376Z</time>
      </trkpt>
      <trkpt lat="45.84614" lon="6.76695">
        <ele>1838</ele>
        <time>2026-08-14T05:38:13.376Z</time>
      </trkpt>
      <trkpt lat="45.84614" lon="6.76695">
        <ele>1837</ele>
        <time>2026-08-14T05:38:14.376Z</time>
      </trkpt>
      <trkpt lat="45.84614" lon="6.76694">
        <ele>1837</ele>
        <time>2026-08-14T05:38:15.376Z</time>
      </trkpt>
      <trkpt lat="45.84613" lon="6.76694">
        <ele>1837</ele>
        <time>2026-08-14T05:38:16.376Z</time>
      </trkpt>
      <trkpt lat="45.84612" lon="6.76694">
        <ele>1836</ele>
        <time>2026-08-14T05:38:17.376Z</time>
      </trkpt>
      <trkpt lat="45.84612" lon="6.76694">
        <ele>1836</ele>
        <time>2026-08-14T05:38:18.376Z</time>
      </trkpt>
      <trkpt lat="45.84611" lon="6.76693">
        <ele>1835</ele>
        <time>2026-08-14T05:38:19.376Z</time>
      </trkpt>
      <trkpt lat="45.84611" lon="6.76692">
        <ele>1835</ele>
        <time>2026-08-14T05:38:20.376Z</time>
      </trkpt>
      <trkpt lat="45.8461" lon="6.76691">
        <ele>1834</ele>
        <time>2026-08-14T05:38:21.376Z</time>
      </trkpt>
      <trkpt lat="45.8461" lon="6.76691">
        <ele>1834</ele>
        <time>2026-08-14T05:38:22.377Z</time>
      </trkpt>
      <trkpt lat="45.8461" lon="6.7669">
        <ele>1834</ele>
        <time>2026-08-14T05:38:23.376Z</time>
      </trkpt>
      <trkpt lat="45.8461" lon="6.76688">
        <ele>1833</ele>
        <time>2026-08-14T05:38:24.376Z</time>
      </trkpt>
      <trkpt lat="45.8461" lon="6.76687">
        <ele>1832</ele>
        <time>2026-08-14T05:38:25.376Z</time>
      </trkpt>
      <trkpt lat="45.8461" lon="6.76686">
        <ele>1832</ele>
        <time>2026-08-14T05:38:26.376Z</time>
      </trkpt>
      <trkpt lat="45.84611" lon="6.76685">
        <ele>1832</ele>
        <time>2026-08-14T05:38:27.376Z</time>
      </trkpt>
      <trkpt lat="45.84611" lon="6.76684">
        <ele>1832</ele>
        <time>2026-08-14T05:38:28.376Z</time>
      </trkpt>
      <trkpt lat="45.84611" lon="6.76684">
        <ele>1831</ele>
        <time>2026-08-14T05:38:29.376Z</time>
      </trkpt>
      <trkpt lat="45.84611" lon="6.76682">
        <ele>1831</ele>
        <time>2026-08-14T05:38:30.376Z</time>
      </trkpt>
      <trkpt lat="45.84611" lon="6.76681">
        <ele>1831</ele>
        <time>2026-08-14T05:38:31.376Z</time>
      </trkpt>
      <trkpt lat="45.84611" lon="6.7668">
        <ele>1831</ele>
        <time>2026-08-14T05:38:32.376Z</time>
      </trkpt>
      <trkpt lat="45.84611" lon="6.76679">
        <ele>1830</ele>
        <time>2026-08-14T05:38:33.376Z</time>
      </trkpt>
      <trkpt lat="45.84611" lon="6.76677">
        <ele>1830</ele>
        <time>2026-08-14T05:38:34.376Z</time>
      </trkpt>
      <trkpt lat="45.84611" lon="6.76676">
        <ele>1830</ele>
        <time>2026-08-14T05:38:35.376Z</time>
      </trkpt>
      <trkpt lat="45.84611" lon="6.76675">
        <ele>1829</ele>
        <time>2026-08-14T05:38:36.376Z</time>
      </trkpt>
      <trkpt lat="45.84611" lon="6.76674">
        <ele>1829</ele>
        <time>2026-08-14T05:38:37.376Z</time>
      </trkpt>
      <trkpt lat="45.8461" lon="6.76673">
        <ele>1828</ele>
        <time>2026-08-14T05:38:38.376Z</time>
      </trkpt>
      <trkpt lat="45.8461" lon="6.76672">
        <ele>1828</ele>
        <time>2026-08-14T05:38:39.376Z</time>
      </trkpt>
      <trkpt lat="45.8461" lon="6.76671">
        <ele>1828</ele>
        <time>2026-08-14T05:38:40.376Z</time>
      </trkpt>
      <trkpt lat="45.8461" lon="6.7667">
        <ele>1828</ele>
        <time>2026-08-14T05:38:41.376Z</time>
      </trkpt>
      <trkpt lat="45.8461" lon="6.76669">
        <ele>1828</ele>
        <time>2026-08-14T05:38:42.376Z</time>
      </trkpt>
      <trkpt lat="45.8461" lon="6.76668">
        <ele>1828</ele>
        <time>2026-08-14T05:38:43.376Z</time>
      </trkpt>
      <trkpt lat="45.8461" lon="6.76667">
        <ele>1828</ele>
        <time>2026-08-14T05:38:44.376Z</time>
      </trkpt>
      <trkpt lat="45.84609" lon="6.76666">
        <ele>1828</ele>
        <time>2026-08-14T05:38:45.376Z</time>
      </trkpt>
      <trkpt lat="45.84609" lon="6.76665">
        <ele>1828</ele>
        <time>2026-08-14T05:38:46.376Z</time>
      </trkpt>
      <trkpt lat="45.84608" lon="6.76663">
        <ele>1828</ele>
        <time>2026-08-14T05:38:47.376Z</time>
      </trkpt>
      <trkpt lat="45.84607" lon="6.76661">
        <ele>1828</ele>
        <time>2026-08-14T05:38:48.376Z</time>
      </trkpt>
      <trkpt lat="45.84607" lon="6.76659">
        <ele>1828</ele>
        <time>2026-08-14T05:38:49.376Z</time>
      </trkpt>
      <trkpt lat="45.84607" lon="6.76658">
        <ele>1827</ele>
        <time>2026-08-14T05:38:50.376Z</time>
      </trkpt>
      <trkpt lat="45.84607" lon="6.76656">
        <ele>1827</ele>
        <time>2026-08-14T05:38:51.376Z</time>
      </trkpt>
      <trkpt lat="45.84607" lon="6.76654">
        <ele>1826</ele>
        <time>2026-08-14T05:38:52.376Z</time>
      </trkpt>
      <trkpt lat="45.84607" lon="6.76653">
        <ele>1826</ele>
        <time>2026-08-14T05:38:53.376Z</time>
      </trkpt>
      <trkpt lat="45.84607" lon="6.76651">
        <ele>1826</ele>
        <time>2026-08-14T05:38:54.376Z</time>
      </trkpt>
      <trkpt lat="45.84606" lon="6.76649">
        <ele>1825</ele>
        <time>2026-08-14T05:38:55.376Z</time>
      </trkpt>
      <trkpt lat="45.84606" lon="6.76648">
        <ele>1825</ele>
        <time>2026-08-14T05:38:56.376Z</time>
      </trkpt>
      <trkpt lat="45.84606" lon="6.76647">
        <ele>1824</ele>
        <time>2026-08-14T05:38:57.376Z</time>
      </trkpt>
      <trkpt lat="45.84605" lon="6.76647">
        <ele>1824</ele>
        <time>2026-08-14T05:38:58.376Z</time>
      </trkpt>
      <trkpt lat="45.84604" lon="6.76647">
        <ele>1823</ele>
        <time>2026-08-14T05:38:59.376Z</time>
      </trkpt>
      <trkpt lat="45.84603" lon="6.76647">
        <ele>1823</ele>
        <time>2026-08-14T05:39:00.376Z</time>
      </trkpt>
      <trkpt lat="45.84602" lon="6.76649">
        <ele>1823</ele>
        <time>2026-08-14T05:39:01.376Z</time>
      </trkpt>
      <trkpt lat="45.84601" lon="6.7665">
        <ele>1822</ele>
        <time>2026-08-14T05:39:02.376Z</time>
      </trkpt>
      <trkpt lat="45.846" lon="6.76651">
        <ele>1822</ele>
        <time>2026-08-14T05:39:03.376Z</time>
      </trkpt>
      <trkpt lat="45.84599" lon="6.76652">
        <ele>1821</ele>
        <time>2026-08-14T05:39:04.376Z</time>
      </trkpt>
      <trkpt lat="45.84599" lon="6.76652">
        <ele>1821</ele>
        <time>2026-08-14T05:39:05.376Z</time>
      </trkpt>
      <trkpt lat="45.84598" lon="6.76651">
        <ele>1821</ele>
        <time>2026-08-14T05:39:06.376Z</time>
      </trkpt>
      <trkpt lat="45.84597" lon="6.76651">
        <ele>1820</ele>
        <time>2026-08-14T05:39:07.376Z</time>
      </trkpt>
      <trkpt lat="45.84596" lon="6.7665">
        <ele>1820</ele>
        <time>2026-08-14T05:39:08.376Z</time>
      </trkpt>
      <trkpt lat="45.84596" lon="6.76649">
        <ele>1820</ele>
        <time>2026-08-14T05:39:09.376Z</time>
      </trkpt>
      <trkpt lat="45.84596" lon="6.76648">
        <ele>1820</ele>
        <time>2026-08-14T05:39:10.376Z</time>
      </trkpt>
      <trkpt lat="45.84595" lon="6.76646">
        <ele>1819</ele>
        <time>2026-08-14T05:39:11.376Z</time>
      </trkpt>
      <trkpt lat="45.84595" lon="6.76644">
        <ele>1819</ele>
        <time>2026-08-14T05:39:12.376Z</time>
      </trkpt>
      <trkpt lat="45.84595" lon="6.76643">
        <ele>1818</ele>
        <time>2026-08-14T05:39:13.376Z</time>
      </trkpt>
      <trkpt lat="45.84594" lon="6.76641">
        <ele>1817</ele>
        <time>2026-08-14T05:39:14.376Z</time>
      </trkpt>
      <trkpt lat="45.84594" lon="6.7664">
        <ele>1817</ele>
        <time>2026-08-14T05:39:15.376Z</time>
      </trkpt>
      <trkpt lat="45.84593" lon="6.76639">
        <ele>1816</ele>
        <time>2026-08-14T05:39:16.376Z</time>
      </trkpt>
      <trkpt lat="45.84593" lon="6.76637">
        <ele>1816</ele>
        <time>2026-08-14T05:39:17.376Z</time>
      </trkpt>
      <trkpt lat="45.84593" lon="6.76636">
        <ele>1816</ele>
        <time>2026-08-14T05:39:18.376Z</time>
      </trkpt>
      <trkpt lat="45.84592" lon="6.76635">
        <ele>1816</ele>
        <time>2026-08-14T05:39:19.376Z</time>
      </trkpt>
      <trkpt lat="45.84592" lon="6.76635">
        <ele>1816</ele>
        <time>2026-08-14T05:39:20.376Z</time>
      </trkpt>
      <trkpt lat="45.84591" lon="6.76635">
        <ele>1815</ele>
        <time>2026-08-14T05:39:21.376Z</time>
      </trkpt>
      <trkpt lat="45.8459" lon="6.76635">
        <ele>1815</ele>
        <time>2026-08-14T05:39:22.376Z</time>
      </trkpt>
      <trkpt lat="45.84589" lon="6.76635">
        <ele>1815</ele>
        <time>2026-08-14T05:39:23.376Z</time>
      </trkpt>
      <trkpt lat="45.84588" lon="6.76636">
        <ele>1815</ele>
        <time>2026-08-14T05:39:24.376Z</time>
      </trkpt>
      <trkpt lat="45.84587" lon="6.76637">
        <ele>1815</ele>
        <time>2026-08-14T05:39:25.376Z</time>
      </trkpt>
      <trkpt lat="45.84586" lon="6.76638">
        <ele>1814</ele>
        <time>2026-08-14T05:39:26.376Z</time>
      </trkpt>
      <trkpt lat="45.84585" lon="6.76638">
        <ele>1814</ele>
        <time>2026-08-14T05:39:27.376Z</time>
      </trkpt>
      <trkpt lat="45.84585" lon="6.76638">
        <ele>1814</ele>
        <time>2026-08-14T05:39:28.376Z</time>
      </trkpt>
      <trkpt lat="45.84584" lon="6.76637">
        <ele>1813</ele>
        <time>2026-08-14T05:39:29.376Z</time>
      </trkpt>
      <trkpt lat="45.84583" lon="6.76637">
        <ele>1813</ele>
        <time>2026-08-14T05:39:30.376Z</time>
      </trkpt>
      <trkpt lat="45.84583" lon="6.76636">
        <ele>1813</ele>
        <time>2026-08-14T05:39:31.376Z</time>
      </trkpt>
      <trkpt lat="45.84582" lon="6.76636">
        <ele>1813</ele>
        <time>2026-08-14T05:39:32.376Z</time>
      </trkpt>
      <trkpt lat="45.84581" lon="6.76636">
        <ele>1813</ele>
        <time>2026-08-14T05:39:33.376Z</time>
      </trkpt>
      <trkpt lat="45.8458" lon="6.76635">
        <ele>1813</ele>
        <time>2026-08-14T05:39:34.376Z</time>
      </trkpt>
      <trkpt lat="45.84579" lon="6.76634">
        <ele>1813</ele>
        <time>2026-08-14T05:39:35.376Z</time>
      </trkpt>
      <trkpt lat="45.84578" lon="6.76634">
        <ele>1813</ele>
        <time>2026-08-14T05:39:36.376Z</time>
      </trkpt>
      <trkpt lat="45.84578" lon="6.76633">
        <ele>1812</ele>
        <time>2026-08-14T05:39:37.376Z</time>
      </trkpt>
      <trkpt lat="45.84578" lon="6.76633">
        <ele>1812</ele>
        <time>2026-08-14T05:39:38.376Z</time>
      </trkpt>
      <trkpt lat="45.84578" lon="6.76633">
        <ele>1812</ele>
        <time>2026-08-14T05:39:39.376Z</time>
      </trkpt>
      <trkpt lat="45.84578" lon="6.76633">
        <ele>1811</ele>
        <time>2026-08-14T05:39:40.376Z</time>
      </trkpt>
      <trkpt lat="45.84578" lon="6.76633">
        <ele>1810</ele>
        <time>2026-08-14T05:39:41.376Z</time>
      </trkpt>
      <trkpt lat="45.84577" lon="6.76632">
        <ele>1810</ele>
        <time>2026-08-14T05:39:42.376Z</time>
      </trkpt>
      <trkpt lat="45.84577" lon="6.76632">
        <ele>1810</ele>
        <time>2026-08-14T05:39:43.376Z</time>
      </trkpt>
      <trkpt lat="45.84576" lon="6.76631">
        <ele>1809</ele>
        <time>2026-08-14T05:39:44.376Z</time>
      </trkpt>
      <trkpt lat="45.84575" lon="6.76629">
        <ele>1809</ele>
        <time>2026-08-14T05:39:45.376Z</time>
      </trkpt>
      <trkpt lat="45.84575" lon="6.76628">
        <ele>1808</ele>
        <time>2026-08-14T05:39:46.376Z</time>
      </trkpt>
      <trkpt lat="45.84575" lon="6.76627">
        <ele>1808</ele>
        <time>2026-08-14T05:39:47.376Z</time>
      </trkpt>
      <trkpt lat="45.84575" lon="6.76625">
        <ele>1808</ele>
        <time>2026-08-14T05:39:48.376Z</time>
      </trkpt>
      <trkpt lat="45.84574" lon="6.76624">
        <ele>1808</ele>
        <time>2026-08-14T05:39:49.376Z</time>
      </trkpt>
      <trkpt lat="45.84573" lon="6.76624">
        <ele>1807</ele>
        <time>2026-08-14T05:39:50.376Z</time>
      </trkpt>
      <trkpt lat="45.84572" lon="6.76623">
        <ele>1807</ele>
        <time>2026-08-14T05:39:51.376Z</time>
      </trkpt>
      <trkpt lat="45.84571" lon="6.76622">
        <ele>1806</ele>
        <time>2026-08-14T05:39:52.376Z</time>
      </trkpt>
      <trkpt lat="45.84571" lon="6.76622">
        <ele>1806</ele>
        <time>2026-08-14T05:39:53.376Z</time>
      </trkpt>
      <trkpt lat="45.8457" lon="6.76621">
        <ele>1806</ele>
        <time>2026-08-14T05:39:54.376Z</time>
      </trkpt>
      <trkpt lat="45.84569" lon="6.76621">
        <ele>1806</ele>
        <time>2026-08-14T05:39:55.376Z</time>
      </trkpt>
      <trkpt lat="45.84568" lon="6.76621">
        <ele>1805</ele>
        <time>2026-08-14T05:39:56.376Z</time>
      </trkpt>
      <trkpt lat="45.84567" lon="6.76621">
        <ele>1805</ele>
        <time>2026-08-14T05:39:57.376Z</time>
      </trkpt>
      <trkpt lat="45.84566" lon="6.76621">
        <ele>1804</ele>
        <time>2026-08-14T05:39:58.376Z</time>
      </trkpt>
      <trkpt lat="45.84565" lon="6.7662">
        <ele>1804</ele>
        <time>2026-08-14T05:39:59.376Z</time>
      </trkpt>
      <trkpt lat="45.84564" lon="6.76619">
        <ele>1803</ele>
        <time>2026-08-14T05:40:00.376Z</time>
      </trkpt>
      <trkpt lat="45.84563" lon="6.76618">
        <ele>1802</ele>
        <time>2026-08-14T05:40:01.376Z</time>
      </trkpt>
      <trkpt lat="45.84563" lon="6.76617">
        <ele>1802</ele>
        <time>2026-08-14T05:40:02.376Z</time>
      </trkpt>
      <trkpt lat="45.84562" lon="6.76617">
        <ele>1801</ele>
        <time>2026-08-14T05:40:03.376Z</time>
      </trkpt>
      <trkpt lat="45.84561" lon="6.76616">
        <ele>1801</ele>
        <time>2026-08-14T05:40:04.376Z</time>
      </trkpt>
      <trkpt lat="45.8456" lon="6.76615">
        <ele>1801</ele>
        <time>2026-08-14T05:40:05.376Z</time>
      </trkpt>
      <trkpt lat="45.84559" lon="6.76615">
        <ele>1801</ele>
        <time>2026-08-14T05:40:06.376Z</time>
      </trkpt>
      <trkpt lat="45.84558" lon="6.76615">
        <ele>1801</ele>
        <time>2026-08-14T05:40:07.376Z</time>
      </trkpt>
      <trkpt lat="45.84557" lon="6.76615">
        <ele>1801</ele>
        <time>2026-08-14T05:40:08.376Z</time>
      </trkpt>
      <trkpt lat="45.84557" lon="6.76614">
        <ele>1800</ele>
        <time>2026-08-14T05:40:09.376Z</time>
      </trkpt>
      <trkpt lat="45.84556" lon="6.76613">
        <ele>1800</ele>
        <time>2026-08-14T05:40:10.376Z</time>
      </trkpt>
      <trkpt lat="45.84556" lon="6.76612">
        <ele>1800</ele>
        <time>2026-08-14T05:40:11.376Z</time>
      </trkpt>
      <trkpt lat="45.84555" lon="6.76612">
        <ele>1799</ele>
        <time>2026-08-14T05:40:12.376Z</time>
      </trkpt>
      <trkpt lat="45.84554" lon="6.76611">
        <ele>1799</ele>
        <time>2026-08-14T05:40:13.376Z</time>
      </trkpt>
      <trkpt lat="45.84553" lon="6.7661">
        <ele>1799</ele>
        <time>2026-08-14T05:40:14.376Z</time>
      </trkpt>
      <trkpt lat="45.84552" lon="6.7661">
        <ele>1798</ele>
        <time>2026-08-14T05:40:15.376Z</time>
      </trkpt>
      <trkpt lat="45.84551" lon="6.7661">
        <ele>1798</ele>
        <time>2026-08-14T05:40:16.376Z</time>
      </trkpt>
      <trkpt lat="45.8455" lon="6.76609">
        <ele>1797</ele>
        <time>2026-08-14T05:40:17.376Z</time>
      </trkpt>
      <trkpt lat="45.84549" lon="6.76609">
        <ele>1797</ele>
        <time>2026-08-14T05:40:18.376Z</time>
      </trkpt>
      <trkpt lat="45.84548" lon="6.76608">
        <ele>1797</ele>
        <time>2026-08-14T05:40:19.376Z</time>
      </trkpt>
      <trkpt lat="45.84547" lon="6.76607">
        <ele>1796</ele>
        <time>2026-08-14T05:40:20.376Z</time>
      </trkpt>
      <trkpt lat="45.84546" lon="6.76607">
        <ele>1796</ele>
        <time>2026-08-14T05:40:21.376Z</time>
      </trkpt>
      <trkpt lat="45.84546" lon="6.76607">
        <ele>1796</ele>
        <time>2026-08-14T05:40:22.376Z</time>
      </trkpt>
      <trkpt lat="45.84545" lon="6.76607">
        <ele>1795</ele>
        <time>2026-08-14T05:40:23.376Z</time>
      </trkpt>
      <trkpt lat="45.84544" lon="6.76606">
        <ele>1795</ele>
        <time>2026-08-14T05:40:24.376Z</time>
      </trkpt>
      <trkpt lat="45.84543" lon="6.76606">
        <ele>1794</ele>
        <time>2026-08-14T05:40:25.376Z</time>
      </trkpt>
      <trkpt lat="45.84543" lon="6.76605">
        <ele>1794</ele>
        <time>2026-08-14T05:40:26.376Z</time>
      </trkpt>
      <trkpt lat="45.84542" lon="6.76605">
        <ele>1794</ele>
        <time>2026-08-14T05:40:27.376Z</time>
      </trkpt>
      <trkpt lat="45.84541" lon="6.76604">
        <ele>1793</ele>
        <time>2026-08-14T05:40:28.376Z</time>
      </trkpt>
      <trkpt lat="45.8454" lon="6.76603">
        <ele>1793</ele>
        <time>2026-08-14T05:40:29.376Z</time>
      </trkpt>
      <trkpt lat="45.8454" lon="6.76602">
        <ele>1793</ele>
        <time>2026-08-14T05:40:30.376Z</time>
      </trkpt>
      <trkpt lat="45.8454" lon="6.766">
        <ele>1793</ele>
        <time>2026-08-14T05:40:31.376Z</time>
      </trkpt>
      <trkpt lat="45.84539" lon="6.76599">
        <ele>1792</ele>
        <time>2026-08-14T05:40:32.376Z</time>
      </trkpt>
      <trkpt lat="45.84538" lon="6.76599">
        <ele>1792</ele>
        <time>2026-08-14T05:40:33.376Z</time>
      </trkpt>
      <trkpt lat="45.84537" lon="6.76598">
        <ele>1791</ele>
        <time>2026-08-14T05:40:34.376Z</time>
      </trkpt>
      <trkpt lat="45.84536" lon="6.76597">
        <ele>1791</ele>
        <time>2026-08-14T05:40:35.376Z</time>
      </trkpt>
      <trkpt lat="45.84535" lon="6.76597">
        <ele>1791</ele>
        <time>2026-08-14T05:40:36.376Z</time>
      </trkpt>
      <trkpt lat="45.84534" lon="6.76596">
        <ele>1790</ele>
        <time>2026-08-14T05:40:37.376Z</time>
      </trkpt>
      <trkpt lat="45.84533" lon="6.76595">
        <ele>1789</ele>
        <time>2026-08-14T05:40:38.376Z</time>
      </trkpt>
      <trkpt lat="45.84532" lon="6.76595">
        <ele>1789</ele>
        <time>2026-08-14T05:40:39.376Z</time>
      </trkpt>
      <trkpt lat="45.84531" lon="6.76595">
        <ele>1788</ele>
        <time>2026-08-14T05:40:40.376Z</time>
      </trkpt>
      <trkpt lat="45.8453" lon="6.76594">
        <ele>1787</ele>
        <time>2026-08-14T05:40:41.376Z</time>
      </trkpt>
      <trkpt lat="45.84529" lon="6.76594">
        <ele>1787</ele>
        <time>2026-08-14T05:40:42.376Z</time>
      </trkpt>
      <trkpt lat="45.84528" lon="6.76594">
        <ele>1786</ele>
        <time>2026-08-14T05:40:43.376Z</time>
      </trkpt>
      <trkpt lat="45.84527" lon="6.76594">
        <ele>1786</ele>
        <time>2026-08-14T05:40:44.376Z</time>
      </trkpt>
      <trkpt lat="45.84525" lon="6.76594">
        <ele>1785</ele>
        <time>2026-08-14T05:40:45.376Z</time>
      </trkpt>
      <trkpt lat="45.84524" lon="6.76593">
        <ele>1785</ele>
        <time>2026-08-14T05:40:46.376Z</time>
      </trkpt>
      <trkpt lat="45.84523" lon="6.76592">
        <ele>1784</ele>
        <time>2026-08-14T05:40:47.376Z</time>
      </trkpt>
      <trkpt lat="45.84523" lon="6.7659">
        <ele>1784</ele>
        <time>2026-08-14T05:40:48.376Z</time>
      </trkpt>
      <trkpt lat="45.84523" lon="6.76589">
        <ele>1783</ele>
        <time>2026-08-14T05:40:49.376Z</time>
      </trkpt>
      <trkpt lat="45.84523" lon="6.76587">
        <ele>1783</ele>
        <time>2026-08-14T05:40:50.376Z</time>
      </trkpt>
      <trkpt lat="45.84523" lon="6.76586">
        <ele>1782</ele>
        <time>2026-08-14T05:40:51.376Z</time>
      </trkpt>
      <trkpt lat="45.84523" lon="6.76584">
        <ele>1781</ele>
        <time>2026-08-14T05:40:52.376Z</time>
      </trkpt>
      <trkpt lat="45.84524" lon="6.76582">
        <ele>1781</ele>
        <time>2026-08-14T05:40:53.376Z</time>
      </trkpt>
      <trkpt lat="45.84524" lon="6.7658">
        <ele>1780</ele>
        <time>2026-08-14T05:40:54.376Z</time>
      </trkpt>
      <trkpt lat="45.84524" lon="6.76578">
        <ele>1780</ele>
        <time>2026-08-14T05:40:55.376Z</time>
      </trkpt>
      <trkpt lat="45.84525" lon="6.76576">
        <ele>1779</ele>
        <time>2026-08-14T05:40:56.376Z</time>
      </trkpt>
      <trkpt lat="45.84524" lon="6.76575">
        <ele>1779</ele>
        <time>2026-08-14T05:40:57.376Z</time>
      </trkpt>
      <trkpt lat="45.84523" lon="6.76574">
        <ele>1778</ele>
        <time>2026-08-14T05:40:58.376Z</time>
      </trkpt>
      <trkpt lat="45.84522" lon="6.76574">
        <ele>1778</ele>
        <time>2026-08-14T05:40:59.376Z</time>
      </trkpt>
      <trkpt lat="45.84521" lon="6.76575">
        <ele>1778</ele>
        <time>2026-08-14T05:41:00.376Z</time>
      </trkpt>
      <trkpt lat="45.8452" lon="6.76575">
        <ele>1778</ele>
        <time>2026-08-14T05:41:01.376Z</time>
      </trkpt>
      <trkpt lat="45.84519" lon="6.76576">
        <ele>1778</ele>
        <time>2026-08-14T05:41:02.376Z</time>
      </trkpt>
      <trkpt lat="45.84518" lon="6.76576">
        <ele>1778</ele>
        <time>2026-08-14T05:41:03.376Z</time>
      </trkpt>
      <trkpt lat="45.84518" lon="6.76577">
        <ele>1778</ele>
        <time>2026-08-14T05:41:04.376Z</time>
      </trkpt>
      <trkpt lat="45.84517" lon="6.76576">
        <ele>1778</ele>
        <time>2026-08-14T05:41:05.376Z</time>
      </trkpt>
      <trkpt lat="45.84516" lon="6.76576">
        <ele>1777</ele>
        <time>2026-08-14T05:41:06.376Z</time>
      </trkpt>
      <trkpt lat="45.84515" lon="6.76574">
        <ele>1777</ele>
        <time>2026-08-14T05:41:07.376Z</time>
      </trkpt>
      <trkpt lat="45.84515" lon="6.76574">
        <ele>1777</ele>
        <time>2026-08-14T05:41:08.376Z</time>
      </trkpt>
      <trkpt lat="45.84514" lon="6.76573">
        <ele>1776</ele>
        <time>2026-08-14T05:41:09.376Z</time>
      </trkpt>
      <trkpt lat="45.84512" lon="6.76572">
        <ele>1776</ele>
        <time>2026-08-14T05:41:10.376Z</time>
      </trkpt>
      <trkpt lat="45.84512" lon="6.76571">
        <ele>1776</ele>
        <time>2026-08-14T05:41:11.376Z</time>
      </trkpt>
      <trkpt lat="45.84511" lon="6.76569">
        <ele>1775</ele>
        <time>2026-08-14T05:41:12.376Z</time>
      </trkpt>
      <trkpt lat="45.84511" lon="6.76568">
        <ele>1775</ele>
        <time>2026-08-14T05:41:13.376Z</time>
      </trkpt>
      <trkpt lat="45.84511" lon="6.76566">
        <ele>1775</ele>
        <time>2026-08-14T05:41:14.376Z</time>
      </trkpt>
      <trkpt lat="45.84511" lon="6.76564">
        <ele>1774</ele>
        <time>2026-08-14T05:41:15.376Z</time>
      </trkpt>
      <trkpt lat="45.84511" lon="6.76562">
        <ele>1774</ele>
        <time>2026-08-14T05:41:16.376Z</time>
      </trkpt>
      <trkpt lat="45.8451" lon="6.7656">
        <ele>1774</ele>
        <time>2026-08-14T05:41:17.376Z</time>
      </trkpt>
      <trkpt lat="45.8451" lon="6.7656">
        <ele>1774</ele>
        <time>2026-08-14T05:41:18.376Z</time>
      </trkpt>
      <trkpt lat="45.84509" lon="6.76561">
        <ele>1773</ele>
        <time>2026-08-14T05:41:19.376Z</time>
      </trkpt>
      <trkpt lat="45.84508" lon="6.76562">
        <ele>1773</ele>
        <time>2026-08-14T05:41:20.376Z</time>
      </trkpt>
      <trkpt lat="45.84506" lon="6.76563">
        <ele>1773</ele>
        <time>2026-08-14T05:41:21.376Z</time>
      </trkpt>
      <trkpt lat="45.84505" lon="6.76563">
        <ele>1773</ele>
        <time>2026-08-14T05:41:22.376Z</time>
      </trkpt>
      <trkpt lat="45.84504" lon="6.76562">
        <ele>1772</ele>
        <time>2026-08-14T05:41:23.376Z</time>
      </trkpt>
      <trkpt lat="45.84504" lon="6.76561">
        <ele>1772</ele>
        <time>2026-08-14T05:41:24.376Z</time>
      </trkpt>
      <trkpt lat="45.84504" lon="6.76559">
        <ele>1771</ele>
        <time>2026-08-14T05:41:25.376Z</time>
      </trkpt>
      <trkpt lat="45.84503" lon="6.76557">
        <ele>1771</ele>
        <time>2026-08-14T05:41:26.376Z</time>
      </trkpt>
      <trkpt lat="45.84503" lon="6.76555">
        <ele>1770</ele>
        <time>2026-08-14T05:41:27.376Z</time>
      </trkpt>
      <trkpt lat="45.84502" lon="6.76554">
        <ele>1770</ele>
        <time>2026-08-14T05:41:28.376Z</time>
      </trkpt>
      <trkpt lat="45.84502" lon="6.76553">
        <ele>1770</ele>
        <time>2026-08-14T05:41:29.376Z</time>
      </trkpt>
      <trkpt lat="45.84501" lon="6.76552">
        <ele>1769</ele>
        <time>2026-08-14T05:41:30.376Z</time>
      </trkpt>
      <trkpt lat="45.84501" lon="6.7655">
        <ele>1769</ele>
        <time>2026-08-14T05:41:31.376Z</time>
      </trkpt>
      <trkpt lat="45.84501" lon="6.76549">
        <ele>1769</ele>
        <time>2026-08-14T05:41:32.376Z</time>
      </trkpt>
      <trkpt lat="45.84501" lon="6.76548">
        <ele>1768</ele>
        <time>2026-08-14T05:41:33.376Z</time>
      </trkpt>
      <trkpt lat="45.845" lon="6.76547">
        <ele>1767</ele>
        <time>2026-08-14T05:41:34.376Z</time>
      </trkpt>
      <trkpt lat="45.845" lon="6.76545">
        <ele>1767</ele>
        <time>2026-08-14T05:41:35.376Z</time>
      </trkpt>
      <trkpt lat="45.845" lon="6.76544">
        <ele>1766</ele>
        <time>2026-08-14T05:41:36.376Z</time>
      </trkpt>
      <trkpt lat="45.845" lon="6.76543">
        <ele>1765</ele>
        <time>2026-08-14T05:41:37.376Z</time>
      </trkpt>
      <trkpt lat="45.84499" lon="6.76542">
        <ele>1765</ele>
        <time>2026-08-14T05:41:38.376Z</time>
      </trkpt>
      <trkpt lat="45.84499" lon="6.76541">
        <ele>1764</ele>
        <time>2026-08-14T05:41:39.376Z</time>
      </trkpt>
      <trkpt lat="45.84498" lon="6.76541">
        <ele>1764</ele>
        <time>2026-08-14T05:41:40.376Z</time>
      </trkpt>
      <trkpt lat="45.84498" lon="6.7654">
        <ele>1764</ele>
        <time>2026-08-14T05:41:41.376Z</time>
      </trkpt>
      <trkpt lat="45.84497" lon="6.76538">
        <ele>1763</ele>
        <time>2026-08-14T05:41:42.376Z</time>
      </trkpt>
      <trkpt lat="45.84496" lon="6.76537">
        <ele>1763</ele>
        <time>2026-08-14T05:41:43.376Z</time>
      </trkpt>
      <trkpt lat="45.84496" lon="6.76536">
        <ele>1763</ele>
        <time>2026-08-14T05:41:44.376Z</time>
      </trkpt>
      <trkpt lat="45.84495" lon="6.76535">
        <ele>1762</ele>
        <time>2026-08-14T05:41:45.376Z</time>
      </trkpt>
      <trkpt lat="45.84495" lon="6.76534">
        <ele>1762</ele>
        <time>2026-08-14T05:41:46.376Z</time>
      </trkpt>
      <trkpt lat="45.84494" lon="6.76532">
        <ele>1761</ele>
        <time>2026-08-14T05:41:47.376Z</time>
      </trkpt>
      <trkpt lat="45.84494" lon="6.7653">
        <ele>1761</ele>
        <time>2026-08-14T05:41:48.376Z</time>
      </trkpt>
      <trkpt lat="45.84493" lon="6.76529">
        <ele>1761</ele>
        <time>2026-08-14T05:41:49.376Z</time>
      </trkpt>
      <trkpt lat="45.84493" lon="6.76528">
        <ele>1761</ele>
        <time>2026-08-14T05:41:50.376Z</time>
      </trkpt>
      <trkpt lat="45.84492" lon="6.76526">
        <ele>1760</ele>
        <time>2026-08-14T05:41:51.376Z</time>
      </trkpt>
      <trkpt lat="45.84491" lon="6.76525">
        <ele>1760</ele>
        <time>2026-08-14T05:41:52.376Z</time>
      </trkpt>
      <trkpt lat="45.84491" lon="6.76524">
        <ele>1760</ele>
        <time>2026-08-14T05:41:53.376Z</time>
      </trkpt>
      <trkpt lat="45.8449" lon="6.76522">
        <ele>1760</ele>
        <time>2026-08-14T05:41:54.376Z</time>
      </trkpt>
      <trkpt lat="45.8449" lon="6.76521">
        <ele>1759</ele>
        <time>2026-08-14T05:41:55.376Z</time>
      </trkpt>
      <trkpt lat="45.84489" lon="6.7652">
        <ele>1759</ele>
        <time>2026-08-14T05:41:56.376Z</time>
      </trkpt>
      <trkpt lat="45.84488" lon="6.76518">
        <ele>1758</ele>
        <time>2026-08-14T05:41:57.376Z</time>
      </trkpt>
      <trkpt lat="45.84487" lon="6.76517">
        <ele>1758</ele>
        <time>2026-08-14T05:41:58.376Z</time>
      </trkpt>
      <trkpt lat="45.84486" lon="6.76516">
        <ele>1757</ele>
        <time>2026-08-14T05:41:59.376Z</time>
      </trkpt>
      <trkpt lat="45.84486" lon="6.76514">
        <ele>1757</ele>
        <time>2026-08-14T05:42:00.376Z</time>
      </trkpt>
      <trkpt lat="45.84485" lon="6.76512">
        <ele>1757</ele>
        <time>2026-08-14T05:42:01.376Z</time>
      </trkpt>
      <trkpt lat="45.84485" lon="6.76511">
        <ele>1757</ele>
        <time>2026-08-14T05:42:02.376Z</time>
      </trkpt>
      <trkpt lat="45.84484" lon="6.7651">
        <ele>1756</ele>
        <time>2026-08-14T05:42:03.376Z</time>
      </trkpt>
      <trkpt lat="45.84484" lon="6.76509">
        <ele>1756</ele>
        <time>2026-08-14T05:42:04.376Z</time>
      </trkpt>
      <trkpt lat="45.84484" lon="6.76507">
        <ele>1755</ele>
        <time>2026-08-14T05:42:05.376Z</time>
      </trkpt>
      <trkpt lat="45.84483" lon="6.76506">
        <ele>1755</ele>
        <time>2026-08-14T05:42:06.376Z</time>
      </trkpt>
      <trkpt lat="45.84483" lon="6.76505">
        <ele>1755</ele>
        <time>2026-08-14T05:42:07.376Z</time>
      </trkpt>
      <trkpt lat="45.84482" lon="6.76504">
        <ele>1754</ele>
        <time>2026-08-14T05:42:08.376Z</time>
      </trkpt>
      <trkpt lat="45.84481" lon="6.76504">
        <ele>1753</ele>
        <time>2026-08-14T05:42:09.376Z</time>
      </trkpt>
      <trkpt lat="45.8448" lon="6.76504">
        <ele>1753</ele>
        <time>2026-08-14T05:42:10.376Z</time>
      </trkpt>
      <trkpt lat="45.84479" lon="6.76504">
        <ele>1752</ele>
        <time>2026-08-14T05:42:11.376Z</time>
      </trkpt>
      <trkpt lat="45.84478" lon="6.76504">
        <ele>1752</ele>
        <time>2026-08-14T05:42:12.376Z</time>
      </trkpt>
      <trkpt lat="45.84477" lon="6.76504">
        <ele>1751</ele>
        <time>2026-08-14T05:42:13.376Z</time>
      </trkpt>
      <trkpt lat="45.84476" lon="6.76504">
        <ele>1751</ele>
        <time>2026-08-14T05:42:14.376Z</time>
      </trkpt>
      <trkpt lat="45.84476" lon="6.76503">
        <ele>1750</ele>
        <time>2026-08-14T05:42:15.376Z</time>
      </trkpt>
      <trkpt lat="45.84475" lon="6.76501">
        <ele>1750</ele>
        <time>2026-08-14T05:42:16.376Z</time>
      </trkpt>
      <trkpt lat="45.84475" lon="6.765">
        <ele>1750</ele>
        <time>2026-08-14T05:42:17.376Z</time>
      </trkpt>
      <trkpt lat="45.84474" lon="6.76499">
        <ele>1749</ele>
        <time>2026-08-14T05:42:18.376Z</time>
      </trkpt>
      <trkpt lat="45.84473" lon="6.76498">
        <ele>1749</ele>
        <time>2026-08-14T05:42:19.376Z</time>
      </trkpt>
      <trkpt lat="45.84473" lon="6.76498">
        <ele>1748</ele>
        <time>2026-08-14T05:42:20.376Z</time>
      </trkpt>
      <trkpt lat="45.84472" lon="6.76497">
        <ele>1747</ele>
        <time>2026-08-14T05:42:21.376Z</time>
      </trkpt>
      <trkpt lat="45.84471" lon="6.76497">
        <ele>1747</ele>
        <time>2026-08-14T05:42:22.376Z</time>
      </trkpt>
      <trkpt lat="45.8447" lon="6.76497">
        <ele>1746</ele>
        <time>2026-08-14T05:42:23.376Z</time>
      </trkpt>
      <trkpt lat="45.84469" lon="6.76497">
        <ele>1746</ele>
        <time>2026-08-14T05:42:24.376Z</time>
      </trkpt>
      <trkpt lat="45.84468" lon="6.76497">
        <ele>1746</ele>
        <time>2026-08-14T05:42:25.376Z</time>
      </trkpt>
      <trkpt lat="45.84467" lon="6.76497">
        <ele>1745</ele>
        <time>2026-08-14T05:42:26.376Z</time>
      </trkpt>
      <trkpt lat="45.84466" lon="6.76497">
        <ele>1745</ele>
        <time>2026-08-14T05:42:27.376Z</time>
      </trkpt>
      <trkpt lat="45.84465" lon="6.76496">
        <ele>1745</ele>
        <time>2026-08-14T05:42:28.376Z</time>
      </trkpt>
      <trkpt lat="45.84465" lon="6.76495">
        <ele>1745</ele>
        <time>2026-08-14T05:42:29.376Z</time>
      </trkpt>
      <trkpt lat="45.84464" lon="6.76494">
        <ele>1744</ele>
        <time>2026-08-14T05:42:30.376Z</time>
      </trkpt>
      <trkpt lat="45.84463" lon="6.76493">
        <ele>1744</ele>
        <time>2026-08-14T05:42:31.376Z</time>
      </trkpt>
      <trkpt lat="45.84462" lon="6.76492">
        <ele>1743</ele>
        <time>2026-08-14T05:42:32.376Z</time>
      </trkpt>
      <trkpt lat="45.84461" lon="6.76491">
        <ele>1742</ele>
        <time>2026-08-14T05:42:33.376Z</time>
      </trkpt>
      <trkpt lat="45.84461" lon="6.76489">
        <ele>1742</ele>
        <time>2026-08-14T05:42:34.376Z</time>
      </trkpt>
      <trkpt lat="45.8446" lon="6.76488">
        <ele>1742</ele>
        <time>2026-08-14T05:42:35.376Z</time>
      </trkpt>
      <trkpt lat="45.84459" lon="6.76487">
        <ele>1741</ele>
        <time>2026-08-14T05:42:36.376Z</time>
      </trkpt>
      <trkpt lat="45.84458" lon="6.76487">
        <ele>1741</ele>
        <time>2026-08-14T05:42:37.376Z</time>
      </trkpt>
      <trkpt lat="45.84457" lon="6.76487">
        <ele>1741</ele>
        <time>2026-08-14T05:42:38.376Z</time>
      </trkpt>
      <trkpt lat="45.84457" lon="6.76487">
        <ele>1740</ele>
        <time>2026-08-14T05:42:39.376Z</time>
      </trkpt>
      <trkpt lat="45.84456" lon="6.76486">
        <ele>1740</ele>
        <time>2026-08-14T05:42:40.376Z</time>
      </trkpt>
      <trkpt lat="45.84454" lon="6.76487">
        <ele>1740</ele>
        <time>2026-08-14T05:42:41.376Z</time>
      </trkpt>
      <trkpt lat="45.84453" lon="6.76486">
        <ele>1740</ele>
        <time>2026-08-14T05:42:42.376Z</time>
      </trkpt>
      <trkpt lat="45.84453" lon="6.76486">
        <ele>1739</ele>
        <time>2026-08-14T05:42:43.376Z</time>
      </trkpt>
      <trkpt lat="45.84451" lon="6.76486">
        <ele>1739</ele>
        <time>2026-08-14T05:42:44.376Z</time>
      </trkpt>
      <trkpt lat="45.8445" lon="6.76485">
        <ele>1739</ele>
        <time>2026-08-14T05:42:45.376Z</time>
      </trkpt>
      <trkpt lat="45.84449" lon="6.76485">
        <ele>1738</ele>
        <time>2026-08-14T05:42:46.376Z</time>
      </trkpt>
      <trkpt lat="45.84448" lon="6.76485">
        <ele>1738</ele>
        <time>2026-08-14T05:42:47.376Z</time>
      </trkpt>
      <trkpt lat="45.84447" lon="6.76485">
        <ele>1738</ele>
        <time>2026-08-14T05:42:48.376Z</time>
      </trkpt>
      <trkpt lat="45.84445" lon="6.76485">
        <ele>1737</ele>
        <time>2026-08-14T05:42:49.376Z</time>
      </trkpt>
      <trkpt lat="45.84444" lon="6.76485">
        <ele>1736</ele>
        <time>2026-08-14T05:42:50.376Z</time>
      </trkpt>
      <trkpt lat="45.84443" lon="6.76485">
        <ele>1735</ele>
        <time>2026-08-14T05:42:51.376Z</time>
      </trkpt>
      <trkpt lat="45.84442" lon="6.76485">
        <ele>1734</ele>
        <time>2026-08-14T05:42:52.376Z</time>
      </trkpt>
      <trkpt lat="45.84441" lon="6.76484">
        <ele>1734</ele>
        <time>2026-08-14T05:42:53.376Z</time>
      </trkpt>
      <trkpt lat="45.8444" lon="6.76484">
        <ele>1733</ele>
        <time>2026-08-14T05:42:54.376Z</time>
      </trkpt>
      <trkpt lat="45.84439" lon="6.76484">
        <ele>1733</ele>
        <time>2026-08-14T05:42:55.376Z</time>
      </trkpt>
      <trkpt lat="45.84438" lon="6.76483">
        <ele>1733</ele>
        <time>2026-08-14T05:42:56.376Z</time>
      </trkpt>
      <trkpt lat="45.84437" lon="6.76482">
        <ele>1732</ele>
        <time>2026-08-14T05:42:57.376Z</time>
      </trkpt>
      <trkpt lat="45.84436" lon="6.76482">
        <ele>1732</ele>
        <time>2026-08-14T05:42:58.376Z</time>
      </trkpt>
      <trkpt lat="45.84435" lon="6.76482">
        <ele>1731</ele>
        <time>2026-08-14T05:42:59.376Z</time>
      </trkpt>
      <trkpt lat="45.84434" lon="6.76482">
        <ele>1731</ele>
        <time>2026-08-14T05:43:00.376Z</time>
      </trkpt>
      <trkpt lat="45.84433" lon="6.76481">
        <ele>1731</ele>
        <time>2026-08-14T05:43:01.376Z</time>
      </trkpt>
      <trkpt lat="45.84432" lon="6.7648">
        <ele>1730</ele>
        <time>2026-08-14T05:43:02.376Z</time>
      </trkpt>
      <trkpt lat="45.84431" lon="6.76479">
        <ele>1730</ele>
        <time>2026-08-14T05:43:03.376Z</time>
      </trkpt>
      <trkpt lat="45.84431" lon="6.76478">
        <ele>1729</ele>
        <time>2026-08-14T05:43:04.376Z</time>
      </trkpt>
      <trkpt lat="45.8443" lon="6.76478">
        <ele>1729</ele>
        <time>2026-08-14T05:43:05.376Z</time>
      </trkpt>
      <trkpt lat="45.84429" lon="6.76478">
        <ele>1728</ele>
        <time>2026-08-14T05:43:06.376Z</time>
      </trkpt>
      <trkpt lat="45.84428" lon="6.76479">
        <ele>1727</ele>
        <time>2026-08-14T05:43:07.376Z</time>
      </trkpt>
      <trkpt lat="45.84427" lon="6.76478">
        <ele>1727</ele>
        <time>2026-08-14T05:43:08.376Z</time>
      </trkpt>
      <trkpt lat="45.84426" lon="6.76477">
        <ele>1726</ele>
        <time>2026-08-14T05:43:09.376Z</time>
      </trkpt>
      <trkpt lat="45.84425" lon="6.76476">
        <ele>1726</ele>
        <time>2026-08-14T05:43:10.376Z</time>
      </trkpt>
      <trkpt lat="45.84424" lon="6.76474">
        <ele>1726</ele>
        <time>2026-08-14T05:43:11.376Z</time>
      </trkpt>
      <trkpt lat="45.84424" lon="6.76473">
        <ele>1725</ele>
        <time>2026-08-14T05:43:12.376Z</time>
      </trkpt>
      <trkpt lat="45.84424" lon="6.76471">
        <ele>1725</ele>
        <time>2026-08-14T05:43:13.376Z</time>
      </trkpt>
      <trkpt lat="45.84423" lon="6.7647">
        <ele>1724</ele>
        <time>2026-08-14T05:43:14.376Z</time>
      </trkpt>
      <trkpt lat="45.84422" lon="6.76469">
        <ele>1724</ele>
        <time>2026-08-14T05:43:15.376Z</time>
      </trkpt>
      <trkpt lat="45.8442" lon="6.76468">
        <ele>1724</ele>
        <time>2026-08-14T05:43:16.376Z</time>
      </trkpt>
      <trkpt lat="45.84419" lon="6.76468">
        <ele>1723</ele>
        <time>2026-08-14T05:43:17.376Z</time>
      </trkpt>
      <trkpt lat="45.84418" lon="6.76468">
        <ele>1723</ele>
        <time>2026-08-14T05:43:18.376Z</time>
      </trkpt>
      <trkpt lat="45.84417" lon="6.76467">
        <ele>1723</ele>
        <time>2026-08-14T05:43:19.376Z</time>
      </trkpt>
      <trkpt lat="45.84416" lon="6.76466">
        <ele>1723</ele>
        <time>2026-08-14T05:43:20.376Z</time>
      </trkpt>
      <trkpt lat="45.84416" lon="6.76465">
        <ele>1722</ele>
        <time>2026-08-14T05:43:21.376Z</time>
      </trkpt>
      <trkpt lat="45.84415" lon="6.76464">
        <ele>1722</ele>
        <time>2026-08-14T05:43:22.376Z</time>
      </trkpt>
      <trkpt lat="45.84415" lon="6.76464">
        <ele>1722</ele>
        <time>2026-08-14T05:43:23.376Z</time>
      </trkpt>
      <trkpt lat="45.84414" lon="6.76463">
        <ele>1721</ele>
        <time>2026-08-14T05:43:24.376Z</time>
      </trkpt>
      <trkpt lat="45.84413" lon="6.76462">
        <ele>1721</ele>
        <time>2026-08-14T05:43:25.376Z</time>
      </trkpt>
      <trkpt lat="45.84412" lon="6.76462">
        <ele>1720</ele>
        <time>2026-08-14T05:43:26.376Z</time>
      </trkpt>
      <trkpt lat="45.84411" lon="6.76461">
        <ele>1720</ele>
        <time>2026-08-14T05:43:27.376Z</time>
      </trkpt>
      <trkpt lat="45.8441" lon="6.7646">
        <ele>1719</ele>
        <time>2026-08-14T05:43:28.376Z</time>
      </trkpt>
      <trkpt lat="45.84409" lon="6.7646">
        <ele>1719</ele>
        <time>2026-08-14T05:43:29.376Z</time>
      </trkpt>
      <trkpt lat="45.84408" lon="6.7646">
        <ele>1718</ele>
        <time>2026-08-14T05:43:30.376Z</time>
      </trkpt>
      <trkpt lat="45.84407" lon="6.7646">
        <ele>1718</ele>
        <time>2026-08-14T05:43:31.376Z</time>
      </trkpt>
      <trkpt lat="45.84406" lon="6.7646">
        <ele>1718</ele>
        <time>2026-08-14T05:43:32.376Z</time>
      </trkpt>
      <trkpt lat="45.84405" lon="6.7646">
        <ele>1717</ele>
        <time>2026-08-14T05:43:33.376Z</time>
      </trkpt>
      <trkpt lat="45.84404" lon="6.7646">
        <ele>1717</ele>
        <time>2026-08-14T05:43:34.376Z</time>
      </trkpt>
      <trkpt lat="45.84403" lon="6.7646">
        <ele>1716</ele>
        <time>2026-08-14T05:43:35.376Z</time>
      </trkpt>
      <trkpt lat="45.84402" lon="6.7646">
        <ele>1716</ele>
        <time>2026-08-14T05:43:36.376Z</time>
      </trkpt>
      <trkpt lat="45.84401" lon="6.76459">
        <ele>1715</ele>
        <time>2026-08-14T05:43:37.376Z</time>
      </trkpt>
      <trkpt lat="45.844" lon="6.76458">
        <ele>1715</ele>
        <time>2026-08-14T05:43:38.376Z</time>
      </trkpt>
      <trkpt lat="45.844" lon="6.76457">
        <ele>1714</ele>
        <time>2026-08-14T05:43:39.376Z</time>
      </trkpt>
      <trkpt lat="45.84399" lon="6.76458">
        <ele>1714</ele>
        <time>2026-08-14T05:43:40.376Z</time>
      </trkpt>
      <trkpt lat="45.84398" lon="6.76459">
        <ele>1713</ele>
        <time>2026-08-14T05:43:41.376Z</time>
      </trkpt>
      <trkpt lat="45.84397" lon="6.76459">
        <ele>1713</ele>
        <time>2026-08-14T05:43:42.376Z</time>
      </trkpt>
      <trkpt lat="45.84396" lon="6.76459">
        <ele>1713</ele>
        <time>2026-08-14T05:43:43.376Z</time>
      </trkpt>
      <trkpt lat="45.84395" lon="6.76459">
        <ele>1712</ele>
        <time>2026-08-14T05:43:44.376Z</time>
      </trkpt>
      <trkpt lat="45.84394" lon="6.76459">
        <ele>1712</ele>
        <time>2026-08-14T05:43:45.376Z</time>
      </trkpt>
      <trkpt lat="45.84394" lon="6.7646">
        <ele>1711</ele>
        <time>2026-08-14T05:43:46.376Z</time>
      </trkpt>
      <trkpt lat="45.84395" lon="6.76462">
        <ele>1710</ele>
        <time>2026-08-14T05:43:47.376Z</time>
      </trkpt>
      <trkpt lat="45.84395" lon="6.76464">
        <ele>1710</ele>
        <time>2026-08-14T05:43:48.376Z</time>
      </trkpt>
      <trkpt lat="45.84396" lon="6.76467">
        <ele>1710</ele>
        <time>2026-08-14T05:43:49.376Z</time>
      </trkpt>
      <trkpt lat="45.84395" lon="6.7647">
        <ele>1710</ele>
        <time>2026-08-14T05:43:50.376Z</time>
      </trkpt>
      <trkpt lat="45.84394" lon="6.76471">
        <ele>1709</ele>
        <time>2026-08-14T05:43:51.376Z</time>
      </trkpt>
      <trkpt lat="45.84393" lon="6.76473">
        <ele>1709</ele>
        <time>2026-08-14T05:43:52.376Z</time>
      </trkpt>
      <trkpt lat="45.84391" lon="6.76473">
        <ele>1709</ele>
        <time>2026-08-14T05:43:53.376Z</time>
      </trkpt>
      <trkpt lat="45.84389" lon="6.76473">
        <ele>1708</ele>
        <time>2026-08-14T05:43:54.376Z</time>
      </trkpt>
      <trkpt lat="45.84387" lon="6.76473">
        <ele>1708</ele>
        <time>2026-08-14T05:43:55.376Z</time>
      </trkpt>
      <trkpt lat="45.84385" lon="6.76473">
        <ele>1708</ele>
        <time>2026-08-14T05:43:56.376Z</time>
      </trkpt>
      <trkpt lat="45.84383" lon="6.76474">
        <ele>1708</ele>
        <time>2026-08-14T05:43:57.376Z</time>
      </trkpt>
      <trkpt lat="45.84382" lon="6.76474">
        <ele>1707</ele>
        <time>2026-08-14T05:43:58.376Z</time>
      </trkpt>
      <trkpt lat="45.84381" lon="6.76474">
        <ele>1707</ele>
        <time>2026-08-14T05:43:59.376Z</time>
      </trkpt>
      <trkpt lat="45.84379" lon="6.76474">
        <ele>1707</ele>
        <time>2026-08-14T05:44:00.376Z</time>
      </trkpt>
      <trkpt lat="45.84378" lon="6.76474">
        <ele>1707</ele>
        <time>2026-08-14T05:44:01.376Z</time>
      </trkpt>
      <trkpt lat="45.84377" lon="6.76474">
        <ele>1707</ele>
        <time>2026-08-14T05:44:02.376Z</time>
      </trkpt>
      <trkpt lat="45.84376" lon="6.76474">
        <ele>1707</ele>
        <time>2026-08-14T05:44:03.376Z</time>
      </trkpt>
      <trkpt lat="45.84375" lon="6.76473">
        <ele>1707</ele>
        <time>2026-08-14T05:44:04.376Z</time>
      </trkpt>
      <trkpt lat="45.84374" lon="6.76472">
        <ele>1706</ele>
        <time>2026-08-14T05:44:05.376Z</time>
      </trkpt>
      <trkpt lat="45.84373" lon="6.76471">
        <ele>1706</ele>
        <time>2026-08-14T05:44:06.376Z</time>
      </trkpt>
      <trkpt lat="45.84372" lon="6.7647">
        <ele>1706</ele>
        <time>2026-08-14T05:44:07.376Z</time>
      </trkpt>
      <trkpt lat="45.84371" lon="6.76469">
        <ele>1705</ele>
        <time>2026-08-14T05:44:08.376Z</time>
      </trkpt>
      <trkpt lat="45.84371" lon="6.76468">
        <ele>1705</ele>
        <time>2026-08-14T05:44:09.376Z</time>
      </trkpt>
      <trkpt lat="45.8437" lon="6.76467">
        <ele>1704</ele>
        <time>2026-08-14T05:44:10.376Z</time>
      </trkpt>
      <trkpt lat="45.8437" lon="6.76465">
        <ele>1704</ele>
        <time>2026-08-14T05:44:11.376Z</time>
      </trkpt>
      <trkpt lat="45.84369" lon="6.76464">
        <ele>1703</ele>
        <time>2026-08-14T05:44:12.376Z</time>
      </trkpt>
      <trkpt lat="45.84369" lon="6.76464">
        <ele>1702</ele>
        <time>2026-08-14T05:44:13.376Z</time>
      </trkpt>
      <trkpt lat="45.84368" lon="6.76463">
        <ele>1701</ele>
        <time>2026-08-14T05:44:14.376Z</time>
      </trkpt>
      <trkpt lat="45.84367" lon="6.76463">
        <ele>1701</ele>
        <time>2026-08-14T05:44:15.376Z</time>
      </trkpt>
      <trkpt lat="45.84366" lon="6.76462">
        <ele>1701</ele>
        <time>2026-08-14T05:44:16.376Z</time>
      </trkpt>
      <trkpt lat="45.84365" lon="6.76461">
        <ele>1700</ele>
        <time>2026-08-14T05:44:17.376Z</time>
      </trkpt>
      <trkpt lat="45.84364" lon="6.7646">
        <ele>1699</ele>
        <time>2026-08-14T05:44:18.376Z</time>
      </trkpt>
      <trkpt lat="45.84364" lon="6.76458">
        <ele>1699</ele>
        <time>2026-08-14T05:44:19.376Z</time>
      </trkpt>
      <trkpt lat="45.84363" lon="6.76457">
        <ele>1700</ele>
        <time>2026-08-14T05:44:20.376Z</time>
      </trkpt>
      <trkpt lat="45.84362" lon="6.76456">
        <ele>1700</ele>
        <time>2026-08-14T05:44:21.376Z</time>
      </trkpt>
      <trkpt lat="45.84361" lon="6.76456">
        <ele>1699</ele>
        <time>2026-08-14T05:44:22.376Z</time>
      </trkpt>
      <trkpt lat="45.84361" lon="6.76455">
        <ele>1699</ele>
        <time>2026-08-14T05:44:23.376Z</time>
      </trkpt>
      <trkpt lat="45.8436" lon="6.76454">
        <ele>1698</ele>
        <time>2026-08-14T05:44:24.376Z</time>
      </trkpt>
      <trkpt lat="45.84359" lon="6.76453">
        <ele>1697</ele>
        <time>2026-08-14T05:44:25.376Z</time>
      </trkpt>
      <trkpt lat="45.84358" lon="6.76453">
        <ele>1697</ele>
        <time>2026-08-14T05:44:26.376Z</time>
      </trkpt>
      <trkpt lat="45.84358" lon="6.76452">
        <ele>1697</ele>
        <time>2026-08-14T05:44:27.376Z</time>
      </trkpt>
      <trkpt lat="45.84358" lon="6.76451">
        <ele>1697</ele>
        <time>2026-08-14T05:44:28.376Z</time>
      </trkpt>
      <trkpt lat="45.84358" lon="6.7645">
        <ele>1696</ele>
        <time>2026-08-14T05:44:29.376Z</time>
      </trkpt>
      <trkpt lat="45.84358" lon="6.76449">
        <ele>1696</ele>
        <time>2026-08-14T05:44:30.376Z</time>
      </trkpt>
      <trkpt lat="45.84358" lon="6.76449">
        <ele>1696</ele>
        <time>2026-08-14T05:44:31.376Z</time>
      </trkpt>
      <trkpt lat="45.84357" lon="6.76449">
        <ele>1696</ele>
        <time>2026-08-14T05:44:32.376Z</time>
      </trkpt>
      <trkpt lat="45.84356" lon="6.7645">
        <ele>1695</ele>
        <time>2026-08-14T05:44:33.376Z</time>
      </trkpt>
      <trkpt lat="45.84356" lon="6.76449">
        <ele>1695</ele>
        <time>2026-08-14T05:44:34.376Z</time>
      </trkpt>
      <trkpt lat="45.84355" lon="6.76449">
        <ele>1695</ele>
        <time>2026-08-14T05:44:35.376Z</time>
      </trkpt>
      <trkpt lat="45.84354" lon="6.76448">
        <ele>1694</ele>
        <time>2026-08-14T05:44:36.376Z</time>
      </trkpt>
      <trkpt lat="45.84353" lon="6.76448">
        <ele>1694</ele>
        <time>2026-08-14T05:44:37.376Z</time>
      </trkpt>
      <trkpt lat="45.84352" lon="6.76447">
        <ele>1694</ele>
        <time>2026-08-14T05:44:38.376Z</time>
      </trkpt>
      <trkpt lat="45.84352" lon="6.76446">
        <ele>1694</ele>
        <time>2026-08-14T05:44:39.376Z</time>
      </trkpt>
      <trkpt lat="45.84351" lon="6.76445">
        <ele>1693</ele>
        <time>2026-08-14T05:44:40.376Z</time>
      </trkpt>
      <trkpt lat="45.84351" lon="6.76444">
        <ele>1693</ele>
        <time>2026-08-14T05:44:41.376Z</time>
      </trkpt>
      <trkpt lat="45.8435" lon="6.76444">
        <ele>1693</ele>
        <time>2026-08-14T05:44:42.376Z</time>
      </trkpt>
      <trkpt lat="45.84348" lon="6.76444">
        <ele>1692</ele>
        <time>2026-08-14T05:44:43.376Z</time>
      </trkpt>
      <trkpt lat="45.84347" lon="6.76444">
        <ele>1692</ele>
        <time>2026-08-14T05:44:44.376Z</time>
      </trkpt>
      <trkpt lat="45.84346" lon="6.76444">
        <ele>1691</ele>
        <time>2026-08-14T05:44:45.376Z</time>
      </trkpt>
      <trkpt lat="45.84345" lon="6.76443">
        <ele>1690</ele>
        <time>2026-08-14T05:44:46.376Z</time>
      </trkpt>
      <trkpt lat="45.84344" lon="6.76443">
        <ele>1690</ele>
        <time>2026-08-14T05:44:47.376Z</time>
      </trkpt>
      <trkpt lat="45.84343" lon="6.76442">
        <ele>1689</ele>
        <time>2026-08-14T05:44:48.376Z</time>
      </trkpt>
      <trkpt lat="45.84342" lon="6.76441">
        <ele>1689</ele>
        <time>2026-08-14T05:44:49.376Z</time>
      </trkpt>
      <trkpt lat="45.84341" lon="6.76441">
        <ele>1689</ele>
        <time>2026-08-14T05:44:50.376Z</time>
      </trkpt>
      <trkpt lat="45.84341" lon="6.7644">
        <ele>1690</ele>
        <time>2026-08-14T05:44:51.376Z</time>
      </trkpt>
      <trkpt lat="45.84341" lon="6.7644">
        <ele>1690</ele>
        <time>2026-08-14T05:44:52.376Z</time>
      </trkpt>
      <trkpt lat="45.84341" lon="6.7644">
        <ele>1690</ele>
        <time>2026-08-14T05:44:53.376Z</time>
      </trkpt>
      <trkpt lat="45.84341" lon="6.7644">
        <ele>1689</ele>
        <time>2026-08-14T05:44:54.376Z</time>
      </trkpt>
      <trkpt lat="45.84341" lon="6.7644">
        <ele>1689</ele>
        <time>2026-08-14T05:44:55.376Z</time>
      </trkpt>
      <trkpt lat="45.84341" lon="6.7644">
        <ele>1688</ele>
        <time>2026-08-14T05:44:56.376Z</time>
      </trkpt>
      <trkpt lat="45.84341" lon="6.7644">
        <ele>1687</ele>
        <time>2026-08-14T05:44:57.376Z</time>
      </trkpt>
      <trkpt lat="45.84341" lon="6.7644">
        <ele>1686</ele>
        <time>2026-08-14T05:44:58.376Z</time>
      </trkpt>
      <trkpt lat="45.84341" lon="6.7644">
        <ele>1685</ele>
        <time>2026-08-14T05:44:59.376Z</time>
      </trkpt>
      <trkpt lat="45.84341" lon="6.7644">
        <ele>1684</ele>
        <time>2026-08-14T05:45:00.376Z</time>
      </trkpt>
      <trkpt lat="45.84341" lon="6.7644">
        <ele>1682</ele>
        <time>2026-08-14T05:45:01.376Z</time>
      </trkpt>
      <trkpt lat="45.84341" lon="6.7644">
        <ele>1681</ele>
        <time>2026-08-14T05:45:02.376Z</time>
      </trkpt>
      <trkpt lat="45.84341" lon="6.7644">
        <ele>1680</ele>
        <time>2026-08-14T05:45:03.376Z</time>
      </trkpt>
      <trkpt lat="45.84341" lon="6.7644">
        <ele>1679</ele>
        <time>2026-08-14T05:45:04.376Z</time>
      </trkpt>
      <trkpt lat="45.84341" lon="6.7644">
        <ele>1678</ele>
        <time>2026-08-14T05:45:05.376Z</time>
      </trkpt>
      <trkpt lat="45.84341" lon="6.7644">
        <ele>1677</ele>
        <time>2026-08-14T05:45:06.376Z</time>
      </trkpt>
      <trkpt lat="45.84341" lon="6.7644">
        <ele>1676</ele>
        <time>2026-08-14T05:45:07.376Z</time>
      </trkpt>
      <trkpt lat="45.84341" lon="6.7644">
        <ele>1675</ele>
        <time>2026-08-14T05:45:08.376Z</time>
      </trkpt>
      <trkpt lat="45.84341" lon="6.7644">
        <ele>1675</ele>
        <time>2026-08-14T05:45:09.376Z</time>
      </trkpt>
      <trkpt lat="45.84341" lon="6.7644">
        <ele>1674</ele>
        <time>2026-08-14T05:45:10.376Z</time>
      </trkpt>
      <trkpt lat="45.84341" lon="6.7644">
        <ele>1674</ele>
        <time>2026-08-14T05:45:11.376Z</time>
      </trkpt>
      <trkpt lat="45.84341" lon="6.7644">
        <ele>1673</ele>
        <time>2026-08-14T05:45:12.376Z</time>
      </trkpt>
      <trkpt lat="45.84341" lon="6.7644">
        <ele>1673</ele>
        <time>2026-08-14T05:45:13.376Z</time>
      </trkpt>
      <trkpt lat="45.84341" lon="6.7644">
        <ele>1673</ele>
        <time>2026-08-14T05:45:14.376Z</time>
      </trkpt>
      <trkpt lat="45.84341" lon="6.7644">
        <ele>1673</ele>
        <time>2026-08-14T05:45:15.376Z</time>
      </trkpt>
      <trkpt lat="45.84341" lon="6.7644">
        <ele>1673</ele>
        <time>2026-08-14T05:45:16.376Z</time>
      </trkpt>
      <trkpt lat="45.8434" lon="6.76438">
        <ele>1673</ele>
        <time>2026-08-14T05:45:17.376Z</time>
      </trkpt>
      <trkpt lat="45.8434" lon="6.76437">
        <ele>1672</ele>
        <time>2026-08-14T05:45:18.376Z</time>
      </trkpt>
      <trkpt lat="45.84339" lon="6.76436">
        <ele>1673</ele>
        <time>2026-08-14T05:45:19.376Z</time>
      </trkpt>
      <trkpt lat="45.84338" lon="6.76434">
        <ele>1673</ele>
        <time>2026-08-14T05:45:20.376Z</time>
      </trkpt>
      <trkpt lat="45.84337" lon="6.76432">
        <ele>1673</ele>
        <time>2026-08-14T05:45:21.376Z</time>
      </trkpt>
      <trkpt lat="45.84335" lon="6.76432">
        <ele>1674</ele>
        <time>2026-08-14T05:45:22.376Z</time>
      </trkpt>
      <trkpt lat="45.84334" lon="6.76432">
        <ele>1674</ele>
        <time>2026-08-14T05:45:23.376Z</time>
      </trkpt>
      <trkpt lat="45.84332" lon="6.76431">
        <ele>1675</ele>
        <time>2026-08-14T05:45:24.376Z</time>
      </trkpt>
      <trkpt lat="45.84331" lon="6.76431">
        <ele>1676</ele>
        <time>2026-08-14T05:45:25.376Z</time>
      </trkpt>
      <trkpt lat="45.8433" lon="6.76431">
        <ele>1676</ele>
        <time>2026-08-14T05:45:26.376Z</time>
      </trkpt>
      <trkpt lat="45.84329" lon="6.7643">
        <ele>1677</ele>
        <time>2026-08-14T05:45:27.376Z</time>
      </trkpt>
      <trkpt lat="45.84328" lon="6.76429">
        <ele>1677</ele>
        <time>2026-08-14T05:45:28.376Z</time>
      </trkpt>
      <trkpt lat="45.84327" lon="6.76427">
        <ele>1678</ele>
        <time>2026-08-14T05:45:29.376Z</time>
      </trkpt>
      <trkpt lat="45.84326" lon="6.76426">
        <ele>1678</ele>
        <time>2026-08-14T05:45:30.376Z</time>
      </trkpt>
      <trkpt lat="45.84326" lon="6.76424">
        <ele>1678</ele>
        <time>2026-08-14T05:45:31.376Z</time>
      </trkpt>
      <trkpt lat="45.84325" lon="6.76423">
        <ele>1678</ele>
        <time>2026-08-14T05:45:32.376Z</time>
      </trkpt>
      <trkpt lat="45.84325" lon="6.76421">
        <ele>1678</ele>
        <time>2026-08-14T05:45:33.376Z</time>
      </trkpt>
      <trkpt lat="45.84324" lon="6.7642">
        <ele>1677</ele>
        <time>2026-08-14T05:45:34.376Z</time>
      </trkpt>
      <trkpt lat="45.84323" lon="6.76419">
        <ele>1677</ele>
        <time>2026-08-14T05:45:35.376Z</time>
      </trkpt>
      <trkpt lat="45.84322" lon="6.76418">
        <ele>1677</ele>
        <time>2026-08-14T05:45:36.376Z</time>
      </trkpt>
      <trkpt lat="45.84321" lon="6.76417">
        <ele>1676</ele>
        <time>2026-08-14T05:45:37.376Z</time>
      </trkpt>
      <trkpt lat="45.8432" lon="6.76416">
        <ele>1676</ele>
        <time>2026-08-14T05:45:38.376Z</time>
      </trkpt>
      <trkpt lat="45.84318" lon="6.76414">
        <ele>1676</ele>
        <time>2026-08-14T05:45:39.376Z</time>
      </trkpt>
      <trkpt lat="45.84317" lon="6.76413">
        <ele>1676</ele>
        <time>2026-08-14T05:45:40.376Z</time>
      </trkpt>
      <trkpt lat="45.84316" lon="6.76412">
        <ele>1676</ele>
        <time>2026-08-14T05:45:41.376Z</time>
      </trkpt>
      <trkpt lat="45.84315" lon="6.76411">
        <ele>1675</ele>
        <time>2026-08-14T05:45:42.376Z</time>
      </trkpt>
      <trkpt lat="45.84314" lon="6.7641">
        <ele>1675</ele>
        <time>2026-08-14T05:45:43.376Z</time>
      </trkpt>
      <trkpt lat="45.84313" lon="6.76409">
        <ele>1675</ele>
        <time>2026-08-14T05:45:44.376Z</time>
      </trkpt>
      <trkpt lat="45.84312" lon="6.76408">
        <ele>1675</ele>
        <time>2026-08-14T05:45:45.376Z</time>
      </trkpt>
      <trkpt lat="45.84311" lon="6.76408">
        <ele>1675</ele>
        <time>2026-08-14T05:45:46.376Z</time>
      </trkpt>
      <trkpt lat="45.8431" lon="6.76407">
        <ele>1675</ele>
        <time>2026-08-14T05:45:47.376Z</time>
      </trkpt>
      <trkpt lat="45.84309" lon="6.76406">
        <ele>1675</ele>
        <time>2026-08-14T05:45:48.376Z</time>
      </trkpt>
      <trkpt lat="45.84308" lon="6.76405">
        <ele>1675</ele>
        <time>2026-08-14T05:45:49.376Z</time>
      </trkpt>
      <trkpt lat="45.84307" lon="6.76405">
        <ele>1674</ele>
        <time>2026-08-14T05:45:50.376Z</time>
      </trkpt>
      <trkpt lat="45.84307" lon="6.76404">
        <ele>1674</ele>
        <time>2026-08-14T05:45:51.376Z</time>
      </trkpt>
      <trkpt lat="45.84306" lon="6.76403">
        <ele>1673</ele>
        <time>2026-08-14T05:45:52.376Z</time>
      </trkpt>
      <trkpt lat="45.84305" lon="6.76402">
        <ele>1673</ele>
        <time>2026-08-14T05:45:53.376Z</time>
      </trkpt>
      <trkpt lat="45.84304" lon="6.76402">
        <ele>1672</ele>
        <time>2026-08-14T05:45:54.376Z</time>
      </trkpt>
      <trkpt lat="45.84303" lon="6.76401">
        <ele>1672</ele>
        <time>2026-08-14T05:45:55.376Z</time>
      </trkpt>
      <trkpt lat="45.84303" lon="6.764">
        <ele>1672</ele>
        <time>2026-08-14T05:45:56.376Z</time>
      </trkpt>
      <trkpt lat="45.84302" lon="6.76399">
        <ele>1671</ele>
        <time>2026-08-14T05:45:57.376Z</time>
      </trkpt>
      <trkpt lat="45.84301" lon="6.76397">
        <ele>1671</ele>
        <time>2026-08-14T05:45:58.376Z</time>
      </trkpt>
      <trkpt lat="45.843" lon="6.76396">
        <ele>1670</ele>
        <time>2026-08-14T05:45:59.376Z</time>
      </trkpt>
      <trkpt lat="45.843" lon="6.76395">
        <ele>1670</ele>
        <time>2026-08-14T05:46:00.376Z</time>
      </trkpt>
      <trkpt lat="45.84299" lon="6.76395">
        <ele>1669</ele>
        <time>2026-08-14T05:46:01.376Z</time>
      </trkpt>
      <trkpt lat="45.84298" lon="6.76394">
        <ele>1669</ele>
        <time>2026-08-14T05:46:02.376Z</time>
      </trkpt>
      <trkpt lat="45.84297" lon="6.76394">
        <ele>1668</ele>
        <time>2026-08-14T05:46:03.376Z</time>
      </trkpt>
      <trkpt lat="45.84297" lon="6.76393">
        <ele>1668</ele>
        <time>2026-08-14T05:46:04.376Z</time>
      </trkpt>
      <trkpt lat="45.84296" lon="6.76393">
        <ele>1668</ele>
        <time>2026-08-14T05:46:05.376Z</time>
      </trkpt>
      <trkpt lat="45.84295" lon="6.76392">
        <ele>1668</ele>
        <time>2026-08-14T05:46:06.376Z</time>
      </trkpt>
      <trkpt lat="45.84294" lon="6.76392">
        <ele>1668</ele>
        <time>2026-08-14T05:46:07.376Z</time>
      </trkpt>
      <trkpt lat="45.84292" lon="6.76392">
        <ele>1668</ele>
        <time>2026-08-14T05:46:08.376Z</time>
      </trkpt>
      <trkpt lat="45.84291" lon="6.76393">
        <ele>1667</ele>
        <time>2026-08-14T05:46:09.376Z</time>
      </trkpt>
      <trkpt lat="45.8429" lon="6.76392">
        <ele>1667</ele>
        <time>2026-08-14T05:46:10.376Z</time>
      </trkpt>
      <trkpt lat="45.84289" lon="6.76392">
        <ele>1667</ele>
        <time>2026-08-14T05:46:11.376Z</time>
      </trkpt>
      <trkpt lat="45.84288" lon="6.76391">
        <ele>1667</ele>
        <time>2026-08-14T05:46:12.376Z</time>
      </trkpt>
      <trkpt lat="45.84287" lon="6.7639">
        <ele>1666</ele>
        <time>2026-08-14T05:46:13.376Z</time>
      </trkpt>
      <trkpt lat="45.84286" lon="6.76389">
        <ele>1665</ele>
        <time>2026-08-14T05:46:14.376Z</time>
      </trkpt>
      <trkpt lat="45.84285" lon="6.76388">
        <ele>1665</ele>
        <time>2026-08-14T05:46:15.376Z</time>
      </trkpt>
      <trkpt lat="45.84284" lon="6.76387">
        <ele>1664</ele>
        <time>2026-08-14T05:46:16.376Z</time>
      </trkpt>
      <trkpt lat="45.84283" lon="6.76386">
        <ele>1664</ele>
        <time>2026-08-14T05:46:17.376Z</time>
      </trkpt>
      <trkpt lat="45.84283" lon="6.76385">
        <ele>1663</ele>
        <time>2026-08-14T05:46:18.376Z</time>
      </trkpt>
      <trkpt lat="45.84282" lon="6.76384">
        <ele>1663</ele>
        <time>2026-08-14T05:46:19.376Z</time>
      </trkpt>
      <trkpt lat="45.84281" lon="6.76384">
        <ele>1663</ele>
        <time>2026-08-14T05:46:20.376Z</time>
      </trkpt>
      <trkpt lat="45.8428" lon="6.76383">
        <ele>1663</ele>
        <time>2026-08-14T05:46:21.376Z</time>
      </trkpt>
      <trkpt lat="45.84279" lon="6.76382">
        <ele>1663</ele>
        <time>2026-08-14T05:46:22.376Z</time>
      </trkpt>
      <trkpt lat="45.84279" lon="6.76381">
        <ele>1663</ele>
        <time>2026-08-14T05:46:23.376Z</time>
      </trkpt>
      <trkpt lat="45.84278" lon="6.7638">
        <ele>1662</ele>
        <time>2026-08-14T05:46:24.376Z</time>
      </trkpt>
      <trkpt lat="45.84277" lon="6.76379">
        <ele>1662</ele>
        <time>2026-08-14T05:46:25.376Z</time>
      </trkpt>
      <trkpt lat="45.84276" lon="6.76379">
        <ele>1662</ele>
        <time>2026-08-14T05:46:26.376Z</time>
      </trkpt>
      <trkpt lat="45.84275" lon="6.76379">
        <ele>1661</ele>
        <time>2026-08-14T05:46:27.376Z</time>
      </trkpt>
      <trkpt lat="45.84274" lon="6.76379">
        <ele>1661</ele>
        <time>2026-08-14T05:46:28.376Z</time>
      </trkpt>
      <trkpt lat="45.84272" lon="6.76378">
        <ele>1660</ele>
        <time>2026-08-14T05:46:29.376Z</time>
      </trkpt>
      <trkpt lat="45.84272" lon="6.76377">
        <ele>1660</ele>
        <time>2026-08-14T05:46:30.376Z</time>
      </trkpt>
      <trkpt lat="45.84271" lon="6.76376">
        <ele>1660</ele>
        <time>2026-08-14T05:46:31.376Z</time>
      </trkpt>
      <trkpt lat="45.8427" lon="6.76376">
        <ele>1659</ele>
        <time>2026-08-14T05:46:32.376Z</time>
      </trkpt>
      <trkpt lat="45.84269" lon="6.76375">
        <ele>1659</ele>
        <time>2026-08-14T05:46:33.376Z</time>
      </trkpt>
      <trkpt lat="45.84268" lon="6.76374">
        <ele>1659</ele>
        <time>2026-08-14T05:46:34.376Z</time>
      </trkpt>
      <trkpt lat="45.84266" lon="6.76374">
        <ele>1658</ele>
        <time>2026-08-14T05:46:35.376Z</time>
      </trkpt>
      <trkpt lat="45.84265" lon="6.76373">
        <ele>1658</ele>
        <time>2026-08-14T05:46:36.376Z</time>
      </trkpt>
      <trkpt lat="45.84264" lon="6.76372">
        <ele>1657</ele>
        <time>2026-08-14T05:46:37.376Z</time>
      </trkpt>
      <trkpt lat="45.84264" lon="6.76371">
        <ele>1657</ele>
        <time>2026-08-14T05:46:38.376Z</time>
      </trkpt>
      <trkpt lat="45.84264" lon="6.76369">
        <ele>1657</ele>
        <time>2026-08-14T05:46:39.376Z</time>
      </trkpt>
      <trkpt lat="45.84263" lon="6.76367">
        <ele>1657</ele>
        <time>2026-08-14T05:46:40.376Z</time>
      </trkpt>
      <trkpt lat="45.84263" lon="6.76365">
        <ele>1656</ele>
        <time>2026-08-14T05:46:41.376Z</time>
      </trkpt>
      <trkpt lat="45.84262" lon="6.76363">
        <ele>1656</ele>
        <time>2026-08-14T05:46:42.376Z</time>
      </trkpt>
      <trkpt lat="45.84261" lon="6.76362">
        <ele>1655</ele>
        <time>2026-08-14T05:46:43.376Z</time>
      </trkpt>
      <trkpt lat="45.8426" lon="6.76362">
        <ele>1655</ele>
        <time>2026-08-14T05:46:44.376Z</time>
      </trkpt>
      <trkpt lat="45.84259" lon="6.76361">
        <ele>1655</ele>
        <time>2026-08-14T05:46:45.376Z</time>
      </trkpt>
      <trkpt lat="45.84257" lon="6.76361">
        <ele>1655</ele>
        <time>2026-08-14T05:46:46.376Z</time>
      </trkpt>
      <trkpt lat="45.84256" lon="6.76361">
        <ele>1655</ele>
        <time>2026-08-14T05:46:47.376Z</time>
      </trkpt>
      <trkpt lat="45.84255" lon="6.76361">
        <ele>1654</ele>
        <time>2026-08-14T05:46:48.376Z</time>
      </trkpt>
      <trkpt lat="45.84253" lon="6.76361">
        <ele>1654</ele>
        <time>2026-08-14T05:46:49.376Z</time>
      </trkpt>
      <trkpt lat="45.84251" lon="6.76361">
        <ele>1653</ele>
        <time>2026-08-14T05:46:50.376Z</time>
      </trkpt>
      <trkpt lat="45.8425" lon="6.76362">
        <ele>1652</ele>
        <time>2026-08-14T05:46:51.376Z</time>
      </trkpt>
      <trkpt lat="45.84248" lon="6.76362">
        <ele>1651</ele>
        <time>2026-08-14T05:46:52.376Z</time>
      </trkpt>
      <trkpt lat="45.84246" lon="6.76362">
        <ele>1651</ele>
        <time>2026-08-14T05:46:53.376Z</time>
      </trkpt>
      <trkpt lat="45.84245" lon="6.76362">
        <ele>1650</ele>
        <time>2026-08-14T05:46:54.376Z</time>
      </trkpt>
      <trkpt lat="45.84243" lon="6.76361">
        <ele>1649</ele>
        <time>2026-08-14T05:46:55.376Z</time>
      </trkpt>
      <trkpt lat="45.84241" lon="6.7636">
        <ele>1649</ele>
        <time>2026-08-14T05:46:56.376Z</time>
      </trkpt>
      <trkpt lat="45.8424" lon="6.7636">
        <ele>1649</ele>
        <time>2026-08-14T05:46:57.376Z</time>
      </trkpt>
      <trkpt lat="45.84238" lon="6.76359">
        <ele>1649</ele>
        <time>2026-08-14T05:46:58.376Z</time>
      </trkpt>
      <trkpt lat="45.84236" lon="6.76357">
        <ele>1648</ele>
        <time>2026-08-14T05:46:59.376Z</time>
      </trkpt>
      <trkpt lat="45.84234" lon="6.76356">
        <ele>1648</ele>
        <time>2026-08-14T05:47:00.376Z</time>
      </trkpt>
      <trkpt lat="45.84232" lon="6.76355">
        <ele>1648</ele>
        <time>2026-08-14T05:47:01.376Z</time>
      </trkpt>
      <trkpt lat="45.84231" lon="6.76353">
        <ele>1648</ele>
        <time>2026-08-14T05:47:02.376Z</time>
      </trkpt>
      <trkpt lat="45.84229" lon="6.76352">
        <ele>1648</ele>
        <time>2026-08-14T05:47:03.376Z</time>
      </trkpt>
      <trkpt lat="45.84228" lon="6.76351">
        <ele>1648</ele>
        <time>2026-08-14T05:47:04.376Z</time>
      </trkpt>
      <trkpt lat="45.84227" lon="6.7635">
        <ele>1648</ele>
        <time>2026-08-14T05:47:05.376Z</time>
      </trkpt>
      <trkpt lat="45.84225" lon="6.76348">
        <ele>1648</ele>
        <time>2026-08-14T05:47:06.376Z</time>
      </trkpt>
      <trkpt lat="45.84224" lon="6.76347">
        <ele>1647</ele>
        <time>2026-08-14T05:47:07.376Z</time>
      </trkpt>
      <trkpt lat="45.84223" lon="6.76345">
        <ele>1647</ele>
        <time>2026-08-14T05:47:08.376Z</time>
      </trkpt>
      <trkpt lat="45.84221" lon="6.76344">
        <ele>1646</ele>
        <time>2026-08-14T05:47:09.376Z</time>
      </trkpt>
      <trkpt lat="45.8422" lon="6.76343">
        <ele>1646</ele>
        <time>2026-08-14T05:47:10.376Z</time>
      </trkpt>
      <trkpt lat="45.84219" lon="6.76341">
        <ele>1645</ele>
        <time>2026-08-14T05:47:11.376Z</time>
      </trkpt>
      <trkpt lat="45.84218" lon="6.76339">
        <ele>1644</ele>
        <time>2026-08-14T05:47:12.376Z</time>
      </trkpt>
      <trkpt lat="45.84217" lon="6.76338">
        <ele>1644</ele>
        <time>2026-08-14T05:47:13.376Z</time>
      </trkpt>
      <trkpt lat="45.84216" lon="6.76336">
        <ele>1644</ele>
        <time>2026-08-14T05:47:14.376Z</time>
      </trkpt>
      <trkpt lat="45.84215" lon="6.76334">
        <ele>1643</ele>
        <time>2026-08-14T05:47:15.376Z</time>
      </trkpt>
      <trkpt lat="45.84214" lon="6.76333">
        <ele>1643</ele>
        <time>2026-08-14T05:47:16.376Z</time>
      </trkpt>
      <trkpt lat="45.84213" lon="6.76332">
        <ele>1643</ele>
        <time>2026-08-14T05:47:17.376Z</time>
      </trkpt>
      <trkpt lat="45.84212" lon="6.76331">
        <ele>1643</ele>
        <time>2026-08-14T05:47:18.376Z</time>
      </trkpt>
      <trkpt lat="45.8421" lon="6.7633">
        <ele>1643</ele>
        <time>2026-08-14T05:47:19.376Z</time>
      </trkpt>
      <trkpt lat="45.84209" lon="6.76329">
        <ele>1643</ele>
        <time>2026-08-14T05:47:20.376Z</time>
      </trkpt>
      <trkpt lat="45.84208" lon="6.76329">
        <ele>1642</ele>
        <time>2026-08-14T05:47:21.376Z</time>
      </trkpt>
      <trkpt lat="45.84206" lon="6.76328">
        <ele>1642</ele>
        <time>2026-08-14T05:47:22.376Z</time>
      </trkpt>
      <trkpt lat="45.84205" lon="6.76327">
        <ele>1641</ele>
        <time>2026-08-14T05:47:23.376Z</time>
      </trkpt>
      <trkpt lat="45.84204" lon="6.76326">
        <ele>1641</ele>
        <time>2026-08-14T05:47:24.376Z</time>
      </trkpt>
      <trkpt lat="45.84203" lon="6.76324">
        <ele>1640</ele>
        <time>2026-08-14T05:47:25.376Z</time>
      </trkpt>
      <trkpt lat="45.84202" lon="6.76323">
        <ele>1639</ele>
        <time>2026-08-14T05:47:26.376Z</time>
      </trkpt>
      <trkpt lat="45.842" lon="6.76322">
        <ele>1638</ele>
        <time>2026-08-14T05:47:27.376Z</time>
      </trkpt>
      <trkpt lat="45.84199" lon="6.7632">
        <ele>1637</ele>
        <time>2026-08-14T05:47:28.376Z</time>
      </trkpt>
      <trkpt lat="45.84198" lon="6.76319">
        <ele>1637</ele>
        <time>2026-08-14T05:47:29.376Z</time>
      </trkpt>
      <trkpt lat="45.84196" lon="6.76318">
        <ele>1636</ele>
        <time>2026-08-14T05:47:30.376Z</time>
      </trkpt>
      <trkpt lat="45.84195" lon="6.76317">
        <ele>1636</ele>
        <time>2026-08-14T05:47:31.376Z</time>
      </trkpt>
      <trkpt lat="45.84194" lon="6.76316">
        <ele>1636</ele>
        <time>2026-08-14T05:47:32.376Z</time>
      </trkpt>
      <trkpt lat="45.84192" lon="6.76316">
        <ele>1635</ele>
        <time>2026-08-14T05:47:33.376Z</time>
      </trkpt>
      <trkpt lat="45.84191" lon="6.76315">
        <ele>1635</ele>
        <time>2026-08-14T05:47:34.376Z</time>
      </trkpt>
      <trkpt lat="45.84189" lon="6.76314">
        <ele>1635</ele>
        <time>2026-08-14T05:47:35.376Z</time>
      </trkpt>
      <trkpt lat="45.84187" lon="6.76313">
        <ele>1634</ele>
        <time>2026-08-14T05:47:36.376Z</time>
      </trkpt>
      <trkpt lat="45.84186" lon="6.76312">
        <ele>1633</ele>
        <time>2026-08-14T05:47:37.376Z</time>
      </trkpt>
      <trkpt lat="45.84184" lon="6.76311">
        <ele>1633</ele>
        <time>2026-08-14T05:47:38.376Z</time>
      </trkpt>
      <trkpt lat="45.84183" lon="6.76309">
        <ele>1632</ele>
        <time>2026-08-14T05:47:39.376Z</time>
      </trkpt>
      <trkpt lat="45.84182" lon="6.76307">
        <ele>1631</ele>
        <time>2026-08-14T05:47:40.376Z</time>
      </trkpt>
      <trkpt lat="45.8418" lon="6.76305">
        <ele>1631</ele>
        <time>2026-08-14T05:47:41.376Z</time>
      </trkpt>
      <trkpt lat="45.8418" lon="6.76303">
        <ele>1631</ele>
        <time>2026-08-14T05:47:42.376Z</time>
      </trkpt>
      <trkpt lat="45.84179" lon="6.763">
        <ele>1630</ele>
        <time>2026-08-14T05:47:43.376Z</time>
      </trkpt>
      <trkpt lat="45.84178" lon="6.76298">
        <ele>1630</ele>
        <time>2026-08-14T05:47:44.376Z</time>
      </trkpt>
      <trkpt lat="45.84177" lon="6.76296">
        <ele>1630</ele>
        <time>2026-08-14T05:47:45.376Z</time>
      </trkpt>
      <trkpt lat="45.84176" lon="6.76294">
        <ele>1630</ele>
        <time>2026-08-14T05:47:46.376Z</time>
      </trkpt>
      <trkpt lat="45.84174" lon="6.76293">
        <ele>1629</ele>
        <time>2026-08-14T05:47:47.376Z</time>
      </trkpt>
      <trkpt lat="45.84173" lon="6.76292">
        <ele>1629</ele>
        <time>2026-08-14T05:47:48.376Z</time>
      </trkpt>
      <trkpt lat="45.84171" lon="6.76291">
        <ele>1629</ele>
        <time>2026-08-14T05:47:49.376Z</time>
      </trkpt>
      <trkpt lat="45.8417" lon="6.7629">
        <ele>1628</ele>
        <time>2026-08-14T05:47:50.376Z</time>
      </trkpt>
      <trkpt lat="45.84168" lon="6.76289">
        <ele>1628</ele>
        <time>2026-08-14T05:47:51.376Z</time>
      </trkpt>
      <trkpt lat="45.84167" lon="6.76289">
        <ele>1628</ele>
        <time>2026-08-14T05:47:52.376Z</time>
      </trkpt>
      <trkpt lat="45.84165" lon="6.76288">
        <ele>1627</ele>
        <time>2026-08-14T05:47:53.376Z</time>
      </trkpt>
      <trkpt lat="45.84164" lon="6.76287">
        <ele>1627</ele>
        <time>2026-08-14T05:47:54.376Z</time>
      </trkpt>
      <trkpt lat="45.84162" lon="6.76286">
        <ele>1626</ele>
        <time>2026-08-14T05:47:55.376Z</time>
      </trkpt>
      <trkpt lat="45.84162" lon="6.76284">
        <ele>1626</ele>
        <time>2026-08-14T05:47:56.376Z</time>
      </trkpt>
      <trkpt lat="45.84161" lon="6.76282">
        <ele>1625</ele>
        <time>2026-08-14T05:47:57.376Z</time>
      </trkpt>
      <trkpt lat="45.8416" lon="6.7628">
        <ele>1625</ele>
        <time>2026-08-14T05:47:58.376Z</time>
      </trkpt>
      <trkpt lat="45.84159" lon="6.76278">
        <ele>1625</ele>
        <time>2026-08-14T05:47:59.376Z</time>
      </trkpt>
      <trkpt lat="45.84158" lon="6.76277">
        <ele>1624</ele>
        <time>2026-08-14T05:48:00.376Z</time>
      </trkpt>
      <trkpt lat="45.84157" lon="6.76275">
        <ele>1624</ele>
        <time>2026-08-14T05:48:01.376Z</time>
      </trkpt>
      <trkpt lat="45.84156" lon="6.76274">
        <ele>1624</ele>
        <time>2026-08-14T05:48:02.376Z</time>
      </trkpt>
      <trkpt lat="45.84155" lon="6.76272">
        <ele>1623</ele>
        <time>2026-08-14T05:48:03.376Z</time>
      </trkpt>
      <trkpt lat="45.84155" lon="6.76271">
        <ele>1623</ele>
        <time>2026-08-14T05:48:04.376Z</time>
      </trkpt>
      <trkpt lat="45.84154" lon="6.7627">
        <ele>1623</ele>
        <time>2026-08-14T05:48:05.376Z</time>
      </trkpt>
      <trkpt lat="45.84153" lon="6.76269">
        <ele>1622</ele>
        <time>2026-08-14T05:48:06.376Z</time>
      </trkpt>
      <trkpt lat="45.84153" lon="6.76267">
        <ele>1622</ele>
        <time>2026-08-14T05:48:07.376Z</time>
      </trkpt>
      <trkpt lat="45.84153" lon="6.76266">
        <ele>1621</ele>
        <time>2026-08-14T05:48:08.376Z</time>
      </trkpt>
      <trkpt lat="45.84152" lon="6.76265">
        <ele>1621</ele>
        <time>2026-08-14T05:48:09.376Z</time>
      </trkpt>
      <trkpt lat="45.84151" lon="6.76265">
        <ele>1621</ele>
        <time>2026-08-14T05:48:10.376Z</time>
      </trkpt>
      <trkpt lat="45.84149" lon="6.76264">
        <ele>1621</ele>
        <time>2026-08-14T05:48:11.376Z</time>
      </trkpt>
      <trkpt lat="45.84148" lon="6.76263">
        <ele>1621</ele>
        <time>2026-08-14T05:48:12.376Z</time>
      </trkpt>
      <trkpt lat="45.84147" lon="6.76263">
        <ele>1621</ele>
        <time>2026-08-14T05:48:13.376Z</time>
      </trkpt>
      <trkpt lat="45.84145" lon="6.76262">
        <ele>1621</ele>
        <time>2026-08-14T05:48:14.376Z</time>
      </trkpt>
      <trkpt lat="45.84144" lon="6.76261">
        <ele>1620</ele>
        <time>2026-08-14T05:48:15.376Z</time>
      </trkpt>
      <trkpt lat="45.84143" lon="6.7626">
        <ele>1620</ele>
        <time>2026-08-14T05:48:16.376Z</time>
      </trkpt>
      <trkpt lat="45.84141" lon="6.76258">
        <ele>1619</ele>
        <time>2026-08-14T05:48:17.376Z</time>
      </trkpt>
      <trkpt lat="45.8414" lon="6.76255">
        <ele>1618</ele>
        <time>2026-08-14T05:48:18.376Z</time>
      </trkpt>
      <trkpt lat="45.84139" lon="6.76253">
        <ele>1618</ele>
        <time>2026-08-14T05:48:19.376Z</time>
      </trkpt>
      <trkpt lat="45.84139" lon="6.7625">
        <ele>1618</ele>
        <time>2026-08-14T05:48:20.376Z</time>
      </trkpt>
      <trkpt lat="45.84138" lon="6.76247">
        <ele>1618</ele>
        <time>2026-08-14T05:48:21.376Z</time>
      </trkpt>
      <trkpt lat="45.84138" lon="6.76244">
        <ele>1617</ele>
        <time>2026-08-14T05:48:22.376Z</time>
      </trkpt>
      <trkpt lat="45.84137" lon="6.76241">
        <ele>1617</ele>
        <time>2026-08-14T05:48:23.376Z</time>
      </trkpt>
      <trkpt lat="45.84136" lon="6.76239">
        <ele>1616</ele>
        <time>2026-08-14T05:48:24.376Z</time>
      </trkpt>
      <trkpt lat="45.84135" lon="6.76236">
        <ele>1616</ele>
        <time>2026-08-14T05:48:25.376Z</time>
      </trkpt>
      <trkpt lat="45.84134" lon="6.76234">
        <ele>1616</ele>
        <time>2026-08-14T05:48:26.376Z</time>
      </trkpt>
      <trkpt lat="45.84133" lon="6.76232">
        <ele>1615</ele>
        <time>2026-08-14T05:48:27.376Z</time>
      </trkpt>
      <trkpt lat="45.84131" lon="6.76231">
        <ele>1615</ele>
        <time>2026-08-14T05:48:28.376Z</time>
      </trkpt>
      <trkpt lat="45.8413" lon="6.76229">
        <ele>1615</ele>
        <time>2026-08-14T05:48:29.376Z</time>
      </trkpt>
      <trkpt lat="45.84129" lon="6.76227">
        <ele>1615</ele>
        <time>2026-08-14T05:48:30.376Z</time>
      </trkpt>
      <trkpt lat="45.84128" lon="6.76225">
        <ele>1615</ele>
        <time>2026-08-14T05:48:31.376Z</time>
      </trkpt>
      <trkpt lat="45.84127" lon="6.76223">
        <ele>1615</ele>
        <time>2026-08-14T05:48:32.376Z</time>
      </trkpt>
      <trkpt lat="45.84126" lon="6.76221">
        <ele>1614</ele>
        <time>2026-08-14T05:48:33.376Z</time>
      </trkpt>
      <trkpt lat="45.84125" lon="6.76219">
        <ele>1614</ele>
        <time>2026-08-14T05:48:34.376Z</time>
      </trkpt>
      <trkpt lat="45.84124" lon="6.76218">
        <ele>1613</ele>
        <time>2026-08-14T05:48:35.376Z</time>
      </trkpt>
      <trkpt lat="45.84123" lon="6.76216">
        <ele>1613</ele>
        <time>2026-08-14T05:48:36.376Z</time>
      </trkpt>
      <trkpt lat="45.84122" lon="6.76214">
        <ele>1612</ele>
        <time>2026-08-14T05:48:37.376Z</time>
      </trkpt>
      <trkpt lat="45.84121" lon="6.76213">
        <ele>1612</ele>
        <time>2026-08-14T05:48:38.376Z</time>
      </trkpt>
      <trkpt lat="45.8412" lon="6.76212">
        <ele>1612</ele>
        <time>2026-08-14T05:48:39.376Z</time>
      </trkpt>
      <trkpt lat="45.84119" lon="6.76211">
        <ele>1613</ele>
        <time>2026-08-14T05:48:40.376Z</time>
      </trkpt>
      <trkpt lat="45.84118" lon="6.7621">
        <ele>1613</ele>
        <time>2026-08-14T05:48:41.376Z</time>
      </trkpt>
      <trkpt lat="45.84118" lon="6.76209">
        <ele>1613</ele>
        <time>2026-08-14T05:48:42.376Z</time>
      </trkpt>
      <trkpt lat="45.84117" lon="6.76208">
        <ele>1613</ele>
        <time>2026-08-14T05:48:43.376Z</time>
      </trkpt>
      <trkpt lat="45.84117" lon="6.76206">
        <ele>1613</ele>
        <time>2026-08-14T05:48:44.376Z</time>
      </trkpt>
      <trkpt lat="45.84117" lon="6.76206">
        <ele>1612</ele>
        <time>2026-08-14T05:48:45.376Z</time>
      </trkpt>
      <trkpt lat="45.84117" lon="6.76204">
        <ele>1612</ele>
        <time>2026-08-14T05:48:46.376Z</time>
      </trkpt>
      <trkpt lat="45.84117" lon="6.76204">
        <ele>1611</ele>
        <time>2026-08-14T05:48:47.376Z</time>
      </trkpt>
      <trkpt lat="45.84117" lon="6.76203">
        <ele>1611</ele>
        <time>2026-08-14T05:48:48.376Z</time>
      </trkpt>
      <trkpt lat="45.84117" lon="6.76202">
        <ele>1611</ele>
        <time>2026-08-14T05:48:49.376Z</time>
      </trkpt>
      <trkpt lat="45.84117" lon="6.76202">
        <ele>1610</ele>
        <time>2026-08-14T05:48:50.376Z</time>
      </trkpt>
      <trkpt lat="45.84118" lon="6.76201">
        <ele>1610</ele>
        <time>2026-08-14T05:48:51.376Z</time>
      </trkpt>
      <trkpt lat="45.84118" lon="6.76199">
        <ele>1610</ele>
        <time>2026-08-14T05:48:52.376Z</time>
      </trkpt>
      <trkpt lat="45.84119" lon="6.76198">
        <ele>1609</ele>
        <time>2026-08-14T05:48:53.376Z</time>
      </trkpt>
      <trkpt lat="45.8412" lon="6.76196">
        <ele>1609</ele>
        <time>2026-08-14T05:48:54.376Z</time>
      </trkpt>
      <trkpt lat="45.8412" lon="6.76194">
        <ele>1608</ele>
        <time>2026-08-14T05:48:55.376Z</time>
      </trkpt>
      <trkpt lat="45.8412" lon="6.76193">
        <ele>1608</ele>
        <time>2026-08-14T05:48:56.376Z</time>
      </trkpt>
      <trkpt lat="45.8412" lon="6.76192">
        <ele>1607</ele>
        <time>2026-08-14T05:48:57.376Z</time>
      </trkpt>
      <trkpt lat="45.8412" lon="6.76192">
        <ele>1606</ele>
        <time>2026-08-14T05:48:58.376Z</time>
      </trkpt>
      <trkpt lat="45.84121" lon="6.7619">
        <ele>1606</ele>
        <time>2026-08-14T05:48:59.376Z</time>
      </trkpt>
      <trkpt lat="45.84121" lon="6.76189">
        <ele>1605</ele>
        <time>2026-08-14T05:49:00.376Z</time>
      </trkpt>
      <trkpt lat="45.84121" lon="6.76187">
        <ele>1604</ele>
        <time>2026-08-14T05:49:01.376Z</time>
      </trkpt>
      <trkpt lat="45.84121" lon="6.76184">
        <ele>1604</ele>
        <time>2026-08-14T05:49:02.376Z</time>
      </trkpt>
      <trkpt lat="45.84121" lon="6.76182">
        <ele>1603</ele>
        <time>2026-08-14T05:49:03.376Z</time>
      </trkpt>
      <trkpt lat="45.8412" lon="6.76179">
        <ele>1603</ele>
        <time>2026-08-14T05:49:04.376Z</time>
      </trkpt>
      <trkpt lat="45.8412" lon="6.76177">
        <ele>1604</ele>
        <time>2026-08-14T05:49:05.376Z</time>
      </trkpt>
      <trkpt lat="45.84119" lon="6.76175">
        <ele>1604</ele>
        <time>2026-08-14T05:49:06.376Z</time>
      </trkpt>
      <trkpt lat="45.84119" lon="6.76173">
        <ele>1603</ele>
        <time>2026-08-14T05:49:07.376Z</time>
      </trkpt>
      <trkpt lat="45.84118" lon="6.76171">
        <ele>1603</ele>
        <time>2026-08-14T05:49:08.376Z</time>
      </trkpt>
      <trkpt lat="45.84117" lon="6.76169">
        <ele>1603</ele>
        <time>2026-08-14T05:49:09.376Z</time>
      </trkpt>
      <trkpt lat="45.84117" lon="6.76168">
        <ele>1603</ele>
        <time>2026-08-14T05:49:10.376Z</time>
      </trkpt>
      <trkpt lat="45.84116" lon="6.76166">
        <ele>1603</ele>
        <time>2026-08-14T05:49:11.376Z</time>
      </trkpt>
      <trkpt lat="45.84116" lon="6.76164">
        <ele>1603</ele>
        <time>2026-08-14T05:49:12.376Z</time>
      </trkpt>
      <trkpt lat="45.84115" lon="6.76162">
        <ele>1602</ele>
        <time>2026-08-14T05:49:13.376Z</time>
      </trkpt>
      <trkpt lat="45.84114" lon="6.7616">
        <ele>1602</ele>
        <time>2026-08-14T05:49:14.376Z</time>
      </trkpt>
      <trkpt lat="45.84114" lon="6.76157">
        <ele>1602</ele>
        <time>2026-08-14T05:49:15.376Z</time>
      </trkpt>
      <trkpt lat="45.84113" lon="6.76155">
        <ele>1601</ele>
        <time>2026-08-14T05:49:16.376Z</time>
      </trkpt>
      <trkpt lat="45.84112" lon="6.76153">
        <ele>1601</ele>
        <time>2026-08-14T05:49:17.376Z</time>
      </trkpt>
      <trkpt lat="45.84112" lon="6.7615">
        <ele>1601</ele>
        <time>2026-08-14T05:49:18.376Z</time>
      </trkpt>
      <trkpt lat="45.84111" lon="6.76147">
        <ele>1601</ele>
        <time>2026-08-14T05:49:19.376Z</time>
      </trkpt>
      <trkpt lat="45.84111" lon="6.76145">
        <ele>1600</ele>
        <time>2026-08-14T05:49:20.376Z</time>
      </trkpt>
      <trkpt lat="45.84111" lon="6.76142">
        <ele>1600</ele>
        <time>2026-08-14T05:49:21.376Z</time>
      </trkpt>
      <trkpt lat="45.84111" lon="6.76139">
        <ele>1599</ele>
        <time>2026-08-14T05:49:22.376Z</time>
      </trkpt>
      <trkpt lat="45.84111" lon="6.76137">
        <ele>1599</ele>
        <time>2026-08-14T05:49:23.376Z</time>
      </trkpt>
      <trkpt lat="45.8411" lon="6.76134">
        <ele>1599</ele>
        <time>2026-08-14T05:49:24.376Z</time>
      </trkpt>
      <trkpt lat="45.8411" lon="6.76132">
        <ele>1599</ele>
        <time>2026-08-14T05:49:25.376Z</time>
      </trkpt>
      <trkpt lat="45.8411" lon="6.76129">
        <ele>1598</ele>
        <time>2026-08-14T05:49:26.376Z</time>
      </trkpt>
      <trkpt lat="45.84109" lon="6.76127">
        <ele>1598</ele>
        <time>2026-08-14T05:49:27.376Z</time>
      </trkpt>
      <trkpt lat="45.84109" lon="6.76125">
        <ele>1598</ele>
        <time>2026-08-14T05:49:28.376Z</time>
      </trkpt>
      <trkpt lat="45.84109" lon="6.76122">
        <ele>1598</ele>
        <time>2026-08-14T05:49:29.376Z</time>
      </trkpt>
      <trkpt lat="45.84108" lon="6.7612">
        <ele>1598</ele>
        <time>2026-08-14T05:49:30.376Z</time>
      </trkpt>
      <trkpt lat="45.84108" lon="6.76118">
        <ele>1597</ele>
        <time>2026-08-14T05:49:31.376Z</time>
      </trkpt>
      <trkpt lat="45.84107" lon="6.76116">
        <ele>1597</ele>
        <time>2026-08-14T05:49:32.376Z</time>
      </trkpt>
      <trkpt lat="45.84107" lon="6.76113">
        <ele>1597</ele>
        <time>2026-08-14T05:49:33.376Z</time>
      </trkpt>
      <trkpt lat="45.84107" lon="6.76111">
        <ele>1597</ele>
        <time>2026-08-14T05:49:34.376Z</time>
      </trkpt>
      <trkpt lat="45.84106" lon="6.76109">
        <ele>1597</ele>
        <time>2026-08-14T05:49:35.376Z</time>
      </trkpt>
      <trkpt lat="45.84106" lon="6.76107">
        <ele>1596</ele>
        <time>2026-08-14T05:49:36.376Z</time>
      </trkpt>
      <trkpt lat="45.84105" lon="6.76104">
        <ele>1596</ele>
        <time>2026-08-14T05:49:37.376Z</time>
      </trkpt>
      <trkpt lat="45.84104" lon="6.76101">
        <ele>1595</ele>
        <time>2026-08-14T05:49:38.376Z</time>
      </trkpt>
      <trkpt lat="45.84104" lon="6.76098">
        <ele>1595</ele>
        <time>2026-08-14T05:49:39.376Z</time>
      </trkpt>
      <trkpt lat="45.84103" lon="6.76096">
        <ele>1595</ele>
        <time>2026-08-14T05:49:40.376Z</time>
      </trkpt>
      <trkpt lat="45.84102" lon="6.76093">
        <ele>1595</ele>
        <time>2026-08-14T05:49:41.376Z</time>
      </trkpt>
      <trkpt lat="45.84101" lon="6.7609">
        <ele>1595</ele>
        <time>2026-08-14T05:49:42.376Z</time>
      </trkpt>
      <trkpt lat="45.84101" lon="6.76088">
        <ele>1595</ele>
        <time>2026-08-14T05:49:43.376Z</time>
      </trkpt>
      <trkpt lat="45.841" lon="6.76085">
        <ele>1595</ele>
        <time>2026-08-14T05:49:44.376Z</time>
      </trkpt>
      <trkpt lat="45.84099" lon="6.76083">
        <ele>1594</ele>
        <time>2026-08-14T05:49:45.376Z</time>
      </trkpt>
      <trkpt lat="45.84098" lon="6.7608">
        <ele>1594</ele>
        <time>2026-08-14T05:49:46.376Z</time>
      </trkpt>
      <trkpt lat="45.84098" lon="6.76078">
        <ele>1593</ele>
        <time>2026-08-14T05:49:47.376Z</time>
      </trkpt>
      <trkpt lat="45.84098" lon="6.76075">
        <ele>1592</ele>
        <time>2026-08-14T05:49:48.376Z</time>
      </trkpt>
      <trkpt lat="45.84097" lon="6.76072">
        <ele>1592</ele>
        <time>2026-08-14T05:49:49.376Z</time>
      </trkpt>
      <trkpt lat="45.84096" lon="6.7607">
        <ele>1591</ele>
        <time>2026-08-14T05:49:50.376Z</time>
      </trkpt>
      <trkpt lat="45.84096" lon="6.76067">
        <ele>1591</ele>
        <time>2026-08-14T05:49:51.376Z</time>
      </trkpt>
      <trkpt lat="45.84094" lon="6.76064">
        <ele>1591</ele>
        <time>2026-08-14T05:49:52.376Z</time>
      </trkpt>
      <trkpt lat="45.84093" lon="6.76062">
        <ele>1591</ele>
        <time>2026-08-14T05:49:53.376Z</time>
      </trkpt>
      <trkpt lat="45.84093" lon="6.76059">
        <ele>1590</ele>
        <time>2026-08-14T05:49:54.376Z</time>
      </trkpt>
      <trkpt lat="45.84092" lon="6.76057">
        <ele>1590</ele>
        <time>2026-08-14T05:49:55.376Z</time>
      </trkpt>
      <trkpt lat="45.84091" lon="6.76054">
        <ele>1589</ele>
        <time>2026-08-14T05:49:56.376Z</time>
      </trkpt>
      <trkpt lat="45.8409" lon="6.76052">
        <ele>1589</ele>
        <time>2026-08-14T05:49:57.376Z</time>
      </trkpt>
      <trkpt lat="45.84089" lon="6.76049">
        <ele>1588</ele>
        <time>2026-08-14T05:49:58.376Z</time>
      </trkpt>
      <trkpt lat="45.84088" lon="6.76046">
        <ele>1588</ele>
        <time>2026-08-14T05:49:59.376Z</time>
      </trkpt>
      <trkpt lat="45.84088" lon="6.76044">
        <ele>1587</ele>
        <time>2026-08-14T05:50:00.376Z</time>
      </trkpt>
      <trkpt lat="45.84087" lon="6.76041">
        <ele>1587</ele>
        <time>2026-08-14T05:50:01.376Z</time>
      </trkpt>
      <trkpt lat="45.84087" lon="6.76038">
        <ele>1587</ele>
        <time>2026-08-14T05:50:02.376Z</time>
      </trkpt>
      <trkpt lat="45.84086" lon="6.76035">
        <ele>1586</ele>
        <time>2026-08-14T05:50:03.376Z</time>
      </trkpt>
      <trkpt lat="45.84085" lon="6.76033">
        <ele>1586</ele>
        <time>2026-08-14T05:50:04.376Z</time>
      </trkpt>
      <trkpt lat="45.84085" lon="6.7603">
        <ele>1586</ele>
        <time>2026-08-14T05:50:05.376Z</time>
      </trkpt>
      <trkpt lat="45.84084" lon="6.76028">
        <ele>1586</ele>
        <time>2026-08-14T05:50:06.376Z</time>
      </trkpt>
      <trkpt lat="45.84083" lon="6.76025">
        <ele>1586</ele>
        <time>2026-08-14T05:50:07.376Z</time>
      </trkpt>
      <trkpt lat="45.84082" lon="6.76023">
        <ele>1585</ele>
        <time>2026-08-14T05:50:08.376Z</time>
      </trkpt>
      <trkpt lat="45.84081" lon="6.76021">
        <ele>1585</ele>
        <time>2026-08-14T05:50:09.376Z</time>
      </trkpt>
      <trkpt lat="45.8408" lon="6.76018">
        <ele>1585</ele>
        <time>2026-08-14T05:50:10.376Z</time>
      </trkpt>
      <trkpt lat="45.84079" lon="6.76016">
        <ele>1585</ele>
        <time>2026-08-14T05:50:11.376Z</time>
      </trkpt>
      <trkpt lat="45.84078" lon="6.76014">
        <ele>1584</ele>
        <time>2026-08-14T05:50:12.376Z</time>
      </trkpt>
      <trkpt lat="45.84077" lon="6.76011">
        <ele>1584</ele>
        <time>2026-08-14T05:50:13.377Z</time>
      </trkpt>
      <trkpt lat="45.84077" lon="6.7601">
        <ele>1584</ele>
        <time>2026-08-14T05:50:14.376Z</time>
      </trkpt>
      <trkpt lat="45.84077" lon="6.76009">
        <ele>1584</ele>
        <time>2026-08-14T05:50:15.376Z</time>
      </trkpt>
      <trkpt lat="45.84077" lon="6.76008">
        <ele>1583</ele>
        <time>2026-08-14T05:50:16.376Z</time>
      </trkpt>
      <trkpt lat="45.84077" lon="6.76008">
        <ele>1583</ele>
        <time>2026-08-14T05:50:17.376Z</time>
      </trkpt>
      <trkpt lat="45.84077" lon="6.76008">
        <ele>1583</ele>
        <time>2026-08-14T05:50:18.376Z</time>
      </trkpt>
      <trkpt lat="45.84077" lon="6.76007">
        <ele>1583</ele>
        <time>2026-08-14T05:50:19.376Z</time>
      </trkpt>
      <trkpt lat="45.84076" lon="6.76007">
        <ele>1583</ele>
        <time>2026-08-14T05:50:20.376Z</time>
      </trkpt>
      <trkpt lat="45.84076" lon="6.76007">
        <ele>1583</ele>
        <time>2026-08-14T05:50:21.376Z</time>
      </trkpt>
      <trkpt lat="45.84076" lon="6.76006">
        <ele>1583</ele>
        <time>2026-08-14T05:50:22.376Z</time>
      </trkpt>
      <trkpt lat="45.84076" lon="6.76006">
        <ele>1583</ele>
        <time>2026-08-14T05:50:23.376Z</time>
      </trkpt>
      <trkpt lat="45.84076" lon="6.76006">
        <ele>1582</ele>
        <time>2026-08-14T05:50:24.376Z</time>
      </trkpt>
      <trkpt lat="45.84075" lon="6.76006">
        <ele>1582</ele>
        <time>2026-08-14T05:50:25.376Z</time>
      </trkpt>
      <trkpt lat="45.84074" lon="6.76006">
        <ele>1581</ele>
        <time>2026-08-14T05:50:26.376Z</time>
      </trkpt>
      <trkpt lat="45.84073" lon="6.76006">
        <ele>1581</ele>
        <time>2026-08-14T05:50:27.376Z</time>
      </trkpt>
      <trkpt lat="45.84072" lon="6.76006">
        <ele>1581</ele>
        <time>2026-08-14T05:50:28.376Z</time>
      </trkpt>
      <trkpt lat="45.84071" lon="6.76006">
        <ele>1581</ele>
        <time>2026-08-14T05:50:29.376Z</time>
      </trkpt>
      <trkpt lat="45.84069" lon="6.76006">
        <ele>1581</ele>
        <time>2026-08-14T05:50:30.376Z</time>
      </trkpt>
      <trkpt lat="45.84068" lon="6.76007">
        <ele>1580</ele>
        <time>2026-08-14T05:50:31.376Z</time>
      </trkpt>
      <trkpt lat="45.84067" lon="6.76007">
        <ele>1580</ele>
        <time>2026-08-14T05:50:32.376Z</time>
      </trkpt>
      <trkpt lat="45.84066" lon="6.76008">
        <ele>1581</ele>
        <time>2026-08-14T05:50:33.376Z</time>
      </trkpt>
      <trkpt lat="45.84064" lon="6.76008">
        <ele>1581</ele>
        <time>2026-08-14T05:50:34.376Z</time>
      </trkpt>
      <trkpt lat="45.84063" lon="6.76008">
        <ele>1581</ele>
        <time>2026-08-14T05:50:35.376Z</time>
      </trkpt>
      <trkpt lat="45.84062" lon="6.76009">
        <ele>1581</ele>
        <time>2026-08-14T05:50:36.376Z</time>
      </trkpt>
      <trkpt lat="45.8406" lon="6.76008">
        <ele>1581</ele>
        <time>2026-08-14T05:50:37.376Z</time>
      </trkpt>
      <trkpt lat="45.84058" lon="6.76009">
        <ele>1581</ele>
        <time>2026-08-14T05:50:38.376Z</time>
      </trkpt>
      <trkpt lat="45.84057" lon="6.76009">
        <ele>1582</ele>
        <time>2026-08-14T05:50:39.376Z</time>
      </trkpt>
      <trkpt lat="45.84055" lon="6.76009">
        <ele>1582</ele>
        <time>2026-08-14T05:50:40.376Z</time>
      </trkpt>
      <trkpt lat="45.84053" lon="6.76009">
        <ele>1582</ele>
        <time>2026-08-14T05:50:41.376Z</time>
      </trkpt>
      <trkpt lat="45.84051" lon="6.76008">
        <ele>1582</ele>
        <time>2026-08-14T05:50:42.376Z</time>
      </trkpt>
      <trkpt lat="45.84049" lon="6.76006">
        <ele>1582</ele>
        <time>2026-08-14T05:50:43.376Z</time>
      </trkpt>
      <trkpt lat="45.84047" lon="6.76006">
        <ele>1582</ele>
        <time>2026-08-14T05:50:44.376Z</time>
      </trkpt>
      <trkpt lat="45.84046" lon="6.76005">
        <ele>1582</ele>
        <time>2026-08-14T05:50:45.376Z</time>
      </trkpt>
      <trkpt lat="45.84044" lon="6.76005">
        <ele>1582</ele>
        <time>2026-08-14T05:50:46.376Z</time>
      </trkpt>
      <trkpt lat="45.84042" lon="6.76006">
        <ele>1582</ele>
        <time>2026-08-14T05:50:47.376Z</time>
      </trkpt>
      <trkpt lat="45.84041" lon="6.76006">
        <ele>1582</ele>
        <time>2026-08-14T05:50:48.376Z</time>
      </trkpt>
      <trkpt lat="45.84039" lon="6.76007">
        <ele>1582</ele>
        <time>2026-08-14T05:50:49.376Z</time>
      </trkpt>
      <trkpt lat="45.84038" lon="6.76007">
        <ele>1581</ele>
        <time>2026-08-14T05:50:50.376Z</time>
      </trkpt>
      <trkpt lat="45.84037" lon="6.76008">
        <ele>1581</ele>
        <time>2026-08-14T05:50:51.376Z</time>
      </trkpt>
      <trkpt lat="45.84035" lon="6.76008">
        <ele>1580</ele>
        <time>2026-08-14T05:50:52.376Z</time>
      </trkpt>
      <trkpt lat="45.84034" lon="6.76009">
        <ele>1580</ele>
        <time>2026-08-14T05:50:53.376Z</time>
      </trkpt>
      <trkpt lat="45.84032" lon="6.7601">
        <ele>1579</ele>
        <time>2026-08-14T05:50:54.376Z</time>
      </trkpt>
      <trkpt lat="45.8403" lon="6.7601">
        <ele>1579</ele>
        <time>2026-08-14T05:50:55.376Z</time>
      </trkpt>
      <trkpt lat="45.84028" lon="6.7601">
        <ele>1579</ele>
        <time>2026-08-14T05:50:56.376Z</time>
      </trkpt>
      <trkpt lat="45.84027" lon="6.7601">
        <ele>1578</ele>
        <time>2026-08-14T05:50:57.376Z</time>
      </trkpt>
      <trkpt lat="45.84025" lon="6.7601">
        <ele>1578</ele>
        <time>2026-08-14T05:50:58.376Z</time>
      </trkpt>
      <trkpt lat="45.84022" lon="6.76011">
        <ele>1578</ele>
        <time>2026-08-14T05:50:59.376Z</time>
      </trkpt>
      <trkpt lat="45.8402" lon="6.76012">
        <ele>1578</ele>
        <time>2026-08-14T05:51:00.376Z</time>
      </trkpt>
      <trkpt lat="45.84018" lon="6.76012">
        <ele>1578</ele>
        <time>2026-08-14T05:51:01.376Z</time>
      </trkpt>
      <trkpt lat="45.84016" lon="6.76013">
        <ele>1578</ele>
        <time>2026-08-14T05:51:02.376Z</time>
      </trkpt>
      <trkpt lat="45.84014" lon="6.76013">
        <ele>1578</ele>
        <time>2026-08-14T05:51:03.376Z</time>
      </trkpt>
      <trkpt lat="45.84012" lon="6.76013">
        <ele>1578</ele>
        <time>2026-08-14T05:51:04.376Z</time>
      </trkpt>
      <trkpt lat="45.8401" lon="6.76014">
        <ele>1577</ele>
        <time>2026-08-14T05:51:05.376Z</time>
      </trkpt>
      <trkpt lat="45.84007" lon="6.76014">
        <ele>1577</ele>
        <time>2026-08-14T05:51:06.376Z</time>
      </trkpt>
      <trkpt lat="45.84005" lon="6.76014">
        <ele>1576</ele>
        <time>2026-08-14T05:51:07.376Z</time>
      </trkpt>
      <trkpt lat="45.84003" lon="6.76014">
        <ele>1576</ele>
        <time>2026-08-14T05:51:08.376Z</time>
      </trkpt>
      <trkpt lat="45.84001" lon="6.76014">
        <ele>1576</ele>
        <time>2026-08-14T05:51:09.376Z</time>
      </trkpt>
      <trkpt lat="45.83999" lon="6.76014">
        <ele>1575</ele>
        <time>2026-08-14T05:51:10.376Z</time>
      </trkpt>
      <trkpt lat="45.83998" lon="6.76014">
        <ele>1575</ele>
        <time>2026-08-14T05:51:11.376Z</time>
      </trkpt>
      <trkpt lat="45.83996" lon="6.76015">
        <ele>1575</ele>
        <time>2026-08-14T05:51:12.376Z</time>
      </trkpt>
      <trkpt lat="45.83994" lon="6.76016">
        <ele>1575</ele>
        <time>2026-08-14T05:51:13.376Z</time>
      </trkpt>
      <trkpt lat="45.83992" lon="6.76016">
        <ele>1575</ele>
        <time>2026-08-14T05:51:14.376Z</time>
      </trkpt>
      <trkpt lat="45.8399" lon="6.76017">
        <ele>1574</ele>
        <time>2026-08-14T05:51:15.376Z</time>
      </trkpt>
      <trkpt lat="45.83988" lon="6.76018">
        <ele>1574</ele>
        <time>2026-08-14T05:51:16.376Z</time>
      </trkpt>
      <trkpt lat="45.83986" lon="6.76018">
        <ele>1574</ele>
        <time>2026-08-14T05:51:17.376Z</time>
      </trkpt>
      <trkpt lat="45.83984" lon="6.76019">
        <ele>1574</ele>
        <time>2026-08-14T05:51:18.376Z</time>
      </trkpt>
      <trkpt lat="45.83982" lon="6.76019">
        <ele>1573</ele>
        <time>2026-08-14T05:51:19.376Z</time>
      </trkpt>
      <trkpt lat="45.8398" lon="6.76019">
        <ele>1573</ele>
        <time>2026-08-14T05:51:20.376Z</time>
      </trkpt>
      <trkpt lat="45.83979" lon="6.7602">
        <ele>1573</ele>
        <time>2026-08-14T05:51:21.376Z</time>
      </trkpt>
      <trkpt lat="45.83977" lon="6.76022">
        <ele>1573</ele>
        <time>2026-08-14T05:51:22.376Z</time>
      </trkpt>
      <trkpt lat="45.83974" lon="6.76023">
        <ele>1573</ele>
        <time>2026-08-14T05:51:23.376Z</time>
      </trkpt>
      <trkpt lat="45.83973" lon="6.76024">
        <ele>1573</ele>
        <time>2026-08-14T05:51:24.376Z</time>
      </trkpt>
      <trkpt lat="45.83971" lon="6.76026">
        <ele>1573</ele>
        <time>2026-08-14T05:51:25.376Z</time>
      </trkpt>
      <trkpt lat="45.83969" lon="6.76027">
        <ele>1572</ele>
        <time>2026-08-14T05:51:26.376Z</time>
      </trkpt>
      <trkpt lat="45.83967" lon="6.76029">
        <ele>1572</ele>
        <time>2026-08-14T05:51:27.376Z</time>
      </trkpt>
      <trkpt lat="45.83965" lon="6.7603">
        <ele>1572</ele>
        <time>2026-08-14T05:51:28.376Z</time>
      </trkpt>
      <trkpt lat="45.83964" lon="6.76031">
        <ele>1572</ele>
        <time>2026-08-14T05:51:29.376Z</time>
      </trkpt>
      <trkpt lat="45.83962" lon="6.76031">
        <ele>1572</ele>
        <time>2026-08-14T05:51:30.376Z</time>
      </trkpt>
      <trkpt lat="45.8396" lon="6.76031">
        <ele>1572</ele>
        <time>2026-08-14T05:51:31.376Z</time>
      </trkpt>
      <trkpt lat="45.83958" lon="6.7603">
        <ele>1572</ele>
        <time>2026-08-14T05:51:32.376Z</time>
      </trkpt>
      <trkpt lat="45.83956" lon="6.76029">
        <ele>1572</ele>
        <time>2026-08-14T05:51:33.376Z</time>
      </trkpt>
      <trkpt lat="45.83954" lon="6.76027">
        <ele>1571</ele>
        <time>2026-08-14T05:51:34.376Z</time>
      </trkpt>
      <trkpt lat="45.83952" lon="6.76025">
        <ele>1571</ele>
        <time>2026-08-14T05:51:35.376Z</time>
      </trkpt>
      <trkpt lat="45.83951" lon="6.76024">
        <ele>1571</ele>
        <time>2026-08-14T05:51:36.376Z</time>
      </trkpt>
      <trkpt lat="45.83949" lon="6.76023">
        <ele>1571</ele>
        <time>2026-08-14T05:51:37.376Z</time>
      </trkpt>
      <trkpt lat="45.83947" lon="6.76021">
        <ele>1571</ele>
        <time>2026-08-14T05:51:38.376Z</time>
      </trkpt>
      <trkpt lat="45.83946" lon="6.7602">
        <ele>1571</ele>
        <time>2026-08-14T05:51:39.376Z</time>
      </trkpt>
      <trkpt lat="45.83944" lon="6.76019">
        <ele>1571</ele>
        <time>2026-08-14T05:51:40.376Z</time>
      </trkpt>
      <trkpt lat="45.83941" lon="6.76018">
        <ele>1571</ele>
        <time>2026-08-14T05:51:41.376Z</time>
      </trkpt>
      <trkpt lat="45.83939" lon="6.76018">
        <ele>1570</ele>
        <time>2026-08-14T05:51:42.376Z</time>
      </trkpt>
      <trkpt lat="45.83937" lon="6.76018">
        <ele>1570</ele>
        <time>2026-08-14T05:51:43.376Z</time>
      </trkpt>
      <trkpt lat="45.83935" lon="6.76018">
        <ele>1569</ele>
        <time>2026-08-14T05:51:44.376Z</time>
      </trkpt>
      <trkpt lat="45.83933" lon="6.76018">
        <ele>1569</ele>
        <time>2026-08-14T05:51:45.376Z</time>
      </trkpt>
      <trkpt lat="45.83931" lon="6.76019">
        <ele>1569</ele>
        <time>2026-08-14T05:51:46.376Z</time>
      </trkpt>
      <trkpt lat="45.83929" lon="6.7602">
        <ele>1569</ele>
        <time>2026-08-14T05:51:47.376Z</time>
      </trkpt>
      <trkpt lat="45.83927" lon="6.76021">
        <ele>1569</ele>
        <time>2026-08-14T05:51:48.376Z</time>
      </trkpt>
      <trkpt lat="45.83925" lon="6.76021">
        <ele>1569</ele>
        <time>2026-08-14T05:51:49.376Z</time>
      </trkpt>
      <trkpt lat="45.83924" lon="6.76022">
        <ele>1569</ele>
        <time>2026-08-14T05:51:50.376Z</time>
      </trkpt>
      <trkpt lat="45.83922" lon="6.76023">
        <ele>1569</ele>
        <time>2026-08-14T05:51:51.376Z</time>
      </trkpt>
      <trkpt lat="45.8392" lon="6.76024">
        <ele>1568</ele>
        <time>2026-08-14T05:51:52.376Z</time>
      </trkpt>
      <trkpt lat="45.83919" lon="6.76026">
        <ele>1568</ele>
        <time>2026-08-14T05:51:53.376Z</time>
      </trkpt>
      <trkpt lat="45.83917" lon="6.76027">
        <ele>1567</ele>
        <time>2026-08-14T05:51:54.376Z</time>
      </trkpt>
      <trkpt lat="45.83916" lon="6.76028">
        <ele>1567</ele>
        <time>2026-08-14T05:51:55.376Z</time>
      </trkpt>
      <trkpt lat="45.83914" lon="6.7603">
        <ele>1567</ele>
        <time>2026-08-14T05:51:56.376Z</time>
      </trkpt>
      <trkpt lat="45.83913" lon="6.76031">
        <ele>1566</ele>
        <time>2026-08-14T05:51:57.376Z</time>
      </trkpt>
      <trkpt lat="45.83911" lon="6.76032">
        <ele>1566</ele>
        <time>2026-08-14T05:51:58.376Z</time>
      </trkpt>
      <trkpt lat="45.8391" lon="6.76034">
        <ele>1566</ele>
        <time>2026-08-14T05:51:59.376Z</time>
      </trkpt>
      <trkpt lat="45.83908" lon="6.76035">
        <ele>1566</ele>
        <time>2026-08-14T05:52:00.376Z</time>
      </trkpt>
      <trkpt lat="45.83906" lon="6.76037">
        <ele>1566</ele>
        <time>2026-08-14T05:52:01.376Z</time>
      </trkpt>
      <trkpt lat="45.83904" lon="6.76038">
        <ele>1566</ele>
        <time>2026-08-14T05:52:02.376Z</time>
      </trkpt>
      <trkpt lat="45.83903" lon="6.7604">
        <ele>1566</ele>
        <time>2026-08-14T05:52:03.376Z</time>
      </trkpt>
      <trkpt lat="45.83901" lon="6.76041">
        <ele>1566</ele>
        <time>2026-08-14T05:52:04.376Z</time>
      </trkpt>
      <trkpt lat="45.839" lon="6.76043">
        <ele>1566</ele>
        <time>2026-08-14T05:52:05.376Z</time>
      </trkpt>
      <trkpt lat="45.83898" lon="6.76045">
        <ele>1566</ele>
        <time>2026-08-14T05:52:06.376Z</time>
      </trkpt>
      <trkpt lat="45.83897" lon="6.76046">
        <ele>1565</ele>
        <time>2026-08-14T05:52:07.376Z</time>
      </trkpt>
      <trkpt lat="45.83896" lon="6.76047">
        <ele>1565</ele>
        <time>2026-08-14T05:52:08.376Z</time>
      </trkpt>
      <trkpt lat="45.83895" lon="6.76047">
        <ele>1565</ele>
        <time>2026-08-14T05:52:09.376Z</time>
      </trkpt>
      <trkpt lat="45.83895" lon="6.76047">
        <ele>1565</ele>
        <time>2026-08-14T05:52:10.376Z</time>
      </trkpt>
      <trkpt lat="45.83895" lon="6.76047">
        <ele>1565</ele>
        <time>2026-08-14T05:52:11.376Z</time>
      </trkpt>
      <trkpt lat="45.83894" lon="6.76047">
        <ele>1565</ele>
        <time>2026-08-14T05:52:12.376Z</time>
      </trkpt>
      <trkpt lat="45.83894" lon="6.76047">
        <ele>1565</ele>
        <time>2026-08-14T05:52:13.376Z</time>
      </trkpt>
      <trkpt lat="45.83894" lon="6.76047">
        <ele>1565</ele>
        <time>2026-08-14T05:52:14.376Z</time>
      </trkpt>
      <trkpt lat="45.83894" lon="6.76047">
        <ele>1565</ele>
        <time>2026-08-14T05:52:15.376Z</time>
      </trkpt>
      <trkpt lat="45.83893" lon="6.76047">
        <ele>1565</ele>
        <time>2026-08-14T05:52:16.376Z</time>
      </trkpt>
      <trkpt lat="45.83893" lon="6.76046">
        <ele>1565</ele>
        <time>2026-08-14T05:52:17.376Z</time>
      </trkpt>
      <trkpt lat="45.83893" lon="6.76046">
        <ele>1565</ele>
        <time>2026-08-14T05:52:18.376Z</time>
      </trkpt>
      <trkpt lat="45.83893" lon="6.76046">
        <ele>1564</ele>
        <time>2026-08-14T05:52:19.376Z</time>
      </trkpt>
      <trkpt lat="45.83893" lon="6.76046">
        <ele>1564</ele>
        <time>2026-08-14T05:52:20.376Z</time>
      </trkpt>
      <trkpt lat="45.83893" lon="6.76046">
        <ele>1564</ele>
        <time>2026-08-14T05:52:21.376Z</time>
      </trkpt>
      <trkpt lat="45.83893" lon="6.76046">
        <ele>1564</ele>
        <time>2026-08-14T05:52:22.376Z</time>
      </trkpt>
      <trkpt lat="45.83893" lon="6.76046">
        <ele>1564</ele>
        <time>2026-08-14T05:52:23.376Z</time>
      </trkpt>
      <trkpt lat="45.83893" lon="6.76046">
        <ele>1563</ele>
        <time>2026-08-14T05:52:24.376Z</time>
      </trkpt>
      <trkpt lat="45.83893" lon="6.76046">
        <ele>1563</ele>
        <time>2026-08-14T05:52:25.376Z</time>
      </trkpt>
      <trkpt lat="45.83892" lon="6.76046">
        <ele>1563</ele>
        <time>2026-08-14T05:52:26.376Z</time>
      </trkpt>
      <trkpt lat="45.8389" lon="6.76045">
        <ele>1563</ele>
        <time>2026-08-14T05:52:27.376Z</time>
      </trkpt>
      <trkpt lat="45.83889" lon="6.76043">
        <ele>1563</ele>
        <time>2026-08-14T05:52:28.376Z</time>
      </trkpt>
      <trkpt lat="45.83887" lon="6.76042">
        <ele>1563</ele>
        <time>2026-08-14T05:52:29.376Z</time>
      </trkpt>
      <trkpt lat="45.83885" lon="6.7604">
        <ele>1563</ele>
        <time>2026-08-14T05:52:30.376Z</time>
      </trkpt>
      <trkpt lat="45.83884" lon="6.76038">
        <ele>1564</ele>
        <time>2026-08-14T05:52:31.376Z</time>
      </trkpt>
      <trkpt lat="45.83882" lon="6.76036">
        <ele>1564</ele>
        <time>2026-08-14T05:52:32.376Z</time>
      </trkpt>
      <trkpt lat="45.83881" lon="6.76034">
        <ele>1564</ele>
        <time>2026-08-14T05:52:33.376Z</time>
      </trkpt>
      <trkpt lat="45.83879" lon="6.76031">
        <ele>1564</ele>
        <time>2026-08-14T05:52:34.376Z</time>
      </trkpt>
      <trkpt lat="45.83878" lon="6.7603">
        <ele>1564</ele>
        <time>2026-08-14T05:52:35.376Z</time>
      </trkpt>
      <trkpt lat="45.83876" lon="6.76028">
        <ele>1564</ele>
        <time>2026-08-14T05:52:36.376Z</time>
      </trkpt>
      <trkpt lat="45.83874" lon="6.76026">
        <ele>1563</ele>
        <time>2026-08-14T05:52:37.376Z</time>
      </trkpt>
      <trkpt lat="45.83873" lon="6.76025">
        <ele>1563</ele>
        <time>2026-08-14T05:52:38.376Z</time>
      </trkpt>
      <trkpt lat="45.83871" lon="6.76024">
        <ele>1563</ele>
        <time>2026-08-14T05:52:39.376Z</time>
      </trkpt>
      <trkpt lat="45.83869" lon="6.76023">
        <ele>1563</ele>
        <time>2026-08-14T05:52:40.376Z</time>
      </trkpt>
      <trkpt lat="45.83867" lon="6.76022">
        <ele>1563</ele>
        <time>2026-08-14T05:52:41.376Z</time>
      </trkpt>
      <trkpt lat="45.83865" lon="6.76021">
        <ele>1563</ele>
        <time>2026-08-14T05:52:42.376Z</time>
      </trkpt>
      <trkpt lat="45.83863" lon="6.7602">
        <ele>1563</ele>
        <time>2026-08-14T05:52:43.376Z</time>
      </trkpt>
      <trkpt lat="45.83862" lon="6.76019">
        <ele>1563</ele>
        <time>2026-08-14T05:52:44.376Z</time>
      </trkpt>
      <trkpt lat="45.8386" lon="6.76018">
        <ele>1564</ele>
        <time>2026-08-14T05:52:45.376Z</time>
      </trkpt>
      <trkpt lat="45.83858" lon="6.76017">
        <ele>1564</ele>
        <time>2026-08-14T05:52:46.376Z</time>
      </trkpt>
      <trkpt lat="45.83857" lon="6.76015">
        <ele>1564</ele>
        <time>2026-08-14T05:52:47.376Z</time>
      </trkpt>
      <trkpt lat="45.83856" lon="6.76014">
        <ele>1564</ele>
        <time>2026-08-14T05:52:48.376Z</time>
      </trkpt>
      <trkpt lat="45.83855" lon="6.76012">
        <ele>1564</ele>
        <time>2026-08-14T05:52:49.376Z</time>
      </trkpt>
      <trkpt lat="45.83855" lon="6.76011">
        <ele>1565</ele>
        <time>2026-08-14T05:52:50.376Z</time>
      </trkpt>
      <trkpt lat="45.83853" lon="6.76009">
        <ele>1565</ele>
        <time>2026-08-14T05:52:51.376Z</time>
      </trkpt>
      <trkpt lat="45.83852" lon="6.76007">
        <ele>1565</ele>
        <time>2026-08-14T05:52:52.376Z</time>
      </trkpt>
      <trkpt lat="45.83851" lon="6.76005">
        <ele>1565</ele>
        <time>2026-08-14T05:52:53.376Z</time>
      </trkpt>
      <trkpt lat="45.83849" lon="6.76003">
        <ele>1565</ele>
        <time>2026-08-14T05:52:54.376Z</time>
      </trkpt>
      <trkpt lat="45.83848" lon="6.76001">
        <ele>1565</ele>
        <time>2026-08-14T05:52:55.376Z</time>
      </trkpt>
      <trkpt lat="45.83846" lon="6.75999">
        <ele>1565</ele>
        <time>2026-08-14T05:52:56.376Z</time>
      </trkpt>
      <trkpt lat="45.83844" lon="6.75998">
        <ele>1566</ele>
        <time>2026-08-14T05:52:57.376Z</time>
      </trkpt>
      <trkpt lat="45.83842" lon="6.75996">
        <ele>1566</ele>
        <time>2026-08-14T05:52:58.376Z</time>
      </trkpt>
      <trkpt lat="45.8384" lon="6.75994">
        <ele>1566</ele>
        <time>2026-08-14T05:52:59.376Z</time>
      </trkpt>
      <trkpt lat="45.83838" lon="6.75992">
        <ele>1566</ele>
        <time>2026-08-14T05:53:00.376Z</time>
      </trkpt>
      <trkpt lat="45.83835" lon="6.75991">
        <ele>1566</ele>
        <time>2026-08-14T05:53:01.376Z</time>
      </trkpt>
      <trkpt lat="45.83833" lon="6.75989">
        <ele>1567</ele>
        <time>2026-08-14T05:53:02.376Z</time>
      </trkpt>
      <trkpt lat="45.83831" lon="6.75988">
        <ele>1567</ele>
        <time>2026-08-14T05:53:03.376Z</time>
      </trkpt>
      <trkpt lat="45.83828" lon="6.75987">
        <ele>1567</ele>
        <time>2026-08-14T05:53:04.376Z</time>
      </trkpt>
      <trkpt lat="45.83826" lon="6.75986">
        <ele>1567</ele>
        <time>2026-08-14T05:53:05.376Z</time>
      </trkpt>
      <trkpt lat="45.83823" lon="6.75985">
        <ele>1567</ele>
        <time>2026-08-14T05:53:06.376Z</time>
      </trkpt>
      <trkpt lat="45.83821" lon="6.75984">
        <ele>1567</ele>
        <time>2026-08-14T05:53:07.376Z</time>
      </trkpt>
      <trkpt lat="45.83819" lon="6.75983">
        <ele>1566</ele>
        <time>2026-08-14T05:53:08.376Z</time>
      </trkpt>
      <trkpt lat="45.83816" lon="6.75981">
        <ele>1567</ele>
        <time>2026-08-14T05:53:09.376Z</time>
      </trkpt>
      <trkpt lat="45.83814" lon="6.75979">
        <ele>1567</ele>
        <time>2026-08-14T05:53:10.376Z</time>
      </trkpt>
      <trkpt lat="45.83812" lon="6.75977">
        <ele>1567</ele>
        <time>2026-08-14T05:53:11.376Z</time>
      </trkpt>
      <trkpt lat="45.8381" lon="6.75974">
        <ele>1567</ele>
        <time>2026-08-14T05:53:12.376Z</time>
      </trkpt>
      <trkpt lat="45.83808" lon="6.75972">
        <ele>1567</ele>
        <time>2026-08-14T05:53:13.376Z</time>
      </trkpt>
      <trkpt lat="45.83807" lon="6.75968">
        <ele>1567</ele>
        <time>2026-08-14T05:53:14.376Z</time>
      </trkpt>
      <trkpt lat="45.83806" lon="6.75964">
        <ele>1567</ele>
        <time>2026-08-14T05:53:15.376Z</time>
      </trkpt>
      <trkpt lat="45.83806" lon="6.75961">
        <ele>1567</ele>
        <time>2026-08-14T05:53:16.376Z</time>
      </trkpt>
      <trkpt lat="45.83806" lon="6.75957">
        <ele>1567</ele>
        <time>2026-08-14T05:53:17.376Z</time>
      </trkpt>
      <trkpt lat="45.83806" lon="6.75954">
        <ele>1567</ele>
        <time>2026-08-14T05:53:18.376Z</time>
      </trkpt>
      <trkpt lat="45.83807" lon="6.75951">
        <ele>1566</ele>
        <time>2026-08-14T05:53:19.376Z</time>
      </trkpt>
      <trkpt lat="45.83807" lon="6.75948">
        <ele>1566</ele>
        <time>2026-08-14T05:53:20.376Z</time>
      </trkpt>
      <trkpt lat="45.83808" lon="6.75944">
        <ele>1566</ele>
        <time>2026-08-14T05:53:21.376Z</time>
      </trkpt>
      <trkpt lat="45.83808" lon="6.75941">
        <ele>1566</ele>
        <time>2026-08-14T05:53:22.376Z</time>
      </trkpt>
      <trkpt lat="45.83809" lon="6.75938">
        <ele>1566</ele>
        <time>2026-08-14T05:53:23.376Z</time>
      </trkpt>
      <trkpt lat="45.83809" lon="6.75935">
        <ele>1566</ele>
        <time>2026-08-14T05:53:24.376Z</time>
      </trkpt>
      <trkpt lat="45.8381" lon="6.75932">
        <ele>1565</ele>
        <time>2026-08-14T05:53:25.376Z</time>
      </trkpt>
      <trkpt lat="45.83811" lon="6.75929">
        <ele>1565</ele>
        <time>2026-08-14T05:53:26.376Z</time>
      </trkpt>
      <trkpt lat="45.83812" lon="6.75925">
        <ele>1565</ele>
        <time>2026-08-14T05:53:27.376Z</time>
      </trkpt>
      <trkpt lat="45.83812" lon="6.75922">
        <ele>1565</ele>
        <time>2026-08-14T05:53:28.376Z</time>
      </trkpt>
      <trkpt lat="45.83813" lon="6.75919">
        <ele>1565</ele>
        <time>2026-08-14T05:53:29.376Z</time>
      </trkpt>
      <trkpt lat="45.83813" lon="6.75916">
        <ele>1565</ele>
        <time>2026-08-14T05:53:30.376Z</time>
      </trkpt>
      <trkpt lat="45.83813" lon="6.75912">
        <ele>1565</ele>
        <time>2026-08-14T05:53:31.376Z</time>
      </trkpt>
      <trkpt lat="45.83813" lon="6.75909">
        <ele>1566</ele>
        <time>2026-08-14T05:53:32.376Z</time>
      </trkpt>
      <trkpt lat="45.83813" lon="6.75906">
        <ele>1566</ele>
        <time>2026-08-14T05:53:33.376Z</time>
      </trkpt>
      <trkpt lat="45.83813" lon="6.75902">
        <ele>1565</ele>
        <time>2026-08-14T05:53:34.376Z</time>
      </trkpt>
      <trkpt lat="45.83814" lon="6.75899">
        <ele>1565</ele>
        <time>2026-08-14T05:53:35.376Z</time>
      </trkpt>
      <trkpt lat="45.83814" lon="6.75895">
        <ele>1566</ele>
        <time>2026-08-14T05:53:36.376Z</time>
      </trkpt>
      <trkpt lat="45.83814" lon="6.75892">
        <ele>1566</ele>
        <time>2026-08-14T05:53:37.376Z</time>
      </trkpt>
      <trkpt lat="45.83815" lon="6.75889">
        <ele>1566</ele>
        <time>2026-08-14T05:53:38.376Z</time>
      </trkpt>
      <trkpt lat="45.83815" lon="6.75885">
        <ele>1566</ele>
        <time>2026-08-14T05:53:39.376Z</time>
      </trkpt>
      <trkpt lat="45.83816" lon="6.75882">
        <ele>1566</ele>
        <time>2026-08-14T05:53:40.376Z</time>
      </trkpt>
      <trkpt lat="45.83817" lon="6.75879">
        <ele>1566</ele>
        <time>2026-08-14T05:53:41.376Z</time>
      </trkpt>
      <trkpt lat="45.83818" lon="6.75876">
        <ele>1566</ele>
        <time>2026-08-14T05:53:42.376Z</time>
      </trkpt>
      <trkpt lat="45.8382" lon="6.75873">
        <ele>1566</ele>
        <time>2026-08-14T05:53:43.376Z</time>
      </trkpt>
      <trkpt lat="45.83821" lon="6.75869">
        <ele>1566</ele>
        <time>2026-08-14T05:53:44.376Z</time>
      </trkpt>
      <trkpt lat="45.83822" lon="6.75866">
        <ele>1566</ele>
        <time>2026-08-14T05:53:45.376Z</time>
      </trkpt>
      <trkpt lat="45.83823" lon="6.75863">
        <ele>1565</ele>
        <time>2026-08-14T05:53:46.376Z</time>
      </trkpt>
      <trkpt lat="45.83824" lon="6.7586">
        <ele>1565</ele>
        <time>2026-08-14T05:53:47.376Z</time>
      </trkpt>
      <trkpt lat="45.83825" lon="6.75857">
        <ele>1565</ele>
        <time>2026-08-14T05:53:48.376Z</time>
      </trkpt>
      <trkpt lat="45.83827" lon="6.75855">
        <ele>1565</ele>
        <time>2026-08-14T05:53:49.376Z</time>
      </trkpt>
      <trkpt lat="45.83828" lon="6.75852">
        <ele>1565</ele>
        <time>2026-08-14T05:53:50.376Z</time>
      </trkpt>
      <trkpt lat="45.8383" lon="6.7585">
        <ele>1565</ele>
        <time>2026-08-14T05:53:51.376Z</time>
      </trkpt>
      <trkpt lat="45.83832" lon="6.75848">
        <ele>1565</ele>
        <time>2026-08-14T05:53:52.376Z</time>
      </trkpt>
      <trkpt lat="45.83835" lon="6.75846">
        <ele>1565</ele>
        <time>2026-08-14T05:53:53.376Z</time>
      </trkpt>
      <trkpt lat="45.83837" lon="6.75844">
        <ele>1565</ele>
        <time>2026-08-14T05:53:54.376Z</time>
      </trkpt>
      <trkpt lat="45.83839" lon="6.75843">
        <ele>1565</ele>
        <time>2026-08-14T05:53:55.376Z</time>
      </trkpt>
      <trkpt lat="45.83842" lon="6.75842">
        <ele>1564</ele>
        <time>2026-08-14T05:53:56.376Z</time>
      </trkpt>
      <trkpt lat="45.83844" lon="6.75841">
        <ele>1564</ele>
        <time>2026-08-14T05:53:57.376Z</time>
      </trkpt>
      <trkpt lat="45.83847" lon="6.7584">
        <ele>1564</ele>
        <time>2026-08-14T05:53:58.376Z</time>
      </trkpt>
      <trkpt lat="45.83849" lon="6.75838">
        <ele>1563</ele>
        <time>2026-08-14T05:53:59.376Z</time>
      </trkpt>
      <trkpt lat="45.83852" lon="6.75837">
        <ele>1563</ele>
        <time>2026-08-14T05:54:00.376Z</time>
      </trkpt>
      <trkpt lat="45.83854" lon="6.75836">
        <ele>1562</ele>
        <time>2026-08-14T05:54:01.376Z</time>
      </trkpt>
      <trkpt lat="45.83856" lon="6.75835">
        <ele>1562</ele>
        <time>2026-08-14T05:54:02.376Z</time>
      </trkpt>
      <trkpt lat="45.83859" lon="6.75833">
        <ele>1562</ele>
        <time>2026-08-14T05:54:03.376Z</time>
      </trkpt>
      <trkpt lat="45.83861" lon="6.75832">
        <ele>1562</ele>
        <time>2026-08-14T05:54:04.376Z</time>
      </trkpt>
      <trkpt lat="45.83863" lon="6.7583">
        <ele>1562</ele>
        <time>2026-08-14T05:54:05.376Z</time>
      </trkpt>
      <trkpt lat="45.83865" lon="6.75829">
        <ele>1563</ele>
        <time>2026-08-14T05:54:06.376Z</time>
      </trkpt>
      <trkpt lat="45.83867" lon="6.75828">
        <ele>1563</ele>
        <time>2026-08-14T05:54:07.376Z</time>
      </trkpt>
      <trkpt lat="45.83869" lon="6.75826">
        <ele>1562</ele>
        <time>2026-08-14T05:54:08.376Z</time>
      </trkpt>
      <trkpt lat="45.83871" lon="6.75825">
        <ele>1562</ele>
        <time>2026-08-14T05:54:09.376Z</time>
      </trkpt>
      <trkpt lat="45.83873" lon="6.75824">
        <ele>1562</ele>
        <time>2026-08-14T05:54:10.376Z</time>
      </trkpt>
      <trkpt lat="45.83876" lon="6.75823">
        <ele>1562</ele>
        <time>2026-08-14T05:54:11.376Z</time>
      </trkpt>
      <trkpt lat="45.83878" lon="6.75822">
        <ele>1562</ele>
        <time>2026-08-14T05:54:12.376Z</time>
      </trkpt>
      <trkpt lat="45.8388" lon="6.75821">
        <ele>1561</ele>
        <time>2026-08-14T05:54:13.376Z</time>
      </trkpt>
      <trkpt lat="45.83882" lon="6.75819">
        <ele>1561</ele>
        <time>2026-08-14T05:54:14.376Z</time>
      </trkpt>
      <trkpt lat="45.83884" lon="6.75818">
        <ele>1561</ele>
        <time>2026-08-14T05:54:15.376Z</time>
      </trkpt>
      <trkpt lat="45.83885" lon="6.75816">
        <ele>1561</ele>
        <time>2026-08-14T05:54:16.376Z</time>
      </trkpt>
      <trkpt lat="45.83887" lon="6.75815">
        <ele>1561</ele>
        <time>2026-08-14T05:54:17.376Z</time>
      </trkpt>
      <trkpt lat="45.83888" lon="6.75813">
        <ele>1561</ele>
        <time>2026-08-14T05:54:18.376Z</time>
      </trkpt>
      <trkpt lat="45.83889" lon="6.75811">
        <ele>1561</ele>
        <time>2026-08-14T05:54:19.376Z</time>
      </trkpt>
      <trkpt lat="45.8389" lon="6.75808">
        <ele>1561</ele>
        <time>2026-08-14T05:54:20.376Z</time>
      </trkpt>
      <trkpt lat="45.83891" lon="6.75806">
        <ele>1561</ele>
        <time>2026-08-14T05:54:21.376Z</time>
      </trkpt>
      <trkpt lat="45.83891" lon="6.75803">
        <ele>1561</ele>
        <time>2026-08-14T05:54:22.376Z</time>
      </trkpt>
      <trkpt lat="45.83892" lon="6.758">
        <ele>1561</ele>
        <time>2026-08-14T05:54:23.376Z</time>
      </trkpt>
      <trkpt lat="45.83893" lon="6.75798">
        <ele>1561</ele>
        <time>2026-08-14T05:54:24.376Z</time>
      </trkpt>
      <trkpt lat="45.83893" lon="6.75796">
        <ele>1561</ele>
        <time>2026-08-14T05:54:25.376Z</time>
      </trkpt>
      <trkpt lat="45.83894" lon="6.75794">
        <ele>1560</ele>
        <time>2026-08-14T05:54:26.376Z</time>
      </trkpt>
      <trkpt lat="45.83894" lon="6.75793">
        <ele>1560</ele>
        <time>2026-08-14T05:54:27.376Z</time>
      </trkpt>
      <trkpt lat="45.83894" lon="6.75792">
        <ele>1561</ele>
        <time>2026-08-14T05:54:28.376Z</time>
      </trkpt>
      <trkpt lat="45.83894" lon="6.75792">
        <ele>1561</ele>
        <time>2026-08-14T05:54:29.376Z</time>
      </trkpt>
      <trkpt lat="45.83894" lon="6.75792">
        <ele>1561</ele>
        <time>2026-08-14T05:54:30.376Z</time>
      </trkpt>
      <trkpt lat="45.83894" lon="6.75792">
        <ele>1562</ele>
        <time>2026-08-14T05:54:31.376Z</time>
      </trkpt>
      <trkpt lat="45.83894" lon="6.75792">
        <ele>1562</ele>
        <time>2026-08-14T05:54:32.376Z</time>
      </trkpt>
      <trkpt lat="45.83894" lon="6.75792">
        <ele>1562</ele>
        <time>2026-08-14T05:54:33.376Z</time>
      </trkpt>
      <trkpt lat="45.83894" lon="6.75791">
        <ele>1562</ele>
        <time>2026-08-14T05:54:34.376Z</time>
      </trkpt>
      <trkpt lat="45.83894" lon="6.7579">
        <ele>1562</ele>
        <time>2026-08-14T05:54:35.376Z</time>
      </trkpt>
      <trkpt lat="45.83893" lon="6.75789">
        <ele>1562</ele>
        <time>2026-08-14T05:54:36.376Z</time>
      </trkpt>
      <trkpt lat="45.83893" lon="6.75788">
        <ele>1561</ele>
        <time>2026-08-14T05:54:37.376Z</time>
      </trkpt>
      <trkpt lat="45.83893" lon="6.75788">
        <ele>1561</ele>
        <time>2026-08-14T05:54:38.376Z</time>
      </trkpt>
      <trkpt lat="45.83892" lon="6.75787">
        <ele>1561</ele>
        <time>2026-08-14T05:54:39.376Z</time>
      </trkpt>
      <trkpt lat="45.83892" lon="6.75786">
        <ele>1561</ele>
        <time>2026-08-14T05:54:40.376Z</time>
      </trkpt>
      <trkpt lat="45.83892" lon="6.75785">
        <ele>1561</ele>
        <time>2026-08-14T05:54:41.376Z</time>
      </trkpt>
      <trkpt lat="45.83893" lon="6.75783">
        <ele>1561</ele>
        <time>2026-08-14T05:54:42.376Z</time>
      </trkpt>
      <trkpt lat="45.83893" lon="6.75782">
        <ele>1561</ele>
        <time>2026-08-14T05:54:43.376Z</time>
      </trkpt>
      <trkpt lat="45.83894" lon="6.7578">
        <ele>1561</ele>
        <time>2026-08-14T05:54:44.376Z</time>
      </trkpt>
      <trkpt lat="45.83895" lon="6.75779">
        <ele>1561</ele>
        <time>2026-08-14T05:54:45.376Z</time>
      </trkpt>
      <trkpt lat="45.83896" lon="6.75777">
        <ele>1561</ele>
        <time>2026-08-14T05:54:46.376Z</time>
      </trkpt>
      <trkpt lat="45.83896" lon="6.75776">
        <ele>1561</ele>
        <time>2026-08-14T05:54:47.376Z</time>
      </trkpt>
      <trkpt lat="45.83897" lon="6.75774">
        <ele>1561</ele>
        <time>2026-08-14T05:54:48.376Z</time>
      </trkpt>
      <trkpt lat="45.83897" lon="6.75773">
        <ele>1561</ele>
        <time>2026-08-14T05:54:49.376Z</time>
      </trkpt>
      <trkpt lat="45.83897" lon="6.75771">
        <ele>1562</ele>
        <time>2026-08-14T05:54:50.376Z</time>
      </trkpt>
      <trkpt lat="45.83897" lon="6.75769">
        <ele>1562</ele>
        <time>2026-08-14T05:54:51.376Z</time>
      </trkpt>
      <trkpt lat="45.83897" lon="6.75768">
        <ele>1562</ele>
        <time>2026-08-14T05:54:52.376Z</time>
      </trkpt>
      <trkpt lat="45.83898" lon="6.75767">
        <ele>1562</ele>
        <time>2026-08-14T05:54:53.376Z</time>
      </trkpt>
      <trkpt lat="45.83898" lon="6.75765">
        <ele>1562</ele>
        <time>2026-08-14T05:54:54.376Z</time>
      </trkpt>
      <trkpt lat="45.83899" lon="6.75764">
        <ele>1563</ele>
        <time>2026-08-14T05:54:55.376Z</time>
      </trkpt>
      <trkpt lat="45.83899" lon="6.75763">
        <ele>1563</ele>
        <time>2026-08-14T05:54:56.376Z</time>
      </trkpt>
      <trkpt lat="45.839" lon="6.75762">
        <ele>1563</ele>
        <time>2026-08-14T05:54:57.376Z</time>
      </trkpt>
      <trkpt lat="45.83901" lon="6.7576">
        <ele>1564</ele>
        <time>2026-08-14T05:54:58.376Z</time>
      </trkpt>
      <trkpt lat="45.83901" lon="6.75758">
        <ele>1564</ele>
        <time>2026-08-14T05:54:59.376Z</time>
      </trkpt>
      <trkpt lat="45.83902" lon="6.75756">
        <ele>1565</ele>
        <time>2026-08-14T05:55:00.376Z</time>
      </trkpt>
      <trkpt lat="45.83903" lon="6.75754">
        <ele>1565</ele>
        <time>2026-08-14T05:55:01.376Z</time>
      </trkpt>
      <trkpt lat="45.83904" lon="6.75753">
        <ele>1566</ele>
        <time>2026-08-14T05:55:02.376Z</time>
      </trkpt>
      <trkpt lat="45.83905" lon="6.75751">
        <ele>1566</ele>
        <time>2026-08-14T05:55:03.376Z</time>
      </trkpt>
      <trkpt lat="45.83905" lon="6.7575">
        <ele>1566</ele>
        <time>2026-08-14T05:55:04.376Z</time>
      </trkpt>
      <trkpt lat="45.83906" lon="6.75749">
        <ele>1566</ele>
        <time>2026-08-14T05:55:05.376Z</time>
      </trkpt>
      <trkpt lat="45.83908" lon="6.75747">
        <ele>1565</ele>
        <time>2026-08-14T05:55:06.376Z</time>
      </trkpt>
      <trkpt lat="45.83909" lon="6.75746">
        <ele>1565</ele>
        <time>2026-08-14T05:55:07.376Z</time>
      </trkpt>
      <trkpt lat="45.8391" lon="6.75745">
        <ele>1565</ele>
        <time>2026-08-14T05:55:08.376Z</time>
      </trkpt>
      <trkpt lat="45.83911" lon="6.75745">
        <ele>1565</ele>
        <time>2026-08-14T05:55:09.376Z</time>
      </trkpt>
      <trkpt lat="45.83913" lon="6.75744">
        <ele>1564</ele>
        <time>2026-08-14T05:55:10.376Z</time>
      </trkpt>
      <trkpt lat="45.83913" lon="6.75743">
        <ele>1564</ele>
        <time>2026-08-14T05:55:11.376Z</time>
      </trkpt>
      <trkpt lat="45.83914" lon="6.75742">
        <ele>1565</ele>
        <time>2026-08-14T05:55:12.376Z</time>
      </trkpt>
      <trkpt lat="45.83915" lon="6.75741">
        <ele>1565</ele>
        <time>2026-08-14T05:55:13.376Z</time>
      </trkpt>
      <trkpt lat="45.83916" lon="6.75739">
        <ele>1566</ele>
        <time>2026-08-14T05:55:14.376Z</time>
      </trkpt>
      <trkpt lat="45.83917" lon="6.75738">
        <ele>1566</ele>
        <time>2026-08-14T05:55:15.376Z</time>
      </trkpt>
      <trkpt lat="45.83918" lon="6.75737">
        <ele>1567</ele>
        <time>2026-08-14T05:55:16.376Z</time>
      </trkpt>
      <trkpt lat="45.83919" lon="6.75736">
        <ele>1567</ele>
        <time>2026-08-14T05:55:17.376Z</time>
      </trkpt>
      <trkpt lat="45.83919" lon="6.75735">
        <ele>1567</ele>
        <time>2026-08-14T05:55:18.376Z</time>
      </trkpt>
      <trkpt lat="45.8392" lon="6.75734">
        <ele>1568</ele>
        <time>2026-08-14T05:55:19.376Z</time>
      </trkpt>
      <trkpt lat="45.8392" lon="6.75733">
        <ele>1568</ele>
        <time>2026-08-14T05:55:20.376Z</time>
      </trkpt>
      <trkpt lat="45.8392" lon="6.75733">
        <ele>1568</ele>
        <time>2026-08-14T05:55:21.376Z</time>
      </trkpt>
      <trkpt lat="45.8392" lon="6.75732">
        <ele>1569</ele>
        <time>2026-08-14T05:55:22.376Z</time>
      </trkpt>
      <trkpt lat="45.83919" lon="6.75731">
        <ele>1569</ele>
        <time>2026-08-14T05:55:23.376Z</time>
      </trkpt>
      <trkpt lat="45.83919" lon="6.75731">
        <ele>1569</ele>
        <time>2026-08-14T05:55:24.376Z</time>
      </trkpt>
      <trkpt lat="45.83918" lon="6.75732">
        <ele>1569</ele>
        <time>2026-08-14T05:55:25.376Z</time>
      </trkpt>
      <trkpt lat="45.83917" lon="6.75731">
        <ele>1570</ele>
        <time>2026-08-14T05:55:26.376Z</time>
      </trkpt>
      <trkpt lat="45.83916" lon="6.75731">
        <ele>1570</ele>
        <time>2026-08-14T05:55:27.376Z</time>
      </trkpt>
      <trkpt lat="45.83915" lon="6.7573">
        <ele>1571</ele>
        <time>2026-08-14T05:55:28.376Z</time>
      </trkpt>
      <trkpt lat="45.83914" lon="6.7573">
        <ele>1571</ele>
        <time>2026-08-14T05:55:29.376Z</time>
      </trkpt>
      <trkpt lat="45.83913" lon="6.7573">
        <ele>1571</ele>
        <time>2026-08-14T05:55:30.376Z</time>
      </trkpt>
      <trkpt lat="45.83912" lon="6.7573">
        <ele>1571</ele>
        <time>2026-08-14T05:55:31.376Z</time>
      </trkpt>
      <trkpt lat="45.83911" lon="6.7573">
        <ele>1571</ele>
        <time>2026-08-14T05:55:32.376Z</time>
      </trkpt>
      <trkpt lat="45.8391" lon="6.75729">
        <ele>1571</ele>
        <time>2026-08-14T05:55:33.376Z</time>
      </trkpt>
      <trkpt lat="45.83909" lon="6.75729">
        <ele>1571</ele>
        <time>2026-08-14T05:55:34.376Z</time>
      </trkpt>
      <trkpt lat="45.83909" lon="6.75729">
        <ele>1572</ele>
        <time>2026-08-14T05:55:35.376Z</time>
      </trkpt>
      <trkpt lat="45.83908" lon="6.75729">
        <ele>1572</ele>
        <time>2026-08-14T05:55:36.376Z</time>
      </trkpt>
      <trkpt lat="45.83907" lon="6.75728">
        <ele>1572</ele>
        <time>2026-08-14T05:55:37.376Z</time>
      </trkpt>
      <trkpt lat="45.83906" lon="6.75728">
        <ele>1572</ele>
        <time>2026-08-14T05:55:38.376Z</time>
      </trkpt>
      <trkpt lat="45.83905" lon="6.75728">
        <ele>1572</ele>
        <time>2026-08-14T05:55:39.376Z</time>
      </trkpt>
      <trkpt lat="45.83904" lon="6.75728">
        <ele>1574</ele>
        <time>2026-08-14T05:55:40.376Z</time>
      </trkpt>
      <trkpt lat="45.83903" lon="6.75727">
        <ele>1574</ele>
        <time>2026-08-14T05:55:41.376Z</time>
      </trkpt>
      <trkpt lat="45.83902" lon="6.75727">
        <ele>1575</ele>
        <time>2026-08-14T05:55:42.376Z</time>
      </trkpt>
      <trkpt lat="45.83902" lon="6.75726">
        <ele>1575</ele>
        <time>2026-08-14T05:55:43.376Z</time>
      </trkpt>
      <trkpt lat="45.83901" lon="6.75725">
        <ele>1576</ele>
        <time>2026-08-14T05:55:44.376Z</time>
      </trkpt>
      <trkpt lat="45.839" lon="6.75724">
        <ele>1576</ele>
        <time>2026-08-14T05:55:45.376Z</time>
      </trkpt>
      <trkpt lat="45.83899" lon="6.75724">
        <ele>1576</ele>
        <time>2026-08-14T05:55:46.376Z</time>
      </trkpt>
      <trkpt lat="45.83898" lon="6.75724">
        <ele>1576</ele>
        <time>2026-08-14T05:55:47.376Z</time>
      </trkpt>
      <trkpt lat="45.83897" lon="6.75723">
        <ele>1575</ele>
        <time>2026-08-14T05:55:48.376Z</time>
      </trkpt>
      <trkpt lat="45.83896" lon="6.75723">
        <ele>1575</ele>
        <time>2026-08-14T05:55:49.376Z</time>
      </trkpt>
      <trkpt lat="45.83895" lon="6.75723">
        <ele>1575</ele>
        <time>2026-08-14T05:55:50.376Z</time>
      </trkpt>
      <trkpt lat="45.83894" lon="6.75722">
        <ele>1576</ele>
        <time>2026-08-14T05:55:51.376Z</time>
      </trkpt>
      <trkpt lat="45.83894" lon="6.75722">
        <ele>1576</ele>
        <time>2026-08-14T05:55:52.376Z</time>
      </trkpt>
      <trkpt lat="45.83893" lon="6.75721">
        <ele>1577</ele>
        <time>2026-08-14T05:55:53.376Z</time>
      </trkpt>
      <trkpt lat="45.83892" lon="6.75721">
        <ele>1577</ele>
        <time>2026-08-14T05:55:54.376Z</time>
      </trkpt>
      <trkpt lat="45.83891" lon="6.75721">
        <ele>1578</ele>
        <time>2026-08-14T05:55:55.376Z</time>
      </trkpt>
      <trkpt lat="45.8389" lon="6.7572">
        <ele>1577</ele>
        <time>2026-08-14T05:55:56.376Z</time>
      </trkpt>
      <trkpt lat="45.83889" lon="6.7572">
        <ele>1577</ele>
        <time>2026-08-14T05:55:57.376Z</time>
      </trkpt>
      <trkpt lat="45.83889" lon="6.75719">
        <ele>1577</ele>
        <time>2026-08-14T05:55:58.376Z</time>
      </trkpt>
      <trkpt lat="45.83889" lon="6.75718">
        <ele>1577</ele>
        <time>2026-08-14T05:55:59.376Z</time>
      </trkpt>
      <trkpt lat="45.83889" lon="6.75718">
        <ele>1577</ele>
        <time>2026-08-14T05:56:00.376Z</time>
      </trkpt>
      <trkpt lat="45.8389" lon="6.75716">
        <ele>1578</ele>
        <time>2026-08-14T05:56:01.376Z</time>
      </trkpt>
      <trkpt lat="45.83891" lon="6.75715">
        <ele>1578</ele>
        <time>2026-08-14T05:56:02.376Z</time>
      </trkpt>
      <trkpt lat="45.83892" lon="6.75714">
        <ele>1578</ele>
        <time>2026-08-14T05:56:03.376Z</time>
      </trkpt>
      <trkpt lat="45.83892" lon="6.75713">
        <ele>1578</ele>
        <time>2026-08-14T05:56:04.376Z</time>
      </trkpt>
      <trkpt lat="45.83893" lon="6.75712">
        <ele>1578</ele>
        <time>2026-08-14T05:56:05.376Z</time>
      </trkpt>
      <trkpt lat="45.83894" lon="6.75711">
        <ele>1578</ele>
        <time>2026-08-14T05:56:06.376Z</time>
      </trkpt>
      <trkpt lat="45.83894" lon="6.7571">
        <ele>1578</ele>
        <time>2026-08-14T05:56:07.376Z</time>
      </trkpt>
      <trkpt lat="45.83895" lon="6.75709">
        <ele>1579</ele>
        <time>2026-08-14T05:56:08.376Z</time>
      </trkpt>
      <trkpt lat="45.83896" lon="6.75708">
        <ele>1579</ele>
        <time>2026-08-14T05:56:09.376Z</time>
      </trkpt>
      <trkpt lat="45.83897" lon="6.75707">
        <ele>1580</ele>
        <time>2026-08-14T05:56:10.376Z</time>
      </trkpt>
      <trkpt lat="45.83898" lon="6.75707">
        <ele>1580</ele>
        <time>2026-08-14T05:56:11.376Z</time>
      </trkpt>
      <trkpt lat="45.83899" lon="6.75706">
        <ele>1581</ele>
        <time>2026-08-14T05:56:12.376Z</time>
      </trkpt>
      <trkpt lat="45.839" lon="6.75705">
        <ele>1581</ele>
        <time>2026-08-14T05:56:13.376Z</time>
      </trkpt>
      <trkpt lat="45.839" lon="6.75704">
        <ele>1581</ele>
        <time>2026-08-14T05:56:14.376Z</time>
      </trkpt>
      <trkpt lat="45.83901" lon="6.75703">
        <ele>1582</ele>
        <time>2026-08-14T05:56:15.376Z</time>
      </trkpt>
      <trkpt lat="45.83902" lon="6.75702">
        <ele>1582</ele>
        <time>2026-08-14T05:56:16.376Z</time>
      </trkpt>
      <trkpt lat="45.83903" lon="6.75702">
        <ele>1583</ele>
        <time>2026-08-14T05:56:17.376Z</time>
      </trkpt>
      <trkpt lat="45.83903" lon="6.75701">
        <ele>1583</ele>
        <time>2026-08-14T05:56:18.376Z</time>
      </trkpt>
      <trkpt lat="45.83904" lon="6.757">
        <ele>1584</ele>
        <time>2026-08-14T05:56:19.376Z</time>
      </trkpt>
      <trkpt lat="45.83905" lon="6.75699">
        <ele>1584</ele>
        <time>2026-08-14T05:56:20.376Z</time>
      </trkpt>
      <trkpt lat="45.83906" lon="6.75698">
        <ele>1585</ele>
        <time>2026-08-14T05:56:21.376Z</time>
      </trkpt>
      <trkpt lat="45.83907" lon="6.75697">
        <ele>1586</ele>
        <time>2026-08-14T05:56:22.376Z</time>
      </trkpt>
      <trkpt lat="45.83908" lon="6.75696">
        <ele>1586</ele>
        <time>2026-08-14T05:56:23.376Z</time>
      </trkpt>
      <trkpt lat="45.83909" lon="6.75695">
        <ele>1586</ele>
        <time>2026-08-14T05:56:24.376Z</time>
      </trkpt>
      <trkpt lat="45.8391" lon="6.75694">
        <ele>1586</ele>
        <time>2026-08-14T05:56:25.376Z</time>
      </trkpt>
      <trkpt lat="45.8391" lon="6.75693">
        <ele>1586</ele>
        <time>2026-08-14T05:56:26.376Z</time>
      </trkpt>
      <trkpt lat="45.83912" lon="6.75693">
        <ele>1586</ele>
        <time>2026-08-14T05:56:27.376Z</time>
      </trkpt>
      <trkpt lat="45.83912" lon="6.75692">
        <ele>1586</ele>
        <time>2026-08-14T05:56:28.376Z</time>
      </trkpt>
      <trkpt lat="45.83913" lon="6.75691">
        <ele>1587</ele>
        <time>2026-08-14T05:56:29.376Z</time>
      </trkpt>
      <trkpt lat="45.83914" lon="6.7569">
        <ele>1587</ele>
        <time>2026-08-14T05:56:30.376Z</time>
      </trkpt>
      <trkpt lat="45.83915" lon="6.75689">
        <ele>1588</ele>
        <time>2026-08-14T05:56:31.376Z</time>
      </trkpt>
      <trkpt lat="45.83915" lon="6.75688">
        <ele>1588</ele>
        <time>2026-08-14T05:56:32.376Z</time>
      </trkpt>
      <trkpt lat="45.83916" lon="6.75687">
        <ele>1589</ele>
        <time>2026-08-14T05:56:33.376Z</time>
      </trkpt>
      <trkpt lat="45.83916" lon="6.75686">
        <ele>1590</ele>
        <time>2026-08-14T05:56:34.376Z</time>
      </trkpt>
      <trkpt lat="45.83917" lon="6.75686">
        <ele>1590</ele>
        <time>2026-08-14T05:56:35.376Z</time>
      </trkpt>
      <trkpt lat="45.83918" lon="6.75685">
        <ele>1590</ele>
        <time>2026-08-14T05:56:36.376Z</time>
      </trkpt>
      <trkpt lat="45.83918" lon="6.75685">
        <ele>1590</ele>
        <time>2026-08-14T05:56:37.376Z</time>
      </trkpt>
      <trkpt lat="45.83919" lon="6.75684">
        <ele>1590</ele>
        <time>2026-08-14T05:56:38.376Z</time>
      </trkpt>
      <trkpt lat="45.83919" lon="6.75683">
        <ele>1590</ele>
        <time>2026-08-14T05:56:39.376Z</time>
      </trkpt>
      <trkpt lat="45.83918" lon="6.75683">
        <ele>1591</ele>
        <time>2026-08-14T05:56:40.376Z</time>
      </trkpt>
      <trkpt lat="45.83918" lon="6.75682">
        <ele>1591</ele>
        <time>2026-08-14T05:56:41.376Z</time>
      </trkpt>
      <trkpt lat="45.83917" lon="6.75681">
        <ele>1590</ele>
        <time>2026-08-14T05:56:42.376Z</time>
      </trkpt>
      <trkpt lat="45.83917" lon="6.75681">
        <ele>1590</ele>
        <time>2026-08-14T05:56:43.376Z</time>
      </trkpt>
      <trkpt lat="45.83917" lon="6.75682">
        <ele>1590</ele>
        <time>2026-08-14T05:56:44.376Z</time>
      </trkpt>
      <trkpt lat="45.83916" lon="6.75682">
        <ele>1590</ele>
        <time>2026-08-14T05:56:45.377Z</time>
      </trkpt>
      <trkpt lat="45.83915" lon="6.75682">
        <ele>1590</ele>
        <time>2026-08-14T05:56:46.376Z</time>
      </trkpt>
      <trkpt lat="45.83914" lon="6.75681">
        <ele>1590</ele>
        <time>2026-08-14T05:56:47.376Z</time>
      </trkpt>
      <trkpt lat="45.83913" lon="6.75681">
        <ele>1590</ele>
        <time>2026-08-14T05:56:48.376Z</time>
      </trkpt>
      <trkpt lat="45.83912" lon="6.7568">
        <ele>1590</ele>
        <time>2026-08-14T05:56:49.376Z</time>
      </trkpt>
      <trkpt lat="45.83912" lon="6.7568">
        <ele>1590</ele>
        <time>2026-08-14T05:56:50.376Z</time>
      </trkpt>
      <trkpt lat="45.83911" lon="6.75679">
        <ele>1590</ele>
        <time>2026-08-14T05:56:51.376Z</time>
      </trkpt>
      <trkpt lat="45.8391" lon="6.75679">
        <ele>1590</ele>
        <time>2026-08-14T05:56:52.376Z</time>
      </trkpt>
      <trkpt lat="45.8391" lon="6.75679">
        <ele>1590</ele>
        <time>2026-08-14T05:56:53.376Z</time>
      </trkpt>
      <trkpt lat="45.83909" lon="6.75678">
        <ele>1590</ele>
        <time>2026-08-14T05:56:54.376Z</time>
      </trkpt>
      <trkpt lat="45.83909" lon="6.75678">
        <ele>1590</ele>
        <time>2026-08-14T05:56:55.376Z</time>
      </trkpt>
      <trkpt lat="45.83909" lon="6.75677">
        <ele>1590</ele>
        <time>2026-08-14T05:56:56.376Z</time>
      </trkpt>
      <trkpt lat="45.83908" lon="6.75677">
        <ele>1591</ele>
        <time>2026-08-14T05:56:57.376Z</time>
      </trkpt>
      <trkpt lat="45.83908" lon="6.75677">
        <ele>1591</ele>
        <time>2026-08-14T05:56:58.376Z</time>
      </trkpt>
      <trkpt lat="45.83907" lon="6.75676">
        <ele>1591</ele>
        <time>2026-08-14T05:56:59.376Z</time>
      </trkpt>
      <trkpt lat="45.83906" lon="6.75676">
        <ele>1591</ele>
        <time>2026-08-14T05:57:00.376Z</time>
      </trkpt>
      <trkpt lat="45.83905" lon="6.75676">
        <ele>1592</ele>
        <time>2026-08-14T05:57:01.376Z</time>
      </trkpt>
      <trkpt lat="45.83904" lon="6.75676">
        <ele>1593</ele>
        <time>2026-08-14T05:57:02.376Z</time>
      </trkpt>
      <trkpt lat="45.83904" lon="6.75676">
        <ele>1593</ele>
        <time>2026-08-14T05:57:03.376Z</time>
      </trkpt>
      <trkpt lat="45.83903" lon="6.75675">
        <ele>1594</ele>
        <time>2026-08-14T05:57:04.376Z</time>
      </trkpt>
      <trkpt lat="45.83903" lon="6.75675">
        <ele>1594</ele>
        <time>2026-08-14T05:57:05.376Z</time>
      </trkpt>
      <trkpt lat="45.83903" lon="6.75674">
        <ele>1594</ele>
        <time>2026-08-14T05:57:06.376Z</time>
      </trkpt>
      <trkpt lat="45.83901" lon="6.75673">
        <ele>1594</ele>
        <time>2026-08-14T05:57:07.376Z</time>
      </trkpt>
      <trkpt lat="45.839" lon="6.75673">
        <ele>1595</ele>
        <time>2026-08-14T05:57:08.376Z</time>
      </trkpt>
      <trkpt lat="45.83899" lon="6.75672">
        <ele>1595</ele>
        <time>2026-08-14T05:57:09.376Z</time>
      </trkpt>
      <trkpt lat="45.83899" lon="6.75671">
        <ele>1594</ele>
        <time>2026-08-14T05:57:10.376Z</time>
      </trkpt>
      <trkpt lat="45.83898" lon="6.7567">
        <ele>1594</ele>
        <time>2026-08-14T05:57:11.376Z</time>
      </trkpt>
      <trkpt lat="45.83898" lon="6.75669">
        <ele>1594</ele>
        <time>2026-08-14T05:57:12.376Z</time>
      </trkpt>
      <trkpt lat="45.83898" lon="6.75668">
        <ele>1594</ele>
        <time>2026-08-14T05:57:13.376Z</time>
      </trkpt>
      <trkpt lat="45.83898" lon="6.75667">
        <ele>1595</ele>
        <time>2026-08-14T05:57:14.376Z</time>
      </trkpt>
      <trkpt lat="45.83899" lon="6.75667">
        <ele>1595</ele>
        <time>2026-08-14T05:57:15.376Z</time>
      </trkpt>
      <trkpt lat="45.839" lon="6.75666">
        <ele>1596</ele>
        <time>2026-08-14T05:57:16.376Z</time>
      </trkpt>
      <trkpt lat="45.839" lon="6.75666">
        <ele>1596</ele>
        <time>2026-08-14T05:57:17.376Z</time>
      </trkpt>
      <trkpt lat="45.83901" lon="6.75665">
        <ele>1596</ele>
        <time>2026-08-14T05:57:18.376Z</time>
      </trkpt>
      <trkpt lat="45.83901" lon="6.75665">
        <ele>1597</ele>
        <time>2026-08-14T05:57:19.376Z</time>
      </trkpt>
      <trkpt lat="45.83902" lon="6.75664">
        <ele>1597</ele>
        <time>2026-08-14T05:57:20.376Z</time>
      </trkpt>
      <trkpt lat="45.83903" lon="6.75663">
        <ele>1598</ele>
        <time>2026-08-14T05:57:21.376Z</time>
      </trkpt>
      <trkpt lat="45.83903" lon="6.75662">
        <ele>1598</ele>
        <time>2026-08-14T05:57:22.376Z</time>
      </trkpt>
      <trkpt lat="45.83904" lon="6.75661">
        <ele>1599</ele>
        <time>2026-08-14T05:57:23.376Z</time>
      </trkpt>
      <trkpt lat="45.83905" lon="6.75662">
        <ele>1599</ele>
        <time>2026-08-14T05:57:24.376Z</time>
      </trkpt>
      <trkpt lat="45.83906" lon="6.75662">
        <ele>1600</ele>
        <time>2026-08-14T05:57:25.376Z</time>
      </trkpt>
      <trkpt lat="45.83907" lon="6.75662">
        <ele>1600</ele>
        <time>2026-08-14T05:57:26.376Z</time>
      </trkpt>
      <trkpt lat="45.83907" lon="6.75662">
        <ele>1601</ele>
        <time>2026-08-14T05:57:27.376Z</time>
      </trkpt>
      <trkpt lat="45.83908" lon="6.75662">
        <ele>1601</ele>
        <time>2026-08-14T05:57:28.376Z</time>
      </trkpt>
      <trkpt lat="45.83908" lon="6.75662">
        <ele>1602</ele>
        <time>2026-08-14T05:57:29.376Z</time>
      </trkpt>
      <trkpt lat="45.83909" lon="6.75661">
        <ele>1602</ele>
        <time>2026-08-14T05:57:30.376Z</time>
      </trkpt>
      <trkpt lat="45.83909" lon="6.7566">
        <ele>1603</ele>
        <time>2026-08-14T05:57:31.376Z</time>
      </trkpt>
      <trkpt lat="45.83909" lon="6.75659">
        <ele>1603</ele>
        <time>2026-08-14T05:57:32.376Z</time>
      </trkpt>
      <trkpt lat="45.8391" lon="6.75658">
        <ele>1604</ele>
        <time>2026-08-14T05:57:33.376Z</time>
      </trkpt>
      <trkpt lat="45.83911" lon="6.75657">
        <ele>1604</ele>
        <time>2026-08-14T05:57:34.376Z</time>
      </trkpt>
      <trkpt lat="45.83911" lon="6.75656">
        <ele>1604</ele>
        <time>2026-08-14T05:57:35.376Z</time>
      </trkpt>
      <trkpt lat="45.83912" lon="6.75656">
        <ele>1604</ele>
        <time>2026-08-14T05:57:36.376Z</time>
      </trkpt>
      <trkpt lat="45.83913" lon="6.75655">
        <ele>1604</ele>
        <time>2026-08-14T05:57:37.376Z</time>
      </trkpt>
      <trkpt lat="45.83914" lon="6.75653">
        <ele>1604</ele>
        <time>2026-08-14T05:57:38.376Z</time>
      </trkpt>
      <trkpt lat="45.83915" lon="6.75652">
        <ele>1604</ele>
        <time>2026-08-14T05:57:39.376Z</time>
      </trkpt>
      <trkpt lat="45.83916" lon="6.75651">
        <ele>1604</ele>
        <time>2026-08-14T05:57:40.376Z</time>
      </trkpt>
      <trkpt lat="45.83917" lon="6.75651">
        <ele>1603</ele>
        <time>2026-08-14T05:57:41.376Z</time>
      </trkpt>
      <trkpt lat="45.83917" lon="6.75651">
        <ele>1603</ele>
        <time>2026-08-14T05:57:42.376Z</time>
      </trkpt>
      <trkpt lat="45.83918" lon="6.75651">
        <ele>1603</ele>
        <time>2026-08-14T05:57:43.376Z</time>
      </trkpt>
      <trkpt lat="45.83919" lon="6.75651">
        <ele>1603</ele>
        <time>2026-08-14T05:57:44.376Z</time>
      </trkpt>
      <trkpt lat="45.83919" lon="6.7565">
        <ele>1604</ele>
        <time>2026-08-14T05:57:45.376Z</time>
      </trkpt>
      <trkpt lat="45.8392" lon="6.75651">
        <ele>1604</ele>
        <time>2026-08-14T05:57:46.376Z</time>
      </trkpt>
      <trkpt lat="45.83921" lon="6.75651">
        <ele>1604</ele>
        <time>2026-08-14T05:57:47.376Z</time>
      </trkpt>
      <trkpt lat="45.83922" lon="6.7565">
        <ele>1604</ele>
        <time>2026-08-14T05:57:48.376Z</time>
      </trkpt>
      <trkpt lat="45.83922" lon="6.7565">
        <ele>1604</ele>
        <time>2026-08-14T05:57:49.376Z</time>
      </trkpt>
      <trkpt lat="45.83923" lon="6.75649">
        <ele>1604</ele>
        <time>2026-08-14T05:57:50.376Z</time>
      </trkpt>
      <trkpt lat="45.83924" lon="6.75649">
        <ele>1604</ele>
        <time>2026-08-14T05:57:51.376Z</time>
      </trkpt>
      <trkpt lat="45.83925" lon="6.75648">
        <ele>1605</ele>
        <time>2026-08-14T05:57:52.376Z</time>
      </trkpt>
      <trkpt lat="45.83926" lon="6.75648">
        <ele>1605</ele>
        <time>2026-08-14T05:57:53.376Z</time>
      </trkpt>
      <trkpt lat="45.83926" lon="6.75647">
        <ele>1605</ele>
        <time>2026-08-14T05:57:54.376Z</time>
      </trkpt>
      <trkpt lat="45.83926" lon="6.75647">
        <ele>1606</ele>
        <time>2026-08-14T05:57:55.376Z</time>
      </trkpt>
      <trkpt lat="45.83926" lon="6.75647">
        <ele>1606</ele>
        <time>2026-08-14T05:57:56.376Z</time>
      </trkpt>
      <trkpt lat="45.83926" lon="6.75648">
        <ele>1606</ele>
        <time>2026-08-14T05:57:57.376Z</time>
      </trkpt>
      <trkpt lat="45.83926" lon="6.75647">
        <ele>1606</ele>
        <time>2026-08-14T05:57:58.376Z</time>
      </trkpt>
      <trkpt lat="45.83927" lon="6.75647">
        <ele>1606</ele>
        <time>2026-08-14T05:57:59.376Z</time>
      </trkpt>
      <trkpt lat="45.83927" lon="6.75647">
        <ele>1607</ele>
        <time>2026-08-14T05:58:00.376Z</time>
      </trkpt>
      <trkpt lat="45.83927" lon="6.75646">
        <ele>1607</ele>
        <time>2026-08-14T05:58:01.376Z</time>
      </trkpt>
      <trkpt lat="45.83927" lon="6.75645">
        <ele>1607</ele>
        <time>2026-08-14T05:58:02.376Z</time>
      </trkpt>
      <trkpt lat="45.83928" lon="6.75644">
        <ele>1607</ele>
        <time>2026-08-14T05:58:03.376Z</time>
      </trkpt>
      <trkpt lat="45.83928" lon="6.75643">
        <ele>1607</ele>
        <time>2026-08-14T05:58:04.376Z</time>
      </trkpt>
      <trkpt lat="45.83929" lon="6.75641">
        <ele>1607</ele>
        <time>2026-08-14T05:58:05.376Z</time>
      </trkpt>
      <trkpt lat="45.8393" lon="6.7564">
        <ele>1607</ele>
        <time>2026-08-14T05:58:06.376Z</time>
      </trkpt>
      <trkpt lat="45.8393" lon="6.75639">
        <ele>1607</ele>
        <time>2026-08-14T05:58:07.376Z</time>
      </trkpt>
      <trkpt lat="45.83931" lon="6.75638">
        <ele>1608</ele>
        <time>2026-08-14T05:58:08.376Z</time>
      </trkpt>
      <trkpt lat="45.83932" lon="6.75638">
        <ele>1608</ele>
        <time>2026-08-14T05:58:09.376Z</time>
      </trkpt>
      <trkpt lat="45.83933" lon="6.75638">
        <ele>1608</ele>
        <time>2026-08-14T05:58:10.376Z</time>
      </trkpt>
      <trkpt lat="45.83934" lon="6.75638">
        <ele>1608</ele>
        <time>2026-08-14T05:58:11.376Z</time>
      </trkpt>
      <trkpt lat="45.83935" lon="6.75638">
        <ele>1607</ele>
        <time>2026-08-14T05:58:12.376Z</time>
      </trkpt>
      <trkpt lat="45.83936" lon="6.75637">
        <ele>1607</ele>
        <time>2026-08-14T05:58:13.376Z</time>
      </trkpt>
      <trkpt lat="45.83938" lon="6.75637">
        <ele>1607</ele>
        <time>2026-08-14T05:58:14.376Z</time>
      </trkpt>
      <trkpt lat="45.83939" lon="6.75636">
        <ele>1607</ele>
        <time>2026-08-14T05:58:15.376Z</time>
      </trkpt>
      <trkpt lat="45.8394" lon="6.75636">
        <ele>1607</ele>
        <time>2026-08-14T05:58:16.376Z</time>
      </trkpt>
      <trkpt lat="45.83941" lon="6.75635">
        <ele>1607</ele>
        <time>2026-08-14T05:58:17.376Z</time>
      </trkpt>
      <trkpt lat="45.83942" lon="6.75635">
        <ele>1607</ele>
        <time>2026-08-14T05:58:18.376Z</time>
      </trkpt>
      <trkpt lat="45.83942" lon="6.75635">
        <ele>1607</ele>
        <time>2026-08-14T05:58:19.376Z</time>
      </trkpt>
      <trkpt lat="45.83943" lon="6.75634">
        <ele>1607</ele>
        <time>2026-08-14T05:58:20.376Z</time>
      </trkpt>
      <trkpt lat="45.83943" lon="6.75634">
        <ele>1607</ele>
        <time>2026-08-14T05:58:21.376Z</time>
      </trkpt>
      <trkpt lat="45.83943" lon="6.75633">
        <ele>1607</ele>
        <time>2026-08-14T05:58:22.376Z</time>
      </trkpt>
      <trkpt lat="45.83943" lon="6.75633">
        <ele>1606</ele>
        <time>2026-08-14T05:58:23.376Z</time>
      </trkpt>
      <trkpt lat="45.83943" lon="6.75632">
        <ele>1606</ele>
        <time>2026-08-14T05:58:24.376Z</time>
      </trkpt>
      <trkpt lat="45.83943" lon="6.75631">
        <ele>1606</ele>
        <time>2026-08-14T05:58:25.376Z</time>
      </trkpt>
      <trkpt lat="45.83944" lon="6.7563">
        <ele>1607</ele>
        <time>2026-08-14T05:58:26.376Z</time>
      </trkpt>
      <trkpt lat="45.83945" lon="6.7563">
        <ele>1607</ele>
        <time>2026-08-14T05:58:27.376Z</time>
      </trkpt>
      <trkpt lat="45.83946" lon="6.75629">
        <ele>1607</ele>
        <time>2026-08-14T05:58:28.376Z</time>
      </trkpt>
      <trkpt lat="45.83947" lon="6.75629">
        <ele>1608</ele>
        <time>2026-08-14T05:58:29.376Z</time>
      </trkpt>
      <trkpt lat="45.83948" lon="6.75628">
        <ele>1608</ele>
        <time>2026-08-14T05:58:30.376Z</time>
      </trkpt>
      <trkpt lat="45.83949" lon="6.75627">
        <ele>1609</ele>
        <time>2026-08-14T05:58:31.376Z</time>
      </trkpt>
      <trkpt lat="45.83949" lon="6.75625">
        <ele>1609</ele>
        <time>2026-08-14T05:58:32.376Z</time>
      </trkpt>
      <trkpt lat="45.8395" lon="6.75625">
        <ele>1609</ele>
        <time>2026-08-14T05:58:33.376Z</time>
      </trkpt>
      <trkpt lat="45.8395" lon="6.75624">
        <ele>1610</ele>
        <time>2026-08-14T05:58:34.376Z</time>
      </trkpt>
      <trkpt lat="45.83951" lon="6.75623">
        <ele>1610</ele>
        <time>2026-08-14T05:58:35.376Z</time>
      </trkpt>
      <trkpt lat="45.83951" lon="6.75622">
        <ele>1610</ele>
        <time>2026-08-14T05:58:36.376Z</time>
      </trkpt>
      <trkpt lat="45.83951" lon="6.75621">
        <ele>1610</ele>
        <time>2026-08-14T05:58:37.376Z</time>
      </trkpt>
      <trkpt lat="45.83951" lon="6.7562">
        <ele>1610</ele>
        <time>2026-08-14T05:58:38.376Z</time>
      </trkpt>
      <trkpt lat="45.83952" lon="6.7562">
        <ele>1611</ele>
        <time>2026-08-14T05:58:39.376Z</time>
      </trkpt>
      <trkpt lat="45.83952" lon="6.75619">
        <ele>1611</ele>
        <time>2026-08-14T05:58:40.376Z</time>
      </trkpt>
      <trkpt lat="45.83953" lon="6.75618">
        <ele>1611</ele>
        <time>2026-08-14T05:58:41.376Z</time>
      </trkpt>
      <trkpt lat="45.83953" lon="6.75618">
        <ele>1611</ele>
        <time>2026-08-14T05:58:42.376Z</time>
      </trkpt>
      <trkpt lat="45.83954" lon="6.75618">
        <ele>1611</ele>
        <time>2026-08-14T05:58:43.376Z</time>
      </trkpt>
      <trkpt lat="45.83954" lon="6.75618">
        <ele>1612</ele>
        <time>2026-08-14T05:58:44.376Z</time>
      </trkpt>
      <trkpt lat="45.83954" lon="6.75618">
        <ele>1612</ele>
        <time>2026-08-14T05:58:45.376Z</time>
      </trkpt>
      <trkpt lat="45.83954" lon="6.75618">
        <ele>1611</ele>
        <time>2026-08-14T05:58:46.376Z</time>
      </trkpt>
      <trkpt lat="45.83953" lon="6.75618">
        <ele>1611</ele>
        <time>2026-08-14T05:58:47.376Z</time>
      </trkpt>
      <trkpt lat="45.83953" lon="6.75618">
        <ele>1611</ele>
        <time>2026-08-14T05:58:48.376Z</time>
      </trkpt>
      <trkpt lat="45.83953" lon="6.75618">
        <ele>1611</ele>
        <time>2026-08-14T05:58:49.376Z</time>
      </trkpt>
      <trkpt lat="45.83953" lon="6.75618">
        <ele>1612</ele>
        <time>2026-08-14T05:58:50.376Z</time>
      </trkpt>
      <trkpt lat="45.83954" lon="6.75618">
        <ele>1612</ele>
        <time>2026-08-14T05:58:51.376Z</time>
      </trkpt>
      <trkpt lat="45.83954" lon="6.75618">
        <ele>1612</ele>
        <time>2026-08-14T05:58:52.376Z</time>
      </trkpt>
      <trkpt lat="45.83954" lon="6.75618">
        <ele>1613</ele>
        <time>2026-08-14T05:58:53.376Z</time>
      </trkpt>
      <trkpt lat="45.83954" lon="6.75618">
        <ele>1614</ele>
        <time>2026-08-14T05:58:54.376Z</time>
      </trkpt>
      <trkpt lat="45.83954" lon="6.75618">
        <ele>1614</ele>
        <time>2026-08-14T05:58:55.376Z</time>
      </trkpt>
      <trkpt lat="45.83954" lon="6.75618">
        <ele>1615</ele>
        <time>2026-08-14T05:58:56.376Z</time>
      </trkpt>
      <trkpt lat="45.83954" lon="6.75618">
        <ele>1615</ele>
        <time>2026-08-14T05:58:57.376Z</time>
      </trkpt>
      <trkpt lat="45.83954" lon="6.75618">
        <ele>1615</ele>
        <time>2026-08-14T05:58:58.376Z</time>
      </trkpt>
      <trkpt lat="45.83954" lon="6.75618">
        <ele>1616</ele>
        <time>2026-08-14T05:58:59.376Z</time>
      </trkpt>
      <trkpt lat="45.83954" lon="6.75618">
        <ele>1616</ele>
        <time>2026-08-14T05:59:00.376Z</time>
      </trkpt>
      <trkpt lat="45.83954" lon="6.75618">
        <ele>1616</ele>
        <time>2026-08-14T05:59:01.376Z</time>
      </trkpt>
      <trkpt lat="45.83954" lon="6.75618">
        <ele>1616</ele>
        <time>2026-08-14T05:59:02.376Z</time>
      </trkpt>
      <trkpt lat="45.83954" lon="6.75618">
        <ele>1617</ele>
        <time>2026-08-14T05:59:03.376Z</time>
      </trkpt>
      <trkpt lat="45.83954" lon="6.75618">
        <ele>1617</ele>
        <time>2026-08-14T05:59:04.376Z</time>
      </trkpt>
      <trkpt lat="45.83954" lon="6.75618">
        <ele>1617</ele>
        <time>2026-08-14T05:59:05.376Z</time>
      </trkpt>
      <trkpt lat="45.83954" lon="6.75618">
        <ele>1617</ele>
        <time>2026-08-14T05:59:06.376Z</time>
      </trkpt>
      <trkpt lat="45.83954" lon="6.75618">
        <ele>1617</ele>
        <time>2026-08-14T05:59:07.376Z</time>
      </trkpt>
      <trkpt lat="45.83954" lon="6.75618">
        <ele>1617</ele>
        <time>2026-08-14T05:59:08.376Z</time>
      </trkpt>
      <trkpt lat="45.83954" lon="6.75617">
        <ele>1617</ele>
        <time>2026-08-14T05:59:09.376Z</time>
      </trkpt>
      <trkpt lat="45.83954" lon="6.75615">
        <ele>1618</ele>
        <time>2026-08-14T05:59:10.376Z</time>
      </trkpt>
      <trkpt lat="45.83954" lon="6.75614">
        <ele>1618</ele>
        <time>2026-08-14T05:59:11.376Z</time>
      </trkpt>
      <trkpt lat="45.83955" lon="6.75612">
        <ele>1618</ele>
        <time>2026-08-14T05:59:12.376Z</time>
      </trkpt>
      <trkpt lat="45.83955" lon="6.7561">
        <ele>1618</ele>
        <time>2026-08-14T05:59:13.376Z</time>
      </trkpt>
      <trkpt lat="45.83956" lon="6.75608">
        <ele>1618</ele>
        <time>2026-08-14T05:59:14.376Z</time>
      </trkpt>
      <trkpt lat="45.83957" lon="6.75607">
        <ele>1618</ele>
        <time>2026-08-14T05:59:15.376Z</time>
      </trkpt>
      <trkpt lat="45.83957" lon="6.75605">
        <ele>1618</ele>
        <time>2026-08-14T05:59:16.376Z</time>
      </trkpt>
      <trkpt lat="45.83958" lon="6.75604">
        <ele>1618</ele>
        <time>2026-08-14T05:59:17.376Z</time>
      </trkpt>
      <trkpt lat="45.83958" lon="6.75603">
        <ele>1619</ele>
        <time>2026-08-14T05:59:18.376Z</time>
      </trkpt>
      <trkpt lat="45.83959" lon="6.75602">
        <ele>1619</ele>
        <time>2026-08-14T05:59:19.376Z</time>
      </trkpt>
      <trkpt lat="45.83959" lon="6.75602">
        <ele>1620</ele>
        <time>2026-08-14T05:59:20.376Z</time>
      </trkpt>
      <trkpt lat="45.83959" lon="6.75601">
        <ele>1620</ele>
        <time>2026-08-14T05:59:21.376Z</time>
      </trkpt>
      <trkpt lat="45.83959" lon="6.756">
        <ele>1620</ele>
        <time>2026-08-14T05:59:22.376Z</time>
      </trkpt>
      <trkpt lat="45.8396" lon="6.75599">
        <ele>1621</ele>
        <time>2026-08-14T05:59:23.376Z</time>
      </trkpt>
      <trkpt lat="45.8396" lon="6.75599">
        <ele>1620</ele>
        <time>2026-08-14T05:59:24.376Z</time>
      </trkpt>
      <trkpt lat="45.8396" lon="6.75598">
        <ele>1620</ele>
        <time>2026-08-14T05:59:25.376Z</time>
      </trkpt>
      <trkpt lat="45.8396" lon="6.75597">
        <ele>1620</ele>
        <time>2026-08-14T05:59:26.376Z</time>
      </trkpt>
      <trkpt lat="45.8396" lon="6.75596">
        <ele>1620</ele>
        <time>2026-08-14T05:59:27.376Z</time>
      </trkpt>
      <trkpt lat="45.8396" lon="6.75596">
        <ele>1620</ele>
        <time>2026-08-14T05:59:28.376Z</time>
      </trkpt>
      <trkpt lat="45.8396" lon="6.75595">
        <ele>1620</ele>
        <time>2026-08-14T05:59:29.376Z</time>
      </trkpt>
      <trkpt lat="45.8396" lon="6.75595">
        <ele>1620</ele>
        <time>2026-08-14T05:59:30.376Z</time>
      </trkpt>
      <trkpt lat="45.8396" lon="6.75595">
        <ele>1620</ele>
        <time>2026-08-14T05:59:31.376Z</time>
      </trkpt>
      <trkpt lat="45.8396" lon="6.75594">
        <ele>1620</ele>
        <time>2026-08-14T05:59:32.376Z</time>
      </trkpt>
      <trkpt lat="45.8396" lon="6.75594">
        <ele>1620</ele>
        <time>2026-08-14T05:59:33.376Z</time>
      </trkpt>
      <trkpt lat="45.83959" lon="6.75594">
        <ele>1620</ele>
        <time>2026-08-14T05:59:34.376Z</time>
      </trkpt>
      <trkpt lat="45.83959" lon="6.75594">
        <ele>1620</ele>
        <time>2026-08-14T05:59:35.376Z</time>
      </trkpt>
      <trkpt lat="45.83959" lon="6.75594">
        <ele>1621</ele>
        <time>2026-08-14T05:59:36.376Z</time>
      </trkpt>
      <trkpt lat="45.83958" lon="6.75595">
        <ele>1621</ele>
        <time>2026-08-14T05:59:37.376Z</time>
      </trkpt>
      <trkpt lat="45.83958" lon="6.75595">
        <ele>1621</ele>
        <time>2026-08-14T05:59:38.376Z</time>
      </trkpt>
      <trkpt lat="45.83958" lon="6.75595">
        <ele>1622</ele>
        <time>2026-08-14T05:59:39.376Z</time>
      </trkpt>
      <trkpt lat="45.83957" lon="6.75596">
        <ele>1622</ele>
        <time>2026-08-14T05:59:40.376Z</time>
      </trkpt>
      <trkpt lat="45.83957" lon="6.75596">
        <ele>1622</ele>
        <time>2026-08-14T05:59:41.376Z</time>
      </trkpt>
      <trkpt lat="45.83957" lon="6.75596">
        <ele>1623</ele>
        <time>2026-08-14T05:59:42.376Z</time>
      </trkpt>
      <trkpt lat="45.83956" lon="6.75596">
        <ele>1623</ele>
        <time>2026-08-14T05:59:43.376Z</time>
      </trkpt>
      <trkpt lat="45.83956" lon="6.75596">
        <ele>1624</ele>
        <time>2026-08-14T05:59:44.376Z</time>
      </trkpt>
      <trkpt lat="45.83955" lon="6.75596">
        <ele>1624</ele>
        <time>2026-08-14T05:59:45.376Z</time>
      </trkpt>
      <trkpt lat="45.83954" lon="6.75596">
        <ele>1625</ele>
        <time>2026-08-14T05:59:46.376Z</time>
      </trkpt>
      <trkpt lat="45.83954" lon="6.75596">
        <ele>1625</ele>
        <time>2026-08-14T05:59:47.376Z</time>
      </trkpt>
      <trkpt lat="45.83953" lon="6.75596">
        <ele>1626</ele>
        <time>2026-08-14T05:59:48.376Z</time>
      </trkpt>
      <trkpt lat="45.83952" lon="6.75596">
        <ele>1626</ele>
        <time>2026-08-14T05:59:49.376Z</time>
      </trkpt>
      <trkpt lat="45.83951" lon="6.75596">
        <ele>1626</ele>
        <time>2026-08-14T05:59:50.376Z</time>
      </trkpt>
      <trkpt lat="45.83951" lon="6.75596">
        <ele>1627</ele>
        <time>2026-08-14T05:59:51.376Z</time>
      </trkpt>
      <trkpt lat="45.8395" lon="6.75596">
        <ele>1626</ele>
        <time>2026-08-14T05:59:52.376Z</time>
      </trkpt>
      <trkpt lat="45.83949" lon="6.75596">
        <ele>1626</ele>
        <time>2026-08-14T05:59:53.376Z</time>
      </trkpt>
      <trkpt lat="45.83948" lon="6.75595">
        <ele>1627</ele>
        <time>2026-08-14T05:59:54.376Z</time>
      </trkpt>
      <trkpt lat="45.83948" lon="6.75594">
        <ele>1627</ele>
        <time>2026-08-14T05:59:55.376Z</time>
      </trkpt>
      <trkpt lat="45.83947" lon="6.75594">
        <ele>1627</ele>
        <time>2026-08-14T05:59:56.376Z</time>
      </trkpt>
      <trkpt lat="45.83946" lon="6.75593">
        <ele>1627</ele>
        <time>2026-08-14T05:59:57.376Z</time>
      </trkpt>
      <trkpt lat="45.83946" lon="6.75593">
        <ele>1627</ele>
        <time>2026-08-14T05:59:58.376Z</time>
      </trkpt>
      <trkpt lat="45.83945" lon="6.75593">
        <ele>1627</ele>
        <time>2026-08-14T05:59:59.376Z</time>
      </trkpt>
      <trkpt lat="45.83944" lon="6.75593">
        <ele>1627</ele>
        <time>2026-08-14T06:00:00.376Z</time>
      </trkpt>
      <trkpt lat="45.83943" lon="6.75593">
        <ele>1628</ele>
        <time>2026-08-14T06:00:01.376Z</time>
      </trkpt>
      <trkpt lat="45.83942" lon="6.75594">
        <ele>1628</ele>
        <time>2026-08-14T06:00:02.376Z</time>
      </trkpt>
      <trkpt lat="45.83941" lon="6.75594">
        <ele>1628</ele>
        <time>2026-08-14T06:00:03.376Z</time>
      </trkpt>
      <trkpt lat="45.8394" lon="6.75594">
        <ele>1628</ele>
        <time>2026-08-14T06:00:04.376Z</time>
      </trkpt>
      <trkpt lat="45.83939" lon="6.75594">
        <ele>1628</ele>
        <time>2026-08-14T06:00:05.376Z</time>
      </trkpt>
      <trkpt lat="45.83938" lon="6.75594">
        <ele>1628</ele>
        <time>2026-08-14T06:00:06.376Z</time>
      </trkpt>
      <trkpt lat="45.83937" lon="6.75594">
        <ele>1628</ele>
        <time>2026-08-14T06:00:07.376Z</time>
      </trkpt>
      <trkpt lat="45.83936" lon="6.75593">
        <ele>1629</ele>
        <time>2026-08-14T06:00:08.376Z</time>
      </trkpt>
      <trkpt lat="45.83935" lon="6.75593">
        <ele>1629</ele>
        <time>2026-08-14T06:00:09.376Z</time>
      </trkpt>
      <trkpt lat="45.83934" lon="6.75593">
        <ele>1629</ele>
        <time>2026-08-14T06:00:10.376Z</time>
      </trkpt>
      <trkpt lat="45.83933" lon="6.75592">
        <ele>1630</ele>
        <time>2026-08-14T06:00:11.376Z</time>
      </trkpt>
      <trkpt lat="45.83932" lon="6.75592">
        <ele>1630</ele>
        <time>2026-08-14T06:00:12.376Z</time>
      </trkpt>
      <trkpt lat="45.83931" lon="6.75592">
        <ele>1631</ele>
        <time>2026-08-14T06:00:13.376Z</time>
      </trkpt>
      <trkpt lat="45.83929" lon="6.75591">
        <ele>1631</ele>
        <time>2026-08-14T06:00:14.376Z</time>
      </trkpt>
      <trkpt lat="45.83928" lon="6.75591">
        <ele>1632</ele>
        <time>2026-08-14T06:00:15.376Z</time>
      </trkpt>
      <trkpt lat="45.83927" lon="6.7559">
        <ele>1633</ele>
        <time>2026-08-14T06:00:16.376Z</time>
      </trkpt>
      <trkpt lat="45.83927" lon="6.7559">
        <ele>1633</ele>
        <time>2026-08-14T06:00:17.376Z</time>
      </trkpt>
      <trkpt lat="45.83926" lon="6.75588">
        <ele>1634</ele>
        <time>2026-08-14T06:00:18.376Z</time>
      </trkpt>
      <trkpt lat="45.83925" lon="6.75587">
        <ele>1634</ele>
        <time>2026-08-14T06:00:19.376Z</time>
      </trkpt>
      <trkpt lat="45.83924" lon="6.75587">
        <ele>1635</ele>
        <time>2026-08-14T06:00:20.376Z</time>
      </trkpt>
      <trkpt lat="45.83923" lon="6.75585">
        <ele>1635</ele>
        <time>2026-08-14T06:00:21.376Z</time>
      </trkpt>
      <trkpt lat="45.83922" lon="6.75584">
        <ele>1636</ele>
        <time>2026-08-14T06:00:22.376Z</time>
      </trkpt>
      <trkpt lat="45.83921" lon="6.75583">
        <ele>1636</ele>
        <time>2026-08-14T06:00:23.376Z</time>
      </trkpt>
      <trkpt lat="45.8392" lon="6.75583">
        <ele>1637</ele>
        <time>2026-08-14T06:00:24.376Z</time>
      </trkpt>
      <trkpt lat="45.83919" lon="6.75582">
        <ele>1637</ele>
        <time>2026-08-14T06:00:25.376Z</time>
      </trkpt>
      <trkpt lat="45.83917" lon="6.75581">
        <ele>1637</ele>
        <time>2026-08-14T06:00:26.376Z</time>
      </trkpt>
      <trkpt lat="45.83916" lon="6.75581">
        <ele>1637</ele>
        <time>2026-08-14T06:00:27.376Z</time>
      </trkpt>
      <trkpt lat="45.83914" lon="6.7558">
        <ele>1637</ele>
        <time>2026-08-14T06:00:28.376Z</time>
      </trkpt>
      <trkpt lat="45.83912" lon="6.7558">
        <ele>1637</ele>
        <time>2026-08-14T06:00:29.376Z</time>
      </trkpt>
      <trkpt lat="45.83911" lon="6.7558">
        <ele>1637</ele>
        <time>2026-08-14T06:00:30.376Z</time>
      </trkpt>
      <trkpt lat="45.83909" lon="6.75579">
        <ele>1637</ele>
        <time>2026-08-14T06:00:31.376Z</time>
      </trkpt>
      <trkpt lat="45.83908" lon="6.7558">
        <ele>1637</ele>
        <time>2026-08-14T06:00:32.376Z</time>
      </trkpt>
      <trkpt lat="45.83906" lon="6.7558">
        <ele>1637</ele>
        <time>2026-08-14T06:00:33.376Z</time>
      </trkpt>
      <trkpt lat="45.83905" lon="6.7558">
        <ele>1637</ele>
        <time>2026-08-14T06:00:34.376Z</time>
      </trkpt>
      <trkpt lat="45.83904" lon="6.7558">
        <ele>1638</ele>
        <time>2026-08-14T06:00:35.376Z</time>
      </trkpt>
      <trkpt lat="45.83903" lon="6.75579">
        <ele>1638</ele>
        <time>2026-08-14T06:00:36.376Z</time>
      </trkpt>
      <trkpt lat="45.83902" lon="6.75579">
        <ele>1638</ele>
        <time>2026-08-14T06:00:37.376Z</time>
      </trkpt>
      <trkpt lat="45.83901" lon="6.75579">
        <ele>1638</ele>
        <time>2026-08-14T06:00:38.376Z</time>
      </trkpt>
      <trkpt lat="45.839" lon="6.75579">
        <ele>1638</ele>
        <time>2026-08-14T06:00:39.376Z</time>
      </trkpt>
      <trkpt lat="45.83899" lon="6.75578">
        <ele>1638</ele>
        <time>2026-08-14T06:00:40.376Z</time>
      </trkpt>
      <trkpt lat="45.83898" lon="6.75578">
        <ele>1638</ele>
        <time>2026-08-14T06:00:41.376Z</time>
      </trkpt>
      <trkpt lat="45.83896" lon="6.75577">
        <ele>1638</ele>
        <time>2026-08-14T06:00:42.376Z</time>
      </trkpt>
      <trkpt lat="45.83895" lon="6.75577">
        <ele>1638</ele>
        <time>2026-08-14T06:00:43.376Z</time>
      </trkpt>
      <trkpt lat="45.83894" lon="6.75577">
        <ele>1638</ele>
        <time>2026-08-14T06:00:44.376Z</time>
      </trkpt>
      <trkpt lat="45.83893" lon="6.75578">
        <ele>1638</ele>
        <time>2026-08-14T06:00:45.376Z</time>
      </trkpt>
      <trkpt lat="45.83892" lon="6.75579">
        <ele>1638</ele>
        <time>2026-08-14T06:00:46.376Z</time>
      </trkpt>
      <trkpt lat="45.83891" lon="6.7558">
        <ele>1638</ele>
        <time>2026-08-14T06:00:47.376Z</time>
      </trkpt>
      <trkpt lat="45.83889" lon="6.75581">
        <ele>1638</ele>
        <time>2026-08-14T06:00:48.376Z</time>
      </trkpt>
      <trkpt lat="45.83888" lon="6.75581">
        <ele>1638</ele>
        <time>2026-08-14T06:00:49.376Z</time>
      </trkpt>
      <trkpt lat="45.83887" lon="6.75581">
        <ele>1639</ele>
        <time>2026-08-14T06:00:50.376Z</time>
      </trkpt>
      <trkpt lat="45.83885" lon="6.7558">
        <ele>1640</ele>
        <time>2026-08-14T06:00:51.376Z</time>
      </trkpt>
      <trkpt lat="45.83884" lon="6.7558">
        <ele>1640</ele>
        <time>2026-08-14T06:00:52.376Z</time>
      </trkpt>
      <trkpt lat="45.83883" lon="6.7558">
        <ele>1641</ele>
        <time>2026-08-14T06:00:53.376Z</time>
      </trkpt>
      <trkpt lat="45.83882" lon="6.75581">
        <ele>1641</ele>
        <time>2026-08-14T06:00:54.376Z</time>
      </trkpt>
      <trkpt lat="45.83881" lon="6.75581">
        <ele>1642</ele>
        <time>2026-08-14T06:00:55.376Z</time>
      </trkpt>
      <trkpt lat="45.8388" lon="6.75582">
        <ele>1642</ele>
        <time>2026-08-14T06:00:56.376Z</time>
      </trkpt>
      <trkpt lat="45.83879" lon="6.75582">
        <ele>1642</ele>
        <time>2026-08-14T06:00:57.376Z</time>
      </trkpt>
      <trkpt lat="45.83878" lon="6.75582">
        <ele>1643</ele>
        <time>2026-08-14T06:00:58.376Z</time>
      </trkpt>
      <trkpt lat="45.83877" lon="6.75582">
        <ele>1643</ele>
        <time>2026-08-14T06:00:59.376Z</time>
      </trkpt>
      <trkpt lat="45.83876" lon="6.75582">
        <ele>1643</ele>
        <time>2026-08-14T06:01:00.376Z</time>
      </trkpt>
      <trkpt lat="45.83875" lon="6.75583">
        <ele>1644</ele>
        <time>2026-08-14T06:01:01.376Z</time>
      </trkpt>
      <trkpt lat="45.83874" lon="6.75583">
        <ele>1644</ele>
        <time>2026-08-14T06:01:02.376Z</time>
      </trkpt>
      <trkpt lat="45.83873" lon="6.75583">
        <ele>1644</ele>
        <time>2026-08-14T06:01:03.376Z</time>
      </trkpt>
      <trkpt lat="45.83872" lon="6.75583">
        <ele>1644</ele>
        <time>2026-08-14T06:01:04.376Z</time>
      </trkpt>
      <trkpt lat="45.83871" lon="6.75583">
        <ele>1644</ele>
        <time>2026-08-14T06:01:05.376Z</time>
      </trkpt>
      <trkpt lat="45.83871" lon="6.75584">
        <ele>1644</ele>
        <time>2026-08-14T06:01:06.376Z</time>
      </trkpt>
      <trkpt lat="45.8387" lon="6.75584">
        <ele>1645</ele>
        <time>2026-08-14T06:01:07.376Z</time>
      </trkpt>
      <trkpt lat="45.83869" lon="6.75584">
        <ele>1645</ele>
        <time>2026-08-14T06:01:08.376Z</time>
      </trkpt>
      <trkpt lat="45.83868" lon="6.75585">
        <ele>1645</ele>
        <time>2026-08-14T06:01:09.376Z</time>
      </trkpt>
      <trkpt lat="45.83867" lon="6.75585">
        <ele>1646</ele>
        <time>2026-08-14T06:01:10.376Z</time>
      </trkpt>
      <trkpt lat="45.83866" lon="6.75586">
        <ele>1646</ele>
        <time>2026-08-14T06:01:11.376Z</time>
      </trkpt>
      <trkpt lat="45.83864" lon="6.75586">
        <ele>1646</ele>
        <time>2026-08-14T06:01:12.376Z</time>
      </trkpt>
      <trkpt lat="45.83863" lon="6.75585">
        <ele>1646</ele>
        <time>2026-08-14T06:01:13.376Z</time>
      </trkpt>
      <trkpt lat="45.83861" lon="6.75585">
        <ele>1646</ele>
        <time>2026-08-14T06:01:14.376Z</time>
      </trkpt>
      <trkpt lat="45.8386" lon="6.75584">
        <ele>1646</ele>
        <time>2026-08-14T06:01:15.376Z</time>
      </trkpt>
      <trkpt lat="45.83859" lon="6.75584">
        <ele>1646</ele>
        <time>2026-08-14T06:01:16.376Z</time>
      </trkpt>
      <trkpt lat="45.83858" lon="6.75583">
        <ele>1646</ele>
        <time>2026-08-14T06:01:17.376Z</time>
      </trkpt>
      <trkpt lat="45.83857" lon="6.75582">
        <ele>1646</ele>
        <time>2026-08-14T06:01:18.376Z</time>
      </trkpt>
      <trkpt lat="45.83857" lon="6.75582">
        <ele>1646</ele>
        <time>2026-08-14T06:01:19.376Z</time>
      </trkpt>
      <trkpt lat="45.83855" lon="6.75581">
        <ele>1646</ele>
        <time>2026-08-14T06:01:20.376Z</time>
      </trkpt>
      <trkpt lat="45.83854" lon="6.7558">
        <ele>1645</ele>
        <time>2026-08-14T06:01:21.376Z</time>
      </trkpt>
      <trkpt lat="45.83853" lon="6.7558">
        <ele>1645</ele>
        <time>2026-08-14T06:01:22.376Z</time>
      </trkpt>
      <trkpt lat="45.83851" lon="6.7558">
        <ele>1645</ele>
        <time>2026-08-14T06:01:23.376Z</time>
      </trkpt>
      <trkpt lat="45.8385" lon="6.75579">
        <ele>1645</ele>
        <time>2026-08-14T06:01:24.376Z</time>
      </trkpt>
      <trkpt lat="45.83848" lon="6.75579">
        <ele>1644</ele>
        <time>2026-08-14T06:01:25.376Z</time>
      </trkpt>
      <trkpt lat="45.83847" lon="6.75578">
        <ele>1644</ele>
        <time>2026-08-14T06:01:26.376Z</time>
      </trkpt>
      <trkpt lat="45.83845" lon="6.75578">
        <ele>1643</ele>
        <time>2026-08-14T06:01:27.376Z</time>
      </trkpt>
      <trkpt lat="45.83844" lon="6.75577">
        <ele>1643</ele>
        <time>2026-08-14T06:01:28.376Z</time>
      </trkpt>
      <trkpt lat="45.83842" lon="6.75577">
        <ele>1642</ele>
        <time>2026-08-14T06:01:29.376Z</time>
      </trkpt>
      <trkpt lat="45.83841" lon="6.75576">
        <ele>1642</ele>
        <time>2026-08-14T06:01:30.376Z</time>
      </trkpt>
      <trkpt lat="45.83839" lon="6.75576">
        <ele>1642</ele>
        <time>2026-08-14T06:01:31.376Z</time>
      </trkpt>
      <trkpt lat="45.83838" lon="6.75576">
        <ele>1642</ele>
        <time>2026-08-14T06:01:32.376Z</time>
      </trkpt>
      <trkpt lat="45.83837" lon="6.75575">
        <ele>1643</ele>
        <time>2026-08-14T06:01:33.376Z</time>
      </trkpt>
      <trkpt lat="45.83836" lon="6.75575">
        <ele>1644</ele>
        <time>2026-08-14T06:01:34.376Z</time>
      </trkpt>
      <trkpt lat="45.83835" lon="6.75575">
        <ele>1644</ele>
        <time>2026-08-14T06:01:35.376Z</time>
      </trkpt>
      <trkpt lat="45.83834" lon="6.75574">
        <ele>1645</ele>
        <time>2026-08-14T06:01:36.376Z</time>
      </trkpt>
      <trkpt lat="45.83833" lon="6.75574">
        <ele>1646</ele>
        <time>2026-08-14T06:01:37.376Z</time>
      </trkpt>
      <trkpt lat="45.83832" lon="6.75574">
        <ele>1647</ele>
        <time>2026-08-14T06:01:38.376Z</time>
      </trkpt>
      <trkpt lat="45.83831" lon="6.75574">
        <ele>1648</ele>
        <time>2026-08-14T06:01:39.376Z</time>
      </trkpt>
      <trkpt lat="45.8383" lon="6.75574">
        <ele>1649</ele>
        <time>2026-08-14T06:01:40.376Z</time>
      </trkpt>
      <trkpt lat="45.83829" lon="6.75574">
        <ele>1650</ele>
        <time>2026-08-14T06:01:41.376Z</time>
      </trkpt>
      <trkpt lat="45.83828" lon="6.75574">
        <ele>1651</ele>
        <time>2026-08-14T06:01:42.376Z</time>
      </trkpt>
      <trkpt lat="45.83828" lon="6.75574">
        <ele>1651</ele>
        <time>2026-08-14T06:01:43.376Z</time>
      </trkpt>
      <trkpt lat="45.83827" lon="6.75574">
        <ele>1651</ele>
        <time>2026-08-14T06:01:44.376Z</time>
      </trkpt>
      <trkpt lat="45.83826" lon="6.75574">
        <ele>1651</ele>
        <time>2026-08-14T06:01:45.376Z</time>
      </trkpt>
      <trkpt lat="45.83825" lon="6.75574">
        <ele>1651</ele>
        <time>2026-08-14T06:01:46.376Z</time>
      </trkpt>
      <trkpt lat="45.83824" lon="6.75574">
        <ele>1651</ele>
        <time>2026-08-14T06:01:47.376Z</time>
      </trkpt>
      <trkpt lat="45.83823" lon="6.75574">
        <ele>1651</ele>
        <time>2026-08-14T06:01:48.376Z</time>
      </trkpt>
      <trkpt lat="45.83822" lon="6.75573">
        <ele>1651</ele>
        <time>2026-08-14T06:01:49.376Z</time>
      </trkpt>
      <trkpt lat="45.83822" lon="6.75573">
        <ele>1651</ele>
        <time>2026-08-14T06:01:50.376Z</time>
      </trkpt>
      <trkpt lat="45.83821" lon="6.75572">
        <ele>1651</ele>
        <time>2026-08-14T06:01:51.376Z</time>
      </trkpt>
      <trkpt lat="45.83821" lon="6.75573">
        <ele>1652</ele>
        <time>2026-08-14T06:01:52.376Z</time>
      </trkpt>
      <trkpt lat="45.8382" lon="6.75573">
        <ele>1652</ele>
        <time>2026-08-14T06:01:53.376Z</time>
      </trkpt>
      <trkpt lat="45.83819" lon="6.75573">
        <ele>1652</ele>
        <time>2026-08-14T06:01:54.376Z</time>
      </trkpt>
      <trkpt lat="45.83819" lon="6.75572">
        <ele>1652</ele>
        <time>2026-08-14T06:01:55.376Z</time>
      </trkpt>
      <trkpt lat="45.83818" lon="6.75572">
        <ele>1652</ele>
        <time>2026-08-14T06:01:56.376Z</time>
      </trkpt>
      <trkpt lat="45.83817" lon="6.75572">
        <ele>1652</ele>
        <time>2026-08-14T06:01:57.376Z</time>
      </trkpt>
      <trkpt lat="45.83816" lon="6.75571">
        <ele>1653</ele>
        <time>2026-08-14T06:01:58.376Z</time>
      </trkpt>
      <trkpt lat="45.83816" lon="6.75571">
        <ele>1653</ele>
        <time>2026-08-14T06:01:59.376Z</time>
      </trkpt>
      <trkpt lat="45.83815" lon="6.7557">
        <ele>1654</ele>
        <time>2026-08-14T06:02:00.376Z</time>
      </trkpt>
      <trkpt lat="45.83814" lon="6.7557">
        <ele>1654</ele>
        <time>2026-08-14T06:02:01.376Z</time>
      </trkpt>
      <trkpt lat="45.83814" lon="6.75569">
        <ele>1654</ele>
        <time>2026-08-14T06:02:02.376Z</time>
      </trkpt>
      <trkpt lat="45.83813" lon="6.75569">
        <ele>1654</ele>
        <time>2026-08-14T06:02:03.376Z</time>
      </trkpt>
      <trkpt lat="45.83813" lon="6.75569">
        <ele>1655</ele>
        <time>2026-08-14T06:02:04.376Z</time>
      </trkpt>
      <trkpt lat="45.83812" lon="6.75568">
        <ele>1655</ele>
        <time>2026-08-14T06:02:05.376Z</time>
      </trkpt>
      <trkpt lat="45.83811" lon="6.75569">
        <ele>1655</ele>
        <time>2026-08-14T06:02:06.376Z</time>
      </trkpt>
      <trkpt lat="45.8381" lon="6.75568">
        <ele>1655</ele>
        <time>2026-08-14T06:02:07.376Z</time>
      </trkpt>
      <trkpt lat="45.83809" lon="6.75568">
        <ele>1655</ele>
        <time>2026-08-14T06:02:08.376Z</time>
      </trkpt>
      <trkpt lat="45.83808" lon="6.75567">
        <ele>1655</ele>
        <time>2026-08-14T06:02:09.376Z</time>
      </trkpt>
      <trkpt lat="45.83808" lon="6.75567">
        <ele>1656</ele>
        <time>2026-08-14T06:02:10.376Z</time>
      </trkpt>
      <trkpt lat="45.83807" lon="6.75567">
        <ele>1656</ele>
        <time>2026-08-14T06:02:11.376Z</time>
      </trkpt>
      <trkpt lat="45.83806" lon="6.75568">
        <ele>1656</ele>
        <time>2026-08-14T06:02:12.376Z</time>
      </trkpt>
      <trkpt lat="45.83805" lon="6.75568">
        <ele>1657</ele>
        <time>2026-08-14T06:02:13.376Z</time>
      </trkpt>
      <trkpt lat="45.83804" lon="6.75569">
        <ele>1657</ele>
        <time>2026-08-14T06:02:14.376Z</time>
      </trkpt>
      <trkpt lat="45.83803" lon="6.75569">
        <ele>1657</ele>
        <time>2026-08-14T06:02:15.376Z</time>
      </trkpt>
      <trkpt lat="45.83802" lon="6.75568">
        <ele>1658</ele>
        <time>2026-08-14T06:02:16.376Z</time>
      </trkpt>
      <trkpt lat="45.83802" lon="6.75568">
        <ele>1658</ele>
        <time>2026-08-14T06:02:17.376Z</time>
      </trkpt>
      <trkpt lat="45.83801" lon="6.75567">
        <ele>1658</ele>
        <time>2026-08-14T06:02:18.376Z</time>
      </trkpt>
      <trkpt lat="45.838" lon="6.75566">
        <ele>1659</ele>
        <time>2026-08-14T06:02:19.376Z</time>
      </trkpt>
      <trkpt lat="45.838" lon="6.75566">
        <ele>1659</ele>
        <time>2026-08-14T06:02:20.376Z</time>
      </trkpt>
      <trkpt lat="45.83799" lon="6.75565">
        <ele>1659</ele>
        <time>2026-08-14T06:02:21.376Z</time>
      </trkpt>
      <trkpt lat="45.83799" lon="6.75565">
        <ele>1660</ele>
        <time>2026-08-14T06:02:22.376Z</time>
      </trkpt>
      <trkpt lat="45.83798" lon="6.75564">
        <ele>1660</ele>
        <time>2026-08-14T06:02:23.376Z</time>
      </trkpt>
      <trkpt lat="45.83798" lon="6.75564">
        <ele>1660</ele>
        <time>2026-08-14T06:02:24.376Z</time>
      </trkpt>
      <trkpt lat="45.83797" lon="6.75564">
        <ele>1661</ele>
        <time>2026-08-14T06:02:25.376Z</time>
      </trkpt>
      <trkpt lat="45.83796" lon="6.75564">
        <ele>1661</ele>
        <time>2026-08-14T06:02:26.376Z</time>
      </trkpt>
      <trkpt lat="45.83795" lon="6.75564">
        <ele>1661</ele>
        <time>2026-08-14T06:02:27.376Z</time>
      </trkpt>
      <trkpt lat="45.83795" lon="6.75563">
        <ele>1662</ele>
        <time>2026-08-14T06:02:28.376Z</time>
      </trkpt>
      <trkpt lat="45.83794" lon="6.75563">
        <ele>1663</ele>
        <time>2026-08-14T06:02:29.376Z</time>
      </trkpt>
      <trkpt lat="45.83793" lon="6.75562">
        <ele>1663</ele>
        <time>2026-08-14T06:02:30.376Z</time>
      </trkpt>
      <trkpt lat="45.83792" lon="6.75562">
        <ele>1664</ele>
        <time>2026-08-14T06:02:31.376Z</time>
      </trkpt>
      <trkpt lat="45.83791" lon="6.75561">
        <ele>1665</ele>
        <time>2026-08-14T06:02:32.376Z</time>
      </trkpt>
      <trkpt lat="45.8379" lon="6.75561">
        <ele>1666</ele>
        <time>2026-08-14T06:02:33.376Z</time>
      </trkpt>
      <trkpt lat="45.83789" lon="6.7556">
        <ele>1666</ele>
        <time>2026-08-14T06:02:34.376Z</time>
      </trkpt>
      <trkpt lat="45.83789" lon="6.7556">
        <ele>1666</ele>
        <time>2026-08-14T06:02:35.376Z</time>
      </trkpt>
      <trkpt lat="45.83787" lon="6.7556">
        <ele>1667</ele>
        <time>2026-08-14T06:02:36.376Z</time>
      </trkpt>
      <trkpt lat="45.83787" lon="6.7556">
        <ele>1667</ele>
        <time>2026-08-14T06:02:37.376Z</time>
      </trkpt>
      <trkpt lat="45.83786" lon="6.7556">
        <ele>1667</ele>
        <time>2026-08-14T06:02:38.376Z</time>
      </trkpt>
      <trkpt lat="45.83785" lon="6.75559">
        <ele>1667</ele>
        <time>2026-08-14T06:02:39.376Z</time>
      </trkpt>
      <trkpt lat="45.83784" lon="6.75559">
        <ele>1667</ele>
        <time>2026-08-14T06:02:40.376Z</time>
      </trkpt>
      <trkpt lat="45.83783" lon="6.75559">
        <ele>1667</ele>
        <time>2026-08-14T06:02:41.376Z</time>
      </trkpt>
      <trkpt lat="45.83782" lon="6.75558">
        <ele>1667</ele>
        <time>2026-08-14T06:02:42.376Z</time>
      </trkpt>
      <trkpt lat="45.83782" lon="6.75556">
        <ele>1668</ele>
        <time>2026-08-14T06:02:43.376Z</time>
      </trkpt>
      <trkpt lat="45.83781" lon="6.75555">
        <ele>1668</ele>
        <time>2026-08-14T06:02:44.376Z</time>
      </trkpt>
      <trkpt lat="45.8378" lon="6.75553">
        <ele>1668</ele>
        <time>2026-08-14T06:02:45.376Z</time>
      </trkpt>
      <trkpt lat="45.83779" lon="6.75553">
        <ele>1669</ele>
        <time>2026-08-14T06:02:46.376Z</time>
      </trkpt>
      <trkpt lat="45.83778" lon="6.75553">
        <ele>1669</ele>
        <time>2026-08-14T06:02:47.376Z</time>
      </trkpt>
      <trkpt lat="45.83777" lon="6.75553">
        <ele>1669</ele>
        <time>2026-08-14T06:02:48.376Z</time>
      </trkpt>
      <trkpt lat="45.83777" lon="6.75553">
        <ele>1669</ele>
        <time>2026-08-14T06:02:49.376Z</time>
      </trkpt>
      <trkpt lat="45.83776" lon="6.75554">
        <ele>1669</ele>
        <time>2026-08-14T06:02:50.376Z</time>
      </trkpt>
      <trkpt lat="45.83775" lon="6.75554">
        <ele>1669</ele>
        <time>2026-08-14T06:02:51.376Z</time>
      </trkpt>
      <trkpt lat="45.83774" lon="6.75554">
        <ele>1669</ele>
        <time>2026-08-14T06:02:52.376Z</time>
      </trkpt>
      <trkpt lat="45.83774" lon="6.75553">
        <ele>1669</ele>
        <time>2026-08-14T06:02:53.376Z</time>
      </trkpt>
      <trkpt lat="45.83773" lon="6.75552">
        <ele>1669</ele>
        <time>2026-08-14T06:02:54.376Z</time>
      </trkpt>
      <trkpt lat="45.83773" lon="6.75552">
        <ele>1669</ele>
        <time>2026-08-14T06:02:55.376Z</time>
      </trkpt>
      <trkpt lat="45.83772" lon="6.75553">
        <ele>1669</ele>
        <time>2026-08-14T06:02:56.376Z</time>
      </trkpt>
      <trkpt lat="45.83771" lon="6.75553">
        <ele>1669</ele>
        <time>2026-08-14T06:02:57.376Z</time>
      </trkpt>
      <trkpt lat="45.8377" lon="6.75554">
        <ele>1669</ele>
        <time>2026-08-14T06:02:58.376Z</time>
      </trkpt>
      <trkpt lat="45.83769" lon="6.75554">
        <ele>1669</ele>
        <time>2026-08-14T06:02:59.376Z</time>
      </trkpt>
      <trkpt lat="45.83768" lon="6.75554">
        <ele>1669</ele>
        <time>2026-08-14T06:03:00.376Z</time>
      </trkpt>
      <trkpt lat="45.83768" lon="6.75554">
        <ele>1669</ele>
        <time>2026-08-14T06:03:01.376Z</time>
      </trkpt>
      <trkpt lat="45.83767" lon="6.75553">
        <ele>1669</ele>
        <time>2026-08-14T06:03:02.376Z</time>
      </trkpt>
      <trkpt lat="45.83766" lon="6.75552">
        <ele>1669</ele>
        <time>2026-08-14T06:03:03.376Z</time>
      </trkpt>
      <trkpt lat="45.83765" lon="6.75552">
        <ele>1669</ele>
        <time>2026-08-14T06:03:04.376Z</time>
      </trkpt>
      <trkpt lat="45.83765" lon="6.75552">
        <ele>1669</ele>
        <time>2026-08-14T06:03:05.376Z</time>
      </trkpt>
      <trkpt lat="45.83765" lon="6.75552">
        <ele>1670</ele>
        <time>2026-08-14T06:03:06.376Z</time>
      </trkpt>
      <trkpt lat="45.83765" lon="6.75551">
        <ele>1670</ele>
        <time>2026-08-14T06:03:07.376Z</time>
      </trkpt>
      <trkpt lat="45.83764" lon="6.75551">
        <ele>1671</ele>
        <time>2026-08-14T06:03:08.376Z</time>
      </trkpt>
      <trkpt lat="45.83764" lon="6.75551">
        <ele>1671</ele>
        <time>2026-08-14T06:03:09.376Z</time>
      </trkpt>
      <trkpt lat="45.83764" lon="6.75551">
        <ele>1671</ele>
        <time>2026-08-14T06:03:10.376Z</time>
      </trkpt>
      <trkpt lat="45.83764" lon="6.75551">
        <ele>1671</ele>
        <time>2026-08-14T06:03:11.376Z</time>
      </trkpt>
      <trkpt lat="45.83764" lon="6.75551">
        <ele>1672</ele>
        <time>2026-08-14T06:03:12.376Z</time>
      </trkpt>
      <trkpt lat="45.83764" lon="6.75551">
        <ele>1672</ele>
        <time>2026-08-14T06:03:13.376Z</time>
      </trkpt>
      <trkpt lat="45.83764" lon="6.75551">
        <ele>1673</ele>
        <time>2026-08-14T06:03:14.376Z</time>
      </trkpt>
      <trkpt lat="45.83764" lon="6.75551">
        <ele>1673</ele>
        <time>2026-08-14T06:03:15.376Z</time>
      </trkpt>
      <trkpt lat="45.83764" lon="6.7555">
        <ele>1674</ele>
        <time>2026-08-14T06:03:16.376Z</time>
      </trkpt>
      <trkpt lat="45.83764" lon="6.7555">
        <ele>1674</ele>
        <time>2026-08-14T06:03:17.376Z</time>
      </trkpt>
      <trkpt lat="45.83764" lon="6.7555">
        <ele>1675</ele>
        <time>2026-08-14T06:03:18.376Z</time>
      </trkpt>
      <trkpt lat="45.83764" lon="6.7555">
        <ele>1675</ele>
        <time>2026-08-14T06:03:19.376Z</time>
      </trkpt>
      <trkpt lat="45.83764" lon="6.7555">
        <ele>1676</ele>
        <time>2026-08-14T06:03:20.376Z</time>
      </trkpt>
      <trkpt lat="45.83764" lon="6.7555">
        <ele>1676</ele>
        <time>2026-08-14T06:03:21.376Z</time>
      </trkpt>
      <trkpt lat="45.83764" lon="6.7555">
        <ele>1677</ele>
        <time>2026-08-14T06:03:22.376Z</time>
      </trkpt>
      <trkpt lat="45.83764" lon="6.7555">
        <ele>1678</ele>
        <time>2026-08-14T06:03:23.376Z</time>
      </trkpt>
      <trkpt lat="45.83764" lon="6.7555">
        <ele>1678</ele>
        <time>2026-08-14T06:03:24.376Z</time>
      </trkpt>
      <trkpt lat="45.83764" lon="6.7555">
        <ele>1678</ele>
        <time>2026-08-14T06:03:25.376Z</time>
      </trkpt>
      <trkpt lat="45.83764" lon="6.7555">
        <ele>1679</ele>
        <time>2026-08-14T06:03:26.376Z</time>
      </trkpt>
      <trkpt lat="45.83764" lon="6.7555">
        <ele>1679</ele>
        <time>2026-08-14T06:03:27.376Z</time>
      </trkpt>
      <trkpt lat="45.83763" lon="6.7555">
        <ele>1679</ele>
        <time>2026-08-14T06:03:28.376Z</time>
      </trkpt>
      <trkpt lat="45.83762" lon="6.75551">
        <ele>1679</ele>
        <time>2026-08-14T06:03:29.376Z</time>
      </trkpt>
      <trkpt lat="45.83761" lon="6.75551">
        <ele>1679</ele>
        <time>2026-08-14T06:03:30.376Z</time>
      </trkpt>
      <trkpt lat="45.8376" lon="6.75552">
        <ele>1679</ele>
        <time>2026-08-14T06:03:31.376Z</time>
      </trkpt>
      <trkpt lat="45.8376" lon="6.75552">
        <ele>1679</ele>
        <time>2026-08-14T06:03:32.376Z</time>
      </trkpt>
      <trkpt lat="45.83759" lon="6.75552">
        <ele>1680</ele>
        <time>2026-08-14T06:03:33.376Z</time>
      </trkpt>
      <trkpt lat="45.83758" lon="6.75552">
        <ele>1680</ele>
        <time>2026-08-14T06:03:34.376Z</time>
      </trkpt>
      <trkpt lat="45.83757" lon="6.75552">
        <ele>1680</ele>
        <time>2026-08-14T06:03:35.376Z</time>
      </trkpt>
      <trkpt lat="45.83756" lon="6.75553">
        <ele>1680</ele>
        <time>2026-08-14T06:03:36.376Z</time>
      </trkpt>
      <trkpt lat="45.83756" lon="6.75554">
        <ele>1680</ele>
        <time>2026-08-14T06:03:37.376Z</time>
      </trkpt>
      <trkpt lat="45.83755" lon="6.75555">
        <ele>1680</ele>
        <time>2026-08-14T06:03:38.376Z</time>
      </trkpt>
      <trkpt lat="45.83755" lon="6.75556">
        <ele>1680</ele>
        <time>2026-08-14T06:03:39.376Z</time>
      </trkpt>
      <trkpt lat="45.83754" lon="6.75556">
        <ele>1680</ele>
        <time>2026-08-14T06:03:40.376Z</time>
      </trkpt>
      <trkpt lat="45.83753" lon="6.75557">
        <ele>1680</ele>
        <time>2026-08-14T06:03:41.376Z</time>
      </trkpt>
      <trkpt lat="45.83752" lon="6.75557">
        <ele>1680</ele>
        <time>2026-08-14T06:03:42.376Z</time>
      </trkpt>
      <trkpt lat="45.83752" lon="6.75558">
        <ele>1680</ele>
        <time>2026-08-14T06:03:43.376Z</time>
      </trkpt>
      <trkpt lat="45.83751" lon="6.75558">
        <ele>1679</ele>
        <time>2026-08-14T06:03:44.376Z</time>
      </trkpt>
      <trkpt lat="45.8375" lon="6.75559">
        <ele>1679</ele>
        <time>2026-08-14T06:03:45.376Z</time>
      </trkpt>
      <trkpt lat="45.8375" lon="6.75559">
        <ele>1678</ele>
        <time>2026-08-14T06:03:46.376Z</time>
      </trkpt>
      <trkpt lat="45.83749" lon="6.7556">
        <ele>1678</ele>
        <time>2026-08-14T06:03:47.376Z</time>
      </trkpt>
      <trkpt lat="45.83749" lon="6.7556">
        <ele>1678</ele>
        <time>2026-08-14T06:03:48.376Z</time>
      </trkpt>
      <trkpt lat="45.83748" lon="6.75561">
        <ele>1678</ele>
        <time>2026-08-14T06:03:49.376Z</time>
      </trkpt>
      <trkpt lat="45.83748" lon="6.75561">
        <ele>1677</ele>
        <time>2026-08-14T06:03:50.376Z</time>
      </trkpt>
      <trkpt lat="45.83747" lon="6.75562">
        <ele>1677</ele>
        <time>2026-08-14T06:03:51.376Z</time>
      </trkpt>
      <trkpt lat="45.83747" lon="6.75563">
        <ele>1677</ele>
        <time>2026-08-14T06:03:52.376Z</time>
      </trkpt>
      <trkpt lat="45.83746" lon="6.75563">
        <ele>1677</ele>
        <time>2026-08-14T06:03:53.376Z</time>
      </trkpt>
      <trkpt lat="45.83746" lon="6.75563">
        <ele>1677</ele>
        <time>2026-08-14T06:03:54.376Z</time>
      </trkpt>
      <trkpt lat="45.83745" lon="6.75563">
        <ele>1677</ele>
        <time>2026-08-14T06:03:55.376Z</time>
      </trkpt>
      <trkpt lat="45.83745" lon="6.75562">
        <ele>1677</ele>
        <time>2026-08-14T06:03:56.376Z</time>
      </trkpt>
      <trkpt lat="45.83745" lon="6.75562">
        <ele>1678</ele>
        <time>2026-08-14T06:03:57.376Z</time>
      </trkpt>
      <trkpt lat="45.83746" lon="6.75562">
        <ele>1678</ele>
        <time>2026-08-14T06:03:58.376Z</time>
      </trkpt>
      <trkpt lat="45.83746" lon="6.75561">
        <ele>1679</ele>
        <time>2026-08-14T06:03:59.376Z</time>
      </trkpt>
      <trkpt lat="45.83746" lon="6.75561">
        <ele>1679</ele>
        <time>2026-08-14T06:04:00.376Z</time>
      </trkpt>
      <trkpt lat="45.83746" lon="6.75561">
        <ele>1679</ele>
        <time>2026-08-14T06:04:01.376Z</time>
      </trkpt>
      <trkpt lat="45.83746" lon="6.7556">
        <ele>1680</ele>
        <time>2026-08-14T06:04:02.376Z</time>
      </trkpt>
      <trkpt lat="45.83745" lon="6.7556">
        <ele>1680</ele>
        <time>2026-08-14T06:04:03.376Z</time>
      </trkpt>
      <trkpt lat="45.83745" lon="6.7556">
        <ele>1680</ele>
        <time>2026-08-14T06:04:04.376Z</time>
      </trkpt>
      <trkpt lat="45.83745" lon="6.7556">
        <ele>1680</ele>
        <time>2026-08-14T06:04:05.376Z</time>
      </trkpt>
      <trkpt lat="45.83744" lon="6.7556">
        <ele>1680</ele>
        <time>2026-08-14T06:04:06.376Z</time>
      </trkpt>
      <trkpt lat="45.83744" lon="6.7556">
        <ele>1680</ele>
        <time>2026-08-14T06:04:07.376Z</time>
      </trkpt>
      <trkpt lat="45.83743" lon="6.7556">
        <ele>1681</ele>
        <time>2026-08-14T06:04:08.376Z</time>
      </trkpt>
      <trkpt lat="45.83743" lon="6.7556">
        <ele>1681</ele>
        <time>2026-08-14T06:04:09.376Z</time>
      </trkpt>
      <trkpt lat="45.83742" lon="6.75561">
        <ele>1680</ele>
        <time>2026-08-14T06:04:10.376Z</time>
      </trkpt>
      <trkpt lat="45.83742" lon="6.7556">
        <ele>1680</ele>
        <time>2026-08-14T06:04:11.376Z</time>
      </trkpt>
      <trkpt lat="45.83742" lon="6.7556">
        <ele>1680</ele>
        <time>2026-08-14T06:04:12.376Z</time>
      </trkpt>
      <trkpt lat="45.83741" lon="6.7556">
        <ele>1680</ele>
        <time>2026-08-14T06:04:13.376Z</time>
      </trkpt>
      <trkpt lat="45.83741" lon="6.7556">
        <ele>1680</ele>
        <time>2026-08-14T06:04:14.376Z</time>
      </trkpt>
      <trkpt lat="45.83741" lon="6.7556">
        <ele>1680</ele>
        <time>2026-08-14T06:04:15.376Z</time>
      </trkpt>
      <trkpt lat="45.8374" lon="6.7556">
        <ele>1680</ele>
        <time>2026-08-14T06:04:16.376Z</time>
      </trkpt>
      <trkpt lat="45.83739" lon="6.7556">
        <ele>1679</ele>
        <time>2026-08-14T06:04:17.376Z</time>
      </trkpt>
      <trkpt lat="45.83738" lon="6.7556">
        <ele>1679</ele>
        <time>2026-08-14T06:04:18.376Z</time>
      </trkpt>
      <trkpt lat="45.83738" lon="6.75561">
        <ele>1679</ele>
        <time>2026-08-14T06:04:19.376Z</time>
      </trkpt>
      <trkpt lat="45.83737" lon="6.75561">
        <ele>1678</ele>
        <time>2026-08-14T06:04:20.376Z</time>
      </trkpt>
      <trkpt lat="45.83737" lon="6.75561">
        <ele>1678</ele>
        <time>2026-08-14T06:04:21.376Z</time>
      </trkpt>
      <trkpt lat="45.83737" lon="6.75561">
        <ele>1678</ele>
        <time>2026-08-14T06:04:22.376Z</time>
      </trkpt>
      <trkpt lat="45.83736" lon="6.75561">
        <ele>1679</ele>
        <time>2026-08-14T06:04:23.376Z</time>
      </trkpt>
      <trkpt lat="45.83736" lon="6.75561">
        <ele>1679</ele>
        <time>2026-08-14T06:04:24.376Z</time>
      </trkpt>
      <trkpt lat="45.83735" lon="6.75561">
        <ele>1680</ele>
        <time>2026-08-14T06:04:25.376Z</time>
      </trkpt>
      <trkpt lat="45.83734" lon="6.75561">
        <ele>1680</ele>
        <time>2026-08-14T06:04:26.376Z</time>
      </trkpt>
      <trkpt lat="45.83733" lon="6.75561">
        <ele>1680</ele>
        <time>2026-08-14T06:04:27.376Z</time>
      </trkpt>
      <trkpt lat="45.83733" lon="6.75562">
        <ele>1680</ele>
        <time>2026-08-14T06:04:28.376Z</time>
      </trkpt>
      <trkpt lat="45.83732" lon="6.75563">
        <ele>1681</ele>
        <time>2026-08-14T06:04:29.376Z</time>
      </trkpt>
      <trkpt lat="45.83732" lon="6.75562">
        <ele>1681</ele>
        <time>2026-08-14T06:04:30.376Z</time>
      </trkpt>
      <trkpt lat="45.83731" lon="6.75562">
        <ele>1682</ele>
        <time>2026-08-14T06:04:31.376Z</time>
      </trkpt>
      <trkpt lat="45.83731" lon="6.75562">
        <ele>1682</ele>
        <time>2026-08-14T06:04:32.376Z</time>
      </trkpt>
      <trkpt lat="45.83731" lon="6.75562">
        <ele>1683</ele>
        <time>2026-08-14T06:04:33.376Z</time>
      </trkpt>
      <trkpt lat="45.8373" lon="6.75562">
        <ele>1683</ele>
        <time>2026-08-14T06:04:34.376Z</time>
      </trkpt>
      <trkpt lat="45.8373" lon="6.75562">
        <ele>1684</ele>
        <time>2026-08-14T06:04:35.376Z</time>
      </trkpt>
      <trkpt lat="45.83729" lon="6.75562">
        <ele>1684</ele>
        <time>2026-08-14T06:04:36.376Z</time>
      </trkpt>
      <trkpt lat="45.83728" lon="6.75562">
        <ele>1684</ele>
        <time>2026-08-14T06:04:37.376Z</time>
      </trkpt>
      <trkpt lat="45.83728" lon="6.75561">
        <ele>1684</ele>
        <time>2026-08-14T06:04:38.376Z</time>
      </trkpt>
      <trkpt lat="45.83727" lon="6.75561">
        <ele>1684</ele>
        <time>2026-08-14T06:04:39.376Z</time>
      </trkpt>
      <trkpt lat="45.83727" lon="6.7556">
        <ele>1684</ele>
        <time>2026-08-14T06:04:40.376Z</time>
      </trkpt>
      <trkpt lat="45.83727" lon="6.75561">
        <ele>1685</ele>
        <time>2026-08-14T06:04:41.376Z</time>
      </trkpt>
      <trkpt lat="45.83726" lon="6.75561">
        <ele>1685</ele>
        <time>2026-08-14T06:04:42.376Z</time>
      </trkpt>
      <trkpt lat="45.83726" lon="6.7556">
        <ele>1686</ele>
        <time>2026-08-14T06:04:43.376Z</time>
      </trkpt>
      <trkpt lat="45.83726" lon="6.7556">
        <ele>1686</ele>
        <time>2026-08-14T06:04:44.376Z</time>
      </trkpt>
      <trkpt lat="45.83725" lon="6.75559">
        <ele>1686</ele>
        <time>2026-08-14T06:04:45.376Z</time>
      </trkpt>
      <trkpt lat="45.83724" lon="6.75559">
        <ele>1687</ele>
        <time>2026-08-14T06:04:46.376Z</time>
      </trkpt>
      <trkpt lat="45.83724" lon="6.75559">
        <ele>1687</ele>
        <time>2026-08-14T06:04:47.376Z</time>
      </trkpt>
      <trkpt lat="45.83724" lon="6.75559">
        <ele>1687</ele>
        <time>2026-08-14T06:04:48.376Z</time>
      </trkpt>
      <trkpt lat="45.83723" lon="6.75559">
        <ele>1687</ele>
        <time>2026-08-14T06:04:49.376Z</time>
      </trkpt>
      <trkpt lat="45.83723" lon="6.75558">
        <ele>1687</ele>
        <time>2026-08-14T06:04:50.376Z</time>
      </trkpt>
      <trkpt lat="45.83723" lon="6.75558">
        <ele>1688</ele>
        <time>2026-08-14T06:04:51.376Z</time>
      </trkpt>
      <trkpt lat="45.83723" lon="6.75558">
        <ele>1688</ele>
        <time>2026-08-14T06:04:52.376Z</time>
      </trkpt>
      <trkpt lat="45.83723" lon="6.75558">
        <ele>1689</ele>
        <time>2026-08-14T06:04:53.376Z</time>
      </trkpt>
      <trkpt lat="45.83723" lon="6.75558">
        <ele>1690</ele>
        <time>2026-08-14T06:04:54.376Z</time>
      </trkpt>
      <trkpt lat="45.83723" lon="6.75559">
        <ele>1690</ele>
        <time>2026-08-14T06:04:55.376Z</time>
      </trkpt>
      <trkpt lat="45.83723" lon="6.7556">
        <ele>1690</ele>
        <time>2026-08-14T06:04:56.376Z</time>
      </trkpt>
      <trkpt lat="45.83723" lon="6.7556">
        <ele>1691</ele>
        <time>2026-08-14T06:04:57.376Z</time>
      </trkpt>
      <trkpt lat="45.83722" lon="6.7556">
        <ele>1691</ele>
        <time>2026-08-14T06:04:58.376Z</time>
      </trkpt>
      <trkpt lat="45.83722" lon="6.7556">
        <ele>1691</ele>
        <time>2026-08-14T06:04:59.376Z</time>
      </trkpt>
      <trkpt lat="45.83722" lon="6.7556">
        <ele>1692</ele>
        <time>2026-08-14T06:05:00.376Z</time>
      </trkpt>
      <trkpt lat="45.83722" lon="6.75561">
        <ele>1692</ele>
        <time>2026-08-14T06:05:01.376Z</time>
      </trkpt>
      <trkpt lat="45.83722" lon="6.7556">
        <ele>1692</ele>
        <time>2026-08-14T06:05:02.376Z</time>
      </trkpt>
      <trkpt lat="45.83722" lon="6.7556">
        <ele>1692</ele>
        <time>2026-08-14T06:05:03.376Z</time>
      </trkpt>
      <trkpt lat="45.83722" lon="6.7556">
        <ele>1692</ele>
        <time>2026-08-14T06:05:04.376Z</time>
      </trkpt>
      <trkpt lat="45.83722" lon="6.7556">
        <ele>1693</ele>
        <time>2026-08-14T06:05:05.376Z</time>
      </trkpt>
      <trkpt lat="45.83722" lon="6.7556">
        <ele>1693</ele>
        <time>2026-08-14T06:05:06.376Z</time>
      </trkpt>
      <trkpt lat="45.83722" lon="6.7556">
        <ele>1693</ele>
        <time>2026-08-14T06:05:07.376Z</time>
      </trkpt>
      <trkpt lat="45.83722" lon="6.7556">
        <ele>1693</ele>
        <time>2026-08-14T06:05:08.376Z</time>
      </trkpt>
      <trkpt lat="45.83722" lon="6.7556">
        <ele>1693</ele>
        <time>2026-08-14T06:05:09.376Z</time>
      </trkpt>
      <trkpt lat="45.83722" lon="6.75561">
        <ele>1694</ele>
        <time>2026-08-14T06:05:10.376Z</time>
      </trkpt>
      <trkpt lat="45.8372" lon="6.75561">
        <ele>1694</ele>
        <time>2026-08-14T06:05:11.376Z</time>
      </trkpt>
      <trkpt lat="45.83719" lon="6.75561">
        <ele>1694</ele>
        <time>2026-08-14T06:05:12.376Z</time>
      </trkpt>
      <trkpt lat="45.83717" lon="6.75562">
        <ele>1694</ele>
        <time>2026-08-14T06:05:13.376Z</time>
      </trkpt>
      <trkpt lat="45.83716" lon="6.75562">
        <ele>1695</ele>
        <time>2026-08-14T06:05:14.376Z</time>
      </trkpt>
      <trkpt lat="45.83714" lon="6.75562">
        <ele>1695</ele>
        <time>2026-08-14T06:05:15.376Z</time>
      </trkpt>
      <trkpt lat="45.83713" lon="6.75563">
        <ele>1696</ele>
        <time>2026-08-14T06:05:16.376Z</time>
      </trkpt>
      <trkpt lat="45.83711" lon="6.75563">
        <ele>1696</ele>
        <time>2026-08-14T06:05:17.376Z</time>
      </trkpt>
      <trkpt lat="45.83709" lon="6.75563">
        <ele>1697</ele>
        <time>2026-08-14T06:05:18.376Z</time>
      </trkpt>
      <trkpt lat="45.83708" lon="6.75564">
        <ele>1697</ele>
        <time>2026-08-14T06:05:19.376Z</time>
      </trkpt>
      <trkpt lat="45.83707" lon="6.75564">
        <ele>1697</ele>
        <time>2026-08-14T06:05:20.376Z</time>
      </trkpt>
      <trkpt lat="45.83706" lon="6.75564">
        <ele>1698</ele>
        <time>2026-08-14T06:05:21.376Z</time>
      </trkpt>
      <trkpt lat="45.83705" lon="6.75564">
        <ele>1699</ele>
        <time>2026-08-14T06:05:22.376Z</time>
      </trkpt>
      <trkpt lat="45.83704" lon="6.75564">
        <ele>1699</ele>
        <time>2026-08-14T06:05:23.376Z</time>
      </trkpt>
      <trkpt lat="45.83703" lon="6.75564">
        <ele>1699</ele>
        <time>2026-08-14T06:05:24.376Z</time>
      </trkpt>
      <trkpt lat="45.83702" lon="6.75563">
        <ele>1700</ele>
        <time>2026-08-14T06:05:25.376Z</time>
      </trkpt>
      <trkpt lat="45.83702" lon="6.75563">
        <ele>1700</ele>
        <time>2026-08-14T06:05:26.376Z</time>
      </trkpt>
      <trkpt lat="45.83702" lon="6.75562">
        <ele>1700</ele>
        <time>2026-08-14T06:05:27.376Z</time>
      </trkpt>
      <trkpt lat="45.83702" lon="6.75562">
        <ele>1700</ele>
        <time>2026-08-14T06:05:28.376Z</time>
      </trkpt>
      <trkpt lat="45.83702" lon="6.75562">
        <ele>1700</ele>
        <time>2026-08-14T06:05:29.376Z</time>
      </trkpt>
      <trkpt lat="45.83702" lon="6.75562">
        <ele>1700</ele>
        <time>2026-08-14T06:05:30.376Z</time>
      </trkpt>
      <trkpt lat="45.83702" lon="6.75561">
        <ele>1699</ele>
        <time>2026-08-14T06:05:31.376Z</time>
      </trkpt>
      <trkpt lat="45.83701" lon="6.75561">
        <ele>1699</ele>
        <time>2026-08-14T06:05:32.376Z</time>
      </trkpt>
      <trkpt lat="45.83701" lon="6.75562">
        <ele>1699</ele>
        <time>2026-08-14T06:05:33.376Z</time>
      </trkpt>
      <trkpt lat="45.837" lon="6.75562">
        <ele>1699</ele>
        <time>2026-08-14T06:05:34.376Z</time>
      </trkpt>
      <trkpt lat="45.837" lon="6.75561">
        <ele>1699</ele>
        <time>2026-08-14T06:05:35.376Z</time>
      </trkpt>
      <trkpt lat="45.837" lon="6.75562">
        <ele>1699</ele>
        <time>2026-08-14T06:05:36.376Z</time>
      </trkpt>
      <trkpt lat="45.83699" lon="6.75563">
        <ele>1700</ele>
        <time>2026-08-14T06:05:37.376Z</time>
      </trkpt>
      <trkpt lat="45.83698" lon="6.75564">
        <ele>1700</ele>
        <time>2026-08-14T06:05:38.376Z</time>
      </trkpt>
      <trkpt lat="45.83697" lon="6.75564">
        <ele>1701</ele>
        <time>2026-08-14T06:05:39.376Z</time>
      </trkpt>
      <trkpt lat="45.83697" lon="6.75564">
        <ele>1701</ele>
        <time>2026-08-14T06:05:40.376Z</time>
      </trkpt>
      <trkpt lat="45.83696" lon="6.75564">
        <ele>1701</ele>
        <time>2026-08-14T06:05:41.376Z</time>
      </trkpt>
      <trkpt lat="45.83695" lon="6.75564">
        <ele>1701</ele>
        <time>2026-08-14T06:05:42.376Z</time>
      </trkpt>
      <trkpt lat="45.83694" lon="6.75564">
        <ele>1702</ele>
        <time>2026-08-14T06:05:43.376Z</time>
      </trkpt>
      <trkpt lat="45.83694" lon="6.75564">
        <ele>1702</ele>
        <time>2026-08-14T06:05:44.376Z</time>
      </trkpt>
      <trkpt lat="45.83694" lon="6.75564">
        <ele>1702</ele>
        <time>2026-08-14T06:05:45.376Z</time>
      </trkpt>
      <trkpt lat="45.83693" lon="6.75564">
        <ele>1702</ele>
        <time>2026-08-14T06:05:46.376Z</time>
      </trkpt>
      <trkpt lat="45.83692" lon="6.75564">
        <ele>1702</ele>
        <time>2026-08-14T06:05:47.376Z</time>
      </trkpt>
      <trkpt lat="45.83691" lon="6.75564">
        <ele>1703</ele>
        <time>2026-08-14T06:05:48.376Z</time>
      </trkpt>
      <trkpt lat="45.8369" lon="6.75564">
        <ele>1703</ele>
        <time>2026-08-14T06:05:49.376Z</time>
      </trkpt>
      <trkpt lat="45.8369" lon="6.75564">
        <ele>1703</ele>
        <time>2026-08-14T06:05:50.376Z</time>
      </trkpt>
      <trkpt lat="45.83689" lon="6.75564">
        <ele>1703</ele>
        <time>2026-08-14T06:05:51.376Z</time>
      </trkpt>
      <trkpt lat="45.83688" lon="6.75564">
        <ele>1704</ele>
        <time>2026-08-14T06:05:52.376Z</time>
      </trkpt>
      <trkpt lat="45.83687" lon="6.75563">
        <ele>1704</ele>
        <time>2026-08-14T06:05:53.376Z</time>
      </trkpt>
      <trkpt lat="45.83686" lon="6.75563">
        <ele>1705</ele>
        <time>2026-08-14T06:05:54.376Z</time>
      </trkpt>
      <trkpt lat="45.83685" lon="6.75563">
        <ele>1706</ele>
        <time>2026-08-14T06:05:55.376Z</time>
      </trkpt>
      <trkpt lat="45.83685" lon="6.75562">
        <ele>1706</ele>
        <time>2026-08-14T06:05:56.376Z</time>
      </trkpt>
      <trkpt lat="45.83684" lon="6.75561">
        <ele>1706</ele>
        <time>2026-08-14T06:05:57.376Z</time>
      </trkpt>
      <trkpt lat="45.83683" lon="6.7556">
        <ele>1707</ele>
        <time>2026-08-14T06:05:58.376Z</time>
      </trkpt>
      <trkpt lat="45.83682" lon="6.75559">
        <ele>1707</ele>
        <time>2026-08-14T06:05:59.376Z</time>
      </trkpt>
      <trkpt lat="45.83682" lon="6.75558">
        <ele>1708</ele>
        <time>2026-08-14T06:06:00.376Z</time>
      </trkpt>
      <trkpt lat="45.83681" lon="6.75557">
        <ele>1708</ele>
        <time>2026-08-14T06:06:01.376Z</time>
      </trkpt>
      <trkpt lat="45.83681" lon="6.75557">
        <ele>1708</ele>
        <time>2026-08-14T06:06:02.376Z</time>
      </trkpt>
      <trkpt lat="45.83681" lon="6.75556">
        <ele>1708</ele>
        <time>2026-08-14T06:06:03.376Z</time>
      </trkpt>
      <trkpt lat="45.8368" lon="6.75556">
        <ele>1708</ele>
        <time>2026-08-14T06:06:04.376Z</time>
      </trkpt>
      <trkpt lat="45.8368" lon="6.75556">
        <ele>1709</ele>
        <time>2026-08-14T06:06:05.376Z</time>
      </trkpt>
      <trkpt lat="45.8368" lon="6.75555">
        <ele>1709</ele>
        <time>2026-08-14T06:06:06.376Z</time>
      </trkpt>
      <trkpt lat="45.8368" lon="6.75555">
        <ele>1709</ele>
        <time>2026-08-14T06:06:07.376Z</time>
      </trkpt>
      <trkpt lat="45.83681" lon="6.75554">
        <ele>1709</ele>
        <time>2026-08-14T06:06:08.376Z</time>
      </trkpt>
      <trkpt lat="45.83681" lon="6.75553">
        <ele>1709</ele>
        <time>2026-08-14T06:06:09.376Z</time>
      </trkpt>
      <trkpt lat="45.8368" lon="6.75551">
        <ele>1708</ele>
        <time>2026-08-14T06:06:10.376Z</time>
      </trkpt>
      <trkpt lat="45.8368" lon="6.7555">
        <ele>1708</ele>
        <time>2026-08-14T06:06:11.376Z</time>
      </trkpt>
      <trkpt lat="45.83679" lon="6.7555">
        <ele>1709</ele>
        <time>2026-08-14T06:06:12.376Z</time>
      </trkpt>
      <trkpt lat="45.83679" lon="6.75549">
        <ele>1710</ele>
        <time>2026-08-14T06:06:13.376Z</time>
      </trkpt>
      <trkpt lat="45.83678" lon="6.75548">
        <ele>1711</ele>
        <time>2026-08-14T06:06:14.376Z</time>
      </trkpt>
      <trkpt lat="45.83677" lon="6.75547">
        <ele>1712</ele>
        <time>2026-08-14T06:06:15.376Z</time>
      </trkpt>
      <trkpt lat="45.83677" lon="6.75546">
        <ele>1712</ele>
        <time>2026-08-14T06:06:16.376Z</time>
      </trkpt>
      <trkpt lat="45.83676" lon="6.75545">
        <ele>1713</ele>
        <time>2026-08-14T06:06:17.376Z</time>
      </trkpt>
      <trkpt lat="45.83676" lon="6.75545">
        <ele>1713</ele>
        <time>2026-08-14T06:06:18.376Z</time>
      </trkpt>
      <trkpt lat="45.83675" lon="6.75544">
        <ele>1713</ele>
        <time>2026-08-14T06:06:19.376Z</time>
      </trkpt>
      <trkpt lat="45.83675" lon="6.75544">
        <ele>1714</ele>
        <time>2026-08-14T06:06:20.376Z</time>
      </trkpt>
      <trkpt lat="45.83675" lon="6.75543">
        <ele>1714</ele>
        <time>2026-08-14T06:06:21.376Z</time>
      </trkpt>
      <trkpt lat="45.83675" lon="6.75542">
        <ele>1714</ele>
        <time>2026-08-14T06:06:22.376Z</time>
      </trkpt>
      <trkpt lat="45.83675" lon="6.7554">
        <ele>1715</ele>
        <time>2026-08-14T06:06:23.376Z</time>
      </trkpt>
      <trkpt lat="45.83674" lon="6.75539">
        <ele>1715</ele>
        <time>2026-08-14T06:06:24.376Z</time>
      </trkpt>
      <trkpt lat="45.83674" lon="6.75537">
        <ele>1715</ele>
        <time>2026-08-14T06:06:25.376Z</time>
      </trkpt>
      <trkpt lat="45.83675" lon="6.75536">
        <ele>1715</ele>
        <time>2026-08-14T06:06:26.376Z</time>
      </trkpt>
      <trkpt lat="45.83675" lon="6.75534">
        <ele>1715</ele>
        <time>2026-08-14T06:06:27.376Z</time>
      </trkpt>
      <trkpt lat="45.83675" lon="6.75533">
        <ele>1715</ele>
        <time>2026-08-14T06:06:28.376Z</time>
      </trkpt>
      <trkpt lat="45.83675" lon="6.75532">
        <ele>1715</ele>
        <time>2026-08-14T06:06:29.376Z</time>
      </trkpt>
      <trkpt lat="45.83676" lon="6.75531">
        <ele>1715</ele>
        <time>2026-08-14T06:06:30.376Z</time>
      </trkpt>
      <trkpt lat="45.83675" lon="6.75531">
        <ele>1715</ele>
        <time>2026-08-14T06:06:31.376Z</time>
      </trkpt>
      <trkpt lat="45.83675" lon="6.7553">
        <ele>1716</ele>
        <time>2026-08-14T06:06:32.376Z</time>
      </trkpt>
      <trkpt lat="45.83675" lon="6.7553">
        <ele>1716</ele>
        <time>2026-08-14T06:06:33.376Z</time>
      </trkpt>
      <trkpt lat="45.83674" lon="6.7553">
        <ele>1716</ele>
        <time>2026-08-14T06:06:34.376Z</time>
      </trkpt>
      <trkpt lat="45.83673" lon="6.7553">
        <ele>1716</ele>
        <time>2026-08-14T06:06:35.376Z</time>
      </trkpt>
      <trkpt lat="45.83673" lon="6.75529">
        <ele>1716</ele>
        <time>2026-08-14T06:06:36.376Z</time>
      </trkpt>
      <trkpt lat="45.83672" lon="6.75529">
        <ele>1716</ele>
        <time>2026-08-14T06:06:37.376Z</time>
      </trkpt>
      <trkpt lat="45.83672" lon="6.75528">
        <ele>1717</ele>
        <time>2026-08-14T06:06:38.376Z</time>
      </trkpt>
      <trkpt lat="45.83671" lon="6.75528">
        <ele>1717</ele>
        <time>2026-08-14T06:06:39.376Z</time>
      </trkpt>
      <trkpt lat="45.83671" lon="6.75528">
        <ele>1717</ele>
        <time>2026-08-14T06:06:40.376Z</time>
      </trkpt>
      <trkpt lat="45.8367" lon="6.75528">
        <ele>1717</ele>
        <time>2026-08-14T06:06:41.376Z</time>
      </trkpt>
      <trkpt lat="45.83669" lon="6.75529">
        <ele>1717</ele>
        <time>2026-08-14T06:06:42.376Z</time>
      </trkpt>
      <trkpt lat="45.83668" lon="6.75529">
        <ele>1717</ele>
        <time>2026-08-14T06:06:43.376Z</time>
      </trkpt>
      <trkpt lat="45.83668" lon="6.75528">
        <ele>1717</ele>
        <time>2026-08-14T06:06:44.376Z</time>
      </trkpt>
      <trkpt lat="45.83667" lon="6.75528">
        <ele>1717</ele>
        <time>2026-08-14T06:06:45.376Z</time>
      </trkpt>
      <trkpt lat="45.83666" lon="6.75528">
        <ele>1718</ele>
        <time>2026-08-14T06:06:46.376Z</time>
      </trkpt>
      <trkpt lat="45.83666" lon="6.75527">
        <ele>1718</ele>
        <time>2026-08-14T06:06:47.376Z</time>
      </trkpt>
      <trkpt lat="45.83665" lon="6.75527">
        <ele>1718</ele>
        <time>2026-08-14T06:06:48.376Z</time>
      </trkpt>
      <trkpt lat="45.83665" lon="6.75527">
        <ele>1719</ele>
        <time>2026-08-14T06:06:49.376Z</time>
      </trkpt>
      <trkpt lat="45.83664" lon="6.75528">
        <ele>1719</ele>
        <time>2026-08-14T06:06:50.376Z</time>
      </trkpt>
      <trkpt lat="45.83663" lon="6.75528">
        <ele>1719</ele>
        <time>2026-08-14T06:06:51.376Z</time>
      </trkpt>
      <trkpt lat="45.83663" lon="6.75528">
        <ele>1720</ele>
        <time>2026-08-14T06:06:52.376Z</time>
      </trkpt>
      <trkpt lat="45.83662" lon="6.75529">
        <ele>1720</ele>
        <time>2026-08-14T06:06:53.376Z</time>
      </trkpt>
      <trkpt lat="45.83661" lon="6.75529">
        <ele>1720</ele>
        <time>2026-08-14T06:06:54.376Z</time>
      </trkpt>
      <trkpt lat="45.8366" lon="6.75529">
        <ele>1721</ele>
        <time>2026-08-14T06:06:55.376Z</time>
      </trkpt>
      <trkpt lat="45.8366" lon="6.75529">
        <ele>1721</ele>
        <time>2026-08-14T06:06:56.376Z</time>
      </trkpt>
      <trkpt lat="45.8366" lon="6.75529">
        <ele>1721</ele>
        <time>2026-08-14T06:06:57.376Z</time>
      </trkpt>
      <trkpt lat="45.83659" lon="6.75529">
        <ele>1722</ele>
        <time>2026-08-14T06:06:58.376Z</time>
      </trkpt>
      <trkpt lat="45.83659" lon="6.75529">
        <ele>1722</ele>
        <time>2026-08-14T06:06:59.376Z</time>
      </trkpt>
      <trkpt lat="45.83658" lon="6.75528">
        <ele>1722</ele>
        <time>2026-08-14T06:07:00.376Z</time>
      </trkpt>
      <trkpt lat="45.83657" lon="6.75527">
        <ele>1722</ele>
        <time>2026-08-14T06:07:01.376Z</time>
      </trkpt>
      <trkpt lat="45.83657" lon="6.75527">
        <ele>1723</ele>
        <time>2026-08-14T06:07:02.376Z</time>
      </trkpt>
      <trkpt lat="45.83657" lon="6.75527">
        <ele>1723</ele>
        <time>2026-08-14T06:07:03.376Z</time>
      </trkpt>
      <trkpt lat="45.83656" lon="6.75527">
        <ele>1722</ele>
        <time>2026-08-14T06:07:04.376Z</time>
      </trkpt>
      <trkpt lat="45.83656" lon="6.75528">
        <ele>1722</ele>
        <time>2026-08-14T06:07:05.376Z</time>
      </trkpt>
      <trkpt lat="45.83655" lon="6.75528">
        <ele>1722</ele>
        <time>2026-08-14T06:07:06.376Z</time>
      </trkpt>
      <trkpt lat="45.83655" lon="6.75529">
        <ele>1722</ele>
        <time>2026-08-14T06:07:07.376Z</time>
      </trkpt>
      <trkpt lat="45.83654" lon="6.75529">
        <ele>1722</ele>
        <time>2026-08-14T06:07:08.376Z</time>
      </trkpt>
      <trkpt lat="45.83654" lon="6.75529">
        <ele>1721</ele>
        <time>2026-08-14T06:07:09.376Z</time>
      </trkpt>
      <trkpt lat="45.83654" lon="6.7553">
        <ele>1721</ele>
        <time>2026-08-14T06:07:10.376Z</time>
      </trkpt>
      <trkpt lat="45.83653" lon="6.75529">
        <ele>1721</ele>
        <time>2026-08-14T06:07:11.376Z</time>
      </trkpt>
      <trkpt lat="45.83652" lon="6.75529">
        <ele>1721</ele>
        <time>2026-08-14T06:07:12.376Z</time>
      </trkpt>
      <trkpt lat="45.83652" lon="6.75529">
        <ele>1721</ele>
        <time>2026-08-14T06:07:13.376Z</time>
      </trkpt>
      <trkpt lat="45.83651" lon="6.75528">
        <ele>1721</ele>
        <time>2026-08-14T06:07:14.376Z</time>
      </trkpt>
      <trkpt lat="45.83651" lon="6.75528">
        <ele>1721</ele>
        <time>2026-08-14T06:07:15.376Z</time>
      </trkpt>
      <trkpt lat="45.8365" lon="6.75527">
        <ele>1721</ele>
        <time>2026-08-14T06:07:16.376Z</time>
      </trkpt>
      <trkpt lat="45.8365" lon="6.75527">
        <ele>1720</ele>
        <time>2026-08-14T06:07:17.376Z</time>
      </trkpt>
      <trkpt lat="45.8365" lon="6.75527">
        <ele>1720</ele>
        <time>2026-08-14T06:07:18.376Z</time>
      </trkpt>
      <trkpt lat="45.83649" lon="6.75527">
        <ele>1720</ele>
        <time>2026-08-14T06:07:19.376Z</time>
      </trkpt>
      <trkpt lat="45.83648" lon="6.75527">
        <ele>1721</ele>
        <time>2026-08-14T06:07:20.376Z</time>
      </trkpt>
      <trkpt lat="45.83648" lon="6.75527">
        <ele>1721</ele>
        <time>2026-08-14T06:07:21.376Z</time>
      </trkpt>
      <trkpt lat="45.83648" lon="6.75526">
        <ele>1721</ele>
        <time>2026-08-14T06:07:22.376Z</time>
      </trkpt>
      <trkpt lat="45.83647" lon="6.75526">
        <ele>1722</ele>
        <time>2026-08-14T06:07:23.376Z</time>
      </trkpt>
      <trkpt lat="45.83646" lon="6.75526">
        <ele>1722</ele>
        <time>2026-08-14T06:07:24.376Z</time>
      </trkpt>
      <trkpt lat="45.83645" lon="6.75526">
        <ele>1722</ele>
        <time>2026-08-14T06:07:25.376Z</time>
      </trkpt>
      <trkpt lat="45.83644" lon="6.75525">
        <ele>1723</ele>
        <time>2026-08-14T06:07:26.376Z</time>
      </trkpt>
      <trkpt lat="45.83643" lon="6.75525">
        <ele>1724</ele>
        <time>2026-08-14T06:07:27.376Z</time>
      </trkpt>
      <trkpt lat="45.83643" lon="6.75525">
        <ele>1724</ele>
        <time>2026-08-14T06:07:28.376Z</time>
      </trkpt>
      <trkpt lat="45.83642" lon="6.75525">
        <ele>1725</ele>
        <time>2026-08-14T06:07:29.376Z</time>
      </trkpt>
      <trkpt lat="45.83641" lon="6.75525">
        <ele>1725</ele>
        <time>2026-08-14T06:07:30.376Z</time>
      </trkpt>
      <trkpt lat="45.83641" lon="6.75525">
        <ele>1726</ele>
        <time>2026-08-14T06:07:31.376Z</time>
      </trkpt>
      <trkpt lat="45.8364" lon="6.75524">
        <ele>1726</ele>
        <time>2026-08-14T06:07:32.376Z</time>
      </trkpt>
      <trkpt lat="45.8364" lon="6.75524">
        <ele>1726</ele>
        <time>2026-08-14T06:07:33.376Z</time>
      </trkpt>
      <trkpt lat="45.83639" lon="6.75523">
        <ele>1726</ele>
        <time>2026-08-14T06:07:34.376Z</time>
      </trkpt>
      <trkpt lat="45.83639" lon="6.75522">
        <ele>1726</ele>
        <time>2026-08-14T06:07:35.376Z</time>
      </trkpt>
      <trkpt lat="45.83639" lon="6.7552">
        <ele>1726</ele>
        <time>2026-08-14T06:07:36.376Z</time>
      </trkpt>
      <trkpt lat="45.83638" lon="6.75519">
        <ele>1726</ele>
        <time>2026-08-14T06:07:37.376Z</time>
      </trkpt>
      <trkpt lat="45.83638" lon="6.75518">
        <ele>1726</ele>
        <time>2026-08-14T06:07:38.376Z</time>
      </trkpt>
      <trkpt lat="45.83637" lon="6.75518">
        <ele>1726</ele>
        <time>2026-08-14T06:07:39.376Z</time>
      </trkpt>
      <trkpt lat="45.83636" lon="6.75517">
        <ele>1726</ele>
        <time>2026-08-14T06:07:40.376Z</time>
      </trkpt>
      <trkpt lat="45.83635" lon="6.75516">
        <ele>1726</ele>
        <time>2026-08-14T06:07:41.376Z</time>
      </trkpt>
      <trkpt lat="45.83635" lon="6.75515">
        <ele>1726</ele>
        <time>2026-08-14T06:07:42.376Z</time>
      </trkpt>
      <trkpt lat="45.83633" lon="6.75514">
        <ele>1727</ele>
        <time>2026-08-14T06:07:43.376Z</time>
      </trkpt>
      <trkpt lat="45.83633" lon="6.75513">
        <ele>1727</ele>
        <time>2026-08-14T06:07:44.376Z</time>
      </trkpt>
      <trkpt lat="45.83633" lon="6.75512">
        <ele>1727</ele>
        <time>2026-08-14T06:07:45.376Z</time>
      </trkpt>
      <trkpt lat="45.83632" lon="6.7551">
        <ele>1727</ele>
        <time>2026-08-14T06:07:46.376Z</time>
      </trkpt>
      <trkpt lat="45.83631" lon="6.75508">
        <ele>1727</ele>
        <time>2026-08-14T06:07:47.376Z</time>
      </trkpt>
      <trkpt lat="45.83631" lon="6.75507">
        <ele>1727</ele>
        <time>2026-08-14T06:07:48.376Z</time>
      </trkpt>
      <trkpt lat="45.8363" lon="6.75505">
        <ele>1727</ele>
        <time>2026-08-14T06:07:49.376Z</time>
      </trkpt>
      <trkpt lat="45.8363" lon="6.75503">
        <ele>1727</ele>
        <time>2026-08-14T06:07:50.376Z</time>
      </trkpt>
      <trkpt lat="45.83631" lon="6.75502">
        <ele>1728</ele>
        <time>2026-08-14T06:07:51.376Z</time>
      </trkpt>
      <trkpt lat="45.83631" lon="6.75501">
        <ele>1728</ele>
        <time>2026-08-14T06:07:52.376Z</time>
      </trkpt>
      <trkpt lat="45.83631" lon="6.75499">
        <ele>1728</ele>
        <time>2026-08-14T06:07:53.376Z</time>
      </trkpt>
      <trkpt lat="45.83631" lon="6.75498">
        <ele>1729</ele>
        <time>2026-08-14T06:07:54.376Z</time>
      </trkpt>
      <trkpt lat="45.83631" lon="6.75497">
        <ele>1729</ele>
        <time>2026-08-14T06:07:55.376Z</time>
      </trkpt>
      <trkpt lat="45.83631" lon="6.75495">
        <ele>1729</ele>
        <time>2026-08-14T06:07:56.376Z</time>
      </trkpt>
      <trkpt lat="45.83631" lon="6.75495">
        <ele>1729</ele>
        <time>2026-08-14T06:07:57.376Z</time>
      </trkpt>
      <trkpt lat="45.83631" lon="6.75494">
        <ele>1730</ele>
        <time>2026-08-14T06:07:58.376Z</time>
      </trkpt>
      <trkpt lat="45.83631" lon="6.75492">
        <ele>1730</ele>
        <time>2026-08-14T06:07:59.376Z</time>
      </trkpt>
      <trkpt lat="45.83631" lon="6.75491">
        <ele>1730</ele>
        <time>2026-08-14T06:08:00.376Z</time>
      </trkpt>
      <trkpt lat="45.83631" lon="6.7549">
        <ele>1730</ele>
        <time>2026-08-14T06:08:01.376Z</time>
      </trkpt>
      <trkpt lat="45.83631" lon="6.75489">
        <ele>1730</ele>
        <time>2026-08-14T06:08:02.376Z</time>
      </trkpt>
      <trkpt lat="45.83632" lon="6.75487">
        <ele>1730</ele>
        <time>2026-08-14T06:08:03.376Z</time>
      </trkpt>
      <trkpt lat="45.83632" lon="6.75486">
        <ele>1730</ele>
        <time>2026-08-14T06:08:04.376Z</time>
      </trkpt>
      <trkpt lat="45.83632" lon="6.75486">
        <ele>1730</ele>
        <time>2026-08-14T06:08:05.376Z</time>
      </trkpt>
      <trkpt lat="45.83633" lon="6.75485">
        <ele>1730</ele>
        <time>2026-08-14T06:08:06.376Z</time>
      </trkpt>
      <trkpt lat="45.83633" lon="6.75485">
        <ele>1730</ele>
        <time>2026-08-14T06:08:07.376Z</time>
      </trkpt>
      <trkpt lat="45.83633" lon="6.75484">
        <ele>1731</ele>
        <time>2026-08-14T06:08:08.376Z</time>
      </trkpt>
      <trkpt lat="45.83633" lon="6.75484">
        <ele>1731</ele>
        <time>2026-08-14T06:08:09.376Z</time>
      </trkpt>
      <trkpt lat="45.83633" lon="6.75483">
        <ele>1731</ele>
        <time>2026-08-14T06:08:10.376Z</time>
      </trkpt>
      <trkpt lat="45.83633" lon="6.75483">
        <ele>1732</ele>
        <time>2026-08-14T06:08:11.376Z</time>
      </trkpt>
      <trkpt lat="45.83633" lon="6.75483">
        <ele>1732</ele>
        <time>2026-08-14T06:08:12.376Z</time>
      </trkpt>
      <trkpt lat="45.83632" lon="6.75482">
        <ele>1731</ele>
        <time>2026-08-14T06:08:13.376Z</time>
      </trkpt>
      <trkpt lat="45.83632" lon="6.75482">
        <ele>1731</ele>
        <time>2026-08-14T06:08:14.376Z</time>
      </trkpt>
      <trkpt lat="45.83632" lon="6.75482">
        <ele>1731</ele>
        <time>2026-08-14T06:08:15.376Z</time>
      </trkpt>
      <trkpt lat="45.83631" lon="6.75482">
        <ele>1731</ele>
        <time>2026-08-14T06:08:16.376Z</time>
      </trkpt>
      <trkpt lat="45.8363" lon="6.75482">
        <ele>1731</ele>
        <time>2026-08-14T06:08:17.376Z</time>
      </trkpt>
      <trkpt lat="45.83629" lon="6.75482">
        <ele>1731</ele>
        <time>2026-08-14T06:08:18.376Z</time>
      </trkpt>
      <trkpt lat="45.83629" lon="6.75481">
        <ele>1731</ele>
        <time>2026-08-14T06:08:19.376Z</time>
      </trkpt>
      <trkpt lat="45.83628" lon="6.75481">
        <ele>1731</ele>
        <time>2026-08-14T06:08:20.376Z</time>
      </trkpt>
      <trkpt lat="45.83628" lon="6.7548">
        <ele>1731</ele>
        <time>2026-08-14T06:08:21.376Z</time>
      </trkpt>
      <trkpt lat="45.83627" lon="6.75479">
        <ele>1732</ele>
        <time>2026-08-14T06:08:22.376Z</time>
      </trkpt>
      <trkpt lat="45.83626" lon="6.75478">
        <ele>1732</ele>
        <time>2026-08-14T06:08:23.376Z</time>
      </trkpt>
      <trkpt lat="45.83626" lon="6.75477">
        <ele>1732</ele>
        <time>2026-08-14T06:08:24.376Z</time>
      </trkpt>
      <trkpt lat="45.83625" lon="6.75477">
        <ele>1732</ele>
        <time>2026-08-14T06:08:25.376Z</time>
      </trkpt>
      <trkpt lat="45.83624" lon="6.75476">
        <ele>1732</ele>
        <time>2026-08-14T06:08:26.376Z</time>
      </trkpt>
      <trkpt lat="45.83623" lon="6.75476">
        <ele>1732</ele>
        <time>2026-08-14T06:08:27.376Z</time>
      </trkpt>
      <trkpt lat="45.83622" lon="6.75475">
        <ele>1733</ele>
        <time>2026-08-14T06:08:28.376Z</time>
      </trkpt>
      <trkpt lat="45.83621" lon="6.75475">
        <ele>1733</ele>
        <time>2026-08-14T06:08:29.376Z</time>
      </trkpt>
      <trkpt lat="45.8362" lon="6.75474">
        <ele>1733</ele>
        <time>2026-08-14T06:08:30.376Z</time>
      </trkpt>
      <trkpt lat="45.83618" lon="6.75474">
        <ele>1734</ele>
        <time>2026-08-14T06:08:31.376Z</time>
      </trkpt>
      <trkpt lat="45.83617" lon="6.75474">
        <ele>1734</ele>
        <time>2026-08-14T06:08:32.376Z</time>
      </trkpt>
      <trkpt lat="45.83616" lon="6.75473">
        <ele>1734</ele>
        <time>2026-08-14T06:08:33.376Z</time>
      </trkpt>
      <trkpt lat="45.83616" lon="6.75473">
        <ele>1735</ele>
        <time>2026-08-14T06:08:34.376Z</time>
      </trkpt>
      <trkpt lat="45.83615" lon="6.75472">
        <ele>1735</ele>
        <time>2026-08-14T06:08:35.376Z</time>
      </trkpt>
      <trkpt lat="45.83614" lon="6.75472">
        <ele>1735</ele>
        <time>2026-08-14T06:08:36.376Z</time>
      </trkpt>
      <trkpt lat="45.83613" lon="6.75471">
        <ele>1735</ele>
        <time>2026-08-14T06:08:37.376Z</time>
      </trkpt>
      <trkpt lat="45.83612" lon="6.7547">
        <ele>1735</ele>
        <time>2026-08-14T06:08:38.376Z</time>
      </trkpt>
      <trkpt lat="45.83612" lon="6.75469">
        <ele>1735</ele>
        <time>2026-08-14T06:08:39.376Z</time>
      </trkpt>
      <trkpt lat="45.83611" lon="6.75468">
        <ele>1736</ele>
        <time>2026-08-14T06:08:40.376Z</time>
      </trkpt>
      <trkpt lat="45.83611" lon="6.75466">
        <ele>1736</ele>
        <time>2026-08-14T06:08:41.376Z</time>
      </trkpt>
      <trkpt lat="45.8361" lon="6.75465">
        <ele>1736</ele>
        <time>2026-08-14T06:08:42.376Z</time>
      </trkpt>
      <trkpt lat="45.8361" lon="6.75464">
        <ele>1736</ele>
        <time>2026-08-14T06:08:43.376Z</time>
      </trkpt>
      <trkpt lat="45.83609" lon="6.75462">
        <ele>1736</ele>
        <time>2026-08-14T06:08:44.376Z</time>
      </trkpt>
      <trkpt lat="45.83609" lon="6.75461">
        <ele>1737</ele>
        <time>2026-08-14T06:08:45.376Z</time>
      </trkpt>
      <trkpt lat="45.83608" lon="6.7546">
        <ele>1737</ele>
        <time>2026-08-14T06:08:46.376Z</time>
      </trkpt>
      <trkpt lat="45.83607" lon="6.75459">
        <ele>1738</ele>
        <time>2026-08-14T06:08:47.376Z</time>
      </trkpt>
      <trkpt lat="45.83606" lon="6.75458">
        <ele>1738</ele>
        <time>2026-08-14T06:08:48.376Z</time>
      </trkpt>
      <trkpt lat="45.83605" lon="6.75456">
        <ele>1738</ele>
        <time>2026-08-14T06:08:49.376Z</time>
      </trkpt>
      <trkpt lat="45.83604" lon="6.75455">
        <ele>1739</ele>
        <time>2026-08-14T06:08:50.376Z</time>
      </trkpt>
      <trkpt lat="45.83603" lon="6.75453">
        <ele>1739</ele>
        <time>2026-08-14T06:08:51.376Z</time>
      </trkpt>
      <trkpt lat="45.83603" lon="6.75451">
        <ele>1739</ele>
        <time>2026-08-14T06:08:52.376Z</time>
      </trkpt>
      <trkpt lat="45.83603" lon="6.75448">
        <ele>1739</ele>
        <time>2026-08-14T06:08:53.376Z</time>
      </trkpt>
      <trkpt lat="45.83603" lon="6.75446">
        <ele>1739</ele>
        <time>2026-08-14T06:08:54.376Z</time>
      </trkpt>
      <trkpt lat="45.83603" lon="6.75444">
        <ele>1739</ele>
        <time>2026-08-14T06:08:55.376Z</time>
      </trkpt>
      <trkpt lat="45.83604" lon="6.75441">
        <ele>1739</ele>
        <time>2026-08-14T06:08:56.376Z</time>
      </trkpt>
      <trkpt lat="45.83604" lon="6.75424">
        <ele>1733</ele>
        <time>2026-08-14T06:09:18.463Z</time>
      </trkpt>
      <trkpt lat="45.83604" lon="6.75422">
        <ele>1733</ele>
        <time>2026-08-14T06:09:19.463Z</time>
      </trkpt>
      <trkpt lat="45.83604" lon="6.75419">
        <ele>1733</ele>
        <time>2026-08-14T06:09:20.463Z</time>
      </trkpt>
      <trkpt lat="45.83605" lon="6.75416">
        <ele>1733</ele>
        <time>2026-08-14T06:09:21.463Z</time>
      </trkpt>
      <trkpt lat="45.83605" lon="6.75413">
        <ele>1734</ele>
        <time>2026-08-14T06:09:22.463Z</time>
      </trkpt>
      <trkpt lat="45.83605" lon="6.75411">
        <ele>1734</ele>
        <time>2026-08-14T06:09:23.463Z</time>
      </trkpt>
      <trkpt lat="45.83606" lon="6.75408">
        <ele>1734</ele>
        <time>2026-08-14T06:09:24.463Z</time>
      </trkpt>
      <trkpt lat="45.83606" lon="6.75405">
        <ele>1734</ele>
        <time>2026-08-14T06:09:25.463Z</time>
      </trkpt>
      <trkpt lat="45.83607" lon="6.75403">
        <ele>1734</ele>
        <time>2026-08-14T06:09:26.463Z</time>
      </trkpt>
      <trkpt lat="45.83608" lon="6.75401">
        <ele>1734</ele>
        <time>2026-08-14T06:09:27.463Z</time>
      </trkpt>
      <trkpt lat="45.83609" lon="6.75398">
        <ele>1734</ele>
        <time>2026-08-14T06:09:28.463Z</time>
      </trkpt>
      <trkpt lat="45.8361" lon="6.75396">
        <ele>1734</ele>
        <time>2026-08-14T06:09:29.463Z</time>
      </trkpt>
      <trkpt lat="45.8361" lon="6.75394">
        <ele>1734</ele>
        <time>2026-08-14T06:09:30.463Z</time>
      </trkpt>
      <trkpt lat="45.83611" lon="6.75392">
        <ele>1734</ele>
        <time>2026-08-14T06:09:31.463Z</time>
      </trkpt>
      <trkpt lat="45.83612" lon="6.7539">
        <ele>1734</ele>
        <time>2026-08-14T06:09:32.463Z</time>
      </trkpt>
      <trkpt lat="45.83613" lon="6.75388">
        <ele>1734</ele>
        <time>2026-08-14T06:09:33.463Z</time>
      </trkpt>
      <trkpt lat="45.83614" lon="6.75386">
        <ele>1735</ele>
        <time>2026-08-14T06:09:34.463Z</time>
      </trkpt>
      <trkpt lat="45.83615" lon="6.75384">
        <ele>1735</ele>
        <time>2026-08-14T06:09:35.463Z</time>
      </trkpt>
      <trkpt lat="45.83616" lon="6.75381">
        <ele>1735</ele>
        <time>2026-08-14T06:09:36.463Z</time>
      </trkpt>
      <trkpt lat="45.83616" lon="6.75379">
        <ele>1736</ele>
        <time>2026-08-14T06:09:37.463Z</time>
      </trkpt>
      <trkpt lat="45.83616" lon="6.75377">
        <ele>1736</ele>
        <time>2026-08-14T06:09:38.463Z</time>
      </trkpt>
      <trkpt lat="45.83617" lon="6.75374">
        <ele>1736</ele>
        <time>2026-08-14T06:09:39.463Z</time>
      </trkpt>
      <trkpt lat="45.83618" lon="6.75372">
        <ele>1737</ele>
        <time>2026-08-14T06:09:40.463Z</time>
      </trkpt>
      <trkpt lat="45.83618" lon="6.7537">
        <ele>1737</ele>
        <time>2026-08-14T06:09:41.463Z</time>
      </trkpt>
      <trkpt lat="45.83619" lon="6.75367">
        <ele>1737</ele>
        <time>2026-08-14T06:09:42.463Z</time>
      </trkpt>
      <trkpt lat="45.8362" lon="6.75365">
        <ele>1737</ele>
        <time>2026-08-14T06:09:43.463Z</time>
      </trkpt>
      <trkpt lat="45.8362" lon="6.75362">
        <ele>1737</ele>
        <time>2026-08-14T06:09:44.463Z</time>
      </trkpt>
      <trkpt lat="45.83621" lon="6.75359">
        <ele>1737</ele>
        <time>2026-08-14T06:09:45.463Z</time>
      </trkpt>
      <trkpt lat="45.83621" lon="6.75356">
        <ele>1737</ele>
        <time>2026-08-14T06:09:46.463Z</time>
      </trkpt>
      <trkpt lat="45.83622" lon="6.75354">
        <ele>1737</ele>
        <time>2026-08-14T06:09:47.463Z</time>
      </trkpt>
      <trkpt lat="45.83623" lon="6.75351">
        <ele>1737</ele>
        <time>2026-08-14T06:09:48.463Z</time>
      </trkpt>
      <trkpt lat="45.83624" lon="6.75349">
        <ele>1737</ele>
        <time>2026-08-14T06:09:49.463Z</time>
      </trkpt>
      <trkpt lat="45.83625" lon="6.75347">
        <ele>1737</ele>
        <time>2026-08-14T06:09:50.463Z</time>
      </trkpt>
      <trkpt lat="45.83626" lon="6.75346">
        <ele>1737</ele>
        <time>2026-08-14T06:09:51.463Z</time>
      </trkpt>
      <trkpt lat="45.83627" lon="6.75344">
        <ele>1737</ele>
        <time>2026-08-14T06:09:52.463Z</time>
      </trkpt>
      <trkpt lat="45.83628" lon="6.75342">
        <ele>1737</ele>
        <time>2026-08-14T06:09:53.463Z</time>
      </trkpt>
      <trkpt lat="45.83629" lon="6.7534">
        <ele>1737</ele>
        <time>2026-08-14T06:09:54.463Z</time>
      </trkpt>
      <trkpt lat="45.83629" lon="6.75338">
        <ele>1737</ele>
        <time>2026-08-14T06:09:55.463Z</time>
      </trkpt>
      <trkpt lat="45.83629" lon="6.75335">
        <ele>1737</ele>
        <time>2026-08-14T06:09:56.463Z</time>
      </trkpt>
      <trkpt lat="45.83629" lon="6.75333">
        <ele>1737</ele>
        <time>2026-08-14T06:09:57.463Z</time>
      </trkpt>
      <trkpt lat="45.8363" lon="6.7533">
        <ele>1737</ele>
        <time>2026-08-14T06:09:58.463Z</time>
      </trkpt>
      <trkpt lat="45.8363" lon="6.75328">
        <ele>1738</ele>
        <time>2026-08-14T06:09:59.463Z</time>
      </trkpt>
      <trkpt lat="45.83631" lon="6.75326">
        <ele>1738</ele>
        <time>2026-08-14T06:10:00.463Z</time>
      </trkpt>
      <trkpt lat="45.83631" lon="6.75324">
        <ele>1738</ele>
        <time>2026-08-14T06:10:01.463Z</time>
      </trkpt>
      <trkpt lat="45.8363" lon="6.75321">
        <ele>1738</ele>
        <time>2026-08-14T06:10:02.463Z</time>
      </trkpt>
      <trkpt lat="45.8363" lon="6.75319">
        <ele>1738</ele>
        <time>2026-08-14T06:10:03.463Z</time>
      </trkpt>
      <trkpt lat="45.83631" lon="6.75316">
        <ele>1739</ele>
        <time>2026-08-14T06:10:04.463Z</time>
      </trkpt>
      <trkpt lat="45.83631" lon="6.75314">
        <ele>1739</ele>
        <time>2026-08-14T06:10:05.463Z</time>
      </trkpt>
      <trkpt lat="45.83631" lon="6.75312">
        <ele>1739</ele>
        <time>2026-08-14T06:10:06.463Z</time>
      </trkpt>
      <trkpt lat="45.83632" lon="6.75309">
        <ele>1739</ele>
        <time>2026-08-14T06:10:07.463Z</time>
      </trkpt>
      <trkpt lat="45.83632" lon="6.75306">
        <ele>1739</ele>
        <time>2026-08-14T06:10:08.463Z</time>
      </trkpt>
      <trkpt lat="45.83633" lon="6.75304">
        <ele>1740</ele>
        <time>2026-08-14T06:10:09.463Z</time>
      </trkpt>
      <trkpt lat="45.83633" lon="6.75302">
        <ele>1740</ele>
        <time>2026-08-14T06:10:10.463Z</time>
      </trkpt>
      <trkpt lat="45.83634" lon="6.75299">
        <ele>1740</ele>
        <time>2026-08-14T06:10:11.463Z</time>
      </trkpt>
      <trkpt lat="45.83635" lon="6.75297">
        <ele>1740</ele>
        <time>2026-08-14T06:10:12.463Z</time>
      </trkpt>
      <trkpt lat="45.83637" lon="6.75295">
        <ele>1740</ele>
        <time>2026-08-14T06:10:13.463Z</time>
      </trkpt>
      <trkpt lat="45.83638" lon="6.75293">
        <ele>1740</ele>
        <time>2026-08-14T06:10:14.463Z</time>
      </trkpt>
      <trkpt lat="45.83638" lon="6.75291">
        <ele>1740</ele>
        <time>2026-08-14T06:10:15.463Z</time>
      </trkpt>
      <trkpt lat="45.83639" lon="6.75289">
        <ele>1740</ele>
        <time>2026-08-14T06:10:16.463Z</time>
      </trkpt>
      <trkpt lat="45.8364" lon="6.75287">
        <ele>1740</ele>
        <time>2026-08-14T06:10:17.463Z</time>
      </trkpt>
      <trkpt lat="45.83641" lon="6.75284">
        <ele>1739</ele>
        <time>2026-08-14T06:10:18.463Z</time>
      </trkpt>
      <trkpt lat="45.83642" lon="6.75282">
        <ele>1739</ele>
        <time>2026-08-14T06:10:19.463Z</time>
      </trkpt>
      <trkpt lat="45.83643" lon="6.75279">
        <ele>1739</ele>
        <time>2026-08-14T06:10:20.463Z</time>
      </trkpt>
      <trkpt lat="45.83643" lon="6.75277">
        <ele>1739</ele>
        <time>2026-08-14T06:10:21.463Z</time>
      </trkpt>
      <trkpt lat="45.83644" lon="6.75274">
        <ele>1739</ele>
        <time>2026-08-14T06:10:22.463Z</time>
      </trkpt>
      <trkpt lat="45.83644" lon="6.75272">
        <ele>1739</ele>
        <time>2026-08-14T06:10:23.463Z</time>
      </trkpt>
      <trkpt lat="45.83645" lon="6.7527">
        <ele>1739</ele>
        <time>2026-08-14T06:10:24.463Z</time>
      </trkpt>
      <trkpt lat="45.83645" lon="6.75268">
        <ele>1739</ele>
        <time>2026-08-14T06:10:25.463Z</time>
      </trkpt>
      <trkpt lat="45.83645" lon="6.75265">
        <ele>1739</ele>
        <time>2026-08-14T06:10:26.463Z</time>
      </trkpt>
      <trkpt lat="45.83646" lon="6.75263">
        <ele>1739</ele>
        <time>2026-08-14T06:10:27.463Z</time>
      </trkpt>
      <trkpt lat="45.83646" lon="6.75261">
        <ele>1740</ele>
        <time>2026-08-14T06:10:28.463Z</time>
      </trkpt>
      <trkpt lat="45.83646" lon="6.75259">
        <ele>1740</ele>
        <time>2026-08-14T06:10:29.463Z</time>
      </trkpt>
      <trkpt lat="45.83647" lon="6.75257">
        <ele>1741</ele>
        <time>2026-08-14T06:10:30.463Z</time>
      </trkpt>
      <trkpt lat="45.83647" lon="6.75254">
        <ele>1741</ele>
        <time>2026-08-14T06:10:31.463Z</time>
      </trkpt>
      <trkpt lat="45.83647" lon="6.75252">
        <ele>1741</ele>
        <time>2026-08-14T06:10:32.463Z</time>
      </trkpt>
      <trkpt lat="45.83647" lon="6.7525">
        <ele>1742</ele>
        <time>2026-08-14T06:10:33.463Z</time>
      </trkpt>
      <trkpt lat="45.83646" lon="6.75248">
        <ele>1742</ele>
        <time>2026-08-14T06:10:34.463Z</time>
      </trkpt>
      <trkpt lat="45.83646" lon="6.75246">
        <ele>1742</ele>
        <time>2026-08-14T06:10:35.463Z</time>
      </trkpt>
      <trkpt lat="45.83645" lon="6.75244">
        <ele>1743</ele>
        <time>2026-08-14T06:10:36.463Z</time>
      </trkpt>
      <trkpt lat="45.83644" lon="6.75243">
        <ele>1743</ele>
        <time>2026-08-14T06:10:37.463Z</time>
      </trkpt>
      <trkpt lat="45.83643" lon="6.75242">
        <ele>1743</ele>
        <time>2026-08-14T06:10:38.463Z</time>
      </trkpt>
      <trkpt lat="45.83643" lon="6.75241">
        <ele>1743</ele>
        <time>2026-08-14T06:10:39.463Z</time>
      </trkpt>
      <trkpt lat="45.83643" lon="6.7524">
        <ele>1743</ele>
        <time>2026-08-14T06:10:40.463Z</time>
      </trkpt>
      <trkpt lat="45.83643" lon="6.75239">
        <ele>1743</ele>
        <time>2026-08-14T06:10:41.463Z</time>
      </trkpt>
      <trkpt lat="45.83642" lon="6.75239">
        <ele>1743</ele>
        <time>2026-08-14T06:10:42.463Z</time>
      </trkpt>
      <trkpt lat="45.83642" lon="6.75239">
        <ele>1743</ele>
        <time>2026-08-14T06:10:43.463Z</time>
      </trkpt>
      <trkpt lat="45.83641" lon="6.75239">
        <ele>1743</ele>
        <time>2026-08-14T06:10:44.463Z</time>
      </trkpt>
      <trkpt lat="45.8364" lon="6.75238">
        <ele>1743</ele>
        <time>2026-08-14T06:10:45.463Z</time>
      </trkpt>
      <trkpt lat="45.83639" lon="6.75238">
        <ele>1743</ele>
        <time>2026-08-14T06:10:46.463Z</time>
      </trkpt>
      <trkpt lat="45.83637" lon="6.75237">
        <ele>1743</ele>
        <time>2026-08-14T06:10:47.463Z</time>
      </trkpt>
      <trkpt lat="45.83636" lon="6.75237">
        <ele>1743</ele>
        <time>2026-08-14T06:10:48.463Z</time>
      </trkpt>
      <trkpt lat="45.83634" lon="6.75237">
        <ele>1744</ele>
        <time>2026-08-14T06:10:49.463Z</time>
      </trkpt>
      <trkpt lat="45.83632" lon="6.75237">
        <ele>1744</ele>
        <time>2026-08-14T06:10:50.463Z</time>
      </trkpt>
      <trkpt lat="45.8363" lon="6.75237">
        <ele>1743</ele>
        <time>2026-08-14T06:10:51.463Z</time>
      </trkpt>
      <trkpt lat="45.83629" lon="6.75236">
        <ele>1743</ele>
        <time>2026-08-14T06:10:52.463Z</time>
      </trkpt>
      <trkpt lat="45.83627" lon="6.75236">
        <ele>1743</ele>
        <time>2026-08-14T06:10:53.463Z</time>
      </trkpt>
      <trkpt lat="45.83625" lon="6.75235">
        <ele>1744</ele>
        <time>2026-08-14T06:10:54.463Z</time>
      </trkpt>
      <trkpt lat="45.83624" lon="6.75235">
        <ele>1744</ele>
        <time>2026-08-14T06:10:55.463Z</time>
      </trkpt>
      <trkpt lat="45.83622" lon="6.75235">
        <ele>1744</ele>
        <time>2026-08-14T06:10:56.463Z</time>
      </trkpt>
      <trkpt lat="45.8362" lon="6.75235">
        <ele>1745</ele>
        <time>2026-08-14T06:10:57.463Z</time>
      </trkpt>
      <trkpt lat="45.83619" lon="6.75234">
        <ele>1745</ele>
        <time>2026-08-14T06:10:58.463Z</time>
      </trkpt>
      <trkpt lat="45.83617" lon="6.75234">
        <ele>1745</ele>
        <time>2026-08-14T06:10:59.463Z</time>
      </trkpt>
      <trkpt lat="45.83616" lon="6.75234">
        <ele>1745</ele>
        <time>2026-08-14T06:11:00.463Z</time>
      </trkpt>
      <trkpt lat="45.83614" lon="6.75233">
        <ele>1745</ele>
        <time>2026-08-14T06:11:01.463Z</time>
      </trkpt>
      <trkpt lat="45.83613" lon="6.75231">
        <ele>1744</ele>
        <time>2026-08-14T06:11:02.463Z</time>
      </trkpt>
      <trkpt lat="45.83611" lon="6.7523">
        <ele>1744</ele>
        <time>2026-08-14T06:11:03.463Z</time>
      </trkpt>
      <trkpt lat="45.8361" lon="6.75229">
        <ele>1743</ele>
        <time>2026-08-14T06:11:04.463Z</time>
      </trkpt>
      <trkpt lat="45.83608" lon="6.75228">
        <ele>1743</ele>
        <time>2026-08-14T06:11:05.463Z</time>
      </trkpt>
      <trkpt lat="45.83607" lon="6.75226">
        <ele>1743</ele>
        <time>2026-08-14T06:11:06.463Z</time>
      </trkpt>
      <trkpt lat="45.83606" lon="6.75225">
        <ele>1743</ele>
        <time>2026-08-14T06:11:07.463Z</time>
      </trkpt>
      <trkpt lat="45.83605" lon="6.75224">
        <ele>1743</ele>
        <time>2026-08-14T06:11:08.463Z</time>
      </trkpt>
      <trkpt lat="45.83604" lon="6.75223">
        <ele>1743</ele>
        <time>2026-08-14T06:11:09.463Z</time>
      </trkpt>
      <trkpt lat="45.83602" lon="6.75222">
        <ele>1743</ele>
        <time>2026-08-14T06:11:10.463Z</time>
      </trkpt>
      <trkpt lat="45.83601" lon="6.75221">
        <ele>1743</ele>
        <time>2026-08-14T06:11:11.463Z</time>
      </trkpt>
      <trkpt lat="45.836" lon="6.7522">
        <ele>1743</ele>
        <time>2026-08-14T06:11:12.463Z</time>
      </trkpt>
      <trkpt lat="45.836" lon="6.7522">
        <ele>1743</ele>
        <time>2026-08-14T06:11:13.463Z</time>
      </trkpt>
      <trkpt lat="45.83599" lon="6.7522">
        <ele>1744</ele>
        <time>2026-08-14T06:11:14.463Z</time>
      </trkpt>
      <trkpt lat="45.83598" lon="6.7522">
        <ele>1744</ele>
        <time>2026-08-14T06:11:15.463Z</time>
      </trkpt>
      <trkpt lat="45.83597" lon="6.7522">
        <ele>1745</ele>
        <time>2026-08-14T06:11:16.463Z</time>
      </trkpt>
      <trkpt lat="45.83596" lon="6.75222">
        <ele>1745</ele>
        <time>2026-08-14T06:11:17.463Z</time>
      </trkpt>
      <trkpt lat="45.83595" lon="6.75223">
        <ele>1744</ele>
        <time>2026-08-14T06:11:18.463Z</time>
      </trkpt>
      <trkpt lat="45.83594" lon="6.75225">
        <ele>1744</ele>
        <time>2026-08-14T06:11:19.463Z</time>
      </trkpt>
      <trkpt lat="45.83593" lon="6.75226">
        <ele>1745</ele>
        <time>2026-08-14T06:11:20.463Z</time>
      </trkpt>
      <trkpt lat="45.83592" lon="6.75227">
        <ele>1745</ele>
        <time>2026-08-14T06:11:21.463Z</time>
      </trkpt>
      <trkpt lat="45.8359" lon="6.75228">
        <ele>1746</ele>
        <time>2026-08-14T06:11:22.463Z</time>
      </trkpt>
      <trkpt lat="45.83589" lon="6.7523">
        <ele>1746</ele>
        <time>2026-08-14T06:11:23.463Z</time>
      </trkpt>
      <trkpt lat="45.83588" lon="6.75231">
        <ele>1746</ele>
        <time>2026-08-14T06:11:24.463Z</time>
      </trkpt>
      <trkpt lat="45.83587" lon="6.75231">
        <ele>1745</ele>
        <time>2026-08-14T06:11:25.463Z</time>
      </trkpt>
      <trkpt lat="45.83586" lon="6.75232">
        <ele>1746</ele>
        <time>2026-08-14T06:11:26.463Z</time>
      </trkpt>
      <trkpt lat="45.83585" lon="6.75233">
        <ele>1746</ele>
        <time>2026-08-14T06:11:27.463Z</time>
      </trkpt>
      <trkpt lat="45.83584" lon="6.75234">
        <ele>1746</ele>
        <time>2026-08-14T06:11:28.463Z</time>
      </trkpt>
      <trkpt lat="45.83582" lon="6.75235">
        <ele>1746</ele>
        <time>2026-08-14T06:11:29.463Z</time>
      </trkpt>
      <trkpt lat="45.83581" lon="6.75235">
        <ele>1747</ele>
        <time>2026-08-14T06:11:30.463Z</time>
      </trkpt>
      <trkpt lat="45.8358" lon="6.75236">
        <ele>1747</ele>
        <time>2026-08-14T06:11:31.463Z</time>
      </trkpt>
      <trkpt lat="45.83579" lon="6.75237">
        <ele>1748</ele>
        <time>2026-08-14T06:11:32.463Z</time>
      </trkpt>
      <trkpt lat="45.83578" lon="6.75237">
        <ele>1748</ele>
        <time>2026-08-14T06:11:33.463Z</time>
      </trkpt>
      <trkpt lat="45.83577" lon="6.75237">
        <ele>1748</ele>
        <time>2026-08-14T06:11:34.463Z</time>
      </trkpt>
      <trkpt lat="45.83577" lon="6.75238">
        <ele>1748</ele>
        <time>2026-08-14T06:11:35.463Z</time>
      </trkpt>
      <trkpt lat="45.83576" lon="6.75238">
        <ele>1748</ele>
        <time>2026-08-14T06:11:36.463Z</time>
      </trkpt>
      <trkpt lat="45.83576" lon="6.75238">
        <ele>1748</ele>
        <time>2026-08-14T06:11:37.463Z</time>
      </trkpt>
      <trkpt lat="45.83576" lon="6.75238">
        <ele>1748</ele>
        <time>2026-08-14T06:11:38.463Z</time>
      </trkpt>
      <trkpt lat="45.83576" lon="6.75238">
        <ele>1748</ele>
        <time>2026-08-14T06:11:39.463Z</time>
      </trkpt>
      <trkpt lat="45.83576" lon="6.75238">
        <ele>1748</ele>
        <time>2026-08-14T06:11:40.463Z</time>
      </trkpt>
      <trkpt lat="45.83576" lon="6.75238">
        <ele>1748</ele>
        <time>2026-08-14T06:11:41.463Z</time>
      </trkpt>
      <trkpt lat="45.83576" lon="6.75238">
        <ele>1749</ele>
        <time>2026-08-14T06:11:42.463Z</time>
      </trkpt>
      <trkpt lat="45.83576" lon="6.75238">
        <ele>1749</ele>
        <time>2026-08-14T06:11:43.463Z</time>
      </trkpt>
      <trkpt lat="45.83576" lon="6.75238">
        <ele>1750</ele>
        <time>2026-08-14T06:11:44.463Z</time>
      </trkpt>
      <trkpt lat="45.83576" lon="6.75238">
        <ele>1750</ele>
        <time>2026-08-14T06:11:45.463Z</time>
      </trkpt>
      <trkpt lat="45.83576" lon="6.75238">
        <ele>1750</ele>
        <time>2026-08-14T06:11:46.463Z</time>
      </trkpt>
      <trkpt lat="45.83576" lon="6.75238">
        <ele>1751</ele>
        <time>2026-08-14T06:11:47.463Z</time>
      </trkpt>
      <trkpt lat="45.83576" lon="6.75238">
        <ele>1751</ele>
        <time>2026-08-14T06:11:48.463Z</time>
      </trkpt>
      <trkpt lat="45.83576" lon="6.75238">
        <ele>1751</ele>
        <time>2026-08-14T06:11:49.463Z</time>
      </trkpt>
      <trkpt lat="45.83576" lon="6.75238">
        <ele>1751</ele>
        <time>2026-08-14T06:11:50.463Z</time>
      </trkpt>
      <trkpt lat="45.83576" lon="6.75238">
        <ele>1751</ele>
        <time>2026-08-14T06:11:51.463Z</time>
      </trkpt>
      <trkpt lat="45.83576" lon="6.75238">
        <ele>1751</ele>
        <time>2026-08-14T06:11:52.463Z</time>
      </trkpt>
      <trkpt lat="45.83576" lon="6.75238">
        <ele>1751</ele>
        <time>2026-08-14T06:11:53.463Z</time>
      </trkpt>
      <trkpt lat="45.83576" lon="6.75238">
        <ele>1750</ele>
        <time>2026-08-14T06:11:54.463Z</time>
      </trkpt>
      <trkpt lat="45.83576" lon="6.75238">
        <ele>1750</ele>
        <time>2026-08-14T06:11:55.463Z</time>
      </trkpt>
      <trkpt lat="45.83576" lon="6.75238">
        <ele>1750</ele>
        <time>2026-08-14T06:11:56.463Z</time>
      </trkpt>
      <trkpt lat="45.83576" lon="6.75238">
        <ele>1750</ele>
        <time>2026-08-14T06:11:57.463Z</time>
      </trkpt>
      <trkpt lat="45.83576" lon="6.75238">
        <ele>1749</ele>
        <time>2026-08-14T06:11:58.463Z</time>
      </trkpt>
      <trkpt lat="45.83576" lon="6.75238">
        <ele>1749</ele>
        <time>2026-08-14T06:11:59.463Z</time>
      </trkpt>
      <trkpt lat="45.83576" lon="6.75238">
        <ele>1749</ele>
        <time>2026-08-14T06:12:00.463Z</time>
      </trkpt>
      <trkpt lat="45.83576" lon="6.75238">
        <ele>1749</ele>
        <time>2026-08-14T06:12:01.463Z</time>
      </trkpt>
      <trkpt lat="45.83576" lon="6.75238">
        <ele>1749</ele>
        <time>2026-08-14T06:12:02.463Z</time>
      </trkpt>
      <trkpt lat="45.83576" lon="6.75238">
        <ele>1748</ele>
        <time>2026-08-14T06:12:03.463Z</time>
      </trkpt>
      <trkpt lat="45.83576" lon="6.75238">
        <ele>1748</ele>
        <time>2026-08-14T06:12:04.463Z</time>
      </trkpt>
      <trkpt lat="45.83575" lon="6.75238">
        <ele>1748</ele>
        <time>2026-08-14T06:12:05.463Z</time>
      </trkpt>
      <trkpt lat="45.83575" lon="6.75238">
        <ele>1748</ele>
        <time>2026-08-14T06:12:06.463Z</time>
      </trkpt>
      <trkpt lat="45.83575" lon="6.75238">
        <ele>1748</ele>
        <time>2026-08-14T06:12:07.463Z</time>
      </trkpt>
      <trkpt lat="45.83575" lon="6.75238">
        <ele>1748</ele>
        <time>2026-08-14T06:12:08.463Z</time>
      </trkpt>
      <trkpt lat="45.83575" lon="6.75238">
        <ele>1748</ele>
        <time>2026-08-14T06:12:09.463Z</time>
      </trkpt>
      <trkpt lat="45.83575" lon="6.75238">
        <ele>1748</ele>
        <time>2026-08-14T06:12:10.463Z</time>
      </trkpt>
      <trkpt lat="45.83575" lon="6.75238">
        <ele>1748</ele>
        <time>2026-08-14T06:12:11.463Z</time>
      </trkpt>
      <trkpt lat="45.83575" lon="6.75238">
        <ele>1748</ele>
        <time>2026-08-14T06:12:12.463Z</time>
      </trkpt>
      <trkpt lat="45.83575" lon="6.75238">
        <ele>1748</ele>
        <time>2026-08-14T06:12:13.463Z</time>
      </trkpt>
      <trkpt lat="45.83575" lon="6.75238">
        <ele>1748</ele>
        <time>2026-08-14T06:12:14.463Z</time>
      </trkpt>
      <trkpt lat="45.83575" lon="6.75238">
        <ele>1748</ele>
        <time>2026-08-14T06:12:15.463Z</time>
      </trkpt>
      <trkpt lat="45.83574" lon="6.75238">
        <ele>1748</ele>
        <time>2026-08-14T06:12:16.463Z</time>
      </trkpt>
      <trkpt lat="45.83574" lon="6.75238">
        <ele>1748</ele>
        <time>2026-08-14T06:12:17.463Z</time>
      </trkpt>
      <trkpt lat="45.83574" lon="6.75238">
        <ele>1748</ele>
        <time>2026-08-14T06:12:18.463Z</time>
      </trkpt>
      <trkpt lat="45.83574" lon="6.75238">
        <ele>1748</ele>
        <time>2026-08-14T06:12:19.463Z</time>
      </trkpt>
      <trkpt lat="45.83574" lon="6.75238">
        <ele>1749</ele>
        <time>2026-08-14T06:12:20.463Z</time>
      </trkpt>
      <trkpt lat="45.83574" lon="6.75238">
        <ele>1749</ele>
        <time>2026-08-14T06:12:21.463Z</time>
      </trkpt>
      <trkpt lat="45.83574" lon="6.75238">
        <ele>1749</ele>
        <time>2026-08-14T06:12:22.463Z</time>
      </trkpt>
      <trkpt lat="45.83574" lon="6.75238">
        <ele>1749</ele>
        <time>2026-08-14T06:12:23.463Z</time>
      </trkpt>
      <trkpt lat="45.83574" lon="6.75238">
        <ele>1748</ele>
        <time>2026-08-14T06:12:24.463Z</time>
      </trkpt>
      <trkpt lat="45.83574" lon="6.75238">
        <ele>1748</ele>
        <time>2026-08-14T06:12:25.463Z</time>
      </trkpt>
      <trkpt lat="45.83573" lon="6.75238">
        <ele>1748</ele>
        <time>2026-08-14T06:12:26.463Z</time>
      </trkpt>
      <trkpt lat="45.83573" lon="6.75238">
        <ele>1748</ele>
        <time>2026-08-14T06:12:27.463Z</time>
      </trkpt>
      <trkpt lat="45.83573" lon="6.75238">
        <ele>1748</ele>
        <time>2026-08-14T06:12:28.463Z</time>
      </trkpt>
      <trkpt lat="45.83573" lon="6.75238">
        <ele>1748</ele>
        <time>2026-08-14T06:12:29.463Z</time>
      </trkpt>
      <trkpt lat="45.83573" lon="6.75238">
        <ele>1748</ele>
        <time>2026-08-14T06:12:30.463Z</time>
      </trkpt>
      <trkpt lat="45.83573" lon="6.75238">
        <ele>1748</ele>
        <time>2026-08-14T06:12:31.463Z</time>
      </trkpt>
      <trkpt lat="45.83573" lon="6.75238">
        <ele>1748</ele>
        <time>2026-08-14T06:12:32.463Z</time>
      </trkpt>
      <trkpt lat="45.83573" lon="6.75238">
        <ele>1748</ele>
        <time>2026-08-14T06:12:33.463Z</time>
      </trkpt>
      <trkpt lat="45.83573" lon="6.75238">
        <ele>1748</ele>
        <time>2026-08-14T06:12:34.463Z</time>
      </trkpt>
      <trkpt lat="45.83573" lon="6.75238">
        <ele>1748</ele>
        <time>2026-08-14T06:12:35.463Z</time>
      </trkpt>
      <trkpt lat="45.83573" lon="6.75238">
        <ele>1748</ele>
        <time>2026-08-14T06:12:36.463Z</time>
      </trkpt>
      <trkpt lat="45.83573" lon="6.75238">
        <ele>1748</ele>
        <time>2026-08-14T06:12:37.463Z</time>
      </trkpt>
      <trkpt lat="45.83573" lon="6.75238">
        <ele>1748</ele>
        <time>2026-08-14T06:12:38.463Z</time>
      </trkpt>
      <trkpt lat="45.83573" lon="6.75238">
        <ele>1748</ele>
        <time>2026-08-14T06:12:39.463Z</time>
      </trkpt>
      <trkpt lat="45.83575" lon="6.75237">
        <ele>1748</ele>
        <time>2026-08-14T06:12:40.463Z</time>
      </trkpt>
      <trkpt lat="45.83577" lon="6.75236">
        <ele>1748</ele>
        <time>2026-08-14T06:12:41.463Z</time>
      </trkpt>
      <trkpt lat="45.83579" lon="6.75235">
        <ele>1748</ele>
        <time>2026-08-14T06:12:42.463Z</time>
      </trkpt>
      <trkpt lat="45.83581" lon="6.75234">
        <ele>1749</ele>
        <time>2026-08-14T06:12:43.463Z</time>
      </trkpt>
      <trkpt lat="45.83583" lon="6.75232">
        <ele>1748</ele>
        <time>2026-08-14T06:12:44.463Z</time>
      </trkpt>
      <trkpt lat="45.83584" lon="6.75231">
        <ele>1748</ele>
        <time>2026-08-14T06:12:45.463Z</time>
      </trkpt>
      <trkpt lat="45.83586" lon="6.75229">
        <ele>1748</ele>
        <time>2026-08-14T06:12:46.463Z</time>
      </trkpt>
      <trkpt lat="45.83589" lon="6.75228">
        <ele>1748</ele>
        <time>2026-08-14T06:12:47.463Z</time>
      </trkpt>
      <trkpt lat="45.83591" lon="6.75227">
        <ele>1748</ele>
        <time>2026-08-14T06:12:48.463Z</time>
      </trkpt>
      <trkpt lat="45.83592" lon="6.75226">
        <ele>1748</ele>
        <time>2026-08-14T06:12:49.463Z</time>
      </trkpt>
      <trkpt lat="45.83593" lon="6.75224">
        <ele>1748</ele>
        <time>2026-08-14T06:12:50.463Z</time>
      </trkpt>
      <trkpt lat="45.83593" lon="6.75222">
        <ele>1748</ele>
        <time>2026-08-14T06:12:51.463Z</time>
      </trkpt>
      <trkpt lat="45.83594" lon="6.75219">
        <ele>1748</ele>
        <time>2026-08-14T06:12:52.463Z</time>
      </trkpt>
      <trkpt lat="45.83593" lon="6.75217">
        <ele>1748</ele>
        <time>2026-08-14T06:12:53.463Z</time>
      </trkpt>
      <trkpt lat="45.83592" lon="6.75215">
        <ele>1748</ele>
        <time>2026-08-14T06:12:54.463Z</time>
      </trkpt>
      <trkpt lat="45.83591" lon="6.75213">
        <ele>1748</ele>
        <time>2026-08-14T06:12:55.463Z</time>
      </trkpt>
      <trkpt lat="45.8359" lon="6.75211">
        <ele>1748</ele>
        <time>2026-08-14T06:12:56.463Z</time>
      </trkpt>
      <trkpt lat="45.83589" lon="6.75209">
        <ele>1747</ele>
        <time>2026-08-14T06:12:57.463Z</time>
      </trkpt>
      <trkpt lat="45.83587" lon="6.75207">
        <ele>1747</ele>
        <time>2026-08-14T06:12:58.463Z</time>
      </trkpt>
      <trkpt lat="45.83585" lon="6.75205">
        <ele>1747</ele>
        <time>2026-08-14T06:12:59.463Z</time>
      </trkpt>
      <trkpt lat="45.83583" lon="6.75203">
        <ele>1747</ele>
        <time>2026-08-14T06:13:00.463Z</time>
      </trkpt>
      <trkpt lat="45.83582" lon="6.75201">
        <ele>1747</ele>
        <time>2026-08-14T06:13:01.463Z</time>
      </trkpt>
      <trkpt lat="45.8358" lon="6.752">
        <ele>1748</ele>
        <time>2026-08-14T06:13:02.463Z</time>
      </trkpt>
      <trkpt lat="45.83578" lon="6.75198">
        <ele>1748</ele>
        <time>2026-08-14T06:13:03.463Z</time>
      </trkpt>
      <trkpt lat="45.83576" lon="6.75197">
        <ele>1747</ele>
        <time>2026-08-14T06:13:04.463Z</time>
      </trkpt>
      <trkpt lat="45.83574" lon="6.75196">
        <ele>1747</ele>
        <time>2026-08-14T06:13:05.463Z</time>
      </trkpt>
      <trkpt lat="45.83572" lon="6.75195">
        <ele>1747</ele>
        <time>2026-08-14T06:13:06.463Z</time>
      </trkpt>
      <trkpt lat="45.8357" lon="6.75194">
        <ele>1747</ele>
        <time>2026-08-14T06:13:07.463Z</time>
      </trkpt>
      <trkpt lat="45.83568" lon="6.75192">
        <ele>1747</ele>
        <time>2026-08-14T06:13:08.463Z</time>
      </trkpt>
      <trkpt lat="45.83566" lon="6.75191">
        <ele>1746</ele>
        <time>2026-08-14T06:13:09.463Z</time>
      </trkpt>
      <trkpt lat="45.83565" lon="6.75189">
        <ele>1746</ele>
        <time>2026-08-14T06:13:10.463Z</time>
      </trkpt>
      <trkpt lat="45.83563" lon="6.75187">
        <ele>1746</ele>
        <time>2026-08-14T06:13:11.463Z</time>
      </trkpt>
      <trkpt lat="45.83562" lon="6.75185">
        <ele>1746</ele>
        <time>2026-08-14T06:13:12.463Z</time>
      </trkpt>
      <trkpt lat="45.83561" lon="6.75183">
        <ele>1746</ele>
        <time>2026-08-14T06:13:13.463Z</time>
      </trkpt>
      <trkpt lat="45.8356" lon="6.75181">
        <ele>1746</ele>
        <time>2026-08-14T06:13:14.463Z</time>
      </trkpt>
      <trkpt lat="45.83559" lon="6.75178">
        <ele>1746</ele>
        <time>2026-08-14T06:13:15.463Z</time>
      </trkpt>
      <trkpt lat="45.83558" lon="6.75176">
        <ele>1746</ele>
        <time>2026-08-14T06:13:16.463Z</time>
      </trkpt>
      <trkpt lat="45.83557" lon="6.75173">
        <ele>1746</ele>
        <time>2026-08-14T06:13:17.463Z</time>
      </trkpt>
      <trkpt lat="45.83556" lon="6.75171">
        <ele>1746</ele>
        <time>2026-08-14T06:13:18.463Z</time>
      </trkpt>
      <trkpt lat="45.83555" lon="6.75169">
        <ele>1745</ele>
        <time>2026-08-14T06:13:19.463Z</time>
      </trkpt>
      <trkpt lat="45.83554" lon="6.75166">
        <ele>1745</ele>
        <time>2026-08-14T06:13:20.463Z</time>
      </trkpt>
      <trkpt lat="45.83554" lon="6.75164">
        <ele>1745</ele>
        <time>2026-08-14T06:13:21.463Z</time>
      </trkpt>
      <trkpt lat="45.83553" lon="6.75161">
        <ele>1744</ele>
        <time>2026-08-14T06:13:22.463Z</time>
      </trkpt>
      <trkpt lat="45.83552" lon="6.75159">
        <ele>1744</ele>
        <time>2026-08-14T06:13:23.463Z</time>
      </trkpt>
      <trkpt lat="45.83551" lon="6.75157">
        <ele>1744</ele>
        <time>2026-08-14T06:13:24.463Z</time>
      </trkpt>
      <trkpt lat="45.83549" lon="6.75154">
        <ele>1744</ele>
        <time>2026-08-14T06:13:25.463Z</time>
      </trkpt>
      <trkpt lat="45.83548" lon="6.75152">
        <ele>1744</ele>
        <time>2026-08-14T06:13:26.463Z</time>
      </trkpt>
      <trkpt lat="45.83548" lon="6.75149">
        <ele>1744</ele>
        <time>2026-08-14T06:13:27.463Z</time>
      </trkpt>
      <trkpt lat="45.83547" lon="6.75146">
        <ele>1743</ele>
        <time>2026-08-14T06:13:28.463Z</time>
      </trkpt>
      <trkpt lat="45.83547" lon="6.75142">
        <ele>1743</ele>
        <time>2026-08-14T06:13:29.463Z</time>
      </trkpt>
      <trkpt lat="45.83547" lon="6.75139">
        <ele>1743</ele>
        <time>2026-08-14T06:13:30.463Z</time>
      </trkpt>
      <trkpt lat="45.83547" lon="6.75136">
        <ele>1743</ele>
        <time>2026-08-14T06:13:31.463Z</time>
      </trkpt>
      <trkpt lat="45.83547" lon="6.75132">
        <ele>1742</ele>
        <time>2026-08-14T06:13:32.463Z</time>
      </trkpt>
      <trkpt lat="45.83547" lon="6.75128">
        <ele>1742</ele>
        <time>2026-08-14T06:13:33.463Z</time>
      </trkpt>
      <trkpt lat="45.83548" lon="6.75125">
        <ele>1742</ele>
        <time>2026-08-14T06:13:34.463Z</time>
      </trkpt>
      <trkpt lat="45.83548" lon="6.75122">
        <ele>1742</ele>
        <time>2026-08-14T06:13:35.463Z</time>
      </trkpt>
      <trkpt lat="45.83548" lon="6.75118">
        <ele>1741</ele>
        <time>2026-08-14T06:13:36.463Z</time>
      </trkpt>
      <trkpt lat="45.83548" lon="6.75115">
        <ele>1741</ele>
        <time>2026-08-14T06:13:37.463Z</time>
      </trkpt>
      <trkpt lat="45.83548" lon="6.75112">
        <ele>1741</ele>
        <time>2026-08-14T06:13:38.463Z</time>
      </trkpt>
      <trkpt lat="45.83547" lon="6.75109">
        <ele>1740</ele>
        <time>2026-08-14T06:13:39.463Z</time>
      </trkpt>
      <trkpt lat="45.83547" lon="6.75105">
        <ele>1740</ele>
        <time>2026-08-14T06:13:40.463Z</time>
      </trkpt>
      <trkpt lat="45.83547" lon="6.75102">
        <ele>1740</ele>
        <time>2026-08-14T06:13:41.463Z</time>
      </trkpt>
      <trkpt lat="45.83546" lon="6.75099">
        <ele>1740</ele>
        <time>2026-08-14T06:13:42.463Z</time>
      </trkpt>
      <trkpt lat="45.83546" lon="6.75096">
        <ele>1740</ele>
        <time>2026-08-14T06:13:43.463Z</time>
      </trkpt>
      <trkpt lat="45.83546" lon="6.75092">
        <ele>1740</ele>
        <time>2026-08-14T06:13:44.463Z</time>
      </trkpt>
      <trkpt lat="45.83546" lon="6.75089">
        <ele>1740</ele>
        <time>2026-08-14T06:13:45.463Z</time>
      </trkpt>
      <trkpt lat="45.83547" lon="6.75085">
        <ele>1740</ele>
        <time>2026-08-14T06:13:46.463Z</time>
      </trkpt>
      <trkpt lat="45.83547" lon="6.75082">
        <ele>1740</ele>
        <time>2026-08-14T06:13:47.463Z</time>
      </trkpt>
      <trkpt lat="45.83546" lon="6.75079">
        <ele>1739</ele>
        <time>2026-08-14T06:13:48.463Z</time>
      </trkpt>
      <trkpt lat="45.83546" lon="6.75075">
        <ele>1739</ele>
        <time>2026-08-14T06:13:49.463Z</time>
      </trkpt>
      <trkpt lat="45.83545" lon="6.75072">
        <ele>1739</ele>
        <time>2026-08-14T06:13:50.463Z</time>
      </trkpt>
      <trkpt lat="45.83545" lon="6.75068">
        <ele>1738</ele>
        <time>2026-08-14T06:13:51.463Z</time>
      </trkpt>
      <trkpt lat="45.83546" lon="6.75065">
        <ele>1738</ele>
        <time>2026-08-14T06:13:52.463Z</time>
      </trkpt>
      <trkpt lat="45.83547" lon="6.75062">
        <ele>1737</ele>
        <time>2026-08-14T06:13:53.463Z</time>
      </trkpt>
      <trkpt lat="45.83548" lon="6.75059">
        <ele>1737</ele>
        <time>2026-08-14T06:13:54.463Z</time>
      </trkpt>
      <trkpt lat="45.83549" lon="6.75056">
        <ele>1737</ele>
        <time>2026-08-14T06:13:55.463Z</time>
      </trkpt>
      <trkpt lat="45.83551" lon="6.75054">
        <ele>1736</ele>
        <time>2026-08-14T06:13:56.463Z</time>
      </trkpt>
      <trkpt lat="45.83552" lon="6.75052">
        <ele>1736</ele>
        <time>2026-08-14T06:13:57.463Z</time>
      </trkpt>
      <trkpt lat="45.83554" lon="6.75049">
        <ele>1736</ele>
        <time>2026-08-14T06:13:58.463Z</time>
      </trkpt>
      <trkpt lat="45.83556" lon="6.75047">
        <ele>1736</ele>
        <time>2026-08-14T06:13:59.463Z</time>
      </trkpt>
      <trkpt lat="45.83557" lon="6.75044">
        <ele>1735</ele>
        <time>2026-08-14T06:14:00.463Z</time>
      </trkpt>
      <trkpt lat="45.83559" lon="6.75042">
        <ele>1735</ele>
        <time>2026-08-14T06:14:01.463Z</time>
      </trkpt>
      <trkpt lat="45.83561" lon="6.7504">
        <ele>1735</ele>
        <time>2026-08-14T06:14:02.463Z</time>
      </trkpt>
      <trkpt lat="45.83563" lon="6.75037">
        <ele>1735</ele>
        <time>2026-08-14T06:14:03.463Z</time>
      </trkpt>
      <trkpt lat="45.83565" lon="6.75034">
        <ele>1734</ele>
        <time>2026-08-14T06:14:04.463Z</time>
      </trkpt>
      <trkpt lat="45.83566" lon="6.75032">
        <ele>1734</ele>
        <time>2026-08-14T06:14:05.463Z</time>
      </trkpt>
      <trkpt lat="45.83568" lon="6.75029">
        <ele>1734</ele>
        <time>2026-08-14T06:14:06.463Z</time>
      </trkpt>
      <trkpt lat="45.8357" lon="6.75026">
        <ele>1734</ele>
        <time>2026-08-14T06:14:07.463Z</time>
      </trkpt>
      <trkpt lat="45.83572" lon="6.75024">
        <ele>1734</ele>
        <time>2026-08-14T06:14:08.463Z</time>
      </trkpt>
      <trkpt lat="45.83574" lon="6.75021">
        <ele>1733</ele>
        <time>2026-08-14T06:14:09.463Z</time>
      </trkpt>
      <trkpt lat="45.83576" lon="6.75019">
        <ele>1733</ele>
        <time>2026-08-14T06:14:10.463Z</time>
      </trkpt>
      <trkpt lat="45.83578" lon="6.75016">
        <ele>1733</ele>
        <time>2026-08-14T06:14:11.463Z</time>
      </trkpt>
      <trkpt lat="45.8358" lon="6.75014">
        <ele>1732</ele>
        <time>2026-08-14T06:14:12.463Z</time>
      </trkpt>
      <trkpt lat="45.83582" lon="6.75012">
        <ele>1732</ele>
        <time>2026-08-14T06:14:13.463Z</time>
      </trkpt>
      <trkpt lat="45.83583" lon="6.75009">
        <ele>1731</ele>
        <time>2026-08-14T06:14:14.463Z</time>
      </trkpt>
      <trkpt lat="45.83585" lon="6.75007">
        <ele>1731</ele>
        <time>2026-08-14T06:14:15.463Z</time>
      </trkpt>
      <trkpt lat="45.83587" lon="6.75005">
        <ele>1731</ele>
        <time>2026-08-14T06:14:16.463Z</time>
      </trkpt>
      <trkpt lat="45.83588" lon="6.75002">
        <ele>1730</ele>
        <time>2026-08-14T06:14:17.463Z</time>
      </trkpt>
      <trkpt lat="45.8359" lon="6.74999">
        <ele>1730</ele>
        <time>2026-08-14T06:14:18.463Z</time>
      </trkpt>
      <trkpt lat="45.83591" lon="6.74996">
        <ele>1730</ele>
        <time>2026-08-14T06:14:19.463Z</time>
      </trkpt>
      <trkpt lat="45.83592" lon="6.74993">
        <ele>1730</ele>
        <time>2026-08-14T06:14:20.463Z</time>
      </trkpt>
      <trkpt lat="45.83594" lon="6.7499">
        <ele>1730</ele>
        <time>2026-08-14T06:14:21.463Z</time>
      </trkpt>
      <trkpt lat="45.83595" lon="6.74987">
        <ele>1730</ele>
        <time>2026-08-14T06:14:22.463Z</time>
      </trkpt>
      <trkpt lat="45.83596" lon="6.74984">
        <ele>1730</ele>
        <time>2026-08-14T06:14:23.463Z</time>
      </trkpt>
      <trkpt lat="45.83597" lon="6.74981">
        <ele>1729</ele>
        <time>2026-08-14T06:14:24.463Z</time>
      </trkpt>
      <trkpt lat="45.83598" lon="6.74978">
        <ele>1729</ele>
        <time>2026-08-14T06:14:25.463Z</time>
      </trkpt>
      <trkpt lat="45.83599" lon="6.74975">
        <ele>1729</ele>
        <time>2026-08-14T06:14:26.463Z</time>
      </trkpt>
      <trkpt lat="45.836" lon="6.74972">
        <ele>1729</ele>
        <time>2026-08-14T06:14:27.463Z</time>
      </trkpt>
      <trkpt lat="45.83601" lon="6.74969">
        <ele>1729</ele>
        <time>2026-08-14T06:14:28.463Z</time>
      </trkpt>
      <trkpt lat="45.83603" lon="6.74967">
        <ele>1728</ele>
        <time>2026-08-14T06:14:29.463Z</time>
      </trkpt>
      <trkpt lat="45.83604" lon="6.74964">
        <ele>1728</ele>
        <time>2026-08-14T06:14:30.463Z</time>
      </trkpt>
      <trkpt lat="45.83604" lon="6.74961">
        <ele>1728</ele>
        <time>2026-08-14T06:14:31.463Z</time>
      </trkpt>
      <trkpt lat="45.83605" lon="6.74958">
        <ele>1727</ele>
        <time>2026-08-14T06:14:32.463Z</time>
      </trkpt>
      <trkpt lat="45.83606" lon="6.74956">
        <ele>1727</ele>
        <time>2026-08-14T06:14:33.463Z</time>
      </trkpt>
      <trkpt lat="45.83607" lon="6.74952">
        <ele>1726</ele>
        <time>2026-08-14T06:14:34.463Z</time>
      </trkpt>
      <trkpt lat="45.83608" lon="6.74949">
        <ele>1726</ele>
        <time>2026-08-14T06:14:35.463Z</time>
      </trkpt>
      <trkpt lat="45.8361" lon="6.74947">
        <ele>1726</ele>
        <time>2026-08-14T06:14:36.463Z</time>
      </trkpt>
      <trkpt lat="45.83611" lon="6.74944">
        <ele>1726</ele>
        <time>2026-08-14T06:14:37.463Z</time>
      </trkpt>
      <trkpt lat="45.83612" lon="6.74941">
        <ele>1726</ele>
        <time>2026-08-14T06:14:38.463Z</time>
      </trkpt>
      <trkpt lat="45.83614" lon="6.74938">
        <ele>1725</ele>
        <time>2026-08-14T06:14:39.463Z</time>
      </trkpt>
      <trkpt lat="45.83615" lon="6.74936">
        <ele>1725</ele>
        <time>2026-08-14T06:14:40.463Z</time>
      </trkpt>
      <trkpt lat="45.83617" lon="6.74934">
        <ele>1725</ele>
        <time>2026-08-14T06:14:41.463Z</time>
      </trkpt>
      <trkpt lat="45.83619" lon="6.74932">
        <ele>1725</ele>
        <time>2026-08-14T06:14:42.463Z</time>
      </trkpt>
      <trkpt lat="45.8362" lon="6.7493">
        <ele>1725</ele>
        <time>2026-08-14T06:14:43.463Z</time>
      </trkpt>
      <trkpt lat="45.83621" lon="6.74928">
        <ele>1725</ele>
        <time>2026-08-14T06:14:44.463Z</time>
      </trkpt>
      <trkpt lat="45.83622" lon="6.74925">
        <ele>1725</ele>
        <time>2026-08-14T06:14:45.463Z</time>
      </trkpt>
      <trkpt lat="45.83622" lon="6.74922">
        <ele>1724</ele>
        <time>2026-08-14T06:14:46.463Z</time>
      </trkpt>
      <trkpt lat="45.83622" lon="6.7492">
        <ele>1724</ele>
        <time>2026-08-14T06:14:47.463Z</time>
      </trkpt>
      <trkpt lat="45.83622" lon="6.74917">
        <ele>1723</ele>
        <time>2026-08-14T06:14:48.463Z</time>
      </trkpt>
      <trkpt lat="45.83622" lon="6.74914">
        <ele>1723</ele>
        <time>2026-08-14T06:14:49.463Z</time>
      </trkpt>
      <trkpt lat="45.83622" lon="6.74911">
        <ele>1723</ele>
        <time>2026-08-14T06:14:50.463Z</time>
      </trkpt>
      <trkpt lat="45.83623" lon="6.74908">
        <ele>1722</ele>
        <time>2026-08-14T06:14:51.463Z</time>
      </trkpt>
      <trkpt lat="45.83622" lon="6.74905">
        <ele>1722</ele>
        <time>2026-08-14T06:14:52.463Z</time>
      </trkpt>
      <trkpt lat="45.83622" lon="6.74902">
        <ele>1722</ele>
        <time>2026-08-14T06:14:53.463Z</time>
      </trkpt>
      <trkpt lat="45.83621" lon="6.74898">
        <ele>1722</ele>
        <time>2026-08-14T06:14:54.463Z</time>
      </trkpt>
      <trkpt lat="45.83621" lon="6.74895">
        <ele>1722</ele>
        <time>2026-08-14T06:14:55.463Z</time>
      </trkpt>
      <trkpt lat="45.8362" lon="6.74892">
        <ele>1722</ele>
        <time>2026-08-14T06:14:56.463Z</time>
      </trkpt>
      <trkpt lat="45.83618" lon="6.7489">
        <ele>1722</ele>
        <time>2026-08-14T06:14:57.463Z</time>
      </trkpt>
      <trkpt lat="45.83617" lon="6.74887">
        <ele>1722</ele>
        <time>2026-08-14T06:14:58.463Z</time>
      </trkpt>
      <trkpt lat="45.83615" lon="6.74884">
        <ele>1722</ele>
        <time>2026-08-14T06:14:59.463Z</time>
      </trkpt>
      <trkpt lat="45.83614" lon="6.74881">
        <ele>1721</ele>
        <time>2026-08-14T06:15:00.463Z</time>
      </trkpt>
      <trkpt lat="45.83612" lon="6.74878">
        <ele>1721</ele>
        <time>2026-08-14T06:15:01.463Z</time>
      </trkpt>
      <trkpt lat="45.8361" lon="6.74876">
        <ele>1721</ele>
        <time>2026-08-14T06:15:02.463Z</time>
      </trkpt>
      <trkpt lat="45.83608" lon="6.74874">
        <ele>1720</ele>
        <time>2026-08-14T06:15:03.463Z</time>
      </trkpt>
      <trkpt lat="45.83606" lon="6.74872">
        <ele>1720</ele>
        <time>2026-08-14T06:15:04.463Z</time>
      </trkpt>
      <trkpt lat="45.83604" lon="6.7487">
        <ele>1720</ele>
        <time>2026-08-14T06:15:05.463Z</time>
      </trkpt>
      <trkpt lat="45.83602" lon="6.74868">
        <ele>1720</ele>
        <time>2026-08-14T06:15:06.463Z</time>
      </trkpt>
      <trkpt lat="45.836" lon="6.74866">
        <ele>1720</ele>
        <time>2026-08-14T06:15:07.463Z</time>
      </trkpt>
      <trkpt lat="45.83598" lon="6.74864">
        <ele>1720</ele>
        <time>2026-08-14T06:15:08.463Z</time>
      </trkpt>
      <trkpt lat="45.83596" lon="6.74863">
        <ele>1719</ele>
        <time>2026-08-14T06:15:09.463Z</time>
      </trkpt>
      <trkpt lat="45.83594" lon="6.74861">
        <ele>1719</ele>
        <time>2026-08-14T06:15:10.463Z</time>
      </trkpt>
      <trkpt lat="45.83592" lon="6.74859">
        <ele>1719</ele>
        <time>2026-08-14T06:15:11.463Z</time>
      </trkpt>
      <trkpt lat="45.8359" lon="6.74857">
        <ele>1719</ele>
        <time>2026-08-14T06:15:12.463Z</time>
      </trkpt>
      <trkpt lat="45.83588" lon="6.74856">
        <ele>1719</ele>
        <time>2026-08-14T06:15:13.463Z</time>
      </trkpt>
      <trkpt lat="45.83586" lon="6.74854">
        <ele>1719</ele>
        <time>2026-08-14T06:15:14.463Z</time>
      </trkpt>
      <trkpt lat="45.83584" lon="6.74852">
        <ele>1719</ele>
        <time>2026-08-14T06:15:15.463Z</time>
      </trkpt>
      <trkpt lat="45.83582" lon="6.7485">
        <ele>1718</ele>
        <time>2026-08-14T06:15:16.463Z</time>
      </trkpt>
      <trkpt lat="45.8358" lon="6.74847">
        <ele>1718</ele>
        <time>2026-08-14T06:15:17.463Z</time>
      </trkpt>
      <trkpt lat="45.83578" lon="6.74844">
        <ele>1718</ele>
        <time>2026-08-14T06:15:18.463Z</time>
      </trkpt>
      <trkpt lat="45.83577" lon="6.74841">
        <ele>1717</ele>
        <time>2026-08-14T06:15:19.463Z</time>
      </trkpt>
      <trkpt lat="45.83575" lon="6.74838">
        <ele>1717</ele>
        <time>2026-08-14T06:15:20.463Z</time>
      </trkpt>
      <trkpt lat="45.83574" lon="6.74835">
        <ele>1716</ele>
        <time>2026-08-14T06:15:21.463Z</time>
      </trkpt>
      <trkpt lat="45.83572" lon="6.74832">
        <ele>1716</ele>
        <time>2026-08-14T06:15:22.463Z</time>
      </trkpt>
      <trkpt lat="45.83571" lon="6.74829">
        <ele>1715</ele>
        <time>2026-08-14T06:15:23.463Z</time>
      </trkpt>
      <trkpt lat="45.83569" lon="6.74826">
        <ele>1715</ele>
        <time>2026-08-14T06:15:24.463Z</time>
      </trkpt>
      <trkpt lat="45.83568" lon="6.74823">
        <ele>1715</ele>
        <time>2026-08-14T06:15:25.463Z</time>
      </trkpt>
      <trkpt lat="45.83566" lon="6.74821">
        <ele>1715</ele>
        <time>2026-08-14T06:15:26.463Z</time>
      </trkpt>
      <trkpt lat="45.83563" lon="6.7482">
        <ele>1715</ele>
        <time>2026-08-14T06:15:27.463Z</time>
      </trkpt>
      <trkpt lat="45.83561" lon="6.74819">
        <ele>1715</ele>
        <time>2026-08-14T06:15:28.463Z</time>
      </trkpt>
      <trkpt lat="45.83559" lon="6.74818">
        <ele>1715</ele>
        <time>2026-08-14T06:15:29.463Z</time>
      </trkpt>
      <trkpt lat="45.83556" lon="6.74817">
        <ele>1715</ele>
        <time>2026-08-14T06:15:30.463Z</time>
      </trkpt>
      <trkpt lat="45.83553" lon="6.74817">
        <ele>1715</ele>
        <time>2026-08-14T06:15:31.463Z</time>
      </trkpt>
      <trkpt lat="45.83551" lon="6.74817">
        <ele>1715</ele>
        <time>2026-08-14T06:15:32.463Z</time>
      </trkpt>
      <trkpt lat="45.83548" lon="6.74817">
        <ele>1714</ele>
        <time>2026-08-14T06:15:33.463Z</time>
      </trkpt>
      <trkpt lat="45.83545" lon="6.74816">
        <ele>1714</ele>
        <time>2026-08-14T06:15:34.463Z</time>
      </trkpt>
      <trkpt lat="45.83543" lon="6.74816">
        <ele>1714</ele>
        <time>2026-08-14T06:15:35.463Z</time>
      </trkpt>
      <trkpt lat="45.8354" lon="6.74816">
        <ele>1714</ele>
        <time>2026-08-14T06:15:36.463Z</time>
      </trkpt>
      <trkpt lat="45.83539" lon="6.74815">
        <ele>1715</ele>
        <time>2026-08-14T06:15:37.463Z</time>
      </trkpt>
      <trkpt lat="45.83537" lon="6.74814">
        <ele>1715</ele>
        <time>2026-08-14T06:15:38.463Z</time>
      </trkpt>
      <trkpt lat="45.83534" lon="6.74812">
        <ele>1715</ele>
        <time>2026-08-14T06:15:39.463Z</time>
      </trkpt>
      <trkpt lat="45.83532" lon="6.7481">
        <ele>1716</ele>
        <time>2026-08-14T06:15:40.463Z</time>
      </trkpt>
      <trkpt lat="45.83529" lon="6.74808">
        <ele>1716</ele>
        <time>2026-08-14T06:15:41.463Z</time>
      </trkpt>
      <trkpt lat="45.83527" lon="6.74807">
        <ele>1717</ele>
        <time>2026-08-14T06:15:42.463Z</time>
      </trkpt>
      <trkpt lat="45.83525" lon="6.74806">
        <ele>1717</ele>
        <time>2026-08-14T06:15:43.463Z</time>
      </trkpt>
      <trkpt lat="45.83523" lon="6.74805">
        <ele>1718</ele>
        <time>2026-08-14T06:15:44.463Z</time>
      </trkpt>
      <trkpt lat="45.83521" lon="6.74804">
        <ele>1718</ele>
        <time>2026-08-14T06:15:45.463Z</time>
      </trkpt>
      <trkpt lat="45.83519" lon="6.74802">
        <ele>1718</ele>
        <time>2026-08-14T06:15:46.463Z</time>
      </trkpt>
      <trkpt lat="45.83516" lon="6.748">
        <ele>1719</ele>
        <time>2026-08-14T06:15:47.463Z</time>
      </trkpt>
      <trkpt lat="45.83514" lon="6.74799">
        <ele>1719</ele>
        <time>2026-08-14T06:15:48.463Z</time>
      </trkpt>
      <trkpt lat="45.83512" lon="6.74797">
        <ele>1718</ele>
        <time>2026-08-14T06:15:49.463Z</time>
      </trkpt>
      <trkpt lat="45.8351" lon="6.74795">
        <ele>1718</ele>
        <time>2026-08-14T06:15:50.463Z</time>
      </trkpt>
      <trkpt lat="45.83508" lon="6.74794">
        <ele>1718</ele>
        <time>2026-08-14T06:15:51.463Z</time>
      </trkpt>
      <trkpt lat="45.83506" lon="6.74792">
        <ele>1718</ele>
        <time>2026-08-14T06:15:52.463Z</time>
      </trkpt>
      <trkpt lat="45.83504" lon="6.74791">
        <ele>1718</ele>
        <time>2026-08-14T06:15:53.463Z</time>
      </trkpt>
      <trkpt lat="45.83503" lon="6.74789">
        <ele>1718</ele>
        <time>2026-08-14T06:15:54.463Z</time>
      </trkpt>
      <trkpt lat="45.83501" lon="6.74787">
        <ele>1717</ele>
        <time>2026-08-14T06:15:55.463Z</time>
      </trkpt>
      <trkpt lat="45.83499" lon="6.74785">
        <ele>1717</ele>
        <time>2026-08-14T06:15:56.463Z</time>
      </trkpt>
      <trkpt lat="45.83497" lon="6.74784">
        <ele>1717</ele>
        <time>2026-08-14T06:15:57.463Z</time>
      </trkpt>
      <trkpt lat="45.83496" lon="6.74782">
        <ele>1716</ele>
        <time>2026-08-14T06:15:58.463Z</time>
      </trkpt>
      <trkpt lat="45.83496" lon="6.7478">
        <ele>1716</ele>
        <time>2026-08-14T06:15:59.463Z</time>
      </trkpt>
      <trkpt lat="45.83494" lon="6.74777">
        <ele>1716</ele>
        <time>2026-08-14T06:16:00.463Z</time>
      </trkpt>
      <trkpt lat="45.83492" lon="6.74773">
        <ele>1716</ele>
        <time>2026-08-14T06:16:01.463Z</time>
      </trkpt>
      <trkpt lat="45.8349" lon="6.74769">
        <ele>1715</ele>
        <time>2026-08-14T06:16:02.463Z</time>
      </trkpt>
      <trkpt lat="45.83488" lon="6.74765">
        <ele>1715</ele>
        <time>2026-08-14T06:16:03.463Z</time>
      </trkpt>
      <trkpt lat="45.83487" lon="6.74762">
        <ele>1715</ele>
        <time>2026-08-14T06:16:04.463Z</time>
      </trkpt>
      <trkpt lat="45.83485" lon="6.74759">
        <ele>1715</ele>
        <time>2026-08-14T06:16:05.463Z</time>
      </trkpt>
      <trkpt lat="45.83483" lon="6.74756">
        <ele>1715</ele>
        <time>2026-08-14T06:16:06.463Z</time>
      </trkpt>
      <trkpt lat="45.83481" lon="6.74753">
        <ele>1715</ele>
        <time>2026-08-14T06:16:07.463Z</time>
      </trkpt>
      <trkpt lat="45.83479" lon="6.7475">
        <ele>1715</ele>
        <time>2026-08-14T06:16:08.463Z</time>
      </trkpt>
      <trkpt lat="45.83478" lon="6.74747">
        <ele>1715</ele>
        <time>2026-08-14T06:16:09.463Z</time>
      </trkpt>
      <trkpt lat="45.83476" lon="6.74743">
        <ele>1714</ele>
        <time>2026-08-14T06:16:10.463Z</time>
      </trkpt>
      <trkpt lat="45.83475" lon="6.74739">
        <ele>1714</ele>
        <time>2026-08-14T06:16:11.463Z</time>
      </trkpt>
      <trkpt lat="45.83473" lon="6.74735">
        <ele>1713</ele>
        <time>2026-08-14T06:16:12.463Z</time>
      </trkpt>
      <trkpt lat="45.83472" lon="6.74732">
        <ele>1713</ele>
        <time>2026-08-14T06:16:13.463Z</time>
      </trkpt>
      <trkpt lat="45.83472" lon="6.74729">
        <ele>1713</ele>
        <time>2026-08-14T06:16:14.463Z</time>
      </trkpt>
      <trkpt lat="45.83471" lon="6.74726">
        <ele>1713</ele>
        <time>2026-08-14T06:16:15.463Z</time>
      </trkpt>
      <trkpt lat="45.83469" lon="6.74723">
        <ele>1713</ele>
        <time>2026-08-14T06:16:16.463Z</time>
      </trkpt>
      <trkpt lat="45.83467" lon="6.7472">
        <ele>1713</ele>
        <time>2026-08-14T06:16:17.463Z</time>
      </trkpt>
      <trkpt lat="45.83465" lon="6.74717">
        <ele>1713</ele>
        <time>2026-08-14T06:16:18.463Z</time>
      </trkpt>
      <trkpt lat="45.83463" lon="6.74715">
        <ele>1713</ele>
        <time>2026-08-14T06:16:19.463Z</time>
      </trkpt>
      <trkpt lat="45.83462" lon="6.74712">
        <ele>1713</ele>
        <time>2026-08-14T06:16:20.463Z</time>
      </trkpt>
      <trkpt lat="45.8346" lon="6.74711">
        <ele>1713</ele>
        <time>2026-08-14T06:16:21.463Z</time>
      </trkpt>
      <trkpt lat="45.83458" lon="6.74709">
        <ele>1713</ele>
        <time>2026-08-14T06:16:22.463Z</time>
      </trkpt>
      <trkpt lat="45.83456" lon="6.74707">
        <ele>1712</ele>
        <time>2026-08-14T06:16:23.463Z</time>
      </trkpt>
      <trkpt lat="45.83454" lon="6.74706">
        <ele>1712</ele>
        <time>2026-08-14T06:16:24.463Z</time>
      </trkpt>
      <trkpt lat="45.83452" lon="6.74704">
        <ele>1711</ele>
        <time>2026-08-14T06:16:25.463Z</time>
      </trkpt>
      <trkpt lat="45.83449" lon="6.74702">
        <ele>1711</ele>
        <time>2026-08-14T06:16:26.463Z</time>
      </trkpt>
      <trkpt lat="45.83447" lon="6.747">
        <ele>1711</ele>
        <time>2026-08-14T06:16:27.463Z</time>
      </trkpt>
      <trkpt lat="45.83445" lon="6.74698">
        <ele>1710</ele>
        <time>2026-08-14T06:16:28.463Z</time>
      </trkpt>
      <trkpt lat="45.83443" lon="6.74696">
        <ele>1710</ele>
        <time>2026-08-14T06:16:29.463Z</time>
      </trkpt>
      <trkpt lat="45.83441" lon="6.74695">
        <ele>1710</ele>
        <time>2026-08-14T06:16:30.463Z</time>
      </trkpt>
      <trkpt lat="45.83438" lon="6.74693">
        <ele>1710</ele>
        <time>2026-08-14T06:16:31.463Z</time>
      </trkpt>
      <trkpt lat="45.83436" lon="6.74692">
        <ele>1709</ele>
        <time>2026-08-14T06:16:32.463Z</time>
      </trkpt>
      <trkpt lat="45.83433" lon="6.7469">
        <ele>1709</ele>
        <time>2026-08-14T06:16:33.463Z</time>
      </trkpt>
      <trkpt lat="45.83432" lon="6.74688">
        <ele>1709</ele>
        <time>2026-08-14T06:16:34.463Z</time>
      </trkpt>
      <trkpt lat="45.83429" lon="6.74685">
        <ele>1709</ele>
        <time>2026-08-14T06:16:35.463Z</time>
      </trkpt>
      <trkpt lat="45.83427" lon="6.74682">
        <ele>1708</ele>
        <time>2026-08-14T06:16:36.463Z</time>
      </trkpt>
      <trkpt lat="45.83424" lon="6.7468">
        <ele>1708</ele>
        <time>2026-08-14T06:16:37.463Z</time>
      </trkpt>
      <trkpt lat="45.83422" lon="6.74679">
        <ele>1708</ele>
        <time>2026-08-14T06:16:38.463Z</time>
      </trkpt>
      <trkpt lat="45.83419" lon="6.74677">
        <ele>1708</ele>
        <time>2026-08-14T06:16:39.463Z</time>
      </trkpt>
      <trkpt lat="45.83417" lon="6.74676">
        <ele>1708</ele>
        <time>2026-08-14T06:16:40.463Z</time>
      </trkpt>
      <trkpt lat="45.83414" lon="6.74675">
        <ele>1708</ele>
        <time>2026-08-14T06:16:41.463Z</time>
      </trkpt>
      <trkpt lat="45.83412" lon="6.74674">
        <ele>1708</ele>
        <time>2026-08-14T06:16:42.463Z</time>
      </trkpt>
      <trkpt lat="45.8341" lon="6.74672">
        <ele>1707</ele>
        <time>2026-08-14T06:16:43.463Z</time>
      </trkpt>
      <trkpt lat="45.83407" lon="6.74671">
        <ele>1707</ele>
        <time>2026-08-14T06:16:44.463Z</time>
      </trkpt>
      <trkpt lat="45.83404" lon="6.74668">
        <ele>1706</ele>
        <time>2026-08-14T06:16:45.463Z</time>
      </trkpt>
      <trkpt lat="45.83401" lon="6.74667">
        <ele>1705</ele>
        <time>2026-08-14T06:16:46.463Z</time>
      </trkpt>
      <trkpt lat="45.83398" lon="6.74666">
        <ele>1704</ele>
        <time>2026-08-14T06:16:47.463Z</time>
      </trkpt>
      <trkpt lat="45.83396" lon="6.74665">
        <ele>1703</ele>
        <time>2026-08-14T06:16:48.463Z</time>
      </trkpt>
      <trkpt lat="45.83394" lon="6.74663">
        <ele>1703</ele>
        <time>2026-08-14T06:16:49.463Z</time>
      </trkpt>
      <trkpt lat="45.83391" lon="6.74662">
        <ele>1702</ele>
        <time>2026-08-14T06:16:50.463Z</time>
      </trkpt>
      <trkpt lat="45.83389" lon="6.74661">
        <ele>1701</ele>
        <time>2026-08-14T06:16:51.463Z</time>
      </trkpt>
      <trkpt lat="45.83386" lon="6.7466">
        <ele>1701</ele>
        <time>2026-08-14T06:16:52.463Z</time>
      </trkpt>
      <trkpt lat="45.83383" lon="6.74658">
        <ele>1701</ele>
        <time>2026-08-14T06:16:53.463Z</time>
      </trkpt>
      <trkpt lat="45.83381" lon="6.74657">
        <ele>1701</ele>
        <time>2026-08-14T06:16:54.463Z</time>
      </trkpt>
      <trkpt lat="45.83378" lon="6.74657">
        <ele>1701</ele>
        <time>2026-08-14T06:16:55.463Z</time>
      </trkpt>
      <trkpt lat="45.83376" lon="6.74657">
        <ele>1701</ele>
        <time>2026-08-14T06:16:56.463Z</time>
      </trkpt>
      <trkpt lat="45.83373" lon="6.74656">
        <ele>1700</ele>
        <time>2026-08-14T06:16:57.463Z</time>
      </trkpt>
      <trkpt lat="45.83371" lon="6.74654">
        <ele>1700</ele>
        <time>2026-08-14T06:16:58.463Z</time>
      </trkpt>
      <trkpt lat="45.83368" lon="6.74653">
        <ele>1700</ele>
        <time>2026-08-14T06:16:59.463Z</time>
      </trkpt>
      <trkpt lat="45.83366" lon="6.74651">
        <ele>1700</ele>
        <time>2026-08-14T06:17:00.463Z</time>
      </trkpt>
      <trkpt lat="45.83363" lon="6.74649">
        <ele>1700</ele>
        <time>2026-08-14T06:17:01.463Z</time>
      </trkpt>
      <trkpt lat="45.83361" lon="6.74647">
        <ele>1699</ele>
        <time>2026-08-14T06:17:02.463Z</time>
      </trkpt>
      <trkpt lat="45.83358" lon="6.74646">
        <ele>1699</ele>
        <time>2026-08-14T06:17:03.463Z</time>
      </trkpt>
      <trkpt lat="45.83356" lon="6.74645">
        <ele>1698</ele>
        <time>2026-08-14T06:17:04.463Z</time>
      </trkpt>
      <trkpt lat="45.83354" lon="6.74645">
        <ele>1698</ele>
        <time>2026-08-14T06:17:05.463Z</time>
      </trkpt>
      <trkpt lat="45.83352" lon="6.74644">
        <ele>1697</ele>
        <time>2026-08-14T06:17:06.463Z</time>
      </trkpt>
      <trkpt lat="45.8335" lon="6.74644">
        <ele>1697</ele>
        <time>2026-08-14T06:17:07.463Z</time>
      </trkpt>
      <trkpt lat="45.83347" lon="6.74643">
        <ele>1696</ele>
        <time>2026-08-14T06:17:08.463Z</time>
      </trkpt>
      <trkpt lat="45.83345" lon="6.74643">
        <ele>1696</ele>
        <time>2026-08-14T06:17:09.463Z</time>
      </trkpt>
      <trkpt lat="45.83343" lon="6.74643">
        <ele>1695</ele>
        <time>2026-08-14T06:17:10.463Z</time>
      </trkpt>
      <trkpt lat="45.83341" lon="6.74642">
        <ele>1695</ele>
        <time>2026-08-14T06:17:11.463Z</time>
      </trkpt>
      <trkpt lat="45.83339" lon="6.74641">
        <ele>1695</ele>
        <time>2026-08-14T06:17:12.463Z</time>
      </trkpt>
      <trkpt lat="45.83337" lon="6.74639">
        <ele>1695</ele>
        <time>2026-08-14T06:17:13.463Z</time>
      </trkpt>
      <trkpt lat="45.83333" lon="6.74635">
        <ele>1694</ele>
        <time>2026-08-14T06:17:14.463Z</time>
      </trkpt>
      <trkpt lat="45.8333" lon="6.74631">
        <ele>1694</ele>
        <time>2026-08-14T06:17:15.463Z</time>
      </trkpt>
      <trkpt lat="45.83327" lon="6.7463">
        <ele>1694</ele>
        <time>2026-08-14T06:17:16.463Z</time>
      </trkpt>
      <trkpt lat="45.83325" lon="6.74629">
        <ele>1694</ele>
        <time>2026-08-14T06:17:17.463Z</time>
      </trkpt>
      <trkpt lat="45.83322" lon="6.74628">
        <ele>1694</ele>
        <time>2026-08-14T06:17:18.463Z</time>
      </trkpt>
      <trkpt lat="45.83319" lon="6.74627">
        <ele>1694</ele>
        <time>2026-08-14T06:17:19.463Z</time>
      </trkpt>
      <trkpt lat="45.83317" lon="6.74626">
        <ele>1693</ele>
        <time>2026-08-14T06:17:20.463Z</time>
      </trkpt>
      <trkpt lat="45.83315" lon="6.74627">
        <ele>1693</ele>
        <time>2026-08-14T06:17:21.463Z</time>
      </trkpt>
      <trkpt lat="45.83313" lon="6.74627">
        <ele>1693</ele>
        <time>2026-08-14T06:17:22.463Z</time>
      </trkpt>
      <trkpt lat="45.83312" lon="6.74627">
        <ele>1693</ele>
        <time>2026-08-14T06:17:23.463Z</time>
      </trkpt>
      <trkpt lat="45.83309" lon="6.74626">
        <ele>1693</ele>
        <time>2026-08-14T06:17:24.463Z</time>
      </trkpt>
      <trkpt lat="45.83307" lon="6.74625">
        <ele>1693</ele>
        <time>2026-08-14T06:17:25.463Z</time>
      </trkpt>
      <trkpt lat="45.83305" lon="6.74624">
        <ele>1692</ele>
        <time>2026-08-14T06:17:26.463Z</time>
      </trkpt>
      <trkpt lat="45.83302" lon="6.74624">
        <ele>1692</ele>
        <time>2026-08-14T06:17:27.463Z</time>
      </trkpt>
      <trkpt lat="45.83299" lon="6.74624">
        <ele>1692</ele>
        <time>2026-08-14T06:17:28.463Z</time>
      </trkpt>
      <trkpt lat="45.83297" lon="6.74624">
        <ele>1692</ele>
        <time>2026-08-14T06:17:29.463Z</time>
      </trkpt>
      <trkpt lat="45.83295" lon="6.74623">
        <ele>1691</ele>
        <time>2026-08-14T06:17:30.463Z</time>
      </trkpt>
      <trkpt lat="45.83293" lon="6.74623">
        <ele>1691</ele>
        <time>2026-08-14T06:17:31.463Z</time>
      </trkpt>
      <trkpt lat="45.83291" lon="6.74623">
        <ele>1690</ele>
        <time>2026-08-14T06:17:32.463Z</time>
      </trkpt>
      <trkpt lat="45.83289" lon="6.74623">
        <ele>1690</ele>
        <time>2026-08-14T06:17:33.463Z</time>
      </trkpt>
      <trkpt lat="45.83286" lon="6.74623">
        <ele>1689</ele>
        <time>2026-08-14T06:17:34.463Z</time>
      </trkpt>
      <trkpt lat="45.83283" lon="6.74623">
        <ele>1689</ele>
        <time>2026-08-14T06:17:35.463Z</time>
      </trkpt>
      <trkpt lat="45.8328" lon="6.74623">
        <ele>1689</ele>
        <time>2026-08-14T06:17:36.463Z</time>
      </trkpt>
      <trkpt lat="45.83277" lon="6.74623">
        <ele>1689</ele>
        <time>2026-08-14T06:17:37.463Z</time>
      </trkpt>
      <trkpt lat="45.83275" lon="6.74622">
        <ele>1689</ele>
        <time>2026-08-14T06:17:38.463Z</time>
      </trkpt>
      <trkpt lat="45.83272" lon="6.74622">
        <ele>1689</ele>
        <time>2026-08-14T06:17:39.463Z</time>
      </trkpt>
      <trkpt lat="45.8327" lon="6.74622">
        <ele>1689</ele>
        <time>2026-08-14T06:17:40.463Z</time>
      </trkpt>
      <trkpt lat="45.83268" lon="6.74621">
        <ele>1689</ele>
        <time>2026-08-14T06:17:41.463Z</time>
      </trkpt>
      <trkpt lat="45.83266" lon="6.74621">
        <ele>1689</ele>
        <time>2026-08-14T06:17:42.463Z</time>
      </trkpt>
      <trkpt lat="45.83263" lon="6.7462">
        <ele>1689</ele>
        <time>2026-08-14T06:17:43.463Z</time>
      </trkpt>
      <trkpt lat="45.8326" lon="6.74618">
        <ele>1688</ele>
        <time>2026-08-14T06:17:44.463Z</time>
      </trkpt>
      <trkpt lat="45.83257" lon="6.74616">
        <ele>1688</ele>
        <time>2026-08-14T06:17:45.463Z</time>
      </trkpt>
      <trkpt lat="45.83254" lon="6.74614">
        <ele>1688</ele>
        <time>2026-08-14T06:17:46.463Z</time>
      </trkpt>
      <trkpt lat="45.83252" lon="6.74613">
        <ele>1687</ele>
        <time>2026-08-14T06:17:47.463Z</time>
      </trkpt>
      <trkpt lat="45.83248" lon="6.74612">
        <ele>1687</ele>
        <time>2026-08-14T06:17:48.463Z</time>
      </trkpt>
      <trkpt lat="45.83245" lon="6.74612">
        <ele>1687</ele>
        <time>2026-08-14T06:17:49.463Z</time>
      </trkpt>
      <trkpt lat="45.83242" lon="6.74612">
        <ele>1687</ele>
        <time>2026-08-14T06:17:50.463Z</time>
      </trkpt>
      <trkpt lat="45.83239" lon="6.74612">
        <ele>1686</ele>
        <time>2026-08-14T06:17:51.463Z</time>
      </trkpt>
      <trkpt lat="45.83235" lon="6.74612">
        <ele>1686</ele>
        <time>2026-08-14T06:17:52.463Z</time>
      </trkpt>
      <trkpt lat="45.83232" lon="6.74612">
        <ele>1686</ele>
        <time>2026-08-14T06:17:53.463Z</time>
      </trkpt>
      <trkpt lat="45.8323" lon="6.74612">
        <ele>1686</ele>
        <time>2026-08-14T06:17:54.463Z</time>
      </trkpt>
      <trkpt lat="45.83227" lon="6.74613">
        <ele>1686</ele>
        <time>2026-08-14T06:17:55.463Z</time>
      </trkpt>
      <trkpt lat="45.83224" lon="6.74612">
        <ele>1686</ele>
        <time>2026-08-14T06:17:56.463Z</time>
      </trkpt>
      <trkpt lat="45.83221" lon="6.74613">
        <ele>1685</ele>
        <time>2026-08-14T06:17:57.463Z</time>
      </trkpt>
      <trkpt lat="45.83218" lon="6.74613">
        <ele>1685</ele>
        <time>2026-08-14T06:17:58.463Z</time>
      </trkpt>
      <trkpt lat="45.83216" lon="6.74613">
        <ele>1685</ele>
        <time>2026-08-14T06:17:59.463Z</time>
      </trkpt>
      <trkpt lat="45.83213" lon="6.74613">
        <ele>1684</ele>
        <time>2026-08-14T06:18:00.463Z</time>
      </trkpt>
      <trkpt lat="45.8321" lon="6.74612">
        <ele>1684</ele>
        <time>2026-08-14T06:18:01.463Z</time>
      </trkpt>
      <trkpt lat="45.83207" lon="6.74611">
        <ele>1684</ele>
        <time>2026-08-14T06:18:02.463Z</time>
      </trkpt>
      <trkpt lat="45.83204" lon="6.7461">
        <ele>1684</ele>
        <time>2026-08-14T06:18:03.463Z</time>
      </trkpt>
      <trkpt lat="45.83201" lon="6.74609">
        <ele>1684</ele>
        <time>2026-08-14T06:18:04.463Z</time>
      </trkpt>
      <trkpt lat="45.832" lon="6.74609">
        <ele>1684</ele>
        <time>2026-08-14T06:18:05.463Z</time>
      </trkpt>
      <trkpt lat="45.83198" lon="6.7461">
        <ele>1684</ele>
        <time>2026-08-14T06:18:06.463Z</time>
      </trkpt>
      <trkpt lat="45.83196" lon="6.74611">
        <ele>1684</ele>
        <time>2026-08-14T06:18:07.463Z</time>
      </trkpt>
      <trkpt lat="45.83194" lon="6.7461">
        <ele>1684</ele>
        <time>2026-08-14T06:18:08.463Z</time>
      </trkpt>
      <trkpt lat="45.83191" lon="6.7461">
        <ele>1684</ele>
        <time>2026-08-14T06:18:09.463Z</time>
      </trkpt>
      <trkpt lat="45.83189" lon="6.7461">
        <ele>1684</ele>
        <time>2026-08-14T06:18:10.463Z</time>
      </trkpt>
      <trkpt lat="45.83186" lon="6.74608">
        <ele>1684</ele>
        <time>2026-08-14T06:18:11.463Z</time>
      </trkpt>
      <trkpt lat="45.83184" lon="6.74607">
        <ele>1683</ele>
        <time>2026-08-14T06:18:12.463Z</time>
      </trkpt>
      <trkpt lat="45.83182" lon="6.74606">
        <ele>1683</ele>
        <time>2026-08-14T06:18:13.463Z</time>
      </trkpt>
      <trkpt lat="45.83179" lon="6.74605">
        <ele>1683</ele>
        <time>2026-08-14T06:18:14.463Z</time>
      </trkpt>
      <trkpt lat="45.83177" lon="6.74604">
        <ele>1683</ele>
        <time>2026-08-14T06:18:15.463Z</time>
      </trkpt>
      <trkpt lat="45.83176" lon="6.74604">
        <ele>1682</ele>
        <time>2026-08-14T06:18:16.463Z</time>
      </trkpt>
      <trkpt lat="45.83174" lon="6.74605">
        <ele>1682</ele>
        <time>2026-08-14T06:18:17.463Z</time>
      </trkpt>
      <trkpt lat="45.83172" lon="6.74605">
        <ele>1681</ele>
        <time>2026-08-14T06:18:18.463Z</time>
      </trkpt>
      <trkpt lat="45.8317" lon="6.74605">
        <ele>1681</ele>
        <time>2026-08-14T06:18:19.463Z</time>
      </trkpt>
      <trkpt lat="45.83168" lon="6.74604">
        <ele>1680</ele>
        <time>2026-08-14T06:18:20.463Z</time>
      </trkpt>
      <trkpt lat="45.83166" lon="6.74603">
        <ele>1680</ele>
        <time>2026-08-14T06:18:21.463Z</time>
      </trkpt>
      <trkpt lat="45.83165" lon="6.74602">
        <ele>1679</ele>
        <time>2026-08-14T06:18:22.463Z</time>
      </trkpt>
      <trkpt lat="45.83164" lon="6.74603">
        <ele>1679</ele>
        <time>2026-08-14T06:18:23.463Z</time>
      </trkpt>
      <trkpt lat="45.83163" lon="6.74602">
        <ele>1678</ele>
        <time>2026-08-14T06:18:24.463Z</time>
      </trkpt>
      <trkpt lat="45.8316" lon="6.74601">
        <ele>1677</ele>
        <time>2026-08-14T06:18:25.463Z</time>
      </trkpt>
      <trkpt lat="45.83158" lon="6.746">
        <ele>1676</ele>
        <time>2026-08-14T06:18:26.463Z</time>
      </trkpt>
      <trkpt lat="45.83155" lon="6.746">
        <ele>1675</ele>
        <time>2026-08-14T06:18:27.463Z</time>
      </trkpt>
      <trkpt lat="45.83152" lon="6.74599">
        <ele>1674</ele>
        <time>2026-08-14T06:18:28.463Z</time>
      </trkpt>
      <trkpt lat="45.8315" lon="6.74599">
        <ele>1673</ele>
        <time>2026-08-14T06:18:29.463Z</time>
      </trkpt>
      <trkpt lat="45.83148" lon="6.74598">
        <ele>1673</ele>
        <time>2026-08-14T06:18:30.463Z</time>
      </trkpt>
      <trkpt lat="45.83145" lon="6.74597">
        <ele>1672</ele>
        <time>2026-08-14T06:18:31.463Z</time>
      </trkpt>
      <trkpt lat="45.83142" lon="6.74596">
        <ele>1671</ele>
        <time>2026-08-14T06:18:32.463Z</time>
      </trkpt>
      <trkpt lat="45.8314" lon="6.74595">
        <ele>1671</ele>
        <time>2026-08-14T06:18:33.463Z</time>
      </trkpt>
      <trkpt lat="45.83136" lon="6.74594">
        <ele>1670</ele>
        <time>2026-08-14T06:18:34.463Z</time>
      </trkpt>
      <trkpt lat="45.83133" lon="6.74592">
        <ele>1669</ele>
        <time>2026-08-14T06:18:35.463Z</time>
      </trkpt>
      <trkpt lat="45.8313" lon="6.74591">
        <ele>1669</ele>
        <time>2026-08-14T06:18:36.463Z</time>
      </trkpt>
      <trkpt lat="45.83125" lon="6.74589">
        <ele>1668</ele>
        <time>2026-08-14T06:18:37.463Z</time>
      </trkpt>
      <trkpt lat="45.83122" lon="6.74588">
        <ele>1668</ele>
        <time>2026-08-14T06:18:38.463Z</time>
      </trkpt>
      <trkpt lat="45.83119" lon="6.74587">
        <ele>1667</ele>
        <time>2026-08-14T06:18:39.463Z</time>
      </trkpt>
      <trkpt lat="45.83116" lon="6.74586">
        <ele>1667</ele>
        <time>2026-08-14T06:18:40.463Z</time>
      </trkpt>
      <trkpt lat="45.83114" lon="6.74585">
        <ele>1667</ele>
        <time>2026-08-14T06:18:41.463Z</time>
      </trkpt>
      <trkpt lat="45.83111" lon="6.74584">
        <ele>1666</ele>
        <time>2026-08-14T06:18:42.463Z</time>
      </trkpt>
      <trkpt lat="45.83109" lon="6.74583">
        <ele>1666</ele>
        <time>2026-08-14T06:18:43.463Z</time>
      </trkpt>
      <trkpt lat="45.83107" lon="6.74582">
        <ele>1666</ele>
        <time>2026-08-14T06:18:44.463Z</time>
      </trkpt>
      <trkpt lat="45.83105" lon="6.74582">
        <ele>1665</ele>
        <time>2026-08-14T06:18:45.463Z</time>
      </trkpt>
      <trkpt lat="45.83102" lon="6.74582">
        <ele>1664</ele>
        <time>2026-08-14T06:18:46.463Z</time>
      </trkpt>
      <trkpt lat="45.831" lon="6.74581">
        <ele>1664</ele>
        <time>2026-08-14T06:18:47.463Z</time>
      </trkpt>
      <trkpt lat="45.83099" lon="6.74581">
        <ele>1663</ele>
        <time>2026-08-14T06:18:48.463Z</time>
      </trkpt>
      <trkpt lat="45.83097" lon="6.74579">
        <ele>1662</ele>
        <time>2026-08-14T06:18:49.463Z</time>
      </trkpt>
      <trkpt lat="45.83094" lon="6.74578">
        <ele>1661</ele>
        <time>2026-08-14T06:18:50.463Z</time>
      </trkpt>
      <trkpt lat="45.83092" lon="6.74576">
        <ele>1660</ele>
        <time>2026-08-14T06:18:51.463Z</time>
      </trkpt>
      <trkpt lat="45.8309" lon="6.74574">
        <ele>1660</ele>
        <time>2026-08-14T06:18:52.463Z</time>
      </trkpt>
      <trkpt lat="45.83089" lon="6.74571">
        <ele>1659</ele>
        <time>2026-08-14T06:18:53.463Z</time>
      </trkpt>
      <trkpt lat="45.83087" lon="6.74569">
        <ele>1659</ele>
        <time>2026-08-14T06:18:54.463Z</time>
      </trkpt>
      <trkpt lat="45.83085" lon="6.74567">
        <ele>1658</ele>
        <time>2026-08-14T06:18:55.463Z</time>
      </trkpt>
      <trkpt lat="45.83083" lon="6.74565">
        <ele>1658</ele>
        <time>2026-08-14T06:18:56.463Z</time>
      </trkpt>
      <trkpt lat="45.83082" lon="6.74562">
        <ele>1657</ele>
        <time>2026-08-14T06:18:57.463Z</time>
      </trkpt>
      <trkpt lat="45.8308" lon="6.7456">
        <ele>1657</ele>
        <time>2026-08-14T06:18:58.463Z</time>
      </trkpt>
      <trkpt lat="45.83078" lon="6.74558">
        <ele>1656</ele>
        <time>2026-08-14T06:18:59.463Z</time>
      </trkpt>
      <trkpt lat="45.83077" lon="6.74557">
        <ele>1656</ele>
        <time>2026-08-14T06:19:00.463Z</time>
      </trkpt>
      <trkpt lat="45.83075" lon="6.74556">
        <ele>1656</ele>
        <time>2026-08-14T06:19:01.463Z</time>
      </trkpt>
      <trkpt lat="45.83074" lon="6.74554">
        <ele>1656</ele>
        <time>2026-08-14T06:19:02.463Z</time>
      </trkpt>
      <trkpt lat="45.83072" lon="6.74551">
        <ele>1655</ele>
        <time>2026-08-14T06:19:03.463Z</time>
      </trkpt>
      <trkpt lat="45.8307" lon="6.74548">
        <ele>1655</ele>
        <time>2026-08-14T06:19:04.463Z</time>
      </trkpt>
      <trkpt lat="45.83069" lon="6.74545">
        <ele>1654</ele>
        <time>2026-08-14T06:19:05.463Z</time>
      </trkpt>
      <trkpt lat="45.83067" lon="6.74542">
        <ele>1654</ele>
        <time>2026-08-14T06:19:06.463Z</time>
      </trkpt>
      <trkpt lat="45.83066" lon="6.7454">
        <ele>1653</ele>
        <time>2026-08-14T06:19:07.463Z</time>
      </trkpt>
      <trkpt lat="45.83064" lon="6.74538">
        <ele>1653</ele>
        <time>2026-08-14T06:19:08.463Z</time>
      </trkpt>
      <trkpt lat="45.83063" lon="6.74535">
        <ele>1653</ele>
        <time>2026-08-14T06:19:09.463Z</time>
      </trkpt>
      <trkpt lat="45.83061" lon="6.74533">
        <ele>1652</ele>
        <time>2026-08-14T06:19:10.463Z</time>
      </trkpt>
      <trkpt lat="45.8306" lon="6.7453">
        <ele>1652</ele>
        <time>2026-08-14T06:19:11.463Z</time>
      </trkpt>
      <trkpt lat="45.83059" lon="6.74527">
        <ele>1652</ele>
        <time>2026-08-14T06:19:12.463Z</time>
      </trkpt>
      <trkpt lat="45.83057" lon="6.74525">
        <ele>1651</ele>
        <time>2026-08-14T06:19:13.463Z</time>
      </trkpt>
      <trkpt lat="45.83056" lon="6.74522">
        <ele>1651</ele>
        <time>2026-08-14T06:19:14.463Z</time>
      </trkpt>
      <trkpt lat="45.83054" lon="6.7452">
        <ele>1651</ele>
        <time>2026-08-14T06:19:15.463Z</time>
      </trkpt>
      <trkpt lat="45.83052" lon="6.74518">
        <ele>1651</ele>
        <time>2026-08-14T06:19:16.463Z</time>
      </trkpt>
      <trkpt lat="45.8305" lon="6.74516">
        <ele>1651</ele>
        <time>2026-08-14T06:19:17.463Z</time>
      </trkpt>
      <trkpt lat="45.83047" lon="6.74514">
        <ele>1650</ele>
        <time>2026-08-14T06:19:18.463Z</time>
      </trkpt>
      <trkpt lat="45.83045" lon="6.74513">
        <ele>1650</ele>
        <time>2026-08-14T06:19:19.463Z</time>
      </trkpt>
      <trkpt lat="45.83043" lon="6.7451">
        <ele>1650</ele>
        <time>2026-08-14T06:19:20.463Z</time>
      </trkpt>
      <trkpt lat="45.8304" lon="6.74507">
        <ele>1649</ele>
        <time>2026-08-14T06:19:21.463Z</time>
      </trkpt>
      <trkpt lat="45.83036" lon="6.74502">
        <ele>1649</ele>
        <time>2026-08-14T06:19:22.463Z</time>
      </trkpt>
      <trkpt lat="45.83033" lon="6.74499">
        <ele>1648</ele>
        <time>2026-08-14T06:19:23.463Z</time>
      </trkpt>
      <trkpt lat="45.83031" lon="6.74497">
        <ele>1648</ele>
        <time>2026-08-14T06:19:24.463Z</time>
      </trkpt>
      <trkpt lat="45.83029" lon="6.74495">
        <ele>1647</ele>
        <time>2026-08-14T06:19:25.463Z</time>
      </trkpt>
      <trkpt lat="45.83026" lon="6.74492">
        <ele>1647</ele>
        <time>2026-08-14T06:19:26.463Z</time>
      </trkpt>
      <trkpt lat="45.83024" lon="6.7449">
        <ele>1646</ele>
        <time>2026-08-14T06:19:27.463Z</time>
      </trkpt>
      <trkpt lat="45.83022" lon="6.74489">
        <ele>1645</ele>
        <time>2026-08-14T06:19:28.463Z</time>
      </trkpt>
      <trkpt lat="45.83019" lon="6.74489">
        <ele>1645</ele>
        <time>2026-08-14T06:19:29.463Z</time>
      </trkpt>
      <trkpt lat="45.83017" lon="6.74489">
        <ele>1644</ele>
        <time>2026-08-14T06:19:30.463Z</time>
      </trkpt>
      <trkpt lat="45.83015" lon="6.74488">
        <ele>1644</ele>
        <time>2026-08-14T06:19:31.463Z</time>
      </trkpt>
      <trkpt lat="45.83013" lon="6.74488">
        <ele>1643</ele>
        <time>2026-08-14T06:19:32.463Z</time>
      </trkpt>
      <trkpt lat="45.83012" lon="6.74487">
        <ele>1643</ele>
        <time>2026-08-14T06:19:33.463Z</time>
      </trkpt>
      <trkpt lat="45.8301" lon="6.74487">
        <ele>1642</ele>
        <time>2026-08-14T06:19:34.463Z</time>
      </trkpt>
      <trkpt lat="45.83008" lon="6.74486">
        <ele>1641</ele>
        <time>2026-08-14T06:19:35.463Z</time>
      </trkpt>
      <trkpt lat="45.83007" lon="6.74484">
        <ele>1641</ele>
        <time>2026-08-14T06:19:36.463Z</time>
      </trkpt>
      <trkpt lat="45.83005" lon="6.74483">
        <ele>1641</ele>
        <time>2026-08-14T06:19:37.463Z</time>
      </trkpt>
      <trkpt lat="45.83004" lon="6.74483">
        <ele>1640</ele>
        <time>2026-08-14T06:19:38.463Z</time>
      </trkpt>
      <trkpt lat="45.83002" lon="6.74482">
        <ele>1640</ele>
        <time>2026-08-14T06:19:39.463Z</time>
      </trkpt>
      <trkpt lat="45.83" lon="6.74481">
        <ele>1640</ele>
        <time>2026-08-14T06:19:40.463Z</time>
      </trkpt>
      <trkpt lat="45.82998" lon="6.7448">
        <ele>1640</ele>
        <time>2026-08-14T06:19:41.463Z</time>
      </trkpt>
      <trkpt lat="45.82996" lon="6.74477">
        <ele>1640</ele>
        <time>2026-08-14T06:19:42.463Z</time>
      </trkpt>
      <trkpt lat="45.82993" lon="6.74473">
        <ele>1640</ele>
        <time>2026-08-14T06:19:43.463Z</time>
      </trkpt>
      <trkpt lat="45.82991" lon="6.7447">
        <ele>1640</ele>
        <time>2026-08-14T06:19:44.463Z</time>
      </trkpt>
      <trkpt lat="45.82989" lon="6.74466">
        <ele>1639</ele>
        <time>2026-08-14T06:19:45.463Z</time>
      </trkpt>
      <trkpt lat="45.82986" lon="6.74463">
        <ele>1639</ele>
        <time>2026-08-14T06:19:46.463Z</time>
      </trkpt>
      <trkpt lat="45.82984" lon="6.7446">
        <ele>1639</ele>
        <time>2026-08-14T06:19:47.463Z</time>
      </trkpt>
      <trkpt lat="45.82982" lon="6.74457">
        <ele>1638</ele>
        <time>2026-08-14T06:19:48.463Z</time>
      </trkpt>
      <trkpt lat="45.8298" lon="6.74454">
        <ele>1638</ele>
        <time>2026-08-14T06:19:49.463Z</time>
      </trkpt>
      <trkpt lat="45.82977" lon="6.74451">
        <ele>1637</ele>
        <time>2026-08-14T06:19:50.463Z</time>
      </trkpt>
      <trkpt lat="45.82975" lon="6.74448">
        <ele>1637</ele>
        <time>2026-08-14T06:19:51.463Z</time>
      </trkpt>
      <trkpt lat="45.82973" lon="6.74445">
        <ele>1636</ele>
        <time>2026-08-14T06:19:52.463Z</time>
      </trkpt>
      <trkpt lat="45.82971" lon="6.74443">
        <ele>1636</ele>
        <time>2026-08-14T06:19:53.463Z</time>
      </trkpt>
      <trkpt lat="45.82968" lon="6.7444">
        <ele>1635</ele>
        <time>2026-08-14T06:19:54.463Z</time>
      </trkpt>
      <trkpt lat="45.82966" lon="6.74438">
        <ele>1635</ele>
        <time>2026-08-14T06:19:55.463Z</time>
      </trkpt>
      <trkpt lat="45.82964" lon="6.74436">
        <ele>1634</ele>
        <time>2026-08-14T06:19:56.463Z</time>
      </trkpt>
      <trkpt lat="45.82962" lon="6.74434">
        <ele>1634</ele>
        <time>2026-08-14T06:19:57.463Z</time>
      </trkpt>
      <trkpt lat="45.8296" lon="6.74432">
        <ele>1633</ele>
        <time>2026-08-14T06:19:58.463Z</time>
      </trkpt>
      <trkpt lat="45.82959" lon="6.7443">
        <ele>1633</ele>
        <time>2026-08-14T06:19:59.463Z</time>
      </trkpt>
      <trkpt lat="45.82958" lon="6.74429">
        <ele>1632</ele>
        <time>2026-08-14T06:20:00.463Z</time>
      </trkpt>
      <trkpt lat="45.82956" lon="6.74427">
        <ele>1632</ele>
        <time>2026-08-14T06:20:01.463Z</time>
      </trkpt>
      <trkpt lat="45.82955" lon="6.74426">
        <ele>1631</ele>
        <time>2026-08-14T06:20:02.463Z</time>
      </trkpt>
      <trkpt lat="45.82954" lon="6.74424">
        <ele>1631</ele>
        <time>2026-08-14T06:20:03.463Z</time>
      </trkpt>
      <trkpt lat="45.82953" lon="6.74423">
        <ele>1631</ele>
        <time>2026-08-14T06:20:04.463Z</time>
      </trkpt>
      <trkpt lat="45.82952" lon="6.74421">
        <ele>1631</ele>
        <time>2026-08-14T06:20:05.463Z</time>
      </trkpt>
      <trkpt lat="45.82951" lon="6.74419">
        <ele>1631</ele>
        <time>2026-08-14T06:20:06.463Z</time>
      </trkpt>
      <trkpt lat="45.82949" lon="6.74417">
        <ele>1630</ele>
        <time>2026-08-14T06:20:07.463Z</time>
      </trkpt>
      <trkpt lat="45.82948" lon="6.74415">
        <ele>1630</ele>
        <time>2026-08-14T06:20:08.463Z</time>
      </trkpt>
      <trkpt lat="45.82946" lon="6.74414">
        <ele>1629</ele>
        <time>2026-08-14T06:20:09.463Z</time>
      </trkpt>
      <trkpt lat="45.82944" lon="6.74412">
        <ele>1628</ele>
        <time>2026-08-14T06:20:10.463Z</time>
      </trkpt>
      <trkpt lat="45.82942" lon="6.74411">
        <ele>1627</ele>
        <time>2026-08-14T06:20:11.463Z</time>
      </trkpt>
      <trkpt lat="45.8294" lon="6.74409">
        <ele>1626</ele>
        <time>2026-08-14T06:20:12.463Z</time>
      </trkpt>
      <trkpt lat="45.82938" lon="6.74409">
        <ele>1626</ele>
        <time>2026-08-14T06:20:13.463Z</time>
      </trkpt>
      <trkpt lat="45.82935" lon="6.74408">
        <ele>1625</ele>
        <time>2026-08-14T06:20:14.463Z</time>
      </trkpt>
      <trkpt lat="45.82932" lon="6.74407">
        <ele>1624</ele>
        <time>2026-08-14T06:20:15.463Z</time>
      </trkpt>
      <trkpt lat="45.8293" lon="6.74407">
        <ele>1624</ele>
        <time>2026-08-14T06:20:16.463Z</time>
      </trkpt>
      <trkpt lat="45.82927" lon="6.74406">
        <ele>1623</ele>
        <time>2026-08-14T06:20:17.463Z</time>
      </trkpt>
      <trkpt lat="45.82925" lon="6.74406">
        <ele>1622</ele>
        <time>2026-08-14T06:20:18.463Z</time>
      </trkpt>
      <trkpt lat="45.82923" lon="6.74404">
        <ele>1622</ele>
        <time>2026-08-14T06:20:19.463Z</time>
      </trkpt>
      <trkpt lat="45.82921" lon="6.74402">
        <ele>1621</ele>
        <time>2026-08-14T06:20:20.463Z</time>
      </trkpt>
      <trkpt lat="45.8292" lon="6.744">
        <ele>1620</ele>
        <time>2026-08-14T06:20:21.463Z</time>
      </trkpt>
      <trkpt lat="45.82918" lon="6.74398">
        <ele>1619</ele>
        <time>2026-08-14T06:20:22.463Z</time>
      </trkpt>
      <trkpt lat="45.82917" lon="6.74396">
        <ele>1618</ele>
        <time>2026-08-14T06:20:23.463Z</time>
      </trkpt>
      <trkpt lat="45.82916" lon="6.74394">
        <ele>1616</ele>
        <time>2026-08-14T06:20:24.463Z</time>
      </trkpt>
      <trkpt lat="45.82914" lon="6.74392">
        <ele>1615</ele>
        <time>2026-08-14T06:20:25.463Z</time>
      </trkpt>
      <trkpt lat="45.82914" lon="6.74389">
        <ele>1614</ele>
        <time>2026-08-14T06:20:26.463Z</time>
      </trkpt>
      <trkpt lat="45.82914" lon="6.74386">
        <ele>1612</ele>
        <time>2026-08-14T06:20:27.463Z</time>
      </trkpt>
      <trkpt lat="45.82914" lon="6.74383">
        <ele>1611</ele>
        <time>2026-08-14T06:20:28.463Z</time>
      </trkpt>
      <trkpt lat="45.82916" lon="6.74381">
        <ele>1610</ele>
        <time>2026-08-14T06:20:29.463Z</time>
      </trkpt>
      <trkpt lat="45.82917" lon="6.74381">
        <ele>1610</ele>
        <time>2026-08-14T06:20:30.463Z</time>
      </trkpt>
      <trkpt lat="45.82918" lon="6.74379">
        <ele>1609</ele>
        <time>2026-08-14T06:20:31.463Z</time>
      </trkpt>
      <trkpt lat="45.8292" lon="6.74379">
        <ele>1608</ele>
        <time>2026-08-14T06:20:32.463Z</time>
      </trkpt>
      <trkpt lat="45.82922" lon="6.74378">
        <ele>1608</ele>
        <time>2026-08-14T06:20:33.463Z</time>
      </trkpt>
      <trkpt lat="45.82924" lon="6.74378">
        <ele>1607</ele>
        <time>2026-08-14T06:20:34.463Z</time>
      </trkpt>
      <trkpt lat="45.82926" lon="6.74377">
        <ele>1606</ele>
        <time>2026-08-14T06:20:35.463Z</time>
      </trkpt>
      <trkpt lat="45.82928" lon="6.74375">
        <ele>1606</ele>
        <time>2026-08-14T06:20:36.463Z</time>
      </trkpt>
      <trkpt lat="45.82929" lon="6.74374">
        <ele>1605</ele>
        <time>2026-08-14T06:20:37.463Z</time>
      </trkpt>
      <trkpt lat="45.82931" lon="6.74373">
        <ele>1605</ele>
        <time>2026-08-14T06:20:38.463Z</time>
      </trkpt>
      <trkpt lat="45.82934" lon="6.74372">
        <ele>1605</ele>
        <time>2026-08-14T06:20:39.463Z</time>
      </trkpt>
      <trkpt lat="45.82936" lon="6.74371">
        <ele>1605</ele>
        <time>2026-08-14T06:20:40.463Z</time>
      </trkpt>
      <trkpt lat="45.82937" lon="6.74369">
        <ele>1605</ele>
        <time>2026-08-14T06:20:41.463Z</time>
      </trkpt>
      <trkpt lat="45.82939" lon="6.74367">
        <ele>1604</ele>
        <time>2026-08-14T06:20:42.463Z</time>
      </trkpt>
      <trkpt lat="45.82941" lon="6.74365">
        <ele>1604</ele>
        <time>2026-08-14T06:20:43.463Z</time>
      </trkpt>
      <trkpt lat="45.82942" lon="6.74363">
        <ele>1604</ele>
        <time>2026-08-14T06:20:44.463Z</time>
      </trkpt>
      <trkpt lat="45.82944" lon="6.74361">
        <ele>1603</ele>
        <time>2026-08-14T06:20:45.463Z</time>
      </trkpt>
      <trkpt lat="45.82946" lon="6.7436">
        <ele>1603</ele>
        <time>2026-08-14T06:20:46.463Z</time>
      </trkpt>
      <trkpt lat="45.82948" lon="6.74359">
        <ele>1603</ele>
        <time>2026-08-14T06:20:47.463Z</time>
      </trkpt>
      <trkpt lat="45.8295" lon="6.74358">
        <ele>1602</ele>
        <time>2026-08-14T06:20:48.463Z</time>
      </trkpt>
      <trkpt lat="45.82952" lon="6.74357">
        <ele>1601</ele>
        <time>2026-08-14T06:20:49.463Z</time>
      </trkpt>
      <trkpt lat="45.82953" lon="6.74356">
        <ele>1601</ele>
        <time>2026-08-14T06:20:50.463Z</time>
      </trkpt>
      <trkpt lat="45.82954" lon="6.74354">
        <ele>1600</ele>
        <time>2026-08-14T06:20:51.463Z</time>
      </trkpt>
      <trkpt lat="45.82954" lon="6.74353">
        <ele>1600</ele>
        <time>2026-08-14T06:20:52.463Z</time>
      </trkpt>
      <trkpt lat="45.82954" lon="6.74352">
        <ele>1599</ele>
        <time>2026-08-14T06:20:53.463Z</time>
      </trkpt>
      <trkpt lat="45.82954" lon="6.7435">
        <ele>1599</ele>
        <time>2026-08-14T06:20:54.463Z</time>
      </trkpt>
      <trkpt lat="45.82953" lon="6.7435">
        <ele>1599</ele>
        <time>2026-08-14T06:20:55.463Z</time>
      </trkpt>
      <trkpt lat="45.82952" lon="6.7435">
        <ele>1598</ele>
        <time>2026-08-14T06:20:56.463Z</time>
      </trkpt>
      <trkpt lat="45.82951" lon="6.74351">
        <ele>1598</ele>
        <time>2026-08-14T06:20:57.463Z</time>
      </trkpt>
      <trkpt lat="45.8295" lon="6.74351">
        <ele>1598</ele>
        <time>2026-08-14T06:20:58.463Z</time>
      </trkpt>
      <trkpt lat="45.8295" lon="6.7435">
        <ele>1598</ele>
        <time>2026-08-14T06:20:59.463Z</time>
      </trkpt>
      <trkpt lat="45.82949" lon="6.74349">
        <ele>1598</ele>
        <time>2026-08-14T06:21:00.463Z</time>
      </trkpt>
      <trkpt lat="45.82948" lon="6.74347">
        <ele>1598</ele>
        <time>2026-08-14T06:21:01.463Z</time>
      </trkpt>
      <trkpt lat="45.82948" lon="6.74344">
        <ele>1597</ele>
        <time>2026-08-14T06:21:02.463Z</time>
      </trkpt>
      <trkpt lat="45.82947" lon="6.74342">
        <ele>1597</ele>
        <time>2026-08-14T06:21:03.463Z</time>
      </trkpt>
      <trkpt lat="45.82945" lon="6.7434">
        <ele>1597</ele>
        <time>2026-08-14T06:21:04.463Z</time>
      </trkpt>
      <trkpt lat="45.82944" lon="6.74339">
        <ele>1596</ele>
        <time>2026-08-14T06:21:05.463Z</time>
      </trkpt>
      <trkpt lat="45.82943" lon="6.74338">
        <ele>1595</ele>
        <time>2026-08-14T06:21:06.463Z</time>
      </trkpt>
      <trkpt lat="45.82942" lon="6.74338">
        <ele>1595</ele>
        <time>2026-08-14T06:21:07.463Z</time>
      </trkpt>
      <trkpt lat="45.8294" lon="6.74337">
        <ele>1595</ele>
        <time>2026-08-14T06:21:08.463Z</time>
      </trkpt>
      <trkpt lat="45.8294" lon="6.74335">
        <ele>1594</ele>
        <time>2026-08-14T06:21:09.463Z</time>
      </trkpt>
      <trkpt lat="45.82939" lon="6.74334">
        <ele>1594</ele>
        <time>2026-08-14T06:21:10.463Z</time>
      </trkpt>
      <trkpt lat="45.82938" lon="6.74331">
        <ele>1593</ele>
        <time>2026-08-14T06:21:11.463Z</time>
      </trkpt>
      <trkpt lat="45.82937" lon="6.74329">
        <ele>1593</ele>
        <time>2026-08-14T06:21:12.463Z</time>
      </trkpt>
      <trkpt lat="45.82936" lon="6.74327">
        <ele>1593</ele>
        <time>2026-08-14T06:21:13.463Z</time>
      </trkpt>
      <trkpt lat="45.82935" lon="6.74325">
        <ele>1593</ele>
        <time>2026-08-14T06:21:14.463Z</time>
      </trkpt>
      <trkpt lat="45.82933" lon="6.74324">
        <ele>1593</ele>
        <time>2026-08-14T06:21:15.463Z</time>
      </trkpt>
      <trkpt lat="45.82932" lon="6.74322">
        <ele>1593</ele>
        <time>2026-08-14T06:21:16.463Z</time>
      </trkpt>
      <trkpt lat="45.82931" lon="6.7432">
        <ele>1592</ele>
        <time>2026-08-14T06:21:17.463Z</time>
      </trkpt>
      <trkpt lat="45.8293" lon="6.7432">
        <ele>1592</ele>
        <time>2026-08-14T06:21:18.463Z</time>
      </trkpt>
      <trkpt lat="45.82929" lon="6.74318">
        <ele>1592</ele>
        <time>2026-08-14T06:21:19.463Z</time>
      </trkpt>
      <trkpt lat="45.82928" lon="6.74317">
        <ele>1591</ele>
        <time>2026-08-14T06:21:20.463Z</time>
      </trkpt>
      <trkpt lat="45.82927" lon="6.74315">
        <ele>1591</ele>
        <time>2026-08-14T06:21:21.463Z</time>
      </trkpt>
      <trkpt lat="45.82926" lon="6.74312">
        <ele>1590</ele>
        <time>2026-08-14T06:21:22.463Z</time>
      </trkpt>
      <trkpt lat="45.82925" lon="6.7431">
        <ele>1589</ele>
        <time>2026-08-14T06:21:23.463Z</time>
      </trkpt>
      <trkpt lat="45.82924" lon="6.74308">
        <ele>1588</ele>
        <time>2026-08-14T06:21:24.463Z</time>
      </trkpt>
      <trkpt lat="45.82924" lon="6.74306">
        <ele>1588</ele>
        <time>2026-08-14T06:21:25.463Z</time>
      </trkpt>
      <trkpt lat="45.82923" lon="6.74304">
        <ele>1587</ele>
        <time>2026-08-14T06:21:26.463Z</time>
      </trkpt>
      <trkpt lat="45.82923" lon="6.74302">
        <ele>1587</ele>
        <time>2026-08-14T06:21:27.463Z</time>
      </trkpt>
      <trkpt lat="45.82924" lon="6.74301">
        <ele>1586</ele>
        <time>2026-08-14T06:21:28.463Z</time>
      </trkpt>
      <trkpt lat="45.82924" lon="6.74299">
        <ele>1586</ele>
        <time>2026-08-14T06:21:29.463Z</time>
      </trkpt>
      <trkpt lat="45.82923" lon="6.74297">
        <ele>1585</ele>
        <time>2026-08-14T06:21:30.463Z</time>
      </trkpt>
      <trkpt lat="45.82922" lon="6.74295">
        <ele>1585</ele>
        <time>2026-08-14T06:21:31.463Z</time>
      </trkpt>
      <trkpt lat="45.82922" lon="6.74293">
        <ele>1585</ele>
        <time>2026-08-14T06:21:32.463Z</time>
      </trkpt>
      <trkpt lat="45.82922" lon="6.74291">
        <ele>1585</ele>
        <time>2026-08-14T06:21:33.463Z</time>
      </trkpt>
      <trkpt lat="45.82922" lon="6.74289">
        <ele>1585</ele>
        <time>2026-08-14T06:21:34.463Z</time>
      </trkpt>
      <trkpt lat="45.82922" lon="6.74287">
        <ele>1584</ele>
        <time>2026-08-14T06:21:35.463Z</time>
      </trkpt>
      <trkpt lat="45.82922" lon="6.74286">
        <ele>1584</ele>
        <time>2026-08-14T06:21:36.463Z</time>
      </trkpt>
      <trkpt lat="45.82922" lon="6.74284">
        <ele>1584</ele>
        <time>2026-08-14T06:21:37.463Z</time>
      </trkpt>
      <trkpt lat="45.82923" lon="6.74283">
        <ele>1584</ele>
        <time>2026-08-14T06:21:38.463Z</time>
      </trkpt>
      <trkpt lat="45.82923" lon="6.74282">
        <ele>1583</ele>
        <time>2026-08-14T06:21:39.463Z</time>
      </trkpt>
      <trkpt lat="45.82923" lon="6.74281">
        <ele>1582</ele>
        <time>2026-08-14T06:21:40.463Z</time>
      </trkpt>
      <trkpt lat="45.82923" lon="6.7428">
        <ele>1582</ele>
        <time>2026-08-14T06:21:41.463Z</time>
      </trkpt>
      <trkpt lat="45.82923" lon="6.74279">
        <ele>1581</ele>
        <time>2026-08-14T06:21:42.463Z</time>
      </trkpt>
      <trkpt lat="45.82923" lon="6.74279">
        <ele>1581</ele>
        <time>2026-08-14T06:21:43.463Z</time>
      </trkpt>
      <trkpt lat="45.82922" lon="6.74279">
        <ele>1581</ele>
        <time>2026-08-14T06:21:44.463Z</time>
      </trkpt>
      <trkpt lat="45.82922" lon="6.74278">
        <ele>1581</ele>
        <time>2026-08-14T06:21:45.463Z</time>
      </trkpt>
      <trkpt lat="45.82922" lon="6.74278">
        <ele>1581</ele>
        <time>2026-08-14T06:21:46.463Z</time>
      </trkpt>
      <trkpt lat="45.82921" lon="6.74278">
        <ele>1581</ele>
        <time>2026-08-14T06:21:47.463Z</time>
      </trkpt>
      <trkpt lat="45.82921" lon="6.74279">
        <ele>1582</ele>
        <time>2026-08-14T06:21:48.463Z</time>
      </trkpt>
      <trkpt lat="45.8292" lon="6.7428">
        <ele>1581</ele>
        <time>2026-08-14T06:21:49.463Z</time>
      </trkpt>
      <trkpt lat="45.82919" lon="6.74282">
        <ele>1581</ele>
        <time>2026-08-14T06:21:50.463Z</time>
      </trkpt>
      <trkpt lat="45.82918" lon="6.74284">
        <ele>1581</ele>
        <time>2026-08-14T06:21:51.463Z</time>
      </trkpt>
      <trkpt lat="45.82916" lon="6.74286">
        <ele>1581</ele>
        <time>2026-08-14T06:21:52.463Z</time>
      </trkpt>
      <trkpt lat="45.82915" lon="6.74288">
        <ele>1581</ele>
        <time>2026-08-14T06:21:53.463Z</time>
      </trkpt>
      <trkpt lat="45.82914" lon="6.7429">
        <ele>1581</ele>
        <time>2026-08-14T06:21:54.463Z</time>
      </trkpt>
      <trkpt lat="45.82913" lon="6.74292">
        <ele>1581</ele>
        <time>2026-08-14T06:21:55.463Z</time>
      </trkpt>
      <trkpt lat="45.82912" lon="6.74294">
        <ele>1581</ele>
        <time>2026-08-14T06:21:56.463Z</time>
      </trkpt>
      <trkpt lat="45.82911" lon="6.74295">
        <ele>1581</ele>
        <time>2026-08-14T06:21:57.463Z</time>
      </trkpt>
      <trkpt lat="45.82911" lon="6.74296">
        <ele>1581</ele>
        <time>2026-08-14T06:21:58.463Z</time>
      </trkpt>
      <trkpt lat="45.82909" lon="6.74296">
        <ele>1581</ele>
        <time>2026-08-14T06:21:59.463Z</time>
      </trkpt>
      <trkpt lat="45.82908" lon="6.74297">
        <ele>1581</ele>
        <time>2026-08-14T06:22:00.463Z</time>
      </trkpt>
      <trkpt lat="45.82907" lon="6.74298">
        <ele>1581</ele>
        <time>2026-08-14T06:22:01.463Z</time>
      </trkpt>
      <trkpt lat="45.82906" lon="6.74298">
        <ele>1582</ele>
        <time>2026-08-14T06:22:02.463Z</time>
      </trkpt>
      <trkpt lat="45.82905" lon="6.74298">
        <ele>1582</ele>
        <time>2026-08-14T06:22:03.463Z</time>
      </trkpt>
      <trkpt lat="45.82904" lon="6.74298">
        <ele>1582</ele>
        <time>2026-08-14T06:22:04.463Z</time>
      </trkpt>
      <trkpt lat="45.82903" lon="6.74299">
        <ele>1583</ele>
        <time>2026-08-14T06:22:05.463Z</time>
      </trkpt>
      <trkpt lat="45.82903" lon="6.743">
        <ele>1583</ele>
        <time>2026-08-14T06:22:06.463Z</time>
      </trkpt>
      <trkpt lat="45.82902" lon="6.74301">
        <ele>1583</ele>
        <time>2026-08-14T06:22:07.463Z</time>
      </trkpt>
      <trkpt lat="45.82901" lon="6.74302">
        <ele>1583</ele>
        <time>2026-08-14T06:22:08.463Z</time>
      </trkpt>
      <trkpt lat="45.829" lon="6.74303">
        <ele>1583</ele>
        <time>2026-08-14T06:22:09.463Z</time>
      </trkpt>
      <trkpt lat="45.82899" lon="6.74304">
        <ele>1584</ele>
        <time>2026-08-14T06:22:10.463Z</time>
      </trkpt>
      <trkpt lat="45.82898" lon="6.74306">
        <ele>1584</ele>
        <time>2026-08-14T06:22:11.463Z</time>
      </trkpt>
      <trkpt lat="45.82896" lon="6.74307">
        <ele>1584</ele>
        <time>2026-08-14T06:22:12.463Z</time>
      </trkpt>
      <trkpt lat="45.82894" lon="6.74309">
        <ele>1584</ele>
        <time>2026-08-14T06:22:13.463Z</time>
      </trkpt>
      <trkpt lat="45.82892" lon="6.74311">
        <ele>1585</ele>
        <time>2026-08-14T06:22:14.463Z</time>
      </trkpt>
      <trkpt lat="45.8289" lon="6.74312">
        <ele>1584</ele>
        <time>2026-08-14T06:22:15.463Z</time>
      </trkpt>
      <trkpt lat="45.82888" lon="6.74313">
        <ele>1584</ele>
        <time>2026-08-14T06:22:16.463Z</time>
      </trkpt>
      <trkpt lat="45.82887" lon="6.74314">
        <ele>1584</ele>
        <time>2026-08-14T06:22:17.463Z</time>
      </trkpt>
      <trkpt lat="45.82885" lon="6.74315">
        <ele>1584</ele>
        <time>2026-08-14T06:22:18.463Z</time>
      </trkpt>
      <trkpt lat="45.82883" lon="6.74315">
        <ele>1584</ele>
        <time>2026-08-14T06:22:19.463Z</time>
      </trkpt>
      <trkpt lat="45.82882" lon="6.74315">
        <ele>1584</ele>
        <time>2026-08-14T06:22:20.463Z</time>
      </trkpt>
      <trkpt lat="45.82881" lon="6.74315">
        <ele>1583</ele>
        <time>2026-08-14T06:22:21.463Z</time>
      </trkpt>
      <trkpt lat="45.8288" lon="6.74314">
        <ele>1583</ele>
        <time>2026-08-14T06:22:22.463Z</time>
      </trkpt>
      <trkpt lat="45.82879" lon="6.74313">
        <ele>1583</ele>
        <time>2026-08-14T06:22:23.463Z</time>
      </trkpt>
      <trkpt lat="45.82878" lon="6.74313">
        <ele>1582</ele>
        <time>2026-08-14T06:22:24.463Z</time>
      </trkpt>
      <trkpt lat="45.82877" lon="6.74312">
        <ele>1582</ele>
        <time>2026-08-14T06:22:25.463Z</time>
      </trkpt>
      <trkpt lat="45.82877" lon="6.74311">
        <ele>1581</ele>
        <time>2026-08-14T06:22:26.463Z</time>
      </trkpt>
      <trkpt lat="45.82877" lon="6.74309">
        <ele>1580</ele>
        <time>2026-08-14T06:22:27.463Z</time>
      </trkpt>
      <trkpt lat="45.82876" lon="6.74308">
        <ele>1580</ele>
        <time>2026-08-14T06:22:28.463Z</time>
      </trkpt>
      <trkpt lat="45.82876" lon="6.74307">
        <ele>1579</ele>
        <time>2026-08-14T06:22:29.463Z</time>
      </trkpt>
      <trkpt lat="45.82876" lon="6.74305">
        <ele>1579</ele>
        <time>2026-08-14T06:22:30.463Z</time>
      </trkpt>
      <trkpt lat="45.82874" lon="6.74303">
        <ele>1579</ele>
        <time>2026-08-14T06:22:31.463Z</time>
      </trkpt>
      <trkpt lat="45.82873" lon="6.74301">
        <ele>1578</ele>
        <time>2026-08-14T06:22:32.463Z</time>
      </trkpt>
      <trkpt lat="45.82872" lon="6.74298">
        <ele>1578</ele>
        <time>2026-08-14T06:22:33.463Z</time>
      </trkpt>
      <trkpt lat="45.8287" lon="6.74296">
        <ele>1578</ele>
        <time>2026-08-14T06:22:34.463Z</time>
      </trkpt>
      <trkpt lat="45.82869" lon="6.74294">
        <ele>1578</ele>
        <time>2026-08-14T06:22:35.463Z</time>
      </trkpt>
      <trkpt lat="45.82868" lon="6.74292">
        <ele>1578</ele>
        <time>2026-08-14T06:22:36.463Z</time>
      </trkpt>
      <trkpt lat="45.82867" lon="6.74289">
        <ele>1578</ele>
        <time>2026-08-14T06:22:37.463Z</time>
      </trkpt>
      <trkpt lat="45.82866" lon="6.74286">
        <ele>1578</ele>
        <time>2026-08-14T06:22:38.463Z</time>
      </trkpt>
      <trkpt lat="45.82865" lon="6.74283">
        <ele>1578</ele>
        <time>2026-08-14T06:22:39.463Z</time>
      </trkpt>
      <trkpt lat="45.82864" lon="6.7428">
        <ele>1578</ele>
        <time>2026-08-14T06:22:40.463Z</time>
      </trkpt>
      <trkpt lat="45.82863" lon="6.74278">
        <ele>1579</ele>
        <time>2026-08-14T06:22:41.463Z</time>
      </trkpt>
      <trkpt lat="45.82862" lon="6.74277">
        <ele>1579</ele>
        <time>2026-08-14T06:22:42.463Z</time>
      </trkpt>
      <trkpt lat="45.8286" lon="6.74275">
        <ele>1579</ele>
        <time>2026-08-14T06:22:43.463Z</time>
      </trkpt>
      <trkpt lat="45.82859" lon="6.74273">
        <ele>1579</ele>
        <time>2026-08-14T06:22:44.463Z</time>
      </trkpt>
      <trkpt lat="45.82858" lon="6.74271">
        <ele>1579</ele>
        <time>2026-08-14T06:22:45.463Z</time>
      </trkpt>
      <trkpt lat="45.82857" lon="6.7427">
        <ele>1579</ele>
        <time>2026-08-14T06:22:46.463Z</time>
      </trkpt>
      <trkpt lat="45.82855" lon="6.74268">
        <ele>1579</ele>
        <time>2026-08-14T06:22:47.463Z</time>
      </trkpt>
      <trkpt lat="45.82854" lon="6.74266">
        <ele>1579</ele>
        <time>2026-08-14T06:22:48.463Z</time>
      </trkpt>
      <trkpt lat="45.82853" lon="6.74265">
        <ele>1579</ele>
        <time>2026-08-14T06:22:49.463Z</time>
      </trkpt>
      <trkpt lat="45.82851" lon="6.74265">
        <ele>1579</ele>
        <time>2026-08-14T06:22:50.463Z</time>
      </trkpt>
      <trkpt lat="45.8285" lon="6.74265">
        <ele>1579</ele>
        <time>2026-08-14T06:22:51.463Z</time>
      </trkpt>
      <trkpt lat="45.82848" lon="6.74264">
        <ele>1579</ele>
        <time>2026-08-14T06:22:52.463Z</time>
      </trkpt>
      <trkpt lat="45.82846" lon="6.74264">
        <ele>1578</ele>
        <time>2026-08-14T06:22:53.463Z</time>
      </trkpt>
      <trkpt lat="45.82845" lon="6.74263">
        <ele>1578</ele>
        <time>2026-08-14T06:22:54.463Z</time>
      </trkpt>
      <trkpt lat="45.82843" lon="6.74261">
        <ele>1577</ele>
        <time>2026-08-14T06:22:55.463Z</time>
      </trkpt>
      <trkpt lat="45.82841" lon="6.74259">
        <ele>1576</ele>
        <time>2026-08-14T06:22:56.463Z</time>
      </trkpt>
      <trkpt lat="45.82839" lon="6.74257">
        <ele>1575</ele>
        <time>2026-08-14T06:22:57.463Z</time>
      </trkpt>
      <trkpt lat="45.82838" lon="6.74255">
        <ele>1574</ele>
        <time>2026-08-14T06:22:58.463Z</time>
      </trkpt>
      <trkpt lat="45.82837" lon="6.74253">
        <ele>1572</ele>
        <time>2026-08-14T06:22:59.463Z</time>
      </trkpt>
      <trkpt lat="45.82836" lon="6.74252">
        <ele>1571</ele>
        <time>2026-08-14T06:23:00.463Z</time>
      </trkpt>
      <trkpt lat="45.82836" lon="6.74252">
        <ele>1570</ele>
        <time>2026-08-14T06:23:01.463Z</time>
      </trkpt>
      <trkpt lat="45.82835" lon="6.74251">
        <ele>1570</ele>
        <time>2026-08-14T06:23:02.463Z</time>
      </trkpt>
      <trkpt lat="45.82834" lon="6.74252">
        <ele>1569</ele>
        <time>2026-08-14T06:23:03.463Z</time>
      </trkpt>
      <trkpt lat="45.82833" lon="6.74252">
        <ele>1569</ele>
        <time>2026-08-14T06:23:04.463Z</time>
      </trkpt>
      <trkpt lat="45.82833" lon="6.74252">
        <ele>1569</ele>
        <time>2026-08-14T06:23:05.463Z</time>
      </trkpt>
      <trkpt lat="45.82832" lon="6.74251">
        <ele>1568</ele>
        <time>2026-08-14T06:23:06.463Z</time>
      </trkpt>
      <trkpt lat="45.82831" lon="6.7425">
        <ele>1568</ele>
        <time>2026-08-14T06:23:07.463Z</time>
      </trkpt>
      <trkpt lat="45.82829" lon="6.74249">
        <ele>1568</ele>
        <time>2026-08-14T06:23:08.463Z</time>
      </trkpt>
      <trkpt lat="45.82827" lon="6.74248">
        <ele>1567</ele>
        <time>2026-08-14T06:23:09.463Z</time>
      </trkpt>
      <trkpt lat="45.82826" lon="6.74248">
        <ele>1567</ele>
        <time>2026-08-14T06:23:10.463Z</time>
      </trkpt>
      <trkpt lat="45.82824" lon="6.74248">
        <ele>1567</ele>
        <time>2026-08-14T06:23:11.463Z</time>
      </trkpt>
      <trkpt lat="45.82823" lon="6.74248">
        <ele>1567</ele>
        <time>2026-08-14T06:23:12.463Z</time>
      </trkpt>
      <trkpt lat="45.82823" lon="6.74247">
        <ele>1567</ele>
        <time>2026-08-14T06:23:13.463Z</time>
      </trkpt>
      <trkpt lat="45.82822" lon="6.74247">
        <ele>1567</ele>
        <time>2026-08-14T06:23:14.463Z</time>
      </trkpt>
      <trkpt lat="45.82821" lon="6.74248">
        <ele>1567</ele>
        <time>2026-08-14T06:23:15.463Z</time>
      </trkpt>
      <trkpt lat="45.82819" lon="6.74249">
        <ele>1567</ele>
        <time>2026-08-14T06:23:16.463Z</time>
      </trkpt>
      <trkpt lat="45.82818" lon="6.7425">
        <ele>1567</ele>
        <time>2026-08-14T06:23:17.463Z</time>
      </trkpt>
      <trkpt lat="45.82816" lon="6.7425">
        <ele>1567</ele>
        <time>2026-08-14T06:23:18.463Z</time>
      </trkpt>
      <trkpt lat="45.82815" lon="6.7425">
        <ele>1567</ele>
        <time>2026-08-14T06:23:19.463Z</time>
      </trkpt>
      <trkpt lat="45.82813" lon="6.74249">
        <ele>1568</ele>
        <time>2026-08-14T06:23:20.463Z</time>
      </trkpt>
      <trkpt lat="45.82812" lon="6.74248">
        <ele>1568</ele>
        <time>2026-08-14T06:23:21.463Z</time>
      </trkpt>
      <trkpt lat="45.8281" lon="6.74247">
        <ele>1568</ele>
        <time>2026-08-14T06:23:22.463Z</time>
      </trkpt>
      <trkpt lat="45.82809" lon="6.74246">
        <ele>1568</ele>
        <time>2026-08-14T06:23:23.463Z</time>
      </trkpt>
      <trkpt lat="45.82807" lon="6.74246">
        <ele>1568</ele>
        <time>2026-08-14T06:23:24.463Z</time>
      </trkpt>
      <trkpt lat="45.82806" lon="6.74245">
        <ele>1568</ele>
        <time>2026-08-14T06:23:25.463Z</time>
      </trkpt>
      <trkpt lat="45.82805" lon="6.74245">
        <ele>1568</ele>
        <time>2026-08-14T06:23:26.463Z</time>
      </trkpt>
      <trkpt lat="45.82803" lon="6.74245">
        <ele>1568</ele>
        <time>2026-08-14T06:23:27.463Z</time>
      </trkpt>
      <trkpt lat="45.82801" lon="6.74244">
        <ele>1568</ele>
        <time>2026-08-14T06:23:28.463Z</time>
      </trkpt>
      <trkpt lat="45.82799" lon="6.74243">
        <ele>1568</ele>
        <time>2026-08-14T06:23:29.463Z</time>
      </trkpt>
      <trkpt lat="45.82796" lon="6.74243">
        <ele>1568</ele>
        <time>2026-08-14T06:23:30.463Z</time>
      </trkpt>
      <trkpt lat="45.82794" lon="6.74242">
        <ele>1569</ele>
        <time>2026-08-14T06:23:31.463Z</time>
      </trkpt>
      <trkpt lat="45.82792" lon="6.7424">
        <ele>1569</ele>
        <time>2026-08-14T06:23:32.463Z</time>
      </trkpt>
      <trkpt lat="45.82791" lon="6.74238">
        <ele>1570</ele>
        <time>2026-08-14T06:23:33.463Z</time>
      </trkpt>
      <trkpt lat="45.82789" lon="6.74237">
        <ele>1570</ele>
        <time>2026-08-14T06:23:34.463Z</time>
      </trkpt>
      <trkpt lat="45.82788" lon="6.74236">
        <ele>1571</ele>
        <time>2026-08-14T06:23:35.463Z</time>
      </trkpt>
      <trkpt lat="45.82788" lon="6.74234">
        <ele>1571</ele>
        <time>2026-08-14T06:23:36.463Z</time>
      </trkpt>
      <trkpt lat="45.82786" lon="6.74233">
        <ele>1571</ele>
        <time>2026-08-14T06:23:37.463Z</time>
      </trkpt>
      <trkpt lat="45.82785" lon="6.74232">
        <ele>1572</ele>
        <time>2026-08-14T06:23:38.463Z</time>
      </trkpt>
      <trkpt lat="45.82783" lon="6.74231">
        <ele>1572</ele>
        <time>2026-08-14T06:23:39.463Z</time>
      </trkpt>
      <trkpt lat="45.82782" lon="6.74229">
        <ele>1572</ele>
        <time>2026-08-14T06:23:40.463Z</time>
      </trkpt>
      <trkpt lat="45.8278" lon="6.74228">
        <ele>1572</ele>
        <time>2026-08-14T06:23:41.463Z</time>
      </trkpt>
      <trkpt lat="45.82779" lon="6.74227">
        <ele>1572</ele>
        <time>2026-08-14T06:23:42.463Z</time>
      </trkpt>
      <trkpt lat="45.82778" lon="6.74226">
        <ele>1571</ele>
        <time>2026-08-14T06:23:43.463Z</time>
      </trkpt>
      <trkpt lat="45.82776" lon="6.74225">
        <ele>1571</ele>
        <time>2026-08-14T06:23:44.463Z</time>
      </trkpt>
      <trkpt lat="45.82775" lon="6.74224">
        <ele>1570</ele>
        <time>2026-08-14T06:23:45.463Z</time>
      </trkpt>
      <trkpt lat="45.82774" lon="6.74221">
        <ele>1570</ele>
        <time>2026-08-14T06:23:46.463Z</time>
      </trkpt>
      <trkpt lat="45.82773" lon="6.74219">
        <ele>1569</ele>
        <time>2026-08-14T06:23:47.463Z</time>
      </trkpt>
      <trkpt lat="45.82772" lon="6.74218">
        <ele>1569</ele>
        <time>2026-08-14T06:23:48.463Z</time>
      </trkpt>
      <trkpt lat="45.8277" lon="6.74217">
        <ele>1568</ele>
        <time>2026-08-14T06:23:49.463Z</time>
      </trkpt>
      <trkpt lat="45.82767" lon="6.74216">
        <ele>1568</ele>
        <time>2026-08-14T06:23:50.463Z</time>
      </trkpt>
      <trkpt lat="45.82766" lon="6.74216">
        <ele>1568</ele>
        <time>2026-08-14T06:23:51.463Z</time>
      </trkpt>
      <trkpt lat="45.82765" lon="6.74216">
        <ele>1568</ele>
        <time>2026-08-14T06:23:52.463Z</time>
      </trkpt>
      <trkpt lat="45.82764" lon="6.74214">
        <ele>1567</ele>
        <time>2026-08-14T06:23:53.463Z</time>
      </trkpt>
      <trkpt lat="45.82764" lon="6.74212">
        <ele>1567</ele>
        <time>2026-08-14T06:23:54.463Z</time>
      </trkpt>
      <trkpt lat="45.82764" lon="6.74209">
        <ele>1567</ele>
        <time>2026-08-14T06:23:55.463Z</time>
      </trkpt>
      <trkpt lat="45.82764" lon="6.74208">
        <ele>1567</ele>
        <time>2026-08-14T06:23:56.463Z</time>
      </trkpt>
      <trkpt lat="45.82764" lon="6.74206">
        <ele>1566</ele>
        <time>2026-08-14T06:23:57.463Z</time>
      </trkpt>
      <trkpt lat="45.82764" lon="6.74205">
        <ele>1566</ele>
        <time>2026-08-14T06:23:58.463Z</time>
      </trkpt>
      <trkpt lat="45.82764" lon="6.74204">
        <ele>1565</ele>
        <time>2026-08-14T06:23:59.463Z</time>
      </trkpt>
      <trkpt lat="45.82763" lon="6.74202">
        <ele>1565</ele>
        <time>2026-08-14T06:24:00.463Z</time>
      </trkpt>
      <trkpt lat="45.82763" lon="6.74201">
        <ele>1565</ele>
        <time>2026-08-14T06:24:01.463Z</time>
      </trkpt>
      <trkpt lat="45.82762" lon="6.74199">
        <ele>1564</ele>
        <time>2026-08-14T06:24:02.463Z</time>
      </trkpt>
      <trkpt lat="45.82761" lon="6.74197">
        <ele>1564</ele>
        <time>2026-08-14T06:24:03.463Z</time>
      </trkpt>
      <trkpt lat="45.82761" lon="6.74195">
        <ele>1564</ele>
        <time>2026-08-14T06:24:04.463Z</time>
      </trkpt>
      <trkpt lat="45.8276" lon="6.74194">
        <ele>1564</ele>
        <time>2026-08-14T06:24:05.463Z</time>
      </trkpt>
      <trkpt lat="45.8276" lon="6.74192">
        <ele>1563</ele>
        <time>2026-08-14T06:24:06.463Z</time>
      </trkpt>
      <trkpt lat="45.82759" lon="6.74189">
        <ele>1563</ele>
        <time>2026-08-14T06:24:07.463Z</time>
      </trkpt>
      <trkpt lat="45.82759" lon="6.74186">
        <ele>1563</ele>
        <time>2026-08-14T06:24:08.463Z</time>
      </trkpt>
      <trkpt lat="45.82758" lon="6.74183">
        <ele>1563</ele>
        <time>2026-08-14T06:24:09.463Z</time>
      </trkpt>
      <trkpt lat="45.82758" lon="6.74181">
        <ele>1563</ele>
        <time>2026-08-14T06:24:10.463Z</time>
      </trkpt>
      <trkpt lat="45.82757" lon="6.74178">
        <ele>1563</ele>
        <time>2026-08-14T06:24:11.463Z</time>
      </trkpt>
      <trkpt lat="45.82756" lon="6.74175">
        <ele>1563</ele>
        <time>2026-08-14T06:24:12.463Z</time>
      </trkpt>
      <trkpt lat="45.82754" lon="6.74173">
        <ele>1563</ele>
        <time>2026-08-14T06:24:13.463Z</time>
      </trkpt>
      <trkpt lat="45.82754" lon="6.74171">
        <ele>1563</ele>
        <time>2026-08-14T06:24:14.463Z</time>
      </trkpt>
      <trkpt lat="45.82753" lon="6.74169">
        <ele>1563</ele>
        <time>2026-08-14T06:24:15.463Z</time>
      </trkpt>
      <trkpt lat="45.82752" lon="6.74166">
        <ele>1562</ele>
        <time>2026-08-14T06:24:16.463Z</time>
      </trkpt>
      <trkpt lat="45.82751" lon="6.74164">
        <ele>1562</ele>
        <time>2026-08-14T06:24:17.463Z</time>
      </trkpt>
      <trkpt lat="45.8275" lon="6.74161">
        <ele>1561</ele>
        <time>2026-08-14T06:24:18.463Z</time>
      </trkpt>
      <trkpt lat="45.82749" lon="6.74159">
        <ele>1561</ele>
        <time>2026-08-14T06:24:19.463Z</time>
      </trkpt>
      <trkpt lat="45.82748" lon="6.74157">
        <ele>1560</ele>
        <time>2026-08-14T06:24:20.463Z</time>
      </trkpt>
      <trkpt lat="45.82748" lon="6.74154">
        <ele>1560</ele>
        <time>2026-08-14T06:24:21.463Z</time>
      </trkpt>
      <trkpt lat="45.82748" lon="6.74152">
        <ele>1559</ele>
        <time>2026-08-14T06:24:22.463Z</time>
      </trkpt>
      <trkpt lat="45.82748" lon="6.74151">
        <ele>1559</ele>
        <time>2026-08-14T06:24:23.463Z</time>
      </trkpt>
      <trkpt lat="45.82747" lon="6.74149">
        <ele>1559</ele>
        <time>2026-08-14T06:24:24.463Z</time>
      </trkpt>
      <trkpt lat="45.82746" lon="6.74146">
        <ele>1559</ele>
        <time>2026-08-14T06:24:25.463Z</time>
      </trkpt>
      <trkpt lat="45.82745" lon="6.74144">
        <ele>1559</ele>
        <time>2026-08-14T06:24:26.463Z</time>
      </trkpt>
      <trkpt lat="45.82745" lon="6.7414">
        <ele>1559</ele>
        <time>2026-08-14T06:24:27.463Z</time>
      </trkpt>
      <trkpt lat="45.82745" lon="6.74137">
        <ele>1559</ele>
        <time>2026-08-14T06:24:28.463Z</time>
      </trkpt>
      <trkpt lat="45.82745" lon="6.74134">
        <ele>1558</ele>
        <time>2026-08-14T06:24:29.463Z</time>
      </trkpt>
      <trkpt lat="45.82746" lon="6.7413">
        <ele>1557</ele>
        <time>2026-08-14T06:24:30.463Z</time>
      </trkpt>
      <trkpt lat="45.82746" lon="6.74127">
        <ele>1556</ele>
        <time>2026-08-14T06:24:31.463Z</time>
      </trkpt>
      <trkpt lat="45.82746" lon="6.74125">
        <ele>1556</ele>
        <time>2026-08-14T06:24:32.463Z</time>
      </trkpt>
      <trkpt lat="45.82745" lon="6.74123">
        <ele>1556</ele>
        <time>2026-08-14T06:24:33.463Z</time>
      </trkpt>
      <trkpt lat="45.82744" lon="6.7412">
        <ele>1556</ele>
        <time>2026-08-14T06:24:34.463Z</time>
      </trkpt>
      <trkpt lat="45.82744" lon="6.74118">
        <ele>1556</ele>
        <time>2026-08-14T06:24:35.463Z</time>
      </trkpt>
      <trkpt lat="45.82743" lon="6.74115">
        <ele>1555</ele>
        <time>2026-08-14T06:24:36.463Z</time>
      </trkpt>
      <trkpt lat="45.82743" lon="6.74113">
        <ele>1555</ele>
        <time>2026-08-14T06:24:37.463Z</time>
      </trkpt>
      <trkpt lat="45.82742" lon="6.74113">
        <ele>1554</ele>
        <time>2026-08-14T06:24:38.463Z</time>
      </trkpt>
      <trkpt lat="45.82742" lon="6.74113">
        <ele>1553</ele>
        <time>2026-08-14T06:24:39.463Z</time>
      </trkpt>
      <trkpt lat="45.82741" lon="6.74115">
        <ele>1552</ele>
        <time>2026-08-14T06:24:40.463Z</time>
      </trkpt>
      <trkpt lat="45.82741" lon="6.74115">
        <ele>1552</ele>
        <time>2026-08-14T06:24:41.463Z</time>
      </trkpt>
      <trkpt lat="45.82741" lon="6.74116">
        <ele>1551</ele>
        <time>2026-08-14T06:24:42.463Z</time>
      </trkpt>
      <trkpt lat="45.82741" lon="6.74116">
        <ele>1551</ele>
        <time>2026-08-14T06:24:43.463Z</time>
      </trkpt>
      <trkpt lat="45.82741" lon="6.74116">
        <ele>1551</ele>
        <time>2026-08-14T06:24:44.463Z</time>
      </trkpt>
      <trkpt lat="45.82741" lon="6.74116">
        <ele>1550</ele>
        <time>2026-08-14T06:24:45.463Z</time>
      </trkpt>
      <trkpt lat="45.82741" lon="6.74116">
        <ele>1550</ele>
        <time>2026-08-14T06:24:46.463Z</time>
      </trkpt>
      <trkpt lat="45.82741" lon="6.74115">
        <ele>1550</ele>
        <time>2026-08-14T06:24:47.463Z</time>
      </trkpt>
      <trkpt lat="45.82741" lon="6.74115">
        <ele>1550</ele>
        <time>2026-08-14T06:24:48.463Z</time>
      </trkpt>
      <trkpt lat="45.82742" lon="6.74113">
        <ele>1550</ele>
        <time>2026-08-14T06:24:49.463Z</time>
      </trkpt>
      <trkpt lat="45.82743" lon="6.74112">
        <ele>1549</ele>
        <time>2026-08-14T06:24:50.463Z</time>
      </trkpt>
      <trkpt lat="45.82744" lon="6.7411">
        <ele>1549</ele>
        <time>2026-08-14T06:24:51.463Z</time>
      </trkpt>
      <trkpt lat="45.82745" lon="6.74107">
        <ele>1549</ele>
        <time>2026-08-14T06:24:52.463Z</time>
      </trkpt>
      <trkpt lat="45.82746" lon="6.74105">
        <ele>1548</ele>
        <time>2026-08-14T06:24:53.463Z</time>
      </trkpt>
      <trkpt lat="45.82748" lon="6.74102">
        <ele>1548</ele>
        <time>2026-08-14T06:24:54.463Z</time>
      </trkpt>
      <trkpt lat="45.82749" lon="6.741">
        <ele>1548</ele>
        <time>2026-08-14T06:24:55.463Z</time>
      </trkpt>
      <trkpt lat="45.8275" lon="6.74098">
        <ele>1547</ele>
        <time>2026-08-14T06:24:56.463Z</time>
      </trkpt>
      <trkpt lat="45.8275" lon="6.74096">
        <ele>1547</ele>
        <time>2026-08-14T06:24:57.463Z</time>
      </trkpt>
      <trkpt lat="45.8275" lon="6.74094">
        <ele>1547</ele>
        <time>2026-08-14T06:24:58.463Z</time>
      </trkpt>
      <trkpt lat="45.8275" lon="6.74093">
        <ele>1547</ele>
        <time>2026-08-14T06:24:59.463Z</time>
      </trkpt>
      <trkpt lat="45.8275" lon="6.74091">
        <ele>1547</ele>
        <time>2026-08-14T06:25:00.463Z</time>
      </trkpt>
      <trkpt lat="45.8275" lon="6.74089">
        <ele>1546</ele>
        <time>2026-08-14T06:25:01.463Z</time>
      </trkpt>
      <trkpt lat="45.82749" lon="6.74087">
        <ele>1546</ele>
        <time>2026-08-14T06:25:02.463Z</time>
      </trkpt>
      <trkpt lat="45.82749" lon="6.74086">
        <ele>1545</ele>
        <time>2026-08-14T06:25:03.463Z</time>
      </trkpt>
      <trkpt lat="45.82749" lon="6.74085">
        <ele>1545</ele>
        <time>2026-08-14T06:25:04.463Z</time>
      </trkpt>
      <trkpt lat="45.82749" lon="6.74084">
        <ele>1544</ele>
        <time>2026-08-14T06:25:05.463Z</time>
      </trkpt>
      <trkpt lat="45.82749" lon="6.74084">
        <ele>1543</ele>
        <time>2026-08-14T06:25:06.463Z</time>
      </trkpt>
      <trkpt lat="45.82749" lon="6.74085">
        <ele>1543</ele>
        <time>2026-08-14T06:25:07.463Z</time>
      </trkpt>
      <trkpt lat="45.82749" lon="6.74086">
        <ele>1542</ele>
        <time>2026-08-14T06:25:08.463Z</time>
      </trkpt>
      <trkpt lat="45.82749" lon="6.74086">
        <ele>1542</ele>
        <time>2026-08-14T06:25:09.463Z</time>
      </trkpt>
      <trkpt lat="45.82749" lon="6.74088">
        <ele>1542</ele>
        <time>2026-08-14T06:25:10.463Z</time>
      </trkpt>
      <trkpt lat="45.82749" lon="6.74089">
        <ele>1541</ele>
        <time>2026-08-14T06:25:11.463Z</time>
      </trkpt>
      <trkpt lat="45.8275" lon="6.74091">
        <ele>1541</ele>
        <time>2026-08-14T06:25:12.463Z</time>
      </trkpt>
      <trkpt lat="45.8275" lon="6.74092">
        <ele>1541</ele>
        <time>2026-08-14T06:25:13.463Z</time>
      </trkpt>
      <trkpt lat="45.82749" lon="6.74094">
        <ele>1541</ele>
        <time>2026-08-14T06:25:14.463Z</time>
      </trkpt>
      <trkpt lat="45.82749" lon="6.74096">
        <ele>1541</ele>
        <time>2026-08-14T06:25:15.463Z</time>
      </trkpt>
      <trkpt lat="45.82749" lon="6.74098">
        <ele>1541</ele>
        <time>2026-08-14T06:25:16.463Z</time>
      </trkpt>
      <trkpt lat="45.82748" lon="6.74099">
        <ele>1541</ele>
        <time>2026-08-14T06:25:17.463Z</time>
      </trkpt>
      <trkpt lat="45.82748" lon="6.74101">
        <ele>1542</ele>
        <time>2026-08-14T06:25:18.463Z</time>
      </trkpt>
      <trkpt lat="45.82747" lon="6.74102">
        <ele>1542</ele>
        <time>2026-08-14T06:25:19.463Z</time>
      </trkpt>
      <trkpt lat="45.82747" lon="6.74104">
        <ele>1543</ele>
        <time>2026-08-14T06:25:20.463Z</time>
      </trkpt>
      <trkpt lat="45.82746" lon="6.74106">
        <ele>1544</ele>
        <time>2026-08-14T06:25:21.463Z</time>
      </trkpt>
      <trkpt lat="45.82745" lon="6.74108">
        <ele>1544</ele>
        <time>2026-08-14T06:25:22.463Z</time>
      </trkpt>
      <trkpt lat="45.82744" lon="6.74109">
        <ele>1544</ele>
        <time>2026-08-14T06:25:23.463Z</time>
      </trkpt>
      <trkpt lat="45.82744" lon="6.74111">
        <ele>1545</ele>
        <time>2026-08-14T06:25:24.463Z</time>
      </trkpt>
      <trkpt lat="45.82743" lon="6.74112">
        <ele>1546</ele>
        <time>2026-08-14T06:25:25.463Z</time>
      </trkpt>
      <trkpt lat="45.82742" lon="6.74114">
        <ele>1546</ele>
        <time>2026-08-14T06:25:26.463Z</time>
      </trkpt>
      <trkpt lat="45.82741" lon="6.74116">
        <ele>1547</ele>
        <time>2026-08-14T06:25:27.463Z</time>
      </trkpt>
      <trkpt lat="45.82741" lon="6.74118">
        <ele>1547</ele>
        <time>2026-08-14T06:25:28.463Z</time>
      </trkpt>
      <trkpt lat="45.8274" lon="6.7412">
        <ele>1547</ele>
        <time>2026-08-14T06:25:29.463Z</time>
      </trkpt>
      <trkpt lat="45.82738" lon="6.74121">
        <ele>1547</ele>
        <time>2026-08-14T06:25:30.463Z</time>
      </trkpt>
      <trkpt lat="45.82737" lon="6.74122">
        <ele>1548</ele>
        <time>2026-08-14T06:25:31.463Z</time>
      </trkpt>
      <trkpt lat="45.82736" lon="6.74124">
        <ele>1548</ele>
        <time>2026-08-14T06:25:32.463Z</time>
      </trkpt>
      <trkpt lat="45.82736" lon="6.74125">
        <ele>1548</ele>
        <time>2026-08-14T06:25:33.463Z</time>
      </trkpt>
      <trkpt lat="45.82735" lon="6.74127">
        <ele>1548</ele>
        <time>2026-08-14T06:25:34.463Z</time>
      </trkpt>
      <trkpt lat="45.82735" lon="6.74129">
        <ele>1548</ele>
        <time>2026-08-14T06:25:35.463Z</time>
      </trkpt>
      <trkpt lat="45.82734" lon="6.7413">
        <ele>1548</ele>
        <time>2026-08-14T06:25:36.463Z</time>
      </trkpt>
      <trkpt lat="45.82734" lon="6.74131">
        <ele>1548</ele>
        <time>2026-08-14T06:25:37.463Z</time>
      </trkpt>
      <trkpt lat="45.82733" lon="6.74131">
        <ele>1548</ele>
        <time>2026-08-14T06:25:38.463Z</time>
      </trkpt>
      <trkpt lat="45.82732" lon="6.74131">
        <ele>1548</ele>
        <time>2026-08-14T06:25:39.463Z</time>
      </trkpt>
      <trkpt lat="45.82732" lon="6.74131">
        <ele>1548</ele>
        <time>2026-08-14T06:25:40.463Z</time>
      </trkpt>
      <trkpt lat="45.82731" lon="6.7413">
        <ele>1548</ele>
        <time>2026-08-14T06:25:41.463Z</time>
      </trkpt>
      <trkpt lat="45.8273" lon="6.74129">
        <ele>1547</ele>
        <time>2026-08-14T06:25:42.463Z</time>
      </trkpt>
      <trkpt lat="45.8273" lon="6.74128">
        <ele>1547</ele>
        <time>2026-08-14T06:25:43.463Z</time>
      </trkpt>
      <trkpt lat="45.82729" lon="6.74127">
        <ele>1547</ele>
        <time>2026-08-14T06:25:44.463Z</time>
      </trkpt>
      <trkpt lat="45.82728" lon="6.74126">
        <ele>1547</ele>
        <time>2026-08-14T06:25:45.463Z</time>
      </trkpt>
      <trkpt lat="45.82728" lon="6.74124">
        <ele>1547</ele>
        <time>2026-08-14T06:25:46.463Z</time>
      </trkpt>
      <trkpt lat="45.82727" lon="6.74123">
        <ele>1547</ele>
        <time>2026-08-14T06:25:47.463Z</time>
      </trkpt>
      <trkpt lat="45.82726" lon="6.74123">
        <ele>1547</ele>
        <time>2026-08-14T06:25:48.463Z</time>
      </trkpt>
      <trkpt lat="45.82725" lon="6.74121">
        <ele>1548</ele>
        <time>2026-08-14T06:25:49.463Z</time>
      </trkpt>
      <trkpt lat="45.82724" lon="6.7412">
        <ele>1548</ele>
        <time>2026-08-14T06:25:50.463Z</time>
      </trkpt>
      <trkpt lat="45.82724" lon="6.74119">
        <ele>1549</ele>
        <time>2026-08-14T06:25:51.463Z</time>
      </trkpt>
      <trkpt lat="45.82723" lon="6.74118">
        <ele>1549</ele>
        <time>2026-08-14T06:25:52.463Z</time>
      </trkpt>
      <trkpt lat="45.82723" lon="6.74116">
        <ele>1550</ele>
        <time>2026-08-14T06:25:53.463Z</time>
      </trkpt>
      <trkpt lat="45.82722" lon="6.74114">
        <ele>1549</ele>
        <time>2026-08-14T06:25:54.463Z</time>
      </trkpt>
      <trkpt lat="45.82722" lon="6.74113">
        <ele>1549</ele>
        <time>2026-08-14T06:25:55.463Z</time>
      </trkpt>
      <trkpt lat="45.82721" lon="6.74111">
        <ele>1549</ele>
        <time>2026-08-14T06:25:56.463Z</time>
      </trkpt>
      <trkpt lat="45.82721" lon="6.7411">
        <ele>1549</ele>
        <time>2026-08-14T06:25:57.463Z</time>
      </trkpt>
      <trkpt lat="45.8272" lon="6.74109">
        <ele>1549</ele>
        <time>2026-08-14T06:25:58.463Z</time>
      </trkpt>
      <trkpt lat="45.82719" lon="6.74109">
        <ele>1549</ele>
        <time>2026-08-14T06:25:59.463Z</time>
      </trkpt>
      <trkpt lat="45.82719" lon="6.74108">
        <ele>1550</ele>
        <time>2026-08-14T06:26:00.463Z</time>
      </trkpt>
      <trkpt lat="45.82718" lon="6.74108">
        <ele>1550</ele>
        <time>2026-08-14T06:26:01.463Z</time>
      </trkpt>
      <trkpt lat="45.82718" lon="6.74107">
        <ele>1550</ele>
        <time>2026-08-14T06:26:02.463Z</time>
      </trkpt>
      <trkpt lat="45.82717" lon="6.74107">
        <ele>1549</ele>
        <time>2026-08-14T06:26:03.463Z</time>
      </trkpt>
      <trkpt lat="45.82717" lon="6.74107">
        <ele>1549</ele>
        <time>2026-08-14T06:26:04.463Z</time>
      </trkpt>
      <trkpt lat="45.82716" lon="6.74107">
        <ele>1549</ele>
        <time>2026-08-14T06:26:05.463Z</time>
      </trkpt>
      <trkpt lat="45.82715" lon="6.74107">
        <ele>1549</ele>
        <time>2026-08-14T06:26:06.463Z</time>
      </trkpt>
      <trkpt lat="45.82714" lon="6.74107">
        <ele>1548</ele>
        <time>2026-08-14T06:26:07.463Z</time>
      </trkpt>
      <trkpt lat="45.82713" lon="6.74107">
        <ele>1548</ele>
        <time>2026-08-14T06:26:08.463Z</time>
      </trkpt>
      <trkpt lat="45.82713" lon="6.74108">
        <ele>1547</ele>
        <time>2026-08-14T06:26:09.463Z</time>
      </trkpt>
      <trkpt lat="45.82712" lon="6.74108">
        <ele>1547</ele>
        <time>2026-08-14T06:26:10.463Z</time>
      </trkpt>
      <trkpt lat="45.82711" lon="6.74108">
        <ele>1546</ele>
        <time>2026-08-14T06:26:11.463Z</time>
      </trkpt>
      <trkpt lat="45.82711" lon="6.74108">
        <ele>1546</ele>
        <time>2026-08-14T06:26:12.463Z</time>
      </trkpt>
      <trkpt lat="45.8271" lon="6.74108">
        <ele>1546</ele>
        <time>2026-08-14T06:26:13.463Z</time>
      </trkpt>
      <trkpt lat="45.82709" lon="6.74109">
        <ele>1545</ele>
        <time>2026-08-14T06:26:14.463Z</time>
      </trkpt>
      <trkpt lat="45.82709" lon="6.74109">
        <ele>1545</ele>
        <time>2026-08-14T06:26:15.463Z</time>
      </trkpt>
      <trkpt lat="45.82708" lon="6.74109">
        <ele>1545</ele>
        <time>2026-08-14T06:26:16.463Z</time>
      </trkpt>
      <trkpt lat="45.82707" lon="6.7411">
        <ele>1544</ele>
        <time>2026-08-14T06:26:17.463Z</time>
      </trkpt>
      <trkpt lat="45.82707" lon="6.7411">
        <ele>1544</ele>
        <time>2026-08-14T06:26:18.463Z</time>
      </trkpt>
      <trkpt lat="45.82706" lon="6.74111">
        <ele>1543</ele>
        <time>2026-08-14T06:26:19.463Z</time>
      </trkpt>
      <trkpt lat="45.82705" lon="6.74112">
        <ele>1543</ele>
        <time>2026-08-14T06:26:20.463Z</time>
      </trkpt>
      <trkpt lat="45.82704" lon="6.74112">
        <ele>1543</ele>
        <time>2026-08-14T06:26:21.463Z</time>
      </trkpt>
      <trkpt lat="45.82703" lon="6.74113">
        <ele>1543</ele>
        <time>2026-08-14T06:26:22.463Z</time>
      </trkpt>
      <trkpt lat="45.82702" lon="6.74114">
        <ele>1543</ele>
        <time>2026-08-14T06:26:23.463Z</time>
      </trkpt>
      <trkpt lat="45.82701" lon="6.74115">
        <ele>1542</ele>
        <time>2026-08-14T06:26:24.463Z</time>
      </trkpt>
      <trkpt lat="45.82699" lon="6.74116">
        <ele>1542</ele>
        <time>2026-08-14T06:26:25.463Z</time>
      </trkpt>
      <trkpt lat="45.82698" lon="6.74117">
        <ele>1542</ele>
        <time>2026-08-14T06:26:26.463Z</time>
      </trkpt>
      <trkpt lat="45.82697" lon="6.74118">
        <ele>1542</ele>
        <time>2026-08-14T06:26:27.463Z</time>
      </trkpt>
      <trkpt lat="45.82696" lon="6.7412">
        <ele>1543</ele>
        <time>2026-08-14T06:26:28.463Z</time>
      </trkpt>
      <trkpt lat="45.82695" lon="6.74121">
        <ele>1543</ele>
        <time>2026-08-14T06:26:29.463Z</time>
      </trkpt>
      <trkpt lat="45.82693" lon="6.74123">
        <ele>1542</ele>
        <time>2026-08-14T06:26:30.463Z</time>
      </trkpt>
      <trkpt lat="45.82692" lon="6.74124">
        <ele>1542</ele>
        <time>2026-08-14T06:26:31.463Z</time>
      </trkpt>
      <trkpt lat="45.82691" lon="6.74126">
        <ele>1542</ele>
        <time>2026-08-14T06:26:32.463Z</time>
      </trkpt>
      <trkpt lat="45.8269" lon="6.74127">
        <ele>1542</ele>
        <time>2026-08-14T06:26:33.463Z</time>
      </trkpt>
      <trkpt lat="45.82688" lon="6.74128">
        <ele>1542</ele>
        <time>2026-08-14T06:26:34.463Z</time>
      </trkpt>
      <trkpt lat="45.82686" lon="6.74128">
        <ele>1542</ele>
        <time>2026-08-14T06:26:35.463Z</time>
      </trkpt>
      <trkpt lat="45.82683" lon="6.74128">
        <ele>1542</ele>
        <time>2026-08-14T06:26:36.463Z</time>
      </trkpt>
      <trkpt lat="45.8268" lon="6.74127">
        <ele>1541</ele>
        <time>2026-08-14T06:26:37.463Z</time>
      </trkpt>
      <trkpt lat="45.82678" lon="6.74127">
        <ele>1541</ele>
        <time>2026-08-14T06:26:38.463Z</time>
      </trkpt>
      <trkpt lat="45.82675" lon="6.74127">
        <ele>1540</ele>
        <time>2026-08-14T06:26:39.463Z</time>
      </trkpt>
      <trkpt lat="45.82673" lon="6.74127">
        <ele>1540</ele>
        <time>2026-08-14T06:26:40.463Z</time>
      </trkpt>
      <trkpt lat="45.82672" lon="6.74129">
        <ele>1540</ele>
        <time>2026-08-14T06:26:41.463Z</time>
      </trkpt>
      <trkpt lat="45.82672" lon="6.74131">
        <ele>1540</ele>
        <time>2026-08-14T06:26:42.463Z</time>
      </trkpt>
      <trkpt lat="45.8267" lon="6.74132">
        <ele>1539</ele>
        <time>2026-08-14T06:26:43.463Z</time>
      </trkpt>
      <trkpt lat="45.82669" lon="6.74134">
        <ele>1539</ele>
        <time>2026-08-14T06:26:44.463Z</time>
      </trkpt>
      <trkpt lat="45.82668" lon="6.74137">
        <ele>1538</ele>
        <time>2026-08-14T06:26:45.463Z</time>
      </trkpt>
      <trkpt lat="45.82667" lon="6.74138">
        <ele>1538</ele>
        <time>2026-08-14T06:26:46.463Z</time>
      </trkpt>
      <trkpt lat="45.82666" lon="6.74139">
        <ele>1538</ele>
        <time>2026-08-14T06:26:47.463Z</time>
      </trkpt>
      <trkpt lat="45.82664" lon="6.7414">
        <ele>1538</ele>
        <time>2026-08-14T06:26:48.463Z</time>
      </trkpt>
      <trkpt lat="45.82662" lon="6.74141">
        <ele>1538</ele>
        <time>2026-08-14T06:26:49.463Z</time>
      </trkpt>
      <trkpt lat="45.8266" lon="6.74142">
        <ele>1538</ele>
        <time>2026-08-14T06:26:50.463Z</time>
      </trkpt>
      <trkpt lat="45.82658" lon="6.74142">
        <ele>1537</ele>
        <time>2026-08-14T06:26:51.463Z</time>
      </trkpt>
      <trkpt lat="45.82657" lon="6.74144">
        <ele>1537</ele>
        <time>2026-08-14T06:26:52.463Z</time>
      </trkpt>
      <trkpt lat="45.82656" lon="6.74144">
        <ele>1537</ele>
        <time>2026-08-14T06:26:53.463Z</time>
      </trkpt>
      <trkpt lat="45.82655" lon="6.74145">
        <ele>1537</ele>
        <time>2026-08-14T06:26:54.463Z</time>
      </trkpt>
      <trkpt lat="45.82653" lon="6.74146">
        <ele>1536</ele>
        <time>2026-08-14T06:26:55.463Z</time>
      </trkpt>
      <trkpt lat="45.82651" lon="6.74147">
        <ele>1536</ele>
        <time>2026-08-14T06:26:56.463Z</time>
      </trkpt>
      <trkpt lat="45.82649" lon="6.74148">
        <ele>1535</ele>
        <time>2026-08-14T06:26:57.463Z</time>
      </trkpt>
      <trkpt lat="45.82647" lon="6.74148">
        <ele>1534</ele>
        <time>2026-08-14T06:26:58.463Z</time>
      </trkpt>
      <trkpt lat="45.82645" lon="6.74149">
        <ele>1534</ele>
        <time>2026-08-14T06:26:59.463Z</time>
      </trkpt>
      <trkpt lat="45.82643" lon="6.74149">
        <ele>1533</ele>
        <time>2026-08-14T06:27:00.463Z</time>
      </trkpt>
      <trkpt lat="45.82641" lon="6.74149">
        <ele>1533</ele>
        <time>2026-08-14T06:27:01.463Z</time>
      </trkpt>
      <trkpt lat="45.82639" lon="6.74151">
        <ele>1533</ele>
        <time>2026-08-14T06:27:02.463Z</time>
      </trkpt>
      <trkpt lat="45.82637" lon="6.74152">
        <ele>1532</ele>
        <time>2026-08-14T06:27:03.463Z</time>
      </trkpt>
      <trkpt lat="45.82635" lon="6.74153">
        <ele>1531</ele>
        <time>2026-08-14T06:27:04.463Z</time>
      </trkpt>
      <trkpt lat="45.82634" lon="6.74153">
        <ele>1531</ele>
        <time>2026-08-14T06:27:05.463Z</time>
      </trkpt>
      <trkpt lat="45.82632" lon="6.74154">
        <ele>1531</ele>
        <time>2026-08-14T06:27:06.463Z</time>
      </trkpt>
      <trkpt lat="45.82631" lon="6.74154">
        <ele>1530</ele>
        <time>2026-08-14T06:27:07.463Z</time>
      </trkpt>
      <trkpt lat="45.8263" lon="6.74155">
        <ele>1530</ele>
        <time>2026-08-14T06:27:08.463Z</time>
      </trkpt>
      <trkpt lat="45.82629" lon="6.74156">
        <ele>1529</ele>
        <time>2026-08-14T06:27:09.463Z</time>
      </trkpt>
      <trkpt lat="45.82628" lon="6.74156">
        <ele>1529</ele>
        <time>2026-08-14T06:27:10.463Z</time>
      </trkpt>
      <trkpt lat="45.82627" lon="6.74157">
        <ele>1528</ele>
        <time>2026-08-14T06:27:11.463Z</time>
      </trkpt>
      <trkpt lat="45.82626" lon="6.74157">
        <ele>1528</ele>
        <time>2026-08-14T06:27:12.463Z</time>
      </trkpt>
      <trkpt lat="45.82626" lon="6.74156">
        <ele>1527</ele>
        <time>2026-08-14T06:27:13.463Z</time>
      </trkpt>
      <trkpt lat="45.82625" lon="6.74156">
        <ele>1527</ele>
        <time>2026-08-14T06:27:14.463Z</time>
      </trkpt>
      <trkpt lat="45.82624" lon="6.74156">
        <ele>1526</ele>
        <time>2026-08-14T06:27:15.463Z</time>
      </trkpt>
      <trkpt lat="45.82623" lon="6.74156">
        <ele>1525</ele>
        <time>2026-08-14T06:27:16.463Z</time>
      </trkpt>
      <trkpt lat="45.82622" lon="6.74155">
        <ele>1524</ele>
        <time>2026-08-14T06:27:17.463Z</time>
      </trkpt>
      <trkpt lat="45.8262" lon="6.74155">
        <ele>1523</ele>
        <time>2026-08-14T06:27:18.463Z</time>
      </trkpt>
      <trkpt lat="45.8262" lon="6.74155">
        <ele>1523</ele>
        <time>2026-08-14T06:27:19.463Z</time>
      </trkpt>
      <trkpt lat="45.82618" lon="6.74155">
        <ele>1522</ele>
        <time>2026-08-14T06:27:20.463Z</time>
      </trkpt>
      <trkpt lat="45.82616" lon="6.74155">
        <ele>1522</ele>
        <time>2026-08-14T06:27:21.463Z</time>
      </trkpt>
      <trkpt lat="45.82615" lon="6.74155">
        <ele>1522</ele>
        <time>2026-08-14T06:27:22.463Z</time>
      </trkpt>
      <trkpt lat="45.82613" lon="6.74154">
        <ele>1522</ele>
        <time>2026-08-14T06:27:23.463Z</time>
      </trkpt>
      <trkpt lat="45.82613" lon="6.74154">
        <ele>1521</ele>
        <time>2026-08-14T06:27:24.463Z</time>
      </trkpt>
      <trkpt lat="45.82612" lon="6.74153">
        <ele>1521</ele>
        <time>2026-08-14T06:27:25.463Z</time>
      </trkpt>
      <trkpt lat="45.8261" lon="6.74152">
        <ele>1521</ele>
        <time>2026-08-14T06:27:26.463Z</time>
      </trkpt>
      <trkpt lat="45.82608" lon="6.74151">
        <ele>1521</ele>
        <time>2026-08-14T06:27:27.463Z</time>
      </trkpt>
      <trkpt lat="45.82607" lon="6.7415">
        <ele>1520</ele>
        <time>2026-08-14T06:27:28.463Z</time>
      </trkpt>
      <trkpt lat="45.82605" lon="6.7415">
        <ele>1520</ele>
        <time>2026-08-14T06:27:29.463Z</time>
      </trkpt>
      <trkpt lat="45.82603" lon="6.74149">
        <ele>1519</ele>
        <time>2026-08-14T06:27:30.463Z</time>
      </trkpt>
      <trkpt lat="45.82601" lon="6.74148">
        <ele>1519</ele>
        <time>2026-08-14T06:27:31.463Z</time>
      </trkpt>
      <trkpt lat="45.826" lon="6.74147">
        <ele>1519</ele>
        <time>2026-08-14T06:27:32.463Z</time>
      </trkpt>
      <trkpt lat="45.82598" lon="6.74146">
        <ele>1519</ele>
        <time>2026-08-14T06:27:33.463Z</time>
      </trkpt>
      <trkpt lat="45.82596" lon="6.74145">
        <ele>1518</ele>
        <time>2026-08-14T06:27:34.463Z</time>
      </trkpt>
      <trkpt lat="45.82594" lon="6.74144">
        <ele>1518</ele>
        <time>2026-08-14T06:27:35.463Z</time>
      </trkpt>
      <trkpt lat="45.82593" lon="6.74143">
        <ele>1518</ele>
        <time>2026-08-14T06:27:36.463Z</time>
      </trkpt>
      <trkpt lat="45.82591" lon="6.74143">
        <ele>1518</ele>
        <time>2026-08-14T06:27:37.463Z</time>
      </trkpt>
      <trkpt lat="45.82589" lon="6.74143">
        <ele>1518</ele>
        <time>2026-08-14T06:27:38.463Z</time>
      </trkpt>
      <trkpt lat="45.82587" lon="6.74142">
        <ele>1518</ele>
        <time>2026-08-14T06:27:39.463Z</time>
      </trkpt>
      <trkpt lat="45.82585" lon="6.74141">
        <ele>1517</ele>
        <time>2026-08-14T06:27:40.463Z</time>
      </trkpt>
      <trkpt lat="45.82583" lon="6.7414">
        <ele>1517</ele>
        <time>2026-08-14T06:27:41.463Z</time>
      </trkpt>
      <trkpt lat="45.82581" lon="6.74139">
        <ele>1516</ele>
        <time>2026-08-14T06:27:42.463Z</time>
      </trkpt>
      <trkpt lat="45.82579" lon="6.74138">
        <ele>1515</ele>
        <time>2026-08-14T06:27:43.463Z</time>
      </trkpt>
      <trkpt lat="45.82577" lon="6.74137">
        <ele>1515</ele>
        <time>2026-08-14T06:27:44.463Z</time>
      </trkpt>
      <trkpt lat="45.82575" lon="6.74136">
        <ele>1514</ele>
        <time>2026-08-14T06:27:45.463Z</time>
      </trkpt>
      <trkpt lat="45.82573" lon="6.74135">
        <ele>1514</ele>
        <time>2026-08-14T06:27:46.463Z</time>
      </trkpt>
      <trkpt lat="45.82571" lon="6.74135">
        <ele>1513</ele>
        <time>2026-08-14T06:27:47.463Z</time>
      </trkpt>
      <trkpt lat="45.8257" lon="6.74134">
        <ele>1513</ele>
        <time>2026-08-14T06:27:48.463Z</time>
      </trkpt>
      <trkpt lat="45.82568" lon="6.74132">
        <ele>1512</ele>
        <time>2026-08-14T06:27:49.463Z</time>
      </trkpt>
      <trkpt lat="45.82567" lon="6.74131">
        <ele>1511</ele>
        <time>2026-08-14T06:27:50.463Z</time>
      </trkpt>
      <trkpt lat="45.82566" lon="6.74128">
        <ele>1511</ele>
        <time>2026-08-14T06:27:51.463Z</time>
      </trkpt>
      <trkpt lat="45.82565" lon="6.74126">
        <ele>1510</ele>
        <time>2026-08-14T06:27:52.463Z</time>
      </trkpt>
      <trkpt lat="45.82564" lon="6.74123">
        <ele>1510</ele>
        <time>2026-08-14T06:27:53.463Z</time>
      </trkpt>
      <trkpt lat="45.82563" lon="6.74121">
        <ele>1509</ele>
        <time>2026-08-14T06:27:54.463Z</time>
      </trkpt>
      <trkpt lat="45.82562" lon="6.7412">
        <ele>1509</ele>
        <time>2026-08-14T06:27:55.463Z</time>
      </trkpt>
      <trkpt lat="45.8256" lon="6.7412">
        <ele>1509</ele>
        <time>2026-08-14T06:27:56.463Z</time>
      </trkpt>
      <trkpt lat="45.82559" lon="6.74119">
        <ele>1509</ele>
        <time>2026-08-14T06:27:57.463Z</time>
      </trkpt>
      <trkpt lat="45.82557" lon="6.74118">
        <ele>1508</ele>
        <time>2026-08-14T06:27:58.463Z</time>
      </trkpt>
      <trkpt lat="45.82555" lon="6.74115">
        <ele>1508</ele>
        <time>2026-08-14T06:27:59.463Z</time>
      </trkpt>
      <trkpt lat="45.82553" lon="6.74112">
        <ele>1508</ele>
        <time>2026-08-14T06:28:00.463Z</time>
      </trkpt>
      <trkpt lat="45.82551" lon="6.74111">
        <ele>1507</ele>
        <time>2026-08-14T06:28:01.463Z</time>
      </trkpt>
      <trkpt lat="45.82549" lon="6.74109">
        <ele>1507</ele>
        <time>2026-08-14T06:28:02.463Z</time>
      </trkpt>
      <trkpt lat="45.82547" lon="6.74108">
        <ele>1507</ele>
        <time>2026-08-14T06:28:03.463Z</time>
      </trkpt>
      <trkpt lat="45.82545" lon="6.74107">
        <ele>1507</ele>
        <time>2026-08-14T06:28:04.463Z</time>
      </trkpt>
      <trkpt lat="45.82543" lon="6.74106">
        <ele>1506</ele>
        <time>2026-08-14T06:28:05.463Z</time>
      </trkpt>
      <trkpt lat="45.82541" lon="6.74105">
        <ele>1506</ele>
        <time>2026-08-14T06:28:06.463Z</time>
      </trkpt>
      <trkpt lat="45.8254" lon="6.74106">
        <ele>1506</ele>
        <time>2026-08-14T06:28:07.463Z</time>
      </trkpt>
      <trkpt lat="45.82539" lon="6.74106">
        <ele>1505</ele>
        <time>2026-08-14T06:28:08.463Z</time>
      </trkpt>
      <trkpt lat="45.82539" lon="6.74107">
        <ele>1505</ele>
        <time>2026-08-14T06:28:09.463Z</time>
      </trkpt>
      <trkpt lat="45.82539" lon="6.74108">
        <ele>1504</ele>
        <time>2026-08-14T06:28:10.463Z</time>
      </trkpt>
      <trkpt lat="45.82539" lon="6.7411">
        <ele>1503</ele>
        <time>2026-08-14T06:28:11.463Z</time>
      </trkpt>
      <trkpt lat="45.8254" lon="6.74112">
        <ele>1503</ele>
        <time>2026-08-14T06:28:12.463Z</time>
      </trkpt>
      <trkpt lat="45.8254" lon="6.74113">
        <ele>1502</ele>
        <time>2026-08-14T06:28:13.463Z</time>
      </trkpt>
      <trkpt lat="45.8254" lon="6.74115">
        <ele>1501</ele>
        <time>2026-08-14T06:28:14.463Z</time>
      </trkpt>
      <trkpt lat="45.8254" lon="6.74117">
        <ele>1501</ele>
        <time>2026-08-14T06:28:15.463Z</time>
      </trkpt>
      <trkpt lat="45.8254" lon="6.74119">
        <ele>1500</ele>
        <time>2026-08-14T06:28:16.463Z</time>
      </trkpt>
      <trkpt lat="45.8254" lon="6.7412">
        <ele>1500</ele>
        <time>2026-08-14T06:28:17.463Z</time>
      </trkpt>
      <trkpt lat="45.82541" lon="6.74122">
        <ele>1499</ele>
        <time>2026-08-14T06:28:18.463Z</time>
      </trkpt>
      <trkpt lat="45.82541" lon="6.74124">
        <ele>1498</ele>
        <time>2026-08-14T06:28:19.463Z</time>
      </trkpt>
      <trkpt lat="45.82541" lon="6.74125">
        <ele>1498</ele>
        <time>2026-08-14T06:28:20.463Z</time>
      </trkpt>
      <trkpt lat="45.82541" lon="6.74127">
        <ele>1497</ele>
        <time>2026-08-14T06:28:21.463Z</time>
      </trkpt>
      <trkpt lat="45.82541" lon="6.74129">
        <ele>1497</ele>
        <time>2026-08-14T06:28:22.463Z</time>
      </trkpt>
      <trkpt lat="45.82541" lon="6.7413">
        <ele>1496</ele>
        <time>2026-08-14T06:28:23.463Z</time>
      </trkpt>
      <trkpt lat="45.82541" lon="6.74132">
        <ele>1496</ele>
        <time>2026-08-14T06:28:24.463Z</time>
      </trkpt>
      <trkpt lat="45.82541" lon="6.74133">
        <ele>1495</ele>
        <time>2026-08-14T06:28:25.463Z</time>
      </trkpt>
      <trkpt lat="45.82541" lon="6.74135">
        <ele>1495</ele>
        <time>2026-08-14T06:28:26.463Z</time>
      </trkpt>
      <trkpt lat="45.82541" lon="6.74136">
        <ele>1495</ele>
        <time>2026-08-14T06:28:27.463Z</time>
      </trkpt>
      <trkpt lat="45.8254" lon="6.74137">
        <ele>1494</ele>
        <time>2026-08-14T06:28:28.463Z</time>
      </trkpt>
      <trkpt lat="45.8254" lon="6.74139">
        <ele>1494</ele>
        <time>2026-08-14T06:28:29.463Z</time>
      </trkpt>
      <trkpt lat="45.82539" lon="6.7414">
        <ele>1494</ele>
        <time>2026-08-14T06:28:30.463Z</time>
      </trkpt>
      <trkpt lat="45.82539" lon="6.7414">
        <ele>1493</ele>
        <time>2026-08-14T06:28:31.463Z</time>
      </trkpt>
      <trkpt lat="45.82538" lon="6.74141">
        <ele>1493</ele>
        <time>2026-08-14T06:28:32.463Z</time>
      </trkpt>
      <trkpt lat="45.82538" lon="6.74141">
        <ele>1492</ele>
        <time>2026-08-14T06:28:33.463Z</time>
      </trkpt>
      <trkpt lat="45.82538" lon="6.74142">
        <ele>1492</ele>
        <time>2026-08-14T06:28:34.463Z</time>
      </trkpt>
      <trkpt lat="45.82538" lon="6.74142">
        <ele>1491</ele>
        <time>2026-08-14T06:28:35.463Z</time>
      </trkpt>
      <trkpt lat="45.82538" lon="6.74143">
        <ele>1490</ele>
        <time>2026-08-14T06:28:36.463Z</time>
      </trkpt>
      <trkpt lat="45.82538" lon="6.74145">
        <ele>1490</ele>
        <time>2026-08-14T06:28:37.463Z</time>
      </trkpt>
      <trkpt lat="45.82537" lon="6.74147">
        <ele>1490</ele>
        <time>2026-08-14T06:28:38.463Z</time>
      </trkpt>
      <trkpt lat="45.82537" lon="6.74147">
        <ele>1490</ele>
        <time>2026-08-14T06:28:39.463Z</time>
      </trkpt>
      <trkpt lat="45.82536" lon="6.74147">
        <ele>1490</ele>
        <time>2026-08-14T06:28:40.463Z</time>
      </trkpt>
      <trkpt lat="45.82535" lon="6.74146">
        <ele>1489</ele>
        <time>2026-08-14T06:28:41.463Z</time>
      </trkpt>
      <trkpt lat="45.82534" lon="6.74146">
        <ele>1489</ele>
        <time>2026-08-14T06:28:42.463Z</time>
      </trkpt>
      <trkpt lat="45.82533" lon="6.74146">
        <ele>1488</ele>
        <time>2026-08-14T06:28:43.463Z</time>
      </trkpt>
      <trkpt lat="45.82532" lon="6.74146">
        <ele>1488</ele>
        <time>2026-08-14T06:28:44.463Z</time>
      </trkpt>
      <trkpt lat="45.82532" lon="6.74147">
        <ele>1488</ele>
        <time>2026-08-14T06:28:45.463Z</time>
      </trkpt>
      <trkpt lat="45.82533" lon="6.74148">
        <ele>1487</ele>
        <time>2026-08-14T06:28:46.463Z</time>
      </trkpt>
      <trkpt lat="45.82533" lon="6.7415">
        <ele>1486</ele>
        <time>2026-08-14T06:28:47.463Z</time>
      </trkpt>
      <trkpt lat="45.82533" lon="6.74152">
        <ele>1486</ele>
        <time>2026-08-14T06:28:48.463Z</time>
      </trkpt>
      <trkpt lat="45.82533" lon="6.74155">
        <ele>1485</ele>
        <time>2026-08-14T06:28:49.463Z</time>
      </trkpt>
      <trkpt lat="45.82534" lon="6.74159">
        <ele>1484</ele>
        <time>2026-08-14T06:28:50.463Z</time>
      </trkpt>
      <trkpt lat="45.82535" lon="6.74162">
        <ele>1483</ele>
        <time>2026-08-14T06:28:51.463Z</time>
      </trkpt>
      <trkpt lat="45.82536" lon="6.74165">
        <ele>1482</ele>
        <time>2026-08-14T06:28:52.463Z</time>
      </trkpt>
      <trkpt lat="45.82537" lon="6.74168">
        <ele>1481</ele>
        <time>2026-08-14T06:28:53.463Z</time>
      </trkpt>
      <trkpt lat="45.82538" lon="6.7417">
        <ele>1480</ele>
        <time>2026-08-14T06:28:54.463Z</time>
      </trkpt>
      <trkpt lat="45.82538" lon="6.74173">
        <ele>1479</ele>
        <time>2026-08-14T06:28:55.463Z</time>
      </trkpt>
      <trkpt lat="45.82539" lon="6.74177">
        <ele>1479</ele>
        <time>2026-08-14T06:28:56.463Z</time>
      </trkpt>
      <trkpt lat="45.8254" lon="6.74179">
        <ele>1478</ele>
        <time>2026-08-14T06:28:57.463Z</time>
      </trkpt>
      <trkpt lat="45.82541" lon="6.74182">
        <ele>1477</ele>
        <time>2026-08-14T06:28:58.463Z</time>
      </trkpt>
      <trkpt lat="45.82542" lon="6.74183">
        <ele>1477</ele>
        <time>2026-08-14T06:28:59.463Z</time>
      </trkpt>
      <trkpt lat="45.82542" lon="6.74185">
        <ele>1477</ele>
        <time>2026-08-14T06:29:00.463Z</time>
      </trkpt>
      <trkpt lat="45.82543" lon="6.74187">
        <ele>1477</ele>
        <time>2026-08-14T06:29:01.463Z</time>
      </trkpt>
      <trkpt lat="45.82543" lon="6.7419">
        <ele>1477</ele>
        <time>2026-08-14T06:29:02.463Z</time>
      </trkpt>
      <trkpt lat="45.82543" lon="6.74193">
        <ele>1476</ele>
        <time>2026-08-14T06:29:03.463Z</time>
      </trkpt>
      <trkpt lat="45.82543" lon="6.74195">
        <ele>1476</ele>
        <time>2026-08-14T06:29:04.463Z</time>
      </trkpt>
      <trkpt lat="45.82542" lon="6.74198">
        <ele>1476</ele>
        <time>2026-08-14T06:29:05.463Z</time>
      </trkpt>
      <trkpt lat="45.82542" lon="6.74201">
        <ele>1476</ele>
        <time>2026-08-14T06:29:06.463Z</time>
      </trkpt>
      <trkpt lat="45.82541" lon="6.74204">
        <ele>1476</ele>
        <time>2026-08-14T06:29:07.463Z</time>
      </trkpt>
      <trkpt lat="45.8254" lon="6.74206">
        <ele>1475</ele>
        <time>2026-08-14T06:29:08.463Z</time>
      </trkpt>
      <trkpt lat="45.8254" lon="6.74209">
        <ele>1475</ele>
        <time>2026-08-14T06:29:09.463Z</time>
      </trkpt>
      <trkpt lat="45.82539" lon="6.74211">
        <ele>1475</ele>
        <time>2026-08-14T06:29:10.463Z</time>
      </trkpt>
      <trkpt lat="45.82539" lon="6.74213">
        <ele>1475</ele>
        <time>2026-08-14T06:29:11.463Z</time>
      </trkpt>
      <trkpt lat="45.82538" lon="6.74217">
        <ele>1475</ele>
        <time>2026-08-14T06:29:12.463Z</time>
      </trkpt>
      <trkpt lat="45.82538" lon="6.74221">
        <ele>1475</ele>
        <time>2026-08-14T06:29:13.463Z</time>
      </trkpt>
      <trkpt lat="45.82538" lon="6.74225">
        <ele>1476</ele>
        <time>2026-08-14T06:29:14.463Z</time>
      </trkpt>
      <trkpt lat="45.82538" lon="6.74228">
        <ele>1476</ele>
        <time>2026-08-14T06:29:15.463Z</time>
      </trkpt>
      <trkpt lat="45.82537" lon="6.74232">
        <ele>1476</ele>
        <time>2026-08-14T06:29:16.463Z</time>
      </trkpt>
      <trkpt lat="45.82537" lon="6.74235">
        <ele>1476</ele>
        <time>2026-08-14T06:29:17.463Z</time>
      </trkpt>
      <trkpt lat="45.82536" lon="6.74237">
        <ele>1476</ele>
        <time>2026-08-14T06:29:18.463Z</time>
      </trkpt>
      <trkpt lat="45.82536" lon="6.7424">
        <ele>1476</ele>
        <time>2026-08-14T06:29:19.463Z</time>
      </trkpt>
      <trkpt lat="45.82536" lon="6.74242">
        <ele>1477</ele>
        <time>2026-08-14T06:29:20.463Z</time>
      </trkpt>
      <trkpt lat="45.82536" lon="6.74245">
        <ele>1477</ele>
        <time>2026-08-14T06:29:21.463Z</time>
      </trkpt>
      <trkpt lat="45.82535" lon="6.74248">
        <ele>1477</ele>
        <time>2026-08-14T06:29:22.463Z</time>
      </trkpt>
      <trkpt lat="45.82535" lon="6.74251">
        <ele>1477</ele>
        <time>2026-08-14T06:29:23.463Z</time>
      </trkpt>
      <trkpt lat="45.82534" lon="6.74254">
        <ele>1477</ele>
        <time>2026-08-14T06:29:24.463Z</time>
      </trkpt>
      <trkpt lat="45.82534" lon="6.74258">
        <ele>1477</ele>
        <time>2026-08-14T06:29:25.463Z</time>
      </trkpt>
      <trkpt lat="45.82534" lon="6.74262">
        <ele>1477</ele>
        <time>2026-08-14T06:29:26.463Z</time>
      </trkpt>
      <trkpt lat="45.82533" lon="6.74266">
        <ele>1476</ele>
        <time>2026-08-14T06:29:27.463Z</time>
      </trkpt>
      <trkpt lat="45.82532" lon="6.74271">
        <ele>1476</ele>
        <time>2026-08-14T06:29:28.463Z</time>
      </trkpt>
      <trkpt lat="45.82531" lon="6.74275">
        <ele>1475</ele>
        <time>2026-08-14T06:29:29.463Z</time>
      </trkpt>
      <trkpt lat="45.82531" lon="6.74278">
        <ele>1474</ele>
        <time>2026-08-14T06:29:30.463Z</time>
      </trkpt>
      <trkpt lat="45.8253" lon="6.74282">
        <ele>1474</ele>
        <time>2026-08-14T06:29:31.463Z</time>
      </trkpt>
      <trkpt lat="45.82529" lon="6.74284">
        <ele>1474</ele>
        <time>2026-08-14T06:29:32.463Z</time>
      </trkpt>
      <trkpt lat="45.82528" lon="6.74287">
        <ele>1473</ele>
        <time>2026-08-14T06:29:33.463Z</time>
      </trkpt>
      <trkpt lat="45.82527" lon="6.7429">
        <ele>1473</ele>
        <time>2026-08-14T06:29:34.463Z</time>
      </trkpt>
      <trkpt lat="45.82527" lon="6.74293">
        <ele>1473</ele>
        <time>2026-08-14T06:29:35.463Z</time>
      </trkpt>
      <trkpt lat="45.82526" lon="6.74297">
        <ele>1473</ele>
        <time>2026-08-14T06:29:36.463Z</time>
      </trkpt>
      <trkpt lat="45.82525" lon="6.743">
        <ele>1473</ele>
        <time>2026-08-14T06:29:37.463Z</time>
      </trkpt>
      <trkpt lat="45.82524" lon="6.74303">
        <ele>1472</ele>
        <time>2026-08-14T06:29:38.463Z</time>
      </trkpt>
      <trkpt lat="45.82523" lon="6.74306">
        <ele>1472</ele>
        <time>2026-08-14T06:29:39.463Z</time>
      </trkpt>
      <trkpt lat="45.82522" lon="6.74309">
        <ele>1471</ele>
        <time>2026-08-14T06:29:40.463Z</time>
      </trkpt>
      <trkpt lat="45.82521" lon="6.74312">
        <ele>1470</ele>
        <time>2026-08-14T06:29:41.463Z</time>
      </trkpt>
      <trkpt lat="45.8252" lon="6.74316">
        <ele>1468</ele>
        <time>2026-08-14T06:29:42.463Z</time>
      </trkpt>
      <trkpt lat="45.8252" lon="6.74319">
        <ele>1467</ele>
        <time>2026-08-14T06:29:43.463Z</time>
      </trkpt>
      <trkpt lat="45.82518" lon="6.74322">
        <ele>1466</ele>
        <time>2026-08-14T06:29:44.463Z</time>
      </trkpt>
      <trkpt lat="45.82517" lon="6.74325">
        <ele>1465</ele>
        <time>2026-08-14T06:29:45.463Z</time>
      </trkpt>
      <trkpt lat="45.82516" lon="6.74328">
        <ele>1465</ele>
        <time>2026-08-14T06:29:46.463Z</time>
      </trkpt>
      <trkpt lat="45.82515" lon="6.74331">
        <ele>1464</ele>
        <time>2026-08-14T06:29:47.463Z</time>
      </trkpt>
      <trkpt lat="45.82514" lon="6.74335">
        <ele>1463</ele>
        <time>2026-08-14T06:29:48.463Z</time>
      </trkpt>
      <trkpt lat="45.82513" lon="6.74339">
        <ele>1462</ele>
        <time>2026-08-14T06:29:49.463Z</time>
      </trkpt>
      <trkpt lat="45.82511" lon="6.74342">
        <ele>1462</ele>
        <time>2026-08-14T06:29:50.463Z</time>
      </trkpt>
      <trkpt lat="45.82511" lon="6.74346">
        <ele>1461</ele>
        <time>2026-08-14T06:29:51.463Z</time>
      </trkpt>
      <trkpt lat="45.82511" lon="6.74349">
        <ele>1461</ele>
        <time>2026-08-14T06:29:52.463Z</time>
      </trkpt>
      <trkpt lat="45.8251" lon="6.74354">
        <ele>1460</ele>
        <time>2026-08-14T06:29:53.463Z</time>
      </trkpt>
      <trkpt lat="45.82508" lon="6.74359">
        <ele>1459</ele>
        <time>2026-08-14T06:29:54.463Z</time>
      </trkpt>
      <trkpt lat="45.82507" lon="6.74364">
        <ele>1458</ele>
        <time>2026-08-14T06:29:55.463Z</time>
      </trkpt>
      <trkpt lat="45.82505" lon="6.74369">
        <ele>1457</ele>
        <time>2026-08-14T06:29:56.463Z</time>
      </trkpt>
      <trkpt lat="45.82504" lon="6.74373">
        <ele>1455</ele>
        <time>2026-08-14T06:29:57.463Z</time>
      </trkpt>
      <trkpt lat="45.82502" lon="6.74377">
        <ele>1454</ele>
        <time>2026-08-14T06:29:58.463Z</time>
      </trkpt>
      <trkpt lat="45.82501" lon="6.7438">
        <ele>1454</ele>
        <time>2026-08-14T06:29:59.463Z</time>
      </trkpt>
      <trkpt lat="45.825" lon="6.74382">
        <ele>1453</ele>
        <time>2026-08-14T06:30:00.463Z</time>
      </trkpt>
      <trkpt lat="45.82498" lon="6.74384">
        <ele>1453</ele>
        <time>2026-08-14T06:30:01.463Z</time>
      </trkpt>
      <trkpt lat="45.82496" lon="6.74386">
        <ele>1452</ele>
        <time>2026-08-14T06:30:02.463Z</time>
      </trkpt>
      <trkpt lat="45.82494" lon="6.74386">
        <ele>1452</ele>
        <time>2026-08-14T06:30:03.463Z</time>
      </trkpt>
      <trkpt lat="45.82492" lon="6.74386">
        <ele>1452</ele>
        <time>2026-08-14T06:30:04.463Z</time>
      </trkpt>
      <trkpt lat="45.8249" lon="6.74386">
        <ele>1452</ele>
        <time>2026-08-14T06:30:05.463Z</time>
      </trkpt>
      <trkpt lat="45.82488" lon="6.74386">
        <ele>1451</ele>
        <time>2026-08-14T06:30:06.463Z</time>
      </trkpt>
      <trkpt lat="45.82486" lon="6.74386">
        <ele>1451</ele>
        <time>2026-08-14T06:30:07.463Z</time>
      </trkpt>
      <trkpt lat="45.82484" lon="6.74387">
        <ele>1451</ele>
        <time>2026-08-14T06:30:08.463Z</time>
      </trkpt>
      <trkpt lat="45.82482" lon="6.74387">
        <ele>1450</ele>
        <time>2026-08-14T06:30:09.463Z</time>
      </trkpt>
      <trkpt lat="45.8248" lon="6.74387">
        <ele>1450</ele>
        <time>2026-08-14T06:30:10.463Z</time>
      </trkpt>
      <trkpt lat="45.82478" lon="6.74387">
        <ele>1450</ele>
        <time>2026-08-14T06:30:11.463Z</time>
      </trkpt>
      <trkpt lat="45.82477" lon="6.74386">
        <ele>1450</ele>
        <time>2026-08-14T06:30:12.463Z</time>
      </trkpt>
      <trkpt lat="45.82475" lon="6.74386">
        <ele>1450</ele>
        <time>2026-08-14T06:30:13.464Z</time>
      </trkpt>
      <trkpt lat="45.82473" lon="6.74385">
        <ele>1450</ele>
        <time>2026-08-14T06:30:14.463Z</time>
      </trkpt>
      <trkpt lat="45.82471" lon="6.74384">
        <ele>1450</ele>
        <time>2026-08-14T06:30:15.463Z</time>
      </trkpt>
      <trkpt lat="45.82469" lon="6.74384">
        <ele>1450</ele>
        <time>2026-08-14T06:30:16.463Z</time>
      </trkpt>
      <trkpt lat="45.82468" lon="6.74384">
        <ele>1449</ele>
        <time>2026-08-14T06:30:17.463Z</time>
      </trkpt>
      <trkpt lat="45.82467" lon="6.74384">
        <ele>1449</ele>
        <time>2026-08-14T06:30:18.463Z</time>
      </trkpt>
      <trkpt lat="45.82465" lon="6.74384">
        <ele>1448</ele>
        <time>2026-08-14T06:30:19.463Z</time>
      </trkpt>
      <trkpt lat="45.82464" lon="6.74384">
        <ele>1448</ele>
        <time>2026-08-14T06:30:20.463Z</time>
      </trkpt>
      <trkpt lat="45.82463" lon="6.74383">
        <ele>1447</ele>
        <time>2026-08-14T06:30:21.463Z</time>
      </trkpt>
      <trkpt lat="45.82462" lon="6.74383">
        <ele>1446</ele>
        <time>2026-08-14T06:30:22.463Z</time>
      </trkpt>
      <trkpt lat="45.8246" lon="6.74383">
        <ele>1446</ele>
        <time>2026-08-14T06:30:23.463Z</time>
      </trkpt>
      <trkpt lat="45.82459" lon="6.74383">
        <ele>1445</ele>
        <time>2026-08-14T06:30:24.463Z</time>
      </trkpt>
      <trkpt lat="45.82458" lon="6.74382">
        <ele>1444</ele>
        <time>2026-08-14T06:30:25.463Z</time>
      </trkpt>
      <trkpt lat="45.82456" lon="6.74382">
        <ele>1443</ele>
        <time>2026-08-14T06:30:26.463Z</time>
      </trkpt>
      <trkpt lat="45.82455" lon="6.74381">
        <ele>1442</ele>
        <time>2026-08-14T06:30:27.463Z</time>
      </trkpt>
      <trkpt lat="45.82454" lon="6.7438">
        <ele>1442</ele>
        <time>2026-08-14T06:30:28.463Z</time>
      </trkpt>
      <trkpt lat="45.82453" lon="6.7438">
        <ele>1442</ele>
        <time>2026-08-14T06:30:29.463Z</time>
      </trkpt>
      <trkpt lat="45.82452" lon="6.74379">
        <ele>1441</ele>
        <time>2026-08-14T06:30:30.463Z</time>
      </trkpt>
      <trkpt lat="45.82451" lon="6.74378">
        <ele>1441</ele>
        <time>2026-08-14T06:30:31.463Z</time>
      </trkpt>
      <trkpt lat="45.82451" lon="6.74378">
        <ele>1441</ele>
        <time>2026-08-14T06:30:32.463Z</time>
      </trkpt>
      <trkpt lat="45.8245" lon="6.74378">
        <ele>1440</ele>
        <time>2026-08-14T06:30:33.463Z</time>
      </trkpt>
      <trkpt lat="45.8245" lon="6.74378">
        <ele>1440</ele>
        <time>2026-08-14T06:30:34.463Z</time>
      </trkpt>
      <trkpt lat="45.8245" lon="6.74378">
        <ele>1440</ele>
        <time>2026-08-14T06:30:35.463Z</time>
      </trkpt>
      <trkpt lat="45.8245" lon="6.74378">
        <ele>1441</ele>
        <time>2026-08-14T06:30:36.463Z</time>
      </trkpt>
      <trkpt lat="45.8245" lon="6.74379">
        <ele>1441</ele>
        <time>2026-08-14T06:30:37.463Z</time>
      </trkpt>
      <trkpt lat="45.8245" lon="6.74379">
        <ele>1442</ele>
        <time>2026-08-14T06:30:38.463Z</time>
      </trkpt>
      <trkpt lat="45.82449" lon="6.74379">
        <ele>1442</ele>
        <time>2026-08-14T06:30:39.463Z</time>
      </trkpt>
      <trkpt lat="45.82449" lon="6.74379">
        <ele>1443</ele>
        <time>2026-08-14T06:30:40.463Z</time>
      </trkpt>
      <trkpt lat="45.82448" lon="6.7438">
        <ele>1443</ele>
        <time>2026-08-14T06:30:41.463Z</time>
      </trkpt>
      <trkpt lat="45.82448" lon="6.7438">
        <ele>1444</ele>
        <time>2026-08-14T06:30:42.463Z</time>
      </trkpt>
      <trkpt lat="45.82448" lon="6.7438">
        <ele>1444</ele>
        <time>2026-08-14T06:30:43.463Z</time>
      </trkpt>
      <trkpt lat="45.82447" lon="6.7438">
        <ele>1444</ele>
        <time>2026-08-14T06:30:44.463Z</time>
      </trkpt>
      <trkpt lat="45.82447" lon="6.74379">
        <ele>1444</ele>
        <time>2026-08-14T06:30:45.463Z</time>
      </trkpt>
      <trkpt lat="45.82446" lon="6.74379">
        <ele>1444</ele>
        <time>2026-08-14T06:30:46.463Z</time>
      </trkpt>
      <trkpt lat="45.82445" lon="6.74378">
        <ele>1444</ele>
        <time>2026-08-14T06:30:47.463Z</time>
      </trkpt>
      <trkpt lat="45.82443" lon="6.74378">
        <ele>1444</ele>
        <time>2026-08-14T06:30:48.463Z</time>
      </trkpt>
      <trkpt lat="45.82441" lon="6.74377">
        <ele>1444</ele>
        <time>2026-08-14T06:30:49.463Z</time>
      </trkpt>
      <trkpt lat="45.8244" lon="6.74376">
        <ele>1444</ele>
        <time>2026-08-14T06:30:50.463Z</time>
      </trkpt>
      <trkpt lat="45.82438" lon="6.74374">
        <ele>1443</ele>
        <time>2026-08-14T06:30:51.463Z</time>
      </trkpt>
      <trkpt lat="45.82437" lon="6.74372">
        <ele>1442</ele>
        <time>2026-08-14T06:30:52.463Z</time>
      </trkpt>
      <trkpt lat="45.82436" lon="6.7437">
        <ele>1441</ele>
        <time>2026-08-14T06:30:53.463Z</time>
      </trkpt>
      <trkpt lat="45.82435" lon="6.74369">
        <ele>1440</ele>
        <time>2026-08-14T06:30:54.463Z</time>
      </trkpt>
      <trkpt lat="45.82434" lon="6.74367">
        <ele>1440</ele>
        <time>2026-08-14T06:30:55.463Z</time>
      </trkpt>
      <trkpt lat="45.82433" lon="6.74364">
        <ele>1439</ele>
        <time>2026-08-14T06:30:56.463Z</time>
      </trkpt>
      <trkpt lat="45.82432" lon="6.74362">
        <ele>1439</ele>
        <time>2026-08-14T06:30:57.463Z</time>
      </trkpt>
      <trkpt lat="45.8243" lon="6.74361">
        <ele>1438</ele>
        <time>2026-08-14T06:30:58.463Z</time>
      </trkpt>
      <trkpt lat="45.82429" lon="6.7436">
        <ele>1438</ele>
        <time>2026-08-14T06:30:59.463Z</time>
      </trkpt>
      <trkpt lat="45.82427" lon="6.74358">
        <ele>1437</ele>
        <time>2026-08-14T06:31:00.463Z</time>
      </trkpt>
      <trkpt lat="45.82426" lon="6.74355">
        <ele>1437</ele>
        <time>2026-08-14T06:31:01.463Z</time>
      </trkpt>
      <trkpt lat="45.82425" lon="6.74352">
        <ele>1436</ele>
        <time>2026-08-14T06:31:02.463Z</time>
      </trkpt>
      <trkpt lat="45.82424" lon="6.74349">
        <ele>1435</ele>
        <time>2026-08-14T06:31:03.463Z</time>
      </trkpt>
      <trkpt lat="45.82424" lon="6.74346">
        <ele>1435</ele>
        <time>2026-08-14T06:31:04.463Z</time>
      </trkpt>
      <trkpt lat="45.82423" lon="6.74342">
        <ele>1434</ele>
        <time>2026-08-14T06:31:05.463Z</time>
      </trkpt>
      <trkpt lat="45.82423" lon="6.74338">
        <ele>1433</ele>
        <time>2026-08-14T06:31:06.463Z</time>
      </trkpt>
      <trkpt lat="45.82422" lon="6.74334">
        <ele>1432</ele>
        <time>2026-08-14T06:31:07.463Z</time>
      </trkpt>
      <trkpt lat="45.82421" lon="6.74331">
        <ele>1432</ele>
        <time>2026-08-14T06:31:08.463Z</time>
      </trkpt>
      <trkpt lat="45.8242" lon="6.74328">
        <ele>1431</ele>
        <time>2026-08-14T06:31:09.463Z</time>
      </trkpt>
      <trkpt lat="45.82419" lon="6.74326">
        <ele>1430</ele>
        <time>2026-08-14T06:31:10.463Z</time>
      </trkpt>
      <trkpt lat="45.82418" lon="6.74324">
        <ele>1430</ele>
        <time>2026-08-14T06:31:11.463Z</time>
      </trkpt>
      <trkpt lat="45.82418" lon="6.74321">
        <ele>1429</ele>
        <time>2026-08-14T06:31:12.463Z</time>
      </trkpt>
      <trkpt lat="45.82418" lon="6.74318">
        <ele>1428</ele>
        <time>2026-08-14T06:31:13.463Z</time>
      </trkpt>
      <trkpt lat="45.82417" lon="6.74314">
        <ele>1427</ele>
        <time>2026-08-14T06:31:14.463Z</time>
      </trkpt>
      <trkpt lat="45.82416" lon="6.74311">
        <ele>1426</ele>
        <time>2026-08-14T06:31:15.463Z</time>
      </trkpt>
      <trkpt lat="45.82415" lon="6.74308">
        <ele>1425</ele>
        <time>2026-08-14T06:31:16.463Z</time>
      </trkpt>
      <trkpt lat="45.82414" lon="6.74304">
        <ele>1423</ele>
        <time>2026-08-14T06:31:17.463Z</time>
      </trkpt>
      <trkpt lat="45.82413" lon="6.74301">
        <ele>1422</ele>
        <time>2026-08-14T06:31:18.463Z</time>
      </trkpt>
      <trkpt lat="45.82412" lon="6.74298">
        <ele>1421</ele>
        <time>2026-08-14T06:31:19.463Z</time>
      </trkpt>
      <trkpt lat="45.82411" lon="6.74296">
        <ele>1420</ele>
        <time>2026-08-14T06:31:20.463Z</time>
      </trkpt>
      <trkpt lat="45.82411" lon="6.74294">
        <ele>1419</ele>
        <time>2026-08-14T06:31:21.463Z</time>
      </trkpt>
      <trkpt lat="45.8241" lon="6.74291">
        <ele>1418</ele>
        <time>2026-08-14T06:31:22.463Z</time>
      </trkpt>
      <trkpt lat="45.8241" lon="6.74289">
        <ele>1417</ele>
        <time>2026-08-14T06:31:23.463Z</time>
      </trkpt>
      <trkpt lat="45.82409" lon="6.74287">
        <ele>1417</ele>
        <time>2026-08-14T06:31:24.463Z</time>
      </trkpt>
      <trkpt lat="45.82408" lon="6.74286">
        <ele>1416</ele>
        <time>2026-08-14T06:31:25.463Z</time>
      </trkpt>
      <trkpt lat="45.82407" lon="6.74284">
        <ele>1415</ele>
        <time>2026-08-14T06:31:26.463Z</time>
      </trkpt>
      <trkpt lat="45.82405" lon="6.74282">
        <ele>1414</ele>
        <time>2026-08-14T06:31:27.463Z</time>
      </trkpt>
      <trkpt lat="45.82402" lon="6.7428">
        <ele>1413</ele>
        <time>2026-08-14T06:31:28.463Z</time>
      </trkpt>
      <trkpt lat="45.824" lon="6.74279">
        <ele>1413</ele>
        <time>2026-08-14T06:31:29.463Z</time>
      </trkpt>
      <trkpt lat="45.82399" lon="6.74278">
        <ele>1412</ele>
        <time>2026-08-14T06:31:30.463Z</time>
      </trkpt>
      <trkpt lat="45.82397" lon="6.74276">
        <ele>1411</ele>
        <time>2026-08-14T06:31:31.463Z</time>
      </trkpt>
      <trkpt lat="45.82396" lon="6.74274">
        <ele>1411</ele>
        <time>2026-08-14T06:31:32.463Z</time>
      </trkpt>
      <trkpt lat="45.82395" lon="6.74272">
        <ele>1411</ele>
        <time>2026-08-14T06:31:33.463Z</time>
      </trkpt>
      <trkpt lat="45.82394" lon="6.7427">
        <ele>1411</ele>
        <time>2026-08-14T06:31:34.463Z</time>
      </trkpt>
      <trkpt lat="45.82393" lon="6.74268">
        <ele>1411</ele>
        <time>2026-08-14T06:31:35.463Z</time>
      </trkpt>
      <trkpt lat="45.82391" lon="6.74266">
        <ele>1411</ele>
        <time>2026-08-14T06:31:36.463Z</time>
      </trkpt>
      <trkpt lat="45.8239" lon="6.74264">
        <ele>1411</ele>
        <time>2026-08-14T06:31:37.463Z</time>
      </trkpt>
      <trkpt lat="45.82389" lon="6.74262">
        <ele>1411</ele>
        <time>2026-08-14T06:31:38.463Z</time>
      </trkpt>
      <trkpt lat="45.82388" lon="6.7426">
        <ele>1410</ele>
        <time>2026-08-14T06:31:39.463Z</time>
      </trkpt>
      <trkpt lat="45.82387" lon="6.74258">
        <ele>1410</ele>
        <time>2026-08-14T06:31:40.463Z</time>
      </trkpt>
      <trkpt lat="45.82386" lon="6.74255">
        <ele>1410</ele>
        <time>2026-08-14T06:31:41.463Z</time>
      </trkpt>
      <trkpt lat="45.82385" lon="6.74253">
        <ele>1410</ele>
        <time>2026-08-14T06:31:42.463Z</time>
      </trkpt>
      <trkpt lat="45.82384" lon="6.74251">
        <ele>1409</ele>
        <time>2026-08-14T06:31:43.463Z</time>
      </trkpt>
      <trkpt lat="45.82383" lon="6.74249">
        <ele>1409</ele>
        <time>2026-08-14T06:31:44.463Z</time>
      </trkpt>
      <trkpt lat="45.82382" lon="6.74247">
        <ele>1408</ele>
        <time>2026-08-14T06:31:45.463Z</time>
      </trkpt>
      <trkpt lat="45.82381" lon="6.74245">
        <ele>1408</ele>
        <time>2026-08-14T06:31:46.463Z</time>
      </trkpt>
      <trkpt lat="45.8238" lon="6.74244">
        <ele>1408</ele>
        <time>2026-08-14T06:31:47.463Z</time>
      </trkpt>
      <trkpt lat="45.82379" lon="6.74241">
        <ele>1408</ele>
        <time>2026-08-14T06:31:48.463Z</time>
      </trkpt>
      <trkpt lat="45.82378" lon="6.74239">
        <ele>1407</ele>
        <time>2026-08-14T06:31:49.463Z</time>
      </trkpt>
      <trkpt lat="45.82377" lon="6.74237">
        <ele>1407</ele>
        <time>2026-08-14T06:31:50.463Z</time>
      </trkpt>
      <trkpt lat="45.82376" lon="6.74235">
        <ele>1407</ele>
        <time>2026-08-14T06:31:51.463Z</time>
      </trkpt>
      <trkpt lat="45.8237" lon="6.74222">
        <ele>1403</ele>
        <time>2026-08-14T06:32:11.540Z</time>
      </trkpt>
      <trkpt lat="45.8237" lon="6.7422">
        <ele>1403</ele>
        <time>2026-08-14T06:32:12.540Z</time>
      </trkpt>
      <trkpt lat="45.82371" lon="6.74219">
        <ele>1403</ele>
        <time>2026-08-14T06:32:13.540Z</time>
      </trkpt>
      <trkpt lat="45.8237" lon="6.74217">
        <ele>1402</ele>
        <time>2026-08-14T06:32:14.540Z</time>
      </trkpt>
      <trkpt lat="45.8237" lon="6.74216">
        <ele>1402</ele>
        <time>2026-08-14T06:32:15.540Z</time>
      </trkpt>
      <trkpt lat="45.8237" lon="6.74213">
        <ele>1401</ele>
        <time>2026-08-14T06:32:16.540Z</time>
      </trkpt>
      <trkpt lat="45.8237" lon="6.74211">
        <ele>1401</ele>
        <time>2026-08-14T06:32:17.540Z</time>
      </trkpt>
      <trkpt lat="45.82369" lon="6.74209">
        <ele>1400</ele>
        <time>2026-08-14T06:32:18.540Z</time>
      </trkpt>
      <trkpt lat="45.82368" lon="6.74207">
        <ele>1400</ele>
        <time>2026-08-14T06:32:19.540Z</time>
      </trkpt>
      <trkpt lat="45.82367" lon="6.74205">
        <ele>1399</ele>
        <time>2026-08-14T06:32:20.540Z</time>
      </trkpt>
      <trkpt lat="45.82367" lon="6.74202">
        <ele>1399</ele>
        <time>2026-08-14T06:32:21.540Z</time>
      </trkpt>
      <trkpt lat="45.82366" lon="6.742">
        <ele>1398</ele>
        <time>2026-08-14T06:32:22.540Z</time>
      </trkpt>
      <trkpt lat="45.82365" lon="6.74198">
        <ele>1397</ele>
        <time>2026-08-14T06:32:23.540Z</time>
      </trkpt>
      <trkpt lat="45.82365" lon="6.74196">
        <ele>1397</ele>
        <time>2026-08-14T06:32:24.540Z</time>
      </trkpt>
      <trkpt lat="45.82364" lon="6.74194">
        <ele>1397</ele>
        <time>2026-08-14T06:32:25.540Z</time>
      </trkpt>
      <trkpt lat="45.82363" lon="6.74191">
        <ele>1396</ele>
        <time>2026-08-14T06:32:26.540Z</time>
      </trkpt>
      <trkpt lat="45.82362" lon="6.74189">
        <ele>1396</ele>
        <time>2026-08-14T06:32:27.540Z</time>
      </trkpt>
      <trkpt lat="45.82362" lon="6.74186">
        <ele>1396</ele>
        <time>2026-08-14T06:32:28.540Z</time>
      </trkpt>
      <trkpt lat="45.82361" lon="6.74184">
        <ele>1396</ele>
        <time>2026-08-14T06:32:29.540Z</time>
      </trkpt>
      <trkpt lat="45.8236" lon="6.74182">
        <ele>1396</ele>
        <time>2026-08-14T06:32:30.540Z</time>
      </trkpt>
      <trkpt lat="45.82358" lon="6.7418">
        <ele>1396</ele>
        <time>2026-08-14T06:32:31.540Z</time>
      </trkpt>
      <trkpt lat="45.82358" lon="6.74177">
        <ele>1396</ele>
        <time>2026-08-14T06:32:32.540Z</time>
      </trkpt>
      <trkpt lat="45.82356" lon="6.74174">
        <ele>1396</ele>
        <time>2026-08-14T06:32:33.540Z</time>
      </trkpt>
      <trkpt lat="45.82355" lon="6.74171">
        <ele>1396</ele>
        <time>2026-08-14T06:32:34.540Z</time>
      </trkpt>
      <trkpt lat="45.82354" lon="6.74169">
        <ele>1396</ele>
        <time>2026-08-14T06:32:35.540Z</time>
      </trkpt>
      <trkpt lat="45.82353" lon="6.74167">
        <ele>1396</ele>
        <time>2026-08-14T06:32:36.540Z</time>
      </trkpt>
      <trkpt lat="45.82352" lon="6.74165">
        <ele>1396</ele>
        <time>2026-08-14T06:32:37.540Z</time>
      </trkpt>
      <trkpt lat="45.82351" lon="6.74163">
        <ele>1396</ele>
        <time>2026-08-14T06:32:38.540Z</time>
      </trkpt>
      <trkpt lat="45.82349" lon="6.74161">
        <ele>1396</ele>
        <time>2026-08-14T06:32:39.540Z</time>
      </trkpt>
      <trkpt lat="45.82347" lon="6.7416">
        <ele>1396</ele>
        <time>2026-08-14T06:32:40.540Z</time>
      </trkpt>
      <trkpt lat="45.82346" lon="6.74157">
        <ele>1395</ele>
        <time>2026-08-14T06:32:41.540Z</time>
      </trkpt>
      <trkpt lat="45.82345" lon="6.74155">
        <ele>1395</ele>
        <time>2026-08-14T06:32:42.540Z</time>
      </trkpt>
      <trkpt lat="45.82344" lon="6.74152">
        <ele>1394</ele>
        <time>2026-08-14T06:32:43.540Z</time>
      </trkpt>
      <trkpt lat="45.82343" lon="6.74148">
        <ele>1393</ele>
        <time>2026-08-14T06:32:44.540Z</time>
      </trkpt>
      <trkpt lat="45.82342" lon="6.74145">
        <ele>1393</ele>
        <time>2026-08-14T06:32:45.540Z</time>
      </trkpt>
      <trkpt lat="45.82341" lon="6.74142">
        <ele>1392</ele>
        <time>2026-08-14T06:32:46.540Z</time>
      </trkpt>
      <trkpt lat="45.82341" lon="6.7414">
        <ele>1391</ele>
        <time>2026-08-14T06:32:47.540Z</time>
      </trkpt>
      <trkpt lat="45.8234" lon="6.74137">
        <ele>1390</ele>
        <time>2026-08-14T06:32:48.540Z</time>
      </trkpt>
      <trkpt lat="45.8234" lon="6.74134">
        <ele>1390</ele>
        <time>2026-08-14T06:32:49.540Z</time>
      </trkpt>
      <trkpt lat="45.8234" lon="6.74132">
        <ele>1389</ele>
        <time>2026-08-14T06:32:50.540Z</time>
      </trkpt>
      <trkpt lat="45.8234" lon="6.74129">
        <ele>1389</ele>
        <time>2026-08-14T06:32:51.540Z</time>
      </trkpt>
      <trkpt lat="45.8234" lon="6.74126">
        <ele>1389</ele>
        <time>2026-08-14T06:32:52.540Z</time>
      </trkpt>
      <trkpt lat="45.8234" lon="6.74123">
        <ele>1388</ele>
        <time>2026-08-14T06:32:53.540Z</time>
      </trkpt>
      <trkpt lat="45.82339" lon="6.7412">
        <ele>1387</ele>
        <time>2026-08-14T06:32:54.540Z</time>
      </trkpt>
      <trkpt lat="45.82339" lon="6.74117">
        <ele>1387</ele>
        <time>2026-08-14T06:32:55.540Z</time>
      </trkpt>
      <trkpt lat="45.82338" lon="6.74114">
        <ele>1386</ele>
        <time>2026-08-14T06:32:56.540Z</time>
      </trkpt>
      <trkpt lat="45.82338" lon="6.7411">
        <ele>1386</ele>
        <time>2026-08-14T06:32:57.540Z</time>
      </trkpt>
      <trkpt lat="45.82339" lon="6.74105">
        <ele>1385</ele>
        <time>2026-08-14T06:32:58.540Z</time>
      </trkpt>
      <trkpt lat="45.82339" lon="6.741">
        <ele>1385</ele>
        <time>2026-08-14T06:32:59.540Z</time>
      </trkpt>
      <trkpt lat="45.82339" lon="6.74096">
        <ele>1384</ele>
        <time>2026-08-14T06:33:00.540Z</time>
      </trkpt>
      <trkpt lat="45.82338" lon="6.74093">
        <ele>1384</ele>
        <time>2026-08-14T06:33:01.540Z</time>
      </trkpt>
      <trkpt lat="45.82338" lon="6.7409">
        <ele>1383</ele>
        <time>2026-08-14T06:33:02.540Z</time>
      </trkpt>
      <trkpt lat="45.82337" lon="6.74088">
        <ele>1382</ele>
        <time>2026-08-14T06:33:03.540Z</time>
      </trkpt>
      <trkpt lat="45.82336" lon="6.74085">
        <ele>1381</ele>
        <time>2026-08-14T06:33:04.540Z</time>
      </trkpt>
      <trkpt lat="45.82334" lon="6.74083">
        <ele>1381</ele>
        <time>2026-08-14T06:33:05.540Z</time>
      </trkpt>
      <trkpt lat="45.82333" lon="6.74081">
        <ele>1380</ele>
        <time>2026-08-14T06:33:06.540Z</time>
      </trkpt>
      <trkpt lat="45.82332" lon="6.7408">
        <ele>1380</ele>
        <time>2026-08-14T06:33:07.540Z</time>
      </trkpt>
      <trkpt lat="45.82331" lon="6.74078">
        <ele>1379</ele>
        <time>2026-08-14T06:33:08.540Z</time>
      </trkpt>
      <trkpt lat="45.8233" lon="6.74076">
        <ele>1379</ele>
        <time>2026-08-14T06:33:09.540Z</time>
      </trkpt>
      <trkpt lat="45.82329" lon="6.74073">
        <ele>1379</ele>
        <time>2026-08-14T06:33:10.540Z</time>
      </trkpt>
      <trkpt lat="45.82327" lon="6.74071">
        <ele>1378</ele>
        <time>2026-08-14T06:33:11.540Z</time>
      </trkpt>
      <trkpt lat="45.82327" lon="6.74067">
        <ele>1378</ele>
        <time>2026-08-14T06:33:12.540Z</time>
      </trkpt>
      <trkpt lat="45.82326" lon="6.74063">
        <ele>1377</ele>
        <time>2026-08-14T06:33:13.540Z</time>
      </trkpt>
      <trkpt lat="45.82326" lon="6.74061">
        <ele>1376</ele>
        <time>2026-08-14T06:33:14.540Z</time>
      </trkpt>
      <trkpt lat="45.82325" lon="6.74058">
        <ele>1376</ele>
        <time>2026-08-14T06:33:15.540Z</time>
      </trkpt>
      <trkpt lat="45.82323" lon="6.74056">
        <ele>1375</ele>
        <time>2026-08-14T06:33:16.540Z</time>
      </trkpt>
      <trkpt lat="45.82322" lon="6.74053">
        <ele>1375</ele>
        <time>2026-08-14T06:33:17.540Z</time>
      </trkpt>
      <trkpt lat="45.8232" lon="6.74051">
        <ele>1375</ele>
        <time>2026-08-14T06:33:18.540Z</time>
      </trkpt>
      <trkpt lat="45.82319" lon="6.74048">
        <ele>1375</ele>
        <time>2026-08-14T06:33:19.540Z</time>
      </trkpt>
      <trkpt lat="45.82318" lon="6.74045">
        <ele>1375</ele>
        <time>2026-08-14T06:33:20.540Z</time>
      </trkpt>
      <trkpt lat="45.82317" lon="6.74042">
        <ele>1375</ele>
        <time>2026-08-14T06:33:21.540Z</time>
      </trkpt>
      <trkpt lat="45.82316" lon="6.7404">
        <ele>1375</ele>
        <time>2026-08-14T06:33:22.540Z</time>
      </trkpt>
      <trkpt lat="45.82315" lon="6.74037">
        <ele>1375</ele>
        <time>2026-08-14T06:33:23.540Z</time>
      </trkpt>
      <trkpt lat="45.82314" lon="6.74034">
        <ele>1375</ele>
        <time>2026-08-14T06:33:24.540Z</time>
      </trkpt>
      <trkpt lat="45.82312" lon="6.74029">
        <ele>1375</ele>
        <time>2026-08-14T06:33:25.540Z</time>
      </trkpt>
      <trkpt lat="45.82311" lon="6.74024">
        <ele>1375</ele>
        <time>2026-08-14T06:33:26.540Z</time>
      </trkpt>
      <trkpt lat="45.82309" lon="6.7402">
        <ele>1375</ele>
        <time>2026-08-14T06:33:27.540Z</time>
      </trkpt>
      <trkpt lat="45.82308" lon="6.74017">
        <ele>1375</ele>
        <time>2026-08-14T06:33:28.540Z</time>
      </trkpt>
      <trkpt lat="45.82307" lon="6.74013">
        <ele>1375</ele>
        <time>2026-08-14T06:33:29.540Z</time>
      </trkpt>
      <trkpt lat="45.82306" lon="6.74011">
        <ele>1375</ele>
        <time>2026-08-14T06:33:30.540Z</time>
      </trkpt>
      <trkpt lat="45.82304" lon="6.7401">
        <ele>1375</ele>
        <time>2026-08-14T06:33:31.540Z</time>
      </trkpt>
      <trkpt lat="45.82303" lon="6.74009">
        <ele>1376</ele>
        <time>2026-08-14T06:33:32.540Z</time>
      </trkpt>
      <trkpt lat="45.82301" lon="6.74009">
        <ele>1376</ele>
        <time>2026-08-14T06:33:33.540Z</time>
      </trkpt>
      <trkpt lat="45.823" lon="6.74009">
        <ele>1376</ele>
        <time>2026-08-14T06:33:34.540Z</time>
      </trkpt>
      <trkpt lat="45.82299" lon="6.74009">
        <ele>1376</ele>
        <time>2026-08-14T06:33:35.540Z</time>
      </trkpt>
      <trkpt lat="45.82299" lon="6.74008">
        <ele>1377</ele>
        <time>2026-08-14T06:33:36.540Z</time>
      </trkpt>
      <trkpt lat="45.82298" lon="6.74007">
        <ele>1377</ele>
        <time>2026-08-14T06:33:37.540Z</time>
      </trkpt>
      <trkpt lat="45.82297" lon="6.74005">
        <ele>1376</ele>
        <time>2026-08-14T06:33:38.540Z</time>
      </trkpt>
      <trkpt lat="45.82296" lon="6.74003">
        <ele>1376</ele>
        <time>2026-08-14T06:33:39.540Z</time>
      </trkpt>
      <trkpt lat="45.82295" lon="6.74001">
        <ele>1375</ele>
        <time>2026-08-14T06:33:40.540Z</time>
      </trkpt>
      <trkpt lat="45.82294" lon="6.73998">
        <ele>1375</ele>
        <time>2026-08-14T06:33:41.540Z</time>
      </trkpt>
      <trkpt lat="45.82293" lon="6.73996">
        <ele>1374</ele>
        <time>2026-08-14T06:33:42.540Z</time>
      </trkpt>
      <trkpt lat="45.82293" lon="6.73994">
        <ele>1373</ele>
        <time>2026-08-14T06:33:43.540Z</time>
      </trkpt>
      <trkpt lat="45.82292" lon="6.73994">
        <ele>1373</ele>
        <time>2026-08-14T06:33:44.540Z</time>
      </trkpt>
      <trkpt lat="45.82292" lon="6.73992">
        <ele>1373</ele>
        <time>2026-08-14T06:33:45.540Z</time>
      </trkpt>
      <trkpt lat="45.82292" lon="6.7399">
        <ele>1372</ele>
        <time>2026-08-14T06:33:46.540Z</time>
      </trkpt>
      <trkpt lat="45.82292" lon="6.73988">
        <ele>1372</ele>
        <time>2026-08-14T06:33:47.540Z</time>
      </trkpt>
      <trkpt lat="45.82293" lon="6.73986">
        <ele>1372</ele>
        <time>2026-08-14T06:33:48.540Z</time>
      </trkpt>
      <trkpt lat="45.82293" lon="6.73984">
        <ele>1372</ele>
        <time>2026-08-14T06:33:49.540Z</time>
      </trkpt>
      <trkpt lat="45.82294" lon="6.73983">
        <ele>1372</ele>
        <time>2026-08-14T06:33:50.540Z</time>
      </trkpt>
      <trkpt lat="45.82295" lon="6.73982">
        <ele>1372</ele>
        <time>2026-08-14T06:33:51.540Z</time>
      </trkpt>
      <trkpt lat="45.82295" lon="6.7398">
        <ele>1371</ele>
        <time>2026-08-14T06:33:52.540Z</time>
      </trkpt>
      <trkpt lat="45.82295" lon="6.73978">
        <ele>1371</ele>
        <time>2026-08-14T06:33:53.540Z</time>
      </trkpt>
      <trkpt lat="45.82295" lon="6.73978">
        <ele>1370</ele>
        <time>2026-08-14T06:33:54.540Z</time>
      </trkpt>
      <trkpt lat="45.82295" lon="6.73978">
        <ele>1370</ele>
        <time>2026-08-14T06:33:55.540Z</time>
      </trkpt>
      <trkpt lat="45.82295" lon="6.73978">
        <ele>1369</ele>
        <time>2026-08-14T06:33:56.540Z</time>
      </trkpt>
      <trkpt lat="45.82296" lon="6.73978">
        <ele>1369</ele>
        <time>2026-08-14T06:33:57.540Z</time>
      </trkpt>
      <trkpt lat="45.82296" lon="6.73977">
        <ele>1369</ele>
        <time>2026-08-14T06:33:58.540Z</time>
      </trkpt>
      <trkpt lat="45.82297" lon="6.73977">
        <ele>1368</ele>
        <time>2026-08-14T06:33:59.540Z</time>
      </trkpt>
      <trkpt lat="45.82296" lon="6.73975">
        <ele>1368</ele>
        <time>2026-08-14T06:34:00.540Z</time>
      </trkpt>
      <trkpt lat="45.82296" lon="6.73973">
        <ele>1368</ele>
        <time>2026-08-14T06:34:01.540Z</time>
      </trkpt>
      <trkpt lat="45.82296" lon="6.73971">
        <ele>1367</ele>
        <time>2026-08-14T06:34:02.540Z</time>
      </trkpt>
      <trkpt lat="45.82295" lon="6.7397">
        <ele>1367</ele>
        <time>2026-08-14T06:34:03.540Z</time>
      </trkpt>
      <trkpt lat="45.82295" lon="6.73969">
        <ele>1367</ele>
        <time>2026-08-14T06:34:04.540Z</time>
      </trkpt>
      <trkpt lat="45.82294" lon="6.73968">
        <ele>1367</ele>
        <time>2026-08-14T06:34:05.540Z</time>
      </trkpt>
      <trkpt lat="45.82294" lon="6.73965">
        <ele>1366</ele>
        <time>2026-08-14T06:34:06.540Z</time>
      </trkpt>
      <trkpt lat="45.82293" lon="6.73963">
        <ele>1365</ele>
        <time>2026-08-14T06:34:07.540Z</time>
      </trkpt>
      <trkpt lat="45.82292" lon="6.7396">
        <ele>1364</ele>
        <time>2026-08-14T06:34:08.540Z</time>
      </trkpt>
      <trkpt lat="45.82291" lon="6.73957">
        <ele>1363</ele>
        <time>2026-08-14T06:34:09.540Z</time>
      </trkpt>
      <trkpt lat="45.82289" lon="6.73955">
        <ele>1362</ele>
        <time>2026-08-14T06:34:10.540Z</time>
      </trkpt>
      <trkpt lat="45.82288" lon="6.73952">
        <ele>1361</ele>
        <time>2026-08-14T06:34:11.540Z</time>
      </trkpt>
      <trkpt lat="45.82286" lon="6.73949">
        <ele>1361</ele>
        <time>2026-08-14T06:34:12.540Z</time>
      </trkpt>
      <trkpt lat="45.82285" lon="6.73945">
        <ele>1360</ele>
        <time>2026-08-14T06:34:13.540Z</time>
      </trkpt>
      <trkpt lat="45.82284" lon="6.73942">
        <ele>1360</ele>
        <time>2026-08-14T06:34:14.540Z</time>
      </trkpt>
      <trkpt lat="45.82282" lon="6.73939">
        <ele>1359</ele>
        <time>2026-08-14T06:34:15.540Z</time>
      </trkpt>
      <trkpt lat="45.8228" lon="6.73936">
        <ele>1359</ele>
        <time>2026-08-14T06:34:16.540Z</time>
      </trkpt>
      <trkpt lat="45.82277" lon="6.73932">
        <ele>1359</ele>
        <time>2026-08-14T06:34:17.540Z</time>
      </trkpt>
      <trkpt lat="45.82276" lon="6.73929">
        <ele>1358</ele>
        <time>2026-08-14T06:34:18.540Z</time>
      </trkpt>
      <trkpt lat="45.82275" lon="6.73926">
        <ele>1358</ele>
        <time>2026-08-14T06:34:19.540Z</time>
      </trkpt>
      <trkpt lat="45.82274" lon="6.73922">
        <ele>1357</ele>
        <time>2026-08-14T06:34:20.540Z</time>
      </trkpt>
      <trkpt lat="45.82275" lon="6.73919">
        <ele>1356</ele>
        <time>2026-08-14T06:34:21.540Z</time>
      </trkpt>
      <trkpt lat="45.82275" lon="6.73916">
        <ele>1356</ele>
        <time>2026-08-14T06:34:22.540Z</time>
      </trkpt>
      <trkpt lat="45.82274" lon="6.73914">
        <ele>1355</ele>
        <time>2026-08-14T06:34:23.540Z</time>
      </trkpt>
      <trkpt lat="45.82274" lon="6.73911">
        <ele>1354</ele>
        <time>2026-08-14T06:34:24.540Z</time>
      </trkpt>
      <trkpt lat="45.82273" lon="6.73909">
        <ele>1354</ele>
        <time>2026-08-14T06:34:25.540Z</time>
      </trkpt>
      <trkpt lat="45.82273" lon="6.73906">
        <ele>1353</ele>
        <time>2026-08-14T06:34:26.540Z</time>
      </trkpt>
      <trkpt lat="45.82273" lon="6.73902">
        <ele>1353</ele>
        <time>2026-08-14T06:34:27.540Z</time>
      </trkpt>
      <trkpt lat="45.82274" lon="6.73899">
        <ele>1352</ele>
        <time>2026-08-14T06:34:28.540Z</time>
      </trkpt>
      <trkpt lat="45.82274" lon="6.73897">
        <ele>1352</ele>
        <time>2026-08-14T06:34:29.540Z</time>
      </trkpt>
      <trkpt lat="45.82274" lon="6.73894">
        <ele>1353</ele>
        <time>2026-08-14T06:34:30.540Z</time>
      </trkpt>
      <trkpt lat="45.82273" lon="6.73891">
        <ele>1353</ele>
        <time>2026-08-14T06:34:31.540Z</time>
      </trkpt>
      <trkpt lat="45.82272" lon="6.73889">
        <ele>1353</ele>
        <time>2026-08-14T06:34:32.540Z</time>
      </trkpt>
      <trkpt lat="45.82271" lon="6.73887">
        <ele>1353</ele>
        <time>2026-08-14T06:34:33.540Z</time>
      </trkpt>
      <trkpt lat="45.8227" lon="6.73885">
        <ele>1353</ele>
        <time>2026-08-14T06:34:34.540Z</time>
      </trkpt>
      <trkpt lat="45.82269" lon="6.73882">
        <ele>1353</ele>
        <time>2026-08-14T06:34:35.540Z</time>
      </trkpt>
      <trkpt lat="45.82268" lon="6.7388">
        <ele>1353</ele>
        <time>2026-08-14T06:34:36.540Z</time>
      </trkpt>
      <trkpt lat="45.82267" lon="6.73878">
        <ele>1353</ele>
        <time>2026-08-14T06:34:37.540Z</time>
      </trkpt>
      <trkpt lat="45.82266" lon="6.73876">
        <ele>1353</ele>
        <time>2026-08-14T06:34:38.540Z</time>
      </trkpt>
      <trkpt lat="45.82265" lon="6.73873">
        <ele>1353</ele>
        <time>2026-08-14T06:34:39.540Z</time>
      </trkpt>
      <trkpt lat="45.82264" lon="6.73869">
        <ele>1353</ele>
        <time>2026-08-14T06:34:40.540Z</time>
      </trkpt>
      <trkpt lat="45.82263" lon="6.73866">
        <ele>1353</ele>
        <time>2026-08-14T06:34:41.540Z</time>
      </trkpt>
      <trkpt lat="45.82262" lon="6.73863">
        <ele>1352</ele>
        <time>2026-08-14T06:34:42.540Z</time>
      </trkpt>
      <trkpt lat="45.82261" lon="6.73861">
        <ele>1352</ele>
        <time>2026-08-14T06:34:43.540Z</time>
      </trkpt>
      <trkpt lat="45.8226" lon="6.73859">
        <ele>1352</ele>
        <time>2026-08-14T06:34:44.540Z</time>
      </trkpt>
      <trkpt lat="45.82259" lon="6.73857">
        <ele>1351</ele>
        <time>2026-08-14T06:34:45.540Z</time>
      </trkpt>
      <trkpt lat="45.82258" lon="6.73855">
        <ele>1351</ele>
        <time>2026-08-14T06:34:46.540Z</time>
      </trkpt>
      <trkpt lat="45.82257" lon="6.73853">
        <ele>1351</ele>
        <time>2026-08-14T06:34:47.540Z</time>
      </trkpt>
      <trkpt lat="45.82257" lon="6.7385">
        <ele>1351</ele>
        <time>2026-08-14T06:34:48.540Z</time>
      </trkpt>
      <trkpt lat="45.82256" lon="6.73848">
        <ele>1351</ele>
        <time>2026-08-14T06:34:49.540Z</time>
      </trkpt>
      <trkpt lat="45.82255" lon="6.73845">
        <ele>1350</ele>
        <time>2026-08-14T06:34:50.540Z</time>
      </trkpt>
      <trkpt lat="45.82255" lon="6.73842">
        <ele>1350</ele>
        <time>2026-08-14T06:34:51.540Z</time>
      </trkpt>
      <trkpt lat="45.82254" lon="6.73839">
        <ele>1350</ele>
        <time>2026-08-14T06:34:52.540Z</time>
      </trkpt>
      <trkpt lat="45.82252" lon="6.73837">
        <ele>1350</ele>
        <time>2026-08-14T06:34:53.540Z</time>
      </trkpt>
      <trkpt lat="45.82251" lon="6.73834">
        <ele>1349</ele>
        <time>2026-08-14T06:34:54.540Z</time>
      </trkpt>
      <trkpt lat="45.8225" lon="6.73832">
        <ele>1349</ele>
        <time>2026-08-14T06:34:55.540Z</time>
      </trkpt>
      <trkpt lat="45.82249" lon="6.73829">
        <ele>1348</ele>
        <time>2026-08-14T06:34:56.540Z</time>
      </trkpt>
      <trkpt lat="45.82248" lon="6.73826">
        <ele>1348</ele>
        <time>2026-08-14T06:34:57.540Z</time>
      </trkpt>
      <trkpt lat="45.82246" lon="6.73823">
        <ele>1347</ele>
        <time>2026-08-14T06:34:58.540Z</time>
      </trkpt>
      <trkpt lat="45.82245" lon="6.7382">
        <ele>1347</ele>
        <time>2026-08-14T06:34:59.540Z</time>
      </trkpt>
      <trkpt lat="45.82244" lon="6.73818">
        <ele>1347</ele>
        <time>2026-08-14T06:35:00.540Z</time>
      </trkpt>
      <trkpt lat="45.82242" lon="6.73816">
        <ele>1347</ele>
        <time>2026-08-14T06:35:01.540Z</time>
      </trkpt>
      <trkpt lat="45.82241" lon="6.73814">
        <ele>1348</ele>
        <time>2026-08-14T06:35:02.540Z</time>
      </trkpt>
      <trkpt lat="45.82239" lon="6.73811">
        <ele>1348</ele>
        <time>2026-08-14T06:35:03.540Z</time>
      </trkpt>
      <trkpt lat="45.82238" lon="6.73809">
        <ele>1349</ele>
        <time>2026-08-14T06:35:04.540Z</time>
      </trkpt>
      <trkpt lat="45.82237" lon="6.73806">
        <ele>1349</ele>
        <time>2026-08-14T06:35:05.540Z</time>
      </trkpt>
      <trkpt lat="45.82236" lon="6.73805">
        <ele>1350</ele>
        <time>2026-08-14T06:35:06.540Z</time>
      </trkpt>
      <trkpt lat="45.82234" lon="6.73803">
        <ele>1351</ele>
        <time>2026-08-14T06:35:07.540Z</time>
      </trkpt>
      <trkpt lat="45.82233" lon="6.73801">
        <ele>1352</ele>
        <time>2026-08-14T06:35:08.540Z</time>
      </trkpt>
      <trkpt lat="45.82232" lon="6.73799">
        <ele>1352</ele>
        <time>2026-08-14T06:35:09.540Z</time>
      </trkpt>
      <trkpt lat="45.8223" lon="6.73797">
        <ele>1353</ele>
        <time>2026-08-14T06:35:10.540Z</time>
      </trkpt>
      <trkpt lat="45.82229" lon="6.73795">
        <ele>1354</ele>
        <time>2026-08-14T06:35:11.540Z</time>
      </trkpt>
      <trkpt lat="45.82228" lon="6.73794">
        <ele>1354</ele>
        <time>2026-08-14T06:35:12.540Z</time>
      </trkpt>
      <trkpt lat="45.82226" lon="6.73792">
        <ele>1355</ele>
        <time>2026-08-14T06:35:13.540Z</time>
      </trkpt>
      <trkpt lat="45.82224" lon="6.73788">
        <ele>1356</ele>
        <time>2026-08-14T06:35:14.540Z</time>
      </trkpt>
      <trkpt lat="45.82223" lon="6.73785">
        <ele>1356</ele>
        <time>2026-08-14T06:35:15.540Z</time>
      </trkpt>
      <trkpt lat="45.82221" lon="6.73782">
        <ele>1356</ele>
        <time>2026-08-14T06:35:16.540Z</time>
      </trkpt>
      <trkpt lat="45.82219" lon="6.73779">
        <ele>1357</ele>
        <time>2026-08-14T06:35:17.540Z</time>
      </trkpt>
      <trkpt lat="45.82217" lon="6.73777">
        <ele>1357</ele>
        <time>2026-08-14T06:35:18.540Z</time>
      </trkpt>
      <trkpt lat="45.82216" lon="6.73775">
        <ele>1357</ele>
        <time>2026-08-14T06:35:19.540Z</time>
      </trkpt>
      <trkpt lat="45.82215" lon="6.73773">
        <ele>1357</ele>
        <time>2026-08-14T06:35:20.540Z</time>
      </trkpt>
      <trkpt lat="45.82214" lon="6.73771">
        <ele>1357</ele>
        <time>2026-08-14T06:35:21.540Z</time>
      </trkpt>
      <trkpt lat="45.82213" lon="6.73769">
        <ele>1357</ele>
        <time>2026-08-14T06:35:22.540Z</time>
      </trkpt>
      <trkpt lat="45.82211" lon="6.73766">
        <ele>1357</ele>
        <time>2026-08-14T06:35:23.540Z</time>
      </trkpt>
      <trkpt lat="45.82209" lon="6.73763">
        <ele>1357</ele>
        <time>2026-08-14T06:35:24.540Z</time>
      </trkpt>
      <trkpt lat="45.82207" lon="6.7376">
        <ele>1358</ele>
        <time>2026-08-14T06:35:25.540Z</time>
      </trkpt>
      <trkpt lat="45.82204" lon="6.73757">
        <ele>1358</ele>
        <time>2026-08-14T06:35:26.540Z</time>
      </trkpt>
      <trkpt lat="45.82203" lon="6.73755">
        <ele>1358</ele>
        <time>2026-08-14T06:35:27.540Z</time>
      </trkpt>
      <trkpt lat="45.82201" lon="6.73754">
        <ele>1358</ele>
        <time>2026-08-14T06:35:28.540Z</time>
      </trkpt>
      <trkpt lat="45.82199" lon="6.73753">
        <ele>1358</ele>
        <time>2026-08-14T06:35:29.540Z</time>
      </trkpt>
      <trkpt lat="45.82197" lon="6.73752">
        <ele>1358</ele>
        <time>2026-08-14T06:35:30.540Z</time>
      </trkpt>
      <trkpt lat="45.82195" lon="6.73751">
        <ele>1358</ele>
        <time>2026-08-14T06:35:31.540Z</time>
      </trkpt>
      <trkpt lat="45.82194" lon="6.73749">
        <ele>1358</ele>
        <time>2026-08-14T06:35:32.540Z</time>
      </trkpt>
      <trkpt lat="45.82194" lon="6.73747">
        <ele>1358</ele>
        <time>2026-08-14T06:35:33.540Z</time>
      </trkpt>
      <trkpt lat="45.82193" lon="6.73746">
        <ele>1358</ele>
        <time>2026-08-14T06:35:34.540Z</time>
      </trkpt>
      <trkpt lat="45.82193" lon="6.73744">
        <ele>1358</ele>
        <time>2026-08-14T06:35:35.540Z</time>
      </trkpt>
      <trkpt lat="45.82192" lon="6.73741">
        <ele>1358</ele>
        <time>2026-08-14T06:35:36.540Z</time>
      </trkpt>
      <trkpt lat="45.82191" lon="6.73738">
        <ele>1357</ele>
        <time>2026-08-14T06:35:37.540Z</time>
      </trkpt>
      <trkpt lat="45.8219" lon="6.73735">
        <ele>1357</ele>
        <time>2026-08-14T06:35:38.540Z</time>
      </trkpt>
      <trkpt lat="45.82189" lon="6.73732">
        <ele>1357</ele>
        <time>2026-08-14T06:35:39.540Z</time>
      </trkpt>
      <trkpt lat="45.82189" lon="6.7373">
        <ele>1356</ele>
        <time>2026-08-14T06:35:40.540Z</time>
      </trkpt>
      <trkpt lat="45.82188" lon="6.73727">
        <ele>1356</ele>
        <time>2026-08-14T06:35:41.540Z</time>
      </trkpt>
      <trkpt lat="45.82186" lon="6.73724">
        <ele>1355</ele>
        <time>2026-08-14T06:35:42.540Z</time>
      </trkpt>
      <trkpt lat="45.82186" lon="6.73721">
        <ele>1355</ele>
        <time>2026-08-14T06:35:43.540Z</time>
      </trkpt>
      <trkpt lat="45.82185" lon="6.73719">
        <ele>1354</ele>
        <time>2026-08-14T06:35:44.540Z</time>
      </trkpt>
      <trkpt lat="45.82184" lon="6.73716">
        <ele>1354</ele>
        <time>2026-08-14T06:35:45.540Z</time>
      </trkpt>
      <trkpt lat="45.82183" lon="6.73714">
        <ele>1353</ele>
        <time>2026-08-14T06:35:46.540Z</time>
      </trkpt>
      <trkpt lat="45.82181" lon="6.73711">
        <ele>1353</ele>
        <time>2026-08-14T06:35:47.540Z</time>
      </trkpt>
      <trkpt lat="45.82181" lon="6.73709">
        <ele>1352</ele>
        <time>2026-08-14T06:35:48.540Z</time>
      </trkpt>
      <trkpt lat="45.8218" lon="6.73707">
        <ele>1352</ele>
        <time>2026-08-14T06:35:49.540Z</time>
      </trkpt>
      <trkpt lat="45.82179" lon="6.73705">
        <ele>1352</ele>
        <time>2026-08-14T06:35:50.540Z</time>
      </trkpt>
      <trkpt lat="45.82178" lon="6.73702">
        <ele>1352</ele>
        <time>2026-08-14T06:35:51.540Z</time>
      </trkpt>
      <trkpt lat="45.82178" lon="6.73699">
        <ele>1351</ele>
        <time>2026-08-14T06:35:52.540Z</time>
      </trkpt>
      <trkpt lat="45.82177" lon="6.73696">
        <ele>1351</ele>
        <time>2026-08-14T06:35:53.540Z</time>
      </trkpt>
      <trkpt lat="45.82176" lon="6.73694">
        <ele>1351</ele>
        <time>2026-08-14T06:35:54.540Z</time>
      </trkpt>
      <trkpt lat="45.82174" lon="6.73692">
        <ele>1351</ele>
        <time>2026-08-14T06:35:55.540Z</time>
      </trkpt>
      <trkpt lat="45.82173" lon="6.7369">
        <ele>1351</ele>
        <time>2026-08-14T06:35:56.540Z</time>
      </trkpt>
      <trkpt lat="45.82172" lon="6.73688">
        <ele>1351</ele>
        <time>2026-08-14T06:35:57.540Z</time>
      </trkpt>
      <trkpt lat="45.8217" lon="6.73687">
        <ele>1351</ele>
        <time>2026-08-14T06:35:58.540Z</time>
      </trkpt>
      <trkpt lat="45.82169" lon="6.73685">
        <ele>1352</ele>
        <time>2026-08-14T06:35:59.540Z</time>
      </trkpt>
      <trkpt lat="45.82168" lon="6.73684">
        <ele>1352</ele>
        <time>2026-08-14T06:36:00.540Z</time>
      </trkpt>
      <trkpt lat="45.82166" lon="6.73683">
        <ele>1352</ele>
        <time>2026-08-14T06:36:01.540Z</time>
      </trkpt>
      <trkpt lat="45.82165" lon="6.73682">
        <ele>1353</ele>
        <time>2026-08-14T06:36:02.540Z</time>
      </trkpt>
      <trkpt lat="45.82163" lon="6.7368">
        <ele>1353</ele>
        <time>2026-08-14T06:36:03.540Z</time>
      </trkpt>
      <trkpt lat="45.82162" lon="6.73679">
        <ele>1353</ele>
        <time>2026-08-14T06:36:04.540Z</time>
      </trkpt>
      <trkpt lat="45.82161" lon="6.73679">
        <ele>1354</ele>
        <time>2026-08-14T06:36:05.540Z</time>
      </trkpt>
      <trkpt lat="45.8216" lon="6.73678">
        <ele>1354</ele>
        <time>2026-08-14T06:36:06.541Z</time>
      </trkpt>
      <trkpt lat="45.82159" lon="6.73677">
        <ele>1354</ele>
        <time>2026-08-14T06:36:07.540Z</time>
      </trkpt>
      <trkpt lat="45.82158" lon="6.73677">
        <ele>1354</ele>
        <time>2026-08-14T06:36:08.540Z</time>
      </trkpt>
      <trkpt lat="45.82157" lon="6.73674">
        <ele>1354</ele>
        <time>2026-08-14T06:36:09.540Z</time>
      </trkpt>
      <trkpt lat="45.82155" lon="6.73672">
        <ele>1354</ele>
        <time>2026-08-14T06:36:10.540Z</time>
      </trkpt>
      <trkpt lat="45.82154" lon="6.73669">
        <ele>1354</ele>
        <time>2026-08-14T06:36:11.540Z</time>
      </trkpt>
      <trkpt lat="45.82153" lon="6.73668">
        <ele>1354</ele>
        <time>2026-08-14T06:36:12.540Z</time>
      </trkpt>
      <trkpt lat="45.82152" lon="6.73667">
        <ele>1354</ele>
        <time>2026-08-14T06:36:13.540Z</time>
      </trkpt>
      <trkpt lat="45.82151" lon="6.73667">
        <ele>1354</ele>
        <time>2026-08-14T06:36:14.540Z</time>
      </trkpt>
      <trkpt lat="45.82149" lon="6.73666">
        <ele>1354</ele>
        <time>2026-08-14T06:36:15.540Z</time>
      </trkpt>
      <trkpt lat="45.82148" lon="6.73665">
        <ele>1354</ele>
        <time>2026-08-14T06:36:16.540Z</time>
      </trkpt>
      <trkpt lat="45.82146" lon="6.73663">
        <ele>1354</ele>
        <time>2026-08-14T06:36:17.540Z</time>
      </trkpt>
      <trkpt lat="45.82145" lon="6.73661">
        <ele>1354</ele>
        <time>2026-08-14T06:36:18.540Z</time>
      </trkpt>
      <trkpt lat="45.82144" lon="6.7366">
        <ele>1353</ele>
        <time>2026-08-14T06:36:19.540Z</time>
      </trkpt>
      <trkpt lat="45.82143" lon="6.73658">
        <ele>1353</ele>
        <time>2026-08-14T06:36:20.540Z</time>
      </trkpt>
      <trkpt lat="45.82142" lon="6.73657">
        <ele>1353</ele>
        <time>2026-08-14T06:36:21.540Z</time>
      </trkpt>
      <trkpt lat="45.82141" lon="6.73656">
        <ele>1353</ele>
        <time>2026-08-14T06:36:22.540Z</time>
      </trkpt>
      <trkpt lat="45.82141" lon="6.73657">
        <ele>1353</ele>
        <time>2026-08-14T06:36:23.540Z</time>
      </trkpt>
      <trkpt lat="45.82141" lon="6.73657">
        <ele>1352</ele>
        <time>2026-08-14T06:36:24.540Z</time>
      </trkpt>
      <trkpt lat="45.82141" lon="6.73657">
        <ele>1352</ele>
        <time>2026-08-14T06:36:25.540Z</time>
      </trkpt>
      <trkpt lat="45.82143" lon="6.73657">
        <ele>1352</ele>
        <time>2026-08-14T06:36:26.540Z</time>
      </trkpt>
      <trkpt lat="45.82145" lon="6.73658">
        <ele>1352</ele>
        <time>2026-08-14T06:36:27.540Z</time>
      </trkpt>
      <trkpt lat="45.82147" lon="6.73659">
        <ele>1352</ele>
        <time>2026-08-14T06:36:28.540Z</time>
      </trkpt>
      <trkpt lat="45.82149" lon="6.73659">
        <ele>1352</ele>
        <time>2026-08-14T06:36:29.540Z</time>
      </trkpt>
      <trkpt lat="45.82151" lon="6.73661">
        <ele>1352</ele>
        <time>2026-08-14T06:36:30.540Z</time>
      </trkpt>
      <trkpt lat="45.82153" lon="6.73662">
        <ele>1352</ele>
        <time>2026-08-14T06:36:31.540Z</time>
      </trkpt>
      <trkpt lat="45.82156" lon="6.73662">
        <ele>1353</ele>
        <time>2026-08-14T06:36:32.540Z</time>
      </trkpt>
      <trkpt lat="45.82158" lon="6.73664">
        <ele>1353</ele>
        <time>2026-08-14T06:36:33.540Z</time>
      </trkpt>
      <trkpt lat="45.82159" lon="6.73666">
        <ele>1353</ele>
        <time>2026-08-14T06:36:34.540Z</time>
      </trkpt>
      <trkpt lat="45.8216" lon="6.73667">
        <ele>1353</ele>
        <time>2026-08-14T06:36:35.540Z</time>
      </trkpt>
      <trkpt lat="45.8216" lon="6.73669">
        <ele>1353</ele>
        <time>2026-08-14T06:36:36.540Z</time>
      </trkpt>
      <trkpt lat="45.82161" lon="6.73669">
        <ele>1354</ele>
        <time>2026-08-14T06:36:37.540Z</time>
      </trkpt>
      <trkpt lat="45.82161" lon="6.7367">
        <ele>1354</ele>
        <time>2026-08-14T06:36:38.540Z</time>
      </trkpt>
      <trkpt lat="45.82161" lon="6.73671">
        <ele>1354</ele>
        <time>2026-08-14T06:36:39.540Z</time>
      </trkpt>
      <trkpt lat="45.82162" lon="6.73671">
        <ele>1354</ele>
        <time>2026-08-14T06:36:40.540Z</time>
      </trkpt>
      <trkpt lat="45.82163" lon="6.73673">
        <ele>1354</ele>
        <time>2026-08-14T06:36:41.540Z</time>
      </trkpt>
      <trkpt lat="45.82163" lon="6.73673">
        <ele>1354</ele>
        <time>2026-08-14T06:36:42.540Z</time>
      </trkpt>
      <trkpt lat="45.82163" lon="6.73674">
        <ele>1354</ele>
        <time>2026-08-14T06:36:43.540Z</time>
      </trkpt>
      <trkpt lat="45.82162" lon="6.73673">
        <ele>1354</ele>
        <time>2026-08-14T06:36:44.540Z</time>
      </trkpt>
      <trkpt lat="45.82162" lon="6.73673">
        <ele>1354</ele>
        <time>2026-08-14T06:36:45.540Z</time>
      </trkpt>
      <trkpt lat="45.82162" lon="6.73673">
        <ele>1354</ele>
        <time>2026-08-14T06:36:46.540Z</time>
      </trkpt>
      <trkpt lat="45.82162" lon="6.73674">
        <ele>1354</ele>
        <time>2026-08-14T06:36:47.540Z</time>
      </trkpt>
      <trkpt lat="45.82162" lon="6.73675">
        <ele>1354</ele>
        <time>2026-08-14T06:36:48.540Z</time>
      </trkpt>
      <trkpt lat="45.82162" lon="6.73675">
        <ele>1354</ele>
        <time>2026-08-14T06:36:49.540Z</time>
      </trkpt>
      <trkpt lat="45.82162" lon="6.73676">
        <ele>1354</ele>
        <time>2026-08-14T06:36:50.540Z</time>
      </trkpt>
      <trkpt lat="45.82162" lon="6.73676">
        <ele>1354</ele>
        <time>2026-08-14T06:36:51.540Z</time>
      </trkpt>
      <trkpt lat="45.82162" lon="6.73676">
        <ele>1354</ele>
        <time>2026-08-14T06:36:52.540Z</time>
      </trkpt>
      <trkpt lat="45.82162" lon="6.73676">
        <ele>1354</ele>
        <time>2026-08-14T06:36:53.540Z</time>
      </trkpt>
      <trkpt lat="45.82162" lon="6.73676">
        <ele>1354</ele>
        <time>2026-08-14T06:36:54.540Z</time>
      </trkpt>
      <trkpt lat="45.82162" lon="6.73676">
        <ele>1354</ele>
        <time>2026-08-14T06:36:55.540Z</time>
      </trkpt>
      <trkpt lat="45.82162" lon="6.73676">
        <ele>1354</ele>
        <time>2026-08-14T06:36:56.540Z</time>
      </trkpt>
      <trkpt lat="45.82162" lon="6.73676">
        <ele>1353</ele>
        <time>2026-08-14T06:36:57.540Z</time>
      </trkpt>
      <trkpt lat="45.82162" lon="6.73676">
        <ele>1353</ele>
        <time>2026-08-14T06:36:58.540Z</time>
      </trkpt>
      <trkpt lat="45.82162" lon="6.73676">
        <ele>1353</ele>
        <time>2026-08-14T06:36:59.540Z</time>
      </trkpt>
      <trkpt lat="45.82162" lon="6.73676">
        <ele>1353</ele>
        <time>2026-08-14T06:37:00.540Z</time>
      </trkpt>
      <trkpt lat="45.82162" lon="6.73676">
        <ele>1353</ele>
        <time>2026-08-14T06:37:01.540Z</time>
      </trkpt>
      <trkpt lat="45.82162" lon="6.73676">
        <ele>1353</ele>
        <time>2026-08-14T06:37:02.540Z</time>
      </trkpt>
      <trkpt lat="45.82162" lon="6.73676">
        <ele>1353</ele>
        <time>2026-08-14T06:37:03.540Z</time>
      </trkpt>
      <trkpt lat="45.82162" lon="6.73677">
        <ele>1353</ele>
        <time>2026-08-14T06:37:04.540Z</time>
      </trkpt>
      <trkpt lat="45.8216" lon="6.73678">
        <ele>1353</ele>
        <time>2026-08-14T06:37:05.540Z</time>
      </trkpt>
      <trkpt lat="45.82159" lon="6.73679">
        <ele>1353</ele>
        <time>2026-08-14T06:37:06.540Z</time>
      </trkpt>
      <trkpt lat="45.82158" lon="6.7368">
        <ele>1353</ele>
        <time>2026-08-14T06:37:07.540Z</time>
      </trkpt>
      <trkpt lat="45.82157" lon="6.73681">
        <ele>1353</ele>
        <time>2026-08-14T06:37:08.540Z</time>
      </trkpt>
      <trkpt lat="45.82156" lon="6.73681">
        <ele>1353</ele>
        <time>2026-08-14T06:37:09.540Z</time>
      </trkpt>
      <trkpt lat="45.82154" lon="6.73682">
        <ele>1353</ele>
        <time>2026-08-14T06:37:10.540Z</time>
      </trkpt>
      <trkpt lat="45.82153" lon="6.73683">
        <ele>1353</ele>
        <time>2026-08-14T06:37:11.540Z</time>
      </trkpt>
      <trkpt lat="45.82151" lon="6.73684">
        <ele>1354</ele>
        <time>2026-08-14T06:37:12.540Z</time>
      </trkpt>
      <trkpt lat="45.8215" lon="6.73684">
        <ele>1354</ele>
        <time>2026-08-14T06:37:13.540Z</time>
      </trkpt>
      <trkpt lat="45.82148" lon="6.73684">
        <ele>1355</ele>
        <time>2026-08-14T06:37:14.540Z</time>
      </trkpt>
      <trkpt lat="45.82147" lon="6.73684">
        <ele>1355</ele>
        <time>2026-08-14T06:37:15.540Z</time>
      </trkpt>
      <trkpt lat="45.82146" lon="6.73685">
        <ele>1356</ele>
        <time>2026-08-14T06:37:16.540Z</time>
      </trkpt>
      <trkpt lat="45.82145" lon="6.73685">
        <ele>1356</ele>
        <time>2026-08-14T06:37:17.540Z</time>
      </trkpt>
      <trkpt lat="45.82144" lon="6.73685">
        <ele>1357</ele>
        <time>2026-08-14T06:37:18.540Z</time>
      </trkpt>
      <trkpt lat="45.82143" lon="6.73686">
        <ele>1358</ele>
        <time>2026-08-14T06:37:19.540Z</time>
      </trkpt>
      <trkpt lat="45.82142" lon="6.73686">
        <ele>1358</ele>
        <time>2026-08-14T06:37:20.540Z</time>
      </trkpt>
      <trkpt lat="45.8214" lon="6.73686">
        <ele>1358</ele>
        <time>2026-08-14T06:37:21.540Z</time>
      </trkpt>
      <trkpt lat="45.8214" lon="6.73686">
        <ele>1359</ele>
        <time>2026-08-14T06:37:22.540Z</time>
      </trkpt>
      <trkpt lat="45.82139" lon="6.73686">
        <ele>1359</ele>
        <time>2026-08-14T06:37:23.540Z</time>
      </trkpt>
      <trkpt lat="45.82138" lon="6.73686">
        <ele>1359</ele>
        <time>2026-08-14T06:37:24.540Z</time>
      </trkpt>
      <trkpt lat="45.82137" lon="6.73687">
        <ele>1360</ele>
        <time>2026-08-14T06:37:25.540Z</time>
      </trkpt>
      <trkpt lat="45.82136" lon="6.73686">
        <ele>1360</ele>
        <time>2026-08-14T06:37:26.540Z</time>
      </trkpt>
      <trkpt lat="45.82135" lon="6.73686">
        <ele>1360</ele>
        <time>2026-08-14T06:37:27.540Z</time>
      </trkpt>
      <trkpt lat="45.82134" lon="6.73686">
        <ele>1361</ele>
        <time>2026-08-14T06:37:28.540Z</time>
      </trkpt>
      <trkpt lat="45.82133" lon="6.73685">
        <ele>1361</ele>
        <time>2026-08-14T06:37:29.540Z</time>
      </trkpt>
      <trkpt lat="45.82133" lon="6.73685">
        <ele>1362</ele>
        <time>2026-08-14T06:37:30.540Z</time>
      </trkpt>
      <trkpt lat="45.82132" lon="6.73685">
        <ele>1362</ele>
        <time>2026-08-14T06:37:31.540Z</time>
      </trkpt>
      <trkpt lat="45.82132" lon="6.73685">
        <ele>1363</ele>
        <time>2026-08-14T06:37:32.540Z</time>
      </trkpt>
      <trkpt lat="45.82131" lon="6.73685">
        <ele>1363</ele>
        <time>2026-08-14T06:37:33.540Z</time>
      </trkpt>
      <trkpt lat="45.8213" lon="6.73685">
        <ele>1364</ele>
        <time>2026-08-14T06:37:34.540Z</time>
      </trkpt>
      <trkpt lat="45.8213" lon="6.73685">
        <ele>1364</ele>
        <time>2026-08-14T06:37:35.540Z</time>
      </trkpt>
      <trkpt lat="45.82128" lon="6.73685">
        <ele>1364</ele>
        <time>2026-08-14T06:37:36.540Z</time>
      </trkpt>
      <trkpt lat="45.82127" lon="6.73685">
        <ele>1365</ele>
        <time>2026-08-14T06:37:37.540Z</time>
      </trkpt>
      <trkpt lat="45.82126" lon="6.73685">
        <ele>1365</ele>
        <time>2026-08-14T06:37:38.540Z</time>
      </trkpt>
      <trkpt lat="45.82125" lon="6.73685">
        <ele>1365</ele>
        <time>2026-08-14T06:37:39.540Z</time>
      </trkpt>
      <trkpt lat="45.82124" lon="6.73686">
        <ele>1366</ele>
        <time>2026-08-14T06:37:40.540Z</time>
      </trkpt>
      <trkpt lat="45.82123" lon="6.73687">
        <ele>1366</ele>
        <time>2026-08-14T06:37:41.540Z</time>
      </trkpt>
      <trkpt lat="45.82122" lon="6.73688">
        <ele>1366</ele>
        <time>2026-08-14T06:37:42.540Z</time>
      </trkpt>
      <trkpt lat="45.82121" lon="6.73688">
        <ele>1366</ele>
        <time>2026-08-14T06:37:43.540Z</time>
      </trkpt>
      <trkpt lat="45.8212" lon="6.73688">
        <ele>1366</ele>
        <time>2026-08-14T06:37:44.540Z</time>
      </trkpt>
      <trkpt lat="45.82119" lon="6.73687">
        <ele>1367</ele>
        <time>2026-08-14T06:37:45.540Z</time>
      </trkpt>
      <trkpt lat="45.82118" lon="6.73687">
        <ele>1367</ele>
        <time>2026-08-14T06:37:46.540Z</time>
      </trkpt>
      <trkpt lat="45.82117" lon="6.73687">
        <ele>1368</ele>
        <time>2026-08-14T06:37:47.540Z</time>
      </trkpt>
      <trkpt lat="45.82116" lon="6.73687">
        <ele>1368</ele>
        <time>2026-08-14T06:37:48.540Z</time>
      </trkpt>
      <trkpt lat="45.82115" lon="6.73687">
        <ele>1368</ele>
        <time>2026-08-14T06:37:49.540Z</time>
      </trkpt>
      <trkpt lat="45.82114" lon="6.73688">
        <ele>1369</ele>
        <time>2026-08-14T06:37:50.540Z</time>
      </trkpt>
      <trkpt lat="45.82113" lon="6.73688">
        <ele>1369</ele>
        <time>2026-08-14T06:37:51.540Z</time>
      </trkpt>
      <trkpt lat="45.82112" lon="6.73689">
        <ele>1370</ele>
        <time>2026-08-14T06:37:52.540Z</time>
      </trkpt>
      <trkpt lat="45.82111" lon="6.7369">
        <ele>1371</ele>
        <time>2026-08-14T06:37:53.540Z</time>
      </trkpt>
      <trkpt lat="45.8211" lon="6.7369">
        <ele>1372</ele>
        <time>2026-08-14T06:37:54.540Z</time>
      </trkpt>
      <trkpt lat="45.82109" lon="6.73692">
        <ele>1373</ele>
        <time>2026-08-14T06:37:55.540Z</time>
      </trkpt>
      <trkpt lat="45.82109" lon="6.73692">
        <ele>1374</ele>
        <time>2026-08-14T06:37:56.540Z</time>
      </trkpt>
      <trkpt lat="45.82108" lon="6.73692">
        <ele>1375</ele>
        <time>2026-08-14T06:37:57.540Z</time>
      </trkpt>
      <trkpt lat="45.82107" lon="6.73691">
        <ele>1375</ele>
        <time>2026-08-14T06:37:58.540Z</time>
      </trkpt>
      <trkpt lat="45.82107" lon="6.73691">
        <ele>1376</ele>
        <time>2026-08-14T06:37:59.540Z</time>
      </trkpt>
      <trkpt lat="45.82106" lon="6.73691">
        <ele>1376</ele>
        <time>2026-08-14T06:38:00.540Z</time>
      </trkpt>
      <trkpt lat="45.82105" lon="6.7369">
        <ele>1377</ele>
        <time>2026-08-14T06:38:01.540Z</time>
      </trkpt>
      <trkpt lat="45.82104" lon="6.7369">
        <ele>1377</ele>
        <time>2026-08-14T06:38:02.540Z</time>
      </trkpt>
      <trkpt lat="45.82104" lon="6.73691">
        <ele>1377</ele>
        <time>2026-08-14T06:38:03.540Z</time>
      </trkpt>
      <trkpt lat="45.82104" lon="6.73692">
        <ele>1377</ele>
        <time>2026-08-14T06:38:04.540Z</time>
      </trkpt>
      <trkpt lat="45.82104" lon="6.73691">
        <ele>1377</ele>
        <time>2026-08-14T06:38:05.540Z</time>
      </trkpt>
      <trkpt lat="45.82104" lon="6.73691">
        <ele>1377</ele>
        <time>2026-08-14T06:38:06.540Z</time>
      </trkpt>
      <trkpt lat="45.82104" lon="6.73692">
        <ele>1376</ele>
        <time>2026-08-14T06:38:07.540Z</time>
      </trkpt>
      <trkpt lat="45.82104" lon="6.73693">
        <ele>1376</ele>
        <time>2026-08-14T06:38:08.540Z</time>
      </trkpt>
      <trkpt lat="45.82104" lon="6.73693">
        <ele>1376</ele>
        <time>2026-08-14T06:38:09.540Z</time>
      </trkpt>
      <trkpt lat="45.82104" lon="6.73693">
        <ele>1375</ele>
        <time>2026-08-14T06:38:10.540Z</time>
      </trkpt>
      <trkpt lat="45.82104" lon="6.73693">
        <ele>1375</ele>
        <time>2026-08-14T06:38:11.540Z</time>
      </trkpt>
      <trkpt lat="45.82104" lon="6.73693">
        <ele>1375</ele>
        <time>2026-08-14T06:38:12.540Z</time>
      </trkpt>
      <trkpt lat="45.82104" lon="6.73693">
        <ele>1376</ele>
        <time>2026-08-14T06:38:13.540Z</time>
      </trkpt>
      <trkpt lat="45.82104" lon="6.73693">
        <ele>1376</ele>
        <time>2026-08-14T06:38:14.540Z</time>
      </trkpt>
      <trkpt lat="45.82104" lon="6.73694">
        <ele>1376</ele>
        <time>2026-08-14T06:38:15.540Z</time>
      </trkpt>
      <trkpt lat="45.82104" lon="6.73694">
        <ele>1376</ele>
        <time>2026-08-14T06:38:16.540Z</time>
      </trkpt>
      <trkpt lat="45.82104" lon="6.73693">
        <ele>1376</ele>
        <time>2026-08-14T06:38:17.540Z</time>
      </trkpt>
      <trkpt lat="45.82104" lon="6.73693">
        <ele>1375</ele>
        <time>2026-08-14T06:38:18.540Z</time>
      </trkpt>
      <trkpt lat="45.82104" lon="6.73693">
        <ele>1375</ele>
        <time>2026-08-14T06:38:19.540Z</time>
      </trkpt>
      <trkpt lat="45.82103" lon="6.73693">
        <ele>1375</ele>
        <time>2026-08-14T06:38:20.540Z</time>
      </trkpt>
      <trkpt lat="45.82103" lon="6.73693">
        <ele>1375</ele>
        <time>2026-08-14T06:38:21.540Z</time>
      </trkpt>
      <trkpt lat="45.82103" lon="6.73693">
        <ele>1375</ele>
        <time>2026-08-14T06:38:22.540Z</time>
      </trkpt>
      <trkpt lat="45.82103" lon="6.73693">
        <ele>1374</ele>
        <time>2026-08-14T06:38:23.540Z</time>
      </trkpt>
      <trkpt lat="45.82104" lon="6.73693">
        <ele>1374</ele>
        <time>2026-08-14T06:38:24.540Z</time>
      </trkpt>
      <trkpt lat="45.82104" lon="6.73693">
        <ele>1373</ele>
        <time>2026-08-14T06:38:25.540Z</time>
      </trkpt>
      <trkpt lat="45.82104" lon="6.73693">
        <ele>1373</ele>
        <time>2026-08-14T06:38:26.540Z</time>
      </trkpt>
      <trkpt lat="45.82104" lon="6.73694">
        <ele>1373</ele>
        <time>2026-08-14T06:38:27.540Z</time>
      </trkpt>
      <trkpt lat="45.82104" lon="6.73695">
        <ele>1374</ele>
        <time>2026-08-14T06:38:28.540Z</time>
      </trkpt>
      <trkpt lat="45.82104" lon="6.73695">
        <ele>1374</ele>
        <time>2026-08-14T06:38:29.540Z</time>
      </trkpt>
      <trkpt lat="45.82104" lon="6.73695">
        <ele>1374</ele>
        <time>2026-08-14T06:38:30.540Z</time>
      </trkpt>
      <trkpt lat="45.82104" lon="6.73695">
        <ele>1374</ele>
        <time>2026-08-14T06:38:31.540Z</time>
      </trkpt>
      <trkpt lat="45.82104" lon="6.73696">
        <ele>1374</ele>
        <time>2026-08-14T06:38:32.540Z</time>
      </trkpt>
      <trkpt lat="45.82104" lon="6.73696">
        <ele>1374</ele>
        <time>2026-08-14T06:38:33.540Z</time>
      </trkpt>
      <trkpt lat="45.82104" lon="6.73696">
        <ele>1375</ele>
        <time>2026-08-14T06:38:34.540Z</time>
      </trkpt>
      <trkpt lat="45.82104" lon="6.73696">
        <ele>1375</ele>
        <time>2026-08-14T06:38:35.540Z</time>
      </trkpt>
      <trkpt lat="45.82103" lon="6.73696">
        <ele>1376</ele>
        <time>2026-08-14T06:38:36.540Z</time>
      </trkpt>
      <trkpt lat="45.82103" lon="6.73696">
        <ele>1377</ele>
        <time>2026-08-14T06:38:37.540Z</time>
      </trkpt>
      <trkpt lat="45.82103" lon="6.73696">
        <ele>1377</ele>
        <time>2026-08-14T06:38:38.540Z</time>
      </trkpt>
      <trkpt lat="45.82103" lon="6.73696">
        <ele>1377</ele>
        <time>2026-08-14T06:38:39.540Z</time>
      </trkpt>
      <trkpt lat="45.82103" lon="6.73696">
        <ele>1377</ele>
        <time>2026-08-14T06:38:40.540Z</time>
      </trkpt>
      <trkpt lat="45.82103" lon="6.73696">
        <ele>1377</ele>
        <time>2026-08-14T06:38:41.540Z</time>
      </trkpt>
      <trkpt lat="45.82103" lon="6.73696">
        <ele>1376</ele>
        <time>2026-08-14T06:38:42.540Z</time>
      </trkpt>
      <trkpt lat="45.82103" lon="6.73696">
        <ele>1376</ele>
        <time>2026-08-14T06:38:43.540Z</time>
      </trkpt>
      <trkpt lat="45.82103" lon="6.73696">
        <ele>1376</ele>
        <time>2026-08-14T06:38:44.540Z</time>
      </trkpt>
      <trkpt lat="45.82103" lon="6.73696">
        <ele>1376</ele>
        <time>2026-08-14T06:38:45.540Z</time>
      </trkpt>
      <trkpt lat="45.82103" lon="6.73696">
        <ele>1375</ele>
        <time>2026-08-14T06:38:46.540Z</time>
      </trkpt>
      <trkpt lat="45.82103" lon="6.73696">
        <ele>1375</ele>
        <time>2026-08-14T06:38:47.540Z</time>
      </trkpt>
      <trkpt lat="45.82103" lon="6.73696">
        <ele>1375</ele>
        <time>2026-08-14T06:38:48.540Z</time>
      </trkpt>
      <trkpt lat="45.82103" lon="6.73696">
        <ele>1375</ele>
        <time>2026-08-14T06:38:49.540Z</time>
      </trkpt>
      <trkpt lat="45.82103" lon="6.73696">
        <ele>1375</ele>
        <time>2026-08-14T06:38:50.540Z</time>
      </trkpt>
      <trkpt lat="45.82103" lon="6.73696">
        <ele>1375</ele>
        <time>2026-08-14T06:38:51.540Z</time>
      </trkpt>
      <trkpt lat="45.82103" lon="6.73696">
        <ele>1375</ele>
        <time>2026-08-14T06:38:52.540Z</time>
      </trkpt>
      <trkpt lat="45.82103" lon="6.73696">
        <ele>1375</ele>
        <time>2026-08-14T06:38:53.540Z</time>
      </trkpt>
      <trkpt lat="45.82103" lon="6.73696">
        <ele>1375</ele>
        <time>2026-08-14T06:38:54.540Z</time>
      </trkpt>
      <trkpt lat="45.82103" lon="6.73696">
        <ele>1375</ele>
        <time>2026-08-14T06:38:55.540Z</time>
      </trkpt>
      <trkpt lat="45.82103" lon="6.73696">
        <ele>1375</ele>
        <time>2026-08-14T06:38:56.540Z</time>
      </trkpt>
      <trkpt lat="45.82103" lon="6.73695">
        <ele>1375</ele>
        <time>2026-08-14T06:38:57.540Z</time>
      </trkpt>
      <trkpt lat="45.82103" lon="6.73695">
        <ele>1375</ele>
        <time>2026-08-14T06:38:58.540Z</time>
      </trkpt>
      <trkpt lat="45.82103" lon="6.73695">
        <ele>1375</ele>
        <time>2026-08-14T06:38:59.540Z</time>
      </trkpt>
      <trkpt lat="45.82103" lon="6.73695">
        <ele>1374</ele>
        <time>2026-08-14T06:39:00.540Z</time>
      </trkpt>
      <trkpt lat="45.82103" lon="6.73695">
        <ele>1374</ele>
        <time>2026-08-14T06:39:01.540Z</time>
      </trkpt>
      <trkpt lat="45.82103" lon="6.73695">
        <ele>1374</ele>
        <time>2026-08-14T06:39:02.540Z</time>
      </trkpt>
      <trkpt lat="45.82103" lon="6.73695">
        <ele>1374</ele>
        <time>2026-08-14T06:39:03.540Z</time>
      </trkpt>
      <trkpt lat="45.82103" lon="6.73695">
        <ele>1374</ele>
        <time>2026-08-14T06:39:04.540Z</time>
      </trkpt>
      <trkpt lat="45.82103" lon="6.73695">
        <ele>1374</ele>
        <time>2026-08-14T06:39:05.540Z</time>
      </trkpt>
      <trkpt lat="45.82103" lon="6.73695">
        <ele>1374</ele>
        <time>2026-08-14T06:39:06.540Z</time>
      </trkpt>
      <trkpt lat="45.82103" lon="6.73695">
        <ele>1374</ele>
        <time>2026-08-14T06:39:07.540Z</time>
      </trkpt>
      <trkpt lat="45.82103" lon="6.73695">
        <ele>1374</ele>
        <time>2026-08-14T06:39:08.540Z</time>
      </trkpt>
      <trkpt lat="45.82103" lon="6.73695">
        <ele>1374</ele>
        <time>2026-08-14T06:39:09.540Z</time>
      </trkpt>
      <trkpt lat="45.82103" lon="6.73695">
        <ele>1374</ele>
        <time>2026-08-14T06:39:10.540Z</time>
      </trkpt>
      <trkpt lat="45.82103" lon="6.73695">
        <ele>1374</ele>
        <time>2026-08-14T06:39:11.540Z</time>
      </trkpt>
      <trkpt lat="45.82103" lon="6.73695">
        <ele>1374</ele>
        <time>2026-08-14T06:39:12.540Z</time>
      </trkpt>
      <trkpt lat="45.82103" lon="6.73695">
        <ele>1374</ele>
        <time>2026-08-14T06:39:13.540Z</time>
      </trkpt>
      <trkpt lat="45.82102" lon="6.73696">
        <ele>1374</ele>
        <time>2026-08-14T06:39:14.540Z</time>
      </trkpt>
      <trkpt lat="45.82102" lon="6.73696">
        <ele>1374</ele>
        <time>2026-08-14T06:39:15.540Z</time>
      </trkpt>
      <trkpt lat="45.82102" lon="6.73696">
        <ele>1374</ele>
        <time>2026-08-14T06:39:16.540Z</time>
      </trkpt>
      <trkpt lat="45.82102" lon="6.73696">
        <ele>1374</ele>
        <time>2026-08-14T06:39:17.540Z</time>
      </trkpt>
      <trkpt lat="45.82102" lon="6.73696">
        <ele>1374</ele>
        <time>2026-08-14T06:39:18.540Z</time>
      </trkpt>
      <trkpt lat="45.82102" lon="6.73696">
        <ele>1374</ele>
        <time>2026-08-14T06:39:19.540Z</time>
      </trkpt>
      <trkpt lat="45.82102" lon="6.73696">
        <ele>1374</ele>
        <time>2026-08-14T06:39:20.540Z</time>
      </trkpt>
      <trkpt lat="45.821" lon="6.73697">
        <ele>1374</ele>
        <time>2026-08-14T06:39:21.540Z</time>
      </trkpt>
      <trkpt lat="45.82098" lon="6.73697">
        <ele>1374</ele>
        <time>2026-08-14T06:39:22.540Z</time>
      </trkpt>
      <trkpt lat="45.82097" lon="6.73697">
        <ele>1374</ele>
        <time>2026-08-14T06:39:23.540Z</time>
      </trkpt>
      <trkpt lat="45.82095" lon="6.73697">
        <ele>1375</ele>
        <time>2026-08-14T06:39:24.540Z</time>
      </trkpt>
      <trkpt lat="45.82094" lon="6.73697">
        <ele>1375</ele>
        <time>2026-08-14T06:39:25.540Z</time>
      </trkpt>
      <trkpt lat="45.82092" lon="6.73697">
        <ele>1375</ele>
        <time>2026-08-14T06:39:26.540Z</time>
      </trkpt>
      <trkpt lat="45.82091" lon="6.73698">
        <ele>1375</ele>
        <time>2026-08-14T06:39:27.540Z</time>
      </trkpt>
      <trkpt lat="45.8209" lon="6.73699">
        <ele>1376</ele>
        <time>2026-08-14T06:39:28.540Z</time>
      </trkpt>
      <trkpt lat="45.82088" lon="6.737">
        <ele>1376</ele>
        <time>2026-08-14T06:39:29.540Z</time>
      </trkpt>
      <trkpt lat="45.82088" lon="6.73701">
        <ele>1376</ele>
        <time>2026-08-14T06:39:30.540Z</time>
      </trkpt>
      <trkpt lat="45.82087" lon="6.73702">
        <ele>1376</ele>
        <time>2026-08-14T06:39:31.540Z</time>
      </trkpt>
      <trkpt lat="45.82087" lon="6.73703">
        <ele>1377</ele>
        <time>2026-08-14T06:39:32.540Z</time>
      </trkpt>
      <trkpt lat="45.82086" lon="6.73704">
        <ele>1377</ele>
        <time>2026-08-14T06:39:33.540Z</time>
      </trkpt>
      <trkpt lat="45.82086" lon="6.73704">
        <ele>1378</ele>
        <time>2026-08-14T06:39:34.540Z</time>
      </trkpt>
      <trkpt lat="45.82086" lon="6.73705">
        <ele>1378</ele>
        <time>2026-08-14T06:39:35.540Z</time>
      </trkpt>
      <trkpt lat="45.82085" lon="6.73705">
        <ele>1379</ele>
        <time>2026-08-14T06:39:36.540Z</time>
      </trkpt>
      <trkpt lat="45.82085" lon="6.73705">
        <ele>1379</ele>
        <time>2026-08-14T06:39:37.540Z</time>
      </trkpt>
      <trkpt lat="45.82084" lon="6.73705">
        <ele>1380</ele>
        <time>2026-08-14T06:39:38.540Z</time>
      </trkpt>
      <trkpt lat="45.82083" lon="6.73706">
        <ele>1381</ele>
        <time>2026-08-14T06:39:39.540Z</time>
      </trkpt>
      <trkpt lat="45.82083" lon="6.73706">
        <ele>1381</ele>
        <time>2026-08-14T06:39:40.540Z</time>
      </trkpt>
      <trkpt lat="45.82082" lon="6.73707">
        <ele>1382</ele>
        <time>2026-08-14T06:39:41.540Z</time>
      </trkpt>
      <trkpt lat="45.82081" lon="6.73707">
        <ele>1382</ele>
        <time>2026-08-14T06:39:42.540Z</time>
      </trkpt>
      <trkpt lat="45.8208" lon="6.73708">
        <ele>1383</ele>
        <time>2026-08-14T06:39:43.540Z</time>
      </trkpt>
      <trkpt lat="45.82079" lon="6.73708">
        <ele>1384</ele>
        <time>2026-08-14T06:39:44.540Z</time>
      </trkpt>
      <trkpt lat="45.82078" lon="6.73708">
        <ele>1384</ele>
        <time>2026-08-14T06:39:45.540Z</time>
      </trkpt>
      <trkpt lat="45.82077" lon="6.73708">
        <ele>1385</ele>
        <time>2026-08-14T06:39:46.540Z</time>
      </trkpt>
      <trkpt lat="45.82076" lon="6.73708">
        <ele>1385</ele>
        <time>2026-08-14T06:39:47.540Z</time>
      </trkpt>
      <trkpt lat="45.82075" lon="6.73709">
        <ele>1385</ele>
        <time>2026-08-14T06:39:48.540Z</time>
      </trkpt>
      <trkpt lat="45.82075" lon="6.73709">
        <ele>1386</ele>
        <time>2026-08-14T06:39:49.540Z</time>
      </trkpt>
      <trkpt lat="45.82075" lon="6.7371">
        <ele>1386</ele>
        <time>2026-08-14T06:39:50.540Z</time>
      </trkpt>
      <trkpt lat="45.82074" lon="6.7371">
        <ele>1386</ele>
        <time>2026-08-14T06:39:51.540Z</time>
      </trkpt>
      <trkpt lat="45.82074" lon="6.73711">
        <ele>1386</ele>
        <time>2026-08-14T06:39:52.540Z</time>
      </trkpt>
      <trkpt lat="45.82074" lon="6.73711">
        <ele>1386</ele>
        <time>2026-08-14T06:39:53.540Z</time>
      </trkpt>
      <trkpt lat="45.82073" lon="6.73711">
        <ele>1387</ele>
        <time>2026-08-14T06:39:54.540Z</time>
      </trkpt>
      <trkpt lat="45.82073" lon="6.73711">
        <ele>1387</ele>
        <time>2026-08-14T06:39:55.540Z</time>
      </trkpt>
      <trkpt lat="45.82072" lon="6.73711">
        <ele>1387</ele>
        <time>2026-08-14T06:39:56.540Z</time>
      </trkpt>
      <trkpt lat="45.82071" lon="6.7371">
        <ele>1387</ele>
        <time>2026-08-14T06:39:57.540Z</time>
      </trkpt>
      <trkpt lat="45.8207" lon="6.73708">
        <ele>1387</ele>
        <time>2026-08-14T06:39:58.540Z</time>
      </trkpt>
      <trkpt lat="45.8207" lon="6.73708">
        <ele>1387</ele>
        <time>2026-08-14T06:39:59.540Z</time>
      </trkpt>
      <trkpt lat="45.8207" lon="6.73708">
        <ele>1387</ele>
        <time>2026-08-14T06:40:00.540Z</time>
      </trkpt>
      <trkpt lat="45.82069" lon="6.73708">
        <ele>1388</ele>
        <time>2026-08-14T06:40:01.540Z</time>
      </trkpt>
      <trkpt lat="45.82068" lon="6.73709">
        <ele>1388</ele>
        <time>2026-08-14T06:40:02.540Z</time>
      </trkpt>
      <trkpt lat="45.82068" lon="6.73709">
        <ele>1388</ele>
        <time>2026-08-14T06:40:03.540Z</time>
      </trkpt>
      <trkpt lat="45.82067" lon="6.73709">
        <ele>1388</ele>
        <time>2026-08-14T06:40:04.540Z</time>
      </trkpt>
      <trkpt lat="45.82067" lon="6.73709">
        <ele>1389</ele>
        <time>2026-08-14T06:40:05.540Z</time>
      </trkpt>
      <trkpt lat="45.82067" lon="6.73709">
        <ele>1389</ele>
        <time>2026-08-14T06:40:06.540Z</time>
      </trkpt>
      <trkpt lat="45.82066" lon="6.7371">
        <ele>1390</ele>
        <time>2026-08-14T06:40:07.540Z</time>
      </trkpt>
      <trkpt lat="45.82065" lon="6.7371">
        <ele>1390</ele>
        <time>2026-08-14T06:40:08.540Z</time>
      </trkpt>
      <trkpt lat="45.82064" lon="6.7371">
        <ele>1391</ele>
        <time>2026-08-14T06:40:09.540Z</time>
      </trkpt>
      <trkpt lat="45.82063" lon="6.7371">
        <ele>1391</ele>
        <time>2026-08-14T06:40:10.540Z</time>
      </trkpt>
      <trkpt lat="45.82062" lon="6.7371">
        <ele>1392</ele>
        <time>2026-08-14T06:40:11.540Z</time>
      </trkpt>
      <trkpt lat="45.82061" lon="6.7371">
        <ele>1393</ele>
        <time>2026-08-14T06:40:12.540Z</time>
      </trkpt>
      <trkpt lat="45.8206" lon="6.7371">
        <ele>1393</ele>
        <time>2026-08-14T06:40:13.540Z</time>
      </trkpt>
      <trkpt lat="45.8206" lon="6.7371">
        <ele>1394</ele>
        <time>2026-08-14T06:40:14.540Z</time>
      </trkpt>
      <trkpt lat="45.82059" lon="6.73711">
        <ele>1395</ele>
        <time>2026-08-14T06:40:15.540Z</time>
      </trkpt>
      <trkpt lat="45.82058" lon="6.73711">
        <ele>1396</ele>
        <time>2026-08-14T06:40:16.540Z</time>
      </trkpt>
      <trkpt lat="45.82057" lon="6.73712">
        <ele>1396</ele>
        <time>2026-08-14T06:40:17.540Z</time>
      </trkpt>
      <trkpt lat="45.82057" lon="6.73712">
        <ele>1397</ele>
        <time>2026-08-14T06:40:18.540Z</time>
      </trkpt>
      <trkpt lat="45.82056" lon="6.73713">
        <ele>1398</ele>
        <time>2026-08-14T06:40:19.540Z</time>
      </trkpt>
      <trkpt lat="45.82055" lon="6.73714">
        <ele>1399</ele>
        <time>2026-08-14T06:40:20.540Z</time>
      </trkpt>
      <trkpt lat="45.82054" lon="6.73714">
        <ele>1399</ele>
        <time>2026-08-14T06:40:21.540Z</time>
      </trkpt>
      <trkpt lat="45.82053" lon="6.73714">
        <ele>1400</ele>
        <time>2026-08-14T06:40:22.540Z</time>
      </trkpt>
      <trkpt lat="45.82052" lon="6.73714">
        <ele>1400</ele>
        <time>2026-08-14T06:40:23.540Z</time>
      </trkpt>
      <trkpt lat="45.82051" lon="6.73715">
        <ele>1400</ele>
        <time>2026-08-14T06:40:24.540Z</time>
      </trkpt>
      <trkpt lat="45.8205" lon="6.73715">
        <ele>1399</ele>
        <time>2026-08-14T06:40:25.540Z</time>
      </trkpt>
      <trkpt lat="45.82049" lon="6.73715">
        <ele>1399</ele>
        <time>2026-08-14T06:40:26.540Z</time>
      </trkpt>
      <trkpt lat="45.82049" lon="6.73716">
        <ele>1399</ele>
        <time>2026-08-14T06:40:27.540Z</time>
      </trkpt>
      <trkpt lat="45.82048" lon="6.73716">
        <ele>1399</ele>
        <time>2026-08-14T06:40:28.540Z</time>
      </trkpt>
      <trkpt lat="45.82048" lon="6.73717">
        <ele>1398</ele>
        <time>2026-08-14T06:40:29.540Z</time>
      </trkpt>
      <trkpt lat="45.82047" lon="6.73717">
        <ele>1398</ele>
        <time>2026-08-14T06:40:30.540Z</time>
      </trkpt>
      <trkpt lat="45.82046" lon="6.73717">
        <ele>1398</ele>
        <time>2026-08-14T06:40:31.540Z</time>
      </trkpt>
      <trkpt lat="45.82045" lon="6.73717">
        <ele>1398</ele>
        <time>2026-08-14T06:40:32.540Z</time>
      </trkpt>
      <trkpt lat="45.82044" lon="6.73718">
        <ele>1398</ele>
        <time>2026-08-14T06:40:33.540Z</time>
      </trkpt>
      <trkpt lat="45.82044" lon="6.73718">
        <ele>1398</ele>
        <time>2026-08-14T06:40:34.540Z</time>
      </trkpt>
      <trkpt lat="45.82044" lon="6.73718">
        <ele>1398</ele>
        <time>2026-08-14T06:40:35.540Z</time>
      </trkpt>
      <trkpt lat="45.82043" lon="6.73719">
        <ele>1398</ele>
        <time>2026-08-14T06:40:36.540Z</time>
      </trkpt>
      <trkpt lat="45.82042" lon="6.7372">
        <ele>1398</ele>
        <time>2026-08-14T06:40:37.540Z</time>
      </trkpt>
      <trkpt lat="45.82042" lon="6.7372">
        <ele>1398</ele>
        <time>2026-08-14T06:40:38.540Z</time>
      </trkpt>
      <trkpt lat="45.82042" lon="6.7372">
        <ele>1399</ele>
        <time>2026-08-14T06:40:39.540Z</time>
      </trkpt>
      <trkpt lat="45.82041" lon="6.7372">
        <ele>1399</ele>
        <time>2026-08-14T06:40:40.540Z</time>
      </trkpt>
      <trkpt lat="45.82041" lon="6.7372">
        <ele>1399</ele>
        <time>2026-08-14T06:40:41.540Z</time>
      </trkpt>
      <trkpt lat="45.8204" lon="6.7372">
        <ele>1400</ele>
        <time>2026-08-14T06:40:42.540Z</time>
      </trkpt>
      <trkpt lat="45.8204" lon="6.73721">
        <ele>1400</ele>
        <time>2026-08-14T06:40:43.540Z</time>
      </trkpt>
      <trkpt lat="45.82039" lon="6.73722">
        <ele>1400</ele>
        <time>2026-08-14T06:40:44.540Z</time>
      </trkpt>
      <trkpt lat="45.82039" lon="6.73723">
        <ele>1400</ele>
        <time>2026-08-14T06:40:45.540Z</time>
      </trkpt>
      <trkpt lat="45.82039" lon="6.73724">
        <ele>1400</ele>
        <time>2026-08-14T06:40:46.540Z</time>
      </trkpt>
      <trkpt lat="45.82038" lon="6.73725">
        <ele>1400</ele>
        <time>2026-08-14T06:40:47.540Z</time>
      </trkpt>
      <trkpt lat="45.82037" lon="6.73725">
        <ele>1400</ele>
        <time>2026-08-14T06:40:48.540Z</time>
      </trkpt>
      <trkpt lat="45.82036" lon="6.73727">
        <ele>1400</ele>
        <time>2026-08-14T06:40:49.540Z</time>
      </trkpt>
      <trkpt lat="45.82035" lon="6.73727">
        <ele>1401</ele>
        <time>2026-08-14T06:40:50.540Z</time>
      </trkpt>
      <trkpt lat="45.82034" lon="6.73727">
        <ele>1401</ele>
        <time>2026-08-14T06:40:51.540Z</time>
      </trkpt>
      <trkpt lat="45.82033" lon="6.73727">
        <ele>1401</ele>
        <time>2026-08-14T06:40:52.540Z</time>
      </trkpt>
      <trkpt lat="45.82032" lon="6.73728">
        <ele>1402</ele>
        <time>2026-08-14T06:40:53.540Z</time>
      </trkpt>
      <trkpt lat="45.82031" lon="6.73729">
        <ele>1402</ele>
        <time>2026-08-14T06:40:54.540Z</time>
      </trkpt>
      <trkpt lat="45.8203" lon="6.7373">
        <ele>1402</ele>
        <time>2026-08-14T06:40:55.540Z</time>
      </trkpt>
      <trkpt lat="45.82029" lon="6.73731">
        <ele>1403</ele>
        <time>2026-08-14T06:40:56.540Z</time>
      </trkpt>
      <trkpt lat="45.82028" lon="6.73732">
        <ele>1403</ele>
        <time>2026-08-14T06:40:57.540Z</time>
      </trkpt>
      <trkpt lat="45.82027" lon="6.73734">
        <ele>1404</ele>
        <time>2026-08-14T06:40:58.540Z</time>
      </trkpt>
      <trkpt lat="45.82026" lon="6.73735">
        <ele>1404</ele>
        <time>2026-08-14T06:40:59.540Z</time>
      </trkpt>
      <trkpt lat="45.82025" lon="6.73736">
        <ele>1405</ele>
        <time>2026-08-14T06:41:00.540Z</time>
      </trkpt>
      <trkpt lat="45.82024" lon="6.73737">
        <ele>1405</ele>
        <time>2026-08-14T06:41:01.540Z</time>
      </trkpt>
      <trkpt lat="45.82023" lon="6.73738">
        <ele>1405</ele>
        <time>2026-08-14T06:41:02.540Z</time>
      </trkpt>
      <trkpt lat="45.82023" lon="6.7374">
        <ele>1406</ele>
        <time>2026-08-14T06:41:03.540Z</time>
      </trkpt>
      <trkpt lat="45.82022" lon="6.73741">
        <ele>1406</ele>
        <time>2026-08-14T06:41:04.540Z</time>
      </trkpt>
      <trkpt lat="45.82021" lon="6.73742">
        <ele>1406</ele>
        <time>2026-08-14T06:41:05.540Z</time>
      </trkpt>
      <trkpt lat="45.8202" lon="6.73742">
        <ele>1407</ele>
        <time>2026-08-14T06:41:06.540Z</time>
      </trkpt>
      <trkpt lat="45.82019" lon="6.73743">
        <ele>1407</ele>
        <time>2026-08-14T06:41:07.540Z</time>
      </trkpt>
      <trkpt lat="45.82018" lon="6.73743">
        <ele>1407</ele>
        <time>2026-08-14T06:41:08.540Z</time>
      </trkpt>
      <trkpt lat="45.82017" lon="6.73744">
        <ele>1407</ele>
        <time>2026-08-14T06:41:09.540Z</time>
      </trkpt>
      <trkpt lat="45.82016" lon="6.73744">
        <ele>1408</ele>
        <time>2026-08-14T06:41:10.540Z</time>
      </trkpt>
      <trkpt lat="45.82015" lon="6.73744">
        <ele>1408</ele>
        <time>2026-08-14T06:41:11.540Z</time>
      </trkpt>
      <trkpt lat="45.82014" lon="6.73744">
        <ele>1408</ele>
        <time>2026-08-14T06:41:12.540Z</time>
      </trkpt>
      <trkpt lat="45.82013" lon="6.73746">
        <ele>1409</ele>
        <time>2026-08-14T06:41:13.540Z</time>
      </trkpt>
      <trkpt lat="45.82011" lon="6.73747">
        <ele>1409</ele>
        <time>2026-08-14T06:41:14.540Z</time>
      </trkpt>
      <trkpt lat="45.82011" lon="6.73748">
        <ele>1409</ele>
        <time>2026-08-14T06:41:15.540Z</time>
      </trkpt>
      <trkpt lat="45.8201" lon="6.7375">
        <ele>1410</ele>
        <time>2026-08-14T06:41:16.540Z</time>
      </trkpt>
      <trkpt lat="45.82009" lon="6.73752">
        <ele>1410</ele>
        <time>2026-08-14T06:41:17.540Z</time>
      </trkpt>
      <trkpt lat="45.82008" lon="6.73753">
        <ele>1410</ele>
        <time>2026-08-14T06:41:18.540Z</time>
      </trkpt>
      <trkpt lat="45.82007" lon="6.73753">
        <ele>1410</ele>
        <time>2026-08-14T06:41:19.540Z</time>
      </trkpt>
      <trkpt lat="45.82006" lon="6.73752">
        <ele>1410</ele>
        <time>2026-08-14T06:41:20.540Z</time>
      </trkpt>
      <trkpt lat="45.82005" lon="6.73752">
        <ele>1409</ele>
        <time>2026-08-14T06:41:21.540Z</time>
      </trkpt>
      <trkpt lat="45.82004" lon="6.73753">
        <ele>1409</ele>
        <time>2026-08-14T06:41:22.540Z</time>
      </trkpt>
      <trkpt lat="45.82003" lon="6.73753">
        <ele>1409</ele>
        <time>2026-08-14T06:41:23.540Z</time>
      </trkpt>
      <trkpt lat="45.82002" lon="6.73754">
        <ele>1409</ele>
        <time>2026-08-14T06:41:24.540Z</time>
      </trkpt>
      <trkpt lat="45.82001" lon="6.73754">
        <ele>1409</ele>
        <time>2026-08-14T06:41:25.540Z</time>
      </trkpt>
      <trkpt lat="45.82001" lon="6.73755">
        <ele>1409</ele>
        <time>2026-08-14T06:41:26.540Z</time>
      </trkpt>
      <trkpt lat="45.82001" lon="6.73756">
        <ele>1409</ele>
        <time>2026-08-14T06:41:27.540Z</time>
      </trkpt>
      <trkpt lat="45.82" lon="6.73756">
        <ele>1409</ele>
        <time>2026-08-14T06:41:28.540Z</time>
      </trkpt>
      <trkpt lat="45.82" lon="6.73757">
        <ele>1409</ele>
        <time>2026-08-14T06:41:29.540Z</time>
      </trkpt>
      <trkpt lat="45.81999" lon="6.73759">
        <ele>1409</ele>
        <time>2026-08-14T06:41:30.540Z</time>
      </trkpt>
      <trkpt lat="45.81997" lon="6.73761">
        <ele>1408</ele>
        <time>2026-08-14T06:41:31.540Z</time>
      </trkpt>
      <trkpt lat="45.81996" lon="6.73762">
        <ele>1408</ele>
        <time>2026-08-14T06:41:32.540Z</time>
      </trkpt>
      <trkpt lat="45.81996" lon="6.73763">
        <ele>1408</ele>
        <time>2026-08-14T06:41:33.540Z</time>
      </trkpt>
      <trkpt lat="45.81995" lon="6.73764">
        <ele>1408</ele>
        <time>2026-08-14T06:41:34.540Z</time>
      </trkpt>
      <trkpt lat="45.81994" lon="6.73766">
        <ele>1408</ele>
        <time>2026-08-14T06:41:35.540Z</time>
      </trkpt>
      <trkpt lat="45.81993" lon="6.73767">
        <ele>1407</ele>
        <time>2026-08-14T06:41:36.540Z</time>
      </trkpt>
      <trkpt lat="45.81993" lon="6.73768">
        <ele>1407</ele>
        <time>2026-08-14T06:41:37.540Z</time>
      </trkpt>
      <trkpt lat="45.81992" lon="6.73768">
        <ele>1407</ele>
        <time>2026-08-14T06:41:38.540Z</time>
      </trkpt>
      <trkpt lat="45.81991" lon="6.73768">
        <ele>1407</ele>
        <time>2026-08-14T06:41:39.540Z</time>
      </trkpt>
      <trkpt lat="45.81991" lon="6.73769">
        <ele>1407</ele>
        <time>2026-08-14T06:41:40.540Z</time>
      </trkpt>
      <trkpt lat="45.8199" lon="6.73769">
        <ele>1407</ele>
        <time>2026-08-14T06:41:41.540Z</time>
      </trkpt>
      <trkpt lat="45.81989" lon="6.7377">
        <ele>1407</ele>
        <time>2026-08-14T06:41:42.540Z</time>
      </trkpt>
      <trkpt lat="45.81988" lon="6.7377">
        <ele>1407</ele>
        <time>2026-08-14T06:41:43.540Z</time>
      </trkpt>
      <trkpt lat="45.81987" lon="6.73769">
        <ele>1407</ele>
        <time>2026-08-14T06:41:44.540Z</time>
      </trkpt>
      <trkpt lat="45.81986" lon="6.7377">
        <ele>1408</ele>
        <time>2026-08-14T06:41:45.540Z</time>
      </trkpt>
      <trkpt lat="45.81985" lon="6.73771">
        <ele>1408</ele>
        <time>2026-08-14T06:41:46.540Z</time>
      </trkpt>
      <trkpt lat="45.81984" lon="6.73772">
        <ele>1408</ele>
        <time>2026-08-14T06:41:47.540Z</time>
      </trkpt>
      <trkpt lat="45.81983" lon="6.73773">
        <ele>1408</ele>
        <time>2026-08-14T06:41:48.540Z</time>
      </trkpt>
      <trkpt lat="45.81982" lon="6.73773">
        <ele>1408</ele>
        <time>2026-08-14T06:41:49.540Z</time>
      </trkpt>
      <trkpt lat="45.81981" lon="6.73772">
        <ele>1408</ele>
        <time>2026-08-14T06:41:50.540Z</time>
      </trkpt>
      <trkpt lat="45.8198" lon="6.73772">
        <ele>1408</ele>
        <time>2026-08-14T06:41:51.540Z</time>
      </trkpt>
      <trkpt lat="45.81979" lon="6.73773">
        <ele>1409</ele>
        <time>2026-08-14T06:41:52.540Z</time>
      </trkpt>
      <trkpt lat="45.81978" lon="6.73774">
        <ele>1409</ele>
        <time>2026-08-14T06:41:53.540Z</time>
      </trkpt>
      <trkpt lat="45.81977" lon="6.73775">
        <ele>1409</ele>
        <time>2026-08-14T06:41:54.540Z</time>
      </trkpt>
      <trkpt lat="45.81975" lon="6.73774">
        <ele>1409</ele>
        <time>2026-08-14T06:41:55.540Z</time>
      </trkpt>
      <trkpt lat="45.81974" lon="6.73774">
        <ele>1409</ele>
        <time>2026-08-14T06:41:56.540Z</time>
      </trkpt>
      <trkpt lat="45.81973" lon="6.73774">
        <ele>1409</ele>
        <time>2026-08-14T06:41:57.540Z</time>
      </trkpt>
      <trkpt lat="45.81972" lon="6.73774">
        <ele>1410</ele>
        <time>2026-08-14T06:41:58.540Z</time>
      </trkpt>
      <trkpt lat="45.81971" lon="6.73774">
        <ele>1410</ele>
        <time>2026-08-14T06:41:59.540Z</time>
      </trkpt>
      <trkpt lat="45.8197" lon="6.73774">
        <ele>1410</ele>
        <time>2026-08-14T06:42:00.540Z</time>
      </trkpt>
      <trkpt lat="45.8197" lon="6.73774">
        <ele>1410</ele>
        <time>2026-08-14T06:42:01.540Z</time>
      </trkpt>
      <trkpt lat="45.81969" lon="6.73774">
        <ele>1410</ele>
        <time>2026-08-14T06:42:02.540Z</time>
      </trkpt>
      <trkpt lat="45.81968" lon="6.73773">
        <ele>1411</ele>
        <time>2026-08-14T06:42:03.540Z</time>
      </trkpt>
      <trkpt lat="45.81967" lon="6.73773">
        <ele>1411</ele>
        <time>2026-08-14T06:42:04.540Z</time>
      </trkpt>
      <trkpt lat="45.81966" lon="6.73772">
        <ele>1411</ele>
        <time>2026-08-14T06:42:05.540Z</time>
      </trkpt>
      <trkpt lat="45.81964" lon="6.73771">
        <ele>1412</ele>
        <time>2026-08-14T06:42:06.540Z</time>
      </trkpt>
      <trkpt lat="45.81963" lon="6.73771">
        <ele>1412</ele>
        <time>2026-08-14T06:42:07.540Z</time>
      </trkpt>
      <trkpt lat="45.81962" lon="6.7377">
        <ele>1412</ele>
        <time>2026-08-14T06:42:08.540Z</time>
      </trkpt>
      <trkpt lat="45.81961" lon="6.73769">
        <ele>1412</ele>
        <time>2026-08-14T06:42:09.540Z</time>
      </trkpt>
      <trkpt lat="45.81959" lon="6.73768">
        <ele>1412</ele>
        <time>2026-08-14T06:42:10.540Z</time>
      </trkpt>
      <trkpt lat="45.81958" lon="6.73767">
        <ele>1412</ele>
        <time>2026-08-14T06:42:11.540Z</time>
      </trkpt>
      <trkpt lat="45.81957" lon="6.73766">
        <ele>1412</ele>
        <time>2026-08-14T06:42:12.540Z</time>
      </trkpt>
      <trkpt lat="45.81955" lon="6.73764">
        <ele>1413</ele>
        <time>2026-08-14T06:42:13.540Z</time>
      </trkpt>
      <trkpt lat="45.81954" lon="6.73764">
        <ele>1413</ele>
        <time>2026-08-14T06:42:14.540Z</time>
      </trkpt>
      <trkpt lat="45.81953" lon="6.73763">
        <ele>1413</ele>
        <time>2026-08-14T06:42:15.540Z</time>
      </trkpt>
      <trkpt lat="45.81951" lon="6.73762">
        <ele>1413</ele>
        <time>2026-08-14T06:42:16.540Z</time>
      </trkpt>
      <trkpt lat="45.8195" lon="6.73762">
        <ele>1414</ele>
        <time>2026-08-14T06:42:17.540Z</time>
      </trkpt>
      <trkpt lat="45.81949" lon="6.73762">
        <ele>1414</ele>
        <time>2026-08-14T06:42:18.540Z</time>
      </trkpt>
      <trkpt lat="45.81948" lon="6.73762">
        <ele>1414</ele>
        <time>2026-08-14T06:42:19.540Z</time>
      </trkpt>
      <trkpt lat="45.81947" lon="6.73761">
        <ele>1415</ele>
        <time>2026-08-14T06:42:20.540Z</time>
      </trkpt>
      <trkpt lat="45.81946" lon="6.73762">
        <ele>1415</ele>
        <time>2026-08-14T06:42:21.540Z</time>
      </trkpt>
      <trkpt lat="45.81945" lon="6.73762">
        <ele>1415</ele>
        <time>2026-08-14T06:42:22.540Z</time>
      </trkpt>
      <trkpt lat="45.81943" lon="6.73761">
        <ele>1415</ele>
        <time>2026-08-14T06:42:23.540Z</time>
      </trkpt>
      <trkpt lat="45.81942" lon="6.73761">
        <ele>1415</ele>
        <time>2026-08-14T06:42:24.540Z</time>
      </trkpt>
      <trkpt lat="45.81942" lon="6.73761">
        <ele>1415</ele>
        <time>2026-08-14T06:42:25.540Z</time>
      </trkpt>
      <trkpt lat="45.81941" lon="6.73761">
        <ele>1416</ele>
        <time>2026-08-14T06:42:26.540Z</time>
      </trkpt>
      <trkpt lat="45.8194" lon="6.73761">
        <ele>1416</ele>
        <time>2026-08-14T06:42:27.540Z</time>
      </trkpt>
      <trkpt lat="45.81939" lon="6.7376">
        <ele>1416</ele>
        <time>2026-08-14T06:42:28.540Z</time>
      </trkpt>
      <trkpt lat="45.81938" lon="6.7376">
        <ele>1416</ele>
        <time>2026-08-14T06:42:29.540Z</time>
      </trkpt>
      <trkpt lat="45.81937" lon="6.73759">
        <ele>1417</ele>
        <time>2026-08-14T06:42:30.540Z</time>
      </trkpt>
      <trkpt lat="45.81935" lon="6.73759">
        <ele>1417</ele>
        <time>2026-08-14T06:42:31.540Z</time>
      </trkpt>
      <trkpt lat="45.81934" lon="6.73758">
        <ele>1418</ele>
        <time>2026-08-14T06:42:32.540Z</time>
      </trkpt>
      <trkpt lat="45.81933" lon="6.73757">
        <ele>1418</ele>
        <time>2026-08-14T06:42:33.540Z</time>
      </trkpt>
      <trkpt lat="45.81932" lon="6.73757">
        <ele>1418</ele>
        <time>2026-08-14T06:42:34.540Z</time>
      </trkpt>
      <trkpt lat="45.81931" lon="6.73756">
        <ele>1419</ele>
        <time>2026-08-14T06:42:35.540Z</time>
      </trkpt>
      <trkpt lat="45.81931" lon="6.73755">
        <ele>1419</ele>
        <time>2026-08-14T06:42:36.540Z</time>
      </trkpt>
      <trkpt lat="45.81929" lon="6.73755">
        <ele>1420</ele>
        <time>2026-08-14T06:42:37.540Z</time>
      </trkpt>
      <trkpt lat="45.81928" lon="6.73754">
        <ele>1420</ele>
        <time>2026-08-14T06:42:38.540Z</time>
      </trkpt>
      <trkpt lat="45.81927" lon="6.73754">
        <ele>1420</ele>
        <time>2026-08-14T06:42:39.540Z</time>
      </trkpt>
      <trkpt lat="45.81923" lon="6.73753">
        <ele>1421</ele>
        <time>2026-08-14T06:42:40.540Z</time>
      </trkpt>
      <trkpt lat="45.81921" lon="6.73752">
        <ele>1421</ele>
        <time>2026-08-14T06:42:41.540Z</time>
      </trkpt>
      <trkpt lat="45.81919" lon="6.73751">
        <ele>1422</ele>
        <time>2026-08-14T06:42:42.540Z</time>
      </trkpt>
      <trkpt lat="45.81918" lon="6.73749">
        <ele>1422</ele>
        <time>2026-08-14T06:42:43.540Z</time>
      </trkpt>
      <trkpt lat="45.81917" lon="6.73746">
        <ele>1422</ele>
        <time>2026-08-14T06:42:44.540Z</time>
      </trkpt>
      <trkpt lat="45.81915" lon="6.73742">
        <ele>1423</ele>
        <time>2026-08-14T06:42:45.540Z</time>
      </trkpt>
      <trkpt lat="45.81912" lon="6.73739">
        <ele>1423</ele>
        <time>2026-08-14T06:42:46.540Z</time>
      </trkpt>
      <trkpt lat="45.81908" lon="6.7374">
        <ele>1423</ele>
        <time>2026-08-14T06:42:47.540Z</time>
      </trkpt>
      <trkpt lat="45.81906" lon="6.7374">
        <ele>1424</ele>
        <time>2026-08-14T06:42:48.540Z</time>
      </trkpt>
      <trkpt lat="45.81904" lon="6.7374">
        <ele>1424</ele>
        <time>2026-08-14T06:42:49.540Z</time>
      </trkpt>
      <trkpt lat="45.81904" lon="6.73738">
        <ele>1424</ele>
        <time>2026-08-14T06:42:50.540Z</time>
      </trkpt>
      <trkpt lat="45.81903" lon="6.73736">
        <ele>1425</ele>
        <time>2026-08-14T06:42:51.540Z</time>
      </trkpt>
      <trkpt lat="45.81903" lon="6.73736">
        <ele>1425</ele>
        <time>2026-08-14T06:42:52.540Z</time>
      </trkpt>
      <trkpt lat="45.81902" lon="6.73736">
        <ele>1425</ele>
        <time>2026-08-14T06:42:53.540Z</time>
      </trkpt>
      <trkpt lat="45.819" lon="6.73736">
        <ele>1426</ele>
        <time>2026-08-14T06:42:54.540Z</time>
      </trkpt>
      <trkpt lat="45.81899" lon="6.73734">
        <ele>1426</ele>
        <time>2026-08-14T06:42:55.540Z</time>
      </trkpt>
      <trkpt lat="45.81898" lon="6.73733">
        <ele>1427</ele>
        <time>2026-08-14T06:42:56.540Z</time>
      </trkpt>
      <trkpt lat="45.81896" lon="6.73733">
        <ele>1427</ele>
        <time>2026-08-14T06:42:57.540Z</time>
      </trkpt>
      <trkpt lat="45.81895" lon="6.73735">
        <ele>1427</ele>
        <time>2026-08-14T06:42:58.540Z</time>
      </trkpt>
      <trkpt lat="45.81894" lon="6.73738">
        <ele>1428</ele>
        <time>2026-08-14T06:42:59.540Z</time>
      </trkpt>
      <trkpt lat="45.81893" lon="6.7374">
        <ele>1428</ele>
        <time>2026-08-14T06:43:00.540Z</time>
      </trkpt>
      <trkpt lat="45.81892" lon="6.7374">
        <ele>1428</ele>
        <time>2026-08-14T06:43:01.540Z</time>
      </trkpt>
      <trkpt lat="45.81892" lon="6.73738">
        <ele>1429</ele>
        <time>2026-08-14T06:43:02.540Z</time>
      </trkpt>
      <trkpt lat="45.8189" lon="6.73738">
        <ele>1429</ele>
        <time>2026-08-14T06:43:03.540Z</time>
      </trkpt>
      <trkpt lat="45.8189" lon="6.73737">
        <ele>1429</ele>
        <time>2026-08-14T06:43:04.540Z</time>
      </trkpt>
      <trkpt lat="45.81889" lon="6.73739">
        <ele>1429</ele>
        <time>2026-08-14T06:43:05.540Z</time>
      </trkpt>
      <trkpt lat="45.81888" lon="6.73741">
        <ele>1429</ele>
        <time>2026-08-14T06:43:06.540Z</time>
      </trkpt>
      <trkpt lat="45.81887" lon="6.73741">
        <ele>1429</ele>
        <time>2026-08-14T06:43:07.540Z</time>
      </trkpt>
      <trkpt lat="45.81886" lon="6.7374">
        <ele>1429</ele>
        <time>2026-08-14T06:43:08.540Z</time>
      </trkpt>
      <trkpt lat="45.81886" lon="6.73739">
        <ele>1430</ele>
        <time>2026-08-14T06:43:09.540Z</time>
      </trkpt>
      <trkpt lat="45.81885" lon="6.73739">
        <ele>1430</ele>
        <time>2026-08-14T06:43:10.540Z</time>
      </trkpt>
      <trkpt lat="45.81885" lon="6.73739">
        <ele>1430</ele>
        <time>2026-08-14T06:43:11.540Z</time>
      </trkpt>
      <trkpt lat="45.81885" lon="6.73738">
        <ele>1430</ele>
        <time>2026-08-14T06:43:12.540Z</time>
      </trkpt>
      <trkpt lat="45.81884" lon="6.73737">
        <ele>1430</ele>
        <time>2026-08-14T06:43:13.540Z</time>
      </trkpt>
      <trkpt lat="45.81883" lon="6.73736">
        <ele>1431</ele>
        <time>2026-08-14T06:43:14.540Z</time>
      </trkpt>
      <trkpt lat="45.81883" lon="6.73735">
        <ele>1431</ele>
        <time>2026-08-14T06:43:15.540Z</time>
      </trkpt>
      <trkpt lat="45.81882" lon="6.73735">
        <ele>1431</ele>
        <time>2026-08-14T06:43:16.540Z</time>
      </trkpt>
      <trkpt lat="45.81882" lon="6.73735">
        <ele>1431</ele>
        <time>2026-08-14T06:43:17.540Z</time>
      </trkpt>
      <trkpt lat="45.81881" lon="6.73735">
        <ele>1432</ele>
        <time>2026-08-14T06:43:18.540Z</time>
      </trkpt>
      <trkpt lat="45.8188" lon="6.73734">
        <ele>1432</ele>
        <time>2026-08-14T06:43:19.540Z</time>
      </trkpt>
      <trkpt lat="45.81879" lon="6.73734">
        <ele>1432</ele>
        <time>2026-08-14T06:43:20.540Z</time>
      </trkpt>
      <trkpt lat="45.81878" lon="6.73734">
        <ele>1432</ele>
        <time>2026-08-14T06:43:21.540Z</time>
      </trkpt>
      <trkpt lat="45.81876" lon="6.73733">
        <ele>1432</ele>
        <time>2026-08-14T06:43:22.540Z</time>
      </trkpt>
      <trkpt lat="45.81875" lon="6.73732">
        <ele>1433</ele>
        <time>2026-08-14T06:43:23.540Z</time>
      </trkpt>
      <trkpt lat="45.81874" lon="6.73731">
        <ele>1433</ele>
        <time>2026-08-14T06:43:24.540Z</time>
      </trkpt>
      <trkpt lat="45.81873" lon="6.73731">
        <ele>1433</ele>
        <time>2026-08-14T06:43:25.540Z</time>
      </trkpt>
      <trkpt lat="45.81872" lon="6.73732">
        <ele>1433</ele>
        <time>2026-08-14T06:43:26.540Z</time>
      </trkpt>
      <trkpt lat="45.81871" lon="6.73731">
        <ele>1434</ele>
        <time>2026-08-14T06:43:27.540Z</time>
      </trkpt>
      <trkpt lat="45.8187" lon="6.73731">
        <ele>1434</ele>
        <time>2026-08-14T06:43:28.540Z</time>
      </trkpt>
      <trkpt lat="45.81869" lon="6.73731">
        <ele>1434</ele>
        <time>2026-08-14T06:43:29.540Z</time>
      </trkpt>
      <trkpt lat="45.81869" lon="6.73731">
        <ele>1435</ele>
        <time>2026-08-14T06:43:30.540Z</time>
      </trkpt>
      <trkpt lat="45.81868" lon="6.7373">
        <ele>1435</ele>
        <time>2026-08-14T06:43:31.540Z</time>
      </trkpt>
      <trkpt lat="45.81867" lon="6.7373">
        <ele>1436</ele>
        <time>2026-08-14T06:43:32.540Z</time>
      </trkpt>
      <trkpt lat="45.81866" lon="6.73729">
        <ele>1436</ele>
        <time>2026-08-14T06:43:33.540Z</time>
      </trkpt>
      <trkpt lat="45.81865" lon="6.73729">
        <ele>1437</ele>
        <time>2026-08-14T06:43:34.540Z</time>
      </trkpt>
      <trkpt lat="45.81864" lon="6.73729">
        <ele>1437</ele>
        <time>2026-08-14T06:43:35.540Z</time>
      </trkpt>
      <trkpt lat="45.81862" lon="6.73729">
        <ele>1438</ele>
        <time>2026-08-14T06:43:36.540Z</time>
      </trkpt>
      <trkpt lat="45.81862" lon="6.73729">
        <ele>1438</ele>
        <time>2026-08-14T06:43:37.540Z</time>
      </trkpt>
      <trkpt lat="45.8186" lon="6.73728">
        <ele>1439</ele>
        <time>2026-08-14T06:43:38.540Z</time>
      </trkpt>
      <trkpt lat="45.81859" lon="6.73728">
        <ele>1439</ele>
        <time>2026-08-14T06:43:39.540Z</time>
      </trkpt>
      <trkpt lat="45.81858" lon="6.73728">
        <ele>1439</ele>
        <time>2026-08-14T06:43:40.540Z</time>
      </trkpt>
      <trkpt lat="45.81857" lon="6.73728">
        <ele>1439</ele>
        <time>2026-08-14T06:43:41.540Z</time>
      </trkpt>
      <trkpt lat="45.81856" lon="6.73729">
        <ele>1440</ele>
        <time>2026-08-14T06:43:42.540Z</time>
      </trkpt>
      <trkpt lat="45.81855" lon="6.73729">
        <ele>1440</ele>
        <time>2026-08-14T06:43:43.540Z</time>
      </trkpt>
      <trkpt lat="45.81854" lon="6.73729">
        <ele>1440</ele>
        <time>2026-08-14T06:43:44.540Z</time>
      </trkpt>
      <trkpt lat="45.81853" lon="6.73727">
        <ele>1440</ele>
        <time>2026-08-14T06:43:45.540Z</time>
      </trkpt>
      <trkpt lat="45.81852" lon="6.73726">
        <ele>1440</ele>
        <time>2026-08-14T06:43:46.540Z</time>
      </trkpt>
      <trkpt lat="45.81851" lon="6.73726">
        <ele>1440</ele>
        <time>2026-08-14T06:43:47.540Z</time>
      </trkpt>
      <trkpt lat="45.8185" lon="6.73725">
        <ele>1441</ele>
        <time>2026-08-14T06:43:48.540Z</time>
      </trkpt>
      <trkpt lat="45.81849" lon="6.73725">
        <ele>1441</ele>
        <time>2026-08-14T06:43:49.540Z</time>
      </trkpt>
      <trkpt lat="45.81848" lon="6.73724">
        <ele>1441</ele>
        <time>2026-08-14T06:43:50.540Z</time>
      </trkpt>
      <trkpt lat="45.81847" lon="6.73724">
        <ele>1441</ele>
        <time>2026-08-14T06:43:51.540Z</time>
      </trkpt>
      <trkpt lat="45.81846" lon="6.73722">
        <ele>1441</ele>
        <time>2026-08-14T06:43:52.540Z</time>
      </trkpt>
      <trkpt lat="45.81846" lon="6.73721">
        <ele>1441</ele>
        <time>2026-08-14T06:43:53.540Z</time>
      </trkpt>
      <trkpt lat="45.81845" lon="6.7372">
        <ele>1441</ele>
        <time>2026-08-14T06:43:54.540Z</time>
      </trkpt>
      <trkpt lat="45.81844" lon="6.7372">
        <ele>1442</ele>
        <time>2026-08-14T06:43:55.540Z</time>
      </trkpt>
      <trkpt lat="45.81844" lon="6.73719">
        <ele>1442</ele>
        <time>2026-08-14T06:43:56.540Z</time>
      </trkpt>
      <trkpt lat="45.81843" lon="6.73718">
        <ele>1442</ele>
        <time>2026-08-14T06:43:57.540Z</time>
      </trkpt>
      <trkpt lat="45.81842" lon="6.73718">
        <ele>1442</ele>
        <time>2026-08-14T06:43:58.540Z</time>
      </trkpt>
      <trkpt lat="45.81841" lon="6.73718">
        <ele>1441</ele>
        <time>2026-08-14T06:43:59.540Z</time>
      </trkpt>
      <trkpt lat="45.81841" lon="6.73717">
        <ele>1441</ele>
        <time>2026-08-14T06:44:00.540Z</time>
      </trkpt>
      <trkpt lat="45.81841" lon="6.73715">
        <ele>1441</ele>
        <time>2026-08-14T06:44:01.540Z</time>
      </trkpt>
      <trkpt lat="45.8184" lon="6.73714">
        <ele>1441</ele>
        <time>2026-08-14T06:44:02.540Z</time>
      </trkpt>
      <trkpt lat="45.81839" lon="6.73713">
        <ele>1441</ele>
        <time>2026-08-14T06:44:03.540Z</time>
      </trkpt>
      <trkpt lat="45.81838" lon="6.73711">
        <ele>1441</ele>
        <time>2026-08-14T06:44:04.540Z</time>
      </trkpt>
      <trkpt lat="45.81837" lon="6.7371">
        <ele>1440</ele>
        <time>2026-08-14T06:44:05.540Z</time>
      </trkpt>
      <trkpt lat="45.81836" lon="6.73708">
        <ele>1441</ele>
        <time>2026-08-14T06:44:06.540Z</time>
      </trkpt>
      <trkpt lat="45.81835" lon="6.73706">
        <ele>1441</ele>
        <time>2026-08-14T06:44:07.540Z</time>
      </trkpt>
      <trkpt lat="45.81834" lon="6.73705">
        <ele>1441</ele>
        <time>2026-08-14T06:44:08.540Z</time>
      </trkpt>
      <trkpt lat="45.81833" lon="6.73704">
        <ele>1441</ele>
        <time>2026-08-14T06:44:09.540Z</time>
      </trkpt>
      <trkpt lat="45.81833" lon="6.73704">
        <ele>1441</ele>
        <time>2026-08-14T06:44:10.540Z</time>
      </trkpt>
      <trkpt lat="45.81832" lon="6.73703">
        <ele>1441</ele>
        <time>2026-08-14T06:44:11.540Z</time>
      </trkpt>
      <trkpt lat="45.8183" lon="6.73702">
        <ele>1441</ele>
        <time>2026-08-14T06:44:12.540Z</time>
      </trkpt>
      <trkpt lat="45.81829" lon="6.73702">
        <ele>1442</ele>
        <time>2026-08-14T06:44:13.540Z</time>
      </trkpt>
      <trkpt lat="45.81828" lon="6.73701">
        <ele>1442</ele>
        <time>2026-08-14T06:44:14.540Z</time>
      </trkpt>
      <trkpt lat="45.81827" lon="6.737">
        <ele>1442</ele>
        <time>2026-08-14T06:44:15.540Z</time>
      </trkpt>
      <trkpt lat="45.81826" lon="6.737">
        <ele>1443</ele>
        <time>2026-08-14T06:44:16.540Z</time>
      </trkpt>
      <trkpt lat="45.81825" lon="6.73699">
        <ele>1443</ele>
        <time>2026-08-14T06:44:17.540Z</time>
      </trkpt>
      <trkpt lat="45.81824" lon="6.73698">
        <ele>1443</ele>
        <time>2026-08-14T06:44:18.540Z</time>
      </trkpt>
      <trkpt lat="45.81824" lon="6.73697">
        <ele>1444</ele>
        <time>2026-08-14T06:44:19.540Z</time>
      </trkpt>
      <trkpt lat="45.81824" lon="6.73697">
        <ele>1444</ele>
        <time>2026-08-14T06:44:20.540Z</time>
      </trkpt>
      <trkpt lat="45.81823" lon="6.73696">
        <ele>1445</ele>
        <time>2026-08-14T06:44:21.540Z</time>
      </trkpt>
      <trkpt lat="45.81822" lon="6.73695">
        <ele>1446</ele>
        <time>2026-08-14T06:44:22.540Z</time>
      </trkpt>
      <trkpt lat="45.81821" lon="6.73694">
        <ele>1446</ele>
        <time>2026-08-14T06:44:23.540Z</time>
      </trkpt>
      <trkpt lat="45.8182" lon="6.73693">
        <ele>1447</ele>
        <time>2026-08-14T06:44:24.540Z</time>
      </trkpt>
      <trkpt lat="45.81819" lon="6.73692">
        <ele>1448</ele>
        <time>2026-08-14T06:44:25.540Z</time>
      </trkpt>
      <trkpt lat="45.81818" lon="6.73692">
        <ele>1449</ele>
        <time>2026-08-14T06:44:26.540Z</time>
      </trkpt>
      <trkpt lat="45.81818" lon="6.73691">
        <ele>1450</ele>
        <time>2026-08-14T06:44:27.540Z</time>
      </trkpt>
      <trkpt lat="45.81818" lon="6.73691">
        <ele>1450</ele>
        <time>2026-08-14T06:44:28.540Z</time>
      </trkpt>
      <trkpt lat="45.81818" lon="6.73691">
        <ele>1451</ele>
        <time>2026-08-14T06:44:29.540Z</time>
      </trkpt>
      <trkpt lat="45.81818" lon="6.7369">
        <ele>1452</ele>
        <time>2026-08-14T06:44:30.540Z</time>
      </trkpt>
      <trkpt lat="45.81816" lon="6.73688">
        <ele>1452</ele>
        <time>2026-08-14T06:44:31.540Z</time>
      </trkpt>
      <trkpt lat="45.81815" lon="6.73688">
        <ele>1453</ele>
        <time>2026-08-14T06:44:32.540Z</time>
      </trkpt>
      <trkpt lat="45.81813" lon="6.73687">
        <ele>1454</ele>
        <time>2026-08-14T06:44:33.540Z</time>
      </trkpt>
      <trkpt lat="45.81812" lon="6.73687">
        <ele>1454</ele>
        <time>2026-08-14T06:44:34.540Z</time>
      </trkpt>
      <trkpt lat="45.81811" lon="6.73686">
        <ele>1455</ele>
        <time>2026-08-14T06:44:35.540Z</time>
      </trkpt>
      <trkpt lat="45.8181" lon="6.73685">
        <ele>1455</ele>
        <time>2026-08-14T06:44:36.540Z</time>
      </trkpt>
      <trkpt lat="45.81809" lon="6.73684">
        <ele>1456</ele>
        <time>2026-08-14T06:44:37.540Z</time>
      </trkpt>
      <trkpt lat="45.81808" lon="6.73683">
        <ele>1456</ele>
        <time>2026-08-14T06:44:38.540Z</time>
      </trkpt>
      <trkpt lat="45.81807" lon="6.73683">
        <ele>1457</ele>
        <time>2026-08-14T06:44:39.540Z</time>
      </trkpt>
      <trkpt lat="45.81806" lon="6.73682">
        <ele>1457</ele>
        <time>2026-08-14T06:44:40.540Z</time>
      </trkpt>
      <trkpt lat="45.81805" lon="6.73681">
        <ele>1458</ele>
        <time>2026-08-14T06:44:41.540Z</time>
      </trkpt>
      <trkpt lat="45.81804" lon="6.7368">
        <ele>1459</ele>
        <time>2026-08-14T06:44:42.540Z</time>
      </trkpt>
      <trkpt lat="45.81803" lon="6.73679">
        <ele>1459</ele>
        <time>2026-08-14T06:44:43.540Z</time>
      </trkpt>
      <trkpt lat="45.81802" lon="6.73678">
        <ele>1460</ele>
        <time>2026-08-14T06:44:44.540Z</time>
      </trkpt>
      <trkpt lat="45.81801" lon="6.73677">
        <ele>1461</ele>
        <time>2026-08-14T06:44:45.540Z</time>
      </trkpt>
      <trkpt lat="45.818" lon="6.73676">
        <ele>1461</ele>
        <time>2026-08-14T06:44:46.540Z</time>
      </trkpt>
      <trkpt lat="45.81798" lon="6.73675">
        <ele>1462</ele>
        <time>2026-08-14T06:44:47.540Z</time>
      </trkpt>
      <trkpt lat="45.81797" lon="6.73674">
        <ele>1463</ele>
        <time>2026-08-14T06:44:48.540Z</time>
      </trkpt>
      <trkpt lat="45.81795" lon="6.73673">
        <ele>1463</ele>
        <time>2026-08-14T06:44:49.540Z</time>
      </trkpt>
      <trkpt lat="45.81794" lon="6.73671">
        <ele>1463</ele>
        <time>2026-08-14T06:44:50.540Z</time>
      </trkpt>
      <trkpt lat="45.81793" lon="6.7367">
        <ele>1464</ele>
        <time>2026-08-14T06:44:51.540Z</time>
      </trkpt>
      <trkpt lat="45.81792" lon="6.7367">
        <ele>1464</ele>
        <time>2026-08-14T06:44:52.540Z</time>
      </trkpt>
      <trkpt lat="45.81791" lon="6.7367">
        <ele>1464</ele>
        <time>2026-08-14T06:44:53.540Z</time>
      </trkpt>
      <trkpt lat="45.8179" lon="6.73669">
        <ele>1465</ele>
        <time>2026-08-14T06:44:54.540Z</time>
      </trkpt>
      <trkpt lat="45.8179" lon="6.73668">
        <ele>1465</ele>
        <time>2026-08-14T06:44:55.540Z</time>
      </trkpt>
      <trkpt lat="45.81789" lon="6.73668">
        <ele>1465</ele>
        <time>2026-08-14T06:44:56.540Z</time>
      </trkpt>
      <trkpt lat="45.81788" lon="6.73668">
        <ele>1465</ele>
        <time>2026-08-14T06:44:57.540Z</time>
      </trkpt>
      <trkpt lat="45.81787" lon="6.73667">
        <ele>1465</ele>
        <time>2026-08-14T06:44:58.540Z</time>
      </trkpt>
      <trkpt lat="45.81786" lon="6.73666">
        <ele>1466</ele>
        <time>2026-08-14T06:44:59.540Z</time>
      </trkpt>
      <trkpt lat="45.81786" lon="6.73665">
        <ele>1466</ele>
        <time>2026-08-14T06:45:00.540Z</time>
      </trkpt>
      <trkpt lat="45.81785" lon="6.73664">
        <ele>1466</ele>
        <time>2026-08-14T06:45:01.540Z</time>
      </trkpt>
      <trkpt lat="45.81784" lon="6.73663">
        <ele>1466</ele>
        <time>2026-08-14T06:45:02.540Z</time>
      </trkpt>
      <trkpt lat="45.81783" lon="6.73662">
        <ele>1466</ele>
        <time>2026-08-14T06:45:03.540Z</time>
      </trkpt>
      <trkpt lat="45.81783" lon="6.73662">
        <ele>1466</ele>
        <time>2026-08-14T06:45:04.540Z</time>
      </trkpt>
      <trkpt lat="45.81782" lon="6.73661">
        <ele>1466</ele>
        <time>2026-08-14T06:45:05.540Z</time>
      </trkpt>
      <trkpt lat="45.81782" lon="6.73661">
        <ele>1466</ele>
        <time>2026-08-14T06:45:06.540Z</time>
      </trkpt>
      <trkpt lat="45.81781" lon="6.73661">
        <ele>1466</ele>
        <time>2026-08-14T06:45:07.540Z</time>
      </trkpt>
      <trkpt lat="45.81779" lon="6.73661">
        <ele>1465</ele>
        <time>2026-08-14T06:45:08.540Z</time>
      </trkpt>
      <trkpt lat="45.81778" lon="6.73661">
        <ele>1465</ele>
        <time>2026-08-14T06:45:09.540Z</time>
      </trkpt>
      <trkpt lat="45.81777" lon="6.7366">
        <ele>1465</ele>
        <time>2026-08-14T06:45:10.540Z</time>
      </trkpt>
      <trkpt lat="45.81776" lon="6.73659">
        <ele>1464</ele>
        <time>2026-08-14T06:45:11.540Z</time>
      </trkpt>
      <trkpt lat="45.81775" lon="6.73658">
        <ele>1464</ele>
        <time>2026-08-14T06:45:12.540Z</time>
      </trkpt>
      <trkpt lat="45.81774" lon="6.73658">
        <ele>1464</ele>
        <time>2026-08-14T06:45:13.540Z</time>
      </trkpt>
      <trkpt lat="45.81773" lon="6.73657">
        <ele>1464</ele>
        <time>2026-08-14T06:45:14.540Z</time>
      </trkpt>
      <trkpt lat="45.81772" lon="6.73657">
        <ele>1464</ele>
        <time>2026-08-14T06:45:15.540Z</time>
      </trkpt>
      <trkpt lat="45.81772" lon="6.73657">
        <ele>1464</ele>
        <time>2026-08-14T06:45:16.540Z</time>
      </trkpt>
      <trkpt lat="45.81771" lon="6.73656">
        <ele>1464</ele>
        <time>2026-08-14T06:45:17.540Z</time>
      </trkpt>
      <trkpt lat="45.81771" lon="6.73656">
        <ele>1463</ele>
        <time>2026-08-14T06:45:18.540Z</time>
      </trkpt>
      <trkpt lat="45.8177" lon="6.73656">
        <ele>1463</ele>
        <time>2026-08-14T06:45:19.540Z</time>
      </trkpt>
      <trkpt lat="45.81769" lon="6.73656">
        <ele>1463</ele>
        <time>2026-08-14T06:45:20.540Z</time>
      </trkpt>
      <trkpt lat="45.81768" lon="6.73656">
        <ele>1463</ele>
        <time>2026-08-14T06:45:21.540Z</time>
      </trkpt>
      <trkpt lat="45.81767" lon="6.73657">
        <ele>1463</ele>
        <time>2026-08-14T06:45:22.540Z</time>
      </trkpt>
      <trkpt lat="45.81765" lon="6.73658">
        <ele>1463</ele>
        <time>2026-08-14T06:45:23.540Z</time>
      </trkpt>
      <trkpt lat="45.81764" lon="6.73658">
        <ele>1463</ele>
        <time>2026-08-14T06:45:24.540Z</time>
      </trkpt>
      <trkpt lat="45.81763" lon="6.7366">
        <ele>1463</ele>
        <time>2026-08-14T06:45:25.540Z</time>
      </trkpt>
      <trkpt lat="45.81762" lon="6.73661">
        <ele>1463</ele>
        <time>2026-08-14T06:45:26.540Z</time>
      </trkpt>
      <trkpt lat="45.81761" lon="6.73662">
        <ele>1463</ele>
        <time>2026-08-14T06:45:27.540Z</time>
      </trkpt>
      <trkpt lat="45.81761" lon="6.73662">
        <ele>1463</ele>
        <time>2026-08-14T06:45:28.540Z</time>
      </trkpt>
      <trkpt lat="45.8176" lon="6.73663">
        <ele>1464</ele>
        <time>2026-08-14T06:45:29.540Z</time>
      </trkpt>
      <trkpt lat="45.8176" lon="6.73664">
        <ele>1464</ele>
        <time>2026-08-14T06:45:30.540Z</time>
      </trkpt>
      <trkpt lat="45.8176" lon="6.73664">
        <ele>1464</ele>
        <time>2026-08-14T06:45:31.540Z</time>
      </trkpt>
      <trkpt lat="45.8176" lon="6.73665">
        <ele>1464</ele>
        <time>2026-08-14T06:45:32.540Z</time>
      </trkpt>
      <trkpt lat="45.81759" lon="6.73666">
        <ele>1464</ele>
        <time>2026-08-14T06:45:33.540Z</time>
      </trkpt>
      <trkpt lat="45.81759" lon="6.73666">
        <ele>1464</ele>
        <time>2026-08-14T06:45:34.540Z</time>
      </trkpt>
      <trkpt lat="45.81759" lon="6.73667">
        <ele>1463</ele>
        <time>2026-08-14T06:45:35.540Z</time>
      </trkpt>
      <trkpt lat="45.81758" lon="6.73666">
        <ele>1463</ele>
        <time>2026-08-14T06:45:36.540Z</time>
      </trkpt>
      <trkpt lat="45.81758" lon="6.73666">
        <ele>1463</ele>
        <time>2026-08-14T06:45:37.540Z</time>
      </trkpt>
      <trkpt lat="45.81757" lon="6.73666">
        <ele>1463</ele>
        <time>2026-08-14T06:45:38.540Z</time>
      </trkpt>
      <trkpt lat="45.81756" lon="6.73666">
        <ele>1463</ele>
        <time>2026-08-14T06:45:39.540Z</time>
      </trkpt>
      <trkpt lat="45.81756" lon="6.73665">
        <ele>1463</ele>
        <time>2026-08-14T06:45:40.540Z</time>
      </trkpt>
      <trkpt lat="45.81756" lon="6.73665">
        <ele>1463</ele>
        <time>2026-08-14T06:45:41.540Z</time>
      </trkpt>
      <trkpt lat="45.81755" lon="6.73666">
        <ele>1463</ele>
        <time>2026-08-14T06:45:42.540Z</time>
      </trkpt>
      <trkpt lat="45.81755" lon="6.73666">
        <ele>1463</ele>
        <time>2026-08-14T06:45:43.540Z</time>
      </trkpt>
      <trkpt lat="45.81754" lon="6.73667">
        <ele>1463</ele>
        <time>2026-08-14T06:45:44.540Z</time>
      </trkpt>
      <trkpt lat="45.81753" lon="6.73667">
        <ele>1463</ele>
        <time>2026-08-14T06:45:45.540Z</time>
      </trkpt>
      <trkpt lat="45.81753" lon="6.73668">
        <ele>1463</ele>
        <time>2026-08-14T06:45:46.540Z</time>
      </trkpt>
      <trkpt lat="45.81752" lon="6.73669">
        <ele>1463</ele>
        <time>2026-08-14T06:45:47.540Z</time>
      </trkpt>
      <trkpt lat="45.8175" lon="6.73671">
        <ele>1463</ele>
        <time>2026-08-14T06:45:48.540Z</time>
      </trkpt>
      <trkpt lat="45.81749" lon="6.73672">
        <ele>1463</ele>
        <time>2026-08-14T06:45:49.540Z</time>
      </trkpt>
      <trkpt lat="45.81748" lon="6.73674">
        <ele>1463</ele>
        <time>2026-08-14T06:45:50.540Z</time>
      </trkpt>
      <trkpt lat="45.81748" lon="6.73676">
        <ele>1463</ele>
        <time>2026-08-14T06:45:51.540Z</time>
      </trkpt>
      <trkpt lat="45.81747" lon="6.73677">
        <ele>1463</ele>
        <time>2026-08-14T06:45:52.540Z</time>
      </trkpt>
      <trkpt lat="45.81747" lon="6.73679">
        <ele>1464</ele>
        <time>2026-08-14T06:45:53.540Z</time>
      </trkpt>
      <trkpt lat="45.81747" lon="6.73681">
        <ele>1464</ele>
        <time>2026-08-14T06:45:54.540Z</time>
      </trkpt>
      <trkpt lat="45.81746" lon="6.73683">
        <ele>1463</ele>
        <time>2026-08-14T06:45:55.540Z</time>
      </trkpt>
      <trkpt lat="45.81745" lon="6.73685">
        <ele>1463</ele>
        <time>2026-08-14T06:45:56.540Z</time>
      </trkpt>
      <trkpt lat="45.81744" lon="6.73688">
        <ele>1463</ele>
        <time>2026-08-14T06:45:57.540Z</time>
      </trkpt>
      <trkpt lat="45.81743" lon="6.7369">
        <ele>1463</ele>
        <time>2026-08-14T06:45:58.540Z</time>
      </trkpt>
      <trkpt lat="45.81742" lon="6.73692">
        <ele>1462</ele>
        <time>2026-08-14T06:45:59.540Z</time>
      </trkpt>
      <trkpt lat="45.8174" lon="6.73694">
        <ele>1462</ele>
        <time>2026-08-14T06:46:00.540Z</time>
      </trkpt>
      <trkpt lat="45.81739" lon="6.73696">
        <ele>1462</ele>
        <time>2026-08-14T06:46:01.540Z</time>
      </trkpt>
      <trkpt lat="45.81739" lon="6.73698">
        <ele>1462</ele>
        <time>2026-08-14T06:46:02.540Z</time>
      </trkpt>
      <trkpt lat="45.81737" lon="6.73699">
        <ele>1463</ele>
        <time>2026-08-14T06:46:03.540Z</time>
      </trkpt>
      <trkpt lat="45.81736" lon="6.73701">
        <ele>1463</ele>
        <time>2026-08-14T06:46:04.540Z</time>
      </trkpt>
      <trkpt lat="45.81734" lon="6.73703">
        <ele>1463</ele>
        <time>2026-08-14T06:46:05.540Z</time>
      </trkpt>
      <trkpt lat="45.81733" lon="6.73704">
        <ele>1463</ele>
        <time>2026-08-14T06:46:06.540Z</time>
      </trkpt>
      <trkpt lat="45.81732" lon="6.73706">
        <ele>1463</ele>
        <time>2026-08-14T06:46:07.540Z</time>
      </trkpt>
      <trkpt lat="45.81732" lon="6.73707">
        <ele>1463</ele>
        <time>2026-08-14T06:46:08.540Z</time>
      </trkpt>
      <trkpt lat="45.81732" lon="6.73709">
        <ele>1463</ele>
        <time>2026-08-14T06:46:09.540Z</time>
      </trkpt>
      <trkpt lat="45.81732" lon="6.73711">
        <ele>1463</ele>
        <time>2026-08-14T06:46:10.540Z</time>
      </trkpt>
      <trkpt lat="45.81732" lon="6.73712">
        <ele>1464</ele>
        <time>2026-08-14T06:46:11.540Z</time>
      </trkpt>
      <trkpt lat="45.81732" lon="6.73714">
        <ele>1464</ele>
        <time>2026-08-14T06:46:12.540Z</time>
      </trkpt>
      <trkpt lat="45.81732" lon="6.73715">
        <ele>1464</ele>
        <time>2026-08-14T06:46:13.540Z</time>
      </trkpt>
      <trkpt lat="45.81731" lon="6.73717">
        <ele>1464</ele>
        <time>2026-08-14T06:46:14.540Z</time>
      </trkpt>
      <trkpt lat="45.81731" lon="6.73719">
        <ele>1464</ele>
        <time>2026-08-14T06:46:15.540Z</time>
      </trkpt>
      <trkpt lat="45.81731" lon="6.73721">
        <ele>1465</ele>
        <time>2026-08-14T06:46:16.540Z</time>
      </trkpt>
      <trkpt lat="45.8173" lon="6.73723">
        <ele>1465</ele>
        <time>2026-08-14T06:46:17.540Z</time>
      </trkpt>
      <trkpt lat="45.8173" lon="6.73725">
        <ele>1466</ele>
        <time>2026-08-14T06:46:18.540Z</time>
      </trkpt>
      <trkpt lat="45.81729" lon="6.73726">
        <ele>1466</ele>
        <time>2026-08-14T06:46:19.540Z</time>
      </trkpt>
      <trkpt lat="45.81729" lon="6.73728">
        <ele>1466</ele>
        <time>2026-08-14T06:46:20.540Z</time>
      </trkpt>
      <trkpt lat="45.81728" lon="6.73729">
        <ele>1467</ele>
        <time>2026-08-14T06:46:21.540Z</time>
      </trkpt>
      <trkpt lat="45.81728" lon="6.73731">
        <ele>1467</ele>
        <time>2026-08-14T06:46:22.540Z</time>
      </trkpt>
      <trkpt lat="45.81728" lon="6.73733">
        <ele>1467</ele>
        <time>2026-08-14T06:46:23.540Z</time>
      </trkpt>
      <trkpt lat="45.81727" lon="6.73736">
        <ele>1467</ele>
        <time>2026-08-14T06:46:24.540Z</time>
      </trkpt>
      <trkpt lat="45.81726" lon="6.73738">
        <ele>1467</ele>
        <time>2026-08-14T06:46:25.540Z</time>
      </trkpt>
      <trkpt lat="45.81725" lon="6.7374">
        <ele>1467</ele>
        <time>2026-08-14T06:46:26.540Z</time>
      </trkpt>
      <trkpt lat="45.81724" lon="6.73743">
        <ele>1467</ele>
        <time>2026-08-14T06:46:27.540Z</time>
      </trkpt>
      <trkpt lat="45.81723" lon="6.73745">
        <ele>1466</ele>
        <time>2026-08-14T06:46:28.540Z</time>
      </trkpt>
      <trkpt lat="45.81722" lon="6.73748">
        <ele>1466</ele>
        <time>2026-08-14T06:46:29.540Z</time>
      </trkpt>
      <trkpt lat="45.81721" lon="6.7375">
        <ele>1466</ele>
        <time>2026-08-14T06:46:30.540Z</time>
      </trkpt>
      <trkpt lat="45.8172" lon="6.73753">
        <ele>1466</ele>
        <time>2026-08-14T06:46:31.540Z</time>
      </trkpt>
      <trkpt lat="45.81719" lon="6.73755">
        <ele>1466</ele>
        <time>2026-08-14T06:46:32.540Z</time>
      </trkpt>
      <trkpt lat="45.81718" lon="6.73758">
        <ele>1466</ele>
        <time>2026-08-14T06:46:33.540Z</time>
      </trkpt>
      <trkpt lat="45.81718" lon="6.7376">
        <ele>1465</ele>
        <time>2026-08-14T06:46:34.540Z</time>
      </trkpt>
      <trkpt lat="45.81717" lon="6.73762">
        <ele>1465</ele>
        <time>2026-08-14T06:46:35.540Z</time>
      </trkpt>
      <trkpt lat="45.81716" lon="6.73765">
        <ele>1465</ele>
        <time>2026-08-14T06:46:36.540Z</time>
      </trkpt>
      <trkpt lat="45.81715" lon="6.73767">
        <ele>1465</ele>
        <time>2026-08-14T06:46:37.540Z</time>
      </trkpt>
      <trkpt lat="45.81715" lon="6.7377">
        <ele>1465</ele>
        <time>2026-08-14T06:46:38.540Z</time>
      </trkpt>
      <trkpt lat="45.81714" lon="6.73772">
        <ele>1465</ele>
        <time>2026-08-14T06:46:39.540Z</time>
      </trkpt>
      <trkpt lat="45.81714" lon="6.73773">
        <ele>1465</ele>
        <time>2026-08-14T06:46:40.540Z</time>
      </trkpt>
      <trkpt lat="45.81713" lon="6.73775">
        <ele>1465</ele>
        <time>2026-08-14T06:46:41.540Z</time>
      </trkpt>
      <trkpt lat="45.81713" lon="6.73777">
        <ele>1465</ele>
        <time>2026-08-14T06:46:42.540Z</time>
      </trkpt>
      <trkpt lat="45.81713" lon="6.7378">
        <ele>1465</ele>
        <time>2026-08-14T06:46:43.540Z</time>
      </trkpt>
      <trkpt lat="45.81713" lon="6.73781">
        <ele>1465</ele>
        <time>2026-08-14T06:46:44.540Z</time>
      </trkpt>
      <trkpt lat="45.81713" lon="6.73783">
        <ele>1465</ele>
        <time>2026-08-14T06:46:45.540Z</time>
      </trkpt>
      <trkpt lat="45.81713" lon="6.73784">
        <ele>1465</ele>
        <time>2026-08-14T06:46:46.540Z</time>
      </trkpt>
      <trkpt lat="45.81713" lon="6.73785">
        <ele>1466</ele>
        <time>2026-08-14T06:46:47.540Z</time>
      </trkpt>
      <trkpt lat="45.81713" lon="6.73787">
        <ele>1466</ele>
        <time>2026-08-14T06:46:48.540Z</time>
      </trkpt>
      <trkpt lat="45.81713" lon="6.73788">
        <ele>1467</ele>
        <time>2026-08-14T06:46:49.540Z</time>
      </trkpt>
      <trkpt lat="45.81713" lon="6.7379">
        <ele>1467</ele>
        <time>2026-08-14T06:46:50.540Z</time>
      </trkpt>
      <trkpt lat="45.81713" lon="6.73791">
        <ele>1468</ele>
        <time>2026-08-14T06:46:51.540Z</time>
      </trkpt>
      <trkpt lat="45.81714" lon="6.73794">
        <ele>1468</ele>
        <time>2026-08-14T06:46:52.540Z</time>
      </trkpt>
      <trkpt lat="45.81714" lon="6.73797">
        <ele>1469</ele>
        <time>2026-08-14T06:46:53.540Z</time>
      </trkpt>
      <trkpt lat="45.81714" lon="6.73798">
        <ele>1469</ele>
        <time>2026-08-14T06:46:54.540Z</time>
      </trkpt>
      <trkpt lat="45.81714" lon="6.738">
        <ele>1469</ele>
        <time>2026-08-14T06:46:55.540Z</time>
      </trkpt>
      <trkpt lat="45.81714" lon="6.73802">
        <ele>1469</ele>
        <time>2026-08-14T06:46:56.540Z</time>
      </trkpt>
      <trkpt lat="45.81715" lon="6.73803">
        <ele>1470</ele>
        <time>2026-08-14T06:46:57.540Z</time>
      </trkpt>
      <trkpt lat="45.81716" lon="6.73805">
        <ele>1470</ele>
        <time>2026-08-14T06:46:58.540Z</time>
      </trkpt>
      <trkpt lat="45.81716" lon="6.73806">
        <ele>1471</ele>
        <time>2026-08-14T06:46:59.540Z</time>
      </trkpt>
      <trkpt lat="45.81716" lon="6.73807">
        <ele>1471</ele>
        <time>2026-08-14T06:47:00.540Z</time>
      </trkpt>
      <trkpt lat="45.81717" lon="6.73809">
        <ele>1472</ele>
        <time>2026-08-14T06:47:01.540Z</time>
      </trkpt>
      <trkpt lat="45.81718" lon="6.73811">
        <ele>1472</ele>
        <time>2026-08-14T06:47:02.540Z</time>
      </trkpt>
      <trkpt lat="45.81718" lon="6.73813">
        <ele>1472</ele>
        <time>2026-08-14T06:47:03.540Z</time>
      </trkpt>
      <trkpt lat="45.81718" lon="6.73814">
        <ele>1473</ele>
        <time>2026-08-14T06:47:04.540Z</time>
      </trkpt>
      <trkpt lat="45.81718" lon="6.73816">
        <ele>1473</ele>
        <time>2026-08-14T06:47:05.540Z</time>
      </trkpt>
      <trkpt lat="45.81718" lon="6.73818">
        <ele>1474</ele>
        <time>2026-08-14T06:47:06.540Z</time>
      </trkpt>
      <trkpt lat="45.81717" lon="6.7382">
        <ele>1474</ele>
        <time>2026-08-14T06:47:07.540Z</time>
      </trkpt>
      <trkpt lat="45.81717" lon="6.73822">
        <ele>1474</ele>
        <time>2026-08-14T06:47:08.540Z</time>
      </trkpt>
      <trkpt lat="45.81716" lon="6.73824">
        <ele>1475</ele>
        <time>2026-08-14T06:47:09.540Z</time>
      </trkpt>
      <trkpt lat="45.81715" lon="6.73826">
        <ele>1476</ele>
        <time>2026-08-14T06:47:10.540Z</time>
      </trkpt>
      <trkpt lat="45.81715" lon="6.73827">
        <ele>1476</ele>
        <time>2026-08-14T06:47:11.540Z</time>
      </trkpt>
      <trkpt lat="45.81714" lon="6.73829">
        <ele>1477</ele>
        <time>2026-08-14T06:47:12.540Z</time>
      </trkpt>
      <trkpt lat="45.81714" lon="6.73831">
        <ele>1478</ele>
        <time>2026-08-14T06:47:13.540Z</time>
      </trkpt>
      <trkpt lat="45.81713" lon="6.73833">
        <ele>1479</ele>
        <time>2026-08-14T06:47:14.540Z</time>
      </trkpt>
      <trkpt lat="45.81713" lon="6.73835">
        <ele>1479</ele>
        <time>2026-08-14T06:47:15.540Z</time>
      </trkpt>
      <trkpt lat="45.81712" lon="6.73837">
        <ele>1479</ele>
        <time>2026-08-14T06:47:16.540Z</time>
      </trkpt>
      <trkpt lat="45.81711" lon="6.73838">
        <ele>1479</ele>
        <time>2026-08-14T06:47:17.540Z</time>
      </trkpt>
      <trkpt lat="45.81711" lon="6.7384">
        <ele>1480</ele>
        <time>2026-08-14T06:47:18.540Z</time>
      </trkpt>
      <trkpt lat="45.8171" lon="6.73842">
        <ele>1480</ele>
        <time>2026-08-14T06:47:19.540Z</time>
      </trkpt>
      <trkpt lat="45.8171" lon="6.73844">
        <ele>1480</ele>
        <time>2026-08-14T06:47:20.540Z</time>
      </trkpt>
      <trkpt lat="45.8171" lon="6.73846">
        <ele>1480</ele>
        <time>2026-08-14T06:47:21.540Z</time>
      </trkpt>
      <trkpt lat="45.81709" lon="6.73847">
        <ele>1480</ele>
        <time>2026-08-14T06:47:22.540Z</time>
      </trkpt>
      <trkpt lat="45.81709" lon="6.73848">
        <ele>1480</ele>
        <time>2026-08-14T06:47:23.540Z</time>
      </trkpt>
      <trkpt lat="45.81709" lon="6.73849">
        <ele>1480</ele>
        <time>2026-08-14T06:47:24.540Z</time>
      </trkpt>
      <trkpt lat="45.81709" lon="6.7385">
        <ele>1480</ele>
        <time>2026-08-14T06:47:25.540Z</time>
      </trkpt>
      <trkpt lat="45.81708" lon="6.73851">
        <ele>1480</ele>
        <time>2026-08-14T06:47:26.540Z</time>
      </trkpt>
      <trkpt lat="45.81708" lon="6.73853">
        <ele>1480</ele>
        <time>2026-08-14T06:47:27.540Z</time>
      </trkpt>
      <trkpt lat="45.81707" lon="6.73854">
        <ele>1481</ele>
        <time>2026-08-14T06:47:28.540Z</time>
      </trkpt>
      <trkpt lat="45.81706" lon="6.73855">
        <ele>1481</ele>
        <time>2026-08-14T06:47:29.540Z</time>
      </trkpt>
      <trkpt lat="45.81706" lon="6.73856">
        <ele>1481</ele>
        <time>2026-08-14T06:47:30.540Z</time>
      </trkpt>
      <trkpt lat="45.81706" lon="6.73857">
        <ele>1481</ele>
        <time>2026-08-14T06:47:31.540Z</time>
      </trkpt>
      <trkpt lat="45.81705" lon="6.73857">
        <ele>1481</ele>
        <time>2026-08-14T06:47:32.540Z</time>
      </trkpt>
      <trkpt lat="45.81705" lon="6.73858">
        <ele>1481</ele>
        <time>2026-08-14T06:47:33.540Z</time>
      </trkpt>
      <trkpt lat="45.81705" lon="6.73859">
        <ele>1481</ele>
        <time>2026-08-14T06:47:34.540Z</time>
      </trkpt>
      <trkpt lat="45.81704" lon="6.7386">
        <ele>1482</ele>
        <time>2026-08-14T06:47:35.540Z</time>
      </trkpt>
      <trkpt lat="45.81704" lon="6.73861">
        <ele>1482</ele>
        <time>2026-08-14T06:47:36.540Z</time>
      </trkpt>
      <trkpt lat="45.81704" lon="6.73862">
        <ele>1482</ele>
        <time>2026-08-14T06:47:37.540Z</time>
      </trkpt>
      <trkpt lat="45.81704" lon="6.73861">
        <ele>1483</ele>
        <time>2026-08-14T06:47:38.540Z</time>
      </trkpt>
      <trkpt lat="45.81704" lon="6.73861">
        <ele>1483</ele>
        <time>2026-08-14T06:47:39.540Z</time>
      </trkpt>
      <trkpt lat="45.81704" lon="6.73861">
        <ele>1484</ele>
        <time>2026-08-14T06:47:40.540Z</time>
      </trkpt>
      <trkpt lat="45.81704" lon="6.73861">
        <ele>1485</ele>
        <time>2026-08-14T06:47:41.540Z</time>
      </trkpt>
      <trkpt lat="45.81704" lon="6.73862">
        <ele>1485</ele>
        <time>2026-08-14T06:47:42.540Z</time>
      </trkpt>
      <trkpt lat="45.81703" lon="6.73864">
        <ele>1486</ele>
        <time>2026-08-14T06:47:43.540Z</time>
      </trkpt>
      <trkpt lat="45.81703" lon="6.73866">
        <ele>1487</ele>
        <time>2026-08-14T06:47:44.540Z</time>
      </trkpt>
      <trkpt lat="45.81703" lon="6.73868">
        <ele>1487</ele>
        <time>2026-08-14T06:47:45.540Z</time>
      </trkpt>
      <trkpt lat="45.81703" lon="6.73869">
        <ele>1488</ele>
        <time>2026-08-14T06:47:46.540Z</time>
      </trkpt>
      <trkpt lat="45.81702" lon="6.73871">
        <ele>1489</ele>
        <time>2026-08-14T06:47:47.540Z</time>
      </trkpt>
      <trkpt lat="45.81702" lon="6.73874">
        <ele>1489</ele>
        <time>2026-08-14T06:47:48.540Z</time>
      </trkpt>
      <trkpt lat="45.81702" lon="6.73877">
        <ele>1490</ele>
        <time>2026-08-14T06:47:49.540Z</time>
      </trkpt>
      <trkpt lat="45.81701" lon="6.7388">
        <ele>1490</ele>
        <time>2026-08-14T06:47:50.540Z</time>
      </trkpt>
      <trkpt lat="45.81701" lon="6.73882">
        <ele>1491</ele>
        <time>2026-08-14T06:47:51.540Z</time>
      </trkpt>
      <trkpt lat="45.817" lon="6.73884">
        <ele>1491</ele>
        <time>2026-08-14T06:47:52.540Z</time>
      </trkpt>
      <trkpt lat="45.81698" lon="6.73886">
        <ele>1491</ele>
        <time>2026-08-14T06:47:53.540Z</time>
      </trkpt>
      <trkpt lat="45.81697" lon="6.73887">
        <ele>1491</ele>
        <time>2026-08-14T06:47:54.540Z</time>
      </trkpt>
      <trkpt lat="45.81696" lon="6.73889">
        <ele>1491</ele>
        <time>2026-08-14T06:47:55.540Z</time>
      </trkpt>
      <trkpt lat="45.81695" lon="6.7389">
        <ele>1491</ele>
        <time>2026-08-14T06:47:56.540Z</time>
      </trkpt>
      <trkpt lat="45.81695" lon="6.73892">
        <ele>1491</ele>
        <time>2026-08-14T06:47:57.540Z</time>
      </trkpt>
      <trkpt lat="45.81694" lon="6.73893">
        <ele>1490</ele>
        <time>2026-08-14T06:47:58.540Z</time>
      </trkpt>
      <trkpt lat="45.81693" lon="6.73894">
        <ele>1490</ele>
        <time>2026-08-14T06:47:59.540Z</time>
      </trkpt>
      <trkpt lat="45.81692" lon="6.73896">
        <ele>1490</ele>
        <time>2026-08-14T06:48:00.540Z</time>
      </trkpt>
      <trkpt lat="45.81691" lon="6.73897">
        <ele>1490</ele>
        <time>2026-08-14T06:48:01.540Z</time>
      </trkpt>
      <trkpt lat="45.81689" lon="6.73898">
        <ele>1489</ele>
        <time>2026-08-14T06:48:02.540Z</time>
      </trkpt>
      <trkpt lat="45.81688" lon="6.739">
        <ele>1489</ele>
        <time>2026-08-14T06:48:03.540Z</time>
      </trkpt>
      <trkpt lat="45.81687" lon="6.73901">
        <ele>1488</ele>
        <time>2026-08-14T06:48:04.540Z</time>
      </trkpt>
      <trkpt lat="45.81686" lon="6.73903">
        <ele>1488</ele>
        <time>2026-08-14T06:48:05.540Z</time>
      </trkpt>
      <trkpt lat="45.81685" lon="6.73905">
        <ele>1487</ele>
        <time>2026-08-14T06:48:06.540Z</time>
      </trkpt>
      <trkpt lat="45.81684" lon="6.73907">
        <ele>1487</ele>
        <time>2026-08-14T06:48:07.540Z</time>
      </trkpt>
      <trkpt lat="45.81682" lon="6.73909">
        <ele>1487</ele>
        <time>2026-08-14T06:48:08.540Z</time>
      </trkpt>
      <trkpt lat="45.81681" lon="6.7391">
        <ele>1487</ele>
        <time>2026-08-14T06:48:09.540Z</time>
      </trkpt>
      <trkpt lat="45.8168" lon="6.73911">
        <ele>1487</ele>
        <time>2026-08-14T06:48:10.540Z</time>
      </trkpt>
      <trkpt lat="45.81679" lon="6.73913">
        <ele>1487</ele>
        <time>2026-08-14T06:48:11.540Z</time>
      </trkpt>
      <trkpt lat="45.81678" lon="6.73914">
        <ele>1487</ele>
        <time>2026-08-14T06:48:12.540Z</time>
      </trkpt>
      <trkpt lat="45.81677" lon="6.73915">
        <ele>1487</ele>
        <time>2026-08-14T06:48:13.540Z</time>
      </trkpt>
      <trkpt lat="45.81676" lon="6.73916">
        <ele>1487</ele>
        <time>2026-08-14T06:48:14.540Z</time>
      </trkpt>
      <trkpt lat="45.81675" lon="6.73917">
        <ele>1487</ele>
        <time>2026-08-14T06:48:15.540Z</time>
      </trkpt>
      <trkpt lat="45.81673" lon="6.73918">
        <ele>1488</ele>
        <time>2026-08-14T06:48:16.540Z</time>
      </trkpt>
      <trkpt lat="45.81672" lon="6.73918">
        <ele>1488</ele>
        <time>2026-08-14T06:48:17.540Z</time>
      </trkpt>
      <trkpt lat="45.81671" lon="6.73919">
        <ele>1488</ele>
        <time>2026-08-14T06:48:18.540Z</time>
      </trkpt>
      <trkpt lat="45.8167" lon="6.7392">
        <ele>1488</ele>
        <time>2026-08-14T06:48:19.540Z</time>
      </trkpt>
      <trkpt lat="45.8167" lon="6.73922">
        <ele>1488</ele>
        <time>2026-08-14T06:48:20.540Z</time>
      </trkpt>
      <trkpt lat="45.81669" lon="6.73924">
        <ele>1488</ele>
        <time>2026-08-14T06:48:21.540Z</time>
      </trkpt>
      <trkpt lat="45.81669" lon="6.73926">
        <ele>1488</ele>
        <time>2026-08-14T06:48:22.540Z</time>
      </trkpt>
      <trkpt lat="45.81668" lon="6.73929">
        <ele>1488</ele>
        <time>2026-08-14T06:48:23.540Z</time>
      </trkpt>
      <trkpt lat="45.81668" lon="6.73932">
        <ele>1488</ele>
        <time>2026-08-14T06:48:24.540Z</time>
      </trkpt>
      <trkpt lat="45.81667" lon="6.73933">
        <ele>1488</ele>
        <time>2026-08-14T06:48:25.540Z</time>
      </trkpt>
      <trkpt lat="45.81666" lon="6.73936">
        <ele>1488</ele>
        <time>2026-08-14T06:48:26.540Z</time>
      </trkpt>
      <trkpt lat="45.81666" lon="6.73938">
        <ele>1487</ele>
        <time>2026-08-14T06:48:27.540Z</time>
      </trkpt>
      <trkpt lat="45.81665" lon="6.7394">
        <ele>1487</ele>
        <time>2026-08-14T06:48:28.540Z</time>
      </trkpt>
      <trkpt lat="45.81665" lon="6.73942">
        <ele>1487</ele>
        <time>2026-08-14T06:48:29.540Z</time>
      </trkpt>
      <trkpt lat="45.81665" lon="6.73945">
        <ele>1487</ele>
        <time>2026-08-14T06:48:30.540Z</time>
      </trkpt>
      <trkpt lat="45.81665" lon="6.73946">
        <ele>1487</ele>
        <time>2026-08-14T06:48:31.540Z</time>
      </trkpt>
      <trkpt lat="45.81665" lon="6.73948">
        <ele>1487</ele>
        <time>2026-08-14T06:48:32.540Z</time>
      </trkpt>
      <trkpt lat="45.81665" lon="6.7395">
        <ele>1487</ele>
        <time>2026-08-14T06:48:33.540Z</time>
      </trkpt>
      <trkpt lat="45.81665" lon="6.73952">
        <ele>1487</ele>
        <time>2026-08-14T06:48:34.540Z</time>
      </trkpt>
      <trkpt lat="45.81665" lon="6.73955">
        <ele>1487</ele>
        <time>2026-08-14T06:48:35.540Z</time>
      </trkpt>
      <trkpt lat="45.81665" lon="6.73958">
        <ele>1487</ele>
        <time>2026-08-14T06:48:36.540Z</time>
      </trkpt>
      <trkpt lat="45.81665" lon="6.7396">
        <ele>1487</ele>
        <time>2026-08-14T06:48:37.540Z</time>
      </trkpt>
      <trkpt lat="45.81665" lon="6.73962">
        <ele>1487</ele>
        <time>2026-08-14T06:48:38.540Z</time>
      </trkpt>
      <trkpt lat="45.81665" lon="6.73965">
        <ele>1487</ele>
        <time>2026-08-14T06:48:39.540Z</time>
      </trkpt>
      <trkpt lat="45.81665" lon="6.73968">
        <ele>1486</ele>
        <time>2026-08-14T06:48:40.540Z</time>
      </trkpt>
      <trkpt lat="45.81665" lon="6.7397">
        <ele>1486</ele>
        <time>2026-08-14T06:48:41.540Z</time>
      </trkpt>
      <trkpt lat="45.81665" lon="6.73973">
        <ele>1486</ele>
        <time>2026-08-14T06:48:42.540Z</time>
      </trkpt>
      <trkpt lat="45.81665" lon="6.73976">
        <ele>1487</ele>
        <time>2026-08-14T06:48:43.540Z</time>
      </trkpt>
      <trkpt lat="45.81665" lon="6.73978">
        <ele>1487</ele>
        <time>2026-08-14T06:48:44.540Z</time>
      </trkpt>
      <trkpt lat="45.81666" lon="6.73981">
        <ele>1487</ele>
        <time>2026-08-14T06:48:45.540Z</time>
      </trkpt>
      <trkpt lat="45.81666" lon="6.73983">
        <ele>1488</ele>
        <time>2026-08-14T06:48:46.540Z</time>
      </trkpt>
      <trkpt lat="45.81666" lon="6.73985">
        <ele>1488</ele>
        <time>2026-08-14T06:48:47.540Z</time>
      </trkpt>
      <trkpt lat="45.81666" lon="6.73988">
        <ele>1488</ele>
        <time>2026-08-14T06:48:48.540Z</time>
      </trkpt>
      <trkpt lat="45.81665" lon="6.7399">
        <ele>1489</ele>
        <time>2026-08-14T06:48:49.540Z</time>
      </trkpt>
      <trkpt lat="45.81665" lon="6.73991">
        <ele>1489</ele>
        <time>2026-08-14T06:48:50.540Z</time>
      </trkpt>
      <trkpt lat="45.81665" lon="6.73993">
        <ele>1489</ele>
        <time>2026-08-14T06:48:51.540Z</time>
      </trkpt>
      <trkpt lat="45.81665" lon="6.73995">
        <ele>1490</ele>
        <time>2026-08-14T06:48:52.540Z</time>
      </trkpt>
      <trkpt lat="45.81666" lon="6.73998">
        <ele>1490</ele>
        <time>2026-08-14T06:48:53.540Z</time>
      </trkpt>
      <trkpt lat="45.81666" lon="6.74">
        <ele>1490</ele>
        <time>2026-08-14T06:48:54.540Z</time>
      </trkpt>
      <trkpt lat="45.81667" lon="6.74004">
        <ele>1490</ele>
        <time>2026-08-14T06:48:55.540Z</time>
      </trkpt>
      <trkpt lat="45.81668" lon="6.74007">
        <ele>1491</ele>
        <time>2026-08-14T06:48:56.540Z</time>
      </trkpt>
      <trkpt lat="45.81669" lon="6.74008">
        <ele>1491</ele>
        <time>2026-08-14T06:48:57.540Z</time>
      </trkpt>
      <trkpt lat="45.81669" lon="6.74011">
        <ele>1491</ele>
        <time>2026-08-14T06:48:58.540Z</time>
      </trkpt>
      <trkpt lat="45.81669" lon="6.74013">
        <ele>1492</ele>
        <time>2026-08-14T06:48:59.540Z</time>
      </trkpt>
      <trkpt lat="45.81669" lon="6.74016">
        <ele>1492</ele>
        <time>2026-08-14T06:49:00.540Z</time>
      </trkpt>
      <trkpt lat="45.81669" lon="6.74019">
        <ele>1492</ele>
        <time>2026-08-14T06:49:01.540Z</time>
      </trkpt>
      <trkpt lat="45.81669" lon="6.74022">
        <ele>1492</ele>
        <time>2026-08-14T06:49:02.540Z</time>
      </trkpt>
      <trkpt lat="45.81668" lon="6.74024">
        <ele>1492</ele>
        <time>2026-08-14T06:49:03.540Z</time>
      </trkpt>
      <trkpt lat="45.81667" lon="6.74027">
        <ele>1492</ele>
        <time>2026-08-14T06:49:04.540Z</time>
      </trkpt>
      <trkpt lat="45.81666" lon="6.7403">
        <ele>1493</ele>
        <time>2026-08-14T06:49:05.540Z</time>
      </trkpt>
      <trkpt lat="45.81665" lon="6.74032">
        <ele>1494</ele>
        <time>2026-08-14T06:49:06.540Z</time>
      </trkpt>
      <trkpt lat="45.81663" lon="6.74035">
        <ele>1494</ele>
        <time>2026-08-14T06:49:07.540Z</time>
      </trkpt>
      <trkpt lat="45.81661" lon="6.74037">
        <ele>1495</ele>
        <time>2026-08-14T06:49:08.540Z</time>
      </trkpt>
      <trkpt lat="45.8166" lon="6.74039">
        <ele>1495</ele>
        <time>2026-08-14T06:49:09.540Z</time>
      </trkpt>
      <trkpt lat="45.81659" lon="6.74042">
        <ele>1495</ele>
        <time>2026-08-14T06:49:10.540Z</time>
      </trkpt>
      <trkpt lat="45.81659" lon="6.74044">
        <ele>1496</ele>
        <time>2026-08-14T06:49:11.540Z</time>
      </trkpt>
      <trkpt lat="45.81658" lon="6.74046">
        <ele>1496</ele>
        <time>2026-08-14T06:49:12.540Z</time>
      </trkpt>
      <trkpt lat="45.81657" lon="6.74048">
        <ele>1496</ele>
        <time>2026-08-14T06:49:13.540Z</time>
      </trkpt>
      <trkpt lat="45.81656" lon="6.7405">
        <ele>1496</ele>
        <time>2026-08-14T06:49:14.540Z</time>
      </trkpt>
      <trkpt lat="45.81656" lon="6.74052">
        <ele>1495</ele>
        <time>2026-08-14T06:49:15.540Z</time>
      </trkpt>
      <trkpt lat="45.81655" lon="6.74054">
        <ele>1495</ele>
        <time>2026-08-14T06:49:16.540Z</time>
      </trkpt>
      <trkpt lat="45.81655" lon="6.74056">
        <ele>1495</ele>
        <time>2026-08-14T06:49:17.540Z</time>
      </trkpt>
      <trkpt lat="45.81654" lon="6.74058">
        <ele>1495</ele>
        <time>2026-08-14T06:49:18.540Z</time>
      </trkpt>
      <trkpt lat="45.81654" lon="6.7406">
        <ele>1494</ele>
        <time>2026-08-14T06:49:19.540Z</time>
      </trkpt>
      <trkpt lat="45.81653" lon="6.74062">
        <ele>1494</ele>
        <time>2026-08-14T06:49:20.540Z</time>
      </trkpt>
      <trkpt lat="45.81652" lon="6.74065">
        <ele>1494</ele>
        <time>2026-08-14T06:49:21.540Z</time>
      </trkpt>
      <trkpt lat="45.81651" lon="6.74067">
        <ele>1494</ele>
        <time>2026-08-14T06:49:22.540Z</time>
      </trkpt>
      <trkpt lat="45.81651" lon="6.74069">
        <ele>1494</ele>
        <time>2026-08-14T06:49:23.540Z</time>
      </trkpt>
      <trkpt lat="45.8165" lon="6.74072">
        <ele>1494</ele>
        <time>2026-08-14T06:49:24.540Z</time>
      </trkpt>
      <trkpt lat="45.8165" lon="6.74075">
        <ele>1494</ele>
        <time>2026-08-14T06:49:25.540Z</time>
      </trkpt>
      <trkpt lat="45.81649" lon="6.74077">
        <ele>1494</ele>
        <time>2026-08-14T06:49:26.540Z</time>
      </trkpt>
      <trkpt lat="45.81649" lon="6.7408">
        <ele>1494</ele>
        <time>2026-08-14T06:49:27.540Z</time>
      </trkpt>
      <trkpt lat="45.81648" lon="6.74083">
        <ele>1494</ele>
        <time>2026-08-14T06:49:28.540Z</time>
      </trkpt>
      <trkpt lat="45.81646" lon="6.74086">
        <ele>1493</ele>
        <time>2026-08-14T06:49:29.540Z</time>
      </trkpt>
      <trkpt lat="45.81646" lon="6.7409">
        <ele>1493</ele>
        <time>2026-08-14T06:49:30.540Z</time>
      </trkpt>
      <trkpt lat="45.81645" lon="6.74092">
        <ele>1492</ele>
        <time>2026-08-14T06:49:31.540Z</time>
      </trkpt>
      <trkpt lat="45.81645" lon="6.74094">
        <ele>1492</ele>
        <time>2026-08-14T06:49:32.540Z</time>
      </trkpt>
      <trkpt lat="45.81645" lon="6.74096">
        <ele>1491</ele>
        <time>2026-08-14T06:49:33.540Z</time>
      </trkpt>
      <trkpt lat="45.81646" lon="6.74099">
        <ele>1490</ele>
        <time>2026-08-14T06:49:34.540Z</time>
      </trkpt>
      <trkpt lat="45.81646" lon="6.74102">
        <ele>1490</ele>
        <time>2026-08-14T06:49:35.540Z</time>
      </trkpt>
      <trkpt lat="45.81646" lon="6.74105">
        <ele>1489</ele>
        <time>2026-08-14T06:49:36.540Z</time>
      </trkpt>
      <trkpt lat="45.81646" lon="6.74107">
        <ele>1489</ele>
        <time>2026-08-14T06:49:37.540Z</time>
      </trkpt>
      <trkpt lat="45.81646" lon="6.7411">
        <ele>1489</ele>
        <time>2026-08-14T06:49:38.540Z</time>
      </trkpt>
      <trkpt lat="45.81646" lon="6.74112">
        <ele>1489</ele>
        <time>2026-08-14T06:49:39.540Z</time>
      </trkpt>
      <trkpt lat="45.81646" lon="6.74115">
        <ele>1488</ele>
        <time>2026-08-14T06:49:40.540Z</time>
      </trkpt>
      <trkpt lat="45.81646" lon="6.74119">
        <ele>1488</ele>
        <time>2026-08-14T06:49:41.540Z</time>
      </trkpt>
      <trkpt lat="45.81645" lon="6.74122">
        <ele>1488</ele>
        <time>2026-08-14T06:49:42.540Z</time>
      </trkpt>
      <trkpt lat="45.81646" lon="6.74124">
        <ele>1488</ele>
        <time>2026-08-14T06:49:43.540Z</time>
      </trkpt>
      <trkpt lat="45.81646" lon="6.74126">
        <ele>1488</ele>
        <time>2026-08-14T06:49:44.540Z</time>
      </trkpt>
      <trkpt lat="45.81646" lon="6.74129">
        <ele>1489</ele>
        <time>2026-08-14T06:49:45.540Z</time>
      </trkpt>
      <trkpt lat="45.81646" lon="6.74131">
        <ele>1489</ele>
        <time>2026-08-14T06:49:46.540Z</time>
      </trkpt>
      <trkpt lat="45.81646" lon="6.74134">
        <ele>1489</ele>
        <time>2026-08-14T06:49:47.540Z</time>
      </trkpt>
      <trkpt lat="45.81646" lon="6.74136">
        <ele>1489</ele>
        <time>2026-08-14T06:49:48.540Z</time>
      </trkpt>
      <trkpt lat="45.81646" lon="6.74139">
        <ele>1490</ele>
        <time>2026-08-14T06:49:49.540Z</time>
      </trkpt>
      <trkpt lat="45.81646" lon="6.74141">
        <ele>1490</ele>
        <time>2026-08-14T06:49:50.540Z</time>
      </trkpt>
      <trkpt lat="45.81646" lon="6.74142">
        <ele>1490</ele>
        <time>2026-08-14T06:49:51.540Z</time>
      </trkpt>
      <trkpt lat="45.81645" lon="6.74145">
        <ele>1490</ele>
        <time>2026-08-14T06:49:52.540Z</time>
      </trkpt>
      <trkpt lat="45.81645" lon="6.74147">
        <ele>1490</ele>
        <time>2026-08-14T06:49:53.540Z</time>
      </trkpt>
      <trkpt lat="45.81645" lon="6.74148">
        <ele>1491</ele>
        <time>2026-08-14T06:49:54.540Z</time>
      </trkpt>
      <trkpt lat="45.81645" lon="6.7415">
        <ele>1491</ele>
        <time>2026-08-14T06:49:55.540Z</time>
      </trkpt>
      <trkpt lat="45.81645" lon="6.74152">
        <ele>1491</ele>
        <time>2026-08-14T06:49:56.540Z</time>
      </trkpt>
      <trkpt lat="45.81645" lon="6.74154">
        <ele>1491</ele>
        <time>2026-08-14T06:49:57.540Z</time>
      </trkpt>
      <trkpt lat="45.81645" lon="6.74156">
        <ele>1491</ele>
        <time>2026-08-14T06:49:58.540Z</time>
      </trkpt>
      <trkpt lat="45.81644" lon="6.74158">
        <ele>1491</ele>
        <time>2026-08-14T06:49:59.540Z</time>
      </trkpt>
      <trkpt lat="45.81644" lon="6.7416">
        <ele>1492</ele>
        <time>2026-08-14T06:50:00.540Z</time>
      </trkpt>
      <trkpt lat="45.81644" lon="6.74161">
        <ele>1492</ele>
        <time>2026-08-14T06:50:01.540Z</time>
      </trkpt>
      <trkpt lat="45.81644" lon="6.74163">
        <ele>1493</ele>
        <time>2026-08-14T06:50:02.540Z</time>
      </trkpt>
      <trkpt lat="45.81644" lon="6.74166">
        <ele>1494</ele>
        <time>2026-08-14T06:50:03.540Z</time>
      </trkpt>
      <trkpt lat="45.81643" lon="6.74168">
        <ele>1494</ele>
        <time>2026-08-14T06:50:04.540Z</time>
      </trkpt>
      <trkpt lat="45.81643" lon="6.7417">
        <ele>1495</ele>
        <time>2026-08-14T06:50:05.540Z</time>
      </trkpt>
      <trkpt lat="45.81642" lon="6.74173">
        <ele>1496</ele>
        <time>2026-08-14T06:50:06.540Z</time>
      </trkpt>
      <trkpt lat="45.81642" lon="6.74175">
        <ele>1497</ele>
        <time>2026-08-14T06:50:07.540Z</time>
      </trkpt>
      <trkpt lat="45.81641" lon="6.74177">
        <ele>1498</ele>
        <time>2026-08-14T06:50:08.540Z</time>
      </trkpt>
      <trkpt lat="45.81641" lon="6.74179">
        <ele>1499</ele>
        <time>2026-08-14T06:50:09.540Z</time>
      </trkpt>
      <trkpt lat="45.81641" lon="6.7418">
        <ele>1500</ele>
        <time>2026-08-14T06:50:10.540Z</time>
      </trkpt>
      <trkpt lat="45.81641" lon="6.74181">
        <ele>1500</ele>
        <time>2026-08-14T06:50:11.540Z</time>
      </trkpt>
      <trkpt lat="45.8164" lon="6.74183">
        <ele>1501</ele>
        <time>2026-08-14T06:50:12.540Z</time>
      </trkpt>
      <trkpt lat="45.8164" lon="6.74185">
        <ele>1502</ele>
        <time>2026-08-14T06:50:13.540Z</time>
      </trkpt>
      <trkpt lat="45.8164" lon="6.74187">
        <ele>1503</ele>
        <time>2026-08-14T06:50:14.540Z</time>
      </trkpt>
      <trkpt lat="45.8164" lon="6.74189">
        <ele>1503</ele>
        <time>2026-08-14T06:50:15.540Z</time>
      </trkpt>
      <trkpt lat="45.81639" lon="6.74192">
        <ele>1504</ele>
        <time>2026-08-14T06:50:16.540Z</time>
      </trkpt>
      <trkpt lat="45.81639" lon="6.74194">
        <ele>1504</ele>
        <time>2026-08-14T06:50:17.540Z</time>
      </trkpt>
      <trkpt lat="45.81638" lon="6.74197">
        <ele>1504</ele>
        <time>2026-08-14T06:50:18.540Z</time>
      </trkpt>
      <trkpt lat="45.81637" lon="6.74199">
        <ele>1505</ele>
        <time>2026-08-14T06:50:19.540Z</time>
      </trkpt>
      <trkpt lat="45.81637" lon="6.74201">
        <ele>1505</ele>
        <time>2026-08-14T06:50:20.540Z</time>
      </trkpt>
      <trkpt lat="45.81636" lon="6.74203">
        <ele>1505</ele>
        <time>2026-08-14T06:50:21.540Z</time>
      </trkpt>
      <trkpt lat="45.81635" lon="6.74205">
        <ele>1506</ele>
        <time>2026-08-14T06:50:22.540Z</time>
      </trkpt>
      <trkpt lat="45.81634" lon="6.74207">
        <ele>1506</ele>
        <time>2026-08-14T06:50:23.540Z</time>
      </trkpt>
      <trkpt lat="45.81633" lon="6.74209">
        <ele>1507</ele>
        <time>2026-08-14T06:50:24.540Z</time>
      </trkpt>
      <trkpt lat="45.81632" lon="6.74211">
        <ele>1507</ele>
        <time>2026-08-14T06:50:25.540Z</time>
      </trkpt>
      <trkpt lat="45.81632" lon="6.74213">
        <ele>1508</ele>
        <time>2026-08-14T06:50:26.540Z</time>
      </trkpt>
      <trkpt lat="45.81632" lon="6.74215">
        <ele>1508</ele>
        <time>2026-08-14T06:50:27.540Z</time>
      </trkpt>
      <trkpt lat="45.81631" lon="6.74216">
        <ele>1509</ele>
        <time>2026-08-14T06:50:28.540Z</time>
      </trkpt>
      <trkpt lat="45.81631" lon="6.74218">
        <ele>1509</ele>
        <time>2026-08-14T06:50:29.540Z</time>
      </trkpt>
      <trkpt lat="45.8163" lon="6.74219">
        <ele>1509</ele>
        <time>2026-08-14T06:50:30.540Z</time>
      </trkpt>
      <trkpt lat="45.8163" lon="6.74221">
        <ele>1510</ele>
        <time>2026-08-14T06:50:31.540Z</time>
      </trkpt>
      <trkpt lat="45.81629" lon="6.74223">
        <ele>1510</ele>
        <time>2026-08-14T06:50:32.540Z</time>
      </trkpt>
      <trkpt lat="45.81628" lon="6.74225">
        <ele>1510</ele>
        <time>2026-08-14T06:50:33.540Z</time>
      </trkpt>
      <trkpt lat="45.81627" lon="6.74228">
        <ele>1510</ele>
        <time>2026-08-14T06:50:34.540Z</time>
      </trkpt>
      <trkpt lat="45.81626" lon="6.7423">
        <ele>1510</ele>
        <time>2026-08-14T06:50:35.540Z</time>
      </trkpt>
      <trkpt lat="45.81626" lon="6.74232">
        <ele>1510</ele>
        <time>2026-08-14T06:50:36.540Z</time>
      </trkpt>
      <trkpt lat="45.81625" lon="6.74234">
        <ele>1510</ele>
        <time>2026-08-14T06:50:37.540Z</time>
      </trkpt>
      <trkpt lat="45.81624" lon="6.74236">
        <ele>1510</ele>
        <time>2026-08-14T06:50:38.540Z</time>
      </trkpt>
      <trkpt lat="45.81623" lon="6.74237">
        <ele>1510</ele>
        <time>2026-08-14T06:50:39.540Z</time>
      </trkpt>
      <trkpt lat="45.81623" lon="6.74239">
        <ele>1510</ele>
        <time>2026-08-14T06:50:40.540Z</time>
      </trkpt>
      <trkpt lat="45.81622" lon="6.74241">
        <ele>1510</ele>
        <time>2026-08-14T06:50:41.540Z</time>
      </trkpt>
      <trkpt lat="45.81622" lon="6.74243">
        <ele>1510</ele>
        <time>2026-08-14T06:50:42.540Z</time>
      </trkpt>
      <trkpt lat="45.81622" lon="6.74245">
        <ele>1510</ele>
        <time>2026-08-14T06:50:43.540Z</time>
      </trkpt>
      <trkpt lat="45.81621" lon="6.74246">
        <ele>1510</ele>
        <time>2026-08-14T06:50:44.540Z</time>
      </trkpt>
      <trkpt lat="45.81621" lon="6.74247">
        <ele>1510</ele>
        <time>2026-08-14T06:50:45.540Z</time>
      </trkpt>
      <trkpt lat="45.8162" lon="6.74249">
        <ele>1510</ele>
        <time>2026-08-14T06:50:46.540Z</time>
      </trkpt>
      <trkpt lat="45.8162" lon="6.7425">
        <ele>1511</ele>
        <time>2026-08-14T06:50:47.540Z</time>
      </trkpt>
      <trkpt lat="45.8162" lon="6.74251">
        <ele>1511</ele>
        <time>2026-08-14T06:50:48.540Z</time>
      </trkpt>
      <trkpt lat="45.81621" lon="6.74252">
        <ele>1511</ele>
        <time>2026-08-14T06:50:49.540Z</time>
      </trkpt>
      <trkpt lat="45.81621" lon="6.74253">
        <ele>1512</ele>
        <time>2026-08-14T06:50:50.540Z</time>
      </trkpt>
      <trkpt lat="45.81621" lon="6.74254">
        <ele>1512</ele>
        <time>2026-08-14T06:50:51.540Z</time>
      </trkpt>
      <trkpt lat="45.81621" lon="6.74255">
        <ele>1513</ele>
        <time>2026-08-14T06:50:52.540Z</time>
      </trkpt>
      <trkpt lat="45.81622" lon="6.74256">
        <ele>1513</ele>
        <time>2026-08-14T06:50:53.540Z</time>
      </trkpt>
      <trkpt lat="45.81622" lon="6.74257">
        <ele>1514</ele>
        <time>2026-08-14T06:50:54.540Z</time>
      </trkpt>
      <trkpt lat="45.81622" lon="6.74258">
        <ele>1514</ele>
        <time>2026-08-14T06:50:55.540Z</time>
      </trkpt>
      <trkpt lat="45.81622" lon="6.7426">
        <ele>1514</ele>
        <time>2026-08-14T06:50:56.540Z</time>
      </trkpt>
      <trkpt lat="45.81622" lon="6.74261">
        <ele>1515</ele>
        <time>2026-08-14T06:50:57.540Z</time>
      </trkpt>
      <trkpt lat="45.81622" lon="6.74263">
        <ele>1516</ele>
        <time>2026-08-14T06:50:58.540Z</time>
      </trkpt>
      <trkpt lat="45.81622" lon="6.74263">
        <ele>1516</ele>
        <time>2026-08-14T06:50:59.540Z</time>
      </trkpt>
      <trkpt lat="45.81622" lon="6.74264">
        <ele>1516</ele>
        <time>2026-08-14T06:51:00.540Z</time>
      </trkpt>
      <trkpt lat="45.81623" lon="6.74264">
        <ele>1517</ele>
        <time>2026-08-14T06:51:01.540Z</time>
      </trkpt>
      <trkpt lat="45.81623" lon="6.74265">
        <ele>1517</ele>
        <time>2026-08-14T06:51:02.540Z</time>
      </trkpt>
      <trkpt lat="45.81623" lon="6.74266">
        <ele>1516</ele>
        <time>2026-08-14T06:51:03.540Z</time>
      </trkpt>
      <trkpt lat="45.81623" lon="6.74267">
        <ele>1516</ele>
        <time>2026-08-14T06:51:04.540Z</time>
      </trkpt>
      <trkpt lat="45.81623" lon="6.74268">
        <ele>1516</ele>
        <time>2026-08-14T06:51:05.540Z</time>
      </trkpt>
      <trkpt lat="45.81623" lon="6.74269">
        <ele>1515</ele>
        <time>2026-08-14T06:51:06.540Z</time>
      </trkpt>
      <trkpt lat="45.81623" lon="6.7427">
        <ele>1515</ele>
        <time>2026-08-14T06:51:07.540Z</time>
      </trkpt>
      <trkpt lat="45.81622" lon="6.74271">
        <ele>1515</ele>
        <time>2026-08-14T06:51:08.540Z</time>
      </trkpt>
      <trkpt lat="45.81622" lon="6.74273">
        <ele>1515</ele>
        <time>2026-08-14T06:51:09.540Z</time>
      </trkpt>
      <trkpt lat="45.81621" lon="6.74275">
        <ele>1515</ele>
        <time>2026-08-14T06:51:10.540Z</time>
      </trkpt>
      <trkpt lat="45.81621" lon="6.74276">
        <ele>1515</ele>
        <time>2026-08-14T06:51:11.540Z</time>
      </trkpt>
      <trkpt lat="45.81621" lon="6.74276">
        <ele>1515</ele>
        <time>2026-08-14T06:51:12.540Z</time>
      </trkpt>
      <trkpt lat="45.81621" lon="6.74277">
        <ele>1515</ele>
        <time>2026-08-14T06:51:13.540Z</time>
      </trkpt>
      <trkpt lat="45.81621" lon="6.74278">
        <ele>1515</ele>
        <time>2026-08-14T06:51:14.540Z</time>
      </trkpt>
      <trkpt lat="45.8162" lon="6.74278">
        <ele>1515</ele>
        <time>2026-08-14T06:51:15.540Z</time>
      </trkpt>
      <trkpt lat="45.8162" lon="6.74279">
        <ele>1516</ele>
        <time>2026-08-14T06:51:16.540Z</time>
      </trkpt>
      <trkpt lat="45.8162" lon="6.7428">
        <ele>1516</ele>
        <time>2026-08-14T06:51:17.540Z</time>
      </trkpt>
      <trkpt lat="45.8162" lon="6.7428">
        <ele>1516</ele>
        <time>2026-08-14T06:51:18.540Z</time>
      </trkpt>
      <trkpt lat="45.8162" lon="6.74281">
        <ele>1517</ele>
        <time>2026-08-14T06:51:19.540Z</time>
      </trkpt>
      <trkpt lat="45.81621" lon="6.74282">
        <ele>1517</ele>
        <time>2026-08-14T06:51:20.540Z</time>
      </trkpt>
      <trkpt lat="45.81621" lon="6.74282">
        <ele>1518</ele>
        <time>2026-08-14T06:51:21.540Z</time>
      </trkpt>
      <trkpt lat="45.81621" lon="6.74282">
        <ele>1519</ele>
        <time>2026-08-14T06:51:22.540Z</time>
      </trkpt>
      <trkpt lat="45.81621" lon="6.74283">
        <ele>1519</ele>
        <time>2026-08-14T06:51:23.540Z</time>
      </trkpt>
      <trkpt lat="45.81621" lon="6.74285">
        <ele>1520</ele>
        <time>2026-08-14T06:51:24.540Z</time>
      </trkpt>
      <trkpt lat="45.81621" lon="6.74286">
        <ele>1520</ele>
        <time>2026-08-14T06:51:25.540Z</time>
      </trkpt>
      <trkpt lat="45.81622" lon="6.74288">
        <ele>1521</ele>
        <time>2026-08-14T06:51:26.540Z</time>
      </trkpt>
      <trkpt lat="45.81623" lon="6.7429">
        <ele>1521</ele>
        <time>2026-08-14T06:51:27.540Z</time>
      </trkpt>
      <trkpt lat="45.81624" lon="6.7429">
        <ele>1521</ele>
        <time>2026-08-14T06:51:28.540Z</time>
      </trkpt>
      <trkpt lat="45.81624" lon="6.74292">
        <ele>1521</ele>
        <time>2026-08-14T06:51:29.540Z</time>
      </trkpt>
      <trkpt lat="45.81624" lon="6.74294">
        <ele>1521</ele>
        <time>2026-08-14T06:51:30.540Z</time>
      </trkpt>
      <trkpt lat="45.81623" lon="6.74295">
        <ele>1521</ele>
        <time>2026-08-14T06:51:31.540Z</time>
      </trkpt>
      <trkpt lat="45.81623" lon="6.74296">
        <ele>1521</ele>
        <time>2026-08-14T06:51:32.540Z</time>
      </trkpt>
      <trkpt lat="45.81623" lon="6.74297">
        <ele>1521</ele>
        <time>2026-08-14T06:51:33.540Z</time>
      </trkpt>
      <trkpt lat="45.81623" lon="6.74298">
        <ele>1521</ele>
        <time>2026-08-14T06:51:34.540Z</time>
      </trkpt>
      <trkpt lat="45.81623" lon="6.74299">
        <ele>1522</ele>
        <time>2026-08-14T06:51:35.540Z</time>
      </trkpt>
      <trkpt lat="45.81623" lon="6.74299">
        <ele>1522</ele>
        <time>2026-08-14T06:51:36.540Z</time>
      </trkpt>
      <trkpt lat="45.81623" lon="6.743">
        <ele>1523</ele>
        <time>2026-08-14T06:51:37.540Z</time>
      </trkpt>
      <trkpt lat="45.81623" lon="6.74301">
        <ele>1523</ele>
        <time>2026-08-14T06:51:38.540Z</time>
      </trkpt>
      <trkpt lat="45.81622" lon="6.74302">
        <ele>1524</ele>
        <time>2026-08-14T06:51:39.540Z</time>
      </trkpt>
      <trkpt lat="45.81622" lon="6.74303">
        <ele>1525</ele>
        <time>2026-08-14T06:51:40.540Z</time>
      </trkpt>
      <trkpt lat="45.81623" lon="6.74304">
        <ele>1525</ele>
        <time>2026-08-14T06:51:41.540Z</time>
      </trkpt>
      <trkpt lat="45.81624" lon="6.74305">
        <ele>1526</ele>
        <time>2026-08-14T06:51:42.540Z</time>
      </trkpt>
      <trkpt lat="45.81624" lon="6.74307">
        <ele>1526</ele>
        <time>2026-08-14T06:51:43.540Z</time>
      </trkpt>
      <trkpt lat="45.81623" lon="6.74309">
        <ele>1527</ele>
        <time>2026-08-14T06:51:44.540Z</time>
      </trkpt>
      <trkpt lat="45.81623" lon="6.7431">
        <ele>1527</ele>
        <time>2026-08-14T06:51:45.540Z</time>
      </trkpt>
      <trkpt lat="45.81623" lon="6.74312">
        <ele>1528</ele>
        <time>2026-08-14T06:51:46.540Z</time>
      </trkpt>
      <trkpt lat="45.81623" lon="6.74314">
        <ele>1528</ele>
        <time>2026-08-14T06:51:47.540Z</time>
      </trkpt>
      <trkpt lat="45.81622" lon="6.74316">
        <ele>1529</ele>
        <time>2026-08-14T06:51:48.540Z</time>
      </trkpt>
      <trkpt lat="45.81622" lon="6.74317">
        <ele>1529</ele>
        <time>2026-08-14T06:51:49.540Z</time>
      </trkpt>
      <trkpt lat="45.81621" lon="6.74319">
        <ele>1530</ele>
        <time>2026-08-14T06:51:50.540Z</time>
      </trkpt>
      <trkpt lat="45.81621" lon="6.7432">
        <ele>1530</ele>
        <time>2026-08-14T06:51:51.540Z</time>
      </trkpt>
      <trkpt lat="45.81621" lon="6.74323">
        <ele>1531</ele>
        <time>2026-08-14T06:51:52.540Z</time>
      </trkpt>
      <trkpt lat="45.81621" lon="6.74325">
        <ele>1532</ele>
        <time>2026-08-14T06:51:53.540Z</time>
      </trkpt>
      <trkpt lat="45.81622" lon="6.74326">
        <ele>1532</ele>
        <time>2026-08-14T06:51:54.540Z</time>
      </trkpt>
      <trkpt lat="45.81622" lon="6.74327">
        <ele>1533</ele>
        <time>2026-08-14T06:51:55.540Z</time>
      </trkpt>
      <trkpt lat="45.81622" lon="6.74328">
        <ele>1533</ele>
        <time>2026-08-14T06:51:56.540Z</time>
      </trkpt>
      <trkpt lat="45.81622" lon="6.7433">
        <ele>1533</ele>
        <time>2026-08-14T06:51:57.540Z</time>
      </trkpt>
      <trkpt lat="45.81622" lon="6.74331">
        <ele>1534</ele>
        <time>2026-08-14T06:51:58.540Z</time>
      </trkpt>
      <trkpt lat="45.81622" lon="6.74332">
        <ele>1534</ele>
        <time>2026-08-14T06:51:59.540Z</time>
      </trkpt>
      <trkpt lat="45.81622" lon="6.74333">
        <ele>1534</ele>
        <time>2026-08-14T06:52:00.540Z</time>
      </trkpt>
      <trkpt lat="45.81622" lon="6.74334">
        <ele>1534</ele>
        <time>2026-08-14T06:52:01.540Z</time>
      </trkpt>
      <trkpt lat="45.81622" lon="6.74335">
        <ele>1534</ele>
        <time>2026-08-14T06:52:02.540Z</time>
      </trkpt>
      <trkpt lat="45.81622" lon="6.74336">
        <ele>1535</ele>
        <time>2026-08-14T06:52:03.540Z</time>
      </trkpt>
      <trkpt lat="45.81622" lon="6.74337">
        <ele>1535</ele>
        <time>2026-08-14T06:52:04.540Z</time>
      </trkpt>
      <trkpt lat="45.81622" lon="6.74337">
        <ele>1536</ele>
        <time>2026-08-14T06:52:05.540Z</time>
      </trkpt>
      <trkpt lat="45.81621" lon="6.74338">
        <ele>1536</ele>
        <time>2026-08-14T06:52:06.540Z</time>
      </trkpt>
      <trkpt lat="45.81621" lon="6.74339">
        <ele>1537</ele>
        <time>2026-08-14T06:52:07.540Z</time>
      </trkpt>
      <trkpt lat="45.81621" lon="6.7434">
        <ele>1537</ele>
        <time>2026-08-14T06:52:08.540Z</time>
      </trkpt>
      <trkpt lat="45.8162" lon="6.74341">
        <ele>1538</ele>
        <time>2026-08-14T06:52:09.540Z</time>
      </trkpt>
      <trkpt lat="45.8162" lon="6.74342">
        <ele>1538</ele>
        <time>2026-08-14T06:52:10.540Z</time>
      </trkpt>
      <trkpt lat="45.8162" lon="6.74343">
        <ele>1538</ele>
        <time>2026-08-14T06:52:11.540Z</time>
      </trkpt>
      <trkpt lat="45.8162" lon="6.74345">
        <ele>1537</ele>
        <time>2026-08-14T06:52:12.540Z</time>
      </trkpt>
      <trkpt lat="45.8162" lon="6.74347">
        <ele>1537</ele>
        <time>2026-08-14T06:52:13.540Z</time>
      </trkpt>
      <trkpt lat="45.8162" lon="6.74349">
        <ele>1537</ele>
        <time>2026-08-14T06:52:14.540Z</time>
      </trkpt>
      <trkpt lat="45.8162" lon="6.74351">
        <ele>1537</ele>
        <time>2026-08-14T06:52:15.540Z</time>
      </trkpt>
      <trkpt lat="45.81621" lon="6.74352">
        <ele>1537</ele>
        <time>2026-08-14T06:52:16.540Z</time>
      </trkpt>
      <trkpt lat="45.81621" lon="6.74353">
        <ele>1537</ele>
        <time>2026-08-14T06:52:17.540Z</time>
      </trkpt>
      <trkpt lat="45.81621" lon="6.74355">
        <ele>1538</ele>
        <time>2026-08-14T06:52:18.540Z</time>
      </trkpt>
      <trkpt lat="45.81621" lon="6.74356">
        <ele>1538</ele>
        <time>2026-08-14T06:52:19.540Z</time>
      </trkpt>
      <trkpt lat="45.81621" lon="6.74357">
        <ele>1538</ele>
        <time>2026-08-14T06:52:20.540Z</time>
      </trkpt>
      <trkpt lat="45.81621" lon="6.74358">
        <ele>1538</ele>
        <time>2026-08-14T06:52:21.540Z</time>
      </trkpt>
      <trkpt lat="45.81621" lon="6.74359">
        <ele>1538</ele>
        <time>2026-08-14T06:52:22.540Z</time>
      </trkpt>
      <trkpt lat="45.81621" lon="6.7436">
        <ele>1538</ele>
        <time>2026-08-14T06:52:23.540Z</time>
      </trkpt>
      <trkpt lat="45.81621" lon="6.74361">
        <ele>1538</ele>
        <time>2026-08-14T06:52:24.540Z</time>
      </trkpt>
      <trkpt lat="45.81621" lon="6.74363">
        <ele>1538</ele>
        <time>2026-08-14T06:52:25.540Z</time>
      </trkpt>
      <trkpt lat="45.81621" lon="6.74364">
        <ele>1537</ele>
        <time>2026-08-14T06:52:26.540Z</time>
      </trkpt>
      <trkpt lat="45.81621" lon="6.74364">
        <ele>1536</ele>
        <time>2026-08-14T06:52:27.540Z</time>
      </trkpt>
      <trkpt lat="45.81621" lon="6.74365">
        <ele>1536</ele>
        <time>2026-08-14T06:52:28.540Z</time>
      </trkpt>
      <trkpt lat="45.81619" lon="6.74366">
        <ele>1535</ele>
        <time>2026-08-14T06:52:29.540Z</time>
      </trkpt>
      <trkpt lat="45.81618" lon="6.74368">
        <ele>1535</ele>
        <time>2026-08-14T06:52:30.540Z</time>
      </trkpt>
      <trkpt lat="45.81618" lon="6.74369">
        <ele>1534</ele>
        <time>2026-08-14T06:52:31.540Z</time>
      </trkpt>
      <trkpt lat="45.81618" lon="6.7437">
        <ele>1534</ele>
        <time>2026-08-14T06:52:32.540Z</time>
      </trkpt>
      <trkpt lat="45.81618" lon="6.74371">
        <ele>1533</ele>
        <time>2026-08-14T06:52:33.540Z</time>
      </trkpt>
      <trkpt lat="45.81618" lon="6.74373">
        <ele>1533</ele>
        <time>2026-08-14T06:52:34.540Z</time>
      </trkpt>
      <trkpt lat="45.81617" lon="6.74374">
        <ele>1533</ele>
        <time>2026-08-14T06:52:35.540Z</time>
      </trkpt>
      <trkpt lat="45.81617" lon="6.74375">
        <ele>1532</ele>
        <time>2026-08-14T06:52:36.540Z</time>
      </trkpt>
      <trkpt lat="45.81616" lon="6.74377">
        <ele>1532</ele>
        <time>2026-08-14T06:52:37.540Z</time>
      </trkpt>
      <trkpt lat="45.81615" lon="6.74378">
        <ele>1532</ele>
        <time>2026-08-14T06:52:38.540Z</time>
      </trkpt>
      <trkpt lat="45.81615" lon="6.7438">
        <ele>1532</ele>
        <time>2026-08-14T06:52:39.540Z</time>
      </trkpt>
      <trkpt lat="45.81614" lon="6.74382">
        <ele>1532</ele>
        <time>2026-08-14T06:52:40.540Z</time>
      </trkpt>
      <trkpt lat="45.81614" lon="6.74384">
        <ele>1532</ele>
        <time>2026-08-14T06:52:41.540Z</time>
      </trkpt>
      <trkpt lat="45.81614" lon="6.74385">
        <ele>1532</ele>
        <time>2026-08-14T06:52:42.540Z</time>
      </trkpt>
      <trkpt lat="45.81614" lon="6.74387">
        <ele>1532</ele>
        <time>2026-08-14T06:52:43.540Z</time>
      </trkpt>
      <trkpt lat="45.81614" lon="6.74387">
        <ele>1532</ele>
        <time>2026-08-14T06:52:44.540Z</time>
      </trkpt>
      <trkpt lat="45.81614" lon="6.74387">
        <ele>1532</ele>
        <time>2026-08-14T06:52:45.540Z</time>
      </trkpt>
      <trkpt lat="45.81614" lon="6.74387">
        <ele>1532</ele>
        <time>2026-08-14T06:52:46.540Z</time>
      </trkpt>
      <trkpt lat="45.81613" lon="6.74387">
        <ele>1531</ele>
        <time>2026-08-14T06:52:47.540Z</time>
      </trkpt>
      <trkpt lat="45.81613" lon="6.74386">
        <ele>1531</ele>
        <time>2026-08-14T06:52:48.540Z</time>
      </trkpt>
      <trkpt lat="45.81613" lon="6.74386">
        <ele>1531</ele>
        <time>2026-08-14T06:52:49.540Z</time>
      </trkpt>
      <trkpt lat="45.81613" lon="6.74386">
        <ele>1531</ele>
        <time>2026-08-14T06:52:50.540Z</time>
      </trkpt>
      <trkpt lat="45.81613" lon="6.74386">
        <ele>1530</ele>
        <time>2026-08-14T06:52:51.540Z</time>
      </trkpt>
      <trkpt lat="45.81613" lon="6.74386">
        <ele>1530</ele>
        <time>2026-08-14T06:52:52.540Z</time>
      </trkpt>
      <trkpt lat="45.81613" lon="6.74386">
        <ele>1530</ele>
        <time>2026-08-14T06:52:53.540Z</time>
      </trkpt>
      <trkpt lat="45.81613" lon="6.74386">
        <ele>1530</ele>
        <time>2026-08-14T06:52:54.540Z</time>
      </trkpt>
      <trkpt lat="45.81613" lon="6.74386">
        <ele>1530</ele>
        <time>2026-08-14T06:52:55.540Z</time>
      </trkpt>
      <trkpt lat="45.81613" lon="6.74386">
        <ele>1530</ele>
        <time>2026-08-14T06:52:56.540Z</time>
      </trkpt>
      <trkpt lat="45.81612" lon="6.74387">
        <ele>1531</ele>
        <time>2026-08-14T06:52:57.540Z</time>
      </trkpt>
      <trkpt lat="45.81611" lon="6.74388">
        <ele>1531</ele>
        <time>2026-08-14T06:52:58.540Z</time>
      </trkpt>
      <trkpt lat="45.8161" lon="6.74388">
        <ele>1531</ele>
        <time>2026-08-14T06:52:59.540Z</time>
      </trkpt>
      <trkpt lat="45.81608" lon="6.74388">
        <ele>1532</ele>
        <time>2026-08-14T06:53:00.540Z</time>
      </trkpt>
      <trkpt lat="45.81607" lon="6.74388">
        <ele>1532</ele>
        <time>2026-08-14T06:53:01.540Z</time>
      </trkpt>
      <trkpt lat="45.81606" lon="6.74388">
        <ele>1532</ele>
        <time>2026-08-14T06:53:02.540Z</time>
      </trkpt>
      <trkpt lat="45.81604" lon="6.74388">
        <ele>1532</ele>
        <time>2026-08-14T06:53:03.540Z</time>
      </trkpt>
      <trkpt lat="45.81603" lon="6.74387">
        <ele>1532</ele>
        <time>2026-08-14T06:53:04.540Z</time>
      </trkpt>
      <trkpt lat="45.81602" lon="6.74386">
        <ele>1532</ele>
        <time>2026-08-14T06:53:05.540Z</time>
      </trkpt>
      <trkpt lat="45.816" lon="6.74385">
        <ele>1532</ele>
        <time>2026-08-14T06:53:06.540Z</time>
      </trkpt>
      <trkpt lat="45.81599" lon="6.74385">
        <ele>1532</ele>
        <time>2026-08-14T06:53:07.540Z</time>
      </trkpt>
      <trkpt lat="45.81598" lon="6.74385">
        <ele>1532</ele>
        <time>2026-08-14T06:53:08.540Z</time>
      </trkpt>
      <trkpt lat="45.81596" lon="6.74385">
        <ele>1533</ele>
        <time>2026-08-14T06:53:09.540Z</time>
      </trkpt>
      <trkpt lat="45.81594" lon="6.74386">
        <ele>1533</ele>
        <time>2026-08-14T06:53:10.540Z</time>
      </trkpt>
      <trkpt lat="45.81592" lon="6.74386">
        <ele>1533</ele>
        <time>2026-08-14T06:53:11.540Z</time>
      </trkpt>
      <trkpt lat="45.8159" lon="6.74386">
        <ele>1534</ele>
        <time>2026-08-14T06:53:12.540Z</time>
      </trkpt>
      <trkpt lat="45.81589" lon="6.74386">
        <ele>1534</ele>
        <time>2026-08-14T06:53:13.540Z</time>
      </trkpt>
      <trkpt lat="45.81587" lon="6.74386">
        <ele>1534</ele>
        <time>2026-08-14T06:53:14.540Z</time>
      </trkpt>
      <trkpt lat="45.81585" lon="6.74387">
        <ele>1534</ele>
        <time>2026-08-14T06:53:15.540Z</time>
      </trkpt>
      <trkpt lat="45.81584" lon="6.74387">
        <ele>1534</ele>
        <time>2026-08-14T06:53:16.540Z</time>
      </trkpt>
      <trkpt lat="45.81583" lon="6.74387">
        <ele>1534</ele>
        <time>2026-08-14T06:53:17.540Z</time>
      </trkpt>
      <trkpt lat="45.81582" lon="6.74387">
        <ele>1534</ele>
        <time>2026-08-14T06:53:18.540Z</time>
      </trkpt>
      <trkpt lat="45.8158" lon="6.74387">
        <ele>1535</ele>
        <time>2026-08-14T06:53:19.540Z</time>
      </trkpt>
      <trkpt lat="45.81578" lon="6.74388">
        <ele>1535</ele>
        <time>2026-08-14T06:53:20.540Z</time>
      </trkpt>
      <trkpt lat="45.81577" lon="6.74388">
        <ele>1535</ele>
        <time>2026-08-14T06:53:21.540Z</time>
      </trkpt>
      <trkpt lat="45.81575" lon="6.74389">
        <ele>1536</ele>
        <time>2026-08-14T06:53:22.540Z</time>
      </trkpt>
      <trkpt lat="45.81574" lon="6.74389">
        <ele>1536</ele>
        <time>2026-08-14T06:53:23.540Z</time>
      </trkpt>
      <trkpt lat="45.81572" lon="6.7439">
        <ele>1536</ele>
        <time>2026-08-14T06:53:24.540Z</time>
      </trkpt>
      <trkpt lat="45.81571" lon="6.74391">
        <ele>1536</ele>
        <time>2026-08-14T06:53:25.540Z</time>
      </trkpt>
      <trkpt lat="45.81569" lon="6.74392">
        <ele>1536</ele>
        <time>2026-08-14T06:53:26.540Z</time>
      </trkpt>
      <trkpt lat="45.81568" lon="6.74393">
        <ele>1536</ele>
        <time>2026-08-14T06:53:27.540Z</time>
      </trkpt>
      <trkpt lat="45.81566" lon="6.74394">
        <ele>1536</ele>
        <time>2026-08-14T06:53:28.540Z</time>
      </trkpt>
      <trkpt lat="45.81565" lon="6.74395">
        <ele>1535</ele>
        <time>2026-08-14T06:53:29.540Z</time>
      </trkpt>
      <trkpt lat="45.81564" lon="6.74396">
        <ele>1535</ele>
        <time>2026-08-14T06:53:30.540Z</time>
      </trkpt>
      <trkpt lat="45.81563" lon="6.74398">
        <ele>1535</ele>
        <time>2026-08-14T06:53:31.540Z</time>
      </trkpt>
      <trkpt lat="45.81561" lon="6.744">
        <ele>1535</ele>
        <time>2026-08-14T06:53:32.540Z</time>
      </trkpt>
      <trkpt lat="45.8156" lon="6.74402">
        <ele>1534</ele>
        <time>2026-08-14T06:53:33.540Z</time>
      </trkpt>
      <trkpt lat="45.81559" lon="6.74404">
        <ele>1534</ele>
        <time>2026-08-14T06:53:34.540Z</time>
      </trkpt>
      <trkpt lat="45.81557" lon="6.74406">
        <ele>1533</ele>
        <time>2026-08-14T06:53:35.540Z</time>
      </trkpt>
      <trkpt lat="45.81556" lon="6.74408">
        <ele>1533</ele>
        <time>2026-08-14T06:53:36.540Z</time>
      </trkpt>
      <trkpt lat="45.81554" lon="6.7441">
        <ele>1533</ele>
        <time>2026-08-14T06:53:37.540Z</time>
      </trkpt>
      <trkpt lat="45.81552" lon="6.74412">
        <ele>1532</ele>
        <time>2026-08-14T06:53:38.540Z</time>
      </trkpt>
      <trkpt lat="45.81551" lon="6.74414">
        <ele>1532</ele>
        <time>2026-08-14T06:53:39.540Z</time>
      </trkpt>
      <trkpt lat="45.8155" lon="6.74416">
        <ele>1531</ele>
        <time>2026-08-14T06:53:40.540Z</time>
      </trkpt>
      <trkpt lat="45.81549" lon="6.74417">
        <ele>1531</ele>
        <time>2026-08-14T06:53:41.540Z</time>
      </trkpt>
      <trkpt lat="45.81548" lon="6.7442">
        <ele>1531</ele>
        <time>2026-08-14T06:53:42.540Z</time>
      </trkpt>
      <trkpt lat="45.81547" lon="6.74422">
        <ele>1531</ele>
        <time>2026-08-14T06:53:43.540Z</time>
      </trkpt>
      <trkpt lat="45.81546" lon="6.74424">
        <ele>1531</ele>
        <time>2026-08-14T06:53:44.540Z</time>
      </trkpt>
      <trkpt lat="45.81544" lon="6.74426">
        <ele>1531</ele>
        <time>2026-08-14T06:53:45.540Z</time>
      </trkpt>
      <trkpt lat="45.81543" lon="6.74428">
        <ele>1531</ele>
        <time>2026-08-14T06:53:46.540Z</time>
      </trkpt>
      <trkpt lat="45.81542" lon="6.74431">
        <ele>1531</ele>
        <time>2026-08-14T06:53:47.540Z</time>
      </trkpt>
      <trkpt lat="45.81541" lon="6.74433">
        <ele>1531</ele>
        <time>2026-08-14T06:53:48.540Z</time>
      </trkpt>
      <trkpt lat="45.8154" lon="6.74435">
        <ele>1531</ele>
        <time>2026-08-14T06:53:49.540Z</time>
      </trkpt>
      <trkpt lat="45.8154" lon="6.74438">
        <ele>1531</ele>
        <time>2026-08-14T06:53:50.540Z</time>
      </trkpt>
      <trkpt lat="45.81539" lon="6.74439">
        <ele>1531</ele>
        <time>2026-08-14T06:53:51.540Z</time>
      </trkpt>
      <trkpt lat="45.81539" lon="6.74441">
        <ele>1531</ele>
        <time>2026-08-14T06:53:52.540Z</time>
      </trkpt>
      <trkpt lat="45.81538" lon="6.74443">
        <ele>1531</ele>
        <time>2026-08-14T06:53:53.540Z</time>
      </trkpt>
      <trkpt lat="45.81537" lon="6.74446">
        <ele>1531</ele>
        <time>2026-08-14T06:53:54.540Z</time>
      </trkpt>
      <trkpt lat="45.81537" lon="6.74448">
        <ele>1531</ele>
        <time>2026-08-14T06:53:55.540Z</time>
      </trkpt>
      <trkpt lat="45.81536" lon="6.74451">
        <ele>1531</ele>
        <time>2026-08-14T06:53:56.540Z</time>
      </trkpt>
      <trkpt lat="45.81536" lon="6.74454">
        <ele>1531</ele>
        <time>2026-08-14T06:53:57.540Z</time>
      </trkpt>
      <trkpt lat="45.81536" lon="6.74457">
        <ele>1531</ele>
        <time>2026-08-14T06:53:58.540Z</time>
      </trkpt>
      <trkpt lat="45.81535" lon="6.7446">
        <ele>1531</ele>
        <time>2026-08-14T06:53:59.540Z</time>
      </trkpt>
      <trkpt lat="45.81535" lon="6.74462">
        <ele>1531</ele>
        <time>2026-08-14T06:54:00.540Z</time>
      </trkpt>
      <trkpt lat="45.81534" lon="6.74464">
        <ele>1531</ele>
        <time>2026-08-14T06:54:01.540Z</time>
      </trkpt>
      <trkpt lat="45.81533" lon="6.74467">
        <ele>1532</ele>
        <time>2026-08-14T06:54:02.540Z</time>
      </trkpt>
      <trkpt lat="45.81533" lon="6.74469">
        <ele>1532</ele>
        <time>2026-08-14T06:54:03.540Z</time>
      </trkpt>
      <trkpt lat="45.81532" lon="6.74471">
        <ele>1532</ele>
        <time>2026-08-14T06:54:04.540Z</time>
      </trkpt>
      <trkpt lat="45.8153" lon="6.74473">
        <ele>1532</ele>
        <time>2026-08-14T06:54:05.540Z</time>
      </trkpt>
      <trkpt lat="45.81529" lon="6.74475">
        <ele>1533</ele>
        <time>2026-08-14T06:54:06.540Z</time>
      </trkpt>
      <trkpt lat="45.81528" lon="6.74477">
        <ele>1533</ele>
        <time>2026-08-14T06:54:07.540Z</time>
      </trkpt>
      <trkpt lat="45.81527" lon="6.7448">
        <ele>1534</ele>
        <time>2026-08-14T06:54:08.540Z</time>
      </trkpt>
      <trkpt lat="45.81526" lon="6.74482">
        <ele>1534</ele>
        <time>2026-08-14T06:54:09.540Z</time>
      </trkpt>
      <trkpt lat="45.81525" lon="6.74484">
        <ele>1534</ele>
        <time>2026-08-14T06:54:10.540Z</time>
      </trkpt>
      <trkpt lat="45.81523" lon="6.74485">
        <ele>1535</ele>
        <time>2026-08-14T06:54:11.540Z</time>
      </trkpt>
      <trkpt lat="45.81522" lon="6.74488">
        <ele>1535</ele>
        <time>2026-08-14T06:54:12.540Z</time>
      </trkpt>
      <trkpt lat="45.8152" lon="6.7449">
        <ele>1536</ele>
        <time>2026-08-14T06:54:13.540Z</time>
      </trkpt>
      <trkpt lat="45.81519" lon="6.74493">
        <ele>1536</ele>
        <time>2026-08-14T06:54:14.540Z</time>
      </trkpt>
      <trkpt lat="45.81518" lon="6.74495">
        <ele>1536</ele>
        <time>2026-08-14T06:54:15.540Z</time>
      </trkpt>
      <trkpt lat="45.81517" lon="6.74497">
        <ele>1536</ele>
        <time>2026-08-14T06:54:16.540Z</time>
      </trkpt>
      <trkpt lat="45.81516" lon="6.74499">
        <ele>1536</ele>
        <time>2026-08-14T06:54:17.540Z</time>
      </trkpt>
      <trkpt lat="45.81515" lon="6.745">
        <ele>1536</ele>
        <time>2026-08-14T06:54:18.540Z</time>
      </trkpt>
      <trkpt lat="45.81515" lon="6.74501">
        <ele>1536</ele>
        <time>2026-08-14T06:54:19.540Z</time>
      </trkpt>
      <trkpt lat="45.81514" lon="6.74502">
        <ele>1536</ele>
        <time>2026-08-14T06:54:20.540Z</time>
      </trkpt>
      <trkpt lat="45.81514" lon="6.74504">
        <ele>1536</ele>
        <time>2026-08-14T06:54:21.540Z</time>
      </trkpt>
      <trkpt lat="45.81513" lon="6.74506">
        <ele>1535</ele>
        <time>2026-08-14T06:54:22.540Z</time>
      </trkpt>
      <trkpt lat="45.81513" lon="6.74507">
        <ele>1535</ele>
        <time>2026-08-14T06:54:23.540Z</time>
      </trkpt>
      <trkpt lat="45.81513" lon="6.74509">
        <ele>1535</ele>
        <time>2026-08-14T06:54:24.540Z</time>
      </trkpt>
      <trkpt lat="45.81512" lon="6.7451">
        <ele>1535</ele>
        <time>2026-08-14T06:54:25.540Z</time>
      </trkpt>
      <trkpt lat="45.81512" lon="6.74512">
        <ele>1535</ele>
        <time>2026-08-14T06:54:26.540Z</time>
      </trkpt>
      <trkpt lat="45.81512" lon="6.74513">
        <ele>1535</ele>
        <time>2026-08-14T06:54:27.540Z</time>
      </trkpt>
      <trkpt lat="45.81511" lon="6.74514">
        <ele>1535</ele>
        <time>2026-08-14T06:54:28.540Z</time>
      </trkpt>
      <trkpt lat="45.8151" lon="6.74514">
        <ele>1534</ele>
        <time>2026-08-14T06:54:29.540Z</time>
      </trkpt>
      <trkpt lat="45.81509" lon="6.74515">
        <ele>1534</ele>
        <time>2026-08-14T06:54:30.540Z</time>
      </trkpt>
      <trkpt lat="45.81507" lon="6.74516">
        <ele>1533</ele>
        <time>2026-08-14T06:54:31.540Z</time>
      </trkpt>
      <trkpt lat="45.81506" lon="6.74518">
        <ele>1533</ele>
        <time>2026-08-14T06:54:32.540Z</time>
      </trkpt>
      <trkpt lat="45.81505" lon="6.74519">
        <ele>1533</ele>
        <time>2026-08-14T06:54:33.540Z</time>
      </trkpt>
      <trkpt lat="45.81504" lon="6.7452">
        <ele>1533</ele>
        <time>2026-08-14T06:54:34.540Z</time>
      </trkpt>
      <trkpt lat="45.81503" lon="6.74522">
        <ele>1533</ele>
        <time>2026-08-14T06:54:35.540Z</time>
      </trkpt>
      <trkpt lat="45.81501" lon="6.74523">
        <ele>1533</ele>
        <time>2026-08-14T06:54:36.540Z</time>
      </trkpt>
      <trkpt lat="45.81499" lon="6.74523">
        <ele>1533</ele>
        <time>2026-08-14T06:54:37.540Z</time>
      </trkpt>
      <trkpt lat="45.81498" lon="6.74524">
        <ele>1533</ele>
        <time>2026-08-14T06:54:38.540Z</time>
      </trkpt>
      <trkpt lat="45.81497" lon="6.74525">
        <ele>1533</ele>
        <time>2026-08-14T06:54:39.540Z</time>
      </trkpt>
      <trkpt lat="45.81496" lon="6.74527">
        <ele>1533</ele>
        <time>2026-08-14T06:54:40.540Z</time>
      </trkpt>
      <trkpt lat="45.81494" lon="6.74528">
        <ele>1533</ele>
        <time>2026-08-14T06:54:41.540Z</time>
      </trkpt>
      <trkpt lat="45.81492" lon="6.7453">
        <ele>1533</ele>
        <time>2026-08-14T06:54:42.540Z</time>
      </trkpt>
      <trkpt lat="45.81491" lon="6.74531">
        <ele>1533</ele>
        <time>2026-08-14T06:54:43.540Z</time>
      </trkpt>
      <trkpt lat="45.81489" lon="6.74532">
        <ele>1533</ele>
        <time>2026-08-14T06:54:44.540Z</time>
      </trkpt>
      <trkpt lat="45.81488" lon="6.74533">
        <ele>1534</ele>
        <time>2026-08-14T06:54:45.540Z</time>
      </trkpt>
      <trkpt lat="45.81487" lon="6.74534">
        <ele>1534</ele>
        <time>2026-08-14T06:54:46.540Z</time>
      </trkpt>
      <trkpt lat="45.81485" lon="6.74535">
        <ele>1534</ele>
        <time>2026-08-14T06:54:47.540Z</time>
      </trkpt>
      <trkpt lat="45.81484" lon="6.74536">
        <ele>1533</ele>
        <time>2026-08-14T06:54:48.540Z</time>
      </trkpt>
      <trkpt lat="45.81482" lon="6.74537">
        <ele>1533</ele>
        <time>2026-08-14T06:54:49.540Z</time>
      </trkpt>
      <trkpt lat="45.81481" lon="6.74538">
        <ele>1533</ele>
        <time>2026-08-14T06:54:50.540Z</time>
      </trkpt>
      <trkpt lat="45.81478" lon="6.74539">
        <ele>1533</ele>
        <time>2026-08-14T06:54:51.540Z</time>
      </trkpt>
      <trkpt lat="45.81477" lon="6.7454">
        <ele>1533</ele>
        <time>2026-08-14T06:54:52.540Z</time>
      </trkpt>
      <trkpt lat="45.81475" lon="6.7454">
        <ele>1533</ele>
        <time>2026-08-14T06:54:53.540Z</time>
      </trkpt>
      <trkpt lat="45.81473" lon="6.74539">
        <ele>1532</ele>
        <time>2026-08-14T06:54:54.540Z</time>
      </trkpt>
      <trkpt lat="45.81472" lon="6.74538">
        <ele>1532</ele>
        <time>2026-08-14T06:54:55.540Z</time>
      </trkpt>
      <trkpt lat="45.81471" lon="6.74538">
        <ele>1533</ele>
        <time>2026-08-14T06:54:56.540Z</time>
      </trkpt>
      <trkpt lat="45.81469" lon="6.74538">
        <ele>1533</ele>
        <time>2026-08-14T06:54:57.540Z</time>
      </trkpt>
      <trkpt lat="45.81467" lon="6.74538">
        <ele>1533</ele>
        <time>2026-08-14T06:54:58.540Z</time>
      </trkpt>
      <trkpt lat="45.81466" lon="6.74538">
        <ele>1533</ele>
        <time>2026-08-14T06:54:59.540Z</time>
      </trkpt>
      <trkpt lat="45.81464" lon="6.74538">
        <ele>1533</ele>
        <time>2026-08-14T06:55:00.540Z</time>
      </trkpt>
      <trkpt lat="45.81462" lon="6.74539">
        <ele>1534</ele>
        <time>2026-08-14T06:55:01.540Z</time>
      </trkpt>
      <trkpt lat="45.81461" lon="6.7454">
        <ele>1534</ele>
        <time>2026-08-14T06:55:02.540Z</time>
      </trkpt>
      <trkpt lat="45.81459" lon="6.7454">
        <ele>1535</ele>
        <time>2026-08-14T06:55:03.540Z</time>
      </trkpt>
      <trkpt lat="45.81458" lon="6.74541">
        <ele>1535</ele>
        <time>2026-08-14T06:55:04.540Z</time>
      </trkpt>
      <trkpt lat="45.81457" lon="6.74542">
        <ele>1535</ele>
        <time>2026-08-14T06:55:05.540Z</time>
      </trkpt>
      <trkpt lat="45.81456" lon="6.74543">
        <ele>1535</ele>
        <time>2026-08-14T06:55:06.540Z</time>
      </trkpt>
      <trkpt lat="45.81455" lon="6.74545">
        <ele>1535</ele>
        <time>2026-08-14T06:55:07.540Z</time>
      </trkpt>
      <trkpt lat="45.81454" lon="6.74546">
        <ele>1536</ele>
        <time>2026-08-14T06:55:08.540Z</time>
      </trkpt>
      <trkpt lat="45.81453" lon="6.74548">
        <ele>1536</ele>
        <time>2026-08-14T06:55:09.540Z</time>
      </trkpt>
      <trkpt lat="45.81453" lon="6.7455">
        <ele>1536</ele>
        <time>2026-08-14T06:55:10.540Z</time>
      </trkpt>
      <trkpt lat="45.81452" lon="6.74551">
        <ele>1536</ele>
        <time>2026-08-14T06:55:11.540Z</time>
      </trkpt>
      <trkpt lat="45.81451" lon="6.74552">
        <ele>1536</ele>
        <time>2026-08-14T06:55:12.540Z</time>
      </trkpt>
      <trkpt lat="45.81449" lon="6.74553">
        <ele>1536</ele>
        <time>2026-08-14T06:55:13.540Z</time>
      </trkpt>
      <trkpt lat="45.81448" lon="6.74554">
        <ele>1536</ele>
        <time>2026-08-14T06:55:14.540Z</time>
      </trkpt>
      <trkpt lat="45.81447" lon="6.74556">
        <ele>1536</ele>
        <time>2026-08-14T06:55:15.540Z</time>
      </trkpt>
      <trkpt lat="45.81446" lon="6.74557">
        <ele>1536</ele>
        <time>2026-08-14T06:55:16.540Z</time>
      </trkpt>
      <trkpt lat="45.81445" lon="6.74559">
        <ele>1536</ele>
        <time>2026-08-14T06:55:17.540Z</time>
      </trkpt>
      <trkpt lat="45.81445" lon="6.7456">
        <ele>1536</ele>
        <time>2026-08-14T06:55:18.540Z</time>
      </trkpt>
      <trkpt lat="45.81444" lon="6.74561">
        <ele>1535</ele>
        <time>2026-08-14T06:55:19.540Z</time>
      </trkpt>
      <trkpt lat="45.81444" lon="6.74563">
        <ele>1535</ele>
        <time>2026-08-14T06:55:20.540Z</time>
      </trkpt>
      <trkpt lat="45.81443" lon="6.74563">
        <ele>1536</ele>
        <time>2026-08-14T06:55:21.540Z</time>
      </trkpt>
      <trkpt lat="45.81443" lon="6.74564">
        <ele>1536</ele>
        <time>2026-08-14T06:55:22.540Z</time>
      </trkpt>
      <trkpt lat="45.81443" lon="6.74565">
        <ele>1536</ele>
        <time>2026-08-14T06:55:23.540Z</time>
      </trkpt>
      <trkpt lat="45.81442" lon="6.74566">
        <ele>1536</ele>
        <time>2026-08-14T06:55:24.540Z</time>
      </trkpt>
      <trkpt lat="45.81442" lon="6.74567">
        <ele>1536</ele>
        <time>2026-08-14T06:55:25.540Z</time>
      </trkpt>
      <trkpt lat="45.81442" lon="6.74567">
        <ele>1537</ele>
        <time>2026-08-14T06:55:26.540Z</time>
      </trkpt>
      <trkpt lat="45.81442" lon="6.74568">
        <ele>1537</ele>
        <time>2026-08-14T06:55:27.540Z</time>
      </trkpt>
      <trkpt lat="45.81442" lon="6.74569">
        <ele>1537</ele>
        <time>2026-08-14T06:55:28.540Z</time>
      </trkpt>
      <trkpt lat="45.81442" lon="6.7457">
        <ele>1537</ele>
        <time>2026-08-14T06:55:29.540Z</time>
      </trkpt>
      <trkpt lat="45.81441" lon="6.7457">
        <ele>1537</ele>
        <time>2026-08-14T06:55:30.540Z</time>
      </trkpt>
      <trkpt lat="45.81441" lon="6.7457">
        <ele>1537</ele>
        <time>2026-08-14T06:55:31.540Z</time>
      </trkpt>
      <trkpt lat="45.8144" lon="6.7457">
        <ele>1537</ele>
        <time>2026-08-14T06:55:32.540Z</time>
      </trkpt>
      <trkpt lat="45.81439" lon="6.74569">
        <ele>1537</ele>
        <time>2026-08-14T06:55:33.540Z</time>
      </trkpt>
      <trkpt lat="45.81438" lon="6.74569">
        <ele>1536</ele>
        <time>2026-08-14T06:55:34.540Z</time>
      </trkpt>
      <trkpt lat="45.81437" lon="6.74568">
        <ele>1536</ele>
        <time>2026-08-14T06:55:35.540Z</time>
      </trkpt>
      <trkpt lat="45.81436" lon="6.74568">
        <ele>1536</ele>
        <time>2026-08-14T06:55:36.540Z</time>
      </trkpt>
      <trkpt lat="45.81435" lon="6.74567">
        <ele>1535</ele>
        <time>2026-08-14T06:55:37.540Z</time>
      </trkpt>
      <trkpt lat="45.81434" lon="6.74567">
        <ele>1535</ele>
        <time>2026-08-14T06:55:38.540Z</time>
      </trkpt>
      <trkpt lat="45.81433" lon="6.74566">
        <ele>1535</ele>
        <time>2026-08-14T06:55:39.540Z</time>
      </trkpt>
      <trkpt lat="45.81433" lon="6.74566">
        <ele>1535</ele>
        <time>2026-08-14T06:55:40.540Z</time>
      </trkpt>
      <trkpt lat="45.81432" lon="6.74566">
        <ele>1535</ele>
        <time>2026-08-14T06:55:41.540Z</time>
      </trkpt>
      <trkpt lat="45.81432" lon="6.74566">
        <ele>1534</ele>
        <time>2026-08-14T06:55:42.540Z</time>
      </trkpt>
      <trkpt lat="45.81431" lon="6.74565">
        <ele>1534</ele>
        <time>2026-08-14T06:55:43.540Z</time>
      </trkpt>
      <trkpt lat="45.81431" lon="6.74564">
        <ele>1534</ele>
        <time>2026-08-14T06:55:44.540Z</time>
      </trkpt>
      <trkpt lat="45.8143" lon="6.74564">
        <ele>1534</ele>
        <time>2026-08-14T06:55:45.540Z</time>
      </trkpt>
      <trkpt lat="45.8143" lon="6.74564">
        <ele>1534</ele>
        <time>2026-08-14T06:55:46.540Z</time>
      </trkpt>
      <trkpt lat="45.8143" lon="6.74564">
        <ele>1534</ele>
        <time>2026-08-14T06:55:47.540Z</time>
      </trkpt>
      <trkpt lat="45.8143" lon="6.74564">
        <ele>1534</ele>
        <time>2026-08-14T06:55:48.540Z</time>
      </trkpt>
      <trkpt lat="45.8143" lon="6.74564">
        <ele>1534</ele>
        <time>2026-08-14T06:55:49.540Z</time>
      </trkpt>
      <trkpt lat="45.8143" lon="6.74565">
        <ele>1535</ele>
        <time>2026-08-14T06:55:50.540Z</time>
      </trkpt>
      <trkpt lat="45.8143" lon="6.74566">
        <ele>1535</ele>
        <time>2026-08-14T06:55:51.540Z</time>
      </trkpt>
      <trkpt lat="45.8143" lon="6.74567">
        <ele>1535</ele>
        <time>2026-08-14T06:55:52.540Z</time>
      </trkpt>
      <trkpt lat="45.8143" lon="6.74568">
        <ele>1535</ele>
        <time>2026-08-14T06:55:53.540Z</time>
      </trkpt>
      <trkpt lat="45.8143" lon="6.74569">
        <ele>1536</ele>
        <time>2026-08-14T06:55:54.540Z</time>
      </trkpt>
      <trkpt lat="45.8143" lon="6.7457">
        <ele>1536</ele>
        <time>2026-08-14T06:55:55.540Z</time>
      </trkpt>
      <trkpt lat="45.8143" lon="6.74571">
        <ele>1536</ele>
        <time>2026-08-14T06:55:56.540Z</time>
      </trkpt>
      <trkpt lat="45.8143" lon="6.74572">
        <ele>1537</ele>
        <time>2026-08-14T06:55:57.540Z</time>
      </trkpt>
      <trkpt lat="45.81429" lon="6.74572">
        <ele>1537</ele>
        <time>2026-08-14T06:55:58.540Z</time>
      </trkpt>
      <trkpt lat="45.81429" lon="6.74571">
        <ele>1537</ele>
        <time>2026-08-14T06:55:59.540Z</time>
      </trkpt>
      <trkpt lat="45.81428" lon="6.7457">
        <ele>1538</ele>
        <time>2026-08-14T06:56:00.540Z</time>
      </trkpt>
      <trkpt lat="45.81428" lon="6.7457">
        <ele>1538</ele>
        <time>2026-08-14T06:56:01.540Z</time>
      </trkpt>
      <trkpt lat="45.81427" lon="6.7457">
        <ele>1539</ele>
        <time>2026-08-14T06:56:02.540Z</time>
      </trkpt>
      <trkpt lat="45.81427" lon="6.7457">
        <ele>1539</ele>
        <time>2026-08-14T06:56:03.540Z</time>
      </trkpt>
      <trkpt lat="45.81427" lon="6.74569">
        <ele>1539</ele>
        <time>2026-08-14T06:56:04.540Z</time>
      </trkpt>
      <trkpt lat="45.81426" lon="6.74568">
        <ele>1539</ele>
        <time>2026-08-14T06:56:05.540Z</time>
      </trkpt>
      <trkpt lat="45.81426" lon="6.74567">
        <ele>1539</ele>
        <time>2026-08-14T06:56:06.540Z</time>
      </trkpt>
      <trkpt lat="45.81425" lon="6.74566">
        <ele>1539</ele>
        <time>2026-08-14T06:56:07.540Z</time>
      </trkpt>
      <trkpt lat="45.81425" lon="6.74565">
        <ele>1539</ele>
        <time>2026-08-14T06:56:08.540Z</time>
      </trkpt>
      <trkpt lat="45.81424" lon="6.74564">
        <ele>1539</ele>
        <time>2026-08-14T06:56:09.540Z</time>
      </trkpt>
      <trkpt lat="45.81424" lon="6.74562">
        <ele>1539</ele>
        <time>2026-08-14T06:56:10.540Z</time>
      </trkpt>
      <trkpt lat="45.81423" lon="6.7456">
        <ele>1539</ele>
        <time>2026-08-14T06:56:11.540Z</time>
      </trkpt>
      <trkpt lat="45.81422" lon="6.74558">
        <ele>1540</ele>
        <time>2026-08-14T06:56:12.540Z</time>
      </trkpt>
      <trkpt lat="45.81421" lon="6.74555">
        <ele>1540</ele>
        <time>2026-08-14T06:56:13.540Z</time>
      </trkpt>
      <trkpt lat="45.8142" lon="6.74553">
        <ele>1540</ele>
        <time>2026-08-14T06:56:14.540Z</time>
      </trkpt>
      <trkpt lat="45.81419" lon="6.74551">
        <ele>1540</ele>
        <time>2026-08-14T06:56:15.540Z</time>
      </trkpt>
      <trkpt lat="45.81418" lon="6.74548">
        <ele>1540</ele>
        <time>2026-08-14T06:56:16.540Z</time>
      </trkpt>
      <trkpt lat="45.81417" lon="6.74546">
        <ele>1539</ele>
        <time>2026-08-14T06:56:17.540Z</time>
      </trkpt>
      <trkpt lat="45.81416" lon="6.74544">
        <ele>1539</ele>
        <time>2026-08-14T06:56:18.540Z</time>
      </trkpt>
      <trkpt lat="45.81416" lon="6.74541">
        <ele>1539</ele>
        <time>2026-08-14T06:56:19.540Z</time>
      </trkpt>
      <trkpt lat="45.81415" lon="6.74539">
        <ele>1539</ele>
        <time>2026-08-14T06:56:20.540Z</time>
      </trkpt>
      <trkpt lat="45.81414" lon="6.74537">
        <ele>1539</ele>
        <time>2026-08-14T06:56:21.540Z</time>
      </trkpt>
      <trkpt lat="45.81413" lon="6.74534">
        <ele>1539</ele>
        <time>2026-08-14T06:56:22.540Z</time>
      </trkpt>
      <trkpt lat="45.81413" lon="6.74532">
        <ele>1539</ele>
        <time>2026-08-14T06:56:23.540Z</time>
      </trkpt>
      <trkpt lat="45.81412" lon="6.74529">
        <ele>1539</ele>
        <time>2026-08-14T06:56:24.540Z</time>
      </trkpt>
      <trkpt lat="45.81413" lon="6.74527">
        <ele>1540</ele>
        <time>2026-08-14T06:56:25.540Z</time>
      </trkpt>
      <trkpt lat="45.81413" lon="6.74525">
        <ele>1540</ele>
        <time>2026-08-14T06:56:26.540Z</time>
      </trkpt>
      <trkpt lat="45.81413" lon="6.74522">
        <ele>1540</ele>
        <time>2026-08-14T06:56:27.540Z</time>
      </trkpt>
      <trkpt lat="45.81414" lon="6.74519">
        <ele>1540</ele>
        <time>2026-08-14T06:56:28.540Z</time>
      </trkpt>
      <trkpt lat="45.81414" lon="6.74516">
        <ele>1540</ele>
        <time>2026-08-14T06:56:29.540Z</time>
      </trkpt>
      <trkpt lat="45.81414" lon="6.74513">
        <ele>1540</ele>
        <time>2026-08-14T06:56:30.540Z</time>
      </trkpt>
      <trkpt lat="45.81414" lon="6.74512">
        <ele>1540</ele>
        <time>2026-08-14T06:56:31.540Z</time>
      </trkpt>
      <trkpt lat="45.81414" lon="6.74509">
        <ele>1541</ele>
        <time>2026-08-14T06:56:32.540Z</time>
      </trkpt>
      <trkpt lat="45.81414" lon="6.74507">
        <ele>1541</ele>
        <time>2026-08-14T06:56:33.540Z</time>
      </trkpt>
      <trkpt lat="45.81414" lon="6.74506">
        <ele>1541</ele>
        <time>2026-08-14T06:56:34.540Z</time>
      </trkpt>
      <trkpt lat="45.81413" lon="6.74504">
        <ele>1541</ele>
        <time>2026-08-14T06:56:35.540Z</time>
      </trkpt>
      <trkpt lat="45.81413" lon="6.74502">
        <ele>1542</ele>
        <time>2026-08-14T06:56:36.540Z</time>
      </trkpt>
      <trkpt lat="45.81412" lon="6.74499">
        <ele>1542</ele>
        <time>2026-08-14T06:56:37.540Z</time>
      </trkpt>
      <trkpt lat="45.81413" lon="6.74496">
        <ele>1543</ele>
        <time>2026-08-14T06:56:38.540Z</time>
      </trkpt>
      <trkpt lat="45.81412" lon="6.74494">
        <ele>1543</ele>
        <time>2026-08-14T06:56:39.540Z</time>
      </trkpt>
      <trkpt lat="45.81412" lon="6.74492">
        <ele>1543</ele>
        <time>2026-08-14T06:56:40.540Z</time>
      </trkpt>
      <trkpt lat="45.81412" lon="6.74489">
        <ele>1543</ele>
        <time>2026-08-14T06:56:41.540Z</time>
      </trkpt>
      <trkpt lat="45.81412" lon="6.74486">
        <ele>1543</ele>
        <time>2026-08-14T06:56:42.540Z</time>
      </trkpt>
      <trkpt lat="45.81412" lon="6.74484">
        <ele>1544</ele>
        <time>2026-08-14T06:56:43.540Z</time>
      </trkpt>
      <trkpt lat="45.81412" lon="6.74482">
        <ele>1544</ele>
        <time>2026-08-14T06:56:44.540Z</time>
      </trkpt>
      <trkpt lat="45.81411" lon="6.7448">
        <ele>1544</ele>
        <time>2026-08-14T06:56:45.540Z</time>
      </trkpt>
      <trkpt lat="45.8141" lon="6.74479">
        <ele>1544</ele>
        <time>2026-08-14T06:56:46.540Z</time>
      </trkpt>
      <trkpt lat="45.8141" lon="6.74477">
        <ele>1544</ele>
        <time>2026-08-14T06:56:47.540Z</time>
      </trkpt>
      <trkpt lat="45.81409" lon="6.74476">
        <ele>1543</ele>
        <time>2026-08-14T06:56:48.540Z</time>
      </trkpt>
      <trkpt lat="45.81408" lon="6.74475">
        <ele>1543</ele>
        <time>2026-08-14T06:56:49.540Z</time>
      </trkpt>
      <trkpt lat="45.81407" lon="6.74473">
        <ele>1543</ele>
        <time>2026-08-14T06:56:50.540Z</time>
      </trkpt>
      <trkpt lat="45.81407" lon="6.74472">
        <ele>1543</ele>
        <time>2026-08-14T06:56:51.540Z</time>
      </trkpt>
      <trkpt lat="45.81407" lon="6.7447">
        <ele>1543</ele>
        <time>2026-08-14T06:56:52.540Z</time>
      </trkpt>
      <trkpt lat="45.81408" lon="6.74469">
        <ele>1543</ele>
        <time>2026-08-14T06:56:53.540Z</time>
      </trkpt>
      <trkpt lat="45.81408" lon="6.74467">
        <ele>1543</ele>
        <time>2026-08-14T06:56:54.540Z</time>
      </trkpt>
      <trkpt lat="45.81408" lon="6.74465">
        <ele>1543</ele>
        <time>2026-08-14T06:56:55.540Z</time>
      </trkpt>
      <trkpt lat="45.81408" lon="6.74464">
        <ele>1544</ele>
        <time>2026-08-14T06:56:56.540Z</time>
      </trkpt>
      <trkpt lat="45.81408" lon="6.74462">
        <ele>1544</ele>
        <time>2026-08-14T06:56:57.540Z</time>
      </trkpt>
      <trkpt lat="45.81408" lon="6.7446">
        <ele>1544</ele>
        <time>2026-08-14T06:56:58.540Z</time>
      </trkpt>
      <trkpt lat="45.81407" lon="6.7446">
        <ele>1545</ele>
        <time>2026-08-14T06:56:59.540Z</time>
      </trkpt>
      <trkpt lat="45.81406" lon="6.74459">
        <ele>1545</ele>
        <time>2026-08-14T06:57:00.540Z</time>
      </trkpt>
      <trkpt lat="45.81405" lon="6.74458">
        <ele>1546</ele>
        <time>2026-08-14T06:57:01.540Z</time>
      </trkpt>
      <trkpt lat="45.81404" lon="6.74458">
        <ele>1546</ele>
        <time>2026-08-14T06:57:02.540Z</time>
      </trkpt>
      <trkpt lat="45.81402" lon="6.74457">
        <ele>1547</ele>
        <time>2026-08-14T06:57:03.540Z</time>
      </trkpt>
      <trkpt lat="45.81401" lon="6.74457">
        <ele>1547</ele>
        <time>2026-08-14T06:57:04.540Z</time>
      </trkpt>
      <trkpt lat="45.814" lon="6.74456">
        <ele>1548</ele>
        <time>2026-08-14T06:57:05.540Z</time>
      </trkpt>
      <trkpt lat="45.81399" lon="6.74455">
        <ele>1548</ele>
        <time>2026-08-14T06:57:06.540Z</time>
      </trkpt>
      <trkpt lat="45.81398" lon="6.74455">
        <ele>1549</ele>
        <time>2026-08-14T06:57:07.540Z</time>
      </trkpt>
      <trkpt lat="45.81396" lon="6.74454">
        <ele>1549</ele>
        <time>2026-08-14T06:57:08.540Z</time>
      </trkpt>
      <trkpt lat="45.81395" lon="6.74454">
        <ele>1550</ele>
        <time>2026-08-14T06:57:09.540Z</time>
      </trkpt>
      <trkpt lat="45.81395" lon="6.74454">
        <ele>1550</ele>
        <time>2026-08-14T06:57:10.540Z</time>
      </trkpt>
      <trkpt lat="45.81394" lon="6.74454">
        <ele>1551</ele>
        <time>2026-08-14T06:57:11.540Z</time>
      </trkpt>
      <trkpt lat="45.81394" lon="6.74454">
        <ele>1551</ele>
        <time>2026-08-14T06:57:12.540Z</time>
      </trkpt>
      <trkpt lat="45.81393" lon="6.74455">
        <ele>1551</ele>
        <time>2026-08-14T06:57:13.540Z</time>
      </trkpt>
      <trkpt lat="45.81392" lon="6.74455">
        <ele>1551</ele>
        <time>2026-08-14T06:57:14.540Z</time>
      </trkpt>
      <trkpt lat="45.81391" lon="6.74456">
        <ele>1551</ele>
        <time>2026-08-14T06:57:15.540Z</time>
      </trkpt>
      <trkpt lat="45.8139" lon="6.74456">
        <ele>1551</ele>
        <time>2026-08-14T06:57:16.540Z</time>
      </trkpt>
      <trkpt lat="45.81389" lon="6.74456">
        <ele>1551</ele>
        <time>2026-08-14T06:57:17.540Z</time>
      </trkpt>
      <trkpt lat="45.81387" lon="6.74456">
        <ele>1552</ele>
        <time>2026-08-14T06:57:18.540Z</time>
      </trkpt>
      <trkpt lat="45.81385" lon="6.74455">
        <ele>1552</ele>
        <time>2026-08-14T06:57:19.540Z</time>
      </trkpt>
      <trkpt lat="45.81384" lon="6.74455">
        <ele>1553</ele>
        <time>2026-08-14T06:57:20.540Z</time>
      </trkpt>
      <trkpt lat="45.81383" lon="6.74455">
        <ele>1553</ele>
        <time>2026-08-14T06:57:21.540Z</time>
      </trkpt>
      <trkpt lat="45.81382" lon="6.74455">
        <ele>1553</ele>
        <time>2026-08-14T06:57:22.540Z</time>
      </trkpt>
      <trkpt lat="45.81381" lon="6.74455">
        <ele>1554</ele>
        <time>2026-08-14T06:57:23.540Z</time>
      </trkpt>
      <trkpt lat="45.8138" lon="6.74456">
        <ele>1554</ele>
        <time>2026-08-14T06:57:24.540Z</time>
      </trkpt>
      <trkpt lat="45.81378" lon="6.74457">
        <ele>1555</ele>
        <time>2026-08-14T06:57:25.540Z</time>
      </trkpt>
      <trkpt lat="45.81378" lon="6.74458">
        <ele>1555</ele>
        <time>2026-08-14T06:57:26.540Z</time>
      </trkpt>
      <trkpt lat="45.81377" lon="6.74458">
        <ele>1556</ele>
        <time>2026-08-14T06:57:27.540Z</time>
      </trkpt>
      <trkpt lat="45.81377" lon="6.74459">
        <ele>1556</ele>
        <time>2026-08-14T06:57:28.540Z</time>
      </trkpt>
      <trkpt lat="45.81377" lon="6.74459">
        <ele>1557</ele>
        <time>2026-08-14T06:57:29.540Z</time>
      </trkpt>
      <trkpt lat="45.81376" lon="6.7446">
        <ele>1557</ele>
        <time>2026-08-14T06:57:30.540Z</time>
      </trkpt>
      <trkpt lat="45.81376" lon="6.7446">
        <ele>1557</ele>
        <time>2026-08-14T06:57:31.540Z</time>
      </trkpt>
      <trkpt lat="45.81375" lon="6.74461">
        <ele>1558</ele>
        <time>2026-08-14T06:57:32.540Z</time>
      </trkpt>
      <trkpt lat="45.81374" lon="6.74461">
        <ele>1558</ele>
        <time>2026-08-14T06:57:33.540Z</time>
      </trkpt>
      <trkpt lat="45.81373" lon="6.74461">
        <ele>1559</ele>
        <time>2026-08-14T06:57:34.540Z</time>
      </trkpt>
      <trkpt lat="45.81373" lon="6.74462">
        <ele>1559</ele>
        <time>2026-08-14T06:57:35.540Z</time>
      </trkpt>
      <trkpt lat="45.81374" lon="6.74462">
        <ele>1560</ele>
        <time>2026-08-14T06:57:36.540Z</time>
      </trkpt>
      <trkpt lat="45.81373" lon="6.74463">
        <ele>1560</ele>
        <time>2026-08-14T06:57:37.540Z</time>
      </trkpt>
      <trkpt lat="45.81372" lon="6.74464">
        <ele>1561</ele>
        <time>2026-08-14T06:57:38.540Z</time>
      </trkpt>
      <trkpt lat="45.81371" lon="6.74464">
        <ele>1561</ele>
        <time>2026-08-14T06:57:39.540Z</time>
      </trkpt>
      <trkpt lat="45.81371" lon="6.74464">
        <ele>1561</ele>
        <time>2026-08-14T06:57:40.540Z</time>
      </trkpt>
      <trkpt lat="45.81372" lon="6.74463">
        <ele>1561</ele>
        <time>2026-08-14T06:57:41.540Z</time>
      </trkpt>
      <trkpt lat="45.81372" lon="6.74463">
        <ele>1561</ele>
        <time>2026-08-14T06:57:42.540Z</time>
      </trkpt>
      <trkpt lat="45.81372" lon="6.74463">
        <ele>1561</ele>
        <time>2026-08-14T06:57:43.540Z</time>
      </trkpt>
      <trkpt lat="45.81372" lon="6.74462">
        <ele>1561</ele>
        <time>2026-08-14T06:57:44.540Z</time>
      </trkpt>
      <trkpt lat="45.81372" lon="6.74462">
        <ele>1562</ele>
        <time>2026-08-14T06:57:45.540Z</time>
      </trkpt>
      <trkpt lat="45.81372" lon="6.74462">
        <ele>1561</ele>
        <time>2026-08-14T06:57:46.540Z</time>
      </trkpt>
      <trkpt lat="45.81372" lon="6.74463">
        <ele>1561</ele>
        <time>2026-08-14T06:57:47.540Z</time>
      </trkpt>
      <trkpt lat="45.81372" lon="6.74462">
        <ele>1561</ele>
        <time>2026-08-14T06:57:48.540Z</time>
      </trkpt>
      <trkpt lat="45.81372" lon="6.74462">
        <ele>1562</ele>
        <time>2026-08-14T06:57:49.540Z</time>
      </trkpt>
      <trkpt lat="45.81372" lon="6.74461">
        <ele>1562</ele>
        <time>2026-08-14T06:57:50.540Z</time>
      </trkpt>
      <trkpt lat="45.81372" lon="6.74461">
        <ele>1562</ele>
        <time>2026-08-14T06:57:51.540Z</time>
      </trkpt>
      <trkpt lat="45.81372" lon="6.74461">
        <ele>1561</ele>
        <time>2026-08-14T06:57:52.540Z</time>
      </trkpt>
      <trkpt lat="45.81372" lon="6.74461">
        <ele>1561</ele>
        <time>2026-08-14T06:57:53.540Z</time>
      </trkpt>
      <trkpt lat="45.81372" lon="6.74461">
        <ele>1561</ele>
        <time>2026-08-14T06:57:54.540Z</time>
      </trkpt>
      <trkpt lat="45.81372" lon="6.74461">
        <ele>1561</ele>
        <time>2026-08-14T06:57:55.540Z</time>
      </trkpt>
      <trkpt lat="45.81372" lon="6.74461">
        <ele>1561</ele>
        <time>2026-08-14T06:57:56.540Z</time>
      </trkpt>
      <trkpt lat="45.81371" lon="6.74463">
        <ele>1561</ele>
        <time>2026-08-14T06:57:57.540Z</time>
      </trkpt>
      <trkpt lat="45.81372" lon="6.74464">
        <ele>1561</ele>
        <time>2026-08-14T06:57:58.540Z</time>
      </trkpt>
      <trkpt lat="45.81372" lon="6.74464">
        <ele>1561</ele>
        <time>2026-08-14T06:57:59.540Z</time>
      </trkpt>
      <trkpt lat="45.81371" lon="6.74465">
        <ele>1561</ele>
        <time>2026-08-14T06:58:00.540Z</time>
      </trkpt>
      <trkpt lat="45.81371" lon="6.74466">
        <ele>1561</ele>
        <time>2026-08-14T06:58:01.540Z</time>
      </trkpt>
      <trkpt lat="45.8137" lon="6.74464">
        <ele>1561</ele>
        <time>2026-08-14T06:58:02.540Z</time>
      </trkpt>
      <trkpt lat="45.81369" lon="6.74465">
        <ele>1561</ele>
        <time>2026-08-14T06:58:03.540Z</time>
      </trkpt>
      <trkpt lat="45.81368" lon="6.74465">
        <ele>1561</ele>
        <time>2026-08-14T06:58:04.540Z</time>
      </trkpt>
      <trkpt lat="45.81368" lon="6.74466">
        <ele>1561</ele>
        <time>2026-08-14T06:58:05.540Z</time>
      </trkpt>
      <trkpt lat="45.81368" lon="6.74466">
        <ele>1560</ele>
        <time>2026-08-14T06:58:06.540Z</time>
      </trkpt>
      <trkpt lat="45.81368" lon="6.74467">
        <ele>1560</ele>
        <time>2026-08-14T06:58:07.540Z</time>
      </trkpt>
      <trkpt lat="45.81367" lon="6.74467">
        <ele>1560</ele>
        <time>2026-08-14T06:58:08.540Z</time>
      </trkpt>
      <trkpt lat="45.81366" lon="6.74467">
        <ele>1560</ele>
        <time>2026-08-14T06:58:09.540Z</time>
      </trkpt>
      <trkpt lat="45.81365" lon="6.74468">
        <ele>1559</ele>
        <time>2026-08-14T06:58:10.540Z</time>
      </trkpt>
      <trkpt lat="45.81364" lon="6.74469">
        <ele>1559</ele>
        <time>2026-08-14T06:58:11.540Z</time>
      </trkpt>
      <trkpt lat="45.81363" lon="6.7447">
        <ele>1559</ele>
        <time>2026-08-14T06:58:12.540Z</time>
      </trkpt>
      <trkpt lat="45.81362" lon="6.74471">
        <ele>1559</ele>
        <time>2026-08-14T06:58:13.540Z</time>
      </trkpt>
      <trkpt lat="45.8136" lon="6.74473">
        <ele>1559</ele>
        <time>2026-08-14T06:58:14.540Z</time>
      </trkpt>
      <trkpt lat="45.81359" lon="6.74474">
        <ele>1559</ele>
        <time>2026-08-14T06:58:15.540Z</time>
      </trkpt>
      <trkpt lat="45.81358" lon="6.74475">
        <ele>1559</ele>
        <time>2026-08-14T06:58:16.540Z</time>
      </trkpt>
      <trkpt lat="45.81358" lon="6.74476">
        <ele>1559</ele>
        <time>2026-08-14T06:58:17.540Z</time>
      </trkpt>
      <trkpt lat="45.81357" lon="6.74477">
        <ele>1558</ele>
        <time>2026-08-14T06:58:18.540Z</time>
      </trkpt>
      <trkpt lat="45.81356" lon="6.74478">
        <ele>1558</ele>
        <time>2026-08-14T06:58:19.540Z</time>
      </trkpt>
      <trkpt lat="45.81355" lon="6.74479">
        <ele>1559</ele>
        <time>2026-08-14T06:58:20.540Z</time>
      </trkpt>
      <trkpt lat="45.81354" lon="6.7448">
        <ele>1559</ele>
        <time>2026-08-14T06:58:21.540Z</time>
      </trkpt>
      <trkpt lat="45.81353" lon="6.74482">
        <ele>1559</ele>
        <time>2026-08-14T06:58:22.540Z</time>
      </trkpt>
      <trkpt lat="45.81351" lon="6.74483">
        <ele>1559</ele>
        <time>2026-08-14T06:58:23.540Z</time>
      </trkpt>
      <trkpt lat="45.8135" lon="6.74483">
        <ele>1560</ele>
        <time>2026-08-14T06:58:24.540Z</time>
      </trkpt>
      <trkpt lat="45.81349" lon="6.74482">
        <ele>1560</ele>
        <time>2026-08-14T06:58:25.540Z</time>
      </trkpt>
      <trkpt lat="45.81348" lon="6.74482">
        <ele>1560</ele>
        <time>2026-08-14T06:58:26.540Z</time>
      </trkpt>
      <trkpt lat="45.81347" lon="6.74482">
        <ele>1561</ele>
        <time>2026-08-14T06:58:27.540Z</time>
      </trkpt>
      <trkpt lat="45.81346" lon="6.74482">
        <ele>1561</ele>
        <time>2026-08-14T06:58:28.540Z</time>
      </trkpt>
      <trkpt lat="45.81346" lon="6.74483">
        <ele>1562</ele>
        <time>2026-08-14T06:58:29.540Z</time>
      </trkpt>
      <trkpt lat="45.81345" lon="6.74484">
        <ele>1563</ele>
        <time>2026-08-14T06:58:30.540Z</time>
      </trkpt>
      <trkpt lat="45.81344" lon="6.74484">
        <ele>1563</ele>
        <time>2026-08-14T06:58:31.540Z</time>
      </trkpt>
      <trkpt lat="45.81343" lon="6.74485">
        <ele>1564</ele>
        <time>2026-08-14T06:58:32.540Z</time>
      </trkpt>
      <trkpt lat="45.81342" lon="6.74486">
        <ele>1564</ele>
        <time>2026-08-14T06:58:33.540Z</time>
      </trkpt>
      <trkpt lat="45.81341" lon="6.74486">
        <ele>1565</ele>
        <time>2026-08-14T06:58:34.540Z</time>
      </trkpt>
      <trkpt lat="45.81341" lon="6.74486">
        <ele>1565</ele>
        <time>2026-08-14T06:58:35.540Z</time>
      </trkpt>
      <trkpt lat="45.8134" lon="6.74486">
        <ele>1565</ele>
        <time>2026-08-14T06:58:36.540Z</time>
      </trkpt>
      <trkpt lat="45.8134" lon="6.74487">
        <ele>1565</ele>
        <time>2026-08-14T06:58:37.540Z</time>
      </trkpt>
      <trkpt lat="45.81339" lon="6.74489">
        <ele>1565</ele>
        <time>2026-08-14T06:58:38.540Z</time>
      </trkpt>
      <trkpt lat="45.81339" lon="6.7449">
        <ele>1565</ele>
        <time>2026-08-14T06:58:39.540Z</time>
      </trkpt>
      <trkpt lat="45.81338" lon="6.74491">
        <ele>1565</ele>
        <time>2026-08-14T06:58:40.540Z</time>
      </trkpt>
      <trkpt lat="45.81337" lon="6.74493">
        <ele>1564</ele>
        <time>2026-08-14T06:58:41.540Z</time>
      </trkpt>
      <trkpt lat="45.81336" lon="6.74494">
        <ele>1564</ele>
        <time>2026-08-14T06:58:42.540Z</time>
      </trkpt>
      <trkpt lat="45.81336" lon="6.74494">
        <ele>1564</ele>
        <time>2026-08-14T06:58:43.540Z</time>
      </trkpt>
      <trkpt lat="45.81335" lon="6.74494">
        <ele>1564</ele>
        <time>2026-08-14T06:58:44.540Z</time>
      </trkpt>
      <trkpt lat="45.81334" lon="6.74495">
        <ele>1563</ele>
        <time>2026-08-14T06:58:45.540Z</time>
      </trkpt>
      <trkpt lat="45.81332" lon="6.74495">
        <ele>1563</ele>
        <time>2026-08-14T06:58:46.540Z</time>
      </trkpt>
      <trkpt lat="45.81331" lon="6.74496">
        <ele>1563</ele>
        <time>2026-08-14T06:58:47.540Z</time>
      </trkpt>
      <trkpt lat="45.81331" lon="6.74496">
        <ele>1564</ele>
        <time>2026-08-14T06:58:48.540Z</time>
      </trkpt>
      <trkpt lat="45.81329" lon="6.74497">
        <ele>1564</ele>
        <time>2026-08-14T06:58:49.540Z</time>
      </trkpt>
      <trkpt lat="45.81328" lon="6.74498">
        <ele>1564</ele>
        <time>2026-08-14T06:58:50.540Z</time>
      </trkpt>
      <trkpt lat="45.81327" lon="6.74499">
        <ele>1564</ele>
        <time>2026-08-14T06:58:51.540Z</time>
      </trkpt>
      <trkpt lat="45.81326" lon="6.745">
        <ele>1564</ele>
        <time>2026-08-14T06:58:52.540Z</time>
      </trkpt>
      <trkpt lat="45.81325" lon="6.74501">
        <ele>1565</ele>
        <time>2026-08-14T06:58:53.540Z</time>
      </trkpt>
      <trkpt lat="45.81324" lon="6.74501">
        <ele>1565</ele>
        <time>2026-08-14T06:58:54.540Z</time>
      </trkpt>
      <trkpt lat="45.81324" lon="6.74503">
        <ele>1566</ele>
        <time>2026-08-14T06:58:55.540Z</time>
      </trkpt>
      <trkpt lat="45.81323" lon="6.74504">
        <ele>1566</ele>
        <time>2026-08-14T06:58:56.540Z</time>
      </trkpt>
      <trkpt lat="45.81322" lon="6.74505">
        <ele>1566</ele>
        <time>2026-08-14T06:58:57.540Z</time>
      </trkpt>
      <trkpt lat="45.81321" lon="6.74506">
        <ele>1566</ele>
        <time>2026-08-14T06:58:58.540Z</time>
      </trkpt>
      <trkpt lat="45.8132" lon="6.74507">
        <ele>1567</ele>
        <time>2026-08-14T06:58:59.540Z</time>
      </trkpt>
      <trkpt lat="45.81319" lon="6.74508">
        <ele>1567</ele>
        <time>2026-08-14T06:59:00.540Z</time>
      </trkpt>
      <trkpt lat="45.81319" lon="6.7451">
        <ele>1567</ele>
        <time>2026-08-14T06:59:01.540Z</time>
      </trkpt>
      <trkpt lat="45.81318" lon="6.7451">
        <ele>1567</ele>
        <time>2026-08-14T06:59:02.540Z</time>
      </trkpt>
      <trkpt lat="45.81317" lon="6.74511">
        <ele>1567</ele>
        <time>2026-08-14T06:59:03.540Z</time>
      </trkpt>
      <trkpt lat="45.81316" lon="6.74513">
        <ele>1567</ele>
        <time>2026-08-14T06:59:04.540Z</time>
      </trkpt>
      <trkpt lat="45.81316" lon="6.74513">
        <ele>1568</ele>
        <time>2026-08-14T06:59:05.540Z</time>
      </trkpt>
      <trkpt lat="45.81315" lon="6.74513">
        <ele>1568</ele>
        <time>2026-08-14T06:59:06.540Z</time>
      </trkpt>
      <trkpt lat="45.81315" lon="6.74513">
        <ele>1568</ele>
        <time>2026-08-14T06:59:07.540Z</time>
      </trkpt>
      <trkpt lat="45.81315" lon="6.74513">
        <ele>1568</ele>
        <time>2026-08-14T06:59:08.540Z</time>
      </trkpt>
      <trkpt lat="45.81314" lon="6.74512">
        <ele>1568</ele>
        <time>2026-08-14T06:59:09.540Z</time>
      </trkpt>
      <trkpt lat="45.81314" lon="6.74512">
        <ele>1568</ele>
        <time>2026-08-14T06:59:10.540Z</time>
      </trkpt>
      <trkpt lat="45.81313" lon="6.74511">
        <ele>1568</ele>
        <time>2026-08-14T06:59:11.540Z</time>
      </trkpt>
      <trkpt lat="45.81313" lon="6.74511">
        <ele>1568</ele>
        <time>2026-08-14T06:59:12.540Z</time>
      </trkpt>
      <trkpt lat="45.81313" lon="6.74511">
        <ele>1568</ele>
        <time>2026-08-14T06:59:13.540Z</time>
      </trkpt>
      <trkpt lat="45.81313" lon="6.74511">
        <ele>1568</ele>
        <time>2026-08-14T06:59:14.540Z</time>
      </trkpt>
      <trkpt lat="45.81313" lon="6.74511">
        <ele>1568</ele>
        <time>2026-08-14T06:59:15.540Z</time>
      </trkpt>
      <trkpt lat="45.81313" lon="6.74512">
        <ele>1568</ele>
        <time>2026-08-14T06:59:16.540Z</time>
      </trkpt>
      <trkpt lat="45.81313" lon="6.74512">
        <ele>1567</ele>
        <time>2026-08-14T06:59:17.540Z</time>
      </trkpt>
      <trkpt lat="45.81313" lon="6.74512">
        <ele>1567</ele>
        <time>2026-08-14T06:59:18.540Z</time>
      </trkpt>
      <trkpt lat="45.81313" lon="6.74512">
        <ele>1567</ele>
        <time>2026-08-14T06:59:19.540Z</time>
      </trkpt>
      <trkpt lat="45.81313" lon="6.74512">
        <ele>1567</ele>
        <time>2026-08-14T06:59:20.540Z</time>
      </trkpt>
      <trkpt lat="45.81313" lon="6.74512">
        <ele>1567</ele>
        <time>2026-08-14T06:59:21.540Z</time>
      </trkpt>
      <trkpt lat="45.81313" lon="6.74512">
        <ele>1566</ele>
        <time>2026-08-14T06:59:22.540Z</time>
      </trkpt>
      <trkpt lat="45.81313" lon="6.74512">
        <ele>1566</ele>
        <time>2026-08-14T06:59:23.540Z</time>
      </trkpt>
      <trkpt lat="45.81312" lon="6.74512">
        <ele>1566</ele>
        <time>2026-08-14T06:59:24.540Z</time>
      </trkpt>
      <trkpt lat="45.81312" lon="6.74513">
        <ele>1566</ele>
        <time>2026-08-14T06:59:25.540Z</time>
      </trkpt>
      <trkpt lat="45.81312" lon="6.74513">
        <ele>1567</ele>
        <time>2026-08-14T06:59:26.540Z</time>
      </trkpt>
      <trkpt lat="45.81311" lon="6.74514">
        <ele>1567</ele>
        <time>2026-08-14T06:59:27.540Z</time>
      </trkpt>
      <trkpt lat="45.81311" lon="6.74514">
        <ele>1567</ele>
        <time>2026-08-14T06:59:28.540Z</time>
      </trkpt>
      <trkpt lat="45.81311" lon="6.74515">
        <ele>1568</ele>
        <time>2026-08-14T06:59:29.540Z</time>
      </trkpt>
      <trkpt lat="45.8131" lon="6.74516">
        <ele>1567</ele>
        <time>2026-08-14T06:59:30.540Z</time>
      </trkpt>
      <trkpt lat="45.81309" lon="6.74517">
        <ele>1567</ele>
        <time>2026-08-14T06:59:31.540Z</time>
      </trkpt>
      <trkpt lat="45.81308" lon="6.74518">
        <ele>1567</ele>
        <time>2026-08-14T06:59:32.540Z</time>
      </trkpt>
      <trkpt lat="45.81308" lon="6.74519">
        <ele>1567</ele>
        <time>2026-08-14T06:59:33.540Z</time>
      </trkpt>
      <trkpt lat="45.81307" lon="6.74521">
        <ele>1567</ele>
        <time>2026-08-14T06:59:34.540Z</time>
      </trkpt>
      <trkpt lat="45.81306" lon="6.74523">
        <ele>1568</ele>
        <time>2026-08-14T06:59:35.540Z</time>
      </trkpt>
      <trkpt lat="45.81305" lon="6.74525">
        <ele>1568</ele>
        <time>2026-08-14T06:59:36.540Z</time>
      </trkpt>
      <trkpt lat="45.81304" lon="6.74526">
        <ele>1568</ele>
        <time>2026-08-14T06:59:37.540Z</time>
      </trkpt>
      <trkpt lat="45.81302" lon="6.74527">
        <ele>1568</ele>
        <time>2026-08-14T06:59:38.540Z</time>
      </trkpt>
      <trkpt lat="45.81301" lon="6.74528">
        <ele>1568</ele>
        <time>2026-08-14T06:59:39.540Z</time>
      </trkpt>
      <trkpt lat="45.81299" lon="6.74528">
        <ele>1568</ele>
        <time>2026-08-14T06:59:40.540Z</time>
      </trkpt>
      <trkpt lat="45.81298" lon="6.74527">
        <ele>1569</ele>
        <time>2026-08-14T06:59:41.540Z</time>
      </trkpt>
      <trkpt lat="45.81297" lon="6.74527">
        <ele>1569</ele>
        <time>2026-08-14T06:59:42.540Z</time>
      </trkpt>
      <trkpt lat="45.81295" lon="6.74527">
        <ele>1569</ele>
        <time>2026-08-14T06:59:43.540Z</time>
      </trkpt>
      <trkpt lat="45.81294" lon="6.74526">
        <ele>1569</ele>
        <time>2026-08-14T06:59:44.540Z</time>
      </trkpt>
      <trkpt lat="45.81293" lon="6.74526">
        <ele>1570</ele>
        <time>2026-08-14T06:59:45.540Z</time>
      </trkpt>
      <trkpt lat="45.81292" lon="6.74526">
        <ele>1570</ele>
        <time>2026-08-14T06:59:46.540Z</time>
      </trkpt>
      <trkpt lat="45.81291" lon="6.74526">
        <ele>1570</ele>
        <time>2026-08-14T06:59:47.540Z</time>
      </trkpt>
      <trkpt lat="45.8129" lon="6.74526">
        <ele>1571</ele>
        <time>2026-08-14T06:59:48.540Z</time>
      </trkpt>
      <trkpt lat="45.8129" lon="6.74527">
        <ele>1571</ele>
        <time>2026-08-14T06:59:49.540Z</time>
      </trkpt>
      <trkpt lat="45.81289" lon="6.74527">
        <ele>1571</ele>
        <time>2026-08-14T06:59:50.540Z</time>
      </trkpt>
      <trkpt lat="45.81288" lon="6.74528">
        <ele>1572</ele>
        <time>2026-08-14T06:59:51.540Z</time>
      </trkpt>
      <trkpt lat="45.81287" lon="6.74529">
        <ele>1572</ele>
        <time>2026-08-14T06:59:52.540Z</time>
      </trkpt>
      <trkpt lat="45.81287" lon="6.7453">
        <ele>1572</ele>
        <time>2026-08-14T06:59:53.540Z</time>
      </trkpt>
      <trkpt lat="45.81287" lon="6.74531">
        <ele>1573</ele>
        <time>2026-08-14T06:59:54.540Z</time>
      </trkpt>
      <trkpt lat="45.81287" lon="6.74532">
        <ele>1573</ele>
        <time>2026-08-14T06:59:55.540Z</time>
      </trkpt>
      <trkpt lat="45.81287" lon="6.74533">
        <ele>1574</ele>
        <time>2026-08-14T06:59:56.540Z</time>
      </trkpt>
      <trkpt lat="45.81287" lon="6.74535">
        <ele>1574</ele>
        <time>2026-08-14T06:59:57.540Z</time>
      </trkpt>
      <trkpt lat="45.81288" lon="6.74536">
        <ele>1574</ele>
        <time>2026-08-14T06:59:58.540Z</time>
      </trkpt>
      <trkpt lat="45.81288" lon="6.74538">
        <ele>1575</ele>
        <time>2026-08-14T06:59:59.540Z</time>
      </trkpt>
      <trkpt lat="45.81289" lon="6.74539">
        <ele>1575</ele>
        <time>2026-08-14T07:00:00.540Z</time>
      </trkpt>
      <trkpt lat="45.8129" lon="6.74541">
        <ele>1576</ele>
        <time>2026-08-14T07:00:01.540Z</time>
      </trkpt>
      <trkpt lat="45.8129" lon="6.74543">
        <ele>1576</ele>
        <time>2026-08-14T07:00:02.540Z</time>
      </trkpt>
      <trkpt lat="45.8129" lon="6.74544">
        <ele>1577</ele>
        <time>2026-08-14T07:00:03.540Z</time>
      </trkpt>
      <trkpt lat="45.81289" lon="6.74545">
        <ele>1577</ele>
        <time>2026-08-14T07:00:04.540Z</time>
      </trkpt>
      <trkpt lat="45.81289" lon="6.74547">
        <ele>1577</ele>
        <time>2026-08-14T07:00:05.540Z</time>
      </trkpt>
      <trkpt lat="45.81288" lon="6.74548">
        <ele>1577</ele>
        <time>2026-08-14T07:00:06.540Z</time>
      </trkpt>
      <trkpt lat="45.81288" lon="6.74549">
        <ele>1576</ele>
        <time>2026-08-14T07:00:07.540Z</time>
      </trkpt>
      <trkpt lat="45.81287" lon="6.7455">
        <ele>1576</ele>
        <time>2026-08-14T07:00:08.540Z</time>
      </trkpt>
      <trkpt lat="45.81287" lon="6.74552">
        <ele>1576</ele>
        <time>2026-08-14T07:00:09.540Z</time>
      </trkpt>
      <trkpt lat="45.81287" lon="6.74553">
        <ele>1576</ele>
        <time>2026-08-14T07:00:10.540Z</time>
      </trkpt>
      <trkpt lat="45.81287" lon="6.74555">
        <ele>1577</ele>
        <time>2026-08-14T07:00:11.540Z</time>
      </trkpt>
      <trkpt lat="45.81287" lon="6.74556">
        <ele>1577</ele>
        <time>2026-08-14T07:00:12.540Z</time>
      </trkpt>
      <trkpt lat="45.81287" lon="6.74558">
        <ele>1577</ele>
        <time>2026-08-14T07:00:13.540Z</time>
      </trkpt>
      <trkpt lat="45.81287" lon="6.7456">
        <ele>1578</ele>
        <time>2026-08-14T07:00:14.540Z</time>
      </trkpt>
      <trkpt lat="45.81287" lon="6.74561">
        <ele>1578</ele>
        <time>2026-08-14T07:00:15.540Z</time>
      </trkpt>
      <trkpt lat="45.81289" lon="6.74561">
        <ele>1579</ele>
        <time>2026-08-14T07:00:16.540Z</time>
      </trkpt>
      <trkpt lat="45.81289" lon="6.74562">
        <ele>1579</ele>
        <time>2026-08-14T07:00:17.540Z</time>
      </trkpt>
      <trkpt lat="45.8129" lon="6.74562">
        <ele>1579</ele>
        <time>2026-08-14T07:00:18.540Z</time>
      </trkpt>
      <trkpt lat="45.8129" lon="6.74563">
        <ele>1579</ele>
        <time>2026-08-14T07:00:19.540Z</time>
      </trkpt>
      <trkpt lat="45.81291" lon="6.74563">
        <ele>1580</ele>
        <time>2026-08-14T07:00:20.540Z</time>
      </trkpt>
      <trkpt lat="45.81291" lon="6.74564">
        <ele>1580</ele>
        <time>2026-08-14T07:00:21.540Z</time>
      </trkpt>
      <trkpt lat="45.8129" lon="6.74566">
        <ele>1581</ele>
        <time>2026-08-14T07:00:22.540Z</time>
      </trkpt>
      <trkpt lat="45.8129" lon="6.74566">
        <ele>1581</ele>
        <time>2026-08-14T07:00:23.540Z</time>
      </trkpt>
      <trkpt lat="45.81289" lon="6.74567">
        <ele>1582</ele>
        <time>2026-08-14T07:00:24.540Z</time>
      </trkpt>
      <trkpt lat="45.81288" lon="6.74567">
        <ele>1582</ele>
        <time>2026-08-14T07:00:25.540Z</time>
      </trkpt>
      <trkpt lat="45.81287" lon="6.74568">
        <ele>1582</ele>
        <time>2026-08-14T07:00:26.540Z</time>
      </trkpt>
      <trkpt lat="45.81287" lon="6.74568">
        <ele>1583</ele>
        <time>2026-08-14T07:00:27.540Z</time>
      </trkpt>
      <trkpt lat="45.81286" lon="6.74569">
        <ele>1583</ele>
        <time>2026-08-14T07:00:28.540Z</time>
      </trkpt>
      <trkpt lat="45.81285" lon="6.74571">
        <ele>1584</ele>
        <time>2026-08-14T07:00:29.540Z</time>
      </trkpt>
      <trkpt lat="45.81285" lon="6.74573">
        <ele>1584</ele>
        <time>2026-08-14T07:00:30.540Z</time>
      </trkpt>
      <trkpt lat="45.81284" lon="6.74574">
        <ele>1584</ele>
        <time>2026-08-14T07:00:31.540Z</time>
      </trkpt>
      <trkpt lat="45.81283" lon="6.74575">
        <ele>1584</ele>
        <time>2026-08-14T07:00:32.540Z</time>
      </trkpt>
      <trkpt lat="45.81283" lon="6.74576">
        <ele>1585</ele>
        <time>2026-08-14T07:00:33.540Z</time>
      </trkpt>
      <trkpt lat="45.81282" lon="6.74578">
        <ele>1585</ele>
        <time>2026-08-14T07:00:34.540Z</time>
      </trkpt>
      <trkpt lat="45.81281" lon="6.74579">
        <ele>1585</ele>
        <time>2026-08-14T07:00:35.540Z</time>
      </trkpt>
      <trkpt lat="45.8128" lon="6.7458">
        <ele>1584</ele>
        <time>2026-08-14T07:00:36.540Z</time>
      </trkpt>
      <trkpt lat="45.81279" lon="6.74581">
        <ele>1584</ele>
        <time>2026-08-14T07:00:37.540Z</time>
      </trkpt>
      <trkpt lat="45.81278" lon="6.74582">
        <ele>1584</ele>
        <time>2026-08-14T07:00:38.540Z</time>
      </trkpt>
      <trkpt lat="45.81276" lon="6.74583">
        <ele>1584</ele>
        <time>2026-08-14T07:00:39.540Z</time>
      </trkpt>
      <trkpt lat="45.81275" lon="6.74583">
        <ele>1584</ele>
        <time>2026-08-14T07:00:40.540Z</time>
      </trkpt>
      <trkpt lat="45.81274" lon="6.74582">
        <ele>1584</ele>
        <time>2026-08-14T07:00:41.540Z</time>
      </trkpt>
      <trkpt lat="45.81273" lon="6.74582">
        <ele>1584</ele>
        <time>2026-08-14T07:00:42.540Z</time>
      </trkpt>
      <trkpt lat="45.81272" lon="6.74581">
        <ele>1584</ele>
        <time>2026-08-14T07:00:43.540Z</time>
      </trkpt>
      <trkpt lat="45.81271" lon="6.74579">
        <ele>1584</ele>
        <time>2026-08-14T07:00:44.540Z</time>
      </trkpt>
      <trkpt lat="45.8127" lon="6.74579">
        <ele>1584</ele>
        <time>2026-08-14T07:00:45.540Z</time>
      </trkpt>
      <trkpt lat="45.81269" lon="6.74578">
        <ele>1585</ele>
        <time>2026-08-14T07:00:46.540Z</time>
      </trkpt>
      <trkpt lat="45.81268" lon="6.74578">
        <ele>1585</ele>
        <time>2026-08-14T07:00:47.540Z</time>
      </trkpt>
      <trkpt lat="45.81267" lon="6.74577">
        <ele>1585</ele>
        <time>2026-08-14T07:00:48.540Z</time>
      </trkpt>
      <trkpt lat="45.81266" lon="6.74578">
        <ele>1585</ele>
        <time>2026-08-14T07:00:49.540Z</time>
      </trkpt>
      <trkpt lat="45.81265" lon="6.74578">
        <ele>1585</ele>
        <time>2026-08-14T07:00:50.540Z</time>
      </trkpt>
      <trkpt lat="45.81265" lon="6.74578">
        <ele>1585</ele>
        <time>2026-08-14T07:00:51.540Z</time>
      </trkpt>
      <trkpt lat="45.81264" lon="6.74579">
        <ele>1585</ele>
        <time>2026-08-14T07:00:52.540Z</time>
      </trkpt>
      <trkpt lat="45.81265" lon="6.7458">
        <ele>1585</ele>
        <time>2026-08-14T07:00:53.540Z</time>
      </trkpt>
      <trkpt lat="45.81265" lon="6.74582">
        <ele>1585</ele>
        <time>2026-08-14T07:00:54.540Z</time>
      </trkpt>
      <trkpt lat="45.81265" lon="6.74583">
        <ele>1585</ele>
        <time>2026-08-14T07:00:55.540Z</time>
      </trkpt>
      <trkpt lat="45.81265" lon="6.74585">
        <ele>1585</ele>
        <time>2026-08-14T07:00:56.540Z</time>
      </trkpt>
      <trkpt lat="45.81264" lon="6.74585">
        <ele>1585</ele>
        <time>2026-08-14T07:00:57.540Z</time>
      </trkpt>
      <trkpt lat="45.81264" lon="6.74587">
        <ele>1585</ele>
        <time>2026-08-14T07:00:58.540Z</time>
      </trkpt>
      <trkpt lat="45.81264" lon="6.74588">
        <ele>1585</ele>
        <time>2026-08-14T07:00:59.540Z</time>
      </trkpt>
      <trkpt lat="45.81264" lon="6.74589">
        <ele>1585</ele>
        <time>2026-08-14T07:01:00.540Z</time>
      </trkpt>
      <trkpt lat="45.81264" lon="6.74591">
        <ele>1586</ele>
        <time>2026-08-14T07:01:01.540Z</time>
      </trkpt>
      <trkpt lat="45.81263" lon="6.74592">
        <ele>1586</ele>
        <time>2026-08-14T07:01:02.540Z</time>
      </trkpt>
      <trkpt lat="45.81262" lon="6.74593">
        <ele>1586</ele>
        <time>2026-08-14T07:01:03.540Z</time>
      </trkpt>
      <trkpt lat="45.81262" lon="6.74594">
        <ele>1587</ele>
        <time>2026-08-14T07:01:04.540Z</time>
      </trkpt>
      <trkpt lat="45.81262" lon="6.74595">
        <ele>1587</ele>
        <time>2026-08-14T07:01:05.540Z</time>
      </trkpt>
      <trkpt lat="45.81263" lon="6.74597">
        <ele>1587</ele>
        <time>2026-08-14T07:01:06.540Z</time>
      </trkpt>
      <trkpt lat="45.81264" lon="6.74598">
        <ele>1587</ele>
        <time>2026-08-14T07:01:07.540Z</time>
      </trkpt>
      <trkpt lat="45.81265" lon="6.746">
        <ele>1588</ele>
        <time>2026-08-14T07:01:08.540Z</time>
      </trkpt>
      <trkpt lat="45.81266" lon="6.74601">
        <ele>1588</ele>
        <time>2026-08-14T07:01:09.540Z</time>
      </trkpt>
      <trkpt lat="45.81267" lon="6.74602">
        <ele>1588</ele>
        <time>2026-08-14T07:01:10.540Z</time>
      </trkpt>
      <trkpt lat="45.81267" lon="6.74604">
        <ele>1589</ele>
        <time>2026-08-14T07:01:11.540Z</time>
      </trkpt>
      <trkpt lat="45.81268" lon="6.74606">
        <ele>1589</ele>
        <time>2026-08-14T07:01:12.540Z</time>
      </trkpt>
      <trkpt lat="45.81269" lon="6.74608">
        <ele>1589</ele>
        <time>2026-08-14T07:01:13.540Z</time>
      </trkpt>
      <trkpt lat="45.8127" lon="6.74609">
        <ele>1590</ele>
        <time>2026-08-14T07:01:14.540Z</time>
      </trkpt>
      <trkpt lat="45.81271" lon="6.7461">
        <ele>1590</ele>
        <time>2026-08-14T07:01:15.540Z</time>
      </trkpt>
      <trkpt lat="45.81273" lon="6.74612">
        <ele>1591</ele>
        <time>2026-08-14T07:01:16.540Z</time>
      </trkpt>
      <trkpt lat="45.81274" lon="6.74613">
        <ele>1591</ele>
        <time>2026-08-14T07:01:17.540Z</time>
      </trkpt>
      <trkpt lat="45.81275" lon="6.74614">
        <ele>1591</ele>
        <time>2026-08-14T07:01:18.540Z</time>
      </trkpt>
      <trkpt lat="45.81276" lon="6.74614">
        <ele>1592</ele>
        <time>2026-08-14T07:01:19.540Z</time>
      </trkpt>
      <trkpt lat="45.81277" lon="6.74614">
        <ele>1592</ele>
        <time>2026-08-14T07:01:20.540Z</time>
      </trkpt>
      <trkpt lat="45.81278" lon="6.74614">
        <ele>1592</ele>
        <time>2026-08-14T07:01:21.540Z</time>
      </trkpt>
      <trkpt lat="45.81278" lon="6.74614">
        <ele>1592</ele>
        <time>2026-08-14T07:01:22.540Z</time>
      </trkpt>
      <trkpt lat="45.81279" lon="6.74614">
        <ele>1592</ele>
        <time>2026-08-14T07:01:23.540Z</time>
      </trkpt>
      <trkpt lat="45.81279" lon="6.74614">
        <ele>1592</ele>
        <time>2026-08-14T07:01:24.540Z</time>
      </trkpt>
      <trkpt lat="45.8128" lon="6.74614">
        <ele>1591</ele>
        <time>2026-08-14T07:01:25.540Z</time>
      </trkpt>
      <trkpt lat="45.81281" lon="6.74613">
        <ele>1591</ele>
        <time>2026-08-14T07:01:26.540Z</time>
      </trkpt>
      <trkpt lat="45.81281" lon="6.74613">
        <ele>1591</ele>
        <time>2026-08-14T07:01:27.540Z</time>
      </trkpt>
      <trkpt lat="45.81282" lon="6.74612">
        <ele>1591</ele>
        <time>2026-08-14T07:01:28.540Z</time>
      </trkpt>
      <trkpt lat="45.81282" lon="6.74611">
        <ele>1591</ele>
        <time>2026-08-14T07:01:29.540Z</time>
      </trkpt>
      <trkpt lat="45.81283" lon="6.7461">
        <ele>1591</ele>
        <time>2026-08-14T07:01:30.540Z</time>
      </trkpt>
      <trkpt lat="45.81285" lon="6.74609">
        <ele>1591</ele>
        <time>2026-08-14T07:01:31.540Z</time>
      </trkpt>
      <trkpt lat="45.81286" lon="6.74607">
        <ele>1591</ele>
        <time>2026-08-14T07:01:32.540Z</time>
      </trkpt>
      <trkpt lat="45.81286" lon="6.74606">
        <ele>1591</ele>
        <time>2026-08-14T07:01:33.540Z</time>
      </trkpt>
      <trkpt lat="45.81288" lon="6.74606">
        <ele>1591</ele>
        <time>2026-08-14T07:01:34.540Z</time>
      </trkpt>
      <trkpt lat="45.81288" lon="6.74605">
        <ele>1591</ele>
        <time>2026-08-14T07:01:35.540Z</time>
      </trkpt>
      <trkpt lat="45.81289" lon="6.74605">
        <ele>1591</ele>
        <time>2026-08-14T07:01:36.540Z</time>
      </trkpt>
      <trkpt lat="45.8129" lon="6.74606">
        <ele>1591</ele>
        <time>2026-08-14T07:01:37.540Z</time>
      </trkpt>
      <trkpt lat="45.8129" lon="6.74606">
        <ele>1591</ele>
        <time>2026-08-14T07:01:38.540Z</time>
      </trkpt>
      <trkpt lat="45.8129" lon="6.74606">
        <ele>1592</ele>
        <time>2026-08-14T07:01:39.540Z</time>
      </trkpt>
      <trkpt lat="45.81291" lon="6.74607">
        <ele>1592</ele>
        <time>2026-08-14T07:01:40.540Z</time>
      </trkpt>
      <trkpt lat="45.81291" lon="6.74607">
        <ele>1592</ele>
        <time>2026-08-14T07:01:41.540Z</time>
      </trkpt>
      <trkpt lat="45.81292" lon="6.74607">
        <ele>1592</ele>
        <time>2026-08-14T07:01:42.540Z</time>
      </trkpt>
      <trkpt lat="45.81293" lon="6.74607">
        <ele>1592</ele>
        <time>2026-08-14T07:01:43.540Z</time>
      </trkpt>
      <trkpt lat="45.81293" lon="6.74607">
        <ele>1593</ele>
        <time>2026-08-14T07:01:44.540Z</time>
      </trkpt>
      <trkpt lat="45.81294" lon="6.74606">
        <ele>1593</ele>
        <time>2026-08-14T07:01:45.540Z</time>
      </trkpt>
      <trkpt lat="45.81295" lon="6.74606">
        <ele>1593</ele>
        <time>2026-08-14T07:01:46.540Z</time>
      </trkpt>
      <trkpt lat="45.81296" lon="6.74605">
        <ele>1593</ele>
        <time>2026-08-14T07:01:47.540Z</time>
      </trkpt>
      <trkpt lat="45.81297" lon="6.74605">
        <ele>1593</ele>
        <time>2026-08-14T07:01:48.540Z</time>
      </trkpt>
      <trkpt lat="45.81298" lon="6.74604">
        <ele>1594</ele>
        <time>2026-08-14T07:01:49.540Z</time>
      </trkpt>
      <trkpt lat="45.81299" lon="6.74603">
        <ele>1594</ele>
        <time>2026-08-14T07:01:50.540Z</time>
      </trkpt>
      <trkpt lat="45.813" lon="6.74602">
        <ele>1595</ele>
        <time>2026-08-14T07:01:51.540Z</time>
      </trkpt>
      <trkpt lat="45.81301" lon="6.74602">
        <ele>1595</ele>
        <time>2026-08-14T07:01:52.540Z</time>
      </trkpt>
      <trkpt lat="45.81303" lon="6.74602">
        <ele>1596</ele>
        <time>2026-08-14T07:01:53.540Z</time>
      </trkpt>
      <trkpt lat="45.81304" lon="6.74601">
        <ele>1596</ele>
        <time>2026-08-14T07:01:54.540Z</time>
      </trkpt>
      <trkpt lat="45.81304" lon="6.74601">
        <ele>1597</ele>
        <time>2026-08-14T07:01:55.540Z</time>
      </trkpt>
      <trkpt lat="45.81305" lon="6.746">
        <ele>1597</ele>
        <time>2026-08-14T07:01:56.540Z</time>
      </trkpt>
      <trkpt lat="45.81305" lon="6.74599">
        <ele>1597</ele>
        <time>2026-08-14T07:01:57.540Z</time>
      </trkpt>
      <trkpt lat="45.81305" lon="6.74598">
        <ele>1597</ele>
        <time>2026-08-14T07:01:58.540Z</time>
      </trkpt>
      <trkpt lat="45.81306" lon="6.74596">
        <ele>1597</ele>
        <time>2026-08-14T07:01:59.540Z</time>
      </trkpt>
      <trkpt lat="45.81307" lon="6.74596">
        <ele>1598</ele>
        <time>2026-08-14T07:02:00.540Z</time>
      </trkpt>
      <trkpt lat="45.81309" lon="6.74595">
        <ele>1598</ele>
        <time>2026-08-14T07:02:01.540Z</time>
      </trkpt>
      <trkpt lat="45.81309" lon="6.74594">
        <ele>1598</ele>
        <time>2026-08-14T07:02:02.540Z</time>
      </trkpt>
      <trkpt lat="45.8131" lon="6.74594">
        <ele>1599</ele>
        <time>2026-08-14T07:02:03.540Z</time>
      </trkpt>
      <trkpt lat="45.81311" lon="6.74594">
        <ele>1600</ele>
        <time>2026-08-14T07:02:04.540Z</time>
      </trkpt>
      <trkpt lat="45.81312" lon="6.74594">
        <ele>1600</ele>
        <time>2026-08-14T07:02:05.540Z</time>
      </trkpt>
      <trkpt lat="45.81313" lon="6.74594">
        <ele>1601</ele>
        <time>2026-08-14T07:02:06.540Z</time>
      </trkpt>
      <trkpt lat="45.81314" lon="6.74593">
        <ele>1601</ele>
        <time>2026-08-14T07:02:07.540Z</time>
      </trkpt>
      <trkpt lat="45.81315" lon="6.74593">
        <ele>1602</ele>
        <time>2026-08-14T07:02:08.540Z</time>
      </trkpt>
      <trkpt lat="45.81316" lon="6.74592">
        <ele>1603</ele>
        <time>2026-08-14T07:02:09.540Z</time>
      </trkpt>
      <trkpt lat="45.81317" lon="6.74592">
        <ele>1603</ele>
        <time>2026-08-14T07:02:10.540Z</time>
      </trkpt>
      <trkpt lat="45.81318" lon="6.74592">
        <ele>1603</ele>
        <time>2026-08-14T07:02:11.540Z</time>
      </trkpt>
      <trkpt lat="45.81319" lon="6.74592">
        <ele>1603</ele>
        <time>2026-08-14T07:02:12.540Z</time>
      </trkpt>
      <trkpt lat="45.8132" lon="6.74591">
        <ele>1603</ele>
        <time>2026-08-14T07:02:13.540Z</time>
      </trkpt>
      <trkpt lat="45.8132" lon="6.7459">
        <ele>1603</ele>
        <time>2026-08-14T07:02:14.540Z</time>
      </trkpt>
      <trkpt lat="45.81321" lon="6.74589">
        <ele>1603</ele>
        <time>2026-08-14T07:02:15.540Z</time>
      </trkpt>
      <trkpt lat="45.81322" lon="6.74589">
        <ele>1603</ele>
        <time>2026-08-14T07:02:16.540Z</time>
      </trkpt>
      <trkpt lat="45.81324" lon="6.74588">
        <ele>1603</ele>
        <time>2026-08-14T07:02:17.540Z</time>
      </trkpt>
      <trkpt lat="45.81324" lon="6.74588">
        <ele>1603</ele>
        <time>2026-08-14T07:02:18.540Z</time>
      </trkpt>
      <trkpt lat="45.81326" lon="6.74587">
        <ele>1603</ele>
        <time>2026-08-14T07:02:19.540Z</time>
      </trkpt>
      <trkpt lat="45.81327" lon="6.74587">
        <ele>1603</ele>
        <time>2026-08-14T07:02:20.540Z</time>
      </trkpt>
      <trkpt lat="45.81327" lon="6.74587">
        <ele>1603</ele>
        <time>2026-08-14T07:02:21.540Z</time>
      </trkpt>
      <trkpt lat="45.81328" lon="6.74587">
        <ele>1603</ele>
        <time>2026-08-14T07:02:22.540Z</time>
      </trkpt>
      <trkpt lat="45.81329" lon="6.74587">
        <ele>1603</ele>
        <time>2026-08-14T07:02:23.540Z</time>
      </trkpt>
      <trkpt lat="45.8133" lon="6.74588">
        <ele>1604</ele>
        <time>2026-08-14T07:02:24.540Z</time>
      </trkpt>
      <trkpt lat="45.8133" lon="6.74588">
        <ele>1604</ele>
        <time>2026-08-14T07:02:25.540Z</time>
      </trkpt>
      <trkpt lat="45.81331" lon="6.74588">
        <ele>1603</ele>
        <time>2026-08-14T07:02:26.540Z</time>
      </trkpt>
      <trkpt lat="45.81332" lon="6.74588">
        <ele>1603</ele>
        <time>2026-08-14T07:02:27.540Z</time>
      </trkpt>
      <trkpt lat="45.81333" lon="6.74588">
        <ele>1603</ele>
        <time>2026-08-14T07:02:28.540Z</time>
      </trkpt>
      <trkpt lat="45.81334" lon="6.74588">
        <ele>1603</ele>
        <time>2026-08-14T07:02:29.540Z</time>
      </trkpt>
      <trkpt lat="45.81336" lon="6.74588">
        <ele>1604</ele>
        <time>2026-08-14T07:02:30.540Z</time>
      </trkpt>
      <trkpt lat="45.81337" lon="6.74588">
        <ele>1604</ele>
        <time>2026-08-14T07:02:31.540Z</time>
      </trkpt>
      <trkpt lat="45.81338" lon="6.74589">
        <ele>1603</ele>
        <time>2026-08-14T07:02:32.540Z</time>
      </trkpt>
      <trkpt lat="45.81339" lon="6.7459">
        <ele>1603</ele>
        <time>2026-08-14T07:02:33.540Z</time>
      </trkpt>
      <trkpt lat="45.8134" lon="6.74591">
        <ele>1603</ele>
        <time>2026-08-14T07:02:34.540Z</time>
      </trkpt>
      <trkpt lat="45.81341" lon="6.74592">
        <ele>1602</ele>
        <time>2026-08-14T07:02:35.540Z</time>
      </trkpt>
      <trkpt lat="45.81342" lon="6.74594">
        <ele>1602</ele>
        <time>2026-08-14T07:02:36.540Z</time>
      </trkpt>
      <trkpt lat="45.81342" lon="6.74595">
        <ele>1602</ele>
        <time>2026-08-14T07:02:37.540Z</time>
      </trkpt>
      <trkpt lat="45.81342" lon="6.74596">
        <ele>1603</ele>
        <time>2026-08-14T07:02:38.540Z</time>
      </trkpt>
      <trkpt lat="45.81341" lon="6.74598">
        <ele>1603</ele>
        <time>2026-08-14T07:02:39.540Z</time>
      </trkpt>
      <trkpt lat="45.81341" lon="6.74599">
        <ele>1603</ele>
        <time>2026-08-14T07:02:40.540Z</time>
      </trkpt>
      <trkpt lat="45.81341" lon="6.746">
        <ele>1604</ele>
        <time>2026-08-14T07:02:41.540Z</time>
      </trkpt>
      <trkpt lat="45.8134" lon="6.74601">
        <ele>1604</ele>
        <time>2026-08-14T07:02:42.540Z</time>
      </trkpt>
      <trkpt lat="45.81339" lon="6.74602">
        <ele>1604</ele>
        <time>2026-08-14T07:02:43.540Z</time>
      </trkpt>
      <trkpt lat="45.81338" lon="6.74603">
        <ele>1605</ele>
        <time>2026-08-14T07:02:44.540Z</time>
      </trkpt>
      <trkpt lat="45.81338" lon="6.74604">
        <ele>1605</ele>
        <time>2026-08-14T07:02:45.540Z</time>
      </trkpt>
      <trkpt lat="45.81338" lon="6.74604">
        <ele>1605</ele>
        <time>2026-08-14T07:02:46.540Z</time>
      </trkpt>
      <trkpt lat="45.81337" lon="6.74605">
        <ele>1605</ele>
        <time>2026-08-14T07:02:47.540Z</time>
      </trkpt>
      <trkpt lat="45.81337" lon="6.74605">
        <ele>1606</ele>
        <time>2026-08-14T07:02:48.540Z</time>
      </trkpt>
      <trkpt lat="45.81337" lon="6.74605">
        <ele>1606</ele>
        <time>2026-08-14T07:02:49.540Z</time>
      </trkpt>
      <trkpt lat="45.81337" lon="6.74607">
        <ele>1606</ele>
        <time>2026-08-14T07:02:50.540Z</time>
      </trkpt>
      <trkpt lat="45.81336" lon="6.74609">
        <ele>1607</ele>
        <time>2026-08-14T07:02:51.540Z</time>
      </trkpt>
      <trkpt lat="45.81336" lon="6.7461">
        <ele>1607</ele>
        <time>2026-08-14T07:02:52.540Z</time>
      </trkpt>
      <trkpt lat="45.81336" lon="6.7461">
        <ele>1608</ele>
        <time>2026-08-14T07:02:53.540Z</time>
      </trkpt>
      <trkpt lat="45.81336" lon="6.74611">
        <ele>1608</ele>
        <time>2026-08-14T07:02:54.540Z</time>
      </trkpt>
      <trkpt lat="45.81337" lon="6.74612">
        <ele>1609</ele>
        <time>2026-08-14T07:02:55.540Z</time>
      </trkpt>
      <trkpt lat="45.81337" lon="6.74613">
        <ele>1609</ele>
        <time>2026-08-14T07:02:56.540Z</time>
      </trkpt>
      <trkpt lat="45.81336" lon="6.74614">
        <ele>1609</ele>
        <time>2026-08-14T07:02:57.540Z</time>
      </trkpt>
      <trkpt lat="45.81335" lon="6.74615">
        <ele>1610</ele>
        <time>2026-08-14T07:02:58.540Z</time>
      </trkpt>
      <trkpt lat="45.81335" lon="6.74616">
        <ele>1610</ele>
        <time>2026-08-14T07:02:59.540Z</time>
      </trkpt>
      <trkpt lat="45.81334" lon="6.74617">
        <ele>1611</ele>
        <time>2026-08-14T07:03:00.540Z</time>
      </trkpt>
      <trkpt lat="45.81333" lon="6.74618">
        <ele>1611</ele>
        <time>2026-08-14T07:03:01.540Z</time>
      </trkpt>
      <trkpt lat="45.81332" lon="6.74618">
        <ele>1612</ele>
        <time>2026-08-14T07:03:02.540Z</time>
      </trkpt>
      <trkpt lat="45.81332" lon="6.7462">
        <ele>1612</ele>
        <time>2026-08-14T07:03:03.540Z</time>
      </trkpt>
      <trkpt lat="45.81332" lon="6.7462">
        <ele>1613</ele>
        <time>2026-08-14T07:03:04.540Z</time>
      </trkpt>
      <trkpt lat="45.81332" lon="6.74621">
        <ele>1614</ele>
        <time>2026-08-14T07:03:05.540Z</time>
      </trkpt>
      <trkpt lat="45.81332" lon="6.74623">
        <ele>1614</ele>
        <time>2026-08-14T07:03:06.540Z</time>
      </trkpt>
      <trkpt lat="45.81333" lon="6.74624">
        <ele>1615</ele>
        <time>2026-08-14T07:03:07.540Z</time>
      </trkpt>
      <trkpt lat="45.81333" lon="6.74625">
        <ele>1616</ele>
        <time>2026-08-14T07:03:08.540Z</time>
      </trkpt>
      <trkpt lat="45.81333" lon="6.74626">
        <ele>1616</ele>
        <time>2026-08-14T07:03:09.540Z</time>
      </trkpt>
      <trkpt lat="45.81333" lon="6.74627">
        <ele>1617</ele>
        <time>2026-08-14T07:03:10.540Z</time>
      </trkpt>
      <trkpt lat="45.81333" lon="6.74628">
        <ele>1617</ele>
        <time>2026-08-14T07:03:11.540Z</time>
      </trkpt>
      <trkpt lat="45.81334" lon="6.74631">
        <ele>1618</ele>
        <time>2026-08-14T07:03:12.540Z</time>
      </trkpt>
      <trkpt lat="45.81334" lon="6.74633">
        <ele>1618</ele>
        <time>2026-08-14T07:03:13.540Z</time>
      </trkpt>
      <trkpt lat="45.81334" lon="6.74635">
        <ele>1618</ele>
        <time>2026-08-14T07:03:14.540Z</time>
      </trkpt>
      <trkpt lat="45.81334" lon="6.74637">
        <ele>1618</ele>
        <time>2026-08-14T07:03:15.540Z</time>
      </trkpt>
      <trkpt lat="45.81334" lon="6.74639">
        <ele>1619</ele>
        <time>2026-08-14T07:03:16.540Z</time>
      </trkpt>
      <trkpt lat="45.81334" lon="6.7464">
        <ele>1619</ele>
        <time>2026-08-14T07:03:17.540Z</time>
      </trkpt>
      <trkpt lat="45.81334" lon="6.74642">
        <ele>1619</ele>
        <time>2026-08-14T07:03:18.540Z</time>
      </trkpt>
      <trkpt lat="45.81334" lon="6.74643">
        <ele>1619</ele>
        <time>2026-08-14T07:03:19.540Z</time>
      </trkpt>
      <trkpt lat="45.81334" lon="6.74645">
        <ele>1619</ele>
        <time>2026-08-14T07:03:20.540Z</time>
      </trkpt>
      <trkpt lat="45.81334" lon="6.74647">
        <ele>1619</ele>
        <time>2026-08-14T07:03:21.540Z</time>
      </trkpt>
      <trkpt lat="45.81334" lon="6.74648">
        <ele>1619</ele>
        <time>2026-08-14T07:03:22.540Z</time>
      </trkpt>
      <trkpt lat="45.81334" lon="6.7465">
        <ele>1619</ele>
        <time>2026-08-14T07:03:23.540Z</time>
      </trkpt>
      <trkpt lat="45.81335" lon="6.74652">
        <ele>1618</ele>
        <time>2026-08-14T07:03:24.540Z</time>
      </trkpt>
      <trkpt lat="45.81335" lon="6.74653">
        <ele>1618</ele>
        <time>2026-08-14T07:03:25.540Z</time>
      </trkpt>
      <trkpt lat="45.81336" lon="6.74654">
        <ele>1618</ele>
        <time>2026-08-14T07:03:26.540Z</time>
      </trkpt>
      <trkpt lat="45.81336" lon="6.74655">
        <ele>1618</ele>
        <time>2026-08-14T07:03:27.540Z</time>
      </trkpt>
      <trkpt lat="45.81336" lon="6.74656">
        <ele>1619</ele>
        <time>2026-08-14T07:03:28.540Z</time>
      </trkpt>
      <trkpt lat="45.81336" lon="6.74658">
        <ele>1619</ele>
        <time>2026-08-14T07:03:29.540Z</time>
      </trkpt>
      <trkpt lat="45.81336" lon="6.74659">
        <ele>1619</ele>
        <time>2026-08-14T07:03:30.540Z</time>
      </trkpt>
      <trkpt lat="45.81337" lon="6.7466">
        <ele>1619</ele>
        <time>2026-08-14T07:03:31.540Z</time>
      </trkpt>
      <trkpt lat="45.81337" lon="6.74662">
        <ele>1619</ele>
        <time>2026-08-14T07:03:32.540Z</time>
      </trkpt>
      <trkpt lat="45.81337" lon="6.74663">
        <ele>1619</ele>
        <time>2026-08-14T07:03:33.540Z</time>
      </trkpt>
      <trkpt lat="45.81337" lon="6.74664">
        <ele>1619</ele>
        <time>2026-08-14T07:03:34.540Z</time>
      </trkpt>
      <trkpt lat="45.81337" lon="6.74666">
        <ele>1619</ele>
        <time>2026-08-14T07:03:35.540Z</time>
      </trkpt>
      <trkpt lat="45.81337" lon="6.74668">
        <ele>1619</ele>
        <time>2026-08-14T07:03:36.540Z</time>
      </trkpt>
      <trkpt lat="45.81338" lon="6.74669">
        <ele>1619</ele>
        <time>2026-08-14T07:03:37.540Z</time>
      </trkpt>
      <trkpt lat="45.81338" lon="6.7467">
        <ele>1619</ele>
        <time>2026-08-14T07:03:38.540Z</time>
      </trkpt>
      <trkpt lat="45.81339" lon="6.74671">
        <ele>1619</ele>
        <time>2026-08-14T07:03:39.540Z</time>
      </trkpt>
      <trkpt lat="45.8134" lon="6.74672">
        <ele>1619</ele>
        <time>2026-08-14T07:03:40.540Z</time>
      </trkpt>
      <trkpt lat="45.81341" lon="6.74675">
        <ele>1619</ele>
        <time>2026-08-14T07:03:41.540Z</time>
      </trkpt>
      <trkpt lat="45.81341" lon="6.74675">
        <ele>1619</ele>
        <time>2026-08-14T07:03:42.540Z</time>
      </trkpt>
      <trkpt lat="45.81342" lon="6.74677">
        <ele>1619</ele>
        <time>2026-08-14T07:03:43.540Z</time>
      </trkpt>
      <trkpt lat="45.81343" lon="6.74678">
        <ele>1619</ele>
        <time>2026-08-14T07:03:44.540Z</time>
      </trkpt>
      <trkpt lat="45.81345" lon="6.74679">
        <ele>1619</ele>
        <time>2026-08-14T07:03:45.540Z</time>
      </trkpt>
      <trkpt lat="45.81346" lon="6.7468">
        <ele>1620</ele>
        <time>2026-08-14T07:03:46.540Z</time>
      </trkpt>
      <trkpt lat="45.81347" lon="6.74681">
        <ele>1620</ele>
        <time>2026-08-14T07:03:47.540Z</time>
      </trkpt>
      <trkpt lat="45.81347" lon="6.74682">
        <ele>1620</ele>
        <time>2026-08-14T07:03:48.540Z</time>
      </trkpt>
      <trkpt lat="45.81349" lon="6.74684">
        <ele>1621</ele>
        <time>2026-08-14T07:03:49.540Z</time>
      </trkpt>
      <trkpt lat="45.8135" lon="6.74686">
        <ele>1621</ele>
        <time>2026-08-14T07:03:50.540Z</time>
      </trkpt>
      <trkpt lat="45.81351" lon="6.74688">
        <ele>1621</ele>
        <time>2026-08-14T07:03:51.540Z</time>
      </trkpt>
      <trkpt lat="45.81352" lon="6.7469">
        <ele>1622</ele>
        <time>2026-08-14T07:03:52.540Z</time>
      </trkpt>
      <trkpt lat="45.81352" lon="6.74692">
        <ele>1622</ele>
        <time>2026-08-14T07:03:53.540Z</time>
      </trkpt>
      <trkpt lat="45.81352" lon="6.74693">
        <ele>1622</ele>
        <time>2026-08-14T07:03:54.540Z</time>
      </trkpt>
      <trkpt lat="45.81353" lon="6.74695">
        <ele>1622</ele>
        <time>2026-08-14T07:03:55.540Z</time>
      </trkpt>
      <trkpt lat="45.81353" lon="6.74698">
        <ele>1622</ele>
        <time>2026-08-14T07:03:56.540Z</time>
      </trkpt>
      <trkpt lat="45.81354" lon="6.747">
        <ele>1622</ele>
        <time>2026-08-14T07:03:57.540Z</time>
      </trkpt>
      <trkpt lat="45.81354" lon="6.74702">
        <ele>1622</ele>
        <time>2026-08-14T07:03:58.540Z</time>
      </trkpt>
      <trkpt lat="45.81354" lon="6.74704">
        <ele>1622</ele>
        <time>2026-08-14T07:03:59.540Z</time>
      </trkpt>
      <trkpt lat="45.81354" lon="6.74706">
        <ele>1622</ele>
        <time>2026-08-14T07:04:00.540Z</time>
      </trkpt>
      <trkpt lat="45.81354" lon="6.74709">
        <ele>1622</ele>
        <time>2026-08-14T07:04:01.540Z</time>
      </trkpt>
      <trkpt lat="45.81354" lon="6.74712">
        <ele>1622</ele>
        <time>2026-08-14T07:04:02.540Z</time>
      </trkpt>
      <trkpt lat="45.81353" lon="6.74714">
        <ele>1621</ele>
        <time>2026-08-14T07:04:03.540Z</time>
      </trkpt>
      <trkpt lat="45.81353" lon="6.74717">
        <ele>1621</ele>
        <time>2026-08-14T07:04:04.540Z</time>
      </trkpt>
      <trkpt lat="45.81353" lon="6.74719">
        <ele>1621</ele>
        <time>2026-08-14T07:04:05.540Z</time>
      </trkpt>
      <trkpt lat="45.81354" lon="6.74722">
        <ele>1621</ele>
        <time>2026-08-14T07:04:06.540Z</time>
      </trkpt>
      <trkpt lat="45.81355" lon="6.74724">
        <ele>1621</ele>
        <time>2026-08-14T07:04:07.540Z</time>
      </trkpt>
      <trkpt lat="45.81356" lon="6.74727">
        <ele>1620</ele>
        <time>2026-08-14T07:04:08.540Z</time>
      </trkpt>
      <trkpt lat="45.81357" lon="6.74729">
        <ele>1620</ele>
        <time>2026-08-14T07:04:09.540Z</time>
      </trkpt>
      <trkpt lat="45.81359" lon="6.74732">
        <ele>1620</ele>
        <time>2026-08-14T07:04:10.540Z</time>
      </trkpt>
      <trkpt lat="45.81359" lon="6.74734">
        <ele>1620</ele>
        <time>2026-08-14T07:04:11.540Z</time>
      </trkpt>
      <trkpt lat="45.8136" lon="6.74737">
        <ele>1620</ele>
        <time>2026-08-14T07:04:12.540Z</time>
      </trkpt>
      <trkpt lat="45.8136" lon="6.74739">
        <ele>1620</ele>
        <time>2026-08-14T07:04:13.540Z</time>
      </trkpt>
      <trkpt lat="45.8136" lon="6.74741">
        <ele>1620</ele>
        <time>2026-08-14T07:04:14.540Z</time>
      </trkpt>
      <trkpt lat="45.81359" lon="6.74744">
        <ele>1620</ele>
        <time>2026-08-14T07:04:15.540Z</time>
      </trkpt>
      <trkpt lat="45.81359" lon="6.74746">
        <ele>1620</ele>
        <time>2026-08-14T07:04:16.540Z</time>
      </trkpt>
      <trkpt lat="45.81358" lon="6.74748">
        <ele>1620</ele>
        <time>2026-08-14T07:04:17.540Z</time>
      </trkpt>
      <trkpt lat="45.81358" lon="6.74751">
        <ele>1620</ele>
        <time>2026-08-14T07:04:18.540Z</time>
      </trkpt>
      <trkpt lat="45.81359" lon="6.74753">
        <ele>1620</ele>
        <time>2026-08-14T07:04:19.540Z</time>
      </trkpt>
      <trkpt lat="45.81359" lon="6.74755">
        <ele>1620</ele>
        <time>2026-08-14T07:04:20.540Z</time>
      </trkpt>
      <trkpt lat="45.8136" lon="6.74758">
        <ele>1621</ele>
        <time>2026-08-14T07:04:21.540Z</time>
      </trkpt>
      <trkpt lat="45.8136" lon="6.74759">
        <ele>1621</ele>
        <time>2026-08-14T07:04:22.540Z</time>
      </trkpt>
      <trkpt lat="45.81361" lon="6.74761">
        <ele>1621</ele>
        <time>2026-08-14T07:04:23.540Z</time>
      </trkpt>
      <trkpt lat="45.81361" lon="6.74763">
        <ele>1622</ele>
        <time>2026-08-14T07:04:24.540Z</time>
      </trkpt>
      <trkpt lat="45.81362" lon="6.74766">
        <ele>1622</ele>
        <time>2026-08-14T07:04:25.540Z</time>
      </trkpt>
      <trkpt lat="45.81362" lon="6.74768">
        <ele>1622</ele>
        <time>2026-08-14T07:04:26.540Z</time>
      </trkpt>
      <trkpt lat="45.81361" lon="6.7477">
        <ele>1623</ele>
        <time>2026-08-14T07:04:27.540Z</time>
      </trkpt>
      <trkpt lat="45.81361" lon="6.74773">
        <ele>1623</ele>
        <time>2026-08-14T07:04:28.540Z</time>
      </trkpt>
      <trkpt lat="45.81361" lon="6.74775">
        <ele>1623</ele>
        <time>2026-08-14T07:04:29.540Z</time>
      </trkpt>
      <trkpt lat="45.8136" lon="6.74778">
        <ele>1623</ele>
        <time>2026-08-14T07:04:30.540Z</time>
      </trkpt>
      <trkpt lat="45.8136" lon="6.7478">
        <ele>1624</ele>
        <time>2026-08-14T07:04:31.540Z</time>
      </trkpt>
      <trkpt lat="45.81359" lon="6.74783">
        <ele>1624</ele>
        <time>2026-08-14T07:04:32.540Z</time>
      </trkpt>
      <trkpt lat="45.81359" lon="6.74785">
        <ele>1624</ele>
        <time>2026-08-14T07:04:33.540Z</time>
      </trkpt>
      <trkpt lat="45.81359" lon="6.74787">
        <ele>1624</ele>
        <time>2026-08-14T07:04:34.540Z</time>
      </trkpt>
      <trkpt lat="45.81359" lon="6.74789">
        <ele>1624</ele>
        <time>2026-08-14T07:04:35.540Z</time>
      </trkpt>
      <trkpt lat="45.81359" lon="6.74791">
        <ele>1624</ele>
        <time>2026-08-14T07:04:36.540Z</time>
      </trkpt>
      <trkpt lat="45.81359" lon="6.74794">
        <ele>1624</ele>
        <time>2026-08-14T07:04:37.540Z</time>
      </trkpt>
      <trkpt lat="45.81359" lon="6.74796">
        <ele>1624</ele>
        <time>2026-08-14T07:04:38.540Z</time>
      </trkpt>
      <trkpt lat="45.81358" lon="6.74798">
        <ele>1624</ele>
        <time>2026-08-14T07:04:39.540Z</time>
      </trkpt>
      <trkpt lat="45.81358" lon="6.74799">
        <ele>1625</ele>
        <time>2026-08-14T07:04:40.540Z</time>
      </trkpt>
      <trkpt lat="45.81357" lon="6.74801">
        <ele>1625</ele>
        <time>2026-08-14T07:04:41.540Z</time>
      </trkpt>
      <trkpt lat="45.81356" lon="6.74803">
        <ele>1626</ele>
        <time>2026-08-14T07:04:42.540Z</time>
      </trkpt>
      <trkpt lat="45.81355" lon="6.74804">
        <ele>1626</ele>
        <time>2026-08-14T07:04:43.540Z</time>
      </trkpt>
      <trkpt lat="45.81355" lon="6.74806">
        <ele>1627</ele>
        <time>2026-08-14T07:04:44.540Z</time>
      </trkpt>
      <trkpt lat="45.81354" lon="6.74808">
        <ele>1627</ele>
        <time>2026-08-14T07:04:45.540Z</time>
      </trkpt>
      <trkpt lat="45.81354" lon="6.74809">
        <ele>1626</ele>
        <time>2026-08-14T07:04:46.540Z</time>
      </trkpt>
      <trkpt lat="45.81352" lon="6.7481">
        <ele>1626</ele>
        <time>2026-08-14T07:04:47.540Z</time>
      </trkpt>
      <trkpt lat="45.81351" lon="6.74811">
        <ele>1626</ele>
        <time>2026-08-14T07:04:48.540Z</time>
      </trkpt>
      <trkpt lat="45.81351" lon="6.74812">
        <ele>1626</ele>
        <time>2026-08-14T07:04:49.540Z</time>
      </trkpt>
      <trkpt lat="45.8135" lon="6.74813">
        <ele>1627</ele>
        <time>2026-08-14T07:04:50.540Z</time>
      </trkpt>
      <trkpt lat="45.81349" lon="6.74814">
        <ele>1627</ele>
        <time>2026-08-14T07:04:51.540Z</time>
      </trkpt>
      <trkpt lat="45.81348" lon="6.74815">
        <ele>1627</ele>
        <time>2026-08-14T07:04:52.540Z</time>
      </trkpt>
      <trkpt lat="45.81347" lon="6.74816">
        <ele>1626</ele>
        <time>2026-08-14T07:04:53.540Z</time>
      </trkpt>
      <trkpt lat="45.81346" lon="6.74817">
        <ele>1626</ele>
        <time>2026-08-14T07:04:54.540Z</time>
      </trkpt>
      <trkpt lat="45.81345" lon="6.74818">
        <ele>1626</ele>
        <time>2026-08-14T07:04:55.540Z</time>
      </trkpt>
      <trkpt lat="45.81344" lon="6.74819">
        <ele>1626</ele>
        <time>2026-08-14T07:04:56.540Z</time>
      </trkpt>
      <trkpt lat="45.81342" lon="6.7482">
        <ele>1626</ele>
        <time>2026-08-14T07:04:57.540Z</time>
      </trkpt>
      <trkpt lat="45.81341" lon="6.7482">
        <ele>1626</ele>
        <time>2026-08-14T07:04:58.540Z</time>
      </trkpt>
      <trkpt lat="45.81339" lon="6.7482">
        <ele>1627</ele>
        <time>2026-08-14T07:04:59.540Z</time>
      </trkpt>
      <trkpt lat="45.81338" lon="6.7482">
        <ele>1627</ele>
        <time>2026-08-14T07:05:00.540Z</time>
      </trkpt>
      <trkpt lat="45.81337" lon="6.74821">
        <ele>1627</ele>
        <time>2026-08-14T07:05:01.540Z</time>
      </trkpt>
      <trkpt lat="45.81336" lon="6.74821">
        <ele>1627</ele>
        <time>2026-08-14T07:05:02.540Z</time>
      </trkpt>
      <trkpt lat="45.81335" lon="6.74822">
        <ele>1627</ele>
        <time>2026-08-14T07:05:03.540Z</time>
      </trkpt>
      <trkpt lat="45.81335" lon="6.74823">
        <ele>1627</ele>
        <time>2026-08-14T07:05:04.540Z</time>
      </trkpt>
      <trkpt lat="45.81334" lon="6.74824">
        <ele>1627</ele>
        <time>2026-08-14T07:05:05.540Z</time>
      </trkpt>
      <trkpt lat="45.81334" lon="6.74825">
        <ele>1628</ele>
        <time>2026-08-14T07:05:06.540Z</time>
      </trkpt>
      <trkpt lat="45.81334" lon="6.74827">
        <ele>1628</ele>
        <time>2026-08-14T07:05:07.540Z</time>
      </trkpt>
      <trkpt lat="45.81334" lon="6.74828">
        <ele>1628</ele>
        <time>2026-08-14T07:05:08.540Z</time>
      </trkpt>
      <trkpt lat="45.81334" lon="6.7483">
        <ele>1628</ele>
        <time>2026-08-14T07:05:09.540Z</time>
      </trkpt>
      <trkpt lat="45.81334" lon="6.74831">
        <ele>1629</ele>
        <time>2026-08-14T07:05:10.540Z</time>
      </trkpt>
      <trkpt lat="45.81333" lon="6.74832">
        <ele>1629</ele>
        <time>2026-08-14T07:05:11.540Z</time>
      </trkpt>
      <trkpt lat="45.81333" lon="6.74834">
        <ele>1629</ele>
        <time>2026-08-14T07:05:12.540Z</time>
      </trkpt>
      <trkpt lat="45.81332" lon="6.74835">
        <ele>1629</ele>
        <time>2026-08-14T07:05:13.540Z</time>
      </trkpt>
      <trkpt lat="45.81331" lon="6.74836">
        <ele>1629</ele>
        <time>2026-08-14T07:05:14.540Z</time>
      </trkpt>
      <trkpt lat="45.8133" lon="6.74837">
        <ele>1629</ele>
        <time>2026-08-14T07:05:15.540Z</time>
      </trkpt>
      <trkpt lat="45.8133" lon="6.74838">
        <ele>1629</ele>
        <time>2026-08-14T07:05:16.540Z</time>
      </trkpt>
      <trkpt lat="45.81329" lon="6.74839">
        <ele>1629</ele>
        <time>2026-08-14T07:05:17.540Z</time>
      </trkpt>
      <trkpt lat="45.81329" lon="6.7484">
        <ele>1630</ele>
        <time>2026-08-14T07:05:18.540Z</time>
      </trkpt>
      <trkpt lat="45.81328" lon="6.74841">
        <ele>1630</ele>
        <time>2026-08-14T07:05:19.540Z</time>
      </trkpt>
      <trkpt lat="45.81328" lon="6.74842">
        <ele>1630</ele>
        <time>2026-08-14T07:05:20.540Z</time>
      </trkpt>
      <trkpt lat="45.81328" lon="6.74843">
        <ele>1631</ele>
        <time>2026-08-14T07:05:21.540Z</time>
      </trkpt>
      <trkpt lat="45.81329" lon="6.74845">
        <ele>1631</ele>
        <time>2026-08-14T07:05:22.540Z</time>
      </trkpt>
      <trkpt lat="45.81329" lon="6.74846">
        <ele>1631</ele>
        <time>2026-08-14T07:05:23.540Z</time>
      </trkpt>
      <trkpt lat="45.8133" lon="6.74847">
        <ele>1632</ele>
        <time>2026-08-14T07:05:24.540Z</time>
      </trkpt>
      <trkpt lat="45.8133" lon="6.74848">
        <ele>1632</ele>
        <time>2026-08-14T07:05:25.540Z</time>
      </trkpt>
      <trkpt lat="45.81331" lon="6.74849">
        <ele>1633</ele>
        <time>2026-08-14T07:05:26.540Z</time>
      </trkpt>
      <trkpt lat="45.81331" lon="6.7485">
        <ele>1633</ele>
        <time>2026-08-14T07:05:27.540Z</time>
      </trkpt>
      <trkpt lat="45.81332" lon="6.74851">
        <ele>1633</ele>
        <time>2026-08-14T07:05:28.540Z</time>
      </trkpt>
      <trkpt lat="45.81333" lon="6.74852">
        <ele>1633</ele>
        <time>2026-08-14T07:05:29.540Z</time>
      </trkpt>
      <trkpt lat="45.81333" lon="6.74854">
        <ele>1633</ele>
        <time>2026-08-14T07:05:30.540Z</time>
      </trkpt>
      <trkpt lat="45.81333" lon="6.74855">
        <ele>1633</ele>
        <time>2026-08-14T07:05:31.540Z</time>
      </trkpt>
      <trkpt lat="45.81333" lon="6.74856">
        <ele>1633</ele>
        <time>2026-08-14T07:05:32.540Z</time>
      </trkpt>
      <trkpt lat="45.81333" lon="6.74858">
        <ele>1634</ele>
        <time>2026-08-14T07:05:33.540Z</time>
      </trkpt>
      <trkpt lat="45.81333" lon="6.74859">
        <ele>1634</ele>
        <time>2026-08-14T07:05:34.540Z</time>
      </trkpt>
      <trkpt lat="45.81333" lon="6.7486">
        <ele>1634</ele>
        <time>2026-08-14T07:05:35.540Z</time>
      </trkpt>
      <trkpt lat="45.81333" lon="6.74861">
        <ele>1635</ele>
        <time>2026-08-14T07:05:36.540Z</time>
      </trkpt>
      <trkpt lat="45.81334" lon="6.74862">
        <ele>1635</ele>
        <time>2026-08-14T07:05:37.540Z</time>
      </trkpt>
      <trkpt lat="45.81334" lon="6.74865">
        <ele>1636</ele>
        <time>2026-08-14T07:05:38.540Z</time>
      </trkpt>
      <trkpt lat="45.81334" lon="6.74867">
        <ele>1636</ele>
        <time>2026-08-14T07:05:39.540Z</time>
      </trkpt>
      <trkpt lat="45.81334" lon="6.74869">
        <ele>1637</ele>
        <time>2026-08-14T07:05:40.540Z</time>
      </trkpt>
      <trkpt lat="45.81334" lon="6.7487">
        <ele>1637</ele>
        <time>2026-08-14T07:05:41.540Z</time>
      </trkpt>
      <trkpt lat="45.81333" lon="6.74872">
        <ele>1638</ele>
        <time>2026-08-14T07:05:42.540Z</time>
      </trkpt>
      <trkpt lat="45.81332" lon="6.74872">
        <ele>1638</ele>
        <time>2026-08-14T07:05:43.540Z</time>
      </trkpt>
      <trkpt lat="45.81331" lon="6.74873">
        <ele>1638</ele>
        <time>2026-08-14T07:05:44.540Z</time>
      </trkpt>
      <trkpt lat="45.8133" lon="6.74872">
        <ele>1639</ele>
        <time>2026-08-14T07:05:45.540Z</time>
      </trkpt>
      <trkpt lat="45.8133" lon="6.74872">
        <ele>1639</ele>
        <time>2026-08-14T07:05:46.540Z</time>
      </trkpt>
      <trkpt lat="45.81329" lon="6.74872">
        <ele>1639</ele>
        <time>2026-08-14T07:05:47.540Z</time>
      </trkpt>
      <trkpt lat="45.81329" lon="6.74872">
        <ele>1640</ele>
        <time>2026-08-14T07:05:48.540Z</time>
      </trkpt>
      <trkpt lat="45.81329" lon="6.74872">
        <ele>1640</ele>
        <time>2026-08-14T07:05:49.540Z</time>
      </trkpt>
      <trkpt lat="45.81328" lon="6.74871">
        <ele>1641</ele>
        <time>2026-08-14T07:05:50.540Z</time>
      </trkpt>
      <trkpt lat="45.81328" lon="6.74872">
        <ele>1641</ele>
        <time>2026-08-14T07:05:51.540Z</time>
      </trkpt>
      <trkpt lat="45.81326" lon="6.74871">
        <ele>1640</ele>
        <time>2026-08-14T07:05:52.540Z</time>
      </trkpt>
      <trkpt lat="45.81325" lon="6.74871">
        <ele>1640</ele>
        <time>2026-08-14T07:05:53.540Z</time>
      </trkpt>
      <trkpt lat="45.81324" lon="6.74871">
        <ele>1640</ele>
        <time>2026-08-14T07:05:54.540Z</time>
      </trkpt>
      <trkpt lat="45.81322" lon="6.74871">
        <ele>1640</ele>
        <time>2026-08-14T07:05:55.540Z</time>
      </trkpt>
      <trkpt lat="45.81321" lon="6.74871">
        <ele>1640</ele>
        <time>2026-08-14T07:05:56.540Z</time>
      </trkpt>
      <trkpt lat="45.8132" lon="6.74871">
        <ele>1640</ele>
        <time>2026-08-14T07:05:57.540Z</time>
      </trkpt>
      <trkpt lat="45.81319" lon="6.74871">
        <ele>1640</ele>
        <time>2026-08-14T07:05:58.540Z</time>
      </trkpt>
      <trkpt lat="45.81319" lon="6.7487">
        <ele>1639</ele>
        <time>2026-08-14T07:05:59.540Z</time>
      </trkpt>
      <trkpt lat="45.81318" lon="6.7487">
        <ele>1639</ele>
        <time>2026-08-14T07:06:00.540Z</time>
      </trkpt>
      <trkpt lat="45.81317" lon="6.7487">
        <ele>1640</ele>
        <time>2026-08-14T07:06:01.540Z</time>
      </trkpt>
      <trkpt lat="45.81316" lon="6.74869">
        <ele>1640</ele>
        <time>2026-08-14T07:06:02.540Z</time>
      </trkpt>
      <trkpt lat="45.81315" lon="6.74869">
        <ele>1640</ele>
        <time>2026-08-14T07:06:03.540Z</time>
      </trkpt>
      <trkpt lat="45.81314" lon="6.74869">
        <ele>1640</ele>
        <time>2026-08-14T07:06:04.540Z</time>
      </trkpt>
      <trkpt lat="45.81313" lon="6.7487">
        <ele>1640</ele>
        <time>2026-08-14T07:06:05.540Z</time>
      </trkpt>
      <trkpt lat="45.81312" lon="6.7487">
        <ele>1640</ele>
        <time>2026-08-14T07:06:06.540Z</time>
      </trkpt>
      <trkpt lat="45.81311" lon="6.7487">
        <ele>1640</ele>
        <time>2026-08-14T07:06:07.540Z</time>
      </trkpt>
      <trkpt lat="45.81309" lon="6.7487">
        <ele>1640</ele>
        <time>2026-08-14T07:06:08.540Z</time>
      </trkpt>
      <trkpt lat="45.81308" lon="6.7487">
        <ele>1640</ele>
        <time>2026-08-14T07:06:09.540Z</time>
      </trkpt>
      <trkpt lat="45.81307" lon="6.74869">
        <ele>1641</ele>
        <time>2026-08-14T07:06:10.540Z</time>
      </trkpt>
      <trkpt lat="45.81306" lon="6.74868">
        <ele>1641</ele>
        <time>2026-08-14T07:06:11.540Z</time>
      </trkpt>
      <trkpt lat="45.81305" lon="6.74867">
        <ele>1642</ele>
        <time>2026-08-14T07:06:12.540Z</time>
      </trkpt>
      <trkpt lat="45.81304" lon="6.74866">
        <ele>1642</ele>
        <time>2026-08-14T07:06:13.540Z</time>
      </trkpt>
      <trkpt lat="45.81303" lon="6.74864">
        <ele>1642</ele>
        <time>2026-08-14T07:06:14.540Z</time>
      </trkpt>
      <trkpt lat="45.81301" lon="6.74863">
        <ele>1643</ele>
        <time>2026-08-14T07:06:15.540Z</time>
      </trkpt>
      <trkpt lat="45.813" lon="6.74862">
        <ele>1643</ele>
        <time>2026-08-14T07:06:16.540Z</time>
      </trkpt>
      <trkpt lat="45.813" lon="6.74862">
        <ele>1643</ele>
        <time>2026-08-14T07:06:17.540Z</time>
      </trkpt>
      <trkpt lat="45.81299" lon="6.74861">
        <ele>1644</ele>
        <time>2026-08-14T07:06:18.540Z</time>
      </trkpt>
      <trkpt lat="45.81298" lon="6.7486">
        <ele>1644</ele>
        <time>2026-08-14T07:06:19.540Z</time>
      </trkpt>
      <trkpt lat="45.81297" lon="6.74859">
        <ele>1644</ele>
        <time>2026-08-14T07:06:20.540Z</time>
      </trkpt>
      <trkpt lat="45.81295" lon="6.74859">
        <ele>1644</ele>
        <time>2026-08-14T07:06:21.540Z</time>
      </trkpt>
      <trkpt lat="45.81294" lon="6.74859">
        <ele>1644</ele>
        <time>2026-08-14T07:06:22.540Z</time>
      </trkpt>
      <trkpt lat="45.81293" lon="6.74859">
        <ele>1645</ele>
        <time>2026-08-14T07:06:23.540Z</time>
      </trkpt>
      <trkpt lat="45.81292" lon="6.74858">
        <ele>1645</ele>
        <time>2026-08-14T07:06:24.540Z</time>
      </trkpt>
      <trkpt lat="45.81291" lon="6.74858">
        <ele>1645</ele>
        <time>2026-08-14T07:06:25.540Z</time>
      </trkpt>
      <trkpt lat="45.81289" lon="6.74858">
        <ele>1645</ele>
        <time>2026-08-14T07:06:26.540Z</time>
      </trkpt>
      <trkpt lat="45.81288" lon="6.74858">
        <ele>1645</ele>
        <time>2026-08-14T07:06:27.540Z</time>
      </trkpt>
      <trkpt lat="45.81287" lon="6.74858">
        <ele>1645</ele>
        <time>2026-08-14T07:06:28.540Z</time>
      </trkpt>
      <trkpt lat="45.81286" lon="6.74858">
        <ele>1646</ele>
        <time>2026-08-14T07:06:29.541Z</time>
      </trkpt>
      <trkpt lat="45.81285" lon="6.74857">
        <ele>1646</ele>
        <time>2026-08-14T07:06:30.540Z</time>
      </trkpt>
      <trkpt lat="45.81283" lon="6.74856">
        <ele>1647</ele>
        <time>2026-08-14T07:06:31.540Z</time>
      </trkpt>
      <trkpt lat="45.81282" lon="6.74855">
        <ele>1647</ele>
        <time>2026-08-14T07:06:32.540Z</time>
      </trkpt>
      <trkpt lat="45.81281" lon="6.74855">
        <ele>1647</ele>
        <time>2026-08-14T07:06:33.540Z</time>
      </trkpt>
      <trkpt lat="45.8128" lon="6.74854">
        <ele>1648</ele>
        <time>2026-08-14T07:06:34.540Z</time>
      </trkpt>
      <trkpt lat="45.81279" lon="6.74853">
        <ele>1648</ele>
        <time>2026-08-14T07:06:35.540Z</time>
      </trkpt>
      <trkpt lat="45.81279" lon="6.74852">
        <ele>1649</ele>
        <time>2026-08-14T07:06:36.540Z</time>
      </trkpt>
      <trkpt lat="45.81278" lon="6.74851">
        <ele>1649</ele>
        <time>2026-08-14T07:06:37.540Z</time>
      </trkpt>
      <trkpt lat="45.81278" lon="6.74851">
        <ele>1649</ele>
        <time>2026-08-14T07:06:38.540Z</time>
      </trkpt>
      <trkpt lat="45.81277" lon="6.74851">
        <ele>1649</ele>
        <time>2026-08-14T07:06:39.540Z</time>
      </trkpt>
      <trkpt lat="45.81276" lon="6.74852">
        <ele>1650</ele>
        <time>2026-08-14T07:06:40.540Z</time>
      </trkpt>
      <trkpt lat="45.81275" lon="6.74853">
        <ele>1650</ele>
        <time>2026-08-14T07:06:41.540Z</time>
      </trkpt>
      <trkpt lat="45.81274" lon="6.74854">
        <ele>1650</ele>
        <time>2026-08-14T07:06:42.540Z</time>
      </trkpt>
      <trkpt lat="45.81273" lon="6.74855">
        <ele>1651</ele>
        <time>2026-08-14T07:06:43.540Z</time>
      </trkpt>
      <trkpt lat="45.81272" lon="6.74857">
        <ele>1651</ele>
        <time>2026-08-14T07:06:44.540Z</time>
      </trkpt>
      <trkpt lat="45.81272" lon="6.74858">
        <ele>1651</ele>
        <time>2026-08-14T07:06:45.540Z</time>
      </trkpt>
      <trkpt lat="45.81273" lon="6.74859">
        <ele>1652</ele>
        <time>2026-08-14T07:06:46.540Z</time>
      </trkpt>
      <trkpt lat="45.81273" lon="6.74861">
        <ele>1652</ele>
        <time>2026-08-14T07:06:47.540Z</time>
      </trkpt>
      <trkpt lat="45.81273" lon="6.74863">
        <ele>1652</ele>
        <time>2026-08-14T07:06:48.540Z</time>
      </trkpt>
      <trkpt lat="45.81273" lon="6.74865">
        <ele>1653</ele>
        <time>2026-08-14T07:06:49.540Z</time>
      </trkpt>
      <trkpt lat="45.81272" lon="6.74867">
        <ele>1653</ele>
        <time>2026-08-14T07:06:50.540Z</time>
      </trkpt>
      <trkpt lat="45.81271" lon="6.74868">
        <ele>1653</ele>
        <time>2026-08-14T07:06:51.540Z</time>
      </trkpt>
      <trkpt lat="45.81271" lon="6.74869">
        <ele>1653</ele>
        <time>2026-08-14T07:06:52.540Z</time>
      </trkpt>
      <trkpt lat="45.8127" lon="6.7487">
        <ele>1653</ele>
        <time>2026-08-14T07:06:53.540Z</time>
      </trkpt>
      <trkpt lat="45.8127" lon="6.74872">
        <ele>1653</ele>
        <time>2026-08-14T07:06:54.540Z</time>
      </trkpt>
      <trkpt lat="45.8127" lon="6.74875">
        <ele>1653</ele>
        <time>2026-08-14T07:06:55.540Z</time>
      </trkpt>
      <trkpt lat="45.8127" lon="6.74876">
        <ele>1653</ele>
        <time>2026-08-14T07:06:56.540Z</time>
      </trkpt>
      <trkpt lat="45.8127" lon="6.74878">
        <ele>1654</ele>
        <time>2026-08-14T07:06:57.540Z</time>
      </trkpt>
      <trkpt lat="45.8127" lon="6.74879">
        <ele>1654</ele>
        <time>2026-08-14T07:06:58.540Z</time>
      </trkpt>
      <trkpt lat="45.8127" lon="6.74881">
        <ele>1655</ele>
        <time>2026-08-14T07:06:59.540Z</time>
      </trkpt>
      <trkpt lat="45.81269" lon="6.74882">
        <ele>1655</ele>
        <time>2026-08-14T07:07:00.540Z</time>
      </trkpt>
      <trkpt lat="45.81269" lon="6.74884">
        <ele>1656</ele>
        <time>2026-08-14T07:07:01.540Z</time>
      </trkpt>
      <trkpt lat="45.81268" lon="6.74886">
        <ele>1656</ele>
        <time>2026-08-14T07:07:02.540Z</time>
      </trkpt>
      <trkpt lat="45.81267" lon="6.74888">
        <ele>1657</ele>
        <time>2026-08-14T07:07:03.540Z</time>
      </trkpt>
      <trkpt lat="45.81267" lon="6.74889">
        <ele>1657</ele>
        <time>2026-08-14T07:07:04.540Z</time>
      </trkpt>
      <trkpt lat="45.81267" lon="6.74891">
        <ele>1657</ele>
        <time>2026-08-14T07:07:05.540Z</time>
      </trkpt>
      <trkpt lat="45.81267" lon="6.74893">
        <ele>1657</ele>
        <time>2026-08-14T07:07:06.540Z</time>
      </trkpt>
      <trkpt lat="45.81268" lon="6.74894">
        <ele>1657</ele>
        <time>2026-08-14T07:07:07.540Z</time>
      </trkpt>
      <trkpt lat="45.81269" lon="6.74895">
        <ele>1657</ele>
        <time>2026-08-14T07:07:08.540Z</time>
      </trkpt>
      <trkpt lat="45.8127" lon="6.74897">
        <ele>1657</ele>
        <time>2026-08-14T07:07:09.540Z</time>
      </trkpt>
      <trkpt lat="45.81271" lon="6.74898">
        <ele>1657</ele>
        <time>2026-08-14T07:07:10.540Z</time>
      </trkpt>
      <trkpt lat="45.81272" lon="6.749">
        <ele>1657</ele>
        <time>2026-08-14T07:07:11.540Z</time>
      </trkpt>
      <trkpt lat="45.81272" lon="6.74902">
        <ele>1657</ele>
        <time>2026-08-14T07:07:12.540Z</time>
      </trkpt>
      <trkpt lat="45.81272" lon="6.74904">
        <ele>1657</ele>
        <time>2026-08-14T07:07:13.540Z</time>
      </trkpt>
      <trkpt lat="45.81272" lon="6.74906">
        <ele>1657</ele>
        <time>2026-08-14T07:07:14.540Z</time>
      </trkpt>
      <trkpt lat="45.81272" lon="6.74907">
        <ele>1657</ele>
        <time>2026-08-14T07:07:15.540Z</time>
      </trkpt>
      <trkpt lat="45.81273" lon="6.74909">
        <ele>1657</ele>
        <time>2026-08-14T07:07:16.540Z</time>
      </trkpt>
      <trkpt lat="45.81273" lon="6.74911">
        <ele>1657</ele>
        <time>2026-08-14T07:07:17.540Z</time>
      </trkpt>
      <trkpt lat="45.81273" lon="6.74912">
        <ele>1657</ele>
        <time>2026-08-14T07:07:18.540Z</time>
      </trkpt>
      <trkpt lat="45.81274" lon="6.74914">
        <ele>1657</ele>
        <time>2026-08-14T07:07:19.540Z</time>
      </trkpt>
      <trkpt lat="45.81275" lon="6.74915">
        <ele>1657</ele>
        <time>2026-08-14T07:07:20.540Z</time>
      </trkpt>
      <trkpt lat="45.81275" lon="6.74916">
        <ele>1657</ele>
        <time>2026-08-14T07:07:21.540Z</time>
      </trkpt>
      <trkpt lat="45.81275" lon="6.74918">
        <ele>1657</ele>
        <time>2026-08-14T07:07:22.540Z</time>
      </trkpt>
      <trkpt lat="45.81275" lon="6.74919">
        <ele>1657</ele>
        <time>2026-08-14T07:07:23.540Z</time>
      </trkpt>
      <trkpt lat="45.81275" lon="6.74921">
        <ele>1657</ele>
        <time>2026-08-14T07:07:24.540Z</time>
      </trkpt>
      <trkpt lat="45.81275" lon="6.74922">
        <ele>1657</ele>
        <time>2026-08-14T07:07:25.540Z</time>
      </trkpt>
      <trkpt lat="45.81275" lon="6.74924">
        <ele>1658</ele>
        <time>2026-08-14T07:07:26.540Z</time>
      </trkpt>
      <trkpt lat="45.81275" lon="6.74926">
        <ele>1658</ele>
        <time>2026-08-14T07:07:27.540Z</time>
      </trkpt>
      <trkpt lat="45.81274" lon="6.74928">
        <ele>1658</ele>
        <time>2026-08-14T07:07:28.540Z</time>
      </trkpt>
      <trkpt lat="45.81274" lon="6.74929">
        <ele>1659</ele>
        <time>2026-08-14T07:07:29.540Z</time>
      </trkpt>
      <trkpt lat="45.81274" lon="6.7493">
        <ele>1659</ele>
        <time>2026-08-14T07:07:30.540Z</time>
      </trkpt>
      <trkpt lat="45.81274" lon="6.74932">
        <ele>1659</ele>
        <time>2026-08-14T07:07:31.540Z</time>
      </trkpt>
      <trkpt lat="45.81274" lon="6.74933">
        <ele>1660</ele>
        <time>2026-08-14T07:07:32.540Z</time>
      </trkpt>
      <trkpt lat="45.81274" lon="6.74935">
        <ele>1660</ele>
        <time>2026-08-14T07:07:33.540Z</time>
      </trkpt>
      <trkpt lat="45.81274" lon="6.74936">
        <ele>1660</ele>
        <time>2026-08-14T07:07:34.540Z</time>
      </trkpt>
      <trkpt lat="45.81275" lon="6.74937">
        <ele>1660</ele>
        <time>2026-08-14T07:07:35.540Z</time>
      </trkpt>
      <trkpt lat="45.81276" lon="6.74938">
        <ele>1660</ele>
        <time>2026-08-14T07:07:36.540Z</time>
      </trkpt>
      <trkpt lat="45.81276" lon="6.74938">
        <ele>1660</ele>
        <time>2026-08-14T07:07:37.540Z</time>
      </trkpt>
      <trkpt lat="45.81277" lon="6.74939">
        <ele>1660</ele>
        <time>2026-08-14T07:07:38.540Z</time>
      </trkpt>
      <trkpt lat="45.81277" lon="6.7494">
        <ele>1660</ele>
        <time>2026-08-14T07:07:39.540Z</time>
      </trkpt>
      <trkpt lat="45.81278" lon="6.74941">
        <ele>1660</ele>
        <time>2026-08-14T07:07:40.540Z</time>
      </trkpt>
      <trkpt lat="45.81279" lon="6.74941">
        <ele>1660</ele>
        <time>2026-08-14T07:07:41.540Z</time>
      </trkpt>
      <trkpt lat="45.81279" lon="6.74942">
        <ele>1660</ele>
        <time>2026-08-14T07:07:42.540Z</time>
      </trkpt>
      <trkpt lat="45.8128" lon="6.74943">
        <ele>1660</ele>
        <time>2026-08-14T07:07:43.540Z</time>
      </trkpt>
      <trkpt lat="45.8128" lon="6.74944">
        <ele>1660</ele>
        <time>2026-08-14T07:07:44.540Z</time>
      </trkpt>
      <trkpt lat="45.8128" lon="6.74946">
        <ele>1660</ele>
        <time>2026-08-14T07:07:45.540Z</time>
      </trkpt>
      <trkpt lat="45.8128" lon="6.74948">
        <ele>1660</ele>
        <time>2026-08-14T07:07:46.540Z</time>
      </trkpt>
      <trkpt lat="45.8128" lon="6.74949">
        <ele>1660</ele>
        <time>2026-08-14T07:07:47.540Z</time>
      </trkpt>
      <trkpt lat="45.8128" lon="6.74951">
        <ele>1660</ele>
        <time>2026-08-14T07:07:48.540Z</time>
      </trkpt>
      <trkpt lat="45.8128" lon="6.74953">
        <ele>1660</ele>
        <time>2026-08-14T07:07:49.540Z</time>
      </trkpt>
      <trkpt lat="45.8128" lon="6.74955">
        <ele>1660</ele>
        <time>2026-08-14T07:07:50.540Z</time>
      </trkpt>
      <trkpt lat="45.8128" lon="6.74956">
        <ele>1660</ele>
        <time>2026-08-14T07:07:51.540Z</time>
      </trkpt>
      <trkpt lat="45.81279" lon="6.74958">
        <ele>1659</ele>
        <time>2026-08-14T07:07:52.540Z</time>
      </trkpt>
      <trkpt lat="45.81279" lon="6.7496">
        <ele>1659</ele>
        <time>2026-08-14T07:07:53.540Z</time>
      </trkpt>
      <trkpt lat="45.81278" lon="6.74961">
        <ele>1659</ele>
        <time>2026-08-14T07:07:54.540Z</time>
      </trkpt>
      <trkpt lat="45.81277" lon="6.74962">
        <ele>1660</ele>
        <time>2026-08-14T07:07:55.540Z</time>
      </trkpt>
      <trkpt lat="45.81276" lon="6.74963">
        <ele>1660</ele>
        <time>2026-08-14T07:07:56.540Z</time>
      </trkpt>
      <trkpt lat="45.81276" lon="6.74964">
        <ele>1660</ele>
        <time>2026-08-14T07:07:57.540Z</time>
      </trkpt>
      <trkpt lat="45.81275" lon="6.74966">
        <ele>1661</ele>
        <time>2026-08-14T07:07:58.540Z</time>
      </trkpt>
      <trkpt lat="45.81274" lon="6.74967">
        <ele>1662</ele>
        <time>2026-08-14T07:07:59.540Z</time>
      </trkpt>
      <trkpt lat="45.81273" lon="6.74968">
        <ele>1662</ele>
        <time>2026-08-14T07:08:00.540Z</time>
      </trkpt>
      <trkpt lat="45.81272" lon="6.74969">
        <ele>1662</ele>
        <time>2026-08-14T07:08:01.540Z</time>
      </trkpt>
      <trkpt lat="45.81271" lon="6.74971">
        <ele>1662</ele>
        <time>2026-08-14T07:08:02.540Z</time>
      </trkpt>
      <trkpt lat="45.81271" lon="6.74972">
        <ele>1662</ele>
        <time>2026-08-14T07:08:03.540Z</time>
      </trkpt>
      <trkpt lat="45.8127" lon="6.74973">
        <ele>1662</ele>
        <time>2026-08-14T07:08:04.540Z</time>
      </trkpt>
      <trkpt lat="45.8127" lon="6.74975">
        <ele>1662</ele>
        <time>2026-08-14T07:08:05.540Z</time>
      </trkpt>
      <trkpt lat="45.81269" lon="6.74976">
        <ele>1662</ele>
        <time>2026-08-14T07:08:06.540Z</time>
      </trkpt>
      <trkpt lat="45.81268" lon="6.74977">
        <ele>1662</ele>
        <time>2026-08-14T07:08:07.540Z</time>
      </trkpt>
      <trkpt lat="45.81268" lon="6.74976">
        <ele>1662</ele>
        <time>2026-08-14T07:08:08.540Z</time>
      </trkpt>
      <trkpt lat="45.81267" lon="6.74976">
        <ele>1662</ele>
        <time>2026-08-14T07:08:09.540Z</time>
      </trkpt>
      <trkpt lat="45.81267" lon="6.74974">
        <ele>1662</ele>
        <time>2026-08-14T07:08:10.540Z</time>
      </trkpt>
      <trkpt lat="45.81267" lon="6.74972">
        <ele>1662</ele>
        <time>2026-08-14T07:08:11.540Z</time>
      </trkpt>
      <trkpt lat="45.81267" lon="6.7497">
        <ele>1663</ele>
        <time>2026-08-14T07:08:12.540Z</time>
      </trkpt>
      <trkpt lat="45.81267" lon="6.74968">
        <ele>1663</ele>
        <time>2026-08-14T07:08:13.540Z</time>
      </trkpt>
      <trkpt lat="45.81267" lon="6.74967">
        <ele>1663</ele>
        <time>2026-08-14T07:08:14.540Z</time>
      </trkpt>
      <trkpt lat="45.81268" lon="6.74965">
        <ele>1664</ele>
        <time>2026-08-14T07:08:15.540Z</time>
      </trkpt>
      <trkpt lat="45.81268" lon="6.74964">
        <ele>1664</ele>
        <time>2026-08-14T07:08:16.540Z</time>
      </trkpt>
      <trkpt lat="45.81268" lon="6.74962">
        <ele>1665</ele>
        <time>2026-08-14T07:08:17.540Z</time>
      </trkpt>
      <trkpt lat="45.81267" lon="6.74962">
        <ele>1664</ele>
        <time>2026-08-14T07:08:18.540Z</time>
      </trkpt>
      <trkpt lat="45.81266" lon="6.74961">
        <ele>1664</ele>
        <time>2026-08-14T07:08:19.540Z</time>
      </trkpt>
      <trkpt lat="45.81266" lon="6.7496">
        <ele>1664</ele>
        <time>2026-08-14T07:08:20.540Z</time>
      </trkpt>
      <trkpt lat="45.81265" lon="6.7496">
        <ele>1664</ele>
        <time>2026-08-14T07:08:21.540Z</time>
      </trkpt>
      <trkpt lat="45.81263" lon="6.7496">
        <ele>1663</ele>
        <time>2026-08-14T07:08:22.540Z</time>
      </trkpt>
      <trkpt lat="45.81262" lon="6.7496">
        <ele>1664</ele>
        <time>2026-08-14T07:08:23.540Z</time>
      </trkpt>
      <trkpt lat="45.81261" lon="6.7496">
        <ele>1664</ele>
        <time>2026-08-14T07:08:24.540Z</time>
      </trkpt>
      <trkpt lat="45.8126" lon="6.7496">
        <ele>1664</ele>
        <time>2026-08-14T07:08:25.540Z</time>
      </trkpt>
      <trkpt lat="45.8126" lon="6.7496">
        <ele>1665</ele>
        <time>2026-08-14T07:08:26.540Z</time>
      </trkpt>
      <trkpt lat="45.81259" lon="6.7496">
        <ele>1665</ele>
        <time>2026-08-14T07:08:27.540Z</time>
      </trkpt>
      <trkpt lat="45.81258" lon="6.7496">
        <ele>1666</ele>
        <time>2026-08-14T07:08:28.540Z</time>
      </trkpt>
      <trkpt lat="45.81258" lon="6.7496">
        <ele>1666</ele>
        <time>2026-08-14T07:08:29.540Z</time>
      </trkpt>
      <trkpt lat="45.81257" lon="6.7496">
        <ele>1666</ele>
        <time>2026-08-14T07:08:30.540Z</time>
      </trkpt>
      <trkpt lat="45.81256" lon="6.7496">
        <ele>1667</ele>
        <time>2026-08-14T07:08:31.540Z</time>
      </trkpt>
      <trkpt lat="45.81255" lon="6.74959">
        <ele>1667</ele>
        <time>2026-08-14T07:08:32.540Z</time>
      </trkpt>
      <trkpt lat="45.81254" lon="6.74959">
        <ele>1668</ele>
        <time>2026-08-14T07:08:33.540Z</time>
      </trkpt>
      <trkpt lat="45.81253" lon="6.7496">
        <ele>1668</ele>
        <time>2026-08-14T07:08:34.540Z</time>
      </trkpt>
      <trkpt lat="45.81252" lon="6.7496">
        <ele>1668</ele>
        <time>2026-08-14T07:08:35.540Z</time>
      </trkpt>
      <trkpt lat="45.81251" lon="6.74959">
        <ele>1668</ele>
        <time>2026-08-14T07:08:36.540Z</time>
      </trkpt>
      <trkpt lat="45.8125" lon="6.74959">
        <ele>1668</ele>
        <time>2026-08-14T07:08:37.540Z</time>
      </trkpt>
      <trkpt lat="45.81249" lon="6.74958">
        <ele>1668</ele>
        <time>2026-08-14T07:08:38.540Z</time>
      </trkpt>
      <trkpt lat="45.81249" lon="6.74957">
        <ele>1668</ele>
        <time>2026-08-14T07:08:39.540Z</time>
      </trkpt>
      <trkpt lat="45.81248" lon="6.74957">
        <ele>1668</ele>
        <time>2026-08-14T07:08:40.540Z</time>
      </trkpt>
      <trkpt lat="45.81247" lon="6.74956">
        <ele>1668</ele>
        <time>2026-08-14T07:08:41.540Z</time>
      </trkpt>
      <trkpt lat="45.81246" lon="6.74956">
        <ele>1668</ele>
        <time>2026-08-14T07:08:42.540Z</time>
      </trkpt>
      <trkpt lat="45.81245" lon="6.74956">
        <ele>1668</ele>
        <time>2026-08-14T07:08:43.540Z</time>
      </trkpt>
      <trkpt lat="45.81245" lon="6.74956">
        <ele>1669</ele>
        <time>2026-08-14T07:08:44.540Z</time>
      </trkpt>
      <trkpt lat="45.81244" lon="6.74956">
        <ele>1669</ele>
        <time>2026-08-14T07:08:45.540Z</time>
      </trkpt>
      <trkpt lat="45.81243" lon="6.74957">
        <ele>1669</ele>
        <time>2026-08-14T07:08:46.540Z</time>
      </trkpt>
      <trkpt lat="45.81242" lon="6.74958">
        <ele>1669</ele>
        <time>2026-08-14T07:08:47.540Z</time>
      </trkpt>
      <trkpt lat="45.81241" lon="6.74959">
        <ele>1669</ele>
        <time>2026-08-14T07:08:48.540Z</time>
      </trkpt>
      <trkpt lat="45.8124" lon="6.74959">
        <ele>1669</ele>
        <time>2026-08-14T07:08:49.540Z</time>
      </trkpt>
      <trkpt lat="45.81239" lon="6.7496">
        <ele>1669</ele>
        <time>2026-08-14T07:08:50.540Z</time>
      </trkpt>
      <trkpt lat="45.81238" lon="6.7496">
        <ele>1669</ele>
        <time>2026-08-14T07:08:51.540Z</time>
      </trkpt>
      <trkpt lat="45.81237" lon="6.7496">
        <ele>1669</ele>
        <time>2026-08-14T07:08:52.540Z</time>
      </trkpt>
      <trkpt lat="45.81236" lon="6.7496">
        <ele>1670</ele>
        <time>2026-08-14T07:08:53.540Z</time>
      </trkpt>
      <trkpt lat="45.81235" lon="6.7496">
        <ele>1670</ele>
        <time>2026-08-14T07:08:54.540Z</time>
      </trkpt>
      <trkpt lat="45.81234" lon="6.74959">
        <ele>1670</ele>
        <time>2026-08-14T07:08:55.540Z</time>
      </trkpt>
      <trkpt lat="45.81234" lon="6.74957">
        <ele>1670</ele>
        <time>2026-08-14T07:08:56.540Z</time>
      </trkpt>
      <trkpt lat="45.81233" lon="6.74956">
        <ele>1670</ele>
        <time>2026-08-14T07:08:57.540Z</time>
      </trkpt>
      <trkpt lat="45.81233" lon="6.74956">
        <ele>1671</ele>
        <time>2026-08-14T07:08:58.540Z</time>
      </trkpt>
      <trkpt lat="45.81232" lon="6.74956">
        <ele>1671</ele>
        <time>2026-08-14T07:08:59.540Z</time>
      </trkpt>
      <trkpt lat="45.81232" lon="6.74957">
        <ele>1671</ele>
        <time>2026-08-14T07:09:00.540Z</time>
      </trkpt>
      <trkpt lat="45.81232" lon="6.74957">
        <ele>1672</ele>
        <time>2026-08-14T07:09:01.540Z</time>
      </trkpt>
      <trkpt lat="45.81232" lon="6.74958">
        <ele>1673</ele>
        <time>2026-08-14T07:09:02.540Z</time>
      </trkpt>
      <trkpt lat="45.81232" lon="6.74961">
        <ele>1673</ele>
        <time>2026-08-14T07:09:03.540Z</time>
      </trkpt>
      <trkpt lat="45.81232" lon="6.74963">
        <ele>1673</ele>
        <time>2026-08-14T07:09:04.540Z</time>
      </trkpt>
      <trkpt lat="45.81232" lon="6.74964">
        <ele>1673</ele>
        <time>2026-08-14T07:09:05.540Z</time>
      </trkpt>
      <trkpt lat="45.81232" lon="6.74966">
        <ele>1673</ele>
        <time>2026-08-14T07:09:06.540Z</time>
      </trkpt>
      <trkpt lat="45.81231" lon="6.74968">
        <ele>1674</ele>
        <time>2026-08-14T07:09:07.540Z</time>
      </trkpt>
      <trkpt lat="45.81231" lon="6.7497">
        <ele>1674</ele>
        <time>2026-08-14T07:09:08.540Z</time>
      </trkpt>
      <trkpt lat="45.81231" lon="6.74972">
        <ele>1674</ele>
        <time>2026-08-14T07:09:09.540Z</time>
      </trkpt>
      <trkpt lat="45.81231" lon="6.74973">
        <ele>1674</ele>
        <time>2026-08-14T07:09:10.540Z</time>
      </trkpt>
      <trkpt lat="45.81231" lon="6.74975">
        <ele>1674</ele>
        <time>2026-08-14T07:09:11.540Z</time>
      </trkpt>
      <trkpt lat="45.81231" lon="6.74977">
        <ele>1675</ele>
        <time>2026-08-14T07:09:12.540Z</time>
      </trkpt>
      <trkpt lat="45.81231" lon="6.74978">
        <ele>1675</ele>
        <time>2026-08-14T07:09:13.540Z</time>
      </trkpt>
      <trkpt lat="45.81231" lon="6.74979">
        <ele>1675</ele>
        <time>2026-08-14T07:09:14.540Z</time>
      </trkpt>
      <trkpt lat="45.81232" lon="6.7498">
        <ele>1675</ele>
        <time>2026-08-14T07:09:15.540Z</time>
      </trkpt>
      <trkpt lat="45.81233" lon="6.74981">
        <ele>1675</ele>
        <time>2026-08-14T07:09:16.540Z</time>
      </trkpt>
      <trkpt lat="45.81233" lon="6.74982">
        <ele>1675</ele>
        <time>2026-08-14T07:09:17.540Z</time>
      </trkpt>
      <trkpt lat="45.81234" lon="6.74983">
        <ele>1675</ele>
        <time>2026-08-14T07:09:18.540Z</time>
      </trkpt>
      <trkpt lat="45.81234" lon="6.74984">
        <ele>1675</ele>
        <time>2026-08-14T07:09:19.540Z</time>
      </trkpt>
      <trkpt lat="45.81233" lon="6.74985">
        <ele>1675</ele>
        <time>2026-08-14T07:09:20.540Z</time>
      </trkpt>
      <trkpt lat="45.81233" lon="6.74986">
        <ele>1675</ele>
        <time>2026-08-14T07:09:21.540Z</time>
      </trkpt>
      <trkpt lat="45.81232" lon="6.74988">
        <ele>1675</ele>
        <time>2026-08-14T07:09:22.540Z</time>
      </trkpt>
      <trkpt lat="45.81231" lon="6.74989">
        <ele>1675</ele>
        <time>2026-08-14T07:09:23.540Z</time>
      </trkpt>
      <trkpt lat="45.81231" lon="6.7499">
        <ele>1675</ele>
        <time>2026-08-14T07:09:24.540Z</time>
      </trkpt>
      <trkpt lat="45.81231" lon="6.74991">
        <ele>1675</ele>
        <time>2026-08-14T07:09:25.540Z</time>
      </trkpt>
      <trkpt lat="45.81231" lon="6.74992">
        <ele>1675</ele>
        <time>2026-08-14T07:09:26.540Z</time>
      </trkpt>
      <trkpt lat="45.81232" lon="6.74993">
        <ele>1675</ele>
        <time>2026-08-14T07:09:27.540Z</time>
      </trkpt>
      <trkpt lat="45.81233" lon="6.74993">
        <ele>1676</ele>
        <time>2026-08-14T07:09:28.540Z</time>
      </trkpt>
      <trkpt lat="45.81234" lon="6.74993">
        <ele>1676</ele>
        <time>2026-08-14T07:09:29.540Z</time>
      </trkpt>
      <trkpt lat="45.81235" lon="6.74994">
        <ele>1677</ele>
        <time>2026-08-14T07:09:30.540Z</time>
      </trkpt>
      <trkpt lat="45.81236" lon="6.74994">
        <ele>1677</ele>
        <time>2026-08-14T07:09:31.540Z</time>
      </trkpt>
      <trkpt lat="45.81237" lon="6.74996">
        <ele>1677</ele>
        <time>2026-08-14T07:09:32.540Z</time>
      </trkpt>
      <trkpt lat="45.81237" lon="6.74997">
        <ele>1677</ele>
        <time>2026-08-14T07:09:33.540Z</time>
      </trkpt>
      <trkpt lat="45.81238" lon="6.74999">
        <ele>1677</ele>
        <time>2026-08-14T07:09:34.540Z</time>
      </trkpt>
      <trkpt lat="45.81239" lon="6.75">
        <ele>1677</ele>
        <time>2026-08-14T07:09:35.540Z</time>
      </trkpt>
      <trkpt lat="45.81239" lon="6.75002">
        <ele>1677</ele>
        <time>2026-08-14T07:09:36.540Z</time>
      </trkpt>
      <trkpt lat="45.81239" lon="6.75003">
        <ele>1677</ele>
        <time>2026-08-14T07:09:37.540Z</time>
      </trkpt>
      <trkpt lat="45.81239" lon="6.75005">
        <ele>1677</ele>
        <time>2026-08-14T07:09:38.540Z</time>
      </trkpt>
      <trkpt lat="45.8124" lon="6.75006">
        <ele>1678</ele>
        <time>2026-08-14T07:09:39.540Z</time>
      </trkpt>
      <trkpt lat="45.8124" lon="6.75008">
        <ele>1678</ele>
        <time>2026-08-14T07:09:40.540Z</time>
      </trkpt>
      <trkpt lat="45.8124" lon="6.7501">
        <ele>1678</ele>
        <time>2026-08-14T07:09:41.540Z</time>
      </trkpt>
      <trkpt lat="45.8124" lon="6.75011">
        <ele>1678</ele>
        <time>2026-08-14T07:09:42.540Z</time>
      </trkpt>
      <trkpt lat="45.81241" lon="6.75013">
        <ele>1679</ele>
        <time>2026-08-14T07:09:43.540Z</time>
      </trkpt>
      <trkpt lat="45.81241" lon="6.75014">
        <ele>1679</ele>
        <time>2026-08-14T07:09:44.540Z</time>
      </trkpt>
      <trkpt lat="45.81242" lon="6.75015">
        <ele>1679</ele>
        <time>2026-08-14T07:09:45.540Z</time>
      </trkpt>
      <trkpt lat="45.81242" lon="6.75016">
        <ele>1679</ele>
        <time>2026-08-14T07:09:46.540Z</time>
      </trkpt>
      <trkpt lat="45.81243" lon="6.75017">
        <ele>1679</ele>
        <time>2026-08-14T07:09:47.540Z</time>
      </trkpt>
      <trkpt lat="45.81244" lon="6.75017">
        <ele>1679</ele>
        <time>2026-08-14T07:09:48.540Z</time>
      </trkpt>
      <trkpt lat="45.81245" lon="6.75017">
        <ele>1679</ele>
        <time>2026-08-14T07:09:49.540Z</time>
      </trkpt>
      <trkpt lat="45.81246" lon="6.75018">
        <ele>1679</ele>
        <time>2026-08-14T07:09:50.540Z</time>
      </trkpt>
      <trkpt lat="45.81247" lon="6.75018">
        <ele>1679</ele>
        <time>2026-08-14T07:09:51.540Z</time>
      </trkpt>
      <trkpt lat="45.81248" lon="6.75018">
        <ele>1679</ele>
        <time>2026-08-14T07:09:52.540Z</time>
      </trkpt>
      <trkpt lat="45.81249" lon="6.75018">
        <ele>1679</ele>
        <time>2026-08-14T07:09:53.540Z</time>
      </trkpt>
      <trkpt lat="45.8125" lon="6.75018">
        <ele>1679</ele>
        <time>2026-08-14T07:09:54.540Z</time>
      </trkpt>
      <trkpt lat="45.81251" lon="6.75018">
        <ele>1680</ele>
        <time>2026-08-14T07:09:55.540Z</time>
      </trkpt>
      <trkpt lat="45.81252" lon="6.75019">
        <ele>1680</ele>
        <time>2026-08-14T07:09:56.540Z</time>
      </trkpt>
      <trkpt lat="45.81252" lon="6.7502">
        <ele>1681</ele>
        <time>2026-08-14T07:09:57.540Z</time>
      </trkpt>
      <trkpt lat="45.81253" lon="6.75021">
        <ele>1681</ele>
        <time>2026-08-14T07:09:58.540Z</time>
      </trkpt>
      <trkpt lat="45.81253" lon="6.75022">
        <ele>1681</ele>
        <time>2026-08-14T07:09:59.540Z</time>
      </trkpt>
      <trkpt lat="45.81253" lon="6.75024">
        <ele>1681</ele>
        <time>2026-08-14T07:10:00.540Z</time>
      </trkpt>
      <trkpt lat="45.81254" lon="6.75026">
        <ele>1681</ele>
        <time>2026-08-14T07:10:01.540Z</time>
      </trkpt>
      <trkpt lat="45.81254" lon="6.75027">
        <ele>1681</ele>
        <time>2026-08-14T07:10:02.540Z</time>
      </trkpt>
      <trkpt lat="45.81255" lon="6.75029">
        <ele>1681</ele>
        <time>2026-08-14T07:10:03.540Z</time>
      </trkpt>
      <trkpt lat="45.81255" lon="6.75031">
        <ele>1682</ele>
        <time>2026-08-14T07:10:04.540Z</time>
      </trkpt>
      <trkpt lat="45.81256" lon="6.75033">
        <ele>1682</ele>
        <time>2026-08-14T07:10:05.540Z</time>
      </trkpt>
      <trkpt lat="45.81256" lon="6.75034">
        <ele>1682</ele>
        <time>2026-08-14T07:10:06.540Z</time>
      </trkpt>
      <trkpt lat="45.81256" lon="6.75035">
        <ele>1682</ele>
        <time>2026-08-14T07:10:07.540Z</time>
      </trkpt>
      <trkpt lat="45.81256" lon="6.75035">
        <ele>1682</ele>
        <time>2026-08-14T07:10:08.540Z</time>
      </trkpt>
      <trkpt lat="45.81256" lon="6.75036">
        <ele>1682</ele>
        <time>2026-08-14T07:10:09.540Z</time>
      </trkpt>
      <trkpt lat="45.81256" lon="6.75036">
        <ele>1682</ele>
        <time>2026-08-14T07:10:10.540Z</time>
      </trkpt>
      <trkpt lat="45.81256" lon="6.75036">
        <ele>1682</ele>
        <time>2026-08-14T07:10:11.540Z</time>
      </trkpt>
      <trkpt lat="45.81256" lon="6.75036">
        <ele>1683</ele>
        <time>2026-08-14T07:10:12.540Z</time>
      </trkpt>
      <trkpt lat="45.81255" lon="6.75036">
        <ele>1683</ele>
        <time>2026-08-14T07:10:13.540Z</time>
      </trkpt>
      <trkpt lat="45.81255" lon="6.75036">
        <ele>1683</ele>
        <time>2026-08-14T07:10:14.540Z</time>
      </trkpt>
      <trkpt lat="45.81255" lon="6.75037">
        <ele>1683</ele>
        <time>2026-08-14T07:10:15.540Z</time>
      </trkpt>
      <trkpt lat="45.81255" lon="6.75038">
        <ele>1683</ele>
        <time>2026-08-14T07:10:16.540Z</time>
      </trkpt>
      <trkpt lat="45.81255" lon="6.75039">
        <ele>1683</ele>
        <time>2026-08-14T07:10:17.540Z</time>
      </trkpt>
      <trkpt lat="45.81255" lon="6.75041">
        <ele>1683</ele>
        <time>2026-08-14T07:10:18.540Z</time>
      </trkpt>
      <trkpt lat="45.81255" lon="6.75042">
        <ele>1684</ele>
        <time>2026-08-14T07:10:19.540Z</time>
      </trkpt>
      <trkpt lat="45.81255" lon="6.75044">
        <ele>1684</ele>
        <time>2026-08-14T07:10:20.540Z</time>
      </trkpt>
      <trkpt lat="45.81255" lon="6.75046">
        <ele>1684</ele>
        <time>2026-08-14T07:10:21.540Z</time>
      </trkpt>
      <trkpt lat="45.81255" lon="6.75047">
        <ele>1684</ele>
        <time>2026-08-14T07:10:22.540Z</time>
      </trkpt>
      <trkpt lat="45.81255" lon="6.75049">
        <ele>1684</ele>
        <time>2026-08-14T07:10:23.540Z</time>
      </trkpt>
      <trkpt lat="45.81255" lon="6.7505">
        <ele>1684</ele>
        <time>2026-08-14T07:10:24.540Z</time>
      </trkpt>
      <trkpt lat="45.81255" lon="6.75052">
        <ele>1684</ele>
        <time>2026-08-14T07:10:25.540Z</time>
      </trkpt>
      <trkpt lat="45.81254" lon="6.75053">
        <ele>1684</ele>
        <time>2026-08-14T07:10:26.540Z</time>
      </trkpt>
      <trkpt lat="45.81254" lon="6.75054">
        <ele>1684</ele>
        <time>2026-08-14T07:10:27.540Z</time>
      </trkpt>
      <trkpt lat="45.81253" lon="6.75055">
        <ele>1684</ele>
        <time>2026-08-14T07:10:28.540Z</time>
      </trkpt>
      <trkpt lat="45.81252" lon="6.75056">
        <ele>1684</ele>
        <time>2026-08-14T07:10:29.540Z</time>
      </trkpt>
      <trkpt lat="45.81251" lon="6.75057">
        <ele>1684</ele>
        <time>2026-08-14T07:10:30.540Z</time>
      </trkpt>
      <trkpt lat="45.81251" lon="6.75058">
        <ele>1684</ele>
        <time>2026-08-14T07:10:31.540Z</time>
      </trkpt>
      <trkpt lat="45.8125" lon="6.7506">
        <ele>1684</ele>
        <time>2026-08-14T07:10:32.540Z</time>
      </trkpt>
      <trkpt lat="45.81251" lon="6.75061">
        <ele>1684</ele>
        <time>2026-08-14T07:10:33.540Z</time>
      </trkpt>
      <trkpt lat="45.81251" lon="6.75063">
        <ele>1684</ele>
        <time>2026-08-14T07:10:34.540Z</time>
      </trkpt>
      <trkpt lat="45.81251" lon="6.75064">
        <ele>1684</ele>
        <time>2026-08-14T07:10:35.540Z</time>
      </trkpt>
      <trkpt lat="45.81251" lon="6.75066">
        <ele>1684</ele>
        <time>2026-08-14T07:10:36.540Z</time>
      </trkpt>
      <trkpt lat="45.81251" lon="6.75067">
        <ele>1684</ele>
        <time>2026-08-14T07:10:37.540Z</time>
      </trkpt>
      <trkpt lat="45.81251" lon="6.75069">
        <ele>1684</ele>
        <time>2026-08-14T07:10:38.540Z</time>
      </trkpt>
      <trkpt lat="45.8125" lon="6.7507">
        <ele>1684</ele>
        <time>2026-08-14T07:10:39.540Z</time>
      </trkpt>
      <trkpt lat="45.81249" lon="6.7507">
        <ele>1685</ele>
        <time>2026-08-14T07:10:40.540Z</time>
      </trkpt>
      <trkpt lat="45.81248" lon="6.7507">
        <ele>1685</ele>
        <time>2026-08-14T07:10:41.540Z</time>
      </trkpt>
      <trkpt lat="45.81247" lon="6.75069">
        <ele>1686</ele>
        <time>2026-08-14T07:10:42.540Z</time>
      </trkpt>
      <trkpt lat="45.81246" lon="6.75069">
        <ele>1686</ele>
        <time>2026-08-14T07:10:43.540Z</time>
      </trkpt>
      <trkpt lat="45.81245" lon="6.75068">
        <ele>1687</ele>
        <time>2026-08-14T07:10:44.540Z</time>
      </trkpt>
      <trkpt lat="45.81244" lon="6.75067">
        <ele>1687</ele>
        <time>2026-08-14T07:10:45.540Z</time>
      </trkpt>
      <trkpt lat="45.81242" lon="6.75067">
        <ele>1687</ele>
        <time>2026-08-14T07:10:46.540Z</time>
      </trkpt>
      <trkpt lat="45.81241" lon="6.75066">
        <ele>1687</ele>
        <time>2026-08-14T07:10:47.540Z</time>
      </trkpt>
      <trkpt lat="45.8124" lon="6.75065">
        <ele>1687</ele>
        <time>2026-08-14T07:10:48.540Z</time>
      </trkpt>
      <trkpt lat="45.8124" lon="6.75064">
        <ele>1688</ele>
        <time>2026-08-14T07:10:49.540Z</time>
      </trkpt>
      <trkpt lat="45.81239" lon="6.75063">
        <ele>1687</ele>
        <time>2026-08-14T07:10:50.540Z</time>
      </trkpt>
      <trkpt lat="45.81239" lon="6.75062">
        <ele>1687</ele>
        <time>2026-08-14T07:10:51.540Z</time>
      </trkpt>
      <trkpt lat="45.81238" lon="6.75061">
        <ele>1687</ele>
        <time>2026-08-14T07:10:52.540Z</time>
      </trkpt>
      <trkpt lat="45.81237" lon="6.75061">
        <ele>1687</ele>
        <time>2026-08-14T07:10:53.540Z</time>
      </trkpt>
      <trkpt lat="45.81236" lon="6.7506">
        <ele>1687</ele>
        <time>2026-08-14T07:10:54.540Z</time>
      </trkpt>
      <trkpt lat="45.81234" lon="6.7506">
        <ele>1688</ele>
        <time>2026-08-14T07:10:55.540Z</time>
      </trkpt>
      <trkpt lat="45.81233" lon="6.75059">
        <ele>1688</ele>
        <time>2026-08-14T07:10:56.540Z</time>
      </trkpt>
      <trkpt lat="45.81232" lon="6.75059">
        <ele>1688</ele>
        <time>2026-08-14T07:10:57.540Z</time>
      </trkpt>
      <trkpt lat="45.8123" lon="6.75058">
        <ele>1689</ele>
        <time>2026-08-14T07:10:58.540Z</time>
      </trkpt>
      <trkpt lat="45.81229" lon="6.75058">
        <ele>1689</ele>
        <time>2026-08-14T07:10:59.540Z</time>
      </trkpt>
      <trkpt lat="45.81228" lon="6.75057">
        <ele>1688</ele>
        <time>2026-08-14T07:11:00.540Z</time>
      </trkpt>
      <trkpt lat="45.81226" lon="6.75057">
        <ele>1689</ele>
        <time>2026-08-14T07:11:01.540Z</time>
      </trkpt>
      <trkpt lat="45.81225" lon="6.75056">
        <ele>1689</ele>
        <time>2026-08-14T07:11:02.540Z</time>
      </trkpt>
      <trkpt lat="45.81224" lon="6.75056">
        <ele>1689</ele>
        <time>2026-08-14T07:11:03.540Z</time>
      </trkpt>
      <trkpt lat="45.81223" lon="6.75055">
        <ele>1689</ele>
        <time>2026-08-14T07:11:04.540Z</time>
      </trkpt>
      <trkpt lat="45.81223" lon="6.75055">
        <ele>1690</ele>
        <time>2026-08-14T07:11:05.540Z</time>
      </trkpt>
      <trkpt lat="45.81222" lon="6.75054">
        <ele>1690</ele>
        <time>2026-08-14T07:11:06.540Z</time>
      </trkpt>
      <trkpt lat="45.81221" lon="6.75054">
        <ele>1690</ele>
        <time>2026-08-14T07:11:07.540Z</time>
      </trkpt>
      <trkpt lat="45.8122" lon="6.75055">
        <ele>1690</ele>
        <time>2026-08-14T07:11:08.540Z</time>
      </trkpt>
      <trkpt lat="45.81219" lon="6.75055">
        <ele>1690</ele>
        <time>2026-08-14T07:11:09.540Z</time>
      </trkpt>
      <trkpt lat="45.81218" lon="6.75055">
        <ele>1691</ele>
        <time>2026-08-14T07:11:10.540Z</time>
      </trkpt>
      <trkpt lat="45.81217" lon="6.75056">
        <ele>1691</ele>
        <time>2026-08-14T07:11:11.540Z</time>
      </trkpt>
      <trkpt lat="45.81216" lon="6.75056">
        <ele>1691</ele>
        <time>2026-08-14T07:11:12.540Z</time>
      </trkpt>
      <trkpt lat="45.81214" lon="6.75056">
        <ele>1692</ele>
        <time>2026-08-14T07:11:13.540Z</time>
      </trkpt>
      <trkpt lat="45.81213" lon="6.75057">
        <ele>1692</ele>
        <time>2026-08-14T07:11:14.540Z</time>
      </trkpt>
      <trkpt lat="45.81212" lon="6.75057">
        <ele>1693</ele>
        <time>2026-08-14T07:11:15.540Z</time>
      </trkpt>
      <trkpt lat="45.81211" lon="6.75056">
        <ele>1693</ele>
        <time>2026-08-14T07:11:16.540Z</time>
      </trkpt>
      <trkpt lat="45.8121" lon="6.75055">
        <ele>1693</ele>
        <time>2026-08-14T07:11:17.540Z</time>
      </trkpt>
      <trkpt lat="45.8121" lon="6.75055">
        <ele>1694</ele>
        <time>2026-08-14T07:11:18.540Z</time>
      </trkpt>
      <trkpt lat="45.81209" lon="6.75055">
        <ele>1694</ele>
        <time>2026-08-14T07:11:19.540Z</time>
      </trkpt>
      <trkpt lat="45.81209" lon="6.75055">
        <ele>1695</ele>
        <time>2026-08-14T07:11:20.540Z</time>
      </trkpt>
      <trkpt lat="45.81208" lon="6.75056">
        <ele>1695</ele>
        <time>2026-08-14T07:11:21.540Z</time>
      </trkpt>
      <trkpt lat="45.81207" lon="6.75057">
        <ele>1695</ele>
        <time>2026-08-14T07:11:22.540Z</time>
      </trkpt>
      <trkpt lat="45.81206" lon="6.75058">
        <ele>1695</ele>
        <time>2026-08-14T07:11:23.540Z</time>
      </trkpt>
      <trkpt lat="45.81206" lon="6.75058">
        <ele>1695</ele>
        <time>2026-08-14T07:11:24.540Z</time>
      </trkpt>
      <trkpt lat="45.81206" lon="6.75059">
        <ele>1695</ele>
        <time>2026-08-14T07:11:25.540Z</time>
      </trkpt>
      <trkpt lat="45.81206" lon="6.7506">
        <ele>1696</ele>
        <time>2026-08-14T07:11:26.540Z</time>
      </trkpt>
      <trkpt lat="45.81205" lon="6.75061">
        <ele>1696</ele>
        <time>2026-08-14T07:11:27.540Z</time>
      </trkpt>
      <trkpt lat="45.81205" lon="6.75062">
        <ele>1696</ele>
        <time>2026-08-14T07:11:28.540Z</time>
      </trkpt>
      <trkpt lat="45.81205" lon="6.75062">
        <ele>1696</ele>
        <time>2026-08-14T07:11:29.540Z</time>
      </trkpt>
      <trkpt lat="45.81205" lon="6.75063">
        <ele>1696</ele>
        <time>2026-08-14T07:11:30.540Z</time>
      </trkpt>
      <trkpt lat="45.81205" lon="6.75063">
        <ele>1696</ele>
        <time>2026-08-14T07:11:31.540Z</time>
      </trkpt>
      <trkpt lat="45.81205" lon="6.75064">
        <ele>1696</ele>
        <time>2026-08-14T07:11:32.540Z</time>
      </trkpt>
      <trkpt lat="45.81205" lon="6.75064">
        <ele>1696</ele>
        <time>2026-08-14T07:11:33.540Z</time>
      </trkpt>
      <trkpt lat="45.81205" lon="6.75065">
        <ele>1696</ele>
        <time>2026-08-14T07:11:34.540Z</time>
      </trkpt>
      <trkpt lat="45.81205" lon="6.75065">
        <ele>1696</ele>
        <time>2026-08-14T07:11:35.540Z</time>
      </trkpt>
      <trkpt lat="45.81204" lon="6.75066">
        <ele>1697</ele>
        <time>2026-08-14T07:11:36.540Z</time>
      </trkpt>
      <trkpt lat="45.81204" lon="6.75067">
        <ele>1697</ele>
        <time>2026-08-14T07:11:37.540Z</time>
      </trkpt>
      <trkpt lat="45.81204" lon="6.75068">
        <ele>1697</ele>
        <time>2026-08-14T07:11:38.540Z</time>
      </trkpt>
      <trkpt lat="45.81204" lon="6.75068">
        <ele>1698</ele>
        <time>2026-08-14T07:11:39.540Z</time>
      </trkpt>
      <trkpt lat="45.81204" lon="6.75068">
        <ele>1698</ele>
        <time>2026-08-14T07:11:40.540Z</time>
      </trkpt>
      <trkpt lat="45.81204" lon="6.75069">
        <ele>1698</ele>
        <time>2026-08-14T07:11:41.540Z</time>
      </trkpt>
      <trkpt lat="45.81204" lon="6.7507">
        <ele>1699</ele>
        <time>2026-08-14T07:11:42.540Z</time>
      </trkpt>
      <trkpt lat="45.81203" lon="6.75071">
        <ele>1699</ele>
        <time>2026-08-14T07:11:43.540Z</time>
      </trkpt>
      <trkpt lat="45.81203" lon="6.75072">
        <ele>1700</ele>
        <time>2026-08-14T07:11:44.540Z</time>
      </trkpt>
      <trkpt lat="45.81203" lon="6.75074">
        <ele>1700</ele>
        <time>2026-08-14T07:11:45.540Z</time>
      </trkpt>
      <trkpt lat="45.81203" lon="6.75076">
        <ele>1701</ele>
        <time>2026-08-14T07:11:46.540Z</time>
      </trkpt>
      <trkpt lat="45.81203" lon="6.75078">
        <ele>1701</ele>
        <time>2026-08-14T07:11:47.540Z</time>
      </trkpt>
      <trkpt lat="45.81203" lon="6.75079">
        <ele>1702</ele>
        <time>2026-08-14T07:11:48.540Z</time>
      </trkpt>
      <trkpt lat="45.81203" lon="6.75081">
        <ele>1702</ele>
        <time>2026-08-14T07:11:49.540Z</time>
      </trkpt>
      <trkpt lat="45.81203" lon="6.75083">
        <ele>1702</ele>
        <time>2026-08-14T07:11:50.540Z</time>
      </trkpt>
      <trkpt lat="45.81203" lon="6.75085">
        <ele>1703</ele>
        <time>2026-08-14T07:11:51.540Z</time>
      </trkpt>
      <trkpt lat="45.81202" lon="6.75086">
        <ele>1703</ele>
        <time>2026-08-14T07:11:52.540Z</time>
      </trkpt>
      <trkpt lat="45.81202" lon="6.75088">
        <ele>1703</ele>
        <time>2026-08-14T07:11:53.540Z</time>
      </trkpt>
      <trkpt lat="45.81202" lon="6.75089">
        <ele>1703</ele>
        <time>2026-08-14T07:11:54.540Z</time>
      </trkpt>
      <trkpt lat="45.81201" lon="6.7509">
        <ele>1703</ele>
        <time>2026-08-14T07:11:55.540Z</time>
      </trkpt>
      <trkpt lat="45.81201" lon="6.7509">
        <ele>1703</ele>
        <time>2026-08-14T07:11:56.540Z</time>
      </trkpt>
      <trkpt lat="45.81201" lon="6.7509">
        <ele>1703</ele>
        <time>2026-08-14T07:11:57.540Z</time>
      </trkpt>
      <trkpt lat="45.81201" lon="6.7509">
        <ele>1703</ele>
        <time>2026-08-14T07:11:58.540Z</time>
      </trkpt>
      <trkpt lat="45.81201" lon="6.7509">
        <ele>1703</ele>
        <time>2026-08-14T07:11:59.540Z</time>
      </trkpt>
      <trkpt lat="45.81201" lon="6.7509">
        <ele>1703</ele>
        <time>2026-08-14T07:12:00.540Z</time>
      </trkpt>
      <trkpt lat="45.81201" lon="6.7509">
        <ele>1703</ele>
        <time>2026-08-14T07:12:01.540Z</time>
      </trkpt>
      <trkpt lat="45.81201" lon="6.7509">
        <ele>1704</ele>
        <time>2026-08-14T07:12:02.540Z</time>
      </trkpt>
      <trkpt lat="45.81202" lon="6.75091">
        <ele>1704</ele>
        <time>2026-08-14T07:12:03.540Z</time>
      </trkpt>
      <trkpt lat="45.81202" lon="6.75091">
        <ele>1704</ele>
        <time>2026-08-14T07:12:04.540Z</time>
      </trkpt>
      <trkpt lat="45.81202" lon="6.75093">
        <ele>1705</ele>
        <time>2026-08-14T07:12:05.540Z</time>
      </trkpt>
      <trkpt lat="45.81201" lon="6.75095">
        <ele>1705</ele>
        <time>2026-08-14T07:12:06.540Z</time>
      </trkpt>
      <trkpt lat="45.81202" lon="6.75096">
        <ele>1705</ele>
        <time>2026-08-14T07:12:07.540Z</time>
      </trkpt>
      <trkpt lat="45.81202" lon="6.75098">
        <ele>1705</ele>
        <time>2026-08-14T07:12:08.540Z</time>
      </trkpt>
      <trkpt lat="45.81202" lon="6.751">
        <ele>1705</ele>
        <time>2026-08-14T07:12:09.540Z</time>
      </trkpt>
      <trkpt lat="45.81203" lon="6.75102">
        <ele>1705</ele>
        <time>2026-08-14T07:12:10.540Z</time>
      </trkpt>
      <trkpt lat="45.81203" lon="6.75103">
        <ele>1705</ele>
        <time>2026-08-14T07:12:11.540Z</time>
      </trkpt>
      <trkpt lat="45.81203" lon="6.75104">
        <ele>1706</ele>
        <time>2026-08-14T07:12:12.540Z</time>
      </trkpt>
      <trkpt lat="45.81202" lon="6.75105">
        <ele>1706</ele>
        <time>2026-08-14T07:12:13.540Z</time>
      </trkpt>
      <trkpt lat="45.81201" lon="6.75106">
        <ele>1706</ele>
        <time>2026-08-14T07:12:14.540Z</time>
      </trkpt>
      <trkpt lat="45.812" lon="6.75106">
        <ele>1706</ele>
        <time>2026-08-14T07:12:15.540Z</time>
      </trkpt>
      <trkpt lat="45.81199" lon="6.75106">
        <ele>1706</ele>
        <time>2026-08-14T07:12:16.540Z</time>
      </trkpt>
      <trkpt lat="45.81198" lon="6.75105">
        <ele>1706</ele>
        <time>2026-08-14T07:12:17.540Z</time>
      </trkpt>
      <trkpt lat="45.81197" lon="6.75105">
        <ele>1706</ele>
        <time>2026-08-14T07:12:18.540Z</time>
      </trkpt>
      <trkpt lat="45.81196" lon="6.75104">
        <ele>1706</ele>
        <time>2026-08-14T07:12:19.540Z</time>
      </trkpt>
      <trkpt lat="45.81195" lon="6.75103">
        <ele>1706</ele>
        <time>2026-08-14T07:12:20.540Z</time>
      </trkpt>
      <trkpt lat="45.81194" lon="6.75102">
        <ele>1706</ele>
        <time>2026-08-14T07:12:21.540Z</time>
      </trkpt>
      <trkpt lat="45.81193" lon="6.75101">
        <ele>1706</ele>
        <time>2026-08-14T07:12:22.540Z</time>
      </trkpt>
      <trkpt lat="45.81192" lon="6.75101">
        <ele>1707</ele>
        <time>2026-08-14T07:12:23.540Z</time>
      </trkpt>
      <trkpt lat="45.81191" lon="6.751">
        <ele>1707</ele>
        <time>2026-08-14T07:12:24.540Z</time>
      </trkpt>
      <trkpt lat="45.81189" lon="6.751">
        <ele>1707</ele>
        <time>2026-08-14T07:12:25.540Z</time>
      </trkpt>
      <trkpt lat="45.81188" lon="6.75099">
        <ele>1707</ele>
        <time>2026-08-14T07:12:26.540Z</time>
      </trkpt>
      <trkpt lat="45.81187" lon="6.75099">
        <ele>1707</ele>
        <time>2026-08-14T07:12:27.540Z</time>
      </trkpt>
      <trkpt lat="45.81186" lon="6.75099">
        <ele>1707</ele>
        <time>2026-08-14T07:12:28.540Z</time>
      </trkpt>
      <trkpt lat="45.81184" lon="6.75099">
        <ele>1707</ele>
        <time>2026-08-14T07:12:29.540Z</time>
      </trkpt>
      <trkpt lat="45.81183" lon="6.751">
        <ele>1707</ele>
        <time>2026-08-14T07:12:30.540Z</time>
      </trkpt>
      <trkpt lat="45.81182" lon="6.751">
        <ele>1707</ele>
        <time>2026-08-14T07:12:31.540Z</time>
      </trkpt>
      <trkpt lat="45.81182" lon="6.75101">
        <ele>1708</ele>
        <time>2026-08-14T07:12:32.540Z</time>
      </trkpt>
      <trkpt lat="45.81182" lon="6.75103">
        <ele>1708</ele>
        <time>2026-08-14T07:12:33.540Z</time>
      </trkpt>
      <trkpt lat="45.81182" lon="6.75104">
        <ele>1709</ele>
        <time>2026-08-14T07:12:34.540Z</time>
      </trkpt>
      <trkpt lat="45.81182" lon="6.75106">
        <ele>1709</ele>
        <time>2026-08-14T07:12:35.540Z</time>
      </trkpt>
      <trkpt lat="45.81182" lon="6.75107">
        <ele>1710</ele>
        <time>2026-08-14T07:12:36.540Z</time>
      </trkpt>
      <trkpt lat="45.81183" lon="6.75109">
        <ele>1710</ele>
        <time>2026-08-14T07:12:37.540Z</time>
      </trkpt>
      <trkpt lat="45.81182" lon="6.75111">
        <ele>1711</ele>
        <time>2026-08-14T07:12:38.540Z</time>
      </trkpt>
      <trkpt lat="45.81182" lon="6.75112">
        <ele>1711</ele>
        <time>2026-08-14T07:12:39.540Z</time>
      </trkpt>
      <trkpt lat="45.81182" lon="6.75114">
        <ele>1711</ele>
        <time>2026-08-14T07:12:40.540Z</time>
      </trkpt>
      <trkpt lat="45.81182" lon="6.75116">
        <ele>1711</ele>
        <time>2026-08-14T07:12:41.540Z</time>
      </trkpt>
      <trkpt lat="45.81182" lon="6.75118">
        <ele>1711</ele>
        <time>2026-08-14T07:12:42.540Z</time>
      </trkpt>
      <trkpt lat="45.81182" lon="6.75119">
        <ele>1711</ele>
        <time>2026-08-14T07:12:43.540Z</time>
      </trkpt>
      <trkpt lat="45.81182" lon="6.75121">
        <ele>1711</ele>
        <time>2026-08-14T07:12:44.540Z</time>
      </trkpt>
      <trkpt lat="45.81181" lon="6.75121">
        <ele>1711</ele>
        <time>2026-08-14T07:12:45.540Z</time>
      </trkpt>
      <trkpt lat="45.81181" lon="6.75122">
        <ele>1711</ele>
        <time>2026-08-14T07:12:46.540Z</time>
      </trkpt>
      <trkpt lat="45.8118" lon="6.75122">
        <ele>1711</ele>
        <time>2026-08-14T07:12:47.540Z</time>
      </trkpt>
      <trkpt lat="45.81179" lon="6.75121">
        <ele>1711</ele>
        <time>2026-08-14T07:12:48.540Z</time>
      </trkpt>
      <trkpt lat="45.81178" lon="6.75121">
        <ele>1712</ele>
        <time>2026-08-14T07:12:49.540Z</time>
      </trkpt>
      <trkpt lat="45.81177" lon="6.75121">
        <ele>1712</ele>
        <time>2026-08-14T07:12:50.540Z</time>
      </trkpt>
      <trkpt lat="45.81176" lon="6.75121">
        <ele>1712</ele>
        <time>2026-08-14T07:12:51.540Z</time>
      </trkpt>
      <trkpt lat="45.81175" lon="6.75121">
        <ele>1712</ele>
        <time>2026-08-14T07:12:52.540Z</time>
      </trkpt>
      <trkpt lat="45.81175" lon="6.75121">
        <ele>1712</ele>
        <time>2026-08-14T07:12:53.540Z</time>
      </trkpt>
      <trkpt lat="45.81175" lon="6.75121">
        <ele>1713</ele>
        <time>2026-08-14T07:12:54.540Z</time>
      </trkpt>
      <trkpt lat="45.81176" lon="6.75122">
        <ele>1713</ele>
        <time>2026-08-14T07:12:55.540Z</time>
      </trkpt>
      <trkpt lat="45.81176" lon="6.75124">
        <ele>1713</ele>
        <time>2026-08-14T07:12:56.540Z</time>
      </trkpt>
      <trkpt lat="45.81175" lon="6.75126">
        <ele>1713</ele>
        <time>2026-08-14T07:12:57.540Z</time>
      </trkpt>
      <trkpt lat="45.81175" lon="6.75127">
        <ele>1714</ele>
        <time>2026-08-14T07:12:58.540Z</time>
      </trkpt>
      <trkpt lat="45.81175" lon="6.75128">
        <ele>1714</ele>
        <time>2026-08-14T07:12:59.540Z</time>
      </trkpt>
      <trkpt lat="45.81175" lon="6.75129">
        <ele>1714</ele>
        <time>2026-08-14T07:13:00.540Z</time>
      </trkpt>
      <trkpt lat="45.81174" lon="6.75129">
        <ele>1715</ele>
        <time>2026-08-14T07:13:01.540Z</time>
      </trkpt>
      <trkpt lat="45.81174" lon="6.75129">
        <ele>1715</ele>
        <time>2026-08-14T07:13:02.540Z</time>
      </trkpt>
      <trkpt lat="45.81173" lon="6.75129">
        <ele>1715</ele>
        <time>2026-08-14T07:13:03.540Z</time>
      </trkpt>
      <trkpt lat="45.81173" lon="6.75129">
        <ele>1715</ele>
        <time>2026-08-14T07:13:04.540Z</time>
      </trkpt>
      <trkpt lat="45.81173" lon="6.7513">
        <ele>1715</ele>
        <time>2026-08-14T07:13:05.540Z</time>
      </trkpt>
      <trkpt lat="45.81173" lon="6.75131">
        <ele>1715</ele>
        <time>2026-08-14T07:13:06.540Z</time>
      </trkpt>
      <trkpt lat="45.81173" lon="6.75133">
        <ele>1715</ele>
        <time>2026-08-14T07:13:07.540Z</time>
      </trkpt>
      <trkpt lat="45.81173" lon="6.75134">
        <ele>1716</ele>
        <time>2026-08-14T07:13:08.540Z</time>
      </trkpt>
      <trkpt lat="45.81174" lon="6.75135">
        <ele>1716</ele>
        <time>2026-08-14T07:13:09.540Z</time>
      </trkpt>
      <trkpt lat="45.81174" lon="6.75137">
        <ele>1716</ele>
        <time>2026-08-14T07:13:10.540Z</time>
      </trkpt>
      <trkpt lat="45.81174" lon="6.75139">
        <ele>1717</ele>
        <time>2026-08-14T07:13:11.540Z</time>
      </trkpt>
      <trkpt lat="45.81174" lon="6.7514">
        <ele>1717</ele>
        <time>2026-08-14T07:13:12.540Z</time>
      </trkpt>
      <trkpt lat="45.81174" lon="6.75141">
        <ele>1718</ele>
        <time>2026-08-14T07:13:13.540Z</time>
      </trkpt>
      <trkpt lat="45.81173" lon="6.75141">
        <ele>1718</ele>
        <time>2026-08-14T07:13:14.540Z</time>
      </trkpt>
      <trkpt lat="45.81172" lon="6.75142">
        <ele>1719</ele>
        <time>2026-08-14T07:13:15.540Z</time>
      </trkpt>
      <trkpt lat="45.81171" lon="6.75142">
        <ele>1719</ele>
        <time>2026-08-14T07:13:16.540Z</time>
      </trkpt>
      <trkpt lat="45.8117" lon="6.75141">
        <ele>1719</ele>
        <time>2026-08-14T07:13:17.540Z</time>
      </trkpt>
      <trkpt lat="45.81169" lon="6.75141">
        <ele>1720</ele>
        <time>2026-08-14T07:13:18.540Z</time>
      </trkpt>
      <trkpt lat="45.81168" lon="6.7514">
        <ele>1720</ele>
        <time>2026-08-14T07:13:19.540Z</time>
      </trkpt>
      <trkpt lat="45.81166" lon="6.7514">
        <ele>1720</ele>
        <time>2026-08-14T07:13:20.540Z</time>
      </trkpt>
      <trkpt lat="45.81165" lon="6.7514">
        <ele>1721</ele>
        <time>2026-08-14T07:13:21.540Z</time>
      </trkpt>
      <trkpt lat="45.81164" lon="6.7514">
        <ele>1721</ele>
        <time>2026-08-14T07:13:22.540Z</time>
      </trkpt>
      <trkpt lat="45.81163" lon="6.7514">
        <ele>1721</ele>
        <time>2026-08-14T07:13:23.540Z</time>
      </trkpt>
      <trkpt lat="45.81163" lon="6.75141">
        <ele>1721</ele>
        <time>2026-08-14T07:13:24.540Z</time>
      </trkpt>
      <trkpt lat="45.81163" lon="6.75142">
        <ele>1721</ele>
        <time>2026-08-14T07:13:25.540Z</time>
      </trkpt>
      <trkpt lat="45.81163" lon="6.75143">
        <ele>1721</ele>
        <time>2026-08-14T07:13:26.540Z</time>
      </trkpt>
      <trkpt lat="45.81163" lon="6.75145">
        <ele>1721</ele>
        <time>2026-08-14T07:13:27.540Z</time>
      </trkpt>
      <trkpt lat="45.81163" lon="6.75146">
        <ele>1722</ele>
        <time>2026-08-14T07:13:28.540Z</time>
      </trkpt>
      <trkpt lat="45.81163" lon="6.75148">
        <ele>1722</ele>
        <time>2026-08-14T07:13:29.540Z</time>
      </trkpt>
      <trkpt lat="45.81163" lon="6.75149">
        <ele>1722</ele>
        <time>2026-08-14T07:13:30.540Z</time>
      </trkpt>
      <trkpt lat="45.81163" lon="6.75151">
        <ele>1722</ele>
        <time>2026-08-14T07:13:31.540Z</time>
      </trkpt>
      <trkpt lat="45.81163" lon="6.75152">
        <ele>1722</ele>
        <time>2026-08-14T07:13:32.540Z</time>
      </trkpt>
      <trkpt lat="45.81163" lon="6.75154">
        <ele>1722</ele>
        <time>2026-08-14T07:13:33.540Z</time>
      </trkpt>
      <trkpt lat="45.81162" lon="6.75155">
        <ele>1722</ele>
        <time>2026-08-14T07:13:34.540Z</time>
      </trkpt>
      <trkpt lat="45.81162" lon="6.75156">
        <ele>1722</ele>
        <time>2026-08-14T07:13:35.540Z</time>
      </trkpt>
      <trkpt lat="45.81161" lon="6.75155">
        <ele>1722</ele>
        <time>2026-08-14T07:13:36.540Z</time>
      </trkpt>
      <trkpt lat="45.8116" lon="6.75155">
        <ele>1723</ele>
        <time>2026-08-14T07:13:37.540Z</time>
      </trkpt>
      <trkpt lat="45.81159" lon="6.75155">
        <ele>1723</ele>
        <time>2026-08-14T07:13:38.540Z</time>
      </trkpt>
      <trkpt lat="45.81159" lon="6.75155">
        <ele>1724</ele>
        <time>2026-08-14T07:13:39.540Z</time>
      </trkpt>
      <trkpt lat="45.81159" lon="6.75156">
        <ele>1724</ele>
        <time>2026-08-14T07:13:40.540Z</time>
      </trkpt>
      <trkpt lat="45.81159" lon="6.75157">
        <ele>1724</ele>
        <time>2026-08-14T07:13:41.540Z</time>
      </trkpt>
      <trkpt lat="45.81159" lon="6.75158">
        <ele>1725</ele>
        <time>2026-08-14T07:13:42.540Z</time>
      </trkpt>
      <trkpt lat="45.81159" lon="6.7516">
        <ele>1725</ele>
        <time>2026-08-14T07:13:43.540Z</time>
      </trkpt>
      <trkpt lat="45.81159" lon="6.75161">
        <ele>1725</ele>
        <time>2026-08-14T07:13:44.540Z</time>
      </trkpt>
      <trkpt lat="45.81158" lon="6.75162">
        <ele>1726</ele>
        <time>2026-08-14T07:13:45.540Z</time>
      </trkpt>
      <trkpt lat="45.81157" lon="6.75162">
        <ele>1726</ele>
        <time>2026-08-14T07:13:46.540Z</time>
      </trkpt>
      <trkpt lat="45.81157" lon="6.75161">
        <ele>1726</ele>
        <time>2026-08-14T07:13:47.540Z</time>
      </trkpt>
      <trkpt lat="45.81156" lon="6.75161">
        <ele>1726</ele>
        <time>2026-08-14T07:13:48.540Z</time>
      </trkpt>
      <trkpt lat="45.81155" lon="6.75161">
        <ele>1726</ele>
        <time>2026-08-14T07:13:49.540Z</time>
      </trkpt>
      <trkpt lat="45.81154" lon="6.7516">
        <ele>1726</ele>
        <time>2026-08-14T07:13:50.540Z</time>
      </trkpt>
      <trkpt lat="45.81152" lon="6.75159">
        <ele>1726</ele>
        <time>2026-08-14T07:13:51.540Z</time>
      </trkpt>
      <trkpt lat="45.81151" lon="6.75158">
        <ele>1727</ele>
        <time>2026-08-14T07:13:52.540Z</time>
      </trkpt>
      <trkpt lat="45.8115" lon="6.75157">
        <ele>1727</ele>
        <time>2026-08-14T07:13:53.540Z</time>
      </trkpt>
      <trkpt lat="45.81149" lon="6.75156">
        <ele>1727</ele>
        <time>2026-08-14T07:13:54.540Z</time>
      </trkpt>
      <trkpt lat="45.81149" lon="6.75155">
        <ele>1728</ele>
        <time>2026-08-14T07:13:55.540Z</time>
      </trkpt>
      <trkpt lat="45.81148" lon="6.75154">
        <ele>1728</ele>
        <time>2026-08-14T07:13:56.540Z</time>
      </trkpt>
      <trkpt lat="45.81147" lon="6.75154">
        <ele>1728</ele>
        <time>2026-08-14T07:13:57.540Z</time>
      </trkpt>
      <trkpt lat="45.81146" lon="6.75154">
        <ele>1728</ele>
        <time>2026-08-14T07:13:58.540Z</time>
      </trkpt>
      <trkpt lat="45.81145" lon="6.75154">
        <ele>1728</ele>
        <time>2026-08-14T07:13:59.540Z</time>
      </trkpt>
      <trkpt lat="45.81144" lon="6.75153">
        <ele>1728</ele>
        <time>2026-08-14T07:14:00.540Z</time>
      </trkpt>
      <trkpt lat="45.81144" lon="6.75152">
        <ele>1729</ele>
        <time>2026-08-14T07:14:01.540Z</time>
      </trkpt>
      <trkpt lat="45.81143" lon="6.75152">
        <ele>1729</ele>
        <time>2026-08-14T07:14:02.540Z</time>
      </trkpt>
      <trkpt lat="45.81143" lon="6.75153">
        <ele>1729</ele>
        <time>2026-08-14T07:14:03.540Z</time>
      </trkpt>
      <trkpt lat="45.81143" lon="6.75153">
        <ele>1729</ele>
        <time>2026-08-14T07:14:04.540Z</time>
      </trkpt>
      <trkpt lat="45.81142" lon="6.75153">
        <ele>1729</ele>
        <time>2026-08-14T07:14:05.540Z</time>
      </trkpt>
      <trkpt lat="45.81142" lon="6.75154">
        <ele>1728</ele>
        <time>2026-08-14T07:14:06.540Z</time>
      </trkpt>
      <trkpt lat="45.81142" lon="6.75154">
        <ele>1729</ele>
        <time>2026-08-14T07:14:07.540Z</time>
      </trkpt>
      <trkpt lat="45.81141" lon="6.75154">
        <ele>1729</ele>
        <time>2026-08-14T07:14:08.540Z</time>
      </trkpt>
      <trkpt lat="45.81141" lon="6.75155">
        <ele>1729</ele>
        <time>2026-08-14T07:14:09.540Z</time>
      </trkpt>
      <trkpt lat="45.81141" lon="6.75156">
        <ele>1730</ele>
        <time>2026-08-14T07:14:10.540Z</time>
      </trkpt>
      <trkpt lat="45.81141" lon="6.75156">
        <ele>1730</ele>
        <time>2026-08-14T07:14:11.540Z</time>
      </trkpt>
      <trkpt lat="45.8114" lon="6.75157">
        <ele>1730</ele>
        <time>2026-08-14T07:14:12.540Z</time>
      </trkpt>
      <trkpt lat="45.8114" lon="6.75158">
        <ele>1731</ele>
        <time>2026-08-14T07:14:13.540Z</time>
      </trkpt>
      <trkpt lat="45.81139" lon="6.75158">
        <ele>1731</ele>
        <time>2026-08-14T07:14:14.540Z</time>
      </trkpt>
      <trkpt lat="45.8114" lon="6.75159">
        <ele>1732</ele>
        <time>2026-08-14T07:14:15.540Z</time>
      </trkpt>
      <trkpt lat="45.81139" lon="6.7516">
        <ele>1732</ele>
        <time>2026-08-14T07:14:16.540Z</time>
      </trkpt>
      <trkpt lat="45.81139" lon="6.75162">
        <ele>1733</ele>
        <time>2026-08-14T07:14:17.540Z</time>
      </trkpt>
      <trkpt lat="45.81139" lon="6.75163">
        <ele>1733</ele>
        <time>2026-08-14T07:14:18.540Z</time>
      </trkpt>
      <trkpt lat="45.81139" lon="6.75164">
        <ele>1734</ele>
        <time>2026-08-14T07:14:19.540Z</time>
      </trkpt>
      <trkpt lat="45.81138" lon="6.75165">
        <ele>1734</ele>
        <time>2026-08-14T07:14:20.540Z</time>
      </trkpt>
      <trkpt lat="45.81138" lon="6.75166">
        <ele>1734</ele>
        <time>2026-08-14T07:14:21.540Z</time>
      </trkpt>
      <trkpt lat="45.81138" lon="6.75166">
        <ele>1734</ele>
        <time>2026-08-14T07:14:22.540Z</time>
      </trkpt>
      <trkpt lat="45.81137" lon="6.75167">
        <ele>1734</ele>
        <time>2026-08-14T07:14:23.540Z</time>
      </trkpt>
      <trkpt lat="45.81137" lon="6.75168">
        <ele>1734</ele>
        <time>2026-08-14T07:14:24.540Z</time>
      </trkpt>
      <trkpt lat="45.81137" lon="6.75169">
        <ele>1735</ele>
        <time>2026-08-14T07:14:25.540Z</time>
      </trkpt>
      <trkpt lat="45.81137" lon="6.7517">
        <ele>1735</ele>
        <time>2026-08-14T07:14:26.540Z</time>
      </trkpt>
      <trkpt lat="45.81136" lon="6.75171">
        <ele>1735</ele>
        <time>2026-08-14T07:14:27.540Z</time>
      </trkpt>
      <trkpt lat="45.81136" lon="6.75172">
        <ele>1735</ele>
        <time>2026-08-14T07:14:28.540Z</time>
      </trkpt>
      <trkpt lat="45.81135" lon="6.75173">
        <ele>1736</ele>
        <time>2026-08-14T07:14:29.540Z</time>
      </trkpt>
      <trkpt lat="45.81135" lon="6.75173">
        <ele>1736</ele>
        <time>2026-08-14T07:14:30.540Z</time>
      </trkpt>
      <trkpt lat="45.81135" lon="6.75174">
        <ele>1736</ele>
        <time>2026-08-14T07:14:31.540Z</time>
      </trkpt>
      <trkpt lat="45.81134" lon="6.75175">
        <ele>1736</ele>
        <time>2026-08-14T07:14:32.540Z</time>
      </trkpt>
      <trkpt lat="45.81133" lon="6.75176">
        <ele>1737</ele>
        <time>2026-08-14T07:14:33.540Z</time>
      </trkpt>
      <trkpt lat="45.81133" lon="6.75177">
        <ele>1737</ele>
        <time>2026-08-14T07:14:34.540Z</time>
      </trkpt>
      <trkpt lat="45.81133" lon="6.75178">
        <ele>1737</ele>
        <time>2026-08-14T07:14:35.540Z</time>
      </trkpt>
      <trkpt lat="45.81132" lon="6.75178">
        <ele>1738</ele>
        <time>2026-08-14T07:14:36.540Z</time>
      </trkpt>
      <trkpt lat="45.81132" lon="6.75179">
        <ele>1738</ele>
        <time>2026-08-14T07:14:37.540Z</time>
      </trkpt>
      <trkpt lat="45.81132" lon="6.75179">
        <ele>1738</ele>
        <time>2026-08-14T07:14:38.540Z</time>
      </trkpt>
      <trkpt lat="45.81132" lon="6.7518">
        <ele>1738</ele>
        <time>2026-08-14T07:14:39.540Z</time>
      </trkpt>
      <trkpt lat="45.81131" lon="6.7518">
        <ele>1738</ele>
        <time>2026-08-14T07:14:40.540Z</time>
      </trkpt>
      <trkpt lat="45.81131" lon="6.7518">
        <ele>1737</ele>
        <time>2026-08-14T07:14:41.540Z</time>
      </trkpt>
      <trkpt lat="45.8113" lon="6.75181">
        <ele>1737</ele>
        <time>2026-08-14T07:14:42.540Z</time>
      </trkpt>
      <trkpt lat="45.8113" lon="6.75181">
        <ele>1737</ele>
        <time>2026-08-14T07:14:43.540Z</time>
      </trkpt>
      <trkpt lat="45.8113" lon="6.75182">
        <ele>1737</ele>
        <time>2026-08-14T07:14:44.540Z</time>
      </trkpt>
      <trkpt lat="45.8113" lon="6.75183">
        <ele>1737</ele>
        <time>2026-08-14T07:14:45.540Z</time>
      </trkpt>
      <trkpt lat="45.81129" lon="6.75184">
        <ele>1737</ele>
        <time>2026-08-14T07:14:46.540Z</time>
      </trkpt>
      <trkpt lat="45.81129" lon="6.75185">
        <ele>1736</ele>
        <time>2026-08-14T07:14:47.540Z</time>
      </trkpt>
      <trkpt lat="45.81129" lon="6.75186">
        <ele>1736</ele>
        <time>2026-08-14T07:14:48.540Z</time>
      </trkpt>
      <trkpt lat="45.81128" lon="6.75186">
        <ele>1736</ele>
        <time>2026-08-14T07:14:49.540Z</time>
      </trkpt>
      <trkpt lat="45.81127" lon="6.75187">
        <ele>1735</ele>
        <time>2026-08-14T07:14:50.540Z</time>
      </trkpt>
      <trkpt lat="45.81127" lon="6.75188">
        <ele>1735</ele>
        <time>2026-08-14T07:14:51.540Z</time>
      </trkpt>
      <trkpt lat="45.81127" lon="6.75188">
        <ele>1736</ele>
        <time>2026-08-14T07:14:52.540Z</time>
      </trkpt>
      <trkpt lat="45.81127" lon="6.75189">
        <ele>1736</ele>
        <time>2026-08-14T07:14:53.540Z</time>
      </trkpt>
      <trkpt lat="45.81126" lon="6.7519">
        <ele>1737</ele>
        <time>2026-08-14T07:14:54.540Z</time>
      </trkpt>
      <trkpt lat="45.81126" lon="6.75191">
        <ele>1738</ele>
        <time>2026-08-14T07:14:55.540Z</time>
      </trkpt>
      <trkpt lat="45.81126" lon="6.75192">
        <ele>1738</ele>
        <time>2026-08-14T07:14:56.540Z</time>
      </trkpt>
      <trkpt lat="45.81125" lon="6.75193">
        <ele>1739</ele>
        <time>2026-08-14T07:14:57.540Z</time>
      </trkpt>
      <trkpt lat="45.81125" lon="6.75195">
        <ele>1739</ele>
        <time>2026-08-14T07:14:58.540Z</time>
      </trkpt>
      <trkpt lat="45.81125" lon="6.75196">
        <ele>1740</ele>
        <time>2026-08-14T07:14:59.540Z</time>
      </trkpt>
      <trkpt lat="45.81124" lon="6.75196">
        <ele>1740</ele>
        <time>2026-08-14T07:15:00.540Z</time>
      </trkpt>
      <trkpt lat="45.81124" lon="6.75197">
        <ele>1741</ele>
        <time>2026-08-14T07:15:01.540Z</time>
      </trkpt>
      <trkpt lat="45.81124" lon="6.75199">
        <ele>1741</ele>
        <time>2026-08-14T07:15:02.540Z</time>
      </trkpt>
      <trkpt lat="45.81123" lon="6.752">
        <ele>1741</ele>
        <time>2026-08-14T07:15:03.540Z</time>
      </trkpt>
      <trkpt lat="45.81123" lon="6.75201">
        <ele>1742</ele>
        <time>2026-08-14T07:15:04.540Z</time>
      </trkpt>
      <trkpt lat="45.81122" lon="6.75201">
        <ele>1742</ele>
        <time>2026-08-14T07:15:05.540Z</time>
      </trkpt>
      <trkpt lat="45.81122" lon="6.75202">
        <ele>1742</ele>
        <time>2026-08-14T07:15:06.540Z</time>
      </trkpt>
      <trkpt lat="45.81121" lon="6.75203">
        <ele>1742</ele>
        <time>2026-08-14T07:15:07.540Z</time>
      </trkpt>
      <trkpt lat="45.81121" lon="6.75204">
        <ele>1742</ele>
        <time>2026-08-14T07:15:08.540Z</time>
      </trkpt>
      <trkpt lat="45.81121" lon="6.75205">
        <ele>1742</ele>
        <time>2026-08-14T07:15:09.540Z</time>
      </trkpt>
      <trkpt lat="45.81121" lon="6.75206">
        <ele>1742</ele>
        <time>2026-08-14T07:15:10.540Z</time>
      </trkpt>
      <trkpt lat="45.8112" lon="6.75207">
        <ele>1742</ele>
        <time>2026-08-14T07:15:11.540Z</time>
      </trkpt>
      <trkpt lat="45.8112" lon="6.75208">
        <ele>1742</ele>
        <time>2026-08-14T07:15:12.540Z</time>
      </trkpt>
      <trkpt lat="45.81119" lon="6.75209">
        <ele>1743</ele>
        <time>2026-08-14T07:15:13.540Z</time>
      </trkpt>
      <trkpt lat="45.81119" lon="6.7521">
        <ele>1743</ele>
        <time>2026-08-14T07:15:14.540Z</time>
      </trkpt>
      <trkpt lat="45.81119" lon="6.75212">
        <ele>1743</ele>
        <time>2026-08-14T07:15:15.540Z</time>
      </trkpt>
      <trkpt lat="45.8112" lon="6.75213">
        <ele>1743</ele>
        <time>2026-08-14T07:15:16.540Z</time>
      </trkpt>
      <trkpt lat="45.8112" lon="6.75215">
        <ele>1743</ele>
        <time>2026-08-14T07:15:17.540Z</time>
      </trkpt>
      <trkpt lat="45.8112" lon="6.75216">
        <ele>1743</ele>
        <time>2026-08-14T07:15:18.540Z</time>
      </trkpt>
      <trkpt lat="45.81119" lon="6.75217">
        <ele>1743</ele>
        <time>2026-08-14T07:15:19.540Z</time>
      </trkpt>
      <trkpt lat="45.81118" lon="6.75217">
        <ele>1743</ele>
        <time>2026-08-14T07:15:20.540Z</time>
      </trkpt>
      <trkpt lat="45.81118" lon="6.75216">
        <ele>1743</ele>
        <time>2026-08-14T07:15:21.540Z</time>
      </trkpt>
      <trkpt lat="45.81117" lon="6.75216">
        <ele>1743</ele>
        <time>2026-08-14T07:15:22.540Z</time>
      </trkpt>
      <trkpt lat="45.81116" lon="6.75217">
        <ele>1743</ele>
        <time>2026-08-14T07:15:23.540Z</time>
      </trkpt>
      <trkpt lat="45.81115" lon="6.75217">
        <ele>1743</ele>
        <time>2026-08-14T07:15:24.540Z</time>
      </trkpt>
      <trkpt lat="45.81115" lon="6.75218">
        <ele>1743</ele>
        <time>2026-08-14T07:15:25.540Z</time>
      </trkpt>
      <trkpt lat="45.81114" lon="6.75218">
        <ele>1743</ele>
        <time>2026-08-14T07:15:26.540Z</time>
      </trkpt>
      <trkpt lat="45.81114" lon="6.75219">
        <ele>1743</ele>
        <time>2026-08-14T07:15:27.540Z</time>
      </trkpt>
      <trkpt lat="45.81113" lon="6.7522">
        <ele>1743</ele>
        <time>2026-08-14T07:15:28.540Z</time>
      </trkpt>
      <trkpt lat="45.81112" lon="6.7522">
        <ele>1743</ele>
        <time>2026-08-14T07:15:29.540Z</time>
      </trkpt>
      <trkpt lat="45.81112" lon="6.75221">
        <ele>1744</ele>
        <time>2026-08-14T07:15:30.540Z</time>
      </trkpt>
      <trkpt lat="45.81111" lon="6.75221">
        <ele>1744</ele>
        <time>2026-08-14T07:15:31.540Z</time>
      </trkpt>
      <trkpt lat="45.8111" lon="6.75221">
        <ele>1745</ele>
        <time>2026-08-14T07:15:32.540Z</time>
      </trkpt>
      <trkpt lat="45.81109" lon="6.75221">
        <ele>1745</ele>
        <time>2026-08-14T07:15:33.540Z</time>
      </trkpt>
      <trkpt lat="45.81108" lon="6.75221">
        <ele>1745</ele>
        <time>2026-08-14T07:15:34.540Z</time>
      </trkpt>
      <trkpt lat="45.81107" lon="6.75221">
        <ele>1745</ele>
        <time>2026-08-14T07:15:35.540Z</time>
      </trkpt>
      <trkpt lat="45.81106" lon="6.75221">
        <ele>1745</ele>
        <time>2026-08-14T07:15:36.540Z</time>
      </trkpt>
      <trkpt lat="45.81105" lon="6.75222">
        <ele>1746</ele>
        <time>2026-08-14T07:15:37.540Z</time>
      </trkpt>
      <trkpt lat="45.81104" lon="6.75222">
        <ele>1746</ele>
        <time>2026-08-14T07:15:38.540Z</time>
      </trkpt>
      <trkpt lat="45.81103" lon="6.75222">
        <ele>1747</ele>
        <time>2026-08-14T07:15:39.540Z</time>
      </trkpt>
      <trkpt lat="45.81103" lon="6.75222">
        <ele>1747</ele>
        <time>2026-08-14T07:15:40.540Z</time>
      </trkpt>
      <trkpt lat="45.81102" lon="6.75224">
        <ele>1748</ele>
        <time>2026-08-14T07:15:41.540Z</time>
      </trkpt>
      <trkpt lat="45.81102" lon="6.75225">
        <ele>1748</ele>
        <time>2026-08-14T07:15:42.540Z</time>
      </trkpt>
      <trkpt lat="45.81102" lon="6.75226">
        <ele>1749</ele>
        <time>2026-08-14T07:15:43.540Z</time>
      </trkpt>
      <trkpt lat="45.81101" lon="6.75226">
        <ele>1749</ele>
        <time>2026-08-14T07:15:44.540Z</time>
      </trkpt>
      <trkpt lat="45.81101" lon="6.75228">
        <ele>1750</ele>
        <time>2026-08-14T07:15:45.540Z</time>
      </trkpt>
      <trkpt lat="45.81101" lon="6.75229">
        <ele>1750</ele>
        <time>2026-08-14T07:15:46.540Z</time>
      </trkpt>
      <trkpt lat="45.811" lon="6.7523">
        <ele>1750</ele>
        <time>2026-08-14T07:15:47.540Z</time>
      </trkpt>
      <trkpt lat="45.811" lon="6.7523">
        <ele>1750</ele>
        <time>2026-08-14T07:15:48.540Z</time>
      </trkpt>
      <trkpt lat="45.81099" lon="6.75231">
        <ele>1751</ele>
        <time>2026-08-14T07:15:49.540Z</time>
      </trkpt>
      <trkpt lat="45.81099" lon="6.75232">
        <ele>1751</ele>
        <time>2026-08-14T07:15:50.540Z</time>
      </trkpt>
      <trkpt lat="45.81098" lon="6.75233">
        <ele>1751</ele>
        <time>2026-08-14T07:15:51.540Z</time>
      </trkpt>
      <trkpt lat="45.81097" lon="6.75233">
        <ele>1751</ele>
        <time>2026-08-14T07:15:52.540Z</time>
      </trkpt>
      <trkpt lat="45.81097" lon="6.75233">
        <ele>1752</ele>
        <time>2026-08-14T07:15:53.540Z</time>
      </trkpt>
      <trkpt lat="45.81096" lon="6.75232">
        <ele>1752</ele>
        <time>2026-08-14T07:15:54.540Z</time>
      </trkpt>
      <trkpt lat="45.81095" lon="6.75232">
        <ele>1752</ele>
        <time>2026-08-14T07:15:55.540Z</time>
      </trkpt>
      <trkpt lat="45.81094" lon="6.75232">
        <ele>1752</ele>
        <time>2026-08-14T07:15:56.540Z</time>
      </trkpt>
      <trkpt lat="45.81093" lon="6.75232">
        <ele>1752</ele>
        <time>2026-08-14T07:15:57.540Z</time>
      </trkpt>
      <trkpt lat="45.81093" lon="6.75233">
        <ele>1752</ele>
        <time>2026-08-14T07:15:58.540Z</time>
      </trkpt>
      <trkpt lat="45.81092" lon="6.75233">
        <ele>1752</ele>
        <time>2026-08-14T07:15:59.540Z</time>
      </trkpt>
      <trkpt lat="45.81091" lon="6.75234">
        <ele>1752</ele>
        <time>2026-08-14T07:16:00.540Z</time>
      </trkpt>
      <trkpt lat="45.81091" lon="6.75234">
        <ele>1753</ele>
        <time>2026-08-14T07:16:01.540Z</time>
      </trkpt>
      <trkpt lat="45.8109" lon="6.75235">
        <ele>1753</ele>
        <time>2026-08-14T07:16:02.540Z</time>
      </trkpt>
      <trkpt lat="45.81089" lon="6.75235">
        <ele>1753</ele>
        <time>2026-08-14T07:16:03.540Z</time>
      </trkpt>
      <trkpt lat="45.81088" lon="6.75234">
        <ele>1753</ele>
        <time>2026-08-14T07:16:04.540Z</time>
      </trkpt>
      <trkpt lat="45.81087" lon="6.75234">
        <ele>1754</ele>
        <time>2026-08-14T07:16:05.540Z</time>
      </trkpt>
      <trkpt lat="45.81086" lon="6.75234">
        <ele>1754</ele>
        <time>2026-08-14T07:16:06.540Z</time>
      </trkpt>
      <trkpt lat="45.81086" lon="6.75234">
        <ele>1754</ele>
        <time>2026-08-14T07:16:07.540Z</time>
      </trkpt>
      <trkpt lat="45.81085" lon="6.75234">
        <ele>1754</ele>
        <time>2026-08-14T07:16:08.540Z</time>
      </trkpt>
      <trkpt lat="45.81085" lon="6.75234">
        <ele>1754</ele>
        <time>2026-08-14T07:16:09.540Z</time>
      </trkpt>
      <trkpt lat="45.81084" lon="6.75235">
        <ele>1754</ele>
        <time>2026-08-14T07:16:10.540Z</time>
      </trkpt>
      <trkpt lat="45.81084" lon="6.75234">
        <ele>1754</ele>
        <time>2026-08-14T07:16:11.540Z</time>
      </trkpt>
      <trkpt lat="45.81084" lon="6.75235">
        <ele>1754</ele>
        <time>2026-08-14T07:16:12.540Z</time>
      </trkpt>
      <trkpt lat="45.81083" lon="6.75236">
        <ele>1755</ele>
        <time>2026-08-14T07:16:13.540Z</time>
      </trkpt>
      <trkpt lat="45.81083" lon="6.75237">
        <ele>1755</ele>
        <time>2026-08-14T07:16:14.540Z</time>
      </trkpt>
      <trkpt lat="45.81083" lon="6.75238">
        <ele>1756</ele>
        <time>2026-08-14T07:16:15.540Z</time>
      </trkpt>
      <trkpt lat="45.81083" lon="6.7524">
        <ele>1756</ele>
        <time>2026-08-14T07:16:16.540Z</time>
      </trkpt>
      <trkpt lat="45.81083" lon="6.75241">
        <ele>1757</ele>
        <time>2026-08-14T07:16:17.540Z</time>
      </trkpt>
      <trkpt lat="45.81083" lon="6.75243">
        <ele>1757</ele>
        <time>2026-08-14T07:16:18.540Z</time>
      </trkpt>
      <trkpt lat="45.81083" lon="6.75245">
        <ele>1757</ele>
        <time>2026-08-14T07:16:19.540Z</time>
      </trkpt>
      <trkpt lat="45.81083" lon="6.75246">
        <ele>1758</ele>
        <time>2026-08-14T07:16:20.540Z</time>
      </trkpt>
      <trkpt lat="45.81082" lon="6.75248">
        <ele>1758</ele>
        <time>2026-08-14T07:16:21.540Z</time>
      </trkpt>
      <trkpt lat="45.81082" lon="6.75249">
        <ele>1758</ele>
        <time>2026-08-14T07:16:22.540Z</time>
      </trkpt>
      <trkpt lat="45.81082" lon="6.75251">
        <ele>1758</ele>
        <time>2026-08-14T07:16:23.540Z</time>
      </trkpt>
      <trkpt lat="45.81082" lon="6.75253">
        <ele>1759</ele>
        <time>2026-08-14T07:16:24.540Z</time>
      </trkpt>
      <trkpt lat="45.81082" lon="6.75254">
        <ele>1759</ele>
        <time>2026-08-14T07:16:25.540Z</time>
      </trkpt>
      <trkpt lat="45.81082" lon="6.75255">
        <ele>1759</ele>
        <time>2026-08-14T07:16:26.540Z</time>
      </trkpt>
      <trkpt lat="45.81081" lon="6.75257">
        <ele>1759</ele>
        <time>2026-08-14T07:16:27.540Z</time>
      </trkpt>
      <trkpt lat="45.81081" lon="6.75258">
        <ele>1759</ele>
        <time>2026-08-14T07:16:28.540Z</time>
      </trkpt>
      <trkpt lat="45.81081" lon="6.75259">
        <ele>1760</ele>
        <time>2026-08-14T07:16:29.540Z</time>
      </trkpt>
      <trkpt lat="45.81082" lon="6.75261">
        <ele>1760</ele>
        <time>2026-08-14T07:16:30.540Z</time>
      </trkpt>
      <trkpt lat="45.81082" lon="6.75262">
        <ele>1760</ele>
        <time>2026-08-14T07:16:31.540Z</time>
      </trkpt>
      <trkpt lat="45.81082" lon="6.75263">
        <ele>1760</ele>
        <time>2026-08-14T07:16:32.540Z</time>
      </trkpt>
      <trkpt lat="45.81083" lon="6.75264">
        <ele>1760</ele>
        <time>2026-08-14T07:16:33.540Z</time>
      </trkpt>
      <trkpt lat="45.81084" lon="6.75265">
        <ele>1761</ele>
        <time>2026-08-14T07:16:34.540Z</time>
      </trkpt>
      <trkpt lat="45.81085" lon="6.75267">
        <ele>1761</ele>
        <time>2026-08-14T07:16:35.540Z</time>
      </trkpt>
      <trkpt lat="45.81085" lon="6.75268">
        <ele>1761</ele>
        <time>2026-08-14T07:16:36.540Z</time>
      </trkpt>
      <trkpt lat="45.81086" lon="6.75269">
        <ele>1762</ele>
        <time>2026-08-14T07:16:37.540Z</time>
      </trkpt>
      <trkpt lat="45.81087" lon="6.75271">
        <ele>1762</ele>
        <time>2026-08-14T07:16:38.540Z</time>
      </trkpt>
      <trkpt lat="45.81087" lon="6.75272">
        <ele>1763</ele>
        <time>2026-08-14T07:16:39.540Z</time>
      </trkpt>
      <trkpt lat="45.81087" lon="6.75274">
        <ele>1763</ele>
        <time>2026-08-14T07:16:40.540Z</time>
      </trkpt>
      <trkpt lat="45.81087" lon="6.75275">
        <ele>1763</ele>
        <time>2026-08-14T07:16:41.540Z</time>
      </trkpt>
      <trkpt lat="45.81087" lon="6.75277">
        <ele>1763</ele>
        <time>2026-08-14T07:16:42.540Z</time>
      </trkpt>
      <trkpt lat="45.81087" lon="6.75278">
        <ele>1763</ele>
        <time>2026-08-14T07:16:43.540Z</time>
      </trkpt>
      <trkpt lat="45.81086" lon="6.75278">
        <ele>1763</ele>
        <time>2026-08-14T07:16:44.540Z</time>
      </trkpt>
      <trkpt lat="45.81085" lon="6.75278">
        <ele>1764</ele>
        <time>2026-08-14T07:16:45.540Z</time>
      </trkpt>
      <trkpt lat="45.81084" lon="6.75278">
        <ele>1764</ele>
        <time>2026-08-14T07:16:46.540Z</time>
      </trkpt>
      <trkpt lat="45.81083" lon="6.75278">
        <ele>1764</ele>
        <time>2026-08-14T07:16:47.540Z</time>
      </trkpt>
      <trkpt lat="45.81083" lon="6.75279">
        <ele>1764</ele>
        <time>2026-08-14T07:16:48.540Z</time>
      </trkpt>
      <trkpt lat="45.81082" lon="6.75279">
        <ele>1764</ele>
        <time>2026-08-14T07:16:49.540Z</time>
      </trkpt>
      <trkpt lat="45.81081" lon="6.75278">
        <ele>1764</ele>
        <time>2026-08-14T07:16:50.540Z</time>
      </trkpt>
      <trkpt lat="45.8108" lon="6.75278">
        <ele>1765</ele>
        <time>2026-08-14T07:16:51.540Z</time>
      </trkpt>
      <trkpt lat="45.81079" lon="6.75278">
        <ele>1765</ele>
        <time>2026-08-14T07:16:52.540Z</time>
      </trkpt>
      <trkpt lat="45.81078" lon="6.75277">
        <ele>1765</ele>
        <time>2026-08-14T07:16:53.540Z</time>
      </trkpt>
      <trkpt lat="45.81077" lon="6.75276">
        <ele>1765</ele>
        <time>2026-08-14T07:16:54.540Z</time>
      </trkpt>
      <trkpt lat="45.81076" lon="6.75276">
        <ele>1765</ele>
        <time>2026-08-14T07:16:55.540Z</time>
      </trkpt>
      <trkpt lat="45.81075" lon="6.75275">
        <ele>1764</ele>
        <time>2026-08-14T07:16:56.540Z</time>
      </trkpt>
      <trkpt lat="45.81074" lon="6.75274">
        <ele>1764</ele>
        <time>2026-08-14T07:16:57.540Z</time>
      </trkpt>
      <trkpt lat="45.81073" lon="6.75274">
        <ele>1764</ele>
        <time>2026-08-14T07:16:58.540Z</time>
      </trkpt>
      <trkpt lat="45.81071" lon="6.75273">
        <ele>1764</ele>
        <time>2026-08-14T07:16:59.540Z</time>
      </trkpt>
      <trkpt lat="45.8107" lon="6.75273">
        <ele>1764</ele>
        <time>2026-08-14T07:17:00.540Z</time>
      </trkpt>
      <trkpt lat="45.81069" lon="6.75272">
        <ele>1764</ele>
        <time>2026-08-14T07:17:01.540Z</time>
      </trkpt>
      <trkpt lat="45.81068" lon="6.75271">
        <ele>1764</ele>
        <time>2026-08-14T07:17:02.540Z</time>
      </trkpt>
      <trkpt lat="45.81067" lon="6.75271">
        <ele>1765</ele>
        <time>2026-08-14T07:17:03.540Z</time>
      </trkpt>
      <trkpt lat="45.81066" lon="6.7527">
        <ele>1765</ele>
        <time>2026-08-14T07:17:04.540Z</time>
      </trkpt>
      <trkpt lat="45.81066" lon="6.75269">
        <ele>1765</ele>
        <time>2026-08-14T07:17:05.540Z</time>
      </trkpt>
      <trkpt lat="45.81065" lon="6.75268">
        <ele>1765</ele>
        <time>2026-08-14T07:17:06.540Z</time>
      </trkpt>
      <trkpt lat="45.81065" lon="6.75267">
        <ele>1766</ele>
        <time>2026-08-14T07:17:07.540Z</time>
      </trkpt>
      <trkpt lat="45.81064" lon="6.75267">
        <ele>1766</ele>
        <time>2026-08-14T07:17:08.540Z</time>
      </trkpt>
      <trkpt lat="45.81064" lon="6.75266">
        <ele>1766</ele>
        <time>2026-08-14T07:17:09.540Z</time>
      </trkpt>
      <trkpt lat="45.81064" lon="6.75266">
        <ele>1766</ele>
        <time>2026-08-14T07:17:10.540Z</time>
      </trkpt>
      <trkpt lat="45.81064" lon="6.75267">
        <ele>1766</ele>
        <time>2026-08-14T07:17:11.540Z</time>
      </trkpt>
      <trkpt lat="45.81064" lon="6.75268">
        <ele>1767</ele>
        <time>2026-08-14T07:17:12.540Z</time>
      </trkpt>
      <trkpt lat="45.81064" lon="6.7527">
        <ele>1767</ele>
        <time>2026-08-14T07:17:13.540Z</time>
      </trkpt>
      <trkpt lat="45.81064" lon="6.75272">
        <ele>1767</ele>
        <time>2026-08-14T07:17:14.540Z</time>
      </trkpt>
      <trkpt lat="45.81064" lon="6.75273">
        <ele>1767</ele>
        <time>2026-08-14T07:17:15.540Z</time>
      </trkpt>
      <trkpt lat="45.81064" lon="6.75274">
        <ele>1768</ele>
        <time>2026-08-14T07:17:16.540Z</time>
      </trkpt>
      <trkpt lat="45.81064" lon="6.75276">
        <ele>1768</ele>
        <time>2026-08-14T07:17:17.540Z</time>
      </trkpt>
      <trkpt lat="45.81064" lon="6.75277">
        <ele>1769</ele>
        <time>2026-08-14T07:17:18.540Z</time>
      </trkpt>
      <trkpt lat="45.81064" lon="6.75278">
        <ele>1769</ele>
        <time>2026-08-14T07:17:19.540Z</time>
      </trkpt>
      <trkpt lat="45.81064" lon="6.7528">
        <ele>1769</ele>
        <time>2026-08-14T07:17:20.540Z</time>
      </trkpt>
      <trkpt lat="45.81064" lon="6.75282">
        <ele>1770</ele>
        <time>2026-08-14T07:17:21.540Z</time>
      </trkpt>
      <trkpt lat="45.81064" lon="6.75283">
        <ele>1770</ele>
        <time>2026-08-14T07:17:22.540Z</time>
      </trkpt>
      <trkpt lat="45.81063" lon="6.75284">
        <ele>1771</ele>
        <time>2026-08-14T07:17:23.540Z</time>
      </trkpt>
      <trkpt lat="45.81063" lon="6.75286">
        <ele>1771</ele>
        <time>2026-08-14T07:17:24.540Z</time>
      </trkpt>
      <trkpt lat="45.81063" lon="6.75287">
        <ele>1771</ele>
        <time>2026-08-14T07:17:25.540Z</time>
      </trkpt>
      <trkpt lat="45.81063" lon="6.75289">
        <ele>1771</ele>
        <time>2026-08-14T07:17:26.540Z</time>
      </trkpt>
      <trkpt lat="45.81064" lon="6.7529">
        <ele>1771</ele>
        <time>2026-08-14T07:17:27.540Z</time>
      </trkpt>
      <trkpt lat="45.81064" lon="6.75292">
        <ele>1771</ele>
        <time>2026-08-14T07:17:28.540Z</time>
      </trkpt>
      <trkpt lat="45.81064" lon="6.75293">
        <ele>1771</ele>
        <time>2026-08-14T07:17:29.540Z</time>
      </trkpt>
      <trkpt lat="45.81064" lon="6.75295">
        <ele>1771</ele>
        <time>2026-08-14T07:17:30.540Z</time>
      </trkpt>
      <trkpt lat="45.81064" lon="6.75297">
        <ele>1772</ele>
        <time>2026-08-14T07:17:31.540Z</time>
      </trkpt>
      <trkpt lat="45.81065" lon="6.75298">
        <ele>1772</ele>
        <time>2026-08-14T07:17:32.540Z</time>
      </trkpt>
      <trkpt lat="45.81065" lon="6.753">
        <ele>1772</ele>
        <time>2026-08-14T07:17:33.540Z</time>
      </trkpt>
      <trkpt lat="45.81066" lon="6.75302">
        <ele>1772</ele>
        <time>2026-08-14T07:17:34.540Z</time>
      </trkpt>
      <trkpt lat="45.81065" lon="6.75303">
        <ele>1773</ele>
        <time>2026-08-14T07:17:35.540Z</time>
      </trkpt>
      <trkpt lat="45.81065" lon="6.75304">
        <ele>1773</ele>
        <time>2026-08-14T07:17:36.540Z</time>
      </trkpt>
      <trkpt lat="45.81064" lon="6.75305">
        <ele>1773</ele>
        <time>2026-08-14T07:17:37.540Z</time>
      </trkpt>
      <trkpt lat="45.81063" lon="6.75304">
        <ele>1773</ele>
        <time>2026-08-14T07:17:38.540Z</time>
      </trkpt>
      <trkpt lat="45.81062" lon="6.75305">
        <ele>1773</ele>
        <time>2026-08-14T07:17:39.540Z</time>
      </trkpt>
      <trkpt lat="45.8106" lon="6.75305">
        <ele>1774</ele>
        <time>2026-08-14T07:17:40.540Z</time>
      </trkpt>
      <trkpt lat="45.81059" lon="6.75305">
        <ele>1774</ele>
        <time>2026-08-14T07:17:41.540Z</time>
      </trkpt>
      <trkpt lat="45.81058" lon="6.75305">
        <ele>1774</ele>
        <time>2026-08-14T07:17:42.540Z</time>
      </trkpt>
      <trkpt lat="45.81057" lon="6.75304">
        <ele>1774</ele>
        <time>2026-08-14T07:17:43.540Z</time>
      </trkpt>
      <trkpt lat="45.81056" lon="6.75304">
        <ele>1775</ele>
        <time>2026-08-14T07:17:44.540Z</time>
      </trkpt>
      <trkpt lat="45.81054" lon="6.75303">
        <ele>1775</ele>
        <time>2026-08-14T07:17:45.540Z</time>
      </trkpt>
      <trkpt lat="45.81053" lon="6.75302">
        <ele>1775</ele>
        <time>2026-08-14T07:17:46.540Z</time>
      </trkpt>
      <trkpt lat="45.81052" lon="6.75301">
        <ele>1775</ele>
        <time>2026-08-14T07:17:47.540Z</time>
      </trkpt>
      <trkpt lat="45.81051" lon="6.75301">
        <ele>1775</ele>
        <time>2026-08-14T07:17:48.540Z</time>
      </trkpt>
      <trkpt lat="45.8105" lon="6.75301">
        <ele>1775</ele>
        <time>2026-08-14T07:17:49.540Z</time>
      </trkpt>
      <trkpt lat="45.8105" lon="6.75301">
        <ele>1775</ele>
        <time>2026-08-14T07:17:50.540Z</time>
      </trkpt>
      <trkpt lat="45.81049" lon="6.75301">
        <ele>1776</ele>
        <time>2026-08-14T07:17:51.540Z</time>
      </trkpt>
      <trkpt lat="45.81048" lon="6.753">
        <ele>1776</ele>
        <time>2026-08-14T07:17:52.540Z</time>
      </trkpt>
      <trkpt lat="45.81048" lon="6.753">
        <ele>1776</ele>
        <time>2026-08-14T07:17:53.540Z</time>
      </trkpt>
      <trkpt lat="45.81047" lon="6.753">
        <ele>1777</ele>
        <time>2026-08-14T07:17:54.540Z</time>
      </trkpt>
      <trkpt lat="45.81046" lon="6.753">
        <ele>1777</ele>
        <time>2026-08-14T07:17:55.540Z</time>
      </trkpt>
      <trkpt lat="45.81045" lon="6.75301">
        <ele>1777</ele>
        <time>2026-08-14T07:17:56.540Z</time>
      </trkpt>
      <trkpt lat="45.81045" lon="6.75302">
        <ele>1777</ele>
        <time>2026-08-14T07:17:57.540Z</time>
      </trkpt>
      <trkpt lat="45.81045" lon="6.75303">
        <ele>1777</ele>
        <time>2026-08-14T07:17:58.540Z</time>
      </trkpt>
      <trkpt lat="45.81046" lon="6.75304">
        <ele>1777</ele>
        <time>2026-08-14T07:17:59.540Z</time>
      </trkpt>
      <trkpt lat="45.81047" lon="6.75306">
        <ele>1777</ele>
        <time>2026-08-14T07:18:00.540Z</time>
      </trkpt>
      <trkpt lat="45.81048" lon="6.75308">
        <ele>1777</ele>
        <time>2026-08-14T07:18:01.540Z</time>
      </trkpt>
      <trkpt lat="45.81048" lon="6.75309">
        <ele>1778</ele>
        <time>2026-08-14T07:18:02.540Z</time>
      </trkpt>
      <trkpt lat="45.81048" lon="6.75311">
        <ele>1778</ele>
        <time>2026-08-14T07:18:03.540Z</time>
      </trkpt>
      <trkpt lat="45.81049" lon="6.75312">
        <ele>1778</ele>
        <time>2026-08-14T07:18:04.540Z</time>
      </trkpt>
      <trkpt lat="45.81049" lon="6.75313">
        <ele>1779</ele>
        <time>2026-08-14T07:18:05.540Z</time>
      </trkpt>
      <trkpt lat="45.81049" lon="6.75314">
        <ele>1779</ele>
        <time>2026-08-14T07:18:06.540Z</time>
      </trkpt>
      <trkpt lat="45.8105" lon="6.75315">
        <ele>1779</ele>
        <time>2026-08-14T07:18:07.540Z</time>
      </trkpt>
      <trkpt lat="45.8105" lon="6.75317">
        <ele>1779</ele>
        <time>2026-08-14T07:18:08.540Z</time>
      </trkpt>
      <trkpt lat="45.8105" lon="6.75319">
        <ele>1779</ele>
        <time>2026-08-14T07:18:09.540Z</time>
      </trkpt>
      <trkpt lat="45.81051" lon="6.7532">
        <ele>1779</ele>
        <time>2026-08-14T07:18:10.540Z</time>
      </trkpt>
      <trkpt lat="45.8105" lon="6.75321">
        <ele>1780</ele>
        <time>2026-08-14T07:18:11.540Z</time>
      </trkpt>
      <trkpt lat="45.8105" lon="6.75322">
        <ele>1780</ele>
        <time>2026-08-14T07:18:12.540Z</time>
      </trkpt>
      <trkpt lat="45.81049" lon="6.75323">
        <ele>1780</ele>
        <time>2026-08-14T07:18:13.540Z</time>
      </trkpt>
      <trkpt lat="45.81047" lon="6.75324">
        <ele>1780</ele>
        <time>2026-08-14T07:18:14.540Z</time>
      </trkpt>
      <trkpt lat="45.81045" lon="6.75324">
        <ele>1780</ele>
        <time>2026-08-14T07:18:15.540Z</time>
      </trkpt>
      <trkpt lat="45.81044" lon="6.75325">
        <ele>1780</ele>
        <time>2026-08-14T07:18:16.540Z</time>
      </trkpt>
      <trkpt lat="45.81043" lon="6.75325">
        <ele>1781</ele>
        <time>2026-08-14T07:18:17.540Z</time>
      </trkpt>
      <trkpt lat="45.81042" lon="6.75324">
        <ele>1781</ele>
        <time>2026-08-14T07:18:18.540Z</time>
      </trkpt>
      <trkpt lat="45.81041" lon="6.75323">
        <ele>1782</ele>
        <time>2026-08-14T07:18:19.540Z</time>
      </trkpt>
      <trkpt lat="45.8104" lon="6.75323">
        <ele>1782</ele>
        <time>2026-08-14T07:18:20.540Z</time>
      </trkpt>
      <trkpt lat="45.8104" lon="6.75322">
        <ele>1783</ele>
        <time>2026-08-14T07:18:21.540Z</time>
      </trkpt>
      <trkpt lat="45.81039" lon="6.75322">
        <ele>1783</ele>
        <time>2026-08-14T07:18:22.540Z</time>
      </trkpt>
      <trkpt lat="45.81038" lon="6.75321">
        <ele>1783</ele>
        <time>2026-08-14T07:18:23.540Z</time>
      </trkpt>
      <trkpt lat="45.81037" lon="6.7532">
        <ele>1783</ele>
        <time>2026-08-14T07:18:24.540Z</time>
      </trkpt>
      <trkpt lat="45.81036" lon="6.7532">
        <ele>1784</ele>
        <time>2026-08-14T07:18:25.540Z</time>
      </trkpt>
      <trkpt lat="45.81035" lon="6.7532">
        <ele>1784</ele>
        <time>2026-08-14T07:18:26.540Z</time>
      </trkpt>
      <trkpt lat="45.81034" lon="6.75319">
        <ele>1784</ele>
        <time>2026-08-14T07:18:27.540Z</time>
      </trkpt>
      <trkpt lat="45.81033" lon="6.75319">
        <ele>1784</ele>
        <time>2026-08-14T07:18:28.540Z</time>
      </trkpt>
      <trkpt lat="45.81033" lon="6.75318">
        <ele>1784</ele>
        <time>2026-08-14T07:18:29.540Z</time>
      </trkpt>
      <trkpt lat="45.81032" lon="6.75317">
        <ele>1784</ele>
        <time>2026-08-14T07:18:30.540Z</time>
      </trkpt>
      <trkpt lat="45.81032" lon="6.75316">
        <ele>1784</ele>
        <time>2026-08-14T07:18:31.540Z</time>
      </trkpt>
      <trkpt lat="45.81032" lon="6.75315">
        <ele>1784</ele>
        <time>2026-08-14T07:18:32.540Z</time>
      </trkpt>
      <trkpt lat="45.81032" lon="6.75314">
        <ele>1784</ele>
        <time>2026-08-14T07:18:33.540Z</time>
      </trkpt>
      <trkpt lat="45.81031" lon="6.75313">
        <ele>1784</ele>
        <time>2026-08-14T07:18:34.540Z</time>
      </trkpt>
      <trkpt lat="45.81031" lon="6.75312">
        <ele>1784</ele>
        <time>2026-08-14T07:18:35.540Z</time>
      </trkpt>
      <trkpt lat="45.81031" lon="6.75312">
        <ele>1785</ele>
        <time>2026-08-14T07:18:36.540Z</time>
      </trkpt>
      <trkpt lat="45.81031" lon="6.75311">
        <ele>1785</ele>
        <time>2026-08-14T07:18:37.540Z</time>
      </trkpt>
      <trkpt lat="45.81031" lon="6.75311">
        <ele>1785</ele>
        <time>2026-08-14T07:18:38.540Z</time>
      </trkpt>
      <trkpt lat="45.81031" lon="6.75311">
        <ele>1786</ele>
        <time>2026-08-14T07:18:39.540Z</time>
      </trkpt>
      <trkpt lat="45.81031" lon="6.75311">
        <ele>1786</ele>
        <time>2026-08-14T07:18:40.540Z</time>
      </trkpt>
      <trkpt lat="45.8103" lon="6.75312">
        <ele>1787</ele>
        <time>2026-08-14T07:18:41.540Z</time>
      </trkpt>
      <trkpt lat="45.81029" lon="6.75312">
        <ele>1787</ele>
        <time>2026-08-14T07:18:42.540Z</time>
      </trkpt>
      <trkpt lat="45.81028" lon="6.75312">
        <ele>1788</ele>
        <time>2026-08-14T07:18:43.540Z</time>
      </trkpt>
      <trkpt lat="45.81026" lon="6.75313">
        <ele>1788</ele>
        <time>2026-08-14T07:18:44.540Z</time>
      </trkpt>
      <trkpt lat="45.81024" lon="6.75313">
        <ele>1788</ele>
        <time>2026-08-14T07:18:45.540Z</time>
      </trkpt>
      <trkpt lat="45.81023" lon="6.75313">
        <ele>1788</ele>
        <time>2026-08-14T07:18:46.540Z</time>
      </trkpt>
      <trkpt lat="45.81022" lon="6.75313">
        <ele>1789</ele>
        <time>2026-08-14T07:18:47.540Z</time>
      </trkpt>
      <trkpt lat="45.81021" lon="6.75312">
        <ele>1789</ele>
        <time>2026-08-14T07:18:48.540Z</time>
      </trkpt>
      <trkpt lat="45.81021" lon="6.75311">
        <ele>1789</ele>
        <time>2026-08-14T07:18:49.540Z</time>
      </trkpt>
      <trkpt lat="45.81021" lon="6.7531">
        <ele>1789</ele>
        <time>2026-08-14T07:18:50.540Z</time>
      </trkpt>
      <trkpt lat="45.81021" lon="6.75309">
        <ele>1789</ele>
        <time>2026-08-14T07:18:51.540Z</time>
      </trkpt>
      <trkpt lat="45.81021" lon="6.75308">
        <ele>1789</ele>
        <time>2026-08-14T07:18:52.540Z</time>
      </trkpt>
      <trkpt lat="45.8102" lon="6.75308">
        <ele>1789</ele>
        <time>2026-08-14T07:18:53.540Z</time>
      </trkpt>
      <trkpt lat="45.8102" lon="6.75307">
        <ele>1790</ele>
        <time>2026-08-14T07:18:54.540Z</time>
      </trkpt>
      <trkpt lat="45.8102" lon="6.75307">
        <ele>1790</ele>
        <time>2026-08-14T07:18:55.540Z</time>
      </trkpt>
      <trkpt lat="45.8102" lon="6.75308">
        <ele>1791</ele>
        <time>2026-08-14T07:18:56.540Z</time>
      </trkpt>
      <trkpt lat="45.8102" lon="6.75308">
        <ele>1791</ele>
        <time>2026-08-14T07:18:57.540Z</time>
      </trkpt>
      <trkpt lat="45.81019" lon="6.75309">
        <ele>1792</ele>
        <time>2026-08-14T07:18:58.540Z</time>
      </trkpt>
      <trkpt lat="45.81018" lon="6.75309">
        <ele>1792</ele>
        <time>2026-08-14T07:18:59.540Z</time>
      </trkpt>
      <trkpt lat="45.81017" lon="6.75309">
        <ele>1792</ele>
        <time>2026-08-14T07:19:00.540Z</time>
      </trkpt>
      <trkpt lat="45.81015" lon="6.75308">
        <ele>1793</ele>
        <time>2026-08-14T07:19:01.540Z</time>
      </trkpt>
      <trkpt lat="45.81014" lon="6.75308">
        <ele>1793</ele>
        <time>2026-08-14T07:19:02.540Z</time>
      </trkpt>
      <trkpt lat="45.81012" lon="6.75308">
        <ele>1793</ele>
        <time>2026-08-14T07:19:03.540Z</time>
      </trkpt>
      <trkpt lat="45.8101" lon="6.75308">
        <ele>1793</ele>
        <time>2026-08-14T07:19:04.540Z</time>
      </trkpt>
      <trkpt lat="45.8101" lon="6.75307">
        <ele>1793</ele>
        <time>2026-08-14T07:19:05.540Z</time>
      </trkpt>
      <trkpt lat="45.81009" lon="6.75305">
        <ele>1792</ele>
        <time>2026-08-14T07:19:06.540Z</time>
      </trkpt>
      <trkpt lat="45.81008" lon="6.75304">
        <ele>1792</ele>
        <time>2026-08-14T07:19:07.540Z</time>
      </trkpt>
      <trkpt lat="45.81008" lon="6.75304">
        <ele>1792</ele>
        <time>2026-08-14T07:19:08.540Z</time>
      </trkpt>
      <trkpt lat="45.81007" lon="6.75303">
        <ele>1792</ele>
        <time>2026-08-14T07:19:09.540Z</time>
      </trkpt>
      <trkpt lat="45.81006" lon="6.75302">
        <ele>1792</ele>
        <time>2026-08-14T07:19:10.540Z</time>
      </trkpt>
      <trkpt lat="45.81005" lon="6.75301">
        <ele>1791</ele>
        <time>2026-08-14T07:19:11.540Z</time>
      </trkpt>
      <trkpt lat="45.81005" lon="6.75299">
        <ele>1791</ele>
        <time>2026-08-14T07:19:12.540Z</time>
      </trkpt>
      <trkpt lat="45.81005" lon="6.75299">
        <ele>1791</ele>
        <time>2026-08-14T07:19:13.540Z</time>
      </trkpt>
      <trkpt lat="45.81005" lon="6.75298">
        <ele>1791</ele>
        <time>2026-08-14T07:19:14.540Z</time>
      </trkpt>
      <trkpt lat="45.81004" lon="6.75297">
        <ele>1792</ele>
        <time>2026-08-14T07:19:15.540Z</time>
      </trkpt>
      <trkpt lat="45.81003" lon="6.75296">
        <ele>1792</ele>
        <time>2026-08-14T07:19:16.540Z</time>
      </trkpt>
      <trkpt lat="45.81003" lon="6.75295">
        <ele>1792</ele>
        <time>2026-08-14T07:19:17.540Z</time>
      </trkpt>
      <trkpt lat="45.81002" lon="6.75294">
        <ele>1792</ele>
        <time>2026-08-14T07:19:18.540Z</time>
      </trkpt>
      <trkpt lat="45.81001" lon="6.75293">
        <ele>1792</ele>
        <time>2026-08-14T07:19:19.540Z</time>
      </trkpt>
      <trkpt lat="45.81001" lon="6.75292">
        <ele>1792</ele>
        <time>2026-08-14T07:19:20.540Z</time>
      </trkpt>
      <trkpt lat="45.81" lon="6.7529">
        <ele>1792</ele>
        <time>2026-08-14T07:19:21.540Z</time>
      </trkpt>
      <trkpt lat="45.81" lon="6.75289">
        <ele>1792</ele>
        <time>2026-08-14T07:19:22.540Z</time>
      </trkpt>
      <trkpt lat="45.80999" lon="6.75287">
        <ele>1792</ele>
        <time>2026-08-14T07:19:23.540Z</time>
      </trkpt>
      <trkpt lat="45.80999" lon="6.75286">
        <ele>1792</ele>
        <time>2026-08-14T07:19:24.540Z</time>
      </trkpt>
      <trkpt lat="45.80998" lon="6.75285">
        <ele>1792</ele>
        <time>2026-08-14T07:19:25.540Z</time>
      </trkpt>
      <trkpt lat="45.80998" lon="6.75283">
        <ele>1792</ele>
        <time>2026-08-14T07:19:26.540Z</time>
      </trkpt>
      <trkpt lat="45.80998" lon="6.75282">
        <ele>1793</ele>
        <time>2026-08-14T07:19:27.540Z</time>
      </trkpt>
      <trkpt lat="45.80997" lon="6.7528">
        <ele>1793</ele>
        <time>2026-08-14T07:19:28.540Z</time>
      </trkpt>
      <trkpt lat="45.80997" lon="6.75279">
        <ele>1793</ele>
        <time>2026-08-14T07:19:29.540Z</time>
      </trkpt>
      <trkpt lat="45.80996" lon="6.75277">
        <ele>1793</ele>
        <time>2026-08-14T07:19:30.540Z</time>
      </trkpt>
      <trkpt lat="45.80996" lon="6.75276">
        <ele>1793</ele>
        <time>2026-08-14T07:19:31.540Z</time>
      </trkpt>
      <trkpt lat="45.80996" lon="6.75274">
        <ele>1794</ele>
        <time>2026-08-14T07:19:32.540Z</time>
      </trkpt>
      <trkpt lat="45.80995" lon="6.75273">
        <ele>1795</ele>
        <time>2026-08-14T07:19:33.540Z</time>
      </trkpt>
      <trkpt lat="45.80995" lon="6.75272">
        <ele>1795</ele>
        <time>2026-08-14T07:19:34.540Z</time>
      </trkpt>
      <trkpt lat="45.80995" lon="6.75272">
        <ele>1796</ele>
        <time>2026-08-14T07:19:35.540Z</time>
      </trkpt>
      <trkpt lat="45.80995" lon="6.75271">
        <ele>1796</ele>
        <time>2026-08-14T07:19:36.540Z</time>
      </trkpt>
      <trkpt lat="45.80994" lon="6.75271">
        <ele>1797</ele>
        <time>2026-08-14T07:19:37.540Z</time>
      </trkpt>
      <trkpt lat="45.80994" lon="6.75271">
        <ele>1798</ele>
        <time>2026-08-14T07:19:38.540Z</time>
      </trkpt>
      <trkpt lat="45.80993" lon="6.75272">
        <ele>1798</ele>
        <time>2026-08-14T07:19:39.540Z</time>
      </trkpt>
      <trkpt lat="45.80993" lon="6.75273">
        <ele>1799</ele>
        <time>2026-08-14T07:19:40.540Z</time>
      </trkpt>
      <trkpt lat="45.80992" lon="6.75274">
        <ele>1799</ele>
        <time>2026-08-14T07:19:41.540Z</time>
      </trkpt>
      <trkpt lat="45.80991" lon="6.75275">
        <ele>1799</ele>
        <time>2026-08-14T07:19:42.540Z</time>
      </trkpt>
      <trkpt lat="45.80991" lon="6.75276">
        <ele>1799</ele>
        <time>2026-08-14T07:19:43.540Z</time>
      </trkpt>
      <trkpt lat="45.8099" lon="6.75278">
        <ele>1800</ele>
        <time>2026-08-14T07:19:44.540Z</time>
      </trkpt>
      <trkpt lat="45.8099" lon="6.75279">
        <ele>1800</ele>
        <time>2026-08-14T07:19:45.540Z</time>
      </trkpt>
      <trkpt lat="45.80989" lon="6.75281">
        <ele>1800</ele>
        <time>2026-08-14T07:19:46.540Z</time>
      </trkpt>
      <trkpt lat="45.80989" lon="6.75282">
        <ele>1800</ele>
        <time>2026-08-14T07:19:47.540Z</time>
      </trkpt>
      <trkpt lat="45.80989" lon="6.75282">
        <ele>1800</ele>
        <time>2026-08-14T07:19:48.540Z</time>
      </trkpt>
      <trkpt lat="45.80989" lon="6.75282">
        <ele>1800</ele>
        <time>2026-08-14T07:19:49.540Z</time>
      </trkpt>
      <trkpt lat="45.80989" lon="6.75283">
        <ele>1800</ele>
        <time>2026-08-14T07:19:50.540Z</time>
      </trkpt>
      <trkpt lat="45.80989" lon="6.75283">
        <ele>1800</ele>
        <time>2026-08-14T07:19:51.540Z</time>
      </trkpt>
      <trkpt lat="45.80989" lon="6.75283">
        <ele>1799</ele>
        <time>2026-08-14T07:19:52.540Z</time>
      </trkpt>
      <trkpt lat="45.80989" lon="6.75283">
        <ele>1800</ele>
        <time>2026-08-14T07:19:53.540Z</time>
      </trkpt>
      <trkpt lat="45.80989" lon="6.75283">
        <ele>1800</ele>
        <time>2026-08-14T07:19:54.540Z</time>
      </trkpt>
      <trkpt lat="45.80989" lon="6.75284">
        <ele>1799</ele>
        <time>2026-08-14T07:19:55.540Z</time>
      </trkpt>
      <trkpt lat="45.80988" lon="6.75285">
        <ele>1799</ele>
        <time>2026-08-14T07:19:56.540Z</time>
      </trkpt>
      <trkpt lat="45.80988" lon="6.75286">
        <ele>1799</ele>
        <time>2026-08-14T07:19:57.540Z</time>
      </trkpt>
      <trkpt lat="45.80988" lon="6.75288">
        <ele>1800</ele>
        <time>2026-08-14T07:19:58.540Z</time>
      </trkpt>
      <trkpt lat="45.80988" lon="6.75289">
        <ele>1800</ele>
        <time>2026-08-14T07:19:59.540Z</time>
      </trkpt>
      <trkpt lat="45.80988" lon="6.7529">
        <ele>1800</ele>
        <time>2026-08-14T07:20:00.540Z</time>
      </trkpt>
      <trkpt lat="45.80987" lon="6.75291">
        <ele>1800</ele>
        <time>2026-08-14T07:20:01.540Z</time>
      </trkpt>
      <trkpt lat="45.80987" lon="6.75292">
        <ele>1801</ele>
        <time>2026-08-14T07:20:02.540Z</time>
      </trkpt>
      <trkpt lat="45.80987" lon="6.75293">
        <ele>1801</ele>
        <time>2026-08-14T07:20:03.540Z</time>
      </trkpt>
      <trkpt lat="45.80986" lon="6.75294">
        <ele>1801</ele>
        <time>2026-08-14T07:20:04.540Z</time>
      </trkpt>
      <trkpt lat="45.80985" lon="6.75295">
        <ele>1801</ele>
        <time>2026-08-14T07:20:05.540Z</time>
      </trkpt>
      <trkpt lat="45.80985" lon="6.75297">
        <ele>1801</ele>
        <time>2026-08-14T07:20:06.540Z</time>
      </trkpt>
      <trkpt lat="45.80985" lon="6.75298">
        <ele>1802</ele>
        <time>2026-08-14T07:20:07.540Z</time>
      </trkpt>
      <trkpt lat="45.80984" lon="6.75299">
        <ele>1802</ele>
        <time>2026-08-14T07:20:08.540Z</time>
      </trkpt>
      <trkpt lat="45.80984" lon="6.75301">
        <ele>1803</ele>
        <time>2026-08-14T07:20:09.540Z</time>
      </trkpt>
      <trkpt lat="45.80984" lon="6.75302">
        <ele>1803</ele>
        <time>2026-08-14T07:20:10.540Z</time>
      </trkpt>
      <trkpt lat="45.80984" lon="6.75303">
        <ele>1804</ele>
        <time>2026-08-14T07:20:11.540Z</time>
      </trkpt>
      <trkpt lat="45.80983" lon="6.75305">
        <ele>1804</ele>
        <time>2026-08-14T07:20:12.540Z</time>
      </trkpt>
      <trkpt lat="45.80982" lon="6.75307">
        <ele>1804</ele>
        <time>2026-08-14T07:20:13.540Z</time>
      </trkpt>
      <trkpt lat="45.80981" lon="6.75307">
        <ele>1804</ele>
        <time>2026-08-14T07:20:14.540Z</time>
      </trkpt>
      <trkpt lat="45.8098" lon="6.75307">
        <ele>1804</ele>
        <time>2026-08-14T07:20:15.540Z</time>
      </trkpt>
      <trkpt lat="45.8098" lon="6.75306">
        <ele>1804</ele>
        <time>2026-08-14T07:20:16.540Z</time>
      </trkpt>
      <trkpt lat="45.80979" lon="6.75305">
        <ele>1804</ele>
        <time>2026-08-14T07:20:17.540Z</time>
      </trkpt>
      <trkpt lat="45.80979" lon="6.75303">
        <ele>1804</ele>
        <time>2026-08-14T07:20:18.540Z</time>
      </trkpt>
      <trkpt lat="45.80979" lon="6.75301">
        <ele>1804</ele>
        <time>2026-08-14T07:20:19.540Z</time>
      </trkpt>
      <trkpt lat="45.80979" lon="6.75299">
        <ele>1805</ele>
        <time>2026-08-14T07:20:20.540Z</time>
      </trkpt>
      <trkpt lat="45.80979" lon="6.75297">
        <ele>1805</ele>
        <time>2026-08-14T07:20:21.540Z</time>
      </trkpt>
      <trkpt lat="45.80979" lon="6.75296">
        <ele>1805</ele>
        <time>2026-08-14T07:20:22.540Z</time>
      </trkpt>
      <trkpt lat="45.80978" lon="6.75294">
        <ele>1805</ele>
        <time>2026-08-14T07:20:23.540Z</time>
      </trkpt>
      <trkpt lat="45.80978" lon="6.75292">
        <ele>1806</ele>
        <time>2026-08-14T07:20:24.540Z</time>
      </trkpt>
      <trkpt lat="45.80978" lon="6.75291">
        <ele>1806</ele>
        <time>2026-08-14T07:20:25.540Z</time>
      </trkpt>
      <trkpt lat="45.80978" lon="6.75289">
        <ele>1806</ele>
        <time>2026-08-14T07:20:26.540Z</time>
      </trkpt>
      <trkpt lat="45.80977" lon="6.75287">
        <ele>1806</ele>
        <time>2026-08-14T07:20:27.540Z</time>
      </trkpt>
      <trkpt lat="45.80977" lon="6.75286">
        <ele>1807</ele>
        <time>2026-08-14T07:20:28.540Z</time>
      </trkpt>
      <trkpt lat="45.80977" lon="6.75285">
        <ele>1807</ele>
        <time>2026-08-14T07:20:29.540Z</time>
      </trkpt>
      <trkpt lat="45.80976" lon="6.75283">
        <ele>1807</ele>
        <time>2026-08-14T07:20:30.540Z</time>
      </trkpt>
      <trkpt lat="45.80976" lon="6.75283">
        <ele>1807</ele>
        <time>2026-08-14T07:20:31.540Z</time>
      </trkpt>
      <trkpt lat="45.80975" lon="6.75282">
        <ele>1807</ele>
        <time>2026-08-14T07:20:32.540Z</time>
      </trkpt>
      <trkpt lat="45.80975" lon="6.75283">
        <ele>1808</ele>
        <time>2026-08-14T07:20:33.540Z</time>
      </trkpt>
      <trkpt lat="45.80974" lon="6.75284">
        <ele>1808</ele>
        <time>2026-08-14T07:20:34.540Z</time>
      </trkpt>
      <trkpt lat="45.80974" lon="6.75285">
        <ele>1808</ele>
        <time>2026-08-14T07:20:35.540Z</time>
      </trkpt>
      <trkpt lat="45.80973" lon="6.75287">
        <ele>1808</ele>
        <time>2026-08-14T07:20:36.540Z</time>
      </trkpt>
      <trkpt lat="45.80972" lon="6.75289">
        <ele>1808</ele>
        <time>2026-08-14T07:20:37.540Z</time>
      </trkpt>
      <trkpt lat="45.80971" lon="6.7529">
        <ele>1808</ele>
        <time>2026-08-14T07:20:38.540Z</time>
      </trkpt>
      <trkpt lat="45.80971" lon="6.75292">
        <ele>1808</ele>
        <time>2026-08-14T07:20:39.540Z</time>
      </trkpt>
      <trkpt lat="45.8097" lon="6.75294">
        <ele>1808</ele>
        <time>2026-08-14T07:20:40.540Z</time>
      </trkpt>
      <trkpt lat="45.8097" lon="6.75295">
        <ele>1809</ele>
        <time>2026-08-14T07:20:41.540Z</time>
      </trkpt>
      <trkpt lat="45.8097" lon="6.75296">
        <ele>1809</ele>
        <time>2026-08-14T07:20:42.540Z</time>
      </trkpt>
      <trkpt lat="45.80969" lon="6.75297">
        <ele>1809</ele>
        <time>2026-08-14T07:20:43.540Z</time>
      </trkpt>
      <trkpt lat="45.80968" lon="6.75299">
        <ele>1809</ele>
        <time>2026-08-14T07:20:44.540Z</time>
      </trkpt>
      <trkpt lat="45.80968" lon="6.753">
        <ele>1809</ele>
        <time>2026-08-14T07:20:45.540Z</time>
      </trkpt>
      <trkpt lat="45.80967" lon="6.75301">
        <ele>1810</ele>
        <time>2026-08-14T07:20:46.540Z</time>
      </trkpt>
      <trkpt lat="45.80966" lon="6.75303">
        <ele>1810</ele>
        <time>2026-08-14T07:20:47.540Z</time>
      </trkpt>
      <trkpt lat="45.80965" lon="6.75304">
        <ele>1810</ele>
        <time>2026-08-14T07:20:48.540Z</time>
      </trkpt>
      <trkpt lat="45.80965" lon="6.75306">
        <ele>1810</ele>
        <time>2026-08-14T07:20:49.540Z</time>
      </trkpt>
      <trkpt lat="45.80964" lon="6.75307">
        <ele>1810</ele>
        <time>2026-08-14T07:20:50.540Z</time>
      </trkpt>
      <trkpt lat="45.80964" lon="6.75308">
        <ele>1810</ele>
        <time>2026-08-14T07:20:51.540Z</time>
      </trkpt>
      <trkpt lat="45.80963" lon="6.7531">
        <ele>1809</ele>
        <time>2026-08-14T07:20:52.540Z</time>
      </trkpt>
      <trkpt lat="45.80962" lon="6.75312">
        <ele>1809</ele>
        <time>2026-08-14T07:20:53.540Z</time>
      </trkpt>
      <trkpt lat="45.80961" lon="6.75313">
        <ele>1809</ele>
        <time>2026-08-14T07:20:54.540Z</time>
      </trkpt>
      <trkpt lat="45.80961" lon="6.75314">
        <ele>1809</ele>
        <time>2026-08-14T07:20:55.540Z</time>
      </trkpt>
      <trkpt lat="45.8096" lon="6.75316">
        <ele>1810</ele>
        <time>2026-08-14T07:20:56.540Z</time>
      </trkpt>
      <trkpt lat="45.80959" lon="6.75317">
        <ele>1810</ele>
        <time>2026-08-14T07:20:57.540Z</time>
      </trkpt>
      <trkpt lat="45.80958" lon="6.75317">
        <ele>1810</ele>
        <time>2026-08-14T07:20:58.540Z</time>
      </trkpt>
      <trkpt lat="45.80957" lon="6.75318">
        <ele>1811</ele>
        <time>2026-08-14T07:20:59.540Z</time>
      </trkpt>
      <trkpt lat="45.80955" lon="6.75318">
        <ele>1811</ele>
        <time>2026-08-14T07:21:00.540Z</time>
      </trkpt>
      <trkpt lat="45.80954" lon="6.75317">
        <ele>1811</ele>
        <time>2026-08-14T07:21:01.540Z</time>
      </trkpt>
      <trkpt lat="45.80954" lon="6.75315">
        <ele>1811</ele>
        <time>2026-08-14T07:21:02.540Z</time>
      </trkpt>
      <trkpt lat="45.80954" lon="6.75312">
        <ele>1811</ele>
        <time>2026-08-14T07:21:03.540Z</time>
      </trkpt>
      <trkpt lat="45.80954" lon="6.7531">
        <ele>1812</ele>
        <time>2026-08-14T07:21:04.540Z</time>
      </trkpt>
      <trkpt lat="45.80955" lon="6.75308">
        <ele>1812</ele>
        <time>2026-08-14T07:21:05.540Z</time>
      </trkpt>
      <trkpt lat="45.80955" lon="6.75306">
        <ele>1813</ele>
        <time>2026-08-14T07:21:06.540Z</time>
      </trkpt>
      <trkpt lat="45.80955" lon="6.75304">
        <ele>1813</ele>
        <time>2026-08-14T07:21:07.540Z</time>
      </trkpt>
      <trkpt lat="45.80954" lon="6.75303">
        <ele>1813</ele>
        <time>2026-08-14T07:21:08.540Z</time>
      </trkpt>
      <trkpt lat="45.80954" lon="6.75302">
        <ele>1813</ele>
        <time>2026-08-14T07:21:09.540Z</time>
      </trkpt>
      <trkpt lat="45.80954" lon="6.753">
        <ele>1813</ele>
        <time>2026-08-14T07:21:10.540Z</time>
      </trkpt>
      <trkpt lat="45.80954" lon="6.75299">
        <ele>1813</ele>
        <time>2026-08-14T07:21:11.540Z</time>
      </trkpt>
      <trkpt lat="45.80954" lon="6.75298">
        <ele>1813</ele>
        <time>2026-08-14T07:21:12.540Z</time>
      </trkpt>
      <trkpt lat="45.80953" lon="6.75298">
        <ele>1813</ele>
        <time>2026-08-14T07:21:13.540Z</time>
      </trkpt>
      <trkpt lat="45.80953" lon="6.75298">
        <ele>1814</ele>
        <time>2026-08-14T07:21:14.540Z</time>
      </trkpt>
      <trkpt lat="45.80953" lon="6.753">
        <ele>1814</ele>
        <time>2026-08-14T07:21:15.540Z</time>
      </trkpt>
      <trkpt lat="45.80953" lon="6.75301">
        <ele>1814</ele>
        <time>2026-08-14T07:21:16.540Z</time>
      </trkpt>
      <trkpt lat="45.80953" lon="6.75302">
        <ele>1815</ele>
        <time>2026-08-14T07:21:17.540Z</time>
      </trkpt>
      <trkpt lat="45.80952" lon="6.75304">
        <ele>1815</ele>
        <time>2026-08-14T07:21:18.540Z</time>
      </trkpt>
      <trkpt lat="45.80951" lon="6.75305">
        <ele>1816</ele>
        <time>2026-08-14T07:21:19.540Z</time>
      </trkpt>
      <trkpt lat="45.8095" lon="6.75307">
        <ele>1816</ele>
        <time>2026-08-14T07:21:20.540Z</time>
      </trkpt>
      <trkpt lat="45.80949" lon="6.75308">
        <ele>1817</ele>
        <time>2026-08-14T07:21:21.540Z</time>
      </trkpt>
      <trkpt lat="45.80948" lon="6.75309">
        <ele>1817</ele>
        <time>2026-08-14T07:21:22.540Z</time>
      </trkpt>
      <trkpt lat="45.80947" lon="6.75311">
        <ele>1817</ele>
        <time>2026-08-14T07:21:23.540Z</time>
      </trkpt>
      <trkpt lat="45.80947" lon="6.75312">
        <ele>1817</ele>
        <time>2026-08-14T07:21:24.540Z</time>
      </trkpt>
      <trkpt lat="45.80946" lon="6.75314">
        <ele>1817</ele>
        <time>2026-08-14T07:21:25.540Z</time>
      </trkpt>
      <trkpt lat="45.80945" lon="6.75316">
        <ele>1817</ele>
        <time>2026-08-14T07:21:26.540Z</time>
      </trkpt>
      <trkpt lat="45.80945" lon="6.75317">
        <ele>1817</ele>
        <time>2026-08-14T07:21:27.540Z</time>
      </trkpt>
      <trkpt lat="45.80945" lon="6.75319">
        <ele>1817</ele>
        <time>2026-08-14T07:21:28.540Z</time>
      </trkpt>
      <trkpt lat="45.80944" lon="6.75321">
        <ele>1816</ele>
        <time>2026-08-14T07:21:29.540Z</time>
      </trkpt>
      <trkpt lat="45.80944" lon="6.75323">
        <ele>1816</ele>
        <time>2026-08-14T07:21:30.540Z</time>
      </trkpt>
      <trkpt lat="45.80943" lon="6.75324">
        <ele>1816</ele>
        <time>2026-08-14T07:21:31.540Z</time>
      </trkpt>
      <trkpt lat="45.80943" lon="6.75326">
        <ele>1817</ele>
        <time>2026-08-14T07:21:32.540Z</time>
      </trkpt>
      <trkpt lat="45.80942" lon="6.75328">
        <ele>1817</ele>
        <time>2026-08-14T07:21:33.540Z</time>
      </trkpt>
      <trkpt lat="45.80942" lon="6.75329">
        <ele>1817</ele>
        <time>2026-08-14T07:21:34.540Z</time>
      </trkpt>
      <trkpt lat="45.80942" lon="6.7533">
        <ele>1817</ele>
        <time>2026-08-14T07:21:35.540Z</time>
      </trkpt>
      <trkpt lat="45.80942" lon="6.75332">
        <ele>1817</ele>
        <time>2026-08-14T07:21:36.540Z</time>
      </trkpt>
      <trkpt lat="45.80942" lon="6.75333">
        <ele>1816</ele>
        <time>2026-08-14T07:21:37.540Z</time>
      </trkpt>
      <trkpt lat="45.80942" lon="6.75334">
        <ele>1816</ele>
        <time>2026-08-14T07:21:38.540Z</time>
      </trkpt>
      <trkpt lat="45.80942" lon="6.75335">
        <ele>1816</ele>
        <time>2026-08-14T07:21:39.540Z</time>
      </trkpt>
      <trkpt lat="45.80942" lon="6.75336">
        <ele>1816</ele>
        <time>2026-08-14T07:21:40.540Z</time>
      </trkpt>
      <trkpt lat="45.80943" lon="6.75337">
        <ele>1816</ele>
        <time>2026-08-14T07:21:41.540Z</time>
      </trkpt>
      <trkpt lat="45.80943" lon="6.75339">
        <ele>1817</ele>
        <time>2026-08-14T07:21:42.540Z</time>
      </trkpt>
      <trkpt lat="45.80943" lon="6.7534">
        <ele>1817</ele>
        <time>2026-08-14T07:21:43.540Z</time>
      </trkpt>
      <trkpt lat="45.80942" lon="6.75342">
        <ele>1818</ele>
        <time>2026-08-14T07:21:44.540Z</time>
      </trkpt>
      <trkpt lat="45.80942" lon="6.75343">
        <ele>1818</ele>
        <time>2026-08-14T07:21:45.540Z</time>
      </trkpt>
      <trkpt lat="45.80941" lon="6.75344">
        <ele>1818</ele>
        <time>2026-08-14T07:21:46.540Z</time>
      </trkpt>
      <trkpt lat="45.8094" lon="6.75346">
        <ele>1818</ele>
        <time>2026-08-14T07:21:47.540Z</time>
      </trkpt>
      <trkpt lat="45.8094" lon="6.75348">
        <ele>1818</ele>
        <time>2026-08-14T07:21:48.540Z</time>
      </trkpt>
      <trkpt lat="45.80939" lon="6.75349">
        <ele>1818</ele>
        <time>2026-08-14T07:21:49.540Z</time>
      </trkpt>
      <trkpt lat="45.80939" lon="6.7535">
        <ele>1818</ele>
        <time>2026-08-14T07:21:50.540Z</time>
      </trkpt>
      <trkpt lat="45.80938" lon="6.75352">
        <ele>1818</ele>
        <time>2026-08-14T07:21:51.540Z</time>
      </trkpt>
      <trkpt lat="45.80938" lon="6.75353">
        <ele>1819</ele>
        <time>2026-08-14T07:21:52.540Z</time>
      </trkpt>
      <trkpt lat="45.80939" lon="6.75355">
        <ele>1819</ele>
        <time>2026-08-14T07:21:53.540Z</time>
      </trkpt>
      <trkpt lat="45.80939" lon="6.75356">
        <ele>1820</ele>
        <time>2026-08-14T07:21:54.540Z</time>
      </trkpt>
      <trkpt lat="45.8094" lon="6.75357">
        <ele>1821</ele>
        <time>2026-08-14T07:21:55.540Z</time>
      </trkpt>
      <trkpt lat="45.8094" lon="6.75358">
        <ele>1821</ele>
        <time>2026-08-14T07:21:56.540Z</time>
      </trkpt>
      <trkpt lat="45.8094" lon="6.7536">
        <ele>1821</ele>
        <time>2026-08-14T07:21:57.540Z</time>
      </trkpt>
      <trkpt lat="45.80941" lon="6.75361">
        <ele>1822</ele>
        <time>2026-08-14T07:21:58.540Z</time>
      </trkpt>
      <trkpt lat="45.80941" lon="6.75362">
        <ele>1822</ele>
        <time>2026-08-14T07:21:59.540Z</time>
      </trkpt>
      <trkpt lat="45.80941" lon="6.75364">
        <ele>1822</ele>
        <time>2026-08-14T07:22:00.540Z</time>
      </trkpt>
      <trkpt lat="45.80941" lon="6.75365">
        <ele>1823</ele>
        <time>2026-08-14T07:22:01.540Z</time>
      </trkpt>
      <trkpt lat="45.8094" lon="6.75366">
        <ele>1823</ele>
        <time>2026-08-14T07:22:02.540Z</time>
      </trkpt>
      <trkpt lat="45.8094" lon="6.75367">
        <ele>1823</ele>
        <time>2026-08-14T07:22:03.540Z</time>
      </trkpt>
      <trkpt lat="45.8094" lon="6.75368">
        <ele>1823</ele>
        <time>2026-08-14T07:22:04.540Z</time>
      </trkpt>
      <trkpt lat="45.80939" lon="6.75369">
        <ele>1823</ele>
        <time>2026-08-14T07:22:05.540Z</time>
      </trkpt>
      <trkpt lat="45.80939" lon="6.7537">
        <ele>1823</ele>
        <time>2026-08-14T07:22:06.540Z</time>
      </trkpt>
      <trkpt lat="45.80938" lon="6.75372">
        <ele>1823</ele>
        <time>2026-08-14T07:22:07.540Z</time>
      </trkpt>
      <trkpt lat="45.80937" lon="6.75373">
        <ele>1823</ele>
        <time>2026-08-14T07:22:08.540Z</time>
      </trkpt>
      <trkpt lat="45.80937" lon="6.75374">
        <ele>1823</ele>
        <time>2026-08-14T07:22:09.540Z</time>
      </trkpt>
      <trkpt lat="45.80936" lon="6.75374">
        <ele>1823</ele>
        <time>2026-08-14T07:22:10.540Z</time>
      </trkpt>
      <trkpt lat="45.80937" lon="6.75376">
        <ele>1823</ele>
        <time>2026-08-14T07:22:11.540Z</time>
      </trkpt>
      <trkpt lat="45.80937" lon="6.75377">
        <ele>1823</ele>
        <time>2026-08-14T07:22:12.540Z</time>
      </trkpt>
      <trkpt lat="45.80937" lon="6.75378">
        <ele>1823</ele>
        <time>2026-08-14T07:22:13.540Z</time>
      </trkpt>
      <trkpt lat="45.80936" lon="6.75379">
        <ele>1823</ele>
        <time>2026-08-14T07:22:14.540Z</time>
      </trkpt>
      <trkpt lat="45.80936" lon="6.75379">
        <ele>1824</ele>
        <time>2026-08-14T07:22:15.540Z</time>
      </trkpt>
      <trkpt lat="45.80936" lon="6.75378">
        <ele>1824</ele>
        <time>2026-08-14T07:22:16.540Z</time>
      </trkpt>
      <trkpt lat="45.80935" lon="6.75377">
        <ele>1824</ele>
        <time>2026-08-14T07:22:17.540Z</time>
      </trkpt>
      <trkpt lat="45.80934" lon="6.75377">
        <ele>1825</ele>
        <time>2026-08-14T07:22:18.540Z</time>
      </trkpt>
      <trkpt lat="45.80932" lon="6.75376">
        <ele>1825</ele>
        <time>2026-08-14T07:22:19.540Z</time>
      </trkpt>
      <trkpt lat="45.80931" lon="6.75375">
        <ele>1825</ele>
        <time>2026-08-14T07:22:20.540Z</time>
      </trkpt>
      <trkpt lat="45.80931" lon="6.75374">
        <ele>1825</ele>
        <time>2026-08-14T07:22:21.540Z</time>
      </trkpt>
      <trkpt lat="45.8093" lon="6.75372">
        <ele>1826</ele>
        <time>2026-08-14T07:22:22.540Z</time>
      </trkpt>
      <trkpt lat="45.8093" lon="6.7537">
        <ele>1827</ele>
        <time>2026-08-14T07:22:23.540Z</time>
      </trkpt>
      <trkpt lat="45.80929" lon="6.75369">
        <ele>1827</ele>
        <time>2026-08-14T07:22:24.540Z</time>
      </trkpt>
      <trkpt lat="45.80928" lon="6.75368">
        <ele>1827</ele>
        <time>2026-08-14T07:22:25.540Z</time>
      </trkpt>
      <trkpt lat="45.80928" lon="6.75366">
        <ele>1828</ele>
        <time>2026-08-14T07:22:26.540Z</time>
      </trkpt>
      <trkpt lat="45.80927" lon="6.75365">
        <ele>1828</ele>
        <time>2026-08-14T07:22:27.540Z</time>
      </trkpt>
      <trkpt lat="45.80927" lon="6.75364">
        <ele>1829</ele>
        <time>2026-08-14T07:22:28.540Z</time>
      </trkpt>
      <trkpt lat="45.80926" lon="6.75364">
        <ele>1829</ele>
        <time>2026-08-14T07:22:29.540Z</time>
      </trkpt>
      <trkpt lat="45.80925" lon="6.75363">
        <ele>1829</ele>
        <time>2026-08-14T07:22:30.540Z</time>
      </trkpt>
      <trkpt lat="45.80925" lon="6.75362">
        <ele>1829</ele>
        <time>2026-08-14T07:22:31.540Z</time>
      </trkpt>
      <trkpt lat="45.80924" lon="6.75361">
        <ele>1829</ele>
        <time>2026-08-14T07:22:32.540Z</time>
      </trkpt>
      <trkpt lat="45.80923" lon="6.7536">
        <ele>1829</ele>
        <time>2026-08-14T07:22:33.540Z</time>
      </trkpt>
      <trkpt lat="45.80923" lon="6.75359">
        <ele>1829</ele>
        <time>2026-08-14T07:22:34.540Z</time>
      </trkpt>
      <trkpt lat="45.80922" lon="6.75358">
        <ele>1830</ele>
        <time>2026-08-14T07:22:35.540Z</time>
      </trkpt>
      <trkpt lat="45.80921" lon="6.75358">
        <ele>1830</ele>
        <time>2026-08-14T07:22:36.540Z</time>
      </trkpt>
      <trkpt lat="45.80921" lon="6.75357">
        <ele>1830</ele>
        <time>2026-08-14T07:22:37.540Z</time>
      </trkpt>
      <trkpt lat="45.8092" lon="6.75356">
        <ele>1830</ele>
        <time>2026-08-14T07:22:38.540Z</time>
      </trkpt>
      <trkpt lat="45.8092" lon="6.75356">
        <ele>1830</ele>
        <time>2026-08-14T07:22:39.540Z</time>
      </trkpt>
      <trkpt lat="45.80919" lon="6.75356">
        <ele>1830</ele>
        <time>2026-08-14T07:22:40.540Z</time>
      </trkpt>
      <trkpt lat="45.80919" lon="6.75357">
        <ele>1830</ele>
        <time>2026-08-14T07:22:41.540Z</time>
      </trkpt>
      <trkpt lat="45.80918" lon="6.75358">
        <ele>1830</ele>
        <time>2026-08-14T07:22:42.540Z</time>
      </trkpt>
      <trkpt lat="45.80918" lon="6.75359">
        <ele>1830</ele>
        <time>2026-08-14T07:22:43.540Z</time>
      </trkpt>
      <trkpt lat="45.80918" lon="6.75361">
        <ele>1830</ele>
        <time>2026-08-14T07:22:44.540Z</time>
      </trkpt>
      <trkpt lat="45.80918" lon="6.75362">
        <ele>1830</ele>
        <time>2026-08-14T07:22:45.540Z</time>
      </trkpt>
      <trkpt lat="45.80918" lon="6.75364">
        <ele>1830</ele>
        <time>2026-08-14T07:22:46.540Z</time>
      </trkpt>
      <trkpt lat="45.80917" lon="6.75365">
        <ele>1831</ele>
        <time>2026-08-14T07:22:47.540Z</time>
      </trkpt>
      <trkpt lat="45.80917" lon="6.75367">
        <ele>1832</ele>
        <time>2026-08-14T07:22:48.540Z</time>
      </trkpt>
      <trkpt lat="45.80917" lon="6.75368">
        <ele>1832</ele>
        <time>2026-08-14T07:22:49.540Z</time>
      </trkpt>
      <trkpt lat="45.80917" lon="6.7537">
        <ele>1833</ele>
        <time>2026-08-14T07:22:50.540Z</time>
      </trkpt>
      <trkpt lat="45.80917" lon="6.75372">
        <ele>1833</ele>
        <time>2026-08-14T07:22:51.540Z</time>
      </trkpt>
      <trkpt lat="45.80917" lon="6.75374">
        <ele>1834</ele>
        <time>2026-08-14T07:22:52.540Z</time>
      </trkpt>
      <trkpt lat="45.80917" lon="6.75375">
        <ele>1834</ele>
        <time>2026-08-14T07:22:53.540Z</time>
      </trkpt>
      <trkpt lat="45.80917" lon="6.75377">
        <ele>1834</ele>
        <time>2026-08-14T07:22:54.540Z</time>
      </trkpt>
      <trkpt lat="45.80917" lon="6.75378">
        <ele>1835</ele>
        <time>2026-08-14T07:22:55.540Z</time>
      </trkpt>
      <trkpt lat="45.80917" lon="6.75379">
        <ele>1835</ele>
        <time>2026-08-14T07:22:56.540Z</time>
      </trkpt>
      <trkpt lat="45.80917" lon="6.7538">
        <ele>1835</ele>
        <time>2026-08-14T07:22:57.540Z</time>
      </trkpt>
      <trkpt lat="45.80917" lon="6.75382">
        <ele>1835</ele>
        <time>2026-08-14T07:22:58.540Z</time>
      </trkpt>
      <trkpt lat="45.80917" lon="6.75383">
        <ele>1835</ele>
        <time>2026-08-14T07:22:59.540Z</time>
      </trkpt>
      <trkpt lat="45.80916" lon="6.75384">
        <ele>1835</ele>
        <time>2026-08-14T07:23:00.540Z</time>
      </trkpt>
      <trkpt lat="45.80916" lon="6.75386">
        <ele>1836</ele>
        <time>2026-08-14T07:23:01.540Z</time>
      </trkpt>
      <trkpt lat="45.80916" lon="6.75387">
        <ele>1836</ele>
        <time>2026-08-14T07:23:02.540Z</time>
      </trkpt>
      <trkpt lat="45.80915" lon="6.75388">
        <ele>1837</ele>
        <time>2026-08-14T07:23:03.540Z</time>
      </trkpt>
      <trkpt lat="45.80915" lon="6.7539">
        <ele>1837</ele>
        <time>2026-08-14T07:23:04.540Z</time>
      </trkpt>
      <trkpt lat="45.80915" lon="6.75391">
        <ele>1838</ele>
        <time>2026-08-14T07:23:05.540Z</time>
      </trkpt>
      <trkpt lat="45.80915" lon="6.75393">
        <ele>1838</ele>
        <time>2026-08-14T07:23:06.540Z</time>
      </trkpt>
      <trkpt lat="45.80914" lon="6.75394">
        <ele>1839</ele>
        <time>2026-08-14T07:23:07.540Z</time>
      </trkpt>
      <trkpt lat="45.80913" lon="6.75395">
        <ele>1839</ele>
        <time>2026-08-14T07:23:08.540Z</time>
      </trkpt>
      <trkpt lat="45.80913" lon="6.75397">
        <ele>1838</ele>
        <time>2026-08-14T07:23:09.540Z</time>
      </trkpt>
      <trkpt lat="45.80913" lon="6.75398">
        <ele>1838</ele>
        <time>2026-08-14T07:23:10.540Z</time>
      </trkpt>
      <trkpt lat="45.80914" lon="6.75399">
        <ele>1839</ele>
        <time>2026-08-14T07:23:11.540Z</time>
      </trkpt>
      <trkpt lat="45.80914" lon="6.754">
        <ele>1839</ele>
        <time>2026-08-14T07:23:12.540Z</time>
      </trkpt>
      <trkpt lat="45.80914" lon="6.75401">
        <ele>1839</ele>
        <time>2026-08-14T07:23:13.540Z</time>
      </trkpt>
      <trkpt lat="45.80914" lon="6.75402">
        <ele>1839</ele>
        <time>2026-08-14T07:23:14.540Z</time>
      </trkpt>
      <trkpt lat="45.80914" lon="6.75404">
        <ele>1840</ele>
        <time>2026-08-14T07:23:15.540Z</time>
      </trkpt>
      <trkpt lat="45.80914" lon="6.75405">
        <ele>1840</ele>
        <time>2026-08-14T07:23:16.540Z</time>
      </trkpt>
      <trkpt lat="45.80914" lon="6.75406">
        <ele>1840</ele>
        <time>2026-08-14T07:23:17.540Z</time>
      </trkpt>
      <trkpt lat="45.80914" lon="6.75407">
        <ele>1841</ele>
        <time>2026-08-14T07:23:18.540Z</time>
      </trkpt>
      <trkpt lat="45.80914" lon="6.75408">
        <ele>1841</ele>
        <time>2026-08-14T07:23:19.540Z</time>
      </trkpt>
      <trkpt lat="45.80914" lon="6.7541">
        <ele>1842</ele>
        <time>2026-08-14T07:23:20.540Z</time>
      </trkpt>
      <trkpt lat="45.80914" lon="6.75411">
        <ele>1842</ele>
        <time>2026-08-14T07:23:21.540Z</time>
      </trkpt>
      <trkpt lat="45.80914" lon="6.75411">
        <ele>1842</ele>
        <time>2026-08-14T07:23:22.540Z</time>
      </trkpt>
      <trkpt lat="45.80914" lon="6.75412">
        <ele>1842</ele>
        <time>2026-08-14T07:23:23.540Z</time>
      </trkpt>
      <trkpt lat="45.80913" lon="6.75413">
        <ele>1842</ele>
        <time>2026-08-14T07:23:24.540Z</time>
      </trkpt>
      <trkpt lat="45.80913" lon="6.75414">
        <ele>1842</ele>
        <time>2026-08-14T07:23:25.540Z</time>
      </trkpt>
      <trkpt lat="45.80913" lon="6.75414">
        <ele>1842</ele>
        <time>2026-08-14T07:23:26.540Z</time>
      </trkpt>
      <trkpt lat="45.80912" lon="6.75414">
        <ele>1843</ele>
        <time>2026-08-14T07:23:27.540Z</time>
      </trkpt>
      <trkpt lat="45.80911" lon="6.75414">
        <ele>1843</ele>
        <time>2026-08-14T07:23:28.540Z</time>
      </trkpt>
      <trkpt lat="45.8091" lon="6.75414">
        <ele>1843</ele>
        <time>2026-08-14T07:23:29.540Z</time>
      </trkpt>
      <trkpt lat="45.80908" lon="6.75414">
        <ele>1843</ele>
        <time>2026-08-14T07:23:30.540Z</time>
      </trkpt>
      <trkpt lat="45.80906" lon="6.75414">
        <ele>1843</ele>
        <time>2026-08-14T07:23:31.540Z</time>
      </trkpt>
      <trkpt lat="45.80904" lon="6.75414">
        <ele>1842</ele>
        <time>2026-08-14T07:23:32.540Z</time>
      </trkpt>
      <trkpt lat="45.80904" lon="6.75413">
        <ele>1842</ele>
        <time>2026-08-14T07:23:33.540Z</time>
      </trkpt>
      <trkpt lat="45.80903" lon="6.75413">
        <ele>1843</ele>
        <time>2026-08-14T07:23:34.540Z</time>
      </trkpt>
      <trkpt lat="45.80902" lon="6.75413">
        <ele>1843</ele>
        <time>2026-08-14T07:23:35.540Z</time>
      </trkpt>
      <trkpt lat="45.80902" lon="6.75413">
        <ele>1843</ele>
        <time>2026-08-14T07:23:36.540Z</time>
      </trkpt>
      <trkpt lat="45.80901" lon="6.75413">
        <ele>1843</ele>
        <time>2026-08-14T07:23:37.540Z</time>
      </trkpt>
      <trkpt lat="45.809" lon="6.75412">
        <ele>1843</ele>
        <time>2026-08-14T07:23:38.540Z</time>
      </trkpt>
      <trkpt lat="45.80899" lon="6.75411">
        <ele>1843</ele>
        <time>2026-08-14T07:23:39.540Z</time>
      </trkpt>
      <trkpt lat="45.80898" lon="6.7541">
        <ele>1843</ele>
        <time>2026-08-14T07:23:40.540Z</time>
      </trkpt>
      <trkpt lat="45.80896" lon="6.7541">
        <ele>1843</ele>
        <time>2026-08-14T07:23:41.540Z</time>
      </trkpt>
      <trkpt lat="45.80895" lon="6.75409">
        <ele>1843</ele>
        <time>2026-08-14T07:23:42.540Z</time>
      </trkpt>
      <trkpt lat="45.80894" lon="6.75408">
        <ele>1843</ele>
        <time>2026-08-14T07:23:43.540Z</time>
      </trkpt>
      <trkpt lat="45.80893" lon="6.75407">
        <ele>1843</ele>
        <time>2026-08-14T07:23:44.540Z</time>
      </trkpt>
      <trkpt lat="45.80892" lon="6.75406">
        <ele>1843</ele>
        <time>2026-08-14T07:23:45.540Z</time>
      </trkpt>
      <trkpt lat="45.80891" lon="6.75405">
        <ele>1844</ele>
        <time>2026-08-14T07:23:46.540Z</time>
      </trkpt>
      <trkpt lat="45.80891" lon="6.75404">
        <ele>1844</ele>
        <time>2026-08-14T07:23:47.540Z</time>
      </trkpt>
      <trkpt lat="45.8089" lon="6.75404">
        <ele>1844</ele>
        <time>2026-08-14T07:23:48.540Z</time>
      </trkpt>
      <trkpt lat="45.80889" lon="6.75403">
        <ele>1845</ele>
        <time>2026-08-14T07:23:49.540Z</time>
      </trkpt>
      <trkpt lat="45.80889" lon="6.75402">
        <ele>1845</ele>
        <time>2026-08-14T07:23:50.540Z</time>
      </trkpt>
      <trkpt lat="45.80888" lon="6.75401">
        <ele>1846</ele>
        <time>2026-08-14T07:23:51.540Z</time>
      </trkpt>
      <trkpt lat="45.80888" lon="6.754">
        <ele>1847</ele>
        <time>2026-08-14T07:23:52.540Z</time>
      </trkpt>
      <trkpt lat="45.80887" lon="6.754">
        <ele>1847</ele>
        <time>2026-08-14T07:23:53.540Z</time>
      </trkpt>
      <trkpt lat="45.80886" lon="6.75399">
        <ele>1847</ele>
        <time>2026-08-14T07:23:54.540Z</time>
      </trkpt>
      <trkpt lat="45.80885" lon="6.75398">
        <ele>1848</ele>
        <time>2026-08-14T07:23:55.540Z</time>
      </trkpt>
      <trkpt lat="45.80885" lon="6.75396">
        <ele>1848</ele>
        <time>2026-08-14T07:23:56.540Z</time>
      </trkpt>
      <trkpt lat="45.80884" lon="6.75395">
        <ele>1848</ele>
        <time>2026-08-14T07:23:57.540Z</time>
      </trkpt>
      <trkpt lat="45.80883" lon="6.75394">
        <ele>1848</ele>
        <time>2026-08-14T07:23:58.540Z</time>
      </trkpt>
      <trkpt lat="45.80883" lon="6.75392">
        <ele>1848</ele>
        <time>2026-08-14T07:23:59.540Z</time>
      </trkpt>
      <trkpt lat="45.80883" lon="6.75391">
        <ele>1849</ele>
        <time>2026-08-14T07:24:00.540Z</time>
      </trkpt>
      <trkpt lat="45.80882" lon="6.7539">
        <ele>1849</ele>
        <time>2026-08-14T07:24:01.540Z</time>
      </trkpt>
      <trkpt lat="45.80881" lon="6.75388">
        <ele>1850</ele>
        <time>2026-08-14T07:24:02.540Z</time>
      </trkpt>
      <trkpt lat="45.80881" lon="6.75387">
        <ele>1850</ele>
        <time>2026-08-14T07:24:03.540Z</time>
      </trkpt>
      <trkpt lat="45.80881" lon="6.75385">
        <ele>1850</ele>
        <time>2026-08-14T07:24:04.540Z</time>
      </trkpt>
      <trkpt lat="45.8088" lon="6.75383">
        <ele>1851</ele>
        <time>2026-08-14T07:24:05.540Z</time>
      </trkpt>
      <trkpt lat="45.8088" lon="6.75382">
        <ele>1851</ele>
        <time>2026-08-14T07:24:06.540Z</time>
      </trkpt>
      <trkpt lat="45.80879" lon="6.75381">
        <ele>1851</ele>
        <time>2026-08-14T07:24:07.540Z</time>
      </trkpt>
      <trkpt lat="45.80879" lon="6.7538">
        <ele>1852</ele>
        <time>2026-08-14T07:24:08.540Z</time>
      </trkpt>
      <trkpt lat="45.80878" lon="6.75379">
        <ele>1852</ele>
        <time>2026-08-14T07:24:09.540Z</time>
      </trkpt>
      <trkpt lat="45.80877" lon="6.75379">
        <ele>1852</ele>
        <time>2026-08-14T07:24:10.540Z</time>
      </trkpt>
      <trkpt lat="45.80877" lon="6.75378">
        <ele>1852</ele>
        <time>2026-08-14T07:24:11.540Z</time>
      </trkpt>
      <trkpt lat="45.80876" lon="6.75378">
        <ele>1852</ele>
        <time>2026-08-14T07:24:12.540Z</time>
      </trkpt>
      <trkpt lat="45.80876" lon="6.75378">
        <ele>1852</ele>
        <time>2026-08-14T07:24:13.540Z</time>
      </trkpt>
      <trkpt lat="45.80875" lon="6.75379">
        <ele>1852</ele>
        <time>2026-08-14T07:24:14.540Z</time>
      </trkpt>
      <trkpt lat="45.80876" lon="6.7538">
        <ele>1852</ele>
        <time>2026-08-14T07:24:15.540Z</time>
      </trkpt>
      <trkpt lat="45.80876" lon="6.75381">
        <ele>1853</ele>
        <time>2026-08-14T07:24:16.540Z</time>
      </trkpt>
      <trkpt lat="45.80876" lon="6.75382">
        <ele>1853</ele>
        <time>2026-08-14T07:24:17.540Z</time>
      </trkpt>
      <trkpt lat="45.80877" lon="6.75384">
        <ele>1853</ele>
        <time>2026-08-14T07:24:18.540Z</time>
      </trkpt>
      <trkpt lat="45.80877" lon="6.75385">
        <ele>1854</ele>
        <time>2026-08-14T07:24:19.540Z</time>
      </trkpt>
      <trkpt lat="45.80877" lon="6.75387">
        <ele>1854</ele>
        <time>2026-08-14T07:24:20.540Z</time>
      </trkpt>
      <trkpt lat="45.80876" lon="6.75388">
        <ele>1854</ele>
        <time>2026-08-14T07:24:21.540Z</time>
      </trkpt>
      <trkpt lat="45.80876" lon="6.75389">
        <ele>1855</ele>
        <time>2026-08-14T07:24:22.540Z</time>
      </trkpt>
      <trkpt lat="45.80875" lon="6.7539">
        <ele>1855</ele>
        <time>2026-08-14T07:24:23.540Z</time>
      </trkpt>
      <trkpt lat="45.80875" lon="6.75392">
        <ele>1856</ele>
        <time>2026-08-14T07:24:24.540Z</time>
      </trkpt>
      <trkpt lat="45.80874" lon="6.75393">
        <ele>1856</ele>
        <time>2026-08-14T07:24:25.540Z</time>
      </trkpt>
      <trkpt lat="45.80873" lon="6.75394">
        <ele>1857</ele>
        <time>2026-08-14T07:24:26.540Z</time>
      </trkpt>
      <trkpt lat="45.80873" lon="6.75393">
        <ele>1857</ele>
        <time>2026-08-14T07:24:27.540Z</time>
      </trkpt>
      <trkpt lat="45.80872" lon="6.75392">
        <ele>1858</ele>
        <time>2026-08-14T07:24:28.540Z</time>
      </trkpt>
      <trkpt lat="45.80871" lon="6.75392">
        <ele>1858</ele>
        <time>2026-08-14T07:24:29.540Z</time>
      </trkpt>
      <trkpt lat="45.80871" lon="6.75391">
        <ele>1858</ele>
        <time>2026-08-14T07:24:30.540Z</time>
      </trkpt>
      <trkpt lat="45.8087" lon="6.7539">
        <ele>1858</ele>
        <time>2026-08-14T07:24:31.540Z</time>
      </trkpt>
      <trkpt lat="45.80869" lon="6.75389">
        <ele>1858</ele>
        <time>2026-08-14T07:24:32.540Z</time>
      </trkpt>
      <trkpt lat="45.80869" lon="6.75388">
        <ele>1858</ele>
        <time>2026-08-14T07:24:33.540Z</time>
      </trkpt>
      <trkpt lat="45.80868" lon="6.75387">
        <ele>1858</ele>
        <time>2026-08-14T07:24:34.540Z</time>
      </trkpt>
      <trkpt lat="45.80867" lon="6.75386">
        <ele>1858</ele>
        <time>2026-08-14T07:24:35.540Z</time>
      </trkpt>
      <trkpt lat="45.80867" lon="6.75384">
        <ele>1858</ele>
        <time>2026-08-14T07:24:36.540Z</time>
      </trkpt>
      <trkpt lat="45.80866" lon="6.75383">
        <ele>1859</ele>
        <time>2026-08-14T07:24:37.540Z</time>
      </trkpt>
      <trkpt lat="45.80865" lon="6.75382">
        <ele>1859</ele>
        <time>2026-08-14T07:24:38.540Z</time>
      </trkpt>
      <trkpt lat="45.80864" lon="6.75381">
        <ele>1859</ele>
        <time>2026-08-14T07:24:39.540Z</time>
      </trkpt>
      <trkpt lat="45.80864" lon="6.75381">
        <ele>1859</ele>
        <time>2026-08-14T07:24:40.540Z</time>
      </trkpt>
      <trkpt lat="45.80863" lon="6.7538">
        <ele>1860</ele>
        <time>2026-08-14T07:24:41.540Z</time>
      </trkpt>
      <trkpt lat="45.80862" lon="6.75378">
        <ele>1860</ele>
        <time>2026-08-14T07:24:42.540Z</time>
      </trkpt>
      <trkpt lat="45.80861" lon="6.75377">
        <ele>1860</ele>
        <time>2026-08-14T07:24:43.540Z</time>
      </trkpt>
      <trkpt lat="45.80861" lon="6.75376">
        <ele>1860</ele>
        <time>2026-08-14T07:24:44.540Z</time>
      </trkpt>
      <trkpt lat="45.8086" lon="6.75375">
        <ele>1861</ele>
        <time>2026-08-14T07:24:45.540Z</time>
      </trkpt>
      <trkpt lat="45.8086" lon="6.75375">
        <ele>1861</ele>
        <time>2026-08-14T07:24:46.540Z</time>
      </trkpt>
      <trkpt lat="45.80859" lon="6.75374">
        <ele>1861</ele>
        <time>2026-08-14T07:24:47.540Z</time>
      </trkpt>
      <trkpt lat="45.80859" lon="6.75375">
        <ele>1861</ele>
        <time>2026-08-14T07:24:48.540Z</time>
      </trkpt>
      <trkpt lat="45.80858" lon="6.75377">
        <ele>1861</ele>
        <time>2026-08-14T07:24:49.540Z</time>
      </trkpt>
      <trkpt lat="45.80859" lon="6.75378">
        <ele>1861</ele>
        <time>2026-08-14T07:24:50.540Z</time>
      </trkpt>
      <trkpt lat="45.80859" lon="6.75379">
        <ele>1862</ele>
        <time>2026-08-14T07:24:51.540Z</time>
      </trkpt>
      <trkpt lat="45.80859" lon="6.75381">
        <ele>1862</ele>
        <time>2026-08-14T07:24:52.540Z</time>
      </trkpt>
      <trkpt lat="45.80859" lon="6.75383">
        <ele>1862</ele>
        <time>2026-08-14T07:24:53.540Z</time>
      </trkpt>
      <trkpt lat="45.80859" lon="6.75384">
        <ele>1862</ele>
        <time>2026-08-14T07:24:54.540Z</time>
      </trkpt>
      <trkpt lat="45.80858" lon="6.75386">
        <ele>1862</ele>
        <time>2026-08-14T07:24:55.540Z</time>
      </trkpt>
      <trkpt lat="45.80858" lon="6.75387">
        <ele>1862</ele>
        <time>2026-08-14T07:24:56.540Z</time>
      </trkpt>
      <trkpt lat="45.80858" lon="6.75389">
        <ele>1862</ele>
        <time>2026-08-14T07:24:57.540Z</time>
      </trkpt>
      <trkpt lat="45.80857" lon="6.7539">
        <ele>1863</ele>
        <time>2026-08-14T07:24:58.540Z</time>
      </trkpt>
      <trkpt lat="45.80857" lon="6.75392">
        <ele>1863</ele>
        <time>2026-08-14T07:24:59.540Z</time>
      </trkpt>
      <trkpt lat="45.80857" lon="6.75393">
        <ele>1863</ele>
        <time>2026-08-14T07:25:00.540Z</time>
      </trkpt>
      <trkpt lat="45.80856" lon="6.75395">
        <ele>1863</ele>
        <time>2026-08-14T07:25:01.540Z</time>
      </trkpt>
      <trkpt lat="45.80856" lon="6.75397">
        <ele>1863</ele>
        <time>2026-08-14T07:25:02.540Z</time>
      </trkpt>
      <trkpt lat="45.80855" lon="6.75398">
        <ele>1864</ele>
        <time>2026-08-14T07:25:03.540Z</time>
      </trkpt>
      <trkpt lat="45.80855" lon="6.754">
        <ele>1864</ele>
        <time>2026-08-14T07:25:04.540Z</time>
      </trkpt>
      <trkpt lat="45.80855" lon="6.75402">
        <ele>1865</ele>
        <time>2026-08-14T07:25:05.540Z</time>
      </trkpt>
      <trkpt lat="45.80855" lon="6.75404">
        <ele>1865</ele>
        <time>2026-08-14T07:25:06.540Z</time>
      </trkpt>
      <trkpt lat="45.80854" lon="6.75406">
        <ele>1865</ele>
        <time>2026-08-14T07:25:07.540Z</time>
      </trkpt>
      <trkpt lat="45.80854" lon="6.75407">
        <ele>1865</ele>
        <time>2026-08-14T07:25:08.540Z</time>
      </trkpt>
      <trkpt lat="45.80854" lon="6.75409">
        <ele>1865</ele>
        <time>2026-08-14T07:25:09.540Z</time>
      </trkpt>
      <trkpt lat="45.80854" lon="6.75411">
        <ele>1866</ele>
        <time>2026-08-14T07:25:10.540Z</time>
      </trkpt>
      <trkpt lat="45.80853" lon="6.75412">
        <ele>1865</ele>
        <time>2026-08-14T07:25:11.540Z</time>
      </trkpt>
      <trkpt lat="45.80853" lon="6.75414">
        <ele>1865</ele>
        <time>2026-08-14T07:25:12.540Z</time>
      </trkpt>
      <trkpt lat="45.80853" lon="6.75416">
        <ele>1865</ele>
        <time>2026-08-14T07:25:13.540Z</time>
      </trkpt>
      <trkpt lat="45.80853" lon="6.75417">
        <ele>1865</ele>
        <time>2026-08-14T07:25:14.540Z</time>
      </trkpt>
      <trkpt lat="45.80853" lon="6.75419">
        <ele>1866</ele>
        <time>2026-08-14T07:25:15.540Z</time>
      </trkpt>
      <trkpt lat="45.80853" lon="6.7542">
        <ele>1866</ele>
        <time>2026-08-14T07:25:16.540Z</time>
      </trkpt>
      <trkpt lat="45.80853" lon="6.75422">
        <ele>1866</ele>
        <time>2026-08-14T07:25:17.540Z</time>
      </trkpt>
      <trkpt lat="45.80853" lon="6.75423">
        <ele>1866</ele>
        <time>2026-08-14T07:25:18.540Z</time>
      </trkpt>
      <trkpt lat="45.80853" lon="6.75425">
        <ele>1866</ele>
        <time>2026-08-14T07:25:19.540Z</time>
      </trkpt>
      <trkpt lat="45.80853" lon="6.75426">
        <ele>1867</ele>
        <time>2026-08-14T07:25:20.540Z</time>
      </trkpt>
      <trkpt lat="45.80853" lon="6.75428">
        <ele>1867</ele>
        <time>2026-08-14T07:25:21.540Z</time>
      </trkpt>
      <trkpt lat="45.80853" lon="6.7543">
        <ele>1867</ele>
        <time>2026-08-14T07:25:22.540Z</time>
      </trkpt>
      <trkpt lat="45.80853" lon="6.75431">
        <ele>1867</ele>
        <time>2026-08-14T07:25:23.540Z</time>
      </trkpt>
      <trkpt lat="45.80853" lon="6.75433">
        <ele>1867</ele>
        <time>2026-08-14T07:25:24.540Z</time>
      </trkpt>
      <trkpt lat="45.80853" lon="6.75434">
        <ele>1867</ele>
        <time>2026-08-14T07:25:25.540Z</time>
      </trkpt>
      <trkpt lat="45.80854" lon="6.75435">
        <ele>1868</ele>
        <time>2026-08-14T07:25:26.540Z</time>
      </trkpt>
      <trkpt lat="45.80854" lon="6.75437">
        <ele>1868</ele>
        <time>2026-08-14T07:25:27.540Z</time>
      </trkpt>
      <trkpt lat="45.80854" lon="6.75438">
        <ele>1868</ele>
        <time>2026-08-14T07:25:28.540Z</time>
      </trkpt>
      <trkpt lat="45.80854" lon="6.7544">
        <ele>1868</ele>
        <time>2026-08-14T07:25:29.540Z</time>
      </trkpt>
      <trkpt lat="45.80855" lon="6.75441">
        <ele>1868</ele>
        <time>2026-08-14T07:25:30.540Z</time>
      </trkpt>
      <trkpt lat="45.80854" lon="6.75443">
        <ele>1868</ele>
        <time>2026-08-14T07:25:31.540Z</time>
      </trkpt>
      <trkpt lat="45.80854" lon="6.75443">
        <ele>1868</ele>
        <time>2026-08-14T07:25:32.540Z</time>
      </trkpt>
      <trkpt lat="45.80854" lon="6.75444">
        <ele>1868</ele>
        <time>2026-08-14T07:25:33.540Z</time>
      </trkpt>
      <trkpt lat="45.80854" lon="6.75444">
        <ele>1868</ele>
        <time>2026-08-14T07:25:34.540Z</time>
      </trkpt>
      <trkpt lat="45.80853" lon="6.75444">
        <ele>1868</ele>
        <time>2026-08-14T07:25:35.540Z</time>
      </trkpt>
      <trkpt lat="45.80853" lon="6.75444">
        <ele>1868</ele>
        <time>2026-08-14T07:25:36.540Z</time>
      </trkpt>
      <trkpt lat="45.80853" lon="6.75444">
        <ele>1868</ele>
        <time>2026-08-14T07:25:37.540Z</time>
      </trkpt>
      <trkpt lat="45.80852" lon="6.75444">
        <ele>1869</ele>
        <time>2026-08-14T07:25:38.540Z</time>
      </trkpt>
      <trkpt lat="45.80851" lon="6.75445">
        <ele>1869</ele>
        <time>2026-08-14T07:25:39.540Z</time>
      </trkpt>
      <trkpt lat="45.8085" lon="6.75445">
        <ele>1869</ele>
        <time>2026-08-14T07:25:40.540Z</time>
      </trkpt>
      <trkpt lat="45.80849" lon="6.75446">
        <ele>1869</ele>
        <time>2026-08-14T07:25:41.540Z</time>
      </trkpt>
      <trkpt lat="45.80849" lon="6.75446">
        <ele>1869</ele>
        <time>2026-08-14T07:25:42.540Z</time>
      </trkpt>
      <trkpt lat="45.80848" lon="6.75446">
        <ele>1869</ele>
        <time>2026-08-14T07:25:43.540Z</time>
      </trkpt>
      <trkpt lat="45.80848" lon="6.75445">
        <ele>1869</ele>
        <time>2026-08-14T07:25:44.540Z</time>
      </trkpt>
      <trkpt lat="45.80847" lon="6.75445">
        <ele>1870</ele>
        <time>2026-08-14T07:25:45.540Z</time>
      </trkpt>
      <trkpt lat="45.80846" lon="6.75444">
        <ele>1870</ele>
        <time>2026-08-14T07:25:46.540Z</time>
      </trkpt>
      <trkpt lat="45.80845" lon="6.75443">
        <ele>1871</ele>
        <time>2026-08-14T07:25:47.540Z</time>
      </trkpt>
      <trkpt lat="45.80844" lon="6.75443">
        <ele>1871</ele>
        <time>2026-08-14T07:25:48.540Z</time>
      </trkpt>
      <trkpt lat="45.80844" lon="6.75442">
        <ele>1872</ele>
        <time>2026-08-14T07:25:49.540Z</time>
      </trkpt>
      <trkpt lat="45.80842" lon="6.75442">
        <ele>1872</ele>
        <time>2026-08-14T07:25:50.540Z</time>
      </trkpt>
      <trkpt lat="45.80841" lon="6.75442">
        <ele>1872</ele>
        <time>2026-08-14T07:25:51.540Z</time>
      </trkpt>
      <trkpt lat="45.8084" lon="6.75441">
        <ele>1872</ele>
        <time>2026-08-14T07:25:52.540Z</time>
      </trkpt>
      <trkpt lat="45.80839" lon="6.75442">
        <ele>1873</ele>
        <time>2026-08-14T07:25:53.540Z</time>
      </trkpt>
      <trkpt lat="45.80838" lon="6.75441">
        <ele>1873</ele>
        <time>2026-08-14T07:25:54.540Z</time>
      </trkpt>
      <trkpt lat="45.80837" lon="6.75441">
        <ele>1873</ele>
        <time>2026-08-14T07:25:55.540Z</time>
      </trkpt>
      <trkpt lat="45.80837" lon="6.75441">
        <ele>1874</ele>
        <time>2026-08-14T07:25:56.540Z</time>
      </trkpt>
      <trkpt lat="45.80836" lon="6.75441">
        <ele>1874</ele>
        <time>2026-08-14T07:25:57.540Z</time>
      </trkpt>
      <trkpt lat="45.80836" lon="6.75441">
        <ele>1875</ele>
        <time>2026-08-14T07:25:58.540Z</time>
      </trkpt>
      <trkpt lat="45.80836" lon="6.75441">
        <ele>1875</ele>
        <time>2026-08-14T07:25:59.540Z</time>
      </trkpt>
      <trkpt lat="45.80836" lon="6.75442">
        <ele>1875</ele>
        <time>2026-08-14T07:26:00.540Z</time>
      </trkpt>
      <trkpt lat="45.80836" lon="6.75442">
        <ele>1875</ele>
        <time>2026-08-14T07:26:01.540Z</time>
      </trkpt>
      <trkpt lat="45.80836" lon="6.75443">
        <ele>1876</ele>
        <time>2026-08-14T07:26:02.540Z</time>
      </trkpt>
      <trkpt lat="45.80836" lon="6.75444">
        <ele>1876</ele>
        <time>2026-08-14T07:26:03.540Z</time>
      </trkpt>
      <trkpt lat="45.80836" lon="6.75445">
        <ele>1877</ele>
        <time>2026-08-14T07:26:04.540Z</time>
      </trkpt>
      <trkpt lat="45.80835" lon="6.75446">
        <ele>1877</ele>
        <time>2026-08-14T07:26:05.540Z</time>
      </trkpt>
      <trkpt lat="45.80835" lon="6.75446">
        <ele>1878</ele>
        <time>2026-08-14T07:26:06.540Z</time>
      </trkpt>
      <trkpt lat="45.80834" lon="6.75446">
        <ele>1878</ele>
        <time>2026-08-14T07:26:07.540Z</time>
      </trkpt>
      <trkpt lat="45.80833" lon="6.75447">
        <ele>1879</ele>
        <time>2026-08-14T07:26:08.540Z</time>
      </trkpt>
      <trkpt lat="45.80832" lon="6.75447">
        <ele>1879</ele>
        <time>2026-08-14T07:26:09.540Z</time>
      </trkpt>
      <trkpt lat="45.80832" lon="6.75447">
        <ele>1879</ele>
        <time>2026-08-14T07:26:10.540Z</time>
      </trkpt>
      <trkpt lat="45.80831" lon="6.75446">
        <ele>1879</ele>
        <time>2026-08-14T07:26:11.540Z</time>
      </trkpt>
      <trkpt lat="45.8083" lon="6.75446">
        <ele>1879</ele>
        <time>2026-08-14T07:26:12.540Z</time>
      </trkpt>
      <trkpt lat="45.8083" lon="6.75446">
        <ele>1879</ele>
        <time>2026-08-14T07:26:13.540Z</time>
      </trkpt>
      <trkpt lat="45.80829" lon="6.75446">
        <ele>1879</ele>
        <time>2026-08-14T07:26:14.540Z</time>
      </trkpt>
      <trkpt lat="45.80829" lon="6.75446">
        <ele>1879</ele>
        <time>2026-08-14T07:26:15.540Z</time>
      </trkpt>
      <trkpt lat="45.80828" lon="6.75446">
        <ele>1879</ele>
        <time>2026-08-14T07:26:16.540Z</time>
      </trkpt>
      <trkpt lat="45.80828" lon="6.75446">
        <ele>1879</ele>
        <time>2026-08-14T07:26:17.540Z</time>
      </trkpt>
      <trkpt lat="45.80828" lon="6.75445">
        <ele>1879</ele>
        <time>2026-08-14T07:26:18.540Z</time>
      </trkpt>
      <trkpt lat="45.80828" lon="6.75445">
        <ele>1879</ele>
        <time>2026-08-14T07:26:19.540Z</time>
      </trkpt>
      <trkpt lat="45.80828" lon="6.75444">
        <ele>1879</ele>
        <time>2026-08-14T07:26:20.540Z</time>
      </trkpt>
      <trkpt lat="45.80827" lon="6.75444">
        <ele>1879</ele>
        <time>2026-08-14T07:26:21.540Z</time>
      </trkpt>
      <trkpt lat="45.80827" lon="6.75444">
        <ele>1879</ele>
        <time>2026-08-14T07:26:22.540Z</time>
      </trkpt>
      <trkpt lat="45.80827" lon="6.75444">
        <ele>1879</ele>
        <time>2026-08-14T07:26:23.540Z</time>
      </trkpt>
      <trkpt lat="45.80827" lon="6.75443">
        <ele>1879</ele>
        <time>2026-08-14T07:26:24.540Z</time>
      </trkpt>
      <trkpt lat="45.80826" lon="6.75443">
        <ele>1879</ele>
        <time>2026-08-14T07:26:25.540Z</time>
      </trkpt>
      <trkpt lat="45.80826" lon="6.75443">
        <ele>1879</ele>
        <time>2026-08-14T07:26:26.540Z</time>
      </trkpt>
      <trkpt lat="45.80826" lon="6.75443">
        <ele>1879</ele>
        <time>2026-08-14T07:26:27.540Z</time>
      </trkpt>
      <trkpt lat="45.80826" lon="6.75443">
        <ele>1879</ele>
        <time>2026-08-14T07:26:28.540Z</time>
      </trkpt>
      <trkpt lat="45.80825" lon="6.75443">
        <ele>1879</ele>
        <time>2026-08-14T07:26:29.540Z</time>
      </trkpt>
      <trkpt lat="45.80825" lon="6.75442">
        <ele>1879</ele>
        <time>2026-08-14T07:26:30.540Z</time>
      </trkpt>
      <trkpt lat="45.80825" lon="6.75442">
        <ele>1879</ele>
        <time>2026-08-14T07:26:31.540Z</time>
      </trkpt>
      <trkpt lat="45.80824" lon="6.75441">
        <ele>1880</ele>
        <time>2026-08-14T07:26:32.540Z</time>
      </trkpt>
      <trkpt lat="45.80824" lon="6.75441">
        <ele>1880</ele>
        <time>2026-08-14T07:26:33.540Z</time>
      </trkpt>
      <trkpt lat="45.80824" lon="6.75441">
        <ele>1880</ele>
        <time>2026-08-14T07:26:34.540Z</time>
      </trkpt>
      <trkpt lat="45.80824" lon="6.75441">
        <ele>1881</ele>
        <time>2026-08-14T07:26:35.540Z</time>
      </trkpt>
      <trkpt lat="45.80824" lon="6.75441">
        <ele>1881</ele>
        <time>2026-08-14T07:26:36.540Z</time>
      </trkpt>
      <trkpt lat="45.80825" lon="6.75441">
        <ele>1882</ele>
        <time>2026-08-14T07:26:37.540Z</time>
      </trkpt>
      <trkpt lat="45.80825" lon="6.75442">
        <ele>1882</ele>
        <time>2026-08-14T07:26:38.540Z</time>
      </trkpt>
      <trkpt lat="45.80825" lon="6.75442">
        <ele>1882</ele>
        <time>2026-08-14T07:26:39.540Z</time>
      </trkpt>
      <trkpt lat="45.80824" lon="6.75442">
        <ele>1882</ele>
        <time>2026-08-14T07:26:40.540Z</time>
      </trkpt>
      <trkpt lat="45.80824" lon="6.75441">
        <ele>1883</ele>
        <time>2026-08-14T07:26:41.540Z</time>
      </trkpt>
      <trkpt lat="45.80823" lon="6.75441">
        <ele>1883</ele>
        <time>2026-08-14T07:26:42.540Z</time>
      </trkpt>
      <trkpt lat="45.80823" lon="6.7544">
        <ele>1884</ele>
        <time>2026-08-14T07:26:43.540Z</time>
      </trkpt>
      <trkpt lat="45.80822" lon="6.75439">
        <ele>1884</ele>
        <time>2026-08-14T07:26:44.540Z</time>
      </trkpt>
      <trkpt lat="45.80822" lon="6.75438">
        <ele>1885</ele>
        <time>2026-08-14T07:26:45.540Z</time>
      </trkpt>
      <trkpt lat="45.80821" lon="6.75437">
        <ele>1886</ele>
        <time>2026-08-14T07:26:46.540Z</time>
      </trkpt>
      <trkpt lat="45.8082" lon="6.75437">
        <ele>1886</ele>
        <time>2026-08-14T07:26:47.540Z</time>
      </trkpt>
      <trkpt lat="45.8082" lon="6.75436">
        <ele>1886</ele>
        <time>2026-08-14T07:26:48.540Z</time>
      </trkpt>
      <trkpt lat="45.80819" lon="6.75435">
        <ele>1886</ele>
        <time>2026-08-14T07:26:49.540Z</time>
      </trkpt>
      <trkpt lat="45.80819" lon="6.75435">
        <ele>1886</ele>
        <time>2026-08-14T07:26:50.540Z</time>
      </trkpt>
      <trkpt lat="45.80817" lon="6.75434">
        <ele>1886</ele>
        <time>2026-08-14T07:26:51.540Z</time>
      </trkpt>
      <trkpt lat="45.80816" lon="6.75434">
        <ele>1886</ele>
        <time>2026-08-14T07:26:52.540Z</time>
      </trkpt>
      <trkpt lat="45.80815" lon="6.75432">
        <ele>1886</ele>
        <time>2026-08-14T07:26:53.540Z</time>
      </trkpt>
      <trkpt lat="45.80814" lon="6.75431">
        <ele>1886</ele>
        <time>2026-08-14T07:26:54.540Z</time>
      </trkpt>
      <trkpt lat="45.80814" lon="6.75429">
        <ele>1886</ele>
        <time>2026-08-14T07:26:55.540Z</time>
      </trkpt>
      <trkpt lat="45.80814" lon="6.75427">
        <ele>1887</ele>
        <time>2026-08-14T07:26:56.540Z</time>
      </trkpt>
      <trkpt lat="45.80813" lon="6.75426">
        <ele>1887</ele>
        <time>2026-08-14T07:26:57.540Z</time>
      </trkpt>
      <trkpt lat="45.80813" lon="6.75425">
        <ele>1887</ele>
        <time>2026-08-14T07:26:58.540Z</time>
      </trkpt>
      <trkpt lat="45.80813" lon="6.75424">
        <ele>1888</ele>
        <time>2026-08-14T07:26:59.540Z</time>
      </trkpt>
      <trkpt lat="45.80812" lon="6.75423">
        <ele>1888</ele>
        <time>2026-08-14T07:27:00.540Z</time>
      </trkpt>
      <trkpt lat="45.80812" lon="6.75422">
        <ele>1888</ele>
        <time>2026-08-14T07:27:01.540Z</time>
      </trkpt>
      <trkpt lat="45.80812" lon="6.75422">
        <ele>1889</ele>
        <time>2026-08-14T07:27:02.540Z</time>
      </trkpt>
      <trkpt lat="45.80811" lon="6.75421">
        <ele>1889</ele>
        <time>2026-08-14T07:27:03.540Z</time>
      </trkpt>
      <trkpt lat="45.80811" lon="6.7542">
        <ele>1889</ele>
        <time>2026-08-14T07:27:04.540Z</time>
      </trkpt>
      <trkpt lat="45.8081" lon="6.75419">
        <ele>1889</ele>
        <time>2026-08-14T07:27:05.540Z</time>
      </trkpt>
      <trkpt lat="45.80809" lon="6.75418">
        <ele>1889</ele>
        <time>2026-08-14T07:27:06.540Z</time>
      </trkpt>
      <trkpt lat="45.80808" lon="6.75416">
        <ele>1889</ele>
        <time>2026-08-14T07:27:07.540Z</time>
      </trkpt>
      <trkpt lat="45.80807" lon="6.75415">
        <ele>1889</ele>
        <time>2026-08-14T07:27:08.540Z</time>
      </trkpt>
      <trkpt lat="45.80806" lon="6.75414">
        <ele>1888</ele>
        <time>2026-08-14T07:27:09.540Z</time>
      </trkpt>
      <trkpt lat="45.80806" lon="6.75413">
        <ele>1888</ele>
        <time>2026-08-14T07:27:10.540Z</time>
      </trkpt>
      <trkpt lat="45.80805" lon="6.75412">
        <ele>1888</ele>
        <time>2026-08-14T07:27:11.540Z</time>
      </trkpt>
      <trkpt lat="45.80805" lon="6.7541">
        <ele>1888</ele>
        <time>2026-08-14T07:27:12.540Z</time>
      </trkpt>
      <trkpt lat="45.80805" lon="6.75409">
        <ele>1888</ele>
        <time>2026-08-14T07:27:13.540Z</time>
      </trkpt>
      <trkpt lat="45.80804" lon="6.75408">
        <ele>1888</ele>
        <time>2026-08-14T07:27:14.540Z</time>
      </trkpt>
      <trkpt lat="45.80803" lon="6.75407">
        <ele>1888</ele>
        <time>2026-08-14T07:27:15.540Z</time>
      </trkpt>
      <trkpt lat="45.80803" lon="6.75405">
        <ele>1888</ele>
        <time>2026-08-14T07:27:16.540Z</time>
      </trkpt>
      <trkpt lat="45.80802" lon="6.75403">
        <ele>1889</ele>
        <time>2026-08-14T07:27:17.540Z</time>
      </trkpt>
      <trkpt lat="45.80802" lon="6.75401">
        <ele>1889</ele>
        <time>2026-08-14T07:27:18.540Z</time>
      </trkpt>
      <trkpt lat="45.80802" lon="6.75399">
        <ele>1890</ele>
        <time>2026-08-14T07:27:19.540Z</time>
      </trkpt>
      <trkpt lat="45.80802" lon="6.75398">
        <ele>1890</ele>
        <time>2026-08-14T07:27:20.540Z</time>
      </trkpt>
      <trkpt lat="45.80802" lon="6.75396">
        <ele>1890</ele>
        <time>2026-08-14T07:27:21.540Z</time>
      </trkpt>
      <trkpt lat="45.80802" lon="6.75394">
        <ele>1890</ele>
        <time>2026-08-14T07:27:22.540Z</time>
      </trkpt>
      <trkpt lat="45.80803" lon="6.75393">
        <ele>1890</ele>
        <time>2026-08-14T07:27:23.540Z</time>
      </trkpt>
      <trkpt lat="45.80803" lon="6.75392">
        <ele>1891</ele>
        <time>2026-08-14T07:27:24.540Z</time>
      </trkpt>
      <trkpt lat="45.80803" lon="6.7539">
        <ele>1891</ele>
        <time>2026-08-14T07:27:25.540Z</time>
      </trkpt>
      <trkpt lat="45.80803" lon="6.75388">
        <ele>1891</ele>
        <time>2026-08-14T07:27:26.540Z</time>
      </trkpt>
      <trkpt lat="45.80803" lon="6.75387">
        <ele>1892</ele>
        <time>2026-08-14T07:27:27.540Z</time>
      </trkpt>
      <trkpt lat="45.80802" lon="6.75386">
        <ele>1892</ele>
        <time>2026-08-14T07:27:28.540Z</time>
      </trkpt>
      <trkpt lat="45.80802" lon="6.75384">
        <ele>1892</ele>
        <time>2026-08-14T07:27:29.540Z</time>
      </trkpt>
      <trkpt lat="45.80801" lon="6.75383">
        <ele>1892</ele>
        <time>2026-08-14T07:27:30.540Z</time>
      </trkpt>
      <trkpt lat="45.808" lon="6.75382">
        <ele>1893</ele>
        <time>2026-08-14T07:27:31.540Z</time>
      </trkpt>
      <trkpt lat="45.80799" lon="6.75381">
        <ele>1893</ele>
        <time>2026-08-14T07:27:32.540Z</time>
      </trkpt>
      <trkpt lat="45.80799" lon="6.7538">
        <ele>1893</ele>
        <time>2026-08-14T07:27:33.540Z</time>
      </trkpt>
      <trkpt lat="45.80798" lon="6.75378">
        <ele>1893</ele>
        <time>2026-08-14T07:27:34.540Z</time>
      </trkpt>
      <trkpt lat="45.80798" lon="6.75376">
        <ele>1893</ele>
        <time>2026-08-14T07:27:35.540Z</time>
      </trkpt>
      <trkpt lat="45.80798" lon="6.75374">
        <ele>1893</ele>
        <time>2026-08-14T07:27:36.540Z</time>
      </trkpt>
      <trkpt lat="45.80797" lon="6.75372">
        <ele>1894</ele>
        <time>2026-08-14T07:27:37.540Z</time>
      </trkpt>
      <trkpt lat="45.80797" lon="6.75371">
        <ele>1894</ele>
        <time>2026-08-14T07:27:38.540Z</time>
      </trkpt>
      <trkpt lat="45.80796" lon="6.75369">
        <ele>1894</ele>
        <time>2026-08-14T07:27:39.540Z</time>
      </trkpt>
      <trkpt lat="45.80796" lon="6.75368">
        <ele>1894</ele>
        <time>2026-08-14T07:27:40.540Z</time>
      </trkpt>
      <trkpt lat="45.80796" lon="6.75366">
        <ele>1894</ele>
        <time>2026-08-14T07:27:41.540Z</time>
      </trkpt>
      <trkpt lat="45.80796" lon="6.75364">
        <ele>1895</ele>
        <time>2026-08-14T07:27:42.540Z</time>
      </trkpt>
      <trkpt lat="45.80795" lon="6.75363">
        <ele>1895</ele>
        <time>2026-08-14T07:27:43.540Z</time>
      </trkpt>
      <trkpt lat="45.80795" lon="6.75362">
        <ele>1895</ele>
        <time>2026-08-14T07:27:44.540Z</time>
      </trkpt>
      <trkpt lat="45.80794" lon="6.7536">
        <ele>1895</ele>
        <time>2026-08-14T07:27:45.540Z</time>
      </trkpt>
      <trkpt lat="45.80794" lon="6.75358">
        <ele>1895</ele>
        <time>2026-08-14T07:27:46.540Z</time>
      </trkpt>
      <trkpt lat="45.80794" lon="6.75356">
        <ele>1895</ele>
        <time>2026-08-14T07:27:47.540Z</time>
      </trkpt>
      <trkpt lat="45.80794" lon="6.75354">
        <ele>1896</ele>
        <time>2026-08-14T07:27:48.540Z</time>
      </trkpt>
      <trkpt lat="45.80794" lon="6.75352">
        <ele>1896</ele>
        <time>2026-08-14T07:27:49.540Z</time>
      </trkpt>
      <trkpt lat="45.80793" lon="6.7535">
        <ele>1896</ele>
        <time>2026-08-14T07:27:50.540Z</time>
      </trkpt>
      <trkpt lat="45.80793" lon="6.75349">
        <ele>1897</ele>
        <time>2026-08-14T07:27:51.540Z</time>
      </trkpt>
      <trkpt lat="45.80793" lon="6.75347">
        <ele>1897</ele>
        <time>2026-08-14T07:27:52.540Z</time>
      </trkpt>
      <trkpt lat="45.80792" lon="6.75346">
        <ele>1897</ele>
        <time>2026-08-14T07:27:53.540Z</time>
      </trkpt>
      <trkpt lat="45.80792" lon="6.75344">
        <ele>1897</ele>
        <time>2026-08-14T07:27:54.540Z</time>
      </trkpt>
      <trkpt lat="45.80792" lon="6.75342">
        <ele>1898</ele>
        <time>2026-08-14T07:27:55.540Z</time>
      </trkpt>
      <trkpt lat="45.80791" lon="6.75341">
        <ele>1898</ele>
        <time>2026-08-14T07:27:56.540Z</time>
      </trkpt>
      <trkpt lat="45.80791" lon="6.75339">
        <ele>1898</ele>
        <time>2026-08-14T07:27:57.540Z</time>
      </trkpt>
      <trkpt lat="45.80791" lon="6.75337">
        <ele>1898</ele>
        <time>2026-08-14T07:27:58.540Z</time>
      </trkpt>
      <trkpt lat="45.80791" lon="6.75335">
        <ele>1898</ele>
        <time>2026-08-14T07:27:59.540Z</time>
      </trkpt>
      <trkpt lat="45.8079" lon="6.75333">
        <ele>1899</ele>
        <time>2026-08-14T07:28:00.540Z</time>
      </trkpt>
      <trkpt lat="45.8079" lon="6.75331">
        <ele>1899</ele>
        <time>2026-08-14T07:28:01.540Z</time>
      </trkpt>
      <trkpt lat="45.8079" lon="6.75329">
        <ele>1899</ele>
        <time>2026-08-14T07:28:02.540Z</time>
      </trkpt>
      <trkpt lat="45.8079" lon="6.75328">
        <ele>1899</ele>
        <time>2026-08-14T07:28:03.540Z</time>
      </trkpt>
      <trkpt lat="45.80789" lon="6.75326">
        <ele>1899</ele>
        <time>2026-08-14T07:28:04.540Z</time>
      </trkpt>
      <trkpt lat="45.80789" lon="6.75325">
        <ele>1899</ele>
        <time>2026-08-14T07:28:05.540Z</time>
      </trkpt>
      <trkpt lat="45.80788" lon="6.75324">
        <ele>1899</ele>
        <time>2026-08-14T07:28:06.540Z</time>
      </trkpt>
      <trkpt lat="45.80788" lon="6.75322">
        <ele>1900</ele>
        <time>2026-08-14T07:28:07.540Z</time>
      </trkpt>
      <trkpt lat="45.80788" lon="6.7532">
        <ele>1900</ele>
        <time>2026-08-14T07:28:08.540Z</time>
      </trkpt>
      <trkpt lat="45.80788" lon="6.75318">
        <ele>1900</ele>
        <time>2026-08-14T07:28:09.540Z</time>
      </trkpt>
      <trkpt lat="45.80787" lon="6.75317">
        <ele>1900</ele>
        <time>2026-08-14T07:28:10.540Z</time>
      </trkpt>
      <trkpt lat="45.80788" lon="6.75315">
        <ele>1901</ele>
        <time>2026-08-14T07:28:11.540Z</time>
      </trkpt>
      <trkpt lat="45.80787" lon="6.75313">
        <ele>1901</ele>
        <time>2026-08-14T07:28:12.540Z</time>
      </trkpt>
      <trkpt lat="45.80787" lon="6.75311">
        <ele>1901</ele>
        <time>2026-08-14T07:28:13.540Z</time>
      </trkpt>
      <trkpt lat="45.80787" lon="6.7531">
        <ele>1901</ele>
        <time>2026-08-14T07:28:14.540Z</time>
      </trkpt>
      <trkpt lat="45.80787" lon="6.75308">
        <ele>1902</ele>
        <time>2026-08-14T07:28:15.540Z</time>
      </trkpt>
      <trkpt lat="45.80788" lon="6.75306">
        <ele>1902</ele>
        <time>2026-08-14T07:28:16.540Z</time>
      </trkpt>
      <trkpt lat="45.80788" lon="6.75304">
        <ele>1902</ele>
        <time>2026-08-14T07:28:17.540Z</time>
      </trkpt>
      <trkpt lat="45.80788" lon="6.75302">
        <ele>1903</ele>
        <time>2026-08-14T07:28:18.540Z</time>
      </trkpt>
      <trkpt lat="45.80789" lon="6.75299">
        <ele>1903</ele>
        <time>2026-08-14T07:28:19.540Z</time>
      </trkpt>
      <trkpt lat="45.80789" lon="6.75297">
        <ele>1904</ele>
        <time>2026-08-14T07:28:20.540Z</time>
      </trkpt>
      <trkpt lat="45.80789" lon="6.75296">
        <ele>1904</ele>
        <time>2026-08-14T07:28:21.540Z</time>
      </trkpt>
      <trkpt lat="45.8079" lon="6.75295">
        <ele>1903</ele>
        <time>2026-08-14T07:28:22.540Z</time>
      </trkpt>
      <trkpt lat="45.8079" lon="6.75294">
        <ele>1903</ele>
        <time>2026-08-14T07:28:23.540Z</time>
      </trkpt>
      <trkpt lat="45.8079" lon="6.75293">
        <ele>1904</ele>
        <time>2026-08-14T07:28:24.540Z</time>
      </trkpt>
      <trkpt lat="45.8079" lon="6.75291">
        <ele>1904</ele>
        <time>2026-08-14T07:28:25.540Z</time>
      </trkpt>
      <trkpt lat="45.8079" lon="6.7529">
        <ele>1904</ele>
        <time>2026-08-14T07:28:26.540Z</time>
      </trkpt>
      <trkpt lat="45.8079" lon="6.75289">
        <ele>1905</ele>
        <time>2026-08-14T07:28:27.540Z</time>
      </trkpt>
      <trkpt lat="45.8079" lon="6.75287">
        <ele>1905</ele>
        <time>2026-08-14T07:28:28.540Z</time>
      </trkpt>
      <trkpt lat="45.80789" lon="6.75286">
        <ele>1905</ele>
        <time>2026-08-14T07:28:29.540Z</time>
      </trkpt>
      <trkpt lat="45.80789" lon="6.75284">
        <ele>1905</ele>
        <time>2026-08-14T07:28:30.540Z</time>
      </trkpt>
      <trkpt lat="45.80789" lon="6.75282">
        <ele>1905</ele>
        <time>2026-08-14T07:28:31.540Z</time>
      </trkpt>
      <trkpt lat="45.80789" lon="6.7528">
        <ele>1905</ele>
        <time>2026-08-14T07:28:32.540Z</time>
      </trkpt>
      <trkpt lat="45.80789" lon="6.75279">
        <ele>1906</ele>
        <time>2026-08-14T07:28:33.540Z</time>
      </trkpt>
      <trkpt lat="45.8079" lon="6.75277">
        <ele>1906</ele>
        <time>2026-08-14T07:28:34.540Z</time>
      </trkpt>
      <trkpt lat="45.80791" lon="6.75276">
        <ele>1906</ele>
        <time>2026-08-14T07:28:35.540Z</time>
      </trkpt>
      <trkpt lat="45.80792" lon="6.75274">
        <ele>1907</ele>
        <time>2026-08-14T07:28:36.540Z</time>
      </trkpt>
      <trkpt lat="45.80793" lon="6.75273">
        <ele>1907</ele>
        <time>2026-08-14T07:28:37.540Z</time>
      </trkpt>
      <trkpt lat="45.80794" lon="6.75273">
        <ele>1907</ele>
        <time>2026-08-14T07:28:38.540Z</time>
      </trkpt>
      <trkpt lat="45.80794" lon="6.75272">
        <ele>1907</ele>
        <time>2026-08-14T07:28:39.540Z</time>
      </trkpt>
      <trkpt lat="45.80794" lon="6.75272">
        <ele>1907</ele>
        <time>2026-08-14T07:28:40.540Z</time>
      </trkpt>
      <trkpt lat="45.80794" lon="6.75272">
        <ele>1907</ele>
        <time>2026-08-14T07:28:41.540Z</time>
      </trkpt>
      <trkpt lat="45.80794" lon="6.75272">
        <ele>1907</ele>
        <time>2026-08-14T07:28:42.540Z</time>
      </trkpt>
      <trkpt lat="45.80794" lon="6.75272">
        <ele>1907</ele>
        <time>2026-08-14T07:28:43.540Z</time>
      </trkpt>
      <trkpt lat="45.80794" lon="6.75272">
        <ele>1907</ele>
        <time>2026-08-14T07:28:44.540Z</time>
      </trkpt>
      <trkpt lat="45.80794" lon="6.75272">
        <ele>1907</ele>
        <time>2026-08-14T07:28:45.540Z</time>
      </trkpt>
      <trkpt lat="45.80794" lon="6.75272">
        <ele>1906</ele>
        <time>2026-08-14T07:28:46.540Z</time>
      </trkpt>
      <trkpt lat="45.80794" lon="6.75272">
        <ele>1906</ele>
        <time>2026-08-14T07:28:47.540Z</time>
      </trkpt>
      <trkpt lat="45.80794" lon="6.75272">
        <ele>1906</ele>
        <time>2026-08-14T07:28:48.540Z</time>
      </trkpt>
      <trkpt lat="45.80794" lon="6.75271">
        <ele>1906</ele>
        <time>2026-08-14T07:28:49.540Z</time>
      </trkpt>
      <trkpt lat="45.80795" lon="6.7527">
        <ele>1906</ele>
        <time>2026-08-14T07:28:50.540Z</time>
      </trkpt>
      <trkpt lat="45.80795" lon="6.7527">
        <ele>1906</ele>
        <time>2026-08-14T07:28:51.540Z</time>
      </trkpt>
      <trkpt lat="45.80797" lon="6.75269">
        <ele>1906</ele>
        <time>2026-08-14T07:28:52.540Z</time>
      </trkpt>
      <trkpt lat="45.80798" lon="6.75268">
        <ele>1907</ele>
        <time>2026-08-14T07:28:53.540Z</time>
      </trkpt>
      <trkpt lat="45.808" lon="6.75267">
        <ele>1907</ele>
        <time>2026-08-14T07:28:54.540Z</time>
      </trkpt>
      <trkpt lat="45.80802" lon="6.75266">
        <ele>1908</ele>
        <time>2026-08-14T07:28:55.540Z</time>
      </trkpt>
      <trkpt lat="45.80803" lon="6.75265">
        <ele>1908</ele>
        <time>2026-08-14T07:28:56.540Z</time>
      </trkpt>
      <trkpt lat="45.80805" lon="6.75263">
        <ele>1909</ele>
        <time>2026-08-14T07:28:57.540Z</time>
      </trkpt>
      <trkpt lat="45.80806" lon="6.75261">
        <ele>1909</ele>
        <time>2026-08-14T07:28:58.540Z</time>
      </trkpt>
      <trkpt lat="45.80808" lon="6.75259">
        <ele>1909</ele>
        <time>2026-08-14T07:28:59.540Z</time>
      </trkpt>
      <trkpt lat="45.80809" lon="6.75257">
        <ele>1910</ele>
        <time>2026-08-14T07:29:00.540Z</time>
      </trkpt>
      <trkpt lat="45.8081" lon="6.75254">
        <ele>1910</ele>
        <time>2026-08-14T07:29:01.540Z</time>
      </trkpt>
      <trkpt lat="45.80811" lon="6.75252">
        <ele>1910</ele>
        <time>2026-08-14T07:29:02.540Z</time>
      </trkpt>
      <trkpt lat="45.80812" lon="6.75249">
        <ele>1910</ele>
        <time>2026-08-14T07:29:03.540Z</time>
      </trkpt>
      <trkpt lat="45.80813" lon="6.75247">
        <ele>1910</ele>
        <time>2026-08-14T07:29:04.540Z</time>
      </trkpt>
      <trkpt lat="45.80814" lon="6.75245">
        <ele>1911</ele>
        <time>2026-08-14T07:29:05.540Z</time>
      </trkpt>
      <trkpt lat="45.80816" lon="6.75244">
        <ele>1911</ele>
        <time>2026-08-14T07:29:06.540Z</time>
      </trkpt>
      <trkpt lat="45.80817" lon="6.75242">
        <ele>1911</ele>
        <time>2026-08-14T07:29:07.540Z</time>
      </trkpt>
      <trkpt lat="45.80818" lon="6.75241">
        <ele>1911</ele>
        <time>2026-08-14T07:29:08.540Z</time>
      </trkpt>
      <trkpt lat="45.80819" lon="6.75239">
        <ele>1910</ele>
        <time>2026-08-14T07:29:09.540Z</time>
      </trkpt>
      <trkpt lat="45.80819" lon="6.75237">
        <ele>1910</ele>
        <time>2026-08-14T07:29:10.540Z</time>
      </trkpt>
      <trkpt lat="45.80819" lon="6.75235">
        <ele>1910</ele>
        <time>2026-08-14T07:29:11.540Z</time>
      </trkpt>
      <trkpt lat="45.8082" lon="6.75232">
        <ele>1909</ele>
        <time>2026-08-14T07:29:12.540Z</time>
      </trkpt>
      <trkpt lat="45.80821" lon="6.7523">
        <ele>1909</ele>
        <time>2026-08-14T07:29:13.540Z</time>
      </trkpt>
      <trkpt lat="45.80822" lon="6.75228">
        <ele>1909</ele>
        <time>2026-08-14T07:29:14.540Z</time>
      </trkpt>
      <trkpt lat="45.80823" lon="6.75225">
        <ele>1909</ele>
        <time>2026-08-14T07:29:15.540Z</time>
      </trkpt>
      <trkpt lat="45.80824" lon="6.75223">
        <ele>1909</ele>
        <time>2026-08-14T07:29:16.540Z</time>
      </trkpt>
      <trkpt lat="45.80824" lon="6.75221">
        <ele>1909</ele>
        <time>2026-08-14T07:29:17.540Z</time>
      </trkpt>
      <trkpt lat="45.80825" lon="6.75219">
        <ele>1909</ele>
        <time>2026-08-14T07:29:18.540Z</time>
      </trkpt>
      <trkpt lat="45.80826" lon="6.75217">
        <ele>1908</ele>
        <time>2026-08-14T07:29:19.540Z</time>
      </trkpt>
      <trkpt lat="45.80828" lon="6.75214">
        <ele>1908</ele>
        <time>2026-08-14T07:29:20.540Z</time>
      </trkpt>
      <trkpt lat="45.80829" lon="6.75212">
        <ele>1908</ele>
        <time>2026-08-14T07:29:21.540Z</time>
      </trkpt>
      <trkpt lat="45.8083" lon="6.7521">
        <ele>1908</ele>
        <time>2026-08-14T07:29:22.540Z</time>
      </trkpt>
      <trkpt lat="45.80832" lon="6.75208">
        <ele>1908</ele>
        <time>2026-08-14T07:29:23.540Z</time>
      </trkpt>
      <trkpt lat="45.80833" lon="6.75205">
        <ele>1908</ele>
        <time>2026-08-14T07:29:24.540Z</time>
      </trkpt>
      <trkpt lat="45.80835" lon="6.75203">
        <ele>1908</ele>
        <time>2026-08-14T07:29:25.540Z</time>
      </trkpt>
      <trkpt lat="45.80836" lon="6.75202">
        <ele>1908</ele>
        <time>2026-08-14T07:29:26.540Z</time>
      </trkpt>
      <trkpt lat="45.80838" lon="6.75201">
        <ele>1908</ele>
        <time>2026-08-14T07:29:27.540Z</time>
      </trkpt>
      <trkpt lat="45.80839" lon="6.75199">
        <ele>1909</ele>
        <time>2026-08-14T07:29:28.540Z</time>
      </trkpt>
      <trkpt lat="45.8084" lon="6.75197">
        <ele>1909</ele>
        <time>2026-08-14T07:29:29.540Z</time>
      </trkpt>
      <trkpt lat="45.80841" lon="6.75196">
        <ele>1909</ele>
        <time>2026-08-14T07:29:30.540Z</time>
      </trkpt>
      <trkpt lat="45.80842" lon="6.75194">
        <ele>1909</ele>
        <time>2026-08-14T07:29:31.540Z</time>
      </trkpt>
      <trkpt lat="45.80844" lon="6.75192">
        <ele>1909</ele>
        <time>2026-08-14T07:29:32.540Z</time>
      </trkpt>
      <trkpt lat="45.80845" lon="6.75191">
        <ele>1909</ele>
        <time>2026-08-14T07:29:33.540Z</time>
      </trkpt>
      <trkpt lat="45.80847" lon="6.75189">
        <ele>1909</ele>
        <time>2026-08-14T07:29:34.540Z</time>
      </trkpt>
      <trkpt lat="45.80847" lon="6.75187">
        <ele>1909</ele>
        <time>2026-08-14T07:29:35.540Z</time>
      </trkpt>
      <trkpt lat="45.80848" lon="6.75185">
        <ele>1908</ele>
        <time>2026-08-14T07:29:36.540Z</time>
      </trkpt>
      <trkpt lat="45.80848" lon="6.75184">
        <ele>1908</ele>
        <time>2026-08-14T07:29:37.540Z</time>
      </trkpt>
      <trkpt lat="45.80849" lon="6.75183">
        <ele>1907</ele>
        <time>2026-08-14T07:29:38.540Z</time>
      </trkpt>
      <trkpt lat="45.80849" lon="6.75182">
        <ele>1907</ele>
        <time>2026-08-14T07:29:39.540Z</time>
      </trkpt>
      <trkpt lat="45.8085" lon="6.75181">
        <ele>1907</ele>
        <time>2026-08-14T07:29:40.540Z</time>
      </trkpt>
      <trkpt lat="45.80851" lon="6.7518">
        <ele>1907</ele>
        <time>2026-08-14T07:29:41.540Z</time>
      </trkpt>
      <trkpt lat="45.80852" lon="6.75179">
        <ele>1907</ele>
        <time>2026-08-14T07:29:42.540Z</time>
      </trkpt>
      <trkpt lat="45.80853" lon="6.75177">
        <ele>1907</ele>
        <time>2026-08-14T07:29:43.540Z</time>
      </trkpt>
      <trkpt lat="45.80853" lon="6.75176">
        <ele>1906</ele>
        <time>2026-08-14T07:29:44.540Z</time>
      </trkpt>
      <trkpt lat="45.80854" lon="6.75175">
        <ele>1906</ele>
        <time>2026-08-14T07:29:45.540Z</time>
      </trkpt>
      <trkpt lat="45.80855" lon="6.75174">
        <ele>1906</ele>
        <time>2026-08-14T07:29:46.540Z</time>
      </trkpt>
      <trkpt lat="45.80855" lon="6.75172">
        <ele>1906</ele>
        <time>2026-08-14T07:29:47.540Z</time>
      </trkpt>
      <trkpt lat="45.80856" lon="6.75171">
        <ele>1906</ele>
        <time>2026-08-14T07:29:48.540Z</time>
      </trkpt>
      <trkpt lat="45.80856" lon="6.75169">
        <ele>1905</ele>
        <time>2026-08-14T07:29:49.540Z</time>
      </trkpt>
      <trkpt lat="45.80857" lon="6.75167">
        <ele>1905</ele>
        <time>2026-08-14T07:29:50.540Z</time>
      </trkpt>
      <trkpt lat="45.80857" lon="6.75165">
        <ele>1905</ele>
        <time>2026-08-14T07:29:51.540Z</time>
      </trkpt>
      <trkpt lat="45.80858" lon="6.75163">
        <ele>1904</ele>
        <time>2026-08-14T07:29:52.540Z</time>
      </trkpt>
      <trkpt lat="45.80859" lon="6.75161">
        <ele>1904</ele>
        <time>2026-08-14T07:29:53.540Z</time>
      </trkpt>
      <trkpt lat="45.80859" lon="6.75159">
        <ele>1904</ele>
        <time>2026-08-14T07:29:54.540Z</time>
      </trkpt>
      <trkpt lat="45.80859" lon="6.75157">
        <ele>1903</ele>
        <time>2026-08-14T07:29:55.540Z</time>
      </trkpt>
      <trkpt lat="45.8086" lon="6.75156">
        <ele>1903</ele>
        <time>2026-08-14T07:29:56.540Z</time>
      </trkpt>
      <trkpt lat="45.80861" lon="6.75154">
        <ele>1902</ele>
        <time>2026-08-14T07:29:57.540Z</time>
      </trkpt>
      <trkpt lat="45.80862" lon="6.75153">
        <ele>1902</ele>
        <time>2026-08-14T07:29:58.540Z</time>
      </trkpt>
      <trkpt lat="45.80863" lon="6.75151">
        <ele>1901</ele>
        <time>2026-08-14T07:29:59.540Z</time>
      </trkpt>
      <trkpt lat="45.80864" lon="6.7515">
        <ele>1901</ele>
        <time>2026-08-14T07:30:00.540Z</time>
      </trkpt>
      <trkpt lat="45.80865" lon="6.75148">
        <ele>1901</ele>
        <time>2026-08-14T07:30:01.540Z</time>
      </trkpt>
      <trkpt lat="45.80866" lon="6.75147">
        <ele>1900</ele>
        <time>2026-08-14T07:30:02.540Z</time>
      </trkpt>
      <trkpt lat="45.80866" lon="6.75145">
        <ele>1900</ele>
        <time>2026-08-14T07:30:03.540Z</time>
      </trkpt>
      <trkpt lat="45.80867" lon="6.75143">
        <ele>1900</ele>
        <time>2026-08-14T07:30:04.540Z</time>
      </trkpt>
      <trkpt lat="45.80867" lon="6.75141">
        <ele>1901</ele>
        <time>2026-08-14T07:30:05.540Z</time>
      </trkpt>
      <trkpt lat="45.80867" lon="6.75139">
        <ele>1901</ele>
        <time>2026-08-14T07:30:06.540Z</time>
      </trkpt>
      <trkpt lat="45.80867" lon="6.75137">
        <ele>1900</ele>
        <time>2026-08-14T07:30:07.540Z</time>
      </trkpt>
      <trkpt lat="45.80866" lon="6.75134">
        <ele>1900</ele>
        <time>2026-08-14T07:30:08.540Z</time>
      </trkpt>
      <trkpt lat="45.80866" lon="6.75132">
        <ele>1900</ele>
        <time>2026-08-14T07:30:09.540Z</time>
      </trkpt>
      <trkpt lat="45.80866" lon="6.75129">
        <ele>1900</ele>
        <time>2026-08-14T07:30:10.540Z</time>
      </trkpt>
      <trkpt lat="45.80866" lon="6.75126">
        <ele>1900</ele>
        <time>2026-08-14T07:30:11.540Z</time>
      </trkpt>
      <trkpt lat="45.80866" lon="6.75124">
        <ele>1900</ele>
        <time>2026-08-14T07:30:12.540Z</time>
      </trkpt>
      <trkpt lat="45.80867" lon="6.75121">
        <ele>1900</ele>
        <time>2026-08-14T07:30:13.540Z</time>
      </trkpt>
      <trkpt lat="45.80867" lon="6.75119">
        <ele>1900</ele>
        <time>2026-08-14T07:30:14.540Z</time>
      </trkpt>
      <trkpt lat="45.80868" lon="6.75116">
        <ele>1900</ele>
        <time>2026-08-14T07:30:15.540Z</time>
      </trkpt>
      <trkpt lat="45.80869" lon="6.75115">
        <ele>1900</ele>
        <time>2026-08-14T07:30:16.540Z</time>
      </trkpt>
      <trkpt lat="45.80869" lon="6.75114">
        <ele>1900</ele>
        <time>2026-08-14T07:30:17.540Z</time>
      </trkpt>
      <trkpt lat="45.80871" lon="6.75113">
        <ele>1900</ele>
        <time>2026-08-14T07:30:18.540Z</time>
      </trkpt>
      <trkpt lat="45.80872" lon="6.75111">
        <ele>1899</ele>
        <time>2026-08-14T07:30:19.540Z</time>
      </trkpt>
      <trkpt lat="45.80873" lon="6.7511">
        <ele>1899</ele>
        <time>2026-08-14T07:30:20.540Z</time>
      </trkpt>
      <trkpt lat="45.80874" lon="6.75108">
        <ele>1899</ele>
        <time>2026-08-14T07:30:21.540Z</time>
      </trkpt>
      <trkpt lat="45.80875" lon="6.75107">
        <ele>1898</ele>
        <time>2026-08-14T07:30:22.540Z</time>
      </trkpt>
      <trkpt lat="45.80876" lon="6.75105">
        <ele>1898</ele>
        <time>2026-08-14T07:30:23.540Z</time>
      </trkpt>
      <trkpt lat="45.80877" lon="6.75103">
        <ele>1898</ele>
        <time>2026-08-14T07:30:24.540Z</time>
      </trkpt>
      <trkpt lat="45.80878" lon="6.75102">
        <ele>1898</ele>
        <time>2026-08-14T07:30:25.540Z</time>
      </trkpt>
      <trkpt lat="45.80879" lon="6.751">
        <ele>1898</ele>
        <time>2026-08-14T07:30:26.540Z</time>
      </trkpt>
      <trkpt lat="45.8088" lon="6.75099">
        <ele>1898</ele>
        <time>2026-08-14T07:30:27.540Z</time>
      </trkpt>
      <trkpt lat="45.8088" lon="6.75097">
        <ele>1898</ele>
        <time>2026-08-14T07:30:28.540Z</time>
      </trkpt>
      <trkpt lat="45.8088" lon="6.75095">
        <ele>1898</ele>
        <time>2026-08-14T07:30:29.540Z</time>
      </trkpt>
      <trkpt lat="45.8088" lon="6.75093">
        <ele>1898</ele>
        <time>2026-08-14T07:30:30.540Z</time>
      </trkpt>
      <trkpt lat="45.8088" lon="6.75091">
        <ele>1898</ele>
        <time>2026-08-14T07:30:31.540Z</time>
      </trkpt>
      <trkpt lat="45.8088" lon="6.75089">
        <ele>1898</ele>
        <time>2026-08-14T07:30:32.540Z</time>
      </trkpt>
      <trkpt lat="45.80881" lon="6.75085">
        <ele>1898</ele>
        <time>2026-08-14T07:30:33.540Z</time>
      </trkpt>
      <trkpt lat="45.80881" lon="6.75082">
        <ele>1898</ele>
        <time>2026-08-14T07:30:34.540Z</time>
      </trkpt>
      <trkpt lat="45.80881" lon="6.7508">
        <ele>1898</ele>
        <time>2026-08-14T07:30:35.540Z</time>
      </trkpt>
      <trkpt lat="45.80882" lon="6.75078">
        <ele>1897</ele>
        <time>2026-08-14T07:30:36.540Z</time>
      </trkpt>
      <trkpt lat="45.80883" lon="6.75076">
        <ele>1897</ele>
        <time>2026-08-14T07:30:37.540Z</time>
      </trkpt>
      <trkpt lat="45.80883" lon="6.75074">
        <ele>1897</ele>
        <time>2026-08-14T07:30:38.540Z</time>
      </trkpt>
      <trkpt lat="45.80884" lon="6.75072">
        <ele>1898</ele>
        <time>2026-08-14T07:30:39.540Z</time>
      </trkpt>
      <trkpt lat="45.80885" lon="6.7507">
        <ele>1898</ele>
        <time>2026-08-14T07:30:40.540Z</time>
      </trkpt>
      <trkpt lat="45.80886" lon="6.75068">
        <ele>1898</ele>
        <time>2026-08-14T07:30:41.540Z</time>
      </trkpt>
      <trkpt lat="45.80887" lon="6.75066">
        <ele>1899</ele>
        <time>2026-08-14T07:30:42.540Z</time>
      </trkpt>
      <trkpt lat="45.80887" lon="6.75064">
        <ele>1899</ele>
        <time>2026-08-14T07:30:43.540Z</time>
      </trkpt>
      <trkpt lat="45.80887" lon="6.75061">
        <ele>1899</ele>
        <time>2026-08-14T07:30:44.540Z</time>
      </trkpt>
      <trkpt lat="45.80887" lon="6.75058">
        <ele>1899</ele>
        <time>2026-08-14T07:30:45.540Z</time>
      </trkpt>
      <trkpt lat="45.80888" lon="6.75055">
        <ele>1899</ele>
        <time>2026-08-14T07:30:46.540Z</time>
      </trkpt>
      <trkpt lat="45.80889" lon="6.75052">
        <ele>1900</ele>
        <time>2026-08-14T07:30:47.540Z</time>
      </trkpt>
      <trkpt lat="45.80889" lon="6.75049">
        <ele>1900</ele>
        <time>2026-08-14T07:30:48.540Z</time>
      </trkpt>
      <trkpt lat="45.80889" lon="6.75047">
        <ele>1900</ele>
        <time>2026-08-14T07:30:49.540Z</time>
      </trkpt>
      <trkpt lat="45.80888" lon="6.75045">
        <ele>1900</ele>
        <time>2026-08-14T07:30:50.540Z</time>
      </trkpt>
      <trkpt lat="45.80887" lon="6.75042">
        <ele>1900</ele>
        <time>2026-08-14T07:30:51.540Z</time>
      </trkpt>
      <trkpt lat="45.80887" lon="6.7504">
        <ele>1900</ele>
        <time>2026-08-14T07:30:52.540Z</time>
      </trkpt>
      <trkpt lat="45.80887" lon="6.75037">
        <ele>1900</ele>
        <time>2026-08-14T07:30:53.540Z</time>
      </trkpt>
      <trkpt lat="45.80887" lon="6.75034">
        <ele>1901</ele>
        <time>2026-08-14T07:30:54.540Z</time>
      </trkpt>
      <trkpt lat="45.80888" lon="6.75031">
        <ele>1901</ele>
        <time>2026-08-14T07:30:55.540Z</time>
      </trkpt>
      <trkpt lat="45.80888" lon="6.75029">
        <ele>1901</ele>
        <time>2026-08-14T07:30:56.540Z</time>
      </trkpt>
      <trkpt lat="45.80889" lon="6.75026">
        <ele>1902</ele>
        <time>2026-08-14T07:30:57.540Z</time>
      </trkpt>
      <trkpt lat="45.8089" lon="6.75024">
        <ele>1902</ele>
        <time>2026-08-14T07:30:58.540Z</time>
      </trkpt>
      <trkpt lat="45.8089" lon="6.75022">
        <ele>1902</ele>
        <time>2026-08-14T07:30:59.540Z</time>
      </trkpt>
      <trkpt lat="45.80891" lon="6.7502">
        <ele>1903</ele>
        <time>2026-08-14T07:31:00.540Z</time>
      </trkpt>
      <trkpt lat="45.80891" lon="6.75017">
        <ele>1903</ele>
        <time>2026-08-14T07:31:01.540Z</time>
      </trkpt>
      <trkpt lat="45.80892" lon="6.75015">
        <ele>1903</ele>
        <time>2026-08-14T07:31:02.540Z</time>
      </trkpt>
      <trkpt lat="45.80893" lon="6.75012">
        <ele>1903</ele>
        <time>2026-08-14T07:31:03.540Z</time>
      </trkpt>
      <trkpt lat="45.80893" lon="6.75009">
        <ele>1903</ele>
        <time>2026-08-14T07:31:04.540Z</time>
      </trkpt>
      <trkpt lat="45.80893" lon="6.75006">
        <ele>1903</ele>
        <time>2026-08-14T07:31:05.540Z</time>
      </trkpt>
      <trkpt lat="45.80893" lon="6.75004">
        <ele>1902</ele>
        <time>2026-08-14T07:31:06.540Z</time>
      </trkpt>
      <trkpt lat="45.80893" lon="6.75002">
        <ele>1902</ele>
        <time>2026-08-14T07:31:07.540Z</time>
      </trkpt>
      <trkpt lat="45.80893" lon="6.75">
        <ele>1902</ele>
        <time>2026-08-14T07:31:08.540Z</time>
      </trkpt>
      <trkpt lat="45.80893" lon="6.74998">
        <ele>1901</ele>
        <time>2026-08-14T07:31:09.540Z</time>
      </trkpt>
      <trkpt lat="45.80893" lon="6.74995">
        <ele>1902</ele>
        <time>2026-08-14T07:31:10.540Z</time>
      </trkpt>
      <trkpt lat="45.80894" lon="6.74993">
        <ele>1902</ele>
        <time>2026-08-14T07:31:11.540Z</time>
      </trkpt>
      <trkpt lat="45.80893" lon="6.74991">
        <ele>1902</ele>
        <time>2026-08-14T07:31:12.540Z</time>
      </trkpt>
      <trkpt lat="45.80892" lon="6.74989">
        <ele>1902</ele>
        <time>2026-08-14T07:31:13.540Z</time>
      </trkpt>
      <trkpt lat="45.80891" lon="6.74987">
        <ele>1902</ele>
        <time>2026-08-14T07:31:14.540Z</time>
      </trkpt>
      <trkpt lat="45.80891" lon="6.74985">
        <ele>1902</ele>
        <time>2026-08-14T07:31:15.540Z</time>
      </trkpt>
      <trkpt lat="45.80891" lon="6.74984">
        <ele>1903</ele>
        <time>2026-08-14T07:31:16.540Z</time>
      </trkpt>
      <trkpt lat="45.80892" lon="6.74982">
        <ele>1903</ele>
        <time>2026-08-14T07:31:17.540Z</time>
      </trkpt>
      <trkpt lat="45.80892" lon="6.7498">
        <ele>1903</ele>
        <time>2026-08-14T07:31:18.540Z</time>
      </trkpt>
      <trkpt lat="45.80891" lon="6.74978">
        <ele>1903</ele>
        <time>2026-08-14T07:31:19.540Z</time>
      </trkpt>
      <trkpt lat="45.80891" lon="6.74975">
        <ele>1903</ele>
        <time>2026-08-14T07:31:20.540Z</time>
      </trkpt>
      <trkpt lat="45.8089" lon="6.74972">
        <ele>1903</ele>
        <time>2026-08-14T07:31:21.540Z</time>
      </trkpt>
      <trkpt lat="45.8089" lon="6.7497">
        <ele>1903</ele>
        <time>2026-08-14T07:31:22.540Z</time>
      </trkpt>
      <trkpt lat="45.80889" lon="6.74968">
        <ele>1902</ele>
        <time>2026-08-14T07:31:23.540Z</time>
      </trkpt>
      <trkpt lat="45.80889" lon="6.74966">
        <ele>1902</ele>
        <time>2026-08-14T07:31:24.540Z</time>
      </trkpt>
      <trkpt lat="45.80889" lon="6.74965">
        <ele>1902</ele>
        <time>2026-08-14T07:31:25.540Z</time>
      </trkpt>
      <trkpt lat="45.80889" lon="6.74964">
        <ele>1902</ele>
        <time>2026-08-14T07:31:26.540Z</time>
      </trkpt>
      <trkpt lat="45.8089" lon="6.74963">
        <ele>1902</ele>
        <time>2026-08-14T07:31:27.540Z</time>
      </trkpt>
      <trkpt lat="45.8089" lon="6.74962">
        <ele>1902</ele>
        <time>2026-08-14T07:31:28.540Z</time>
      </trkpt>
      <trkpt lat="45.8089" lon="6.74962">
        <ele>1901</ele>
        <time>2026-08-14T07:31:29.540Z</time>
      </trkpt>
      <trkpt lat="45.8089" lon="6.74961">
        <ele>1901</ele>
        <time>2026-08-14T07:31:30.540Z</time>
      </trkpt>
      <trkpt lat="45.80891" lon="6.74961">
        <ele>1902</ele>
        <time>2026-08-14T07:31:31.540Z</time>
      </trkpt>
      <trkpt lat="45.80892" lon="6.7496">
        <ele>1902</ele>
        <time>2026-08-14T07:31:32.540Z</time>
      </trkpt>
      <trkpt lat="45.80894" lon="6.74959">
        <ele>1902</ele>
        <time>2026-08-14T07:31:33.540Z</time>
      </trkpt>
      <trkpt lat="45.80896" lon="6.74958">
        <ele>1903</ele>
        <time>2026-08-14T07:31:34.540Z</time>
      </trkpt>
      <trkpt lat="45.80898" lon="6.74957">
        <ele>1903</ele>
        <time>2026-08-14T07:31:35.540Z</time>
      </trkpt>
      <trkpt lat="45.809" lon="6.74955">
        <ele>1903</ele>
        <time>2026-08-14T07:31:36.540Z</time>
      </trkpt>
      <trkpt lat="45.80902" lon="6.74953">
        <ele>1903</ele>
        <time>2026-08-14T07:31:37.540Z</time>
      </trkpt>
      <trkpt lat="45.80904" lon="6.74951">
        <ele>1903</ele>
        <time>2026-08-14T07:31:38.540Z</time>
      </trkpt>
      <trkpt lat="45.80906" lon="6.74948">
        <ele>1903</ele>
        <time>2026-08-14T07:31:39.540Z</time>
      </trkpt>
      <trkpt lat="45.80907" lon="6.74946">
        <ele>1903</ele>
        <time>2026-08-14T07:31:40.540Z</time>
      </trkpt>
      <trkpt lat="45.80907" lon="6.74943">
        <ele>1903</ele>
        <time>2026-08-14T07:31:41.540Z</time>
      </trkpt>
      <trkpt lat="45.80907" lon="6.7494">
        <ele>1903</ele>
        <time>2026-08-14T07:31:42.540Z</time>
      </trkpt>
      <trkpt lat="45.80907" lon="6.74937">
        <ele>1903</ele>
        <time>2026-08-14T07:31:43.540Z</time>
      </trkpt>
      <trkpt lat="45.80908" lon="6.74933">
        <ele>1903</ele>
        <time>2026-08-14T07:31:44.540Z</time>
      </trkpt>
      <trkpt lat="45.80909" lon="6.7493">
        <ele>1903</ele>
        <time>2026-08-14T07:31:45.540Z</time>
      </trkpt>
      <trkpt lat="45.8091" lon="6.74928">
        <ele>1903</ele>
        <time>2026-08-14T07:31:46.540Z</time>
      </trkpt>
      <trkpt lat="45.8091" lon="6.74926">
        <ele>1903</ele>
        <time>2026-08-14T07:31:47.540Z</time>
      </trkpt>
      <trkpt lat="45.8091" lon="6.74924">
        <ele>1903</ele>
        <time>2026-08-14T07:31:48.540Z</time>
      </trkpt>
      <trkpt lat="45.80911" lon="6.74922">
        <ele>1902</ele>
        <time>2026-08-14T07:31:49.540Z</time>
      </trkpt>
      <trkpt lat="45.80912" lon="6.74921">
        <ele>1902</ele>
        <time>2026-08-14T07:31:50.540Z</time>
      </trkpt>
      <trkpt lat="45.80913" lon="6.7492">
        <ele>1901</ele>
        <time>2026-08-14T07:31:51.540Z</time>
      </trkpt>
      <trkpt lat="45.80913" lon="6.74919">
        <ele>1901</ele>
        <time>2026-08-14T07:31:52.540Z</time>
      </trkpt>
      <trkpt lat="45.80913" lon="6.74918">
        <ele>1900</ele>
        <time>2026-08-14T07:31:53.540Z</time>
      </trkpt>
      <trkpt lat="45.80914" lon="6.74916">
        <ele>1900</ele>
        <time>2026-08-14T07:31:54.540Z</time>
      </trkpt>
      <trkpt lat="45.80915" lon="6.74914">
        <ele>1899</ele>
        <time>2026-08-14T07:31:55.540Z</time>
      </trkpt>
      <trkpt lat="45.80917" lon="6.74912">
        <ele>1899</ele>
        <time>2026-08-14T07:31:56.540Z</time>
      </trkpt>
      <trkpt lat="45.80917" lon="6.74909">
        <ele>1898</ele>
        <time>2026-08-14T07:31:57.540Z</time>
      </trkpt>
      <trkpt lat="45.80918" lon="6.74907">
        <ele>1898</ele>
        <time>2026-08-14T07:31:58.540Z</time>
      </trkpt>
      <trkpt lat="45.80918" lon="6.74904">
        <ele>1898</ele>
        <time>2026-08-14T07:31:59.540Z</time>
      </trkpt>
      <trkpt lat="45.80919" lon="6.74902">
        <ele>1897</ele>
        <time>2026-08-14T07:32:00.540Z</time>
      </trkpt>
      <trkpt lat="45.8092" lon="6.749">
        <ele>1897</ele>
        <time>2026-08-14T07:32:01.540Z</time>
      </trkpt>
      <trkpt lat="45.80921" lon="6.74898">
        <ele>1897</ele>
        <time>2026-08-14T07:32:02.540Z</time>
      </trkpt>
      <trkpt lat="45.80923" lon="6.74896">
        <ele>1897</ele>
        <time>2026-08-14T07:32:03.540Z</time>
      </trkpt>
      <trkpt lat="45.80924" lon="6.74895">
        <ele>1897</ele>
        <time>2026-08-14T07:32:04.540Z</time>
      </trkpt>
      <trkpt lat="45.80926" lon="6.74895">
        <ele>1897</ele>
        <time>2026-08-14T07:32:05.540Z</time>
      </trkpt>
      <trkpt lat="45.80926" lon="6.74893">
        <ele>1897</ele>
        <time>2026-08-14T07:32:06.540Z</time>
      </trkpt>
      <trkpt lat="45.80927" lon="6.74892">
        <ele>1898</ele>
        <time>2026-08-14T07:32:07.540Z</time>
      </trkpt>
      <trkpt lat="45.80928" lon="6.7489">
        <ele>1898</ele>
        <time>2026-08-14T07:32:08.540Z</time>
      </trkpt>
      <trkpt lat="45.80928" lon="6.74888">
        <ele>1898</ele>
        <time>2026-08-14T07:32:09.540Z</time>
      </trkpt>
      <trkpt lat="45.80929" lon="6.74886">
        <ele>1898</ele>
        <time>2026-08-14T07:32:10.540Z</time>
      </trkpt>
      <trkpt lat="45.8093" lon="6.74885">
        <ele>1898</ele>
        <time>2026-08-14T07:32:11.540Z</time>
      </trkpt>
      <trkpt lat="45.80931" lon="6.74883">
        <ele>1898</ele>
        <time>2026-08-14T07:32:12.540Z</time>
      </trkpt>
      <trkpt lat="45.80932" lon="6.74883">
        <ele>1898</ele>
        <time>2026-08-14T07:32:13.540Z</time>
      </trkpt>
      <trkpt lat="45.80933" lon="6.74882">
        <ele>1898</ele>
        <time>2026-08-14T07:32:14.540Z</time>
      </trkpt>
      <trkpt lat="45.80935" lon="6.74881">
        <ele>1897</ele>
        <time>2026-08-14T07:32:15.540Z</time>
      </trkpt>
      <trkpt lat="45.80936" lon="6.7488">
        <ele>1896</ele>
        <time>2026-08-14T07:32:16.540Z</time>
      </trkpt>
      <trkpt lat="45.80936" lon="6.74878">
        <ele>1896</ele>
        <time>2026-08-14T07:32:17.540Z</time>
      </trkpt>
      <trkpt lat="45.80936" lon="6.74876">
        <ele>1895</ele>
        <time>2026-08-14T07:32:18.540Z</time>
      </trkpt>
      <trkpt lat="45.80936" lon="6.74874">
        <ele>1894</ele>
        <time>2026-08-14T07:32:19.540Z</time>
      </trkpt>
      <trkpt lat="45.80935" lon="6.74872">
        <ele>1893</ele>
        <time>2026-08-14T07:32:20.540Z</time>
      </trkpt>
      <trkpt lat="45.80935" lon="6.74871">
        <ele>1893</ele>
        <time>2026-08-14T07:32:21.540Z</time>
      </trkpt>
      <trkpt lat="45.80933" lon="6.7487">
        <ele>1892</ele>
        <time>2026-08-14T07:32:22.540Z</time>
      </trkpt>
      <trkpt lat="45.80933" lon="6.74868">
        <ele>1891</ele>
        <time>2026-08-14T07:32:23.540Z</time>
      </trkpt>
      <trkpt lat="45.80932" lon="6.74867">
        <ele>1891</ele>
        <time>2026-08-14T07:32:24.540Z</time>
      </trkpt>
      <trkpt lat="45.80931" lon="6.74865">
        <ele>1891</ele>
        <time>2026-08-14T07:32:25.540Z</time>
      </trkpt>
      <trkpt lat="45.80931" lon="6.74862">
        <ele>1890</ele>
        <time>2026-08-14T07:32:26.540Z</time>
      </trkpt>
      <trkpt lat="45.80931" lon="6.7486">
        <ele>1890</ele>
        <time>2026-08-14T07:32:27.540Z</time>
      </trkpt>
      <trkpt lat="45.80932" lon="6.74857">
        <ele>1889</ele>
        <time>2026-08-14T07:32:28.540Z</time>
      </trkpt>
      <trkpt lat="45.80932" lon="6.74855">
        <ele>1889</ele>
        <time>2026-08-14T07:32:29.540Z</time>
      </trkpt>
      <trkpt lat="45.80933" lon="6.74853">
        <ele>1889</ele>
        <time>2026-08-14T07:32:30.540Z</time>
      </trkpt>
      <trkpt lat="45.80933" lon="6.7485">
        <ele>1888</ele>
        <time>2026-08-14T07:32:31.540Z</time>
      </trkpt>
      <trkpt lat="45.80934" lon="6.74848">
        <ele>1888</ele>
        <time>2026-08-14T07:32:32.540Z</time>
      </trkpt>
      <trkpt lat="45.80935" lon="6.74845">
        <ele>1888</ele>
        <time>2026-08-14T07:32:33.540Z</time>
      </trkpt>
      <trkpt lat="45.80935" lon="6.74842">
        <ele>1888</ele>
        <time>2026-08-14T07:32:34.540Z</time>
      </trkpt>
      <trkpt lat="45.80935" lon="6.7484">
        <ele>1888</ele>
        <time>2026-08-14T07:32:35.540Z</time>
      </trkpt>
      <trkpt lat="45.80936" lon="6.74838">
        <ele>1887</ele>
        <time>2026-08-14T07:32:36.540Z</time>
      </trkpt>
      <trkpt lat="45.80937" lon="6.74835">
        <ele>1887</ele>
        <time>2026-08-14T07:32:37.540Z</time>
      </trkpt>
      <trkpt lat="45.80938" lon="6.74833">
        <ele>1886</ele>
        <time>2026-08-14T07:32:38.540Z</time>
      </trkpt>
      <trkpt lat="45.8094" lon="6.74832">
        <ele>1886</ele>
        <time>2026-08-14T07:32:39.540Z</time>
      </trkpt>
      <trkpt lat="45.80941" lon="6.74831">
        <ele>1886</ele>
        <time>2026-08-14T07:32:40.540Z</time>
      </trkpt>
      <trkpt lat="45.80941" lon="6.74831">
        <ele>1886</ele>
        <time>2026-08-14T07:32:41.540Z</time>
      </trkpt>
      <trkpt lat="45.80941" lon="6.74831">
        <ele>1886</ele>
        <time>2026-08-14T07:32:42.540Z</time>
      </trkpt>
      <trkpt lat="45.80942" lon="6.74831">
        <ele>1885</ele>
        <time>2026-08-14T07:32:43.540Z</time>
      </trkpt>
      <trkpt lat="45.80944" lon="6.7483">
        <ele>1885</ele>
        <time>2026-08-14T07:32:44.540Z</time>
      </trkpt>
      <trkpt lat="45.80945" lon="6.74829">
        <ele>1885</ele>
        <time>2026-08-14T07:32:45.540Z</time>
      </trkpt>
      <trkpt lat="45.80946" lon="6.74828">
        <ele>1885</ele>
        <time>2026-08-14T07:32:46.540Z</time>
      </trkpt>
      <trkpt lat="45.80947" lon="6.74827">
        <ele>1885</ele>
        <time>2026-08-14T07:32:47.540Z</time>
      </trkpt>
      <trkpt lat="45.80948" lon="6.74826">
        <ele>1885</ele>
        <time>2026-08-14T07:32:48.540Z</time>
      </trkpt>
      <trkpt lat="45.80949" lon="6.74824">
        <ele>1884</ele>
        <time>2026-08-14T07:32:49.540Z</time>
      </trkpt>
      <trkpt lat="45.8095" lon="6.74823">
        <ele>1884</ele>
        <time>2026-08-14T07:32:50.540Z</time>
      </trkpt>
      <trkpt lat="45.8095" lon="6.74821">
        <ele>1884</ele>
        <time>2026-08-14T07:32:51.540Z</time>
      </trkpt>
      <trkpt lat="45.80951" lon="6.74819">
        <ele>1883</ele>
        <time>2026-08-14T07:32:52.540Z</time>
      </trkpt>
      <trkpt lat="45.80952" lon="6.74817">
        <ele>1883</ele>
        <time>2026-08-14T07:32:53.540Z</time>
      </trkpt>
      <trkpt lat="45.80952" lon="6.74815">
        <ele>1882</ele>
        <time>2026-08-14T07:32:54.541Z</time>
      </trkpt>
      <trkpt lat="45.80952" lon="6.74813">
        <ele>1882</ele>
        <time>2026-08-14T07:32:55.540Z</time>
      </trkpt>
      <trkpt lat="45.80951" lon="6.74811">
        <ele>1881</ele>
        <time>2026-08-14T07:32:56.540Z</time>
      </trkpt>
      <trkpt lat="45.80951" lon="6.74809">
        <ele>1881</ele>
        <time>2026-08-14T07:32:57.540Z</time>
      </trkpt>
      <trkpt lat="45.8095" lon="6.74806">
        <ele>1880</ele>
        <time>2026-08-14T07:32:58.540Z</time>
      </trkpt>
      <trkpt lat="45.80949" lon="6.74803">
        <ele>1880</ele>
        <time>2026-08-14T07:32:59.540Z</time>
      </trkpt>
      <trkpt lat="45.80949" lon="6.74801">
        <ele>1880</ele>
        <time>2026-08-14T07:33:00.540Z</time>
      </trkpt>
      <trkpt lat="45.80949" lon="6.74798">
        <ele>1880</ele>
        <time>2026-08-14T07:33:01.540Z</time>
      </trkpt>
      <trkpt lat="45.80948" lon="6.74796">
        <ele>1880</ele>
        <time>2026-08-14T07:33:02.540Z</time>
      </trkpt>
      <trkpt lat="45.80948" lon="6.74794">
        <ele>1880</ele>
        <time>2026-08-14T07:33:03.540Z</time>
      </trkpt>
      <trkpt lat="45.80949" lon="6.74791">
        <ele>1879</ele>
        <time>2026-08-14T07:33:04.540Z</time>
      </trkpt>
      <trkpt lat="45.80949" lon="6.74788">
        <ele>1879</ele>
        <time>2026-08-14T07:33:05.540Z</time>
      </trkpt>
      <trkpt lat="45.8095" lon="6.74786">
        <ele>1879</ele>
        <time>2026-08-14T07:33:06.540Z</time>
      </trkpt>
      <trkpt lat="45.80951" lon="6.74784">
        <ele>1878</ele>
        <time>2026-08-14T07:33:07.540Z</time>
      </trkpt>
      <trkpt lat="45.80952" lon="6.74781">
        <ele>1878</ele>
        <time>2026-08-14T07:33:08.540Z</time>
      </trkpt>
      <trkpt lat="45.80952" lon="6.74779">
        <ele>1878</ele>
        <time>2026-08-14T07:33:09.540Z</time>
      </trkpt>
      <trkpt lat="45.80954" lon="6.74777">
        <ele>1877</ele>
        <time>2026-08-14T07:33:10.540Z</time>
      </trkpt>
      <trkpt lat="45.80955" lon="6.74776">
        <ele>1877</ele>
        <time>2026-08-14T07:33:11.540Z</time>
      </trkpt>
      <trkpt lat="45.80957" lon="6.74774">
        <ele>1877</ele>
        <time>2026-08-14T07:33:12.540Z</time>
      </trkpt>
      <trkpt lat="45.80957" lon="6.74773">
        <ele>1876</ele>
        <time>2026-08-14T07:33:13.540Z</time>
      </trkpt>
      <trkpt lat="45.80957" lon="6.74772">
        <ele>1876</ele>
        <time>2026-08-14T07:33:14.540Z</time>
      </trkpt>
      <trkpt lat="45.80957" lon="6.74772">
        <ele>1876</ele>
        <time>2026-08-14T07:33:15.540Z</time>
      </trkpt>
      <trkpt lat="45.80957" lon="6.74771">
        <ele>1876</ele>
        <time>2026-08-14T07:33:16.540Z</time>
      </trkpt>
      <trkpt lat="45.80956" lon="6.74771">
        <ele>1876</ele>
        <time>2026-08-14T07:33:17.540Z</time>
      </trkpt>
      <trkpt lat="45.80955" lon="6.7477">
        <ele>1876</ele>
        <time>2026-08-14T07:33:18.540Z</time>
      </trkpt>
      <trkpt lat="45.80954" lon="6.74768">
        <ele>1876</ele>
        <time>2026-08-14T07:33:19.540Z</time>
      </trkpt>
      <trkpt lat="45.80954" lon="6.74766">
        <ele>1876</ele>
        <time>2026-08-14T07:33:20.540Z</time>
      </trkpt>
      <trkpt lat="45.80952" lon="6.74763">
        <ele>1876</ele>
        <time>2026-08-14T07:33:21.540Z</time>
      </trkpt>
      <trkpt lat="45.80951" lon="6.74759">
        <ele>1876</ele>
        <time>2026-08-14T07:33:22.540Z</time>
      </trkpt>
      <trkpt lat="45.80951" lon="6.74756">
        <ele>1876</ele>
        <time>2026-08-14T07:33:23.540Z</time>
      </trkpt>
      <trkpt lat="45.80951" lon="6.74753">
        <ele>1876</ele>
        <time>2026-08-14T07:33:24.540Z</time>
      </trkpt>
      <trkpt lat="45.80951" lon="6.74751">
        <ele>1876</ele>
        <time>2026-08-14T07:33:25.540Z</time>
      </trkpt>
      <trkpt lat="45.80952" lon="6.74749">
        <ele>1875</ele>
        <time>2026-08-14T07:33:26.540Z</time>
      </trkpt>
      <trkpt lat="45.80951" lon="6.74748">
        <ele>1875</ele>
        <time>2026-08-14T07:33:27.540Z</time>
      </trkpt>
      <trkpt lat="45.80951" lon="6.74747">
        <ele>1874</ele>
        <time>2026-08-14T07:33:28.540Z</time>
      </trkpt>
      <trkpt lat="45.8095" lon="6.74747">
        <ele>1874</ele>
        <time>2026-08-14T07:33:29.540Z</time>
      </trkpt>
      <trkpt lat="45.80949" lon="6.74745">
        <ele>1874</ele>
        <time>2026-08-14T07:33:30.540Z</time>
      </trkpt>
      <trkpt lat="45.80949" lon="6.74744">
        <ele>1873</ele>
        <time>2026-08-14T07:33:31.540Z</time>
      </trkpt>
      <trkpt lat="45.80948" lon="6.74742">
        <ele>1873</ele>
        <time>2026-08-14T07:33:32.540Z</time>
      </trkpt>
      <trkpt lat="45.80948" lon="6.74741">
        <ele>1873</ele>
        <time>2026-08-14T07:33:33.540Z</time>
      </trkpt>
      <trkpt lat="45.80947" lon="6.74739">
        <ele>1872</ele>
        <time>2026-08-14T07:33:34.540Z</time>
      </trkpt>
      <trkpt lat="45.80947" lon="6.74737">
        <ele>1872</ele>
        <time>2026-08-14T07:33:35.540Z</time>
      </trkpt>
      <trkpt lat="45.80947" lon="6.74734">
        <ele>1871</ele>
        <time>2026-08-14T07:33:36.540Z</time>
      </trkpt>
      <trkpt lat="45.80947" lon="6.74732">
        <ele>1871</ele>
        <time>2026-08-14T07:33:37.540Z</time>
      </trkpt>
      <trkpt lat="45.80947" lon="6.74729">
        <ele>1871</ele>
        <time>2026-08-14T07:33:38.540Z</time>
      </trkpt>
      <trkpt lat="45.80947" lon="6.74726">
        <ele>1870</ele>
        <time>2026-08-14T07:33:39.540Z</time>
      </trkpt>
      <trkpt lat="45.80947" lon="6.74724">
        <ele>1870</ele>
        <time>2026-08-14T07:33:40.540Z</time>
      </trkpt>
      <trkpt lat="45.80947" lon="6.74722">
        <ele>1870</ele>
        <time>2026-08-14T07:33:41.540Z</time>
      </trkpt>
      <trkpt lat="45.80946" lon="6.74721">
        <ele>1870</ele>
        <time>2026-08-14T07:33:42.540Z</time>
      </trkpt>
      <trkpt lat="45.80945" lon="6.74719">
        <ele>1870</ele>
        <time>2026-08-14T07:33:43.540Z</time>
      </trkpt>
      <trkpt lat="45.80944" lon="6.74718">
        <ele>1870</ele>
        <time>2026-08-14T07:33:44.540Z</time>
      </trkpt>
      <trkpt lat="45.80943" lon="6.74716">
        <ele>1869</ele>
        <time>2026-08-14T07:33:45.540Z</time>
      </trkpt>
      <trkpt lat="45.80942" lon="6.74715">
        <ele>1869</ele>
        <time>2026-08-14T07:33:46.540Z</time>
      </trkpt>
      <trkpt lat="45.8094" lon="6.74713">
        <ele>1869</ele>
        <time>2026-08-14T07:33:47.540Z</time>
      </trkpt>
      <trkpt lat="45.8094" lon="6.74712">
        <ele>1869</ele>
        <time>2026-08-14T07:33:48.540Z</time>
      </trkpt>
      <trkpt lat="45.80938" lon="6.74712">
        <ele>1869</ele>
        <time>2026-08-14T07:33:49.540Z</time>
      </trkpt>
      <trkpt lat="45.80938" lon="6.74711">
        <ele>1868</ele>
        <time>2026-08-14T07:33:50.540Z</time>
      </trkpt>
      <trkpt lat="45.80938" lon="6.7471">
        <ele>1868</ele>
        <time>2026-08-14T07:33:51.540Z</time>
      </trkpt>
      <trkpt lat="45.80937" lon="6.74709">
        <ele>1868</ele>
        <time>2026-08-14T07:33:52.540Z</time>
      </trkpt>
      <trkpt lat="45.80936" lon="6.74707">
        <ele>1867</ele>
        <time>2026-08-14T07:33:53.540Z</time>
      </trkpt>
      <trkpt lat="45.80935" lon="6.74705">
        <ele>1867</ele>
        <time>2026-08-14T07:33:54.540Z</time>
      </trkpt>
      <trkpt lat="45.80934" lon="6.74704">
        <ele>1867</ele>
        <time>2026-08-14T07:33:55.540Z</time>
      </trkpt>
      <trkpt lat="45.80933" lon="6.74702">
        <ele>1866</ele>
        <time>2026-08-14T07:33:56.540Z</time>
      </trkpt>
      <trkpt lat="45.80933" lon="6.747">
        <ele>1866</ele>
        <time>2026-08-14T07:33:57.540Z</time>
      </trkpt>
      <trkpt lat="45.80932" lon="6.74697">
        <ele>1866</ele>
        <time>2026-08-14T07:33:58.540Z</time>
      </trkpt>
      <trkpt lat="45.80932" lon="6.74695">
        <ele>1865</ele>
        <time>2026-08-14T07:33:59.540Z</time>
      </trkpt>
      <trkpt lat="45.80931" lon="6.74693">
        <ele>1865</ele>
        <time>2026-08-14T07:34:00.540Z</time>
      </trkpt>
      <trkpt lat="45.80931" lon="6.74692">
        <ele>1865</ele>
        <time>2026-08-14T07:34:01.540Z</time>
      </trkpt>
      <trkpt lat="45.80931" lon="6.74692">
        <ele>1865</ele>
        <time>2026-08-14T07:34:02.540Z</time>
      </trkpt>
      <trkpt lat="45.80931" lon="6.74691">
        <ele>1864</ele>
        <time>2026-08-14T07:34:03.540Z</time>
      </trkpt>
      <trkpt lat="45.80931" lon="6.7469">
        <ele>1864</ele>
        <time>2026-08-14T07:34:04.540Z</time>
      </trkpt>
      <trkpt lat="45.80931" lon="6.7469">
        <ele>1864</ele>
        <time>2026-08-14T07:34:05.540Z</time>
      </trkpt>
      <trkpt lat="45.80931" lon="6.7469">
        <ele>1864</ele>
        <time>2026-08-14T07:34:06.540Z</time>
      </trkpt>
      <trkpt lat="45.80931" lon="6.7469">
        <ele>1864</ele>
        <time>2026-08-14T07:34:07.540Z</time>
      </trkpt>
      <trkpt lat="45.80931" lon="6.74689">
        <ele>1864</ele>
        <time>2026-08-14T07:34:08.540Z</time>
      </trkpt>
      <trkpt lat="45.8093" lon="6.7469">
        <ele>1864</ele>
        <time>2026-08-14T07:34:09.540Z</time>
      </trkpt>
      <trkpt lat="45.8093" lon="6.7469">
        <ele>1864</ele>
        <time>2026-08-14T07:34:10.540Z</time>
      </trkpt>
      <trkpt lat="45.8093" lon="6.7469">
        <ele>1864</ele>
        <time>2026-08-14T07:34:11.540Z</time>
      </trkpt>
      <trkpt lat="45.80929" lon="6.74689">
        <ele>1863</ele>
        <time>2026-08-14T07:34:12.540Z</time>
      </trkpt>
      <trkpt lat="45.80929" lon="6.74689">
        <ele>1863</ele>
        <time>2026-08-14T07:34:13.540Z</time>
      </trkpt>
      <trkpt lat="45.80929" lon="6.74689">
        <ele>1863</ele>
        <time>2026-08-14T07:34:14.540Z</time>
      </trkpt>
      <trkpt lat="45.80929" lon="6.74689">
        <ele>1863</ele>
        <time>2026-08-14T07:34:15.540Z</time>
      </trkpt>
      <trkpt lat="45.80928" lon="6.74689">
        <ele>1863</ele>
        <time>2026-08-14T07:34:16.540Z</time>
      </trkpt>
      <trkpt lat="45.80929" lon="6.74689">
        <ele>1863</ele>
        <time>2026-08-14T07:34:17.540Z</time>
      </trkpt>
      <trkpt lat="45.80929" lon="6.74689">
        <ele>1863</ele>
        <time>2026-08-14T07:34:18.540Z</time>
      </trkpt>
      <trkpt lat="45.80929" lon="6.74689">
        <ele>1863</ele>
        <time>2026-08-14T07:34:19.540Z</time>
      </trkpt>
      <trkpt lat="45.80929" lon="6.74689">
        <ele>1863</ele>
        <time>2026-08-14T07:34:20.540Z</time>
      </trkpt>
      <trkpt lat="45.80929" lon="6.74689">
        <ele>1863</ele>
        <time>2026-08-14T07:34:21.540Z</time>
      </trkpt>
      <trkpt lat="45.80929" lon="6.74689">
        <ele>1862</ele>
        <time>2026-08-14T07:34:22.540Z</time>
      </trkpt>
      <trkpt lat="45.80929" lon="6.74689">
        <ele>1862</ele>
        <time>2026-08-14T07:34:23.540Z</time>
      </trkpt>
      <trkpt lat="45.80929" lon="6.74689">
        <ele>1862</ele>
        <time>2026-08-14T07:34:24.540Z</time>
      </trkpt>
      <trkpt lat="45.80929" lon="6.74689">
        <ele>1862</ele>
        <time>2026-08-14T07:34:25.540Z</time>
      </trkpt>
      <trkpt lat="45.80929" lon="6.74689">
        <ele>1862</ele>
        <time>2026-08-14T07:34:26.540Z</time>
      </trkpt>
      <trkpt lat="45.80929" lon="6.74689">
        <ele>1862</ele>
        <time>2026-08-14T07:34:27.540Z</time>
      </trkpt>
      <trkpt lat="45.80929" lon="6.74689">
        <ele>1862</ele>
        <time>2026-08-14T07:34:28.540Z</time>
      </trkpt>
      <trkpt lat="45.80929" lon="6.74689">
        <ele>1862</ele>
        <time>2026-08-14T07:34:29.540Z</time>
      </trkpt>
      <trkpt lat="45.80929" lon="6.74689">
        <ele>1862</ele>
        <time>2026-08-14T07:34:30.540Z</time>
      </trkpt>
      <trkpt lat="45.80929" lon="6.74689">
        <ele>1862</ele>
        <time>2026-08-14T07:34:31.540Z</time>
      </trkpt>
      <trkpt lat="45.80929" lon="6.74689">
        <ele>1862</ele>
        <time>2026-08-14T07:34:32.540Z</time>
      </trkpt>
      <trkpt lat="45.80929" lon="6.74689">
        <ele>1862</ele>
        <time>2026-08-14T07:34:33.540Z</time>
      </trkpt>
      <trkpt lat="45.80929" lon="6.74689">
        <ele>1862</ele>
        <time>2026-08-14T07:34:34.540Z</time>
      </trkpt>
      <trkpt lat="45.80929" lon="6.74689">
        <ele>1862</ele>
        <time>2026-08-14T07:34:35.540Z</time>
      </trkpt>
      <trkpt lat="45.80929" lon="6.74689">
        <ele>1862</ele>
        <time>2026-08-14T07:34:36.540Z</time>
      </trkpt>
      <trkpt lat="45.80929" lon="6.74688">
        <ele>1862</ele>
        <time>2026-08-14T07:34:37.540Z</time>
      </trkpt>
      <trkpt lat="45.80929" lon="6.74688">
        <ele>1862</ele>
        <time>2026-08-14T07:34:38.540Z</time>
      </trkpt>
      <trkpt lat="45.80929" lon="6.74688">
        <ele>1862</ele>
        <time>2026-08-14T07:34:39.540Z</time>
      </trkpt>
      <trkpt lat="45.80929" lon="6.74688">
        <ele>1861</ele>
        <time>2026-08-14T07:34:40.540Z</time>
      </trkpt>
      <trkpt lat="45.80929" lon="6.74687">
        <ele>1861</ele>
        <time>2026-08-14T07:34:41.540Z</time>
      </trkpt>
      <trkpt lat="45.80929" lon="6.74687">
        <ele>1861</ele>
        <time>2026-08-14T07:34:42.540Z</time>
      </trkpt>
      <trkpt lat="45.80928" lon="6.74687">
        <ele>1861</ele>
        <time>2026-08-14T07:34:43.540Z</time>
      </trkpt>
      <trkpt lat="45.80927" lon="6.74685">
        <ele>1861</ele>
        <time>2026-08-14T07:34:44.540Z</time>
      </trkpt>
      <trkpt lat="45.80925" lon="6.74684">
        <ele>1861</ele>
        <time>2026-08-14T07:34:45.540Z</time>
      </trkpt>
      <trkpt lat="45.80924" lon="6.74684">
        <ele>1861</ele>
        <time>2026-08-14T07:34:46.540Z</time>
      </trkpt>
      <trkpt lat="45.80923" lon="6.74683">
        <ele>1861</ele>
        <time>2026-08-14T07:34:47.540Z</time>
      </trkpt>
      <trkpt lat="45.80922" lon="6.74683">
        <ele>1861</ele>
        <time>2026-08-14T07:34:48.540Z</time>
      </trkpt>
      <trkpt lat="45.8092" lon="6.74683">
        <ele>1861</ele>
        <time>2026-08-14T07:34:49.540Z</time>
      </trkpt>
      <trkpt lat="45.80919" lon="6.74682">
        <ele>1861</ele>
        <time>2026-08-14T07:34:50.540Z</time>
      </trkpt>
      <trkpt lat="45.80918" lon="6.74682">
        <ele>1861</ele>
        <time>2026-08-14T07:34:51.540Z</time>
      </trkpt>
      <trkpt lat="45.80916" lon="6.74681">
        <ele>1861</ele>
        <time>2026-08-14T07:34:52.540Z</time>
      </trkpt>
      <trkpt lat="45.80915" lon="6.7468">
        <ele>1861</ele>
        <time>2026-08-14T07:34:53.540Z</time>
      </trkpt>
      <trkpt lat="45.80912" lon="6.7468">
        <ele>1861</ele>
        <time>2026-08-14T07:34:54.540Z</time>
      </trkpt>
      <trkpt lat="45.80911" lon="6.7468">
        <ele>1861</ele>
        <time>2026-08-14T07:34:55.540Z</time>
      </trkpt>
      <trkpt lat="45.8091" lon="6.7468">
        <ele>1860</ele>
        <time>2026-08-14T07:34:56.540Z</time>
      </trkpt>
      <trkpt lat="45.8091" lon="6.7468">
        <ele>1860</ele>
        <time>2026-08-14T07:34:57.540Z</time>
      </trkpt>
      <trkpt lat="45.8091" lon="6.74679">
        <ele>1860</ele>
        <time>2026-08-14T07:34:58.540Z</time>
      </trkpt>
      <trkpt lat="45.80909" lon="6.74677">
        <ele>1860</ele>
        <time>2026-08-14T07:34:59.540Z</time>
      </trkpt>
      <trkpt lat="45.80908" lon="6.74675">
        <ele>1860</ele>
        <time>2026-08-14T07:35:00.540Z</time>
      </trkpt>
      <trkpt lat="45.80907" lon="6.74672">
        <ele>1859</ele>
        <time>2026-08-14T07:35:01.540Z</time>
      </trkpt>
      <trkpt lat="45.80907" lon="6.74669">
        <ele>1859</ele>
        <time>2026-08-14T07:35:02.540Z</time>
      </trkpt>
      <trkpt lat="45.80907" lon="6.74666">
        <ele>1859</ele>
        <time>2026-08-14T07:35:03.540Z</time>
      </trkpt>
      <trkpt lat="45.80907" lon="6.74663">
        <ele>1859</ele>
        <time>2026-08-14T07:35:04.540Z</time>
      </trkpt>
      <trkpt lat="45.80907" lon="6.7466">
        <ele>1860</ele>
        <time>2026-08-14T07:35:05.540Z</time>
      </trkpt>
      <trkpt lat="45.80906" lon="6.74658">
        <ele>1860</ele>
        <time>2026-08-14T07:35:06.540Z</time>
      </trkpt>
      <trkpt lat="45.80905" lon="6.74656">
        <ele>1860</ele>
        <time>2026-08-14T07:35:07.540Z</time>
      </trkpt>
      <trkpt lat="45.80904" lon="6.74653">
        <ele>1860</ele>
        <time>2026-08-14T07:35:08.540Z</time>
      </trkpt>
      <trkpt lat="45.80904" lon="6.74651">
        <ele>1860</ele>
        <time>2026-08-14T07:35:09.540Z</time>
      </trkpt>
      <trkpt lat="45.80904" lon="6.74649">
        <ele>1860</ele>
        <time>2026-08-14T07:35:10.540Z</time>
      </trkpt>
      <trkpt lat="45.80903" lon="6.74647">
        <ele>1860</ele>
        <time>2026-08-14T07:35:11.540Z</time>
      </trkpt>
      <trkpt lat="45.80902" lon="6.74645">
        <ele>1860</ele>
        <time>2026-08-14T07:35:12.540Z</time>
      </trkpt>
      <trkpt lat="45.80901" lon="6.74643">
        <ele>1860</ele>
        <time>2026-08-14T07:35:13.540Z</time>
      </trkpt>
      <trkpt lat="45.80901" lon="6.74641">
        <ele>1860</ele>
        <time>2026-08-14T07:35:14.540Z</time>
      </trkpt>
      <trkpt lat="45.80899" lon="6.74638">
        <ele>1860</ele>
        <time>2026-08-14T07:35:15.540Z</time>
      </trkpt>
      <trkpt lat="45.80899" lon="6.74636">
        <ele>1860</ele>
        <time>2026-08-14T07:35:16.540Z</time>
      </trkpt>
      <trkpt lat="45.80898" lon="6.74633">
        <ele>1860</ele>
        <time>2026-08-14T07:35:17.540Z</time>
      </trkpt>
      <trkpt lat="45.80898" lon="6.74629">
        <ele>1860</ele>
        <time>2026-08-14T07:35:18.540Z</time>
      </trkpt>
      <trkpt lat="45.80897" lon="6.74627">
        <ele>1860</ele>
        <time>2026-08-14T07:35:19.540Z</time>
      </trkpt>
      <trkpt lat="45.80897" lon="6.74623">
        <ele>1860</ele>
        <time>2026-08-14T07:35:20.540Z</time>
      </trkpt>
      <trkpt lat="45.80896" lon="6.74621">
        <ele>1860</ele>
        <time>2026-08-14T07:35:21.540Z</time>
      </trkpt>
      <trkpt lat="45.80895" lon="6.74619">
        <ele>1859</ele>
        <time>2026-08-14T07:35:22.540Z</time>
      </trkpt>
      <trkpt lat="45.80894" lon="6.74616">
        <ele>1859</ele>
        <time>2026-08-14T07:35:23.540Z</time>
      </trkpt>
      <trkpt lat="45.80893" lon="6.74614">
        <ele>1859</ele>
        <time>2026-08-14T07:35:24.540Z</time>
      </trkpt>
      <trkpt lat="45.80892" lon="6.74612">
        <ele>1858</ele>
        <time>2026-08-14T07:35:25.540Z</time>
      </trkpt>
      <trkpt lat="45.80892" lon="6.74609">
        <ele>1858</ele>
        <time>2026-08-14T07:35:26.540Z</time>
      </trkpt>
      <trkpt lat="45.80891" lon="6.74607">
        <ele>1858</ele>
        <time>2026-08-14T07:35:27.540Z</time>
      </trkpt>
      <trkpt lat="45.8089" lon="6.74604">
        <ele>1858</ele>
        <time>2026-08-14T07:35:28.540Z</time>
      </trkpt>
      <trkpt lat="45.8089" lon="6.74601">
        <ele>1858</ele>
        <time>2026-08-14T07:35:29.540Z</time>
      </trkpt>
      <trkpt lat="45.80889" lon="6.74598">
        <ele>1857</ele>
        <time>2026-08-14T07:35:30.540Z</time>
      </trkpt>
      <trkpt lat="45.80888" lon="6.74595">
        <ele>1857</ele>
        <time>2026-08-14T07:35:31.540Z</time>
      </trkpt>
      <trkpt lat="45.80888" lon="6.74592">
        <ele>1857</ele>
        <time>2026-08-14T07:35:32.540Z</time>
      </trkpt>
      <trkpt lat="45.80888" lon="6.74589">
        <ele>1857</ele>
        <time>2026-08-14T07:35:33.540Z</time>
      </trkpt>
      <trkpt lat="45.80887" lon="6.74586">
        <ele>1857</ele>
        <time>2026-08-14T07:35:34.540Z</time>
      </trkpt>
      <trkpt lat="45.80885" lon="6.74584">
        <ele>1856</ele>
        <time>2026-08-14T07:35:35.540Z</time>
      </trkpt>
      <trkpt lat="45.80884" lon="6.74581">
        <ele>1856</ele>
        <time>2026-08-14T07:35:36.540Z</time>
      </trkpt>
      <trkpt lat="45.80883" lon="6.74578">
        <ele>1855</ele>
        <time>2026-08-14T07:35:37.540Z</time>
      </trkpt>
      <trkpt lat="45.80882" lon="6.74575">
        <ele>1855</ele>
        <time>2026-08-14T07:35:38.540Z</time>
      </trkpt>
      <trkpt lat="45.80881" lon="6.74573">
        <ele>1855</ele>
        <time>2026-08-14T07:35:39.540Z</time>
      </trkpt>
      <trkpt lat="45.80879" lon="6.74571">
        <ele>1855</ele>
        <time>2026-08-14T07:35:40.540Z</time>
      </trkpt>
      <trkpt lat="45.80878" lon="6.74569">
        <ele>1855</ele>
        <time>2026-08-14T07:35:41.540Z</time>
      </trkpt>
      <trkpt lat="45.80876" lon="6.74567">
        <ele>1855</ele>
        <time>2026-08-14T07:35:42.540Z</time>
      </trkpt>
      <trkpt lat="45.80875" lon="6.74565">
        <ele>1855</ele>
        <time>2026-08-14T07:35:43.540Z</time>
      </trkpt>
      <trkpt lat="45.80874" lon="6.74562">
        <ele>1855</ele>
        <time>2026-08-14T07:35:44.540Z</time>
      </trkpt>
      <trkpt lat="45.80872" lon="6.7456">
        <ele>1855</ele>
        <time>2026-08-14T07:35:45.540Z</time>
      </trkpt>
      <trkpt lat="45.80872" lon="6.74558">
        <ele>1855</ele>
        <time>2026-08-14T07:35:46.540Z</time>
      </trkpt>
      <trkpt lat="45.8087" lon="6.74555">
        <ele>1855</ele>
        <time>2026-08-14T07:35:47.540Z</time>
      </trkpt>
      <trkpt lat="45.80869" lon="6.74553">
        <ele>1855</ele>
        <time>2026-08-14T07:35:48.540Z</time>
      </trkpt>
      <trkpt lat="45.80868" lon="6.74552">
        <ele>1855</ele>
        <time>2026-08-14T07:35:49.540Z</time>
      </trkpt>
      <trkpt lat="45.80866" lon="6.7455">
        <ele>1855</ele>
        <time>2026-08-14T07:35:50.540Z</time>
      </trkpt>
      <trkpt lat="45.80864" lon="6.74549">
        <ele>1855</ele>
        <time>2026-08-14T07:35:51.540Z</time>
      </trkpt>
      <trkpt lat="45.80862" lon="6.74547">
        <ele>1855</ele>
        <time>2026-08-14T07:35:52.540Z</time>
      </trkpt>
      <trkpt lat="45.80861" lon="6.74546">
        <ele>1855</ele>
        <time>2026-08-14T07:35:53.540Z</time>
      </trkpt>
      <trkpt lat="45.8086" lon="6.74544">
        <ele>1855</ele>
        <time>2026-08-14T07:35:54.540Z</time>
      </trkpt>
      <trkpt lat="45.80858" lon="6.74543">
        <ele>1855</ele>
        <time>2026-08-14T07:35:55.540Z</time>
      </trkpt>
      <trkpt lat="45.80857" lon="6.74542">
        <ele>1855</ele>
        <time>2026-08-14T07:35:56.540Z</time>
      </trkpt>
      <trkpt lat="45.80856" lon="6.74541">
        <ele>1855</ele>
        <time>2026-08-14T07:35:57.540Z</time>
      </trkpt>
      <trkpt lat="45.80856" lon="6.7454">
        <ele>1855</ele>
        <time>2026-08-14T07:35:58.540Z</time>
      </trkpt>
      <trkpt lat="45.80855" lon="6.74539">
        <ele>1854</ele>
        <time>2026-08-14T07:35:59.540Z</time>
      </trkpt>
      <trkpt lat="45.80854" lon="6.74538">
        <ele>1854</ele>
        <time>2026-08-14T07:36:00.540Z</time>
      </trkpt>
      <trkpt lat="45.80853" lon="6.74537">
        <ele>1854</ele>
        <time>2026-08-14T07:36:01.540Z</time>
      </trkpt>
      <trkpt lat="45.80853" lon="6.74535">
        <ele>1854</ele>
        <time>2026-08-14T07:36:02.540Z</time>
      </trkpt>
      <trkpt lat="45.80852" lon="6.74534">
        <ele>1854</ele>
        <time>2026-08-14T07:36:03.540Z</time>
      </trkpt>
      <trkpt lat="45.80851" lon="6.74532">
        <ele>1853</ele>
        <time>2026-08-14T07:36:04.540Z</time>
      </trkpt>
      <trkpt lat="45.8085" lon="6.74531">
        <ele>1853</ele>
        <time>2026-08-14T07:36:05.540Z</time>
      </trkpt>
      <trkpt lat="45.80849" lon="6.74529">
        <ele>1853</ele>
        <time>2026-08-14T07:36:06.540Z</time>
      </trkpt>
      <trkpt lat="45.80848" lon="6.74528">
        <ele>1853</ele>
        <time>2026-08-14T07:36:07.540Z</time>
      </trkpt>
      <trkpt lat="45.80847" lon="6.74527">
        <ele>1853</ele>
        <time>2026-08-14T07:36:08.540Z</time>
      </trkpt>
      <trkpt lat="45.80846" lon="6.74526">
        <ele>1853</ele>
        <time>2026-08-14T07:36:09.540Z</time>
      </trkpt>
      <trkpt lat="45.80846" lon="6.74526">
        <ele>1853</ele>
        <time>2026-08-14T07:36:10.540Z</time>
      </trkpt>
      <trkpt lat="45.80846" lon="6.74525">
        <ele>1853</ele>
        <time>2026-08-14T07:36:11.540Z</time>
      </trkpt>
      <trkpt lat="45.80846" lon="6.74525">
        <ele>1853</ele>
        <time>2026-08-14T07:36:12.540Z</time>
      </trkpt>
      <trkpt lat="45.80846" lon="6.74526">
        <ele>1853</ele>
        <time>2026-08-14T07:36:13.540Z</time>
      </trkpt>
      <trkpt lat="45.80845" lon="6.74526">
        <ele>1853</ele>
        <time>2026-08-14T07:36:14.540Z</time>
      </trkpt>
      <trkpt lat="45.80845" lon="6.74525">
        <ele>1853</ele>
        <time>2026-08-14T07:36:15.540Z</time>
      </trkpt>
      <trkpt lat="45.80844" lon="6.74525">
        <ele>1853</ele>
        <time>2026-08-14T07:36:16.540Z</time>
      </trkpt>
      <trkpt lat="45.80844" lon="6.74524">
        <ele>1853</ele>
        <time>2026-08-14T07:36:17.540Z</time>
      </trkpt>
      <trkpt lat="45.80843" lon="6.74524">
        <ele>1853</ele>
        <time>2026-08-14T07:36:18.540Z</time>
      </trkpt>
      <trkpt lat="45.80843" lon="6.74524">
        <ele>1853</ele>
        <time>2026-08-14T07:36:19.540Z</time>
      </trkpt>
      <trkpt lat="45.80843" lon="6.74524">
        <ele>1853</ele>
        <time>2026-08-14T07:36:20.540Z</time>
      </trkpt>
      <trkpt lat="45.80843" lon="6.74523">
        <ele>1852</ele>
        <time>2026-08-14T07:36:21.540Z</time>
      </trkpt>
      <trkpt lat="45.80843" lon="6.74523">
        <ele>1852</ele>
        <time>2026-08-14T07:36:22.540Z</time>
      </trkpt>
      <trkpt lat="45.80842" lon="6.74522">
        <ele>1852</ele>
        <time>2026-08-14T07:36:23.540Z</time>
      </trkpt>
      <trkpt lat="45.80842" lon="6.74522">
        <ele>1851</ele>
        <time>2026-08-14T07:36:24.540Z</time>
      </trkpt>
      <trkpt lat="45.80842" lon="6.74521">
        <ele>1851</ele>
        <time>2026-08-14T07:36:25.540Z</time>
      </trkpt>
      <trkpt lat="45.80842" lon="6.74521">
        <ele>1851</ele>
        <time>2026-08-14T07:36:26.540Z</time>
      </trkpt>
      <trkpt lat="45.80842" lon="6.74521">
        <ele>1851</ele>
        <time>2026-08-14T07:36:27.540Z</time>
      </trkpt>
      <trkpt lat="45.80842" lon="6.7452">
        <ele>1851</ele>
        <time>2026-08-14T07:36:28.540Z</time>
      </trkpt>
      <trkpt lat="45.80842" lon="6.7452">
        <ele>1851</ele>
        <time>2026-08-14T07:36:29.540Z</time>
      </trkpt>
      <trkpt lat="45.80841" lon="6.7452">
        <ele>1850</ele>
        <time>2026-08-14T07:36:30.540Z</time>
      </trkpt>
      <trkpt lat="45.80841" lon="6.7452">
        <ele>1850</ele>
        <time>2026-08-14T07:36:31.540Z</time>
      </trkpt>
      <trkpt lat="45.8084" lon="6.74519">
        <ele>1850</ele>
        <time>2026-08-14T07:36:32.540Z</time>
      </trkpt>
      <trkpt lat="45.80839" lon="6.74519">
        <ele>1850</ele>
        <time>2026-08-14T07:36:33.540Z</time>
      </trkpt>
      <trkpt lat="45.80839" lon="6.74519">
        <ele>1849</ele>
        <time>2026-08-14T07:36:34.540Z</time>
      </trkpt>
      <trkpt lat="45.80838" lon="6.74518">
        <ele>1849</ele>
        <time>2026-08-14T07:36:35.540Z</time>
      </trkpt>
      <trkpt lat="45.80838" lon="6.74517">
        <ele>1849</ele>
        <time>2026-08-14T07:36:36.540Z</time>
      </trkpt>
      <trkpt lat="45.80837" lon="6.74517">
        <ele>1849</ele>
        <time>2026-08-14T07:36:37.540Z</time>
      </trkpt>
      <trkpt lat="45.80837" lon="6.74517">
        <ele>1849</ele>
        <time>2026-08-14T07:36:38.540Z</time>
      </trkpt>
      <trkpt lat="45.80837" lon="6.74516">
        <ele>1849</ele>
        <time>2026-08-14T07:36:39.540Z</time>
      </trkpt>
      <trkpt lat="45.80836" lon="6.74515">
        <ele>1849</ele>
        <time>2026-08-14T07:36:40.540Z</time>
      </trkpt>
      <trkpt lat="45.80836" lon="6.74515">
        <ele>1849</ele>
        <time>2026-08-14T07:36:41.540Z</time>
      </trkpt>
      <trkpt lat="45.80835" lon="6.74514">
        <ele>1849</ele>
        <time>2026-08-14T07:36:42.540Z</time>
      </trkpt>
      <trkpt lat="45.80835" lon="6.74513">
        <ele>1848</ele>
        <time>2026-08-14T07:36:43.540Z</time>
      </trkpt>
      <trkpt lat="45.80836" lon="6.74512">
        <ele>1848</ele>
        <time>2026-08-14T07:36:44.540Z</time>
      </trkpt>
      <trkpt lat="45.80836" lon="6.74511">
        <ele>1848</ele>
        <time>2026-08-14T07:36:45.540Z</time>
      </trkpt>
      <trkpt lat="45.80836" lon="6.7451">
        <ele>1848</ele>
        <time>2026-08-14T07:36:46.540Z</time>
      </trkpt>
      <trkpt lat="45.80835" lon="6.74509">
        <ele>1848</ele>
        <time>2026-08-14T07:36:47.540Z</time>
      </trkpt>
      <trkpt lat="45.80835" lon="6.74507">
        <ele>1848</ele>
        <time>2026-08-14T07:36:48.540Z</time>
      </trkpt>
      <trkpt lat="45.80834" lon="6.74506">
        <ele>1848</ele>
        <time>2026-08-14T07:36:49.540Z</time>
      </trkpt>
      <trkpt lat="45.80834" lon="6.74504">
        <ele>1848</ele>
        <time>2026-08-14T07:36:50.540Z</time>
      </trkpt>
      <trkpt lat="45.80834" lon="6.74503">
        <ele>1847</ele>
        <time>2026-08-14T07:36:51.540Z</time>
      </trkpt>
      <trkpt lat="45.80834" lon="6.74501">
        <ele>1847</ele>
        <time>2026-08-14T07:36:52.540Z</time>
      </trkpt>
      <trkpt lat="45.80834" lon="6.74499">
        <ele>1847</ele>
        <time>2026-08-14T07:36:53.540Z</time>
      </trkpt>
      <trkpt lat="45.80834" lon="6.74497">
        <ele>1847</ele>
        <time>2026-08-14T07:36:54.540Z</time>
      </trkpt>
      <trkpt lat="45.80835" lon="6.74496">
        <ele>1846</ele>
        <time>2026-08-14T07:36:55.540Z</time>
      </trkpt>
      <trkpt lat="45.80835" lon="6.74494">
        <ele>1846</ele>
        <time>2026-08-14T07:36:56.540Z</time>
      </trkpt>
      <trkpt lat="45.80836" lon="6.74491">
        <ele>1846</ele>
        <time>2026-08-14T07:36:57.540Z</time>
      </trkpt>
      <trkpt lat="45.80836" lon="6.74488">
        <ele>1846</ele>
        <time>2026-08-14T07:36:58.540Z</time>
      </trkpt>
      <trkpt lat="45.80837" lon="6.74484">
        <ele>1847</ele>
        <time>2026-08-14T07:36:59.540Z</time>
      </trkpt>
      <trkpt lat="45.80837" lon="6.74481">
        <ele>1847</ele>
        <time>2026-08-14T07:37:00.540Z</time>
      </trkpt>
      <trkpt lat="45.80837" lon="6.74477">
        <ele>1847</ele>
        <time>2026-08-14T07:37:01.540Z</time>
      </trkpt>
      <trkpt lat="45.80837" lon="6.74474">
        <ele>1847</ele>
        <time>2026-08-14T07:37:02.540Z</time>
      </trkpt>
      <trkpt lat="45.80837" lon="6.74471">
        <ele>1847</ele>
        <time>2026-08-14T07:37:03.540Z</time>
      </trkpt>
      <trkpt lat="45.80839" lon="6.74469">
        <ele>1848</ele>
        <time>2026-08-14T07:37:04.540Z</time>
      </trkpt>
      <trkpt lat="45.80839" lon="6.74466">
        <ele>1848</ele>
        <time>2026-08-14T07:37:05.540Z</time>
      </trkpt>
      <trkpt lat="45.80841" lon="6.74465">
        <ele>1848</ele>
        <time>2026-08-14T07:37:06.540Z</time>
      </trkpt>
      <trkpt lat="45.80842" lon="6.74463">
        <ele>1849</ele>
        <time>2026-08-14T07:37:07.540Z</time>
      </trkpt>
      <trkpt lat="45.80842" lon="6.74462">
        <ele>1849</ele>
        <time>2026-08-14T07:37:08.540Z</time>
      </trkpt>
      <trkpt lat="45.80843" lon="6.74461">
        <ele>1848</ele>
        <time>2026-08-14T07:37:09.540Z</time>
      </trkpt>
      <trkpt lat="45.80843" lon="6.74459">
        <ele>1848</ele>
        <time>2026-08-14T07:37:10.540Z</time>
      </trkpt>
      <trkpt lat="45.80843" lon="6.74457">
        <ele>1848</ele>
        <time>2026-08-14T07:37:11.540Z</time>
      </trkpt>
      <trkpt lat="45.80843" lon="6.74455">
        <ele>1848</ele>
        <time>2026-08-14T07:37:12.540Z</time>
      </trkpt>
      <trkpt lat="45.80843" lon="6.74453">
        <ele>1849</ele>
        <time>2026-08-14T07:37:13.540Z</time>
      </trkpt>
      <trkpt lat="45.80843" lon="6.74452">
        <ele>1849</ele>
        <time>2026-08-14T07:37:14.540Z</time>
      </trkpt>
      <trkpt lat="45.80842" lon="6.7445">
        <ele>1850</ele>
        <time>2026-08-14T07:37:15.540Z</time>
      </trkpt>
      <trkpt lat="45.80842" lon="6.74448">
        <ele>1850</ele>
        <time>2026-08-14T07:37:16.540Z</time>
      </trkpt>
      <trkpt lat="45.80842" lon="6.74445">
        <ele>1850</ele>
        <time>2026-08-14T07:37:17.540Z</time>
      </trkpt>
      <trkpt lat="45.80841" lon="6.74444">
        <ele>1850</ele>
        <time>2026-08-14T07:37:18.540Z</time>
      </trkpt>
      <trkpt lat="45.8084" lon="6.74443">
        <ele>1851</ele>
        <time>2026-08-14T07:37:19.540Z</time>
      </trkpt>
      <trkpt lat="45.80839" lon="6.74442">
        <ele>1851</ele>
        <time>2026-08-14T07:37:20.540Z</time>
      </trkpt>
      <trkpt lat="45.80838" lon="6.7444">
        <ele>1851</ele>
        <time>2026-08-14T07:37:21.540Z</time>
      </trkpt>
      <trkpt lat="45.80838" lon="6.74438">
        <ele>1851</ele>
        <time>2026-08-14T07:37:22.540Z</time>
      </trkpt>
      <trkpt lat="45.80838" lon="6.74436">
        <ele>1852</ele>
        <time>2026-08-14T07:37:23.540Z</time>
      </trkpt>
      <trkpt lat="45.80837" lon="6.74434">
        <ele>1852</ele>
        <time>2026-08-14T07:37:24.540Z</time>
      </trkpt>
      <trkpt lat="45.80837" lon="6.74432">
        <ele>1852</ele>
        <time>2026-08-14T07:37:25.540Z</time>
      </trkpt>
      <trkpt lat="45.80837" lon="6.7443">
        <ele>1852</ele>
        <time>2026-08-14T07:37:26.540Z</time>
      </trkpt>
      <trkpt lat="45.80837" lon="6.74428">
        <ele>1852</ele>
        <time>2026-08-14T07:37:27.540Z</time>
      </trkpt>
      <trkpt lat="45.80837" lon="6.74425">
        <ele>1852</ele>
        <time>2026-08-14T07:37:28.540Z</time>
      </trkpt>
      <trkpt lat="45.80837" lon="6.74423">
        <ele>1852</ele>
        <time>2026-08-14T07:37:29.540Z</time>
      </trkpt>
      <trkpt lat="45.80837" lon="6.74421">
        <ele>1852</ele>
        <time>2026-08-14T07:37:30.540Z</time>
      </trkpt>
      <trkpt lat="45.80838" lon="6.74419">
        <ele>1851</ele>
        <time>2026-08-14T07:37:31.540Z</time>
      </trkpt>
      <trkpt lat="45.80839" lon="6.74417">
        <ele>1851</ele>
        <time>2026-08-14T07:37:32.540Z</time>
      </trkpt>
      <trkpt lat="45.80841" lon="6.74416">
        <ele>1850</ele>
        <time>2026-08-14T07:37:33.540Z</time>
      </trkpt>
      <trkpt lat="45.80842" lon="6.74415">
        <ele>1850</ele>
        <time>2026-08-14T07:37:34.540Z</time>
      </trkpt>
      <trkpt lat="45.80842" lon="6.74414">
        <ele>1850</ele>
        <time>2026-08-14T07:37:35.540Z</time>
      </trkpt>
      <trkpt lat="45.80842" lon="6.74412">
        <ele>1849</ele>
        <time>2026-08-14T07:37:36.540Z</time>
      </trkpt>
      <trkpt lat="45.80841" lon="6.74411">
        <ele>1849</ele>
        <time>2026-08-14T07:37:37.540Z</time>
      </trkpt>
      <trkpt lat="45.80841" lon="6.7441">
        <ele>1849</ele>
        <time>2026-08-14T07:37:38.540Z</time>
      </trkpt>
      <trkpt lat="45.80841" lon="6.7441">
        <ele>1849</ele>
        <time>2026-08-14T07:37:39.540Z</time>
      </trkpt>
      <trkpt lat="45.8084" lon="6.7441">
        <ele>1849</ele>
        <time>2026-08-14T07:37:40.540Z</time>
      </trkpt>
      <trkpt lat="45.8084" lon="6.74409">
        <ele>1849</ele>
        <time>2026-08-14T07:37:41.540Z</time>
      </trkpt>
      <trkpt lat="45.80839" lon="6.74408">
        <ele>1848</ele>
        <time>2026-08-14T07:37:42.540Z</time>
      </trkpt>
      <trkpt lat="45.80839" lon="6.74407">
        <ele>1848</ele>
        <time>2026-08-14T07:37:43.540Z</time>
      </trkpt>
      <trkpt lat="45.8084" lon="6.74404">
        <ele>1848</ele>
        <time>2026-08-14T07:37:44.540Z</time>
      </trkpt>
      <trkpt lat="45.8084" lon="6.74402">
        <ele>1848</ele>
        <time>2026-08-14T07:37:45.540Z</time>
      </trkpt>
      <trkpt lat="45.8084" lon="6.74399">
        <ele>1847</ele>
        <time>2026-08-14T07:37:46.540Z</time>
      </trkpt>
      <trkpt lat="45.80839" lon="6.74396">
        <ele>1847</ele>
        <time>2026-08-14T07:37:47.540Z</time>
      </trkpt>
      <trkpt lat="45.80839" lon="6.74393">
        <ele>1847</ele>
        <time>2026-08-14T07:37:48.540Z</time>
      </trkpt>
      <trkpt lat="45.80839" lon="6.7439">
        <ele>1847</ele>
        <time>2026-08-14T07:37:49.540Z</time>
      </trkpt>
      <trkpt lat="45.80838" lon="6.74387">
        <ele>1847</ele>
        <time>2026-08-14T07:37:50.540Z</time>
      </trkpt>
      <trkpt lat="45.80838" lon="6.74384">
        <ele>1847</ele>
        <time>2026-08-14T07:37:51.540Z</time>
      </trkpt>
      <trkpt lat="45.80838" lon="6.74381">
        <ele>1847</ele>
        <time>2026-08-14T07:37:52.540Z</time>
      </trkpt>
      <trkpt lat="45.80838" lon="6.74379">
        <ele>1847</ele>
        <time>2026-08-14T07:37:53.540Z</time>
      </trkpt>
      <trkpt lat="45.80839" lon="6.74377">
        <ele>1847</ele>
        <time>2026-08-14T07:37:54.540Z</time>
      </trkpt>
      <trkpt lat="45.80839" lon="6.74375">
        <ele>1847</ele>
        <time>2026-08-14T07:37:55.540Z</time>
      </trkpt>
      <trkpt lat="45.80839" lon="6.74373">
        <ele>1847</ele>
        <time>2026-08-14T07:37:56.540Z</time>
      </trkpt>
      <trkpt lat="45.8084" lon="6.74371">
        <ele>1846</ele>
        <time>2026-08-14T07:37:57.540Z</time>
      </trkpt>
      <trkpt lat="45.8084" lon="6.74368">
        <ele>1845</ele>
        <time>2026-08-14T07:37:58.540Z</time>
      </trkpt>
      <trkpt lat="45.80841" lon="6.74366">
        <ele>1845</ele>
        <time>2026-08-14T07:37:59.540Z</time>
      </trkpt>
      <trkpt lat="45.80841" lon="6.74363">
        <ele>1844</ele>
        <time>2026-08-14T07:38:00.540Z</time>
      </trkpt>
      <trkpt lat="45.80841" lon="6.74361">
        <ele>1844</ele>
        <time>2026-08-14T07:38:01.540Z</time>
      </trkpt>
      <trkpt lat="45.80841" lon="6.7436">
        <ele>1844</ele>
        <time>2026-08-14T07:38:02.540Z</time>
      </trkpt>
      <trkpt lat="45.80841" lon="6.74357">
        <ele>1843</ele>
        <time>2026-08-14T07:38:03.540Z</time>
      </trkpt>
      <trkpt lat="45.8084" lon="6.74355">
        <ele>1843</ele>
        <time>2026-08-14T07:38:04.540Z</time>
      </trkpt>
      <trkpt lat="45.8084" lon="6.74353">
        <ele>1843</ele>
        <time>2026-08-14T07:38:05.540Z</time>
      </trkpt>
      <trkpt lat="45.80839" lon="6.74351">
        <ele>1842</ele>
        <time>2026-08-14T07:38:06.540Z</time>
      </trkpt>
      <trkpt lat="45.80838" lon="6.7435">
        <ele>1842</ele>
        <time>2026-08-14T07:38:07.540Z</time>
      </trkpt>
      <trkpt lat="45.80838" lon="6.74348">
        <ele>1842</ele>
        <time>2026-08-14T07:38:08.540Z</time>
      </trkpt>
      <trkpt lat="45.80836" lon="6.74347">
        <ele>1842</ele>
        <time>2026-08-14T07:38:09.540Z</time>
      </trkpt>
      <trkpt lat="45.80835" lon="6.74345">
        <ele>1842</ele>
        <time>2026-08-14T07:38:10.540Z</time>
      </trkpt>
      <trkpt lat="45.80834" lon="6.74343">
        <ele>1842</ele>
        <time>2026-08-14T07:38:11.540Z</time>
      </trkpt>
      <trkpt lat="45.80833" lon="6.7434">
        <ele>1842</ele>
        <time>2026-08-14T07:38:12.540Z</time>
      </trkpt>
      <trkpt lat="45.80832" lon="6.74338">
        <ele>1841</ele>
        <time>2026-08-14T07:38:13.540Z</time>
      </trkpt>
      <trkpt lat="45.8083" lon="6.74335">
        <ele>1841</ele>
        <time>2026-08-14T07:38:14.540Z</time>
      </trkpt>
      <trkpt lat="45.8083" lon="6.74333">
        <ele>1841</ele>
        <time>2026-08-14T07:38:15.540Z</time>
      </trkpt>
      <trkpt lat="45.80829" lon="6.74331">
        <ele>1841</ele>
        <time>2026-08-14T07:38:16.540Z</time>
      </trkpt>
      <trkpt lat="45.80828" lon="6.74329">
        <ele>1842</ele>
        <time>2026-08-14T07:38:17.540Z</time>
      </trkpt>
      <trkpt lat="45.80828" lon="6.74327">
        <ele>1842</ele>
        <time>2026-08-14T07:38:18.540Z</time>
      </trkpt>
      <trkpt lat="45.80827" lon="6.74324">
        <ele>1842</ele>
        <time>2026-08-14T07:38:19.540Z</time>
      </trkpt>
      <trkpt lat="45.80827" lon="6.74323">
        <ele>1843</ele>
        <time>2026-08-14T07:38:20.540Z</time>
      </trkpt>
      <trkpt lat="45.80827" lon="6.74321">
        <ele>1843</ele>
        <time>2026-08-14T07:38:21.540Z</time>
      </trkpt>
      <trkpt lat="45.80827" lon="6.74319">
        <ele>1843</ele>
        <time>2026-08-14T07:38:22.540Z</time>
      </trkpt>
      <trkpt lat="45.80827" lon="6.74317">
        <ele>1843</ele>
        <time>2026-08-14T07:38:23.540Z</time>
      </trkpt>
      <trkpt lat="45.80827" lon="6.74315">
        <ele>1843</ele>
        <time>2026-08-14T07:38:24.540Z</time>
      </trkpt>
      <trkpt lat="45.80828" lon="6.74312">
        <ele>1843</ele>
        <time>2026-08-14T07:38:25.540Z</time>
      </trkpt>
      <trkpt lat="45.80828" lon="6.74309">
        <ele>1843</ele>
        <time>2026-08-14T07:38:26.540Z</time>
      </trkpt>
      <trkpt lat="45.80829" lon="6.74306">
        <ele>1842</ele>
        <time>2026-08-14T07:38:27.540Z</time>
      </trkpt>
      <trkpt lat="45.80829" lon="6.74303">
        <ele>1842</ele>
        <time>2026-08-14T07:38:28.540Z</time>
      </trkpt>
      <trkpt lat="45.8083" lon="6.743">
        <ele>1842</ele>
        <time>2026-08-14T07:38:29.540Z</time>
      </trkpt>
      <trkpt lat="45.8083" lon="6.74297">
        <ele>1842</ele>
        <time>2026-08-14T07:38:30.540Z</time>
      </trkpt>
      <trkpt lat="45.8083" lon="6.74294">
        <ele>1842</ele>
        <time>2026-08-14T07:38:31.540Z</time>
      </trkpt>
      <trkpt lat="45.80831" lon="6.74292">
        <ele>1842</ele>
        <time>2026-08-14T07:38:32.540Z</time>
      </trkpt>
      <trkpt lat="45.80831" lon="6.7429">
        <ele>1842</ele>
        <time>2026-08-14T07:38:33.540Z</time>
      </trkpt>
      <trkpt lat="45.80832" lon="6.74288">
        <ele>1842</ele>
        <time>2026-08-14T07:38:34.540Z</time>
      </trkpt>
      <trkpt lat="45.80832" lon="6.74285">
        <ele>1842</ele>
        <time>2026-08-14T07:38:35.540Z</time>
      </trkpt>
      <trkpt lat="45.80832" lon="6.74282">
        <ele>1842</ele>
        <time>2026-08-14T07:38:36.540Z</time>
      </trkpt>
      <trkpt lat="45.80831" lon="6.7428">
        <ele>1843</ele>
        <time>2026-08-14T07:38:37.540Z</time>
      </trkpt>
      <trkpt lat="45.80832" lon="6.74277">
        <ele>1843</ele>
        <time>2026-08-14T07:38:38.540Z</time>
      </trkpt>
      <trkpt lat="45.80833" lon="6.74274">
        <ele>1844</ele>
        <time>2026-08-14T07:38:39.540Z</time>
      </trkpt>
      <trkpt lat="45.80834" lon="6.74272">
        <ele>1844</ele>
        <time>2026-08-14T07:38:40.540Z</time>
      </trkpt>
      <trkpt lat="45.80836" lon="6.7427">
        <ele>1844</ele>
        <time>2026-08-14T07:38:41.540Z</time>
      </trkpt>
      <trkpt lat="45.80838" lon="6.74267">
        <ele>1845</ele>
        <time>2026-08-14T07:38:42.540Z</time>
      </trkpt>
      <trkpt lat="45.80839" lon="6.74265">
        <ele>1845</ele>
        <time>2026-08-14T07:38:43.540Z</time>
      </trkpt>
      <trkpt lat="45.8084" lon="6.74263">
        <ele>1845</ele>
        <time>2026-08-14T07:38:44.540Z</time>
      </trkpt>
      <trkpt lat="45.80842" lon="6.74261">
        <ele>1846</ele>
        <time>2026-08-14T07:38:45.540Z</time>
      </trkpt>
      <trkpt lat="45.80843" lon="6.74259">
        <ele>1846</ele>
        <time>2026-08-14T07:38:46.540Z</time>
      </trkpt>
      <trkpt lat="45.80844" lon="6.74257">
        <ele>1846</ele>
        <time>2026-08-14T07:38:47.540Z</time>
      </trkpt>
      <trkpt lat="45.80844" lon="6.74255">
        <ele>1846</ele>
        <time>2026-08-14T07:38:48.540Z</time>
      </trkpt>
      <trkpt lat="45.80844" lon="6.74253">
        <ele>1846</ele>
        <time>2026-08-14T07:38:49.540Z</time>
      </trkpt>
      <trkpt lat="45.80844" lon="6.74251">
        <ele>1846</ele>
        <time>2026-08-14T07:38:50.540Z</time>
      </trkpt>
      <trkpt lat="45.80843" lon="6.74249">
        <ele>1846</ele>
        <time>2026-08-14T07:38:51.540Z</time>
      </trkpt>
      <trkpt lat="45.80842" lon="6.74246">
        <ele>1846</ele>
        <time>2026-08-14T07:38:52.540Z</time>
      </trkpt>
      <trkpt lat="45.80841" lon="6.74245">
        <ele>1846</ele>
        <time>2026-08-14T07:38:53.540Z</time>
      </trkpt>
      <trkpt lat="45.8084" lon="6.74243">
        <ele>1846</ele>
        <time>2026-08-14T07:38:54.540Z</time>
      </trkpt>
      <trkpt lat="45.80839" lon="6.74241">
        <ele>1846</ele>
        <time>2026-08-14T07:38:55.540Z</time>
      </trkpt>
      <trkpt lat="45.80837" lon="6.74239">
        <ele>1846</ele>
        <time>2026-08-14T07:38:56.540Z</time>
      </trkpt>
      <trkpt lat="45.80836" lon="6.74237">
        <ele>1846</ele>
        <time>2026-08-14T07:38:57.540Z</time>
      </trkpt>
      <trkpt lat="45.80835" lon="6.74235">
        <ele>1846</ele>
        <time>2026-08-14T07:38:58.540Z</time>
      </trkpt>
      <trkpt lat="45.80834" lon="6.74232">
        <ele>1847</ele>
        <time>2026-08-14T07:38:59.540Z</time>
      </trkpt>
      <trkpt lat="45.80834" lon="6.74229">
        <ele>1847</ele>
        <time>2026-08-14T07:39:00.540Z</time>
      </trkpt>
      <trkpt lat="45.80834" lon="6.74226">
        <ele>1847</ele>
        <time>2026-08-14T07:39:01.540Z</time>
      </trkpt>
      <trkpt lat="45.80834" lon="6.74223">
        <ele>1847</ele>
        <time>2026-08-14T07:39:02.540Z</time>
      </trkpt>
      <trkpt lat="45.80833" lon="6.74221">
        <ele>1847</ele>
        <time>2026-08-14T07:39:03.540Z</time>
      </trkpt>
      <trkpt lat="45.80832" lon="6.74219">
        <ele>1846</ele>
        <time>2026-08-14T07:39:04.540Z</time>
      </trkpt>
      <trkpt lat="45.80831" lon="6.74218">
        <ele>1846</ele>
        <time>2026-08-14T07:39:05.540Z</time>
      </trkpt>
      <trkpt lat="45.8083" lon="6.74216">
        <ele>1846</ele>
        <time>2026-08-14T07:39:06.540Z</time>
      </trkpt>
      <trkpt lat="45.80829" lon="6.74215">
        <ele>1846</ele>
        <time>2026-08-14T07:39:07.540Z</time>
      </trkpt>
      <trkpt lat="45.80827" lon="6.74214">
        <ele>1846</ele>
        <time>2026-08-14T07:39:08.540Z</time>
      </trkpt>
      <trkpt lat="45.80826" lon="6.74213">
        <ele>1846</ele>
        <time>2026-08-14T07:39:09.540Z</time>
      </trkpt>
      <trkpt lat="45.80824" lon="6.74212">
        <ele>1845</ele>
        <time>2026-08-14T07:39:10.540Z</time>
      </trkpt>
      <trkpt lat="45.80822" lon="6.7421">
        <ele>1845</ele>
        <time>2026-08-14T07:39:11.540Z</time>
      </trkpt>
      <trkpt lat="45.80821" lon="6.74208">
        <ele>1845</ele>
        <time>2026-08-14T07:39:12.540Z</time>
      </trkpt>
      <trkpt lat="45.80819" lon="6.74206">
        <ele>1846</ele>
        <time>2026-08-14T07:39:13.540Z</time>
      </trkpt>
      <trkpt lat="45.80818" lon="6.74204">
        <ele>1846</ele>
        <time>2026-08-14T07:39:14.540Z</time>
      </trkpt>
      <trkpt lat="45.80817" lon="6.74202">
        <ele>1846</ele>
        <time>2026-08-14T07:39:15.540Z</time>
      </trkpt>
      <trkpt lat="45.80815" lon="6.742">
        <ele>1847</ele>
        <time>2026-08-14T07:39:16.540Z</time>
      </trkpt>
      <trkpt lat="45.80814" lon="6.74198">
        <ele>1847</ele>
        <time>2026-08-14T07:39:17.540Z</time>
      </trkpt>
      <trkpt lat="45.80813" lon="6.74197">
        <ele>1847</ele>
        <time>2026-08-14T07:39:18.540Z</time>
      </trkpt>
      <trkpt lat="45.80812" lon="6.74196">
        <ele>1847</ele>
        <time>2026-08-14T07:39:19.540Z</time>
      </trkpt>
      <trkpt lat="45.8081" lon="6.74195">
        <ele>1848</ele>
        <time>2026-08-14T07:39:20.540Z</time>
      </trkpt>
      <trkpt lat="45.80808" lon="6.74194">
        <ele>1848</ele>
        <time>2026-08-14T07:39:21.540Z</time>
      </trkpt>
      <trkpt lat="45.80806" lon="6.74193">
        <ele>1848</ele>
        <time>2026-08-14T07:39:22.540Z</time>
      </trkpt>
      <trkpt lat="45.80805" lon="6.74192">
        <ele>1849</ele>
        <time>2026-08-14T07:39:23.540Z</time>
      </trkpt>
      <trkpt lat="45.80804" lon="6.74191">
        <ele>1849</ele>
        <time>2026-08-14T07:39:24.540Z</time>
      </trkpt>
      <trkpt lat="45.80803" lon="6.7419">
        <ele>1849</ele>
        <time>2026-08-14T07:39:25.540Z</time>
      </trkpt>
      <trkpt lat="45.80802" lon="6.7419">
        <ele>1848</ele>
        <time>2026-08-14T07:39:26.540Z</time>
      </trkpt>
      <trkpt lat="45.80801" lon="6.74189">
        <ele>1848</ele>
        <time>2026-08-14T07:39:27.540Z</time>
      </trkpt>
      <trkpt lat="45.80799" lon="6.74187">
        <ele>1848</ele>
        <time>2026-08-14T07:39:28.540Z</time>
      </trkpt>
      <trkpt lat="45.80797" lon="6.74185">
        <ele>1848</ele>
        <time>2026-08-14T07:39:29.540Z</time>
      </trkpt>
      <trkpt lat="45.80795" lon="6.74184">
        <ele>1848</ele>
        <time>2026-08-14T07:39:30.540Z</time>
      </trkpt>
      <trkpt lat="45.80792" lon="6.74183">
        <ele>1848</ele>
        <time>2026-08-14T07:39:31.540Z</time>
      </trkpt>
      <trkpt lat="45.8079" lon="6.74182">
        <ele>1848</ele>
        <time>2026-08-14T07:39:32.540Z</time>
      </trkpt>
      <trkpt lat="45.80789" lon="6.74182">
        <ele>1848</ele>
        <time>2026-08-14T07:39:33.540Z</time>
      </trkpt>
      <trkpt lat="45.80788" lon="6.74181">
        <ele>1848</ele>
        <time>2026-08-14T07:39:34.540Z</time>
      </trkpt>
      <trkpt lat="45.80786" lon="6.74181">
        <ele>1848</ele>
        <time>2026-08-14T07:39:35.540Z</time>
      </trkpt>
      <trkpt lat="45.80785" lon="6.7418">
        <ele>1848</ele>
        <time>2026-08-14T07:39:36.540Z</time>
      </trkpt>
      <trkpt lat="45.80783" lon="6.74179">
        <ele>1848</ele>
        <time>2026-08-14T07:39:37.540Z</time>
      </trkpt>
      <trkpt lat="45.80782" lon="6.74178">
        <ele>1848</ele>
        <time>2026-08-14T07:39:38.540Z</time>
      </trkpt>
      <trkpt lat="45.80781" lon="6.74177">
        <ele>1848</ele>
        <time>2026-08-14T07:39:39.540Z</time>
      </trkpt>
      <trkpt lat="45.80779" lon="6.74176">
        <ele>1848</ele>
        <time>2026-08-14T07:39:40.540Z</time>
      </trkpt>
      <trkpt lat="45.80778" lon="6.74176">
        <ele>1847</ele>
        <time>2026-08-14T07:39:41.540Z</time>
      </trkpt>
      <trkpt lat="45.80776" lon="6.74176">
        <ele>1847</ele>
        <time>2026-08-14T07:39:42.540Z</time>
      </trkpt>
      <trkpt lat="45.80774" lon="6.74176">
        <ele>1846</ele>
        <time>2026-08-14T07:39:43.540Z</time>
      </trkpt>
      <trkpt lat="45.80772" lon="6.74176">
        <ele>1846</ele>
        <time>2026-08-14T07:39:44.540Z</time>
      </trkpt>
      <trkpt lat="45.8077" lon="6.74176">
        <ele>1845</ele>
        <time>2026-08-14T07:39:45.540Z</time>
      </trkpt>
      <trkpt lat="45.80769" lon="6.74176">
        <ele>1845</ele>
        <time>2026-08-14T07:39:46.540Z</time>
      </trkpt>
      <trkpt lat="45.80768" lon="6.74176">
        <ele>1845</ele>
        <time>2026-08-14T07:39:47.540Z</time>
      </trkpt>
      <trkpt lat="45.80767" lon="6.74176">
        <ele>1845</ele>
        <time>2026-08-14T07:39:48.540Z</time>
      </trkpt>
      <trkpt lat="45.80765" lon="6.74176">
        <ele>1844</ele>
        <time>2026-08-14T07:39:49.540Z</time>
      </trkpt>
      <trkpt lat="45.80763" lon="6.74175">
        <ele>1844</ele>
        <time>2026-08-14T07:39:50.540Z</time>
      </trkpt>
      <trkpt lat="45.80763" lon="6.74174">
        <ele>1844</ele>
        <time>2026-08-14T07:39:51.540Z</time>
      </trkpt>
      <trkpt lat="45.80762" lon="6.74174">
        <ele>1844</ele>
        <time>2026-08-14T07:39:52.540Z</time>
      </trkpt>
      <trkpt lat="45.80762" lon="6.74174">
        <ele>1844</ele>
        <time>2026-08-14T07:39:53.540Z</time>
      </trkpt>
      <trkpt lat="45.80762" lon="6.74173">
        <ele>1844</ele>
        <time>2026-08-14T07:39:54.540Z</time>
      </trkpt>
      <trkpt lat="45.80761" lon="6.74173">
        <ele>1844</ele>
        <time>2026-08-14T07:39:55.540Z</time>
      </trkpt>
      <trkpt lat="45.80762" lon="6.74173">
        <ele>1843</ele>
        <time>2026-08-14T07:39:56.540Z</time>
      </trkpt>
      <trkpt lat="45.80761" lon="6.74172">
        <ele>1843</ele>
        <time>2026-08-14T07:39:57.540Z</time>
      </trkpt>
      <trkpt lat="45.8076" lon="6.74171">
        <ele>1843</ele>
        <time>2026-08-14T07:39:58.540Z</time>
      </trkpt>
      <trkpt lat="45.80758" lon="6.7417">
        <ele>1843</ele>
        <time>2026-08-14T07:39:59.540Z</time>
      </trkpt>
      <trkpt lat="45.80756" lon="6.7417">
        <ele>1842</ele>
        <time>2026-08-14T07:40:00.540Z</time>
      </trkpt>
      <trkpt lat="45.80755" lon="6.7417">
        <ele>1842</ele>
        <time>2026-08-14T07:40:01.540Z</time>
      </trkpt>
      <trkpt lat="45.80753" lon="6.74169">
        <ele>1842</ele>
        <time>2026-08-14T07:40:02.540Z</time>
      </trkpt>
      <trkpt lat="45.80751" lon="6.74169">
        <ele>1841</ele>
        <time>2026-08-14T07:40:03.540Z</time>
      </trkpt>
      <trkpt lat="45.80749" lon="6.74167">
        <ele>1841</ele>
        <time>2026-08-14T07:40:04.540Z</time>
      </trkpt>
      <trkpt lat="45.80746" lon="6.74166">
        <ele>1841</ele>
        <time>2026-08-14T07:40:05.540Z</time>
      </trkpt>
      <trkpt lat="45.80745" lon="6.74165">
        <ele>1841</ele>
        <time>2026-08-14T07:40:06.540Z</time>
      </trkpt>
      <trkpt lat="45.80743" lon="6.74163">
        <ele>1841</ele>
        <time>2026-08-14T07:40:07.540Z</time>
      </trkpt>
      <trkpt lat="45.80741" lon="6.74162">
        <ele>1841</ele>
        <time>2026-08-14T07:40:08.540Z</time>
      </trkpt>
      <trkpt lat="45.80738" lon="6.7416">
        <ele>1841</ele>
        <time>2026-08-14T07:40:09.540Z</time>
      </trkpt>
      <trkpt lat="45.80736" lon="6.7416">
        <ele>1841</ele>
        <time>2026-08-14T07:40:10.540Z</time>
      </trkpt>
      <trkpt lat="45.80733" lon="6.74159">
        <ele>1841</ele>
        <time>2026-08-14T07:40:11.540Z</time>
      </trkpt>
      <trkpt lat="45.80731" lon="6.74159">
        <ele>1841</ele>
        <time>2026-08-14T07:40:12.540Z</time>
      </trkpt>
      <trkpt lat="45.80729" lon="6.74158">
        <ele>1840</ele>
        <time>2026-08-14T07:40:13.540Z</time>
      </trkpt>
      <trkpt lat="45.80726" lon="6.74157">
        <ele>1840</ele>
        <time>2026-08-14T07:40:14.540Z</time>
      </trkpt>
      <trkpt lat="45.80723" lon="6.74157">
        <ele>1840</ele>
        <time>2026-08-14T07:40:15.540Z</time>
      </trkpt>
      <trkpt lat="45.80722" lon="6.74156">
        <ele>1840</ele>
        <time>2026-08-14T07:40:16.540Z</time>
      </trkpt>
      <trkpt lat="45.8072" lon="6.74154">
        <ele>1840</ele>
        <time>2026-08-14T07:40:17.540Z</time>
      </trkpt>
      <trkpt lat="45.80718" lon="6.74153">
        <ele>1840</ele>
        <time>2026-08-14T07:40:18.540Z</time>
      </trkpt>
      <trkpt lat="45.80716" lon="6.74153">
        <ele>1841</ele>
        <time>2026-08-14T07:40:19.540Z</time>
      </trkpt>
      <trkpt lat="45.80714" lon="6.74153">
        <ele>1840</ele>
        <time>2026-08-14T07:40:20.540Z</time>
      </trkpt>
      <trkpt lat="45.80712" lon="6.74151">
        <ele>1840</ele>
        <time>2026-08-14T07:40:21.540Z</time>
      </trkpt>
      <trkpt lat="45.80711" lon="6.7415">
        <ele>1840</ele>
        <time>2026-08-14T07:40:22.540Z</time>
      </trkpt>
      <trkpt lat="45.80709" lon="6.7415">
        <ele>1840</ele>
        <time>2026-08-14T07:40:23.540Z</time>
      </trkpt>
      <trkpt lat="45.80707" lon="6.7415">
        <ele>1839</ele>
        <time>2026-08-14T07:40:24.540Z</time>
      </trkpt>
      <trkpt lat="45.80705" lon="6.7415">
        <ele>1839</ele>
        <time>2026-08-14T07:40:25.540Z</time>
      </trkpt>
      <trkpt lat="45.80703" lon="6.7415">
        <ele>1839</ele>
        <time>2026-08-14T07:40:26.540Z</time>
      </trkpt>
      <trkpt lat="45.80702" lon="6.7415">
        <ele>1838</ele>
        <time>2026-08-14T07:40:27.540Z</time>
      </trkpt>
      <trkpt lat="45.807" lon="6.74149">
        <ele>1838</ele>
        <time>2026-08-14T07:40:28.540Z</time>
      </trkpt>
      <trkpt lat="45.80698" lon="6.74148">
        <ele>1838</ele>
        <time>2026-08-14T07:40:29.540Z</time>
      </trkpt>
      <trkpt lat="45.80695" lon="6.74147">
        <ele>1838</ele>
        <time>2026-08-14T07:40:30.540Z</time>
      </trkpt>
      <trkpt lat="45.80692" lon="6.74146">
        <ele>1838</ele>
        <time>2026-08-14T07:40:31.540Z</time>
      </trkpt>
      <trkpt lat="45.80688" lon="6.74145">
        <ele>1838</ele>
        <time>2026-08-14T07:40:32.540Z</time>
      </trkpt>
      <trkpt lat="45.80685" lon="6.74144">
        <ele>1838</ele>
        <time>2026-08-14T07:40:33.540Z</time>
      </trkpt>
      <trkpt lat="45.80683" lon="6.74143">
        <ele>1837</ele>
        <time>2026-08-14T07:40:34.540Z</time>
      </trkpt>
      <trkpt lat="45.8068" lon="6.74142">
        <ele>1837</ele>
        <time>2026-08-14T07:40:35.540Z</time>
      </trkpt>
      <trkpt lat="45.80678" lon="6.74142">
        <ele>1837</ele>
        <time>2026-08-14T07:40:36.540Z</time>
      </trkpt>
      <trkpt lat="45.80676" lon="6.74142">
        <ele>1836</ele>
        <time>2026-08-14T07:40:37.540Z</time>
      </trkpt>
      <trkpt lat="45.80675" lon="6.74142">
        <ele>1836</ele>
        <time>2026-08-14T07:40:38.540Z</time>
      </trkpt>
      <trkpt lat="45.80672" lon="6.74142">
        <ele>1836</ele>
        <time>2026-08-14T07:40:39.540Z</time>
      </trkpt>
      <trkpt lat="45.8067" lon="6.74141">
        <ele>1836</ele>
        <time>2026-08-14T07:40:40.540Z</time>
      </trkpt>
      <trkpt lat="45.80668" lon="6.74141">
        <ele>1836</ele>
        <time>2026-08-14T07:40:41.540Z</time>
      </trkpt>
      <trkpt lat="45.80667" lon="6.74141">
        <ele>1835</ele>
        <time>2026-08-14T07:40:42.540Z</time>
      </trkpt>
      <trkpt lat="45.80665" lon="6.7414">
        <ele>1835</ele>
        <time>2026-08-14T07:40:43.540Z</time>
      </trkpt>
      <trkpt lat="45.80664" lon="6.7414">
        <ele>1835</ele>
        <time>2026-08-14T07:40:44.540Z</time>
      </trkpt>
      <trkpt lat="45.80662" lon="6.7414">
        <ele>1834</ele>
        <time>2026-08-14T07:40:45.540Z</time>
      </trkpt>
      <trkpt lat="45.8066" lon="6.7414">
        <ele>1834</ele>
        <time>2026-08-14T07:40:46.540Z</time>
      </trkpt>
      <trkpt lat="45.80656" lon="6.7414">
        <ele>1833</ele>
        <time>2026-08-14T07:40:47.540Z</time>
      </trkpt>
      <trkpt lat="45.80653" lon="6.74139">
        <ele>1833</ele>
        <time>2026-08-14T07:40:48.540Z</time>
      </trkpt>
      <trkpt lat="45.8065" lon="6.74138">
        <ele>1833</ele>
        <time>2026-08-14T07:40:49.540Z</time>
      </trkpt>
      <trkpt lat="45.80647" lon="6.74138">
        <ele>1832</ele>
        <time>2026-08-14T07:40:50.540Z</time>
      </trkpt>
      <trkpt lat="45.80644" lon="6.74138">
        <ele>1832</ele>
        <time>2026-08-14T07:40:51.540Z</time>
      </trkpt>
      <trkpt lat="45.80641" lon="6.74138">
        <ele>1832</ele>
        <time>2026-08-14T07:40:52.540Z</time>
      </trkpt>
      <trkpt lat="45.80639" lon="6.74137">
        <ele>1832</ele>
        <time>2026-08-14T07:40:53.540Z</time>
      </trkpt>
      <trkpt lat="45.80637" lon="6.74136">
        <ele>1832</ele>
        <time>2026-08-14T07:40:54.540Z</time>
      </trkpt>
      <trkpt lat="45.80635" lon="6.74135">
        <ele>1831</ele>
        <time>2026-08-14T07:40:55.540Z</time>
      </trkpt>
      <trkpt lat="45.80633" lon="6.74134">
        <ele>1831</ele>
        <time>2026-08-14T07:40:56.540Z</time>
      </trkpt>
      <trkpt lat="45.80632" lon="6.74133">
        <ele>1831</ele>
        <time>2026-08-14T07:40:57.540Z</time>
      </trkpt>
      <trkpt lat="45.80629" lon="6.74132">
        <ele>1831</ele>
        <time>2026-08-14T07:40:58.540Z</time>
      </trkpt>
      <trkpt lat="45.80626" lon="6.74131">
        <ele>1831</ele>
        <time>2026-08-14T07:40:59.540Z</time>
      </trkpt>
      <trkpt lat="45.80623" lon="6.74131">
        <ele>1831</ele>
        <time>2026-08-14T07:41:00.540Z</time>
      </trkpt>
      <trkpt lat="45.80622" lon="6.74131">
        <ele>1831</ele>
        <time>2026-08-14T07:41:01.540Z</time>
      </trkpt>
      <trkpt lat="45.8062" lon="6.74132">
        <ele>1831</ele>
        <time>2026-08-14T07:41:02.540Z</time>
      </trkpt>
      <trkpt lat="45.80618" lon="6.74132">
        <ele>1830</ele>
        <time>2026-08-14T07:41:03.540Z</time>
      </trkpt>
      <trkpt lat="45.80616" lon="6.74132">
        <ele>1830</ele>
        <time>2026-08-14T07:41:04.540Z</time>
      </trkpt>
      <trkpt lat="45.80614" lon="6.74132">
        <ele>1830</ele>
        <time>2026-08-14T07:41:05.540Z</time>
      </trkpt>
      <trkpt lat="45.80613" lon="6.74132">
        <ele>1830</ele>
        <time>2026-08-14T07:41:06.540Z</time>
      </trkpt>
      <trkpt lat="45.80611" lon="6.74132">
        <ele>1830</ele>
        <time>2026-08-14T07:41:07.540Z</time>
      </trkpt>
      <trkpt lat="45.80609" lon="6.74133">
        <ele>1829</ele>
        <time>2026-08-14T07:41:08.540Z</time>
      </trkpt>
      <trkpt lat="45.80607" lon="6.74133">
        <ele>1829</ele>
        <time>2026-08-14T07:41:09.540Z</time>
      </trkpt>
      <trkpt lat="45.80606" lon="6.74134">
        <ele>1829</ele>
        <time>2026-08-14T07:41:10.540Z</time>
      </trkpt>
      <trkpt lat="45.80604" lon="6.74134">
        <ele>1829</ele>
        <time>2026-08-14T07:41:11.540Z</time>
      </trkpt>
      <trkpt lat="45.80602" lon="6.74134">
        <ele>1829</ele>
        <time>2026-08-14T07:41:12.540Z</time>
      </trkpt>
      <trkpt lat="45.80599" lon="6.74134">
        <ele>1828</ele>
        <time>2026-08-14T07:41:13.540Z</time>
      </trkpt>
      <trkpt lat="45.80596" lon="6.74133">
        <ele>1828</ele>
        <time>2026-08-14T07:41:14.540Z</time>
      </trkpt>
      <trkpt lat="45.80593" lon="6.74132">
        <ele>1828</ele>
        <time>2026-08-14T07:41:15.540Z</time>
      </trkpt>
      <trkpt lat="45.8059" lon="6.74132">
        <ele>1828</ele>
        <time>2026-08-14T07:41:16.540Z</time>
      </trkpt>
      <trkpt lat="45.80586" lon="6.74131">
        <ele>1828</ele>
        <time>2026-08-14T07:41:17.540Z</time>
      </trkpt>
      <trkpt lat="45.80582" lon="6.7413">
        <ele>1828</ele>
        <time>2026-08-14T07:41:18.540Z</time>
      </trkpt>
      <trkpt lat="45.80578" lon="6.74129">
        <ele>1827</ele>
        <time>2026-08-14T07:41:19.540Z</time>
      </trkpt>
      <trkpt lat="45.80575" lon="6.74129">
        <ele>1827</ele>
        <time>2026-08-14T07:41:20.540Z</time>
      </trkpt>
      <trkpt lat="45.80573" lon="6.74129">
        <ele>1827</ele>
        <time>2026-08-14T07:41:21.540Z</time>
      </trkpt>
      <trkpt lat="45.80571" lon="6.7413">
        <ele>1826</ele>
        <time>2026-08-14T07:41:22.540Z</time>
      </trkpt>
      <trkpt lat="45.80569" lon="6.7413">
        <ele>1826</ele>
        <time>2026-08-14T07:41:23.540Z</time>
      </trkpt>
      <trkpt lat="45.80567" lon="6.74131">
        <ele>1826</ele>
        <time>2026-08-14T07:41:24.540Z</time>
      </trkpt>
      <trkpt lat="45.80565" lon="6.74131">
        <ele>1825</ele>
        <time>2026-08-14T07:41:25.540Z</time>
      </trkpt>
      <trkpt lat="45.80563" lon="6.74131">
        <ele>1825</ele>
        <time>2026-08-14T07:41:26.540Z</time>
      </trkpt>
      <trkpt lat="45.80561" lon="6.7413">
        <ele>1825</ele>
        <time>2026-08-14T07:41:27.540Z</time>
      </trkpt>
      <trkpt lat="45.80558" lon="6.7413">
        <ele>1824</ele>
        <time>2026-08-14T07:41:28.540Z</time>
      </trkpt>
      <trkpt lat="45.80556" lon="6.74129">
        <ele>1824</ele>
        <time>2026-08-14T07:41:29.540Z</time>
      </trkpt>
      <trkpt lat="45.80555" lon="6.74128">
        <ele>1823</ele>
        <time>2026-08-14T07:41:30.540Z</time>
      </trkpt>
      <trkpt lat="45.80553" lon="6.74127">
        <ele>1823</ele>
        <time>2026-08-14T07:41:31.540Z</time>
      </trkpt>
      <trkpt lat="45.80551" lon="6.74125">
        <ele>1823</ele>
        <time>2026-08-14T07:41:32.540Z</time>
      </trkpt>
      <trkpt lat="45.8055" lon="6.74124">
        <ele>1823</ele>
        <time>2026-08-14T07:41:33.540Z</time>
      </trkpt>
      <trkpt lat="45.80548" lon="6.74124">
        <ele>1823</ele>
        <time>2026-08-14T07:41:34.540Z</time>
      </trkpt>
      <trkpt lat="45.80545" lon="6.74124">
        <ele>1822</ele>
        <time>2026-08-14T07:41:35.540Z</time>
      </trkpt>
      <trkpt lat="45.80542" lon="6.74124">
        <ele>1822</ele>
        <time>2026-08-14T07:41:36.540Z</time>
      </trkpt>
      <trkpt lat="45.8054" lon="6.74124">
        <ele>1822</ele>
        <time>2026-08-14T07:41:37.540Z</time>
      </trkpt>
      <trkpt lat="45.80538" lon="6.74124">
        <ele>1822</ele>
        <time>2026-08-14T07:41:38.540Z</time>
      </trkpt>
      <trkpt lat="45.80535" lon="6.74124">
        <ele>1822</ele>
        <time>2026-08-14T07:41:39.540Z</time>
      </trkpt>
      <trkpt lat="45.80531" lon="6.74124">
        <ele>1822</ele>
        <time>2026-08-14T07:41:40.540Z</time>
      </trkpt>
      <trkpt lat="45.80529" lon="6.74125">
        <ele>1823</ele>
        <time>2026-08-14T07:41:41.540Z</time>
      </trkpt>
      <trkpt lat="45.80527" lon="6.74125">
        <ele>1823</ele>
        <time>2026-08-14T07:41:42.540Z</time>
      </trkpt>
      <trkpt lat="45.80526" lon="6.74126">
        <ele>1823</ele>
        <time>2026-08-14T07:41:43.540Z</time>
      </trkpt>
      <trkpt lat="45.80524" lon="6.74126">
        <ele>1823</ele>
        <time>2026-08-14T07:41:44.540Z</time>
      </trkpt>
      <trkpt lat="45.80523" lon="6.74127">
        <ele>1823</ele>
        <time>2026-08-14T07:41:45.540Z</time>
      </trkpt>
      <trkpt lat="45.8052" lon="6.74127">
        <ele>1823</ele>
        <time>2026-08-14T07:41:46.540Z</time>
      </trkpt>
      <trkpt lat="45.80517" lon="6.74127">
        <ele>1823</ele>
        <time>2026-08-14T07:41:47.540Z</time>
      </trkpt>
      <trkpt lat="45.80514" lon="6.74127">
        <ele>1823</ele>
        <time>2026-08-14T07:41:48.540Z</time>
      </trkpt>
      <trkpt lat="45.80511" lon="6.74127">
        <ele>1823</ele>
        <time>2026-08-14T07:41:49.540Z</time>
      </trkpt>
      <trkpt lat="45.80507" lon="6.74128">
        <ele>1824</ele>
        <time>2026-08-14T07:41:50.540Z</time>
      </trkpt>
      <trkpt lat="45.80505" lon="6.74128">
        <ele>1824</ele>
        <time>2026-08-14T07:41:51.540Z</time>
      </trkpt>
      <trkpt lat="45.80503" lon="6.74129">
        <ele>1824</ele>
        <time>2026-08-14T07:41:52.540Z</time>
      </trkpt>
      <trkpt lat="45.80503" lon="6.7413">
        <ele>1825</ele>
        <time>2026-08-14T07:41:53.540Z</time>
      </trkpt>
      <trkpt lat="45.80501" lon="6.74131">
        <ele>1825</ele>
        <time>2026-08-14T07:41:54.540Z</time>
      </trkpt>
      <trkpt lat="45.80499" lon="6.74132">
        <ele>1825</ele>
        <time>2026-08-14T07:41:55.540Z</time>
      </trkpt>
      <trkpt lat="45.80498" lon="6.74132">
        <ele>1826</ele>
        <time>2026-08-14T07:41:56.540Z</time>
      </trkpt>
      <trkpt lat="45.80496" lon="6.74132">
        <ele>1826</ele>
        <time>2026-08-14T07:41:57.540Z</time>
      </trkpt>
      <trkpt lat="45.80495" lon="6.74134">
        <ele>1826</ele>
        <time>2026-08-14T07:41:58.540Z</time>
      </trkpt>
      <trkpt lat="45.80494" lon="6.74135">
        <ele>1826</ele>
        <time>2026-08-14T07:41:59.540Z</time>
      </trkpt>
      <trkpt lat="45.80492" lon="6.74136">
        <ele>1826</ele>
        <time>2026-08-14T07:42:00.540Z</time>
      </trkpt>
      <trkpt lat="45.8049" lon="6.74136">
        <ele>1826</ele>
        <time>2026-08-14T07:42:01.540Z</time>
      </trkpt>
      <trkpt lat="45.80489" lon="6.74136">
        <ele>1826</ele>
        <time>2026-08-14T07:42:02.540Z</time>
      </trkpt>
      <trkpt lat="45.80486" lon="6.74136">
        <ele>1826</ele>
        <time>2026-08-14T07:42:03.540Z</time>
      </trkpt>
      <trkpt lat="45.80483" lon="6.74135">
        <ele>1826</ele>
        <time>2026-08-14T07:42:04.540Z</time>
      </trkpt>
      <trkpt lat="45.8048" lon="6.74135">
        <ele>1826</ele>
        <time>2026-08-14T07:42:05.540Z</time>
      </trkpt>
      <trkpt lat="45.80477" lon="6.74135">
        <ele>1826</ele>
        <time>2026-08-14T07:42:06.540Z</time>
      </trkpt>
      <trkpt lat="45.80474" lon="6.74135">
        <ele>1825</ele>
        <time>2026-08-14T07:42:07.540Z</time>
      </trkpt>
      <trkpt lat="45.80471" lon="6.74135">
        <ele>1825</ele>
        <time>2026-08-14T07:42:08.540Z</time>
      </trkpt>
      <trkpt lat="45.80468" lon="6.74135">
        <ele>1825</ele>
        <time>2026-08-14T07:42:09.540Z</time>
      </trkpt>
      <trkpt lat="45.80466" lon="6.74135">
        <ele>1824</ele>
        <time>2026-08-14T07:42:10.540Z</time>
      </trkpt>
      <trkpt lat="45.80462" lon="6.74133">
        <ele>1824</ele>
        <time>2026-08-14T07:42:11.540Z</time>
      </trkpt>
      <trkpt lat="45.80459" lon="6.74133">
        <ele>1823</ele>
        <time>2026-08-14T07:42:12.540Z</time>
      </trkpt>
      <trkpt lat="45.80456" lon="6.74131">
        <ele>1822</ele>
        <time>2026-08-14T07:42:13.540Z</time>
      </trkpt>
      <trkpt lat="45.80453" lon="6.74131">
        <ele>1821</ele>
        <time>2026-08-14T07:42:14.540Z</time>
      </trkpt>
      <trkpt lat="45.8045" lon="6.74131">
        <ele>1821</ele>
        <time>2026-08-14T07:42:15.540Z</time>
      </trkpt>
      <trkpt lat="45.80447" lon="6.7413">
        <ele>1820</ele>
        <time>2026-08-14T07:42:16.540Z</time>
      </trkpt>
      <trkpt lat="45.80444" lon="6.7413">
        <ele>1819</ele>
        <time>2026-08-14T07:42:17.540Z</time>
      </trkpt>
      <trkpt lat="45.80441" lon="6.74129">
        <ele>1819</ele>
        <time>2026-08-14T07:42:18.540Z</time>
      </trkpt>
      <trkpt lat="45.80438" lon="6.74128">
        <ele>1818</ele>
        <time>2026-08-14T07:42:19.540Z</time>
      </trkpt>
      <trkpt lat="45.80435" lon="6.74127">
        <ele>1817</ele>
        <time>2026-08-14T07:42:20.540Z</time>
      </trkpt>
      <trkpt lat="45.80431" lon="6.74126">
        <ele>1816</ele>
        <time>2026-08-14T07:42:21.540Z</time>
      </trkpt>
      <trkpt lat="45.80428" lon="6.74125">
        <ele>1815</ele>
        <time>2026-08-14T07:42:22.540Z</time>
      </trkpt>
      <trkpt lat="45.80425" lon="6.74125">
        <ele>1815</ele>
        <time>2026-08-14T07:42:23.541Z</time>
      </trkpt>
      <trkpt lat="45.80422" lon="6.74124">
        <ele>1814</ele>
        <time>2026-08-14T07:42:24.540Z</time>
      </trkpt>
      <trkpt lat="45.80419" lon="6.74124">
        <ele>1813</ele>
        <time>2026-08-14T07:42:25.540Z</time>
      </trkpt>
      <trkpt lat="45.80416" lon="6.74125">
        <ele>1812</ele>
        <time>2026-08-14T07:42:26.540Z</time>
      </trkpt>
      <trkpt lat="45.80413" lon="6.74126">
        <ele>1811</ele>
        <time>2026-08-14T07:42:27.540Z</time>
      </trkpt>
      <trkpt lat="45.80411" lon="6.74127">
        <ele>1811</ele>
        <time>2026-08-14T07:42:28.540Z</time>
      </trkpt>
      <trkpt lat="45.80408" lon="6.74128">
        <ele>1810</ele>
        <time>2026-08-14T07:42:29.540Z</time>
      </trkpt>
      <trkpt lat="45.80406" lon="6.74129">
        <ele>1809</ele>
        <time>2026-08-14T07:42:30.540Z</time>
      </trkpt>
      <trkpt lat="45.80403" lon="6.7413">
        <ele>1809</ele>
        <time>2026-08-14T07:42:31.540Z</time>
      </trkpt>
      <trkpt lat="45.80402" lon="6.7413">
        <ele>1809</ele>
        <time>2026-08-14T07:42:32.540Z</time>
      </trkpt>
      <trkpt lat="45.804" lon="6.74131">
        <ele>1808</ele>
        <time>2026-08-14T07:42:33.540Z</time>
      </trkpt>
      <trkpt lat="45.80398" lon="6.74132">
        <ele>1808</ele>
        <time>2026-08-14T07:42:34.540Z</time>
      </trkpt>
      <trkpt lat="45.80396" lon="6.74132">
        <ele>1808</ele>
        <time>2026-08-14T07:42:35.540Z</time>
      </trkpt>
      <trkpt lat="45.80393" lon="6.74133">
        <ele>1807</ele>
        <time>2026-08-14T07:42:36.540Z</time>
      </trkpt>
      <trkpt lat="45.80391" lon="6.74134">
        <ele>1807</ele>
        <time>2026-08-14T07:42:37.540Z</time>
      </trkpt>
      <trkpt lat="45.80388" lon="6.74135">
        <ele>1807</ele>
        <time>2026-08-14T07:42:38.540Z</time>
      </trkpt>
      <trkpt lat="45.80386" lon="6.74137">
        <ele>1807</ele>
        <time>2026-08-14T07:42:39.540Z</time>
      </trkpt>
      <trkpt lat="45.80384" lon="6.74138">
        <ele>1807</ele>
        <time>2026-08-14T07:42:40.540Z</time>
      </trkpt>
      <trkpt lat="45.80381" lon="6.74139">
        <ele>1806</ele>
        <time>2026-08-14T07:42:41.540Z</time>
      </trkpt>
      <trkpt lat="45.80379" lon="6.7414">
        <ele>1806</ele>
        <time>2026-08-14T07:42:42.540Z</time>
      </trkpt>
      <trkpt lat="45.80377" lon="6.74141">
        <ele>1806</ele>
        <time>2026-08-14T07:42:43.540Z</time>
      </trkpt>
      <trkpt lat="45.80375" lon="6.74142">
        <ele>1806</ele>
        <time>2026-08-14T07:42:44.540Z</time>
      </trkpt>
      <trkpt lat="45.80374" lon="6.74142">
        <ele>1806</ele>
        <time>2026-08-14T07:42:45.540Z</time>
      </trkpt>
      <trkpt lat="45.80373" lon="6.74143">
        <ele>1806</ele>
        <time>2026-08-14T07:42:46.540Z</time>
      </trkpt>
      <trkpt lat="45.80372" lon="6.74143">
        <ele>1806</ele>
        <time>2026-08-14T07:42:47.540Z</time>
      </trkpt>
      <trkpt lat="45.80371" lon="6.74143">
        <ele>1807</ele>
        <time>2026-08-14T07:42:48.540Z</time>
      </trkpt>
      <trkpt lat="45.8037" lon="6.74144">
        <ele>1807</ele>
        <time>2026-08-14T07:42:49.540Z</time>
      </trkpt>
      <trkpt lat="45.80369" lon="6.74145">
        <ele>1807</ele>
        <time>2026-08-14T07:42:50.540Z</time>
      </trkpt>
      <trkpt lat="45.80368" lon="6.74146">
        <ele>1807</ele>
        <time>2026-08-14T07:42:51.540Z</time>
      </trkpt>
      <trkpt lat="45.80367" lon="6.74147">
        <ele>1807</ele>
        <time>2026-08-14T07:42:52.540Z</time>
      </trkpt>
      <trkpt lat="45.80367" lon="6.74147">
        <ele>1806</ele>
        <time>2026-08-14T07:42:53.540Z</time>
      </trkpt>
      <trkpt lat="45.80366" lon="6.74147">
        <ele>1806</ele>
        <time>2026-08-14T07:42:54.540Z</time>
      </trkpt>
      <trkpt lat="45.80365" lon="6.74146">
        <ele>1806</ele>
        <time>2026-08-14T07:42:55.540Z</time>
      </trkpt>
      <trkpt lat="45.80364" lon="6.74147">
        <ele>1806</ele>
        <time>2026-08-14T07:42:56.540Z</time>
      </trkpt>
      <trkpt lat="45.80362" lon="6.74147">
        <ele>1806</ele>
        <time>2026-08-14T07:42:57.540Z</time>
      </trkpt>
      <trkpt lat="45.8036" lon="6.74147">
        <ele>1807</ele>
        <time>2026-08-14T07:42:58.540Z</time>
      </trkpt>
      <trkpt lat="45.80359" lon="6.74147">
        <ele>1807</ele>
        <time>2026-08-14T07:42:59.540Z</time>
      </trkpt>
      <trkpt lat="45.80357" lon="6.74147">
        <ele>1807</ele>
        <time>2026-08-14T07:43:00.540Z</time>
      </trkpt>
      <trkpt lat="45.80355" lon="6.74146">
        <ele>1807</ele>
        <time>2026-08-14T07:43:01.540Z</time>
      </trkpt>
      <trkpt lat="45.80353" lon="6.74145">
        <ele>1807</ele>
        <time>2026-08-14T07:43:02.540Z</time>
      </trkpt>
      <trkpt lat="45.8035" lon="6.74145">
        <ele>1807</ele>
        <time>2026-08-14T07:43:03.540Z</time>
      </trkpt>
      <trkpt lat="45.80348" lon="6.74147">
        <ele>1807</ele>
        <time>2026-08-14T07:43:04.540Z</time>
      </trkpt>
      <trkpt lat="45.80345" lon="6.74147">
        <ele>1807</ele>
        <time>2026-08-14T07:43:05.540Z</time>
      </trkpt>
      <trkpt lat="45.80343" lon="6.74146">
        <ele>1806</ele>
        <time>2026-08-14T07:43:06.540Z</time>
      </trkpt>
      <trkpt lat="45.80341" lon="6.74146">
        <ele>1806</ele>
        <time>2026-08-14T07:43:07.540Z</time>
      </trkpt>
      <trkpt lat="45.80339" lon="6.74145">
        <ele>1806</ele>
        <time>2026-08-14T07:43:08.540Z</time>
      </trkpt>
      <trkpt lat="45.80337" lon="6.74144">
        <ele>1805</ele>
        <time>2026-08-14T07:43:09.540Z</time>
      </trkpt>
      <trkpt lat="45.80335" lon="6.74144">
        <ele>1805</ele>
        <time>2026-08-14T07:43:10.540Z</time>
      </trkpt>
      <trkpt lat="45.80333" lon="6.74143">
        <ele>1805</ele>
        <time>2026-08-14T07:43:11.540Z</time>
      </trkpt>
      <trkpt lat="45.80331" lon="6.74142">
        <ele>1804</ele>
        <time>2026-08-14T07:43:12.540Z</time>
      </trkpt>
      <trkpt lat="45.80329" lon="6.74141">
        <ele>1804</ele>
        <time>2026-08-14T07:43:13.540Z</time>
      </trkpt>
      <trkpt lat="45.80327" lon="6.7414">
        <ele>1803</ele>
        <time>2026-08-14T07:43:14.540Z</time>
      </trkpt>
      <trkpt lat="45.80326" lon="6.74139">
        <ele>1803</ele>
        <time>2026-08-14T07:43:15.540Z</time>
      </trkpt>
      <trkpt lat="45.80324" lon="6.74138">
        <ele>1802</ele>
        <time>2026-08-14T07:43:16.540Z</time>
      </trkpt>
      <trkpt lat="45.80323" lon="6.74138">
        <ele>1802</ele>
        <time>2026-08-14T07:43:17.540Z</time>
      </trkpt>
      <trkpt lat="45.80321" lon="6.74137">
        <ele>1802</ele>
        <time>2026-08-14T07:43:18.540Z</time>
      </trkpt>
      <trkpt lat="45.8032" lon="6.74136">
        <ele>1802</ele>
        <time>2026-08-14T07:43:19.540Z</time>
      </trkpt>
      <trkpt lat="45.80318" lon="6.74136">
        <ele>1802</ele>
        <time>2026-08-14T07:43:20.540Z</time>
      </trkpt>
      <trkpt lat="45.80316" lon="6.74135">
        <ele>1801</ele>
        <time>2026-08-14T07:43:21.540Z</time>
      </trkpt>
      <trkpt lat="45.80314" lon="6.74134">
        <ele>1801</ele>
        <time>2026-08-14T07:43:22.540Z</time>
      </trkpt>
      <trkpt lat="45.80312" lon="6.74134">
        <ele>1801</ele>
        <time>2026-08-14T07:43:23.540Z</time>
      </trkpt>
      <trkpt lat="45.8031" lon="6.74133">
        <ele>1800</ele>
        <time>2026-08-14T07:43:24.540Z</time>
      </trkpt>
      <trkpt lat="45.80308" lon="6.74133">
        <ele>1800</ele>
        <time>2026-08-14T07:43:25.540Z</time>
      </trkpt>
      <trkpt lat="45.80306" lon="6.74132">
        <ele>1800</ele>
        <time>2026-08-14T07:43:26.540Z</time>
      </trkpt>
      <trkpt lat="45.80304" lon="6.7413">
        <ele>1799</ele>
        <time>2026-08-14T07:43:27.540Z</time>
      </trkpt>
      <trkpt lat="45.80302" lon="6.74129">
        <ele>1799</ele>
        <time>2026-08-14T07:43:28.540Z</time>
      </trkpt>
      <trkpt lat="45.803" lon="6.74127">
        <ele>1798</ele>
        <time>2026-08-14T07:43:29.540Z</time>
      </trkpt>
      <trkpt lat="45.80297" lon="6.74125">
        <ele>1798</ele>
        <time>2026-08-14T07:43:30.540Z</time>
      </trkpt>
      <trkpt lat="45.80294" lon="6.74124">
        <ele>1798</ele>
        <time>2026-08-14T07:43:31.540Z</time>
      </trkpt>
      <trkpt lat="45.80292" lon="6.74122">
        <ele>1797</ele>
        <time>2026-08-14T07:43:32.540Z</time>
      </trkpt>
      <trkpt lat="45.80288" lon="6.74119">
        <ele>1796</ele>
        <time>2026-08-14T07:43:33.540Z</time>
      </trkpt>
      <trkpt lat="45.80286" lon="6.74117">
        <ele>1796</ele>
        <time>2026-08-14T07:43:34.540Z</time>
      </trkpt>
      <trkpt lat="45.80285" lon="6.74115">
        <ele>1796</ele>
        <time>2026-08-14T07:43:35.540Z</time>
      </trkpt>
      <trkpt lat="45.80283" lon="6.74114">
        <ele>1795</ele>
        <time>2026-08-14T07:43:36.540Z</time>
      </trkpt>
      <trkpt lat="45.80281" lon="6.74112">
        <ele>1795</ele>
        <time>2026-08-14T07:43:37.540Z</time>
      </trkpt>
      <trkpt lat="45.80279" lon="6.7411">
        <ele>1795</ele>
        <time>2026-08-14T07:43:38.540Z</time>
      </trkpt>
      <trkpt lat="45.80277" lon="6.74109">
        <ele>1794</ele>
        <time>2026-08-14T07:43:39.540Z</time>
      </trkpt>
      <trkpt lat="45.80275" lon="6.74107">
        <ele>1794</ele>
        <time>2026-08-14T07:43:40.540Z</time>
      </trkpt>
      <trkpt lat="45.80274" lon="6.74106">
        <ele>1793</ele>
        <time>2026-08-14T07:43:41.540Z</time>
      </trkpt>
      <trkpt lat="45.80273" lon="6.74104">
        <ele>1792</ele>
        <time>2026-08-14T07:43:42.540Z</time>
      </trkpt>
      <trkpt lat="45.80272" lon="6.74103">
        <ele>1792</ele>
        <time>2026-08-14T07:43:43.540Z</time>
      </trkpt>
      <trkpt lat="45.80272" lon="6.74102">
        <ele>1791</ele>
        <time>2026-08-14T07:43:44.540Z</time>
      </trkpt>
      <trkpt lat="45.80271" lon="6.74101">
        <ele>1791</ele>
        <time>2026-08-14T07:43:45.540Z</time>
      </trkpt>
      <trkpt lat="45.80269" lon="6.74099">
        <ele>1791</ele>
        <time>2026-08-14T07:43:46.540Z</time>
      </trkpt>
      <trkpt lat="45.80268" lon="6.74097">
        <ele>1790</ele>
        <time>2026-08-14T07:43:47.540Z</time>
      </trkpt>
      <trkpt lat="45.80267" lon="6.74096">
        <ele>1790</ele>
        <time>2026-08-14T07:43:48.540Z</time>
      </trkpt>
      <trkpt lat="45.80267" lon="6.74094">
        <ele>1790</ele>
        <time>2026-08-14T07:43:49.540Z</time>
      </trkpt>
      <trkpt lat="45.80266" lon="6.74093">
        <ele>1790</ele>
        <time>2026-08-14T07:43:50.540Z</time>
      </trkpt>
      <trkpt lat="45.80265" lon="6.74091">
        <ele>1790</ele>
        <time>2026-08-14T07:43:51.540Z</time>
      </trkpt>
      <trkpt lat="45.80264" lon="6.7409">
        <ele>1790</ele>
        <time>2026-08-14T07:43:52.540Z</time>
      </trkpt>
      <trkpt lat="45.80264" lon="6.74088">
        <ele>1790</ele>
        <time>2026-08-14T07:43:53.540Z</time>
      </trkpt>
      <trkpt lat="45.80264" lon="6.74087">
        <ele>1789</ele>
        <time>2026-08-14T07:43:54.540Z</time>
      </trkpt>
      <trkpt lat="45.80263" lon="6.74086">
        <ele>1789</ele>
        <time>2026-08-14T07:43:55.540Z</time>
      </trkpt>
      <trkpt lat="45.80262" lon="6.74084">
        <ele>1788</ele>
        <time>2026-08-14T07:43:56.540Z</time>
      </trkpt>
      <trkpt lat="45.80261" lon="6.74083">
        <ele>1788</ele>
        <time>2026-08-14T07:43:57.540Z</time>
      </trkpt>
      <trkpt lat="45.8026" lon="6.74081">
        <ele>1788</ele>
        <time>2026-08-14T07:43:58.540Z</time>
      </trkpt>
      <trkpt lat="45.80259" lon="6.74079">
        <ele>1788</ele>
        <time>2026-08-14T07:43:59.540Z</time>
      </trkpt>
      <trkpt lat="45.80259" lon="6.74076">
        <ele>1788</ele>
        <time>2026-08-14T07:44:00.540Z</time>
      </trkpt>
      <trkpt lat="45.80258" lon="6.74074">
        <ele>1787</ele>
        <time>2026-08-14T07:44:01.540Z</time>
      </trkpt>
      <trkpt lat="45.80258" lon="6.74073">
        <ele>1787</ele>
        <time>2026-08-14T07:44:02.540Z</time>
      </trkpt>
      <trkpt lat="45.80257" lon="6.74071">
        <ele>1787</ele>
        <time>2026-08-14T07:44:03.540Z</time>
      </trkpt>
      <trkpt lat="45.80257" lon="6.74069">
        <ele>1787</ele>
        <time>2026-08-14T07:44:04.540Z</time>
      </trkpt>
      <trkpt lat="45.80257" lon="6.74067">
        <ele>1786</ele>
        <time>2026-08-14T07:44:05.540Z</time>
      </trkpt>
      <trkpt lat="45.80256" lon="6.74065">
        <ele>1785</ele>
        <time>2026-08-14T07:44:06.540Z</time>
      </trkpt>
      <trkpt lat="45.80256" lon="6.74063">
        <ele>1785</ele>
        <time>2026-08-14T07:44:07.540Z</time>
      </trkpt>
      <trkpt lat="45.80256" lon="6.74061">
        <ele>1785</ele>
        <time>2026-08-14T07:44:08.540Z</time>
      </trkpt>
      <trkpt lat="45.80255" lon="6.74059">
        <ele>1784</ele>
        <time>2026-08-14T07:44:09.540Z</time>
      </trkpt>
      <trkpt lat="45.80255" lon="6.74057">
        <ele>1784</ele>
        <time>2026-08-14T07:44:10.540Z</time>
      </trkpt>
      <trkpt lat="45.80255" lon="6.74055">
        <ele>1784</ele>
        <time>2026-08-14T07:44:11.540Z</time>
      </trkpt>
      <trkpt lat="45.80254" lon="6.74053">
        <ele>1784</ele>
        <time>2026-08-14T07:44:12.540Z</time>
      </trkpt>
      <trkpt lat="45.80254" lon="6.74051">
        <ele>1783</ele>
        <time>2026-08-14T07:44:13.540Z</time>
      </trkpt>
      <trkpt lat="45.80254" lon="6.74049">
        <ele>1783</ele>
        <time>2026-08-14T07:44:14.540Z</time>
      </trkpt>
      <trkpt lat="45.80254" lon="6.74046">
        <ele>1783</ele>
        <time>2026-08-14T07:44:15.540Z</time>
      </trkpt>
      <trkpt lat="45.80254" lon="6.74044">
        <ele>1783</ele>
        <time>2026-08-14T07:44:16.540Z</time>
      </trkpt>
      <trkpt lat="45.80254" lon="6.74041">
        <ele>1782</ele>
        <time>2026-08-14T07:44:17.540Z</time>
      </trkpt>
      <trkpt lat="45.80254" lon="6.74039">
        <ele>1782</ele>
        <time>2026-08-14T07:44:18.540Z</time>
      </trkpt>
      <trkpt lat="45.80254" lon="6.74037">
        <ele>1782</ele>
        <time>2026-08-14T07:44:19.540Z</time>
      </trkpt>
      <trkpt lat="45.80254" lon="6.74035">
        <ele>1781</ele>
        <time>2026-08-14T07:44:20.540Z</time>
      </trkpt>
      <trkpt lat="45.80254" lon="6.74034">
        <ele>1781</ele>
        <time>2026-08-14T07:44:21.540Z</time>
      </trkpt>
      <trkpt lat="45.80253" lon="6.74032">
        <ele>1780</ele>
        <time>2026-08-14T07:44:22.540Z</time>
      </trkpt>
      <trkpt lat="45.80252" lon="6.74031">
        <ele>1780</ele>
        <time>2026-08-14T07:44:23.540Z</time>
      </trkpt>
      <trkpt lat="45.8025" lon="6.7403">
        <ele>1780</ele>
        <time>2026-08-14T07:44:24.540Z</time>
      </trkpt>
      <trkpt lat="45.80248" lon="6.74029">
        <ele>1779</ele>
        <time>2026-08-14T07:44:25.540Z</time>
      </trkpt>
      <trkpt lat="45.80247" lon="6.74027">
        <ele>1779</ele>
        <time>2026-08-14T07:44:26.540Z</time>
      </trkpt>
      <trkpt lat="45.80246" lon="6.74025">
        <ele>1779</ele>
        <time>2026-08-14T07:44:27.540Z</time>
      </trkpt>
      <trkpt lat="45.80246" lon="6.74023">
        <ele>1778</ele>
        <time>2026-08-14T07:44:28.540Z</time>
      </trkpt>
      <trkpt lat="45.80245" lon="6.7402">
        <ele>1778</ele>
        <time>2026-08-14T07:44:29.540Z</time>
      </trkpt>
      <trkpt lat="45.80246" lon="6.74018">
        <ele>1778</ele>
        <time>2026-08-14T07:44:30.540Z</time>
      </trkpt>
      <trkpt lat="45.80247" lon="6.74016">
        <ele>1777</ele>
        <time>2026-08-14T07:44:31.540Z</time>
      </trkpt>
      <trkpt lat="45.80247" lon="6.74013">
        <ele>1777</ele>
        <time>2026-08-14T07:44:32.540Z</time>
      </trkpt>
      <trkpt lat="45.80247" lon="6.74011">
        <ele>1777</ele>
        <time>2026-08-14T07:44:33.540Z</time>
      </trkpt>
      <trkpt lat="45.80246" lon="6.74008">
        <ele>1777</ele>
        <time>2026-08-14T07:44:34.540Z</time>
      </trkpt>
      <trkpt lat="45.80246" lon="6.74006">
        <ele>1777</ele>
        <time>2026-08-14T07:44:35.540Z</time>
      </trkpt>
      <trkpt lat="45.80245" lon="6.74004">
        <ele>1777</ele>
        <time>2026-08-14T07:44:36.540Z</time>
      </trkpt>
      <trkpt lat="45.80245" lon="6.74003">
        <ele>1777</ele>
        <time>2026-08-14T07:44:37.540Z</time>
      </trkpt>
      <trkpt lat="45.80245" lon="6.74003">
        <ele>1777</ele>
        <time>2026-08-14T07:44:38.540Z</time>
      </trkpt>
      <trkpt lat="45.80244" lon="6.74002">
        <ele>1777</ele>
        <time>2026-08-14T07:44:39.540Z</time>
      </trkpt>
      <trkpt lat="45.80244" lon="6.74002">
        <ele>1777</ele>
        <time>2026-08-14T07:44:40.540Z</time>
      </trkpt>
      <trkpt lat="45.80244" lon="6.74002">
        <ele>1777</ele>
        <time>2026-08-14T07:44:41.540Z</time>
      </trkpt>
      <trkpt lat="45.80244" lon="6.74001">
        <ele>1777</ele>
        <time>2026-08-14T07:44:42.540Z</time>
      </trkpt>
      <trkpt lat="45.80243" lon="6.74001">
        <ele>1777</ele>
        <time>2026-08-14T07:44:43.540Z</time>
      </trkpt>
      <trkpt lat="45.80242" lon="6.73999">
        <ele>1776</ele>
        <time>2026-08-14T07:44:44.540Z</time>
      </trkpt>
      <trkpt lat="45.80242" lon="6.73998">
        <ele>1777</ele>
        <time>2026-08-14T07:44:45.540Z</time>
      </trkpt>
      <trkpt lat="45.80241" lon="6.73996">
        <ele>1777</ele>
        <time>2026-08-14T07:44:46.540Z</time>
      </trkpt>
      <trkpt lat="45.8024" lon="6.73995">
        <ele>1777</ele>
        <time>2026-08-14T07:44:47.540Z</time>
      </trkpt>
      <trkpt lat="45.80239" lon="6.73994">
        <ele>1777</ele>
        <time>2026-08-14T07:44:48.540Z</time>
      </trkpt>
      <trkpt lat="45.80238" lon="6.73992">
        <ele>1777</ele>
        <time>2026-08-14T07:44:49.540Z</time>
      </trkpt>
      <trkpt lat="45.80238" lon="6.73991">
        <ele>1777</ele>
        <time>2026-08-14T07:44:50.540Z</time>
      </trkpt>
      <trkpt lat="45.80238" lon="6.7399">
        <ele>1778</ele>
        <time>2026-08-14T07:44:51.540Z</time>
      </trkpt>
      <trkpt lat="45.80238" lon="6.73988">
        <ele>1778</ele>
        <time>2026-08-14T07:44:52.540Z</time>
      </trkpt>
      <trkpt lat="45.80238" lon="6.73987">
        <ele>1778</ele>
        <time>2026-08-14T07:44:53.540Z</time>
      </trkpt>
      <trkpt lat="45.80237" lon="6.73985">
        <ele>1778</ele>
        <time>2026-08-14T07:44:54.540Z</time>
      </trkpt>
      <trkpt lat="45.80236" lon="6.73984">
        <ele>1778</ele>
        <time>2026-08-14T07:44:55.540Z</time>
      </trkpt>
      <trkpt lat="45.80235" lon="6.73983">
        <ele>1778</ele>
        <time>2026-08-14T07:44:56.540Z</time>
      </trkpt>
      <trkpt lat="45.80235" lon="6.73982">
        <ele>1778</ele>
        <time>2026-08-14T07:44:57.540Z</time>
      </trkpt>
      <trkpt lat="45.80234" lon="6.73981">
        <ele>1778</ele>
        <time>2026-08-14T07:44:58.540Z</time>
      </trkpt>
      <trkpt lat="45.80233" lon="6.7398">
        <ele>1778</ele>
        <time>2026-08-14T07:44:59.540Z</time>
      </trkpt>
      <trkpt lat="45.80232" lon="6.73979">
        <ele>1778</ele>
        <time>2026-08-14T07:45:00.540Z</time>
      </trkpt>
      <trkpt lat="45.8023" lon="6.73978">
        <ele>1778</ele>
        <time>2026-08-14T07:45:01.540Z</time>
      </trkpt>
      <trkpt lat="45.8023" lon="6.73977">
        <ele>1778</ele>
        <time>2026-08-14T07:45:02.540Z</time>
      </trkpt>
      <trkpt lat="45.80229" lon="6.73975">
        <ele>1778</ele>
        <time>2026-08-14T07:45:03.540Z</time>
      </trkpt>
      <trkpt lat="45.80229" lon="6.73974">
        <ele>1778</ele>
        <time>2026-08-14T07:45:04.540Z</time>
      </trkpt>
      <trkpt lat="45.80228" lon="6.73973">
        <ele>1778</ele>
        <time>2026-08-14T07:45:05.540Z</time>
      </trkpt>
      <trkpt lat="45.80226" lon="6.73973">
        <ele>1778</ele>
        <time>2026-08-14T07:45:06.540Z</time>
      </trkpt>
      <trkpt lat="45.80225" lon="6.73972">
        <ele>1778</ele>
        <time>2026-08-14T07:45:07.540Z</time>
      </trkpt>
      <trkpt lat="45.80223" lon="6.73972">
        <ele>1778</ele>
        <time>2026-08-14T07:45:08.540Z</time>
      </trkpt>
      <trkpt lat="45.80223" lon="6.73972">
        <ele>1777</ele>
        <time>2026-08-14T07:45:09.540Z</time>
      </trkpt>
      <trkpt lat="45.80221" lon="6.73971">
        <ele>1777</ele>
        <time>2026-08-14T07:45:10.540Z</time>
      </trkpt>
      <trkpt lat="45.8022" lon="6.7397">
        <ele>1777</ele>
        <time>2026-08-14T07:45:11.540Z</time>
      </trkpt>
      <trkpt lat="45.8022" lon="6.73969">
        <ele>1777</ele>
        <time>2026-08-14T07:45:12.540Z</time>
      </trkpt>
      <trkpt lat="45.80219" lon="6.73969">
        <ele>1778</ele>
        <time>2026-08-14T07:45:13.540Z</time>
      </trkpt>
      <trkpt lat="45.80218" lon="6.73968">
        <ele>1778</ele>
        <time>2026-08-14T07:45:14.540Z</time>
      </trkpt>
      <trkpt lat="45.80217" lon="6.73967">
        <ele>1778</ele>
        <time>2026-08-14T07:45:15.540Z</time>
      </trkpt>
      <trkpt lat="45.80216" lon="6.73966">
        <ele>1778</ele>
        <time>2026-08-14T07:45:16.540Z</time>
      </trkpt>
      <trkpt lat="45.80216" lon="6.73964">
        <ele>1778</ele>
        <time>2026-08-14T07:45:17.540Z</time>
      </trkpt>
      <trkpt lat="45.80215" lon="6.73963">
        <ele>1778</ele>
        <time>2026-08-14T07:45:18.540Z</time>
      </trkpt>
      <trkpt lat="45.80215" lon="6.73961">
        <ele>1778</ele>
        <time>2026-08-14T07:45:19.540Z</time>
      </trkpt>
      <trkpt lat="45.80214" lon="6.7396">
        <ele>1778</ele>
        <time>2026-08-14T07:45:20.540Z</time>
      </trkpt>
      <trkpt lat="45.80213" lon="6.73959">
        <ele>1779</ele>
        <time>2026-08-14T07:45:21.540Z</time>
      </trkpt>
      <trkpt lat="45.80212" lon="6.73958">
        <ele>1779</ele>
        <time>2026-08-14T07:45:22.540Z</time>
      </trkpt>
      <trkpt lat="45.8021" lon="6.73957">
        <ele>1779</ele>
        <time>2026-08-14T07:45:23.540Z</time>
      </trkpt>
      <trkpt lat="45.80209" lon="6.73957">
        <ele>1779</ele>
        <time>2026-08-14T07:45:24.540Z</time>
      </trkpt>
      <trkpt lat="45.80208" lon="6.73957">
        <ele>1780</ele>
        <time>2026-08-14T07:45:25.540Z</time>
      </trkpt>
      <trkpt lat="45.80206" lon="6.73956">
        <ele>1780</ele>
        <time>2026-08-14T07:45:26.540Z</time>
      </trkpt>
      <trkpt lat="45.80205" lon="6.73955">
        <ele>1781</ele>
        <time>2026-08-14T07:45:27.540Z</time>
      </trkpt>
      <trkpt lat="45.80203" lon="6.73953">
        <ele>1781</ele>
        <time>2026-08-14T07:45:28.540Z</time>
      </trkpt>
      <trkpt lat="45.80202" lon="6.73952">
        <ele>1781</ele>
        <time>2026-08-14T07:45:29.540Z</time>
      </trkpt>
      <trkpt lat="45.80201" lon="6.73951">
        <ele>1781</ele>
        <time>2026-08-14T07:45:30.540Z</time>
      </trkpt>
      <trkpt lat="45.802" lon="6.73949">
        <ele>1782</ele>
        <time>2026-08-14T07:45:31.540Z</time>
      </trkpt>
      <trkpt lat="45.80199" lon="6.73949">
        <ele>1782</ele>
        <time>2026-08-14T07:45:32.540Z</time>
      </trkpt>
      <trkpt lat="45.80198" lon="6.73947">
        <ele>1782</ele>
        <time>2026-08-14T07:45:33.540Z</time>
      </trkpt>
      <trkpt lat="45.80197" lon="6.73946">
        <ele>1783</ele>
        <time>2026-08-14T07:45:34.540Z</time>
      </trkpt>
      <trkpt lat="45.80196" lon="6.73946">
        <ele>1783</ele>
        <time>2026-08-14T07:45:35.540Z</time>
      </trkpt>
      <trkpt lat="45.80195" lon="6.73945">
        <ele>1783</ele>
        <time>2026-08-14T07:45:36.540Z</time>
      </trkpt>
      <trkpt lat="45.80194" lon="6.73944">
        <ele>1783</ele>
        <time>2026-08-14T07:45:37.540Z</time>
      </trkpt>
      <trkpt lat="45.80194" lon="6.73944">
        <ele>1783</ele>
        <time>2026-08-14T07:45:38.540Z</time>
      </trkpt>
      <trkpt lat="45.80193" lon="6.73943">
        <ele>1783</ele>
        <time>2026-08-14T07:45:39.540Z</time>
      </trkpt>
      <trkpt lat="45.80192" lon="6.73943">
        <ele>1783</ele>
        <time>2026-08-14T07:45:40.540Z</time>
      </trkpt>
      <trkpt lat="45.8019" lon="6.73943">
        <ele>1782</ele>
        <time>2026-08-14T07:45:41.540Z</time>
      </trkpt>
      <trkpt lat="45.80189" lon="6.73942">
        <ele>1782</ele>
        <time>2026-08-14T07:45:42.540Z</time>
      </trkpt>
      <trkpt lat="45.80188" lon="6.73942">
        <ele>1782</ele>
        <time>2026-08-14T07:45:43.540Z</time>
      </trkpt>
      <trkpt lat="45.80187" lon="6.73942">
        <ele>1782</ele>
        <time>2026-08-14T07:45:44.540Z</time>
      </trkpt>
      <trkpt lat="45.80187" lon="6.73941">
        <ele>1782</ele>
        <time>2026-08-14T07:45:45.540Z</time>
      </trkpt>
      <trkpt lat="45.80185" lon="6.73941">
        <ele>1782</ele>
        <time>2026-08-14T07:45:46.540Z</time>
      </trkpt>
      <trkpt lat="45.80184" lon="6.73941">
        <ele>1782</ele>
        <time>2026-08-14T07:45:47.540Z</time>
      </trkpt>
      <trkpt lat="45.80183" lon="6.7394">
        <ele>1782</ele>
        <time>2026-08-14T07:45:48.540Z</time>
      </trkpt>
      <trkpt lat="45.80181" lon="6.7394">
        <ele>1782</ele>
        <time>2026-08-14T07:45:49.540Z</time>
      </trkpt>
      <trkpt lat="45.80181" lon="6.7394">
        <ele>1782</ele>
        <time>2026-08-14T07:45:50.540Z</time>
      </trkpt>
      <trkpt lat="45.8018" lon="6.73939">
        <ele>1782</ele>
        <time>2026-08-14T07:45:51.540Z</time>
      </trkpt>
      <trkpt lat="45.80178" lon="6.73938">
        <ele>1782</ele>
        <time>2026-08-14T07:45:52.540Z</time>
      </trkpt>
      <trkpt lat="45.80177" lon="6.73938">
        <ele>1782</ele>
        <time>2026-08-14T07:45:53.540Z</time>
      </trkpt>
      <trkpt lat="45.80176" lon="6.73939">
        <ele>1782</ele>
        <time>2026-08-14T07:45:54.540Z</time>
      </trkpt>
      <trkpt lat="45.80175" lon="6.73939">
        <ele>1782</ele>
        <time>2026-08-14T07:45:55.540Z</time>
      </trkpt>
      <trkpt lat="45.80174" lon="6.7394">
        <ele>1782</ele>
        <time>2026-08-14T07:45:56.540Z</time>
      </trkpt>
      <trkpt lat="45.80173" lon="6.73942">
        <ele>1782</ele>
        <time>2026-08-14T07:45:57.540Z</time>
      </trkpt>
      <trkpt lat="45.80172" lon="6.73943">
        <ele>1782</ele>
        <time>2026-08-14T07:45:58.540Z</time>
      </trkpt>
      <trkpt lat="45.80171" lon="6.73943">
        <ele>1782</ele>
        <time>2026-08-14T07:45:59.540Z</time>
      </trkpt>
      <trkpt lat="45.80169" lon="6.73942">
        <ele>1782</ele>
        <time>2026-08-14T07:46:00.540Z</time>
      </trkpt>
      <trkpt lat="45.80169" lon="6.73942">
        <ele>1783</ele>
        <time>2026-08-14T07:46:01.540Z</time>
      </trkpt>
      <trkpt lat="45.80168" lon="6.73941">
        <ele>1783</ele>
        <time>2026-08-14T07:46:02.540Z</time>
      </trkpt>
      <trkpt lat="45.80167" lon="6.7394">
        <ele>1784</ele>
        <time>2026-08-14T07:46:03.540Z</time>
      </trkpt>
      <trkpt lat="45.80166" lon="6.73939">
        <ele>1784</ele>
        <time>2026-08-14T07:46:04.540Z</time>
      </trkpt>
      <trkpt lat="45.80164" lon="6.73939">
        <ele>1784</ele>
        <time>2026-08-14T07:46:05.540Z</time>
      </trkpt>
      <trkpt lat="45.80163" lon="6.73938">
        <ele>1784</ele>
        <time>2026-08-14T07:46:06.540Z</time>
      </trkpt>
      <trkpt lat="45.80162" lon="6.73938">
        <ele>1784</ele>
        <time>2026-08-14T07:46:07.540Z</time>
      </trkpt>
      <trkpt lat="45.80161" lon="6.73937">
        <ele>1784</ele>
        <time>2026-08-14T07:46:08.540Z</time>
      </trkpt>
      <trkpt lat="45.8016" lon="6.73937">
        <ele>1784</ele>
        <time>2026-08-14T07:46:09.540Z</time>
      </trkpt>
      <trkpt lat="45.80159" lon="6.73936">
        <ele>1784</ele>
        <time>2026-08-14T07:46:10.540Z</time>
      </trkpt>
      <trkpt lat="45.80158" lon="6.73935">
        <ele>1784</ele>
        <time>2026-08-14T07:46:11.540Z</time>
      </trkpt>
      <trkpt lat="45.80156" lon="6.73934">
        <ele>1784</ele>
        <time>2026-08-14T07:46:12.540Z</time>
      </trkpt>
      <trkpt lat="45.80155" lon="6.73934">
        <ele>1785</ele>
        <time>2026-08-14T07:46:13.540Z</time>
      </trkpt>
      <trkpt lat="45.80154" lon="6.73933">
        <ele>1785</ele>
        <time>2026-08-14T07:46:14.540Z</time>
      </trkpt>
      <trkpt lat="45.80153" lon="6.73933">
        <ele>1785</ele>
        <time>2026-08-14T07:46:15.540Z</time>
      </trkpt>
      <trkpt lat="45.80152" lon="6.73932">
        <ele>1786</ele>
        <time>2026-08-14T07:46:16.540Z</time>
      </trkpt>
      <trkpt lat="45.80151" lon="6.73932">
        <ele>1786</ele>
        <time>2026-08-14T07:46:17.540Z</time>
      </trkpt>
      <trkpt lat="45.8015" lon="6.73931">
        <ele>1787</ele>
        <time>2026-08-14T07:46:18.540Z</time>
      </trkpt>
      <trkpt lat="45.80149" lon="6.73931">
        <ele>1788</ele>
        <time>2026-08-14T07:46:19.540Z</time>
      </trkpt>
      <trkpt lat="45.80148" lon="6.7393">
        <ele>1788</ele>
        <time>2026-08-14T07:46:20.540Z</time>
      </trkpt>
      <trkpt lat="45.80147" lon="6.7393">
        <ele>1789</ele>
        <time>2026-08-14T07:46:21.540Z</time>
      </trkpt>
      <trkpt lat="45.80145" lon="6.7393">
        <ele>1789</ele>
        <time>2026-08-14T07:46:22.540Z</time>
      </trkpt>
      <trkpt lat="45.80144" lon="6.73929">
        <ele>1789</ele>
        <time>2026-08-14T07:46:23.540Z</time>
      </trkpt>
      <trkpt lat="45.80143" lon="6.73929">
        <ele>1789</ele>
        <time>2026-08-14T07:46:24.540Z</time>
      </trkpt>
      <trkpt lat="45.80142" lon="6.73928">
        <ele>1790</ele>
        <time>2026-08-14T07:46:25.540Z</time>
      </trkpt>
      <trkpt lat="45.80141" lon="6.73927">
        <ele>1790</ele>
        <time>2026-08-14T07:46:26.540Z</time>
      </trkpt>
      <trkpt lat="45.8014" lon="6.73926">
        <ele>1790</ele>
        <time>2026-08-14T07:46:27.540Z</time>
      </trkpt>
      <trkpt lat="45.80139" lon="6.73925">
        <ele>1791</ele>
        <time>2026-08-14T07:46:28.540Z</time>
      </trkpt>
      <trkpt lat="45.80138" lon="6.73925">
        <ele>1791</ele>
        <time>2026-08-14T07:46:29.540Z</time>
      </trkpt>
      <trkpt lat="45.80137" lon="6.73924">
        <ele>1790</ele>
        <time>2026-08-14T07:46:30.540Z</time>
      </trkpt>
      <trkpt lat="45.80136" lon="6.73924">
        <ele>1790</ele>
        <time>2026-08-14T07:46:31.540Z</time>
      </trkpt>
      <trkpt lat="45.80135" lon="6.73924">
        <ele>1790</ele>
        <time>2026-08-14T07:46:32.540Z</time>
      </trkpt>
      <trkpt lat="45.80135" lon="6.73924">
        <ele>1790</ele>
        <time>2026-08-14T07:46:33.540Z</time>
      </trkpt>
      <trkpt lat="45.80134" lon="6.73924">
        <ele>1791</ele>
        <time>2026-08-14T07:46:34.540Z</time>
      </trkpt>
      <trkpt lat="45.80133" lon="6.73924">
        <ele>1791</ele>
        <time>2026-08-14T07:46:35.540Z</time>
      </trkpt>
      <trkpt lat="45.80132" lon="6.73923">
        <ele>1791</ele>
        <time>2026-08-14T07:46:36.540Z</time>
      </trkpt>
      <trkpt lat="45.8013" lon="6.73922">
        <ele>1791</ele>
        <time>2026-08-14T07:46:37.540Z</time>
      </trkpt>
      <trkpt lat="45.8013" lon="6.73921">
        <ele>1791</ele>
        <time>2026-08-14T07:46:38.540Z</time>
      </trkpt>
      <trkpt lat="45.80129" lon="6.7392">
        <ele>1792</ele>
        <time>2026-08-14T07:46:39.540Z</time>
      </trkpt>
      <trkpt lat="45.80128" lon="6.7392">
        <ele>1792</ele>
        <time>2026-08-14T07:46:40.540Z</time>
      </trkpt>
      <trkpt lat="45.80128" lon="6.73919">
        <ele>1793</ele>
        <time>2026-08-14T07:46:41.540Z</time>
      </trkpt>
      <trkpt lat="45.80127" lon="6.73918">
        <ele>1794</ele>
        <time>2026-08-14T07:46:42.540Z</time>
      </trkpt>
      <trkpt lat="45.80126" lon="6.73918">
        <ele>1794</ele>
        <time>2026-08-14T07:46:43.540Z</time>
      </trkpt>
      <trkpt lat="45.80125" lon="6.73917">
        <ele>1794</ele>
        <time>2026-08-14T07:46:44.540Z</time>
      </trkpt>
      <trkpt lat="45.80123" lon="6.73917">
        <ele>1794</ele>
        <time>2026-08-14T07:46:45.540Z</time>
      </trkpt>
      <trkpt lat="45.80122" lon="6.73917">
        <ele>1794</ele>
        <time>2026-08-14T07:46:46.540Z</time>
      </trkpt>
      <trkpt lat="45.80121" lon="6.73917">
        <ele>1794</ele>
        <time>2026-08-14T07:46:47.540Z</time>
      </trkpt>
      <trkpt lat="45.80119" lon="6.73917">
        <ele>1793</ele>
        <time>2026-08-14T07:46:48.540Z</time>
      </trkpt>
      <trkpt lat="45.80118" lon="6.73917">
        <ele>1793</ele>
        <time>2026-08-14T07:46:49.540Z</time>
      </trkpt>
      <trkpt lat="45.80116" lon="6.73918">
        <ele>1793</ele>
        <time>2026-08-14T07:46:50.540Z</time>
      </trkpt>
      <trkpt lat="45.80115" lon="6.73919">
        <ele>1793</ele>
        <time>2026-08-14T07:46:51.540Z</time>
      </trkpt>
      <trkpt lat="45.80114" lon="6.73918">
        <ele>1793</ele>
        <time>2026-08-14T07:46:52.540Z</time>
      </trkpt>
      <trkpt lat="45.80113" lon="6.73918">
        <ele>1793</ele>
        <time>2026-08-14T07:46:53.540Z</time>
      </trkpt>
      <trkpt lat="45.80112" lon="6.73917">
        <ele>1793</ele>
        <time>2026-08-14T07:46:54.540Z</time>
      </trkpt>
      <trkpt lat="45.80111" lon="6.73917">
        <ele>1793</ele>
        <time>2026-08-14T07:46:55.540Z</time>
      </trkpt>
      <trkpt lat="45.8011" lon="6.73916">
        <ele>1793</ele>
        <time>2026-08-14T07:46:56.540Z</time>
      </trkpt>
      <trkpt lat="45.80109" lon="6.73916">
        <ele>1794</ele>
        <time>2026-08-14T07:46:57.540Z</time>
      </trkpt>
      <trkpt lat="45.80108" lon="6.73915">
        <ele>1794</ele>
        <time>2026-08-14T07:46:58.540Z</time>
      </trkpt>
      <trkpt lat="45.80106" lon="6.73916">
        <ele>1795</ele>
        <time>2026-08-14T07:46:59.540Z</time>
      </trkpt>
      <trkpt lat="45.80106" lon="6.73915">
        <ele>1795</ele>
        <time>2026-08-14T07:47:00.540Z</time>
      </trkpt>
      <trkpt lat="45.80105" lon="6.73915">
        <ele>1795</ele>
        <time>2026-08-14T07:47:01.540Z</time>
      </trkpt>
      <trkpt lat="45.80105" lon="6.73915">
        <ele>1796</ele>
        <time>2026-08-14T07:47:02.540Z</time>
      </trkpt>
      <trkpt lat="45.80104" lon="6.73916">
        <ele>1796</ele>
        <time>2026-08-14T07:47:03.540Z</time>
      </trkpt>
      <trkpt lat="45.80103" lon="6.73916">
        <ele>1796</ele>
        <time>2026-08-14T07:47:04.540Z</time>
      </trkpt>
      <trkpt lat="45.80103" lon="6.73916">
        <ele>1796</ele>
        <time>2026-08-14T07:47:05.540Z</time>
      </trkpt>
      <trkpt lat="45.80103" lon="6.73916">
        <ele>1797</ele>
        <time>2026-08-14T07:47:06.540Z</time>
      </trkpt>
      <trkpt lat="45.80103" lon="6.73916">
        <ele>1797</ele>
        <time>2026-08-14T07:47:07.540Z</time>
      </trkpt>
      <trkpt lat="45.80102" lon="6.73916">
        <ele>1798</ele>
        <time>2026-08-14T07:47:08.540Z</time>
      </trkpt>
      <trkpt lat="45.80102" lon="6.73916">
        <ele>1798</ele>
        <time>2026-08-14T07:47:09.540Z</time>
      </trkpt>
      <trkpt lat="45.80102" lon="6.73916">
        <ele>1798</ele>
        <time>2026-08-14T07:47:10.540Z</time>
      </trkpt>
      <trkpt lat="45.80102" lon="6.73916">
        <ele>1797</ele>
        <time>2026-08-14T07:47:11.540Z</time>
      </trkpt>
      <trkpt lat="45.80102" lon="6.73916">
        <ele>1797</ele>
        <time>2026-08-14T07:47:12.540Z</time>
      </trkpt>
      <trkpt lat="45.80102" lon="6.73916">
        <ele>1796</ele>
        <time>2026-08-14T07:47:13.540Z</time>
      </trkpt>
      <trkpt lat="45.80102" lon="6.73916">
        <ele>1796</ele>
        <time>2026-08-14T07:47:14.540Z</time>
      </trkpt>
      <trkpt lat="45.80102" lon="6.73916">
        <ele>1795</ele>
        <time>2026-08-14T07:47:15.540Z</time>
      </trkpt>
      <trkpt lat="45.80102" lon="6.73916">
        <ele>1794</ele>
        <time>2026-08-14T07:47:16.540Z</time>
      </trkpt>
      <trkpt lat="45.80102" lon="6.73916">
        <ele>1794</ele>
        <time>2026-08-14T07:47:17.540Z</time>
      </trkpt>
      <trkpt lat="45.80102" lon="6.73916">
        <ele>1793</ele>
        <time>2026-08-14T07:47:18.540Z</time>
      </trkpt>
      <trkpt lat="45.80102" lon="6.73916">
        <ele>1793</ele>
        <time>2026-08-14T07:47:19.540Z</time>
      </trkpt>
      <trkpt lat="45.80102" lon="6.73916">
        <ele>1792</ele>
        <time>2026-08-14T07:47:20.540Z</time>
      </trkpt>
      <trkpt lat="45.80102" lon="6.73916">
        <ele>1792</ele>
        <time>2026-08-14T07:47:21.540Z</time>
      </trkpt>
      <trkpt lat="45.80102" lon="6.73916">
        <ele>1792</ele>
        <time>2026-08-14T07:47:22.540Z</time>
      </trkpt>
      <trkpt lat="45.80102" lon="6.73916">
        <ele>1791</ele>
        <time>2026-08-14T07:47:23.540Z</time>
      </trkpt>
      <trkpt lat="45.80102" lon="6.73916">
        <ele>1791</ele>
        <time>2026-08-14T07:47:24.540Z</time>
      </trkpt>
      <trkpt lat="45.80102" lon="6.73916">
        <ele>1791</ele>
        <time>2026-08-14T07:47:25.540Z</time>
      </trkpt>
      <trkpt lat="45.80102" lon="6.73916">
        <ele>1791</ele>
        <time>2026-08-14T07:47:26.540Z</time>
      </trkpt>
      <trkpt lat="45.80102" lon="6.73916">
        <ele>1791</ele>
        <time>2026-08-14T07:47:27.540Z</time>
      </trkpt>
      <trkpt lat="45.80102" lon="6.73916">
        <ele>1791</ele>
        <time>2026-08-14T07:47:28.540Z</time>
      </trkpt>
      <trkpt lat="45.80102" lon="6.73916">
        <ele>1791</ele>
        <time>2026-08-14T07:47:29.540Z</time>
      </trkpt>
      <trkpt lat="45.80102" lon="6.73916">
        <ele>1791</ele>
        <time>2026-08-14T07:47:30.540Z</time>
      </trkpt>
      <trkpt lat="45.80102" lon="6.73916">
        <ele>1791</ele>
        <time>2026-08-14T07:47:31.540Z</time>
      </trkpt>
      <trkpt lat="45.80102" lon="6.73916">
        <ele>1792</ele>
        <time>2026-08-14T07:47:32.540Z</time>
      </trkpt>
      <trkpt lat="45.80102" lon="6.73916">
        <ele>1792</ele>
        <time>2026-08-14T07:47:33.540Z</time>
      </trkpt>
      <trkpt lat="45.80102" lon="6.73916">
        <ele>1792</ele>
        <time>2026-08-14T07:47:34.540Z</time>
      </trkpt>
      <trkpt lat="45.80102" lon="6.73916">
        <ele>1792</ele>
        <time>2026-08-14T07:47:35.540Z</time>
      </trkpt>
      <trkpt lat="45.80102" lon="6.73916">
        <ele>1792</ele>
        <time>2026-08-14T07:47:36.540Z</time>
      </trkpt>
      <trkpt lat="45.80102" lon="6.73916">
        <ele>1792</ele>
        <time>2026-08-14T07:47:37.540Z</time>
      </trkpt>
      <trkpt lat="45.80102" lon="6.73916">
        <ele>1792</ele>
        <time>2026-08-14T07:47:38.540Z</time>
      </trkpt>
      <trkpt lat="45.80102" lon="6.73916">
        <ele>1792</ele>
        <time>2026-08-14T07:47:39.540Z</time>
      </trkpt>
      <trkpt lat="45.80102" lon="6.73916">
        <ele>1792</ele>
        <time>2026-08-14T07:47:40.540Z</time>
      </trkpt>
      <trkpt lat="45.80102" lon="6.73916">
        <ele>1792</ele>
        <time>2026-08-14T07:47:41.540Z</time>
      </trkpt>
      <trkpt lat="45.80103" lon="6.73916">
        <ele>1792</ele>
        <time>2026-08-14T07:47:42.540Z</time>
      </trkpt>
      <trkpt lat="45.80103" lon="6.73916">
        <ele>1793</ele>
        <time>2026-08-14T07:47:43.540Z</time>
      </trkpt>
      <trkpt lat="45.80103" lon="6.73916">
        <ele>1793</ele>
        <time>2026-08-14T07:47:44.540Z</time>
      </trkpt>
      <trkpt lat="45.80103" lon="6.73916">
        <ele>1793</ele>
        <time>2026-08-14T07:47:45.540Z</time>
      </trkpt>
      <trkpt lat="45.80103" lon="6.73916">
        <ele>1793</ele>
        <time>2026-08-14T07:47:46.540Z</time>
      </trkpt>
      <trkpt lat="45.80103" lon="6.73916">
        <ele>1793</ele>
        <time>2026-08-14T07:47:47.540Z</time>
      </trkpt>
      <trkpt lat="45.80103" lon="6.73916">
        <ele>1793</ele>
        <time>2026-08-14T07:47:48.540Z</time>
      </trkpt>
      <trkpt lat="45.80103" lon="6.73916">
        <ele>1793</ele>
        <time>2026-08-14T07:47:49.540Z</time>
      </trkpt>
      <trkpt lat="45.80103" lon="6.73916">
        <ele>1793</ele>
        <time>2026-08-14T07:47:50.540Z</time>
      </trkpt>
      <trkpt lat="45.80103" lon="6.73916">
        <ele>1793</ele>
        <time>2026-08-14T07:47:51.540Z</time>
      </trkpt>
      <trkpt lat="45.80104" lon="6.73916">
        <ele>1793</ele>
        <time>2026-08-14T07:47:52.540Z</time>
      </trkpt>
      <trkpt lat="45.80104" lon="6.73916">
        <ele>1793</ele>
        <time>2026-08-14T07:47:53.540Z</time>
      </trkpt>
      <trkpt lat="45.80104" lon="6.73916">
        <ele>1793</ele>
        <time>2026-08-14T07:47:54.540Z</time>
      </trkpt>
      <trkpt lat="45.80104" lon="6.73916">
        <ele>1793</ele>
        <time>2026-08-14T07:47:55.540Z</time>
      </trkpt>
      <trkpt lat="45.80104" lon="6.73916">
        <ele>1793</ele>
        <time>2026-08-14T07:47:56.540Z</time>
      </trkpt>
      <trkpt lat="45.80104" lon="6.73916">
        <ele>1793</ele>
        <time>2026-08-14T07:47:57.540Z</time>
      </trkpt>
      <trkpt lat="45.80104" lon="6.73916">
        <ele>1793</ele>
        <time>2026-08-14T07:47:58.540Z</time>
      </trkpt>
      <trkpt lat="45.80104" lon="6.73916">
        <ele>1793</ele>
        <time>2026-08-14T07:47:59.540Z</time>
      </trkpt>
      <trkpt lat="45.80104" lon="6.73916">
        <ele>1793</ele>
        <time>2026-08-14T07:48:00.540Z</time>
      </trkpt>
      <trkpt lat="45.80104" lon="6.73916">
        <ele>1793</ele>
        <time>2026-08-14T07:48:01.540Z</time>
      </trkpt>
      <trkpt lat="45.80104" lon="6.73916">
        <ele>1793</ele>
        <time>2026-08-14T07:48:02.540Z</time>
      </trkpt>
      <trkpt lat="45.80104" lon="6.73916">
        <ele>1793</ele>
        <time>2026-08-14T07:48:03.540Z</time>
      </trkpt>
      <trkpt lat="45.80104" lon="6.73916">
        <ele>1793</ele>
        <time>2026-08-14T07:48:04.540Z</time>
      </trkpt>
      <trkpt lat="45.80104" lon="6.73916">
        <ele>1793</ele>
        <time>2026-08-14T07:48:05.540Z</time>
      </trkpt>
      <trkpt lat="45.80104" lon="6.73916">
        <ele>1793</ele>
        <time>2026-08-14T07:48:06.540Z</time>
      </trkpt>
      <trkpt lat="45.80104" lon="6.73916">
        <ele>1793</ele>
        <time>2026-08-14T07:48:07.540Z</time>
      </trkpt>
      <trkpt lat="45.80104" lon="6.73916">
        <ele>1793</ele>
        <time>2026-08-14T07:48:08.540Z</time>
      </trkpt>
      <trkpt lat="45.80104" lon="6.73916">
        <ele>1793</ele>
        <time>2026-08-14T07:48:09.540Z</time>
      </trkpt>
      <trkpt lat="45.80104" lon="6.73916">
        <ele>1793</ele>
        <time>2026-08-14T07:48:10.540Z</time>
      </trkpt>
      <trkpt lat="45.80104" lon="6.73916">
        <ele>1793</ele>
        <time>2026-08-14T07:48:11.540Z</time>
      </trkpt>
      <trkpt lat="45.80104" lon="6.73916">
        <ele>1793</ele>
        <time>2026-08-14T07:48:12.540Z</time>
      </trkpt>
      <trkpt lat="45.80104" lon="6.73916">
        <ele>1793</ele>
        <time>2026-08-14T07:48:13.540Z</time>
      </trkpt>
      <trkpt lat="45.80104" lon="6.73916">
        <ele>1793</ele>
        <time>2026-08-14T07:48:14.540Z</time>
      </trkpt>
      <trkpt lat="45.80104" lon="6.73916">
        <ele>1793</ele>
        <time>2026-08-14T07:48:15.540Z</time>
      </trkpt>
      <trkpt lat="45.80104" lon="6.73916">
        <ele>1793</ele>
        <time>2026-08-14T07:48:16.540Z</time>
      </trkpt>
      <trkpt lat="45.80104" lon="6.73916">
        <ele>1793</ele>
        <time>2026-08-14T07:48:17.540Z</time>
      </trkpt>
      <trkpt lat="45.80104" lon="6.73916">
        <ele>1793</ele>
        <time>2026-08-14T07:48:18.540Z</time>
      </trkpt>
      <trkpt lat="45.80104" lon="6.73916">
        <ele>1793</ele>
        <time>2026-08-14T07:48:19.540Z</time>
      </trkpt>
      <trkpt lat="45.80104" lon="6.73916">
        <ele>1793</ele>
        <time>2026-08-14T07:48:20.540Z</time>
      </trkpt>
      <trkpt lat="45.80104" lon="6.73916">
        <ele>1793</ele>
        <time>2026-08-14T07:48:21.540Z</time>
      </trkpt>
      <trkpt lat="45.80104" lon="6.73916">
        <ele>1793</ele>
        <time>2026-08-14T07:48:22.540Z</time>
      </trkpt>
      <trkpt lat="45.80104" lon="6.73916">
        <ele>1793</ele>
        <time>2026-08-14T07:48:23.540Z</time>
      </trkpt>
      <trkpt lat="45.80104" lon="6.73916">
        <ele>1793</ele>
        <time>2026-08-14T07:48:24.540Z</time>
      </trkpt>
      <trkpt lat="45.80104" lon="6.73916">
        <ele>1793</ele>
        <time>2026-08-14T07:48:25.540Z</time>
      </trkpt>
      <trkpt lat="45.80103" lon="6.73917">
        <ele>1793</ele>
        <time>2026-08-14T07:48:26.540Z</time>
      </trkpt>
      <trkpt lat="45.80103" lon="6.73917">
        <ele>1793</ele>
        <time>2026-08-14T07:48:27.540Z</time>
      </trkpt>
      <trkpt lat="45.80103" lon="6.73917">
        <ele>1793</ele>
        <time>2026-08-14T07:48:28.540Z</time>
      </trkpt>
      <trkpt lat="45.80103" lon="6.73917">
        <ele>1793</ele>
        <time>2026-08-14T07:48:29.540Z</time>
      </trkpt>
      <trkpt lat="45.80103" lon="6.73917">
        <ele>1793</ele>
        <time>2026-08-14T07:48:30.540Z</time>
      </trkpt>
      <trkpt lat="45.80103" lon="6.73917">
        <ele>1793</ele>
        <time>2026-08-14T07:48:31.540Z</time>
      </trkpt>
      <trkpt lat="45.80103" lon="6.73917">
        <ele>1793</ele>
        <time>2026-08-14T07:48:32.540Z</time>
      </trkpt>
      <trkpt lat="45.80103" lon="6.73917">
        <ele>1793</ele>
        <time>2026-08-14T07:48:33.540Z</time>
      </trkpt>
      <trkpt lat="45.80103" lon="6.73917">
        <ele>1793</ele>
        <time>2026-08-14T07:48:34.540Z</time>
      </trkpt>
      <trkpt lat="45.80103" lon="6.73917">
        <ele>1793</ele>
        <time>2026-08-14T07:48:35.540Z</time>
      </trkpt>
      <trkpt lat="45.80103" lon="6.73917">
        <ele>1793</ele>
        <time>2026-08-14T07:48:36.540Z</time>
      </trkpt>
      <trkpt lat="45.80103" lon="6.73918">
        <ele>1793</ele>
        <time>2026-08-14T07:48:37.540Z</time>
      </trkpt>
      <trkpt lat="45.80103" lon="6.73918">
        <ele>1793</ele>
        <time>2026-08-14T07:48:38.540Z</time>
      </trkpt>
      <trkpt lat="45.80103" lon="6.73918">
        <ele>1793</ele>
        <time>2026-08-14T07:48:39.540Z</time>
      </trkpt>
      <trkpt lat="45.80103" lon="6.73918">
        <ele>1793</ele>
        <time>2026-08-14T07:48:40.540Z</time>
      </trkpt>
      <trkpt lat="45.80103" lon="6.73918">
        <ele>1793</ele>
        <time>2026-08-14T07:48:41.540Z</time>
      </trkpt>
      <trkpt lat="45.80103" lon="6.73918">
        <ele>1793</ele>
        <time>2026-08-14T07:48:42.540Z</time>
      </trkpt>
      <trkpt lat="45.80103" lon="6.73918">
        <ele>1793</ele>
        <time>2026-08-14T07:48:43.540Z</time>
      </trkpt>
      <trkpt lat="45.80103" lon="6.73918">
        <ele>1793</ele>
        <time>2026-08-14T07:48:44.540Z</time>
      </trkpt>
      <trkpt lat="45.80103" lon="6.73918">
        <ele>1793</ele>
        <time>2026-08-14T07:48:45.540Z</time>
      </trkpt>
      <trkpt lat="45.80103" lon="6.73918">
        <ele>1793</ele>
        <time>2026-08-14T07:48:46.540Z</time>
      </trkpt>
      <trkpt lat="45.80103" lon="6.73918">
        <ele>1793</ele>
        <time>2026-08-14T07:48:47.540Z</time>
      </trkpt>
      <trkpt lat="45.80103" lon="6.73918">
        <ele>1793</ele>
        <time>2026-08-14T07:48:48.540Z</time>
      </trkpt>
      <trkpt lat="45.80103" lon="6.73918">
        <ele>1793</ele>
        <time>2026-08-14T07:48:49.540Z</time>
      </trkpt>
      <trkpt lat="45.80103" lon="6.73918">
        <ele>1793</ele>
        <time>2026-08-14T07:48:50.540Z</time>
      </trkpt>
      <trkpt lat="45.80103" lon="6.73919">
        <ele>1793</ele>
        <time>2026-08-14T07:48:51.540Z</time>
      </trkpt>
      <trkpt lat="45.80103" lon="6.73919">
        <ele>1793</ele>
        <time>2026-08-14T07:48:52.540Z</time>
      </trkpt>
      <trkpt lat="45.80103" lon="6.73919">
        <ele>1793</ele>
        <time>2026-08-14T07:48:53.540Z</time>
      </trkpt>
      <trkpt lat="45.80103" lon="6.73919">
        <ele>1793</ele>
        <time>2026-08-14T07:48:54.540Z</time>
      </trkpt>
      <trkpt lat="45.80103" lon="6.73919">
        <ele>1793</ele>
        <time>2026-08-14T07:48:55.540Z</time>
      </trkpt>
      <trkpt lat="45.80103" lon="6.73919">
        <ele>1793</ele>
        <time>2026-08-14T07:48:56.540Z</time>
      </trkpt>
      <trkpt lat="45.80103" lon="6.73919">
        <ele>1793</ele>
        <time>2026-08-14T07:48:57.540Z</time>
      </trkpt>
      <trkpt lat="45.80103" lon="6.73919">
        <ele>1793</ele>
        <time>2026-08-14T07:48:58.540Z</time>
      </trkpt>
      <trkpt lat="45.80103" lon="6.73919">
        <ele>1793</ele>
        <time>2026-08-14T07:48:59.540Z</time>
      </trkpt>
      <trkpt lat="45.80103" lon="6.73919">
        <ele>1793</ele>
        <time>2026-08-14T07:49:00.540Z</time>
      </trkpt>
      <trkpt lat="45.80102" lon="6.73919">
        <ele>1793</ele>
        <time>2026-08-14T07:49:01.540Z</time>
      </trkpt>
      <trkpt lat="45.80102" lon="6.73919">
        <ele>1793</ele>
        <time>2026-08-14T07:49:02.540Z</time>
      </trkpt>
      <trkpt lat="45.80102" lon="6.73919">
        <ele>1793</ele>
        <time>2026-08-14T07:49:03.540Z</time>
      </trkpt>
      <trkpt lat="45.80102" lon="6.73919">
        <ele>1793</ele>
        <time>2026-08-14T07:49:04.540Z</time>
      </trkpt>
      <trkpt lat="45.80102" lon="6.73919">
        <ele>1793</ele>
        <time>2026-08-14T07:49:05.540Z</time>
      </trkpt>
      <trkpt lat="45.80102" lon="6.73919">
        <ele>1793</ele>
        <time>2026-08-14T07:49:06.540Z</time>
      </trkpt>
      <trkpt lat="45.80102" lon="6.73919">
        <ele>1793</ele>
        <time>2026-08-14T07:49:07.540Z</time>
      </trkpt>
      <trkpt lat="45.80102" lon="6.73919">
        <ele>1793</ele>
        <time>2026-08-14T07:49:08.540Z</time>
      </trkpt>
      <trkpt lat="45.80102" lon="6.73919">
        <ele>1794</ele>
        <time>2026-08-14T07:49:09.540Z</time>
      </trkpt>
      <trkpt lat="45.80102" lon="6.73919">
        <ele>1794</ele>
        <time>2026-08-14T07:49:10.540Z</time>
      </trkpt>
      <trkpt lat="45.80102" lon="6.73919">
        <ele>1794</ele>
        <time>2026-08-14T07:49:11.540Z</time>
      </trkpt>
      <trkpt lat="45.80101" lon="6.73919">
        <ele>1794</ele>
        <time>2026-08-14T07:49:12.540Z</time>
      </trkpt>
      <trkpt lat="45.80101" lon="6.73919">
        <ele>1794</ele>
        <time>2026-08-14T07:49:13.540Z</time>
      </trkpt>
      <trkpt lat="45.80101" lon="6.73919">
        <ele>1794</ele>
        <time>2026-08-14T07:49:14.540Z</time>
      </trkpt>
      <trkpt lat="45.80101" lon="6.73919">
        <ele>1794</ele>
        <time>2026-08-14T07:49:15.540Z</time>
      </trkpt>
      <trkpt lat="45.80101" lon="6.73919">
        <ele>1794</ele>
        <time>2026-08-14T07:49:16.540Z</time>
      </trkpt>
      <trkpt lat="45.80101" lon="6.7392">
        <ele>1794</ele>
        <time>2026-08-14T07:49:17.540Z</time>
      </trkpt>
      <trkpt lat="45.80101" lon="6.7392">
        <ele>1794</ele>
        <time>2026-08-14T07:49:18.540Z</time>
      </trkpt>
      <trkpt lat="45.80101" lon="6.7392">
        <ele>1794</ele>
        <time>2026-08-14T07:49:19.540Z</time>
      </trkpt>
      <trkpt lat="45.801" lon="6.7392">
        <ele>1794</ele>
        <time>2026-08-14T07:49:20.540Z</time>
      </trkpt>
      <trkpt lat="45.801" lon="6.7392">
        <ele>1794</ele>
        <time>2026-08-14T07:49:21.540Z</time>
      </trkpt>
      <trkpt lat="45.801" lon="6.7392">
        <ele>1794</ele>
        <time>2026-08-14T07:49:22.540Z</time>
      </trkpt>
      <trkpt lat="45.801" lon="6.7392">
        <ele>1794</ele>
        <time>2026-08-14T07:49:23.540Z</time>
      </trkpt>
      <trkpt lat="45.801" lon="6.7392">
        <ele>1794</ele>
        <time>2026-08-14T07:49:24.540Z</time>
      </trkpt>
      <trkpt lat="45.801" lon="6.7392">
        <ele>1794</ele>
        <time>2026-08-14T07:49:25.540Z</time>
      </trkpt>
      <trkpt lat="45.801" lon="6.7392">
        <ele>1794</ele>
        <time>2026-08-14T07:49:26.540Z</time>
      </trkpt>
      <trkpt lat="45.801" lon="6.7392">
        <ele>1794</ele>
        <time>2026-08-14T07:49:27.540Z</time>
      </trkpt>
      <trkpt lat="45.801" lon="6.7392">
        <ele>1794</ele>
        <time>2026-08-14T07:49:28.540Z</time>
      </trkpt>
      <trkpt lat="45.801" lon="6.7392">
        <ele>1794</ele>
        <time>2026-08-14T07:49:29.540Z</time>
      </trkpt>
      <trkpt lat="45.801" lon="6.7392">
        <ele>1794</ele>
        <time>2026-08-14T07:49:30.540Z</time>
      </trkpt>
      <trkpt lat="45.801" lon="6.7392">
        <ele>1794</ele>
        <time>2026-08-14T07:49:31.540Z</time>
      </trkpt>
      <trkpt lat="45.801" lon="6.7392">
        <ele>1794</ele>
        <time>2026-08-14T07:49:32.540Z</time>
      </trkpt>
      <trkpt lat="45.801" lon="6.7392">
        <ele>1794</ele>
        <time>2026-08-14T07:49:33.540Z</time>
      </trkpt>
      <trkpt lat="45.801" lon="6.73919">
        <ele>1794</ele>
        <time>2026-08-14T07:49:34.540Z</time>
      </trkpt>
      <trkpt lat="45.801" lon="6.73919">
        <ele>1794</ele>
        <time>2026-08-14T07:49:35.540Z</time>
      </trkpt>
      <trkpt lat="45.801" lon="6.73919">
        <ele>1794</ele>
        <time>2026-08-14T07:49:36.540Z</time>
      </trkpt>
      <trkpt lat="45.801" lon="6.73919">
        <ele>1794</ele>
        <time>2026-08-14T07:49:37.540Z</time>
      </trkpt>
      <trkpt lat="45.801" lon="6.73919">
        <ele>1794</ele>
        <time>2026-08-14T07:49:38.540Z</time>
      </trkpt>
      <trkpt lat="45.801" lon="6.73919">
        <ele>1794</ele>
        <time>2026-08-14T07:49:39.540Z</time>
      </trkpt>
      <trkpt lat="45.801" lon="6.73919">
        <ele>1794</ele>
        <time>2026-08-14T07:49:40.540Z</time>
      </trkpt>
      <trkpt lat="45.801" lon="6.73919">
        <ele>1794</ele>
        <time>2026-08-14T07:49:41.540Z</time>
      </trkpt>
      <trkpt lat="45.801" lon="6.73919">
        <ele>1794</ele>
        <time>2026-08-14T07:49:42.540Z</time>
      </trkpt>
      <trkpt lat="45.801" lon="6.73919">
        <ele>1794</ele>
        <time>2026-08-14T07:49:43.540Z</time>
      </trkpt>
      <trkpt lat="45.801" lon="6.73919">
        <ele>1794</ele>
        <time>2026-08-14T07:49:44.540Z</time>
      </trkpt>
      <trkpt lat="45.801" lon="6.73919">
        <ele>1794</ele>
        <time>2026-08-14T07:49:45.540Z</time>
      </trkpt>
      <trkpt lat="45.801" lon="6.73919">
        <ele>1794</ele>
        <time>2026-08-14T07:49:46.540Z</time>
      </trkpt>
      <trkpt lat="45.801" lon="6.73919">
        <ele>1794</ele>
        <time>2026-08-14T07:49:47.540Z</time>
      </trkpt>
      <trkpt lat="45.801" lon="6.73919">
        <ele>1794</ele>
        <time>2026-08-14T07:49:48.540Z</time>
      </trkpt>
      <trkpt lat="45.801" lon="6.73919">
        <ele>1794</ele>
        <time>2026-08-14T07:49:49.540Z</time>
      </trkpt>
      <trkpt lat="45.801" lon="6.73919">
        <ele>1794</ele>
        <time>2026-08-14T07:49:50.540Z</time>
      </trkpt>
      <trkpt lat="45.801" lon="6.73919">
        <ele>1794</ele>
        <time>2026-08-14T07:49:51.540Z</time>
      </trkpt>
      <trkpt lat="45.801" lon="6.73919">
        <ele>1794</ele>
        <time>2026-08-14T07:49:52.540Z</time>
      </trkpt>
      <trkpt lat="45.801" lon="6.73919">
        <ele>1794</ele>
        <time>2026-08-14T07:49:53.540Z</time>
      </trkpt>
      <trkpt lat="45.801" lon="6.73919">
        <ele>1794</ele>
        <time>2026-08-14T07:49:54.540Z</time>
      </trkpt>
      <trkpt lat="45.801" lon="6.73919">
        <ele>1794</ele>
        <time>2026-08-14T07:49:55.540Z</time>
      </trkpt>
      <trkpt lat="45.801" lon="6.73919">
        <ele>1794</ele>
        <time>2026-08-14T07:49:56.540Z</time>
      </trkpt>
      <trkpt lat="45.801" lon="6.73919">
        <ele>1794</ele>
        <time>2026-08-14T07:49:57.540Z</time>
      </trkpt>
      <trkpt lat="45.801" lon="6.73919">
        <ele>1794</ele>
        <time>2026-08-14T07:49:58.540Z</time>
      </trkpt>
      <trkpt lat="45.801" lon="6.73919">
        <ele>1794</ele>
        <time>2026-08-14T07:49:59.540Z</time>
      </trkpt>
      <trkpt lat="45.80099" lon="6.7392">
        <ele>1794</ele>
        <time>2026-08-14T07:50:00.540Z</time>
      </trkpt>
      <trkpt lat="45.80099" lon="6.7392">
        <ele>1794</ele>
        <time>2026-08-14T07:50:01.540Z</time>
      </trkpt>
      <trkpt lat="45.80099" lon="6.7392">
        <ele>1794</ele>
        <time>2026-08-14T07:50:02.540Z</time>
      </trkpt>
      <trkpt lat="45.80099" lon="6.7392">
        <ele>1794</ele>
        <time>2026-08-14T07:50:03.540Z</time>
      </trkpt>
      <trkpt lat="45.80099" lon="6.7392">
        <ele>1794</ele>
        <time>2026-08-14T07:50:04.540Z</time>
      </trkpt>
      <trkpt lat="45.80099" lon="6.7392">
        <ele>1794</ele>
        <time>2026-08-14T07:50:05.540Z</time>
      </trkpt>
      <trkpt lat="45.80099" lon="6.7392">
        <ele>1794</ele>
        <time>2026-08-14T07:50:06.540Z</time>
      </trkpt>
      <trkpt lat="45.80099" lon="6.7392">
        <ele>1794</ele>
        <time>2026-08-14T07:50:07.540Z</time>
      </trkpt>
      <trkpt lat="45.80099" lon="6.7392">
        <ele>1794</ele>
        <time>2026-08-14T07:50:08.540Z</time>
      </trkpt>
      <trkpt lat="45.80099" lon="6.7392">
        <ele>1794</ele>
        <time>2026-08-14T07:50:09.540Z</time>
      </trkpt>
      <trkpt lat="45.80099" lon="6.7392">
        <ele>1794</ele>
        <time>2026-08-14T07:50:10.540Z</time>
      </trkpt>
      <trkpt lat="45.80099" lon="6.7392">
        <ele>1794</ele>
        <time>2026-08-14T07:50:11.540Z</time>
      </trkpt>
      <trkpt lat="45.80099" lon="6.7392">
        <ele>1794</ele>
        <time>2026-08-14T07:50:12.540Z</time>
      </trkpt>
      <trkpt lat="45.80099" lon="6.7392">
        <ele>1794</ele>
        <time>2026-08-14T07:50:13.540Z</time>
      </trkpt>
      <trkpt lat="45.80099" lon="6.7392">
        <ele>1794</ele>
        <time>2026-08-14T07:50:14.540Z</time>
      </trkpt>
      <trkpt lat="45.80099" lon="6.7392">
        <ele>1794</ele>
        <time>2026-08-14T07:50:15.540Z</time>
      </trkpt>
      <trkpt lat="45.80099" lon="6.7392">
        <ele>1794</ele>
        <time>2026-08-14T07:50:16.540Z</time>
      </trkpt>
      <trkpt lat="45.80099" lon="6.7392">
        <ele>1794</ele>
        <time>2026-08-14T07:50:17.540Z</time>
      </trkpt>
      <trkpt lat="45.80099" lon="6.7392">
        <ele>1794</ele>
        <time>2026-08-14T07:50:18.540Z</time>
      </trkpt>
      <trkpt lat="45.80099" lon="6.7392">
        <ele>1795</ele>
        <time>2026-08-14T07:50:19.540Z</time>
      </trkpt>
      <trkpt lat="45.80099" lon="6.7392">
        <ele>1795</ele>
        <time>2026-08-14T07:50:20.540Z</time>
      </trkpt>
      <trkpt lat="45.80099" lon="6.7392">
        <ele>1795</ele>
        <time>2026-08-14T07:50:21.540Z</time>
      </trkpt>
      <trkpt lat="45.80099" lon="6.7392">
        <ele>1795</ele>
        <time>2026-08-14T07:50:22.540Z</time>
      </trkpt>
      <trkpt lat="45.80099" lon="6.7392">
        <ele>1795</ele>
        <time>2026-08-14T07:50:23.540Z</time>
      </trkpt>
      <trkpt lat="45.80099" lon="6.7392">
        <ele>1795</ele>
        <time>2026-08-14T07:50:24.540Z</time>
      </trkpt>
      <trkpt lat="45.80099" lon="6.7392">
        <ele>1795</ele>
        <time>2026-08-14T07:50:25.540Z</time>
      </trkpt>
      <trkpt lat="45.80099" lon="6.7392">
        <ele>1795</ele>
        <time>2026-08-14T07:50:26.540Z</time>
      </trkpt>
      <trkpt lat="45.80099" lon="6.7392">
        <ele>1795</ele>
        <time>2026-08-14T07:50:27.540Z</time>
      </trkpt>
      <trkpt lat="45.80099" lon="6.7392">
        <ele>1795</ele>
        <time>2026-08-14T07:50:28.540Z</time>
      </trkpt>
      <trkpt lat="45.80099" lon="6.7392">
        <ele>1795</ele>
        <time>2026-08-14T07:50:29.540Z</time>
      </trkpt>
      <trkpt lat="45.80099" lon="6.7392">
        <ele>1795</ele>
        <time>2026-08-14T07:50:30.540Z</time>
      </trkpt>
      <trkpt lat="45.80099" lon="6.7392">
        <ele>1795</ele>
        <time>2026-08-14T07:50:31.540Z</time>
      </trkpt>
      <trkpt lat="45.80099" lon="6.7392">
        <ele>1795</ele>
        <time>2026-08-14T07:50:32.540Z</time>
      </trkpt>
      <trkpt lat="45.80099" lon="6.7392">
        <ele>1795</ele>
        <time>2026-08-14T07:50:33.540Z</time>
      </trkpt>
      <trkpt lat="45.80099" lon="6.7392">
        <ele>1795</ele>
        <time>2026-08-14T07:50:34.540Z</time>
      </trkpt>
      <trkpt lat="45.80099" lon="6.7392">
        <ele>1795</ele>
        <time>2026-08-14T07:50:35.540Z</time>
      </trkpt>
      <trkpt lat="45.80099" lon="6.7392">
        <ele>1795</ele>
        <time>2026-08-14T07:50:36.540Z</time>
      </trkpt>
      <trkpt lat="45.80099" lon="6.7392">
        <ele>1795</ele>
        <time>2026-08-14T07:50:37.540Z</time>
      </trkpt>
      <trkpt lat="45.80099" lon="6.7392">
        <ele>1795</ele>
        <time>2026-08-14T07:50:38.540Z</time>
      </trkpt>
      <trkpt lat="45.80099" lon="6.7392">
        <ele>1795</ele>
        <time>2026-08-14T07:50:39.540Z</time>
      </trkpt>
      <trkpt lat="45.80099" lon="6.7392">
        <ele>1795</ele>
        <time>2026-08-14T07:50:40.540Z</time>
      </trkpt>
      <trkpt lat="45.80099" lon="6.7392">
        <ele>1795</ele>
        <time>2026-08-14T07:50:41.540Z</time>
      </trkpt>
      <trkpt lat="45.80099" lon="6.7392">
        <ele>1795</ele>
        <time>2026-08-14T07:50:42.540Z</time>
      </trkpt>
      <trkpt lat="45.80099" lon="6.7392">
        <ele>1795</ele>
        <time>2026-08-14T07:50:43.540Z</time>
      </trkpt>
      <trkpt lat="45.80099" lon="6.7392">
        <ele>1795</ele>
        <time>2026-08-14T07:50:44.540Z</time>
      </trkpt>
      <trkpt lat="45.80099" lon="6.7392">
        <ele>1795</ele>
        <time>2026-08-14T07:50:45.540Z</time>
      </trkpt>
      <trkpt lat="45.80099" lon="6.7392">
        <ele>1795</ele>
        <time>2026-08-14T07:50:46.540Z</time>
      </trkpt>
      <trkpt lat="45.80099" lon="6.7392">
        <ele>1795</ele>
        <time>2026-08-14T07:50:47.540Z</time>
      </trkpt>
      <trkpt lat="45.80099" lon="6.7392">
        <ele>1795</ele>
        <time>2026-08-14T07:50:48.540Z</time>
      </trkpt>
      <trkpt lat="45.80099" lon="6.7392">
        <ele>1795</ele>
        <time>2026-08-14T07:50:49.540Z</time>
      </trkpt>
      <trkpt lat="45.80099" lon="6.73919">
        <ele>1795</ele>
        <time>2026-08-14T07:50:50.540Z</time>
      </trkpt>
      <trkpt lat="45.80099" lon="6.73919">
        <ele>1795</ele>
        <time>2026-08-14T07:50:51.540Z</time>
      </trkpt>
      <trkpt lat="45.80099" lon="6.73919">
        <ele>1795</ele>
        <time>2026-08-14T07:50:52.540Z</time>
      </trkpt>
      <trkpt lat="45.80099" lon="6.73919">
        <ele>1795</ele>
        <time>2026-08-14T07:50:53.540Z</time>
      </trkpt>
      <trkpt lat="45.80099" lon="6.73919">
        <ele>1795</ele>
        <time>2026-08-14T07:50:54.540Z</time>
      </trkpt>
      <trkpt lat="45.80099" lon="6.73919">
        <ele>1795</ele>
        <time>2026-08-14T07:50:55.540Z</time>
      </trkpt>
      <trkpt lat="45.80099" lon="6.73919">
        <ele>1795</ele>
        <time>2026-08-14T07:50:56.540Z</time>
      </trkpt>
      <trkpt lat="45.80099" lon="6.73919">
        <ele>1796</ele>
        <time>2026-08-14T07:50:57.540Z</time>
      </trkpt>
      <trkpt lat="45.80099" lon="6.73919">
        <ele>1796</ele>
        <time>2026-08-14T07:50:58.540Z</time>
      </trkpt>
      <trkpt lat="45.80099" lon="6.73919">
        <ele>1796</ele>
        <time>2026-08-14T07:50:59.540Z</time>
      </trkpt>
      <trkpt lat="45.80099" lon="6.73919">
        <ele>1796</ele>
        <time>2026-08-14T07:51:00.540Z</time>
      </trkpt>
      <trkpt lat="45.80099" lon="6.73919">
        <ele>1796</ele>
        <time>2026-08-14T07:51:01.540Z</time>
      </trkpt>
      <trkpt lat="45.80099" lon="6.73919">
        <ele>1796</ele>
        <time>2026-08-14T07:51:02.540Z</time>
      </trkpt>
      <trkpt lat="45.80099" lon="6.73919">
        <ele>1796</ele>
        <time>2026-08-14T07:51:03.540Z</time>
      </trkpt>
      <trkpt lat="45.80099" lon="6.73919">
        <ele>1796</ele>
        <time>2026-08-14T07:51:04.540Z</time>
      </trkpt>
      <trkpt lat="45.80099" lon="6.73919">
        <ele>1796</ele>
        <time>2026-08-14T07:51:05.540Z</time>
      </trkpt>
      <trkpt lat="45.80099" lon="6.73919">
        <ele>1796</ele>
        <time>2026-08-14T07:51:06.540Z</time>
      </trkpt>
      <trkpt lat="45.80099" lon="6.73919">
        <ele>1796</ele>
        <time>2026-08-14T07:51:07.540Z</time>
      </trkpt>
      <trkpt lat="45.80099" lon="6.73919">
        <ele>1796</ele>
        <time>2026-08-14T07:51:08.540Z</time>
      </trkpt>
      <trkpt lat="45.80099" lon="6.73919">
        <ele>1796</ele>
        <time>2026-08-14T07:51:09.540Z</time>
      </trkpt>
      <trkpt lat="45.80099" lon="6.73919">
        <ele>1796</ele>
        <time>2026-08-14T07:51:10.540Z</time>
      </trkpt>
      <trkpt lat="45.80099" lon="6.73919">
        <ele>1796</ele>
        <time>2026-08-14T07:51:11.540Z</time>
      </trkpt>
      <trkpt lat="45.80099" lon="6.73919">
        <ele>1796</ele>
        <time>2026-08-14T07:51:12.540Z</time>
      </trkpt>
      <trkpt lat="45.80099" lon="6.73919">
        <ele>1796</ele>
        <time>2026-08-14T07:51:13.540Z</time>
      </trkpt>
      <trkpt lat="45.80099" lon="6.73919">
        <ele>1796</ele>
        <time>2026-08-14T07:51:14.540Z</time>
      </trkpt>
      <trkpt lat="45.80099" lon="6.73919">
        <ele>1796</ele>
        <time>2026-08-14T07:51:15.540Z</time>
      </trkpt>
      <trkpt lat="45.80099" lon="6.73919">
        <ele>1796</ele>
        <time>2026-08-14T07:51:16.540Z</time>
      </trkpt>
      <trkpt lat="45.80099" lon="6.73919">
        <ele>1796</ele>
        <time>2026-08-14T07:51:17.540Z</time>
      </trkpt>
      <trkpt lat="45.80099" lon="6.73919">
        <ele>1796</ele>
        <time>2026-08-14T07:51:18.540Z</time>
      </trkpt>
      <trkpt lat="45.80099" lon="6.73919">
        <ele>1796</ele>
        <time>2026-08-14T07:51:19.540Z</time>
      </trkpt>
      <trkpt lat="45.80099" lon="6.73919">
        <ele>1796</ele>
        <time>2026-08-14T07:51:20.540Z</time>
      </trkpt>
      <trkpt lat="45.80099" lon="6.73919">
        <ele>1796</ele>
        <time>2026-08-14T07:51:21.540Z</time>
      </trkpt>
      <trkpt lat="45.80099" lon="6.73919">
        <ele>1796</ele>
        <time>2026-08-14T07:51:22.540Z</time>
      </trkpt>
      <trkpt lat="45.80099" lon="6.73919">
        <ele>1796</ele>
        <time>2026-08-14T07:51:23.540Z</time>
      </trkpt>
      <trkpt lat="45.80099" lon="6.73919">
        <ele>1796</ele>
        <time>2026-08-14T07:51:24.540Z</time>
      </trkpt>
      <trkpt lat="45.80099" lon="6.73919">
        <ele>1796</ele>
        <time>2026-08-14T07:51:25.540Z</time>
      </trkpt>
      <trkpt lat="45.80099" lon="6.73919">
        <ele>1796</ele>
        <time>2026-08-14T07:51:26.540Z</time>
      </trkpt>
      <trkpt lat="45.80099" lon="6.73919">
        <ele>1797</ele>
        <time>2026-08-14T07:51:27.540Z</time>
      </trkpt>
      <trkpt lat="45.80099" lon="6.73919">
        <ele>1797</ele>
        <time>2026-08-14T07:51:28.540Z</time>
      </trkpt>
      <trkpt lat="45.80099" lon="6.73919">
        <ele>1797</ele>
        <time>2026-08-14T07:51:29.540Z</time>
      </trkpt>
      <trkpt lat="45.80099" lon="6.73919">
        <ele>1797</ele>
        <time>2026-08-14T07:51:30.540Z</time>
      </trkpt>
      <trkpt lat="45.80099" lon="6.73919">
        <ele>1797</ele>
        <time>2026-08-14T07:51:31.540Z</time>
      </trkpt>
      <trkpt lat="45.80099" lon="6.73919">
        <ele>1797</ele>
        <time>2026-08-14T07:51:32.540Z</time>
      </trkpt>
      <trkpt lat="45.80099" lon="6.73919">
        <ele>1797</ele>
        <time>2026-08-14T07:51:33.540Z</time>
      </trkpt>
      <trkpt lat="45.80099" lon="6.73919">
        <ele>1797</ele>
        <time>2026-08-14T07:51:34.540Z</time>
      </trkpt>
      <trkpt lat="45.80099" lon="6.73919">
        <ele>1797</ele>
        <time>2026-08-14T07:51:35.540Z</time>
      </trkpt>
      <trkpt lat="45.80099" lon="6.73919">
        <ele>1797</ele>
        <time>2026-08-14T07:51:36.540Z</time>
      </trkpt>
      <trkpt lat="45.80099" lon="6.73919">
        <ele>1797</ele>
        <time>2026-08-14T07:51:37.540Z</time>
      </trkpt>
      <trkpt lat="45.80099" lon="6.73919">
        <ele>1797</ele>
        <time>2026-08-14T07:51:38.540Z</time>
      </trkpt>
      <trkpt lat="45.80099" lon="6.73919">
        <ele>1797</ele>
        <time>2026-08-14T07:51:39.540Z</time>
      </trkpt>
      <trkpt lat="45.80099" lon="6.73919">
        <ele>1797</ele>
        <time>2026-08-14T07:51:40.540Z</time>
      </trkpt>
      <trkpt lat="45.80099" lon="6.73919">
        <ele>1797</ele>
        <time>2026-08-14T07:51:41.540Z</time>
      </trkpt>
      <trkpt lat="45.80099" lon="6.73919">
        <ele>1797</ele>
        <time>2026-08-14T07:51:42.540Z</time>
      </trkpt>
      <trkpt lat="45.80099" lon="6.73919">
        <ele>1797</ele>
        <time>2026-08-14T07:51:43.540Z</time>
      </trkpt>
      <trkpt lat="45.80099" lon="6.73919">
        <ele>1797</ele>
        <time>2026-08-14T07:51:44.540Z</time>
      </trkpt>
      <trkpt lat="45.80099" lon="6.73919">
        <ele>1797</ele>
        <time>2026-08-14T07:51:45.540Z</time>
      </trkpt>
      <trkpt lat="45.80099" lon="6.73919">
        <ele>1797</ele>
        <time>2026-08-14T07:51:46.540Z</time>
      </trkpt>
      <trkpt lat="45.80099" lon="6.73919">
        <ele>1797</ele>
        <time>2026-08-14T07:51:47.540Z</time>
      </trkpt>
      <trkpt lat="45.80099" lon="6.73919">
        <ele>1797</ele>
        <time>2026-08-14T07:51:48.540Z</time>
      </trkpt>
      <trkpt lat="45.80099" lon="6.73919">
        <ele>1797</ele>
        <time>2026-08-14T07:51:49.540Z</time>
      </trkpt>
      <trkpt lat="45.80099" lon="6.73919">
        <ele>1797</ele>
        <time>2026-08-14T07:51:50.540Z</time>
      </trkpt>
      <trkpt lat="45.80099" lon="6.73919">
        <ele>1797</ele>
        <time>2026-08-14T07:51:51.540Z</time>
      </trkpt>
      <trkpt lat="45.801" lon="6.7392">
        <ele>1797</ele>
        <time>2026-08-14T07:51:52.540Z</time>
      </trkpt>
      <trkpt lat="45.80102" lon="6.73921">
        <ele>1797</ele>
        <time>2026-08-14T07:51:53.540Z</time>
      </trkpt>
      <trkpt lat="45.80104" lon="6.73923">
        <ele>1797</ele>
        <time>2026-08-14T07:51:54.540Z</time>
      </trkpt>
      <trkpt lat="45.80105" lon="6.73924">
        <ele>1797</ele>
        <time>2026-08-14T07:51:55.540Z</time>
      </trkpt>
      <trkpt lat="45.80107" lon="6.73926">
        <ele>1797</ele>
        <time>2026-08-14T07:51:56.540Z</time>
      </trkpt>
      <trkpt lat="45.80108" lon="6.73927">
        <ele>1797</ele>
        <time>2026-08-14T07:51:57.540Z</time>
      </trkpt>
      <trkpt lat="45.8011" lon="6.73929">
        <ele>1797</ele>
        <time>2026-08-14T07:51:58.540Z</time>
      </trkpt>
      <trkpt lat="45.80111" lon="6.7393">
        <ele>1797</ele>
        <time>2026-08-14T07:51:59.540Z</time>
      </trkpt>
      <trkpt lat="45.80112" lon="6.73932">
        <ele>1797</ele>
        <time>2026-08-14T07:52:00.540Z</time>
      </trkpt>
      <trkpt lat="45.80113" lon="6.73934">
        <ele>1798</ele>
        <time>2026-08-14T07:52:01.540Z</time>
      </trkpt>
      <trkpt lat="45.80114" lon="6.73935">
        <ele>1798</ele>
        <time>2026-08-14T07:52:02.540Z</time>
      </trkpt>
      <trkpt lat="45.80115" lon="6.73936">
        <ele>1798</ele>
        <time>2026-08-14T07:52:03.540Z</time>
      </trkpt>
      <trkpt lat="45.80115" lon="6.73936">
        <ele>1799</ele>
        <time>2026-08-14T07:52:04.540Z</time>
      </trkpt>
      <trkpt lat="45.80116" lon="6.73937">
        <ele>1799</ele>
        <time>2026-08-14T07:52:05.540Z</time>
      </trkpt>
      <trkpt lat="45.80117" lon="6.73938">
        <ele>1799</ele>
        <time>2026-08-14T07:52:06.540Z</time>
      </trkpt>
      <trkpt lat="45.80117" lon="6.73939">
        <ele>1800</ele>
        <time>2026-08-14T07:52:07.540Z</time>
      </trkpt>
      <trkpt lat="45.80118" lon="6.7394">
        <ele>1800</ele>
        <time>2026-08-14T07:52:08.540Z</time>
      </trkpt>
      <trkpt lat="45.80119" lon="6.73941">
        <ele>1800</ele>
        <time>2026-08-14T07:52:09.540Z</time>
      </trkpt>
      <trkpt lat="45.80119" lon="6.73943">
        <ele>1800</ele>
        <time>2026-08-14T07:52:10.540Z</time>
      </trkpt>
      <trkpt lat="45.8012" lon="6.73944">
        <ele>1800</ele>
        <time>2026-08-14T07:52:11.540Z</time>
      </trkpt>
      <trkpt lat="45.8012" lon="6.73945">
        <ele>1800</ele>
        <time>2026-08-14T07:52:12.540Z</time>
      </trkpt>
      <trkpt lat="45.80121" lon="6.73947">
        <ele>1800</ele>
        <time>2026-08-14T07:52:13.540Z</time>
      </trkpt>
      <trkpt lat="45.80122" lon="6.73948">
        <ele>1800</ele>
        <time>2026-08-14T07:52:14.540Z</time>
      </trkpt>
      <trkpt lat="45.80122" lon="6.73949">
        <ele>1801</ele>
        <time>2026-08-14T07:52:15.540Z</time>
      </trkpt>
      <trkpt lat="45.80122" lon="6.7395">
        <ele>1801</ele>
        <time>2026-08-14T07:52:16.540Z</time>
      </trkpt>
      <trkpt lat="45.80122" lon="6.73951">
        <ele>1801</ele>
        <time>2026-08-14T07:52:17.540Z</time>
      </trkpt>
      <trkpt lat="45.80122" lon="6.73953">
        <ele>1801</ele>
        <time>2026-08-14T07:52:18.540Z</time>
      </trkpt>
      <trkpt lat="45.80123" lon="6.73954">
        <ele>1801</ele>
        <time>2026-08-14T07:52:19.540Z</time>
      </trkpt>
      <trkpt lat="45.80124" lon="6.73955">
        <ele>1801</ele>
        <time>2026-08-14T07:52:20.540Z</time>
      </trkpt>
      <trkpt lat="45.80124" lon="6.73956">
        <ele>1802</ele>
        <time>2026-08-14T07:52:21.540Z</time>
      </trkpt>
      <trkpt lat="45.80125" lon="6.73957">
        <ele>1802</ele>
        <time>2026-08-14T07:52:22.540Z</time>
      </trkpt>
      <trkpt lat="45.80125" lon="6.73959">
        <ele>1802</ele>
        <time>2026-08-14T07:52:23.540Z</time>
      </trkpt>
      <trkpt lat="45.80125" lon="6.7396">
        <ele>1802</ele>
        <time>2026-08-14T07:52:24.540Z</time>
      </trkpt>
      <trkpt lat="45.80126" lon="6.73961">
        <ele>1802</ele>
        <time>2026-08-14T07:52:25.540Z</time>
      </trkpt>
      <trkpt lat="45.80127" lon="6.73962">
        <ele>1802</ele>
        <time>2026-08-14T07:52:26.540Z</time>
      </trkpt>
      <trkpt lat="45.80127" lon="6.73964">
        <ele>1802</ele>
        <time>2026-08-14T07:52:27.540Z</time>
      </trkpt>
      <trkpt lat="45.80128" lon="6.73965">
        <ele>1803</ele>
        <time>2026-08-14T07:52:28.540Z</time>
      </trkpt>
      <trkpt lat="45.80128" lon="6.73966">
        <ele>1803</ele>
        <time>2026-08-14T07:52:29.540Z</time>
      </trkpt>
      <trkpt lat="45.80129" lon="6.73967">
        <ele>1803</ele>
        <time>2026-08-14T07:52:30.540Z</time>
      </trkpt>
      <trkpt lat="45.80129" lon="6.73968">
        <ele>1803</ele>
        <time>2026-08-14T07:52:31.540Z</time>
      </trkpt>
      <trkpt lat="45.8013" lon="6.73968">
        <ele>1803</ele>
        <time>2026-08-14T07:52:32.540Z</time>
      </trkpt>
      <trkpt lat="45.8013" lon="6.73969">
        <ele>1803</ele>
        <time>2026-08-14T07:52:33.540Z</time>
      </trkpt>
      <trkpt lat="45.8013" lon="6.73969">
        <ele>1803</ele>
        <time>2026-08-14T07:52:34.540Z</time>
      </trkpt>
      <trkpt lat="45.8013" lon="6.73969">
        <ele>1803</ele>
        <time>2026-08-14T07:52:35.540Z</time>
      </trkpt>
      <trkpt lat="45.80131" lon="6.7397">
        <ele>1803</ele>
        <time>2026-08-14T07:52:36.540Z</time>
      </trkpt>
      <trkpt lat="45.80131" lon="6.73971">
        <ele>1803</ele>
        <time>2026-08-14T07:52:37.540Z</time>
      </trkpt>
      <trkpt lat="45.80132" lon="6.73972">
        <ele>1803</ele>
        <time>2026-08-14T07:52:38.540Z</time>
      </trkpt>
      <trkpt lat="45.80132" lon="6.73973">
        <ele>1803</ele>
        <time>2026-08-14T07:52:39.540Z</time>
      </trkpt>
      <trkpt lat="45.80133" lon="6.73974">
        <ele>1803</ele>
        <time>2026-08-14T07:52:40.540Z</time>
      </trkpt>
      <trkpt lat="45.80134" lon="6.73976">
        <ele>1803</ele>
        <time>2026-08-14T07:52:41.540Z</time>
      </trkpt>
      <trkpt lat="45.80135" lon="6.73977">
        <ele>1803</ele>
        <time>2026-08-14T07:52:42.540Z</time>
      </trkpt>
      <trkpt lat="45.80136" lon="6.73978">
        <ele>1802</ele>
        <time>2026-08-14T07:52:43.540Z</time>
      </trkpt>
      <trkpt lat="45.80136" lon="6.7398">
        <ele>1802</ele>
        <time>2026-08-14T07:52:44.540Z</time>
      </trkpt>
      <trkpt lat="45.80137" lon="6.73981">
        <ele>1802</ele>
        <time>2026-08-14T07:52:45.540Z</time>
      </trkpt>
      <trkpt lat="45.80137" lon="6.73983">
        <ele>1802</ele>
        <time>2026-08-14T07:52:46.540Z</time>
      </trkpt>
      <trkpt lat="45.80137" lon="6.73986">
        <ele>1802</ele>
        <time>2026-08-14T07:52:47.540Z</time>
      </trkpt>
      <trkpt lat="45.80137" lon="6.73987">
        <ele>1802</ele>
        <time>2026-08-14T07:52:48.540Z</time>
      </trkpt>
      <trkpt lat="45.80138" lon="6.73988">
        <ele>1802</ele>
        <time>2026-08-14T07:52:49.540Z</time>
      </trkpt>
      <trkpt lat="45.80139" lon="6.7399">
        <ele>1802</ele>
        <time>2026-08-14T07:52:50.540Z</time>
      </trkpt>
      <trkpt lat="45.80139" lon="6.73991">
        <ele>1803</ele>
        <time>2026-08-14T07:52:51.540Z</time>
      </trkpt>
      <trkpt lat="45.8014" lon="6.73993">
        <ele>1803</ele>
        <time>2026-08-14T07:52:52.540Z</time>
      </trkpt>
      <trkpt lat="45.8014" lon="6.73994">
        <ele>1803</ele>
        <time>2026-08-14T07:52:53.540Z</time>
      </trkpt>
      <trkpt lat="45.8014" lon="6.73995">
        <ele>1803</ele>
        <time>2026-08-14T07:52:54.540Z</time>
      </trkpt>
      <trkpt lat="45.80141" lon="6.73997">
        <ele>1804</ele>
        <time>2026-08-14T07:52:55.540Z</time>
      </trkpt>
      <trkpt lat="45.80141" lon="6.73998">
        <ele>1804</ele>
        <time>2026-08-14T07:52:56.540Z</time>
      </trkpt>
      <trkpt lat="45.80143" lon="6.73999">
        <ele>1804</ele>
        <time>2026-08-14T07:52:57.540Z</time>
      </trkpt>
      <trkpt lat="45.80143" lon="6.74001">
        <ele>1804</ele>
        <time>2026-08-14T07:52:58.540Z</time>
      </trkpt>
      <trkpt lat="45.80145" lon="6.74003">
        <ele>1804</ele>
        <time>2026-08-14T07:52:59.540Z</time>
      </trkpt>
      <trkpt lat="45.80145" lon="6.74005">
        <ele>1804</ele>
        <time>2026-08-14T07:53:00.540Z</time>
      </trkpt>
      <trkpt lat="45.80146" lon="6.74007">
        <ele>1804</ele>
        <time>2026-08-14T07:53:01.540Z</time>
      </trkpt>
      <trkpt lat="45.80147" lon="6.74008">
        <ele>1805</ele>
        <time>2026-08-14T07:53:02.540Z</time>
      </trkpt>
      <trkpt lat="45.80148" lon="6.74009">
        <ele>1805</ele>
        <time>2026-08-14T07:53:03.540Z</time>
      </trkpt>
      <trkpt lat="45.80148" lon="6.7401">
        <ele>1806</ele>
        <time>2026-08-14T07:53:04.540Z</time>
      </trkpt>
      <trkpt lat="45.80149" lon="6.74011">
        <ele>1806</ele>
        <time>2026-08-14T07:53:05.540Z</time>
      </trkpt>
      <trkpt lat="45.8015" lon="6.74012">
        <ele>1807</ele>
        <time>2026-08-14T07:53:06.540Z</time>
      </trkpt>
      <trkpt lat="45.80151" lon="6.74013">
        <ele>1807</ele>
        <time>2026-08-14T07:53:07.540Z</time>
      </trkpt>
      <trkpt lat="45.80151" lon="6.74014">
        <ele>1807</ele>
        <time>2026-08-14T07:53:08.540Z</time>
      </trkpt>
      <trkpt lat="45.80152" lon="6.74015">
        <ele>1808</ele>
        <time>2026-08-14T07:53:09.540Z</time>
      </trkpt>
      <trkpt lat="45.80153" lon="6.74016">
        <ele>1808</ele>
        <time>2026-08-14T07:53:10.540Z</time>
      </trkpt>
      <trkpt lat="45.80154" lon="6.74017">
        <ele>1809</ele>
        <time>2026-08-14T07:53:11.540Z</time>
      </trkpt>
      <trkpt lat="45.80155" lon="6.74019">
        <ele>1809</ele>
        <time>2026-08-14T07:53:12.540Z</time>
      </trkpt>
      <trkpt lat="45.80155" lon="6.7402">
        <ele>1809</ele>
        <time>2026-08-14T07:53:13.540Z</time>
      </trkpt>
      <trkpt lat="45.80156" lon="6.7402">
        <ele>1809</ele>
        <time>2026-08-14T07:53:14.540Z</time>
      </trkpt>
      <trkpt lat="45.80157" lon="6.74021">
        <ele>1810</ele>
        <time>2026-08-14T07:53:15.540Z</time>
      </trkpt>
      <trkpt lat="45.80158" lon="6.74022">
        <ele>1810</ele>
        <time>2026-08-14T07:53:16.540Z</time>
      </trkpt>
      <trkpt lat="45.80158" lon="6.74023">
        <ele>1810</ele>
        <time>2026-08-14T07:53:17.540Z</time>
      </trkpt>
      <trkpt lat="45.80158" lon="6.74025">
        <ele>1811</ele>
        <time>2026-08-14T07:53:18.540Z</time>
      </trkpt>
      <trkpt lat="45.80158" lon="6.74026">
        <ele>1811</ele>
        <time>2026-08-14T07:53:19.540Z</time>
      </trkpt>
      <trkpt lat="45.80157" lon="6.74026">
        <ele>1811</ele>
        <time>2026-08-14T07:53:20.540Z</time>
      </trkpt>
      <trkpt lat="45.80156" lon="6.74025">
        <ele>1811</ele>
        <time>2026-08-14T07:53:21.540Z</time>
      </trkpt>
      <trkpt lat="45.80154" lon="6.74025">
        <ele>1812</ele>
        <time>2026-08-14T07:53:22.540Z</time>
      </trkpt>
      <trkpt lat="45.80152" lon="6.74024">
        <ele>1812</ele>
        <time>2026-08-14T07:53:23.540Z</time>
      </trkpt>
      <trkpt lat="45.80151" lon="6.74024">
        <ele>1812</ele>
        <time>2026-08-14T07:53:24.540Z</time>
      </trkpt>
      <trkpt lat="45.8015" lon="6.74024">
        <ele>1812</ele>
        <time>2026-08-14T07:53:25.540Z</time>
      </trkpt>
      <trkpt lat="45.80149" lon="6.74023">
        <ele>1813</ele>
        <time>2026-08-14T07:53:26.540Z</time>
      </trkpt>
      <trkpt lat="45.80148" lon="6.74022">
        <ele>1813</ele>
        <time>2026-08-14T07:53:27.540Z</time>
      </trkpt>
      <trkpt lat="45.80147" lon="6.74021">
        <ele>1813</ele>
        <time>2026-08-14T07:53:28.540Z</time>
      </trkpt>
      <trkpt lat="45.80146" lon="6.7402">
        <ele>1813</ele>
        <time>2026-08-14T07:53:29.540Z</time>
      </trkpt>
      <trkpt lat="45.80145" lon="6.7402">
        <ele>1814</ele>
        <time>2026-08-14T07:53:30.540Z</time>
      </trkpt>
      <trkpt lat="45.80144" lon="6.7402">
        <ele>1814</ele>
        <time>2026-08-14T07:53:31.540Z</time>
      </trkpt>
      <trkpt lat="45.80143" lon="6.74021">
        <ele>1814</ele>
        <time>2026-08-14T07:53:32.540Z</time>
      </trkpt>
      <trkpt lat="45.80142" lon="6.74021">
        <ele>1814</ele>
        <time>2026-08-14T07:53:33.540Z</time>
      </trkpt>
      <trkpt lat="45.80142" lon="6.74021">
        <ele>1814</ele>
        <time>2026-08-14T07:53:34.540Z</time>
      </trkpt>
      <trkpt lat="45.8014" lon="6.74021">
        <ele>1814</ele>
        <time>2026-08-14T07:53:35.540Z</time>
      </trkpt>
      <trkpt lat="45.80139" lon="6.7402">
        <ele>1814</ele>
        <time>2026-08-14T07:53:36.540Z</time>
      </trkpt>
      <trkpt lat="45.80138" lon="6.7402">
        <ele>1814</ele>
        <time>2026-08-14T07:53:37.540Z</time>
      </trkpt>
      <trkpt lat="45.80137" lon="6.74019">
        <ele>1814</ele>
        <time>2026-08-14T07:53:38.540Z</time>
      </trkpt>
      <trkpt lat="45.80137" lon="6.74019">
        <ele>1814</ele>
        <time>2026-08-14T07:53:39.540Z</time>
      </trkpt>
      <trkpt lat="45.80136" lon="6.74019">
        <ele>1814</ele>
        <time>2026-08-14T07:53:40.540Z</time>
      </trkpt>
      <trkpt lat="45.80135" lon="6.74019">
        <ele>1814</ele>
        <time>2026-08-14T07:53:41.540Z</time>
      </trkpt>
      <trkpt lat="45.80134" lon="6.74019">
        <ele>1814</ele>
        <time>2026-08-14T07:53:42.540Z</time>
      </trkpt>
      <trkpt lat="45.80133" lon="6.74018">
        <ele>1814</ele>
        <time>2026-08-14T07:53:43.540Z</time>
      </trkpt>
      <trkpt lat="45.80132" lon="6.74017">
        <ele>1815</ele>
        <time>2026-08-14T07:53:44.540Z</time>
      </trkpt>
      <trkpt lat="45.80131" lon="6.74017">
        <ele>1815</ele>
        <time>2026-08-14T07:53:45.540Z</time>
      </trkpt>
      <trkpt lat="45.80129" lon="6.74016">
        <ele>1815</ele>
        <time>2026-08-14T07:53:46.540Z</time>
      </trkpt>
      <trkpt lat="45.80128" lon="6.74015">
        <ele>1814</ele>
        <time>2026-08-14T07:53:47.540Z</time>
      </trkpt>
      <trkpt lat="45.80127" lon="6.74014">
        <ele>1814</ele>
        <time>2026-08-14T07:53:48.540Z</time>
      </trkpt>
      <trkpt lat="45.80127" lon="6.74013">
        <ele>1814</ele>
        <time>2026-08-14T07:53:49.540Z</time>
      </trkpt>
      <trkpt lat="45.80126" lon="6.74012">
        <ele>1814</ele>
        <time>2026-08-14T07:53:50.540Z</time>
      </trkpt>
      <trkpt lat="45.80126" lon="6.74012">
        <ele>1814</ele>
        <time>2026-08-14T07:53:51.540Z</time>
      </trkpt>
      <trkpt lat="45.80124" lon="6.74011">
        <ele>1815</ele>
        <time>2026-08-14T07:53:52.540Z</time>
      </trkpt>
      <trkpt lat="45.80123" lon="6.7401">
        <ele>1815</ele>
        <time>2026-08-14T07:53:53.540Z</time>
      </trkpt>
      <trkpt lat="45.80121" lon="6.74009">
        <ele>1815</ele>
        <time>2026-08-14T07:53:54.540Z</time>
      </trkpt>
      <trkpt lat="45.8012" lon="6.74008">
        <ele>1815</ele>
        <time>2026-08-14T07:53:55.540Z</time>
      </trkpt>
      <trkpt lat="45.80118" lon="6.74007">
        <ele>1815</ele>
        <time>2026-08-14T07:53:56.540Z</time>
      </trkpt>
      <trkpt lat="45.80117" lon="6.74007">
        <ele>1816</ele>
        <time>2026-08-14T07:53:57.540Z</time>
      </trkpt>
      <trkpt lat="45.80115" lon="6.74007">
        <ele>1816</ele>
        <time>2026-08-14T07:53:58.540Z</time>
      </trkpt>
      <trkpt lat="45.80114" lon="6.74007">
        <ele>1816</ele>
        <time>2026-08-14T07:53:59.540Z</time>
      </trkpt>
      <trkpt lat="45.80113" lon="6.74007">
        <ele>1816</ele>
        <time>2026-08-14T07:54:00.540Z</time>
      </trkpt>
      <trkpt lat="45.80112" lon="6.74008">
        <ele>1817</ele>
        <time>2026-08-14T07:54:01.540Z</time>
      </trkpt>
      <trkpt lat="45.8011" lon="6.74008">
        <ele>1817</ele>
        <time>2026-08-14T07:54:02.540Z</time>
      </trkpt>
      <trkpt lat="45.80109" lon="6.74007">
        <ele>1818</ele>
        <time>2026-08-14T07:54:03.540Z</time>
      </trkpt>
      <trkpt lat="45.80108" lon="6.74008">
        <ele>1818</ele>
        <time>2026-08-14T07:54:04.540Z</time>
      </trkpt>
      <trkpt lat="45.80107" lon="6.74008">
        <ele>1818</ele>
        <time>2026-08-14T07:54:05.540Z</time>
      </trkpt>
      <trkpt lat="45.80105" lon="6.74008">
        <ele>1819</ele>
        <time>2026-08-14T07:54:06.540Z</time>
      </trkpt>
      <trkpt lat="45.80104" lon="6.74007">
        <ele>1819</ele>
        <time>2026-08-14T07:54:07.540Z</time>
      </trkpt>
      <trkpt lat="45.80102" lon="6.74007">
        <ele>1819</ele>
        <time>2026-08-14T07:54:08.540Z</time>
      </trkpt>
      <trkpt lat="45.80102" lon="6.74007">
        <ele>1820</ele>
        <time>2026-08-14T07:54:09.540Z</time>
      </trkpt>
      <trkpt lat="45.801" lon="6.74006">
        <ele>1821</ele>
        <time>2026-08-14T07:54:10.540Z</time>
      </trkpt>
      <trkpt lat="45.801" lon="6.74006">
        <ele>1821</ele>
        <time>2026-08-14T07:54:11.540Z</time>
      </trkpt>
      <trkpt lat="45.80099" lon="6.74006">
        <ele>1821</ele>
        <time>2026-08-14T07:54:12.540Z</time>
      </trkpt>
      <trkpt lat="45.80098" lon="6.74006">
        <ele>1821</ele>
        <time>2026-08-14T07:54:13.540Z</time>
      </trkpt>
      <trkpt lat="45.80096" lon="6.74006">
        <ele>1821</ele>
        <time>2026-08-14T07:54:14.540Z</time>
      </trkpt>
      <trkpt lat="45.80094" lon="6.74005">
        <ele>1821</ele>
        <time>2026-08-14T07:54:15.540Z</time>
      </trkpt>
      <trkpt lat="45.80093" lon="6.74005">
        <ele>1821</ele>
        <time>2026-08-14T07:54:16.540Z</time>
      </trkpt>
      <trkpt lat="45.80092" lon="6.74004">
        <ele>1822</ele>
        <time>2026-08-14T07:54:17.540Z</time>
      </trkpt>
      <trkpt lat="45.80091" lon="6.74004">
        <ele>1822</ele>
        <time>2026-08-14T07:54:18.540Z</time>
      </trkpt>
      <trkpt lat="45.8009" lon="6.74004">
        <ele>1822</ele>
        <time>2026-08-14T07:54:19.540Z</time>
      </trkpt>
      <trkpt lat="45.80089" lon="6.74003">
        <ele>1823</ele>
        <time>2026-08-14T07:54:20.540Z</time>
      </trkpt>
      <trkpt lat="45.80087" lon="6.74003">
        <ele>1823</ele>
        <time>2026-08-14T07:54:21.540Z</time>
      </trkpt>
      <trkpt lat="45.80086" lon="6.74002">
        <ele>1824</ele>
        <time>2026-08-14T07:54:22.540Z</time>
      </trkpt>
      <trkpt lat="45.80085" lon="6.74001">
        <ele>1824</ele>
        <time>2026-08-14T07:54:23.540Z</time>
      </trkpt>
      <trkpt lat="45.80084" lon="6.74001">
        <ele>1825</ele>
        <time>2026-08-14T07:54:24.540Z</time>
      </trkpt>
      <trkpt lat="45.80083" lon="6.74001">
        <ele>1825</ele>
        <time>2026-08-14T07:54:25.540Z</time>
      </trkpt>
      <trkpt lat="45.80082" lon="6.74001">
        <ele>1825</ele>
        <time>2026-08-14T07:54:26.540Z</time>
      </trkpt>
      <trkpt lat="45.80081" lon="6.74001">
        <ele>1826</ele>
        <time>2026-08-14T07:54:27.540Z</time>
      </trkpt>
      <trkpt lat="45.8008" lon="6.74001">
        <ele>1826</ele>
        <time>2026-08-14T07:54:28.540Z</time>
      </trkpt>
      <trkpt lat="45.80079" lon="6.74001">
        <ele>1825</ele>
        <time>2026-08-14T07:54:29.540Z</time>
      </trkpt>
      <trkpt lat="45.80078" lon="6.74001">
        <ele>1825</ele>
        <time>2026-08-14T07:54:30.540Z</time>
      </trkpt>
      <trkpt lat="45.80077" lon="6.74">
        <ele>1825</ele>
        <time>2026-08-14T07:54:31.540Z</time>
      </trkpt>
      <trkpt lat="45.80075" lon="6.74">
        <ele>1825</ele>
        <time>2026-08-14T07:54:32.540Z</time>
      </trkpt>
      <trkpt lat="45.80074" lon="6.74">
        <ele>1825</ele>
        <time>2026-08-14T07:54:33.540Z</time>
      </trkpt>
      <trkpt lat="45.80073" lon="6.74">
        <ele>1826</ele>
        <time>2026-08-14T07:54:34.540Z</time>
      </trkpt>
      <trkpt lat="45.80072" lon="6.73998">
        <ele>1826</ele>
        <time>2026-08-14T07:54:35.540Z</time>
      </trkpt>
      <trkpt lat="45.80071" lon="6.73997">
        <ele>1826</ele>
        <time>2026-08-14T07:54:36.540Z</time>
      </trkpt>
      <trkpt lat="45.8007" lon="6.73996">
        <ele>1827</ele>
        <time>2026-08-14T07:54:37.540Z</time>
      </trkpt>
      <trkpt lat="45.80069" lon="6.73996">
        <ele>1827</ele>
        <time>2026-08-14T07:54:38.540Z</time>
      </trkpt>
      <trkpt lat="45.80068" lon="6.73995">
        <ele>1827</ele>
        <time>2026-08-14T07:54:39.540Z</time>
      </trkpt>
      <trkpt lat="45.80066" lon="6.73995">
        <ele>1827</ele>
        <time>2026-08-14T07:54:40.540Z</time>
      </trkpt>
      <trkpt lat="45.80065" lon="6.73995">
        <ele>1828</ele>
        <time>2026-08-14T07:54:41.540Z</time>
      </trkpt>
      <trkpt lat="45.80064" lon="6.73994">
        <ele>1828</ele>
        <time>2026-08-14T07:54:42.540Z</time>
      </trkpt>
      <trkpt lat="45.80063" lon="6.73993">
        <ele>1828</ele>
        <time>2026-08-14T07:54:43.540Z</time>
      </trkpt>
      <trkpt lat="45.80062" lon="6.73993">
        <ele>1828</ele>
        <time>2026-08-14T07:54:44.540Z</time>
      </trkpt>
      <trkpt lat="45.80061" lon="6.73991">
        <ele>1829</ele>
        <time>2026-08-14T07:54:45.540Z</time>
      </trkpt>
      <trkpt lat="45.8006" lon="6.73991">
        <ele>1829</ele>
        <time>2026-08-14T07:54:46.540Z</time>
      </trkpt>
      <trkpt lat="45.80059" lon="6.7399">
        <ele>1829</ele>
        <time>2026-08-14T07:54:47.540Z</time>
      </trkpt>
      <trkpt lat="45.80057" lon="6.73989">
        <ele>1830</ele>
        <time>2026-08-14T07:54:48.540Z</time>
      </trkpt>
      <trkpt lat="45.80056" lon="6.73988">
        <ele>1830</ele>
        <time>2026-08-14T07:54:49.540Z</time>
      </trkpt>
      <trkpt lat="45.80055" lon="6.73987">
        <ele>1830</ele>
        <time>2026-08-14T07:54:50.540Z</time>
      </trkpt>
      <trkpt lat="45.80054" lon="6.73986">
        <ele>1831</ele>
        <time>2026-08-14T07:54:51.540Z</time>
      </trkpt>
      <trkpt lat="45.80054" lon="6.73986">
        <ele>1831</ele>
        <time>2026-08-14T07:54:52.540Z</time>
      </trkpt>
      <trkpt lat="45.80053" lon="6.73985">
        <ele>1831</ele>
        <time>2026-08-14T07:54:53.540Z</time>
      </trkpt>
      <trkpt lat="45.80052" lon="6.73984">
        <ele>1832</ele>
        <time>2026-08-14T07:54:54.540Z</time>
      </trkpt>
      <trkpt lat="45.80051" lon="6.73983">
        <ele>1832</ele>
        <time>2026-08-14T07:54:55.540Z</time>
      </trkpt>
      <trkpt lat="45.8005" lon="6.73982">
        <ele>1832</ele>
        <time>2026-08-14T07:54:56.540Z</time>
      </trkpt>
      <trkpt lat="45.8005" lon="6.73981">
        <ele>1832</ele>
        <time>2026-08-14T07:54:57.540Z</time>
      </trkpt>
      <trkpt lat="45.80048" lon="6.7398">
        <ele>1833</ele>
        <time>2026-08-14T07:54:58.540Z</time>
      </trkpt>
      <trkpt lat="45.80047" lon="6.73978">
        <ele>1832</ele>
        <time>2026-08-14T07:54:59.540Z</time>
      </trkpt>
      <trkpt lat="45.80047" lon="6.73977">
        <ele>1832</ele>
        <time>2026-08-14T07:55:00.540Z</time>
      </trkpt>
      <trkpt lat="45.80046" lon="6.73976">
        <ele>1833</ele>
        <time>2026-08-14T07:55:01.540Z</time>
      </trkpt>
      <trkpt lat="45.80045" lon="6.73974">
        <ele>1833</ele>
        <time>2026-08-14T07:55:02.540Z</time>
      </trkpt>
      <trkpt lat="45.80045" lon="6.73973">
        <ele>1833</ele>
        <time>2026-08-14T07:55:03.540Z</time>
      </trkpt>
      <trkpt lat="45.80045" lon="6.7397">
        <ele>1833</ele>
        <time>2026-08-14T07:55:04.540Z</time>
      </trkpt>
      <trkpt lat="45.80046" lon="6.73968">
        <ele>1833</ele>
        <time>2026-08-14T07:55:05.540Z</time>
      </trkpt>
      <trkpt lat="45.80046" lon="6.73965">
        <ele>1833</ele>
        <time>2026-08-14T07:55:06.540Z</time>
      </trkpt>
      <trkpt lat="45.80046" lon="6.73962">
        <ele>1832</ele>
        <time>2026-08-14T07:55:07.540Z</time>
      </trkpt>
      <trkpt lat="45.80046" lon="6.73959">
        <ele>1832</ele>
        <time>2026-08-14T07:55:08.540Z</time>
      </trkpt>
      <trkpt lat="45.80046" lon="6.73956">
        <ele>1832</ele>
        <time>2026-08-14T07:55:09.540Z</time>
      </trkpt>
      <trkpt lat="45.80046" lon="6.73954">
        <ele>1832</ele>
        <time>2026-08-14T07:55:10.540Z</time>
      </trkpt>
      <trkpt lat="45.80046" lon="6.73952">
        <ele>1832</ele>
        <time>2026-08-14T07:55:11.540Z</time>
      </trkpt>
      <trkpt lat="45.80047" lon="6.7395">
        <ele>1832</ele>
        <time>2026-08-14T07:55:12.540Z</time>
      </trkpt>
      <trkpt lat="45.80047" lon="6.73948">
        <ele>1832</ele>
        <time>2026-08-14T07:55:13.540Z</time>
      </trkpt>
      <trkpt lat="45.80047" lon="6.73946">
        <ele>1833</ele>
        <time>2026-08-14T07:55:14.540Z</time>
      </trkpt>
      <trkpt lat="45.80046" lon="6.73945">
        <ele>1833</ele>
        <time>2026-08-14T07:55:15.540Z</time>
      </trkpt>
      <trkpt lat="45.80046" lon="6.73943">
        <ele>1833</ele>
        <time>2026-08-14T07:55:16.540Z</time>
      </trkpt>
      <trkpt lat="45.80045" lon="6.73941">
        <ele>1833</ele>
        <time>2026-08-14T07:55:17.540Z</time>
      </trkpt>
      <trkpt lat="45.80044" lon="6.73939">
        <ele>1834</ele>
        <time>2026-08-14T07:55:18.540Z</time>
      </trkpt>
      <trkpt lat="45.80043" lon="6.73937">
        <ele>1834</ele>
        <time>2026-08-14T07:55:19.540Z</time>
      </trkpt>
      <trkpt lat="45.80043" lon="6.73934">
        <ele>1834</ele>
        <time>2026-08-14T07:55:20.540Z</time>
      </trkpt>
      <trkpt lat="45.80042" lon="6.73932">
        <ele>1833</ele>
        <time>2026-08-14T07:55:21.540Z</time>
      </trkpt>
      <trkpt lat="45.80041" lon="6.73929">
        <ele>1833</ele>
        <time>2026-08-14T07:55:22.540Z</time>
      </trkpt>
      <trkpt lat="45.80039" lon="6.73926">
        <ele>1833</ele>
        <time>2026-08-14T07:55:23.540Z</time>
      </trkpt>
      <trkpt lat="45.80039" lon="6.73923">
        <ele>1833</ele>
        <time>2026-08-14T07:55:24.540Z</time>
      </trkpt>
      <trkpt lat="45.80039" lon="6.73921">
        <ele>1833</ele>
        <time>2026-08-14T07:55:25.540Z</time>
      </trkpt>
      <trkpt lat="45.80039" lon="6.73919">
        <ele>1833</ele>
        <time>2026-08-14T07:55:26.540Z</time>
      </trkpt>
      <trkpt lat="45.80039" lon="6.73916">
        <ele>1833</ele>
        <time>2026-08-14T07:55:27.540Z</time>
      </trkpt>
      <trkpt lat="45.80039" lon="6.73914">
        <ele>1832</ele>
        <time>2026-08-14T07:55:28.540Z</time>
      </trkpt>
      <trkpt lat="45.80038" lon="6.73912">
        <ele>1832</ele>
        <time>2026-08-14T07:55:29.540Z</time>
      </trkpt>
      <trkpt lat="45.80038" lon="6.7391">
        <ele>1832</ele>
        <time>2026-08-14T07:55:30.540Z</time>
      </trkpt>
      <trkpt lat="45.80038" lon="6.73907">
        <ele>1833</ele>
        <time>2026-08-14T07:55:31.540Z</time>
      </trkpt>
      <trkpt lat="45.80037" lon="6.73905">
        <ele>1833</ele>
        <time>2026-08-14T07:55:32.540Z</time>
      </trkpt>
      <trkpt lat="45.80035" lon="6.73903">
        <ele>1833</ele>
        <time>2026-08-14T07:55:33.540Z</time>
      </trkpt>
      <trkpt lat="45.80034" lon="6.73901">
        <ele>1833</ele>
        <time>2026-08-14T07:55:34.540Z</time>
      </trkpt>
      <trkpt lat="45.80033" lon="6.73899">
        <ele>1834</ele>
        <time>2026-08-14T07:55:35.540Z</time>
      </trkpt>
      <trkpt lat="45.80033" lon="6.73896">
        <ele>1834</ele>
        <time>2026-08-14T07:55:36.540Z</time>
      </trkpt>
      <trkpt lat="45.80032" lon="6.73894">
        <ele>1834</ele>
        <time>2026-08-14T07:55:37.540Z</time>
      </trkpt>
      <trkpt lat="45.80031" lon="6.73892">
        <ele>1835</ele>
        <time>2026-08-14T07:55:38.540Z</time>
      </trkpt>
      <trkpt lat="45.8003" lon="6.7389">
        <ele>1835</ele>
        <time>2026-08-14T07:55:39.540Z</time>
      </trkpt>
      <trkpt lat="45.80029" lon="6.73887">
        <ele>1835</ele>
        <time>2026-08-14T07:55:40.540Z</time>
      </trkpt>
      <trkpt lat="45.80029" lon="6.73884">
        <ele>1836</ele>
        <time>2026-08-14T07:55:41.540Z</time>
      </trkpt>
      <trkpt lat="45.80029" lon="6.7388">
        <ele>1836</ele>
        <time>2026-08-14T07:55:42.540Z</time>
      </trkpt>
      <trkpt lat="45.80029" lon="6.73877">
        <ele>1837</ele>
        <time>2026-08-14T07:55:43.540Z</time>
      </trkpt>
      <trkpt lat="45.80029" lon="6.73874">
        <ele>1837</ele>
        <time>2026-08-14T07:55:44.540Z</time>
      </trkpt>
      <trkpt lat="45.80028" lon="6.73871">
        <ele>1837</ele>
        <time>2026-08-14T07:55:45.540Z</time>
      </trkpt>
      <trkpt lat="45.80027" lon="6.73868">
        <ele>1837</ele>
        <time>2026-08-14T07:55:46.540Z</time>
      </trkpt>
      <trkpt lat="45.80027" lon="6.73865">
        <ele>1838</ele>
        <time>2026-08-14T07:55:47.540Z</time>
      </trkpt>
      <trkpt lat="45.80026" lon="6.73863">
        <ele>1838</ele>
        <time>2026-08-14T07:55:48.540Z</time>
      </trkpt>
      <trkpt lat="45.80025" lon="6.7386">
        <ele>1838</ele>
        <time>2026-08-14T07:55:49.540Z</time>
      </trkpt>
      <trkpt lat="45.80024" lon="6.73857">
        <ele>1838</ele>
        <time>2026-08-14T07:55:50.540Z</time>
      </trkpt>
      <trkpt lat="45.80022" lon="6.73854">
        <ele>1838</ele>
        <time>2026-08-14T07:55:51.540Z</time>
      </trkpt>
      <trkpt lat="45.80021" lon="6.73851">
        <ele>1838</ele>
        <time>2026-08-14T07:55:52.540Z</time>
      </trkpt>
      <trkpt lat="45.8002" lon="6.73848">
        <ele>1838</ele>
        <time>2026-08-14T07:55:53.540Z</time>
      </trkpt>
      <trkpt lat="45.80019" lon="6.73846">
        <ele>1838</ele>
        <time>2026-08-14T07:55:54.540Z</time>
      </trkpt>
      <trkpt lat="45.80019" lon="6.73844">
        <ele>1838</ele>
        <time>2026-08-14T07:55:55.540Z</time>
      </trkpt>
      <trkpt lat="45.80018" lon="6.73843">
        <ele>1838</ele>
        <time>2026-08-14T07:55:56.540Z</time>
      </trkpt>
      <trkpt lat="45.80018" lon="6.7384">
        <ele>1838</ele>
        <time>2026-08-14T07:55:57.540Z</time>
      </trkpt>
      <trkpt lat="45.80017" lon="6.73838">
        <ele>1837</ele>
        <time>2026-08-14T07:55:58.540Z</time>
      </trkpt>
      <trkpt lat="45.80016" lon="6.73836">
        <ele>1837</ele>
        <time>2026-08-14T07:55:59.540Z</time>
      </trkpt>
      <trkpt lat="45.80016" lon="6.73833">
        <ele>1837</ele>
        <time>2026-08-14T07:56:00.540Z</time>
      </trkpt>
      <trkpt lat="45.80015" lon="6.7383">
        <ele>1837</ele>
        <time>2026-08-14T07:56:01.540Z</time>
      </trkpt>
      <trkpt lat="45.80015" lon="6.73828">
        <ele>1837</ele>
        <time>2026-08-14T07:56:02.540Z</time>
      </trkpt>
      <trkpt lat="45.80016" lon="6.73826">
        <ele>1837</ele>
        <time>2026-08-14T07:56:03.540Z</time>
      </trkpt>
      <trkpt lat="45.80015" lon="6.73823">
        <ele>1837</ele>
        <time>2026-08-14T07:56:04.540Z</time>
      </trkpt>
      <trkpt lat="45.80015" lon="6.73822">
        <ele>1837</ele>
        <time>2026-08-14T07:56:05.540Z</time>
      </trkpt>
      <trkpt lat="45.80014" lon="6.7382">
        <ele>1837</ele>
        <time>2026-08-14T07:56:06.540Z</time>
      </trkpt>
      <trkpt lat="45.80012" lon="6.73819">
        <ele>1837</ele>
        <time>2026-08-14T07:56:07.540Z</time>
      </trkpt>
      <trkpt lat="45.80011" lon="6.73818">
        <ele>1837</ele>
        <time>2026-08-14T07:56:08.540Z</time>
      </trkpt>
      <trkpt lat="45.8001" lon="6.73817">
        <ele>1837</ele>
        <time>2026-08-14T07:56:09.540Z</time>
      </trkpt>
      <trkpt lat="45.80008" lon="6.73816">
        <ele>1837</ele>
        <time>2026-08-14T07:56:10.540Z</time>
      </trkpt>
      <trkpt lat="45.80006" lon="6.73816">
        <ele>1837</ele>
        <time>2026-08-14T07:56:11.540Z</time>
      </trkpt>
      <trkpt lat="45.80004" lon="6.73815">
        <ele>1837</ele>
        <time>2026-08-14T07:56:12.540Z</time>
      </trkpt>
      <trkpt lat="45.80003" lon="6.73815">
        <ele>1837</ele>
        <time>2026-08-14T07:56:13.540Z</time>
      </trkpt>
      <trkpt lat="45.80003" lon="6.73815">
        <ele>1837</ele>
        <time>2026-08-14T07:56:14.540Z</time>
      </trkpt>
      <trkpt lat="45.80001" lon="6.73814">
        <ele>1837</ele>
        <time>2026-08-14T07:56:15.540Z</time>
      </trkpt>
      <trkpt lat="45.8" lon="6.73812">
        <ele>1837</ele>
        <time>2026-08-14T07:56:16.540Z</time>
      </trkpt>
      <trkpt lat="45.79999" lon="6.73812">
        <ele>1838</ele>
        <time>2026-08-14T07:56:17.540Z</time>
      </trkpt>
      <trkpt lat="45.79998" lon="6.73811">
        <ele>1838</ele>
        <time>2026-08-14T07:56:18.540Z</time>
      </trkpt>
      <trkpt lat="45.79996" lon="6.73811">
        <ele>1838</ele>
        <time>2026-08-14T07:56:19.540Z</time>
      </trkpt>
      <trkpt lat="45.79994" lon="6.7381">
        <ele>1838</ele>
        <time>2026-08-14T07:56:20.540Z</time>
      </trkpt>
      <trkpt lat="45.79993" lon="6.7381">
        <ele>1839</ele>
        <time>2026-08-14T07:56:21.540Z</time>
      </trkpt>
      <trkpt lat="45.79992" lon="6.7381">
        <ele>1839</ele>
        <time>2026-08-14T07:56:22.540Z</time>
      </trkpt>
      <trkpt lat="45.79991" lon="6.7381">
        <ele>1839</ele>
        <time>2026-08-14T07:56:23.540Z</time>
      </trkpt>
      <trkpt lat="45.79989" lon="6.7381">
        <ele>1839</ele>
        <time>2026-08-14T07:56:24.540Z</time>
      </trkpt>
      <trkpt lat="45.79987" lon="6.73809">
        <ele>1840</ele>
        <time>2026-08-14T07:56:25.540Z</time>
      </trkpt>
      <trkpt lat="45.79986" lon="6.73809">
        <ele>1840</ele>
        <time>2026-08-14T07:56:26.540Z</time>
      </trkpt>
      <trkpt lat="45.79984" lon="6.73809">
        <ele>1840</ele>
        <time>2026-08-14T07:56:27.540Z</time>
      </trkpt>
      <trkpt lat="45.79983" lon="6.73809">
        <ele>1841</ele>
        <time>2026-08-14T07:56:28.540Z</time>
      </trkpt>
      <trkpt lat="45.79982" lon="6.73809">
        <ele>1841</ele>
        <time>2026-08-14T07:56:29.540Z</time>
      </trkpt>
      <trkpt lat="45.79981" lon="6.73809">
        <ele>1841</ele>
        <time>2026-08-14T07:56:30.540Z</time>
      </trkpt>
      <trkpt lat="45.7998" lon="6.73809">
        <ele>1842</ele>
        <time>2026-08-14T07:56:31.540Z</time>
      </trkpt>
      <trkpt lat="45.79979" lon="6.73809">
        <ele>1842</ele>
        <time>2026-08-14T07:56:32.540Z</time>
      </trkpt>
      <trkpt lat="45.79977" lon="6.73809">
        <ele>1842</ele>
        <time>2026-08-14T07:56:33.540Z</time>
      </trkpt>
      <trkpt lat="45.79976" lon="6.73809">
        <ele>1843</ele>
        <time>2026-08-14T07:56:34.540Z</time>
      </trkpt>
      <trkpt lat="45.79975" lon="6.73809">
        <ele>1843</ele>
        <time>2026-08-14T07:56:35.540Z</time>
      </trkpt>
      <trkpt lat="45.79973" lon="6.7381">
        <ele>1843</ele>
        <time>2026-08-14T07:56:36.540Z</time>
      </trkpt>
      <trkpt lat="45.79971" lon="6.7381">
        <ele>1843</ele>
        <time>2026-08-14T07:56:37.540Z</time>
      </trkpt>
      <trkpt lat="45.7997" lon="6.73811">
        <ele>1843</ele>
        <time>2026-08-14T07:56:38.540Z</time>
      </trkpt>
      <trkpt lat="45.79969" lon="6.73812">
        <ele>1843</ele>
        <time>2026-08-14T07:56:39.540Z</time>
      </trkpt>
      <trkpt lat="45.79968" lon="6.73813">
        <ele>1843</ele>
        <time>2026-08-14T07:56:40.540Z</time>
      </trkpt>
      <trkpt lat="45.79967" lon="6.73813">
        <ele>1844</ele>
        <time>2026-08-14T07:56:41.540Z</time>
      </trkpt>
      <trkpt lat="45.79966" lon="6.73814">
        <ele>1844</ele>
        <time>2026-08-14T07:56:42.540Z</time>
      </trkpt>
      <trkpt lat="45.79964" lon="6.73814">
        <ele>1844</ele>
        <time>2026-08-14T07:56:43.540Z</time>
      </trkpt>
      <trkpt lat="45.79963" lon="6.73815">
        <ele>1845</ele>
        <time>2026-08-14T07:56:44.540Z</time>
      </trkpt>
      <trkpt lat="45.79961" lon="6.73815">
        <ele>1845</ele>
        <time>2026-08-14T07:56:45.540Z</time>
      </trkpt>
      <trkpt lat="45.79959" lon="6.73815">
        <ele>1845</ele>
        <time>2026-08-14T07:56:46.540Z</time>
      </trkpt>
      <trkpt lat="45.79958" lon="6.73816">
        <ele>1845</ele>
        <time>2026-08-14T07:56:47.540Z</time>
      </trkpt>
      <trkpt lat="45.79957" lon="6.73816">
        <ele>1845</ele>
        <time>2026-08-14T07:56:48.540Z</time>
      </trkpt>
      <trkpt lat="45.79955" lon="6.73817">
        <ele>1845</ele>
        <time>2026-08-14T07:56:49.540Z</time>
      </trkpt>
      <trkpt lat="45.79954" lon="6.73818">
        <ele>1845</ele>
        <time>2026-08-14T07:56:50.540Z</time>
      </trkpt>
      <trkpt lat="45.79952" lon="6.73818">
        <ele>1845</ele>
        <time>2026-08-14T07:56:51.540Z</time>
      </trkpt>
      <trkpt lat="45.79951" lon="6.73818">
        <ele>1846</ele>
        <time>2026-08-14T07:56:52.540Z</time>
      </trkpt>
      <trkpt lat="45.7995" lon="6.73818">
        <ele>1846</ele>
        <time>2026-08-14T07:56:53.540Z</time>
      </trkpt>
      <trkpt lat="45.79949" lon="6.73818">
        <ele>1846</ele>
        <time>2026-08-14T07:56:54.540Z</time>
      </trkpt>
      <trkpt lat="45.79948" lon="6.73819">
        <ele>1846</ele>
        <time>2026-08-14T07:56:55.540Z</time>
      </trkpt>
      <trkpt lat="45.79947" lon="6.73818">
        <ele>1846</ele>
        <time>2026-08-14T07:56:56.540Z</time>
      </trkpt>
      <trkpt lat="45.79945" lon="6.73818">
        <ele>1846</ele>
        <time>2026-08-14T07:56:57.540Z</time>
      </trkpt>
      <trkpt lat="45.79943" lon="6.73817">
        <ele>1846</ele>
        <time>2026-08-14T07:56:58.540Z</time>
      </trkpt>
      <trkpt lat="45.79942" lon="6.73817">
        <ele>1847</ele>
        <time>2026-08-14T07:56:59.540Z</time>
      </trkpt>
      <trkpt lat="45.79941" lon="6.73817">
        <ele>1847</ele>
        <time>2026-08-14T07:57:00.540Z</time>
      </trkpt>
      <trkpt lat="45.7994" lon="6.73817">
        <ele>1847</ele>
        <time>2026-08-14T07:57:01.540Z</time>
      </trkpt>
      <trkpt lat="45.79939" lon="6.73817">
        <ele>1848</ele>
        <time>2026-08-14T07:57:02.540Z</time>
      </trkpt>
      <trkpt lat="45.79937" lon="6.73817">
        <ele>1848</ele>
        <time>2026-08-14T07:57:03.540Z</time>
      </trkpt>
      <trkpt lat="45.79936" lon="6.73818">
        <ele>1849</ele>
        <time>2026-08-14T07:57:04.540Z</time>
      </trkpt>
      <trkpt lat="45.79934" lon="6.73818">
        <ele>1849</ele>
        <time>2026-08-14T07:57:05.540Z</time>
      </trkpt>
      <trkpt lat="45.79933" lon="6.73819">
        <ele>1850</ele>
        <time>2026-08-14T07:57:06.540Z</time>
      </trkpt>
      <trkpt lat="45.79931" lon="6.73819">
        <ele>1850</ele>
        <time>2026-08-14T07:57:07.540Z</time>
      </trkpt>
      <trkpt lat="45.7993" lon="6.7382">
        <ele>1851</ele>
        <time>2026-08-14T07:57:08.540Z</time>
      </trkpt>
      <trkpt lat="45.79929" lon="6.7382">
        <ele>1851</ele>
        <time>2026-08-14T07:57:09.540Z</time>
      </trkpt>
      <trkpt lat="45.79927" lon="6.7382">
        <ele>1852</ele>
        <time>2026-08-14T07:57:10.540Z</time>
      </trkpt>
      <trkpt lat="45.79925" lon="6.7382">
        <ele>1852</ele>
        <time>2026-08-14T07:57:11.540Z</time>
      </trkpt>
      <trkpt lat="45.79923" lon="6.7382">
        <ele>1852</ele>
        <time>2026-08-14T07:57:12.540Z</time>
      </trkpt>
      <trkpt lat="45.79921" lon="6.7382">
        <ele>1852</ele>
        <time>2026-08-14T07:57:13.540Z</time>
      </trkpt>
      <trkpt lat="45.7992" lon="6.7382">
        <ele>1852</ele>
        <time>2026-08-14T07:57:14.540Z</time>
      </trkpt>
      <trkpt lat="45.79918" lon="6.7382">
        <ele>1851</ele>
        <time>2026-08-14T07:57:15.540Z</time>
      </trkpt>
      <trkpt lat="45.79916" lon="6.73819">
        <ele>1851</ele>
        <time>2026-08-14T07:57:16.540Z</time>
      </trkpt>
      <trkpt lat="45.79914" lon="6.73819">
        <ele>1851</ele>
        <time>2026-08-14T07:57:17.540Z</time>
      </trkpt>
      <trkpt lat="45.79912" lon="6.73817">
        <ele>1850</ele>
        <time>2026-08-14T07:57:18.540Z</time>
      </trkpt>
      <trkpt lat="45.7991" lon="6.73817">
        <ele>1850</ele>
        <time>2026-08-14T07:57:19.540Z</time>
      </trkpt>
      <trkpt lat="45.79908" lon="6.73817">
        <ele>1850</ele>
        <time>2026-08-14T07:57:20.540Z</time>
      </trkpt>
      <trkpt lat="45.79907" lon="6.73817">
        <ele>1850</ele>
        <time>2026-08-14T07:57:21.540Z</time>
      </trkpt>
      <trkpt lat="45.79906" lon="6.73817">
        <ele>1850</ele>
        <time>2026-08-14T07:57:22.540Z</time>
      </trkpt>
      <trkpt lat="45.79906" lon="6.73817">
        <ele>1850</ele>
        <time>2026-08-14T07:57:23.540Z</time>
      </trkpt>
      <trkpt lat="45.79905" lon="6.73817">
        <ele>1850</ele>
        <time>2026-08-14T07:57:24.540Z</time>
      </trkpt>
      <trkpt lat="45.79903" lon="6.73816">
        <ele>1850</ele>
        <time>2026-08-14T07:57:25.540Z</time>
      </trkpt>
      <trkpt lat="45.79902" lon="6.73816">
        <ele>1849</ele>
        <time>2026-08-14T07:57:26.540Z</time>
      </trkpt>
      <trkpt lat="45.799" lon="6.73816">
        <ele>1849</ele>
        <time>2026-08-14T07:57:27.540Z</time>
      </trkpt>
      <trkpt lat="45.79899" lon="6.73816">
        <ele>1849</ele>
        <time>2026-08-14T07:57:28.540Z</time>
      </trkpt>
      <trkpt lat="45.79897" lon="6.73815">
        <ele>1849</ele>
        <time>2026-08-14T07:57:29.540Z</time>
      </trkpt>
      <trkpt lat="45.79895" lon="6.73814">
        <ele>1849</ele>
        <time>2026-08-14T07:57:30.540Z</time>
      </trkpt>
      <trkpt lat="45.79894" lon="6.73814">
        <ele>1850</ele>
        <time>2026-08-14T07:57:31.540Z</time>
      </trkpt>
      <trkpt lat="45.79893" lon="6.73813">
        <ele>1850</ele>
        <time>2026-08-14T07:57:32.540Z</time>
      </trkpt>
      <trkpt lat="45.79892" lon="6.73813">
        <ele>1850</ele>
        <time>2026-08-14T07:57:33.540Z</time>
      </trkpt>
      <trkpt lat="45.7989" lon="6.73813">
        <ele>1850</ele>
        <time>2026-08-14T07:57:34.540Z</time>
      </trkpt>
      <trkpt lat="45.79889" lon="6.73813">
        <ele>1851</ele>
        <time>2026-08-14T07:57:35.540Z</time>
      </trkpt>
      <trkpt lat="45.79888" lon="6.73813">
        <ele>1851</ele>
        <time>2026-08-14T07:57:36.540Z</time>
      </trkpt>
      <trkpt lat="45.79886" lon="6.73813">
        <ele>1851</ele>
        <time>2026-08-14T07:57:37.540Z</time>
      </trkpt>
      <trkpt lat="45.79885" lon="6.73813">
        <ele>1851</ele>
        <time>2026-08-14T07:57:38.540Z</time>
      </trkpt>
      <trkpt lat="45.79884" lon="6.73813">
        <ele>1851</ele>
        <time>2026-08-14T07:57:39.540Z</time>
      </trkpt>
      <trkpt lat="45.79882" lon="6.73812">
        <ele>1851</ele>
        <time>2026-08-14T07:57:40.540Z</time>
      </trkpt>
      <trkpt lat="45.79881" lon="6.73812">
        <ele>1851</ele>
        <time>2026-08-14T07:57:41.540Z</time>
      </trkpt>
      <trkpt lat="45.79879" lon="6.73812">
        <ele>1850</ele>
        <time>2026-08-14T07:57:42.540Z</time>
      </trkpt>
      <trkpt lat="45.79878" lon="6.73812">
        <ele>1850</ele>
        <time>2026-08-14T07:57:43.540Z</time>
      </trkpt>
      <trkpt lat="45.79878" lon="6.73812">
        <ele>1850</ele>
        <time>2026-08-14T07:57:44.540Z</time>
      </trkpt>
      <trkpt lat="45.79877" lon="6.73812">
        <ele>1850</ele>
        <time>2026-08-14T07:57:45.540Z</time>
      </trkpt>
      <trkpt lat="45.79877" lon="6.73812">
        <ele>1850</ele>
        <time>2026-08-14T07:57:46.540Z</time>
      </trkpt>
      <trkpt lat="45.79876" lon="6.73812">
        <ele>1850</ele>
        <time>2026-08-14T07:57:47.540Z</time>
      </trkpt>
      <trkpt lat="45.79875" lon="6.73812">
        <ele>1850</ele>
        <time>2026-08-14T07:57:48.540Z</time>
      </trkpt>
      <trkpt lat="45.79874" lon="6.73811">
        <ele>1850</ele>
        <time>2026-08-14T07:57:49.540Z</time>
      </trkpt>
      <trkpt lat="45.79872" lon="6.73811">
        <ele>1850</ele>
        <time>2026-08-14T07:57:50.540Z</time>
      </trkpt>
      <trkpt lat="45.7987" lon="6.73811">
        <ele>1851</ele>
        <time>2026-08-14T07:57:51.540Z</time>
      </trkpt>
      <trkpt lat="45.79869" lon="6.7381">
        <ele>1851</ele>
        <time>2026-08-14T07:57:52.540Z</time>
      </trkpt>
      <trkpt lat="45.79866" lon="6.73809">
        <ele>1851</ele>
        <time>2026-08-14T07:57:53.540Z</time>
      </trkpt>
      <trkpt lat="45.79864" lon="6.73808">
        <ele>1851</ele>
        <time>2026-08-14T07:57:54.540Z</time>
      </trkpt>
      <trkpt lat="45.79862" lon="6.73807">
        <ele>1851</ele>
        <time>2026-08-14T07:57:55.540Z</time>
      </trkpt>
      <trkpt lat="45.7986" lon="6.73806">
        <ele>1852</ele>
        <time>2026-08-14T07:57:56.540Z</time>
      </trkpt>
      <trkpt lat="45.79858" lon="6.73805">
        <ele>1852</ele>
        <time>2026-08-14T07:57:57.540Z</time>
      </trkpt>
      <trkpt lat="45.79856" lon="6.73805">
        <ele>1853</ele>
        <time>2026-08-14T07:57:58.540Z</time>
      </trkpt>
      <trkpt lat="45.79855" lon="6.73804">
        <ele>1853</ele>
        <time>2026-08-14T07:57:59.540Z</time>
      </trkpt>
      <trkpt lat="45.79853" lon="6.73804">
        <ele>1853</ele>
        <time>2026-08-14T07:58:00.540Z</time>
      </trkpt>
      <trkpt lat="45.79852" lon="6.73804">
        <ele>1853</ele>
        <time>2026-08-14T07:58:01.540Z</time>
      </trkpt>
      <trkpt lat="45.79851" lon="6.73804">
        <ele>1854</ele>
        <time>2026-08-14T07:58:02.540Z</time>
      </trkpt>
      <trkpt lat="45.79849" lon="6.73804">
        <ele>1854</ele>
        <time>2026-08-14T07:58:03.540Z</time>
      </trkpt>
      <trkpt lat="45.79848" lon="6.73805">
        <ele>1854</ele>
        <time>2026-08-14T07:58:04.540Z</time>
      </trkpt>
      <trkpt lat="45.79847" lon="6.73806">
        <ele>1855</ele>
        <time>2026-08-14T07:58:05.540Z</time>
      </trkpt>
      <trkpt lat="45.79846" lon="6.73807">
        <ele>1855</ele>
        <time>2026-08-14T07:58:06.540Z</time>
      </trkpt>
      <trkpt lat="45.79845" lon="6.73807">
        <ele>1855</ele>
        <time>2026-08-14T07:58:07.540Z</time>
      </trkpt>
      <trkpt lat="45.79843" lon="6.73807">
        <ele>1856</ele>
        <time>2026-08-14T07:58:08.540Z</time>
      </trkpt>
      <trkpt lat="45.79842" lon="6.73807">
        <ele>1856</ele>
        <time>2026-08-14T07:58:09.540Z</time>
      </trkpt>
      <trkpt lat="45.7984" lon="6.73809">
        <ele>1856</ele>
        <time>2026-08-14T07:58:10.540Z</time>
      </trkpt>
      <trkpt lat="45.79839" lon="6.7381">
        <ele>1856</ele>
        <time>2026-08-14T07:58:11.540Z</time>
      </trkpt>
      <trkpt lat="45.79839" lon="6.73811">
        <ele>1856</ele>
        <time>2026-08-14T07:58:12.540Z</time>
      </trkpt>
      <trkpt lat="45.79837" lon="6.73812">
        <ele>1856</ele>
        <time>2026-08-14T07:58:13.540Z</time>
      </trkpt>
      <trkpt lat="45.79836" lon="6.73813">
        <ele>1856</ele>
        <time>2026-08-14T07:58:14.540Z</time>
      </trkpt>
      <trkpt lat="45.79835" lon="6.73814">
        <ele>1856</ele>
        <time>2026-08-14T07:58:15.540Z</time>
      </trkpt>
      <trkpt lat="45.79832" lon="6.73814">
        <ele>1856</ele>
        <time>2026-08-14T07:58:16.540Z</time>
      </trkpt>
      <trkpt lat="45.7983" lon="6.73815">
        <ele>1857</ele>
        <time>2026-08-14T07:58:17.540Z</time>
      </trkpt>
      <trkpt lat="45.79829" lon="6.73816">
        <ele>1857</ele>
        <time>2026-08-14T07:58:18.540Z</time>
      </trkpt>
      <trkpt lat="45.79828" lon="6.73816">
        <ele>1857</ele>
        <time>2026-08-14T07:58:19.540Z</time>
      </trkpt>
      <trkpt lat="45.79827" lon="6.73817">
        <ele>1858</ele>
        <time>2026-08-14T07:58:20.540Z</time>
      </trkpt>
      <trkpt lat="45.79826" lon="6.73817">
        <ele>1858</ele>
        <time>2026-08-14T07:58:21.540Z</time>
      </trkpt>
      <trkpt lat="45.79824" lon="6.73818">
        <ele>1858</ele>
        <time>2026-08-14T07:58:22.540Z</time>
      </trkpt>
      <trkpt lat="45.79824" lon="6.73818">
        <ele>1859</ele>
        <time>2026-08-14T07:58:23.540Z</time>
      </trkpt>
      <trkpt lat="45.79822" lon="6.73819">
        <ele>1859</ele>
        <time>2026-08-14T07:58:24.540Z</time>
      </trkpt>
      <trkpt lat="45.7982" lon="6.73819">
        <ele>1859</ele>
        <time>2026-08-14T07:58:25.540Z</time>
      </trkpt>
      <trkpt lat="45.79818" lon="6.73819">
        <ele>1859</ele>
        <time>2026-08-14T07:58:26.540Z</time>
      </trkpt>
      <trkpt lat="45.79817" lon="6.73819">
        <ele>1860</ele>
        <time>2026-08-14T07:58:27.540Z</time>
      </trkpt>
      <trkpt lat="45.79815" lon="6.7382">
        <ele>1860</ele>
        <time>2026-08-14T07:58:28.540Z</time>
      </trkpt>
      <trkpt lat="45.79814" lon="6.73821">
        <ele>1860</ele>
        <time>2026-08-14T07:58:29.540Z</time>
      </trkpt>
      <trkpt lat="45.79812" lon="6.73822">
        <ele>1860</ele>
        <time>2026-08-14T07:58:30.540Z</time>
      </trkpt>
      <trkpt lat="45.79811" lon="6.73822">
        <ele>1860</ele>
        <time>2026-08-14T07:58:31.540Z</time>
      </trkpt>
      <trkpt lat="45.7981" lon="6.73823">
        <ele>1860</ele>
        <time>2026-08-14T07:58:32.540Z</time>
      </trkpt>
      <trkpt lat="45.79808" lon="6.73825">
        <ele>1861</ele>
        <time>2026-08-14T07:58:33.540Z</time>
      </trkpt>
      <trkpt lat="45.79807" lon="6.73826">
        <ele>1861</ele>
        <time>2026-08-14T07:58:34.540Z</time>
      </trkpt>
      <trkpt lat="45.79805" lon="6.73827">
        <ele>1861</ele>
        <time>2026-08-14T07:58:35.540Z</time>
      </trkpt>
      <trkpt lat="45.79804" lon="6.73828">
        <ele>1861</ele>
        <time>2026-08-14T07:58:36.540Z</time>
      </trkpt>
      <trkpt lat="45.79802" lon="6.73829">
        <ele>1861</ele>
        <time>2026-08-14T07:58:37.540Z</time>
      </trkpt>
      <trkpt lat="45.79801" lon="6.7383">
        <ele>1861</ele>
        <time>2026-08-14T07:58:38.540Z</time>
      </trkpt>
      <trkpt lat="45.798" lon="6.73831">
        <ele>1861</ele>
        <time>2026-08-14T07:58:39.540Z</time>
      </trkpt>
      <trkpt lat="45.79798" lon="6.73832">
        <ele>1861</ele>
        <time>2026-08-14T07:58:40.540Z</time>
      </trkpt>
      <trkpt lat="45.79796" lon="6.73833">
        <ele>1861</ele>
        <time>2026-08-14T07:58:41.540Z</time>
      </trkpt>
      <trkpt lat="45.79794" lon="6.73834">
        <ele>1861</ele>
        <time>2026-08-14T07:58:42.540Z</time>
      </trkpt>
      <trkpt lat="45.79793" lon="6.73834">
        <ele>1861</ele>
        <time>2026-08-14T07:58:43.540Z</time>
      </trkpt>
      <trkpt lat="45.79791" lon="6.73835">
        <ele>1861</ele>
        <time>2026-08-14T07:58:44.540Z</time>
      </trkpt>
      <trkpt lat="45.79789" lon="6.73835">
        <ele>1861</ele>
        <time>2026-08-14T07:58:45.540Z</time>
      </trkpt>
      <trkpt lat="45.79788" lon="6.73836">
        <ele>1861</ele>
        <time>2026-08-14T07:58:46.540Z</time>
      </trkpt>
      <trkpt lat="45.79787" lon="6.73836">
        <ele>1861</ele>
        <time>2026-08-14T07:58:47.540Z</time>
      </trkpt>
      <trkpt lat="45.79785" lon="6.73836">
        <ele>1861</ele>
        <time>2026-08-14T07:58:48.540Z</time>
      </trkpt>
      <trkpt lat="45.79784" lon="6.73835">
        <ele>1862</ele>
        <time>2026-08-14T07:58:49.540Z</time>
      </trkpt>
      <trkpt lat="45.79783" lon="6.73834">
        <ele>1862</ele>
        <time>2026-08-14T07:58:50.540Z</time>
      </trkpt>
      <trkpt lat="45.79782" lon="6.73833">
        <ele>1862</ele>
        <time>2026-08-14T07:58:51.540Z</time>
      </trkpt>
      <trkpt lat="45.79781" lon="6.73832">
        <ele>1862</ele>
        <time>2026-08-14T07:58:52.540Z</time>
      </trkpt>
      <trkpt lat="45.79779" lon="6.73831">
        <ele>1862</ele>
        <time>2026-08-14T07:58:53.540Z</time>
      </trkpt>
      <trkpt lat="45.79778" lon="6.73831">
        <ele>1862</ele>
        <time>2026-08-14T07:58:54.540Z</time>
      </trkpt>
      <trkpt lat="45.79776" lon="6.7383">
        <ele>1863</ele>
        <time>2026-08-14T07:58:55.540Z</time>
      </trkpt>
      <trkpt lat="45.79775" lon="6.73831">
        <ele>1863</ele>
        <time>2026-08-14T07:58:56.540Z</time>
      </trkpt>
      <trkpt lat="45.79774" lon="6.73831">
        <ele>1863</ele>
        <time>2026-08-14T07:58:57.540Z</time>
      </trkpt>
      <trkpt lat="45.79773" lon="6.73832">
        <ele>1863</ele>
        <time>2026-08-14T07:58:58.540Z</time>
      </trkpt>
      <trkpt lat="45.79772" lon="6.73834">
        <ele>1863</ele>
        <time>2026-08-14T07:58:59.540Z</time>
      </trkpt>
      <trkpt lat="45.79772" lon="6.73835">
        <ele>1863</ele>
        <time>2026-08-14T07:59:00.540Z</time>
      </trkpt>
      <trkpt lat="45.79771" lon="6.73836">
        <ele>1863</ele>
        <time>2026-08-14T07:59:01.540Z</time>
      </trkpt>
      <trkpt lat="45.7977" lon="6.73837">
        <ele>1862</ele>
        <time>2026-08-14T07:59:02.540Z</time>
      </trkpt>
      <trkpt lat="45.79769" lon="6.73838">
        <ele>1862</ele>
        <time>2026-08-14T07:59:03.540Z</time>
      </trkpt>
      <trkpt lat="45.79768" lon="6.73839">
        <ele>1862</ele>
        <time>2026-08-14T07:59:04.540Z</time>
      </trkpt>
      <trkpt lat="45.79767" lon="6.7384">
        <ele>1862</ele>
        <time>2026-08-14T07:59:05.540Z</time>
      </trkpt>
      <trkpt lat="45.79766" lon="6.73841">
        <ele>1861</ele>
        <time>2026-08-14T07:59:06.540Z</time>
      </trkpt>
      <trkpt lat="45.79765" lon="6.73842">
        <ele>1861</ele>
        <time>2026-08-14T07:59:07.540Z</time>
      </trkpt>
      <trkpt lat="45.79765" lon="6.73843">
        <ele>1861</ele>
        <time>2026-08-14T07:59:08.540Z</time>
      </trkpt>
      <trkpt lat="45.79764" lon="6.73844">
        <ele>1861</ele>
        <time>2026-08-14T07:59:09.540Z</time>
      </trkpt>
      <trkpt lat="45.79762" lon="6.73845">
        <ele>1861</ele>
        <time>2026-08-14T07:59:10.540Z</time>
      </trkpt>
      <trkpt lat="45.79762" lon="6.73847">
        <ele>1861</ele>
        <time>2026-08-14T07:59:11.540Z</time>
      </trkpt>
      <trkpt lat="45.79761" lon="6.73849">
        <ele>1861</ele>
        <time>2026-08-14T07:59:12.540Z</time>
      </trkpt>
      <trkpt lat="45.7976" lon="6.7385">
        <ele>1861</ele>
        <time>2026-08-14T07:59:13.540Z</time>
      </trkpt>
      <trkpt lat="45.79759" lon="6.73851">
        <ele>1861</ele>
        <time>2026-08-14T07:59:14.540Z</time>
      </trkpt>
      <trkpt lat="45.79758" lon="6.73852">
        <ele>1862</ele>
        <time>2026-08-14T07:59:15.540Z</time>
      </trkpt>
      <trkpt lat="45.79757" lon="6.73853">
        <ele>1862</ele>
        <time>2026-08-14T07:59:16.540Z</time>
      </trkpt>
      <trkpt lat="45.79756" lon="6.73854">
        <ele>1862</ele>
        <time>2026-08-14T07:59:17.540Z</time>
      </trkpt>
      <trkpt lat="45.79755" lon="6.73855">
        <ele>1862</ele>
        <time>2026-08-14T07:59:18.540Z</time>
      </trkpt>
      <trkpt lat="45.79754" lon="6.73856">
        <ele>1862</ele>
        <time>2026-08-14T07:59:19.540Z</time>
      </trkpt>
      <trkpt lat="45.79752" lon="6.73856">
        <ele>1862</ele>
        <time>2026-08-14T07:59:20.540Z</time>
      </trkpt>
      <trkpt lat="45.79751" lon="6.73856">
        <ele>1862</ele>
        <time>2026-08-14T07:59:21.540Z</time>
      </trkpt>
      <trkpt lat="45.7975" lon="6.73857">
        <ele>1862</ele>
        <time>2026-08-14T07:59:22.540Z</time>
      </trkpt>
      <trkpt lat="45.79749" lon="6.73857">
        <ele>1862</ele>
        <time>2026-08-14T07:59:23.540Z</time>
      </trkpt>
      <trkpt lat="45.79747" lon="6.73857">
        <ele>1862</ele>
        <time>2026-08-14T07:59:24.540Z</time>
      </trkpt>
      <trkpt lat="45.79746" lon="6.73858">
        <ele>1862</ele>
        <time>2026-08-14T07:59:25.540Z</time>
      </trkpt>
      <trkpt lat="45.79745" lon="6.73859">
        <ele>1862</ele>
        <time>2026-08-14T07:59:26.540Z</time>
      </trkpt>
      <trkpt lat="45.79744" lon="6.73859">
        <ele>1862</ele>
        <time>2026-08-14T07:59:27.540Z</time>
      </trkpt>
      <trkpt lat="45.79742" lon="6.73859">
        <ele>1862</ele>
        <time>2026-08-14T07:59:28.541Z</time>
      </trkpt>
      <trkpt lat="45.79742" lon="6.7386">
        <ele>1862</ele>
        <time>2026-08-14T07:59:29.540Z</time>
      </trkpt>
      <trkpt lat="45.79741" lon="6.73861">
        <ele>1861</ele>
        <time>2026-08-14T07:59:30.540Z</time>
      </trkpt>
      <trkpt lat="45.7974" lon="6.73861">
        <ele>1861</ele>
        <time>2026-08-14T07:59:31.540Z</time>
      </trkpt>
      <trkpt lat="45.79741" lon="6.73862">
        <ele>1861</ele>
        <time>2026-08-14T07:59:32.540Z</time>
      </trkpt>
      <trkpt lat="45.79741" lon="6.73863">
        <ele>1861</ele>
        <time>2026-08-14T07:59:33.540Z</time>
      </trkpt>
      <trkpt lat="45.79742" lon="6.73864">
        <ele>1860</ele>
        <time>2026-08-14T07:59:34.540Z</time>
      </trkpt>
      <trkpt lat="45.79743" lon="6.73865">
        <ele>1860</ele>
        <time>2026-08-14T07:59:35.540Z</time>
      </trkpt>
      <trkpt lat="45.79744" lon="6.73865">
        <ele>1860</ele>
        <time>2026-08-14T07:59:36.540Z</time>
      </trkpt>
      <trkpt lat="45.79745" lon="6.73866">
        <ele>1860</ele>
        <time>2026-08-14T07:59:37.540Z</time>
      </trkpt>
      <trkpt lat="45.79747" lon="6.73867">
        <ele>1860</ele>
        <time>2026-08-14T07:59:38.540Z</time>
      </trkpt>
      <trkpt lat="45.79748" lon="6.73868">
        <ele>1860</ele>
        <time>2026-08-14T07:59:39.540Z</time>
      </trkpt>
      <trkpt lat="45.79749" lon="6.73869">
        <ele>1860</ele>
        <time>2026-08-14T07:59:40.540Z</time>
      </trkpt>
      <trkpt lat="45.79751" lon="6.73869">
        <ele>1860</ele>
        <time>2026-08-14T07:59:41.540Z</time>
      </trkpt>
      <trkpt lat="45.79752" lon="6.7387">
        <ele>1861</ele>
        <time>2026-08-14T07:59:42.540Z</time>
      </trkpt>
      <trkpt lat="45.79753" lon="6.7387">
        <ele>1861</ele>
        <time>2026-08-14T07:59:43.540Z</time>
      </trkpt>
      <trkpt lat="45.79755" lon="6.7387">
        <ele>1861</ele>
        <time>2026-08-14T07:59:44.540Z</time>
      </trkpt>
      <trkpt lat="45.79756" lon="6.73871">
        <ele>1861</ele>
        <time>2026-08-14T07:59:45.540Z</time>
      </trkpt>
      <trkpt lat="45.79758" lon="6.73871">
        <ele>1862</ele>
        <time>2026-08-14T07:59:46.540Z</time>
      </trkpt>
      <trkpt lat="45.79759" lon="6.73872">
        <ele>1862</ele>
        <time>2026-08-14T07:59:47.540Z</time>
      </trkpt>
      <trkpt lat="45.79761" lon="6.73872">
        <ele>1862</ele>
        <time>2026-08-14T07:59:48.540Z</time>
      </trkpt>
      <trkpt lat="45.79763" lon="6.73873">
        <ele>1862</ele>
        <time>2026-08-14T07:59:49.540Z</time>
      </trkpt>
      <trkpt lat="45.79764" lon="6.73873">
        <ele>1862</ele>
        <time>2026-08-14T07:59:50.540Z</time>
      </trkpt>
      <trkpt lat="45.79765" lon="6.73873">
        <ele>1862</ele>
        <time>2026-08-14T07:59:51.540Z</time>
      </trkpt>
      <trkpt lat="45.79767" lon="6.73873">
        <ele>1863</ele>
        <time>2026-08-14T07:59:52.540Z</time>
      </trkpt>
      <trkpt lat="45.79768" lon="6.73873">
        <ele>1863</ele>
        <time>2026-08-14T07:59:53.540Z</time>
      </trkpt>
      <trkpt lat="45.7977" lon="6.73873">
        <ele>1863</ele>
        <time>2026-08-14T07:59:54.540Z</time>
      </trkpt>
      <trkpt lat="45.79771" lon="6.73873">
        <ele>1864</ele>
        <time>2026-08-14T07:59:55.540Z</time>
      </trkpt>
      <trkpt lat="45.79773" lon="6.73873">
        <ele>1864</ele>
        <time>2026-08-14T07:59:56.540Z</time>
      </trkpt>
      <trkpt lat="45.79774" lon="6.73873">
        <ele>1864</ele>
        <time>2026-08-14T07:59:57.540Z</time>
      </trkpt>
      <trkpt lat="45.79776" lon="6.73872">
        <ele>1865</ele>
        <time>2026-08-14T07:59:58.540Z</time>
      </trkpt>
      <trkpt lat="45.79778" lon="6.73872">
        <ele>1865</ele>
        <time>2026-08-14T07:59:59.540Z</time>
      </trkpt>
      <trkpt lat="45.79779" lon="6.73872">
        <ele>1865</ele>
        <time>2026-08-14T08:00:00.540Z</time>
      </trkpt>
      <trkpt lat="45.79781" lon="6.73872">
        <ele>1865</ele>
        <time>2026-08-14T08:00:01.540Z</time>
      </trkpt>
      <trkpt lat="45.79782" lon="6.73872">
        <ele>1865</ele>
        <time>2026-08-14T08:00:02.540Z</time>
      </trkpt>
      <trkpt lat="45.79783" lon="6.73871">
        <ele>1866</ele>
        <time>2026-08-14T08:00:03.540Z</time>
      </trkpt>
      <trkpt lat="45.79784" lon="6.73871">
        <ele>1866</ele>
        <time>2026-08-14T08:00:04.540Z</time>
      </trkpt>
      <trkpt lat="45.79785" lon="6.7387">
        <ele>1866</ele>
        <time>2026-08-14T08:00:05.540Z</time>
      </trkpt>
      <trkpt lat="45.79787" lon="6.7387">
        <ele>1866</ele>
        <time>2026-08-14T08:00:06.540Z</time>
      </trkpt>
      <trkpt lat="45.79788" lon="6.7387">
        <ele>1866</ele>
        <time>2026-08-14T08:00:07.540Z</time>
      </trkpt>
      <trkpt lat="45.7979" lon="6.73869">
        <ele>1867</ele>
        <time>2026-08-14T08:00:08.540Z</time>
      </trkpt>
      <trkpt lat="45.79791" lon="6.73869">
        <ele>1867</ele>
        <time>2026-08-14T08:00:09.540Z</time>
      </trkpt>
      <trkpt lat="45.79793" lon="6.7387">
        <ele>1868</ele>
        <time>2026-08-14T08:00:10.540Z</time>
      </trkpt>
      <trkpt lat="45.79794" lon="6.7387">
        <ele>1868</ele>
        <time>2026-08-14T08:00:11.540Z</time>
      </trkpt>
      <trkpt lat="45.79796" lon="6.73871">
        <ele>1868</ele>
        <time>2026-08-14T08:00:12.540Z</time>
      </trkpt>
      <trkpt lat="45.79797" lon="6.73872">
        <ele>1869</ele>
        <time>2026-08-14T08:00:13.540Z</time>
      </trkpt>
      <trkpt lat="45.79798" lon="6.73872">
        <ele>1869</ele>
        <time>2026-08-14T08:00:14.540Z</time>
      </trkpt>
      <trkpt lat="45.79798" lon="6.73871">
        <ele>1869</ele>
        <time>2026-08-14T08:00:15.540Z</time>
      </trkpt>
      <trkpt lat="45.79799" lon="6.73871">
        <ele>1869</ele>
        <time>2026-08-14T08:00:16.540Z</time>
      </trkpt>
      <trkpt lat="45.798" lon="6.7387">
        <ele>1870</ele>
        <time>2026-08-14T08:00:17.540Z</time>
      </trkpt>
      <trkpt lat="45.79801" lon="6.7387">
        <ele>1870</ele>
        <time>2026-08-14T08:00:18.540Z</time>
      </trkpt>
      <trkpt lat="45.79802" lon="6.7387">
        <ele>1870</ele>
        <time>2026-08-14T08:00:19.540Z</time>
      </trkpt>
      <trkpt lat="45.79803" lon="6.7387">
        <ele>1870</ele>
        <time>2026-08-14T08:00:20.540Z</time>
      </trkpt>
      <trkpt lat="45.79804" lon="6.73869">
        <ele>1870</ele>
        <time>2026-08-14T08:00:21.540Z</time>
      </trkpt>
      <trkpt lat="45.79805" lon="6.73868">
        <ele>1870</ele>
        <time>2026-08-14T08:00:22.540Z</time>
      </trkpt>
      <trkpt lat="45.79806" lon="6.73867">
        <ele>1870</ele>
        <time>2026-08-14T08:00:23.540Z</time>
      </trkpt>
      <trkpt lat="45.79807" lon="6.73866">
        <ele>1871</ele>
        <time>2026-08-14T08:00:24.540Z</time>
      </trkpt>
      <trkpt lat="45.79809" lon="6.73865">
        <ele>1871</ele>
        <time>2026-08-14T08:00:25.540Z</time>
      </trkpt>
      <trkpt lat="45.7981" lon="6.73865">
        <ele>1871</ele>
        <time>2026-08-14T08:00:26.540Z</time>
      </trkpt>
      <trkpt lat="45.79811" lon="6.73864">
        <ele>1871</ele>
        <time>2026-08-14T08:00:27.540Z</time>
      </trkpt>
      <trkpt lat="45.79812" lon="6.73864">
        <ele>1871</ele>
        <time>2026-08-14T08:00:28.540Z</time>
      </trkpt>
      <trkpt lat="45.79814" lon="6.73864">
        <ele>1871</ele>
        <time>2026-08-14T08:00:29.540Z</time>
      </trkpt>
      <trkpt lat="45.79815" lon="6.73863">
        <ele>1872</ele>
        <time>2026-08-14T08:00:30.540Z</time>
      </trkpt>
      <trkpt lat="45.79816" lon="6.73863">
        <ele>1872</ele>
        <time>2026-08-14T08:00:31.540Z</time>
      </trkpt>
      <trkpt lat="45.79817" lon="6.73864">
        <ele>1872</ele>
        <time>2026-08-14T08:00:32.540Z</time>
      </trkpt>
      <trkpt lat="45.79818" lon="6.73864">
        <ele>1872</ele>
        <time>2026-08-14T08:00:33.540Z</time>
      </trkpt>
      <trkpt lat="45.79819" lon="6.73864">
        <ele>1872</ele>
        <time>2026-08-14T08:00:34.540Z</time>
      </trkpt>
      <trkpt lat="45.7982" lon="6.73864">
        <ele>1872</ele>
        <time>2026-08-14T08:00:35.540Z</time>
      </trkpt>
      <trkpt lat="45.79821" lon="6.73865">
        <ele>1873</ele>
        <time>2026-08-14T08:00:36.540Z</time>
      </trkpt>
      <trkpt lat="45.79822" lon="6.73865">
        <ele>1873</ele>
        <time>2026-08-14T08:00:37.540Z</time>
      </trkpt>
      <trkpt lat="45.79824" lon="6.73865">
        <ele>1873</ele>
        <time>2026-08-14T08:00:38.540Z</time>
      </trkpt>
      <trkpt lat="45.79825" lon="6.73865">
        <ele>1873</ele>
        <time>2026-08-14T08:00:39.540Z</time>
      </trkpt>
      <trkpt lat="45.79826" lon="6.73865">
        <ele>1873</ele>
        <time>2026-08-14T08:00:40.540Z</time>
      </trkpt>
      <trkpt lat="45.79827" lon="6.73865">
        <ele>1873</ele>
        <time>2026-08-14T08:00:41.540Z</time>
      </trkpt>
      <trkpt lat="45.79829" lon="6.73865">
        <ele>1873</ele>
        <time>2026-08-14T08:00:42.540Z</time>
      </trkpt>
      <trkpt lat="45.79831" lon="6.73865">
        <ele>1873</ele>
        <time>2026-08-14T08:00:43.540Z</time>
      </trkpt>
      <trkpt lat="45.79832" lon="6.73865">
        <ele>1873</ele>
        <time>2026-08-14T08:00:44.540Z</time>
      </trkpt>
      <trkpt lat="45.79834" lon="6.73865">
        <ele>1874</ele>
        <time>2026-08-14T08:00:45.540Z</time>
      </trkpt>
      <trkpt lat="45.79836" lon="6.73865">
        <ele>1874</ele>
        <time>2026-08-14T08:00:46.540Z</time>
      </trkpt>
      <trkpt lat="45.79838" lon="6.73866">
        <ele>1874</ele>
        <time>2026-08-14T08:00:47.540Z</time>
      </trkpt>
      <trkpt lat="45.79839" lon="6.73866">
        <ele>1874</ele>
        <time>2026-08-14T08:00:48.540Z</time>
      </trkpt>
      <trkpt lat="45.7984" lon="6.73867">
        <ele>1875</ele>
        <time>2026-08-14T08:00:49.540Z</time>
      </trkpt>
      <trkpt lat="45.79842" lon="6.73866">
        <ele>1875</ele>
        <time>2026-08-14T08:00:50.540Z</time>
      </trkpt>
      <trkpt lat="45.79843" lon="6.73866">
        <ele>1875</ele>
        <time>2026-08-14T08:00:51.540Z</time>
      </trkpt>
      <trkpt lat="45.79844" lon="6.73866">
        <ele>1875</ele>
        <time>2026-08-14T08:00:52.540Z</time>
      </trkpt>
      <trkpt lat="45.79846" lon="6.73866">
        <ele>1875</ele>
        <time>2026-08-14T08:00:53.540Z</time>
      </trkpt>
      <trkpt lat="45.79848" lon="6.73867">
        <ele>1875</ele>
        <time>2026-08-14T08:00:54.540Z</time>
      </trkpt>
      <trkpt lat="45.7985" lon="6.73868">
        <ele>1875</ele>
        <time>2026-08-14T08:00:55.540Z</time>
      </trkpt>
      <trkpt lat="45.79851" lon="6.73869">
        <ele>1875</ele>
        <time>2026-08-14T08:00:56.540Z</time>
      </trkpt>
      <trkpt lat="45.79851" lon="6.7387">
        <ele>1875</ele>
        <time>2026-08-14T08:00:57.540Z</time>
      </trkpt>
      <trkpt lat="45.79851" lon="6.73871">
        <ele>1875</ele>
        <time>2026-08-14T08:00:58.540Z</time>
      </trkpt>
      <trkpt lat="45.79851" lon="6.73872">
        <ele>1875</ele>
        <time>2026-08-14T08:00:59.540Z</time>
      </trkpt>
      <trkpt lat="45.7985" lon="6.73872">
        <ele>1875</ele>
        <time>2026-08-14T08:01:00.540Z</time>
      </trkpt>
      <trkpt lat="45.79849" lon="6.73873">
        <ele>1875</ele>
        <time>2026-08-14T08:01:01.540Z</time>
      </trkpt>
      <trkpt lat="45.79848" lon="6.73874">
        <ele>1875</ele>
        <time>2026-08-14T08:01:02.540Z</time>
      </trkpt>
      <trkpt lat="45.79846" lon="6.73873">
        <ele>1876</ele>
        <time>2026-08-14T08:01:03.540Z</time>
      </trkpt>
      <trkpt lat="45.79845" lon="6.73873">
        <ele>1877</ele>
        <time>2026-08-14T08:01:04.540Z</time>
      </trkpt>
      <trkpt lat="45.79844" lon="6.73874">
        <ele>1878</ele>
        <time>2026-08-14T08:01:05.540Z</time>
      </trkpt>
      <trkpt lat="45.79842" lon="6.73874">
        <ele>1878</ele>
        <time>2026-08-14T08:01:06.540Z</time>
      </trkpt>
      <trkpt lat="45.7984" lon="6.73874">
        <ele>1879</ele>
        <time>2026-08-14T08:01:07.540Z</time>
      </trkpt>
      <trkpt lat="45.79839" lon="6.73874">
        <ele>1879</ele>
        <time>2026-08-14T08:01:08.540Z</time>
      </trkpt>
      <trkpt lat="45.79837" lon="6.73874">
        <ele>1880</ele>
        <time>2026-08-14T08:01:09.540Z</time>
      </trkpt>
      <trkpt lat="45.79836" lon="6.73875">
        <ele>1880</ele>
        <time>2026-08-14T08:01:10.540Z</time>
      </trkpt>
      <trkpt lat="45.79835" lon="6.73876">
        <ele>1880</ele>
        <time>2026-08-14T08:01:11.540Z</time>
      </trkpt>
      <trkpt lat="45.79834" lon="6.73877">
        <ele>1880</ele>
        <time>2026-08-14T08:01:12.540Z</time>
      </trkpt>
      <trkpt lat="45.79833" lon="6.73878">
        <ele>1880</ele>
        <time>2026-08-14T08:01:13.540Z</time>
      </trkpt>
      <trkpt lat="45.79832" lon="6.73879">
        <ele>1880</ele>
        <time>2026-08-14T08:01:14.540Z</time>
      </trkpt>
      <trkpt lat="45.7983" lon="6.73879">
        <ele>1880</ele>
        <time>2026-08-14T08:01:15.540Z</time>
      </trkpt>
      <trkpt lat="45.79829" lon="6.7388">
        <ele>1881</ele>
        <time>2026-08-14T08:01:16.540Z</time>
      </trkpt>
      <trkpt lat="45.79827" lon="6.7388">
        <ele>1881</ele>
        <time>2026-08-14T08:01:17.540Z</time>
      </trkpt>
      <trkpt lat="45.79825" lon="6.7388">
        <ele>1881</ele>
        <time>2026-08-14T08:01:18.540Z</time>
      </trkpt>
      <trkpt lat="45.79824" lon="6.73881">
        <ele>1882</ele>
        <time>2026-08-14T08:01:19.540Z</time>
      </trkpt>
      <trkpt lat="45.79822" lon="6.73881">
        <ele>1882</ele>
        <time>2026-08-14T08:01:20.540Z</time>
      </trkpt>
      <trkpt lat="45.79821" lon="6.73882">
        <ele>1883</ele>
        <time>2026-08-14T08:01:21.540Z</time>
      </trkpt>
      <trkpt lat="45.7982" lon="6.73883">
        <ele>1883</ele>
        <time>2026-08-14T08:01:22.540Z</time>
      </trkpt>
      <trkpt lat="45.7982" lon="6.73885">
        <ele>1884</ele>
        <time>2026-08-14T08:01:23.540Z</time>
      </trkpt>
      <trkpt lat="45.79819" lon="6.73887">
        <ele>1884</ele>
        <time>2026-08-14T08:01:24.540Z</time>
      </trkpt>
      <trkpt lat="45.79819" lon="6.73889">
        <ele>1884</ele>
        <time>2026-08-14T08:01:25.540Z</time>
      </trkpt>
      <trkpt lat="45.79818" lon="6.73891">
        <ele>1884</ele>
        <time>2026-08-14T08:01:26.540Z</time>
      </trkpt>
      <trkpt lat="45.79817" lon="6.73893">
        <ele>1885</ele>
        <time>2026-08-14T08:01:27.540Z</time>
      </trkpt>
      <trkpt lat="45.79816" lon="6.73895">
        <ele>1885</ele>
        <time>2026-08-14T08:01:28.540Z</time>
      </trkpt>
      <trkpt lat="45.79814" lon="6.73896">
        <ele>1885</ele>
        <time>2026-08-14T08:01:29.540Z</time>
      </trkpt>
      <trkpt lat="45.79813" lon="6.73897">
        <ele>1885</ele>
        <time>2026-08-14T08:01:30.540Z</time>
      </trkpt>
      <trkpt lat="45.79811" lon="6.73898">
        <ele>1886</ele>
        <time>2026-08-14T08:01:31.540Z</time>
      </trkpt>
      <trkpt lat="45.7981" lon="6.73899">
        <ele>1886</ele>
        <time>2026-08-14T08:01:32.540Z</time>
      </trkpt>
      <trkpt lat="45.79809" lon="6.739">
        <ele>1887</ele>
        <time>2026-08-14T08:01:33.540Z</time>
      </trkpt>
      <trkpt lat="45.79808" lon="6.73901">
        <ele>1887</ele>
        <time>2026-08-14T08:01:34.540Z</time>
      </trkpt>
      <trkpt lat="45.79807" lon="6.73902">
        <ele>1887</ele>
        <time>2026-08-14T08:01:35.540Z</time>
      </trkpt>
      <trkpt lat="45.79807" lon="6.73903">
        <ele>1888</ele>
        <time>2026-08-14T08:01:36.540Z</time>
      </trkpt>
      <trkpt lat="45.79806" lon="6.73904">
        <ele>1888</ele>
        <time>2026-08-14T08:01:37.540Z</time>
      </trkpt>
      <trkpt lat="45.79805" lon="6.73905">
        <ele>1888</ele>
        <time>2026-08-14T08:01:38.540Z</time>
      </trkpt>
      <trkpt lat="45.79805" lon="6.73907">
        <ele>1888</ele>
        <time>2026-08-14T08:01:39.540Z</time>
      </trkpt>
      <trkpt lat="45.79804" lon="6.73909">
        <ele>1888</ele>
        <time>2026-08-14T08:01:40.540Z</time>
      </trkpt>
      <trkpt lat="45.79804" lon="6.7391">
        <ele>1888</ele>
        <time>2026-08-14T08:01:41.540Z</time>
      </trkpt>
      <trkpt lat="45.79804" lon="6.73912">
        <ele>1888</ele>
        <time>2026-08-14T08:01:42.540Z</time>
      </trkpt>
      <trkpt lat="45.79805" lon="6.73914">
        <ele>1888</ele>
        <time>2026-08-14T08:01:43.540Z</time>
      </trkpt>
      <trkpt lat="45.79805" lon="6.73915">
        <ele>1888</ele>
        <time>2026-08-14T08:01:44.540Z</time>
      </trkpt>
      <trkpt lat="45.79805" lon="6.73917">
        <ele>1888</ele>
        <time>2026-08-14T08:01:45.540Z</time>
      </trkpt>
      <trkpt lat="45.79805" lon="6.73919">
        <ele>1888</ele>
        <time>2026-08-14T08:01:46.540Z</time>
      </trkpt>
      <trkpt lat="45.79806" lon="6.7392">
        <ele>1889</ele>
        <time>2026-08-14T08:01:47.540Z</time>
      </trkpt>
      <trkpt lat="45.79807" lon="6.73922">
        <ele>1889</ele>
        <time>2026-08-14T08:01:48.540Z</time>
      </trkpt>
      <trkpt lat="45.79808" lon="6.73924">
        <ele>1889</ele>
        <time>2026-08-14T08:01:49.540Z</time>
      </trkpt>
      <trkpt lat="45.79808" lon="6.73926">
        <ele>1889</ele>
        <time>2026-08-14T08:01:50.540Z</time>
      </trkpt>
      <trkpt lat="45.79809" lon="6.73927">
        <ele>1889</ele>
        <time>2026-08-14T08:01:51.540Z</time>
      </trkpt>
      <trkpt lat="45.79809" lon="6.73929">
        <ele>1889</ele>
        <time>2026-08-14T08:01:52.540Z</time>
      </trkpt>
      <trkpt lat="45.7981" lon="6.73932">
        <ele>1889</ele>
        <time>2026-08-14T08:01:53.540Z</time>
      </trkpt>
      <trkpt lat="45.7981" lon="6.73935">
        <ele>1888</ele>
        <time>2026-08-14T08:01:54.540Z</time>
      </trkpt>
      <trkpt lat="45.7981" lon="6.73937">
        <ele>1888</ele>
        <time>2026-08-14T08:01:55.540Z</time>
      </trkpt>
      <trkpt lat="45.79809" lon="6.7394">
        <ele>1888</ele>
        <time>2026-08-14T08:01:56.540Z</time>
      </trkpt>
      <trkpt lat="45.79809" lon="6.73943">
        <ele>1888</ele>
        <time>2026-08-14T08:01:57.540Z</time>
      </trkpt>
      <trkpt lat="45.79809" lon="6.73945">
        <ele>1889</ele>
        <time>2026-08-14T08:01:58.540Z</time>
      </trkpt>
      <trkpt lat="45.79809" lon="6.73947">
        <ele>1889</ele>
        <time>2026-08-14T08:01:59.540Z</time>
      </trkpt>
      <trkpt lat="45.79808" lon="6.7395">
        <ele>1889</ele>
        <time>2026-08-14T08:02:00.540Z</time>
      </trkpt>
      <trkpt lat="45.79808" lon="6.73952">
        <ele>1889</ele>
        <time>2026-08-14T08:02:01.540Z</time>
      </trkpt>
      <trkpt lat="45.79807" lon="6.73954">
        <ele>1889</ele>
        <time>2026-08-14T08:02:02.540Z</time>
      </trkpt>
      <trkpt lat="45.79807" lon="6.73956">
        <ele>1889</ele>
        <time>2026-08-14T08:02:03.540Z</time>
      </trkpt>
      <trkpt lat="45.79806" lon="6.73958">
        <ele>1889</ele>
        <time>2026-08-14T08:02:04.540Z</time>
      </trkpt>
      <trkpt lat="45.79806" lon="6.73961">
        <ele>1889</ele>
        <time>2026-08-14T08:02:05.540Z</time>
      </trkpt>
      <trkpt lat="45.79805" lon="6.73963">
        <ele>1889</ele>
        <time>2026-08-14T08:02:06.540Z</time>
      </trkpt>
      <trkpt lat="45.79805" lon="6.73965">
        <ele>1890</ele>
        <time>2026-08-14T08:02:07.540Z</time>
      </trkpt>
      <trkpt lat="45.79804" lon="6.73967">
        <ele>1891</ele>
        <time>2026-08-14T08:02:08.540Z</time>
      </trkpt>
      <trkpt lat="45.79803" lon="6.73968">
        <ele>1891</ele>
        <time>2026-08-14T08:02:09.540Z</time>
      </trkpt>
      <trkpt lat="45.79801" lon="6.73968">
        <ele>1892</ele>
        <time>2026-08-14T08:02:10.540Z</time>
      </trkpt>
      <trkpt lat="45.79799" lon="6.73968">
        <ele>1893</ele>
        <time>2026-08-14T08:02:11.540Z</time>
      </trkpt>
      <trkpt lat="45.79797" lon="6.73968">
        <ele>1893</ele>
        <time>2026-08-14T08:02:12.540Z</time>
      </trkpt>
      <trkpt lat="45.79796" lon="6.73968">
        <ele>1894</ele>
        <time>2026-08-14T08:02:13.540Z</time>
      </trkpt>
      <trkpt lat="45.79796" lon="6.73968">
        <ele>1894</ele>
        <time>2026-08-14T08:02:14.540Z</time>
      </trkpt>
      <trkpt lat="45.79795" lon="6.73969">
        <ele>1895</ele>
        <time>2026-08-14T08:02:15.540Z</time>
      </trkpt>
      <trkpt lat="45.79794" lon="6.73969">
        <ele>1895</ele>
        <time>2026-08-14T08:02:16.540Z</time>
      </trkpt>
      <trkpt lat="45.79793" lon="6.73969">
        <ele>1895</ele>
        <time>2026-08-14T08:02:17.540Z</time>
      </trkpt>
      <trkpt lat="45.79792" lon="6.73969">
        <ele>1896</ele>
        <time>2026-08-14T08:02:18.540Z</time>
      </trkpt>
      <trkpt lat="45.79791" lon="6.73969">
        <ele>1895</ele>
        <time>2026-08-14T08:02:19.540Z</time>
      </trkpt>
      <trkpt lat="45.7979" lon="6.73969">
        <ele>1895</ele>
        <time>2026-08-14T08:02:20.540Z</time>
      </trkpt>
      <trkpt lat="45.79789" lon="6.73969">
        <ele>1895</ele>
        <time>2026-08-14T08:02:21.540Z</time>
      </trkpt>
      <trkpt lat="45.79788" lon="6.73969">
        <ele>1895</ele>
        <time>2026-08-14T08:02:22.540Z</time>
      </trkpt>
      <trkpt lat="45.79786" lon="6.73969">
        <ele>1895</ele>
        <time>2026-08-14T08:02:23.540Z</time>
      </trkpt>
      <trkpt lat="45.79784" lon="6.73969">
        <ele>1895</ele>
        <time>2026-08-14T08:02:24.540Z</time>
      </trkpt>
      <trkpt lat="45.79783" lon="6.73968">
        <ele>1895</ele>
        <time>2026-08-14T08:02:25.540Z</time>
      </trkpt>
      <trkpt lat="45.79782" lon="6.73967">
        <ele>1895</ele>
        <time>2026-08-14T08:02:26.540Z</time>
      </trkpt>
      <trkpt lat="45.7978" lon="6.73966">
        <ele>1895</ele>
        <time>2026-08-14T08:02:27.540Z</time>
      </trkpt>
      <trkpt lat="45.79779" lon="6.73965">
        <ele>1895</ele>
        <time>2026-08-14T08:02:28.540Z</time>
      </trkpt>
      <trkpt lat="45.79778" lon="6.73964">
        <ele>1895</ele>
        <time>2026-08-14T08:02:29.540Z</time>
      </trkpt>
      <trkpt lat="45.79776" lon="6.73964">
        <ele>1895</ele>
        <time>2026-08-14T08:02:30.540Z</time>
      </trkpt>
      <trkpt lat="45.79775" lon="6.73962">
        <ele>1895</ele>
        <time>2026-08-14T08:02:31.540Z</time>
      </trkpt>
      <trkpt lat="45.79773" lon="6.73961">
        <ele>1895</ele>
        <time>2026-08-14T08:02:32.540Z</time>
      </trkpt>
      <trkpt lat="45.79773" lon="6.7396">
        <ele>1895</ele>
        <time>2026-08-14T08:02:33.540Z</time>
      </trkpt>
      <trkpt lat="45.79771" lon="6.73958">
        <ele>1895</ele>
        <time>2026-08-14T08:02:34.540Z</time>
      </trkpt>
      <trkpt lat="45.7977" lon="6.73957">
        <ele>1895</ele>
        <time>2026-08-14T08:02:35.540Z</time>
      </trkpt>
      <trkpt lat="45.79769" lon="6.73956">
        <ele>1895</ele>
        <time>2026-08-14T08:02:36.540Z</time>
      </trkpt>
      <trkpt lat="45.79768" lon="6.73956">
        <ele>1894</ele>
        <time>2026-08-14T08:02:37.540Z</time>
      </trkpt>
      <trkpt lat="45.79767" lon="6.73955">
        <ele>1894</ele>
        <time>2026-08-14T08:02:38.540Z</time>
      </trkpt>
      <trkpt lat="45.79766" lon="6.73954">
        <ele>1894</ele>
        <time>2026-08-14T08:02:39.540Z</time>
      </trkpt>
      <trkpt lat="45.79765" lon="6.73954">
        <ele>1894</ele>
        <time>2026-08-14T08:02:40.540Z</time>
      </trkpt>
      <trkpt lat="45.79764" lon="6.73955">
        <ele>1895</ele>
        <time>2026-08-14T08:02:41.540Z</time>
      </trkpt>
      <trkpt lat="45.79763" lon="6.73955">
        <ele>1895</ele>
        <time>2026-08-14T08:02:42.540Z</time>
      </trkpt>
      <trkpt lat="45.79762" lon="6.73955">
        <ele>1896</ele>
        <time>2026-08-14T08:02:43.540Z</time>
      </trkpt>
      <trkpt lat="45.79761" lon="6.73955">
        <ele>1896</ele>
        <time>2026-08-14T08:02:44.540Z</time>
      </trkpt>
      <trkpt lat="45.7976" lon="6.73955">
        <ele>1896</ele>
        <time>2026-08-14T08:02:45.540Z</time>
      </trkpt>
      <trkpt lat="45.79759" lon="6.73955">
        <ele>1897</ele>
        <time>2026-08-14T08:02:46.540Z</time>
      </trkpt>
      <trkpt lat="45.79758" lon="6.73955">
        <ele>1897</ele>
        <time>2026-08-14T08:02:47.540Z</time>
      </trkpt>
      <trkpt lat="45.79757" lon="6.73956">
        <ele>1897</ele>
        <time>2026-08-14T08:02:48.540Z</time>
      </trkpt>
      <trkpt lat="45.79755" lon="6.73956">
        <ele>1897</ele>
        <time>2026-08-14T08:02:49.540Z</time>
      </trkpt>
      <trkpt lat="45.79754" lon="6.73956">
        <ele>1898</ele>
        <time>2026-08-14T08:02:50.540Z</time>
      </trkpt>
      <trkpt lat="45.79753" lon="6.73956">
        <ele>1898</ele>
        <time>2026-08-14T08:02:51.540Z</time>
      </trkpt>
      <trkpt lat="45.79752" lon="6.73955">
        <ele>1899</ele>
        <time>2026-08-14T08:02:52.540Z</time>
      </trkpt>
      <trkpt lat="45.79751" lon="6.73955">
        <ele>1899</ele>
        <time>2026-08-14T08:02:53.540Z</time>
      </trkpt>
      <trkpt lat="45.79749" lon="6.73955">
        <ele>1899</ele>
        <time>2026-08-14T08:02:54.540Z</time>
      </trkpt>
      <trkpt lat="45.79748" lon="6.73955">
        <ele>1899</ele>
        <time>2026-08-14T08:02:55.540Z</time>
      </trkpt>
      <trkpt lat="45.79747" lon="6.73956">
        <ele>1899</ele>
        <time>2026-08-14T08:02:56.540Z</time>
      </trkpt>
      <trkpt lat="45.79746" lon="6.73956">
        <ele>1899</ele>
        <time>2026-08-14T08:02:57.540Z</time>
      </trkpt>
      <trkpt lat="45.79745" lon="6.73956">
        <ele>1899</ele>
        <time>2026-08-14T08:02:58.540Z</time>
      </trkpt>
      <trkpt lat="45.79744" lon="6.73956">
        <ele>1899</ele>
        <time>2026-08-14T08:02:59.540Z</time>
      </trkpt>
      <trkpt lat="45.79743" lon="6.73957">
        <ele>1899</ele>
        <time>2026-08-14T08:03:00.540Z</time>
      </trkpt>
      <trkpt lat="45.79742" lon="6.73957">
        <ele>1899</ele>
        <time>2026-08-14T08:03:01.540Z</time>
      </trkpt>
      <trkpt lat="45.79741" lon="6.73958">
        <ele>1900</ele>
        <time>2026-08-14T08:03:02.540Z</time>
      </trkpt>
      <trkpt lat="45.7974" lon="6.73958">
        <ele>1900</ele>
        <time>2026-08-14T08:03:03.540Z</time>
      </trkpt>
      <trkpt lat="45.79738" lon="6.73959">
        <ele>1900</ele>
        <time>2026-08-14T08:03:04.540Z</time>
      </trkpt>
      <trkpt lat="45.79737" lon="6.7396">
        <ele>1900</ele>
        <time>2026-08-14T08:03:05.540Z</time>
      </trkpt>
      <trkpt lat="45.79736" lon="6.7396">
        <ele>1900</ele>
        <time>2026-08-14T08:03:06.540Z</time>
      </trkpt>
      <trkpt lat="45.79734" lon="6.7396">
        <ele>1900</ele>
        <time>2026-08-14T08:03:07.540Z</time>
      </trkpt>
      <trkpt lat="45.79733" lon="6.73959">
        <ele>1901</ele>
        <time>2026-08-14T08:03:08.540Z</time>
      </trkpt>
      <trkpt lat="45.79732" lon="6.73959">
        <ele>1901</ele>
        <time>2026-08-14T08:03:09.540Z</time>
      </trkpt>
      <trkpt lat="45.79731" lon="6.73959">
        <ele>1901</ele>
        <time>2026-08-14T08:03:10.540Z</time>
      </trkpt>
      <trkpt lat="45.7973" lon="6.73958">
        <ele>1902</ele>
        <time>2026-08-14T08:03:11.540Z</time>
      </trkpt>
      <trkpt lat="45.79729" lon="6.73958">
        <ele>1902</ele>
        <time>2026-08-14T08:03:12.540Z</time>
      </trkpt>
      <trkpt lat="45.79727" lon="6.73957">
        <ele>1902</ele>
        <time>2026-08-14T08:03:13.540Z</time>
      </trkpt>
      <trkpt lat="45.79726" lon="6.73956">
        <ele>1902</ele>
        <time>2026-08-14T08:03:14.540Z</time>
      </trkpt>
      <trkpt lat="45.79725" lon="6.73955">
        <ele>1902</ele>
        <time>2026-08-14T08:03:15.540Z</time>
      </trkpt>
      <trkpt lat="45.79724" lon="6.73954">
        <ele>1903</ele>
        <time>2026-08-14T08:03:16.540Z</time>
      </trkpt>
      <trkpt lat="45.79723" lon="6.73953">
        <ele>1903</ele>
        <time>2026-08-14T08:03:17.540Z</time>
      </trkpt>
      <trkpt lat="45.79722" lon="6.73952">
        <ele>1904</ele>
        <time>2026-08-14T08:03:18.540Z</time>
      </trkpt>
      <trkpt lat="45.79721" lon="6.73951">
        <ele>1905</ele>
        <time>2026-08-14T08:03:19.540Z</time>
      </trkpt>
      <trkpt lat="45.79721" lon="6.7395">
        <ele>1905</ele>
        <time>2026-08-14T08:03:20.540Z</time>
      </trkpt>
      <trkpt lat="45.7972" lon="6.73949">
        <ele>1906</ele>
        <time>2026-08-14T08:03:21.540Z</time>
      </trkpt>
      <trkpt lat="45.79719" lon="6.73948">
        <ele>1906</ele>
        <time>2026-08-14T08:03:22.540Z</time>
      </trkpt>
      <trkpt lat="45.79718" lon="6.73947">
        <ele>1906</ele>
        <time>2026-08-14T08:03:23.540Z</time>
      </trkpt>
      <trkpt lat="45.79717" lon="6.73946">
        <ele>1907</ele>
        <time>2026-08-14T08:03:24.540Z</time>
      </trkpt>
      <trkpt lat="45.79716" lon="6.73945">
        <ele>1907</ele>
        <time>2026-08-14T08:03:25.540Z</time>
      </trkpt>
      <trkpt lat="45.79715" lon="6.73944">
        <ele>1907</ele>
        <time>2026-08-14T08:03:26.540Z</time>
      </trkpt>
      <trkpt lat="45.79714" lon="6.73944">
        <ele>1907</ele>
        <time>2026-08-14T08:03:27.540Z</time>
      </trkpt>
      <trkpt lat="45.79713" lon="6.73943">
        <ele>1908</ele>
        <time>2026-08-14T08:03:28.540Z</time>
      </trkpt>
      <trkpt lat="45.79711" lon="6.73941">
        <ele>1908</ele>
        <time>2026-08-14T08:03:29.540Z</time>
      </trkpt>
      <trkpt lat="45.7971" lon="6.73939">
        <ele>1908</ele>
        <time>2026-08-14T08:03:30.540Z</time>
      </trkpt>
      <trkpt lat="45.79709" lon="6.73938">
        <ele>1908</ele>
        <time>2026-08-14T08:03:31.540Z</time>
      </trkpt>
      <trkpt lat="45.79708" lon="6.73936">
        <ele>1908</ele>
        <time>2026-08-14T08:03:32.540Z</time>
      </trkpt>
      <trkpt lat="45.79707" lon="6.73935">
        <ele>1908</ele>
        <time>2026-08-14T08:03:33.540Z</time>
      </trkpt>
      <trkpt lat="45.79706" lon="6.73934">
        <ele>1908</ele>
        <time>2026-08-14T08:03:34.540Z</time>
      </trkpt>
      <trkpt lat="45.79704" lon="6.73933">
        <ele>1909</ele>
        <time>2026-08-14T08:03:35.540Z</time>
      </trkpt>
      <trkpt lat="45.79703" lon="6.73932">
        <ele>1909</ele>
        <time>2026-08-14T08:03:36.540Z</time>
      </trkpt>
      <trkpt lat="45.79702" lon="6.73931">
        <ele>1909</ele>
        <time>2026-08-14T08:03:37.540Z</time>
      </trkpt>
      <trkpt lat="45.79701" lon="6.7393">
        <ele>1909</ele>
        <time>2026-08-14T08:03:38.540Z</time>
      </trkpt>
      <trkpt lat="45.797" lon="6.73928">
        <ele>1909</ele>
        <time>2026-08-14T08:03:39.540Z</time>
      </trkpt>
      <trkpt lat="45.79699" lon="6.73927">
        <ele>1909</ele>
        <time>2026-08-14T08:03:40.540Z</time>
      </trkpt>
      <trkpt lat="45.79697" lon="6.73926">
        <ele>1910</ele>
        <time>2026-08-14T08:03:41.540Z</time>
      </trkpt>
      <trkpt lat="45.79696" lon="6.73926">
        <ele>1910</ele>
        <time>2026-08-14T08:03:42.540Z</time>
      </trkpt>
      <trkpt lat="45.79695" lon="6.73925">
        <ele>1911</ele>
        <time>2026-08-14T08:03:43.540Z</time>
      </trkpt>
      <trkpt lat="45.79694" lon="6.73925">
        <ele>1911</ele>
        <time>2026-08-14T08:03:44.540Z</time>
      </trkpt>
      <trkpt lat="45.79694" lon="6.73924">
        <ele>1911</ele>
        <time>2026-08-14T08:03:45.540Z</time>
      </trkpt>
      <trkpt lat="45.79692" lon="6.73924">
        <ele>1911</ele>
        <time>2026-08-14T08:03:46.540Z</time>
      </trkpt>
      <trkpt lat="45.79692" lon="6.73923">
        <ele>1912</ele>
        <time>2026-08-14T08:03:47.540Z</time>
      </trkpt>
      <trkpt lat="45.79692" lon="6.73923">
        <ele>1912</ele>
        <time>2026-08-14T08:03:48.540Z</time>
      </trkpt>
      <trkpt lat="45.79691" lon="6.73923">
        <ele>1912</ele>
        <time>2026-08-14T08:03:49.540Z</time>
      </trkpt>
      <trkpt lat="45.7969" lon="6.73922">
        <ele>1912</ele>
        <time>2026-08-14T08:03:50.540Z</time>
      </trkpt>
      <trkpt lat="45.79689" lon="6.73922">
        <ele>1912</ele>
        <time>2026-08-14T08:03:51.540Z</time>
      </trkpt>
      <trkpt lat="45.79688" lon="6.73921">
        <ele>1912</ele>
        <time>2026-08-14T08:03:52.540Z</time>
      </trkpt>
      <trkpt lat="45.79687" lon="6.7392">
        <ele>1912</ele>
        <time>2026-08-14T08:03:53.540Z</time>
      </trkpt>
      <trkpt lat="45.79686" lon="6.73919">
        <ele>1912</ele>
        <time>2026-08-14T08:03:54.540Z</time>
      </trkpt>
      <trkpt lat="45.79685" lon="6.73918">
        <ele>1912</ele>
        <time>2026-08-14T08:03:55.540Z</time>
      </trkpt>
      <trkpt lat="45.79684" lon="6.73917">
        <ele>1912</ele>
        <time>2026-08-14T08:03:56.540Z</time>
      </trkpt>
      <trkpt lat="45.79683" lon="6.73916">
        <ele>1912</ele>
        <time>2026-08-14T08:03:57.540Z</time>
      </trkpt>
      <trkpt lat="45.79681" lon="6.73915">
        <ele>1912</ele>
        <time>2026-08-14T08:03:58.540Z</time>
      </trkpt>
      <trkpt lat="45.79679" lon="6.73915">
        <ele>1912</ele>
        <time>2026-08-14T08:03:59.540Z</time>
      </trkpt>
      <trkpt lat="45.79678" lon="6.73914">
        <ele>1913</ele>
        <time>2026-08-14T08:04:00.540Z</time>
      </trkpt>
      <trkpt lat="45.79677" lon="6.73913">
        <ele>1913</ele>
        <time>2026-08-14T08:04:01.540Z</time>
      </trkpt>
      <trkpt lat="45.79676" lon="6.73913">
        <ele>1913</ele>
        <time>2026-08-14T08:04:02.540Z</time>
      </trkpt>
      <trkpt lat="45.79674" lon="6.73912">
        <ele>1913</ele>
        <time>2026-08-14T08:04:03.540Z</time>
      </trkpt>
      <trkpt lat="45.79672" lon="6.73911">
        <ele>1913</ele>
        <time>2026-08-14T08:04:04.540Z</time>
      </trkpt>
      <trkpt lat="45.79671" lon="6.7391">
        <ele>1913</ele>
        <time>2026-08-14T08:04:05.540Z</time>
      </trkpt>
      <trkpt lat="45.79671" lon="6.7391">
        <ele>1914</ele>
        <time>2026-08-14T08:04:06.540Z</time>
      </trkpt>
      <trkpt lat="45.79669" lon="6.73908">
        <ele>1914</ele>
        <time>2026-08-14T08:04:07.540Z</time>
      </trkpt>
      <trkpt lat="45.79667" lon="6.73907">
        <ele>1915</ele>
        <time>2026-08-14T08:04:08.540Z</time>
      </trkpt>
      <trkpt lat="45.79666" lon="6.73906">
        <ele>1915</ele>
        <time>2026-08-14T08:04:09.540Z</time>
      </trkpt>
      <trkpt lat="45.79665" lon="6.73906">
        <ele>1915</ele>
        <time>2026-08-14T08:04:10.540Z</time>
      </trkpt>
      <trkpt lat="45.79664" lon="6.73905">
        <ele>1916</ele>
        <time>2026-08-14T08:04:11.540Z</time>
      </trkpt>
      <trkpt lat="45.79664" lon="6.73904">
        <ele>1916</ele>
        <time>2026-08-14T08:04:12.540Z</time>
      </trkpt>
      <trkpt lat="45.79662" lon="6.73903">
        <ele>1917</ele>
        <time>2026-08-14T08:04:13.540Z</time>
      </trkpt>
      <trkpt lat="45.79661" lon="6.73902">
        <ele>1917</ele>
        <time>2026-08-14T08:04:14.540Z</time>
      </trkpt>
      <trkpt lat="45.79661" lon="6.739">
        <ele>1918</ele>
        <time>2026-08-14T08:04:15.540Z</time>
      </trkpt>
      <trkpt lat="45.79659" lon="6.73898">
        <ele>1918</ele>
        <time>2026-08-14T08:04:16.540Z</time>
      </trkpt>
      <trkpt lat="45.79658" lon="6.73896">
        <ele>1918</ele>
        <time>2026-08-14T08:04:17.540Z</time>
      </trkpt>
      <trkpt lat="45.79656" lon="6.73894">
        <ele>1918</ele>
        <time>2026-08-14T08:04:18.540Z</time>
      </trkpt>
      <trkpt lat="45.79653" lon="6.73891">
        <ele>1918</ele>
        <time>2026-08-14T08:04:19.540Z</time>
      </trkpt>
      <trkpt lat="45.79651" lon="6.73889">
        <ele>1918</ele>
        <time>2026-08-14T08:04:20.540Z</time>
      </trkpt>
      <trkpt lat="45.79651" lon="6.73888">
        <ele>1918</ele>
        <time>2026-08-14T08:04:21.540Z</time>
      </trkpt>
      <trkpt lat="45.7965" lon="6.73887">
        <ele>1918</ele>
        <time>2026-08-14T08:04:22.540Z</time>
      </trkpt>
      <trkpt lat="45.79649" lon="6.73886">
        <ele>1917</ele>
        <time>2026-08-14T08:04:23.540Z</time>
      </trkpt>
      <trkpt lat="45.79649" lon="6.73885">
        <ele>1917</ele>
        <time>2026-08-14T08:04:24.540Z</time>
      </trkpt>
      <trkpt lat="45.79649" lon="6.73885">
        <ele>1917</ele>
        <time>2026-08-14T08:04:25.540Z</time>
      </trkpt>
      <trkpt lat="45.79648" lon="6.73884">
        <ele>1917</ele>
        <time>2026-08-14T08:04:26.540Z</time>
      </trkpt>
      <trkpt lat="45.79647" lon="6.73884">
        <ele>1917</ele>
        <time>2026-08-14T08:04:27.540Z</time>
      </trkpt>
      <trkpt lat="45.79646" lon="6.73883">
        <ele>1917</ele>
        <time>2026-08-14T08:04:28.540Z</time>
      </trkpt>
      <trkpt lat="45.79646" lon="6.73882">
        <ele>1918</ele>
        <time>2026-08-14T08:04:29.540Z</time>
      </trkpt>
      <trkpt lat="45.79645" lon="6.73881">
        <ele>1918</ele>
        <time>2026-08-14T08:04:30.540Z</time>
      </trkpt>
      <trkpt lat="45.79645" lon="6.7388">
        <ele>1918</ele>
        <time>2026-08-14T08:04:31.540Z</time>
      </trkpt>
      <trkpt lat="45.79644" lon="6.73879">
        <ele>1918</ele>
        <time>2026-08-14T08:04:32.540Z</time>
      </trkpt>
      <trkpt lat="45.79642" lon="6.73879">
        <ele>1918</ele>
        <time>2026-08-14T08:04:33.540Z</time>
      </trkpt>
      <trkpt lat="45.79641" lon="6.73879">
        <ele>1918</ele>
        <time>2026-08-14T08:04:34.540Z</time>
      </trkpt>
      <trkpt lat="45.79639" lon="6.73878">
        <ele>1918</ele>
        <time>2026-08-14T08:04:35.540Z</time>
      </trkpt>
      <trkpt lat="45.79638" lon="6.73877">
        <ele>1918</ele>
        <time>2026-08-14T08:04:36.540Z</time>
      </trkpt>
      <trkpt lat="45.79637" lon="6.73876">
        <ele>1918</ele>
        <time>2026-08-14T08:04:37.540Z</time>
      </trkpt>
      <trkpt lat="45.79636" lon="6.73875">
        <ele>1918</ele>
        <time>2026-08-14T08:04:38.540Z</time>
      </trkpt>
      <trkpt lat="45.79635" lon="6.73873">
        <ele>1918</ele>
        <time>2026-08-14T08:04:39.540Z</time>
      </trkpt>
      <trkpt lat="45.79634" lon="6.73871">
        <ele>1918</ele>
        <time>2026-08-14T08:04:40.540Z</time>
      </trkpt>
      <trkpt lat="45.79634" lon="6.73869">
        <ele>1918</ele>
        <time>2026-08-14T08:04:41.540Z</time>
      </trkpt>
      <trkpt lat="45.79633" lon="6.73867">
        <ele>1918</ele>
        <time>2026-08-14T08:04:42.540Z</time>
      </trkpt>
      <trkpt lat="45.79632" lon="6.73865">
        <ele>1919</ele>
        <time>2026-08-14T08:04:43.540Z</time>
      </trkpt>
      <trkpt lat="45.79631" lon="6.73863">
        <ele>1919</ele>
        <time>2026-08-14T08:04:44.540Z</time>
      </trkpt>
      <trkpt lat="45.79631" lon="6.73861">
        <ele>1919</ele>
        <time>2026-08-14T08:04:45.540Z</time>
      </trkpt>
      <trkpt lat="45.79631" lon="6.7386">
        <ele>1919</ele>
        <time>2026-08-14T08:04:46.540Z</time>
      </trkpt>
      <trkpt lat="45.7963" lon="6.73859">
        <ele>1919</ele>
        <time>2026-08-14T08:04:47.540Z</time>
      </trkpt>
      <trkpt lat="45.79629" lon="6.73857">
        <ele>1919</ele>
        <time>2026-08-14T08:04:48.540Z</time>
      </trkpt>
      <trkpt lat="45.79628" lon="6.73856">
        <ele>1919</ele>
        <time>2026-08-14T08:04:49.540Z</time>
      </trkpt>
      <trkpt lat="45.79627" lon="6.73855">
        <ele>1919</ele>
        <time>2026-08-14T08:04:50.540Z</time>
      </trkpt>
      <trkpt lat="45.79627" lon="6.73855">
        <ele>1919</ele>
        <time>2026-08-14T08:04:51.540Z</time>
      </trkpt>
      <trkpt lat="45.79626" lon="6.73853">
        <ele>1920</ele>
        <time>2026-08-14T08:04:52.540Z</time>
      </trkpt>
      <trkpt lat="45.79625" lon="6.73852">
        <ele>1920</ele>
        <time>2026-08-14T08:04:53.540Z</time>
      </trkpt>
      <trkpt lat="45.79624" lon="6.73851">
        <ele>1920</ele>
        <time>2026-08-14T08:04:54.540Z</time>
      </trkpt>
      <trkpt lat="45.79623" lon="6.7385">
        <ele>1921</ele>
        <time>2026-08-14T08:04:55.540Z</time>
      </trkpt>
      <trkpt lat="45.79622" lon="6.73849">
        <ele>1921</ele>
        <time>2026-08-14T08:04:56.540Z</time>
      </trkpt>
      <trkpt lat="45.79622" lon="6.73848">
        <ele>1921</ele>
        <time>2026-08-14T08:04:57.540Z</time>
      </trkpt>
      <trkpt lat="45.79621" lon="6.73848">
        <ele>1921</ele>
        <time>2026-08-14T08:04:58.540Z</time>
      </trkpt>
      <trkpt lat="45.7962" lon="6.73847">
        <ele>1921</ele>
        <time>2026-08-14T08:04:59.540Z</time>
      </trkpt>
      <trkpt lat="45.79619" lon="6.73846">
        <ele>1921</ele>
        <time>2026-08-14T08:05:00.540Z</time>
      </trkpt>
      <trkpt lat="45.79618" lon="6.73845">
        <ele>1921</ele>
        <time>2026-08-14T08:05:01.540Z</time>
      </trkpt>
      <trkpt lat="45.79618" lon="6.73844">
        <ele>1921</ele>
        <time>2026-08-14T08:05:02.540Z</time>
      </trkpt>
      <trkpt lat="45.79617" lon="6.73843">
        <ele>1921</ele>
        <time>2026-08-14T08:05:03.540Z</time>
      </trkpt>
      <trkpt lat="45.79616" lon="6.73842">
        <ele>1921</ele>
        <time>2026-08-14T08:05:04.540Z</time>
      </trkpt>
      <trkpt lat="45.79616" lon="6.7384">
        <ele>1921</ele>
        <time>2026-08-14T08:05:05.540Z</time>
      </trkpt>
      <trkpt lat="45.79615" lon="6.73838">
        <ele>1922</ele>
        <time>2026-08-14T08:05:06.540Z</time>
      </trkpt>
      <trkpt lat="45.79614" lon="6.73836">
        <ele>1922</ele>
        <time>2026-08-14T08:05:07.540Z</time>
      </trkpt>
      <trkpt lat="45.79613" lon="6.73835">
        <ele>1922</ele>
        <time>2026-08-14T08:05:08.540Z</time>
      </trkpt>
      <trkpt lat="45.79611" lon="6.73834">
        <ele>1922</ele>
        <time>2026-08-14T08:05:09.540Z</time>
      </trkpt>
      <trkpt lat="45.79611" lon="6.73834">
        <ele>1923</ele>
        <time>2026-08-14T08:05:10.540Z</time>
      </trkpt>
      <trkpt lat="45.7961" lon="6.73834">
        <ele>1923</ele>
        <time>2026-08-14T08:05:11.540Z</time>
      </trkpt>
      <trkpt lat="45.79609" lon="6.73834">
        <ele>1923</ele>
        <time>2026-08-14T08:05:12.540Z</time>
      </trkpt>
      <trkpt lat="45.79608" lon="6.73834">
        <ele>1923</ele>
        <time>2026-08-14T08:05:13.540Z</time>
      </trkpt>
      <trkpt lat="45.79607" lon="6.73833">
        <ele>1923</ele>
        <time>2026-08-14T08:05:14.540Z</time>
      </trkpt>
      <trkpt lat="45.79606" lon="6.73833">
        <ele>1923</ele>
        <time>2026-08-14T08:05:15.540Z</time>
      </trkpt>
      <trkpt lat="45.79605" lon="6.73832">
        <ele>1923</ele>
        <time>2026-08-14T08:05:16.540Z</time>
      </trkpt>
      <trkpt lat="45.79604" lon="6.7383">
        <ele>1923</ele>
        <time>2026-08-14T08:05:17.540Z</time>
      </trkpt>
      <trkpt lat="45.79602" lon="6.73829">
        <ele>1923</ele>
        <time>2026-08-14T08:05:18.540Z</time>
      </trkpt>
      <trkpt lat="45.79602" lon="6.73828">
        <ele>1924</ele>
        <time>2026-08-14T08:05:19.540Z</time>
      </trkpt>
      <trkpt lat="45.79601" lon="6.73827">
        <ele>1924</ele>
        <time>2026-08-14T08:05:20.540Z</time>
      </trkpt>
      <trkpt lat="45.796" lon="6.73825">
        <ele>1924</ele>
        <time>2026-08-14T08:05:21.540Z</time>
      </trkpt>
      <trkpt lat="45.79599" lon="6.73824">
        <ele>1924</ele>
        <time>2026-08-14T08:05:22.540Z</time>
      </trkpt>
      <trkpt lat="45.79598" lon="6.73823">
        <ele>1925</ele>
        <time>2026-08-14T08:05:23.540Z</time>
      </trkpt>
      <trkpt lat="45.79596" lon="6.73821">
        <ele>1925</ele>
        <time>2026-08-14T08:05:24.540Z</time>
      </trkpt>
      <trkpt lat="45.79595" lon="6.73819">
        <ele>1925</ele>
        <time>2026-08-14T08:05:25.540Z</time>
      </trkpt>
      <trkpt lat="45.79595" lon="6.73818">
        <ele>1925</ele>
        <time>2026-08-14T08:05:26.540Z</time>
      </trkpt>
      <trkpt lat="45.79594" lon="6.73817">
        <ele>1925</ele>
        <time>2026-08-14T08:05:27.540Z</time>
      </trkpt>
      <trkpt lat="45.79593" lon="6.73815">
        <ele>1925</ele>
        <time>2026-08-14T08:05:28.540Z</time>
      </trkpt>
      <trkpt lat="45.79592" lon="6.73815">
        <ele>1925</ele>
        <time>2026-08-14T08:05:29.540Z</time>
      </trkpt>
      <trkpt lat="45.7959" lon="6.73814">
        <ele>1925</ele>
        <time>2026-08-14T08:05:30.540Z</time>
      </trkpt>
      <trkpt lat="45.79589" lon="6.73813">
        <ele>1925</ele>
        <time>2026-08-14T08:05:31.540Z</time>
      </trkpt>
      <trkpt lat="45.79587" lon="6.73812">
        <ele>1926</ele>
        <time>2026-08-14T08:05:32.540Z</time>
      </trkpt>
      <trkpt lat="45.79587" lon="6.73811">
        <ele>1926</ele>
        <time>2026-08-14T08:05:33.540Z</time>
      </trkpt>
      <trkpt lat="45.79585" lon="6.7381">
        <ele>1926</ele>
        <time>2026-08-14T08:05:34.540Z</time>
      </trkpt>
      <trkpt lat="45.79585" lon="6.73809">
        <ele>1926</ele>
        <time>2026-08-14T08:05:35.540Z</time>
      </trkpt>
      <trkpt lat="45.79584" lon="6.73809">
        <ele>1927</ele>
        <time>2026-08-14T08:05:36.540Z</time>
      </trkpt>
      <trkpt lat="45.79583" lon="6.73807">
        <ele>1927</ele>
        <time>2026-08-14T08:05:37.540Z</time>
      </trkpt>
      <trkpt lat="45.79582" lon="6.73806">
        <ele>1927</ele>
        <time>2026-08-14T08:05:38.540Z</time>
      </trkpt>
      <trkpt lat="45.7958" lon="6.73804">
        <ele>1927</ele>
        <time>2026-08-14T08:05:39.540Z</time>
      </trkpt>
      <trkpt lat="45.79579" lon="6.73803">
        <ele>1927</ele>
        <time>2026-08-14T08:05:40.540Z</time>
      </trkpt>
      <trkpt lat="45.79578" lon="6.73803">
        <ele>1927</ele>
        <time>2026-08-14T08:05:41.540Z</time>
      </trkpt>
      <trkpt lat="45.79578" lon="6.73803">
        <ele>1928</ele>
        <time>2026-08-14T08:05:42.540Z</time>
      </trkpt>
      <trkpt lat="45.79578" lon="6.73802">
        <ele>1928</ele>
        <time>2026-08-14T08:05:43.540Z</time>
      </trkpt>
      <trkpt lat="45.79578" lon="6.73801">
        <ele>1928</ele>
        <time>2026-08-14T08:05:44.540Z</time>
      </trkpt>
      <trkpt lat="45.79577" lon="6.738">
        <ele>1929</ele>
        <time>2026-08-14T08:05:45.540Z</time>
      </trkpt>
      <trkpt lat="45.79575" lon="6.73799">
        <ele>1929</ele>
        <time>2026-08-14T08:05:46.540Z</time>
      </trkpt>
      <trkpt lat="45.79574" lon="6.73798">
        <ele>1929</ele>
        <time>2026-08-14T08:05:47.540Z</time>
      </trkpt>
      <trkpt lat="45.79573" lon="6.73798">
        <ele>1929</ele>
        <time>2026-08-14T08:05:48.540Z</time>
      </trkpt>
      <trkpt lat="45.79572" lon="6.73797">
        <ele>1929</ele>
        <time>2026-08-14T08:05:49.540Z</time>
      </trkpt>
      <trkpt lat="45.79571" lon="6.73797">
        <ele>1929</ele>
        <time>2026-08-14T08:05:50.540Z</time>
      </trkpt>
      <trkpt lat="45.79569" lon="6.73797">
        <ele>1929</ele>
        <time>2026-08-14T08:05:51.540Z</time>
      </trkpt>
      <trkpt lat="45.79568" lon="6.73796">
        <ele>1929</ele>
        <time>2026-08-14T08:05:52.540Z</time>
      </trkpt>
      <trkpt lat="45.79566" lon="6.73796">
        <ele>1929</ele>
        <time>2026-08-14T08:05:53.540Z</time>
      </trkpt>
      <trkpt lat="45.79565" lon="6.73795">
        <ele>1929</ele>
        <time>2026-08-14T08:05:54.540Z</time>
      </trkpt>
      <trkpt lat="45.79564" lon="6.73794">
        <ele>1930</ele>
        <time>2026-08-14T08:05:55.540Z</time>
      </trkpt>
      <trkpt lat="45.79563" lon="6.73794">
        <ele>1930</ele>
        <time>2026-08-14T08:05:56.540Z</time>
      </trkpt>
      <trkpt lat="45.79562" lon="6.73794">
        <ele>1930</ele>
        <time>2026-08-14T08:05:57.540Z</time>
      </trkpt>
      <trkpt lat="45.79561" lon="6.73794">
        <ele>1930</ele>
        <time>2026-08-14T08:05:58.540Z</time>
      </trkpt>
      <trkpt lat="45.7956" lon="6.73794">
        <ele>1930</ele>
        <time>2026-08-14T08:05:59.540Z</time>
      </trkpt>
      <trkpt lat="45.79559" lon="6.73793">
        <ele>1930</ele>
        <time>2026-08-14T08:06:00.540Z</time>
      </trkpt>
      <trkpt lat="45.79558" lon="6.73793">
        <ele>1930</ele>
        <time>2026-08-14T08:06:01.540Z</time>
      </trkpt>
      <trkpt lat="45.79557" lon="6.73791">
        <ele>1930</ele>
        <time>2026-08-14T08:06:02.540Z</time>
      </trkpt>
      <trkpt lat="45.79556" lon="6.7379">
        <ele>1931</ele>
        <time>2026-08-14T08:06:03.540Z</time>
      </trkpt>
      <trkpt lat="45.79555" lon="6.73789">
        <ele>1931</ele>
        <time>2026-08-14T08:06:04.540Z</time>
      </trkpt>
      <trkpt lat="45.79554" lon="6.73787">
        <ele>1931</ele>
        <time>2026-08-14T08:06:05.540Z</time>
      </trkpt>
      <trkpt lat="45.79554" lon="6.73786">
        <ele>1931</ele>
        <time>2026-08-14T08:06:06.540Z</time>
      </trkpt>
      <trkpt lat="45.79553" lon="6.73784">
        <ele>1932</ele>
        <time>2026-08-14T08:06:07.540Z</time>
      </trkpt>
      <trkpt lat="45.79552" lon="6.73783">
        <ele>1932</ele>
        <time>2026-08-14T08:06:08.540Z</time>
      </trkpt>
      <trkpt lat="45.79552" lon="6.73782">
        <ele>1932</ele>
        <time>2026-08-14T08:06:09.540Z</time>
      </trkpt>
      <trkpt lat="45.79551" lon="6.73781">
        <ele>1932</ele>
        <time>2026-08-14T08:06:10.540Z</time>
      </trkpt>
      <trkpt lat="45.7955" lon="6.73779">
        <ele>1932</ele>
        <time>2026-08-14T08:06:11.540Z</time>
      </trkpt>
      <trkpt lat="45.7955" lon="6.73778">
        <ele>1932</ele>
        <time>2026-08-14T08:06:12.540Z</time>
      </trkpt>
      <trkpt lat="45.79549" lon="6.73777">
        <ele>1932</ele>
        <time>2026-08-14T08:06:13.540Z</time>
      </trkpt>
      <trkpt lat="45.79547" lon="6.73776">
        <ele>1932</ele>
        <time>2026-08-14T08:06:14.540Z</time>
      </trkpt>
      <trkpt lat="45.79546" lon="6.73775">
        <ele>1932</ele>
        <time>2026-08-14T08:06:15.540Z</time>
      </trkpt>
      <trkpt lat="45.79545" lon="6.73773">
        <ele>1933</ele>
        <time>2026-08-14T08:06:16.540Z</time>
      </trkpt>
      <trkpt lat="45.79544" lon="6.73772">
        <ele>1933</ele>
        <time>2026-08-14T08:06:17.540Z</time>
      </trkpt>
      <trkpt lat="45.79542" lon="6.73771">
        <ele>1933</ele>
        <time>2026-08-14T08:06:18.540Z</time>
      </trkpt>
      <trkpt lat="45.79541" lon="6.73771">
        <ele>1933</ele>
        <time>2026-08-14T08:06:19.540Z</time>
      </trkpt>
      <trkpt lat="45.7954" lon="6.7377">
        <ele>1933</ele>
        <time>2026-08-14T08:06:20.540Z</time>
      </trkpt>
      <trkpt lat="45.79539" lon="6.73769">
        <ele>1932</ele>
        <time>2026-08-14T08:06:21.540Z</time>
      </trkpt>
      <trkpt lat="45.79538" lon="6.73769">
        <ele>1933</ele>
        <time>2026-08-14T08:06:22.540Z</time>
      </trkpt>
      <trkpt lat="45.79537" lon="6.73768">
        <ele>1933</ele>
        <time>2026-08-14T08:06:23.540Z</time>
      </trkpt>
      <trkpt lat="45.79536" lon="6.73767">
        <ele>1933</ele>
        <time>2026-08-14T08:06:24.540Z</time>
      </trkpt>
      <trkpt lat="45.79535" lon="6.73766">
        <ele>1932</ele>
        <time>2026-08-14T08:06:25.540Z</time>
      </trkpt>
      <trkpt lat="45.79533" lon="6.73764">
        <ele>1932</ele>
        <time>2026-08-14T08:06:26.540Z</time>
      </trkpt>
      <trkpt lat="45.79532" lon="6.73764">
        <ele>1932</ele>
        <time>2026-08-14T08:06:27.540Z</time>
      </trkpt>
      <trkpt lat="45.79531" lon="6.73763">
        <ele>1933</ele>
        <time>2026-08-14T08:06:28.540Z</time>
      </trkpt>
      <trkpt lat="45.7953" lon="6.73762">
        <ele>1933</ele>
        <time>2026-08-14T08:06:29.540Z</time>
      </trkpt>
      <trkpt lat="45.79529" lon="6.73761">
        <ele>1933</ele>
        <time>2026-08-14T08:06:30.540Z</time>
      </trkpt>
      <trkpt lat="45.79528" lon="6.7376">
        <ele>1933</ele>
        <time>2026-08-14T08:06:31.540Z</time>
      </trkpt>
      <trkpt lat="45.79527" lon="6.73759">
        <ele>1933</ele>
        <time>2026-08-14T08:06:32.540Z</time>
      </trkpt>
      <trkpt lat="45.79526" lon="6.73758">
        <ele>1933</ele>
        <time>2026-08-14T08:06:33.540Z</time>
      </trkpt>
      <trkpt lat="45.79525" lon="6.73758">
        <ele>1934</ele>
        <time>2026-08-14T08:06:34.540Z</time>
      </trkpt>
      <trkpt lat="45.79524" lon="6.73757">
        <ele>1934</ele>
        <time>2026-08-14T08:06:35.540Z</time>
      </trkpt>
      <trkpt lat="45.79523" lon="6.73757">
        <ele>1934</ele>
        <time>2026-08-14T08:06:36.540Z</time>
      </trkpt>
      <trkpt lat="45.79522" lon="6.73756">
        <ele>1934</ele>
        <time>2026-08-14T08:06:37.540Z</time>
      </trkpt>
      <trkpt lat="45.79522" lon="6.73756">
        <ele>1934</ele>
        <time>2026-08-14T08:06:38.540Z</time>
      </trkpt>
      <trkpt lat="45.79521" lon="6.73755">
        <ele>1934</ele>
        <time>2026-08-14T08:06:39.540Z</time>
      </trkpt>
      <trkpt lat="45.7952" lon="6.73755">
        <ele>1935</ele>
        <time>2026-08-14T08:06:40.540Z</time>
      </trkpt>
      <trkpt lat="45.79519" lon="6.73754">
        <ele>1935</ele>
        <time>2026-08-14T08:06:41.540Z</time>
      </trkpt>
      <trkpt lat="45.79518" lon="6.73754">
        <ele>1935</ele>
        <time>2026-08-14T08:06:42.540Z</time>
      </trkpt>
      <trkpt lat="45.79516" lon="6.73753">
        <ele>1936</ele>
        <time>2026-08-14T08:06:43.540Z</time>
      </trkpt>
      <trkpt lat="45.79515" lon="6.73753">
        <ele>1936</ele>
        <time>2026-08-14T08:06:44.540Z</time>
      </trkpt>
      <trkpt lat="45.79514" lon="6.73752">
        <ele>1936</ele>
        <time>2026-08-14T08:06:45.540Z</time>
      </trkpt>
      <trkpt lat="45.79513" lon="6.73752">
        <ele>1937</ele>
        <time>2026-08-14T08:06:46.540Z</time>
      </trkpt>
      <trkpt lat="45.79512" lon="6.73751">
        <ele>1937</ele>
        <time>2026-08-14T08:06:47.540Z</time>
      </trkpt>
      <trkpt lat="45.79511" lon="6.73751">
        <ele>1937</ele>
        <time>2026-08-14T08:06:48.540Z</time>
      </trkpt>
      <trkpt lat="45.7951" lon="6.7375">
        <ele>1938</ele>
        <time>2026-08-14T08:06:49.540Z</time>
      </trkpt>
      <trkpt lat="45.79508" lon="6.7375">
        <ele>1938</ele>
        <time>2026-08-14T08:06:50.540Z</time>
      </trkpt>
      <trkpt lat="45.79507" lon="6.73749">
        <ele>1938</ele>
        <time>2026-08-14T08:06:51.540Z</time>
      </trkpt>
      <trkpt lat="45.79506" lon="6.73748">
        <ele>1938</ele>
        <time>2026-08-14T08:06:52.540Z</time>
      </trkpt>
      <trkpt lat="45.79505" lon="6.73747">
        <ele>1938</ele>
        <time>2026-08-14T08:06:53.540Z</time>
      </trkpt>
      <trkpt lat="45.79504" lon="6.73746">
        <ele>1939</ele>
        <time>2026-08-14T08:06:54.540Z</time>
      </trkpt>
      <trkpt lat="45.79503" lon="6.73746">
        <ele>1939</ele>
        <time>2026-08-14T08:06:55.540Z</time>
      </trkpt>
      <trkpt lat="45.79502" lon="6.73745">
        <ele>1939</ele>
        <time>2026-08-14T08:06:56.540Z</time>
      </trkpt>
      <trkpt lat="45.79501" lon="6.73745">
        <ele>1939</ele>
        <time>2026-08-14T08:06:57.540Z</time>
      </trkpt>
      <trkpt lat="45.795" lon="6.73745">
        <ele>1939</ele>
        <time>2026-08-14T08:06:58.540Z</time>
      </trkpt>
      <trkpt lat="45.79499" lon="6.73745">
        <ele>1940</ele>
        <time>2026-08-14T08:06:59.540Z</time>
      </trkpt>
      <trkpt lat="45.79497" lon="6.73744">
        <ele>1940</ele>
        <time>2026-08-14T08:07:00.540Z</time>
      </trkpt>
      <trkpt lat="45.79496" lon="6.73744">
        <ele>1940</ele>
        <time>2026-08-14T08:07:01.540Z</time>
      </trkpt>
      <trkpt lat="45.79495" lon="6.73744">
        <ele>1940</ele>
        <time>2026-08-14T08:07:02.540Z</time>
      </trkpt>
      <trkpt lat="45.79493" lon="6.73743">
        <ele>1940</ele>
        <time>2026-08-14T08:07:03.540Z</time>
      </trkpt>
      <trkpt lat="45.79492" lon="6.73742">
        <ele>1940</ele>
        <time>2026-08-14T08:07:04.540Z</time>
      </trkpt>
      <trkpt lat="45.79491" lon="6.73742">
        <ele>1940</ele>
        <time>2026-08-14T08:07:05.540Z</time>
      </trkpt>
      <trkpt lat="45.7949" lon="6.73741">
        <ele>1941</ele>
        <time>2026-08-14T08:07:06.540Z</time>
      </trkpt>
      <trkpt lat="45.79489" lon="6.73741">
        <ele>1941</ele>
        <time>2026-08-14T08:07:07.540Z</time>
      </trkpt>
      <trkpt lat="45.79488" lon="6.73741">
        <ele>1941</ele>
        <time>2026-08-14T08:07:08.540Z</time>
      </trkpt>
      <trkpt lat="45.79487" lon="6.73742">
        <ele>1941</ele>
        <time>2026-08-14T08:07:09.540Z</time>
      </trkpt>
      <trkpt lat="45.79486" lon="6.73742">
        <ele>1941</ele>
        <time>2026-08-14T08:07:10.540Z</time>
      </trkpt>
      <trkpt lat="45.79485" lon="6.73742">
        <ele>1941</ele>
        <time>2026-08-14T08:07:11.540Z</time>
      </trkpt>
      <trkpt lat="45.79483" lon="6.73742">
        <ele>1941</ele>
        <time>2026-08-14T08:07:12.540Z</time>
      </trkpt>
      <trkpt lat="45.79482" lon="6.73742">
        <ele>1941</ele>
        <time>2026-08-14T08:07:13.540Z</time>
      </trkpt>
      <trkpt lat="45.79481" lon="6.73742">
        <ele>1942</ele>
        <time>2026-08-14T08:07:14.540Z</time>
      </trkpt>
      <trkpt lat="45.7948" lon="6.73742">
        <ele>1942</ele>
        <time>2026-08-14T08:07:15.540Z</time>
      </trkpt>
      <trkpt lat="45.79479" lon="6.73742">
        <ele>1943</ele>
        <time>2026-08-14T08:07:16.540Z</time>
      </trkpt>
      <trkpt lat="45.79478" lon="6.73741">
        <ele>1943</ele>
        <time>2026-08-14T08:07:17.540Z</time>
      </trkpt>
      <trkpt lat="45.79476" lon="6.7374">
        <ele>1943</ele>
        <time>2026-08-14T08:07:18.540Z</time>
      </trkpt>
      <trkpt lat="45.79475" lon="6.7374">
        <ele>1943</ele>
        <time>2026-08-14T08:07:19.540Z</time>
      </trkpt>
      <trkpt lat="45.79474" lon="6.7374">
        <ele>1944</ele>
        <time>2026-08-14T08:07:20.540Z</time>
      </trkpt>
      <trkpt lat="45.79473" lon="6.73739">
        <ele>1944</ele>
        <time>2026-08-14T08:07:21.540Z</time>
      </trkpt>
      <trkpt lat="45.79472" lon="6.73739">
        <ele>1945</ele>
        <time>2026-08-14T08:07:22.540Z</time>
      </trkpt>
      <trkpt lat="45.79471" lon="6.73738">
        <ele>1945</ele>
        <time>2026-08-14T08:07:23.540Z</time>
      </trkpt>
      <trkpt lat="45.7947" lon="6.73737">
        <ele>1946</ele>
        <time>2026-08-14T08:07:24.540Z</time>
      </trkpt>
      <trkpt lat="45.79468" lon="6.73736">
        <ele>1946</ele>
        <time>2026-08-14T08:07:25.540Z</time>
      </trkpt>
      <trkpt lat="45.79467" lon="6.73735">
        <ele>1946</ele>
        <time>2026-08-14T08:07:26.540Z</time>
      </trkpt>
      <trkpt lat="45.79466" lon="6.73734">
        <ele>1946</ele>
        <time>2026-08-14T08:07:27.540Z</time>
      </trkpt>
      <trkpt lat="45.79465" lon="6.73733">
        <ele>1946</ele>
        <time>2026-08-14T08:07:28.540Z</time>
      </trkpt>
      <trkpt lat="45.79463" lon="6.73732">
        <ele>1946</ele>
        <time>2026-08-14T08:07:29.540Z</time>
      </trkpt>
      <trkpt lat="45.79462" lon="6.73731">
        <ele>1946</ele>
        <time>2026-08-14T08:07:30.540Z</time>
      </trkpt>
      <trkpt lat="45.79461" lon="6.7373">
        <ele>1946</ele>
        <time>2026-08-14T08:07:31.540Z</time>
      </trkpt>
      <trkpt lat="45.7946" lon="6.7373">
        <ele>1946</ele>
        <time>2026-08-14T08:07:32.540Z</time>
      </trkpt>
      <trkpt lat="45.7946" lon="6.73728">
        <ele>1946</ele>
        <time>2026-08-14T08:07:33.540Z</time>
      </trkpt>
      <trkpt lat="45.79459" lon="6.73727">
        <ele>1946</ele>
        <time>2026-08-14T08:07:34.540Z</time>
      </trkpt>
      <trkpt lat="45.79458" lon="6.73727">
        <ele>1946</ele>
        <time>2026-08-14T08:07:35.540Z</time>
      </trkpt>
      <trkpt lat="45.79457" lon="6.73727">
        <ele>1946</ele>
        <time>2026-08-14T08:07:36.540Z</time>
      </trkpt>
      <trkpt lat="45.79456" lon="6.73727">
        <ele>1947</ele>
        <time>2026-08-14T08:07:37.540Z</time>
      </trkpt>
      <trkpt lat="45.79456" lon="6.73727">
        <ele>1946</ele>
        <time>2026-08-14T08:07:38.540Z</time>
      </trkpt>
      <trkpt lat="45.79456" lon="6.73726">
        <ele>1947</ele>
        <time>2026-08-14T08:07:39.540Z</time>
      </trkpt>
      <trkpt lat="45.79455" lon="6.73725">
        <ele>1947</ele>
        <time>2026-08-14T08:07:40.540Z</time>
      </trkpt>
      <trkpt lat="45.79455" lon="6.73723">
        <ele>1947</ele>
        <time>2026-08-14T08:07:41.540Z</time>
      </trkpt>
      <trkpt lat="45.79454" lon="6.73721">
        <ele>1947</ele>
        <time>2026-08-14T08:07:42.540Z</time>
      </trkpt>
      <trkpt lat="45.79453" lon="6.7372">
        <ele>1947</ele>
        <time>2026-08-14T08:07:43.540Z</time>
      </trkpt>
      <trkpt lat="45.79453" lon="6.73718">
        <ele>1947</ele>
        <time>2026-08-14T08:07:44.540Z</time>
      </trkpt>
      <trkpt lat="45.79452" lon="6.73717">
        <ele>1947</ele>
        <time>2026-08-14T08:07:45.540Z</time>
      </trkpt>
      <trkpt lat="45.79451" lon="6.73716">
        <ele>1947</ele>
        <time>2026-08-14T08:07:46.540Z</time>
      </trkpt>
      <trkpt lat="45.7945" lon="6.73715">
        <ele>1947</ele>
        <time>2026-08-14T08:07:47.540Z</time>
      </trkpt>
      <trkpt lat="45.79448" lon="6.73715">
        <ele>1946</ele>
        <time>2026-08-14T08:07:48.540Z</time>
      </trkpt>
      <trkpt lat="45.79447" lon="6.73715">
        <ele>1947</ele>
        <time>2026-08-14T08:07:49.540Z</time>
      </trkpt>
      <trkpt lat="45.79446" lon="6.73716">
        <ele>1947</ele>
        <time>2026-08-14T08:07:50.540Z</time>
      </trkpt>
      <trkpt lat="45.79445" lon="6.73716">
        <ele>1947</ele>
        <time>2026-08-14T08:07:51.540Z</time>
      </trkpt>
      <trkpt lat="45.79444" lon="6.73716">
        <ele>1947</ele>
        <time>2026-08-14T08:07:52.540Z</time>
      </trkpt>
      <trkpt lat="45.79442" lon="6.73715">
        <ele>1947</ele>
        <time>2026-08-14T08:07:53.540Z</time>
      </trkpt>
      <trkpt lat="45.79441" lon="6.73715">
        <ele>1947</ele>
        <time>2026-08-14T08:07:54.540Z</time>
      </trkpt>
      <trkpt lat="45.7944" lon="6.73715">
        <ele>1947</ele>
        <time>2026-08-14T08:07:55.540Z</time>
      </trkpt>
      <trkpt lat="45.79439" lon="6.73715">
        <ele>1948</ele>
        <time>2026-08-14T08:07:56.540Z</time>
      </trkpt>
      <trkpt lat="45.79438" lon="6.73715">
        <ele>1948</ele>
        <time>2026-08-14T08:07:57.540Z</time>
      </trkpt>
      <trkpt lat="45.79437" lon="6.73715">
        <ele>1948</ele>
        <time>2026-08-14T08:07:58.540Z</time>
      </trkpt>
      <trkpt lat="45.79436" lon="6.73715">
        <ele>1949</ele>
        <time>2026-08-14T08:07:59.540Z</time>
      </trkpt>
      <trkpt lat="45.79435" lon="6.73715">
        <ele>1949</ele>
        <time>2026-08-14T08:08:00.540Z</time>
      </trkpt>
      <trkpt lat="45.79434" lon="6.73714">
        <ele>1949</ele>
        <time>2026-08-14T08:08:01.540Z</time>
      </trkpt>
      <trkpt lat="45.79432" lon="6.73714">
        <ele>1950</ele>
        <time>2026-08-14T08:08:02.540Z</time>
      </trkpt>
      <trkpt lat="45.79431" lon="6.73713">
        <ele>1950</ele>
        <time>2026-08-14T08:08:03.540Z</time>
      </trkpt>
      <trkpt lat="45.7943" lon="6.73713">
        <ele>1951</ele>
        <time>2026-08-14T08:08:04.540Z</time>
      </trkpt>
      <trkpt lat="45.79428" lon="6.73712">
        <ele>1951</ele>
        <time>2026-08-14T08:08:05.540Z</time>
      </trkpt>
      <trkpt lat="45.79427" lon="6.73712">
        <ele>1952</ele>
        <time>2026-08-14T08:08:06.540Z</time>
      </trkpt>
      <trkpt lat="45.79426" lon="6.73713">
        <ele>1952</ele>
        <time>2026-08-14T08:08:07.540Z</time>
      </trkpt>
      <trkpt lat="45.79425" lon="6.73714">
        <ele>1952</ele>
        <time>2026-08-14T08:08:08.540Z</time>
      </trkpt>
      <trkpt lat="45.79424" lon="6.73714">
        <ele>1953</ele>
        <time>2026-08-14T08:08:09.540Z</time>
      </trkpt>
      <trkpt lat="45.79423" lon="6.73715">
        <ele>1953</ele>
        <time>2026-08-14T08:08:10.540Z</time>
      </trkpt>
      <trkpt lat="45.79422" lon="6.73715">
        <ele>1953</ele>
        <time>2026-08-14T08:08:11.540Z</time>
      </trkpt>
      <trkpt lat="45.79421" lon="6.73715">
        <ele>1954</ele>
        <time>2026-08-14T08:08:12.540Z</time>
      </trkpt>
      <trkpt lat="45.7942" lon="6.73715">
        <ele>1954</ele>
        <time>2026-08-14T08:08:13.540Z</time>
      </trkpt>
      <trkpt lat="45.79418" lon="6.73715">
        <ele>1954</ele>
        <time>2026-08-14T08:08:14.540Z</time>
      </trkpt>
      <trkpt lat="45.79417" lon="6.73715">
        <ele>1954</ele>
        <time>2026-08-14T08:08:15.540Z</time>
      </trkpt>
      <trkpt lat="45.79416" lon="6.73715">
        <ele>1954</ele>
        <time>2026-08-14T08:08:16.540Z</time>
      </trkpt>
      <trkpt lat="45.79414" lon="6.73715">
        <ele>1955</ele>
        <time>2026-08-14T08:08:17.540Z</time>
      </trkpt>
      <trkpt lat="45.79413" lon="6.73715">
        <ele>1955</ele>
        <time>2026-08-14T08:08:18.540Z</time>
      </trkpt>
      <trkpt lat="45.79412" lon="6.73715">
        <ele>1955</ele>
        <time>2026-08-14T08:08:19.540Z</time>
      </trkpt>
      <trkpt lat="45.7941" lon="6.73715">
        <ele>1956</ele>
        <time>2026-08-14T08:08:20.540Z</time>
      </trkpt>
      <trkpt lat="45.79409" lon="6.73715">
        <ele>1956</ele>
        <time>2026-08-14T08:08:21.540Z</time>
      </trkpt>
      <trkpt lat="45.79409" lon="6.73715">
        <ele>1956</ele>
        <time>2026-08-14T08:08:22.540Z</time>
      </trkpt>
      <trkpt lat="45.79408" lon="6.73715">
        <ele>1956</ele>
        <time>2026-08-14T08:08:23.540Z</time>
      </trkpt>
      <trkpt lat="45.79407" lon="6.73715">
        <ele>1956</ele>
        <time>2026-08-14T08:08:24.540Z</time>
      </trkpt>
      <trkpt lat="45.79406" lon="6.73715">
        <ele>1957</ele>
        <time>2026-08-14T08:08:25.540Z</time>
      </trkpt>
      <trkpt lat="45.79405" lon="6.73714">
        <ele>1957</ele>
        <time>2026-08-14T08:08:26.540Z</time>
      </trkpt>
      <trkpt lat="45.79404" lon="6.73714">
        <ele>1957</ele>
        <time>2026-08-14T08:08:27.540Z</time>
      </trkpt>
      <trkpt lat="45.79403" lon="6.73714">
        <ele>1957</ele>
        <time>2026-08-14T08:08:28.540Z</time>
      </trkpt>
      <trkpt lat="45.79402" lon="6.73713">
        <ele>1958</ele>
        <time>2026-08-14T08:08:29.540Z</time>
      </trkpt>
      <trkpt lat="45.79401" lon="6.73712">
        <ele>1958</ele>
        <time>2026-08-14T08:08:30.540Z</time>
      </trkpt>
      <trkpt lat="45.794" lon="6.73712">
        <ele>1959</ele>
        <time>2026-08-14T08:08:31.540Z</time>
      </trkpt>
      <trkpt lat="45.79399" lon="6.73711">
        <ele>1959</ele>
        <time>2026-08-14T08:08:32.540Z</time>
      </trkpt>
      <trkpt lat="45.79398" lon="6.73711">
        <ele>1959</ele>
        <time>2026-08-14T08:08:33.540Z</time>
      </trkpt>
      <trkpt lat="45.79397" lon="6.7371">
        <ele>1959</ele>
        <time>2026-08-14T08:08:34.540Z</time>
      </trkpt>
      <trkpt lat="45.79396" lon="6.7371">
        <ele>1960</ele>
        <time>2026-08-14T08:08:35.540Z</time>
      </trkpt>
      <trkpt lat="45.79395" lon="6.73709">
        <ele>1961</ele>
        <time>2026-08-14T08:08:36.540Z</time>
      </trkpt>
      <trkpt lat="45.79393" lon="6.73709">
        <ele>1961</ele>
        <time>2026-08-14T08:08:37.540Z</time>
      </trkpt>
      <trkpt lat="45.79392" lon="6.73709">
        <ele>1961</ele>
        <time>2026-08-14T08:08:38.540Z</time>
      </trkpt>
      <trkpt lat="45.79391" lon="6.73708">
        <ele>1961</ele>
        <time>2026-08-14T08:08:39.540Z</time>
      </trkpt>
      <trkpt lat="45.7939" lon="6.73708">
        <ele>1961</ele>
        <time>2026-08-14T08:08:40.540Z</time>
      </trkpt>
      <trkpt lat="45.79388" lon="6.73707">
        <ele>1961</ele>
        <time>2026-08-14T08:08:41.540Z</time>
      </trkpt>
      <trkpt lat="45.79387" lon="6.73707">
        <ele>1961</ele>
        <time>2026-08-14T08:08:42.540Z</time>
      </trkpt>
      <trkpt lat="45.79386" lon="6.73706">
        <ele>1961</ele>
        <time>2026-08-14T08:08:43.540Z</time>
      </trkpt>
      <trkpt lat="45.79385" lon="6.73705">
        <ele>1961</ele>
        <time>2026-08-14T08:08:44.540Z</time>
      </trkpt>
      <trkpt lat="45.79384" lon="6.73705">
        <ele>1961</ele>
        <time>2026-08-14T08:08:45.540Z</time>
      </trkpt>
      <trkpt lat="45.79383" lon="6.73704">
        <ele>1961</ele>
        <time>2026-08-14T08:08:46.540Z</time>
      </trkpt>
      <trkpt lat="45.79382" lon="6.73704">
        <ele>1961</ele>
        <time>2026-08-14T08:08:47.540Z</time>
      </trkpt>
      <trkpt lat="45.79381" lon="6.73703">
        <ele>1961</ele>
        <time>2026-08-14T08:08:48.540Z</time>
      </trkpt>
      <trkpt lat="45.79379" lon="6.73702">
        <ele>1961</ele>
        <time>2026-08-14T08:08:49.540Z</time>
      </trkpt>
      <trkpt lat="45.79378" lon="6.73702">
        <ele>1961</ele>
        <time>2026-08-14T08:08:50.540Z</time>
      </trkpt>
      <trkpt lat="45.79376" lon="6.73701">
        <ele>1961</ele>
        <time>2026-08-14T08:08:51.540Z</time>
      </trkpt>
      <trkpt lat="45.79375" lon="6.737">
        <ele>1961</ele>
        <time>2026-08-14T08:08:52.540Z</time>
      </trkpt>
      <trkpt lat="45.79374" lon="6.73699">
        <ele>1960</ele>
        <time>2026-08-14T08:08:53.540Z</time>
      </trkpt>
      <trkpt lat="45.79372" lon="6.73698">
        <ele>1960</ele>
        <time>2026-08-14T08:08:54.540Z</time>
      </trkpt>
      <trkpt lat="45.7937" lon="6.73697">
        <ele>1960</ele>
        <time>2026-08-14T08:08:55.540Z</time>
      </trkpt>
      <trkpt lat="45.79369" lon="6.73697">
        <ele>1960</ele>
        <time>2026-08-14T08:08:56.540Z</time>
      </trkpt>
      <trkpt lat="45.79368" lon="6.73696">
        <ele>1960</ele>
        <time>2026-08-14T08:08:57.540Z</time>
      </trkpt>
      <trkpt lat="45.79367" lon="6.73696">
        <ele>1959</ele>
        <time>2026-08-14T08:08:58.540Z</time>
      </trkpt>
      <trkpt lat="45.79366" lon="6.73695">
        <ele>1959</ele>
        <time>2026-08-14T08:08:59.540Z</time>
      </trkpt>
      <trkpt lat="45.79364" lon="6.73695">
        <ele>1959</ele>
        <time>2026-08-14T08:09:00.540Z</time>
      </trkpt>
      <trkpt lat="45.79363" lon="6.73694">
        <ele>1959</ele>
        <time>2026-08-14T08:09:01.540Z</time>
      </trkpt>
      <trkpt lat="45.79362" lon="6.73693">
        <ele>1959</ele>
        <time>2026-08-14T08:09:02.540Z</time>
      </trkpt>
      <trkpt lat="45.7936" lon="6.73693">
        <ele>1960</ele>
        <time>2026-08-14T08:09:03.540Z</time>
      </trkpt>
      <trkpt lat="45.79359" lon="6.73692">
        <ele>1960</ele>
        <time>2026-08-14T08:09:04.540Z</time>
      </trkpt>
      <trkpt lat="45.79357" lon="6.73691">
        <ele>1960</ele>
        <time>2026-08-14T08:09:05.540Z</time>
      </trkpt>
      <trkpt lat="45.79355" lon="6.7369">
        <ele>1960</ele>
        <time>2026-08-14T08:09:06.540Z</time>
      </trkpt>
      <trkpt lat="45.79354" lon="6.73689">
        <ele>1961</ele>
        <time>2026-08-14T08:09:07.540Z</time>
      </trkpt>
      <trkpt lat="45.79352" lon="6.73688">
        <ele>1961</ele>
        <time>2026-08-14T08:09:08.540Z</time>
      </trkpt>
      <trkpt lat="45.79351" lon="6.73686">
        <ele>1961</ele>
        <time>2026-08-14T08:09:09.540Z</time>
      </trkpt>
      <trkpt lat="45.7935" lon="6.73684">
        <ele>1961</ele>
        <time>2026-08-14T08:09:10.540Z</time>
      </trkpt>
      <trkpt lat="45.79349" lon="6.73683">
        <ele>1961</ele>
        <time>2026-08-14T08:09:11.540Z</time>
      </trkpt>
      <trkpt lat="45.79347" lon="6.73682">
        <ele>1962</ele>
        <time>2026-08-14T08:09:12.540Z</time>
      </trkpt>
      <trkpt lat="45.79346" lon="6.73681">
        <ele>1962</ele>
        <time>2026-08-14T08:09:13.540Z</time>
      </trkpt>
      <trkpt lat="45.79344" lon="6.73681">
        <ele>1962</ele>
        <time>2026-08-14T08:09:14.540Z</time>
      </trkpt>
      <trkpt lat="45.79343" lon="6.73681">
        <ele>1962</ele>
        <time>2026-08-14T08:09:15.540Z</time>
      </trkpt>
      <trkpt lat="45.79342" lon="6.73681">
        <ele>1962</ele>
        <time>2026-08-14T08:09:16.540Z</time>
      </trkpt>
      <trkpt lat="45.7934" lon="6.73682">
        <ele>1962</ele>
        <time>2026-08-14T08:09:17.540Z</time>
      </trkpt>
      <trkpt lat="45.79339" lon="6.73682">
        <ele>1962</ele>
        <time>2026-08-14T08:09:18.540Z</time>
      </trkpt>
      <trkpt lat="45.79337" lon="6.73682">
        <ele>1963</ele>
        <time>2026-08-14T08:09:19.540Z</time>
      </trkpt>
      <trkpt lat="45.79335" lon="6.73682">
        <ele>1963</ele>
        <time>2026-08-14T08:09:20.540Z</time>
      </trkpt>
      <trkpt lat="45.79333" lon="6.73682">
        <ele>1963</ele>
        <time>2026-08-14T08:09:21.540Z</time>
      </trkpt>
      <trkpt lat="45.79332" lon="6.73681">
        <ele>1963</ele>
        <time>2026-08-14T08:09:22.540Z</time>
      </trkpt>
      <trkpt lat="45.79331" lon="6.73681">
        <ele>1963</ele>
        <time>2026-08-14T08:09:23.540Z</time>
      </trkpt>
      <trkpt lat="45.79329" lon="6.73679">
        <ele>1963</ele>
        <time>2026-08-14T08:09:24.540Z</time>
      </trkpt>
      <trkpt lat="45.79328" lon="6.73678">
        <ele>1963</ele>
        <time>2026-08-14T08:09:25.540Z</time>
      </trkpt>
      <trkpt lat="45.79326" lon="6.73677">
        <ele>1963</ele>
        <time>2026-08-14T08:09:26.540Z</time>
      </trkpt>
      <trkpt lat="45.79325" lon="6.73676">
        <ele>1963</ele>
        <time>2026-08-14T08:09:27.540Z</time>
      </trkpt>
      <trkpt lat="45.79323" lon="6.73675">
        <ele>1964</ele>
        <time>2026-08-14T08:09:28.540Z</time>
      </trkpt>
      <trkpt lat="45.79322" lon="6.73674">
        <ele>1964</ele>
        <time>2026-08-14T08:09:29.540Z</time>
      </trkpt>
      <trkpt lat="45.7932" lon="6.73673">
        <ele>1964</ele>
        <time>2026-08-14T08:09:30.540Z</time>
      </trkpt>
      <trkpt lat="45.79319" lon="6.73671">
        <ele>1964</ele>
        <time>2026-08-14T08:09:31.540Z</time>
      </trkpt>
      <trkpt lat="45.79318" lon="6.7367">
        <ele>1964</ele>
        <time>2026-08-14T08:09:32.540Z</time>
      </trkpt>
      <trkpt lat="45.79316" lon="6.73668">
        <ele>1964</ele>
        <time>2026-08-14T08:09:33.540Z</time>
      </trkpt>
      <trkpt lat="45.79315" lon="6.73667">
        <ele>1964</ele>
        <time>2026-08-14T08:09:34.540Z</time>
      </trkpt>
      <trkpt lat="45.79314" lon="6.73666">
        <ele>1964</ele>
        <time>2026-08-14T08:09:35.540Z</time>
      </trkpt>
      <trkpt lat="45.79312" lon="6.73664">
        <ele>1964</ele>
        <time>2026-08-14T08:09:36.540Z</time>
      </trkpt>
      <trkpt lat="45.79311" lon="6.73663">
        <ele>1964</ele>
        <time>2026-08-14T08:09:37.540Z</time>
      </trkpt>
      <trkpt lat="45.7931" lon="6.73662">
        <ele>1964</ele>
        <time>2026-08-14T08:09:38.540Z</time>
      </trkpt>
      <trkpt lat="45.79308" lon="6.73661">
        <ele>1963</ele>
        <time>2026-08-14T08:09:39.540Z</time>
      </trkpt>
      <trkpt lat="45.79307" lon="6.7366">
        <ele>1963</ele>
        <time>2026-08-14T08:09:40.540Z</time>
      </trkpt>
      <trkpt lat="45.79306" lon="6.73659">
        <ele>1963</ele>
        <time>2026-08-14T08:09:41.540Z</time>
      </trkpt>
      <trkpt lat="45.79305" lon="6.73658">
        <ele>1963</ele>
        <time>2026-08-14T08:09:42.540Z</time>
      </trkpt>
      <trkpt lat="45.79303" lon="6.73658">
        <ele>1963</ele>
        <time>2026-08-14T08:09:43.540Z</time>
      </trkpt>
      <trkpt lat="45.79302" lon="6.73656">
        <ele>1964</ele>
        <time>2026-08-14T08:09:44.540Z</time>
      </trkpt>
      <trkpt lat="45.793" lon="6.73656">
        <ele>1964</ele>
        <time>2026-08-14T08:09:45.540Z</time>
      </trkpt>
      <trkpt lat="45.79299" lon="6.73655">
        <ele>1964</ele>
        <time>2026-08-14T08:09:46.540Z</time>
      </trkpt>
      <trkpt lat="45.79297" lon="6.73655">
        <ele>1964</ele>
        <time>2026-08-14T08:09:47.540Z</time>
      </trkpt>
      <trkpt lat="45.79296" lon="6.73655">
        <ele>1965</ele>
        <time>2026-08-14T08:09:48.540Z</time>
      </trkpt>
      <trkpt lat="45.79295" lon="6.73654">
        <ele>1965</ele>
        <time>2026-08-14T08:09:49.540Z</time>
      </trkpt>
      <trkpt lat="45.79293" lon="6.73653">
        <ele>1965</ele>
        <time>2026-08-14T08:09:50.540Z</time>
      </trkpt>
      <trkpt lat="45.79292" lon="6.73652">
        <ele>1965</ele>
        <time>2026-08-14T08:09:51.540Z</time>
      </trkpt>
      <trkpt lat="45.79291" lon="6.73651">
        <ele>1965</ele>
        <time>2026-08-14T08:09:52.540Z</time>
      </trkpt>
      <trkpt lat="45.7929" lon="6.7365">
        <ele>1965</ele>
        <time>2026-08-14T08:09:53.540Z</time>
      </trkpt>
      <trkpt lat="45.79289" lon="6.73649">
        <ele>1966</ele>
        <time>2026-08-14T08:09:54.540Z</time>
      </trkpt>
      <trkpt lat="45.79288" lon="6.73648">
        <ele>1966</ele>
        <time>2026-08-14T08:09:55.540Z</time>
      </trkpt>
      <trkpt lat="45.79287" lon="6.73647">
        <ele>1966</ele>
        <time>2026-08-14T08:09:56.540Z</time>
      </trkpt>
      <trkpt lat="45.79286" lon="6.73646">
        <ele>1966</ele>
        <time>2026-08-14T08:09:57.540Z</time>
      </trkpt>
      <trkpt lat="45.79284" lon="6.73644">
        <ele>1966</ele>
        <time>2026-08-14T08:09:58.540Z</time>
      </trkpt>
      <trkpt lat="45.79283" lon="6.73644">
        <ele>1966</ele>
        <time>2026-08-14T08:09:59.540Z</time>
      </trkpt>
      <trkpt lat="45.79282" lon="6.73643">
        <ele>1966</ele>
        <time>2026-08-14T08:10:00.540Z</time>
      </trkpt>
      <trkpt lat="45.7928" lon="6.73642">
        <ele>1966</ele>
        <time>2026-08-14T08:10:01.540Z</time>
      </trkpt>
      <trkpt lat="45.79279" lon="6.73641">
        <ele>1966</ele>
        <time>2026-08-14T08:10:02.540Z</time>
      </trkpt>
      <trkpt lat="45.79278" lon="6.7364">
        <ele>1966</ele>
        <time>2026-08-14T08:10:03.540Z</time>
      </trkpt>
      <trkpt lat="45.79277" lon="6.73639">
        <ele>1966</ele>
        <time>2026-08-14T08:10:04.540Z</time>
      </trkpt>
      <trkpt lat="45.79276" lon="6.73639">
        <ele>1966</ele>
        <time>2026-08-14T08:10:05.540Z</time>
      </trkpt>
      <trkpt lat="45.79274" lon="6.73638">
        <ele>1966</ele>
        <time>2026-08-14T08:10:06.540Z</time>
      </trkpt>
      <trkpt lat="45.79273" lon="6.73637">
        <ele>1966</ele>
        <time>2026-08-14T08:10:07.540Z</time>
      </trkpt>
      <trkpt lat="45.79272" lon="6.73636">
        <ele>1966</ele>
        <time>2026-08-14T08:10:08.540Z</time>
      </trkpt>
      <trkpt lat="45.7927" lon="6.73635">
        <ele>1965</ele>
        <time>2026-08-14T08:10:09.540Z</time>
      </trkpt>
      <trkpt lat="45.79269" lon="6.73634">
        <ele>1965</ele>
        <time>2026-08-14T08:10:10.540Z</time>
      </trkpt>
      <trkpt lat="45.79267" lon="6.73633">
        <ele>1965</ele>
        <time>2026-08-14T08:10:11.540Z</time>
      </trkpt>
      <trkpt lat="45.79266" lon="6.73632">
        <ele>1965</ele>
        <time>2026-08-14T08:10:12.540Z</time>
      </trkpt>
      <trkpt lat="45.79264" lon="6.73631">
        <ele>1966</ele>
        <time>2026-08-14T08:10:13.540Z</time>
      </trkpt>
      <trkpt lat="45.79263" lon="6.7363">
        <ele>1966</ele>
        <time>2026-08-14T08:10:14.540Z</time>
      </trkpt>
      <trkpt lat="45.79262" lon="6.73629">
        <ele>1967</ele>
        <time>2026-08-14T08:10:15.540Z</time>
      </trkpt>
      <trkpt lat="45.79261" lon="6.73628">
        <ele>1967</ele>
        <time>2026-08-14T08:10:16.540Z</time>
      </trkpt>
      <trkpt lat="45.79261" lon="6.73627">
        <ele>1968</ele>
        <time>2026-08-14T08:10:17.540Z</time>
      </trkpt>
      <trkpt lat="45.7926" lon="6.73625">
        <ele>1968</ele>
        <time>2026-08-14T08:10:18.540Z</time>
      </trkpt>
      <trkpt lat="45.79259" lon="6.73623">
        <ele>1968</ele>
        <time>2026-08-14T08:10:19.540Z</time>
      </trkpt>
      <trkpt lat="45.79259" lon="6.73621">
        <ele>1969</ele>
        <time>2026-08-14T08:10:20.540Z</time>
      </trkpt>
      <trkpt lat="45.79258" lon="6.73619">
        <ele>1969</ele>
        <time>2026-08-14T08:10:21.540Z</time>
      </trkpt>
      <trkpt lat="45.79257" lon="6.73617">
        <ele>1969</ele>
        <time>2026-08-14T08:10:22.540Z</time>
      </trkpt>
      <trkpt lat="45.79256" lon="6.73615">
        <ele>1969</ele>
        <time>2026-08-14T08:10:23.540Z</time>
      </trkpt>
      <trkpt lat="45.79255" lon="6.73613">
        <ele>1970</ele>
        <time>2026-08-14T08:10:24.540Z</time>
      </trkpt>
      <trkpt lat="45.79254" lon="6.73611">
        <ele>1970</ele>
        <time>2026-08-14T08:10:25.540Z</time>
      </trkpt>
      <trkpt lat="45.79253" lon="6.73609">
        <ele>1970</ele>
        <time>2026-08-14T08:10:26.540Z</time>
      </trkpt>
      <trkpt lat="45.79252" lon="6.73607">
        <ele>1969</ele>
        <time>2026-08-14T08:10:27.540Z</time>
      </trkpt>
      <trkpt lat="45.79251" lon="6.73605">
        <ele>1969</ele>
        <time>2026-08-14T08:10:28.540Z</time>
      </trkpt>
      <trkpt lat="45.7925" lon="6.73603">
        <ele>1969</ele>
        <time>2026-08-14T08:10:29.540Z</time>
      </trkpt>
      <trkpt lat="45.79248" lon="6.73602">
        <ele>1969</ele>
        <time>2026-08-14T08:10:30.540Z</time>
      </trkpt>
      <trkpt lat="45.79247" lon="6.73601">
        <ele>1969</ele>
        <time>2026-08-14T08:10:31.540Z</time>
      </trkpt>
      <trkpt lat="45.79245" lon="6.73599">
        <ele>1969</ele>
        <time>2026-08-14T08:10:32.540Z</time>
      </trkpt>
      <trkpt lat="45.79244" lon="6.73599">
        <ele>1969</ele>
        <time>2026-08-14T08:10:33.540Z</time>
      </trkpt>
      <trkpt lat="45.79242" lon="6.73598">
        <ele>1968</ele>
        <time>2026-08-14T08:10:34.540Z</time>
      </trkpt>
      <trkpt lat="45.79241" lon="6.73597">
        <ele>1968</ele>
        <time>2026-08-14T08:10:35.540Z</time>
      </trkpt>
      <trkpt lat="45.79239" lon="6.73596">
        <ele>1968</ele>
        <time>2026-08-14T08:10:36.540Z</time>
      </trkpt>
      <trkpt lat="45.79238" lon="6.73594">
        <ele>1968</ele>
        <time>2026-08-14T08:10:37.540Z</time>
      </trkpt>
      <trkpt lat="45.79237" lon="6.73592">
        <ele>1967</ele>
        <time>2026-08-14T08:10:38.540Z</time>
      </trkpt>
      <trkpt lat="45.79235" lon="6.7359">
        <ele>1967</ele>
        <time>2026-08-14T08:10:39.540Z</time>
      </trkpt>
      <trkpt lat="45.79234" lon="6.73588">
        <ele>1967</ele>
        <time>2026-08-14T08:10:40.540Z</time>
      </trkpt>
      <trkpt lat="45.79233" lon="6.73586">
        <ele>1967</ele>
        <time>2026-08-14T08:10:41.540Z</time>
      </trkpt>
      <trkpt lat="45.79232" lon="6.73584">
        <ele>1967</ele>
        <time>2026-08-14T08:10:42.540Z</time>
      </trkpt>
      <trkpt lat="45.79231" lon="6.73582">
        <ele>1968</ele>
        <time>2026-08-14T08:10:43.540Z</time>
      </trkpt>
      <trkpt lat="45.7923" lon="6.7358">
        <ele>1968</ele>
        <time>2026-08-14T08:10:44.540Z</time>
      </trkpt>
      <trkpt lat="45.79229" lon="6.73577">
        <ele>1968</ele>
        <time>2026-08-14T08:10:45.540Z</time>
      </trkpt>
      <trkpt lat="45.79228" lon="6.73575">
        <ele>1968</ele>
        <time>2026-08-14T08:10:46.540Z</time>
      </trkpt>
      <trkpt lat="45.79227" lon="6.73573">
        <ele>1968</ele>
        <time>2026-08-14T08:10:47.540Z</time>
      </trkpt>
      <trkpt lat="45.79227" lon="6.7357">
        <ele>1969</ele>
        <time>2026-08-14T08:10:48.540Z</time>
      </trkpt>
      <trkpt lat="45.79226" lon="6.73568">
        <ele>1969</ele>
        <time>2026-08-14T08:10:49.540Z</time>
      </trkpt>
      <trkpt lat="45.79225" lon="6.73567">
        <ele>1969</ele>
        <time>2026-08-14T08:10:50.540Z</time>
      </trkpt>
      <trkpt lat="45.79224" lon="6.73565">
        <ele>1969</ele>
        <time>2026-08-14T08:10:51.540Z</time>
      </trkpt>
      <trkpt lat="45.79224" lon="6.73563">
        <ele>1969</ele>
        <time>2026-08-14T08:10:52.540Z</time>
      </trkpt>
      <trkpt lat="45.79223" lon="6.73562">
        <ele>1969</ele>
        <time>2026-08-14T08:10:53.540Z</time>
      </trkpt>
      <trkpt lat="45.79222" lon="6.7356">
        <ele>1969</ele>
        <time>2026-08-14T08:10:54.540Z</time>
      </trkpt>
      <trkpt lat="45.79222" lon="6.7356">
        <ele>1969</ele>
        <time>2026-08-14T08:10:55.540Z</time>
      </trkpt>
      <trkpt lat="45.79221" lon="6.73559">
        <ele>1969</ele>
        <time>2026-08-14T08:10:56.540Z</time>
      </trkpt>
      <trkpt lat="45.79221" lon="6.73559">
        <ele>1968</ele>
        <time>2026-08-14T08:10:57.540Z</time>
      </trkpt>
      <trkpt lat="45.79221" lon="6.73558">
        <ele>1968</ele>
        <time>2026-08-14T08:10:58.540Z</time>
      </trkpt>
      <trkpt lat="45.7922" lon="6.73558">
        <ele>1968</ele>
        <time>2026-08-14T08:10:59.540Z</time>
      </trkpt>
      <trkpt lat="45.7922" lon="6.73557">
        <ele>1967</ele>
        <time>2026-08-14T08:11:00.540Z</time>
      </trkpt>
      <trkpt lat="45.7922" lon="6.73557">
        <ele>1967</ele>
        <time>2026-08-14T08:11:01.540Z</time>
      </trkpt>
      <trkpt lat="45.7922" lon="6.73557">
        <ele>1967</ele>
        <time>2026-08-14T08:11:02.540Z</time>
      </trkpt>
      <trkpt lat="45.7922" lon="6.73557">
        <ele>1967</ele>
        <time>2026-08-14T08:11:03.540Z</time>
      </trkpt>
      <trkpt lat="45.7922" lon="6.73557">
        <ele>1967</ele>
        <time>2026-08-14T08:11:04.540Z</time>
      </trkpt>
      <trkpt lat="45.79219" lon="6.73556">
        <ele>1967</ele>
        <time>2026-08-14T08:11:05.540Z</time>
      </trkpt>
      <trkpt lat="45.79218" lon="6.73556">
        <ele>1967</ele>
        <time>2026-08-14T08:11:06.540Z</time>
      </trkpt>
      <trkpt lat="45.79217" lon="6.73555">
        <ele>1967</ele>
        <time>2026-08-14T08:11:07.540Z</time>
      </trkpt>
      <trkpt lat="45.79215" lon="6.73555">
        <ele>1967</ele>
        <time>2026-08-14T08:11:08.540Z</time>
      </trkpt>
      <trkpt lat="45.79213" lon="6.73554">
        <ele>1968</ele>
        <time>2026-08-14T08:11:09.540Z</time>
      </trkpt>
      <trkpt lat="45.79212" lon="6.73554">
        <ele>1968</ele>
        <time>2026-08-14T08:11:10.540Z</time>
      </trkpt>
      <trkpt lat="45.7921" lon="6.73554">
        <ele>1968</ele>
        <time>2026-08-14T08:11:11.540Z</time>
      </trkpt>
      <trkpt lat="45.79208" lon="6.73553">
        <ele>1968</ele>
        <time>2026-08-14T08:11:12.540Z</time>
      </trkpt>
      <trkpt lat="45.79206" lon="6.73552">
        <ele>1968</ele>
        <time>2026-08-14T08:11:13.540Z</time>
      </trkpt>
      <trkpt lat="45.79205" lon="6.73551">
        <ele>1968</ele>
        <time>2026-08-14T08:11:14.540Z</time>
      </trkpt>
      <trkpt lat="45.79203" lon="6.7355">
        <ele>1968</ele>
        <time>2026-08-14T08:11:15.540Z</time>
      </trkpt>
      <trkpt lat="45.79201" lon="6.73548">
        <ele>1968</ele>
        <time>2026-08-14T08:11:16.540Z</time>
      </trkpt>
      <trkpt lat="45.792" lon="6.73547">
        <ele>1968</ele>
        <time>2026-08-14T08:11:17.540Z</time>
      </trkpt>
      <trkpt lat="45.79199" lon="6.73545">
        <ele>1968</ele>
        <time>2026-08-14T08:11:18.540Z</time>
      </trkpt>
      <trkpt lat="45.79198" lon="6.73544">
        <ele>1968</ele>
        <time>2026-08-14T08:11:19.540Z</time>
      </trkpt>
      <trkpt lat="45.79197" lon="6.73543">
        <ele>1968</ele>
        <time>2026-08-14T08:11:20.540Z</time>
      </trkpt>
      <trkpt lat="45.79196" lon="6.73542">
        <ele>1968</ele>
        <time>2026-08-14T08:11:21.540Z</time>
      </trkpt>
      <trkpt lat="45.79195" lon="6.73541">
        <ele>1968</ele>
        <time>2026-08-14T08:11:22.540Z</time>
      </trkpt>
      <trkpt lat="45.79195" lon="6.7354">
        <ele>1969</ele>
        <time>2026-08-14T08:11:23.540Z</time>
      </trkpt>
      <trkpt lat="45.79194" lon="6.73539">
        <ele>1969</ele>
        <time>2026-08-14T08:11:24.540Z</time>
      </trkpt>
      <trkpt lat="45.79193" lon="6.73537">
        <ele>1969</ele>
        <time>2026-08-14T08:11:25.540Z</time>
      </trkpt>
      <trkpt lat="45.79193" lon="6.73536">
        <ele>1969</ele>
        <time>2026-08-14T08:11:26.540Z</time>
      </trkpt>
      <trkpt lat="45.79192" lon="6.73535">
        <ele>1969</ele>
        <time>2026-08-14T08:11:27.540Z</time>
      </trkpt>
      <trkpt lat="45.79191" lon="6.73535">
        <ele>1969</ele>
        <time>2026-08-14T08:11:28.540Z</time>
      </trkpt>
      <trkpt lat="45.7919" lon="6.73534">
        <ele>1969</ele>
        <time>2026-08-14T08:11:29.540Z</time>
      </trkpt>
      <trkpt lat="45.79189" lon="6.73532">
        <ele>1969</ele>
        <time>2026-08-14T08:11:30.540Z</time>
      </trkpt>
      <trkpt lat="45.79189" lon="6.73531">
        <ele>1970</ele>
        <time>2026-08-14T08:11:31.540Z</time>
      </trkpt>
      <trkpt lat="45.79188" lon="6.7353">
        <ele>1970</ele>
        <time>2026-08-14T08:11:32.540Z</time>
      </trkpt>
      <trkpt lat="45.79187" lon="6.73528">
        <ele>1971</ele>
        <time>2026-08-14T08:11:33.540Z</time>
      </trkpt>
      <trkpt lat="45.79186" lon="6.73526">
        <ele>1971</ele>
        <time>2026-08-14T08:11:34.540Z</time>
      </trkpt>
      <trkpt lat="45.79186" lon="6.73524">
        <ele>1971</ele>
        <time>2026-08-14T08:11:35.540Z</time>
      </trkpt>
      <trkpt lat="45.79185" lon="6.73523">
        <ele>1971</ele>
        <time>2026-08-14T08:11:36.540Z</time>
      </trkpt>
      <trkpt lat="45.79185" lon="6.73521">
        <ele>1972</ele>
        <time>2026-08-14T08:11:37.540Z</time>
      </trkpt>
      <trkpt lat="45.79184" lon="6.73519">
        <ele>1972</ele>
        <time>2026-08-14T08:11:38.540Z</time>
      </trkpt>
      <trkpt lat="45.79184" lon="6.73517">
        <ele>1972</ele>
        <time>2026-08-14T08:11:39.540Z</time>
      </trkpt>
      <trkpt lat="45.79183" lon="6.73515">
        <ele>1972</ele>
        <time>2026-08-14T08:11:40.540Z</time>
      </trkpt>
      <trkpt lat="45.79183" lon="6.73513">
        <ele>1973</ele>
        <time>2026-08-14T08:11:41.540Z</time>
      </trkpt>
      <trkpt lat="45.79182" lon="6.73511">
        <ele>1973</ele>
        <time>2026-08-14T08:11:42.540Z</time>
      </trkpt>
      <trkpt lat="45.79182" lon="6.73509">
        <ele>1973</ele>
        <time>2026-08-14T08:11:43.540Z</time>
      </trkpt>
      <trkpt lat="45.79182" lon="6.73506">
        <ele>1974</ele>
        <time>2026-08-14T08:11:44.540Z</time>
      </trkpt>
      <trkpt lat="45.79181" lon="6.73504">
        <ele>1974</ele>
        <time>2026-08-14T08:11:45.540Z</time>
      </trkpt>
      <trkpt lat="45.79181" lon="6.73502">
        <ele>1974</ele>
        <time>2026-08-14T08:11:46.540Z</time>
      </trkpt>
      <trkpt lat="45.7918" lon="6.735">
        <ele>1975</ele>
        <time>2026-08-14T08:11:47.540Z</time>
      </trkpt>
      <trkpt lat="45.79179" lon="6.73497">
        <ele>1975</ele>
        <time>2026-08-14T08:11:48.540Z</time>
      </trkpt>
      <trkpt lat="45.79179" lon="6.73495">
        <ele>1976</ele>
        <time>2026-08-14T08:11:49.540Z</time>
      </trkpt>
      <trkpt lat="45.79178" lon="6.73493">
        <ele>1976</ele>
        <time>2026-08-14T08:11:50.540Z</time>
      </trkpt>
      <trkpt lat="45.79178" lon="6.73491">
        <ele>1976</ele>
        <time>2026-08-14T08:11:51.540Z</time>
      </trkpt>
      <trkpt lat="45.79177" lon="6.7349">
        <ele>1976</ele>
        <time>2026-08-14T08:11:52.540Z</time>
      </trkpt>
      <trkpt lat="45.79177" lon="6.73488">
        <ele>1977</ele>
        <time>2026-08-14T08:11:53.540Z</time>
      </trkpt>
      <trkpt lat="45.79176" lon="6.73488">
        <ele>1977</ele>
        <time>2026-08-14T08:11:54.540Z</time>
      </trkpt>
      <trkpt lat="45.79177" lon="6.73487">
        <ele>1977</ele>
        <time>2026-08-14T08:11:55.540Z</time>
      </trkpt>
      <trkpt lat="45.79177" lon="6.73487">
        <ele>1976</ele>
        <time>2026-08-14T08:11:56.540Z</time>
      </trkpt>
      <trkpt lat="45.79178" lon="6.73487">
        <ele>1976</ele>
        <time>2026-08-14T08:11:57.540Z</time>
      </trkpt>
      <trkpt lat="45.79178" lon="6.73486">
        <ele>1976</ele>
        <time>2026-08-14T08:11:58.540Z</time>
      </trkpt>
      <trkpt lat="45.79178" lon="6.73486">
        <ele>1975</ele>
        <time>2026-08-14T08:11:59.540Z</time>
      </trkpt>
      <trkpt lat="45.79179" lon="6.73485">
        <ele>1975</ele>
        <time>2026-08-14T08:12:00.540Z</time>
      </trkpt>
      <trkpt lat="45.7918" lon="6.73484">
        <ele>1975</ele>
        <time>2026-08-14T08:12:01.540Z</time>
      </trkpt>
      <trkpt lat="45.7918" lon="6.73483">
        <ele>1975</ele>
        <time>2026-08-14T08:12:02.540Z</time>
      </trkpt>
      <trkpt lat="45.79181" lon="6.73482">
        <ele>1974</ele>
        <time>2026-08-14T08:12:03.540Z</time>
      </trkpt>
      <trkpt lat="45.79181" lon="6.73482">
        <ele>1974</ele>
        <time>2026-08-14T08:12:04.540Z</time>
      </trkpt>
      <trkpt lat="45.79181" lon="6.73481">
        <ele>1974</ele>
        <time>2026-08-14T08:12:05.540Z</time>
      </trkpt>
      <trkpt lat="45.79181" lon="6.73481">
        <ele>1974</ele>
        <time>2026-08-14T08:12:06.540Z</time>
      </trkpt>
      <trkpt lat="45.79181" lon="6.73481">
        <ele>1974</ele>
        <time>2026-08-14T08:12:07.540Z</time>
      </trkpt>
      <trkpt lat="45.79181" lon="6.73481">
        <ele>1974</ele>
        <time>2026-08-14T08:12:08.540Z</time>
      </trkpt>
      <trkpt lat="45.79181" lon="6.73481">
        <ele>1974</ele>
        <time>2026-08-14T08:12:09.540Z</time>
      </trkpt>
      <trkpt lat="45.7918" lon="6.73481">
        <ele>1973</ele>
        <time>2026-08-14T08:12:10.540Z</time>
      </trkpt>
      <trkpt lat="45.7918" lon="6.73481">
        <ele>1973</ele>
        <time>2026-08-14T08:12:11.540Z</time>
      </trkpt>
      <trkpt lat="45.7918" lon="6.73481">
        <ele>1973</ele>
        <time>2026-08-14T08:12:12.540Z</time>
      </trkpt>
      <trkpt lat="45.7918" lon="6.73481">
        <ele>1973</ele>
        <time>2026-08-14T08:12:13.540Z</time>
      </trkpt>
      <trkpt lat="45.7918" lon="6.73481">
        <ele>1973</ele>
        <time>2026-08-14T08:12:14.540Z</time>
      </trkpt>
      <trkpt lat="45.7918" lon="6.73481">
        <ele>1973</ele>
        <time>2026-08-14T08:12:15.540Z</time>
      </trkpt>
      <trkpt lat="45.7918" lon="6.73481">
        <ele>1973</ele>
        <time>2026-08-14T08:12:16.540Z</time>
      </trkpt>
      <trkpt lat="45.7918" lon="6.73481">
        <ele>1973</ele>
        <time>2026-08-14T08:12:17.540Z</time>
      </trkpt>
      <trkpt lat="45.7918" lon="6.73481">
        <ele>1973</ele>
        <time>2026-08-14T08:12:18.540Z</time>
      </trkpt>
      <trkpt lat="45.7918" lon="6.73481">
        <ele>1973</ele>
        <time>2026-08-14T08:12:19.540Z</time>
      </trkpt>
      <trkpt lat="45.7918" lon="6.73481">
        <ele>1973</ele>
        <time>2026-08-14T08:12:20.540Z</time>
      </trkpt>
      <trkpt lat="45.7918" lon="6.73481">
        <ele>1973</ele>
        <time>2026-08-14T08:12:21.540Z</time>
      </trkpt>
      <trkpt lat="45.7918" lon="6.73481">
        <ele>1973</ele>
        <time>2026-08-14T08:12:22.540Z</time>
      </trkpt>
      <trkpt lat="45.7918" lon="6.73481">
        <ele>1973</ele>
        <time>2026-08-14T08:12:23.540Z</time>
      </trkpt>
      <trkpt lat="45.79181" lon="6.73481">
        <ele>1973</ele>
        <time>2026-08-14T08:12:24.540Z</time>
      </trkpt>
      <trkpt lat="45.79181" lon="6.73481">
        <ele>1973</ele>
        <time>2026-08-14T08:12:25.540Z</time>
      </trkpt>
      <trkpt lat="45.79181" lon="6.73481">
        <ele>1973</ele>
        <time>2026-08-14T08:12:26.540Z</time>
      </trkpt>
      <trkpt lat="45.7918" lon="6.73481">
        <ele>1972</ele>
        <time>2026-08-14T08:12:27.540Z</time>
      </trkpt>
      <trkpt lat="45.79179" lon="6.73483">
        <ele>1972</ele>
        <time>2026-08-14T08:12:28.540Z</time>
      </trkpt>
      <trkpt lat="45.79179" lon="6.73484">
        <ele>1972</ele>
        <time>2026-08-14T08:12:29.540Z</time>
      </trkpt>
      <trkpt lat="45.79178" lon="6.73485">
        <ele>1973</ele>
        <time>2026-08-14T08:12:30.540Z</time>
      </trkpt>
      <trkpt lat="45.79177" lon="6.73486">
        <ele>1973</ele>
        <time>2026-08-14T08:12:31.540Z</time>
      </trkpt>
      <trkpt lat="45.79176" lon="6.73487">
        <ele>1973</ele>
        <time>2026-08-14T08:12:32.540Z</time>
      </trkpt>
      <trkpt lat="45.79175" lon="6.73487">
        <ele>1973</ele>
        <time>2026-08-14T08:12:33.540Z</time>
      </trkpt>
      <trkpt lat="45.79174" lon="6.73488">
        <ele>1973</ele>
        <time>2026-08-14T08:12:34.540Z</time>
      </trkpt>
      <trkpt lat="45.79173" lon="6.73488">
        <ele>1973</ele>
        <time>2026-08-14T08:12:35.540Z</time>
      </trkpt>
      <trkpt lat="45.79172" lon="6.73488">
        <ele>1973</ele>
        <time>2026-08-14T08:12:36.540Z</time>
      </trkpt>
      <trkpt lat="45.79171" lon="6.73488">
        <ele>1973</ele>
        <time>2026-08-14T08:12:37.540Z</time>
      </trkpt>
      <trkpt lat="45.7917" lon="6.73489">
        <ele>1973</ele>
        <time>2026-08-14T08:12:38.540Z</time>
      </trkpt>
      <trkpt lat="45.79169" lon="6.73489">
        <ele>1973</ele>
        <time>2026-08-14T08:12:39.540Z</time>
      </trkpt>
      <trkpt lat="45.79168" lon="6.7349">
        <ele>1974</ele>
        <time>2026-08-14T08:12:40.540Z</time>
      </trkpt>
      <trkpt lat="45.79167" lon="6.73491">
        <ele>1974</ele>
        <time>2026-08-14T08:12:41.540Z</time>
      </trkpt>
      <trkpt lat="45.79166" lon="6.73491">
        <ele>1974</ele>
        <time>2026-08-14T08:12:42.540Z</time>
      </trkpt>
      <trkpt lat="45.79165" lon="6.73492">
        <ele>1974</ele>
        <time>2026-08-14T08:12:43.540Z</time>
      </trkpt>
      <trkpt lat="45.79164" lon="6.73492">
        <ele>1974</ele>
        <time>2026-08-14T08:12:44.540Z</time>
      </trkpt>
      <trkpt lat="45.79164" lon="6.73492">
        <ele>1974</ele>
        <time>2026-08-14T08:12:45.540Z</time>
      </trkpt>
      <trkpt lat="45.79163" lon="6.73491">
        <ele>1974</ele>
        <time>2026-08-14T08:12:46.540Z</time>
      </trkpt>
      <trkpt lat="45.79163" lon="6.73491">
        <ele>1974</ele>
        <time>2026-08-14T08:12:47.540Z</time>
      </trkpt>
      <trkpt lat="45.79163" lon="6.7349">
        <ele>1974</ele>
        <time>2026-08-14T08:12:48.540Z</time>
      </trkpt>
      <trkpt lat="45.79163" lon="6.7349">
        <ele>1974</ele>
        <time>2026-08-14T08:12:49.540Z</time>
      </trkpt>
      <trkpt lat="45.79163" lon="6.73489">
        <ele>1975</ele>
        <time>2026-08-14T08:12:50.540Z</time>
      </trkpt>
      <trkpt lat="45.79163" lon="6.73489">
        <ele>1975</ele>
        <time>2026-08-14T08:12:51.540Z</time>
      </trkpt>
      <trkpt lat="45.79163" lon="6.73489">
        <ele>1975</ele>
        <time>2026-08-14T08:12:52.540Z</time>
      </trkpt>
      <trkpt lat="45.79163" lon="6.73489">
        <ele>1975</ele>
        <time>2026-08-14T08:12:53.540Z</time>
      </trkpt>
      <trkpt lat="45.79164" lon="6.73489">
        <ele>1976</ele>
        <time>2026-08-14T08:12:54.540Z</time>
      </trkpt>
      <trkpt lat="45.79164" lon="6.73489">
        <ele>1976</ele>
        <time>2026-08-14T08:12:55.540Z</time>
      </trkpt>
      <trkpt lat="45.79164" lon="6.73488">
        <ele>1976</ele>
        <time>2026-08-14T08:12:56.540Z</time>
      </trkpt>
      <trkpt lat="45.79164" lon="6.73487">
        <ele>1976</ele>
        <time>2026-08-14T08:12:57.540Z</time>
      </trkpt>
      <trkpt lat="45.79164" lon="6.73486">
        <ele>1976</ele>
        <time>2026-08-14T08:12:58.540Z</time>
      </trkpt>
      <trkpt lat="45.79163" lon="6.73485">
        <ele>1976</ele>
        <time>2026-08-14T08:12:59.540Z</time>
      </trkpt>
      <trkpt lat="45.79162" lon="6.73484">
        <ele>1976</ele>
        <time>2026-08-14T08:13:00.540Z</time>
      </trkpt>
      <trkpt lat="45.79161" lon="6.73483">
        <ele>1977</ele>
        <time>2026-08-14T08:13:01.540Z</time>
      </trkpt>
      <trkpt lat="45.7916" lon="6.73482">
        <ele>1977</ele>
        <time>2026-08-14T08:13:02.540Z</time>
      </trkpt>
      <trkpt lat="45.79159" lon="6.73482">
        <ele>1977</ele>
        <time>2026-08-14T08:13:03.540Z</time>
      </trkpt>
      <trkpt lat="45.79159" lon="6.73482">
        <ele>1977</ele>
        <time>2026-08-14T08:13:04.540Z</time>
      </trkpt>
      <trkpt lat="45.79159" lon="6.73482">
        <ele>1976</ele>
        <time>2026-08-14T08:13:05.540Z</time>
      </trkpt>
      <trkpt lat="45.79159" lon="6.73482">
        <ele>1976</ele>
        <time>2026-08-14T08:13:06.540Z</time>
      </trkpt>
      <trkpt lat="45.79158" lon="6.73481">
        <ele>1976</ele>
        <time>2026-08-14T08:13:07.540Z</time>
      </trkpt>
      <trkpt lat="45.79157" lon="6.7348">
        <ele>1976</ele>
        <time>2026-08-14T08:13:08.540Z</time>
      </trkpt>
      <trkpt lat="45.79156" lon="6.73478">
        <ele>1976</ele>
        <time>2026-08-14T08:13:09.540Z</time>
      </trkpt>
      <trkpt lat="45.79156" lon="6.73477">
        <ele>1976</ele>
        <time>2026-08-14T08:13:10.540Z</time>
      </trkpt>
      <trkpt lat="45.79155" lon="6.73476">
        <ele>1976</ele>
        <time>2026-08-14T08:13:11.540Z</time>
      </trkpt>
      <trkpt lat="45.79154" lon="6.73474">
        <ele>1976</ele>
        <time>2026-08-14T08:13:12.540Z</time>
      </trkpt>
      <trkpt lat="45.79153" lon="6.73473">
        <ele>1977</ele>
        <time>2026-08-14T08:13:13.540Z</time>
      </trkpt>
      <trkpt lat="45.79152" lon="6.73471">
        <ele>1977</ele>
        <time>2026-08-14T08:13:14.540Z</time>
      </trkpt>
      <trkpt lat="45.79151" lon="6.73469">
        <ele>1977</ele>
        <time>2026-08-14T08:13:15.540Z</time>
      </trkpt>
      <trkpt lat="45.79149" lon="6.73467">
        <ele>1977</ele>
        <time>2026-08-14T08:13:16.540Z</time>
      </trkpt>
      <trkpt lat="45.79148" lon="6.73466">
        <ele>1978</ele>
        <time>2026-08-14T08:13:17.540Z</time>
      </trkpt>
      <trkpt lat="45.79148" lon="6.73465">
        <ele>1978</ele>
        <time>2026-08-14T08:13:18.540Z</time>
      </trkpt>
      <trkpt lat="45.79147" lon="6.73463">
        <ele>1978</ele>
        <time>2026-08-14T08:13:19.540Z</time>
      </trkpt>
      <trkpt lat="45.79147" lon="6.73462">
        <ele>1978</ele>
        <time>2026-08-14T08:13:20.540Z</time>
      </trkpt>
      <trkpt lat="45.79147" lon="6.7346">
        <ele>1978</ele>
        <time>2026-08-14T08:13:21.540Z</time>
      </trkpt>
      <trkpt lat="45.79147" lon="6.73459">
        <ele>1978</ele>
        <time>2026-08-14T08:13:22.540Z</time>
      </trkpt>
      <trkpt lat="45.79146" lon="6.73459">
        <ele>1978</ele>
        <time>2026-08-14T08:13:23.540Z</time>
      </trkpt>
      <trkpt lat="45.79146" lon="6.73458">
        <ele>1978</ele>
        <time>2026-08-14T08:13:24.540Z</time>
      </trkpt>
      <trkpt lat="45.79145" lon="6.73458">
        <ele>1977</ele>
        <time>2026-08-14T08:13:25.540Z</time>
      </trkpt>
      <trkpt lat="45.79145" lon="6.73458">
        <ele>1977</ele>
        <time>2026-08-14T08:13:26.540Z</time>
      </trkpt>
      <trkpt lat="45.79144" lon="6.73458">
        <ele>1976</ele>
        <time>2026-08-14T08:13:27.540Z</time>
      </trkpt>
      <trkpt lat="45.79143" lon="6.73457">
        <ele>1976</ele>
        <time>2026-08-14T08:13:28.540Z</time>
      </trkpt>
      <trkpt lat="45.79143" lon="6.73457">
        <ele>1975</ele>
        <time>2026-08-14T08:13:29.540Z</time>
      </trkpt>
      <trkpt lat="45.79143" lon="6.73457">
        <ele>1975</ele>
        <time>2026-08-14T08:13:30.540Z</time>
      </trkpt>
      <trkpt lat="45.79142" lon="6.73456">
        <ele>1975</ele>
        <time>2026-08-14T08:13:31.540Z</time>
      </trkpt>
      <trkpt lat="45.79142" lon="6.73455">
        <ele>1974</ele>
        <time>2026-08-14T08:13:32.540Z</time>
      </trkpt>
      <trkpt lat="45.79141" lon="6.73454">
        <ele>1974</ele>
        <time>2026-08-14T08:13:33.540Z</time>
      </trkpt>
      <trkpt lat="45.79141" lon="6.73452">
        <ele>1974</ele>
        <time>2026-08-14T08:13:34.540Z</time>
      </trkpt>
      <trkpt lat="45.79141" lon="6.7345">
        <ele>1974</ele>
        <time>2026-08-14T08:13:35.540Z</time>
      </trkpt>
      <trkpt lat="45.7914" lon="6.73449">
        <ele>1973</ele>
        <time>2026-08-14T08:13:36.540Z</time>
      </trkpt>
      <trkpt lat="45.7914" lon="6.73448">
        <ele>1973</ele>
        <time>2026-08-14T08:13:37.540Z</time>
      </trkpt>
      <trkpt lat="45.79139" lon="6.73448">
        <ele>1973</ele>
        <time>2026-08-14T08:13:38.540Z</time>
      </trkpt>
      <trkpt lat="45.79138" lon="6.73447">
        <ele>1972</ele>
        <time>2026-08-14T08:13:39.540Z</time>
      </trkpt>
      <trkpt lat="45.79137" lon="6.73446">
        <ele>1972</ele>
        <time>2026-08-14T08:13:40.540Z</time>
      </trkpt>
      <trkpt lat="45.79136" lon="6.73445">
        <ele>1972</ele>
        <time>2026-08-14T08:13:41.540Z</time>
      </trkpt>
      <trkpt lat="45.79135" lon="6.73444">
        <ele>1971</ele>
        <time>2026-08-14T08:13:42.540Z</time>
      </trkpt>
      <trkpt lat="45.79134" lon="6.73443">
        <ele>1971</ele>
        <time>2026-08-14T08:13:43.540Z</time>
      </trkpt>
      <trkpt lat="45.79133" lon="6.73442">
        <ele>1971</ele>
        <time>2026-08-14T08:13:44.540Z</time>
      </trkpt>
      <trkpt lat="45.79132" lon="6.73442">
        <ele>1971</ele>
        <time>2026-08-14T08:13:45.540Z</time>
      </trkpt>
      <trkpt lat="45.79132" lon="6.73441">
        <ele>1971</ele>
        <time>2026-08-14T08:13:46.540Z</time>
      </trkpt>
      <trkpt lat="45.79132" lon="6.7344">
        <ele>1971</ele>
        <time>2026-08-14T08:13:47.540Z</time>
      </trkpt>
      <trkpt lat="45.79132" lon="6.73439">
        <ele>1970</ele>
        <time>2026-08-14T08:13:48.540Z</time>
      </trkpt>
      <trkpt lat="45.79132" lon="6.73438">
        <ele>1970</ele>
        <time>2026-08-14T08:13:49.540Z</time>
      </trkpt>
      <trkpt lat="45.79132" lon="6.73436">
        <ele>1970</ele>
        <time>2026-08-14T08:13:50.540Z</time>
      </trkpt>
      <trkpt lat="45.79133" lon="6.73434">
        <ele>1970</ele>
        <time>2026-08-14T08:13:51.540Z</time>
      </trkpt>
      <trkpt lat="45.79133" lon="6.73432">
        <ele>1969</ele>
        <time>2026-08-14T08:13:52.540Z</time>
      </trkpt>
      <trkpt lat="45.79133" lon="6.7343">
        <ele>1969</ele>
        <time>2026-08-14T08:13:53.540Z</time>
      </trkpt>
      <trkpt lat="45.79133" lon="6.73429">
        <ele>1969</ele>
        <time>2026-08-14T08:13:54.540Z</time>
      </trkpt>
      <trkpt lat="45.79133" lon="6.73429">
        <ele>1969</ele>
        <time>2026-08-14T08:13:55.540Z</time>
      </trkpt>
      <trkpt lat="45.79132" lon="6.73428">
        <ele>1969</ele>
        <time>2026-08-14T08:13:56.540Z</time>
      </trkpt>
      <trkpt lat="45.79131" lon="6.73428">
        <ele>1969</ele>
        <time>2026-08-14T08:13:57.540Z</time>
      </trkpt>
      <trkpt lat="45.7913" lon="6.73428">
        <ele>1968</ele>
        <time>2026-08-14T08:13:58.540Z</time>
      </trkpt>
      <trkpt lat="45.79129" lon="6.73428">
        <ele>1968</ele>
        <time>2026-08-14T08:13:59.540Z</time>
      </trkpt>
      <trkpt lat="45.79127" lon="6.73428">
        <ele>1968</ele>
        <time>2026-08-14T08:14:00.540Z</time>
      </trkpt>
      <trkpt lat="45.79126" lon="6.73428">
        <ele>1968</ele>
        <time>2026-08-14T08:14:01.540Z</time>
      </trkpt>
      <trkpt lat="45.79125" lon="6.73427">
        <ele>1968</ele>
        <time>2026-08-14T08:14:02.540Z</time>
      </trkpt>
      <trkpt lat="45.79124" lon="6.73426">
        <ele>1968</ele>
        <time>2026-08-14T08:14:03.540Z</time>
      </trkpt>
      <trkpt lat="45.79123" lon="6.73425">
        <ele>1968</ele>
        <time>2026-08-14T08:14:04.540Z</time>
      </trkpt>
      <trkpt lat="45.79122" lon="6.73423">
        <ele>1967</ele>
        <time>2026-08-14T08:14:05.540Z</time>
      </trkpt>
      <trkpt lat="45.79121" lon="6.73422">
        <ele>1967</ele>
        <time>2026-08-14T08:14:06.540Z</time>
      </trkpt>
      <trkpt lat="45.7912" lon="6.73422">
        <ele>1967</ele>
        <time>2026-08-14T08:14:07.540Z</time>
      </trkpt>
      <trkpt lat="45.7912" lon="6.73421">
        <ele>1967</ele>
        <time>2026-08-14T08:14:08.540Z</time>
      </trkpt>
      <trkpt lat="45.79119" lon="6.7342">
        <ele>1967</ele>
        <time>2026-08-14T08:14:09.540Z</time>
      </trkpt>
      <trkpt lat="45.79118" lon="6.73419">
        <ele>1967</ele>
        <time>2026-08-14T08:14:10.540Z</time>
      </trkpt>
      <trkpt lat="45.79117" lon="6.73419">
        <ele>1966</ele>
        <time>2026-08-14T08:14:11.540Z</time>
      </trkpt>
      <trkpt lat="45.79115" lon="6.73419">
        <ele>1966</ele>
        <time>2026-08-14T08:14:12.540Z</time>
      </trkpt>
      <trkpt lat="45.79114" lon="6.73419">
        <ele>1967</ele>
        <time>2026-08-14T08:14:13.540Z</time>
      </trkpt>
      <trkpt lat="45.79113" lon="6.73419">
        <ele>1966</ele>
        <time>2026-08-14T08:14:14.540Z</time>
      </trkpt>
      <trkpt lat="45.79112" lon="6.73419">
        <ele>1966</ele>
        <time>2026-08-14T08:14:15.540Z</time>
      </trkpt>
      <trkpt lat="45.79111" lon="6.73418">
        <ele>1966</ele>
        <time>2026-08-14T08:14:16.540Z</time>
      </trkpt>
      <trkpt lat="45.7911" lon="6.73418">
        <ele>1965</ele>
        <time>2026-08-14T08:14:17.540Z</time>
      </trkpt>
      <trkpt lat="45.7911" lon="6.73417">
        <ele>1965</ele>
        <time>2026-08-14T08:14:18.540Z</time>
      </trkpt>
      <trkpt lat="45.79109" lon="6.73416">
        <ele>1965</ele>
        <time>2026-08-14T08:14:19.540Z</time>
      </trkpt>
      <trkpt lat="45.79107" lon="6.73416">
        <ele>1965</ele>
        <time>2026-08-14T08:14:20.540Z</time>
      </trkpt>
      <trkpt lat="45.79107" lon="6.73415">
        <ele>1965</ele>
        <time>2026-08-14T08:14:21.540Z</time>
      </trkpt>
      <trkpt lat="45.79106" lon="6.73415">
        <ele>1964</ele>
        <time>2026-08-14T08:14:22.540Z</time>
      </trkpt>
      <trkpt lat="45.79106" lon="6.73415">
        <ele>1964</ele>
        <time>2026-08-14T08:14:23.540Z</time>
      </trkpt>
      <trkpt lat="45.79106" lon="6.73415">
        <ele>1963</ele>
        <time>2026-08-14T08:14:24.540Z</time>
      </trkpt>
      <trkpt lat="45.79107" lon="6.73415">
        <ele>1962</ele>
        <time>2026-08-14T08:14:25.540Z</time>
      </trkpt>
      <trkpt lat="45.79108" lon="6.73415">
        <ele>1962</ele>
        <time>2026-08-14T08:14:26.540Z</time>
      </trkpt>
      <trkpt lat="45.79109" lon="6.73415">
        <ele>1962</ele>
        <time>2026-08-14T08:14:27.540Z</time>
      </trkpt>
      <trkpt lat="45.7911" lon="6.73416">
        <ele>1961</ele>
        <time>2026-08-14T08:14:28.540Z</time>
      </trkpt>
      <trkpt lat="45.79111" lon="6.73416">
        <ele>1961</ele>
        <time>2026-08-14T08:14:29.540Z</time>
      </trkpt>
      <trkpt lat="45.79112" lon="6.73417">
        <ele>1961</ele>
        <time>2026-08-14T08:14:30.540Z</time>
      </trkpt>
      <trkpt lat="45.79113" lon="6.73417">
        <ele>1961</ele>
        <time>2026-08-14T08:14:31.540Z</time>
      </trkpt>
      <trkpt lat="45.79114" lon="6.73417">
        <ele>1961</ele>
        <time>2026-08-14T08:14:32.540Z</time>
      </trkpt>
      <trkpt lat="45.79115" lon="6.73417">
        <ele>1961</ele>
        <time>2026-08-14T08:14:33.540Z</time>
      </trkpt>
      <trkpt lat="45.79116" lon="6.73418">
        <ele>1961</ele>
        <time>2026-08-14T08:14:34.540Z</time>
      </trkpt>
      <trkpt lat="45.79116" lon="6.73418">
        <ele>1961</ele>
        <time>2026-08-14T08:14:35.540Z</time>
      </trkpt>
      <trkpt lat="45.79117" lon="6.73418">
        <ele>1961</ele>
        <time>2026-08-14T08:14:36.540Z</time>
      </trkpt>
      <trkpt lat="45.79119" lon="6.73418">
        <ele>1961</ele>
        <time>2026-08-14T08:14:37.540Z</time>
      </trkpt>
      <trkpt lat="45.7912" lon="6.73419">
        <ele>1961</ele>
        <time>2026-08-14T08:14:38.540Z</time>
      </trkpt>
      <trkpt lat="45.79121" lon="6.7342">
        <ele>1961</ele>
        <time>2026-08-14T08:14:39.540Z</time>
      </trkpt>
      <trkpt lat="45.79122" lon="6.73421">
        <ele>1961</ele>
        <time>2026-08-14T08:14:40.540Z</time>
      </trkpt>
      <trkpt lat="45.79123" lon="6.73421">
        <ele>1961</ele>
        <time>2026-08-14T08:14:41.540Z</time>
      </trkpt>
      <trkpt lat="45.79124" lon="6.73422">
        <ele>1961</ele>
        <time>2026-08-14T08:14:42.540Z</time>
      </trkpt>
      <trkpt lat="45.79125" lon="6.73423">
        <ele>1962</ele>
        <time>2026-08-14T08:14:43.540Z</time>
      </trkpt>
      <trkpt lat="45.79126" lon="6.73424">
        <ele>1962</ele>
        <time>2026-08-14T08:14:44.540Z</time>
      </trkpt>
      <trkpt lat="45.79127" lon="6.73425">
        <ele>1962</ele>
        <time>2026-08-14T08:14:45.540Z</time>
      </trkpt>
      <trkpt lat="45.79127" lon="6.73426">
        <ele>1962</ele>
        <time>2026-08-14T08:14:46.540Z</time>
      </trkpt>
      <trkpt lat="45.79128" lon="6.73427">
        <ele>1962</ele>
        <time>2026-08-14T08:14:47.540Z</time>
      </trkpt>
      <trkpt lat="45.79129" lon="6.73428">
        <ele>1961</ele>
        <time>2026-08-14T08:14:48.540Z</time>
      </trkpt>
      <trkpt lat="45.79131" lon="6.73428">
        <ele>1961</ele>
        <time>2026-08-14T08:14:49.540Z</time>
      </trkpt>
      <trkpt lat="45.79132" lon="6.73428">
        <ele>1961</ele>
        <time>2026-08-14T08:14:50.540Z</time>
      </trkpt>
      <trkpt lat="45.79133" lon="6.73428">
        <ele>1961</ele>
        <time>2026-08-14T08:14:51.540Z</time>
      </trkpt>
      <trkpt lat="45.79135" lon="6.73428">
        <ele>1962</ele>
        <time>2026-08-14T08:14:52.540Z</time>
      </trkpt>
      <trkpt lat="45.79136" lon="6.73429">
        <ele>1962</ele>
        <time>2026-08-14T08:14:53.540Z</time>
      </trkpt>
      <trkpt lat="45.79137" lon="6.7343">
        <ele>1962</ele>
        <time>2026-08-14T08:14:54.540Z</time>
      </trkpt>
      <trkpt lat="45.79137" lon="6.73431">
        <ele>1963</ele>
        <time>2026-08-14T08:14:55.540Z</time>
      </trkpt>
      <trkpt lat="45.79136" lon="6.73433">
        <ele>1963</ele>
        <time>2026-08-14T08:14:56.540Z</time>
      </trkpt>
      <trkpt lat="45.79136" lon="6.73434">
        <ele>1963</ele>
        <time>2026-08-14T08:14:57.540Z</time>
      </trkpt>
      <trkpt lat="45.79135" lon="6.73436">
        <ele>1963</ele>
        <time>2026-08-14T08:14:58.540Z</time>
      </trkpt>
      <trkpt lat="45.79135" lon="6.73438">
        <ele>1963</ele>
        <time>2026-08-14T08:14:59.540Z</time>
      </trkpt>
      <trkpt lat="45.79134" lon="6.73439">
        <ele>1963</ele>
        <time>2026-08-14T08:15:00.540Z</time>
      </trkpt>
      <trkpt lat="45.79134" lon="6.7344">
        <ele>1963</ele>
        <time>2026-08-14T08:15:01.540Z</time>
      </trkpt>
      <trkpt lat="45.79134" lon="6.73441">
        <ele>1964</ele>
        <time>2026-08-14T08:15:02.540Z</time>
      </trkpt>
      <trkpt lat="45.79134" lon="6.73443">
        <ele>1964</ele>
        <time>2026-08-14T08:15:03.540Z</time>
      </trkpt>
      <trkpt lat="45.79135" lon="6.73444">
        <ele>1964</ele>
        <time>2026-08-14T08:15:04.540Z</time>
      </trkpt>
      <trkpt lat="45.79136" lon="6.73445">
        <ele>1965</ele>
        <time>2026-08-14T08:15:05.540Z</time>
      </trkpt>
      <trkpt lat="45.79137" lon="6.73446">
        <ele>1965</ele>
        <time>2026-08-14T08:15:06.540Z</time>
      </trkpt>
      <trkpt lat="45.79137" lon="6.73446">
        <ele>1966</ele>
        <time>2026-08-14T08:15:07.540Z</time>
      </trkpt>
      <trkpt lat="45.79138" lon="6.73445">
        <ele>1966</ele>
        <time>2026-08-14T08:15:08.540Z</time>
      </trkpt>
      <trkpt lat="45.79139" lon="6.73445">
        <ele>1967</ele>
        <time>2026-08-14T08:15:09.540Z</time>
      </trkpt>
      <trkpt lat="45.79139" lon="6.73445">
        <ele>1967</ele>
        <time>2026-08-14T08:15:10.540Z</time>
      </trkpt>
      <trkpt lat="45.7914" lon="6.73445">
        <ele>1967</ele>
        <time>2026-08-14T08:15:11.540Z</time>
      </trkpt>
      <trkpt lat="45.7914" lon="6.73444">
        <ele>1967</ele>
        <time>2026-08-14T08:15:12.540Z</time>
      </trkpt>
      <trkpt lat="45.7914" lon="6.73444">
        <ele>1967</ele>
        <time>2026-08-14T08:15:13.540Z</time>
      </trkpt>
      <trkpt lat="45.7914" lon="6.73444">
        <ele>1967</ele>
        <time>2026-08-14T08:15:14.540Z</time>
      </trkpt>
      <trkpt lat="45.7914" lon="6.73444">
        <ele>1967</ele>
        <time>2026-08-14T08:15:15.540Z</time>
      </trkpt>
      <trkpt lat="45.7914" lon="6.73444">
        <ele>1967</ele>
        <time>2026-08-14T08:15:16.540Z</time>
      </trkpt>
      <trkpt lat="45.7914" lon="6.73444">
        <ele>1967</ele>
        <time>2026-08-14T08:15:17.540Z</time>
      </trkpt>
      <trkpt lat="45.7914" lon="6.73444">
        <ele>1967</ele>
        <time>2026-08-14T08:15:18.540Z</time>
      </trkpt>
      <trkpt lat="45.7914" lon="6.73444">
        <ele>1968</ele>
        <time>2026-08-14T08:15:19.540Z</time>
      </trkpt>
      <trkpt lat="45.7914" lon="6.73444">
        <ele>1968</ele>
        <time>2026-08-14T08:15:20.540Z</time>
      </trkpt>
      <trkpt lat="45.7914" lon="6.73444">
        <ele>1968</ele>
        <time>2026-08-14T08:15:21.540Z</time>
      </trkpt>
      <trkpt lat="45.7914" lon="6.73444">
        <ele>1969</ele>
        <time>2026-08-14T08:15:22.540Z</time>
      </trkpt>
      <trkpt lat="45.7914" lon="6.73444">
        <ele>1969</ele>
        <time>2026-08-14T08:15:23.540Z</time>
      </trkpt>
      <trkpt lat="45.7914" lon="6.73444">
        <ele>1969</ele>
        <time>2026-08-14T08:15:24.540Z</time>
      </trkpt>
      <trkpt lat="45.7914" lon="6.73444">
        <ele>1969</ele>
        <time>2026-08-14T08:15:25.540Z</time>
      </trkpt>
      <trkpt lat="45.7914" lon="6.73444">
        <ele>1969</ele>
        <time>2026-08-14T08:15:26.540Z</time>
      </trkpt>
      <trkpt lat="45.7914" lon="6.73444">
        <ele>1969</ele>
        <time>2026-08-14T08:15:27.540Z</time>
      </trkpt>
      <trkpt lat="45.7914" lon="6.73444">
        <ele>1969</ele>
        <time>2026-08-14T08:15:28.540Z</time>
      </trkpt>
      <trkpt lat="45.7914" lon="6.73444">
        <ele>1970</ele>
        <time>2026-08-14T08:15:29.540Z</time>
      </trkpt>
      <trkpt lat="45.7914" lon="6.73444">
        <ele>1970</ele>
        <time>2026-08-14T08:15:30.540Z</time>
      </trkpt>
      <trkpt lat="45.7914" lon="6.73444">
        <ele>1970</ele>
        <time>2026-08-14T08:15:31.540Z</time>
      </trkpt>
      <trkpt lat="45.7914" lon="6.73444">
        <ele>1970</ele>
        <time>2026-08-14T08:15:32.540Z</time>
      </trkpt>
      <trkpt lat="45.7914" lon="6.73444">
        <ele>1970</ele>
        <time>2026-08-14T08:15:33.540Z</time>
      </trkpt>
      <trkpt lat="45.7914" lon="6.73444">
        <ele>1970</ele>
        <time>2026-08-14T08:15:34.540Z</time>
      </trkpt>
      <trkpt lat="45.7914" lon="6.73444">
        <ele>1970</ele>
        <time>2026-08-14T08:15:35.540Z</time>
      </trkpt>
      <trkpt lat="45.7914" lon="6.73444">
        <ele>1970</ele>
        <time>2026-08-14T08:15:36.540Z</time>
      </trkpt>
      <trkpt lat="45.7914" lon="6.73444">
        <ele>1970</ele>
        <time>2026-08-14T08:15:37.540Z</time>
      </trkpt>
      <trkpt lat="45.7914" lon="6.73444">
        <ele>1970</ele>
        <time>2026-08-14T08:15:38.540Z</time>
      </trkpt>
      <trkpt lat="45.7914" lon="6.73444">
        <ele>1970</ele>
        <time>2026-08-14T08:15:39.540Z</time>
      </trkpt>
      <trkpt lat="45.7914" lon="6.73444">
        <ele>1970</ele>
        <time>2026-08-14T08:15:40.540Z</time>
      </trkpt>
      <trkpt lat="45.7914" lon="6.73444">
        <ele>1970</ele>
        <time>2026-08-14T08:15:41.540Z</time>
      </trkpt>
      <trkpt lat="45.7914" lon="6.73444">
        <ele>1970</ele>
        <time>2026-08-14T08:15:42.540Z</time>
      </trkpt>
      <trkpt lat="45.7914" lon="6.73444">
        <ele>1970</ele>
        <time>2026-08-14T08:15:43.540Z</time>
      </trkpt>
      <trkpt lat="45.7914" lon="6.73444">
        <ele>1970</ele>
        <time>2026-08-14T08:15:44.540Z</time>
      </trkpt>
      <trkpt lat="45.7914" lon="6.73444">
        <ele>1970</ele>
        <time>2026-08-14T08:15:45.540Z</time>
      </trkpt>
      <trkpt lat="45.7914" lon="6.73444">
        <ele>1970</ele>
        <time>2026-08-14T08:15:46.540Z</time>
      </trkpt>
      <trkpt lat="45.7914" lon="6.73444">
        <ele>1970</ele>
        <time>2026-08-14T08:15:47.540Z</time>
      </trkpt>
      <trkpt lat="45.7914" lon="6.73444">
        <ele>1970</ele>
        <time>2026-08-14T08:15:48.540Z</time>
      </trkpt>
      <trkpt lat="45.79139" lon="6.73445">
        <ele>1970</ele>
        <time>2026-08-14T08:15:49.540Z</time>
      </trkpt>
      <trkpt lat="45.79138" lon="6.73444">
        <ele>1970</ele>
        <time>2026-08-14T08:15:50.540Z</time>
      </trkpt>
      <trkpt lat="45.79137" lon="6.73443">
        <ele>1970</ele>
        <time>2026-08-14T08:15:51.540Z</time>
      </trkpt>
      <trkpt lat="45.79136" lon="6.73442">
        <ele>1970</ele>
        <time>2026-08-14T08:15:52.540Z</time>
      </trkpt>
      <trkpt lat="45.79135" lon="6.73442">
        <ele>1970</ele>
        <time>2026-08-14T08:15:53.540Z</time>
      </trkpt>
      <trkpt lat="45.79134" lon="6.73441">
        <ele>1970</ele>
        <time>2026-08-14T08:15:54.540Z</time>
      </trkpt>
      <trkpt lat="45.79134" lon="6.7344">
        <ele>1970</ele>
        <time>2026-08-14T08:15:55.540Z</time>
      </trkpt>
      <trkpt lat="45.79134" lon="6.73439">
        <ele>1970</ele>
        <time>2026-08-14T08:15:56.540Z</time>
      </trkpt>
      <trkpt lat="45.79134" lon="6.73438">
        <ele>1969</ele>
        <time>2026-08-14T08:15:57.540Z</time>
      </trkpt>
      <trkpt lat="45.79134" lon="6.73436">
        <ele>1969</ele>
        <time>2026-08-14T08:15:58.540Z</time>
      </trkpt>
      <trkpt lat="45.79134" lon="6.73435">
        <ele>1969</ele>
        <time>2026-08-14T08:15:59.540Z</time>
      </trkpt>
      <trkpt lat="45.79134" lon="6.73434">
        <ele>1969</ele>
        <time>2026-08-14T08:16:00.540Z</time>
      </trkpt>
      <trkpt lat="45.79135" lon="6.73433">
        <ele>1969</ele>
        <time>2026-08-14T08:16:01.540Z</time>
      </trkpt>
      <trkpt lat="45.79135" lon="6.73433">
        <ele>1969</ele>
        <time>2026-08-14T08:16:02.540Z</time>
      </trkpt>
      <trkpt lat="45.79135" lon="6.73432">
        <ele>1970</ele>
        <time>2026-08-14T08:16:03.540Z</time>
      </trkpt>
      <trkpt lat="45.79134" lon="6.73432">
        <ele>1970</ele>
        <time>2026-08-14T08:16:04.540Z</time>
      </trkpt>
      <trkpt lat="45.79134" lon="6.73431">
        <ele>1970</ele>
        <time>2026-08-14T08:16:05.540Z</time>
      </trkpt>
      <trkpt lat="45.79133" lon="6.7343">
        <ele>1970</ele>
        <time>2026-08-14T08:16:06.540Z</time>
      </trkpt>
      <trkpt lat="45.79132" lon="6.7343">
        <ele>1970</ele>
        <time>2026-08-14T08:16:07.540Z</time>
      </trkpt>
      <trkpt lat="45.79131" lon="6.7343">
        <ele>1970</ele>
        <time>2026-08-14T08:16:08.540Z</time>
      </trkpt>
      <trkpt lat="45.79131" lon="6.73429">
        <ele>1970</ele>
        <time>2026-08-14T08:16:09.540Z</time>
      </trkpt>
      <trkpt lat="45.7913" lon="6.73429">
        <ele>1970</ele>
        <time>2026-08-14T08:16:10.540Z</time>
      </trkpt>
      <trkpt lat="45.79129" lon="6.7343">
        <ele>1970</ele>
        <time>2026-08-14T08:16:11.540Z</time>
      </trkpt>
      <trkpt lat="45.79128" lon="6.7343">
        <ele>1970</ele>
        <time>2026-08-14T08:16:12.540Z</time>
      </trkpt>
      <trkpt lat="45.79127" lon="6.7343">
        <ele>1969</ele>
        <time>2026-08-14T08:16:13.540Z</time>
      </trkpt>
      <trkpt lat="45.79127" lon="6.73429">
        <ele>1969</ele>
        <time>2026-08-14T08:16:14.540Z</time>
      </trkpt>
      <trkpt lat="45.79126" lon="6.73427">
        <ele>1969</ele>
        <time>2026-08-14T08:16:15.540Z</time>
      </trkpt>
      <trkpt lat="45.79125" lon="6.73426">
        <ele>1968</ele>
        <time>2026-08-14T08:16:16.540Z</time>
      </trkpt>
      <trkpt lat="45.79124" lon="6.73425">
        <ele>1968</ele>
        <time>2026-08-14T08:16:17.540Z</time>
      </trkpt>
      <trkpt lat="45.79122" lon="6.73425">
        <ele>1968</ele>
        <time>2026-08-14T08:16:18.540Z</time>
      </trkpt>
      <trkpt lat="45.79121" lon="6.73424">
        <ele>1968</ele>
        <time>2026-08-14T08:16:19.540Z</time>
      </trkpt>
      <trkpt lat="45.7912" lon="6.73423">
        <ele>1968</ele>
        <time>2026-08-14T08:16:20.540Z</time>
      </trkpt>
      <trkpt lat="45.7912" lon="6.73422">
        <ele>1968</ele>
        <time>2026-08-14T08:16:21.540Z</time>
      </trkpt>
      <trkpt lat="45.79119" lon="6.73421">
        <ele>1968</ele>
        <time>2026-08-14T08:16:22.540Z</time>
      </trkpt>
      <trkpt lat="45.79118" lon="6.73421">
        <ele>1968</ele>
        <time>2026-08-14T08:16:23.540Z</time>
      </trkpt>
      <trkpt lat="45.79117" lon="6.73421">
        <ele>1968</ele>
        <time>2026-08-14T08:16:24.540Z</time>
      </trkpt>
      <trkpt lat="45.79116" lon="6.73421">
        <ele>1968</ele>
        <time>2026-08-14T08:16:25.540Z</time>
      </trkpt>
      <trkpt lat="45.79115" lon="6.7342">
        <ele>1968</ele>
        <time>2026-08-14T08:16:26.540Z</time>
      </trkpt>
      <trkpt lat="45.79114" lon="6.73419">
        <ele>1969</ele>
        <time>2026-08-14T08:16:27.540Z</time>
      </trkpt>
      <trkpt lat="45.79113" lon="6.73419">
        <ele>1969</ele>
        <time>2026-08-14T08:16:28.540Z</time>
      </trkpt>
      <trkpt lat="45.79112" lon="6.73418">
        <ele>1969</ele>
        <time>2026-08-14T08:16:29.540Z</time>
      </trkpt>
      <trkpt lat="45.79111" lon="6.73418">
        <ele>1969</ele>
        <time>2026-08-14T08:16:30.540Z</time>
      </trkpt>
      <trkpt lat="45.7911" lon="6.73417">
        <ele>1969</ele>
        <time>2026-08-14T08:16:31.540Z</time>
      </trkpt>
      <trkpt lat="45.79109" lon="6.73417">
        <ele>1969</ele>
        <time>2026-08-14T08:16:32.540Z</time>
      </trkpt>
      <trkpt lat="45.79109" lon="6.73416">
        <ele>1969</ele>
        <time>2026-08-14T08:16:33.540Z</time>
      </trkpt>
      <trkpt lat="45.79109" lon="6.73416">
        <ele>1969</ele>
        <time>2026-08-14T08:16:34.540Z</time>
      </trkpt>
      <trkpt lat="45.79109" lon="6.73416">
        <ele>1968</ele>
        <time>2026-08-14T08:16:35.540Z</time>
      </trkpt>
      <trkpt lat="45.79109" lon="6.73416">
        <ele>1968</ele>
        <time>2026-08-14T08:16:36.540Z</time>
      </trkpt>
      <trkpt lat="45.7911" lon="6.73417">
        <ele>1968</ele>
        <time>2026-08-14T08:16:37.540Z</time>
      </trkpt>
      <trkpt lat="45.7911" lon="6.73416">
        <ele>1967</ele>
        <time>2026-08-14T08:16:38.540Z</time>
      </trkpt>
      <trkpt lat="45.7911" lon="6.73416">
        <ele>1967</ele>
        <time>2026-08-14T08:16:39.540Z</time>
      </trkpt>
      <trkpt lat="45.7911" lon="6.73416">
        <ele>1966</ele>
        <time>2026-08-14T08:16:40.540Z</time>
      </trkpt>
      <trkpt lat="45.7911" lon="6.73416">
        <ele>1966</ele>
        <time>2026-08-14T08:16:41.540Z</time>
      </trkpt>
      <trkpt lat="45.7911" lon="6.73416">
        <ele>1965</ele>
        <time>2026-08-14T08:16:42.540Z</time>
      </trkpt>
      <trkpt lat="45.7911" lon="6.73416">
        <ele>1964</ele>
        <time>2026-08-14T08:16:43.540Z</time>
      </trkpt>
      <trkpt lat="45.7911" lon="6.73416">
        <ele>1963</ele>
        <time>2026-08-14T08:16:44.540Z</time>
      </trkpt>
      <trkpt lat="45.7911" lon="6.73416">
        <ele>1963</ele>
        <time>2026-08-14T08:16:45.540Z</time>
      </trkpt>
      <trkpt lat="45.7911" lon="6.73416">
        <ele>1962</ele>
        <time>2026-08-14T08:16:46.540Z</time>
      </trkpt>
      <trkpt lat="45.7911" lon="6.73416">
        <ele>1961</ele>
        <time>2026-08-14T08:16:47.540Z</time>
      </trkpt>
      <trkpt lat="45.7911" lon="6.73416">
        <ele>1961</ele>
        <time>2026-08-14T08:16:48.540Z</time>
      </trkpt>
      <trkpt lat="45.7911" lon="6.73416">
        <ele>1960</ele>
        <time>2026-08-14T08:16:49.540Z</time>
      </trkpt>
      <trkpt lat="45.7911" lon="6.73416">
        <ele>1959</ele>
        <time>2026-08-14T08:16:50.540Z</time>
      </trkpt>
      <trkpt lat="45.7911" lon="6.73416">
        <ele>1959</ele>
        <time>2026-08-14T08:16:51.540Z</time>
      </trkpt>
      <trkpt lat="45.7911" lon="6.73416">
        <ele>1958</ele>
        <time>2026-08-14T08:16:52.540Z</time>
      </trkpt>
      <trkpt lat="45.7911" lon="6.73416">
        <ele>1958</ele>
        <time>2026-08-14T08:16:53.540Z</time>
      </trkpt>
      <trkpt lat="45.7911" lon="6.73416">
        <ele>1957</ele>
        <time>2026-08-14T08:16:54.540Z</time>
      </trkpt>
      <trkpt lat="45.7911" lon="6.73416">
        <ele>1957</ele>
        <time>2026-08-14T08:16:55.540Z</time>
      </trkpt>
      <trkpt lat="45.7911" lon="6.73416">
        <ele>1956</ele>
        <time>2026-08-14T08:16:56.540Z</time>
      </trkpt>
      <trkpt lat="45.7911" lon="6.73416">
        <ele>1956</ele>
        <time>2026-08-14T08:16:57.540Z</time>
      </trkpt>
      <trkpt lat="45.7911" lon="6.73416">
        <ele>1956</ele>
        <time>2026-08-14T08:16:58.540Z</time>
      </trkpt>
      <trkpt lat="45.7911" lon="6.73416">
        <ele>1956</ele>
        <time>2026-08-14T08:16:59.540Z</time>
      </trkpt>
      <trkpt lat="45.7911" lon="6.73416">
        <ele>1956</ele>
        <time>2026-08-14T08:17:00.540Z</time>
      </trkpt>
      <trkpt lat="45.7911" lon="6.73416">
        <ele>1955</ele>
        <time>2026-08-14T08:17:01.540Z</time>
      </trkpt>
      <trkpt lat="45.7911" lon="6.73416">
        <ele>1955</ele>
        <time>2026-08-14T08:17:02.540Z</time>
      </trkpt>
      <trkpt lat="45.7911" lon="6.73416">
        <ele>1955</ele>
        <time>2026-08-14T08:17:03.540Z</time>
      </trkpt>
      <trkpt lat="45.7911" lon="6.73416">
        <ele>1955</ele>
        <time>2026-08-14T08:17:04.540Z</time>
      </trkpt>
      <trkpt lat="45.79108" lon="6.73415">
        <ele>1955</ele>
        <time>2026-08-14T08:17:05.540Z</time>
      </trkpt>
      <trkpt lat="45.79107" lon="6.73414">
        <ele>1955</ele>
        <time>2026-08-14T08:17:06.540Z</time>
      </trkpt>
      <trkpt lat="45.79105" lon="6.73413">
        <ele>1955</ele>
        <time>2026-08-14T08:17:07.540Z</time>
      </trkpt>
      <trkpt lat="45.79104" lon="6.73411">
        <ele>1955</ele>
        <time>2026-08-14T08:17:08.540Z</time>
      </trkpt>
      <trkpt lat="45.79102" lon="6.73409">
        <ele>1956</ele>
        <time>2026-08-14T08:17:09.540Z</time>
      </trkpt>
      <trkpt lat="45.791" lon="6.73407">
        <ele>1956</ele>
        <time>2026-08-14T08:17:10.540Z</time>
      </trkpt>
      <trkpt lat="45.79098" lon="6.73404">
        <ele>1957</ele>
        <time>2026-08-14T08:17:11.540Z</time>
      </trkpt>
      <trkpt lat="45.79096" lon="6.73402">
        <ele>1957</ele>
        <time>2026-08-14T08:17:12.540Z</time>
      </trkpt>
      <trkpt lat="45.79094" lon="6.73399">
        <ele>1957</ele>
        <time>2026-08-14T08:17:13.540Z</time>
      </trkpt>
      <trkpt lat="45.79093" lon="6.73396">
        <ele>1957</ele>
        <time>2026-08-14T08:17:14.540Z</time>
      </trkpt>
      <trkpt lat="45.79092" lon="6.73394">
        <ele>1957</ele>
        <time>2026-08-14T08:17:15.540Z</time>
      </trkpt>
      <trkpt lat="45.79091" lon="6.73392">
        <ele>1957</ele>
        <time>2026-08-14T08:17:16.540Z</time>
      </trkpt>
      <trkpt lat="45.79089" lon="6.73389">
        <ele>1957</ele>
        <time>2026-08-14T08:17:17.540Z</time>
      </trkpt>
      <trkpt lat="45.79088" lon="6.73387">
        <ele>1957</ele>
        <time>2026-08-14T08:17:18.540Z</time>
      </trkpt>
      <trkpt lat="45.79086" lon="6.73385">
        <ele>1957</ele>
        <time>2026-08-14T08:17:19.540Z</time>
      </trkpt>
      <trkpt lat="45.79085" lon="6.73383">
        <ele>1957</ele>
        <time>2026-08-14T08:17:20.540Z</time>
      </trkpt>
      <trkpt lat="45.79084" lon="6.73382">
        <ele>1957</ele>
        <time>2026-08-14T08:17:21.540Z</time>
      </trkpt>
      <trkpt lat="45.79083" lon="6.73381">
        <ele>1957</ele>
        <time>2026-08-14T08:17:22.540Z</time>
      </trkpt>
      <trkpt lat="45.79082" lon="6.73379">
        <ele>1957</ele>
        <time>2026-08-14T08:17:23.540Z</time>
      </trkpt>
      <trkpt lat="45.79082" lon="6.73377">
        <ele>1957</ele>
        <time>2026-08-14T08:17:24.540Z</time>
      </trkpt>
      <trkpt lat="45.79081" lon="6.73376">
        <ele>1957</ele>
        <time>2026-08-14T08:17:25.540Z</time>
      </trkpt>
      <trkpt lat="45.79081" lon="6.73374">
        <ele>1957</ele>
        <time>2026-08-14T08:17:26.540Z</time>
      </trkpt>
      <trkpt lat="45.79081" lon="6.73373">
        <ele>1957</ele>
        <time>2026-08-14T08:17:27.540Z</time>
      </trkpt>
      <trkpt lat="45.7908" lon="6.73372">
        <ele>1957</ele>
        <time>2026-08-14T08:17:28.540Z</time>
      </trkpt>
      <trkpt lat="45.79079" lon="6.73371">
        <ele>1957</ele>
        <time>2026-08-14T08:17:29.540Z</time>
      </trkpt>
      <trkpt lat="45.79079" lon="6.7337">
        <ele>1958</ele>
        <time>2026-08-14T08:17:30.540Z</time>
      </trkpt>
      <trkpt lat="45.79079" lon="6.73369">
        <ele>1958</ele>
        <time>2026-08-14T08:17:31.540Z</time>
      </trkpt>
      <trkpt lat="45.79078" lon="6.73368">
        <ele>1957</ele>
        <time>2026-08-14T08:17:32.540Z</time>
      </trkpt>
      <trkpt lat="45.79077" lon="6.73367">
        <ele>1957</ele>
        <time>2026-08-14T08:17:33.540Z</time>
      </trkpt>
      <trkpt lat="45.79076" lon="6.73366">
        <ele>1957</ele>
        <time>2026-08-14T08:17:34.540Z</time>
      </trkpt>
      <trkpt lat="45.79075" lon="6.73364">
        <ele>1957</ele>
        <time>2026-08-14T08:17:35.540Z</time>
      </trkpt>
      <trkpt lat="45.79074" lon="6.73362">
        <ele>1956</ele>
        <time>2026-08-14T08:17:36.540Z</time>
      </trkpt>
      <trkpt lat="45.79073" lon="6.73359">
        <ele>1956</ele>
        <time>2026-08-14T08:17:37.540Z</time>
      </trkpt>
      <trkpt lat="45.79072" lon="6.73357">
        <ele>1957</ele>
        <time>2026-08-14T08:17:38.540Z</time>
      </trkpt>
      <trkpt lat="45.7907" lon="6.73354">
        <ele>1957</ele>
        <time>2026-08-14T08:17:39.540Z</time>
      </trkpt>
      <trkpt lat="45.79069" lon="6.73351">
        <ele>1957</ele>
        <time>2026-08-14T08:17:40.540Z</time>
      </trkpt>
      <trkpt lat="45.79068" lon="6.73348">
        <ele>1957</ele>
        <time>2026-08-14T08:17:41.540Z</time>
      </trkpt>
      <trkpt lat="45.79067" lon="6.73345">
        <ele>1957</ele>
        <time>2026-08-14T08:17:42.540Z</time>
      </trkpt>
      <trkpt lat="45.79066" lon="6.73343">
        <ele>1957</ele>
        <time>2026-08-14T08:17:43.540Z</time>
      </trkpt>
      <trkpt lat="45.79065" lon="6.73341">
        <ele>1956</ele>
        <time>2026-08-14T08:17:44.540Z</time>
      </trkpt>
      <trkpt lat="45.79064" lon="6.73339">
        <ele>1956</ele>
        <time>2026-08-14T08:17:45.540Z</time>
      </trkpt>
      <trkpt lat="45.79063" lon="6.73337">
        <ele>1955</ele>
        <time>2026-08-14T08:17:46.540Z</time>
      </trkpt>
      <trkpt lat="45.79061" lon="6.73335">
        <ele>1955</ele>
        <time>2026-08-14T08:17:47.540Z</time>
      </trkpt>
      <trkpt lat="45.7906" lon="6.73333">
        <ele>1955</ele>
        <time>2026-08-14T08:17:48.540Z</time>
      </trkpt>
      <trkpt lat="45.79059" lon="6.7333">
        <ele>1955</ele>
        <time>2026-08-14T08:17:49.540Z</time>
      </trkpt>
      <trkpt lat="45.79058" lon="6.73328">
        <ele>1954</ele>
        <time>2026-08-14T08:17:50.540Z</time>
      </trkpt>
      <trkpt lat="45.79057" lon="6.73326">
        <ele>1954</ele>
        <time>2026-08-14T08:17:51.540Z</time>
      </trkpt>
      <trkpt lat="45.79056" lon="6.73324">
        <ele>1953</ele>
        <time>2026-08-14T08:17:52.540Z</time>
      </trkpt>
      <trkpt lat="45.79056" lon="6.73323">
        <ele>1953</ele>
        <time>2026-08-14T08:17:53.540Z</time>
      </trkpt>
      <trkpt lat="45.79056" lon="6.73321">
        <ele>1953</ele>
        <time>2026-08-14T08:17:54.540Z</time>
      </trkpt>
      <trkpt lat="45.79055" lon="6.73319">
        <ele>1953</ele>
        <time>2026-08-14T08:17:55.540Z</time>
      </trkpt>
      <trkpt lat="45.79055" lon="6.73318">
        <ele>1953</ele>
        <time>2026-08-14T08:17:56.540Z</time>
      </trkpt>
      <trkpt lat="45.79054" lon="6.73317">
        <ele>1953</ele>
        <time>2026-08-14T08:17:57.540Z</time>
      </trkpt>
      <trkpt lat="45.79053" lon="6.73317">
        <ele>1953</ele>
        <time>2026-08-14T08:17:58.540Z</time>
      </trkpt>
      <trkpt lat="45.79052" lon="6.73317">
        <ele>1953</ele>
        <time>2026-08-14T08:17:59.540Z</time>
      </trkpt>
      <trkpt lat="45.79051" lon="6.73316">
        <ele>1952</ele>
        <time>2026-08-14T08:18:00.540Z</time>
      </trkpt>
      <trkpt lat="45.7905" lon="6.73316">
        <ele>1953</ele>
        <time>2026-08-14T08:18:01.540Z</time>
      </trkpt>
      <trkpt lat="45.79049" lon="6.73315">
        <ele>1952</ele>
        <time>2026-08-14T08:18:02.540Z</time>
      </trkpt>
      <trkpt lat="45.79048" lon="6.73315">
        <ele>1952</ele>
        <time>2026-08-14T08:18:03.540Z</time>
      </trkpt>
      <trkpt lat="45.79048" lon="6.73315">
        <ele>1953</ele>
        <time>2026-08-14T08:18:04.540Z</time>
      </trkpt>
      <trkpt lat="45.79047" lon="6.73314">
        <ele>1953</ele>
        <time>2026-08-14T08:18:05.540Z</time>
      </trkpt>
      <trkpt lat="45.79046" lon="6.73314">
        <ele>1953</ele>
        <time>2026-08-14T08:18:06.540Z</time>
      </trkpt>
      <trkpt lat="45.79045" lon="6.73314">
        <ele>1953</ele>
        <time>2026-08-14T08:18:07.540Z</time>
      </trkpt>
      <trkpt lat="45.79044" lon="6.73314">
        <ele>1953</ele>
        <time>2026-08-14T08:18:08.540Z</time>
      </trkpt>
      <trkpt lat="45.79044" lon="6.73314">
        <ele>1953</ele>
        <time>2026-08-14T08:18:09.540Z</time>
      </trkpt>
      <trkpt lat="45.79044" lon="6.73314">
        <ele>1953</ele>
        <time>2026-08-14T08:18:10.540Z</time>
      </trkpt>
      <trkpt lat="45.79044" lon="6.73313">
        <ele>1953</ele>
        <time>2026-08-14T08:18:11.540Z</time>
      </trkpt>
      <trkpt lat="45.79044" lon="6.73313">
        <ele>1953</ele>
        <time>2026-08-14T08:18:12.540Z</time>
      </trkpt>
      <trkpt lat="45.79044" lon="6.73313">
        <ele>1953</ele>
        <time>2026-08-14T08:18:13.540Z</time>
      </trkpt>
      <trkpt lat="45.79044" lon="6.73313">
        <ele>1952</ele>
        <time>2026-08-14T08:18:14.540Z</time>
      </trkpt>
      <trkpt lat="45.79044" lon="6.73313">
        <ele>1952</ele>
        <time>2026-08-14T08:18:15.540Z</time>
      </trkpt>
      <trkpt lat="45.79044" lon="6.73313">
        <ele>1951</ele>
        <time>2026-08-14T08:18:16.540Z</time>
      </trkpt>
      <trkpt lat="45.79043" lon="6.73313">
        <ele>1951</ele>
        <time>2026-08-14T08:18:17.540Z</time>
      </trkpt>
      <trkpt lat="45.79043" lon="6.73313">
        <ele>1951</ele>
        <time>2026-08-14T08:18:18.540Z</time>
      </trkpt>
      <trkpt lat="45.79043" lon="6.73313">
        <ele>1950</ele>
        <time>2026-08-14T08:18:19.540Z</time>
      </trkpt>
      <trkpt lat="45.79043" lon="6.73313">
        <ele>1950</ele>
        <time>2026-08-14T08:18:20.540Z</time>
      </trkpt>
      <trkpt lat="45.79043" lon="6.73313">
        <ele>1949</ele>
        <time>2026-08-14T08:18:21.540Z</time>
      </trkpt>
      <trkpt lat="45.79043" lon="6.73313">
        <ele>1949</ele>
        <time>2026-08-14T08:18:22.540Z</time>
      </trkpt>
      <trkpt lat="45.79043" lon="6.73313">
        <ele>1949</ele>
        <time>2026-08-14T08:18:23.540Z</time>
      </trkpt>
      <trkpt lat="45.79043" lon="6.73313">
        <ele>1949</ele>
        <time>2026-08-14T08:18:24.540Z</time>
      </trkpt>
      <trkpt lat="45.79043" lon="6.73313">
        <ele>1949</ele>
        <time>2026-08-14T08:18:25.540Z</time>
      </trkpt>
      <trkpt lat="45.79043" lon="6.73313">
        <ele>1949</ele>
        <time>2026-08-14T08:18:26.540Z</time>
      </trkpt>
      <trkpt lat="45.79043" lon="6.73313">
        <ele>1949</ele>
        <time>2026-08-14T08:18:27.540Z</time>
      </trkpt>
      <trkpt lat="45.79043" lon="6.73313">
        <ele>1949</ele>
        <time>2026-08-14T08:18:28.540Z</time>
      </trkpt>
      <trkpt lat="45.79043" lon="6.73313">
        <ele>1949</ele>
        <time>2026-08-14T08:18:29.540Z</time>
      </trkpt>
      <trkpt lat="45.79043" lon="6.73313">
        <ele>1949</ele>
        <time>2026-08-14T08:18:30.540Z</time>
      </trkpt>
      <trkpt lat="45.79043" lon="6.73311">
        <ele>1949</ele>
        <time>2026-08-14T08:18:31.540Z</time>
      </trkpt>
      <trkpt lat="45.79042" lon="6.7331">
        <ele>1949</ele>
        <time>2026-08-14T08:18:32.540Z</time>
      </trkpt>
      <trkpt lat="45.79042" lon="6.73308">
        <ele>1949</ele>
        <time>2026-08-14T08:18:33.540Z</time>
      </trkpt>
      <trkpt lat="45.79041" lon="6.73307">
        <ele>1949</ele>
        <time>2026-08-14T08:18:34.540Z</time>
      </trkpt>
      <trkpt lat="45.79041" lon="6.73306">
        <ele>1949</ele>
        <time>2026-08-14T08:18:35.540Z</time>
      </trkpt>
      <trkpt lat="45.7904" lon="6.73305">
        <ele>1949</ele>
        <time>2026-08-14T08:18:36.540Z</time>
      </trkpt>
      <trkpt lat="45.7904" lon="6.73304">
        <ele>1949</ele>
        <time>2026-08-14T08:18:37.540Z</time>
      </trkpt>
      <trkpt lat="45.79039" lon="6.73303">
        <ele>1949</ele>
        <time>2026-08-14T08:18:38.540Z</time>
      </trkpt>
      <trkpt lat="45.79038" lon="6.73302">
        <ele>1949</ele>
        <time>2026-08-14T08:18:39.540Z</time>
      </trkpt>
      <trkpt lat="45.79037" lon="6.73302">
        <ele>1949</ele>
        <time>2026-08-14T08:18:40.540Z</time>
      </trkpt>
      <trkpt lat="45.79036" lon="6.73301">
        <ele>1949</ele>
        <time>2026-08-14T08:18:41.540Z</time>
      </trkpt>
      <trkpt lat="45.79036" lon="6.73301">
        <ele>1949</ele>
        <time>2026-08-14T08:18:42.540Z</time>
      </trkpt>
      <trkpt lat="45.79035" lon="6.733">
        <ele>1950</ele>
        <time>2026-08-14T08:18:43.540Z</time>
      </trkpt>
      <trkpt lat="45.79034" lon="6.733">
        <ele>1950</ele>
        <time>2026-08-14T08:18:44.540Z</time>
      </trkpt>
      <trkpt lat="45.79034" lon="6.73299">
        <ele>1951</ele>
        <time>2026-08-14T08:18:45.540Z</time>
      </trkpt>
      <trkpt lat="45.79034" lon="6.73298">
        <ele>1951</ele>
        <time>2026-08-14T08:18:46.540Z</time>
      </trkpt>
      <trkpt lat="45.79033" lon="6.73297">
        <ele>1952</ele>
        <time>2026-08-14T08:18:47.540Z</time>
      </trkpt>
      <trkpt lat="45.79033" lon="6.73297">
        <ele>1952</ele>
        <time>2026-08-14T08:18:48.540Z</time>
      </trkpt>
      <trkpt lat="45.79033" lon="6.73297">
        <ele>1952</ele>
        <time>2026-08-14T08:18:49.540Z</time>
      </trkpt>
      <trkpt lat="45.79033" lon="6.73296">
        <ele>1952</ele>
        <time>2026-08-14T08:18:50.540Z</time>
      </trkpt>
      <trkpt lat="45.79032" lon="6.73295">
        <ele>1952</ele>
        <time>2026-08-14T08:18:51.540Z</time>
      </trkpt>
      <trkpt lat="45.79031" lon="6.73294">
        <ele>1952</ele>
        <time>2026-08-14T08:18:52.540Z</time>
      </trkpt>
      <trkpt lat="45.79031" lon="6.73293">
        <ele>1952</ele>
        <time>2026-08-14T08:18:53.540Z</time>
      </trkpt>
      <trkpt lat="45.79029" lon="6.73291">
        <ele>1952</ele>
        <time>2026-08-14T08:18:54.540Z</time>
      </trkpt>
      <trkpt lat="45.79028" lon="6.73289">
        <ele>1952</ele>
        <time>2026-08-14T08:18:55.540Z</time>
      </trkpt>
      <trkpt lat="45.79027" lon="6.73287">
        <ele>1951</ele>
        <time>2026-08-14T08:18:56.540Z</time>
      </trkpt>
      <trkpt lat="45.79026" lon="6.73285">
        <ele>1951</ele>
        <time>2026-08-14T08:18:57.540Z</time>
      </trkpt>
      <trkpt lat="45.79025" lon="6.73283">
        <ele>1951</ele>
        <time>2026-08-14T08:18:58.540Z</time>
      </trkpt>
      <trkpt lat="45.79024" lon="6.73282">
        <ele>1951</ele>
        <time>2026-08-14T08:18:59.540Z</time>
      </trkpt>
      <trkpt lat="45.79023" lon="6.73282">
        <ele>1950</ele>
        <time>2026-08-14T08:19:00.540Z</time>
      </trkpt>
      <trkpt lat="45.79022" lon="6.73281">
        <ele>1950</ele>
        <time>2026-08-14T08:19:01.540Z</time>
      </trkpt>
      <trkpt lat="45.79021" lon="6.73279">
        <ele>1950</ele>
        <time>2026-08-14T08:19:02.540Z</time>
      </trkpt>
      <trkpt lat="45.7902" lon="6.73277">
        <ele>1951</ele>
        <time>2026-08-14T08:19:03.540Z</time>
      </trkpt>
      <trkpt lat="45.79019" lon="6.73276">
        <ele>1951</ele>
        <time>2026-08-14T08:19:04.540Z</time>
      </trkpt>
      <trkpt lat="45.79018" lon="6.73275">
        <ele>1951</ele>
        <time>2026-08-14T08:19:05.540Z</time>
      </trkpt>
      <trkpt lat="45.79017" lon="6.73274">
        <ele>1951</ele>
        <time>2026-08-14T08:19:06.540Z</time>
      </trkpt>
      <trkpt lat="45.79017" lon="6.73273">
        <ele>1951</ele>
        <time>2026-08-14T08:19:07.540Z</time>
      </trkpt>
      <trkpt lat="45.79015" lon="6.73272">
        <ele>1951</ele>
        <time>2026-08-14T08:19:08.540Z</time>
      </trkpt>
      <trkpt lat="45.79014" lon="6.7327">
        <ele>1951</ele>
        <time>2026-08-14T08:19:09.540Z</time>
      </trkpt>
      <trkpt lat="45.79013" lon="6.73268">
        <ele>1951</ele>
        <time>2026-08-14T08:19:10.540Z</time>
      </trkpt>
      <trkpt lat="45.79011" lon="6.73267">
        <ele>1951</ele>
        <time>2026-08-14T08:19:11.540Z</time>
      </trkpt>
      <trkpt lat="45.7901" lon="6.73264">
        <ele>1951</ele>
        <time>2026-08-14T08:19:12.540Z</time>
      </trkpt>
      <trkpt lat="45.79009" lon="6.73262">
        <ele>1951</ele>
        <time>2026-08-14T08:19:13.540Z</time>
      </trkpt>
      <trkpt lat="45.79008" lon="6.73259">
        <ele>1951</ele>
        <time>2026-08-14T08:19:14.540Z</time>
      </trkpt>
      <trkpt lat="45.79007" lon="6.73257">
        <ele>1950</ele>
        <time>2026-08-14T08:19:15.540Z</time>
      </trkpt>
      <trkpt lat="45.79006" lon="6.73255">
        <ele>1950</ele>
        <time>2026-08-14T08:19:16.540Z</time>
      </trkpt>
      <trkpt lat="45.79005" lon="6.73254">
        <ele>1950</ele>
        <time>2026-08-14T08:19:17.540Z</time>
      </trkpt>
      <trkpt lat="45.79003" lon="6.73252">
        <ele>1950</ele>
        <time>2026-08-14T08:19:18.540Z</time>
      </trkpt>
      <trkpt lat="45.79002" lon="6.7325">
        <ele>1950</ele>
        <time>2026-08-14T08:19:19.540Z</time>
      </trkpt>
      <trkpt lat="45.79" lon="6.73248">
        <ele>1950</ele>
        <time>2026-08-14T08:19:20.540Z</time>
      </trkpt>
      <trkpt lat="45.78999" lon="6.73245">
        <ele>1950</ele>
        <time>2026-08-14T08:19:21.540Z</time>
      </trkpt>
      <trkpt lat="45.78999" lon="6.73242">
        <ele>1950</ele>
        <time>2026-08-14T08:19:22.540Z</time>
      </trkpt>
      <trkpt lat="45.78998" lon="6.7324">
        <ele>1950</ele>
        <time>2026-08-14T08:19:23.540Z</time>
      </trkpt>
      <trkpt lat="45.78997" lon="6.73239">
        <ele>1950</ele>
        <time>2026-08-14T08:19:24.540Z</time>
      </trkpt>
      <trkpt lat="45.78996" lon="6.73237">
        <ele>1950</ele>
        <time>2026-08-14T08:19:25.540Z</time>
      </trkpt>
      <trkpt lat="45.78995" lon="6.73236">
        <ele>1950</ele>
        <time>2026-08-14T08:19:26.540Z</time>
      </trkpt>
      <trkpt lat="45.78993" lon="6.73234">
        <ele>1950</ele>
        <time>2026-08-14T08:19:27.540Z</time>
      </trkpt>
      <trkpt lat="45.78992" lon="6.73232">
        <ele>1950</ele>
        <time>2026-08-14T08:19:28.540Z</time>
      </trkpt>
      <trkpt lat="45.7899" lon="6.73231">
        <ele>1950</ele>
        <time>2026-08-14T08:19:29.540Z</time>
      </trkpt>
      <trkpt lat="45.78988" lon="6.73229">
        <ele>1949</ele>
        <time>2026-08-14T08:19:30.540Z</time>
      </trkpt>
      <trkpt lat="45.78986" lon="6.73227">
        <ele>1949</ele>
        <time>2026-08-14T08:19:31.540Z</time>
      </trkpt>
      <trkpt lat="45.78984" lon="6.73225">
        <ele>1949</ele>
        <time>2026-08-14T08:19:32.540Z</time>
      </trkpt>
      <trkpt lat="45.78982" lon="6.73223">
        <ele>1948</ele>
        <time>2026-08-14T08:19:33.540Z</time>
      </trkpt>
      <trkpt lat="45.7898" lon="6.7322">
        <ele>1948</ele>
        <time>2026-08-14T08:19:34.540Z</time>
      </trkpt>
      <trkpt lat="45.78978" lon="6.73217">
        <ele>1948</ele>
        <time>2026-08-14T08:19:35.540Z</time>
      </trkpt>
      <trkpt lat="45.78976" lon="6.73215">
        <ele>1948</ele>
        <time>2026-08-14T08:19:36.540Z</time>
      </trkpt>
      <trkpt lat="45.78975" lon="6.73212">
        <ele>1948</ele>
        <time>2026-08-14T08:19:37.540Z</time>
      </trkpt>
      <trkpt lat="45.78974" lon="6.73209">
        <ele>1947</ele>
        <time>2026-08-14T08:19:38.540Z</time>
      </trkpt>
      <trkpt lat="45.78972" lon="6.73207">
        <ele>1947</ele>
        <time>2026-08-14T08:19:39.540Z</time>
      </trkpt>
      <trkpt lat="45.78971" lon="6.73205">
        <ele>1947</ele>
        <time>2026-08-14T08:19:40.540Z</time>
      </trkpt>
      <trkpt lat="45.78969" lon="6.73204">
        <ele>1947</ele>
        <time>2026-08-14T08:19:41.540Z</time>
      </trkpt>
      <trkpt lat="45.78967" lon="6.73202">
        <ele>1947</ele>
        <time>2026-08-14T08:19:42.540Z</time>
      </trkpt>
      <trkpt lat="45.78965" lon="6.732">
        <ele>1946</ele>
        <time>2026-08-14T08:19:43.540Z</time>
      </trkpt>
      <trkpt lat="45.78964" lon="6.73199">
        <ele>1946</ele>
        <time>2026-08-14T08:19:44.540Z</time>
      </trkpt>
      <trkpt lat="45.78963" lon="6.73197">
        <ele>1946</ele>
        <time>2026-08-14T08:19:45.540Z</time>
      </trkpt>
      <trkpt lat="45.78962" lon="6.73196">
        <ele>1946</ele>
        <time>2026-08-14T08:19:46.540Z</time>
      </trkpt>
      <trkpt lat="45.78961" lon="6.73194">
        <ele>1946</ele>
        <time>2026-08-14T08:19:47.540Z</time>
      </trkpt>
      <trkpt lat="45.7896" lon="6.73192">
        <ele>1946</ele>
        <time>2026-08-14T08:19:48.540Z</time>
      </trkpt>
      <trkpt lat="45.78959" lon="6.7319">
        <ele>1946</ele>
        <time>2026-08-14T08:19:49.540Z</time>
      </trkpt>
      <trkpt lat="45.78958" lon="6.73188">
        <ele>1946</ele>
        <time>2026-08-14T08:19:50.540Z</time>
      </trkpt>
      <trkpt lat="45.78957" lon="6.73187">
        <ele>1946</ele>
        <time>2026-08-14T08:19:51.540Z</time>
      </trkpt>
      <trkpt lat="45.78955" lon="6.73185">
        <ele>1945</ele>
        <time>2026-08-14T08:19:52.540Z</time>
      </trkpt>
      <trkpt lat="45.78954" lon="6.73183">
        <ele>1945</ele>
        <time>2026-08-14T08:19:53.540Z</time>
      </trkpt>
      <trkpt lat="45.78953" lon="6.73181">
        <ele>1945</ele>
        <time>2026-08-14T08:19:54.540Z</time>
      </trkpt>
      <trkpt lat="45.78952" lon="6.73179">
        <ele>1945</ele>
        <time>2026-08-14T08:19:55.540Z</time>
      </trkpt>
      <trkpt lat="45.78951" lon="6.73178">
        <ele>1945</ele>
        <time>2026-08-14T08:19:56.540Z</time>
      </trkpt>
      <trkpt lat="45.7895" lon="6.73177">
        <ele>1945</ele>
        <time>2026-08-14T08:19:57.540Z</time>
      </trkpt>
      <trkpt lat="45.78948" lon="6.73176">
        <ele>1945</ele>
        <time>2026-08-14T08:19:58.540Z</time>
      </trkpt>
      <trkpt lat="45.78947" lon="6.73175">
        <ele>1944</ele>
        <time>2026-08-14T08:19:59.540Z</time>
      </trkpt>
      <trkpt lat="45.78945" lon="6.73174">
        <ele>1944</ele>
        <time>2026-08-14T08:20:00.540Z</time>
      </trkpt>
      <trkpt lat="45.78944" lon="6.73173">
        <ele>1944</ele>
        <time>2026-08-14T08:20:01.540Z</time>
      </trkpt>
      <trkpt lat="45.78943" lon="6.73171">
        <ele>1944</ele>
        <time>2026-08-14T08:20:02.540Z</time>
      </trkpt>
      <trkpt lat="45.78941" lon="6.73169">
        <ele>1943</ele>
        <time>2026-08-14T08:20:03.540Z</time>
      </trkpt>
      <trkpt lat="45.7894" lon="6.73168">
        <ele>1943</ele>
        <time>2026-08-14T08:20:04.540Z</time>
      </trkpt>
      <trkpt lat="45.78937" lon="6.73166">
        <ele>1943</ele>
        <time>2026-08-14T08:20:05.540Z</time>
      </trkpt>
      <trkpt lat="45.78934" lon="6.73164">
        <ele>1943</ele>
        <time>2026-08-14T08:20:06.540Z</time>
      </trkpt>
      <trkpt lat="45.78932" lon="6.73163">
        <ele>1942</ele>
        <time>2026-08-14T08:20:07.540Z</time>
      </trkpt>
      <trkpt lat="45.7893" lon="6.73161">
        <ele>1942</ele>
        <time>2026-08-14T08:20:08.540Z</time>
      </trkpt>
      <trkpt lat="45.78928" lon="6.73159">
        <ele>1942</ele>
        <time>2026-08-14T08:20:09.540Z</time>
      </trkpt>
      <trkpt lat="45.78926" lon="6.73157">
        <ele>1943</ele>
        <time>2026-08-14T08:20:10.540Z</time>
      </trkpt>
      <trkpt lat="45.78925" lon="6.73155">
        <ele>1943</ele>
        <time>2026-08-14T08:20:11.540Z</time>
      </trkpt>
      <trkpt lat="45.78924" lon="6.73154">
        <ele>1943</ele>
        <time>2026-08-14T08:20:12.540Z</time>
      </trkpt>
      <trkpt lat="45.78922" lon="6.73152">
        <ele>1943</ele>
        <time>2026-08-14T08:20:13.540Z</time>
      </trkpt>
      <trkpt lat="45.7892" lon="6.7315">
        <ele>1943</ele>
        <time>2026-08-14T08:20:14.540Z</time>
      </trkpt>
      <trkpt lat="45.78918" lon="6.73148">
        <ele>1943</ele>
        <time>2026-08-14T08:20:15.540Z</time>
      </trkpt>
      <trkpt lat="45.78917" lon="6.73146">
        <ele>1942</ele>
        <time>2026-08-14T08:20:16.540Z</time>
      </trkpt>
      <trkpt lat="45.78915" lon="6.73144">
        <ele>1942</ele>
        <time>2026-08-14T08:20:17.540Z</time>
      </trkpt>
      <trkpt lat="45.78914" lon="6.73142">
        <ele>1942</ele>
        <time>2026-08-14T08:20:18.540Z</time>
      </trkpt>
      <trkpt lat="45.78913" lon="6.7314">
        <ele>1942</ele>
        <time>2026-08-14T08:20:19.540Z</time>
      </trkpt>
      <trkpt lat="45.78912" lon="6.73138">
        <ele>1942</ele>
        <time>2026-08-14T08:20:20.540Z</time>
      </trkpt>
      <trkpt lat="45.78912" lon="6.73136">
        <ele>1943</ele>
        <time>2026-08-14T08:20:21.540Z</time>
      </trkpt>
      <trkpt lat="45.78911" lon="6.73135">
        <ele>1942</ele>
        <time>2026-08-14T08:20:22.540Z</time>
      </trkpt>
      <trkpt lat="45.78911" lon="6.73133">
        <ele>1943</ele>
        <time>2026-08-14T08:20:23.540Z</time>
      </trkpt>
      <trkpt lat="45.78911" lon="6.73132">
        <ele>1943</ele>
        <time>2026-08-14T08:20:24.540Z</time>
      </trkpt>
      <trkpt lat="45.7891" lon="6.73132">
        <ele>1942</ele>
        <time>2026-08-14T08:20:25.540Z</time>
      </trkpt>
      <trkpt lat="45.7891" lon="6.7313">
        <ele>1942</ele>
        <time>2026-08-14T08:20:26.540Z</time>
      </trkpt>
      <trkpt lat="45.78909" lon="6.73128">
        <ele>1942</ele>
        <time>2026-08-14T08:20:27.540Z</time>
      </trkpt>
      <trkpt lat="45.78909" lon="6.73127">
        <ele>1942</ele>
        <time>2026-08-14T08:20:28.540Z</time>
      </trkpt>
      <trkpt lat="45.78908" lon="6.73125">
        <ele>1942</ele>
        <time>2026-08-14T08:20:29.540Z</time>
      </trkpt>
      <trkpt lat="45.78907" lon="6.73124">
        <ele>1942</ele>
        <time>2026-08-14T08:20:30.540Z</time>
      </trkpt>
      <trkpt lat="45.78905" lon="6.73122">
        <ele>1942</ele>
        <time>2026-08-14T08:20:31.540Z</time>
      </trkpt>
      <trkpt lat="45.78903" lon="6.73122">
        <ele>1942</ele>
        <time>2026-08-14T08:20:32.540Z</time>
      </trkpt>
      <trkpt lat="45.78902" lon="6.7312">
        <ele>1942</ele>
        <time>2026-08-14T08:20:33.540Z</time>
      </trkpt>
      <trkpt lat="45.789" lon="6.73118">
        <ele>1943</ele>
        <time>2026-08-14T08:20:34.540Z</time>
      </trkpt>
      <trkpt lat="45.78898" lon="6.73116">
        <ele>1943</ele>
        <time>2026-08-14T08:20:35.540Z</time>
      </trkpt>
      <trkpt lat="45.78896" lon="6.73114">
        <ele>1943</ele>
        <time>2026-08-14T08:20:36.540Z</time>
      </trkpt>
      <trkpt lat="45.78894" lon="6.73112">
        <ele>1944</ele>
        <time>2026-08-14T08:20:37.540Z</time>
      </trkpt>
      <trkpt lat="45.78893" lon="6.7311">
        <ele>1944</ele>
        <time>2026-08-14T08:20:38.540Z</time>
      </trkpt>
      <trkpt lat="45.78891" lon="6.73109">
        <ele>1944</ele>
        <time>2026-08-14T08:20:39.540Z</time>
      </trkpt>
      <trkpt lat="45.7889" lon="6.73107">
        <ele>1944</ele>
        <time>2026-08-14T08:20:40.540Z</time>
      </trkpt>
      <trkpt lat="45.78889" lon="6.73106">
        <ele>1945</ele>
        <time>2026-08-14T08:20:41.540Z</time>
      </trkpt>
      <trkpt lat="45.78888" lon="6.73105">
        <ele>1945</ele>
        <time>2026-08-14T08:20:42.540Z</time>
      </trkpt>
      <trkpt lat="45.78887" lon="6.73104">
        <ele>1945</ele>
        <time>2026-08-14T08:20:43.540Z</time>
      </trkpt>
      <trkpt lat="45.78886" lon="6.73102">
        <ele>1945</ele>
        <time>2026-08-14T08:20:44.540Z</time>
      </trkpt>
      <trkpt lat="45.78885" lon="6.73101">
        <ele>1946</ele>
        <time>2026-08-14T08:20:45.540Z</time>
      </trkpt>
      <trkpt lat="45.78885" lon="6.731">
        <ele>1945</ele>
        <time>2026-08-14T08:20:46.540Z</time>
      </trkpt>
      <trkpt lat="45.78885" lon="6.73099">
        <ele>1945</ele>
        <time>2026-08-14T08:20:47.540Z</time>
      </trkpt>
      <trkpt lat="45.78884" lon="6.73098">
        <ele>1945</ele>
        <time>2026-08-14T08:20:48.540Z</time>
      </trkpt>
      <trkpt lat="45.78884" lon="6.73098">
        <ele>1945</ele>
        <time>2026-08-14T08:20:49.540Z</time>
      </trkpt>
      <trkpt lat="45.78884" lon="6.73097">
        <ele>1945</ele>
        <time>2026-08-14T08:20:50.540Z</time>
      </trkpt>
      <trkpt lat="45.78883" lon="6.73097">
        <ele>1945</ele>
        <time>2026-08-14T08:20:51.540Z</time>
      </trkpt>
      <trkpt lat="45.78881" lon="6.73096">
        <ele>1944</ele>
        <time>2026-08-14T08:20:52.540Z</time>
      </trkpt>
      <trkpt lat="45.7888" lon="6.73095">
        <ele>1944</ele>
        <time>2026-08-14T08:20:53.540Z</time>
      </trkpt>
      <trkpt lat="45.78879" lon="6.73093">
        <ele>1943</ele>
        <time>2026-08-14T08:20:54.540Z</time>
      </trkpt>
      <trkpt lat="45.78878" lon="6.73092">
        <ele>1942</ele>
        <time>2026-08-14T08:20:55.540Z</time>
      </trkpt>
      <trkpt lat="45.78877" lon="6.73092">
        <ele>1942</ele>
        <time>2026-08-14T08:20:56.540Z</time>
      </trkpt>
      <trkpt lat="45.78876" lon="6.73092">
        <ele>1941</ele>
        <time>2026-08-14T08:20:57.540Z</time>
      </trkpt>
      <trkpt lat="45.78875" lon="6.73092">
        <ele>1941</ele>
        <time>2026-08-14T08:20:58.540Z</time>
      </trkpt>
      <trkpt lat="45.78875" lon="6.73093">
        <ele>1940</ele>
        <time>2026-08-14T08:20:59.540Z</time>
      </trkpt>
      <trkpt lat="45.78875" lon="6.73094">
        <ele>1940</ele>
        <time>2026-08-14T08:21:00.540Z</time>
      </trkpt>
      <trkpt lat="45.78875" lon="6.73096">
        <ele>1940</ele>
        <time>2026-08-14T08:21:01.540Z</time>
      </trkpt>
      <trkpt lat="45.78874" lon="6.73097">
        <ele>1939</ele>
        <time>2026-08-14T08:21:02.540Z</time>
      </trkpt>
      <trkpt lat="45.78873" lon="6.73097">
        <ele>1939</ele>
        <time>2026-08-14T08:21:03.540Z</time>
      </trkpt>
      <trkpt lat="45.78872" lon="6.73098">
        <ele>1939</ele>
        <time>2026-08-14T08:21:04.540Z</time>
      </trkpt>
      <trkpt lat="45.7887" lon="6.73098">
        <ele>1938</ele>
        <time>2026-08-14T08:21:05.540Z</time>
      </trkpt>
      <trkpt lat="45.78869" lon="6.73099">
        <ele>1938</ele>
        <time>2026-08-14T08:21:06.540Z</time>
      </trkpt>
      <trkpt lat="45.78869" lon="6.731">
        <ele>1938</ele>
        <time>2026-08-14T08:21:07.540Z</time>
      </trkpt>
      <trkpt lat="45.78868" lon="6.731">
        <ele>1938</ele>
        <time>2026-08-14T08:21:08.540Z</time>
      </trkpt>
      <trkpt lat="45.78866" lon="6.731">
        <ele>1938</ele>
        <time>2026-08-14T08:21:09.540Z</time>
      </trkpt>
      <trkpt lat="45.78865" lon="6.731">
        <ele>1938</ele>
        <time>2026-08-14T08:21:10.540Z</time>
      </trkpt>
      <trkpt lat="45.78863" lon="6.73099">
        <ele>1938</ele>
        <time>2026-08-14T08:21:11.540Z</time>
      </trkpt>
      <trkpt lat="45.78861" lon="6.73099">
        <ele>1938</ele>
        <time>2026-08-14T08:21:12.540Z</time>
      </trkpt>
      <trkpt lat="45.7886" lon="6.73099">
        <ele>1938</ele>
        <time>2026-08-14T08:21:13.540Z</time>
      </trkpt>
      <trkpt lat="45.78859" lon="6.73099">
        <ele>1939</ele>
        <time>2026-08-14T08:21:14.540Z</time>
      </trkpt>
      <trkpt lat="45.78859" lon="6.73099">
        <ele>1939</ele>
        <time>2026-08-14T08:21:15.540Z</time>
      </trkpt>
      <trkpt lat="45.78858" lon="6.731">
        <ele>1939</ele>
        <time>2026-08-14T08:21:16.540Z</time>
      </trkpt>
      <trkpt lat="45.78857" lon="6.731">
        <ele>1939</ele>
        <time>2026-08-14T08:21:17.540Z</time>
      </trkpt>
      <trkpt lat="45.78856" lon="6.73101">
        <ele>1939</ele>
        <time>2026-08-14T08:21:18.540Z</time>
      </trkpt>
      <trkpt lat="45.78856" lon="6.73102">
        <ele>1939</ele>
        <time>2026-08-14T08:21:19.540Z</time>
      </trkpt>
      <trkpt lat="45.78856" lon="6.73103">
        <ele>1939</ele>
        <time>2026-08-14T08:21:20.540Z</time>
      </trkpt>
      <trkpt lat="45.78855" lon="6.73103">
        <ele>1939</ele>
        <time>2026-08-14T08:21:21.540Z</time>
      </trkpt>
      <trkpt lat="45.78855" lon="6.73103">
        <ele>1940</ele>
        <time>2026-08-14T08:21:22.540Z</time>
      </trkpt>
      <trkpt lat="45.78854" lon="6.73102">
        <ele>1940</ele>
        <time>2026-08-14T08:21:23.540Z</time>
      </trkpt>
      <trkpt lat="45.78852" lon="6.731">
        <ele>1940</ele>
        <time>2026-08-14T08:21:24.540Z</time>
      </trkpt>
      <trkpt lat="45.78851" lon="6.73099">
        <ele>1941</ele>
        <time>2026-08-14T08:21:25.540Z</time>
      </trkpt>
      <trkpt lat="45.7885" lon="6.73099">
        <ele>1941</ele>
        <time>2026-08-14T08:21:26.540Z</time>
      </trkpt>
      <trkpt lat="45.7885" lon="6.73099">
        <ele>1942</ele>
        <time>2026-08-14T08:21:27.540Z</time>
      </trkpt>
      <trkpt lat="45.7885" lon="6.73099">
        <ele>1942</ele>
        <time>2026-08-14T08:21:28.540Z</time>
      </trkpt>
      <trkpt lat="45.7885" lon="6.73099">
        <ele>1941</ele>
        <time>2026-08-14T08:21:29.540Z</time>
      </trkpt>
      <trkpt lat="45.7885" lon="6.731">
        <ele>1940</ele>
        <time>2026-08-14T08:21:30.540Z</time>
      </trkpt>
      <trkpt lat="45.78849" lon="6.731">
        <ele>1939</ele>
        <time>2026-08-14T08:21:31.540Z</time>
      </trkpt>
      <trkpt lat="45.78848" lon="6.731">
        <ele>1939</ele>
        <time>2026-08-14T08:21:32.540Z</time>
      </trkpt>
      <trkpt lat="45.78847" lon="6.731">
        <ele>1938</ele>
        <time>2026-08-14T08:21:33.540Z</time>
      </trkpt>
      <trkpt lat="45.78846" lon="6.731">
        <ele>1937</ele>
        <time>2026-08-14T08:21:34.540Z</time>
      </trkpt>
      <trkpt lat="45.78845" lon="6.731">
        <ele>1937</ele>
        <time>2026-08-14T08:21:35.540Z</time>
      </trkpt>
      <trkpt lat="45.78844" lon="6.73099">
        <ele>1937</ele>
        <time>2026-08-14T08:21:36.540Z</time>
      </trkpt>
      <trkpt lat="45.78844" lon="6.73099">
        <ele>1936</ele>
        <time>2026-08-14T08:21:37.540Z</time>
      </trkpt>
      <trkpt lat="45.78843" lon="6.73099">
        <ele>1936</ele>
        <time>2026-08-14T08:21:38.540Z</time>
      </trkpt>
      <trkpt lat="45.78842" lon="6.73098">
        <ele>1936</ele>
        <time>2026-08-14T08:21:39.540Z</time>
      </trkpt>
      <trkpt lat="45.7884" lon="6.73097">
        <ele>1935</ele>
        <time>2026-08-14T08:21:40.540Z</time>
      </trkpt>
      <trkpt lat="45.78839" lon="6.73094">
        <ele>1935</ele>
        <time>2026-08-14T08:21:41.540Z</time>
      </trkpt>
      <trkpt lat="45.78837" lon="6.73092">
        <ele>1935</ele>
        <time>2026-08-14T08:21:42.540Z</time>
      </trkpt>
      <trkpt lat="45.78838" lon="6.7309">
        <ele>1934</ele>
        <time>2026-08-14T08:21:43.540Z</time>
      </trkpt>
      <trkpt lat="45.78837" lon="6.73089">
        <ele>1934</ele>
        <time>2026-08-14T08:21:44.540Z</time>
      </trkpt>
      <trkpt lat="45.78836" lon="6.73088">
        <ele>1934</ele>
        <time>2026-08-14T08:21:45.540Z</time>
      </trkpt>
      <trkpt lat="45.78836" lon="6.73088">
        <ele>1933</ele>
        <time>2026-08-14T08:21:46.540Z</time>
      </trkpt>
      <trkpt lat="45.78835" lon="6.73089">
        <ele>1933</ele>
        <time>2026-08-14T08:21:47.540Z</time>
      </trkpt>
      <trkpt lat="45.78835" lon="6.73089">
        <ele>1933</ele>
        <time>2026-08-14T08:21:48.540Z</time>
      </trkpt>
      <trkpt lat="45.78834" lon="6.73089">
        <ele>1932</ele>
        <time>2026-08-14T08:21:49.540Z</time>
      </trkpt>
      <trkpt lat="45.78832" lon="6.73088">
        <ele>1932</ele>
        <time>2026-08-14T08:21:50.540Z</time>
      </trkpt>
      <trkpt lat="45.7883" lon="6.73086">
        <ele>1931</ele>
        <time>2026-08-14T08:21:51.540Z</time>
      </trkpt>
      <trkpt lat="45.78829" lon="6.73085">
        <ele>1931</ele>
        <time>2026-08-14T08:21:52.540Z</time>
      </trkpt>
      <trkpt lat="45.78828" lon="6.73084">
        <ele>1930</ele>
        <time>2026-08-14T08:21:53.540Z</time>
      </trkpt>
      <trkpt lat="45.78826" lon="6.73082">
        <ele>1929</ele>
        <time>2026-08-14T08:21:54.540Z</time>
      </trkpt>
      <trkpt lat="45.78825" lon="6.7308">
        <ele>1929</ele>
        <time>2026-08-14T08:21:55.540Z</time>
      </trkpt>
      <trkpt lat="45.78824" lon="6.73078">
        <ele>1929</ele>
        <time>2026-08-14T08:21:56.540Z</time>
      </trkpt>
      <trkpt lat="45.78823" lon="6.73076">
        <ele>1929</ele>
        <time>2026-08-14T08:21:57.540Z</time>
      </trkpt>
      <trkpt lat="45.78822" lon="6.73074">
        <ele>1928</ele>
        <time>2026-08-14T08:21:58.540Z</time>
      </trkpt>
      <trkpt lat="45.78822" lon="6.73072">
        <ele>1928</ele>
        <time>2026-08-14T08:21:59.540Z</time>
      </trkpt>
      <trkpt lat="45.78821" lon="6.7307">
        <ele>1927</ele>
        <time>2026-08-14T08:22:00.540Z</time>
      </trkpt>
      <trkpt lat="45.7882" lon="6.73068">
        <ele>1927</ele>
        <time>2026-08-14T08:22:01.540Z</time>
      </trkpt>
      <trkpt lat="45.78818" lon="6.73066">
        <ele>1926</ele>
        <time>2026-08-14T08:22:02.540Z</time>
      </trkpt>
      <trkpt lat="45.78817" lon="6.73065">
        <ele>1926</ele>
        <time>2026-08-14T08:22:03.540Z</time>
      </trkpt>
      <trkpt lat="45.78816" lon="6.73064">
        <ele>1925</ele>
        <time>2026-08-14T08:22:04.540Z</time>
      </trkpt>
      <trkpt lat="45.78815" lon="6.73062">
        <ele>1925</ele>
        <time>2026-08-14T08:22:05.540Z</time>
      </trkpt>
      <trkpt lat="45.78814" lon="6.73059">
        <ele>1924</ele>
        <time>2026-08-14T08:22:06.540Z</time>
      </trkpt>
      <trkpt lat="45.78813" lon="6.73058">
        <ele>1924</ele>
        <time>2026-08-14T08:22:07.540Z</time>
      </trkpt>
      <trkpt lat="45.78812" lon="6.73056">
        <ele>1924</ele>
        <time>2026-08-14T08:22:08.540Z</time>
      </trkpt>
      <trkpt lat="45.7881" lon="6.73054">
        <ele>1923</ele>
        <time>2026-08-14T08:22:09.540Z</time>
      </trkpt>
      <trkpt lat="45.78808" lon="6.73052">
        <ele>1924</ele>
        <time>2026-08-14T08:22:10.540Z</time>
      </trkpt>
      <trkpt lat="45.78805" lon="6.7305">
        <ele>1924</ele>
        <time>2026-08-14T08:22:11.540Z</time>
      </trkpt>
      <trkpt lat="45.78802" lon="6.73047">
        <ele>1924</ele>
        <time>2026-08-14T08:22:12.540Z</time>
      </trkpt>
      <trkpt lat="45.78799" lon="6.73045">
        <ele>1924</ele>
        <time>2026-08-14T08:22:13.540Z</time>
      </trkpt>
      <trkpt lat="45.78799" lon="6.73045">
        <ele>1924</ele>
        <time>2026-08-14T08:22:14.540Z</time>
      </trkpt>
      <trkpt lat="45.78797" lon="6.73043">
        <ele>1923</ele>
        <time>2026-08-14T08:22:15.540Z</time>
      </trkpt>
      <trkpt lat="45.78795" lon="6.73042">
        <ele>1923</ele>
        <time>2026-08-14T08:22:16.540Z</time>
      </trkpt>
      <trkpt lat="45.78793" lon="6.73041">
        <ele>1923</ele>
        <time>2026-08-14T08:22:17.540Z</time>
      </trkpt>
      <trkpt lat="45.7879" lon="6.73039">
        <ele>1922</ele>
        <time>2026-08-14T08:22:18.540Z</time>
      </trkpt>
      <trkpt lat="45.78788" lon="6.73038">
        <ele>1922</ele>
        <time>2026-08-14T08:22:19.540Z</time>
      </trkpt>
      <trkpt lat="45.78786" lon="6.73037">
        <ele>1922</ele>
        <time>2026-08-14T08:22:20.540Z</time>
      </trkpt>
      <trkpt lat="45.78785" lon="6.73036">
        <ele>1922</ele>
        <time>2026-08-14T08:22:21.540Z</time>
      </trkpt>
      <trkpt lat="45.78784" lon="6.73035">
        <ele>1922</ele>
        <time>2026-08-14T08:22:22.540Z</time>
      </trkpt>
      <trkpt lat="45.78783" lon="6.73034">
        <ele>1922</ele>
        <time>2026-08-14T08:22:23.540Z</time>
      </trkpt>
      <trkpt lat="45.78781" lon="6.73033">
        <ele>1922</ele>
        <time>2026-08-14T08:22:24.540Z</time>
      </trkpt>
      <trkpt lat="45.7878" lon="6.73033">
        <ele>1922</ele>
        <time>2026-08-14T08:22:25.540Z</time>
      </trkpt>
      <trkpt lat="45.78779" lon="6.73034">
        <ele>1922</ele>
        <time>2026-08-14T08:22:26.540Z</time>
      </trkpt>
      <trkpt lat="45.78778" lon="6.73034">
        <ele>1921</ele>
        <time>2026-08-14T08:22:27.540Z</time>
      </trkpt>
      <trkpt lat="45.78777" lon="6.73034">
        <ele>1921</ele>
        <time>2026-08-14T08:22:28.540Z</time>
      </trkpt>
      <trkpt lat="45.78777" lon="6.73034">
        <ele>1921</ele>
        <time>2026-08-14T08:22:29.540Z</time>
      </trkpt>
      <trkpt lat="45.78776" lon="6.73035">
        <ele>1921</ele>
        <time>2026-08-14T08:22:30.540Z</time>
      </trkpt>
      <trkpt lat="45.78775" lon="6.73035">
        <ele>1921</ele>
        <time>2026-08-14T08:22:31.540Z</time>
      </trkpt>
      <trkpt lat="45.78772" lon="6.73035">
        <ele>1921</ele>
        <time>2026-08-14T08:22:32.540Z</time>
      </trkpt>
      <trkpt lat="45.7877" lon="6.73035">
        <ele>1920</ele>
        <time>2026-08-14T08:22:33.540Z</time>
      </trkpt>
      <trkpt lat="45.78769" lon="6.73037">
        <ele>1920</ele>
        <time>2026-08-14T08:22:34.540Z</time>
      </trkpt>
      <trkpt lat="45.78769" lon="6.73038">
        <ele>1920</ele>
        <time>2026-08-14T08:22:35.540Z</time>
      </trkpt>
      <trkpt lat="45.78769" lon="6.73039">
        <ele>1919</ele>
        <time>2026-08-14T08:22:36.540Z</time>
      </trkpt>
      <trkpt lat="45.78769" lon="6.7304">
        <ele>1918</ele>
        <time>2026-08-14T08:22:37.540Z</time>
      </trkpt>
      <trkpt lat="45.78769" lon="6.73041">
        <ele>1918</ele>
        <time>2026-08-14T08:22:38.540Z</time>
      </trkpt>
      <trkpt lat="45.78768" lon="6.73042">
        <ele>1917</ele>
        <time>2026-08-14T08:22:39.540Z</time>
      </trkpt>
      <trkpt lat="45.78766" lon="6.73043">
        <ele>1917</ele>
        <time>2026-08-14T08:22:40.540Z</time>
      </trkpt>
      <trkpt lat="45.78765" lon="6.73043">
        <ele>1917</ele>
        <time>2026-08-14T08:22:41.540Z</time>
      </trkpt>
      <trkpt lat="45.78763" lon="6.73043">
        <ele>1917</ele>
        <time>2026-08-14T08:22:42.540Z</time>
      </trkpt>
      <trkpt lat="45.78762" lon="6.73042">
        <ele>1917</ele>
        <time>2026-08-14T08:22:43.540Z</time>
      </trkpt>
      <trkpt lat="45.78761" lon="6.73041">
        <ele>1917</ele>
        <time>2026-08-14T08:22:44.540Z</time>
      </trkpt>
      <trkpt lat="45.7876" lon="6.7304">
        <ele>1917</ele>
        <time>2026-08-14T08:22:45.540Z</time>
      </trkpt>
      <trkpt lat="45.78759" lon="6.73039">
        <ele>1917</ele>
        <time>2026-08-14T08:22:46.540Z</time>
      </trkpt>
      <trkpt lat="45.78758" lon="6.73038">
        <ele>1917</ele>
        <time>2026-08-14T08:22:47.540Z</time>
      </trkpt>
      <trkpt lat="45.78757" lon="6.73037">
        <ele>1917</ele>
        <time>2026-08-14T08:22:48.540Z</time>
      </trkpt>
      <trkpt lat="45.78757" lon="6.73036">
        <ele>1916</ele>
        <time>2026-08-14T08:22:49.540Z</time>
      </trkpt>
      <trkpt lat="45.78757" lon="6.73036">
        <ele>1916</ele>
        <time>2026-08-14T08:22:50.540Z</time>
      </trkpt>
      <trkpt lat="45.78757" lon="6.73036">
        <ele>1916</ele>
        <time>2026-08-14T08:22:51.540Z</time>
      </trkpt>
      <trkpt lat="45.78757" lon="6.73035">
        <ele>1916</ele>
        <time>2026-08-14T08:22:52.540Z</time>
      </trkpt>
      <trkpt lat="45.78757" lon="6.73035">
        <ele>1916</ele>
        <time>2026-08-14T08:22:53.540Z</time>
      </trkpt>
      <trkpt lat="45.78756" lon="6.73035">
        <ele>1917</ele>
        <time>2026-08-14T08:22:54.540Z</time>
      </trkpt>
      <trkpt lat="45.78756" lon="6.73035">
        <ele>1917</ele>
        <time>2026-08-14T08:22:55.540Z</time>
      </trkpt>
      <trkpt lat="45.78756" lon="6.73035">
        <ele>1918</ele>
        <time>2026-08-14T08:22:56.540Z</time>
      </trkpt>
      <trkpt lat="45.78756" lon="6.73035">
        <ele>1918</ele>
        <time>2026-08-14T08:22:57.540Z</time>
      </trkpt>
      <trkpt lat="45.78756" lon="6.73035">
        <ele>1917</ele>
        <time>2026-08-14T08:22:58.540Z</time>
      </trkpt>
      <trkpt lat="45.78756" lon="6.73036">
        <ele>1917</ele>
        <time>2026-08-14T08:22:59.540Z</time>
      </trkpt>
      <trkpt lat="45.78757" lon="6.73036">
        <ele>1917</ele>
        <time>2026-08-14T08:23:00.540Z</time>
      </trkpt>
      <trkpt lat="45.78757" lon="6.73036">
        <ele>1916</ele>
        <time>2026-08-14T08:23:01.540Z</time>
      </trkpt>
      <trkpt lat="45.78757" lon="6.73036">
        <ele>1916</ele>
        <time>2026-08-14T08:23:02.540Z</time>
      </trkpt>
      <trkpt lat="45.78757" lon="6.73036">
        <ele>1916</ele>
        <time>2026-08-14T08:23:03.540Z</time>
      </trkpt>
      <trkpt lat="45.78757" lon="6.73036">
        <ele>1916</ele>
        <time>2026-08-14T08:23:04.540Z</time>
      </trkpt>
      <trkpt lat="45.78757" lon="6.73036">
        <ele>1916</ele>
        <time>2026-08-14T08:23:05.540Z</time>
      </trkpt>
      <trkpt lat="45.78757" lon="6.73036">
        <ele>1916</ele>
        <time>2026-08-14T08:23:06.540Z</time>
      </trkpt>
      <trkpt lat="45.78758" lon="6.73036">
        <ele>1916</ele>
        <time>2026-08-14T08:23:07.540Z</time>
      </trkpt>
      <trkpt lat="45.78757" lon="6.73036">
        <ele>1915</ele>
        <time>2026-08-14T08:23:08.540Z</time>
      </trkpt>
      <trkpt lat="45.78757" lon="6.73036">
        <ele>1915</ele>
        <time>2026-08-14T08:23:09.540Z</time>
      </trkpt>
      <trkpt lat="45.78757" lon="6.73036">
        <ele>1916</ele>
        <time>2026-08-14T08:23:10.540Z</time>
      </trkpt>
      <trkpt lat="45.78757" lon="6.73036">
        <ele>1916</ele>
        <time>2026-08-14T08:23:11.540Z</time>
      </trkpt>
      <trkpt lat="45.78757" lon="6.73036">
        <ele>1916</ele>
        <time>2026-08-14T08:23:12.540Z</time>
      </trkpt>
      <trkpt lat="45.78757" lon="6.73037">
        <ele>1916</ele>
        <time>2026-08-14T08:23:13.540Z</time>
      </trkpt>
      <trkpt lat="45.78757" lon="6.73037">
        <ele>1916</ele>
        <time>2026-08-14T08:23:14.540Z</time>
      </trkpt>
      <trkpt lat="45.78757" lon="6.73037">
        <ele>1916</ele>
        <time>2026-08-14T08:23:15.540Z</time>
      </trkpt>
      <trkpt lat="45.78757" lon="6.73037">
        <ele>1916</ele>
        <time>2026-08-14T08:23:16.540Z</time>
      </trkpt>
      <trkpt lat="45.78757" lon="6.73037">
        <ele>1917</ele>
        <time>2026-08-14T08:23:17.540Z</time>
      </trkpt>
      <trkpt lat="45.78757" lon="6.73037">
        <ele>1917</ele>
        <time>2026-08-14T08:23:18.540Z</time>
      </trkpt>
      <trkpt lat="45.78757" lon="6.73037">
        <ele>1917</ele>
        <time>2026-08-14T08:23:19.540Z</time>
      </trkpt>
      <trkpt lat="45.78757" lon="6.73037">
        <ele>1917</ele>
        <time>2026-08-14T08:23:20.540Z</time>
      </trkpt>
      <trkpt lat="45.78757" lon="6.73037">
        <ele>1917</ele>
        <time>2026-08-14T08:23:21.540Z</time>
      </trkpt>
      <trkpt lat="45.78757" lon="6.73036">
        <ele>1917</ele>
        <time>2026-08-14T08:23:22.540Z</time>
      </trkpt>
      <trkpt lat="45.78757" lon="6.73036">
        <ele>1917</ele>
        <time>2026-08-14T08:23:23.540Z</time>
      </trkpt>
      <trkpt lat="45.78757" lon="6.73036">
        <ele>1917</ele>
        <time>2026-08-14T08:23:24.540Z</time>
      </trkpt>
      <trkpt lat="45.78757" lon="6.73036">
        <ele>1917</ele>
        <time>2026-08-14T08:23:25.540Z</time>
      </trkpt>
      <trkpt lat="45.78757" lon="6.73036">
        <ele>1917</ele>
        <time>2026-08-14T08:23:26.540Z</time>
      </trkpt>
      <trkpt lat="45.78757" lon="6.73036">
        <ele>1917</ele>
        <time>2026-08-14T08:23:27.540Z</time>
      </trkpt>
      <trkpt lat="45.78757" lon="6.73036">
        <ele>1917</ele>
        <time>2026-08-14T08:23:28.540Z</time>
      </trkpt>
      <trkpt lat="45.78757" lon="6.73036">
        <ele>1917</ele>
        <time>2026-08-14T08:23:29.540Z</time>
      </trkpt>
      <trkpt lat="45.78757" lon="6.73036">
        <ele>1917</ele>
        <time>2026-08-14T08:23:30.540Z</time>
      </trkpt>
      <trkpt lat="45.78757" lon="6.73036">
        <ele>1917</ele>
        <time>2026-08-14T08:23:31.540Z</time>
      </trkpt>
      <trkpt lat="45.78757" lon="6.73036">
        <ele>1917</ele>
        <time>2026-08-14T08:23:32.540Z</time>
      </trkpt>
      <trkpt lat="45.78757" lon="6.73036">
        <ele>1917</ele>
        <time>2026-08-14T08:23:33.540Z</time>
      </trkpt>
      <trkpt lat="45.78757" lon="6.73035">
        <ele>1916</ele>
        <time>2026-08-14T08:23:34.540Z</time>
      </trkpt>
      <trkpt lat="45.78757" lon="6.73035">
        <ele>1916</ele>
        <time>2026-08-14T08:23:35.540Z</time>
      </trkpt>
      <trkpt lat="45.78757" lon="6.73035">
        <ele>1916</ele>
        <time>2026-08-14T08:23:36.540Z</time>
      </trkpt>
      <trkpt lat="45.78756" lon="6.73035">
        <ele>1916</ele>
        <time>2026-08-14T08:23:37.540Z</time>
      </trkpt>
      <trkpt lat="45.78756" lon="6.73035">
        <ele>1916</ele>
        <time>2026-08-14T08:23:38.540Z</time>
      </trkpt>
      <trkpt lat="45.78756" lon="6.73035">
        <ele>1916</ele>
        <time>2026-08-14T08:23:39.540Z</time>
      </trkpt>
      <trkpt lat="45.78756" lon="6.73035">
        <ele>1916</ele>
        <time>2026-08-14T08:23:40.540Z</time>
      </trkpt>
      <trkpt lat="45.78756" lon="6.73035">
        <ele>1916</ele>
        <time>2026-08-14T08:23:41.540Z</time>
      </trkpt>
      <trkpt lat="45.78756" lon="6.73035">
        <ele>1916</ele>
        <time>2026-08-14T08:23:42.540Z</time>
      </trkpt>
      <trkpt lat="45.78755" lon="6.73034">
        <ele>1916</ele>
        <time>2026-08-14T08:23:43.540Z</time>
      </trkpt>
      <trkpt lat="45.78755" lon="6.73034">
        <ele>1916</ele>
        <time>2026-08-14T08:23:44.540Z</time>
      </trkpt>
      <trkpt lat="45.78755" lon="6.73034">
        <ele>1916</ele>
        <time>2026-08-14T08:23:45.540Z</time>
      </trkpt>
      <trkpt lat="45.78755" lon="6.73034">
        <ele>1916</ele>
        <time>2026-08-14T08:23:46.540Z</time>
      </trkpt>
      <trkpt lat="45.78755" lon="6.73034">
        <ele>1916</ele>
        <time>2026-08-14T08:23:47.540Z</time>
      </trkpt>
      <trkpt lat="45.78755" lon="6.73033">
        <ele>1916</ele>
        <time>2026-08-14T08:23:48.540Z</time>
      </trkpt>
      <trkpt lat="45.78754" lon="6.73033">
        <ele>1916</ele>
        <time>2026-08-14T08:23:49.540Z</time>
      </trkpt>
      <trkpt lat="45.78754" lon="6.73033">
        <ele>1916</ele>
        <time>2026-08-14T08:23:50.540Z</time>
      </trkpt>
      <trkpt lat="45.78754" lon="6.73033">
        <ele>1915</ele>
        <time>2026-08-14T08:23:51.540Z</time>
      </trkpt>
      <trkpt lat="45.78754" lon="6.73033">
        <ele>1915</ele>
        <time>2026-08-14T08:23:52.540Z</time>
      </trkpt>
      <trkpt lat="45.78754" lon="6.73033">
        <ele>1915</ele>
        <time>2026-08-14T08:23:53.540Z</time>
      </trkpt>
      <trkpt lat="45.78755" lon="6.73033">
        <ele>1914</ele>
        <time>2026-08-14T08:23:54.540Z</time>
      </trkpt>
      <trkpt lat="45.78755" lon="6.73033">
        <ele>1913</ele>
        <time>2026-08-14T08:23:55.540Z</time>
      </trkpt>
      <trkpt lat="45.78755" lon="6.73033">
        <ele>1912</ele>
        <time>2026-08-14T08:23:56.540Z</time>
      </trkpt>
      <trkpt lat="45.78755" lon="6.73033">
        <ele>1911</ele>
        <time>2026-08-14T08:23:57.540Z</time>
      </trkpt>
      <trkpt lat="45.78755" lon="6.73033">
        <ele>1910</ele>
        <time>2026-08-14T08:23:58.540Z</time>
      </trkpt>
      <trkpt lat="45.78755" lon="6.73034">
        <ele>1908</ele>
        <time>2026-08-14T08:23:59.540Z</time>
      </trkpt>
      <trkpt lat="45.78755" lon="6.73034">
        <ele>1907</ele>
        <time>2026-08-14T08:24:00.540Z</time>
      </trkpt>
      <trkpt lat="45.78755" lon="6.73034">
        <ele>1906</ele>
        <time>2026-08-14T08:24:01.540Z</time>
      </trkpt>
      <trkpt lat="45.78755" lon="6.73034">
        <ele>1905</ele>
        <time>2026-08-14T08:24:02.540Z</time>
      </trkpt>
      <trkpt lat="45.78755" lon="6.73034">
        <ele>1903</ele>
        <time>2026-08-14T08:24:03.540Z</time>
      </trkpt>
      <trkpt lat="45.78755" lon="6.73034">
        <ele>1902</ele>
        <time>2026-08-14T08:24:04.540Z</time>
      </trkpt>
      <trkpt lat="45.78755" lon="6.73034">
        <ele>1902</ele>
        <time>2026-08-14T08:24:05.540Z</time>
      </trkpt>
      <trkpt lat="45.78755" lon="6.73034">
        <ele>1901</ele>
        <time>2026-08-14T08:24:06.540Z</time>
      </trkpt>
      <trkpt lat="45.78755" lon="6.73034">
        <ele>1900</ele>
        <time>2026-08-14T08:24:07.540Z</time>
      </trkpt>
      <trkpt lat="45.78755" lon="6.73034">
        <ele>1900</ele>
        <time>2026-08-14T08:24:08.540Z</time>
      </trkpt>
      <trkpt lat="45.78755" lon="6.73034">
        <ele>1899</ele>
        <time>2026-08-14T08:24:09.540Z</time>
      </trkpt>
      <trkpt lat="45.78755" lon="6.73034">
        <ele>1899</ele>
        <time>2026-08-14T08:24:10.540Z</time>
      </trkpt>
      <trkpt lat="45.78755" lon="6.73034">
        <ele>1898</ele>
        <time>2026-08-14T08:24:11.540Z</time>
      </trkpt>
      <trkpt lat="45.78755" lon="6.73034">
        <ele>1898</ele>
        <time>2026-08-14T08:24:12.540Z</time>
      </trkpt>
      <trkpt lat="45.78755" lon="6.73034">
        <ele>1898</ele>
        <time>2026-08-14T08:24:13.540Z</time>
      </trkpt>
      <trkpt lat="45.78755" lon="6.73034">
        <ele>1897</ele>
        <time>2026-08-14T08:24:14.540Z</time>
      </trkpt>
      <trkpt lat="45.78755" lon="6.73034">
        <ele>1897</ele>
        <time>2026-08-14T08:24:15.540Z</time>
      </trkpt>
      <trkpt lat="45.78755" lon="6.73034">
        <ele>1897</ele>
        <time>2026-08-14T08:24:16.540Z</time>
      </trkpt>
      <trkpt lat="45.78755" lon="6.73034">
        <ele>1897</ele>
        <time>2026-08-14T08:24:17.540Z</time>
      </trkpt>
      <trkpt lat="45.78755" lon="6.73034">
        <ele>1897</ele>
        <time>2026-08-14T08:24:18.540Z</time>
      </trkpt>
      <trkpt lat="45.78755" lon="6.73034">
        <ele>1896</ele>
        <time>2026-08-14T08:24:19.540Z</time>
      </trkpt>
      <trkpt lat="45.78755" lon="6.73034">
        <ele>1896</ele>
        <time>2026-08-14T08:24:20.540Z</time>
      </trkpt>
      <trkpt lat="45.78755" lon="6.73035">
        <ele>1896</ele>
        <time>2026-08-14T08:24:21.540Z</time>
      </trkpt>
      <trkpt lat="45.78755" lon="6.73035">
        <ele>1896</ele>
        <time>2026-08-14T08:24:22.540Z</time>
      </trkpt>
      <trkpt lat="45.78755" lon="6.73035">
        <ele>1896</ele>
        <time>2026-08-14T08:24:23.540Z</time>
      </trkpt>
      <trkpt lat="45.78755" lon="6.73035">
        <ele>1896</ele>
        <time>2026-08-14T08:24:24.540Z</time>
      </trkpt>
      <trkpt lat="45.78755" lon="6.73035">
        <ele>1896</ele>
        <time>2026-08-14T08:24:25.540Z</time>
      </trkpt>
      <trkpt lat="45.78755" lon="6.73035">
        <ele>1896</ele>
        <time>2026-08-14T08:24:26.540Z</time>
      </trkpt>
      <trkpt lat="45.78755" lon="6.73035">
        <ele>1896</ele>
        <time>2026-08-14T08:24:27.540Z</time>
      </trkpt>
      <trkpt lat="45.78755" lon="6.73035">
        <ele>1895</ele>
        <time>2026-08-14T08:24:28.540Z</time>
      </trkpt>
      <trkpt lat="45.78755" lon="6.73035">
        <ele>1895</ele>
        <time>2026-08-14T08:24:29.540Z</time>
      </trkpt>
      <trkpt lat="45.78755" lon="6.73035">
        <ele>1895</ele>
        <time>2026-08-14T08:24:30.540Z</time>
      </trkpt>
      <trkpt lat="45.78755" lon="6.73035">
        <ele>1895</ele>
        <time>2026-08-14T08:24:31.540Z</time>
      </trkpt>
      <trkpt lat="45.78755" lon="6.73035">
        <ele>1895</ele>
        <time>2026-08-14T08:24:32.540Z</time>
      </trkpt>
      <trkpt lat="45.78755" lon="6.73035">
        <ele>1895</ele>
        <time>2026-08-14T08:24:33.540Z</time>
      </trkpt>
      <trkpt lat="45.78755" lon="6.73035">
        <ele>1895</ele>
        <time>2026-08-14T08:24:34.540Z</time>
      </trkpt>
      <trkpt lat="45.78755" lon="6.73035">
        <ele>1895</ele>
        <time>2026-08-14T08:24:35.540Z</time>
      </trkpt>
      <trkpt lat="45.78756" lon="6.73035">
        <ele>1895</ele>
        <time>2026-08-14T08:24:36.540Z</time>
      </trkpt>
      <trkpt lat="45.78756" lon="6.73035">
        <ele>1895</ele>
        <time>2026-08-14T08:24:37.540Z</time>
      </trkpt>
      <trkpt lat="45.78756" lon="6.73035">
        <ele>1895</ele>
        <time>2026-08-14T08:24:38.540Z</time>
      </trkpt>
      <trkpt lat="45.78756" lon="6.73035">
        <ele>1895</ele>
        <time>2026-08-14T08:24:39.540Z</time>
      </trkpt>
      <trkpt lat="45.78756" lon="6.73035">
        <ele>1895</ele>
        <time>2026-08-14T08:24:40.540Z</time>
      </trkpt>
      <trkpt lat="45.78756" lon="6.73035">
        <ele>1895</ele>
        <time>2026-08-14T08:24:41.540Z</time>
      </trkpt>
      <trkpt lat="45.78756" lon="6.73035">
        <ele>1895</ele>
        <time>2026-08-14T08:24:42.540Z</time>
      </trkpt>
      <trkpt lat="45.78756" lon="6.73035">
        <ele>1895</ele>
        <time>2026-08-14T08:24:43.540Z</time>
      </trkpt>
      <trkpt lat="45.78756" lon="6.73035">
        <ele>1895</ele>
        <time>2026-08-14T08:24:44.540Z</time>
      </trkpt>
      <trkpt lat="45.78756" lon="6.73035">
        <ele>1895</ele>
        <time>2026-08-14T08:24:45.540Z</time>
      </trkpt>
      <trkpt lat="45.78756" lon="6.73035">
        <ele>1895</ele>
        <time>2026-08-14T08:24:46.540Z</time>
      </trkpt>
      <trkpt lat="45.78756" lon="6.73035">
        <ele>1895</ele>
        <time>2026-08-14T08:24:47.540Z</time>
      </trkpt>
      <trkpt lat="45.78756" lon="6.73035">
        <ele>1895</ele>
        <time>2026-08-14T08:24:48.540Z</time>
      </trkpt>
      <trkpt lat="45.78756" lon="6.73035">
        <ele>1895</ele>
        <time>2026-08-14T08:24:49.540Z</time>
      </trkpt>
      <trkpt lat="45.78756" lon="6.73035">
        <ele>1895</ele>
        <time>2026-08-14T08:24:50.540Z</time>
      </trkpt>
      <trkpt lat="45.78756" lon="6.73035">
        <ele>1895</ele>
        <time>2026-08-14T08:24:51.540Z</time>
      </trkpt>
      <trkpt lat="45.78756" lon="6.73035">
        <ele>1895</ele>
        <time>2026-08-14T08:24:52.540Z</time>
      </trkpt>
      <trkpt lat="45.78756" lon="6.73036">
        <ele>1895</ele>
        <time>2026-08-14T08:24:53.540Z</time>
      </trkpt>
      <trkpt lat="45.78756" lon="6.73036">
        <ele>1895</ele>
        <time>2026-08-14T08:24:54.540Z</time>
      </trkpt>
      <trkpt lat="45.78756" lon="6.73036">
        <ele>1896</ele>
        <time>2026-08-14T08:24:55.540Z</time>
      </trkpt>
      <trkpt lat="45.78756" lon="6.73036">
        <ele>1896</ele>
        <time>2026-08-14T08:24:56.540Z</time>
      </trkpt>
      <trkpt lat="45.78756" lon="6.73036">
        <ele>1896</ele>
        <time>2026-08-14T08:24:57.540Z</time>
      </trkpt>
      <trkpt lat="45.78756" lon="6.73036">
        <ele>1896</ele>
        <time>2026-08-14T08:24:58.540Z</time>
      </trkpt>
      <trkpt lat="45.78756" lon="6.73036">
        <ele>1896</ele>
        <time>2026-08-14T08:24:59.540Z</time>
      </trkpt>
      <trkpt lat="45.78756" lon="6.73036">
        <ele>1896</ele>
        <time>2026-08-14T08:25:00.540Z</time>
      </trkpt>
      <trkpt lat="45.78756" lon="6.73036">
        <ele>1896</ele>
        <time>2026-08-14T08:25:01.540Z</time>
      </trkpt>
      <trkpt lat="45.78756" lon="6.73036">
        <ele>1896</ele>
        <time>2026-08-14T08:25:02.540Z</time>
      </trkpt>
      <trkpt lat="45.78756" lon="6.73036">
        <ele>1896</ele>
        <time>2026-08-14T08:25:03.540Z</time>
      </trkpt>
      <trkpt lat="45.78756" lon="6.73036">
        <ele>1896</ele>
        <time>2026-08-14T08:25:04.540Z</time>
      </trkpt>
      <trkpt lat="45.78756" lon="6.73036">
        <ele>1896</ele>
        <time>2026-08-14T08:25:05.540Z</time>
      </trkpt>
      <trkpt lat="45.78756" lon="6.73036">
        <ele>1896</ele>
        <time>2026-08-14T08:25:06.540Z</time>
      </trkpt>
      <trkpt lat="45.78756" lon="6.73036">
        <ele>1896</ele>
        <time>2026-08-14T08:25:07.540Z</time>
      </trkpt>
      <trkpt lat="45.78756" lon="6.73036">
        <ele>1896</ele>
        <time>2026-08-14T08:25:08.540Z</time>
      </trkpt>
      <trkpt lat="45.78756" lon="6.73036">
        <ele>1896</ele>
        <time>2026-08-14T08:25:09.540Z</time>
      </trkpt>
      <trkpt lat="45.78756" lon="6.73036">
        <ele>1896</ele>
        <time>2026-08-14T08:25:10.540Z</time>
      </trkpt>
      <trkpt lat="45.78756" lon="6.73036">
        <ele>1896</ele>
        <time>2026-08-14T08:25:11.540Z</time>
      </trkpt>
      <trkpt lat="45.78756" lon="6.73036">
        <ele>1896</ele>
        <time>2026-08-14T08:25:12.540Z</time>
      </trkpt>
      <trkpt lat="45.78756" lon="6.73036">
        <ele>1896</ele>
        <time>2026-08-14T08:25:13.540Z</time>
      </trkpt>
      <trkpt lat="45.78756" lon="6.73035">
        <ele>1896</ele>
        <time>2026-08-14T08:25:14.540Z</time>
      </trkpt>
      <trkpt lat="45.78756" lon="6.73035">
        <ele>1896</ele>
        <time>2026-08-14T08:25:15.540Z</time>
      </trkpt>
      <trkpt lat="45.78756" lon="6.73035">
        <ele>1896</ele>
        <time>2026-08-14T08:25:16.540Z</time>
      </trkpt>
      <trkpt lat="45.78756" lon="6.73035">
        <ele>1896</ele>
        <time>2026-08-14T08:25:17.540Z</time>
      </trkpt>
      <trkpt lat="45.78756" lon="6.73035">
        <ele>1896</ele>
        <time>2026-08-14T08:25:18.540Z</time>
      </trkpt>
      <trkpt lat="45.78756" lon="6.73035">
        <ele>1896</ele>
        <time>2026-08-14T08:25:19.540Z</time>
      </trkpt>
      <trkpt lat="45.78756" lon="6.73035">
        <ele>1896</ele>
        <time>2026-08-14T08:25:20.540Z</time>
      </trkpt>
      <trkpt lat="45.78756" lon="6.73035">
        <ele>1896</ele>
        <time>2026-08-14T08:25:21.540Z</time>
      </trkpt>
      <trkpt lat="45.78756" lon="6.73035">
        <ele>1896</ele>
        <time>2026-08-14T08:25:22.540Z</time>
      </trkpt>
      <trkpt lat="45.78756" lon="6.73035">
        <ele>1896</ele>
        <time>2026-08-14T08:25:23.540Z</time>
      </trkpt>
      <trkpt lat="45.78756" lon="6.73035">
        <ele>1896</ele>
        <time>2026-08-14T08:25:24.540Z</time>
      </trkpt>
      <trkpt lat="45.78756" lon="6.73035">
        <ele>1896</ele>
        <time>2026-08-14T08:25:25.540Z</time>
      </trkpt>
      <trkpt lat="45.78756" lon="6.73035">
        <ele>1896</ele>
        <time>2026-08-14T08:25:26.540Z</time>
      </trkpt>
      <trkpt lat="45.78756" lon="6.73035">
        <ele>1896</ele>
        <time>2026-08-14T08:25:27.540Z</time>
      </trkpt>
      <trkpt lat="45.78756" lon="6.73035">
        <ele>1896</ele>
        <time>2026-08-14T08:25:28.540Z</time>
      </trkpt>
      <trkpt lat="45.78756" lon="6.73035">
        <ele>1896</ele>
        <time>2026-08-14T08:25:29.540Z</time>
      </trkpt>
      <trkpt lat="45.78756" lon="6.73035">
        <ele>1896</ele>
        <time>2026-08-14T08:25:30.540Z</time>
      </trkpt>
      <trkpt lat="45.78756" lon="6.73035">
        <ele>1896</ele>
        <time>2026-08-14T08:25:31.540Z</time>
      </trkpt>
      <trkpt lat="45.78756" lon="6.73036">
        <ele>1896</ele>
        <time>2026-08-14T08:25:32.540Z</time>
      </trkpt>
      <trkpt lat="45.78756" lon="6.73036">
        <ele>1896</ele>
        <time>2026-08-14T08:25:33.540Z</time>
      </trkpt>
      <trkpt lat="45.78757" lon="6.73036">
        <ele>1896</ele>
        <time>2026-08-14T08:25:34.540Z</time>
      </trkpt>
      <trkpt lat="45.78757" lon="6.73036">
        <ele>1896</ele>
        <time>2026-08-14T08:25:35.540Z</time>
      </trkpt>
      <trkpt lat="45.78757" lon="6.73036">
        <ele>1896</ele>
        <time>2026-08-14T08:25:36.540Z</time>
      </trkpt>
      <trkpt lat="45.78757" lon="6.73036">
        <ele>1896</ele>
        <time>2026-08-14T08:25:37.540Z</time>
      </trkpt>
      <trkpt lat="45.78757" lon="6.73036">
        <ele>1896</ele>
        <time>2026-08-14T08:25:38.540Z</time>
      </trkpt>
      <trkpt lat="45.78757" lon="6.73036">
        <ele>1896</ele>
        <time>2026-08-14T08:25:39.540Z</time>
      </trkpt>
      <trkpt lat="45.78757" lon="6.73036">
        <ele>1896</ele>
        <time>2026-08-14T08:25:40.540Z</time>
      </trkpt>
      <trkpt lat="45.78757" lon="6.73036">
        <ele>1896</ele>
        <time>2026-08-14T08:25:41.540Z</time>
      </trkpt>
      <trkpt lat="45.78757" lon="6.73036">
        <ele>1896</ele>
        <time>2026-08-14T08:25:42.540Z</time>
      </trkpt>
      <trkpt lat="45.78757" lon="6.73036">
        <ele>1896</ele>
        <time>2026-08-14T08:25:43.540Z</time>
      </trkpt>
      <trkpt lat="45.78757" lon="6.73037">
        <ele>1896</ele>
        <time>2026-08-14T08:25:44.540Z</time>
      </trkpt>
      <trkpt lat="45.78757" lon="6.73037">
        <ele>1896</ele>
        <time>2026-08-14T08:25:45.540Z</time>
      </trkpt>
      <trkpt lat="45.78757" lon="6.73037">
        <ele>1896</ele>
        <time>2026-08-14T08:25:46.540Z</time>
      </trkpt>
      <trkpt lat="45.78757" lon="6.73037">
        <ele>1896</ele>
        <time>2026-08-14T08:25:47.540Z</time>
      </trkpt>
      <trkpt lat="45.78757" lon="6.73037">
        <ele>1896</ele>
        <time>2026-08-14T08:25:48.540Z</time>
      </trkpt>
      <trkpt lat="45.78757" lon="6.73037">
        <ele>1896</ele>
        <time>2026-08-14T08:25:49.540Z</time>
      </trkpt>
      <trkpt lat="45.78757" lon="6.73037">
        <ele>1896</ele>
        <time>2026-08-14T08:25:50.540Z</time>
      </trkpt>
      <trkpt lat="45.78757" lon="6.73038">
        <ele>1896</ele>
        <time>2026-08-14T08:25:51.540Z</time>
      </trkpt>
      <trkpt lat="45.78757" lon="6.73038">
        <ele>1896</ele>
        <time>2026-08-14T08:25:52.540Z</time>
      </trkpt>
      <trkpt lat="45.78757" lon="6.73038">
        <ele>1896</ele>
        <time>2026-08-14T08:25:53.540Z</time>
      </trkpt>
      <trkpt lat="45.78757" lon="6.73038">
        <ele>1896</ele>
        <time>2026-08-14T08:25:54.540Z</time>
      </trkpt>
      <trkpt lat="45.78757" lon="6.73038">
        <ele>1896</ele>
        <time>2026-08-14T08:25:55.540Z</time>
      </trkpt>
      <trkpt lat="45.78757" lon="6.73038">
        <ele>1896</ele>
        <time>2026-08-14T08:25:56.540Z</time>
      </trkpt>
      <trkpt lat="45.78757" lon="6.73039">
        <ele>1896</ele>
        <time>2026-08-14T08:25:57.540Z</time>
      </trkpt>
      <trkpt lat="45.78757" lon="6.73039">
        <ele>1896</ele>
        <time>2026-08-14T08:25:58.540Z</time>
      </trkpt>
      <trkpt lat="45.78757" lon="6.73039">
        <ele>1896</ele>
        <time>2026-08-14T08:25:59.540Z</time>
      </trkpt>
      <trkpt lat="45.78757" lon="6.73039">
        <ele>1896</ele>
        <time>2026-08-14T08:26:00.540Z</time>
      </trkpt>
      <trkpt lat="45.78757" lon="6.73039">
        <ele>1896</ele>
        <time>2026-08-14T08:26:01.540Z</time>
      </trkpt>
      <trkpt lat="45.78757" lon="6.73039">
        <ele>1896</ele>
        <time>2026-08-14T08:26:02.540Z</time>
      </trkpt>
      <trkpt lat="45.78756" lon="6.73039">
        <ele>1896</ele>
        <time>2026-08-14T08:26:03.540Z</time>
      </trkpt>
      <trkpt lat="45.78755" lon="6.73038">
        <ele>1896</ele>
        <time>2026-08-14T08:26:04.540Z</time>
      </trkpt>
      <trkpt lat="45.78753" lon="6.73037">
        <ele>1896</ele>
        <time>2026-08-14T08:26:05.540Z</time>
      </trkpt>
      <trkpt lat="45.78751" lon="6.73036">
        <ele>1896</ele>
        <time>2026-08-14T08:26:06.540Z</time>
      </trkpt>
      <trkpt lat="45.7875" lon="6.73036">
        <ele>1897</ele>
        <time>2026-08-14T08:26:07.540Z</time>
      </trkpt>
      <trkpt lat="45.78749" lon="6.73036">
        <ele>1896</ele>
        <time>2026-08-14T08:26:08.540Z</time>
      </trkpt>
      <trkpt lat="45.78748" lon="6.73036">
        <ele>1896</ele>
        <time>2026-08-14T08:26:09.540Z</time>
      </trkpt>
      <trkpt lat="45.78747" lon="6.73036">
        <ele>1896</ele>
        <time>2026-08-14T08:26:10.540Z</time>
      </trkpt>
      <trkpt lat="45.78746" lon="6.73035">
        <ele>1896</ele>
        <time>2026-08-14T08:26:11.540Z</time>
      </trkpt>
      <trkpt lat="45.78745" lon="6.73036">
        <ele>1896</ele>
        <time>2026-08-14T08:26:12.540Z</time>
      </trkpt>
      <trkpt lat="45.78744" lon="6.73036">
        <ele>1895</ele>
        <time>2026-08-14T08:26:13.540Z</time>
      </trkpt>
      <trkpt lat="45.78743" lon="6.73036">
        <ele>1895</ele>
        <time>2026-08-14T08:26:14.540Z</time>
      </trkpt>
      <trkpt lat="45.78743" lon="6.73035">
        <ele>1895</ele>
        <time>2026-08-14T08:26:15.540Z</time>
      </trkpt>
      <trkpt lat="45.78742" lon="6.73035">
        <ele>1895</ele>
        <time>2026-08-14T08:26:16.540Z</time>
      </trkpt>
      <trkpt lat="45.78742" lon="6.73034">
        <ele>1895</ele>
        <time>2026-08-14T08:26:17.540Z</time>
      </trkpt>
      <trkpt lat="45.78742" lon="6.73035">
        <ele>1895</ele>
        <time>2026-08-14T08:26:18.540Z</time>
      </trkpt>
      <trkpt lat="45.78741" lon="6.73036">
        <ele>1895</ele>
        <time>2026-08-14T08:26:19.540Z</time>
      </trkpt>
      <trkpt lat="45.78741" lon="6.73037">
        <ele>1895</ele>
        <time>2026-08-14T08:26:20.540Z</time>
      </trkpt>
      <trkpt lat="45.7874" lon="6.73037">
        <ele>1895</ele>
        <time>2026-08-14T08:26:21.540Z</time>
      </trkpt>
      <trkpt lat="45.78739" lon="6.73038">
        <ele>1895</ele>
        <time>2026-08-14T08:26:22.540Z</time>
      </trkpt>
      <trkpt lat="45.78738" lon="6.73039">
        <ele>1895</ele>
        <time>2026-08-14T08:26:23.540Z</time>
      </trkpt>
      <trkpt lat="45.78737" lon="6.73039">
        <ele>1895</ele>
        <time>2026-08-14T08:26:24.540Z</time>
      </trkpt>
      <trkpt lat="45.78735" lon="6.73039">
        <ele>1895</ele>
        <time>2026-08-14T08:26:25.540Z</time>
      </trkpt>
      <trkpt lat="45.78734" lon="6.73038">
        <ele>1894</ele>
        <time>2026-08-14T08:26:26.540Z</time>
      </trkpt>
      <trkpt lat="45.78733" lon="6.73037">
        <ele>1894</ele>
        <time>2026-08-14T08:26:27.540Z</time>
      </trkpt>
      <trkpt lat="45.78732" lon="6.73037">
        <ele>1894</ele>
        <time>2026-08-14T08:26:28.540Z</time>
      </trkpt>
      <trkpt lat="45.78732" lon="6.73037">
        <ele>1894</ele>
        <time>2026-08-14T08:26:29.540Z</time>
      </trkpt>
      <trkpt lat="45.78732" lon="6.73037">
        <ele>1894</ele>
        <time>2026-08-14T08:26:30.540Z</time>
      </trkpt>
      <trkpt lat="45.78731" lon="6.73036">
        <ele>1894</ele>
        <time>2026-08-14T08:26:31.540Z</time>
      </trkpt>
      <trkpt lat="45.7873" lon="6.73035">
        <ele>1894</ele>
        <time>2026-08-14T08:26:32.540Z</time>
      </trkpt>
      <trkpt lat="45.78729" lon="6.73034">
        <ele>1893</ele>
        <time>2026-08-14T08:26:33.540Z</time>
      </trkpt>
      <trkpt lat="45.78728" lon="6.73033">
        <ele>1893</ele>
        <time>2026-08-14T08:26:34.540Z</time>
      </trkpt>
      <trkpt lat="45.78727" lon="6.73032">
        <ele>1893</ele>
        <time>2026-08-14T08:26:35.540Z</time>
      </trkpt>
      <trkpt lat="45.78726" lon="6.73031">
        <ele>1893</ele>
        <time>2026-08-14T08:26:36.540Z</time>
      </trkpt>
      <trkpt lat="45.78724" lon="6.73031">
        <ele>1893</ele>
        <time>2026-08-14T08:26:37.540Z</time>
      </trkpt>
      <trkpt lat="45.78723" lon="6.7303">
        <ele>1894</ele>
        <time>2026-08-14T08:26:38.540Z</time>
      </trkpt>
      <trkpt lat="45.78721" lon="6.73029">
        <ele>1894</ele>
        <time>2026-08-14T08:26:39.540Z</time>
      </trkpt>
      <trkpt lat="45.7872" lon="6.73028">
        <ele>1894</ele>
        <time>2026-08-14T08:26:40.540Z</time>
      </trkpt>
      <trkpt lat="45.78719" lon="6.73028">
        <ele>1894</ele>
        <time>2026-08-14T08:26:41.540Z</time>
      </trkpt>
      <trkpt lat="45.78718" lon="6.73029">
        <ele>1894</ele>
        <time>2026-08-14T08:26:42.540Z</time>
      </trkpt>
      <trkpt lat="45.78718" lon="6.73029">
        <ele>1894</ele>
        <time>2026-08-14T08:26:43.540Z</time>
      </trkpt>
      <trkpt lat="45.78717" lon="6.7303">
        <ele>1894</ele>
        <time>2026-08-14T08:26:44.540Z</time>
      </trkpt>
      <trkpt lat="45.78717" lon="6.7303">
        <ele>1894</ele>
        <time>2026-08-14T08:26:45.540Z</time>
      </trkpt>
      <trkpt lat="45.78716" lon="6.73029">
        <ele>1894</ele>
        <time>2026-08-14T08:26:46.540Z</time>
      </trkpt>
      <trkpt lat="45.78715" lon="6.73028">
        <ele>1894</ele>
        <time>2026-08-14T08:26:47.540Z</time>
      </trkpt>
      <trkpt lat="45.78714" lon="6.73028">
        <ele>1894</ele>
        <time>2026-08-14T08:26:48.540Z</time>
      </trkpt>
      <trkpt lat="45.78713" lon="6.73027">
        <ele>1894</ele>
        <time>2026-08-14T08:26:49.540Z</time>
      </trkpt>
      <trkpt lat="45.78711" lon="6.73027">
        <ele>1893</ele>
        <time>2026-08-14T08:26:50.540Z</time>
      </trkpt>
      <trkpt lat="45.78709" lon="6.73025">
        <ele>1893</ele>
        <time>2026-08-14T08:26:51.540Z</time>
      </trkpt>
      <trkpt lat="45.78708" lon="6.73023">
        <ele>1892</ele>
        <time>2026-08-14T08:26:52.540Z</time>
      </trkpt>
      <trkpt lat="45.78706" lon="6.73022">
        <ele>1892</ele>
        <time>2026-08-14T08:26:53.540Z</time>
      </trkpt>
      <trkpt lat="45.78705" lon="6.73022">
        <ele>1891</ele>
        <time>2026-08-14T08:26:54.540Z</time>
      </trkpt>
      <trkpt lat="45.78704" lon="6.73022">
        <ele>1891</ele>
        <time>2026-08-14T08:26:55.540Z</time>
      </trkpt>
      <trkpt lat="45.78703" lon="6.73021">
        <ele>1890</ele>
        <time>2026-08-14T08:26:56.540Z</time>
      </trkpt>
      <trkpt lat="45.78702" lon="6.73021">
        <ele>1890</ele>
        <time>2026-08-14T08:26:57.540Z</time>
      </trkpt>
      <trkpt lat="45.78701" lon="6.73021">
        <ele>1889</ele>
        <time>2026-08-14T08:26:58.540Z</time>
      </trkpt>
      <trkpt lat="45.78699" lon="6.7302">
        <ele>1889</ele>
        <time>2026-08-14T08:26:59.540Z</time>
      </trkpt>
      <trkpt lat="45.78698" lon="6.7302">
        <ele>1889</ele>
        <time>2026-08-14T08:27:00.540Z</time>
      </trkpt>
      <trkpt lat="45.78696" lon="6.73019">
        <ele>1888</ele>
        <time>2026-08-14T08:27:01.540Z</time>
      </trkpt>
      <trkpt lat="45.78695" lon="6.73018">
        <ele>1888</ele>
        <time>2026-08-14T08:27:02.540Z</time>
      </trkpt>
      <trkpt lat="45.78693" lon="6.73018">
        <ele>1887</ele>
        <time>2026-08-14T08:27:03.540Z</time>
      </trkpt>
      <trkpt lat="45.78692" lon="6.73019">
        <ele>1887</ele>
        <time>2026-08-14T08:27:04.540Z</time>
      </trkpt>
      <trkpt lat="45.78691" lon="6.73021">
        <ele>1886</ele>
        <time>2026-08-14T08:27:05.540Z</time>
      </trkpt>
      <trkpt lat="45.78691" lon="6.73022">
        <ele>1885</ele>
        <time>2026-08-14T08:27:06.540Z</time>
      </trkpt>
      <trkpt lat="45.7869" lon="6.73023">
        <ele>1884</ele>
        <time>2026-08-14T08:27:07.540Z</time>
      </trkpt>
      <trkpt lat="45.78689" lon="6.73023">
        <ele>1884</ele>
        <time>2026-08-14T08:27:08.540Z</time>
      </trkpt>
      <trkpt lat="45.78689" lon="6.73022">
        <ele>1883</ele>
        <time>2026-08-14T08:27:09.540Z</time>
      </trkpt>
      <trkpt lat="45.78688" lon="6.7302">
        <ele>1882</ele>
        <time>2026-08-14T08:27:10.540Z</time>
      </trkpt>
      <trkpt lat="45.78688" lon="6.73019">
        <ele>1882</ele>
        <time>2026-08-14T08:27:11.540Z</time>
      </trkpt>
      <trkpt lat="45.78688" lon="6.73018">
        <ele>1881</ele>
        <time>2026-08-14T08:27:12.540Z</time>
      </trkpt>
      <trkpt lat="45.78687" lon="6.73017">
        <ele>1880</ele>
        <time>2026-08-14T08:27:13.540Z</time>
      </trkpt>
      <trkpt lat="45.78687" lon="6.73016">
        <ele>1879</ele>
        <time>2026-08-14T08:27:14.540Z</time>
      </trkpt>
      <trkpt lat="45.78686" lon="6.73016">
        <ele>1879</ele>
        <time>2026-08-14T08:27:15.540Z</time>
      </trkpt>
      <trkpt lat="45.78686" lon="6.73014">
        <ele>1878</ele>
        <time>2026-08-14T08:27:16.540Z</time>
      </trkpt>
      <trkpt lat="45.78686" lon="6.73013">
        <ele>1878</ele>
        <time>2026-08-14T08:27:17.540Z</time>
      </trkpt>
      <trkpt lat="45.78686" lon="6.73011">
        <ele>1878</ele>
        <time>2026-08-14T08:27:18.540Z</time>
      </trkpt>
      <trkpt lat="45.78686" lon="6.7301">
        <ele>1878</ele>
        <time>2026-08-14T08:27:19.540Z</time>
      </trkpt>
      <trkpt lat="45.78686" lon="6.73009">
        <ele>1878</ele>
        <time>2026-08-14T08:27:20.540Z</time>
      </trkpt>
      <trkpt lat="45.78686" lon="6.73007">
        <ele>1878</ele>
        <time>2026-08-14T08:27:21.540Z</time>
      </trkpt>
      <trkpt lat="45.78685" lon="6.73006">
        <ele>1878</ele>
        <time>2026-08-14T08:27:22.540Z</time>
      </trkpt>
      <trkpt lat="45.78684" lon="6.73005">
        <ele>1878</ele>
        <time>2026-08-14T08:27:23.540Z</time>
      </trkpt>
      <trkpt lat="45.78682" lon="6.73004">
        <ele>1878</ele>
        <time>2026-08-14T08:27:24.540Z</time>
      </trkpt>
      <trkpt lat="45.78681" lon="6.73003">
        <ele>1878</ele>
        <time>2026-08-14T08:27:25.540Z</time>
      </trkpt>
      <trkpt lat="45.7868" lon="6.73003">
        <ele>1877</ele>
        <time>2026-08-14T08:27:26.540Z</time>
      </trkpt>
      <trkpt lat="45.78678" lon="6.73003">
        <ele>1877</ele>
        <time>2026-08-14T08:27:27.540Z</time>
      </trkpt>
      <trkpt lat="45.78677" lon="6.73002">
        <ele>1877</ele>
        <time>2026-08-14T08:27:28.540Z</time>
      </trkpt>
      <trkpt lat="45.78676" lon="6.73002">
        <ele>1877</ele>
        <time>2026-08-14T08:27:29.540Z</time>
      </trkpt>
      <trkpt lat="45.78675" lon="6.73002">
        <ele>1877</ele>
        <time>2026-08-14T08:27:30.540Z</time>
      </trkpt>
      <trkpt lat="45.78673" lon="6.73001">
        <ele>1877</ele>
        <time>2026-08-14T08:27:31.540Z</time>
      </trkpt>
      <trkpt lat="45.78672" lon="6.73002">
        <ele>1877</ele>
        <time>2026-08-14T08:27:32.540Z</time>
      </trkpt>
      <trkpt lat="45.7867" lon="6.73002">
        <ele>1877</ele>
        <time>2026-08-14T08:27:33.540Z</time>
      </trkpt>
      <trkpt lat="45.78669" lon="6.73003">
        <ele>1877</ele>
        <time>2026-08-14T08:27:34.540Z</time>
      </trkpt>
      <trkpt lat="45.78668" lon="6.73004">
        <ele>1877</ele>
        <time>2026-08-14T08:27:35.540Z</time>
      </trkpt>
      <trkpt lat="45.78667" lon="6.73004">
        <ele>1878</ele>
        <time>2026-08-14T08:27:36.540Z</time>
      </trkpt>
      <trkpt lat="45.78666" lon="6.73004">
        <ele>1878</ele>
        <time>2026-08-14T08:27:37.540Z</time>
      </trkpt>
      <trkpt lat="45.78664" lon="6.73004">
        <ele>1878</ele>
        <time>2026-08-14T08:27:38.540Z</time>
      </trkpt>
      <trkpt lat="45.78663" lon="6.73004">
        <ele>1878</ele>
        <time>2026-08-14T08:27:39.540Z</time>
      </trkpt>
      <trkpt lat="45.78661" lon="6.73003">
        <ele>1877</ele>
        <time>2026-08-14T08:27:40.540Z</time>
      </trkpt>
      <trkpt lat="45.7866" lon="6.73002">
        <ele>1877</ele>
        <time>2026-08-14T08:27:41.540Z</time>
      </trkpt>
      <trkpt lat="45.7866" lon="6.73001">
        <ele>1876</ele>
        <time>2026-08-14T08:27:42.540Z</time>
      </trkpt>
      <trkpt lat="45.78659" lon="6.73001">
        <ele>1876</ele>
        <time>2026-08-14T08:27:43.540Z</time>
      </trkpt>
      <trkpt lat="45.78658" lon="6.73">
        <ele>1875</ele>
        <time>2026-08-14T08:27:44.540Z</time>
      </trkpt>
      <trkpt lat="45.78657" lon="6.73">
        <ele>1875</ele>
        <time>2026-08-14T08:27:45.540Z</time>
      </trkpt>
      <trkpt lat="45.78656" lon="6.73">
        <ele>1874</ele>
        <time>2026-08-14T08:27:46.540Z</time>
      </trkpt>
      <trkpt lat="45.78655" lon="6.73">
        <ele>1874</ele>
        <time>2026-08-14T08:27:47.540Z</time>
      </trkpt>
      <trkpt lat="45.78654" lon="6.72999">
        <ele>1873</ele>
        <time>2026-08-14T08:27:48.540Z</time>
      </trkpt>
      <trkpt lat="45.78654" lon="6.72998">
        <ele>1872</ele>
        <time>2026-08-14T08:27:49.540Z</time>
      </trkpt>
      <trkpt lat="45.78653" lon="6.72996">
        <ele>1872</ele>
        <time>2026-08-14T08:27:50.540Z</time>
      </trkpt>
      <trkpt lat="45.78652" lon="6.72994">
        <ele>1871</ele>
        <time>2026-08-14T08:27:51.540Z</time>
      </trkpt>
      <trkpt lat="45.78652" lon="6.72992">
        <ele>1871</ele>
        <time>2026-08-14T08:27:52.540Z</time>
      </trkpt>
      <trkpt lat="45.78651" lon="6.72991">
        <ele>1870</ele>
        <time>2026-08-14T08:27:53.540Z</time>
      </trkpt>
      <trkpt lat="45.78651" lon="6.7299">
        <ele>1870</ele>
        <time>2026-08-14T08:27:54.540Z</time>
      </trkpt>
      <trkpt lat="45.7865" lon="6.72988">
        <ele>1869</ele>
        <time>2026-08-14T08:27:55.540Z</time>
      </trkpt>
      <trkpt lat="45.78649" lon="6.72987">
        <ele>1869</ele>
        <time>2026-08-14T08:27:56.540Z</time>
      </trkpt>
      <trkpt lat="45.78648" lon="6.72987">
        <ele>1869</ele>
        <time>2026-08-14T08:27:57.540Z</time>
      </trkpt>
      <trkpt lat="45.78647" lon="6.72986">
        <ele>1868</ele>
        <time>2026-08-14T08:27:58.540Z</time>
      </trkpt>
      <trkpt lat="45.78646" lon="6.72984">
        <ele>1868</ele>
        <time>2026-08-14T08:27:59.540Z</time>
      </trkpt>
      <trkpt lat="45.78644" lon="6.72983">
        <ele>1868</ele>
        <time>2026-08-14T08:28:00.540Z</time>
      </trkpt>
      <trkpt lat="45.78643" lon="6.72982">
        <ele>1868</ele>
        <time>2026-08-14T08:28:01.540Z</time>
      </trkpt>
      <trkpt lat="45.78642" lon="6.7298">
        <ele>1868</ele>
        <time>2026-08-14T08:28:02.540Z</time>
      </trkpt>
      <trkpt lat="45.78641" lon="6.72978">
        <ele>1868</ele>
        <time>2026-08-14T08:28:03.540Z</time>
      </trkpt>
      <trkpt lat="45.7864" lon="6.72976">
        <ele>1868</ele>
        <time>2026-08-14T08:28:04.540Z</time>
      </trkpt>
      <trkpt lat="45.7864" lon="6.72973">
        <ele>1867</ele>
        <time>2026-08-14T08:28:05.540Z</time>
      </trkpt>
      <trkpt lat="45.78639" lon="6.72971">
        <ele>1867</ele>
        <time>2026-08-14T08:28:06.540Z</time>
      </trkpt>
      <trkpt lat="45.78638" lon="6.72969">
        <ele>1867</ele>
        <time>2026-08-14T08:28:07.540Z</time>
      </trkpt>
      <trkpt lat="45.78638" lon="6.72966">
        <ele>1867</ele>
        <time>2026-08-14T08:28:08.540Z</time>
      </trkpt>
      <trkpt lat="45.78637" lon="6.72963">
        <ele>1866</ele>
        <time>2026-08-14T08:28:09.540Z</time>
      </trkpt>
      <trkpt lat="45.78637" lon="6.7296">
        <ele>1866</ele>
        <time>2026-08-14T08:28:10.540Z</time>
      </trkpt>
      <trkpt lat="45.78636" lon="6.72957">
        <ele>1865</ele>
        <time>2026-08-14T08:28:11.540Z</time>
      </trkpt>
      <trkpt lat="45.78635" lon="6.72955">
        <ele>1864</ele>
        <time>2026-08-14T08:28:12.540Z</time>
      </trkpt>
      <trkpt lat="45.78635" lon="6.72952">
        <ele>1864</ele>
        <time>2026-08-14T08:28:13.540Z</time>
      </trkpt>
      <trkpt lat="45.78635" lon="6.7295">
        <ele>1863</ele>
        <time>2026-08-14T08:28:14.540Z</time>
      </trkpt>
      <trkpt lat="45.78635" lon="6.72947">
        <ele>1863</ele>
        <time>2026-08-14T08:28:15.540Z</time>
      </trkpt>
      <trkpt lat="45.78635" lon="6.72944">
        <ele>1863</ele>
        <time>2026-08-14T08:28:16.540Z</time>
      </trkpt>
      <trkpt lat="45.78635" lon="6.72941">
        <ele>1863</ele>
        <time>2026-08-14T08:28:17.540Z</time>
      </trkpt>
      <trkpt lat="45.78634" lon="6.72938">
        <ele>1862</ele>
        <time>2026-08-14T08:28:18.540Z</time>
      </trkpt>
      <trkpt lat="45.78634" lon="6.72935">
        <ele>1862</ele>
        <time>2026-08-14T08:28:19.540Z</time>
      </trkpt>
      <trkpt lat="45.78634" lon="6.72933">
        <ele>1861</ele>
        <time>2026-08-14T08:28:20.540Z</time>
      </trkpt>
      <trkpt lat="45.78634" lon="6.72931">
        <ele>1861</ele>
        <time>2026-08-14T08:28:21.540Z</time>
      </trkpt>
      <trkpt lat="45.78634" lon="6.72929">
        <ele>1860</ele>
        <time>2026-08-14T08:28:22.540Z</time>
      </trkpt>
      <trkpt lat="45.78634" lon="6.72927">
        <ele>1860</ele>
        <time>2026-08-14T08:28:23.540Z</time>
      </trkpt>
      <trkpt lat="45.78634" lon="6.72926">
        <ele>1859</ele>
        <time>2026-08-14T08:28:24.540Z</time>
      </trkpt>
      <trkpt lat="45.78634" lon="6.72925">
        <ele>1858</ele>
        <time>2026-08-14T08:28:25.540Z</time>
      </trkpt>
      <trkpt lat="45.78634" lon="6.72923">
        <ele>1857</ele>
        <time>2026-08-14T08:28:26.540Z</time>
      </trkpt>
      <trkpt lat="45.78634" lon="6.72922">
        <ele>1857</ele>
        <time>2026-08-14T08:28:27.540Z</time>
      </trkpt>
      <trkpt lat="45.78634" lon="6.72922">
        <ele>1857</ele>
        <time>2026-08-14T08:28:28.540Z</time>
      </trkpt>
      <trkpt lat="45.78633" lon="6.72921">
        <ele>1857</ele>
        <time>2026-08-14T08:28:29.540Z</time>
      </trkpt>
      <trkpt lat="45.78633" lon="6.72919">
        <ele>1858</ele>
        <time>2026-08-14T08:28:30.540Z</time>
      </trkpt>
      <trkpt lat="45.78632" lon="6.72917">
        <ele>1858</ele>
        <time>2026-08-14T08:28:31.540Z</time>
      </trkpt>
      <trkpt lat="45.78631" lon="6.72915">
        <ele>1858</ele>
        <time>2026-08-14T08:28:32.540Z</time>
      </trkpt>
      <trkpt lat="45.7863" lon="6.72912">
        <ele>1858</ele>
        <time>2026-08-14T08:28:33.540Z</time>
      </trkpt>
      <trkpt lat="45.78628" lon="6.7291">
        <ele>1858</ele>
        <time>2026-08-14T08:28:34.540Z</time>
      </trkpt>
      <trkpt lat="45.78625" lon="6.72908">
        <ele>1859</ele>
        <time>2026-08-14T08:28:35.540Z</time>
      </trkpt>
      <trkpt lat="45.78624" lon="6.72906">
        <ele>1859</ele>
        <time>2026-08-14T08:28:36.540Z</time>
      </trkpt>
      <trkpt lat="45.78622" lon="6.72904">
        <ele>1859</ele>
        <time>2026-08-14T08:28:37.540Z</time>
      </trkpt>
      <trkpt lat="45.7862" lon="6.72902">
        <ele>1859</ele>
        <time>2026-08-14T08:28:38.540Z</time>
      </trkpt>
      <trkpt lat="45.78619" lon="6.729">
        <ele>1858</ele>
        <time>2026-08-14T08:28:39.540Z</time>
      </trkpt>
      <trkpt lat="45.78617" lon="6.72899">
        <ele>1858</ele>
        <time>2026-08-14T08:28:40.540Z</time>
      </trkpt>
      <trkpt lat="45.78615" lon="6.72898">
        <ele>1858</ele>
        <time>2026-08-14T08:28:41.540Z</time>
      </trkpt>
      <trkpt lat="45.78613" lon="6.72896">
        <ele>1857</ele>
        <time>2026-08-14T08:28:42.540Z</time>
      </trkpt>
      <trkpt lat="45.78612" lon="6.72895">
        <ele>1857</ele>
        <time>2026-08-14T08:28:43.540Z</time>
      </trkpt>
      <trkpt lat="45.78611" lon="6.72893">
        <ele>1856</ele>
        <time>2026-08-14T08:28:44.540Z</time>
      </trkpt>
      <trkpt lat="45.78609" lon="6.72892">
        <ele>1856</ele>
        <time>2026-08-14T08:28:45.540Z</time>
      </trkpt>
      <trkpt lat="45.78608" lon="6.72891">
        <ele>1855</ele>
        <time>2026-08-14T08:28:46.540Z</time>
      </trkpt>
      <trkpt lat="45.78608" lon="6.72889">
        <ele>1854</ele>
        <time>2026-08-14T08:28:47.540Z</time>
      </trkpt>
      <trkpt lat="45.78608" lon="6.72886">
        <ele>1852</ele>
        <time>2026-08-14T08:28:48.540Z</time>
      </trkpt>
      <trkpt lat="45.78608" lon="6.72884">
        <ele>1850</ele>
        <time>2026-08-14T08:28:49.540Z</time>
      </trkpt>
      <trkpt lat="45.78608" lon="6.72882">
        <ele>1849</ele>
        <time>2026-08-14T08:28:50.540Z</time>
      </trkpt>
      <trkpt lat="45.78608" lon="6.72881">
        <ele>1847</ele>
        <time>2026-08-14T08:28:51.540Z</time>
      </trkpt>
      <trkpt lat="45.78608" lon="6.7288">
        <ele>1846</ele>
        <time>2026-08-14T08:28:52.540Z</time>
      </trkpt>
      <trkpt lat="45.78608" lon="6.72879">
        <ele>1845</ele>
        <time>2026-08-14T08:28:53.540Z</time>
      </trkpt>
      <trkpt lat="45.78608" lon="6.72879">
        <ele>1844</ele>
        <time>2026-08-14T08:28:54.540Z</time>
      </trkpt>
      <trkpt lat="45.78608" lon="6.72879">
        <ele>1843</ele>
        <time>2026-08-14T08:28:55.540Z</time>
      </trkpt>
      <trkpt lat="45.78608" lon="6.72879">
        <ele>1843</ele>
        <time>2026-08-14T08:28:56.540Z</time>
      </trkpt>
      <trkpt lat="45.78608" lon="6.7288">
        <ele>1843</ele>
        <time>2026-08-14T08:28:57.540Z</time>
      </trkpt>
      <trkpt lat="45.78606" lon="6.7288">
        <ele>1842</ele>
        <time>2026-08-14T08:28:58.540Z</time>
      </trkpt>
      <trkpt lat="45.78605" lon="6.7288">
        <ele>1842</ele>
        <time>2026-08-14T08:28:59.540Z</time>
      </trkpt>
      <trkpt lat="45.78604" lon="6.7288">
        <ele>1842</ele>
        <time>2026-08-14T08:29:00.540Z</time>
      </trkpt>
      <trkpt lat="45.78603" lon="6.7288">
        <ele>1842</ele>
        <time>2026-08-14T08:29:01.540Z</time>
      </trkpt>
      <trkpt lat="45.78601" lon="6.72879">
        <ele>1842</ele>
        <time>2026-08-14T08:29:02.540Z</time>
      </trkpt>
      <trkpt lat="45.786" lon="6.72878">
        <ele>1842</ele>
        <time>2026-08-14T08:29:03.540Z</time>
      </trkpt>
      <trkpt lat="45.78599" lon="6.72877">
        <ele>1842</ele>
        <time>2026-08-14T08:29:04.540Z</time>
      </trkpt>
      <trkpt lat="45.78599" lon="6.72876">
        <ele>1842</ele>
        <time>2026-08-14T08:29:05.540Z</time>
      </trkpt>
      <trkpt lat="45.78599" lon="6.72876">
        <ele>1842</ele>
        <time>2026-08-14T08:29:06.540Z</time>
      </trkpt>
      <trkpt lat="45.78598" lon="6.72875">
        <ele>1842</ele>
        <time>2026-08-14T08:29:07.540Z</time>
      </trkpt>
      <trkpt lat="45.78597" lon="6.72874">
        <ele>1842</ele>
        <time>2026-08-14T08:29:08.540Z</time>
      </trkpt>
      <trkpt lat="45.78597" lon="6.72873">
        <ele>1842</ele>
        <time>2026-08-14T08:29:09.540Z</time>
      </trkpt>
      <trkpt lat="45.78597" lon="6.72872">
        <ele>1842</ele>
        <time>2026-08-14T08:29:10.540Z</time>
      </trkpt>
      <trkpt lat="45.78596" lon="6.72871">
        <ele>1842</ele>
        <time>2026-08-14T08:29:11.540Z</time>
      </trkpt>
      <trkpt lat="45.78596" lon="6.7287">
        <ele>1843</ele>
        <time>2026-08-14T08:29:12.540Z</time>
      </trkpt>
      <trkpt lat="45.78596" lon="6.7287">
        <ele>1843</ele>
        <time>2026-08-14T08:29:13.540Z</time>
      </trkpt>
      <trkpt lat="45.78596" lon="6.7287">
        <ele>1844</ele>
        <time>2026-08-14T08:29:14.540Z</time>
      </trkpt>
      <trkpt lat="45.78596" lon="6.7287">
        <ele>1844</ele>
        <time>2026-08-14T08:29:15.540Z</time>
      </trkpt>
      <trkpt lat="45.78595" lon="6.7287">
        <ele>1844</ele>
        <time>2026-08-14T08:29:16.540Z</time>
      </trkpt>
      <trkpt lat="45.78594" lon="6.7287">
        <ele>1844</ele>
        <time>2026-08-14T08:29:17.540Z</time>
      </trkpt>
      <trkpt lat="45.78593" lon="6.7287">
        <ele>1844</ele>
        <time>2026-08-14T08:29:18.540Z</time>
      </trkpt>
      <trkpt lat="45.78593" lon="6.72869">
        <ele>1844</ele>
        <time>2026-08-14T08:29:19.540Z</time>
      </trkpt>
      <trkpt lat="45.78592" lon="6.72869">
        <ele>1843</ele>
        <time>2026-08-14T08:29:20.540Z</time>
      </trkpt>
      <trkpt lat="45.78591" lon="6.72869">
        <ele>1843</ele>
        <time>2026-08-14T08:29:21.540Z</time>
      </trkpt>
      <trkpt lat="45.7859" lon="6.7287">
        <ele>1843</ele>
        <time>2026-08-14T08:29:22.540Z</time>
      </trkpt>
      <trkpt lat="45.7859" lon="6.72871">
        <ele>1843</ele>
        <time>2026-08-14T08:29:23.540Z</time>
      </trkpt>
      <trkpt lat="45.7859" lon="6.72871">
        <ele>1843</ele>
        <time>2026-08-14T08:29:24.540Z</time>
      </trkpt>
      <trkpt lat="45.78589" lon="6.7287">
        <ele>1843</ele>
        <time>2026-08-14T08:29:25.540Z</time>
      </trkpt>
      <trkpt lat="45.78589" lon="6.72868">
        <ele>1842</ele>
        <time>2026-08-14T08:29:26.540Z</time>
      </trkpt>
      <trkpt lat="45.78589" lon="6.72867">
        <ele>1841</ele>
        <time>2026-08-14T08:29:27.540Z</time>
      </trkpt>
      <trkpt lat="45.78588" lon="6.72866">
        <ele>1840</ele>
        <time>2026-08-14T08:29:28.540Z</time>
      </trkpt>
      <trkpt lat="45.78587" lon="6.72865">
        <ele>1840</ele>
        <time>2026-08-14T08:29:29.540Z</time>
      </trkpt>
      <trkpt lat="45.78586" lon="6.72864">
        <ele>1839</ele>
        <time>2026-08-14T08:29:30.540Z</time>
      </trkpt>
      <trkpt lat="45.78585" lon="6.72864">
        <ele>1838</ele>
        <time>2026-08-14T08:29:31.540Z</time>
      </trkpt>
      <trkpt lat="45.78584" lon="6.72863">
        <ele>1838</ele>
        <time>2026-08-14T08:29:32.540Z</time>
      </trkpt>
      <trkpt lat="45.78584" lon="6.72863">
        <ele>1837</ele>
        <time>2026-08-14T08:29:33.540Z</time>
      </trkpt>
      <trkpt lat="45.78584" lon="6.72863">
        <ele>1836</ele>
        <time>2026-08-14T08:29:34.540Z</time>
      </trkpt>
      <trkpt lat="45.78583" lon="6.72864">
        <ele>1836</ele>
        <time>2026-08-14T08:29:35.540Z</time>
      </trkpt>
      <trkpt lat="45.78581" lon="6.72864">
        <ele>1836</ele>
        <time>2026-08-14T08:29:36.540Z</time>
      </trkpt>
      <trkpt lat="45.7858" lon="6.72863">
        <ele>1835</ele>
        <time>2026-08-14T08:29:37.540Z</time>
      </trkpt>
      <trkpt lat="45.78579" lon="6.72862">
        <ele>1835</ele>
        <time>2026-08-14T08:29:38.540Z</time>
      </trkpt>
      <trkpt lat="45.78577" lon="6.72861">
        <ele>1835</ele>
        <time>2026-08-14T08:29:39.540Z</time>
      </trkpt>
      <trkpt lat="45.78576" lon="6.72861">
        <ele>1835</ele>
        <time>2026-08-14T08:29:40.540Z</time>
      </trkpt>
      <trkpt lat="45.78576" lon="6.72861">
        <ele>1834</ele>
        <time>2026-08-14T08:29:41.540Z</time>
      </trkpt>
      <trkpt lat="45.78576" lon="6.72862">
        <ele>1834</ele>
        <time>2026-08-14T08:29:42.540Z</time>
      </trkpt>
      <trkpt lat="45.78576" lon="6.72862">
        <ele>1834</ele>
        <time>2026-08-14T08:29:43.540Z</time>
      </trkpt>
      <trkpt lat="45.78576" lon="6.72863">
        <ele>1834</ele>
        <time>2026-08-14T08:29:44.540Z</time>
      </trkpt>
      <trkpt lat="45.78575" lon="6.72863">
        <ele>1834</ele>
        <time>2026-08-14T08:29:45.540Z</time>
      </trkpt>
      <trkpt lat="45.78575" lon="6.72863">
        <ele>1833</ele>
        <time>2026-08-14T08:29:46.540Z</time>
      </trkpt>
      <trkpt lat="45.78574" lon="6.72863">
        <ele>1833</ele>
        <time>2026-08-14T08:29:47.540Z</time>
      </trkpt>
      <trkpt lat="45.78574" lon="6.72863">
        <ele>1832</ele>
        <time>2026-08-14T08:29:48.540Z</time>
      </trkpt>
      <trkpt lat="45.78573" lon="6.72862">
        <ele>1832</ele>
        <time>2026-08-14T08:29:49.540Z</time>
      </trkpt>
      <trkpt lat="45.78572" lon="6.72861">
        <ele>1832</ele>
        <time>2026-08-14T08:29:50.540Z</time>
      </trkpt>
      <trkpt lat="45.78571" lon="6.7286">
        <ele>1832</ele>
        <time>2026-08-14T08:29:51.540Z</time>
      </trkpt>
      <trkpt lat="45.7857" lon="6.72859">
        <ele>1832</ele>
        <time>2026-08-14T08:29:52.540Z</time>
      </trkpt>
      <trkpt lat="45.78569" lon="6.72857">
        <ele>1832</ele>
        <time>2026-08-14T08:29:53.540Z</time>
      </trkpt>
      <trkpt lat="45.78568" lon="6.72856">
        <ele>1832</ele>
        <time>2026-08-14T08:29:54.540Z</time>
      </trkpt>
      <trkpt lat="45.78567" lon="6.72855">
        <ele>1831</ele>
        <time>2026-08-14T08:29:55.540Z</time>
      </trkpt>
      <trkpt lat="45.78566" lon="6.72854">
        <ele>1831</ele>
        <time>2026-08-14T08:29:56.540Z</time>
      </trkpt>
      <trkpt lat="45.78565" lon="6.72854">
        <ele>1830</ele>
        <time>2026-08-14T08:29:57.540Z</time>
      </trkpt>
      <trkpt lat="45.78563" lon="6.72854">
        <ele>1829</ele>
        <time>2026-08-14T08:29:58.540Z</time>
      </trkpt>
      <trkpt lat="45.78561" lon="6.72853">
        <ele>1829</ele>
        <time>2026-08-14T08:29:59.540Z</time>
      </trkpt>
      <trkpt lat="45.78559" lon="6.72853">
        <ele>1828</ele>
        <time>2026-08-14T08:30:00.540Z</time>
      </trkpt>
      <trkpt lat="45.78558" lon="6.72852">
        <ele>1828</ele>
        <time>2026-08-14T08:30:01.540Z</time>
      </trkpt>
      <trkpt lat="45.78557" lon="6.72852">
        <ele>1827</ele>
        <time>2026-08-14T08:30:02.540Z</time>
      </trkpt>
      <trkpt lat="45.78556" lon="6.72852">
        <ele>1827</ele>
        <time>2026-08-14T08:30:03.540Z</time>
      </trkpt>
      <trkpt lat="45.78555" lon="6.72852">
        <ele>1827</ele>
        <time>2026-08-14T08:30:04.540Z</time>
      </trkpt>
      <trkpt lat="45.78555" lon="6.72852">
        <ele>1826</ele>
        <time>2026-08-14T08:30:05.540Z</time>
      </trkpt>
      <trkpt lat="45.78554" lon="6.7285">
        <ele>1826</ele>
        <time>2026-08-14T08:30:06.540Z</time>
      </trkpt>
      <trkpt lat="45.78554" lon="6.72849">
        <ele>1825</ele>
        <time>2026-08-14T08:30:07.540Z</time>
      </trkpt>
      <trkpt lat="45.78555" lon="6.72846">
        <ele>1825</ele>
        <time>2026-08-14T08:30:08.540Z</time>
      </trkpt>
      <trkpt lat="45.78555" lon="6.72844">
        <ele>1825</ele>
        <time>2026-08-14T08:30:09.540Z</time>
      </trkpt>
      <trkpt lat="45.78555" lon="6.72842">
        <ele>1824</ele>
        <time>2026-08-14T08:30:10.540Z</time>
      </trkpt>
      <trkpt lat="45.78555" lon="6.72841">
        <ele>1824</ele>
        <time>2026-08-14T08:30:11.540Z</time>
      </trkpt>
      <trkpt lat="45.78554" lon="6.7284">
        <ele>1824</ele>
        <time>2026-08-14T08:30:12.540Z</time>
      </trkpt>
      <trkpt lat="45.78554" lon="6.72839">
        <ele>1823</ele>
        <time>2026-08-14T08:30:13.540Z</time>
      </trkpt>
      <trkpt lat="45.78553" lon="6.72838">
        <ele>1823</ele>
        <time>2026-08-14T08:30:14.540Z</time>
      </trkpt>
      <trkpt lat="45.78553" lon="6.72837">
        <ele>1823</ele>
        <time>2026-08-14T08:30:15.540Z</time>
      </trkpt>
      <trkpt lat="45.78552" lon="6.72836">
        <ele>1823</ele>
        <time>2026-08-14T08:30:16.540Z</time>
      </trkpt>
      <trkpt lat="45.78551" lon="6.72834">
        <ele>1823</ele>
        <time>2026-08-14T08:30:17.540Z</time>
      </trkpt>
      <trkpt lat="45.7855" lon="6.72833">
        <ele>1823</ele>
        <time>2026-08-14T08:30:18.540Z</time>
      </trkpt>
      <trkpt lat="45.7855" lon="6.7283">
        <ele>1823</ele>
        <time>2026-08-14T08:30:19.540Z</time>
      </trkpt>
      <trkpt lat="45.78549" lon="6.72829">
        <ele>1823</ele>
        <time>2026-08-14T08:30:20.540Z</time>
      </trkpt>
      <trkpt lat="45.78548" lon="6.72827">
        <ele>1823</ele>
        <time>2026-08-14T08:30:21.540Z</time>
      </trkpt>
      <trkpt lat="45.78548" lon="6.72827">
        <ele>1822</ele>
        <time>2026-08-14T08:30:22.540Z</time>
      </trkpt>
      <trkpt lat="45.78547" lon="6.72828">
        <ele>1822</ele>
        <time>2026-08-14T08:30:23.540Z</time>
      </trkpt>
      <trkpt lat="45.78548" lon="6.72829">
        <ele>1821</ele>
        <time>2026-08-14T08:30:24.540Z</time>
      </trkpt>
      <trkpt lat="45.78547" lon="6.72829">
        <ele>1820</ele>
        <time>2026-08-14T08:30:25.540Z</time>
      </trkpt>
      <trkpt lat="45.78547" lon="6.7283">
        <ele>1820</ele>
        <time>2026-08-14T08:30:26.540Z</time>
      </trkpt>
      <trkpt lat="45.78546" lon="6.7283">
        <ele>1819</ele>
        <time>2026-08-14T08:30:27.540Z</time>
      </trkpt>
      <trkpt lat="45.78545" lon="6.7283">
        <ele>1818</ele>
        <time>2026-08-14T08:30:28.540Z</time>
      </trkpt>
      <trkpt lat="45.78545" lon="6.7283">
        <ele>1818</ele>
        <time>2026-08-14T08:30:29.540Z</time>
      </trkpt>
      <trkpt lat="45.78544" lon="6.7283">
        <ele>1818</ele>
        <time>2026-08-14T08:30:30.540Z</time>
      </trkpt>
      <trkpt lat="45.78543" lon="6.72831">
        <ele>1817</ele>
        <time>2026-08-14T08:30:31.540Z</time>
      </trkpt>
      <trkpt lat="45.78543" lon="6.72831">
        <ele>1816</ele>
        <time>2026-08-14T08:30:32.540Z</time>
      </trkpt>
      <trkpt lat="45.78542" lon="6.72831">
        <ele>1815</ele>
        <time>2026-08-14T08:30:33.540Z</time>
      </trkpt>
      <trkpt lat="45.78542" lon="6.72831">
        <ele>1814</ele>
        <time>2026-08-14T08:30:34.540Z</time>
      </trkpt>
      <trkpt lat="45.78541" lon="6.72831">
        <ele>1814</ele>
        <time>2026-08-14T08:30:35.540Z</time>
      </trkpt>
      <trkpt lat="45.7854" lon="6.72831">
        <ele>1813</ele>
        <time>2026-08-14T08:30:36.540Z</time>
      </trkpt>
      <trkpt lat="45.7854" lon="6.72831">
        <ele>1812</ele>
        <time>2026-08-14T08:30:37.540Z</time>
      </trkpt>
      <trkpt lat="45.7854" lon="6.72832">
        <ele>1812</ele>
        <time>2026-08-14T08:30:38.540Z</time>
      </trkpt>
      <trkpt lat="45.78539" lon="6.72832">
        <ele>1812</ele>
        <time>2026-08-14T08:30:39.540Z</time>
      </trkpt>
      <trkpt lat="45.78539" lon="6.72832">
        <ele>1811</ele>
        <time>2026-08-14T08:30:40.540Z</time>
      </trkpt>
      <trkpt lat="45.78538" lon="6.72831">
        <ele>1811</ele>
        <time>2026-08-14T08:30:41.540Z</time>
      </trkpt>
      <trkpt lat="45.78537" lon="6.72831">
        <ele>1811</ele>
        <time>2026-08-14T08:30:42.540Z</time>
      </trkpt>
      <trkpt lat="45.78536" lon="6.7283">
        <ele>1811</ele>
        <time>2026-08-14T08:30:43.540Z</time>
      </trkpt>
      <trkpt lat="45.78535" lon="6.7283">
        <ele>1811</ele>
        <time>2026-08-14T08:30:44.540Z</time>
      </trkpt>
      <trkpt lat="45.78534" lon="6.7283">
        <ele>1810</ele>
        <time>2026-08-14T08:30:45.540Z</time>
      </trkpt>
      <trkpt lat="45.78534" lon="6.72831">
        <ele>1810</ele>
        <time>2026-08-14T08:30:46.540Z</time>
      </trkpt>
      <trkpt lat="45.78534" lon="6.72832">
        <ele>1810</ele>
        <time>2026-08-14T08:30:47.540Z</time>
      </trkpt>
      <trkpt lat="45.78534" lon="6.72831">
        <ele>1809</ele>
        <time>2026-08-14T08:30:48.540Z</time>
      </trkpt>
      <trkpt lat="45.78534" lon="6.72831">
        <ele>1809</ele>
        <time>2026-08-14T08:30:49.540Z</time>
      </trkpt>
      <trkpt lat="45.78534" lon="6.7283">
        <ele>1809</ele>
        <time>2026-08-14T08:30:50.540Z</time>
      </trkpt>
      <trkpt lat="45.78534" lon="6.72828">
        <ele>1808</ele>
        <time>2026-08-14T08:30:51.540Z</time>
      </trkpt>
      <trkpt lat="45.78534" lon="6.72827">
        <ele>1808</ele>
        <time>2026-08-14T08:30:52.540Z</time>
      </trkpt>
      <trkpt lat="45.78533" lon="6.72825">
        <ele>1807</ele>
        <time>2026-08-14T08:30:53.540Z</time>
      </trkpt>
      <trkpt lat="45.78532" lon="6.72824">
        <ele>1807</ele>
        <time>2026-08-14T08:30:54.540Z</time>
      </trkpt>
      <trkpt lat="45.78531" lon="6.72823">
        <ele>1806</ele>
        <time>2026-08-14T08:30:55.540Z</time>
      </trkpt>
      <trkpt lat="45.78531" lon="6.72822">
        <ele>1806</ele>
        <time>2026-08-14T08:30:56.540Z</time>
      </trkpt>
      <trkpt lat="45.7853" lon="6.72821">
        <ele>1806</ele>
        <time>2026-08-14T08:30:57.540Z</time>
      </trkpt>
      <trkpt lat="45.78529" lon="6.72821">
        <ele>1805</ele>
        <time>2026-08-14T08:30:58.540Z</time>
      </trkpt>
      <trkpt lat="45.78528" lon="6.7282">
        <ele>1805</ele>
        <time>2026-08-14T08:30:59.540Z</time>
      </trkpt>
      <trkpt lat="45.78527" lon="6.72819">
        <ele>1804</ele>
        <time>2026-08-14T08:31:00.540Z</time>
      </trkpt>
      <trkpt lat="45.78526" lon="6.72819">
        <ele>1804</ele>
        <time>2026-08-14T08:31:01.540Z</time>
      </trkpt>
      <trkpt lat="45.78525" lon="6.72819">
        <ele>1803</ele>
        <time>2026-08-14T08:31:02.540Z</time>
      </trkpt>
      <trkpt lat="45.78524" lon="6.72819">
        <ele>1803</ele>
        <time>2026-08-14T08:31:03.540Z</time>
      </trkpt>
      <trkpt lat="45.78523" lon="6.72819">
        <ele>1802</ele>
        <time>2026-08-14T08:31:04.540Z</time>
      </trkpt>
      <trkpt lat="45.78522" lon="6.7282">
        <ele>1801</ele>
        <time>2026-08-14T08:31:05.540Z</time>
      </trkpt>
      <trkpt lat="45.78521" lon="6.72821">
        <ele>1801</ele>
        <time>2026-08-14T08:31:06.540Z</time>
      </trkpt>
      <trkpt lat="45.78521" lon="6.72822">
        <ele>1800</ele>
        <time>2026-08-14T08:31:07.540Z</time>
      </trkpt>
      <trkpt lat="45.7852" lon="6.72822">
        <ele>1799</ele>
        <time>2026-08-14T08:31:08.540Z</time>
      </trkpt>
      <trkpt lat="45.7852" lon="6.72821">
        <ele>1798</ele>
        <time>2026-08-14T08:31:09.540Z</time>
      </trkpt>
      <trkpt lat="45.78519" lon="6.7282">
        <ele>1798</ele>
        <time>2026-08-14T08:31:10.540Z</time>
      </trkpt>
      <trkpt lat="45.78519" lon="6.7282">
        <ele>1798</ele>
        <time>2026-08-14T08:31:11.540Z</time>
      </trkpt>
      <trkpt lat="45.78518" lon="6.72819">
        <ele>1797</ele>
        <time>2026-08-14T08:31:12.540Z</time>
      </trkpt>
      <trkpt lat="45.78517" lon="6.72819">
        <ele>1797</ele>
        <time>2026-08-14T08:31:13.540Z</time>
      </trkpt>
      <trkpt lat="45.78516" lon="6.72818">
        <ele>1796</ele>
        <time>2026-08-14T08:31:14.540Z</time>
      </trkpt>
      <trkpt lat="45.78515" lon="6.72817">
        <ele>1796</ele>
        <time>2026-08-14T08:31:15.540Z</time>
      </trkpt>
      <trkpt lat="45.78513" lon="6.72817">
        <ele>1795</ele>
        <time>2026-08-14T08:31:16.540Z</time>
      </trkpt>
      <trkpt lat="45.78512" lon="6.72818">
        <ele>1795</ele>
        <time>2026-08-14T08:31:17.540Z</time>
      </trkpt>
      <trkpt lat="45.78511" lon="6.72817">
        <ele>1794</ele>
        <time>2026-08-14T08:31:18.540Z</time>
      </trkpt>
      <trkpt lat="45.7851" lon="6.72816">
        <ele>1794</ele>
        <time>2026-08-14T08:31:19.540Z</time>
      </trkpt>
      <trkpt lat="45.78508" lon="6.72814">
        <ele>1794</ele>
        <time>2026-08-14T08:31:20.540Z</time>
      </trkpt>
      <trkpt lat="45.78508" lon="6.72814">
        <ele>1794</ele>
        <time>2026-08-14T08:31:21.540Z</time>
      </trkpt>
      <trkpt lat="45.78508" lon="6.72814">
        <ele>1794</ele>
        <time>2026-08-14T08:31:22.540Z</time>
      </trkpt>
      <trkpt lat="45.78508" lon="6.72816">
        <ele>1794</ele>
        <time>2026-08-14T08:31:23.540Z</time>
      </trkpt>
      <trkpt lat="45.78508" lon="6.72816">
        <ele>1794</ele>
        <time>2026-08-14T08:31:24.540Z</time>
      </trkpt>
      <trkpt lat="45.78507" lon="6.72817">
        <ele>1793</ele>
        <time>2026-08-14T08:31:25.540Z</time>
      </trkpt>
      <trkpt lat="45.78506" lon="6.72817">
        <ele>1792</ele>
        <time>2026-08-14T08:31:26.540Z</time>
      </trkpt>
      <trkpt lat="45.78505" lon="6.72817">
        <ele>1792</ele>
        <time>2026-08-14T08:31:27.540Z</time>
      </trkpt>
      <trkpt lat="45.78505" lon="6.72817">
        <ele>1791</ele>
        <time>2026-08-14T08:31:28.540Z</time>
      </trkpt>
      <trkpt lat="45.78505" lon="6.72816">
        <ele>1791</ele>
        <time>2026-08-14T08:31:29.540Z</time>
      </trkpt>
      <trkpt lat="45.78505" lon="6.72816">
        <ele>1790</ele>
        <time>2026-08-14T08:31:30.540Z</time>
      </trkpt>
      <trkpt lat="45.78505" lon="6.72817">
        <ele>1790</ele>
        <time>2026-08-14T08:31:31.540Z</time>
      </trkpt>
      <trkpt lat="45.78505" lon="6.72818">
        <ele>1789</ele>
        <time>2026-08-14T08:31:32.540Z</time>
      </trkpt>
      <trkpt lat="45.78505" lon="6.72819">
        <ele>1789</ele>
        <time>2026-08-14T08:31:33.540Z</time>
      </trkpt>
      <trkpt lat="45.78505" lon="6.7282">
        <ele>1788</ele>
        <time>2026-08-14T08:31:34.540Z</time>
      </trkpt>
      <trkpt lat="45.78505" lon="6.72821">
        <ele>1788</ele>
        <time>2026-08-14T08:31:35.540Z</time>
      </trkpt>
      <trkpt lat="45.78506" lon="6.72822">
        <ele>1787</ele>
        <time>2026-08-14T08:31:36.540Z</time>
      </trkpt>
      <trkpt lat="45.78506" lon="6.72823">
        <ele>1787</ele>
        <time>2026-08-14T08:31:37.540Z</time>
      </trkpt>
      <trkpt lat="45.78506" lon="6.72823">
        <ele>1786</ele>
        <time>2026-08-14T08:31:38.540Z</time>
      </trkpt>
      <trkpt lat="45.78506" lon="6.72824">
        <ele>1786</ele>
        <time>2026-08-14T08:31:39.540Z</time>
      </trkpt>
      <trkpt lat="45.78505" lon="6.72824">
        <ele>1785</ele>
        <time>2026-08-14T08:31:40.540Z</time>
      </trkpt>
      <trkpt lat="45.78503" lon="6.72825">
        <ele>1785</ele>
        <time>2026-08-14T08:31:41.540Z</time>
      </trkpt>
      <trkpt lat="45.78502" lon="6.72825">
        <ele>1785</ele>
        <time>2026-08-14T08:31:42.540Z</time>
      </trkpt>
      <trkpt lat="45.78501" lon="6.72825">
        <ele>1785</ele>
        <time>2026-08-14T08:31:43.540Z</time>
      </trkpt>
      <trkpt lat="45.785" lon="6.72825">
        <ele>1785</ele>
        <time>2026-08-14T08:31:44.540Z</time>
      </trkpt>
      <trkpt lat="45.78499" lon="6.72825">
        <ele>1785</ele>
        <time>2026-08-14T08:31:45.540Z</time>
      </trkpt>
      <trkpt lat="45.78499" lon="6.72824">
        <ele>1785</ele>
        <time>2026-08-14T08:31:46.540Z</time>
      </trkpt>
      <trkpt lat="45.78499" lon="6.72823">
        <ele>1785</ele>
        <time>2026-08-14T08:31:47.540Z</time>
      </trkpt>
      <trkpt lat="45.78499" lon="6.72823">
        <ele>1786</ele>
        <time>2026-08-14T08:31:48.540Z</time>
      </trkpt>
      <trkpt lat="45.78499" lon="6.72824">
        <ele>1786</ele>
        <time>2026-08-14T08:31:49.540Z</time>
      </trkpt>
      <trkpt lat="45.78499" lon="6.72823">
        <ele>1786</ele>
        <time>2026-08-14T08:31:50.540Z</time>
      </trkpt>
      <trkpt lat="45.78498" lon="6.72824">
        <ele>1786</ele>
        <time>2026-08-14T08:31:51.540Z</time>
      </trkpt>
      <trkpt lat="45.78498" lon="6.72825">
        <ele>1786</ele>
        <time>2026-08-14T08:31:52.540Z</time>
      </trkpt>
      <trkpt lat="45.78497" lon="6.72826">
        <ele>1786</ele>
        <time>2026-08-14T08:31:53.540Z</time>
      </trkpt>
      <trkpt lat="45.78497" lon="6.72827">
        <ele>1786</ele>
        <time>2026-08-14T08:31:54.540Z</time>
      </trkpt>
      <trkpt lat="45.78497" lon="6.72827">
        <ele>1786</ele>
        <time>2026-08-14T08:31:55.540Z</time>
      </trkpt>
      <trkpt lat="45.78497" lon="6.72828">
        <ele>1786</ele>
        <time>2026-08-14T08:31:56.540Z</time>
      </trkpt>
      <trkpt lat="45.78497" lon="6.72828">
        <ele>1786</ele>
        <time>2026-08-14T08:31:57.540Z</time>
      </trkpt>
      <trkpt lat="45.78497" lon="6.72828">
        <ele>1785</ele>
        <time>2026-08-14T08:31:58.540Z</time>
      </trkpt>
      <trkpt lat="45.78497" lon="6.72828">
        <ele>1785</ele>
        <time>2026-08-14T08:31:59.540Z</time>
      </trkpt>
      <trkpt lat="45.78497" lon="6.72828">
        <ele>1785</ele>
        <time>2026-08-14T08:32:00.540Z</time>
      </trkpt>
      <trkpt lat="45.78496" lon="6.72827">
        <ele>1784</ele>
        <time>2026-08-14T08:32:01.540Z</time>
      </trkpt>
      <trkpt lat="45.78496" lon="6.72827">
        <ele>1784</ele>
        <time>2026-08-14T08:32:02.540Z</time>
      </trkpt>
      <trkpt lat="45.78496" lon="6.72827">
        <ele>1784</ele>
        <time>2026-08-14T08:32:03.540Z</time>
      </trkpt>
      <trkpt lat="45.78495" lon="6.72827">
        <ele>1784</ele>
        <time>2026-08-14T08:32:04.540Z</time>
      </trkpt>
      <trkpt lat="45.78494" lon="6.72827">
        <ele>1784</ele>
        <time>2026-08-14T08:32:05.540Z</time>
      </trkpt>
      <trkpt lat="45.78494" lon="6.72828">
        <ele>1784</ele>
        <time>2026-08-14T08:32:06.540Z</time>
      </trkpt>
      <trkpt lat="45.78493" lon="6.72829">
        <ele>1783</ele>
        <time>2026-08-14T08:32:07.540Z</time>
      </trkpt>
      <trkpt lat="45.78492" lon="6.72829">
        <ele>1783</ele>
        <time>2026-08-14T08:32:08.540Z</time>
      </trkpt>
      <trkpt lat="45.7849" lon="6.72828">
        <ele>1783</ele>
        <time>2026-08-14T08:32:09.540Z</time>
      </trkpt>
      <trkpt lat="45.78489" lon="6.72827">
        <ele>1783</ele>
        <time>2026-08-14T08:32:10.540Z</time>
      </trkpt>
      <trkpt lat="45.78488" lon="6.72826">
        <ele>1783</ele>
        <time>2026-08-14T08:32:11.540Z</time>
      </trkpt>
      <trkpt lat="45.78487" lon="6.72825">
        <ele>1783</ele>
        <time>2026-08-14T08:32:12.540Z</time>
      </trkpt>
      <trkpt lat="45.78486" lon="6.72823">
        <ele>1784</ele>
        <time>2026-08-14T08:32:13.540Z</time>
      </trkpt>
      <trkpt lat="45.78485" lon="6.72821">
        <ele>1784</ele>
        <time>2026-08-14T08:32:14.540Z</time>
      </trkpt>
      <trkpt lat="45.78484" lon="6.7282">
        <ele>1785</ele>
        <time>2026-08-14T08:32:15.540Z</time>
      </trkpt>
      <trkpt lat="45.78483" lon="6.72819">
        <ele>1785</ele>
        <time>2026-08-14T08:32:16.540Z</time>
      </trkpt>
      <trkpt lat="45.78482" lon="6.72818">
        <ele>1785</ele>
        <time>2026-08-14T08:32:17.540Z</time>
      </trkpt>
      <trkpt lat="45.78481" lon="6.72817">
        <ele>1786</ele>
        <time>2026-08-14T08:32:18.540Z</time>
      </trkpt>
      <trkpt lat="45.78481" lon="6.72816">
        <ele>1786</ele>
        <time>2026-08-14T08:32:19.540Z</time>
      </trkpt>
      <trkpt lat="45.7848" lon="6.72815">
        <ele>1786</ele>
        <time>2026-08-14T08:32:20.540Z</time>
      </trkpt>
      <trkpt lat="45.7848" lon="6.72814">
        <ele>1786</ele>
        <time>2026-08-14T08:32:21.540Z</time>
      </trkpt>
      <trkpt lat="45.7848" lon="6.72815">
        <ele>1786</ele>
        <time>2026-08-14T08:32:22.540Z</time>
      </trkpt>
      <trkpt lat="45.7848" lon="6.72815">
        <ele>1787</ele>
        <time>2026-08-14T08:32:23.540Z</time>
      </trkpt>
      <trkpt lat="45.7848" lon="6.72815">
        <ele>1787</ele>
        <time>2026-08-14T08:32:24.540Z</time>
      </trkpt>
      <trkpt lat="45.7848" lon="6.72815">
        <ele>1787</ele>
        <time>2026-08-14T08:32:25.540Z</time>
      </trkpt>
      <trkpt lat="45.78479" lon="6.72815">
        <ele>1788</ele>
        <time>2026-08-14T08:32:26.540Z</time>
      </trkpt>
      <trkpt lat="45.78478" lon="6.72815">
        <ele>1788</ele>
        <time>2026-08-14T08:32:27.540Z</time>
      </trkpt>
      <trkpt lat="45.78478" lon="6.72815">
        <ele>1788</ele>
        <time>2026-08-14T08:32:28.540Z</time>
      </trkpt>
      <trkpt lat="45.78477" lon="6.72815">
        <ele>1788</ele>
        <time>2026-08-14T08:32:29.540Z</time>
      </trkpt>
      <trkpt lat="45.78477" lon="6.72815">
        <ele>1787</ele>
        <time>2026-08-14T08:32:30.540Z</time>
      </trkpt>
      <trkpt lat="45.78476" lon="6.72814">
        <ele>1787</ele>
        <time>2026-08-14T08:32:31.540Z</time>
      </trkpt>
      <trkpt lat="45.78476" lon="6.72814">
        <ele>1787</ele>
        <time>2026-08-14T08:32:32.540Z</time>
      </trkpt>
      <trkpt lat="45.78475" lon="6.72814">
        <ele>1787</ele>
        <time>2026-08-14T08:32:33.540Z</time>
      </trkpt>
      <trkpt lat="45.78475" lon="6.72815">
        <ele>1787</ele>
        <time>2026-08-14T08:32:34.540Z</time>
      </trkpt>
      <trkpt lat="45.78475" lon="6.72815">
        <ele>1787</ele>
        <time>2026-08-14T08:32:35.540Z</time>
      </trkpt>
      <trkpt lat="45.78474" lon="6.72816">
        <ele>1787</ele>
        <time>2026-08-14T08:32:36.540Z</time>
      </trkpt>
      <trkpt lat="45.78474" lon="6.72816">
        <ele>1787</ele>
        <time>2026-08-14T08:32:37.540Z</time>
      </trkpt>
      <trkpt lat="45.78474" lon="6.72817">
        <ele>1786</ele>
        <time>2026-08-14T08:32:38.540Z</time>
      </trkpt>
      <trkpt lat="45.78474" lon="6.72817">
        <ele>1786</ele>
        <time>2026-08-14T08:32:39.540Z</time>
      </trkpt>
      <trkpt lat="45.78473" lon="6.72818">
        <ele>1786</ele>
        <time>2026-08-14T08:32:40.540Z</time>
      </trkpt>
      <trkpt lat="45.78472" lon="6.72817">
        <ele>1786</ele>
        <time>2026-08-14T08:32:41.540Z</time>
      </trkpt>
      <trkpt lat="45.78471" lon="6.72817">
        <ele>1786</ele>
        <time>2026-08-14T08:32:42.540Z</time>
      </trkpt>
      <trkpt lat="45.7847" lon="6.72815">
        <ele>1786</ele>
        <time>2026-08-14T08:32:43.540Z</time>
      </trkpt>
      <trkpt lat="45.7847" lon="6.72815">
        <ele>1785</ele>
        <time>2026-08-14T08:32:44.540Z</time>
      </trkpt>
      <trkpt lat="45.7847" lon="6.72814">
        <ele>1785</ele>
        <time>2026-08-14T08:32:45.540Z</time>
      </trkpt>
      <trkpt lat="45.7847" lon="6.72813">
        <ele>1785</ele>
        <time>2026-08-14T08:32:46.540Z</time>
      </trkpt>
      <trkpt lat="45.7847" lon="6.72812">
        <ele>1784</ele>
        <time>2026-08-14T08:32:47.540Z</time>
      </trkpt>
      <trkpt lat="45.7847" lon="6.72812">
        <ele>1784</ele>
        <time>2026-08-14T08:32:48.540Z</time>
      </trkpt>
      <trkpt lat="45.78469" lon="6.72813">
        <ele>1784</ele>
        <time>2026-08-14T08:32:49.540Z</time>
      </trkpt>
      <trkpt lat="45.78469" lon="6.72812">
        <ele>1783</ele>
        <time>2026-08-14T08:32:50.540Z</time>
      </trkpt>
      <trkpt lat="45.78469" lon="6.72812">
        <ele>1783</ele>
        <time>2026-08-14T08:32:51.540Z</time>
      </trkpt>
      <trkpt lat="45.78469" lon="6.72811">
        <ele>1783</ele>
        <time>2026-08-14T08:32:52.540Z</time>
      </trkpt>
      <trkpt lat="45.78469" lon="6.72812">
        <ele>1782</ele>
        <time>2026-08-14T08:32:53.540Z</time>
      </trkpt>
      <trkpt lat="45.78469" lon="6.72811">
        <ele>1782</ele>
        <time>2026-08-14T08:32:54.540Z</time>
      </trkpt>
      <trkpt lat="45.78469" lon="6.72811">
        <ele>1782</ele>
        <time>2026-08-14T08:32:55.540Z</time>
      </trkpt>
      <trkpt lat="45.78469" lon="6.72812">
        <ele>1782</ele>
        <time>2026-08-14T08:32:56.540Z</time>
      </trkpt>
      <trkpt lat="45.78469" lon="6.72813">
        <ele>1782</ele>
        <time>2026-08-14T08:32:57.540Z</time>
      </trkpt>
      <trkpt lat="45.78468" lon="6.72814">
        <ele>1781</ele>
        <time>2026-08-14T08:32:58.540Z</time>
      </trkpt>
      <trkpt lat="45.78467" lon="6.72815">
        <ele>1781</ele>
        <time>2026-08-14T08:32:59.540Z</time>
      </trkpt>
      <trkpt lat="45.78467" lon="6.72815">
        <ele>1781</ele>
        <time>2026-08-14T08:33:00.540Z</time>
      </trkpt>
      <trkpt lat="45.78465" lon="6.72815">
        <ele>1780</ele>
        <time>2026-08-14T08:33:01.540Z</time>
      </trkpt>
      <trkpt lat="45.78464" lon="6.72814">
        <ele>1780</ele>
        <time>2026-08-14T08:33:02.540Z</time>
      </trkpt>
      <trkpt lat="45.78464" lon="6.72813">
        <ele>1779</ele>
        <time>2026-08-14T08:33:03.540Z</time>
      </trkpt>
      <trkpt lat="45.78464" lon="6.72813">
        <ele>1779</ele>
        <time>2026-08-14T08:33:04.540Z</time>
      </trkpt>
      <trkpt lat="45.78464" lon="6.72812">
        <ele>1778</ele>
        <time>2026-08-14T08:33:05.540Z</time>
      </trkpt>
      <trkpt lat="45.78464" lon="6.72812">
        <ele>1777</ele>
        <time>2026-08-14T08:33:06.540Z</time>
      </trkpt>
      <trkpt lat="45.78464" lon="6.72812">
        <ele>1777</ele>
        <time>2026-08-14T08:33:07.540Z</time>
      </trkpt>
      <trkpt lat="45.78463" lon="6.72811">
        <ele>1777</ele>
        <time>2026-08-14T08:33:08.540Z</time>
      </trkpt>
      <trkpt lat="45.78463" lon="6.72811">
        <ele>1776</ele>
        <time>2026-08-14T08:33:09.540Z</time>
      </trkpt>
      <trkpt lat="45.78463" lon="6.7281">
        <ele>1776</ele>
        <time>2026-08-14T08:33:10.540Z</time>
      </trkpt>
      <trkpt lat="45.78463" lon="6.72809">
        <ele>1776</ele>
        <time>2026-08-14T08:33:11.540Z</time>
      </trkpt>
      <trkpt lat="45.78462" lon="6.72808">
        <ele>1776</ele>
        <time>2026-08-14T08:33:12.540Z</time>
      </trkpt>
      <trkpt lat="45.78461" lon="6.72807">
        <ele>1775</ele>
        <time>2026-08-14T08:33:13.540Z</time>
      </trkpt>
      <trkpt lat="45.78461" lon="6.72806">
        <ele>1775</ele>
        <time>2026-08-14T08:33:14.540Z</time>
      </trkpt>
      <trkpt lat="45.7846" lon="6.72804">
        <ele>1775</ele>
        <time>2026-08-14T08:33:15.540Z</time>
      </trkpt>
      <trkpt lat="45.7846" lon="6.72804">
        <ele>1774</ele>
        <time>2026-08-14T08:33:16.540Z</time>
      </trkpt>
      <trkpt lat="45.78459" lon="6.72802">
        <ele>1775</ele>
        <time>2026-08-14T08:33:17.540Z</time>
      </trkpt>
      <trkpt lat="45.78459" lon="6.72801">
        <ele>1774</ele>
        <time>2026-08-14T08:33:18.540Z</time>
      </trkpt>
      <trkpt lat="45.78459" lon="6.72801">
        <ele>1774</ele>
        <time>2026-08-14T08:33:19.540Z</time>
      </trkpt>
      <trkpt lat="45.78459" lon="6.72801">
        <ele>1774</ele>
        <time>2026-08-14T08:33:20.540Z</time>
      </trkpt>
      <trkpt lat="45.78458" lon="6.72801">
        <ele>1774</ele>
        <time>2026-08-14T08:33:21.540Z</time>
      </trkpt>
      <trkpt lat="45.78457" lon="6.72801">
        <ele>1774</ele>
        <time>2026-08-14T08:33:22.540Z</time>
      </trkpt>
      <trkpt lat="45.78457" lon="6.72801">
        <ele>1774</ele>
        <time>2026-08-14T08:33:23.540Z</time>
      </trkpt>
      <trkpt lat="45.78457" lon="6.72801">
        <ele>1774</ele>
        <time>2026-08-14T08:33:24.540Z</time>
      </trkpt>
      <trkpt lat="45.78456" lon="6.72801">
        <ele>1775</ele>
        <time>2026-08-14T08:33:25.540Z</time>
      </trkpt>
      <trkpt lat="45.78455" lon="6.728">
        <ele>1775</ele>
        <time>2026-08-14T08:33:26.540Z</time>
      </trkpt>
      <trkpt lat="45.78455" lon="6.728">
        <ele>1776</ele>
        <time>2026-08-14T08:33:27.540Z</time>
      </trkpt>
      <trkpt lat="45.78454" lon="6.72799">
        <ele>1776</ele>
        <time>2026-08-14T08:33:28.540Z</time>
      </trkpt>
      <trkpt lat="45.78454" lon="6.72798">
        <ele>1777</ele>
        <time>2026-08-14T08:33:29.540Z</time>
      </trkpt>
      <trkpt lat="45.78454" lon="6.72796">
        <ele>1777</ele>
        <time>2026-08-14T08:33:30.540Z</time>
      </trkpt>
      <trkpt lat="45.78453" lon="6.72796">
        <ele>1777</ele>
        <time>2026-08-14T08:33:31.540Z</time>
      </trkpt>
      <trkpt lat="45.78453" lon="6.72795">
        <ele>1778</ele>
        <time>2026-08-14T08:33:32.540Z</time>
      </trkpt>
      <trkpt lat="45.78454" lon="6.72795">
        <ele>1778</ele>
        <time>2026-08-14T08:33:33.540Z</time>
      </trkpt>
      <trkpt lat="45.78453" lon="6.72795">
        <ele>1778</ele>
        <time>2026-08-14T08:33:34.540Z</time>
      </trkpt>
      <trkpt lat="45.78453" lon="6.72794">
        <ele>1778</ele>
        <time>2026-08-14T08:33:35.540Z</time>
      </trkpt>
      <trkpt lat="45.78452" lon="6.72793">
        <ele>1778</ele>
        <time>2026-08-14T08:33:36.540Z</time>
      </trkpt>
      <trkpt lat="45.78452" lon="6.72793">
        <ele>1778</ele>
        <time>2026-08-14T08:33:37.540Z</time>
      </trkpt>
      <trkpt lat="45.78451" lon="6.72792">
        <ele>1777</ele>
        <time>2026-08-14T08:33:38.540Z</time>
      </trkpt>
      <trkpt lat="45.7845" lon="6.72791">
        <ele>1777</ele>
        <time>2026-08-14T08:33:39.540Z</time>
      </trkpt>
      <trkpt lat="45.7845" lon="6.7279">
        <ele>1777</ele>
        <time>2026-08-14T08:33:40.540Z</time>
      </trkpt>
      <trkpt lat="45.7845" lon="6.72789">
        <ele>1776</ele>
        <time>2026-08-14T08:33:41.540Z</time>
      </trkpt>
      <trkpt lat="45.7845" lon="6.72788">
        <ele>1775</ele>
        <time>2026-08-14T08:33:42.540Z</time>
      </trkpt>
      <trkpt lat="45.7845" lon="6.72789">
        <ele>1774</ele>
        <time>2026-08-14T08:33:43.540Z</time>
      </trkpt>
      <trkpt lat="45.78449" lon="6.72789">
        <ele>1773</ele>
        <time>2026-08-14T08:33:44.540Z</time>
      </trkpt>
      <trkpt lat="45.78449" lon="6.72789">
        <ele>1772</ele>
        <time>2026-08-14T08:33:45.540Z</time>
      </trkpt>
      <trkpt lat="45.78449" lon="6.7279">
        <ele>1772</ele>
        <time>2026-08-14T08:33:46.540Z</time>
      </trkpt>
      <trkpt lat="45.78449" lon="6.7279">
        <ele>1771</ele>
        <time>2026-08-14T08:33:47.540Z</time>
      </trkpt>
      <trkpt lat="45.78449" lon="6.7279">
        <ele>1771</ele>
        <time>2026-08-14T08:33:48.540Z</time>
      </trkpt>
      <trkpt lat="45.78448" lon="6.7279">
        <ele>1771</ele>
        <time>2026-08-14T08:33:49.540Z</time>
      </trkpt>
      <trkpt lat="45.78448" lon="6.7279">
        <ele>1770</ele>
        <time>2026-08-14T08:33:50.540Z</time>
      </trkpt>
      <trkpt lat="45.78447" lon="6.72791">
        <ele>1770</ele>
        <time>2026-08-14T08:33:51.540Z</time>
      </trkpt>
      <trkpt lat="45.78447" lon="6.72792">
        <ele>1770</ele>
        <time>2026-08-14T08:33:52.540Z</time>
      </trkpt>
      <trkpt lat="45.78447" lon="6.72793">
        <ele>1770</ele>
        <time>2026-08-14T08:33:53.540Z</time>
      </trkpt>
      <trkpt lat="45.78447" lon="6.72794">
        <ele>1770</ele>
        <time>2026-08-14T08:33:54.540Z</time>
      </trkpt>
      <trkpt lat="45.78446" lon="6.72794">
        <ele>1770</ele>
        <time>2026-08-14T08:33:55.540Z</time>
      </trkpt>
      <trkpt lat="45.78445" lon="6.72795">
        <ele>1770</ele>
        <time>2026-08-14T08:33:56.540Z</time>
      </trkpt>
      <trkpt lat="45.78444" lon="6.72796">
        <ele>1770</ele>
        <time>2026-08-14T08:33:57.540Z</time>
      </trkpt>
      <trkpt lat="45.78443" lon="6.72795">
        <ele>1770</ele>
        <time>2026-08-14T08:33:58.540Z</time>
      </trkpt>
      <trkpt lat="45.78442" lon="6.72795">
        <ele>1769</ele>
        <time>2026-08-14T08:33:59.540Z</time>
      </trkpt>
      <trkpt lat="45.78441" lon="6.72795">
        <ele>1769</ele>
        <time>2026-08-14T08:34:00.540Z</time>
      </trkpt>
      <trkpt lat="45.7844" lon="6.72795">
        <ele>1768</ele>
        <time>2026-08-14T08:34:01.540Z</time>
      </trkpt>
      <trkpt lat="45.78439" lon="6.72795">
        <ele>1768</ele>
        <time>2026-08-14T08:34:02.540Z</time>
      </trkpt>
      <trkpt lat="45.78438" lon="6.72795">
        <ele>1767</ele>
        <time>2026-08-14T08:34:03.540Z</time>
      </trkpt>
      <trkpt lat="45.78437" lon="6.72794">
        <ele>1767</ele>
        <time>2026-08-14T08:34:04.540Z</time>
      </trkpt>
      <trkpt lat="45.78437" lon="6.72793">
        <ele>1766</ele>
        <time>2026-08-14T08:34:05.540Z</time>
      </trkpt>
      <trkpt lat="45.78437" lon="6.72792">
        <ele>1766</ele>
        <time>2026-08-14T08:34:06.540Z</time>
      </trkpt>
      <trkpt lat="45.78437" lon="6.7279">
        <ele>1765</ele>
        <time>2026-08-14T08:34:07.540Z</time>
      </trkpt>
      <trkpt lat="45.78438" lon="6.72789">
        <ele>1764</ele>
        <time>2026-08-14T08:34:08.540Z</time>
      </trkpt>
      <trkpt lat="45.78439" lon="6.72788">
        <ele>1763</ele>
        <time>2026-08-14T08:34:09.540Z</time>
      </trkpt>
      <trkpt lat="45.78439" lon="6.72787">
        <ele>1763</ele>
        <time>2026-08-14T08:34:10.540Z</time>
      </trkpt>
      <trkpt lat="45.78439" lon="6.72786">
        <ele>1762</ele>
        <time>2026-08-14T08:34:11.540Z</time>
      </trkpt>
      <trkpt lat="45.78439" lon="6.72784">
        <ele>1761</ele>
        <time>2026-08-14T08:34:12.540Z</time>
      </trkpt>
      <trkpt lat="45.78439" lon="6.72783">
        <ele>1760</ele>
        <time>2026-08-14T08:34:13.540Z</time>
      </trkpt>
      <trkpt lat="45.78439" lon="6.72781">
        <ele>1760</ele>
        <time>2026-08-14T08:34:14.540Z</time>
      </trkpt>
      <trkpt lat="45.78439" lon="6.7278">
        <ele>1759</ele>
        <time>2026-08-14T08:34:15.540Z</time>
      </trkpt>
      <trkpt lat="45.78439" lon="6.72779">
        <ele>1759</ele>
        <time>2026-08-14T08:34:16.540Z</time>
      </trkpt>
      <trkpt lat="45.7844" lon="6.72777">
        <ele>1758</ele>
        <time>2026-08-14T08:34:17.540Z</time>
      </trkpt>
      <trkpt lat="45.78439" lon="6.72776">
        <ele>1758</ele>
        <time>2026-08-14T08:34:18.540Z</time>
      </trkpt>
      <trkpt lat="45.78439" lon="6.72776">
        <ele>1758</ele>
        <time>2026-08-14T08:34:19.540Z</time>
      </trkpt>
      <trkpt lat="45.78439" lon="6.72776">
        <ele>1757</ele>
        <time>2026-08-14T08:34:20.540Z</time>
      </trkpt>
      <trkpt lat="45.78438" lon="6.72776">
        <ele>1757</ele>
        <time>2026-08-14T08:34:21.540Z</time>
      </trkpt>
      <trkpt lat="45.78438" lon="6.72776">
        <ele>1757</ele>
        <time>2026-08-14T08:34:22.540Z</time>
      </trkpt>
      <trkpt lat="45.78437" lon="6.72777">
        <ele>1757</ele>
        <time>2026-08-14T08:34:23.540Z</time>
      </trkpt>
      <trkpt lat="45.78436" lon="6.72776">
        <ele>1757</ele>
        <time>2026-08-14T08:34:24.540Z</time>
      </trkpt>
      <trkpt lat="45.78436" lon="6.72777">
        <ele>1756</ele>
        <time>2026-08-14T08:34:25.540Z</time>
      </trkpt>
      <trkpt lat="45.78436" lon="6.72778">
        <ele>1756</ele>
        <time>2026-08-14T08:34:26.540Z</time>
      </trkpt>
      <trkpt lat="45.78435" lon="6.72778">
        <ele>1756</ele>
        <time>2026-08-14T08:34:27.540Z</time>
      </trkpt>
      <trkpt lat="45.78435" lon="6.72779">
        <ele>1755</ele>
        <time>2026-08-14T08:34:28.540Z</time>
      </trkpt>
      <trkpt lat="45.78434" lon="6.7278">
        <ele>1755</ele>
        <time>2026-08-14T08:34:29.540Z</time>
      </trkpt>
      <trkpt lat="45.78433" lon="6.72781">
        <ele>1754</ele>
        <time>2026-08-14T08:34:30.540Z</time>
      </trkpt>
      <trkpt lat="45.78433" lon="6.72782">
        <ele>1753</ele>
        <time>2026-08-14T08:34:31.540Z</time>
      </trkpt>
      <trkpt lat="45.78432" lon="6.72783">
        <ele>1752</ele>
        <time>2026-08-14T08:34:32.540Z</time>
      </trkpt>
      <trkpt lat="45.78431" lon="6.72783">
        <ele>1751</ele>
        <time>2026-08-14T08:34:33.540Z</time>
      </trkpt>
      <trkpt lat="45.78429" lon="6.72783">
        <ele>1751</ele>
        <time>2026-08-14T08:34:34.540Z</time>
      </trkpt>
      <trkpt lat="45.78428" lon="6.72783">
        <ele>1750</ele>
        <time>2026-08-14T08:34:35.540Z</time>
      </trkpt>
      <trkpt lat="45.78427" lon="6.72782">
        <ele>1749</ele>
        <time>2026-08-14T08:34:36.540Z</time>
      </trkpt>
      <trkpt lat="45.78426" lon="6.72782">
        <ele>1748</ele>
        <time>2026-08-14T08:34:37.540Z</time>
      </trkpt>
      <trkpt lat="45.78425" lon="6.72782">
        <ele>1747</ele>
        <time>2026-08-14T08:34:38.540Z</time>
      </trkpt>
      <trkpt lat="45.78423" lon="6.72782">
        <ele>1747</ele>
        <time>2026-08-14T08:34:39.540Z</time>
      </trkpt>
      <trkpt lat="45.78421" lon="6.72782">
        <ele>1746</ele>
        <time>2026-08-14T08:34:40.540Z</time>
      </trkpt>
      <trkpt lat="45.7842" lon="6.72782">
        <ele>1746</ele>
        <time>2026-08-14T08:34:41.540Z</time>
      </trkpt>
      <trkpt lat="45.78419" lon="6.72782">
        <ele>1746</ele>
        <time>2026-08-14T08:34:42.540Z</time>
      </trkpt>
      <trkpt lat="45.78418" lon="6.72782">
        <ele>1745</ele>
        <time>2026-08-14T08:34:43.540Z</time>
      </trkpt>
      <trkpt lat="45.78417" lon="6.72782">
        <ele>1745</ele>
        <time>2026-08-14T08:34:44.540Z</time>
      </trkpt>
      <trkpt lat="45.78415" lon="6.72782">
        <ele>1745</ele>
        <time>2026-08-14T08:34:45.540Z</time>
      </trkpt>
      <trkpt lat="45.78415" lon="6.72781">
        <ele>1745</ele>
        <time>2026-08-14T08:34:46.540Z</time>
      </trkpt>
      <trkpt lat="45.78415" lon="6.72779">
        <ele>1745</ele>
        <time>2026-08-14T08:34:47.540Z</time>
      </trkpt>
      <trkpt lat="45.78416" lon="6.72777">
        <ele>1744</ele>
        <time>2026-08-14T08:34:48.540Z</time>
      </trkpt>
      <trkpt lat="45.78417" lon="6.72775">
        <ele>1744</ele>
        <time>2026-08-14T08:34:49.540Z</time>
      </trkpt>
      <trkpt lat="45.78418" lon="6.72774">
        <ele>1743</ele>
        <time>2026-08-14T08:34:50.540Z</time>
      </trkpt>
      <trkpt lat="45.78419" lon="6.72773">
        <ele>1742</ele>
        <time>2026-08-14T08:34:51.540Z</time>
      </trkpt>
      <trkpt lat="45.78419" lon="6.72772">
        <ele>1741</ele>
        <time>2026-08-14T08:34:52.540Z</time>
      </trkpt>
      <trkpt lat="45.7842" lon="6.72771">
        <ele>1740</ele>
        <time>2026-08-14T08:34:53.540Z</time>
      </trkpt>
      <trkpt lat="45.78421" lon="6.72769">
        <ele>1739</ele>
        <time>2026-08-14T08:34:54.540Z</time>
      </trkpt>
      <trkpt lat="45.78421" lon="6.72769">
        <ele>1739</ele>
        <time>2026-08-14T08:34:55.540Z</time>
      </trkpt>
      <trkpt lat="45.78422" lon="6.72768">
        <ele>1738</ele>
        <time>2026-08-14T08:34:56.540Z</time>
      </trkpt>
      <trkpt lat="45.78423" lon="6.72767">
        <ele>1737</ele>
        <time>2026-08-14T08:34:57.540Z</time>
      </trkpt>
      <trkpt lat="45.78424" lon="6.72767">
        <ele>1736</ele>
        <time>2026-08-14T08:34:58.540Z</time>
      </trkpt>
      <trkpt lat="45.78425" lon="6.72766">
        <ele>1735</ele>
        <time>2026-08-14T08:34:59.540Z</time>
      </trkpt>
      <trkpt lat="45.78424" lon="6.72765">
        <ele>1735</ele>
        <time>2026-08-14T08:35:00.540Z</time>
      </trkpt>
      <trkpt lat="45.78424" lon="6.72764">
        <ele>1734</ele>
        <time>2026-08-14T08:35:01.540Z</time>
      </trkpt>
      <trkpt lat="45.78424" lon="6.72763">
        <ele>1734</ele>
        <time>2026-08-14T08:35:02.540Z</time>
      </trkpt>
      <trkpt lat="45.78424" lon="6.72762">
        <ele>1734</ele>
        <time>2026-08-14T08:35:03.540Z</time>
      </trkpt>
      <trkpt lat="45.78424" lon="6.72762">
        <ele>1734</ele>
        <time>2026-08-14T08:35:04.540Z</time>
      </trkpt>
      <trkpt lat="45.78423" lon="6.72762">
        <ele>1734</ele>
        <time>2026-08-14T08:35:05.540Z</time>
      </trkpt>
      <trkpt lat="45.78423" lon="6.72763">
        <ele>1734</ele>
        <time>2026-08-14T08:35:06.540Z</time>
      </trkpt>
      <trkpt lat="45.78422" lon="6.72764">
        <ele>1734</ele>
        <time>2026-08-14T08:35:07.540Z</time>
      </trkpt>
      <trkpt lat="45.78421" lon="6.72764">
        <ele>1733</ele>
        <time>2026-08-14T08:35:08.540Z</time>
      </trkpt>
      <trkpt lat="45.78421" lon="6.72764">
        <ele>1733</ele>
        <time>2026-08-14T08:35:09.540Z</time>
      </trkpt>
      <trkpt lat="45.7842" lon="6.72764">
        <ele>1732</ele>
        <time>2026-08-14T08:35:10.540Z</time>
      </trkpt>
      <trkpt lat="45.78419" lon="6.72763">
        <ele>1732</ele>
        <time>2026-08-14T08:35:11.540Z</time>
      </trkpt>
      <trkpt lat="45.78417" lon="6.72764">
        <ele>1732</ele>
        <time>2026-08-14T08:35:12.540Z</time>
      </trkpt>
      <trkpt lat="45.78415" lon="6.72764">
        <ele>1731</ele>
        <time>2026-08-14T08:35:13.540Z</time>
      </trkpt>
      <trkpt lat="45.78414" lon="6.72763">
        <ele>1730</ele>
        <time>2026-08-14T08:35:14.540Z</time>
      </trkpt>
      <trkpt lat="45.78413" lon="6.72762">
        <ele>1729</ele>
        <time>2026-08-14T08:35:15.540Z</time>
      </trkpt>
      <trkpt lat="45.78412" lon="6.72762">
        <ele>1729</ele>
        <time>2026-08-14T08:35:16.540Z</time>
      </trkpt>
      <trkpt lat="45.78412" lon="6.72761">
        <ele>1728</ele>
        <time>2026-08-14T08:35:17.540Z</time>
      </trkpt>
      <trkpt lat="45.78411" lon="6.72759">
        <ele>1728</ele>
        <time>2026-08-14T08:35:18.540Z</time>
      </trkpt>
      <trkpt lat="45.78411" lon="6.72757">
        <ele>1727</ele>
        <time>2026-08-14T08:35:19.540Z</time>
      </trkpt>
      <trkpt lat="45.78411" lon="6.72756">
        <ele>1727</ele>
        <time>2026-08-14T08:35:20.540Z</time>
      </trkpt>
      <trkpt lat="45.78411" lon="6.72754">
        <ele>1727</ele>
        <time>2026-08-14T08:35:21.540Z</time>
      </trkpt>
      <trkpt lat="45.78412" lon="6.72753">
        <ele>1727</ele>
        <time>2026-08-14T08:35:22.540Z</time>
      </trkpt>
      <trkpt lat="45.78413" lon="6.72751">
        <ele>1727</ele>
        <time>2026-08-14T08:35:23.540Z</time>
      </trkpt>
      <trkpt lat="45.78413" lon="6.7275">
        <ele>1726</ele>
        <time>2026-08-14T08:35:24.540Z</time>
      </trkpt>
      <trkpt lat="45.78413" lon="6.72749">
        <ele>1726</ele>
        <time>2026-08-14T08:35:25.540Z</time>
      </trkpt>
      <trkpt lat="45.78413" lon="6.72749">
        <ele>1726</ele>
        <time>2026-08-14T08:35:26.540Z</time>
      </trkpt>
      <trkpt lat="45.78413" lon="6.72747">
        <ele>1726</ele>
        <time>2026-08-14T08:35:27.540Z</time>
      </trkpt>
      <trkpt lat="45.78413" lon="6.72747">
        <ele>1725</ele>
        <time>2026-08-14T08:35:28.540Z</time>
      </trkpt>
      <trkpt lat="45.78413" lon="6.72745">
        <ele>1725</ele>
        <time>2026-08-14T08:35:29.540Z</time>
      </trkpt>
      <trkpt lat="45.78412" lon="6.72745">
        <ele>1725</ele>
        <time>2026-08-14T08:35:30.540Z</time>
      </trkpt>
      <trkpt lat="45.78412" lon="6.72745">
        <ele>1725</ele>
        <time>2026-08-14T08:35:31.540Z</time>
      </trkpt>
      <trkpt lat="45.78412" lon="6.72746">
        <ele>1724</ele>
        <time>2026-08-14T08:35:32.540Z</time>
      </trkpt>
      <trkpt lat="45.78412" lon="6.72747">
        <ele>1724</ele>
        <time>2026-08-14T08:35:33.540Z</time>
      </trkpt>
      <trkpt lat="45.78412" lon="6.72748">
        <ele>1723</ele>
        <time>2026-08-14T08:35:34.540Z</time>
      </trkpt>
      <trkpt lat="45.78411" lon="6.72748">
        <ele>1723</ele>
        <time>2026-08-14T08:35:35.540Z</time>
      </trkpt>
      <trkpt lat="45.7841" lon="6.72749">
        <ele>1722</ele>
        <time>2026-08-14T08:35:36.540Z</time>
      </trkpt>
      <trkpt lat="45.78409" lon="6.72749">
        <ele>1722</ele>
        <time>2026-08-14T08:35:37.540Z</time>
      </trkpt>
      <trkpt lat="45.78409" lon="6.72749">
        <ele>1721</ele>
        <time>2026-08-14T08:35:38.540Z</time>
      </trkpt>
      <trkpt lat="45.78408" lon="6.72749">
        <ele>1720</ele>
        <time>2026-08-14T08:35:39.540Z</time>
      </trkpt>
      <trkpt lat="45.78407" lon="6.7275">
        <ele>1719</ele>
        <time>2026-08-14T08:35:40.540Z</time>
      </trkpt>
      <trkpt lat="45.78406" lon="6.7275">
        <ele>1718</ele>
        <time>2026-08-14T08:35:41.540Z</time>
      </trkpt>
      <trkpt lat="45.78406" lon="6.72749">
        <ele>1717</ele>
        <time>2026-08-14T08:35:42.540Z</time>
      </trkpt>
      <trkpt lat="45.78406" lon="6.72747">
        <ele>1716</ele>
        <time>2026-08-14T08:35:43.540Z</time>
      </trkpt>
      <trkpt lat="45.78406" lon="6.72745">
        <ele>1715</ele>
        <time>2026-08-14T08:35:44.540Z</time>
      </trkpt>
      <trkpt lat="45.78406" lon="6.72743">
        <ele>1713</ele>
        <time>2026-08-14T08:35:45.540Z</time>
      </trkpt>
      <trkpt lat="45.78405" lon="6.72739">
        <ele>1712</ele>
        <time>2026-08-14T08:35:46.540Z</time>
      </trkpt>
      <trkpt lat="45.78405" lon="6.72736">
        <ele>1711</ele>
        <time>2026-08-14T08:35:47.540Z</time>
      </trkpt>
      <trkpt lat="45.78404" lon="6.72735">
        <ele>1711</ele>
        <time>2026-08-14T08:35:48.540Z</time>
      </trkpt>
      <trkpt lat="45.78404" lon="6.72733">
        <ele>1710</ele>
        <time>2026-08-14T08:35:49.540Z</time>
      </trkpt>
      <trkpt lat="45.78404" lon="6.72732">
        <ele>1709</ele>
        <time>2026-08-14T08:35:50.540Z</time>
      </trkpt>
      <trkpt lat="45.78403" lon="6.7273">
        <ele>1709</ele>
        <time>2026-08-14T08:35:51.540Z</time>
      </trkpt>
      <trkpt lat="45.78403" lon="6.72727">
        <ele>1708</ele>
        <time>2026-08-14T08:35:52.540Z</time>
      </trkpt>
      <trkpt lat="45.78403" lon="6.72725">
        <ele>1708</ele>
        <time>2026-08-14T08:35:53.540Z</time>
      </trkpt>
      <trkpt lat="45.78403" lon="6.72723">
        <ele>1708</ele>
        <time>2026-08-14T08:35:54.540Z</time>
      </trkpt>
      <trkpt lat="45.78404" lon="6.72721">
        <ele>1707</ele>
        <time>2026-08-14T08:35:55.540Z</time>
      </trkpt>
      <trkpt lat="45.78405" lon="6.72719">
        <ele>1707</ele>
        <time>2026-08-14T08:35:56.540Z</time>
      </trkpt>
      <trkpt lat="45.78406" lon="6.72718">
        <ele>1706</ele>
        <time>2026-08-14T08:35:57.540Z</time>
      </trkpt>
      <trkpt lat="45.78407" lon="6.72716">
        <ele>1705</ele>
        <time>2026-08-14T08:35:58.540Z</time>
      </trkpt>
      <trkpt lat="45.78408" lon="6.72715">
        <ele>1705</ele>
        <time>2026-08-14T08:35:59.540Z</time>
      </trkpt>
      <trkpt lat="45.78408" lon="6.72713">
        <ele>1704</ele>
        <time>2026-08-14T08:36:00.540Z</time>
      </trkpt>
      <trkpt lat="45.78407" lon="6.72713">
        <ele>1704</ele>
        <time>2026-08-14T08:36:01.540Z</time>
      </trkpt>
      <trkpt lat="45.78406" lon="6.72712">
        <ele>1704</ele>
        <time>2026-08-14T08:36:02.540Z</time>
      </trkpt>
      <trkpt lat="45.78406" lon="6.72712">
        <ele>1703</ele>
        <time>2026-08-14T08:36:03.540Z</time>
      </trkpt>
      <trkpt lat="45.78406" lon="6.72712">
        <ele>1704</ele>
        <time>2026-08-14T08:36:04.540Z</time>
      </trkpt>
      <trkpt lat="45.78405" lon="6.72711">
        <ele>1704</ele>
        <time>2026-08-14T08:36:05.540Z</time>
      </trkpt>
      <trkpt lat="45.78405" lon="6.72711">
        <ele>1705</ele>
        <time>2026-08-14T08:36:06.540Z</time>
      </trkpt>
      <trkpt lat="45.78405" lon="6.7271">
        <ele>1705</ele>
        <time>2026-08-14T08:36:07.540Z</time>
      </trkpt>
      <trkpt lat="45.78406" lon="6.72708">
        <ele>1705</ele>
        <time>2026-08-14T08:36:08.540Z</time>
      </trkpt>
      <trkpt lat="45.78406" lon="6.72706">
        <ele>1706</ele>
        <time>2026-08-14T08:36:09.540Z</time>
      </trkpt>
      <trkpt lat="45.78406" lon="6.72705">
        <ele>1706</ele>
        <time>2026-08-14T08:36:10.540Z</time>
      </trkpt>
      <trkpt lat="45.78407" lon="6.72704">
        <ele>1706</ele>
        <time>2026-08-14T08:36:11.540Z</time>
      </trkpt>
      <trkpt lat="45.78407" lon="6.72703">
        <ele>1705</ele>
        <time>2026-08-14T08:36:12.540Z</time>
      </trkpt>
      <trkpt lat="45.78407" lon="6.72702">
        <ele>1705</ele>
        <time>2026-08-14T08:36:13.540Z</time>
      </trkpt>
      <trkpt lat="45.78406" lon="6.72701">
        <ele>1704</ele>
        <time>2026-08-14T08:36:14.540Z</time>
      </trkpt>
      <trkpt lat="45.78406" lon="6.727">
        <ele>1703</ele>
        <time>2026-08-14T08:36:15.540Z</time>
      </trkpt>
      <trkpt lat="45.78407" lon="6.72699">
        <ele>1702</ele>
        <time>2026-08-14T08:36:16.540Z</time>
      </trkpt>
      <trkpt lat="45.78408" lon="6.72698">
        <ele>1701</ele>
        <time>2026-08-14T08:36:17.540Z</time>
      </trkpt>
      <trkpt lat="45.78408" lon="6.72698">
        <ele>1701</ele>
        <time>2026-08-14T08:36:18.540Z</time>
      </trkpt>
      <trkpt lat="45.78408" lon="6.72697">
        <ele>1700</ele>
        <time>2026-08-14T08:36:19.540Z</time>
      </trkpt>
      <trkpt lat="45.78408" lon="6.72697">
        <ele>1700</ele>
        <time>2026-08-14T08:36:20.540Z</time>
      </trkpt>
      <trkpt lat="45.78407" lon="6.72696">
        <ele>1700</ele>
        <time>2026-08-14T08:36:21.540Z</time>
      </trkpt>
      <trkpt lat="45.78407" lon="6.72694">
        <ele>1700</ele>
        <time>2026-08-14T08:36:22.540Z</time>
      </trkpt>
      <trkpt lat="45.78407" lon="6.72693">
        <ele>1701</ele>
        <time>2026-08-14T08:36:23.540Z</time>
      </trkpt>
      <trkpt lat="45.78407" lon="6.72692">
        <ele>1701</ele>
        <time>2026-08-14T08:36:24.540Z</time>
      </trkpt>
      <trkpt lat="45.78407" lon="6.72691">
        <ele>1701</ele>
        <time>2026-08-14T08:36:25.540Z</time>
      </trkpt>
      <trkpt lat="45.78407" lon="6.7269">
        <ele>1702</ele>
        <time>2026-08-14T08:36:26.540Z</time>
      </trkpt>
      <trkpt lat="45.78408" lon="6.72689">
        <ele>1702</ele>
        <time>2026-08-14T08:36:27.540Z</time>
      </trkpt>
      <trkpt lat="45.78408" lon="6.72688">
        <ele>1702</ele>
        <time>2026-08-14T08:36:28.540Z</time>
      </trkpt>
      <trkpt lat="45.78409" lon="6.72688">
        <ele>1702</ele>
        <time>2026-08-14T08:36:29.540Z</time>
      </trkpt>
      <trkpt lat="45.78409" lon="6.72687">
        <ele>1702</ele>
        <time>2026-08-14T08:36:30.540Z</time>
      </trkpt>
      <trkpt lat="45.78408" lon="6.72686">
        <ele>1703</ele>
        <time>2026-08-14T08:36:31.540Z</time>
      </trkpt>
      <trkpt lat="45.78408" lon="6.72685">
        <ele>1703</ele>
        <time>2026-08-14T08:36:32.540Z</time>
      </trkpt>
      <trkpt lat="45.78408" lon="6.72683">
        <ele>1703</ele>
        <time>2026-08-14T08:36:33.540Z</time>
      </trkpt>
      <trkpt lat="45.78408" lon="6.72682">
        <ele>1703</ele>
        <time>2026-08-14T08:36:34.540Z</time>
      </trkpt>
      <trkpt lat="45.78409" lon="6.72681">
        <ele>1703</ele>
        <time>2026-08-14T08:36:35.540Z</time>
      </trkpt>
      <trkpt lat="45.78409" lon="6.7268">
        <ele>1702</ele>
        <time>2026-08-14T08:36:36.540Z</time>
      </trkpt>
      <trkpt lat="45.78409" lon="6.72679">
        <ele>1702</ele>
        <time>2026-08-14T08:36:37.540Z</time>
      </trkpt>
      <trkpt lat="45.7841" lon="6.72676">
        <ele>1701</ele>
        <time>2026-08-14T08:36:38.540Z</time>
      </trkpt>
      <trkpt lat="45.7841" lon="6.72674">
        <ele>1701</ele>
        <time>2026-08-14T08:36:39.540Z</time>
      </trkpt>
      <trkpt lat="45.78411" lon="6.72672">
        <ele>1701</ele>
        <time>2026-08-14T08:36:40.540Z</time>
      </trkpt>
      <trkpt lat="45.78412" lon="6.72671">
        <ele>1701</ele>
        <time>2026-08-14T08:36:41.540Z</time>
      </trkpt>
      <trkpt lat="45.78412" lon="6.7267">
        <ele>1700</ele>
        <time>2026-08-14T08:36:42.540Z</time>
      </trkpt>
      <trkpt lat="45.78413" lon="6.7267">
        <ele>1700</ele>
        <time>2026-08-14T08:36:43.540Z</time>
      </trkpt>
      <trkpt lat="45.78414" lon="6.72669">
        <ele>1699</ele>
        <time>2026-08-14T08:36:44.540Z</time>
      </trkpt>
      <trkpt lat="45.78415" lon="6.72668">
        <ele>1698</ele>
        <time>2026-08-14T08:36:45.540Z</time>
      </trkpt>
      <trkpt lat="45.78416" lon="6.72667">
        <ele>1698</ele>
        <time>2026-08-14T08:36:46.540Z</time>
      </trkpt>
      <trkpt lat="45.78417" lon="6.72666">
        <ele>1697</ele>
        <time>2026-08-14T08:36:47.540Z</time>
      </trkpt>
      <trkpt lat="45.78418" lon="6.72664">
        <ele>1696</ele>
        <time>2026-08-14T08:36:48.540Z</time>
      </trkpt>
      <trkpt lat="45.78419" lon="6.72663">
        <ele>1695</ele>
        <time>2026-08-14T08:36:49.540Z</time>
      </trkpt>
      <trkpt lat="45.78419" lon="6.72662">
        <ele>1695</ele>
        <time>2026-08-14T08:36:50.540Z</time>
      </trkpt>
      <trkpt lat="45.78418" lon="6.7266">
        <ele>1694</ele>
        <time>2026-08-14T08:36:51.540Z</time>
      </trkpt>
      <trkpt lat="45.78418" lon="6.72659">
        <ele>1694</ele>
        <time>2026-08-14T08:36:52.540Z</time>
      </trkpt>
      <trkpt lat="45.78417" lon="6.72659">
        <ele>1694</ele>
        <time>2026-08-14T08:36:53.540Z</time>
      </trkpt>
      <trkpt lat="45.78416" lon="6.72658">
        <ele>1694</ele>
        <time>2026-08-14T08:36:54.540Z</time>
      </trkpt>
      <trkpt lat="45.78415" lon="6.72658">
        <ele>1694</ele>
        <time>2026-08-14T08:36:55.540Z</time>
      </trkpt>
      <trkpt lat="45.78414" lon="6.72657">
        <ele>1694</ele>
        <time>2026-08-14T08:36:56.540Z</time>
      </trkpt>
      <trkpt lat="45.78413" lon="6.72656">
        <ele>1694</ele>
        <time>2026-08-14T08:36:57.540Z</time>
      </trkpt>
      <trkpt lat="45.78412" lon="6.72656">
        <ele>1694</ele>
        <time>2026-08-14T08:36:58.540Z</time>
      </trkpt>
      <trkpt lat="45.78411" lon="6.72656">
        <ele>1694</ele>
        <time>2026-08-14T08:36:59.540Z</time>
      </trkpt>
      <trkpt lat="45.7841" lon="6.72656">
        <ele>1694</ele>
        <time>2026-08-14T08:37:00.540Z</time>
      </trkpt>
      <trkpt lat="45.78409" lon="6.72655">
        <ele>1694</ele>
        <time>2026-08-14T08:37:01.540Z</time>
      </trkpt>
      <trkpt lat="45.78408" lon="6.72653">
        <ele>1694</ele>
        <time>2026-08-14T08:37:02.540Z</time>
      </trkpt>
      <trkpt lat="45.78407" lon="6.72651">
        <ele>1694</ele>
        <time>2026-08-14T08:37:03.540Z</time>
      </trkpt>
      <trkpt lat="45.78406" lon="6.72649">
        <ele>1694</ele>
        <time>2026-08-14T08:37:04.540Z</time>
      </trkpt>
      <trkpt lat="45.78405" lon="6.72646">
        <ele>1694</ele>
        <time>2026-08-14T08:37:05.540Z</time>
      </trkpt>
      <trkpt lat="45.78405" lon="6.72644">
        <ele>1694</ele>
        <time>2026-08-14T08:37:06.540Z</time>
      </trkpt>
      <trkpt lat="45.78403" lon="6.72641">
        <ele>1694</ele>
        <time>2026-08-14T08:37:07.540Z</time>
      </trkpt>
      <trkpt lat="45.78402" lon="6.72638">
        <ele>1694</ele>
        <time>2026-08-14T08:37:08.540Z</time>
      </trkpt>
      <trkpt lat="45.78401" lon="6.72635">
        <ele>1693</ele>
        <time>2026-08-14T08:37:09.540Z</time>
      </trkpt>
      <trkpt lat="45.78401" lon="6.72631">
        <ele>1693</ele>
        <time>2026-08-14T08:37:10.540Z</time>
      </trkpt>
      <trkpt lat="45.784" lon="6.72628">
        <ele>1692</ele>
        <time>2026-08-14T08:37:11.540Z</time>
      </trkpt>
      <trkpt lat="45.784" lon="6.72625">
        <ele>1692</ele>
        <time>2026-08-14T08:37:12.540Z</time>
      </trkpt>
      <trkpt lat="45.78401" lon="6.72623">
        <ele>1691</ele>
        <time>2026-08-14T08:37:13.540Z</time>
      </trkpt>
      <trkpt lat="45.78401" lon="6.7262">
        <ele>1691</ele>
        <time>2026-08-14T08:37:14.540Z</time>
      </trkpt>
      <trkpt lat="45.78402" lon="6.72618">
        <ele>1690</ele>
        <time>2026-08-14T08:37:15.540Z</time>
      </trkpt>
      <trkpt lat="45.78402" lon="6.72617">
        <ele>1690</ele>
        <time>2026-08-14T08:37:16.540Z</time>
      </trkpt>
      <trkpt lat="45.78402" lon="6.72617">
        <ele>1690</ele>
        <time>2026-08-14T08:37:17.540Z</time>
      </trkpt>
      <trkpt lat="45.78401" lon="6.72617">
        <ele>1689</ele>
        <time>2026-08-14T08:37:18.540Z</time>
      </trkpt>
      <trkpt lat="45.78401" lon="6.72616">
        <ele>1689</ele>
        <time>2026-08-14T08:37:19.540Z</time>
      </trkpt>
      <trkpt lat="45.78401" lon="6.72615">
        <ele>1689</ele>
        <time>2026-08-14T08:37:20.540Z</time>
      </trkpt>
      <trkpt lat="45.78401" lon="6.72614">
        <ele>1688</ele>
        <time>2026-08-14T08:37:21.540Z</time>
      </trkpt>
      <trkpt lat="45.78402" lon="6.72612">
        <ele>1686</ele>
        <time>2026-08-14T08:37:22.540Z</time>
      </trkpt>
      <trkpt lat="45.78403" lon="6.7261">
        <ele>1685</ele>
        <time>2026-08-14T08:37:23.540Z</time>
      </trkpt>
      <trkpt lat="45.78404" lon="6.72608">
        <ele>1684</ele>
        <time>2026-08-14T08:37:24.540Z</time>
      </trkpt>
      <trkpt lat="45.78405" lon="6.72606">
        <ele>1682</ele>
        <time>2026-08-14T08:37:25.540Z</time>
      </trkpt>
      <trkpt lat="45.78406" lon="6.72604">
        <ele>1681</ele>
        <time>2026-08-14T08:37:26.540Z</time>
      </trkpt>
      <trkpt lat="45.78408" lon="6.72603">
        <ele>1680</ele>
        <time>2026-08-14T08:37:27.540Z</time>
      </trkpt>
      <trkpt lat="45.7841" lon="6.72602">
        <ele>1679</ele>
        <time>2026-08-14T08:37:28.540Z</time>
      </trkpt>
      <trkpt lat="45.78412" lon="6.72602">
        <ele>1677</ele>
        <time>2026-08-14T08:37:29.540Z</time>
      </trkpt>
      <trkpt lat="45.78414" lon="6.72601">
        <ele>1676</ele>
        <time>2026-08-14T08:37:30.540Z</time>
      </trkpt>
      <trkpt lat="45.78416" lon="6.726">
        <ele>1675</ele>
        <time>2026-08-14T08:37:31.540Z</time>
      </trkpt>
      <trkpt lat="45.78417" lon="6.72598">
        <ele>1674</ele>
        <time>2026-08-14T08:37:32.540Z</time>
      </trkpt>
      <trkpt lat="45.78418" lon="6.72597">
        <ele>1674</ele>
        <time>2026-08-14T08:37:33.540Z</time>
      </trkpt>
      <trkpt lat="45.7842" lon="6.72598">
        <ele>1673</ele>
        <time>2026-08-14T08:37:34.540Z</time>
      </trkpt>
      <trkpt lat="45.78421" lon="6.72598">
        <ele>1672</ele>
        <time>2026-08-14T08:37:35.540Z</time>
      </trkpt>
      <trkpt lat="45.78421" lon="6.72598">
        <ele>1672</ele>
        <time>2026-08-14T08:37:36.540Z</time>
      </trkpt>
      <trkpt lat="45.78422" lon="6.72598">
        <ele>1671</ele>
        <time>2026-08-14T08:37:37.540Z</time>
      </trkpt>
      <trkpt lat="45.78423" lon="6.72598">
        <ele>1670</ele>
        <time>2026-08-14T08:37:38.540Z</time>
      </trkpt>
      <trkpt lat="45.78424" lon="6.72597">
        <ele>1669</ele>
        <time>2026-08-14T08:37:39.540Z</time>
      </trkpt>
      <trkpt lat="45.78424" lon="6.72596">
        <ele>1668</ele>
        <time>2026-08-14T08:37:40.540Z</time>
      </trkpt>
      <trkpt lat="45.78424" lon="6.72595">
        <ele>1668</ele>
        <time>2026-08-14T08:37:41.540Z</time>
      </trkpt>
      <trkpt lat="45.78423" lon="6.72595">
        <ele>1667</ele>
        <time>2026-08-14T08:37:42.540Z</time>
      </trkpt>
      <trkpt lat="45.78422" lon="6.72596">
        <ele>1667</ele>
        <time>2026-08-14T08:37:43.540Z</time>
      </trkpt>
      <trkpt lat="45.78422" lon="6.72596">
        <ele>1667</ele>
        <time>2026-08-14T08:37:44.540Z</time>
      </trkpt>
      <trkpt lat="45.78421" lon="6.72596">
        <ele>1667</ele>
        <time>2026-08-14T08:37:45.540Z</time>
      </trkpt>
      <trkpt lat="45.7842" lon="6.72596">
        <ele>1667</ele>
        <time>2026-08-14T08:37:46.540Z</time>
      </trkpt>
      <trkpt lat="45.78419" lon="6.72595">
        <ele>1667</ele>
        <time>2026-08-14T08:37:47.540Z</time>
      </trkpt>
      <trkpt lat="45.78418" lon="6.72594">
        <ele>1667</ele>
        <time>2026-08-14T08:37:48.540Z</time>
      </trkpt>
      <trkpt lat="45.78418" lon="6.72594">
        <ele>1667</ele>
        <time>2026-08-14T08:37:49.540Z</time>
      </trkpt>
      <trkpt lat="45.78418" lon="6.72593">
        <ele>1667</ele>
        <time>2026-08-14T08:37:50.540Z</time>
      </trkpt>
      <trkpt lat="45.78417" lon="6.72593">
        <ele>1667</ele>
        <time>2026-08-14T08:37:51.540Z</time>
      </trkpt>
      <trkpt lat="45.78417" lon="6.72593">
        <ele>1667</ele>
        <time>2026-08-14T08:37:52.540Z</time>
      </trkpt>
      <trkpt lat="45.78417" lon="6.72592">
        <ele>1667</ele>
        <time>2026-08-14T08:37:53.540Z</time>
      </trkpt>
      <trkpt lat="45.78417" lon="6.72591">
        <ele>1668</ele>
        <time>2026-08-14T08:37:54.540Z</time>
      </trkpt>
      <trkpt lat="45.78416" lon="6.72591">
        <ele>1668</ele>
        <time>2026-08-14T08:37:55.540Z</time>
      </trkpt>
      <trkpt lat="45.78415" lon="6.72591">
        <ele>1668</ele>
        <time>2026-08-14T08:37:56.540Z</time>
      </trkpt>
      <trkpt lat="45.78414" lon="6.72591">
        <ele>1668</ele>
        <time>2026-08-14T08:37:57.540Z</time>
      </trkpt>
      <trkpt lat="45.78413" lon="6.7259">
        <ele>1668</ele>
        <time>2026-08-14T08:37:58.540Z</time>
      </trkpt>
      <trkpt lat="45.78413" lon="6.72589">
        <ele>1668</ele>
        <time>2026-08-14T08:37:59.540Z</time>
      </trkpt>
      <trkpt lat="45.78412" lon="6.72589">
        <ele>1668</ele>
        <time>2026-08-14T08:38:00.540Z</time>
      </trkpt>
      <trkpt lat="45.78411" lon="6.72589">
        <ele>1667</ele>
        <time>2026-08-14T08:38:01.540Z</time>
      </trkpt>
      <trkpt lat="45.78411" lon="6.72589">
        <ele>1667</ele>
        <time>2026-08-14T08:38:02.540Z</time>
      </trkpt>
      <trkpt lat="45.7841" lon="6.72589">
        <ele>1667</ele>
        <time>2026-08-14T08:38:03.540Z</time>
      </trkpt>
      <trkpt lat="45.78409" lon="6.72589">
        <ele>1667</ele>
        <time>2026-08-14T08:38:04.540Z</time>
      </trkpt>
      <trkpt lat="45.78408" lon="6.72587">
        <ele>1667</ele>
        <time>2026-08-14T08:38:05.540Z</time>
      </trkpt>
      <trkpt lat="45.78408" lon="6.72586">
        <ele>1666</ele>
        <time>2026-08-14T08:38:06.540Z</time>
      </trkpt>
      <trkpt lat="45.78408" lon="6.72584">
        <ele>1666</ele>
        <time>2026-08-14T08:38:07.540Z</time>
      </trkpt>
      <trkpt lat="45.78409" lon="6.72583">
        <ele>1666</ele>
        <time>2026-08-14T08:38:08.540Z</time>
      </trkpt>
      <trkpt lat="45.78409" lon="6.72582">
        <ele>1665</ele>
        <time>2026-08-14T08:38:09.540Z</time>
      </trkpt>
      <trkpt lat="45.7841" lon="6.72581">
        <ele>1665</ele>
        <time>2026-08-14T08:38:10.540Z</time>
      </trkpt>
      <trkpt lat="45.78411" lon="6.72581">
        <ele>1665</ele>
        <time>2026-08-14T08:38:11.540Z</time>
      </trkpt>
      <trkpt lat="45.78412" lon="6.7258">
        <ele>1665</ele>
        <time>2026-08-14T08:38:12.540Z</time>
      </trkpt>
      <trkpt lat="45.78412" lon="6.72579">
        <ele>1665</ele>
        <time>2026-08-14T08:38:13.540Z</time>
      </trkpt>
      <trkpt lat="45.78413" lon="6.72578">
        <ele>1664</ele>
        <time>2026-08-14T08:38:14.540Z</time>
      </trkpt>
      <trkpt lat="45.78413" lon="6.72576">
        <ele>1664</ele>
        <time>2026-08-14T08:38:15.540Z</time>
      </trkpt>
      <trkpt lat="45.78414" lon="6.72575">
        <ele>1664</ele>
        <time>2026-08-14T08:38:16.540Z</time>
      </trkpt>
      <trkpt lat="45.78415" lon="6.72575">
        <ele>1664</ele>
        <time>2026-08-14T08:38:17.540Z</time>
      </trkpt>
      <trkpt lat="45.78416" lon="6.72574">
        <ele>1664</ele>
        <time>2026-08-14T08:38:18.540Z</time>
      </trkpt>
      <trkpt lat="45.78416" lon="6.72573">
        <ele>1664</ele>
        <time>2026-08-14T08:38:19.540Z</time>
      </trkpt>
      <trkpt lat="45.78416" lon="6.72574">
        <ele>1664</ele>
        <time>2026-08-14T08:38:20.540Z</time>
      </trkpt>
      <trkpt lat="45.78415" lon="6.72574">
        <ele>1663</ele>
        <time>2026-08-14T08:38:21.540Z</time>
      </trkpt>
      <trkpt lat="45.78414" lon="6.72573">
        <ele>1663</ele>
        <time>2026-08-14T08:38:22.540Z</time>
      </trkpt>
      <trkpt lat="45.78413" lon="6.72573">
        <ele>1663</ele>
        <time>2026-08-14T08:38:23.540Z</time>
      </trkpt>
      <trkpt lat="45.78413" lon="6.72573">
        <ele>1662</ele>
        <time>2026-08-14T08:38:24.540Z</time>
      </trkpt>
      <trkpt lat="45.78413" lon="6.72572">
        <ele>1662</ele>
        <time>2026-08-14T08:38:25.540Z</time>
      </trkpt>
      <trkpt lat="45.78413" lon="6.72571">
        <ele>1661</ele>
        <time>2026-08-14T08:38:26.540Z</time>
      </trkpt>
      <trkpt lat="45.78412" lon="6.72569">
        <ele>1661</ele>
        <time>2026-08-14T08:38:27.540Z</time>
      </trkpt>
      <trkpt lat="45.78412" lon="6.72568">
        <ele>1661</ele>
        <time>2026-08-14T08:38:28.540Z</time>
      </trkpt>
      <trkpt lat="45.78411" lon="6.72568">
        <ele>1660</ele>
        <time>2026-08-14T08:38:29.540Z</time>
      </trkpt>
      <trkpt lat="45.78411" lon="6.72568">
        <ele>1660</ele>
        <time>2026-08-14T08:38:30.540Z</time>
      </trkpt>
      <trkpt lat="45.7841" lon="6.72568">
        <ele>1660</ele>
        <time>2026-08-14T08:38:31.540Z</time>
      </trkpt>
      <trkpt lat="45.78409" lon="6.72568">
        <ele>1659</ele>
        <time>2026-08-14T08:38:32.540Z</time>
      </trkpt>
      <trkpt lat="45.78409" lon="6.72568">
        <ele>1659</ele>
        <time>2026-08-14T08:38:33.540Z</time>
      </trkpt>
      <trkpt lat="45.78408" lon="6.72569">
        <ele>1659</ele>
        <time>2026-08-14T08:38:34.540Z</time>
      </trkpt>
      <trkpt lat="45.78408" lon="6.7257">
        <ele>1658</ele>
        <time>2026-08-14T08:38:35.540Z</time>
      </trkpt>
      <trkpt lat="45.78407" lon="6.7257">
        <ele>1658</ele>
        <time>2026-08-14T08:38:36.540Z</time>
      </trkpt>
      <trkpt lat="45.78406" lon="6.7257">
        <ele>1657</ele>
        <time>2026-08-14T08:38:37.540Z</time>
      </trkpt>
      <trkpt lat="45.78406" lon="6.72569">
        <ele>1657</ele>
        <time>2026-08-14T08:38:38.540Z</time>
      </trkpt>
      <trkpt lat="45.78406" lon="6.72568">
        <ele>1657</ele>
        <time>2026-08-14T08:38:39.540Z</time>
      </trkpt>
      <trkpt lat="45.78406" lon="6.72568">
        <ele>1656</ele>
        <time>2026-08-14T08:38:40.540Z</time>
      </trkpt>
      <trkpt lat="45.78405" lon="6.72568">
        <ele>1656</ele>
        <time>2026-08-14T08:38:41.540Z</time>
      </trkpt>
      <trkpt lat="45.78405" lon="6.72568">
        <ele>1656</ele>
        <time>2026-08-14T08:38:42.540Z</time>
      </trkpt>
      <trkpt lat="45.78405" lon="6.72568">
        <ele>1656</ele>
        <time>2026-08-14T08:38:43.540Z</time>
      </trkpt>
      <trkpt lat="45.78404" lon="6.72567">
        <ele>1655</ele>
        <time>2026-08-14T08:38:44.540Z</time>
      </trkpt>
      <trkpt lat="45.78403" lon="6.72567">
        <ele>1655</ele>
        <time>2026-08-14T08:38:45.540Z</time>
      </trkpt>
      <trkpt lat="45.78403" lon="6.72565">
        <ele>1654</ele>
        <time>2026-08-14T08:38:46.540Z</time>
      </trkpt>
      <trkpt lat="45.78403" lon="6.72564">
        <ele>1654</ele>
        <time>2026-08-14T08:38:47.540Z</time>
      </trkpt>
      <trkpt lat="45.78403" lon="6.72563">
        <ele>1653</ele>
        <time>2026-08-14T08:38:48.540Z</time>
      </trkpt>
      <trkpt lat="45.78403" lon="6.72562">
        <ele>1653</ele>
        <time>2026-08-14T08:38:49.540Z</time>
      </trkpt>
      <trkpt lat="45.78403" lon="6.72562">
        <ele>1652</ele>
        <time>2026-08-14T08:38:50.540Z</time>
      </trkpt>
      <trkpt lat="45.78402" lon="6.72561">
        <ele>1652</ele>
        <time>2026-08-14T08:38:51.540Z</time>
      </trkpt>
      <trkpt lat="45.78402" lon="6.72562">
        <ele>1652</ele>
        <time>2026-08-14T08:38:52.540Z</time>
      </trkpt>
      <trkpt lat="45.78401" lon="6.72561">
        <ele>1652</ele>
        <time>2026-08-14T08:38:53.540Z</time>
      </trkpt>
      <trkpt lat="45.784" lon="6.72561">
        <ele>1652</ele>
        <time>2026-08-14T08:38:54.540Z</time>
      </trkpt>
      <trkpt lat="45.784" lon="6.72561">
        <ele>1652</ele>
        <time>2026-08-14T08:38:55.540Z</time>
      </trkpt>
      <trkpt lat="45.78399" lon="6.72561">
        <ele>1651</ele>
        <time>2026-08-14T08:38:56.540Z</time>
      </trkpt>
      <trkpt lat="45.78398" lon="6.72561">
        <ele>1651</ele>
        <time>2026-08-14T08:38:57.540Z</time>
      </trkpt>
      <trkpt lat="45.78398" lon="6.72561">
        <ele>1650</ele>
        <time>2026-08-14T08:38:58.540Z</time>
      </trkpt>
      <trkpt lat="45.78398" lon="6.72561">
        <ele>1650</ele>
        <time>2026-08-14T08:38:59.540Z</time>
      </trkpt>
      <trkpt lat="45.78397" lon="6.72561">
        <ele>1649</ele>
        <time>2026-08-14T08:39:00.540Z</time>
      </trkpt>
      <trkpt lat="45.78397" lon="6.7256">
        <ele>1649</ele>
        <time>2026-08-14T08:39:01.540Z</time>
      </trkpt>
      <trkpt lat="45.78396" lon="6.7256">
        <ele>1648</ele>
        <time>2026-08-14T08:39:02.540Z</time>
      </trkpt>
      <trkpt lat="45.78395" lon="6.72559">
        <ele>1648</ele>
        <time>2026-08-14T08:39:03.540Z</time>
      </trkpt>
      <trkpt lat="45.78394" lon="6.7256">
        <ele>1647</ele>
        <time>2026-08-14T08:39:04.540Z</time>
      </trkpt>
      <trkpt lat="45.78393" lon="6.7256">
        <ele>1646</ele>
        <time>2026-08-14T08:39:05.540Z</time>
      </trkpt>
      <trkpt lat="45.78393" lon="6.7256">
        <ele>1646</ele>
        <time>2026-08-14T08:39:06.540Z</time>
      </trkpt>
      <trkpt lat="45.78392" lon="6.72561">
        <ele>1645</ele>
        <time>2026-08-14T08:39:07.540Z</time>
      </trkpt>
      <trkpt lat="45.78392" lon="6.72562">
        <ele>1645</ele>
        <time>2026-08-14T08:39:08.540Z</time>
      </trkpt>
      <trkpt lat="45.78392" lon="6.72564">
        <ele>1645</ele>
        <time>2026-08-14T08:39:09.540Z</time>
      </trkpt>
      <trkpt lat="45.78392" lon="6.72564">
        <ele>1644</ele>
        <time>2026-08-14T08:39:10.540Z</time>
      </trkpt>
      <trkpt lat="45.78391" lon="6.72564">
        <ele>1643</ele>
        <time>2026-08-14T08:39:11.540Z</time>
      </trkpt>
      <trkpt lat="45.7839" lon="6.72564">
        <ele>1643</ele>
        <time>2026-08-14T08:39:12.540Z</time>
      </trkpt>
      <trkpt lat="45.78389" lon="6.72565">
        <ele>1642</ele>
        <time>2026-08-14T08:39:13.540Z</time>
      </trkpt>
      <trkpt lat="45.78389" lon="6.72565">
        <ele>1642</ele>
        <time>2026-08-14T08:39:14.540Z</time>
      </trkpt>
      <trkpt lat="45.78388" lon="6.72565">
        <ele>1641</ele>
        <time>2026-08-14T08:39:15.540Z</time>
      </trkpt>
      <trkpt lat="45.78387" lon="6.72565">
        <ele>1641</ele>
        <time>2026-08-14T08:39:16.540Z</time>
      </trkpt>
      <trkpt lat="45.78386" lon="6.72564">
        <ele>1640</ele>
        <time>2026-08-14T08:39:17.540Z</time>
      </trkpt>
      <trkpt lat="45.78386" lon="6.72563">
        <ele>1640</ele>
        <time>2026-08-14T08:39:18.540Z</time>
      </trkpt>
      <trkpt lat="45.78386" lon="6.72562">
        <ele>1640</ele>
        <time>2026-08-14T08:39:19.540Z</time>
      </trkpt>
      <trkpt lat="45.78386" lon="6.72561">
        <ele>1639</ele>
        <time>2026-08-14T08:39:20.540Z</time>
      </trkpt>
      <trkpt lat="45.78386" lon="6.72561">
        <ele>1638</ele>
        <time>2026-08-14T08:39:21.540Z</time>
      </trkpt>
      <trkpt lat="45.78385" lon="6.7256">
        <ele>1637</ele>
        <time>2026-08-14T08:39:22.540Z</time>
      </trkpt>
      <trkpt lat="45.78385" lon="6.7256">
        <ele>1637</ele>
        <time>2026-08-14T08:39:23.540Z</time>
      </trkpt>
      <trkpt lat="45.78385" lon="6.7256">
        <ele>1637</ele>
        <time>2026-08-14T08:39:24.540Z</time>
      </trkpt>
      <trkpt lat="45.78384" lon="6.72559">
        <ele>1637</ele>
        <time>2026-08-14T08:39:25.540Z</time>
      </trkpt>
      <trkpt lat="45.78384" lon="6.72559">
        <ele>1637</ele>
        <time>2026-08-14T08:39:26.540Z</time>
      </trkpt>
      <trkpt lat="45.78383" lon="6.7256">
        <ele>1637</ele>
        <time>2026-08-14T08:39:27.540Z</time>
      </trkpt>
      <trkpt lat="45.78382" lon="6.7256">
        <ele>1637</ele>
        <time>2026-08-14T08:39:28.540Z</time>
      </trkpt>
      <trkpt lat="45.78382" lon="6.72561">
        <ele>1637</ele>
        <time>2026-08-14T08:39:29.540Z</time>
      </trkpt>
      <trkpt lat="45.78381" lon="6.72561">
        <ele>1637</ele>
        <time>2026-08-14T08:39:30.540Z</time>
      </trkpt>
      <trkpt lat="45.7838" lon="6.72562">
        <ele>1637</ele>
        <time>2026-08-14T08:39:31.540Z</time>
      </trkpt>
      <trkpt lat="45.78379" lon="6.72562">
        <ele>1637</ele>
        <time>2026-08-14T08:39:32.540Z</time>
      </trkpt>
      <trkpt lat="45.78379" lon="6.72562">
        <ele>1637</ele>
        <time>2026-08-14T08:39:33.540Z</time>
      </trkpt>
      <trkpt lat="45.78378" lon="6.72561">
        <ele>1637</ele>
        <time>2026-08-14T08:39:34.540Z</time>
      </trkpt>
      <trkpt lat="45.78378" lon="6.7256">
        <ele>1637</ele>
        <time>2026-08-14T08:39:35.540Z</time>
      </trkpt>
      <trkpt lat="45.78378" lon="6.72559">
        <ele>1636</ele>
        <time>2026-08-14T08:39:36.540Z</time>
      </trkpt>
      <trkpt lat="45.78377" lon="6.72558">
        <ele>1636</ele>
        <time>2026-08-14T08:39:37.540Z</time>
      </trkpt>
      <trkpt lat="45.78377" lon="6.72557">
        <ele>1636</ele>
        <time>2026-08-14T08:39:38.540Z</time>
      </trkpt>
      <trkpt lat="45.78376" lon="6.72557">
        <ele>1636</ele>
        <time>2026-08-14T08:39:39.540Z</time>
      </trkpt>
      <trkpt lat="45.78376" lon="6.72557">
        <ele>1636</ele>
        <time>2026-08-14T08:39:40.540Z</time>
      </trkpt>
      <trkpt lat="45.78375" lon="6.72557">
        <ele>1636</ele>
        <time>2026-08-14T08:39:41.540Z</time>
      </trkpt>
      <trkpt lat="45.78374" lon="6.72557">
        <ele>1636</ele>
        <time>2026-08-14T08:39:42.540Z</time>
      </trkpt>
      <trkpt lat="45.78373" lon="6.72557">
        <ele>1636</ele>
        <time>2026-08-14T08:39:43.540Z</time>
      </trkpt>
      <trkpt lat="45.78371" lon="6.72557">
        <ele>1636</ele>
        <time>2026-08-14T08:39:44.540Z</time>
      </trkpt>
      <trkpt lat="45.7837" lon="6.72558">
        <ele>1635</ele>
        <time>2026-08-14T08:39:45.540Z</time>
      </trkpt>
      <trkpt lat="45.78369" lon="6.72558">
        <ele>1635</ele>
        <time>2026-08-14T08:39:46.540Z</time>
      </trkpt>
      <trkpt lat="45.78369" lon="6.72559">
        <ele>1635</ele>
        <time>2026-08-14T08:39:47.540Z</time>
      </trkpt>
      <trkpt lat="45.78369" lon="6.72559">
        <ele>1634</ele>
        <time>2026-08-14T08:39:48.540Z</time>
      </trkpt>
      <trkpt lat="45.78369" lon="6.72559">
        <ele>1634</ele>
        <time>2026-08-14T08:39:49.540Z</time>
      </trkpt>
      <trkpt lat="45.7837" lon="6.7256">
        <ele>1633</ele>
        <time>2026-08-14T08:39:50.540Z</time>
      </trkpt>
      <trkpt lat="45.7837" lon="6.72562">
        <ele>1632</ele>
        <time>2026-08-14T08:39:51.540Z</time>
      </trkpt>
      <trkpt lat="45.7837" lon="6.72562">
        <ele>1631</ele>
        <time>2026-08-14T08:39:52.540Z</time>
      </trkpt>
      <trkpt lat="45.78369" lon="6.72563">
        <ele>1630</ele>
        <time>2026-08-14T08:39:53.540Z</time>
      </trkpt>
      <trkpt lat="45.78369" lon="6.72564">
        <ele>1629</ele>
        <time>2026-08-14T08:39:54.540Z</time>
      </trkpt>
      <trkpt lat="45.78368" lon="6.72564">
        <ele>1628</ele>
        <time>2026-08-14T08:39:55.540Z</time>
      </trkpt>
      <trkpt lat="45.78368" lon="6.72564">
        <ele>1628</ele>
        <time>2026-08-14T08:39:56.540Z</time>
      </trkpt>
      <trkpt lat="45.78367" lon="6.72565">
        <ele>1627</ele>
        <time>2026-08-14T08:39:57.540Z</time>
      </trkpt>
      <trkpt lat="45.78366" lon="6.72565">
        <ele>1627</ele>
        <time>2026-08-14T08:39:58.540Z</time>
      </trkpt>
      <trkpt lat="45.78365" lon="6.72564">
        <ele>1626</ele>
        <time>2026-08-14T08:39:59.540Z</time>
      </trkpt>
      <trkpt lat="45.78364" lon="6.72564">
        <ele>1625</ele>
        <time>2026-08-14T08:40:00.540Z</time>
      </trkpt>
      <trkpt lat="45.78364" lon="6.72564">
        <ele>1625</ele>
        <time>2026-08-14T08:40:01.540Z</time>
      </trkpt>
      <trkpt lat="45.78363" lon="6.72564">
        <ele>1624</ele>
        <time>2026-08-14T08:40:02.540Z</time>
      </trkpt>
      <trkpt lat="45.78363" lon="6.72564">
        <ele>1624</ele>
        <time>2026-08-14T08:40:03.540Z</time>
      </trkpt>
      <trkpt lat="45.78363" lon="6.72563">
        <ele>1624</ele>
        <time>2026-08-14T08:40:04.540Z</time>
      </trkpt>
      <trkpt lat="45.78363" lon="6.72562">
        <ele>1624</ele>
        <time>2026-08-14T08:40:05.540Z</time>
      </trkpt>
      <trkpt lat="45.78363" lon="6.72561">
        <ele>1624</ele>
        <time>2026-08-14T08:40:06.540Z</time>
      </trkpt>
      <trkpt lat="45.78362" lon="6.72561">
        <ele>1624</ele>
        <time>2026-08-14T08:40:07.540Z</time>
      </trkpt>
      <trkpt lat="45.78362" lon="6.72561">
        <ele>1624</ele>
        <time>2026-08-14T08:40:08.540Z</time>
      </trkpt>
      <trkpt lat="45.78361" lon="6.72561">
        <ele>1624</ele>
        <time>2026-08-14T08:40:09.540Z</time>
      </trkpt>
      <trkpt lat="45.78361" lon="6.72562">
        <ele>1624</ele>
        <time>2026-08-14T08:40:10.540Z</time>
      </trkpt>
      <trkpt lat="45.7836" lon="6.72562">
        <ele>1624</ele>
        <time>2026-08-14T08:40:11.540Z</time>
      </trkpt>
      <trkpt lat="45.78359" lon="6.72563">
        <ele>1623</ele>
        <time>2026-08-14T08:40:12.540Z</time>
      </trkpt>
      <trkpt lat="45.78358" lon="6.72563">
        <ele>1623</ele>
        <time>2026-08-14T08:40:13.540Z</time>
      </trkpt>
      <trkpt lat="45.78356" lon="6.72562">
        <ele>1623</ele>
        <time>2026-08-14T08:40:14.540Z</time>
      </trkpt>
      <trkpt lat="45.78355" lon="6.72562">
        <ele>1622</ele>
        <time>2026-08-14T08:40:15.540Z</time>
      </trkpt>
      <trkpt lat="45.78354" lon="6.72561">
        <ele>1622</ele>
        <time>2026-08-14T08:40:16.540Z</time>
      </trkpt>
      <trkpt lat="45.78353" lon="6.7256">
        <ele>1622</ele>
        <time>2026-08-14T08:40:17.540Z</time>
      </trkpt>
      <trkpt lat="45.78352" lon="6.72559">
        <ele>1622</ele>
        <time>2026-08-14T08:40:18.540Z</time>
      </trkpt>
      <trkpt lat="45.78351" lon="6.72558">
        <ele>1622</ele>
        <time>2026-08-14T08:40:19.540Z</time>
      </trkpt>
      <trkpt lat="45.7835" lon="6.72558">
        <ele>1622</ele>
        <time>2026-08-14T08:40:20.540Z</time>
      </trkpt>
      <trkpt lat="45.78349" lon="6.72558">
        <ele>1622</ele>
        <time>2026-08-14T08:40:21.540Z</time>
      </trkpt>
      <trkpt lat="45.78349" lon="6.72559">
        <ele>1622</ele>
        <time>2026-08-14T08:40:22.540Z</time>
      </trkpt>
      <trkpt lat="45.7835" lon="6.7256">
        <ele>1622</ele>
        <time>2026-08-14T08:40:23.540Z</time>
      </trkpt>
      <trkpt lat="45.78349" lon="6.7256">
        <ele>1622</ele>
        <time>2026-08-14T08:40:24.540Z</time>
      </trkpt>
      <trkpt lat="45.78349" lon="6.72561">
        <ele>1621</ele>
        <time>2026-08-14T08:40:25.540Z</time>
      </trkpt>
      <trkpt lat="45.78349" lon="6.72562">
        <ele>1621</ele>
        <time>2026-08-14T08:40:26.540Z</time>
      </trkpt>
      <trkpt lat="45.78348" lon="6.72563">
        <ele>1620</ele>
        <time>2026-08-14T08:40:27.540Z</time>
      </trkpt>
      <trkpt lat="45.78348" lon="6.72565">
        <ele>1620</ele>
        <time>2026-08-14T08:40:28.540Z</time>
      </trkpt>
      <trkpt lat="45.78347" lon="6.72565">
        <ele>1619</ele>
        <time>2026-08-14T08:40:29.540Z</time>
      </trkpt>
      <trkpt lat="45.78346" lon="6.72565">
        <ele>1619</ele>
        <time>2026-08-14T08:40:30.540Z</time>
      </trkpt>
      <trkpt lat="45.78345" lon="6.72565">
        <ele>1619</ele>
        <time>2026-08-14T08:40:31.540Z</time>
      </trkpt>
      <trkpt lat="45.78344" lon="6.72564">
        <ele>1619</ele>
        <time>2026-08-14T08:40:32.540Z</time>
      </trkpt>
      <trkpt lat="45.78343" lon="6.72563">
        <ele>1619</ele>
        <time>2026-08-14T08:40:33.540Z</time>
      </trkpt>
      <trkpt lat="45.78342" lon="6.72563">
        <ele>1619</ele>
        <time>2026-08-14T08:40:34.540Z</time>
      </trkpt>
      <trkpt lat="45.78341" lon="6.72563">
        <ele>1619</ele>
        <time>2026-08-14T08:40:35.540Z</time>
      </trkpt>
      <trkpt lat="45.78339" lon="6.72562">
        <ele>1620</ele>
        <time>2026-08-14T08:40:36.540Z</time>
      </trkpt>
      <trkpt lat="45.78338" lon="6.7256">
        <ele>1620</ele>
        <time>2026-08-14T08:40:37.540Z</time>
      </trkpt>
      <trkpt lat="45.78338" lon="6.72559">
        <ele>1621</ele>
        <time>2026-08-14T08:40:38.540Z</time>
      </trkpt>
      <trkpt lat="45.78338" lon="6.72558">
        <ele>1621</ele>
        <time>2026-08-14T08:40:39.540Z</time>
      </trkpt>
      <trkpt lat="45.78338" lon="6.72558">
        <ele>1621</ele>
        <time>2026-08-14T08:40:40.540Z</time>
      </trkpt>
      <trkpt lat="45.78337" lon="6.72558">
        <ele>1621</ele>
        <time>2026-08-14T08:40:41.540Z</time>
      </trkpt>
      <trkpt lat="45.78337" lon="6.72558">
        <ele>1621</ele>
        <time>2026-08-14T08:40:42.540Z</time>
      </trkpt>
      <trkpt lat="45.78337" lon="6.72559">
        <ele>1621</ele>
        <time>2026-08-14T08:40:43.540Z</time>
      </trkpt>
      <trkpt lat="45.78336" lon="6.72558">
        <ele>1621</ele>
        <time>2026-08-14T08:40:44.540Z</time>
      </trkpt>
      <trkpt lat="45.78335" lon="6.72559">
        <ele>1620</ele>
        <time>2026-08-14T08:40:45.540Z</time>
      </trkpt>
      <trkpt lat="45.78333" lon="6.7256">
        <ele>1620</ele>
        <time>2026-08-14T08:40:46.540Z</time>
      </trkpt>
      <trkpt lat="45.78331" lon="6.7256">
        <ele>1620</ele>
        <time>2026-08-14T08:40:47.540Z</time>
      </trkpt>
      <trkpt lat="45.78329" lon="6.7256">
        <ele>1619</ele>
        <time>2026-08-14T08:40:48.540Z</time>
      </trkpt>
      <trkpt lat="45.78328" lon="6.72559">
        <ele>1619</ele>
        <time>2026-08-14T08:40:49.540Z</time>
      </trkpt>
      <trkpt lat="45.78326" lon="6.72558">
        <ele>1618</ele>
        <time>2026-08-14T08:40:50.540Z</time>
      </trkpt>
      <trkpt lat="45.78324" lon="6.72557">
        <ele>1618</ele>
        <time>2026-08-14T08:40:51.540Z</time>
      </trkpt>
      <trkpt lat="45.78323" lon="6.72557">
        <ele>1618</ele>
        <time>2026-08-14T08:40:52.540Z</time>
      </trkpt>
      <trkpt lat="45.78322" lon="6.72557">
        <ele>1618</ele>
        <time>2026-08-14T08:40:53.540Z</time>
      </trkpt>
      <trkpt lat="45.78321" lon="6.72557">
        <ele>1617</ele>
        <time>2026-08-14T08:40:54.540Z</time>
      </trkpt>
      <trkpt lat="45.78319" lon="6.72558">
        <ele>1617</ele>
        <time>2026-08-14T08:40:55.540Z</time>
      </trkpt>
      <trkpt lat="45.78318" lon="6.72557">
        <ele>1617</ele>
        <time>2026-08-14T08:40:56.540Z</time>
      </trkpt>
      <trkpt lat="45.78317" lon="6.72557">
        <ele>1616</ele>
        <time>2026-08-14T08:40:57.540Z</time>
      </trkpt>
      <trkpt lat="45.78315" lon="6.72557">
        <ele>1616</ele>
        <time>2026-08-14T08:40:58.540Z</time>
      </trkpt>
      <trkpt lat="45.78314" lon="6.72556">
        <ele>1616</ele>
        <time>2026-08-14T08:40:59.540Z</time>
      </trkpt>
      <trkpt lat="45.78312" lon="6.72555">
        <ele>1616</ele>
        <time>2026-08-14T08:41:00.540Z</time>
      </trkpt>
      <trkpt lat="45.78311" lon="6.72554">
        <ele>1616</ele>
        <time>2026-08-14T08:41:01.540Z</time>
      </trkpt>
      <trkpt lat="45.78309" lon="6.72553">
        <ele>1616</ele>
        <time>2026-08-14T08:41:02.540Z</time>
      </trkpt>
      <trkpt lat="45.78308" lon="6.72552">
        <ele>1616</ele>
        <time>2026-08-14T08:41:03.540Z</time>
      </trkpt>
      <trkpt lat="45.78307" lon="6.7255">
        <ele>1615</ele>
        <time>2026-08-14T08:41:04.540Z</time>
      </trkpt>
      <trkpt lat="45.78305" lon="6.72547">
        <ele>1615</ele>
        <time>2026-08-14T08:41:05.540Z</time>
      </trkpt>
      <trkpt lat="45.78304" lon="6.72546">
        <ele>1615</ele>
        <time>2026-08-14T08:41:06.540Z</time>
      </trkpt>
      <trkpt lat="45.78303" lon="6.72545">
        <ele>1615</ele>
        <time>2026-08-14T08:41:07.540Z</time>
      </trkpt>
      <trkpt lat="45.78302" lon="6.72544">
        <ele>1615</ele>
        <time>2026-08-14T08:41:08.540Z</time>
      </trkpt>
      <trkpt lat="45.78301" lon="6.72543">
        <ele>1615</ele>
        <time>2026-08-14T08:41:09.540Z</time>
      </trkpt>
      <trkpt lat="45.783" lon="6.72544">
        <ele>1614</ele>
        <time>2026-08-14T08:41:10.540Z</time>
      </trkpt>
      <trkpt lat="45.78299" lon="6.72545">
        <ele>1614</ele>
        <time>2026-08-14T08:41:11.540Z</time>
      </trkpt>
      <trkpt lat="45.78298" lon="6.72545">
        <ele>1614</ele>
        <time>2026-08-14T08:41:12.540Z</time>
      </trkpt>
      <trkpt lat="45.78297" lon="6.72546">
        <ele>1614</ele>
        <time>2026-08-14T08:41:13.540Z</time>
      </trkpt>
      <trkpt lat="45.78296" lon="6.72546">
        <ele>1614</ele>
        <time>2026-08-14T08:41:14.540Z</time>
      </trkpt>
      <trkpt lat="45.78294" lon="6.72545">
        <ele>1614</ele>
        <time>2026-08-14T08:41:15.540Z</time>
      </trkpt>
      <trkpt lat="45.78292" lon="6.72543">
        <ele>1614</ele>
        <time>2026-08-14T08:41:16.540Z</time>
      </trkpt>
      <trkpt lat="45.78291" lon="6.72542">
        <ele>1614</ele>
        <time>2026-08-14T08:41:17.540Z</time>
      </trkpt>
      <trkpt lat="45.78289" lon="6.72541">
        <ele>1614</ele>
        <time>2026-08-14T08:41:18.540Z</time>
      </trkpt>
      <trkpt lat="45.78287" lon="6.7254">
        <ele>1613</ele>
        <time>2026-08-14T08:41:19.540Z</time>
      </trkpt>
      <trkpt lat="45.78285" lon="6.72539">
        <ele>1613</ele>
        <time>2026-08-14T08:41:20.540Z</time>
      </trkpt>
      <trkpt lat="45.78283" lon="6.72537">
        <ele>1613</ele>
        <time>2026-08-14T08:41:21.540Z</time>
      </trkpt>
      <trkpt lat="45.78282" lon="6.72536">
        <ele>1613</ele>
        <time>2026-08-14T08:41:22.540Z</time>
      </trkpt>
      <trkpt lat="45.7828" lon="6.72535">
        <ele>1612</ele>
        <time>2026-08-14T08:41:23.540Z</time>
      </trkpt>
      <trkpt lat="45.78278" lon="6.72532">
        <ele>1612</ele>
        <time>2026-08-14T08:41:24.540Z</time>
      </trkpt>
      <trkpt lat="45.78278" lon="6.72529">
        <ele>1612</ele>
        <time>2026-08-14T08:41:25.540Z</time>
      </trkpt>
      <trkpt lat="45.78278" lon="6.72527">
        <ele>1611</ele>
        <time>2026-08-14T08:41:26.540Z</time>
      </trkpt>
      <trkpt lat="45.78277" lon="6.72525">
        <ele>1611</ele>
        <time>2026-08-14T08:41:27.540Z</time>
      </trkpt>
      <trkpt lat="45.78276" lon="6.72524">
        <ele>1610</ele>
        <time>2026-08-14T08:41:28.540Z</time>
      </trkpt>
      <trkpt lat="45.78276" lon="6.72523">
        <ele>1610</ele>
        <time>2026-08-14T08:41:29.540Z</time>
      </trkpt>
      <trkpt lat="45.78276" lon="6.72522">
        <ele>1610</ele>
        <time>2026-08-14T08:41:30.540Z</time>
      </trkpt>
      <trkpt lat="45.78276" lon="6.7252">
        <ele>1609</ele>
        <time>2026-08-14T08:41:31.540Z</time>
      </trkpt>
      <trkpt lat="45.78277" lon="6.72519">
        <ele>1609</ele>
        <time>2026-08-14T08:41:32.540Z</time>
      </trkpt>
      <trkpt lat="45.78277" lon="6.72517">
        <ele>1608</ele>
        <time>2026-08-14T08:41:33.540Z</time>
      </trkpt>
      <trkpt lat="45.78278" lon="6.72517">
        <ele>1607</ele>
        <time>2026-08-14T08:41:34.540Z</time>
      </trkpt>
      <trkpt lat="45.78278" lon="6.72516">
        <ele>1607</ele>
        <time>2026-08-14T08:41:35.540Z</time>
      </trkpt>
      <trkpt lat="45.78278" lon="6.72516">
        <ele>1606</ele>
        <time>2026-08-14T08:41:36.540Z</time>
      </trkpt>
      <trkpt lat="45.78278" lon="6.72515">
        <ele>1606</ele>
        <time>2026-08-14T08:41:37.540Z</time>
      </trkpt>
      <trkpt lat="45.78278" lon="6.72515">
        <ele>1605</ele>
        <time>2026-08-14T08:41:38.540Z</time>
      </trkpt>
      <trkpt lat="45.78277" lon="6.72514">
        <ele>1605</ele>
        <time>2026-08-14T08:41:39.540Z</time>
      </trkpt>
      <trkpt lat="45.78277" lon="6.72513">
        <ele>1605</ele>
        <time>2026-08-14T08:41:40.540Z</time>
      </trkpt>
      <trkpt lat="45.78277" lon="6.72513">
        <ele>1605</ele>
        <time>2026-08-14T08:41:41.540Z</time>
      </trkpt>
      <trkpt lat="45.78277" lon="6.72512">
        <ele>1605</ele>
        <time>2026-08-14T08:41:42.540Z</time>
      </trkpt>
      <trkpt lat="45.78278" lon="6.72512">
        <ele>1604</ele>
        <time>2026-08-14T08:41:43.540Z</time>
      </trkpt>
      <trkpt lat="45.78278" lon="6.72512">
        <ele>1603</ele>
        <time>2026-08-14T08:41:44.540Z</time>
      </trkpt>
      <trkpt lat="45.7828" lon="6.72512">
        <ele>1602</ele>
        <time>2026-08-14T08:41:45.540Z</time>
      </trkpt>
      <trkpt lat="45.78281" lon="6.72512">
        <ele>1601</ele>
        <time>2026-08-14T08:41:46.540Z</time>
      </trkpt>
      <trkpt lat="45.78282" lon="6.72512">
        <ele>1601</ele>
        <time>2026-08-14T08:41:47.540Z</time>
      </trkpt>
      <trkpt lat="45.78283" lon="6.72511">
        <ele>1601</ele>
        <time>2026-08-14T08:41:48.540Z</time>
      </trkpt>
      <trkpt lat="45.78284" lon="6.7251">
        <ele>1600</ele>
        <time>2026-08-14T08:41:49.540Z</time>
      </trkpt>
      <trkpt lat="45.78284" lon="6.72509">
        <ele>1600</ele>
        <time>2026-08-14T08:41:50.540Z</time>
      </trkpt>
      <trkpt lat="45.78285" lon="6.72508">
        <ele>1600</ele>
        <time>2026-08-14T08:41:51.540Z</time>
      </trkpt>
      <trkpt lat="45.78285" lon="6.72506">
        <ele>1600</ele>
        <time>2026-08-14T08:41:52.540Z</time>
      </trkpt>
      <trkpt lat="45.78285" lon="6.72505">
        <ele>1599</ele>
        <time>2026-08-14T08:41:53.540Z</time>
      </trkpt>
      <trkpt lat="45.78285" lon="6.72504">
        <ele>1598</ele>
        <time>2026-08-14T08:41:54.540Z</time>
      </trkpt>
      <trkpt lat="45.78285" lon="6.72503">
        <ele>1597</ele>
        <time>2026-08-14T08:41:55.540Z</time>
      </trkpt>
      <trkpt lat="45.78284" lon="6.72502">
        <ele>1596</ele>
        <time>2026-08-14T08:41:56.540Z</time>
      </trkpt>
      <trkpt lat="45.78283" lon="6.72501">
        <ele>1596</ele>
        <time>2026-08-14T08:41:57.540Z</time>
      </trkpt>
      <trkpt lat="45.78282" lon="6.725">
        <ele>1595</ele>
        <time>2026-08-14T08:41:58.540Z</time>
      </trkpt>
      <trkpt lat="45.78281" lon="6.725">
        <ele>1595</ele>
        <time>2026-08-14T08:41:59.540Z</time>
      </trkpt>
      <trkpt lat="45.78279" lon="6.725">
        <ele>1595</ele>
        <time>2026-08-14T08:42:00.540Z</time>
      </trkpt>
      <trkpt lat="45.78278" lon="6.72499">
        <ele>1595</ele>
        <time>2026-08-14T08:42:01.540Z</time>
      </trkpt>
      <trkpt lat="45.78277" lon="6.72498">
        <ele>1595</ele>
        <time>2026-08-14T08:42:02.540Z</time>
      </trkpt>
      <trkpt lat="45.78277" lon="6.72498">
        <ele>1595</ele>
        <time>2026-08-14T08:42:03.540Z</time>
      </trkpt>
      <trkpt lat="45.78275" lon="6.72497">
        <ele>1595</ele>
        <time>2026-08-14T08:42:04.540Z</time>
      </trkpt>
      <trkpt lat="45.78274" lon="6.72496">
        <ele>1595</ele>
        <time>2026-08-14T08:42:05.540Z</time>
      </trkpt>
      <trkpt lat="45.78274" lon="6.72495">
        <ele>1595</ele>
        <time>2026-08-14T08:42:06.540Z</time>
      </trkpt>
      <trkpt lat="45.78273" lon="6.72495">
        <ele>1595</ele>
        <time>2026-08-14T08:42:07.540Z</time>
      </trkpt>
      <trkpt lat="45.78273" lon="6.72494">
        <ele>1595</ele>
        <time>2026-08-14T08:42:08.540Z</time>
      </trkpt>
      <trkpt lat="45.78273" lon="6.72493">
        <ele>1594</ele>
        <time>2026-08-14T08:42:09.540Z</time>
      </trkpt>
      <trkpt lat="45.78273" lon="6.72492">
        <ele>1594</ele>
        <time>2026-08-14T08:42:10.540Z</time>
      </trkpt>
      <trkpt lat="45.78273" lon="6.72491">
        <ele>1594</ele>
        <time>2026-08-14T08:42:11.540Z</time>
      </trkpt>
      <trkpt lat="45.78273" lon="6.7249">
        <ele>1594</ele>
        <time>2026-08-14T08:42:12.540Z</time>
      </trkpt>
      <trkpt lat="45.78272" lon="6.72489">
        <ele>1595</ele>
        <time>2026-08-14T08:42:13.540Z</time>
      </trkpt>
      <trkpt lat="45.78272" lon="6.72488">
        <ele>1595</ele>
        <time>2026-08-14T08:42:14.540Z</time>
      </trkpt>
      <trkpt lat="45.78271" lon="6.72487">
        <ele>1595</ele>
        <time>2026-08-14T08:42:15.540Z</time>
      </trkpt>
      <trkpt lat="45.7827" lon="6.72486">
        <ele>1595</ele>
        <time>2026-08-14T08:42:16.540Z</time>
      </trkpt>
      <trkpt lat="45.7827" lon="6.72485">
        <ele>1596</ele>
        <time>2026-08-14T08:42:17.540Z</time>
      </trkpt>
      <trkpt lat="45.78269" lon="6.72485">
        <ele>1596</ele>
        <time>2026-08-14T08:42:18.540Z</time>
      </trkpt>
      <trkpt lat="45.78269" lon="6.72485">
        <ele>1596</ele>
        <time>2026-08-14T08:42:19.540Z</time>
      </trkpt>
      <trkpt lat="45.78268" lon="6.72485">
        <ele>1596</ele>
        <time>2026-08-14T08:42:20.540Z</time>
      </trkpt>
      <trkpt lat="45.78267" lon="6.72485">
        <ele>1595</ele>
        <time>2026-08-14T08:42:21.540Z</time>
      </trkpt>
      <trkpt lat="45.78266" lon="6.72485">
        <ele>1595</ele>
        <time>2026-08-14T08:42:22.540Z</time>
      </trkpt>
      <trkpt lat="45.78265" lon="6.72486">
        <ele>1595</ele>
        <time>2026-08-14T08:42:23.540Z</time>
      </trkpt>
      <trkpt lat="45.78265" lon="6.72485">
        <ele>1595</ele>
        <time>2026-08-14T08:42:24.540Z</time>
      </trkpt>
      <trkpt lat="45.78264" lon="6.72485">
        <ele>1595</ele>
        <time>2026-08-14T08:42:25.540Z</time>
      </trkpt>
      <trkpt lat="45.78263" lon="6.72485">
        <ele>1594</ele>
        <time>2026-08-14T08:42:26.540Z</time>
      </trkpt>
      <trkpt lat="45.78262" lon="6.72485">
        <ele>1594</ele>
        <time>2026-08-14T08:42:27.540Z</time>
      </trkpt>
      <trkpt lat="45.78261" lon="6.72483">
        <ele>1594</ele>
        <time>2026-08-14T08:42:28.540Z</time>
      </trkpt>
      <trkpt lat="45.7826" lon="6.72483">
        <ele>1593</ele>
        <time>2026-08-14T08:42:29.540Z</time>
      </trkpt>
      <trkpt lat="45.78259" lon="6.72483">
        <ele>1593</ele>
        <time>2026-08-14T08:42:30.540Z</time>
      </trkpt>
      <trkpt lat="45.78258" lon="6.72483">
        <ele>1593</ele>
        <time>2026-08-14T08:42:31.540Z</time>
      </trkpt>
      <trkpt lat="45.78257" lon="6.72483">
        <ele>1592</ele>
        <time>2026-08-14T08:42:32.540Z</time>
      </trkpt>
      <trkpt lat="45.78256" lon="6.72482">
        <ele>1592</ele>
        <time>2026-08-14T08:42:33.540Z</time>
      </trkpt>
      <trkpt lat="45.78255" lon="6.72481">
        <ele>1592</ele>
        <time>2026-08-14T08:42:34.540Z</time>
      </trkpt>
      <trkpt lat="45.78254" lon="6.72481">
        <ele>1592</ele>
        <time>2026-08-14T08:42:35.540Z</time>
      </trkpt>
      <trkpt lat="45.78252" lon="6.72479">
        <ele>1591</ele>
        <time>2026-08-14T08:42:36.540Z</time>
      </trkpt>
      <trkpt lat="45.7825" lon="6.72477">
        <ele>1591</ele>
        <time>2026-08-14T08:42:37.540Z</time>
      </trkpt>
      <trkpt lat="45.78249" lon="6.72475">
        <ele>1591</ele>
        <time>2026-08-14T08:42:38.540Z</time>
      </trkpt>
      <trkpt lat="45.78247" lon="6.72474">
        <ele>1591</ele>
        <time>2026-08-14T08:42:39.540Z</time>
      </trkpt>
      <trkpt lat="45.78244" lon="6.72472">
        <ele>1591</ele>
        <time>2026-08-14T08:42:40.540Z</time>
      </trkpt>
      <trkpt lat="45.78243" lon="6.72471">
        <ele>1591</ele>
        <time>2026-08-14T08:42:41.540Z</time>
      </trkpt>
      <trkpt lat="45.78242" lon="6.7247">
        <ele>1591</ele>
        <time>2026-08-14T08:42:42.540Z</time>
      </trkpt>
      <trkpt lat="45.78241" lon="6.72469">
        <ele>1591</ele>
        <time>2026-08-14T08:42:43.540Z</time>
      </trkpt>
      <trkpt lat="45.7824" lon="6.72469">
        <ele>1591</ele>
        <time>2026-08-14T08:42:44.540Z</time>
      </trkpt>
      <trkpt lat="45.78239" lon="6.72469">
        <ele>1591</ele>
        <time>2026-08-14T08:42:45.540Z</time>
      </trkpt>
      <trkpt lat="45.78238" lon="6.72469">
        <ele>1591</ele>
        <time>2026-08-14T08:42:46.540Z</time>
      </trkpt>
      <trkpt lat="45.78236" lon="6.72469">
        <ele>1592</ele>
        <time>2026-08-14T08:42:47.540Z</time>
      </trkpt>
      <trkpt lat="45.78235" lon="6.72468">
        <ele>1592</ele>
        <time>2026-08-14T08:42:48.540Z</time>
      </trkpt>
      <trkpt lat="45.78233" lon="6.72469">
        <ele>1593</ele>
        <time>2026-08-14T08:42:49.540Z</time>
      </trkpt>
      <trkpt lat="45.78232" lon="6.72469">
        <ele>1593</ele>
        <time>2026-08-14T08:42:50.540Z</time>
      </trkpt>
      <trkpt lat="45.78231" lon="6.72468">
        <ele>1593</ele>
        <time>2026-08-14T08:42:51.540Z</time>
      </trkpt>
      <trkpt lat="45.7823" lon="6.72468">
        <ele>1593</ele>
        <time>2026-08-14T08:42:52.540Z</time>
      </trkpt>
      <trkpt lat="45.7823" lon="6.72468">
        <ele>1593</ele>
        <time>2026-08-14T08:42:53.540Z</time>
      </trkpt>
      <trkpt lat="45.78229" lon="6.72468">
        <ele>1593</ele>
        <time>2026-08-14T08:42:54.540Z</time>
      </trkpt>
      <trkpt lat="45.78228" lon="6.72467">
        <ele>1594</ele>
        <time>2026-08-14T08:42:55.540Z</time>
      </trkpt>
      <trkpt lat="45.78227" lon="6.72467">
        <ele>1594</ele>
        <time>2026-08-14T08:42:56.540Z</time>
      </trkpt>
      <trkpt lat="45.78226" lon="6.72467">
        <ele>1594</ele>
        <time>2026-08-14T08:42:57.540Z</time>
      </trkpt>
      <trkpt lat="45.78224" lon="6.72466">
        <ele>1594</ele>
        <time>2026-08-14T08:42:58.540Z</time>
      </trkpt>
      <trkpt lat="45.78223" lon="6.72464">
        <ele>1594</ele>
        <time>2026-08-14T08:42:59.540Z</time>
      </trkpt>
      <trkpt lat="45.78222" lon="6.72463">
        <ele>1594</ele>
        <time>2026-08-14T08:43:00.540Z</time>
      </trkpt>
      <trkpt lat="45.78222" lon="6.72462">
        <ele>1594</ele>
        <time>2026-08-14T08:43:01.540Z</time>
      </trkpt>
      <trkpt lat="45.78221" lon="6.72463">
        <ele>1594</ele>
        <time>2026-08-14T08:43:02.540Z</time>
      </trkpt>
      <trkpt lat="45.7822" lon="6.72463">
        <ele>1593</ele>
        <time>2026-08-14T08:43:03.540Z</time>
      </trkpt>
      <trkpt lat="45.7822" lon="6.72463">
        <ele>1593</ele>
        <time>2026-08-14T08:43:04.540Z</time>
      </trkpt>
      <trkpt lat="45.78219" lon="6.72463">
        <ele>1593</ele>
        <time>2026-08-14T08:43:05.540Z</time>
      </trkpt>
      <trkpt lat="45.78218" lon="6.72462">
        <ele>1593</ele>
        <time>2026-08-14T08:43:06.540Z</time>
      </trkpt>
      <trkpt lat="45.78216" lon="6.72461">
        <ele>1592</ele>
        <time>2026-08-14T08:43:07.540Z</time>
      </trkpt>
      <trkpt lat="45.78216" lon="6.7246">
        <ele>1592</ele>
        <time>2026-08-14T08:43:08.540Z</time>
      </trkpt>
      <trkpt lat="45.78215" lon="6.72459">
        <ele>1591</ele>
        <time>2026-08-14T08:43:09.540Z</time>
      </trkpt>
      <trkpt lat="45.78214" lon="6.72458">
        <ele>1591</ele>
        <time>2026-08-14T08:43:10.540Z</time>
      </trkpt>
      <trkpt lat="45.78213" lon="6.72456">
        <ele>1591</ele>
        <time>2026-08-14T08:43:11.540Z</time>
      </trkpt>
      <trkpt lat="45.78212" lon="6.72453">
        <ele>1590</ele>
        <time>2026-08-14T08:43:12.540Z</time>
      </trkpt>
      <trkpt lat="45.78211" lon="6.72451">
        <ele>1590</ele>
        <time>2026-08-14T08:43:13.540Z</time>
      </trkpt>
      <trkpt lat="45.78209" lon="6.72449">
        <ele>1589</ele>
        <time>2026-08-14T08:43:14.540Z</time>
      </trkpt>
      <trkpt lat="45.78207" lon="6.72446">
        <ele>1589</ele>
        <time>2026-08-14T08:43:15.540Z</time>
      </trkpt>
      <trkpt lat="45.78206" lon="6.72444">
        <ele>1589</ele>
        <time>2026-08-14T08:43:16.540Z</time>
      </trkpt>
      <trkpt lat="45.78205" lon="6.72442">
        <ele>1588</ele>
        <time>2026-08-14T08:43:17.540Z</time>
      </trkpt>
      <trkpt lat="45.78203" lon="6.72441">
        <ele>1588</ele>
        <time>2026-08-14T08:43:18.540Z</time>
      </trkpt>
      <trkpt lat="45.78202" lon="6.72441">
        <ele>1588</ele>
        <time>2026-08-14T08:43:19.540Z</time>
      </trkpt>
      <trkpt lat="45.78201" lon="6.72441">
        <ele>1587</ele>
        <time>2026-08-14T08:43:20.540Z</time>
      </trkpt>
      <trkpt lat="45.782" lon="6.7244">
        <ele>1587</ele>
        <time>2026-08-14T08:43:21.540Z</time>
      </trkpt>
      <trkpt lat="45.78199" lon="6.7244">
        <ele>1587</ele>
        <time>2026-08-14T08:43:22.540Z</time>
      </trkpt>
      <trkpt lat="45.78199" lon="6.7244">
        <ele>1587</ele>
        <time>2026-08-14T08:43:23.540Z</time>
      </trkpt>
      <trkpt lat="45.78198" lon="6.72439">
        <ele>1588</ele>
        <time>2026-08-14T08:43:24.540Z</time>
      </trkpt>
      <trkpt lat="45.78197" lon="6.7244">
        <ele>1588</ele>
        <time>2026-08-14T08:43:25.540Z</time>
      </trkpt>
      <trkpt lat="45.78196" lon="6.72441">
        <ele>1588</ele>
        <time>2026-08-14T08:43:26.540Z</time>
      </trkpt>
      <trkpt lat="45.78195" lon="6.72441">
        <ele>1588</ele>
        <time>2026-08-14T08:43:27.540Z</time>
      </trkpt>
      <trkpt lat="45.78194" lon="6.7244">
        <ele>1589</ele>
        <time>2026-08-14T08:43:28.540Z</time>
      </trkpt>
      <trkpt lat="45.78193" lon="6.72439">
        <ele>1589</ele>
        <time>2026-08-14T08:43:29.540Z</time>
      </trkpt>
      <trkpt lat="45.78192" lon="6.72438">
        <ele>1589</ele>
        <time>2026-08-14T08:43:30.540Z</time>
      </trkpt>
      <trkpt lat="45.78192" lon="6.72437">
        <ele>1590</ele>
        <time>2026-08-14T08:43:31.540Z</time>
      </trkpt>
      <trkpt lat="45.78191" lon="6.72436">
        <ele>1590</ele>
        <time>2026-08-14T08:43:32.540Z</time>
      </trkpt>
      <trkpt lat="45.78191" lon="6.72436">
        <ele>1591</ele>
        <time>2026-08-14T08:43:33.540Z</time>
      </trkpt>
      <trkpt lat="45.7819" lon="6.72435">
        <ele>1591</ele>
        <time>2026-08-14T08:43:34.540Z</time>
      </trkpt>
      <trkpt lat="45.78189" lon="6.72434">
        <ele>1592</ele>
        <time>2026-08-14T08:43:35.540Z</time>
      </trkpt>
      <trkpt lat="45.78187" lon="6.72433">
        <ele>1592</ele>
        <time>2026-08-14T08:43:36.540Z</time>
      </trkpt>
      <trkpt lat="45.78187" lon="6.72434">
        <ele>1592</ele>
        <time>2026-08-14T08:43:37.540Z</time>
      </trkpt>
      <trkpt lat="45.78186" lon="6.72433">
        <ele>1591</ele>
        <time>2026-08-14T08:43:38.540Z</time>
      </trkpt>
      <trkpt lat="45.78185" lon="6.72433">
        <ele>1591</ele>
        <time>2026-08-14T08:43:39.540Z</time>
      </trkpt>
      <trkpt lat="45.78184" lon="6.72433">
        <ele>1591</ele>
        <time>2026-08-14T08:43:40.540Z</time>
      </trkpt>
      <trkpt lat="45.78183" lon="6.72433">
        <ele>1590</ele>
        <time>2026-08-14T08:43:41.540Z</time>
      </trkpt>
      <trkpt lat="45.78183" lon="6.72433">
        <ele>1590</ele>
        <time>2026-08-14T08:43:42.540Z</time>
      </trkpt>
      <trkpt lat="45.78182" lon="6.72432">
        <ele>1589</ele>
        <time>2026-08-14T08:43:43.540Z</time>
      </trkpt>
      <trkpt lat="45.78182" lon="6.72433">
        <ele>1589</ele>
        <time>2026-08-14T08:43:44.540Z</time>
      </trkpt>
      <trkpt lat="45.78182" lon="6.72434">
        <ele>1588</ele>
        <time>2026-08-14T08:43:45.540Z</time>
      </trkpt>
      <trkpt lat="45.78181" lon="6.72434">
        <ele>1588</ele>
        <time>2026-08-14T08:43:46.540Z</time>
      </trkpt>
      <trkpt lat="45.7818" lon="6.72434">
        <ele>1587</ele>
        <time>2026-08-14T08:43:47.540Z</time>
      </trkpt>
      <trkpt lat="45.78179" lon="6.72432">
        <ele>1586</ele>
        <time>2026-08-14T08:43:48.540Z</time>
      </trkpt>
      <trkpt lat="45.78179" lon="6.72429">
        <ele>1586</ele>
        <time>2026-08-14T08:43:49.540Z</time>
      </trkpt>
      <trkpt lat="45.78178" lon="6.72427">
        <ele>1586</ele>
        <time>2026-08-14T08:43:50.540Z</time>
      </trkpt>
      <trkpt lat="45.78177" lon="6.72425">
        <ele>1585</ele>
        <time>2026-08-14T08:43:51.540Z</time>
      </trkpt>
      <trkpt lat="45.78177" lon="6.72423">
        <ele>1585</ele>
        <time>2026-08-14T08:43:52.540Z</time>
      </trkpt>
      <trkpt lat="45.78177" lon="6.72422">
        <ele>1584</ele>
        <time>2026-08-14T08:43:53.540Z</time>
      </trkpt>
      <trkpt lat="45.78177" lon="6.72421">
        <ele>1583</ele>
        <time>2026-08-14T08:43:54.540Z</time>
      </trkpt>
      <trkpt lat="45.78177" lon="6.7242">
        <ele>1583</ele>
        <time>2026-08-14T08:43:55.540Z</time>
      </trkpt>
      <trkpt lat="45.78176" lon="6.72419">
        <ele>1582</ele>
        <time>2026-08-14T08:43:56.540Z</time>
      </trkpt>
      <trkpt lat="45.78175" lon="6.72417">
        <ele>1582</ele>
        <time>2026-08-14T08:43:57.540Z</time>
      </trkpt>
      <trkpt lat="45.78175" lon="6.72415">
        <ele>1581</ele>
        <time>2026-08-14T08:43:58.540Z</time>
      </trkpt>
      <trkpt lat="45.78175" lon="6.72413">
        <ele>1581</ele>
        <time>2026-08-14T08:43:59.540Z</time>
      </trkpt>
      <trkpt lat="45.78175" lon="6.72412">
        <ele>1580</ele>
        <time>2026-08-14T08:44:00.540Z</time>
      </trkpt>
      <trkpt lat="45.78175" lon="6.7241">
        <ele>1579</ele>
        <time>2026-08-14T08:44:01.540Z</time>
      </trkpt>
      <trkpt lat="45.78175" lon="6.7241">
        <ele>1579</ele>
        <time>2026-08-14T08:44:02.540Z</time>
      </trkpt>
      <trkpt lat="45.78175" lon="6.72409">
        <ele>1578</ele>
        <time>2026-08-14T08:44:03.540Z</time>
      </trkpt>
      <trkpt lat="45.78174" lon="6.72408">
        <ele>1578</ele>
        <time>2026-08-14T08:44:04.540Z</time>
      </trkpt>
      <trkpt lat="45.78174" lon="6.72407">
        <ele>1577</ele>
        <time>2026-08-14T08:44:05.540Z</time>
      </trkpt>
      <trkpt lat="45.78173" lon="6.72406">
        <ele>1577</ele>
        <time>2026-08-14T08:44:06.540Z</time>
      </trkpt>
      <trkpt lat="45.78172" lon="6.72406">
        <ele>1577</ele>
        <time>2026-08-14T08:44:07.540Z</time>
      </trkpt>
      <trkpt lat="45.78172" lon="6.72405">
        <ele>1576</ele>
        <time>2026-08-14T08:44:08.540Z</time>
      </trkpt>
      <trkpt lat="45.78171" lon="6.72404">
        <ele>1576</ele>
        <time>2026-08-14T08:44:09.540Z</time>
      </trkpt>
      <trkpt lat="45.7817" lon="6.72403">
        <ele>1576</ele>
        <time>2026-08-14T08:44:10.540Z</time>
      </trkpt>
      <trkpt lat="45.78169" lon="6.72401">
        <ele>1575</ele>
        <time>2026-08-14T08:44:11.540Z</time>
      </trkpt>
      <trkpt lat="45.78169" lon="6.72399">
        <ele>1575</ele>
        <time>2026-08-14T08:44:12.540Z</time>
      </trkpt>
      <trkpt lat="45.78169" lon="6.72398">
        <ele>1574</ele>
        <time>2026-08-14T08:44:13.540Z</time>
      </trkpt>
      <trkpt lat="45.78169" lon="6.72397">
        <ele>1574</ele>
        <time>2026-08-14T08:44:14.540Z</time>
      </trkpt>
      <trkpt lat="45.78169" lon="6.72397">
        <ele>1574</ele>
        <time>2026-08-14T08:44:15.540Z</time>
      </trkpt>
      <trkpt lat="45.78169" lon="6.72396">
        <ele>1573</ele>
        <time>2026-08-14T08:44:16.540Z</time>
      </trkpt>
      <trkpt lat="45.78169" lon="6.72395">
        <ele>1573</ele>
        <time>2026-08-14T08:44:17.540Z</time>
      </trkpt>
      <trkpt lat="45.78169" lon="6.72394">
        <ele>1572</ele>
        <time>2026-08-14T08:44:18.540Z</time>
      </trkpt>
      <trkpt lat="45.78168" lon="6.72394">
        <ele>1572</ele>
        <time>2026-08-14T08:44:19.540Z</time>
      </trkpt>
      <trkpt lat="45.78168" lon="6.72394">
        <ele>1572</ele>
        <time>2026-08-14T08:44:20.540Z</time>
      </trkpt>
      <trkpt lat="45.78168" lon="6.72395">
        <ele>1572</ele>
        <time>2026-08-14T08:44:21.540Z</time>
      </trkpt>
      <trkpt lat="45.78168" lon="6.72395">
        <ele>1572</ele>
        <time>2026-08-14T08:44:22.540Z</time>
      </trkpt>
      <trkpt lat="45.78167" lon="6.72394">
        <ele>1573</ele>
        <time>2026-08-14T08:44:23.540Z</time>
      </trkpt>
      <trkpt lat="45.78166" lon="6.72394">
        <ele>1573</ele>
        <time>2026-08-14T08:44:24.540Z</time>
      </trkpt>
      <trkpt lat="45.78165" lon="6.72394">
        <ele>1573</ele>
        <time>2026-08-14T08:44:25.540Z</time>
      </trkpt>
      <trkpt lat="45.78165" lon="6.72394">
        <ele>1573</ele>
        <time>2026-08-14T08:44:26.540Z</time>
      </trkpt>
      <trkpt lat="45.78164" lon="6.72394">
        <ele>1573</ele>
        <time>2026-08-14T08:44:27.540Z</time>
      </trkpt>
      <trkpt lat="45.78162" lon="6.72393">
        <ele>1573</ele>
        <time>2026-08-14T08:44:28.540Z</time>
      </trkpt>
      <trkpt lat="45.78161" lon="6.72392">
        <ele>1573</ele>
        <time>2026-08-14T08:44:29.540Z</time>
      </trkpt>
      <trkpt lat="45.7816" lon="6.72391">
        <ele>1573</ele>
        <time>2026-08-14T08:44:30.540Z</time>
      </trkpt>
      <trkpt lat="45.78159" lon="6.72391">
        <ele>1573</ele>
        <time>2026-08-14T08:44:31.540Z</time>
      </trkpt>
      <trkpt lat="45.78159" lon="6.72391">
        <ele>1572</ele>
        <time>2026-08-14T08:44:32.540Z</time>
      </trkpt>
      <trkpt lat="45.78158" lon="6.7239">
        <ele>1572</ele>
        <time>2026-08-14T08:44:33.540Z</time>
      </trkpt>
      <trkpt lat="45.78158" lon="6.72389">
        <ele>1572</ele>
        <time>2026-08-14T08:44:34.540Z</time>
      </trkpt>
      <trkpt lat="45.78158" lon="6.72388">
        <ele>1571</ele>
        <time>2026-08-14T08:44:35.540Z</time>
      </trkpt>
      <trkpt lat="45.78157" lon="6.72386">
        <ele>1571</ele>
        <time>2026-08-14T08:44:36.540Z</time>
      </trkpt>
      <trkpt lat="45.78157" lon="6.72385">
        <ele>1571</ele>
        <time>2026-08-14T08:44:37.540Z</time>
      </trkpt>
      <trkpt lat="45.78158" lon="6.72384">
        <ele>1570</ele>
        <time>2026-08-14T08:44:38.540Z</time>
      </trkpt>
      <trkpt lat="45.78158" lon="6.72384">
        <ele>1570</ele>
        <time>2026-08-14T08:44:39.540Z</time>
      </trkpt>
      <trkpt lat="45.78158" lon="6.72383">
        <ele>1570</ele>
        <time>2026-08-14T08:44:40.540Z</time>
      </trkpt>
      <trkpt lat="45.78157" lon="6.72381">
        <ele>1570</ele>
        <time>2026-08-14T08:44:41.540Z</time>
      </trkpt>
      <trkpt lat="45.78157" lon="6.72379">
        <ele>1569</ele>
        <time>2026-08-14T08:44:42.540Z</time>
      </trkpt>
      <trkpt lat="45.78157" lon="6.72377">
        <ele>1569</ele>
        <time>2026-08-14T08:44:43.540Z</time>
      </trkpt>
      <trkpt lat="45.78157" lon="6.72375">
        <ele>1568</ele>
        <time>2026-08-14T08:44:44.540Z</time>
      </trkpt>
      <trkpt lat="45.78157" lon="6.72375">
        <ele>1567</ele>
        <time>2026-08-14T08:44:45.540Z</time>
      </trkpt>
      <trkpt lat="45.78157" lon="6.72374">
        <ele>1567</ele>
        <time>2026-08-14T08:44:46.540Z</time>
      </trkpt>
      <trkpt lat="45.78157" lon="6.72374">
        <ele>1566</ele>
        <time>2026-08-14T08:44:47.540Z</time>
      </trkpt>
      <trkpt lat="45.78157" lon="6.72373">
        <ele>1566</ele>
        <time>2026-08-14T08:44:48.540Z</time>
      </trkpt>
      <trkpt lat="45.78157" lon="6.72373">
        <ele>1566</ele>
        <time>2026-08-14T08:44:49.540Z</time>
      </trkpt>
      <trkpt lat="45.78157" lon="6.72374">
        <ele>1565</ele>
        <time>2026-08-14T08:44:50.540Z</time>
      </trkpt>
      <trkpt lat="45.78157" lon="6.72374">
        <ele>1565</ele>
        <time>2026-08-14T08:44:51.540Z</time>
      </trkpt>
      <trkpt lat="45.78157" lon="6.72375">
        <ele>1565</ele>
        <time>2026-08-14T08:44:52.540Z</time>
      </trkpt>
      <trkpt lat="45.78157" lon="6.72376">
        <ele>1564</ele>
        <time>2026-08-14T08:44:53.540Z</time>
      </trkpt>
      <trkpt lat="45.78157" lon="6.72377">
        <ele>1564</ele>
        <time>2026-08-14T08:44:54.540Z</time>
      </trkpt>
      <trkpt lat="45.78157" lon="6.72378">
        <ele>1563</ele>
        <time>2026-08-14T08:44:55.540Z</time>
      </trkpt>
      <trkpt lat="45.78156" lon="6.72378">
        <ele>1563</ele>
        <time>2026-08-14T08:44:56.540Z</time>
      </trkpt>
      <trkpt lat="45.78155" lon="6.72379">
        <ele>1563</ele>
        <time>2026-08-14T08:44:57.540Z</time>
      </trkpt>
      <trkpt lat="45.78155" lon="6.72379">
        <ele>1562</ele>
        <time>2026-08-14T08:44:58.540Z</time>
      </trkpt>
      <trkpt lat="45.78154" lon="6.72379">
        <ele>1562</ele>
        <time>2026-08-14T08:44:59.540Z</time>
      </trkpt>
      <trkpt lat="45.78154" lon="6.7238">
        <ele>1562</ele>
        <time>2026-08-14T08:45:00.540Z</time>
      </trkpt>
      <trkpt lat="45.78154" lon="6.7238">
        <ele>1562</ele>
        <time>2026-08-14T08:45:01.540Z</time>
      </trkpt>
      <trkpt lat="45.78153" lon="6.7238">
        <ele>1562</ele>
        <time>2026-08-14T08:45:02.540Z</time>
      </trkpt>
      <trkpt lat="45.78153" lon="6.7238">
        <ele>1562</ele>
        <time>2026-08-14T08:45:03.540Z</time>
      </trkpt>
      <trkpt lat="45.78153" lon="6.7238">
        <ele>1561</ele>
        <time>2026-08-14T08:45:04.540Z</time>
      </trkpt>
      <trkpt lat="45.78152" lon="6.7238">
        <ele>1561</ele>
        <time>2026-08-14T08:45:05.540Z</time>
      </trkpt>
      <trkpt lat="45.78151" lon="6.7238">
        <ele>1561</ele>
        <time>2026-08-14T08:45:06.540Z</time>
      </trkpt>
      <trkpt lat="45.7815" lon="6.72379">
        <ele>1561</ele>
        <time>2026-08-14T08:45:07.540Z</time>
      </trkpt>
      <trkpt lat="45.78148" lon="6.72379">
        <ele>1561</ele>
        <time>2026-08-14T08:45:08.540Z</time>
      </trkpt>
      <trkpt lat="45.78146" lon="6.72378">
        <ele>1560</ele>
        <time>2026-08-14T08:45:09.540Z</time>
      </trkpt>
      <trkpt lat="45.78145" lon="6.72378">
        <ele>1560</ele>
        <time>2026-08-14T08:45:10.540Z</time>
      </trkpt>
      <trkpt lat="45.78144" lon="6.72378">
        <ele>1559</ele>
        <time>2026-08-14T08:45:11.540Z</time>
      </trkpt>
      <trkpt lat="45.78143" lon="6.72378">
        <ele>1559</ele>
        <time>2026-08-14T08:45:12.540Z</time>
      </trkpt>
      <trkpt lat="45.78143" lon="6.72378">
        <ele>1559</ele>
        <time>2026-08-14T08:45:13.540Z</time>
      </trkpt>
      <trkpt lat="45.78142" lon="6.72377">
        <ele>1559</ele>
        <time>2026-08-14T08:45:14.540Z</time>
      </trkpt>
      <trkpt lat="45.78141" lon="6.72376">
        <ele>1558</ele>
        <time>2026-08-14T08:45:15.540Z</time>
      </trkpt>
      <trkpt lat="45.7814" lon="6.72376">
        <ele>1558</ele>
        <time>2026-08-14T08:45:16.540Z</time>
      </trkpt>
      <trkpt lat="45.78139" lon="6.72376">
        <ele>1558</ele>
        <time>2026-08-14T08:45:17.540Z</time>
      </trkpt>
      <trkpt lat="45.78138" lon="6.72376">
        <ele>1557</ele>
        <time>2026-08-14T08:45:18.540Z</time>
      </trkpt>
      <trkpt lat="45.78137" lon="6.72375">
        <ele>1557</ele>
        <time>2026-08-14T08:45:19.540Z</time>
      </trkpt>
      <trkpt lat="45.78136" lon="6.72375">
        <ele>1557</ele>
        <time>2026-08-14T08:45:20.540Z</time>
      </trkpt>
      <trkpt lat="45.78135" lon="6.72376">
        <ele>1556</ele>
        <time>2026-08-14T08:45:21.540Z</time>
      </trkpt>
      <trkpt lat="45.78134" lon="6.72376">
        <ele>1556</ele>
        <time>2026-08-14T08:45:22.540Z</time>
      </trkpt>
      <trkpt lat="45.78133" lon="6.72376">
        <ele>1556</ele>
        <time>2026-08-14T08:45:23.540Z</time>
      </trkpt>
      <trkpt lat="45.78132" lon="6.72377">
        <ele>1556</ele>
        <time>2026-08-14T08:45:24.540Z</time>
      </trkpt>
      <trkpt lat="45.78131" lon="6.72377">
        <ele>1556</ele>
        <time>2026-08-14T08:45:25.540Z</time>
      </trkpt>
      <trkpt lat="45.7813" lon="6.72377">
        <ele>1556</ele>
        <time>2026-08-14T08:45:26.540Z</time>
      </trkpt>
      <trkpt lat="45.7813" lon="6.72377">
        <ele>1556</ele>
        <time>2026-08-14T08:45:27.540Z</time>
      </trkpt>
      <trkpt lat="45.78129" lon="6.72378">
        <ele>1555</ele>
        <time>2026-08-14T08:45:28.540Z</time>
      </trkpt>
      <trkpt lat="45.78129" lon="6.72378">
        <ele>1555</ele>
        <time>2026-08-14T08:45:29.540Z</time>
      </trkpt>
      <trkpt lat="45.78128" lon="6.72378">
        <ele>1555</ele>
        <time>2026-08-14T08:45:30.540Z</time>
      </trkpt>
      <trkpt lat="45.78127" lon="6.72378">
        <ele>1555</ele>
        <time>2026-08-14T08:45:31.540Z</time>
      </trkpt>
      <trkpt lat="45.78126" lon="6.72378">
        <ele>1555</ele>
        <time>2026-08-14T08:45:32.540Z</time>
      </trkpt>
      <trkpt lat="45.78124" lon="6.72378">
        <ele>1554</ele>
        <time>2026-08-14T08:45:33.540Z</time>
      </trkpt>
      <trkpt lat="45.78123" lon="6.72377">
        <ele>1554</ele>
        <time>2026-08-14T08:45:34.540Z</time>
      </trkpt>
      <trkpt lat="45.78121" lon="6.72376">
        <ele>1554</ele>
        <time>2026-08-14T08:45:35.540Z</time>
      </trkpt>
      <trkpt lat="45.78119" lon="6.72375">
        <ele>1554</ele>
        <time>2026-08-14T08:45:36.540Z</time>
      </trkpt>
      <trkpt lat="45.78117" lon="6.72374">
        <ele>1554</ele>
        <time>2026-08-14T08:45:37.540Z</time>
      </trkpt>
      <trkpt lat="45.78116" lon="6.72373">
        <ele>1554</ele>
        <time>2026-08-14T08:45:38.540Z</time>
      </trkpt>
      <trkpt lat="45.78115" lon="6.72373">
        <ele>1553</ele>
        <time>2026-08-14T08:45:39.540Z</time>
      </trkpt>
      <trkpt lat="45.78113" lon="6.72374">
        <ele>1553</ele>
        <time>2026-08-14T08:45:40.540Z</time>
      </trkpt>
      <trkpt lat="45.78112" lon="6.72376">
        <ele>1553</ele>
        <time>2026-08-14T08:45:41.540Z</time>
      </trkpt>
      <trkpt lat="45.78111" lon="6.72376">
        <ele>1552</ele>
        <time>2026-08-14T08:45:42.540Z</time>
      </trkpt>
      <trkpt lat="45.78111" lon="6.72376">
        <ele>1552</ele>
        <time>2026-08-14T08:45:43.540Z</time>
      </trkpt>
      <trkpt lat="45.78109" lon="6.72375">
        <ele>1552</ele>
        <time>2026-08-14T08:45:44.540Z</time>
      </trkpt>
      <trkpt lat="45.78108" lon="6.72374">
        <ele>1551</ele>
        <time>2026-08-14T08:45:45.540Z</time>
      </trkpt>
      <trkpt lat="45.78106" lon="6.72375">
        <ele>1551</ele>
        <time>2026-08-14T08:45:46.540Z</time>
      </trkpt>
      <trkpt lat="45.78105" lon="6.72375">
        <ele>1551</ele>
        <time>2026-08-14T08:45:47.540Z</time>
      </trkpt>
      <trkpt lat="45.78103" lon="6.72375">
        <ele>1551</ele>
        <time>2026-08-14T08:45:48.540Z</time>
      </trkpt>
      <trkpt lat="45.78102" lon="6.72377">
        <ele>1550</ele>
        <time>2026-08-14T08:45:49.540Z</time>
      </trkpt>
      <trkpt lat="45.781" lon="6.72377">
        <ele>1550</ele>
        <time>2026-08-14T08:45:50.540Z</time>
      </trkpt>
      <trkpt lat="45.78099" lon="6.72377">
        <ele>1549</ele>
        <time>2026-08-14T08:45:51.540Z</time>
      </trkpt>
      <trkpt lat="45.78098" lon="6.72377">
        <ele>1549</ele>
        <time>2026-08-14T08:45:52.540Z</time>
      </trkpt>
      <trkpt lat="45.78096" lon="6.72376">
        <ele>1548</ele>
        <time>2026-08-14T08:45:53.540Z</time>
      </trkpt>
      <trkpt lat="45.78095" lon="6.72376">
        <ele>1548</ele>
        <time>2026-08-14T08:45:54.540Z</time>
      </trkpt>
      <trkpt lat="45.78094" lon="6.72376">
        <ele>1548</ele>
        <time>2026-08-14T08:45:55.540Z</time>
      </trkpt>
      <trkpt lat="45.78093" lon="6.72376">
        <ele>1548</ele>
        <time>2026-08-14T08:45:56.540Z</time>
      </trkpt>
      <trkpt lat="45.78092" lon="6.72376">
        <ele>1547</ele>
        <time>2026-08-14T08:45:57.540Z</time>
      </trkpt>
      <trkpt lat="45.7809" lon="6.72376">
        <ele>1547</ele>
        <time>2026-08-14T08:45:58.540Z</time>
      </trkpt>
      <trkpt lat="45.78089" lon="6.72375">
        <ele>1547</ele>
        <time>2026-08-14T08:45:59.540Z</time>
      </trkpt>
      <trkpt lat="45.78089" lon="6.72375">
        <ele>1547</ele>
        <time>2026-08-14T08:46:00.540Z</time>
      </trkpt>
      <trkpt lat="45.78088" lon="6.72374">
        <ele>1546</ele>
        <time>2026-08-14T08:46:01.540Z</time>
      </trkpt>
      <trkpt lat="45.78088" lon="6.72373">
        <ele>1546</ele>
        <time>2026-08-14T08:46:02.540Z</time>
      </trkpt>
      <trkpt lat="45.78087" lon="6.72372">
        <ele>1546</ele>
        <time>2026-08-14T08:46:03.540Z</time>
      </trkpt>
      <trkpt lat="45.78086" lon="6.72371">
        <ele>1546</ele>
        <time>2026-08-14T08:46:04.540Z</time>
      </trkpt>
      <trkpt lat="45.78085" lon="6.72371">
        <ele>1546</ele>
        <time>2026-08-14T08:46:05.540Z</time>
      </trkpt>
      <trkpt lat="45.78084" lon="6.7237">
        <ele>1546</ele>
        <time>2026-08-14T08:46:06.540Z</time>
      </trkpt>
      <trkpt lat="45.78084" lon="6.72371">
        <ele>1545</ele>
        <time>2026-08-14T08:46:07.540Z</time>
      </trkpt>
      <trkpt lat="45.78084" lon="6.72371">
        <ele>1545</ele>
        <time>2026-08-14T08:46:08.540Z</time>
      </trkpt>
      <trkpt lat="45.78084" lon="6.72371">
        <ele>1545</ele>
        <time>2026-08-14T08:46:09.540Z</time>
      </trkpt>
      <trkpt lat="45.78083" lon="6.72371">
        <ele>1545</ele>
        <time>2026-08-14T08:46:10.540Z</time>
      </trkpt>
      <trkpt lat="45.78083" lon="6.72372">
        <ele>1545</ele>
        <time>2026-08-14T08:46:11.540Z</time>
      </trkpt>
      <trkpt lat="45.78083" lon="6.72372">
        <ele>1545</ele>
        <time>2026-08-14T08:46:12.540Z</time>
      </trkpt>
      <trkpt lat="45.78083" lon="6.72373">
        <ele>1544</ele>
        <time>2026-08-14T08:46:13.540Z</time>
      </trkpt>
      <trkpt lat="45.78082" lon="6.72373">
        <ele>1544</ele>
        <time>2026-08-14T08:46:14.540Z</time>
      </trkpt>
      <trkpt lat="45.78082" lon="6.72374">
        <ele>1544</ele>
        <time>2026-08-14T08:46:15.540Z</time>
      </trkpt>
      <trkpt lat="45.7808" lon="6.72374">
        <ele>1545</ele>
        <time>2026-08-14T08:46:16.540Z</time>
      </trkpt>
      <trkpt lat="45.78078" lon="6.72373">
        <ele>1545</ele>
        <time>2026-08-14T08:46:17.540Z</time>
      </trkpt>
      <trkpt lat="45.78077" lon="6.72371">
        <ele>1545</ele>
        <time>2026-08-14T08:46:18.540Z</time>
      </trkpt>
      <trkpt lat="45.78077" lon="6.7237">
        <ele>1545</ele>
        <time>2026-08-14T08:46:19.540Z</time>
      </trkpt>
      <trkpt lat="45.78076" lon="6.7237">
        <ele>1545</ele>
        <time>2026-08-14T08:46:20.540Z</time>
      </trkpt>
      <trkpt lat="45.78076" lon="6.72369">
        <ele>1545</ele>
        <time>2026-08-14T08:46:21.540Z</time>
      </trkpt>
      <trkpt lat="45.78076" lon="6.72369">
        <ele>1545</ele>
        <time>2026-08-14T08:46:22.540Z</time>
      </trkpt>
      <trkpt lat="45.78076" lon="6.72368">
        <ele>1545</ele>
        <time>2026-08-14T08:46:23.540Z</time>
      </trkpt>
      <trkpt lat="45.78075" lon="6.72367">
        <ele>1545</ele>
        <time>2026-08-14T08:46:24.540Z</time>
      </trkpt>
      <trkpt lat="45.78075" lon="6.72366">
        <ele>1545</ele>
        <time>2026-08-14T08:46:25.540Z</time>
      </trkpt>
      <trkpt lat="45.78075" lon="6.72366">
        <ele>1545</ele>
        <time>2026-08-14T08:46:26.540Z</time>
      </trkpt>
      <trkpt lat="45.78074" lon="6.72366">
        <ele>1545</ele>
        <time>2026-08-14T08:46:27.540Z</time>
      </trkpt>
      <trkpt lat="45.78073" lon="6.72365">
        <ele>1545</ele>
        <time>2026-08-14T08:46:28.540Z</time>
      </trkpt>
      <trkpt lat="45.78073" lon="6.72365">
        <ele>1545</ele>
        <time>2026-08-14T08:46:29.540Z</time>
      </trkpt>
      <trkpt lat="45.78073" lon="6.72364">
        <ele>1544</ele>
        <time>2026-08-14T08:46:30.540Z</time>
      </trkpt>
      <trkpt lat="45.78072" lon="6.72363">
        <ele>1544</ele>
        <time>2026-08-14T08:46:31.540Z</time>
      </trkpt>
      <trkpt lat="45.7807" lon="6.72363">
        <ele>1544</ele>
        <time>2026-08-14T08:46:32.540Z</time>
      </trkpt>
      <trkpt lat="45.7807" lon="6.72362">
        <ele>1544</ele>
        <time>2026-08-14T08:46:33.540Z</time>
      </trkpt>
      <trkpt lat="45.78069" lon="6.72361">
        <ele>1543</ele>
        <time>2026-08-14T08:46:34.540Z</time>
      </trkpt>
      <trkpt lat="45.78068" lon="6.7236">
        <ele>1543</ele>
        <time>2026-08-14T08:46:35.540Z</time>
      </trkpt>
      <trkpt lat="45.78067" lon="6.72359">
        <ele>1543</ele>
        <time>2026-08-14T08:46:36.540Z</time>
      </trkpt>
      <trkpt lat="45.78066" lon="6.72358">
        <ele>1542</ele>
        <time>2026-08-14T08:46:37.540Z</time>
      </trkpt>
      <trkpt lat="45.78065" lon="6.72358">
        <ele>1542</ele>
        <time>2026-08-14T08:46:38.540Z</time>
      </trkpt>
      <trkpt lat="45.78064" lon="6.72358">
        <ele>1541</ele>
        <time>2026-08-14T08:46:39.540Z</time>
      </trkpt>
      <trkpt lat="45.78063" lon="6.72358">
        <ele>1541</ele>
        <time>2026-08-14T08:46:40.540Z</time>
      </trkpt>
      <trkpt lat="45.78062" lon="6.72357">
        <ele>1541</ele>
        <time>2026-08-14T08:46:41.540Z</time>
      </trkpt>
      <trkpt lat="45.78062" lon="6.72357">
        <ele>1540</ele>
        <time>2026-08-14T08:46:42.540Z</time>
      </trkpt>
      <trkpt lat="45.78061" lon="6.72356">
        <ele>1540</ele>
        <time>2026-08-14T08:46:43.540Z</time>
      </trkpt>
      <trkpt lat="45.78061" lon="6.72355">
        <ele>1539</ele>
        <time>2026-08-14T08:46:44.540Z</time>
      </trkpt>
      <trkpt lat="45.7806" lon="6.72353">
        <ele>1539</ele>
        <time>2026-08-14T08:46:45.540Z</time>
      </trkpt>
      <trkpt lat="45.7806" lon="6.72352">
        <ele>1538</ele>
        <time>2026-08-14T08:46:46.540Z</time>
      </trkpt>
      <trkpt lat="45.78059" lon="6.7235">
        <ele>1538</ele>
        <time>2026-08-14T08:46:47.540Z</time>
      </trkpt>
      <trkpt lat="45.78059" lon="6.72349">
        <ele>1538</ele>
        <time>2026-08-14T08:46:48.540Z</time>
      </trkpt>
      <trkpt lat="45.78058" lon="6.72349">
        <ele>1538</ele>
        <time>2026-08-14T08:46:49.540Z</time>
      </trkpt>
      <trkpt lat="45.78057" lon="6.72348">
        <ele>1538</ele>
        <time>2026-08-14T08:46:50.540Z</time>
      </trkpt>
      <trkpt lat="45.78056" lon="6.72348">
        <ele>1538</ele>
        <time>2026-08-14T08:46:51.540Z</time>
      </trkpt>
      <trkpt lat="45.78055" lon="6.72348">
        <ele>1538</ele>
        <time>2026-08-14T08:46:52.540Z</time>
      </trkpt>
      <trkpt lat="45.78054" lon="6.72347">
        <ele>1537</ele>
        <time>2026-08-14T08:46:53.540Z</time>
      </trkpt>
      <trkpt lat="45.78053" lon="6.72347">
        <ele>1537</ele>
        <time>2026-08-14T08:46:54.540Z</time>
      </trkpt>
      <trkpt lat="45.78052" lon="6.72346">
        <ele>1537</ele>
        <time>2026-08-14T08:46:55.540Z</time>
      </trkpt>
      <trkpt lat="45.7805" lon="6.72345">
        <ele>1537</ele>
        <time>2026-08-14T08:46:56.540Z</time>
      </trkpt>
      <trkpt lat="45.78049" lon="6.72343">
        <ele>1537</ele>
        <time>2026-08-14T08:46:57.540Z</time>
      </trkpt>
      <trkpt lat="45.78048" lon="6.7234">
        <ele>1536</ele>
        <time>2026-08-14T08:46:58.540Z</time>
      </trkpt>
      <trkpt lat="45.78046" lon="6.72338">
        <ele>1536</ele>
        <time>2026-08-14T08:46:59.540Z</time>
      </trkpt>
      <trkpt lat="45.78046" lon="6.72336">
        <ele>1535</ele>
        <time>2026-08-14T08:47:00.540Z</time>
      </trkpt>
      <trkpt lat="45.78045" lon="6.72334">
        <ele>1535</ele>
        <time>2026-08-14T08:47:01.540Z</time>
      </trkpt>
      <trkpt lat="45.78045" lon="6.72333">
        <ele>1534</ele>
        <time>2026-08-14T08:47:02.540Z</time>
      </trkpt>
      <trkpt lat="45.78044" lon="6.72332">
        <ele>1534</ele>
        <time>2026-08-14T08:47:03.540Z</time>
      </trkpt>
      <trkpt lat="45.78043" lon="6.7233">
        <ele>1533</ele>
        <time>2026-08-14T08:47:04.540Z</time>
      </trkpt>
      <trkpt lat="45.78042" lon="6.72329">
        <ele>1533</ele>
        <time>2026-08-14T08:47:05.540Z</time>
      </trkpt>
      <trkpt lat="45.78042" lon="6.72327">
        <ele>1532</ele>
        <time>2026-08-14T08:47:06.540Z</time>
      </trkpt>
      <trkpt lat="45.78042" lon="6.72326">
        <ele>1531</ele>
        <time>2026-08-14T08:47:07.540Z</time>
      </trkpt>
      <trkpt lat="45.78041" lon="6.72324">
        <ele>1531</ele>
        <time>2026-08-14T08:47:08.540Z</time>
      </trkpt>
      <trkpt lat="45.78041" lon="6.72323">
        <ele>1530</ele>
        <time>2026-08-14T08:47:09.540Z</time>
      </trkpt>
      <trkpt lat="45.78041" lon="6.72322">
        <ele>1530</ele>
        <time>2026-08-14T08:47:10.540Z</time>
      </trkpt>
      <trkpt lat="45.7804" lon="6.72321">
        <ele>1529</ele>
        <time>2026-08-14T08:47:11.540Z</time>
      </trkpt>
      <trkpt lat="45.78039" lon="6.7232">
        <ele>1529</ele>
        <time>2026-08-14T08:47:12.540Z</time>
      </trkpt>
      <trkpt lat="45.78039" lon="6.72318">
        <ele>1529</ele>
        <time>2026-08-14T08:47:13.540Z</time>
      </trkpt>
      <trkpt lat="45.78039" lon="6.72316">
        <ele>1528</ele>
        <time>2026-08-14T08:47:14.540Z</time>
      </trkpt>
      <trkpt lat="45.7804" lon="6.72316">
        <ele>1528</ele>
        <time>2026-08-14T08:47:15.540Z</time>
      </trkpt>
      <trkpt lat="45.7804" lon="6.72314">
        <ele>1527</ele>
        <time>2026-08-14T08:47:16.540Z</time>
      </trkpt>
      <trkpt lat="45.7804" lon="6.72313">
        <ele>1527</ele>
        <time>2026-08-14T08:47:17.540Z</time>
      </trkpt>
      <trkpt lat="45.7804" lon="6.72312">
        <ele>1526</ele>
        <time>2026-08-14T08:47:18.540Z</time>
      </trkpt>
      <trkpt lat="45.78041" lon="6.72311">
        <ele>1526</ele>
        <time>2026-08-14T08:47:19.540Z</time>
      </trkpt>
      <trkpt lat="45.78041" lon="6.72311">
        <ele>1525</ele>
        <time>2026-08-14T08:47:20.540Z</time>
      </trkpt>
      <trkpt lat="45.78041" lon="6.7231">
        <ele>1525</ele>
        <time>2026-08-14T08:47:21.540Z</time>
      </trkpt>
      <trkpt lat="45.78041" lon="6.7231">
        <ele>1524</ele>
        <time>2026-08-14T08:47:22.540Z</time>
      </trkpt>
      <trkpt lat="45.78041" lon="6.7231">
        <ele>1524</ele>
        <time>2026-08-14T08:47:23.540Z</time>
      </trkpt>
      <trkpt lat="45.7804" lon="6.7231">
        <ele>1523</ele>
        <time>2026-08-14T08:47:24.540Z</time>
      </trkpt>
      <trkpt lat="45.7804" lon="6.72308">
        <ele>1523</ele>
        <time>2026-08-14T08:47:25.540Z</time>
      </trkpt>
      <trkpt lat="45.7804" lon="6.72307">
        <ele>1522</ele>
        <time>2026-08-14T08:47:26.540Z</time>
      </trkpt>
      <trkpt lat="45.78041" lon="6.72303">
        <ele>1522</ele>
        <time>2026-08-14T08:47:27.540Z</time>
      </trkpt>
      <trkpt lat="45.78041" lon="6.72301">
        <ele>1522</ele>
        <time>2026-08-14T08:47:28.540Z</time>
      </trkpt>
      <trkpt lat="45.78041" lon="6.72298">
        <ele>1522</ele>
        <time>2026-08-14T08:47:29.540Z</time>
      </trkpt>
      <trkpt lat="45.78041" lon="6.72296">
        <ele>1521</ele>
        <time>2026-08-14T08:47:30.540Z</time>
      </trkpt>
      <trkpt lat="45.7804" lon="6.72296">
        <ele>1521</ele>
        <time>2026-08-14T08:47:31.540Z</time>
      </trkpt>
      <trkpt lat="45.78039" lon="6.72293">
        <ele>1521</ele>
        <time>2026-08-14T08:47:32.540Z</time>
      </trkpt>
      <trkpt lat="45.78039" lon="6.72292">
        <ele>1521</ele>
        <time>2026-08-14T08:47:33.540Z</time>
      </trkpt>
      <trkpt lat="45.78039" lon="6.72291">
        <ele>1521</ele>
        <time>2026-08-14T08:47:34.540Z</time>
      </trkpt>
      <trkpt lat="45.7804" lon="6.7229">
        <ele>1520</ele>
        <time>2026-08-14T08:47:35.540Z</time>
      </trkpt>
      <trkpt lat="45.7804" lon="6.72289">
        <ele>1520</ele>
        <time>2026-08-14T08:47:36.540Z</time>
      </trkpt>
      <trkpt lat="45.7804" lon="6.72288">
        <ele>1519</ele>
        <time>2026-08-14T08:47:37.540Z</time>
      </trkpt>
      <trkpt lat="45.7804" lon="6.72288">
        <ele>1519</ele>
        <time>2026-08-14T08:47:38.540Z</time>
      </trkpt>
      <trkpt lat="45.7804" lon="6.72289">
        <ele>1518</ele>
        <time>2026-08-14T08:47:39.540Z</time>
      </trkpt>
      <trkpt lat="45.7804" lon="6.72289">
        <ele>1518</ele>
        <time>2026-08-14T08:47:40.540Z</time>
      </trkpt>
      <trkpt lat="45.78039" lon="6.72289">
        <ele>1517</ele>
        <time>2026-08-14T08:47:41.540Z</time>
      </trkpt>
      <trkpt lat="45.78039" lon="6.72288">
        <ele>1517</ele>
        <time>2026-08-14T08:47:42.540Z</time>
      </trkpt>
      <trkpt lat="45.78038" lon="6.72287">
        <ele>1517</ele>
        <time>2026-08-14T08:47:43.540Z</time>
      </trkpt>
      <trkpt lat="45.78037" lon="6.72287">
        <ele>1516</ele>
        <time>2026-08-14T08:47:44.540Z</time>
      </trkpt>
      <trkpt lat="45.78037" lon="6.72286">
        <ele>1516</ele>
        <time>2026-08-14T08:47:45.540Z</time>
      </trkpt>
      <trkpt lat="45.78036" lon="6.72287">
        <ele>1515</ele>
        <time>2026-08-14T08:47:46.540Z</time>
      </trkpt>
      <trkpt lat="45.78035" lon="6.72287">
        <ele>1515</ele>
        <time>2026-08-14T08:47:47.540Z</time>
      </trkpt>
      <trkpt lat="45.78033" lon="6.72287">
        <ele>1515</ele>
        <time>2026-08-14T08:47:48.540Z</time>
      </trkpt>
      <trkpt lat="45.78032" lon="6.72287">
        <ele>1514</ele>
        <time>2026-08-14T08:47:49.540Z</time>
      </trkpt>
      <trkpt lat="45.78031" lon="6.72288">
        <ele>1514</ele>
        <time>2026-08-14T08:47:50.540Z</time>
      </trkpt>
      <trkpt lat="45.7803" lon="6.72288">
        <ele>1514</ele>
        <time>2026-08-14T08:47:51.540Z</time>
      </trkpt>
      <trkpt lat="45.7803" lon="6.72288">
        <ele>1514</ele>
        <time>2026-08-14T08:47:52.540Z</time>
      </trkpt>
      <trkpt lat="45.78028" lon="6.72289">
        <ele>1514</ele>
        <time>2026-08-14T08:47:53.540Z</time>
      </trkpt>
      <trkpt lat="45.78027" lon="6.72288">
        <ele>1514</ele>
        <time>2026-08-14T08:47:54.540Z</time>
      </trkpt>
      <trkpt lat="45.78026" lon="6.72287">
        <ele>1514</ele>
        <time>2026-08-14T08:47:55.540Z</time>
      </trkpt>
      <trkpt lat="45.78026" lon="6.72286">
        <ele>1514</ele>
        <time>2026-08-14T08:47:56.540Z</time>
      </trkpt>
      <trkpt lat="45.78025" lon="6.72285">
        <ele>1514</ele>
        <time>2026-08-14T08:47:57.540Z</time>
      </trkpt>
      <trkpt lat="45.78025" lon="6.72284">
        <ele>1514</ele>
        <time>2026-08-14T08:47:58.540Z</time>
      </trkpt>
      <trkpt lat="45.78024" lon="6.72282">
        <ele>1514</ele>
        <time>2026-08-14T08:47:59.540Z</time>
      </trkpt>
      <trkpt lat="45.78024" lon="6.72281">
        <ele>1514</ele>
        <time>2026-08-14T08:48:00.540Z</time>
      </trkpt>
      <trkpt lat="45.78023" lon="6.72279">
        <ele>1514</ele>
        <time>2026-08-14T08:48:01.540Z</time>
      </trkpt>
      <trkpt lat="45.78023" lon="6.72278">
        <ele>1513</ele>
        <time>2026-08-14T08:48:02.540Z</time>
      </trkpt>
      <trkpt lat="45.78023" lon="6.72276">
        <ele>1512</ele>
        <time>2026-08-14T08:48:03.540Z</time>
      </trkpt>
      <trkpt lat="45.78024" lon="6.72275">
        <ele>1511</ele>
        <time>2026-08-14T08:48:04.540Z</time>
      </trkpt>
      <trkpt lat="45.78024" lon="6.72273">
        <ele>1510</ele>
        <time>2026-08-14T08:48:05.540Z</time>
      </trkpt>
      <trkpt lat="45.78024" lon="6.72271">
        <ele>1509</ele>
        <time>2026-08-14T08:48:06.540Z</time>
      </trkpt>
      <trkpt lat="45.78025" lon="6.72269">
        <ele>1508</ele>
        <time>2026-08-14T08:48:07.540Z</time>
      </trkpt>
      <trkpt lat="45.78026" lon="6.72267">
        <ele>1507</ele>
        <time>2026-08-14T08:48:08.540Z</time>
      </trkpt>
      <trkpt lat="45.78026" lon="6.72266">
        <ele>1506</ele>
        <time>2026-08-14T08:48:09.540Z</time>
      </trkpt>
      <trkpt lat="45.78026" lon="6.72265">
        <ele>1505</ele>
        <time>2026-08-14T08:48:10.540Z</time>
      </trkpt>
      <trkpt lat="45.78026" lon="6.72265">
        <ele>1504</ele>
        <time>2026-08-14T08:48:11.540Z</time>
      </trkpt>
      <trkpt lat="45.78027" lon="6.72264">
        <ele>1504</ele>
        <time>2026-08-14T08:48:12.540Z</time>
      </trkpt>
      <trkpt lat="45.78027" lon="6.72264">
        <ele>1503</ele>
        <time>2026-08-14T08:48:13.540Z</time>
      </trkpt>
      <trkpt lat="45.78028" lon="6.72264">
        <ele>1503</ele>
        <time>2026-08-14T08:48:14.540Z</time>
      </trkpt>
      <trkpt lat="45.78028" lon="6.72263">
        <ele>1502</ele>
        <time>2026-08-14T08:48:15.540Z</time>
      </trkpt>
      <trkpt lat="45.78028" lon="6.72263">
        <ele>1502</ele>
        <time>2026-08-14T08:48:16.540Z</time>
      </trkpt>
      <trkpt lat="45.78028" lon="6.72263">
        <ele>1502</ele>
        <time>2026-08-14T08:48:17.540Z</time>
      </trkpt>
      <trkpt lat="45.78028" lon="6.72262">
        <ele>1502</ele>
        <time>2026-08-14T08:48:18.540Z</time>
      </trkpt>
      <trkpt lat="45.78028" lon="6.72261">
        <ele>1502</ele>
        <time>2026-08-14T08:48:19.540Z</time>
      </trkpt>
      <trkpt lat="45.78028" lon="6.7226">
        <ele>1502</ele>
        <time>2026-08-14T08:48:20.540Z</time>
      </trkpt>
      <trkpt lat="45.78029" lon="6.72259">
        <ele>1502</ele>
        <time>2026-08-14T08:48:21.540Z</time>
      </trkpt>
      <trkpt lat="45.78029" lon="6.72259">
        <ele>1502</ele>
        <time>2026-08-14T08:48:22.540Z</time>
      </trkpt>
      <trkpt lat="45.78029" lon="6.72258">
        <ele>1502</ele>
        <time>2026-08-14T08:48:23.540Z</time>
      </trkpt>
      <trkpt lat="45.78029" lon="6.72257">
        <ele>1502</ele>
        <time>2026-08-14T08:48:24.540Z</time>
      </trkpt>
      <trkpt lat="45.78028" lon="6.72256">
        <ele>1502</ele>
        <time>2026-08-14T08:48:25.540Z</time>
      </trkpt>
      <trkpt lat="45.78028" lon="6.72256">
        <ele>1502</ele>
        <time>2026-08-14T08:48:26.540Z</time>
      </trkpt>
      <trkpt lat="45.78028" lon="6.72255">
        <ele>1502</ele>
        <time>2026-08-14T08:48:27.540Z</time>
      </trkpt>
      <trkpt lat="45.78028" lon="6.72254">
        <ele>1503</ele>
        <time>2026-08-14T08:48:28.540Z</time>
      </trkpt>
      <trkpt lat="45.78028" lon="6.72253">
        <ele>1503</ele>
        <time>2026-08-14T08:48:29.540Z</time>
      </trkpt>
      <trkpt lat="45.78028" lon="6.72252">
        <ele>1503</ele>
        <time>2026-08-14T08:48:30.540Z</time>
      </trkpt>
      <trkpt lat="45.78029" lon="6.72251">
        <ele>1503</ele>
        <time>2026-08-14T08:48:31.540Z</time>
      </trkpt>
      <trkpt lat="45.78029" lon="6.72251">
        <ele>1502</ele>
        <time>2026-08-14T08:48:32.540Z</time>
      </trkpt>
      <trkpt lat="45.78029" lon="6.72251">
        <ele>1502</ele>
        <time>2026-08-14T08:48:33.540Z</time>
      </trkpt>
      <trkpt lat="45.78029" lon="6.7225">
        <ele>1501</ele>
        <time>2026-08-14T08:48:34.540Z</time>
      </trkpt>
      <trkpt lat="45.78029" lon="6.7225">
        <ele>1501</ele>
        <time>2026-08-14T08:48:35.540Z</time>
      </trkpt>
      <trkpt lat="45.78028" lon="6.72249">
        <ele>1501</ele>
        <time>2026-08-14T08:48:36.540Z</time>
      </trkpt>
      <trkpt lat="45.78029" lon="6.72249">
        <ele>1500</ele>
        <time>2026-08-14T08:48:37.540Z</time>
      </trkpt>
      <trkpt lat="45.78029" lon="6.72249">
        <ele>1500</ele>
        <time>2026-08-14T08:48:38.540Z</time>
      </trkpt>
      <trkpt lat="45.78029" lon="6.72248">
        <ele>1500</ele>
        <time>2026-08-14T08:48:39.540Z</time>
      </trkpt>
      <trkpt lat="45.78029" lon="6.72248">
        <ele>1500</ele>
        <time>2026-08-14T08:48:40.540Z</time>
      </trkpt>
      <trkpt lat="45.78029" lon="6.72247">
        <ele>1500</ele>
        <time>2026-08-14T08:48:41.540Z</time>
      </trkpt>
      <trkpt lat="45.78029" lon="6.72247">
        <ele>1500</ele>
        <time>2026-08-14T08:48:42.540Z</time>
      </trkpt>
      <trkpt lat="45.78029" lon="6.72247">
        <ele>1499</ele>
        <time>2026-08-14T08:48:43.540Z</time>
      </trkpt>
      <trkpt lat="45.78029" lon="6.72247">
        <ele>1499</ele>
        <time>2026-08-14T08:48:44.540Z</time>
      </trkpt>
      <trkpt lat="45.78029" lon="6.72246">
        <ele>1498</ele>
        <time>2026-08-14T08:48:45.540Z</time>
      </trkpt>
      <trkpt lat="45.78029" lon="6.72246">
        <ele>1498</ele>
        <time>2026-08-14T08:48:46.540Z</time>
      </trkpt>
      <trkpt lat="45.78029" lon="6.72247">
        <ele>1498</ele>
        <time>2026-08-14T08:48:47.540Z</time>
      </trkpt>
      <trkpt lat="45.78029" lon="6.72246">
        <ele>1498</ele>
        <time>2026-08-14T08:48:48.540Z</time>
      </trkpt>
      <trkpt lat="45.78029" lon="6.72246">
        <ele>1498</ele>
        <time>2026-08-14T08:48:49.540Z</time>
      </trkpt>
      <trkpt lat="45.78029" lon="6.72246">
        <ele>1498</ele>
        <time>2026-08-14T08:48:50.540Z</time>
      </trkpt>
      <trkpt lat="45.78029" lon="6.72246">
        <ele>1498</ele>
        <time>2026-08-14T08:48:51.540Z</time>
      </trkpt>
      <trkpt lat="45.78029" lon="6.72246">
        <ele>1498</ele>
        <time>2026-08-14T08:48:52.540Z</time>
      </trkpt>
      <trkpt lat="45.78029" lon="6.72246">
        <ele>1498</ele>
        <time>2026-08-14T08:48:53.540Z</time>
      </trkpt>
      <trkpt lat="45.78028" lon="6.72246">
        <ele>1499</ele>
        <time>2026-08-14T08:48:54.540Z</time>
      </trkpt>
      <trkpt lat="45.78026" lon="6.72246">
        <ele>1499</ele>
        <time>2026-08-14T08:48:55.540Z</time>
      </trkpt>
      <trkpt lat="45.78025" lon="6.72245">
        <ele>1499</ele>
        <time>2026-08-14T08:48:56.540Z</time>
      </trkpt>
      <trkpt lat="45.78022" lon="6.72244">
        <ele>1499</ele>
        <time>2026-08-14T08:48:57.540Z</time>
      </trkpt>
      <trkpt lat="45.7802" lon="6.72242">
        <ele>1499</ele>
        <time>2026-08-14T08:48:58.540Z</time>
      </trkpt>
      <trkpt lat="45.78018" lon="6.72241">
        <ele>1499</ele>
        <time>2026-08-14T08:48:59.540Z</time>
      </trkpt>
      <trkpt lat="45.78016" lon="6.7224">
        <ele>1500</ele>
        <time>2026-08-14T08:49:00.540Z</time>
      </trkpt>
      <trkpt lat="45.78015" lon="6.7224">
        <ele>1500</ele>
        <time>2026-08-14T08:49:01.540Z</time>
      </trkpt>
      <trkpt lat="45.78014" lon="6.72241">
        <ele>1500</ele>
        <time>2026-08-14T08:49:02.540Z</time>
      </trkpt>
      <trkpt lat="45.78013" lon="6.72241">
        <ele>1500</ele>
        <time>2026-08-14T08:49:03.540Z</time>
      </trkpt>
      <trkpt lat="45.78013" lon="6.72241">
        <ele>1500</ele>
        <time>2026-08-14T08:49:04.540Z</time>
      </trkpt>
      <trkpt lat="45.78013" lon="6.7224">
        <ele>1500</ele>
        <time>2026-08-14T08:49:05.540Z</time>
      </trkpt>
      <trkpt lat="45.78012" lon="6.7224">
        <ele>1500</ele>
        <time>2026-08-14T08:49:06.540Z</time>
      </trkpt>
      <trkpt lat="45.78012" lon="6.7224">
        <ele>1500</ele>
        <time>2026-08-14T08:49:07.540Z</time>
      </trkpt>
      <trkpt lat="45.78012" lon="6.7224">
        <ele>1500</ele>
        <time>2026-08-14T08:49:08.540Z</time>
      </trkpt>
      <trkpt lat="45.7801" lon="6.72239">
        <ele>1500</ele>
        <time>2026-08-14T08:49:09.540Z</time>
      </trkpt>
      <trkpt lat="45.78009" lon="6.72238">
        <ele>1500</ele>
        <time>2026-08-14T08:49:10.540Z</time>
      </trkpt>
      <trkpt lat="45.78007" lon="6.72238">
        <ele>1499</ele>
        <time>2026-08-14T08:49:11.540Z</time>
      </trkpt>
      <trkpt lat="45.78006" lon="6.72237">
        <ele>1499</ele>
        <time>2026-08-14T08:49:12.540Z</time>
      </trkpt>
      <trkpt lat="45.78005" lon="6.72236">
        <ele>1499</ele>
        <time>2026-08-14T08:49:13.540Z</time>
      </trkpt>
      <trkpt lat="45.78004" lon="6.72237">
        <ele>1499</ele>
        <time>2026-08-14T08:49:14.540Z</time>
      </trkpt>
      <trkpt lat="45.78003" lon="6.72237">
        <ele>1499</ele>
        <time>2026-08-14T08:49:15.540Z</time>
      </trkpt>
      <trkpt lat="45.78003" lon="6.72238">
        <ele>1499</ele>
        <time>2026-08-14T08:49:16.540Z</time>
      </trkpt>
      <trkpt lat="45.78003" lon="6.72239">
        <ele>1499</ele>
        <time>2026-08-14T08:49:17.540Z</time>
      </trkpt>
      <trkpt lat="45.78003" lon="6.72241">
        <ele>1498</ele>
        <time>2026-08-14T08:49:18.540Z</time>
      </trkpt>
      <trkpt lat="45.78002" lon="6.72241">
        <ele>1498</ele>
        <time>2026-08-14T08:49:19.540Z</time>
      </trkpt>
      <trkpt lat="45.78002" lon="6.72241">
        <ele>1498</ele>
        <time>2026-08-14T08:49:20.540Z</time>
      </trkpt>
      <trkpt lat="45.78002" lon="6.72241">
        <ele>1497</ele>
        <time>2026-08-14T08:49:21.540Z</time>
      </trkpt>
      <trkpt lat="45.78002" lon="6.72241">
        <ele>1497</ele>
        <time>2026-08-14T08:49:22.540Z</time>
      </trkpt>
      <trkpt lat="45.78002" lon="6.72242">
        <ele>1496</ele>
        <time>2026-08-14T08:49:23.540Z</time>
      </trkpt>
      <trkpt lat="45.78002" lon="6.72242">
        <ele>1496</ele>
        <time>2026-08-14T08:49:24.540Z</time>
      </trkpt>
      <trkpt lat="45.78003" lon="6.72242">
        <ele>1496</ele>
        <time>2026-08-14T08:49:25.540Z</time>
      </trkpt>
      <trkpt lat="45.78003" lon="6.72243">
        <ele>1495</ele>
        <time>2026-08-14T08:49:26.540Z</time>
      </trkpt>
      <trkpt lat="45.78003" lon="6.72244">
        <ele>1495</ele>
        <time>2026-08-14T08:49:27.540Z</time>
      </trkpt>
      <trkpt lat="45.78002" lon="6.72245">
        <ele>1495</ele>
        <time>2026-08-14T08:49:28.540Z</time>
      </trkpt>
      <trkpt lat="45.78002" lon="6.72246">
        <ele>1495</ele>
        <time>2026-08-14T08:49:29.540Z</time>
      </trkpt>
      <trkpt lat="45.78002" lon="6.72246">
        <ele>1495</ele>
        <time>2026-08-14T08:49:30.540Z</time>
      </trkpt>
      <trkpt lat="45.78001" lon="6.72246">
        <ele>1495</ele>
        <time>2026-08-14T08:49:31.540Z</time>
      </trkpt>
      <trkpt lat="45.78001" lon="6.72246">
        <ele>1495</ele>
        <time>2026-08-14T08:49:32.540Z</time>
      </trkpt>
      <trkpt lat="45.78" lon="6.72246">
        <ele>1495</ele>
        <time>2026-08-14T08:49:33.540Z</time>
      </trkpt>
      <trkpt lat="45.78" lon="6.72246">
        <ele>1496</ele>
        <time>2026-08-14T08:49:34.540Z</time>
      </trkpt>
      <trkpt lat="45.78" lon="6.72246">
        <ele>1496</ele>
        <time>2026-08-14T08:49:35.540Z</time>
      </trkpt>
      <trkpt lat="45.78" lon="6.72246">
        <ele>1496</ele>
        <time>2026-08-14T08:49:36.540Z</time>
      </trkpt>
      <trkpt lat="45.77999" lon="6.72246">
        <ele>1496</ele>
        <time>2026-08-14T08:49:37.540Z</time>
      </trkpt>
      <trkpt lat="45.77998" lon="6.72244">
        <ele>1497</ele>
        <time>2026-08-14T08:49:38.540Z</time>
      </trkpt>
      <trkpt lat="45.77998" lon="6.72243">
        <ele>1497</ele>
        <time>2026-08-14T08:49:39.540Z</time>
      </trkpt>
      <trkpt lat="45.77997" lon="6.72243">
        <ele>1497</ele>
        <time>2026-08-14T08:49:40.540Z</time>
      </trkpt>
      <trkpt lat="45.77997" lon="6.72243">
        <ele>1497</ele>
        <time>2026-08-14T08:49:41.540Z</time>
      </trkpt>
      <trkpt lat="45.77997" lon="6.72243">
        <ele>1498</ele>
        <time>2026-08-14T08:49:42.540Z</time>
      </trkpt>
      <trkpt lat="45.77997" lon="6.72243">
        <ele>1498</ele>
        <time>2026-08-14T08:49:43.540Z</time>
      </trkpt>
      <trkpt lat="45.77997" lon="6.72243">
        <ele>1498</ele>
        <time>2026-08-14T08:49:44.540Z</time>
      </trkpt>
      <trkpt lat="45.77996" lon="6.72243">
        <ele>1499</ele>
        <time>2026-08-14T08:49:45.540Z</time>
      </trkpt>
      <trkpt lat="45.77996" lon="6.72244">
        <ele>1499</ele>
        <time>2026-08-14T08:49:46.540Z</time>
      </trkpt>
      <trkpt lat="45.77996" lon="6.72244">
        <ele>1499</ele>
        <time>2026-08-14T08:49:47.540Z</time>
      </trkpt>
      <trkpt lat="45.77996" lon="6.72244">
        <ele>1500</ele>
        <time>2026-08-14T08:49:48.540Z</time>
      </trkpt>
      <trkpt lat="45.77997" lon="6.72245">
        <ele>1500</ele>
        <time>2026-08-14T08:49:49.540Z</time>
      </trkpt>
      <trkpt lat="45.77998" lon="6.72246">
        <ele>1500</ele>
        <time>2026-08-14T08:49:50.540Z</time>
      </trkpt>
      <trkpt lat="45.77998" lon="6.72246">
        <ele>1500</ele>
        <time>2026-08-14T08:49:51.540Z</time>
      </trkpt>
      <trkpt lat="45.77999" lon="6.72247">
        <ele>1501</ele>
        <time>2026-08-14T08:49:52.540Z</time>
      </trkpt>
      <trkpt lat="45.77999" lon="6.72246">
        <ele>1502</ele>
        <time>2026-08-14T08:49:53.540Z</time>
      </trkpt>
      <trkpt lat="45.77998" lon="6.72246">
        <ele>1502</ele>
        <time>2026-08-14T08:49:54.540Z</time>
      </trkpt>
      <trkpt lat="45.77998" lon="6.72246">
        <ele>1503</ele>
        <time>2026-08-14T08:49:55.540Z</time>
      </trkpt>
      <trkpt lat="45.77998" lon="6.72246">
        <ele>1504</ele>
        <time>2026-08-14T08:49:56.540Z</time>
      </trkpt>
      <trkpt lat="45.77998" lon="6.72247">
        <ele>1504</ele>
        <time>2026-08-14T08:49:57.540Z</time>
      </trkpt>
      <trkpt lat="45.77999" lon="6.72247">
        <ele>1505</ele>
        <time>2026-08-14T08:49:58.540Z</time>
      </trkpt>
      <trkpt lat="45.77999" lon="6.72247">
        <ele>1506</ele>
        <time>2026-08-14T08:49:59.540Z</time>
      </trkpt>
      <trkpt lat="45.77999" lon="6.72248">
        <ele>1506</ele>
        <time>2026-08-14T08:50:00.540Z</time>
      </trkpt>
      <trkpt lat="45.77999" lon="6.72248">
        <ele>1506</ele>
        <time>2026-08-14T08:50:01.540Z</time>
      </trkpt>
      <trkpt lat="45.77999" lon="6.72248">
        <ele>1506</ele>
        <time>2026-08-14T08:50:02.540Z</time>
      </trkpt>
      <trkpt lat="45.77999" lon="6.72248">
        <ele>1506</ele>
        <time>2026-08-14T08:50:03.540Z</time>
      </trkpt>
      <trkpt lat="45.77999" lon="6.72249">
        <ele>1506</ele>
        <time>2026-08-14T08:50:04.540Z</time>
      </trkpt>
      <trkpt lat="45.77999" lon="6.72249">
        <ele>1506</ele>
        <time>2026-08-14T08:50:05.540Z</time>
      </trkpt>
      <trkpt lat="45.77999" lon="6.72249">
        <ele>1505</ele>
        <time>2026-08-14T08:50:06.540Z</time>
      </trkpt>
      <trkpt lat="45.77999" lon="6.72249">
        <ele>1505</ele>
        <time>2026-08-14T08:50:07.540Z</time>
      </trkpt>
      <trkpt lat="45.77999" lon="6.72249">
        <ele>1504</ele>
        <time>2026-08-14T08:50:08.540Z</time>
      </trkpt>
      <trkpt lat="45.77998" lon="6.72248">
        <ele>1503</ele>
        <time>2026-08-14T08:50:09.540Z</time>
      </trkpt>
      <trkpt lat="45.77998" lon="6.72249">
        <ele>1503</ele>
        <time>2026-08-14T08:50:10.540Z</time>
      </trkpt>
      <trkpt lat="45.77998" lon="6.72249">
        <ele>1502</ele>
        <time>2026-08-14T08:50:11.540Z</time>
      </trkpt>
      <trkpt lat="45.77998" lon="6.72249">
        <ele>1502</ele>
        <time>2026-08-14T08:50:12.540Z</time>
      </trkpt>
      <trkpt lat="45.78001" lon="6.7225">
        <ele>1502</ele>
        <time>2026-08-14T08:50:13.540Z</time>
      </trkpt>
      <trkpt lat="45.78003" lon="6.72251">
        <ele>1502</ele>
        <time>2026-08-14T08:50:14.540Z</time>
      </trkpt>
      <trkpt lat="45.78004" lon="6.72252">
        <ele>1501</ele>
        <time>2026-08-14T08:50:15.540Z</time>
      </trkpt>
      <trkpt lat="45.78005" lon="6.72253">
        <ele>1501</ele>
        <time>2026-08-14T08:50:16.540Z</time>
      </trkpt>
      <trkpt lat="45.78005" lon="6.72253">
        <ele>1501</ele>
        <time>2026-08-14T08:50:17.540Z</time>
      </trkpt>
      <trkpt lat="45.78005" lon="6.72253">
        <ele>1501</ele>
        <time>2026-08-14T08:50:18.540Z</time>
      </trkpt>
      <trkpt lat="45.78005" lon="6.72253">
        <ele>1501</ele>
        <time>2026-08-14T08:50:19.540Z</time>
      </trkpt>
      <trkpt lat="45.78005" lon="6.72253">
        <ele>1501</ele>
        <time>2026-08-14T08:50:20.540Z</time>
      </trkpt>
      <trkpt lat="45.78005" lon="6.72252">
        <ele>1502</ele>
        <time>2026-08-14T08:50:21.540Z</time>
      </trkpt>
      <trkpt lat="45.78004" lon="6.72252">
        <ele>1502</ele>
        <time>2026-08-14T08:50:22.540Z</time>
      </trkpt>
      <trkpt lat="45.78004" lon="6.72252">
        <ele>1503</ele>
        <time>2026-08-14T08:50:23.540Z</time>
      </trkpt>
      <trkpt lat="45.78004" lon="6.72252">
        <ele>1503</ele>
        <time>2026-08-14T08:50:24.540Z</time>
      </trkpt>
      <trkpt lat="45.78004" lon="6.72252">
        <ele>1504</ele>
        <time>2026-08-14T08:50:25.540Z</time>
      </trkpt>
      <trkpt lat="45.78004" lon="6.72252">
        <ele>1504</ele>
        <time>2026-08-14T08:50:26.540Z</time>
      </trkpt>
      <trkpt lat="45.78004" lon="6.72252">
        <ele>1504</ele>
        <time>2026-08-14T08:50:27.540Z</time>
      </trkpt>
      <trkpt lat="45.78004" lon="6.72252">
        <ele>1505</ele>
        <time>2026-08-14T08:50:28.540Z</time>
      </trkpt>
      <trkpt lat="45.78004" lon="6.72252">
        <ele>1505</ele>
        <time>2026-08-14T08:50:29.540Z</time>
      </trkpt>
      <trkpt lat="45.78004" lon="6.72252">
        <ele>1506</ele>
        <time>2026-08-14T08:50:30.540Z</time>
      </trkpt>
      <trkpt lat="45.78004" lon="6.72252">
        <ele>1506</ele>
        <time>2026-08-14T08:50:31.540Z</time>
      </trkpt>
      <trkpt lat="45.78005" lon="6.72251">
        <ele>1506</ele>
        <time>2026-08-14T08:50:32.540Z</time>
      </trkpt>
      <trkpt lat="45.78005" lon="6.72251">
        <ele>1506</ele>
        <time>2026-08-14T08:50:33.540Z</time>
      </trkpt>
      <trkpt lat="45.78005" lon="6.72251">
        <ele>1507</ele>
        <time>2026-08-14T08:50:34.540Z</time>
      </trkpt>
      <trkpt lat="45.78005" lon="6.72251">
        <ele>1507</ele>
        <time>2026-08-14T08:50:35.540Z</time>
      </trkpt>
      <trkpt lat="45.78005" lon="6.72251">
        <ele>1507</ele>
        <time>2026-08-14T08:50:36.540Z</time>
      </trkpt>
      <trkpt lat="45.78005" lon="6.72251">
        <ele>1507</ele>
        <time>2026-08-14T08:50:37.540Z</time>
      </trkpt>
      <trkpt lat="45.78005" lon="6.7225">
        <ele>1507</ele>
        <time>2026-08-14T08:50:38.540Z</time>
      </trkpt>
      <trkpt lat="45.78005" lon="6.7225">
        <ele>1507</ele>
        <time>2026-08-14T08:50:39.540Z</time>
      </trkpt>
      <trkpt lat="45.78004" lon="6.7225">
        <ele>1508</ele>
        <time>2026-08-14T08:50:40.540Z</time>
      </trkpt>
      <trkpt lat="45.78004" lon="6.7225">
        <ele>1508</ele>
        <time>2026-08-14T08:50:41.540Z</time>
      </trkpt>
      <trkpt lat="45.78004" lon="6.7225">
        <ele>1508</ele>
        <time>2026-08-14T08:50:42.540Z</time>
      </trkpt>
      <trkpt lat="45.78004" lon="6.7225">
        <ele>1508</ele>
        <time>2026-08-14T08:50:43.540Z</time>
      </trkpt>
      <trkpt lat="45.78004" lon="6.7225">
        <ele>1508</ele>
        <time>2026-08-14T08:50:44.540Z</time>
      </trkpt>
      <trkpt lat="45.78005" lon="6.72249">
        <ele>1508</ele>
        <time>2026-08-14T08:50:45.540Z</time>
      </trkpt>
      <trkpt lat="45.78005" lon="6.7225">
        <ele>1508</ele>
        <time>2026-08-14T08:50:46.540Z</time>
      </trkpt>
      <trkpt lat="45.78004" lon="6.7225">
        <ele>1508</ele>
        <time>2026-08-14T08:50:47.540Z</time>
      </trkpt>
      <trkpt lat="45.78005" lon="6.7225">
        <ele>1508</ele>
        <time>2026-08-14T08:50:48.540Z</time>
      </trkpt>
      <trkpt lat="45.78005" lon="6.7225">
        <ele>1508</ele>
        <time>2026-08-14T08:50:49.540Z</time>
      </trkpt>
      <trkpt lat="45.78005" lon="6.72249">
        <ele>1508</ele>
        <time>2026-08-14T08:50:50.540Z</time>
      </trkpt>
      <trkpt lat="45.78006" lon="6.72249">
        <ele>1508</ele>
        <time>2026-08-14T08:50:51.540Z</time>
      </trkpt>
      <trkpt lat="45.78006" lon="6.72249">
        <ele>1507</ele>
        <time>2026-08-14T08:50:52.540Z</time>
      </trkpt>
      <trkpt lat="45.78006" lon="6.72249">
        <ele>1507</ele>
        <time>2026-08-14T08:50:53.540Z</time>
      </trkpt>
      <trkpt lat="45.78006" lon="6.72249">
        <ele>1507</ele>
        <time>2026-08-14T08:50:54.540Z</time>
      </trkpt>
      <trkpt lat="45.78006" lon="6.72249">
        <ele>1506</ele>
        <time>2026-08-14T08:50:55.540Z</time>
      </trkpt>
      <trkpt lat="45.78006" lon="6.72249">
        <ele>1506</ele>
        <time>2026-08-14T08:50:56.540Z</time>
      </trkpt>
      <trkpt lat="45.78006" lon="6.72249">
        <ele>1506</ele>
        <time>2026-08-14T08:50:57.540Z</time>
      </trkpt>
      <trkpt lat="45.78005" lon="6.7225">
        <ele>1505</ele>
        <time>2026-08-14T08:50:58.540Z</time>
      </trkpt>
      <trkpt lat="45.78005" lon="6.7225">
        <ele>1505</ele>
        <time>2026-08-14T08:50:59.540Z</time>
      </trkpt>
      <trkpt lat="45.78005" lon="6.7225">
        <ele>1504</ele>
        <time>2026-08-14T08:51:00.540Z</time>
      </trkpt>
      <trkpt lat="45.78006" lon="6.7225">
        <ele>1504</ele>
        <time>2026-08-14T08:51:01.540Z</time>
      </trkpt>
      <trkpt lat="45.78006" lon="6.7225">
        <ele>1504</ele>
        <time>2026-08-14T08:51:02.540Z</time>
      </trkpt>
      <trkpt lat="45.78006" lon="6.7225">
        <ele>1503</ele>
        <time>2026-08-14T08:51:03.540Z</time>
      </trkpt>
      <trkpt lat="45.78006" lon="6.7225">
        <ele>1503</ele>
        <time>2026-08-14T08:51:04.540Z</time>
      </trkpt>
      <trkpt lat="45.78006" lon="6.7225">
        <ele>1502</ele>
        <time>2026-08-14T08:51:05.540Z</time>
      </trkpt>
      <trkpt lat="45.78006" lon="6.7225">
        <ele>1502</ele>
        <time>2026-08-14T08:51:06.540Z</time>
      </trkpt>
      <trkpt lat="45.78006" lon="6.7225">
        <ele>1502</ele>
        <time>2026-08-14T08:51:07.540Z</time>
      </trkpt>
      <trkpt lat="45.78006" lon="6.7225">
        <ele>1501</ele>
        <time>2026-08-14T08:51:08.540Z</time>
      </trkpt>
      <trkpt lat="45.78006" lon="6.7225">
        <ele>1501</ele>
        <time>2026-08-14T08:51:09.540Z</time>
      </trkpt>
      <trkpt lat="45.78006" lon="6.7225">
        <ele>1501</ele>
        <time>2026-08-14T08:51:10.540Z</time>
      </trkpt>
      <trkpt lat="45.78006" lon="6.7225">
        <ele>1501</ele>
        <time>2026-08-14T08:51:11.540Z</time>
      </trkpt>
      <trkpt lat="45.78006" lon="6.7225">
        <ele>1501</ele>
        <time>2026-08-14T08:51:12.540Z</time>
      </trkpt>
      <trkpt lat="45.78007" lon="6.7225">
        <ele>1501</ele>
        <time>2026-08-14T08:51:13.540Z</time>
      </trkpt>
      <trkpt lat="45.78006" lon="6.7225">
        <ele>1501</ele>
        <time>2026-08-14T08:51:14.540Z</time>
      </trkpt>
      <trkpt lat="45.78006" lon="6.72249">
        <ele>1500</ele>
        <time>2026-08-14T08:51:15.540Z</time>
      </trkpt>
      <trkpt lat="45.78006" lon="6.72249">
        <ele>1500</ele>
        <time>2026-08-14T08:51:16.540Z</time>
      </trkpt>
      <trkpt lat="45.78006" lon="6.72249">
        <ele>1500</ele>
        <time>2026-08-14T08:51:17.540Z</time>
      </trkpt>
      <trkpt lat="45.78006" lon="6.72249">
        <ele>1500</ele>
        <time>2026-08-14T08:51:18.540Z</time>
      </trkpt>
      <trkpt lat="45.78006" lon="6.72249">
        <ele>1500</ele>
        <time>2026-08-14T08:51:19.540Z</time>
      </trkpt>
      <trkpt lat="45.78006" lon="6.72249">
        <ele>1500</ele>
        <time>2026-08-14T08:51:20.540Z</time>
      </trkpt>
      <trkpt lat="45.78006" lon="6.72249">
        <ele>1500</ele>
        <time>2026-08-14T08:51:21.540Z</time>
      </trkpt>
      <trkpt lat="45.78006" lon="6.72249">
        <ele>1501</ele>
        <time>2026-08-14T08:51:22.540Z</time>
      </trkpt>
      <trkpt lat="45.78006" lon="6.72249">
        <ele>1501</ele>
        <time>2026-08-14T08:51:23.540Z</time>
      </trkpt>
      <trkpt lat="45.78006" lon="6.72249">
        <ele>1501</ele>
        <time>2026-08-14T08:51:24.540Z</time>
      </trkpt>
      <trkpt lat="45.78006" lon="6.72249">
        <ele>1501</ele>
        <time>2026-08-14T08:51:25.540Z</time>
      </trkpt>
      <trkpt lat="45.78006" lon="6.72249">
        <ele>1501</ele>
        <time>2026-08-14T08:51:26.540Z</time>
      </trkpt>
      <trkpt lat="45.78006" lon="6.72249">
        <ele>1501</ele>
        <time>2026-08-14T08:51:27.540Z</time>
      </trkpt>
      <trkpt lat="45.78006" lon="6.72249">
        <ele>1501</ele>
        <time>2026-08-14T08:51:28.540Z</time>
      </trkpt>
      <trkpt lat="45.78006" lon="6.72249">
        <ele>1502</ele>
        <time>2026-08-14T08:51:29.540Z</time>
      </trkpt>
      <trkpt lat="45.78006" lon="6.72249">
        <ele>1502</ele>
        <time>2026-08-14T08:51:30.540Z</time>
      </trkpt>
      <trkpt lat="45.78006" lon="6.72249">
        <ele>1502</ele>
        <time>2026-08-14T08:51:31.540Z</time>
      </trkpt>
      <trkpt lat="45.78006" lon="6.72249">
        <ele>1502</ele>
        <time>2026-08-14T08:51:32.540Z</time>
      </trkpt>
      <trkpt lat="45.78006" lon="6.72249">
        <ele>1502</ele>
        <time>2026-08-14T08:51:33.540Z</time>
      </trkpt>
      <trkpt lat="45.78006" lon="6.72249">
        <ele>1503</ele>
        <time>2026-08-14T08:51:34.540Z</time>
      </trkpt>
      <trkpt lat="45.78006" lon="6.72249">
        <ele>1503</ele>
        <time>2026-08-14T08:51:35.540Z</time>
      </trkpt>
      <trkpt lat="45.78006" lon="6.72249">
        <ele>1503</ele>
        <time>2026-08-14T08:51:36.540Z</time>
      </trkpt>
      <trkpt lat="45.78006" lon="6.72249">
        <ele>1503</ele>
        <time>2026-08-14T08:51:37.540Z</time>
      </trkpt>
      <trkpt lat="45.78006" lon="6.72249">
        <ele>1503</ele>
        <time>2026-08-14T08:51:38.540Z</time>
      </trkpt>
      <trkpt lat="45.78006" lon="6.72249">
        <ele>1503</ele>
        <time>2026-08-14T08:51:39.540Z</time>
      </trkpt>
      <trkpt lat="45.78006" lon="6.72248">
        <ele>1503</ele>
        <time>2026-08-14T08:51:40.540Z</time>
      </trkpt>
      <trkpt lat="45.78006" lon="6.72246">
        <ele>1503</ele>
        <time>2026-08-14T08:51:41.540Z</time>
      </trkpt>
      <trkpt lat="45.78006" lon="6.72243">
        <ele>1503</ele>
        <time>2026-08-14T08:51:42.540Z</time>
      </trkpt>
      <trkpt lat="45.78006" lon="6.7224">
        <ele>1503</ele>
        <time>2026-08-14T08:51:43.540Z</time>
      </trkpt>
      <trkpt lat="45.78007" lon="6.72238">
        <ele>1503</ele>
        <time>2026-08-14T08:51:44.540Z</time>
      </trkpt>
      <trkpt lat="45.78008" lon="6.72237">
        <ele>1503</ele>
        <time>2026-08-14T08:51:45.540Z</time>
      </trkpt>
      <trkpt lat="45.7801" lon="6.72237">
        <ele>1502</ele>
        <time>2026-08-14T08:51:46.540Z</time>
      </trkpt>
      <trkpt lat="45.78011" lon="6.72237">
        <ele>1502</ele>
        <time>2026-08-14T08:51:47.540Z</time>
      </trkpt>
      <trkpt lat="45.78011" lon="6.72237">
        <ele>1502</ele>
        <time>2026-08-14T08:51:48.540Z</time>
      </trkpt>
      <trkpt lat="45.78012" lon="6.72237">
        <ele>1501</ele>
        <time>2026-08-14T08:51:49.540Z</time>
      </trkpt>
      <trkpt lat="45.78013" lon="6.72237">
        <ele>1501</ele>
        <time>2026-08-14T08:51:50.540Z</time>
      </trkpt>
      <trkpt lat="45.78014" lon="6.72237">
        <ele>1500</ele>
        <time>2026-08-14T08:51:51.540Z</time>
      </trkpt>
      <trkpt lat="45.78015" lon="6.72237">
        <ele>1500</ele>
        <time>2026-08-14T08:51:52.540Z</time>
      </trkpt>
      <trkpt lat="45.78016" lon="6.72238">
        <ele>1499</ele>
        <time>2026-08-14T08:51:53.540Z</time>
      </trkpt>
      <trkpt lat="45.78017" lon="6.72239">
        <ele>1498</ele>
        <time>2026-08-14T08:51:54.540Z</time>
      </trkpt>
      <trkpt lat="45.78018" lon="6.7224">
        <ele>1498</ele>
        <time>2026-08-14T08:51:55.540Z</time>
      </trkpt>
      <trkpt lat="45.7802" lon="6.72241">
        <ele>1497</ele>
        <time>2026-08-14T08:51:56.540Z</time>
      </trkpt>
      <trkpt lat="45.78022" lon="6.72243">
        <ele>1497</ele>
        <time>2026-08-14T08:51:57.540Z</time>
      </trkpt>
      <trkpt lat="45.78023" lon="6.72244">
        <ele>1496</ele>
        <time>2026-08-14T08:51:58.540Z</time>
      </trkpt>
      <trkpt lat="45.78025" lon="6.72244">
        <ele>1496</ele>
        <time>2026-08-14T08:51:59.540Z</time>
      </trkpt>
      <trkpt lat="45.78027" lon="6.72245">
        <ele>1496</ele>
        <time>2026-08-14T08:52:00.540Z</time>
      </trkpt>
      <trkpt lat="45.78028" lon="6.72245">
        <ele>1496</ele>
        <time>2026-08-14T08:52:01.540Z</time>
      </trkpt>
      <trkpt lat="45.78029" lon="6.72245">
        <ele>1496</ele>
        <time>2026-08-14T08:52:02.540Z</time>
      </trkpt>
      <trkpt lat="45.7803" lon="6.72245">
        <ele>1496</ele>
        <time>2026-08-14T08:52:03.540Z</time>
      </trkpt>
      <trkpt lat="45.78031" lon="6.72245">
        <ele>1496</ele>
        <time>2026-08-14T08:52:04.540Z</time>
      </trkpt>
      <trkpt lat="45.78032" lon="6.72245">
        <ele>1496</ele>
        <time>2026-08-14T08:52:05.540Z</time>
      </trkpt>
      <trkpt lat="45.78032" lon="6.72246">
        <ele>1496</ele>
        <time>2026-08-14T08:52:06.540Z</time>
      </trkpt>
      <trkpt lat="45.78033" lon="6.72246">
        <ele>1496</ele>
        <time>2026-08-14T08:52:07.540Z</time>
      </trkpt>
      <trkpt lat="45.78034" lon="6.72246">
        <ele>1497</ele>
        <time>2026-08-14T08:52:08.540Z</time>
      </trkpt>
      <trkpt lat="45.78035" lon="6.72247">
        <ele>1497</ele>
        <time>2026-08-14T08:52:09.540Z</time>
      </trkpt>
      <trkpt lat="45.78036" lon="6.72247">
        <ele>1498</ele>
        <time>2026-08-14T08:52:10.540Z</time>
      </trkpt>
      <trkpt lat="45.78037" lon="6.72247">
        <ele>1499</ele>
        <time>2026-08-14T08:52:11.540Z</time>
      </trkpt>
      <trkpt lat="45.78039" lon="6.72247">
        <ele>1500</ele>
        <time>2026-08-14T08:52:12.540Z</time>
      </trkpt>
      <trkpt lat="45.78041" lon="6.72246">
        <ele>1500</ele>
        <time>2026-08-14T08:52:13.540Z</time>
      </trkpt>
      <trkpt lat="45.78043" lon="6.72246">
        <ele>1500</ele>
        <time>2026-08-14T08:52:14.540Z</time>
      </trkpt>
      <trkpt lat="45.78043" lon="6.72247">
        <ele>1500</ele>
        <time>2026-08-14T08:52:15.540Z</time>
      </trkpt>
      <trkpt lat="45.78044" lon="6.72248">
        <ele>1500</ele>
        <time>2026-08-14T08:52:16.540Z</time>
      </trkpt>
      <trkpt lat="45.78044" lon="6.72248">
        <ele>1500</ele>
        <time>2026-08-14T08:52:17.540Z</time>
      </trkpt>
      <trkpt lat="45.78045" lon="6.72249">
        <ele>1501</ele>
        <time>2026-08-14T08:52:18.540Z</time>
      </trkpt>
      <trkpt lat="45.78046" lon="6.72249">
        <ele>1501</ele>
        <time>2026-08-14T08:52:19.540Z</time>
      </trkpt>
      <trkpt lat="45.78048" lon="6.72248">
        <ele>1501</ele>
        <time>2026-08-14T08:52:20.540Z</time>
      </trkpt>
      <trkpt lat="45.78049" lon="6.72248">
        <ele>1501</ele>
        <time>2026-08-14T08:52:21.540Z</time>
      </trkpt>
      <trkpt lat="45.7805" lon="6.72248">
        <ele>1501</ele>
        <time>2026-08-14T08:52:22.540Z</time>
      </trkpt>
      <trkpt lat="45.78052" lon="6.72249">
        <ele>1502</ele>
        <time>2026-08-14T08:52:23.540Z</time>
      </trkpt>
      <trkpt lat="45.78053" lon="6.72249">
        <ele>1502</ele>
        <time>2026-08-14T08:52:24.540Z</time>
      </trkpt>
      <trkpt lat="45.78054" lon="6.7225">
        <ele>1502</ele>
        <time>2026-08-14T08:52:25.540Z</time>
      </trkpt>
      <trkpt lat="45.78055" lon="6.7225">
        <ele>1502</ele>
        <time>2026-08-14T08:52:26.540Z</time>
      </trkpt>
      <trkpt lat="45.78056" lon="6.7225">
        <ele>1503</ele>
        <time>2026-08-14T08:52:27.540Z</time>
      </trkpt>
      <trkpt lat="45.78057" lon="6.7225">
        <ele>1503</ele>
        <time>2026-08-14T08:52:28.540Z</time>
      </trkpt>
      <trkpt lat="45.78059" lon="6.72249">
        <ele>1504</ele>
        <time>2026-08-14T08:52:29.540Z</time>
      </trkpt>
      <trkpt lat="45.7806" lon="6.72249">
        <ele>1504</ele>
        <time>2026-08-14T08:52:30.540Z</time>
      </trkpt>
      <trkpt lat="45.78062" lon="6.72249">
        <ele>1504</ele>
        <time>2026-08-14T08:52:31.540Z</time>
      </trkpt>
      <trkpt lat="45.78063" lon="6.7225">
        <ele>1504</ele>
        <time>2026-08-14T08:52:32.540Z</time>
      </trkpt>
      <trkpt lat="45.78065" lon="6.72252">
        <ele>1503</ele>
        <time>2026-08-14T08:52:33.540Z</time>
      </trkpt>
      <trkpt lat="45.78067" lon="6.72253">
        <ele>1503</ele>
        <time>2026-08-14T08:52:34.540Z</time>
      </trkpt>
      <trkpt lat="45.78068" lon="6.72254">
        <ele>1503</ele>
        <time>2026-08-14T08:52:35.540Z</time>
      </trkpt>
      <trkpt lat="45.7807" lon="6.72255">
        <ele>1503</ele>
        <time>2026-08-14T08:52:36.540Z</time>
      </trkpt>
      <trkpt lat="45.78071" lon="6.72256">
        <ele>1502</ele>
        <time>2026-08-14T08:52:37.540Z</time>
      </trkpt>
      <trkpt lat="45.78071" lon="6.72256">
        <ele>1502</ele>
        <time>2026-08-14T08:52:38.540Z</time>
      </trkpt>
      <trkpt lat="45.78072" lon="6.72256">
        <ele>1502</ele>
        <time>2026-08-14T08:52:39.540Z</time>
      </trkpt>
      <trkpt lat="45.78073" lon="6.72257">
        <ele>1502</ele>
        <time>2026-08-14T08:52:40.540Z</time>
      </trkpt>
      <trkpt lat="45.78074" lon="6.72257">
        <ele>1503</ele>
        <time>2026-08-14T08:52:41.540Z</time>
      </trkpt>
      <trkpt lat="45.78075" lon="6.72257">
        <ele>1503</ele>
        <time>2026-08-14T08:52:42.540Z</time>
      </trkpt>
      <trkpt lat="45.78076" lon="6.72258">
        <ele>1503</ele>
        <time>2026-08-14T08:52:43.540Z</time>
      </trkpt>
      <trkpt lat="45.78076" lon="6.72259">
        <ele>1503</ele>
        <time>2026-08-14T08:52:44.540Z</time>
      </trkpt>
      <trkpt lat="45.78077" lon="6.72261">
        <ele>1503</ele>
        <time>2026-08-14T08:52:45.540Z</time>
      </trkpt>
      <trkpt lat="45.78078" lon="6.72263">
        <ele>1504</ele>
        <time>2026-08-14T08:52:46.540Z</time>
      </trkpt>
      <trkpt lat="45.78079" lon="6.72263">
        <ele>1504</ele>
        <time>2026-08-14T08:52:47.540Z</time>
      </trkpt>
      <trkpt lat="45.7808" lon="6.72263">
        <ele>1504</ele>
        <time>2026-08-14T08:52:48.540Z</time>
      </trkpt>
      <trkpt lat="45.78081" lon="6.72264">
        <ele>1504</ele>
        <time>2026-08-14T08:52:49.540Z</time>
      </trkpt>
      <trkpt lat="45.78082" lon="6.72265">
        <ele>1504</ele>
        <time>2026-08-14T08:52:50.540Z</time>
      </trkpt>
      <trkpt lat="45.78083" lon="6.72266">
        <ele>1504</ele>
        <time>2026-08-14T08:52:51.540Z</time>
      </trkpt>
      <trkpt lat="45.78084" lon="6.72267">
        <ele>1504</ele>
        <time>2026-08-14T08:52:52.540Z</time>
      </trkpt>
      <trkpt lat="45.78085" lon="6.72267">
        <ele>1504</ele>
        <time>2026-08-14T08:52:53.540Z</time>
      </trkpt>
      <trkpt lat="45.78086" lon="6.72267">
        <ele>1503</ele>
        <time>2026-08-14T08:52:54.540Z</time>
      </trkpt>
      <trkpt lat="45.78087" lon="6.72267">
        <ele>1503</ele>
        <time>2026-08-14T08:52:55.540Z</time>
      </trkpt>
      <trkpt lat="45.78088" lon="6.72267">
        <ele>1502</ele>
        <time>2026-08-14T08:52:56.540Z</time>
      </trkpt>
      <trkpt lat="45.78089" lon="6.72267">
        <ele>1501</ele>
        <time>2026-08-14T08:52:57.540Z</time>
      </trkpt>
      <trkpt lat="45.78091" lon="6.72268">
        <ele>1501</ele>
        <time>2026-08-14T08:52:58.540Z</time>
      </trkpt>
      <trkpt lat="45.78093" lon="6.72269">
        <ele>1501</ele>
        <time>2026-08-14T08:52:59.540Z</time>
      </trkpt>
      <trkpt lat="45.78095" lon="6.72269">
        <ele>1500</ele>
        <time>2026-08-14T08:53:00.540Z</time>
      </trkpt>
      <trkpt lat="45.78097" lon="6.72269">
        <ele>1500</ele>
        <time>2026-08-14T08:53:01.540Z</time>
      </trkpt>
      <trkpt lat="45.78099" lon="6.7227">
        <ele>1500</ele>
        <time>2026-08-14T08:53:02.540Z</time>
      </trkpt>
      <trkpt lat="45.781" lon="6.7227">
        <ele>1500</ele>
        <time>2026-08-14T08:53:03.540Z</time>
      </trkpt>
      <trkpt lat="45.78101" lon="6.72269">
        <ele>1499</ele>
        <time>2026-08-14T08:53:04.540Z</time>
      </trkpt>
      <trkpt lat="45.78103" lon="6.72269">
        <ele>1499</ele>
        <time>2026-08-14T08:53:05.540Z</time>
      </trkpt>
      <trkpt lat="45.78104" lon="6.72268">
        <ele>1499</ele>
        <time>2026-08-14T08:53:06.540Z</time>
      </trkpt>
      <trkpt lat="45.78106" lon="6.72267">
        <ele>1499</ele>
        <time>2026-08-14T08:53:07.540Z</time>
      </trkpt>
      <trkpt lat="45.78107" lon="6.72267">
        <ele>1499</ele>
        <time>2026-08-14T08:53:08.540Z</time>
      </trkpt>
      <trkpt lat="45.78108" lon="6.72268">
        <ele>1499</ele>
        <time>2026-08-14T08:53:09.540Z</time>
      </trkpt>
      <trkpt lat="45.7811" lon="6.72268">
        <ele>1499</ele>
        <time>2026-08-14T08:53:10.540Z</time>
      </trkpt>
      <trkpt lat="45.78111" lon="6.72268">
        <ele>1499</ele>
        <time>2026-08-14T08:53:11.540Z</time>
      </trkpt>
      <trkpt lat="45.78111" lon="6.72268">
        <ele>1499</ele>
        <time>2026-08-14T08:53:12.540Z</time>
      </trkpt>
      <trkpt lat="45.78113" lon="6.72268">
        <ele>1499</ele>
        <time>2026-08-14T08:53:13.540Z</time>
      </trkpt>
      <trkpt lat="45.78115" lon="6.72269">
        <ele>1499</ele>
        <time>2026-08-14T08:53:14.540Z</time>
      </trkpt>
      <trkpt lat="45.78116" lon="6.7227">
        <ele>1499</ele>
        <time>2026-08-14T08:53:15.540Z</time>
      </trkpt>
      <trkpt lat="45.78116" lon="6.7227">
        <ele>1499</ele>
        <time>2026-08-14T08:53:16.540Z</time>
      </trkpt>
      <trkpt lat="45.78117" lon="6.7227">
        <ele>1499</ele>
        <time>2026-08-14T08:53:17.540Z</time>
      </trkpt>
      <trkpt lat="45.78117" lon="6.7227">
        <ele>1499</ele>
        <time>2026-08-14T08:53:18.540Z</time>
      </trkpt>
      <trkpt lat="45.78118" lon="6.72269">
        <ele>1500</ele>
        <time>2026-08-14T08:53:19.540Z</time>
      </trkpt>
      <trkpt lat="45.78119" lon="6.72269">
        <ele>1500</ele>
        <time>2026-08-14T08:53:20.540Z</time>
      </trkpt>
      <trkpt lat="45.78119" lon="6.72268">
        <ele>1500</ele>
        <time>2026-08-14T08:53:21.540Z</time>
      </trkpt>
      <trkpt lat="45.7812" lon="6.72269">
        <ele>1500</ele>
        <time>2026-08-14T08:53:22.540Z</time>
      </trkpt>
      <trkpt lat="45.78121" lon="6.7227">
        <ele>1500</ele>
        <time>2026-08-14T08:53:23.540Z</time>
      </trkpt>
      <trkpt lat="45.78122" lon="6.72271">
        <ele>1500</ele>
        <time>2026-08-14T08:53:24.540Z</time>
      </trkpt>
      <trkpt lat="45.78122" lon="6.72271">
        <ele>1500</ele>
        <time>2026-08-14T08:53:25.540Z</time>
      </trkpt>
      <trkpt lat="45.78123" lon="6.72272">
        <ele>1500</ele>
        <time>2026-08-14T08:53:26.540Z</time>
      </trkpt>
      <trkpt lat="45.78124" lon="6.72272">
        <ele>1501</ele>
        <time>2026-08-14T08:53:27.540Z</time>
      </trkpt>
      <trkpt lat="45.78124" lon="6.72273">
        <ele>1501</ele>
        <time>2026-08-14T08:53:28.540Z</time>
      </trkpt>
      <trkpt lat="45.78125" lon="6.72273">
        <ele>1501</ele>
        <time>2026-08-14T08:53:29.540Z</time>
      </trkpt>
      <trkpt lat="45.78125" lon="6.72274">
        <ele>1501</ele>
        <time>2026-08-14T08:53:30.540Z</time>
      </trkpt>
      <trkpt lat="45.78127" lon="6.72275">
        <ele>1501</ele>
        <time>2026-08-14T08:53:31.540Z</time>
      </trkpt>
      <trkpt lat="45.78128" lon="6.72276">
        <ele>1502</ele>
        <time>2026-08-14T08:53:32.540Z</time>
      </trkpt>
      <trkpt lat="45.78129" lon="6.72277">
        <ele>1502</ele>
        <time>2026-08-14T08:53:33.540Z</time>
      </trkpt>
      <trkpt lat="45.7813" lon="6.72277">
        <ele>1502</ele>
        <time>2026-08-14T08:53:34.540Z</time>
      </trkpt>
      <trkpt lat="45.78131" lon="6.72277">
        <ele>1502</ele>
        <time>2026-08-14T08:53:35.540Z</time>
      </trkpt>
      <trkpt lat="45.78132" lon="6.72278">
        <ele>1503</ele>
        <time>2026-08-14T08:53:36.540Z</time>
      </trkpt>
      <trkpt lat="45.78133" lon="6.72279">
        <ele>1503</ele>
        <time>2026-08-14T08:53:37.540Z</time>
      </trkpt>
      <trkpt lat="45.78134" lon="6.7228">
        <ele>1503</ele>
        <time>2026-08-14T08:53:38.540Z</time>
      </trkpt>
      <trkpt lat="45.78136" lon="6.72281">
        <ele>1504</ele>
        <time>2026-08-14T08:53:39.540Z</time>
      </trkpt>
      <trkpt lat="45.78137" lon="6.72282">
        <ele>1504</ele>
        <time>2026-08-14T08:53:40.540Z</time>
      </trkpt>
      <trkpt lat="45.78138" lon="6.72283">
        <ele>1505</ele>
        <time>2026-08-14T08:53:41.540Z</time>
      </trkpt>
      <trkpt lat="45.7814" lon="6.72283">
        <ele>1505</ele>
        <time>2026-08-14T08:53:42.540Z</time>
      </trkpt>
      <trkpt lat="45.78141" lon="6.72283">
        <ele>1506</ele>
        <time>2026-08-14T08:53:43.540Z</time>
      </trkpt>
      <trkpt lat="45.78142" lon="6.72283">
        <ele>1506</ele>
        <time>2026-08-14T08:53:44.540Z</time>
      </trkpt>
      <trkpt lat="45.78142" lon="6.72283">
        <ele>1507</ele>
        <time>2026-08-14T08:53:45.540Z</time>
      </trkpt>
      <trkpt lat="45.78143" lon="6.72283">
        <ele>1508</ele>
        <time>2026-08-14T08:53:46.540Z</time>
      </trkpt>
      <trkpt lat="45.78143" lon="6.72284">
        <ele>1508</ele>
        <time>2026-08-14T08:53:47.540Z</time>
      </trkpt>
      <trkpt lat="45.78145" lon="6.72284">
        <ele>1509</ele>
        <time>2026-08-14T08:53:48.540Z</time>
      </trkpt>
      <trkpt lat="45.78147" lon="6.72284">
        <ele>1510</ele>
        <time>2026-08-14T08:53:49.540Z</time>
      </trkpt>
      <trkpt lat="45.78148" lon="6.72285">
        <ele>1510</ele>
        <time>2026-08-14T08:53:50.540Z</time>
      </trkpt>
      <trkpt lat="45.78148" lon="6.72286">
        <ele>1511</ele>
        <time>2026-08-14T08:53:51.540Z</time>
      </trkpt>
      <trkpt lat="45.78148" lon="6.72286">
        <ele>1511</ele>
        <time>2026-08-14T08:53:52.540Z</time>
      </trkpt>
      <trkpt lat="45.78148" lon="6.72286">
        <ele>1512</ele>
        <time>2026-08-14T08:53:53.540Z</time>
      </trkpt>
      <trkpt lat="45.78148" lon="6.72286">
        <ele>1512</ele>
        <time>2026-08-14T08:53:54.540Z</time>
      </trkpt>
      <trkpt lat="45.78148" lon="6.72287">
        <ele>1513</ele>
        <time>2026-08-14T08:53:55.540Z</time>
      </trkpt>
      <trkpt lat="45.78148" lon="6.72288">
        <ele>1513</ele>
        <time>2026-08-14T08:53:56.540Z</time>
      </trkpt>
      <trkpt lat="45.78149" lon="6.72289">
        <ele>1514</ele>
        <time>2026-08-14T08:53:57.540Z</time>
      </trkpt>
      <trkpt lat="45.7815" lon="6.7229">
        <ele>1514</ele>
        <time>2026-08-14T08:53:58.540Z</time>
      </trkpt>
      <trkpt lat="45.78151" lon="6.72291">
        <ele>1515</ele>
        <time>2026-08-14T08:53:59.540Z</time>
      </trkpt>
      <trkpt lat="45.78152" lon="6.72292">
        <ele>1515</ele>
        <time>2026-08-14T08:54:00.540Z</time>
      </trkpt>
      <trkpt lat="45.78152" lon="6.72292">
        <ele>1516</ele>
        <time>2026-08-14T08:54:01.540Z</time>
      </trkpt>
      <trkpt lat="45.78153" lon="6.72293">
        <ele>1516</ele>
        <time>2026-08-14T08:54:02.540Z</time>
      </trkpt>
      <trkpt lat="45.78153" lon="6.72294">
        <ele>1517</ele>
        <time>2026-08-14T08:54:03.540Z</time>
      </trkpt>
      <trkpt lat="45.78154" lon="6.72295">
        <ele>1517</ele>
        <time>2026-08-14T08:54:04.540Z</time>
      </trkpt>
      <trkpt lat="45.78156" lon="6.72296">
        <ele>1517</ele>
        <time>2026-08-14T08:54:05.540Z</time>
      </trkpt>
      <trkpt lat="45.78157" lon="6.72297">
        <ele>1517</ele>
        <time>2026-08-14T08:54:06.540Z</time>
      </trkpt>
      <trkpt lat="45.78157" lon="6.72298">
        <ele>1518</ele>
        <time>2026-08-14T08:54:07.540Z</time>
      </trkpt>
      <trkpt lat="45.78158" lon="6.72298">
        <ele>1518</ele>
        <time>2026-08-14T08:54:08.540Z</time>
      </trkpt>
      <trkpt lat="45.78158" lon="6.72299">
        <ele>1518</ele>
        <time>2026-08-14T08:54:09.540Z</time>
      </trkpt>
      <trkpt lat="45.78158" lon="6.72299">
        <ele>1518</ele>
        <time>2026-08-14T08:54:10.540Z</time>
      </trkpt>
      <trkpt lat="45.78159" lon="6.72298">
        <ele>1518</ele>
        <time>2026-08-14T08:54:11.540Z</time>
      </trkpt>
      <trkpt lat="45.78159" lon="6.72298">
        <ele>1518</ele>
        <time>2026-08-14T08:54:12.540Z</time>
      </trkpt>
      <trkpt lat="45.7816" lon="6.72298">
        <ele>1519</ele>
        <time>2026-08-14T08:54:13.540Z</time>
      </trkpt>
      <trkpt lat="45.7816" lon="6.72299">
        <ele>1519</ele>
        <time>2026-08-14T08:54:14.540Z</time>
      </trkpt>
      <trkpt lat="45.7816" lon="6.723">
        <ele>1519</ele>
        <time>2026-08-14T08:54:15.540Z</time>
      </trkpt>
      <trkpt lat="45.7816" lon="6.723">
        <ele>1519</ele>
        <time>2026-08-14T08:54:16.540Z</time>
      </trkpt>
      <trkpt lat="45.7816" lon="6.723">
        <ele>1519</ele>
        <time>2026-08-14T08:54:17.540Z</time>
      </trkpt>
      <trkpt lat="45.7816" lon="6.723">
        <ele>1520</ele>
        <time>2026-08-14T08:54:18.540Z</time>
      </trkpt>
      <trkpt lat="45.78161" lon="6.723">
        <ele>1520</ele>
        <time>2026-08-14T08:54:19.540Z</time>
      </trkpt>
      <trkpt lat="45.78161" lon="6.723">
        <ele>1520</ele>
        <time>2026-08-14T08:54:20.540Z</time>
      </trkpt>
      <trkpt lat="45.78161" lon="6.723">
        <ele>1520</ele>
        <time>2026-08-14T08:54:21.540Z</time>
      </trkpt>
      <trkpt lat="45.78161" lon="6.72301">
        <ele>1520</ele>
        <time>2026-08-14T08:54:22.540Z</time>
      </trkpt>
      <trkpt lat="45.78161" lon="6.723">
        <ele>1521</ele>
        <time>2026-08-14T08:54:23.540Z</time>
      </trkpt>
      <trkpt lat="45.78161" lon="6.723">
        <ele>1521</ele>
        <time>2026-08-14T08:54:24.540Z</time>
      </trkpt>
      <trkpt lat="45.78162" lon="6.72301">
        <ele>1521</ele>
        <time>2026-08-14T08:54:25.540Z</time>
      </trkpt>
      <trkpt lat="45.78163" lon="6.72302">
        <ele>1521</ele>
        <time>2026-08-14T08:54:26.540Z</time>
      </trkpt>
      <trkpt lat="45.78163" lon="6.72303">
        <ele>1521</ele>
        <time>2026-08-14T08:54:27.540Z</time>
      </trkpt>
      <trkpt lat="45.78165" lon="6.72305">
        <ele>1521</ele>
        <time>2026-08-14T08:54:28.540Z</time>
      </trkpt>
      <trkpt lat="45.78166" lon="6.72306">
        <ele>1521</ele>
        <time>2026-08-14T08:54:29.540Z</time>
      </trkpt>
      <trkpt lat="45.78168" lon="6.72307">
        <ele>1521</ele>
        <time>2026-08-14T08:54:30.540Z</time>
      </trkpt>
      <trkpt lat="45.78169" lon="6.72309">
        <ele>1521</ele>
        <time>2026-08-14T08:54:31.540Z</time>
      </trkpt>
      <trkpt lat="45.78171" lon="6.72309">
        <ele>1520</ele>
        <time>2026-08-14T08:54:32.540Z</time>
      </trkpt>
      <trkpt lat="45.78172" lon="6.7231">
        <ele>1520</ele>
        <time>2026-08-14T08:54:33.540Z</time>
      </trkpt>
      <trkpt lat="45.78173" lon="6.7231">
        <ele>1520</ele>
        <time>2026-08-14T08:54:34.540Z</time>
      </trkpt>
      <trkpt lat="45.78175" lon="6.72311">
        <ele>1520</ele>
        <time>2026-08-14T08:54:35.540Z</time>
      </trkpt>
      <trkpt lat="45.78177" lon="6.72313">
        <ele>1520</ele>
        <time>2026-08-14T08:54:36.540Z</time>
      </trkpt>
      <trkpt lat="45.78178" lon="6.72314">
        <ele>1520</ele>
        <time>2026-08-14T08:54:37.540Z</time>
      </trkpt>
      <trkpt lat="45.7818" lon="6.72315">
        <ele>1521</ele>
        <time>2026-08-14T08:54:38.540Z</time>
      </trkpt>
      <trkpt lat="45.78182" lon="6.72316">
        <ele>1521</ele>
        <time>2026-08-14T08:54:39.540Z</time>
      </trkpt>
      <trkpt lat="45.78184" lon="6.72317">
        <ele>1521</ele>
        <time>2026-08-14T08:54:40.540Z</time>
      </trkpt>
      <trkpt lat="45.78186" lon="6.72319">
        <ele>1522</ele>
        <time>2026-08-14T08:54:41.540Z</time>
      </trkpt>
      <trkpt lat="45.78188" lon="6.7232">
        <ele>1522</ele>
        <time>2026-08-14T08:54:42.540Z</time>
      </trkpt>
      <trkpt lat="45.78191" lon="6.7232">
        <ele>1522</ele>
        <time>2026-08-14T08:54:43.540Z</time>
      </trkpt>
      <trkpt lat="45.78193" lon="6.72321">
        <ele>1522</ele>
        <time>2026-08-14T08:54:44.540Z</time>
      </trkpt>
      <trkpt lat="45.78195" lon="6.72321">
        <ele>1522</ele>
        <time>2026-08-14T08:54:45.540Z</time>
      </trkpt>
      <trkpt lat="45.78197" lon="6.72322">
        <ele>1523</ele>
        <time>2026-08-14T08:54:46.540Z</time>
      </trkpt>
      <trkpt lat="45.78199" lon="6.72322">
        <ele>1523</ele>
        <time>2026-08-14T08:54:47.540Z</time>
      </trkpt>
      <trkpt lat="45.78202" lon="6.72323">
        <ele>1524</ele>
        <time>2026-08-14T08:54:48.540Z</time>
      </trkpt>
      <trkpt lat="45.78203" lon="6.72324">
        <ele>1524</ele>
        <time>2026-08-14T08:54:49.540Z</time>
      </trkpt>
      <trkpt lat="45.78205" lon="6.72324">
        <ele>1524</ele>
        <time>2026-08-14T08:54:50.540Z</time>
      </trkpt>
      <trkpt lat="45.78206" lon="6.72324">
        <ele>1525</ele>
        <time>2026-08-14T08:54:51.540Z</time>
      </trkpt>
      <trkpt lat="45.78208" lon="6.72324">
        <ele>1525</ele>
        <time>2026-08-14T08:54:52.540Z</time>
      </trkpt>
      <trkpt lat="45.78209" lon="6.72325">
        <ele>1525</ele>
        <time>2026-08-14T08:54:53.540Z</time>
      </trkpt>
      <trkpt lat="45.78211" lon="6.72325">
        <ele>1525</ele>
        <time>2026-08-14T08:54:54.540Z</time>
      </trkpt>
      <trkpt lat="45.78212" lon="6.72325">
        <ele>1525</ele>
        <time>2026-08-14T08:54:55.540Z</time>
      </trkpt>
      <trkpt lat="45.78213" lon="6.72324">
        <ele>1525</ele>
        <time>2026-08-14T08:54:56.540Z</time>
      </trkpt>
      <trkpt lat="45.78215" lon="6.72324">
        <ele>1525</ele>
        <time>2026-08-14T08:54:57.540Z</time>
      </trkpt>
      <trkpt lat="45.78216" lon="6.72324">
        <ele>1525</ele>
        <time>2026-08-14T08:54:58.540Z</time>
      </trkpt>
      <trkpt lat="45.78219" lon="6.72325">
        <ele>1525</ele>
        <time>2026-08-14T08:54:59.540Z</time>
      </trkpt>
      <trkpt lat="45.78221" lon="6.72326">
        <ele>1525</ele>
        <time>2026-08-14T08:55:00.540Z</time>
      </trkpt>
      <trkpt lat="45.78222" lon="6.72327">
        <ele>1525</ele>
        <time>2026-08-14T08:55:01.540Z</time>
      </trkpt>
      <trkpt lat="45.78223" lon="6.72328">
        <ele>1525</ele>
        <time>2026-08-14T08:55:02.540Z</time>
      </trkpt>
      <trkpt lat="45.78224" lon="6.72327">
        <ele>1525</ele>
        <time>2026-08-14T08:55:03.540Z</time>
      </trkpt>
      <trkpt lat="45.78223" lon="6.72326">
        <ele>1525</ele>
        <time>2026-08-14T08:55:04.540Z</time>
      </trkpt>
      <trkpt lat="45.78224" lon="6.72324">
        <ele>1525</ele>
        <time>2026-08-14T08:55:05.540Z</time>
      </trkpt>
      <trkpt lat="45.78226" lon="6.72323">
        <ele>1526</ele>
        <time>2026-08-14T08:55:06.540Z</time>
      </trkpt>
      <trkpt lat="45.78227" lon="6.72323">
        <ele>1526</ele>
        <time>2026-08-14T08:55:07.540Z</time>
      </trkpt>
      <trkpt lat="45.78229" lon="6.72324">
        <ele>1526</ele>
        <time>2026-08-14T08:55:08.540Z</time>
      </trkpt>
      <trkpt lat="45.78231" lon="6.72324">
        <ele>1526</ele>
        <time>2026-08-14T08:55:09.540Z</time>
      </trkpt>
      <trkpt lat="45.78232" lon="6.72323">
        <ele>1525</ele>
        <time>2026-08-14T08:55:10.540Z</time>
      </trkpt>
      <trkpt lat="45.78233" lon="6.72322">
        <ele>1525</ele>
        <time>2026-08-14T08:55:11.540Z</time>
      </trkpt>
      <trkpt lat="45.78234" lon="6.72321">
        <ele>1526</ele>
        <time>2026-08-14T08:55:12.540Z</time>
      </trkpt>
      <trkpt lat="45.78234" lon="6.7232">
        <ele>1526</ele>
        <time>2026-08-14T08:55:13.540Z</time>
      </trkpt>
      <trkpt lat="45.78235" lon="6.7232">
        <ele>1526</ele>
        <time>2026-08-14T08:55:14.540Z</time>
      </trkpt>
      <trkpt lat="45.78237" lon="6.72319">
        <ele>1526</ele>
        <time>2026-08-14T08:55:15.540Z</time>
      </trkpt>
      <trkpt lat="45.78238" lon="6.72319">
        <ele>1526</ele>
        <time>2026-08-14T08:55:16.540Z</time>
      </trkpt>
      <trkpt lat="45.78239" lon="6.72317">
        <ele>1527</ele>
        <time>2026-08-14T08:55:17.540Z</time>
      </trkpt>
      <trkpt lat="45.7824" lon="6.72316">
        <ele>1527</ele>
        <time>2026-08-14T08:55:18.540Z</time>
      </trkpt>
      <trkpt lat="45.78241" lon="6.72315">
        <ele>1527</ele>
        <time>2026-08-14T08:55:19.540Z</time>
      </trkpt>
      <trkpt lat="45.78243" lon="6.72315">
        <ele>1527</ele>
        <time>2026-08-14T08:55:20.540Z</time>
      </trkpt>
      <trkpt lat="45.78244" lon="6.72315">
        <ele>1527</ele>
        <time>2026-08-14T08:55:21.540Z</time>
      </trkpt>
      <trkpt lat="45.78245" lon="6.72315">
        <ele>1527</ele>
        <time>2026-08-14T08:55:22.540Z</time>
      </trkpt>
      <trkpt lat="45.78247" lon="6.72315">
        <ele>1527</ele>
        <time>2026-08-14T08:55:23.540Z</time>
      </trkpt>
      <trkpt lat="45.78249" lon="6.72315">
        <ele>1527</ele>
        <time>2026-08-14T08:55:24.540Z</time>
      </trkpt>
      <trkpt lat="45.7825" lon="6.72315">
        <ele>1527</ele>
        <time>2026-08-14T08:55:25.540Z</time>
      </trkpt>
      <trkpt lat="45.78252" lon="6.72315">
        <ele>1527</ele>
        <time>2026-08-14T08:55:26.540Z</time>
      </trkpt>
      <trkpt lat="45.78253" lon="6.72315">
        <ele>1527</ele>
        <time>2026-08-14T08:55:27.540Z</time>
      </trkpt>
      <trkpt lat="45.78254" lon="6.72315">
        <ele>1527</ele>
        <time>2026-08-14T08:55:28.540Z</time>
      </trkpt>
      <trkpt lat="45.78256" lon="6.72316">
        <ele>1528</ele>
        <time>2026-08-14T08:55:29.540Z</time>
      </trkpt>
      <trkpt lat="45.78258" lon="6.72317">
        <ele>1528</ele>
        <time>2026-08-14T08:55:30.540Z</time>
      </trkpt>
      <trkpt lat="45.78259" lon="6.72317">
        <ele>1528</ele>
        <time>2026-08-14T08:55:31.540Z</time>
      </trkpt>
      <trkpt lat="45.78261" lon="6.72317">
        <ele>1529</ele>
        <time>2026-08-14T08:55:32.540Z</time>
      </trkpt>
      <trkpt lat="45.78263" lon="6.72318">
        <ele>1529</ele>
        <time>2026-08-14T08:55:33.540Z</time>
      </trkpt>
      <trkpt lat="45.78264" lon="6.72318">
        <ele>1530</ele>
        <time>2026-08-14T08:55:34.540Z</time>
      </trkpt>
      <trkpt lat="45.78266" lon="6.72319">
        <ele>1530</ele>
        <time>2026-08-14T08:55:35.540Z</time>
      </trkpt>
      <trkpt lat="45.78267" lon="6.7232">
        <ele>1531</ele>
        <time>2026-08-14T08:55:36.540Z</time>
      </trkpt>
      <trkpt lat="45.78269" lon="6.72321">
        <ele>1531</ele>
        <time>2026-08-14T08:55:37.540Z</time>
      </trkpt>
      <trkpt lat="45.78271" lon="6.72321">
        <ele>1532</ele>
        <time>2026-08-14T08:55:38.540Z</time>
      </trkpt>
      <trkpt lat="45.78272" lon="6.72322">
        <ele>1532</ele>
        <time>2026-08-14T08:55:39.540Z</time>
      </trkpt>
      <trkpt lat="45.78274" lon="6.72322">
        <ele>1532</ele>
        <time>2026-08-14T08:55:40.540Z</time>
      </trkpt>
      <trkpt lat="45.78275" lon="6.72322">
        <ele>1533</ele>
        <time>2026-08-14T08:55:41.540Z</time>
      </trkpt>
      <trkpt lat="45.78277" lon="6.72321">
        <ele>1533</ele>
        <time>2026-08-14T08:55:42.540Z</time>
      </trkpt>
      <trkpt lat="45.78278" lon="6.72321">
        <ele>1533</ele>
        <time>2026-08-14T08:55:43.540Z</time>
      </trkpt>
      <trkpt lat="45.78279" lon="6.7232">
        <ele>1533</ele>
        <time>2026-08-14T08:55:44.540Z</time>
      </trkpt>
      <trkpt lat="45.78281" lon="6.7232">
        <ele>1533</ele>
        <time>2026-08-14T08:55:45.540Z</time>
      </trkpt>
      <trkpt lat="45.78282" lon="6.7232">
        <ele>1533</ele>
        <time>2026-08-14T08:55:46.540Z</time>
      </trkpt>
      <trkpt lat="45.78283" lon="6.7232">
        <ele>1533</ele>
        <time>2026-08-14T08:55:47.540Z</time>
      </trkpt>
      <trkpt lat="45.78285" lon="6.7232">
        <ele>1533</ele>
        <time>2026-08-14T08:55:48.540Z</time>
      </trkpt>
      <trkpt lat="45.78286" lon="6.72319">
        <ele>1533</ele>
        <time>2026-08-14T08:55:49.540Z</time>
      </trkpt>
      <trkpt lat="45.78287" lon="6.72319">
        <ele>1533</ele>
        <time>2026-08-14T08:55:50.540Z</time>
      </trkpt>
      <trkpt lat="45.78288" lon="6.72319">
        <ele>1533</ele>
        <time>2026-08-14T08:55:51.540Z</time>
      </trkpt>
      <trkpt lat="45.7829" lon="6.72319">
        <ele>1533</ele>
        <time>2026-08-14T08:55:52.540Z</time>
      </trkpt>
      <trkpt lat="45.78292" lon="6.72318">
        <ele>1533</ele>
        <time>2026-08-14T08:55:53.540Z</time>
      </trkpt>
      <trkpt lat="45.78294" lon="6.72319">
        <ele>1533</ele>
        <time>2026-08-14T08:55:54.540Z</time>
      </trkpt>
      <trkpt lat="45.78295" lon="6.72319">
        <ele>1534</ele>
        <time>2026-08-14T08:55:55.540Z</time>
      </trkpt>
      <trkpt lat="45.78297" lon="6.72319">
        <ele>1534</ele>
        <time>2026-08-14T08:55:56.540Z</time>
      </trkpt>
      <trkpt lat="45.78298" lon="6.7232">
        <ele>1534</ele>
        <time>2026-08-14T08:55:57.540Z</time>
      </trkpt>
      <trkpt lat="45.783" lon="6.7232">
        <ele>1534</ele>
        <time>2026-08-14T08:55:58.540Z</time>
      </trkpt>
      <trkpt lat="45.78301" lon="6.72319">
        <ele>1534</ele>
        <time>2026-08-14T08:55:59.540Z</time>
      </trkpt>
      <trkpt lat="45.78302" lon="6.72319">
        <ele>1534</ele>
        <time>2026-08-14T08:56:00.540Z</time>
      </trkpt>
      <trkpt lat="45.78302" lon="6.72318">
        <ele>1534</ele>
        <time>2026-08-14T08:56:01.540Z</time>
      </trkpt>
      <trkpt lat="45.78304" lon="6.72318">
        <ele>1534</ele>
        <time>2026-08-14T08:56:02.540Z</time>
      </trkpt>
      <trkpt lat="45.78305" lon="6.72319">
        <ele>1534</ele>
        <time>2026-08-14T08:56:03.540Z</time>
      </trkpt>
      <trkpt lat="45.78307" lon="6.7232">
        <ele>1534</ele>
        <time>2026-08-14T08:56:04.540Z</time>
      </trkpt>
      <trkpt lat="45.7831" lon="6.7232">
        <ele>1534</ele>
        <time>2026-08-14T08:56:05.540Z</time>
      </trkpt>
      <trkpt lat="45.78312" lon="6.7232">
        <ele>1534</ele>
        <time>2026-08-14T08:56:06.540Z</time>
      </trkpt>
      <trkpt lat="45.78314" lon="6.72321">
        <ele>1534</ele>
        <time>2026-08-14T08:56:07.540Z</time>
      </trkpt>
      <trkpt lat="45.78316" lon="6.72322">
        <ele>1534</ele>
        <time>2026-08-14T08:56:08.540Z</time>
      </trkpt>
      <trkpt lat="45.78318" lon="6.72323">
        <ele>1535</ele>
        <time>2026-08-14T08:56:09.540Z</time>
      </trkpt>
      <trkpt lat="45.78319" lon="6.72324">
        <ele>1535</ele>
        <time>2026-08-14T08:56:10.540Z</time>
      </trkpt>
      <trkpt lat="45.78321" lon="6.72326">
        <ele>1536</ele>
        <time>2026-08-14T08:56:11.540Z</time>
      </trkpt>
      <trkpt lat="45.78321" lon="6.72327">
        <ele>1536</ele>
        <time>2026-08-14T08:56:12.540Z</time>
      </trkpt>
      <trkpt lat="45.78321" lon="6.72327">
        <ele>1536</ele>
        <time>2026-08-14T08:56:13.540Z</time>
      </trkpt>
      <trkpt lat="45.78321" lon="6.72328">
        <ele>1537</ele>
        <time>2026-08-14T08:56:14.540Z</time>
      </trkpt>
      <trkpt lat="45.78322" lon="6.72328">
        <ele>1537</ele>
        <time>2026-08-14T08:56:15.540Z</time>
      </trkpt>
      <trkpt lat="45.78323" lon="6.72329">
        <ele>1537</ele>
        <time>2026-08-14T08:56:16.540Z</time>
      </trkpt>
      <trkpt lat="45.78325" lon="6.72328">
        <ele>1537</ele>
        <time>2026-08-14T08:56:17.540Z</time>
      </trkpt>
      <trkpt lat="45.78326" lon="6.72328">
        <ele>1538</ele>
        <time>2026-08-14T08:56:18.540Z</time>
      </trkpt>
      <trkpt lat="45.78328" lon="6.72326">
        <ele>1538</ele>
        <time>2026-08-14T08:56:19.540Z</time>
      </trkpt>
      <trkpt lat="45.78329" lon="6.72326">
        <ele>1538</ele>
        <time>2026-08-14T08:56:20.540Z</time>
      </trkpt>
      <trkpt lat="45.7833" lon="6.72326">
        <ele>1539</ele>
        <time>2026-08-14T08:56:21.540Z</time>
      </trkpt>
      <trkpt lat="45.78331" lon="6.72325">
        <ele>1539</ele>
        <time>2026-08-14T08:56:22.540Z</time>
      </trkpt>
      <trkpt lat="45.78332" lon="6.72324">
        <ele>1539</ele>
        <time>2026-08-14T08:56:23.540Z</time>
      </trkpt>
      <trkpt lat="45.78333" lon="6.72325">
        <ele>1540</ele>
        <time>2026-08-14T08:56:24.540Z</time>
      </trkpt>
      <trkpt lat="45.78333" lon="6.72325">
        <ele>1540</ele>
        <time>2026-08-14T08:56:25.540Z</time>
      </trkpt>
      <trkpt lat="45.78334" lon="6.72326">
        <ele>1540</ele>
        <time>2026-08-14T08:56:26.540Z</time>
      </trkpt>
      <trkpt lat="45.78335" lon="6.72327">
        <ele>1541</ele>
        <time>2026-08-14T08:56:27.540Z</time>
      </trkpt>
      <trkpt lat="45.78335" lon="6.72327">
        <ele>1541</ele>
        <time>2026-08-14T08:56:28.540Z</time>
      </trkpt>
      <trkpt lat="45.78335" lon="6.72328">
        <ele>1541</ele>
        <time>2026-08-14T08:56:29.540Z</time>
      </trkpt>
      <trkpt lat="45.78336" lon="6.72329">
        <ele>1542</ele>
        <time>2026-08-14T08:56:30.540Z</time>
      </trkpt>
      <trkpt lat="45.78337" lon="6.72329">
        <ele>1542</ele>
        <time>2026-08-14T08:56:31.540Z</time>
      </trkpt>
      <trkpt lat="45.78338" lon="6.7233">
        <ele>1542</ele>
        <time>2026-08-14T08:56:32.540Z</time>
      </trkpt>
      <trkpt lat="45.78339" lon="6.7233">
        <ele>1543</ele>
        <time>2026-08-14T08:56:33.540Z</time>
      </trkpt>
      <trkpt lat="45.7834" lon="6.72331">
        <ele>1543</ele>
        <time>2026-08-14T08:56:34.540Z</time>
      </trkpt>
      <trkpt lat="45.78341" lon="6.72331">
        <ele>1544</ele>
        <time>2026-08-14T08:56:35.540Z</time>
      </trkpt>
      <trkpt lat="45.78343" lon="6.72331">
        <ele>1545</ele>
        <time>2026-08-14T08:56:36.540Z</time>
      </trkpt>
      <trkpt lat="45.78344" lon="6.72331">
        <ele>1546</ele>
        <time>2026-08-14T08:56:37.540Z</time>
      </trkpt>
      <trkpt lat="45.78345" lon="6.72331">
        <ele>1546</ele>
        <time>2026-08-14T08:56:38.540Z</time>
      </trkpt>
      <trkpt lat="45.78346" lon="6.72331">
        <ele>1547</ele>
        <time>2026-08-14T08:56:39.540Z</time>
      </trkpt>
      <trkpt lat="45.78347" lon="6.7233">
        <ele>1548</ele>
        <time>2026-08-14T08:56:40.540Z</time>
      </trkpt>
      <trkpt lat="45.78348" lon="6.7233">
        <ele>1548</ele>
        <time>2026-08-14T08:56:41.540Z</time>
      </trkpt>
      <trkpt lat="45.78349" lon="6.7233">
        <ele>1549</ele>
        <time>2026-08-14T08:56:42.540Z</time>
      </trkpt>
      <trkpt lat="45.7835" lon="6.7233">
        <ele>1550</ele>
        <time>2026-08-14T08:56:43.540Z</time>
      </trkpt>
      <trkpt lat="45.78351" lon="6.7233">
        <ele>1550</ele>
        <time>2026-08-14T08:56:44.540Z</time>
      </trkpt>
      <trkpt lat="45.78353" lon="6.7233">
        <ele>1551</ele>
        <time>2026-08-14T08:56:45.540Z</time>
      </trkpt>
      <trkpt lat="45.78353" lon="6.7233">
        <ele>1551</ele>
        <time>2026-08-14T08:56:46.540Z</time>
      </trkpt>
      <trkpt lat="45.78353" lon="6.7233">
        <ele>1552</ele>
        <time>2026-08-14T08:56:47.540Z</time>
      </trkpt>
      <trkpt lat="45.78354" lon="6.72331">
        <ele>1553</ele>
        <time>2026-08-14T08:56:48.540Z</time>
      </trkpt>
      <trkpt lat="45.78354" lon="6.72332">
        <ele>1553</ele>
        <time>2026-08-14T08:56:49.540Z</time>
      </trkpt>
      <trkpt lat="45.78354" lon="6.72333">
        <ele>1554</ele>
        <time>2026-08-14T08:56:50.540Z</time>
      </trkpt>
      <trkpt lat="45.78355" lon="6.72333">
        <ele>1554</ele>
        <time>2026-08-14T08:56:51.540Z</time>
      </trkpt>
      <trkpt lat="45.78355" lon="6.72334">
        <ele>1554</ele>
        <time>2026-08-14T08:56:52.540Z</time>
      </trkpt>
      <trkpt lat="45.78355" lon="6.72335">
        <ele>1555</ele>
        <time>2026-08-14T08:56:53.540Z</time>
      </trkpt>
      <trkpt lat="45.78355" lon="6.72335">
        <ele>1555</ele>
        <time>2026-08-14T08:56:54.540Z</time>
      </trkpt>
      <trkpt lat="45.78356" lon="6.72335">
        <ele>1555</ele>
        <time>2026-08-14T08:56:55.540Z</time>
      </trkpt>
      <trkpt lat="45.78357" lon="6.72336">
        <ele>1556</ele>
        <time>2026-08-14T08:56:56.540Z</time>
      </trkpt>
      <trkpt lat="45.78358" lon="6.72336">
        <ele>1556</ele>
        <time>2026-08-14T08:56:57.540Z</time>
      </trkpt>
      <trkpt lat="45.78359" lon="6.72337">
        <ele>1556</ele>
        <time>2026-08-14T08:56:58.540Z</time>
      </trkpt>
      <trkpt lat="45.7836" lon="6.72337">
        <ele>1557</ele>
        <time>2026-08-14T08:56:59.540Z</time>
      </trkpt>
      <trkpt lat="45.78361" lon="6.72337">
        <ele>1557</ele>
        <time>2026-08-14T08:57:00.540Z</time>
      </trkpt>
      <trkpt lat="45.78362" lon="6.72337">
        <ele>1557</ele>
        <time>2026-08-14T08:57:01.540Z</time>
      </trkpt>
      <trkpt lat="45.78362" lon="6.72337">
        <ele>1556</ele>
        <time>2026-08-14T08:57:02.540Z</time>
      </trkpt>
      <trkpt lat="45.78362" lon="6.72337">
        <ele>1556</ele>
        <time>2026-08-14T08:57:03.540Z</time>
      </trkpt>
      <trkpt lat="45.78363" lon="6.72337">
        <ele>1556</ele>
        <time>2026-08-14T08:57:04.540Z</time>
      </trkpt>
      <trkpt lat="45.78364" lon="6.72338">
        <ele>1555</ele>
        <time>2026-08-14T08:57:05.540Z</time>
      </trkpt>
      <trkpt lat="45.78366" lon="6.72338">
        <ele>1555</ele>
        <time>2026-08-14T08:57:06.540Z</time>
      </trkpt>
      <trkpt lat="45.78367" lon="6.72338">
        <ele>1555</ele>
        <time>2026-08-14T08:57:07.540Z</time>
      </trkpt>
      <trkpt lat="45.78368" lon="6.72338">
        <ele>1555</ele>
        <time>2026-08-14T08:57:08.540Z</time>
      </trkpt>
      <trkpt lat="45.78369" lon="6.72338">
        <ele>1555</ele>
        <time>2026-08-14T08:57:09.540Z</time>
      </trkpt>
      <trkpt lat="45.78369" lon="6.72338">
        <ele>1555</ele>
        <time>2026-08-14T08:57:10.540Z</time>
      </trkpt>
      <trkpt lat="45.7837" lon="6.72337">
        <ele>1556</ele>
        <time>2026-08-14T08:57:11.540Z</time>
      </trkpt>
      <trkpt lat="45.78371" lon="6.72337">
        <ele>1556</ele>
        <time>2026-08-14T08:57:12.540Z</time>
      </trkpt>
      <trkpt lat="45.78372" lon="6.72336">
        <ele>1556</ele>
        <time>2026-08-14T08:57:13.540Z</time>
      </trkpt>
      <trkpt lat="45.78373" lon="6.72336">
        <ele>1555</ele>
        <time>2026-08-14T08:57:14.540Z</time>
      </trkpt>
      <trkpt lat="45.78374" lon="6.72336">
        <ele>1555</ele>
        <time>2026-08-14T08:57:15.540Z</time>
      </trkpt>
      <trkpt lat="45.78375" lon="6.72336">
        <ele>1555</ele>
        <time>2026-08-14T08:57:16.540Z</time>
      </trkpt>
      <trkpt lat="45.78376" lon="6.72336">
        <ele>1555</ele>
        <time>2026-08-14T08:57:17.540Z</time>
      </trkpt>
      <trkpt lat="45.78377" lon="6.72336">
        <ele>1555</ele>
        <time>2026-08-14T08:57:18.540Z</time>
      </trkpt>
      <trkpt lat="45.78379" lon="6.72334">
        <ele>1555</ele>
        <time>2026-08-14T08:57:19.540Z</time>
      </trkpt>
      <trkpt lat="45.78381" lon="6.72334">
        <ele>1555</ele>
        <time>2026-08-14T08:57:20.540Z</time>
      </trkpt>
      <trkpt lat="45.78383" lon="6.72334">
        <ele>1556</ele>
        <time>2026-08-14T08:57:21.540Z</time>
      </trkpt>
      <trkpt lat="45.78384" lon="6.72333">
        <ele>1556</ele>
        <time>2026-08-14T08:57:22.540Z</time>
      </trkpt>
      <trkpt lat="45.78386" lon="6.72333">
        <ele>1556</ele>
        <time>2026-08-14T08:57:23.540Z</time>
      </trkpt>
      <trkpt lat="45.78387" lon="6.72333">
        <ele>1557</ele>
        <time>2026-08-14T08:57:24.540Z</time>
      </trkpt>
      <trkpt lat="45.78389" lon="6.72332">
        <ele>1557</ele>
        <time>2026-08-14T08:57:25.540Z</time>
      </trkpt>
      <trkpt lat="45.78389" lon="6.72332">
        <ele>1558</ele>
        <time>2026-08-14T08:57:26.540Z</time>
      </trkpt>
      <trkpt lat="45.7839" lon="6.72332">
        <ele>1558</ele>
        <time>2026-08-14T08:57:27.540Z</time>
      </trkpt>
      <trkpt lat="45.78391" lon="6.72332">
        <ele>1558</ele>
        <time>2026-08-14T08:57:28.540Z</time>
      </trkpt>
      <trkpt lat="45.78391" lon="6.72331">
        <ele>1559</ele>
        <time>2026-08-14T08:57:29.540Z</time>
      </trkpt>
      <trkpt lat="45.78392" lon="6.72331">
        <ele>1559</ele>
        <time>2026-08-14T08:57:30.540Z</time>
      </trkpt>
      <trkpt lat="45.78393" lon="6.72331">
        <ele>1559</ele>
        <time>2026-08-14T08:57:31.540Z</time>
      </trkpt>
      <trkpt lat="45.78394" lon="6.72331">
        <ele>1559</ele>
        <time>2026-08-14T08:57:32.540Z</time>
      </trkpt>
      <trkpt lat="45.78396" lon="6.72331">
        <ele>1559</ele>
        <time>2026-08-14T08:57:33.540Z</time>
      </trkpt>
      <trkpt lat="45.78397" lon="6.7233">
        <ele>1559</ele>
        <time>2026-08-14T08:57:34.540Z</time>
      </trkpt>
      <trkpt lat="45.78398" lon="6.72329">
        <ele>1559</ele>
        <time>2026-08-14T08:57:35.540Z</time>
      </trkpt>
      <trkpt lat="45.78399" lon="6.72329">
        <ele>1559</ele>
        <time>2026-08-14T08:57:36.540Z</time>
      </trkpt>
      <trkpt lat="45.78401" lon="6.72329">
        <ele>1559</ele>
        <time>2026-08-14T08:57:37.540Z</time>
      </trkpt>
      <trkpt lat="45.78402" lon="6.72329">
        <ele>1559</ele>
        <time>2026-08-14T08:57:38.540Z</time>
      </trkpt>
      <trkpt lat="45.78403" lon="6.7233">
        <ele>1558</ele>
        <time>2026-08-14T08:57:39.540Z</time>
      </trkpt>
      <trkpt lat="45.78404" lon="6.7233">
        <ele>1559</ele>
        <time>2026-08-14T08:57:40.540Z</time>
      </trkpt>
      <trkpt lat="45.78405" lon="6.7233">
        <ele>1559</ele>
        <time>2026-08-14T08:57:41.540Z</time>
      </trkpt>
      <trkpt lat="45.78406" lon="6.7233">
        <ele>1559</ele>
        <time>2026-08-14T08:57:42.540Z</time>
      </trkpt>
      <trkpt lat="45.78407" lon="6.72329">
        <ele>1560</ele>
        <time>2026-08-14T08:57:43.540Z</time>
      </trkpt>
      <trkpt lat="45.78408" lon="6.72329">
        <ele>1560</ele>
        <time>2026-08-14T08:57:44.540Z</time>
      </trkpt>
      <trkpt lat="45.78409" lon="6.7233">
        <ele>1561</ele>
        <time>2026-08-14T08:57:45.540Z</time>
      </trkpt>
      <trkpt lat="45.78409" lon="6.7233">
        <ele>1561</ele>
        <time>2026-08-14T08:57:46.540Z</time>
      </trkpt>
      <trkpt lat="45.7841" lon="6.72329">
        <ele>1561</ele>
        <time>2026-08-14T08:57:47.540Z</time>
      </trkpt>
      <trkpt lat="45.7841" lon="6.72329">
        <ele>1562</ele>
        <time>2026-08-14T08:57:48.540Z</time>
      </trkpt>
      <trkpt lat="45.78411" lon="6.72328">
        <ele>1562</ele>
        <time>2026-08-14T08:57:49.540Z</time>
      </trkpt>
      <trkpt lat="45.78412" lon="6.72328">
        <ele>1562</ele>
        <time>2026-08-14T08:57:50.540Z</time>
      </trkpt>
      <trkpt lat="45.78412" lon="6.72328">
        <ele>1562</ele>
        <time>2026-08-14T08:57:51.540Z</time>
      </trkpt>
      <trkpt lat="45.78412" lon="6.72328">
        <ele>1562</ele>
        <time>2026-08-14T08:57:52.540Z</time>
      </trkpt>
      <trkpt lat="45.78412" lon="6.72328">
        <ele>1562</ele>
        <time>2026-08-14T08:57:53.540Z</time>
      </trkpt>
      <trkpt lat="45.78412" lon="6.72328">
        <ele>1562</ele>
        <time>2026-08-14T08:57:54.540Z</time>
      </trkpt>
      <trkpt lat="45.78413" lon="6.72328">
        <ele>1562</ele>
        <time>2026-08-14T08:57:55.540Z</time>
      </trkpt>
      <trkpt lat="45.78413" lon="6.72329">
        <ele>1562</ele>
        <time>2026-08-14T08:57:56.540Z</time>
      </trkpt>
      <trkpt lat="45.78414" lon="6.72329">
        <ele>1562</ele>
        <time>2026-08-14T08:57:57.540Z</time>
      </trkpt>
      <trkpt lat="45.78414" lon="6.72329">
        <ele>1561</ele>
        <time>2026-08-14T08:57:58.540Z</time>
      </trkpt>
      <trkpt lat="45.78414" lon="6.72329">
        <ele>1561</ele>
        <time>2026-08-14T08:57:59.540Z</time>
      </trkpt>
      <trkpt lat="45.78415" lon="6.72329">
        <ele>1561</ele>
        <time>2026-08-14T08:58:00.540Z</time>
      </trkpt>
      <trkpt lat="45.78417" lon="6.72329">
        <ele>1561</ele>
        <time>2026-08-14T08:58:01.540Z</time>
      </trkpt>
      <trkpt lat="45.78417" lon="6.7233">
        <ele>1561</ele>
        <time>2026-08-14T08:58:02.540Z</time>
      </trkpt>
      <trkpt lat="45.78417" lon="6.7233">
        <ele>1561</ele>
        <time>2026-08-14T08:58:03.540Z</time>
      </trkpt>
      <trkpt lat="45.78418" lon="6.7233">
        <ele>1561</ele>
        <time>2026-08-14T08:58:04.540Z</time>
      </trkpt>
      <trkpt lat="45.78419" lon="6.7233">
        <ele>1561</ele>
        <time>2026-08-14T08:58:05.540Z</time>
      </trkpt>
      <trkpt lat="45.7842" lon="6.7233">
        <ele>1561</ele>
        <time>2026-08-14T08:58:06.540Z</time>
      </trkpt>
      <trkpt lat="45.78421" lon="6.7233">
        <ele>1561</ele>
        <time>2026-08-14T08:58:07.540Z</time>
      </trkpt>
      <trkpt lat="45.78422" lon="6.72331">
        <ele>1561</ele>
        <time>2026-08-14T08:58:08.540Z</time>
      </trkpt>
      <trkpt lat="45.78423" lon="6.72332">
        <ele>1561</ele>
        <time>2026-08-14T08:58:09.540Z</time>
      </trkpt>
      <trkpt lat="45.78424" lon="6.72332">
        <ele>1561</ele>
        <time>2026-08-14T08:58:10.540Z</time>
      </trkpt>
      <trkpt lat="45.78425" lon="6.72333">
        <ele>1562</ele>
        <time>2026-08-14T08:58:11.540Z</time>
      </trkpt>
      <trkpt lat="45.78426" lon="6.72333">
        <ele>1562</ele>
        <time>2026-08-14T08:58:12.540Z</time>
      </trkpt>
      <trkpt lat="45.78427" lon="6.72332">
        <ele>1562</ele>
        <time>2026-08-14T08:58:13.540Z</time>
      </trkpt>
      <trkpt lat="45.78427" lon="6.72332">
        <ele>1562</ele>
        <time>2026-08-14T08:58:14.540Z</time>
      </trkpt>
      <trkpt lat="45.78428" lon="6.72332">
        <ele>1562</ele>
        <time>2026-08-14T08:58:15.540Z</time>
      </trkpt>
      <trkpt lat="45.78429" lon="6.72332">
        <ele>1562</ele>
        <time>2026-08-14T08:58:16.540Z</time>
      </trkpt>
      <trkpt lat="45.7843" lon="6.72332">
        <ele>1562</ele>
        <time>2026-08-14T08:58:17.540Z</time>
      </trkpt>
      <trkpt lat="45.78431" lon="6.72333">
        <ele>1562</ele>
        <time>2026-08-14T08:58:18.540Z</time>
      </trkpt>
      <trkpt lat="45.78432" lon="6.72333">
        <ele>1562</ele>
        <time>2026-08-14T08:58:19.540Z</time>
      </trkpt>
      <trkpt lat="45.78433" lon="6.72334">
        <ele>1562</ele>
        <time>2026-08-14T08:58:20.540Z</time>
      </trkpt>
      <trkpt lat="45.78434" lon="6.72334">
        <ele>1562</ele>
        <time>2026-08-14T08:58:21.540Z</time>
      </trkpt>
      <trkpt lat="45.78434" lon="6.72334">
        <ele>1562</ele>
        <time>2026-08-14T08:58:22.540Z</time>
      </trkpt>
      <trkpt lat="45.78435" lon="6.72334">
        <ele>1562</ele>
        <time>2026-08-14T08:58:23.540Z</time>
      </trkpt>
      <trkpt lat="45.78436" lon="6.72334">
        <ele>1562</ele>
        <time>2026-08-14T08:58:24.540Z</time>
      </trkpt>
      <trkpt lat="45.78438" lon="6.72334">
        <ele>1562</ele>
        <time>2026-08-14T08:58:25.540Z</time>
      </trkpt>
      <trkpt lat="45.78438" lon="6.72333">
        <ele>1562</ele>
        <time>2026-08-14T08:58:26.540Z</time>
      </trkpt>
      <trkpt lat="45.78439" lon="6.72332">
        <ele>1562</ele>
        <time>2026-08-14T08:58:27.540Z</time>
      </trkpt>
      <trkpt lat="45.78439" lon="6.72332">
        <ele>1562</ele>
        <time>2026-08-14T08:58:28.540Z</time>
      </trkpt>
      <trkpt lat="45.7844" lon="6.72332">
        <ele>1561</ele>
        <time>2026-08-14T08:58:29.540Z</time>
      </trkpt>
      <trkpt lat="45.78441" lon="6.72332">
        <ele>1561</ele>
        <time>2026-08-14T08:58:30.540Z</time>
      </trkpt>
      <trkpt lat="45.78442" lon="6.72333">
        <ele>1561</ele>
        <time>2026-08-14T08:58:31.540Z</time>
      </trkpt>
      <trkpt lat="45.78443" lon="6.72333">
        <ele>1561</ele>
        <time>2026-08-14T08:58:32.540Z</time>
      </trkpt>
      <trkpt lat="45.78444" lon="6.72334">
        <ele>1561</ele>
        <time>2026-08-14T08:58:33.540Z</time>
      </trkpt>
      <trkpt lat="45.78445" lon="6.72334">
        <ele>1562</ele>
        <time>2026-08-14T08:58:34.540Z</time>
      </trkpt>
      <trkpt lat="45.78446" lon="6.72334">
        <ele>1562</ele>
        <time>2026-08-14T08:58:35.540Z</time>
      </trkpt>
      <trkpt lat="45.78447" lon="6.72334">
        <ele>1563</ele>
        <time>2026-08-14T08:58:36.540Z</time>
      </trkpt>
      <trkpt lat="45.78449" lon="6.72334">
        <ele>1564</ele>
        <time>2026-08-14T08:58:37.540Z</time>
      </trkpt>
      <trkpt lat="45.7845" lon="6.72334">
        <ele>1564</ele>
        <time>2026-08-14T08:58:38.540Z</time>
      </trkpt>
      <trkpt lat="45.78451" lon="6.72333">
        <ele>1565</ele>
        <time>2026-08-14T08:58:39.540Z</time>
      </trkpt>
      <trkpt lat="45.78453" lon="6.72333">
        <ele>1565</ele>
        <time>2026-08-14T08:58:40.540Z</time>
      </trkpt>
      <trkpt lat="45.78454" lon="6.72333">
        <ele>1566</ele>
        <time>2026-08-14T08:58:41.540Z</time>
      </trkpt>
      <trkpt lat="45.78456" lon="6.72334">
        <ele>1566</ele>
        <time>2026-08-14T08:58:42.540Z</time>
      </trkpt>
      <trkpt lat="45.78457" lon="6.72335">
        <ele>1566</ele>
        <time>2026-08-14T08:58:43.540Z</time>
      </trkpt>
      <trkpt lat="45.78458" lon="6.72335">
        <ele>1566</ele>
        <time>2026-08-14T08:58:44.540Z</time>
      </trkpt>
      <trkpt lat="45.78459" lon="6.72335">
        <ele>1566</ele>
        <time>2026-08-14T08:58:45.540Z</time>
      </trkpt>
      <trkpt lat="45.7846" lon="6.72336">
        <ele>1566</ele>
        <time>2026-08-14T08:58:46.540Z</time>
      </trkpt>
      <trkpt lat="45.78462" lon="6.72336">
        <ele>1567</ele>
        <time>2026-08-14T08:58:47.540Z</time>
      </trkpt>
      <trkpt lat="45.78463" lon="6.72337">
        <ele>1567</ele>
        <time>2026-08-14T08:58:48.540Z</time>
      </trkpt>
      <trkpt lat="45.78465" lon="6.72337">
        <ele>1567</ele>
        <time>2026-08-14T08:58:49.540Z</time>
      </trkpt>
      <trkpt lat="45.78466" lon="6.72338">
        <ele>1568</ele>
        <time>2026-08-14T08:58:50.540Z</time>
      </trkpt>
      <trkpt lat="45.78468" lon="6.72339">
        <ele>1568</ele>
        <time>2026-08-14T08:58:51.540Z</time>
      </trkpt>
      <trkpt lat="45.78469" lon="6.72339">
        <ele>1568</ele>
        <time>2026-08-14T08:58:52.540Z</time>
      </trkpt>
      <trkpt lat="45.78471" lon="6.7234">
        <ele>1567</ele>
        <time>2026-08-14T08:58:53.540Z</time>
      </trkpt>
      <trkpt lat="45.78473" lon="6.7234">
        <ele>1566</ele>
        <time>2026-08-14T08:58:54.540Z</time>
      </trkpt>
      <trkpt lat="45.78475" lon="6.7234">
        <ele>1566</ele>
        <time>2026-08-14T08:58:55.540Z</time>
      </trkpt>
      <trkpt lat="45.78477" lon="6.7234">
        <ele>1565</ele>
        <time>2026-08-14T08:58:56.540Z</time>
      </trkpt>
      <trkpt lat="45.78479" lon="6.7234">
        <ele>1565</ele>
        <time>2026-08-14T08:58:57.540Z</time>
      </trkpt>
      <trkpt lat="45.78481" lon="6.7234">
        <ele>1565</ele>
        <time>2026-08-14T08:58:58.540Z</time>
      </trkpt>
      <trkpt lat="45.78482" lon="6.7234">
        <ele>1565</ele>
        <time>2026-08-14T08:58:59.540Z</time>
      </trkpt>
      <trkpt lat="45.78484" lon="6.72341">
        <ele>1565</ele>
        <time>2026-08-14T08:59:00.540Z</time>
      </trkpt>
      <trkpt lat="45.78485" lon="6.72342">
        <ele>1566</ele>
        <time>2026-08-14T08:59:01.540Z</time>
      </trkpt>
      <trkpt lat="45.78486" lon="6.72343">
        <ele>1566</ele>
        <time>2026-08-14T08:59:02.540Z</time>
      </trkpt>
      <trkpt lat="45.78487" lon="6.72344">
        <ele>1566</ele>
        <time>2026-08-14T08:59:03.540Z</time>
      </trkpt>
      <trkpt lat="45.78488" lon="6.72344">
        <ele>1566</ele>
        <time>2026-08-14T08:59:04.540Z</time>
      </trkpt>
      <trkpt lat="45.78489" lon="6.72344">
        <ele>1566</ele>
        <time>2026-08-14T08:59:05.540Z</time>
      </trkpt>
      <trkpt lat="45.78489" lon="6.72344">
        <ele>1567</ele>
        <time>2026-08-14T08:59:06.540Z</time>
      </trkpt>
      <trkpt lat="45.78489" lon="6.72344">
        <ele>1567</ele>
        <time>2026-08-14T08:59:07.540Z</time>
      </trkpt>
      <trkpt lat="45.7849" lon="6.72344">
        <ele>1567</ele>
        <time>2026-08-14T08:59:08.540Z</time>
      </trkpt>
      <trkpt lat="45.78491" lon="6.72345">
        <ele>1568</ele>
        <time>2026-08-14T08:59:09.540Z</time>
      </trkpt>
      <trkpt lat="45.78492" lon="6.72345">
        <ele>1568</ele>
        <time>2026-08-14T08:59:10.540Z</time>
      </trkpt>
      <trkpt lat="45.78493" lon="6.72345">
        <ele>1569</ele>
        <time>2026-08-14T08:59:11.540Z</time>
      </trkpt>
      <trkpt lat="45.78494" lon="6.72345">
        <ele>1569</ele>
        <time>2026-08-14T08:59:12.540Z</time>
      </trkpt>
      <trkpt lat="45.78495" lon="6.72346">
        <ele>1570</ele>
        <time>2026-08-14T08:59:13.540Z</time>
      </trkpt>
      <trkpt lat="45.78496" lon="6.72346">
        <ele>1570</ele>
        <time>2026-08-14T08:59:14.540Z</time>
      </trkpt>
      <trkpt lat="45.78498" lon="6.72347">
        <ele>1570</ele>
        <time>2026-08-14T08:59:15.540Z</time>
      </trkpt>
      <trkpt lat="45.78499" lon="6.72348">
        <ele>1570</ele>
        <time>2026-08-14T08:59:16.540Z</time>
      </trkpt>
      <trkpt lat="45.785" lon="6.72349">
        <ele>1569</ele>
        <time>2026-08-14T08:59:17.540Z</time>
      </trkpt>
      <trkpt lat="45.78502" lon="6.72349">
        <ele>1569</ele>
        <time>2026-08-14T08:59:18.540Z</time>
      </trkpt>
      <trkpt lat="45.78503" lon="6.72349">
        <ele>1569</ele>
        <time>2026-08-14T08:59:19.540Z</time>
      </trkpt>
      <trkpt lat="45.78505" lon="6.72349">
        <ele>1569</ele>
        <time>2026-08-14T08:59:20.540Z</time>
      </trkpt>
      <trkpt lat="45.78507" lon="6.72348">
        <ele>1569</ele>
        <time>2026-08-14T08:59:21.540Z</time>
      </trkpt>
      <trkpt lat="45.78509" lon="6.72348">
        <ele>1568</ele>
        <time>2026-08-14T08:59:22.540Z</time>
      </trkpt>
      <trkpt lat="45.7851" lon="6.72348">
        <ele>1568</ele>
        <time>2026-08-14T08:59:23.540Z</time>
      </trkpt>
      <trkpt lat="45.78512" lon="6.72348">
        <ele>1568</ele>
        <time>2026-08-14T08:59:24.540Z</time>
      </trkpt>
      <trkpt lat="45.78514" lon="6.72349">
        <ele>1568</ele>
        <time>2026-08-14T08:59:25.540Z</time>
      </trkpt>
      <trkpt lat="45.78515" lon="6.72349">
        <ele>1568</ele>
        <time>2026-08-14T08:59:26.540Z</time>
      </trkpt>
      <trkpt lat="45.78517" lon="6.72348">
        <ele>1568</ele>
        <time>2026-08-14T08:59:27.540Z</time>
      </trkpt>
      <trkpt lat="45.78518" lon="6.72347">
        <ele>1568</ele>
        <time>2026-08-14T08:59:28.540Z</time>
      </trkpt>
      <trkpt lat="45.7852" lon="6.72347">
        <ele>1568</ele>
        <time>2026-08-14T08:59:29.540Z</time>
      </trkpt>
      <trkpt lat="45.78521" lon="6.72346">
        <ele>1568</ele>
        <time>2026-08-14T08:59:30.540Z</time>
      </trkpt>
      <trkpt lat="45.78523" lon="6.72345">
        <ele>1568</ele>
        <time>2026-08-14T08:59:31.540Z</time>
      </trkpt>
      <trkpt lat="45.78524" lon="6.72344">
        <ele>1568</ele>
        <time>2026-08-14T08:59:32.540Z</time>
      </trkpt>
      <trkpt lat="45.78526" lon="6.72344">
        <ele>1568</ele>
        <time>2026-08-14T08:59:33.540Z</time>
      </trkpt>
      <trkpt lat="45.78527" lon="6.72343">
        <ele>1568</ele>
        <time>2026-08-14T08:59:34.540Z</time>
      </trkpt>
      <trkpt lat="45.78528" lon="6.72342">
        <ele>1568</ele>
        <time>2026-08-14T08:59:35.540Z</time>
      </trkpt>
      <trkpt lat="45.78529" lon="6.72341">
        <ele>1569</ele>
        <time>2026-08-14T08:59:36.540Z</time>
      </trkpt>
      <trkpt lat="45.7853" lon="6.72339">
        <ele>1569</ele>
        <time>2026-08-14T08:59:37.540Z</time>
      </trkpt>
      <trkpt lat="45.78532" lon="6.72338">
        <ele>1569</ele>
        <time>2026-08-14T08:59:38.540Z</time>
      </trkpt>
      <trkpt lat="45.78533" lon="6.72336">
        <ele>1569</ele>
        <time>2026-08-14T08:59:39.540Z</time>
      </trkpt>
      <trkpt lat="45.78533" lon="6.72335">
        <ele>1570</ele>
        <time>2026-08-14T08:59:40.540Z</time>
      </trkpt>
      <trkpt lat="45.78534" lon="6.72334">
        <ele>1570</ele>
        <time>2026-08-14T08:59:41.540Z</time>
      </trkpt>
      <trkpt lat="45.78535" lon="6.72332">
        <ele>1570</ele>
        <time>2026-08-14T08:59:42.540Z</time>
      </trkpt>
      <trkpt lat="45.78536" lon="6.72331">
        <ele>1570</ele>
        <time>2026-08-14T08:59:43.540Z</time>
      </trkpt>
      <trkpt lat="45.78537" lon="6.7233">
        <ele>1570</ele>
        <time>2026-08-14T08:59:44.540Z</time>
      </trkpt>
      <trkpt lat="45.78538" lon="6.72329">
        <ele>1569</ele>
        <time>2026-08-14T08:59:45.540Z</time>
      </trkpt>
      <trkpt lat="45.78539" lon="6.72329">
        <ele>1569</ele>
        <time>2026-08-14T08:59:46.540Z</time>
      </trkpt>
      <trkpt lat="45.7854" lon="6.72329">
        <ele>1569</ele>
        <time>2026-08-14T08:59:47.540Z</time>
      </trkpt>
      <trkpt lat="45.78541" lon="6.72329">
        <ele>1569</ele>
        <time>2026-08-14T08:59:48.540Z</time>
      </trkpt>
      <trkpt lat="45.78543" lon="6.7233">
        <ele>1569</ele>
        <time>2026-08-14T08:59:49.540Z</time>
      </trkpt>
      <trkpt lat="45.78545" lon="6.72331">
        <ele>1569</ele>
        <time>2026-08-14T08:59:50.540Z</time>
      </trkpt>
      <trkpt lat="45.78546" lon="6.72332">
        <ele>1569</ele>
        <time>2026-08-14T08:59:51.540Z</time>
      </trkpt>
      <trkpt lat="45.78548" lon="6.72333">
        <ele>1569</ele>
        <time>2026-08-14T08:59:52.540Z</time>
      </trkpt>
      <trkpt lat="45.7855" lon="6.72334">
        <ele>1569</ele>
        <time>2026-08-14T08:59:53.540Z</time>
      </trkpt>
      <trkpt lat="45.78552" lon="6.72335">
        <ele>1570</ele>
        <time>2026-08-14T08:59:54.540Z</time>
      </trkpt>
      <trkpt lat="45.78553" lon="6.72336">
        <ele>1570</ele>
        <time>2026-08-14T08:59:55.540Z</time>
      </trkpt>
      <trkpt lat="45.78554" lon="6.72336">
        <ele>1571</ele>
        <time>2026-08-14T08:59:56.540Z</time>
      </trkpt>
      <trkpt lat="45.78554" lon="6.72337">
        <ele>1571</ele>
        <time>2026-08-14T08:59:57.540Z</time>
      </trkpt>
      <trkpt lat="45.78555" lon="6.72337">
        <ele>1572</ele>
        <time>2026-08-14T08:59:58.540Z</time>
      </trkpt>
      <trkpt lat="45.78556" lon="6.72337">
        <ele>1572</ele>
        <time>2026-08-14T08:59:59.540Z</time>
      </trkpt>
      <trkpt lat="45.78558" lon="6.72339">
        <ele>1572</ele>
        <time>2026-08-14T09:00:00.540Z</time>
      </trkpt>
      <trkpt lat="45.78559" lon="6.7234">
        <ele>1573</ele>
        <time>2026-08-14T09:00:01.540Z</time>
      </trkpt>
      <trkpt lat="45.78561" lon="6.72341">
        <ele>1573</ele>
        <time>2026-08-14T09:00:02.540Z</time>
      </trkpt>
      <trkpt lat="45.78562" lon="6.72342">
        <ele>1573</ele>
        <time>2026-08-14T09:00:03.540Z</time>
      </trkpt>
      <trkpt lat="45.78564" lon="6.72342">
        <ele>1573</ele>
        <time>2026-08-14T09:00:04.540Z</time>
      </trkpt>
      <trkpt lat="45.78566" lon="6.72343">
        <ele>1574</ele>
        <time>2026-08-14T09:00:05.540Z</time>
      </trkpt>
      <trkpt lat="45.78568" lon="6.72342">
        <ele>1574</ele>
        <time>2026-08-14T09:00:06.540Z</time>
      </trkpt>
      <trkpt lat="45.78569" lon="6.72342">
        <ele>1574</ele>
        <time>2026-08-14T09:00:07.540Z</time>
      </trkpt>
      <trkpt lat="45.7857" lon="6.72343">
        <ele>1575</ele>
        <time>2026-08-14T09:00:08.540Z</time>
      </trkpt>
      <trkpt lat="45.78572" lon="6.72345">
        <ele>1575</ele>
        <time>2026-08-14T09:00:09.540Z</time>
      </trkpt>
      <trkpt lat="45.78574" lon="6.72347">
        <ele>1575</ele>
        <time>2026-08-14T09:00:10.540Z</time>
      </trkpt>
      <trkpt lat="45.78576" lon="6.72349">
        <ele>1575</ele>
        <time>2026-08-14T09:00:11.540Z</time>
      </trkpt>
      <trkpt lat="45.78577" lon="6.7235">
        <ele>1575</ele>
        <time>2026-08-14T09:00:12.540Z</time>
      </trkpt>
      <trkpt lat="45.78578" lon="6.7235">
        <ele>1575</ele>
        <time>2026-08-14T09:00:13.540Z</time>
      </trkpt>
      <trkpt lat="45.7858" lon="6.72351">
        <ele>1575</ele>
        <time>2026-08-14T09:00:14.540Z</time>
      </trkpt>
      <trkpt lat="45.78581" lon="6.72352">
        <ele>1575</ele>
        <time>2026-08-14T09:00:15.540Z</time>
      </trkpt>
      <trkpt lat="45.78583" lon="6.72353">
        <ele>1575</ele>
        <time>2026-08-14T09:00:16.540Z</time>
      </trkpt>
      <trkpt lat="45.78584" lon="6.72354">
        <ele>1575</ele>
        <time>2026-08-14T09:00:17.540Z</time>
      </trkpt>
      <trkpt lat="45.78586" lon="6.72356">
        <ele>1575</ele>
        <time>2026-08-14T09:00:18.540Z</time>
      </trkpt>
      <trkpt lat="45.78588" lon="6.72357">
        <ele>1575</ele>
        <time>2026-08-14T09:00:19.540Z</time>
      </trkpt>
      <trkpt lat="45.78589" lon="6.72358">
        <ele>1574</ele>
        <time>2026-08-14T09:00:20.540Z</time>
      </trkpt>
      <trkpt lat="45.78591" lon="6.72359">
        <ele>1574</ele>
        <time>2026-08-14T09:00:21.540Z</time>
      </trkpt>
      <trkpt lat="45.78593" lon="6.7236">
        <ele>1574</ele>
        <time>2026-08-14T09:00:22.540Z</time>
      </trkpt>
      <trkpt lat="45.78594" lon="6.72362">
        <ele>1573</ele>
        <time>2026-08-14T09:00:23.540Z</time>
      </trkpt>
      <trkpt lat="45.78595" lon="6.72362">
        <ele>1573</ele>
        <time>2026-08-14T09:00:24.540Z</time>
      </trkpt>
      <trkpt lat="45.78597" lon="6.72363">
        <ele>1573</ele>
        <time>2026-08-14T09:00:25.540Z</time>
      </trkpt>
      <trkpt lat="45.78598" lon="6.72364">
        <ele>1573</ele>
        <time>2026-08-14T09:00:26.540Z</time>
      </trkpt>
      <trkpt lat="45.786" lon="6.72365">
        <ele>1573</ele>
        <time>2026-08-14T09:00:27.540Z</time>
      </trkpt>
      <trkpt lat="45.78601" lon="6.72365">
        <ele>1573</ele>
        <time>2026-08-14T09:00:28.540Z</time>
      </trkpt>
      <trkpt lat="45.78602" lon="6.72366">
        <ele>1573</ele>
        <time>2026-08-14T09:00:29.540Z</time>
      </trkpt>
      <trkpt lat="45.78604" lon="6.72367">
        <ele>1573</ele>
        <time>2026-08-14T09:00:30.540Z</time>
      </trkpt>
      <trkpt lat="45.78605" lon="6.72367">
        <ele>1572</ele>
        <time>2026-08-14T09:00:31.540Z</time>
      </trkpt>
      <trkpt lat="45.78606" lon="6.72368">
        <ele>1572</ele>
        <time>2026-08-14T09:00:32.540Z</time>
      </trkpt>
      <trkpt lat="45.78607" lon="6.72368">
        <ele>1572</ele>
        <time>2026-08-14T09:00:33.540Z</time>
      </trkpt>
      <trkpt lat="45.78609" lon="6.72369">
        <ele>1573</ele>
        <time>2026-08-14T09:00:34.540Z</time>
      </trkpt>
      <trkpt lat="45.7861" lon="6.72369">
        <ele>1573</ele>
        <time>2026-08-14T09:00:35.540Z</time>
      </trkpt>
      <trkpt lat="45.78611" lon="6.72369">
        <ele>1573</ele>
        <time>2026-08-14T09:00:36.540Z</time>
      </trkpt>
      <trkpt lat="45.78612" lon="6.72369">
        <ele>1573</ele>
        <time>2026-08-14T09:00:37.540Z</time>
      </trkpt>
      <trkpt lat="45.78613" lon="6.7237">
        <ele>1573</ele>
        <time>2026-08-14T09:00:38.540Z</time>
      </trkpt>
      <trkpt lat="45.78614" lon="6.7237">
        <ele>1573</ele>
        <time>2026-08-14T09:00:39.540Z</time>
      </trkpt>
      <trkpt lat="45.78615" lon="6.72371">
        <ele>1573</ele>
        <time>2026-08-14T09:00:40.540Z</time>
      </trkpt>
      <trkpt lat="45.78616" lon="6.72371">
        <ele>1573</ele>
        <time>2026-08-14T09:00:41.540Z</time>
      </trkpt>
      <trkpt lat="45.78618" lon="6.72372">
        <ele>1573</ele>
        <time>2026-08-14T09:00:42.540Z</time>
      </trkpt>
      <trkpt lat="45.78619" lon="6.72372">
        <ele>1573</ele>
        <time>2026-08-14T09:00:43.540Z</time>
      </trkpt>
      <trkpt lat="45.7862" lon="6.72372">
        <ele>1573</ele>
        <time>2026-08-14T09:00:44.540Z</time>
      </trkpt>
      <trkpt lat="45.78621" lon="6.72372">
        <ele>1573</ele>
        <time>2026-08-14T09:00:45.540Z</time>
      </trkpt>
      <trkpt lat="45.78622" lon="6.72373">
        <ele>1573</ele>
        <time>2026-08-14T09:00:46.540Z</time>
      </trkpt>
      <trkpt lat="45.78623" lon="6.72374">
        <ele>1573</ele>
        <time>2026-08-14T09:00:47.540Z</time>
      </trkpt>
      <trkpt lat="45.78624" lon="6.72375">
        <ele>1574</ele>
        <time>2026-08-14T09:00:48.540Z</time>
      </trkpt>
      <trkpt lat="45.78626" lon="6.72376">
        <ele>1574</ele>
        <time>2026-08-14T09:00:49.540Z</time>
      </trkpt>
      <trkpt lat="45.78627" lon="6.72378">
        <ele>1574</ele>
        <time>2026-08-14T09:00:50.540Z</time>
      </trkpt>
      <trkpt lat="45.78629" lon="6.7238">
        <ele>1574</ele>
        <time>2026-08-14T09:00:51.540Z</time>
      </trkpt>
      <trkpt lat="45.7863" lon="6.7238">
        <ele>1574</ele>
        <time>2026-08-14T09:00:52.540Z</time>
      </trkpt>
      <trkpt lat="45.7863" lon="6.7238">
        <ele>1574</ele>
        <time>2026-08-14T09:00:53.540Z</time>
      </trkpt>
      <trkpt lat="45.78631" lon="6.72382">
        <ele>1575</ele>
        <time>2026-08-14T09:00:54.540Z</time>
      </trkpt>
      <trkpt lat="45.78632" lon="6.72383">
        <ele>1575</ele>
        <time>2026-08-14T09:00:55.540Z</time>
      </trkpt>
      <trkpt lat="45.78633" lon="6.72385">
        <ele>1576</ele>
        <time>2026-08-14T09:00:56.540Z</time>
      </trkpt>
      <trkpt lat="45.78634" lon="6.72386">
        <ele>1576</ele>
        <time>2026-08-14T09:00:57.540Z</time>
      </trkpt>
      <trkpt lat="45.78636" lon="6.72388">
        <ele>1577</ele>
        <time>2026-08-14T09:00:58.540Z</time>
      </trkpt>
      <trkpt lat="45.78637" lon="6.72389">
        <ele>1577</ele>
        <time>2026-08-14T09:00:59.540Z</time>
      </trkpt>
      <trkpt lat="45.78639" lon="6.72391">
        <ele>1578</ele>
        <time>2026-08-14T09:01:00.540Z</time>
      </trkpt>
      <trkpt lat="45.78641" lon="6.72394">
        <ele>1578</ele>
        <time>2026-08-14T09:01:01.540Z</time>
      </trkpt>
      <trkpt lat="45.78643" lon="6.72396">
        <ele>1579</ele>
        <time>2026-08-14T09:01:02.540Z</time>
      </trkpt>
      <trkpt lat="45.78644" lon="6.72398">
        <ele>1579</ele>
        <time>2026-08-14T09:01:03.540Z</time>
      </trkpt>
      <trkpt lat="45.78646" lon="6.724">
        <ele>1579</ele>
        <time>2026-08-14T09:01:04.540Z</time>
      </trkpt>
      <trkpt lat="45.78648" lon="6.72401">
        <ele>1580</ele>
        <time>2026-08-14T09:01:05.540Z</time>
      </trkpt>
      <trkpt lat="45.78648" lon="6.72401">
        <ele>1580</ele>
        <time>2026-08-14T09:01:06.540Z</time>
      </trkpt>
      <trkpt lat="45.78649" lon="6.72402">
        <ele>1580</ele>
        <time>2026-08-14T09:01:07.540Z</time>
      </trkpt>
      <trkpt lat="45.7865" lon="6.72402">
        <ele>1580</ele>
        <time>2026-08-14T09:01:08.540Z</time>
      </trkpt>
      <trkpt lat="45.78652" lon="6.72403">
        <ele>1580</ele>
        <time>2026-08-14T09:01:09.540Z</time>
      </trkpt>
      <trkpt lat="45.78653" lon="6.72403">
        <ele>1580</ele>
        <time>2026-08-14T09:01:10.540Z</time>
      </trkpt>
      <trkpt lat="45.78655" lon="6.72403">
        <ele>1581</ele>
        <time>2026-08-14T09:01:11.540Z</time>
      </trkpt>
      <trkpt lat="45.78658" lon="6.72402">
        <ele>1581</ele>
        <time>2026-08-14T09:01:12.540Z</time>
      </trkpt>
      <trkpt lat="45.7866" lon="6.72403">
        <ele>1581</ele>
        <time>2026-08-14T09:01:13.540Z</time>
      </trkpt>
      <trkpt lat="45.78661" lon="6.72404">
        <ele>1582</ele>
        <time>2026-08-14T09:01:14.540Z</time>
      </trkpt>
      <trkpt lat="45.78662" lon="6.72406">
        <ele>1582</ele>
        <time>2026-08-14T09:01:15.540Z</time>
      </trkpt>
      <trkpt lat="45.78663" lon="6.72407">
        <ele>1582</ele>
        <time>2026-08-14T09:01:16.540Z</time>
      </trkpt>
      <trkpt lat="45.78663" lon="6.72408">
        <ele>1583</ele>
        <time>2026-08-14T09:01:17.540Z</time>
      </trkpt>
      <trkpt lat="45.78664" lon="6.72409">
        <ele>1583</ele>
        <time>2026-08-14T09:01:18.540Z</time>
      </trkpt>
      <trkpt lat="45.78665" lon="6.72409">
        <ele>1584</ele>
        <time>2026-08-14T09:01:19.540Z</time>
      </trkpt>
      <trkpt lat="45.78666" lon="6.72409">
        <ele>1585</ele>
        <time>2026-08-14T09:01:20.540Z</time>
      </trkpt>
      <trkpt lat="45.78668" lon="6.7241">
        <ele>1585</ele>
        <time>2026-08-14T09:01:21.540Z</time>
      </trkpt>
      <trkpt lat="45.78669" lon="6.72411">
        <ele>1586</ele>
        <time>2026-08-14T09:01:22.540Z</time>
      </trkpt>
      <trkpt lat="45.78669" lon="6.72413">
        <ele>1586</ele>
        <time>2026-08-14T09:01:23.540Z</time>
      </trkpt>
      <trkpt lat="45.7867" lon="6.72414">
        <ele>1586</ele>
        <time>2026-08-14T09:01:24.540Z</time>
      </trkpt>
      <trkpt lat="45.78671" lon="6.72416">
        <ele>1585</ele>
        <time>2026-08-14T09:01:25.540Z</time>
      </trkpt>
      <trkpt lat="45.78672" lon="6.72416">
        <ele>1585</ele>
        <time>2026-08-14T09:01:26.540Z</time>
      </trkpt>
      <trkpt lat="45.78673" lon="6.72416">
        <ele>1585</ele>
        <time>2026-08-14T09:01:27.540Z</time>
      </trkpt>
      <trkpt lat="45.78674" lon="6.72417">
        <ele>1584</ele>
        <time>2026-08-14T09:01:28.540Z</time>
      </trkpt>
      <trkpt lat="45.78675" lon="6.72417">
        <ele>1584</ele>
        <time>2026-08-14T09:01:29.540Z</time>
      </trkpt>
      <trkpt lat="45.78675" lon="6.72417">
        <ele>1583</ele>
        <time>2026-08-14T09:01:30.540Z</time>
      </trkpt>
      <trkpt lat="45.78675" lon="6.72417">
        <ele>1583</ele>
        <time>2026-08-14T09:01:31.540Z</time>
      </trkpt>
      <trkpt lat="45.78676" lon="6.72417">
        <ele>1583</ele>
        <time>2026-08-14T09:01:32.540Z</time>
      </trkpt>
      <trkpt lat="45.78676" lon="6.72417">
        <ele>1583</ele>
        <time>2026-08-14T09:01:33.540Z</time>
      </trkpt>
      <trkpt lat="45.78677" lon="6.72417">
        <ele>1583</ele>
        <time>2026-08-14T09:01:34.540Z</time>
      </trkpt>
      <trkpt lat="45.78679" lon="6.72419">
        <ele>1583</ele>
        <time>2026-08-14T09:01:35.540Z</time>
      </trkpt>
      <trkpt lat="45.78679" lon="6.7242">
        <ele>1583</ele>
        <time>2026-08-14T09:01:36.540Z</time>
      </trkpt>
      <trkpt lat="45.7868" lon="6.72421">
        <ele>1583</ele>
        <time>2026-08-14T09:01:37.540Z</time>
      </trkpt>
      <trkpt lat="45.7868" lon="6.72422">
        <ele>1582</ele>
        <time>2026-08-14T09:01:38.540Z</time>
      </trkpt>
      <trkpt lat="45.78682" lon="6.72424">
        <ele>1582</ele>
        <time>2026-08-14T09:01:39.540Z</time>
      </trkpt>
      <trkpt lat="45.78683" lon="6.72425">
        <ele>1582</ele>
        <time>2026-08-14T09:01:40.540Z</time>
      </trkpt>
      <trkpt lat="45.78684" lon="6.72426">
        <ele>1582</ele>
        <time>2026-08-14T09:01:41.540Z</time>
      </trkpt>
      <trkpt lat="45.78686" lon="6.72427">
        <ele>1582</ele>
        <time>2026-08-14T09:01:42.540Z</time>
      </trkpt>
      <trkpt lat="45.78687" lon="6.72427">
        <ele>1582</ele>
        <time>2026-08-14T09:01:43.540Z</time>
      </trkpt>
      <trkpt lat="45.78689" lon="6.72426">
        <ele>1582</ele>
        <time>2026-08-14T09:01:44.540Z</time>
      </trkpt>
      <trkpt lat="45.78691" lon="6.72425">
        <ele>1582</ele>
        <time>2026-08-14T09:01:45.540Z</time>
      </trkpt>
      <trkpt lat="45.78693" lon="6.72424">
        <ele>1582</ele>
        <time>2026-08-14T09:01:46.540Z</time>
      </trkpt>
      <trkpt lat="45.78694" lon="6.72424">
        <ele>1582</ele>
        <time>2026-08-14T09:01:47.540Z</time>
      </trkpt>
      <trkpt lat="45.78696" lon="6.72422">
        <ele>1582</ele>
        <time>2026-08-14T09:01:48.540Z</time>
      </trkpt>
      <trkpt lat="45.78697" lon="6.72421">
        <ele>1582</ele>
        <time>2026-08-14T09:01:49.540Z</time>
      </trkpt>
      <trkpt lat="45.78699" lon="6.72419">
        <ele>1582</ele>
        <time>2026-08-14T09:01:50.540Z</time>
      </trkpt>
      <trkpt lat="45.787" lon="6.72418">
        <ele>1581</ele>
        <time>2026-08-14T09:01:51.540Z</time>
      </trkpt>
      <trkpt lat="45.78702" lon="6.72417">
        <ele>1581</ele>
        <time>2026-08-14T09:01:52.540Z</time>
      </trkpt>
      <trkpt lat="45.78703" lon="6.72417">
        <ele>1580</ele>
        <time>2026-08-14T09:01:53.540Z</time>
      </trkpt>
      <trkpt lat="45.78705" lon="6.72418">
        <ele>1580</ele>
        <time>2026-08-14T09:01:54.540Z</time>
      </trkpt>
      <trkpt lat="45.78707" lon="6.72418">
        <ele>1580</ele>
        <time>2026-08-14T09:01:55.540Z</time>
      </trkpt>
      <trkpt lat="45.78709" lon="6.72418">
        <ele>1579</ele>
        <time>2026-08-14T09:01:56.540Z</time>
      </trkpt>
      <trkpt lat="45.7871" lon="6.72419">
        <ele>1579</ele>
        <time>2026-08-14T09:01:57.540Z</time>
      </trkpt>
      <trkpt lat="45.78712" lon="6.7242">
        <ele>1578</ele>
        <time>2026-08-14T09:01:58.540Z</time>
      </trkpt>
      <trkpt lat="45.78712" lon="6.7242">
        <ele>1578</ele>
        <time>2026-08-14T09:01:59.540Z</time>
      </trkpt>
      <trkpt lat="45.78713" lon="6.72421">
        <ele>1577</ele>
        <time>2026-08-14T09:02:00.540Z</time>
      </trkpt>
      <trkpt lat="45.78714" lon="6.72421">
        <ele>1577</ele>
        <time>2026-08-14T09:02:01.540Z</time>
      </trkpt>
      <trkpt lat="45.78715" lon="6.72421">
        <ele>1576</ele>
        <time>2026-08-14T09:02:02.540Z</time>
      </trkpt>
      <trkpt lat="45.78716" lon="6.72422">
        <ele>1576</ele>
        <time>2026-08-14T09:02:03.540Z</time>
      </trkpt>
      <trkpt lat="45.78718" lon="6.72422">
        <ele>1576</ele>
        <time>2026-08-14T09:02:04.540Z</time>
      </trkpt>
      <trkpt lat="45.78719" lon="6.72422">
        <ele>1576</ele>
        <time>2026-08-14T09:02:05.540Z</time>
      </trkpt>
      <trkpt lat="45.78721" lon="6.72423">
        <ele>1576</ele>
        <time>2026-08-14T09:02:06.540Z</time>
      </trkpt>
      <trkpt lat="45.78723" lon="6.72424">
        <ele>1576</ele>
        <time>2026-08-14T09:02:07.540Z</time>
      </trkpt>
      <trkpt lat="45.78725" lon="6.72424">
        <ele>1576</ele>
        <time>2026-08-14T09:02:08.540Z</time>
      </trkpt>
      <trkpt lat="45.78726" lon="6.72424">
        <ele>1576</ele>
        <time>2026-08-14T09:02:09.540Z</time>
      </trkpt>
      <trkpt lat="45.78727" lon="6.72424">
        <ele>1576</ele>
        <time>2026-08-14T09:02:10.540Z</time>
      </trkpt>
      <trkpt lat="45.78727" lon="6.72424">
        <ele>1576</ele>
        <time>2026-08-14T09:02:11.540Z</time>
      </trkpt>
      <trkpt lat="45.78728" lon="6.72424">
        <ele>1576</ele>
        <time>2026-08-14T09:02:12.540Z</time>
      </trkpt>
      <trkpt lat="45.78728" lon="6.72425">
        <ele>1576</ele>
        <time>2026-08-14T09:02:13.540Z</time>
      </trkpt>
      <trkpt lat="45.78729" lon="6.72426">
        <ele>1576</ele>
        <time>2026-08-14T09:02:14.540Z</time>
      </trkpt>
      <trkpt lat="45.78729" lon="6.72425">
        <ele>1576</ele>
        <time>2026-08-14T09:02:15.540Z</time>
      </trkpt>
      <trkpt lat="45.7873" lon="6.72425">
        <ele>1577</ele>
        <time>2026-08-14T09:02:16.540Z</time>
      </trkpt>
      <trkpt lat="45.78731" lon="6.72425">
        <ele>1577</ele>
        <time>2026-08-14T09:02:17.540Z</time>
      </trkpt>
      <trkpt lat="45.78732" lon="6.72425">
        <ele>1577</ele>
        <time>2026-08-14T09:02:18.540Z</time>
      </trkpt>
      <trkpt lat="45.78733" lon="6.72425">
        <ele>1577</ele>
        <time>2026-08-14T09:02:19.540Z</time>
      </trkpt>
      <trkpt lat="45.78734" lon="6.72425">
        <ele>1577</ele>
        <time>2026-08-14T09:02:20.540Z</time>
      </trkpt>
      <trkpt lat="45.78735" lon="6.72425">
        <ele>1577</ele>
        <time>2026-08-14T09:02:21.540Z</time>
      </trkpt>
      <trkpt lat="45.78736" lon="6.72424">
        <ele>1577</ele>
        <time>2026-08-14T09:02:22.540Z</time>
      </trkpt>
      <trkpt lat="45.78737" lon="6.72425">
        <ele>1577</ele>
        <time>2026-08-14T09:02:23.540Z</time>
      </trkpt>
      <trkpt lat="45.78738" lon="6.72425">
        <ele>1577</ele>
        <time>2026-08-14T09:02:24.540Z</time>
      </trkpt>
      <trkpt lat="45.78739" lon="6.72425">
        <ele>1577</ele>
        <time>2026-08-14T09:02:25.540Z</time>
      </trkpt>
      <trkpt lat="45.7874" lon="6.72425">
        <ele>1577</ele>
        <time>2026-08-14T09:02:26.540Z</time>
      </trkpt>
      <trkpt lat="45.78741" lon="6.72426">
        <ele>1577</ele>
        <time>2026-08-14T09:02:27.540Z</time>
      </trkpt>
      <trkpt lat="45.78742" lon="6.72425">
        <ele>1578</ele>
        <time>2026-08-14T09:02:28.540Z</time>
      </trkpt>
      <trkpt lat="45.78742" lon="6.72425">
        <ele>1578</ele>
        <time>2026-08-14T09:02:29.540Z</time>
      </trkpt>
      <trkpt lat="45.78742" lon="6.72426">
        <ele>1578</ele>
        <time>2026-08-14T09:02:30.540Z</time>
      </trkpt>
      <trkpt lat="45.78743" lon="6.72426">
        <ele>1578</ele>
        <time>2026-08-14T09:02:31.540Z</time>
      </trkpt>
      <trkpt lat="45.78744" lon="6.72426">
        <ele>1578</ele>
        <time>2026-08-14T09:02:32.540Z</time>
      </trkpt>
      <trkpt lat="45.78744" lon="6.72426">
        <ele>1578</ele>
        <time>2026-08-14T09:02:33.540Z</time>
      </trkpt>
      <trkpt lat="45.78745" lon="6.72426">
        <ele>1578</ele>
        <time>2026-08-14T09:02:34.540Z</time>
      </trkpt>
      <trkpt lat="45.78746" lon="6.72425">
        <ele>1578</ele>
        <time>2026-08-14T09:02:35.540Z</time>
      </trkpt>
      <trkpt lat="45.78747" lon="6.72425">
        <ele>1578</ele>
        <time>2026-08-14T09:02:36.540Z</time>
      </trkpt>
      <trkpt lat="45.78748" lon="6.72424">
        <ele>1577</ele>
        <time>2026-08-14T09:02:37.540Z</time>
      </trkpt>
      <trkpt lat="45.78748" lon="6.72424">
        <ele>1577</ele>
        <time>2026-08-14T09:02:38.540Z</time>
      </trkpt>
      <trkpt lat="45.78749" lon="6.72423">
        <ele>1577</ele>
        <time>2026-08-14T09:02:39.540Z</time>
      </trkpt>
      <trkpt lat="45.7875" lon="6.72423">
        <ele>1577</ele>
        <time>2026-08-14T09:02:40.540Z</time>
      </trkpt>
      <trkpt lat="45.78751" lon="6.72423">
        <ele>1577</ele>
        <time>2026-08-14T09:02:41.540Z</time>
      </trkpt>
      <trkpt lat="45.78753" lon="6.72423">
        <ele>1576</ele>
        <time>2026-08-14T09:02:42.540Z</time>
      </trkpt>
      <trkpt lat="45.78754" lon="6.72422">
        <ele>1576</ele>
        <time>2026-08-14T09:02:43.540Z</time>
      </trkpt>
      <trkpt lat="45.78755" lon="6.72423">
        <ele>1576</ele>
        <time>2026-08-14T09:02:44.540Z</time>
      </trkpt>
      <trkpt lat="45.78756" lon="6.72425">
        <ele>1576</ele>
        <time>2026-08-14T09:02:45.540Z</time>
      </trkpt>
      <trkpt lat="45.78756" lon="6.72426">
        <ele>1576</ele>
        <time>2026-08-14T09:02:46.540Z</time>
      </trkpt>
      <trkpt lat="45.78757" lon="6.72426">
        <ele>1576</ele>
        <time>2026-08-14T09:02:47.540Z</time>
      </trkpt>
      <trkpt lat="45.78758" lon="6.72427">
        <ele>1576</ele>
        <time>2026-08-14T09:02:48.540Z</time>
      </trkpt>
      <trkpt lat="45.78758" lon="6.72428">
        <ele>1577</ele>
        <time>2026-08-14T09:02:49.540Z</time>
      </trkpt>
      <trkpt lat="45.78759" lon="6.72429">
        <ele>1577</ele>
        <time>2026-08-14T09:02:50.540Z</time>
      </trkpt>
      <trkpt lat="45.7876" lon="6.72429">
        <ele>1578</ele>
        <time>2026-08-14T09:02:51.540Z</time>
      </trkpt>
      <trkpt lat="45.7876" lon="6.72429">
        <ele>1578</ele>
        <time>2026-08-14T09:02:52.540Z</time>
      </trkpt>
      <trkpt lat="45.78761" lon="6.72428">
        <ele>1579</ele>
        <time>2026-08-14T09:02:53.540Z</time>
      </trkpt>
      <trkpt lat="45.78762" lon="6.72428">
        <ele>1579</ele>
        <time>2026-08-14T09:02:54.540Z</time>
      </trkpt>
      <trkpt lat="45.78762" lon="6.72428">
        <ele>1580</ele>
        <time>2026-08-14T09:02:55.540Z</time>
      </trkpt>
      <trkpt lat="45.78763" lon="6.72427">
        <ele>1580</ele>
        <time>2026-08-14T09:02:56.540Z</time>
      </trkpt>
      <trkpt lat="45.78764" lon="6.72427">
        <ele>1581</ele>
        <time>2026-08-14T09:02:57.540Z</time>
      </trkpt>
      <trkpt lat="45.78765" lon="6.72427">
        <ele>1581</ele>
        <time>2026-08-14T09:02:58.540Z</time>
      </trkpt>
      <trkpt lat="45.78766" lon="6.72427">
        <ele>1581</ele>
        <time>2026-08-14T09:02:59.540Z</time>
      </trkpt>
      <trkpt lat="45.78767" lon="6.72426">
        <ele>1582</ele>
        <time>2026-08-14T09:03:00.540Z</time>
      </trkpt>
      <trkpt lat="45.78768" lon="6.72426">
        <ele>1582</ele>
        <time>2026-08-14T09:03:01.540Z</time>
      </trkpt>
      <trkpt lat="45.78768" lon="6.72425">
        <ele>1582</ele>
        <time>2026-08-14T09:03:02.540Z</time>
      </trkpt>
      <trkpt lat="45.78769" lon="6.72425">
        <ele>1582</ele>
        <time>2026-08-14T09:03:03.540Z</time>
      </trkpt>
      <trkpt lat="45.7877" lon="6.72424">
        <ele>1582</ele>
        <time>2026-08-14T09:03:04.540Z</time>
      </trkpt>
      <trkpt lat="45.78771" lon="6.72424">
        <ele>1582</ele>
        <time>2026-08-14T09:03:05.540Z</time>
      </trkpt>
      <trkpt lat="45.78772" lon="6.72424">
        <ele>1582</ele>
        <time>2026-08-14T09:03:06.540Z</time>
      </trkpt>
      <trkpt lat="45.78773" lon="6.72424">
        <ele>1581</ele>
        <time>2026-08-14T09:03:07.540Z</time>
      </trkpt>
      <trkpt lat="45.78774" lon="6.72424">
        <ele>1581</ele>
        <time>2026-08-14T09:03:08.540Z</time>
      </trkpt>
      <trkpt lat="45.78775" lon="6.72424">
        <ele>1581</ele>
        <time>2026-08-14T09:03:09.540Z</time>
      </trkpt>
      <trkpt lat="45.78776" lon="6.72424">
        <ele>1581</ele>
        <time>2026-08-14T09:03:10.540Z</time>
      </trkpt>
      <trkpt lat="45.78777" lon="6.72424">
        <ele>1581</ele>
        <time>2026-08-14T09:03:11.540Z</time>
      </trkpt>
      <trkpt lat="45.78778" lon="6.72424">
        <ele>1581</ele>
        <time>2026-08-14T09:03:12.540Z</time>
      </trkpt>
      <trkpt lat="45.78778" lon="6.72423">
        <ele>1581</ele>
        <time>2026-08-14T09:03:13.540Z</time>
      </trkpt>
      <trkpt lat="45.78779" lon="6.72423">
        <ele>1581</ele>
        <time>2026-08-14T09:03:14.540Z</time>
      </trkpt>
      <trkpt lat="45.7878" lon="6.72422">
        <ele>1581</ele>
        <time>2026-08-14T09:03:15.540Z</time>
      </trkpt>
      <trkpt lat="45.78782" lon="6.72422">
        <ele>1582</ele>
        <time>2026-08-14T09:03:16.540Z</time>
      </trkpt>
      <trkpt lat="45.78783" lon="6.72422">
        <ele>1582</ele>
        <time>2026-08-14T09:03:17.540Z</time>
      </trkpt>
      <trkpt lat="45.78785" lon="6.72421">
        <ele>1582</ele>
        <time>2026-08-14T09:03:18.540Z</time>
      </trkpt>
      <trkpt lat="45.78787" lon="6.7242">
        <ele>1583</ele>
        <time>2026-08-14T09:03:19.540Z</time>
      </trkpt>
      <trkpt lat="45.78789" lon="6.7242">
        <ele>1583</ele>
        <time>2026-08-14T09:03:20.540Z</time>
      </trkpt>
      <trkpt lat="45.7879" lon="6.7242">
        <ele>1583</ele>
        <time>2026-08-14T09:03:21.540Z</time>
      </trkpt>
      <trkpt lat="45.78792" lon="6.7242">
        <ele>1583</ele>
        <time>2026-08-14T09:03:22.540Z</time>
      </trkpt>
      <trkpt lat="45.78793" lon="6.72418">
        <ele>1583</ele>
        <time>2026-08-14T09:03:23.540Z</time>
      </trkpt>
      <trkpt lat="45.78794" lon="6.72418">
        <ele>1583</ele>
        <time>2026-08-14T09:03:24.540Z</time>
      </trkpt>
      <trkpt lat="45.78796" lon="6.72418">
        <ele>1583</ele>
        <time>2026-08-14T09:03:25.540Z</time>
      </trkpt>
      <trkpt lat="45.78799" lon="6.72417">
        <ele>1583</ele>
        <time>2026-08-14T09:03:26.540Z</time>
      </trkpt>
      <trkpt lat="45.78801" lon="6.72416">
        <ele>1583</ele>
        <time>2026-08-14T09:03:27.540Z</time>
      </trkpt>
      <trkpt lat="45.78803" lon="6.72415">
        <ele>1584</ele>
        <time>2026-08-14T09:03:28.540Z</time>
      </trkpt>
      <trkpt lat="45.78805" lon="6.72415">
        <ele>1584</ele>
        <time>2026-08-14T09:03:29.540Z</time>
      </trkpt>
      <trkpt lat="45.78807" lon="6.72415">
        <ele>1585</ele>
        <time>2026-08-14T09:03:30.540Z</time>
      </trkpt>
      <trkpt lat="45.78808" lon="6.72416">
        <ele>1585</ele>
        <time>2026-08-14T09:03:31.540Z</time>
      </trkpt>
      <trkpt lat="45.78809" lon="6.72417">
        <ele>1586</ele>
        <time>2026-08-14T09:03:32.540Z</time>
      </trkpt>
      <trkpt lat="45.78811" lon="6.72418">
        <ele>1586</ele>
        <time>2026-08-14T09:03:33.540Z</time>
      </trkpt>
      <trkpt lat="45.78812" lon="6.72419">
        <ele>1586</ele>
        <time>2026-08-14T09:03:34.540Z</time>
      </trkpt>
      <trkpt lat="45.78813" lon="6.7242">
        <ele>1587</ele>
        <time>2026-08-14T09:03:35.540Z</time>
      </trkpt>
      <trkpt lat="45.78813" lon="6.7242">
        <ele>1587</ele>
        <time>2026-08-14T09:03:36.540Z</time>
      </trkpt>
      <trkpt lat="45.78814" lon="6.7242">
        <ele>1587</ele>
        <time>2026-08-14T09:03:37.540Z</time>
      </trkpt>
      <trkpt lat="45.78814" lon="6.7242">
        <ele>1587</ele>
        <time>2026-08-14T09:03:38.540Z</time>
      </trkpt>
      <trkpt lat="45.78814" lon="6.7242">
        <ele>1588</ele>
        <time>2026-08-14T09:03:39.540Z</time>
      </trkpt>
      <trkpt lat="45.78815" lon="6.7242">
        <ele>1588</ele>
        <time>2026-08-14T09:03:40.540Z</time>
      </trkpt>
      <trkpt lat="45.78815" lon="6.7242">
        <ele>1588</ele>
        <time>2026-08-14T09:03:41.540Z</time>
      </trkpt>
      <trkpt lat="45.78816" lon="6.7242">
        <ele>1588</ele>
        <time>2026-08-14T09:03:42.540Z</time>
      </trkpt>
      <trkpt lat="45.78817" lon="6.72419">
        <ele>1588</ele>
        <time>2026-08-14T09:03:43.540Z</time>
      </trkpt>
      <trkpt lat="45.78818" lon="6.7242">
        <ele>1589</ele>
        <time>2026-08-14T09:03:44.540Z</time>
      </trkpt>
      <trkpt lat="45.78818" lon="6.72421">
        <ele>1589</ele>
        <time>2026-08-14T09:03:45.540Z</time>
      </trkpt>
      <trkpt lat="45.78819" lon="6.72421">
        <ele>1589</ele>
        <time>2026-08-14T09:03:46.540Z</time>
      </trkpt>
      <trkpt lat="45.7882" lon="6.72421">
        <ele>1589</ele>
        <time>2026-08-14T09:03:47.540Z</time>
      </trkpt>
      <trkpt lat="45.7882" lon="6.72421">
        <ele>1589</ele>
        <time>2026-08-14T09:03:48.540Z</time>
      </trkpt>
      <trkpt lat="45.7882" lon="6.72421">
        <ele>1589</ele>
        <time>2026-08-14T09:03:49.540Z</time>
      </trkpt>
      <trkpt lat="45.78821" lon="6.72421">
        <ele>1590</ele>
        <time>2026-08-14T09:03:50.540Z</time>
      </trkpt>
      <trkpt lat="45.78821" lon="6.72421">
        <ele>1590</ele>
        <time>2026-08-14T09:03:51.540Z</time>
      </trkpt>
      <trkpt lat="45.78821" lon="6.72422">
        <ele>1590</ele>
        <time>2026-08-14T09:03:52.540Z</time>
      </trkpt>
      <trkpt lat="45.78821" lon="6.72422">
        <ele>1590</ele>
        <time>2026-08-14T09:03:53.540Z</time>
      </trkpt>
      <trkpt lat="45.7882" lon="6.72422">
        <ele>1591</ele>
        <time>2026-08-14T09:03:54.540Z</time>
      </trkpt>
      <trkpt lat="45.7882" lon="6.72422">
        <ele>1591</ele>
        <time>2026-08-14T09:03:55.540Z</time>
      </trkpt>
      <trkpt lat="45.7882" lon="6.72422">
        <ele>1591</ele>
        <time>2026-08-14T09:03:56.540Z</time>
      </trkpt>
      <trkpt lat="45.7882" lon="6.72421">
        <ele>1591</ele>
        <time>2026-08-14T09:03:57.540Z</time>
      </trkpt>
      <trkpt lat="45.7882" lon="6.7242">
        <ele>1592</ele>
        <time>2026-08-14T09:03:58.540Z</time>
      </trkpt>
      <trkpt lat="45.78821" lon="6.7242">
        <ele>1592</ele>
        <time>2026-08-14T09:03:59.540Z</time>
      </trkpt>
      <trkpt lat="45.78821" lon="6.7242">
        <ele>1592</ele>
        <time>2026-08-14T09:04:00.540Z</time>
      </trkpt>
      <trkpt lat="45.78821" lon="6.72419">
        <ele>1592</ele>
        <time>2026-08-14T09:04:01.540Z</time>
      </trkpt>
      <trkpt lat="45.78822" lon="6.72418">
        <ele>1593</ele>
        <time>2026-08-14T09:04:02.540Z</time>
      </trkpt>
      <trkpt lat="45.78822" lon="6.72418">
        <ele>1593</ele>
        <time>2026-08-14T09:04:03.540Z</time>
      </trkpt>
      <trkpt lat="45.78823" lon="6.72417">
        <ele>1593</ele>
        <time>2026-08-14T09:04:04.540Z</time>
      </trkpt>
      <trkpt lat="45.78823" lon="6.72417">
        <ele>1593</ele>
        <time>2026-08-14T09:04:05.540Z</time>
      </trkpt>
      <trkpt lat="45.78823" lon="6.72418">
        <ele>1594</ele>
        <time>2026-08-14T09:04:06.540Z</time>
      </trkpt>
      <trkpt lat="45.78823" lon="6.72418">
        <ele>1594</ele>
        <time>2026-08-14T09:04:07.540Z</time>
      </trkpt>
      <trkpt lat="45.78823" lon="6.72417">
        <ele>1595</ele>
        <time>2026-08-14T09:04:08.540Z</time>
      </trkpt>
      <trkpt lat="45.78823" lon="6.72417">
        <ele>1595</ele>
        <time>2026-08-14T09:04:09.540Z</time>
      </trkpt>
      <trkpt lat="45.78824" lon="6.72417">
        <ele>1596</ele>
        <time>2026-08-14T09:04:10.540Z</time>
      </trkpt>
      <trkpt lat="45.78824" lon="6.72417">
        <ele>1596</ele>
        <time>2026-08-14T09:04:11.540Z</time>
      </trkpt>
      <trkpt lat="45.78825" lon="6.72417">
        <ele>1597</ele>
        <time>2026-08-14T09:04:12.540Z</time>
      </trkpt>
      <trkpt lat="45.78825" lon="6.72417">
        <ele>1597</ele>
        <time>2026-08-14T09:04:13.540Z</time>
      </trkpt>
      <trkpt lat="45.78825" lon="6.72417">
        <ele>1598</ele>
        <time>2026-08-14T09:04:14.540Z</time>
      </trkpt>
      <trkpt lat="45.78825" lon="6.72417">
        <ele>1598</ele>
        <time>2026-08-14T09:04:15.540Z</time>
      </trkpt>
      <trkpt lat="45.78826" lon="6.72417">
        <ele>1599</ele>
        <time>2026-08-14T09:04:16.540Z</time>
      </trkpt>
      <trkpt lat="45.78826" lon="6.72417">
        <ele>1599</ele>
        <time>2026-08-14T09:04:17.540Z</time>
      </trkpt>
      <trkpt lat="45.78826" lon="6.72417">
        <ele>1600</ele>
        <time>2026-08-14T09:04:18.540Z</time>
      </trkpt>
      <trkpt lat="45.78826" lon="6.72417">
        <ele>1600</ele>
        <time>2026-08-14T09:04:19.540Z</time>
      </trkpt>
      <trkpt lat="45.78827" lon="6.72417">
        <ele>1601</ele>
        <time>2026-08-14T09:04:20.540Z</time>
      </trkpt>
      <trkpt lat="45.78827" lon="6.72418">
        <ele>1602</ele>
        <time>2026-08-14T09:04:21.540Z</time>
      </trkpt>
      <trkpt lat="45.78827" lon="6.72418">
        <ele>1602</ele>
        <time>2026-08-14T09:04:22.540Z</time>
      </trkpt>
      <trkpt lat="45.78827" lon="6.72417">
        <ele>1603</ele>
        <time>2026-08-14T09:04:23.540Z</time>
      </trkpt>
      <trkpt lat="45.78827" lon="6.72417">
        <ele>1604</ele>
        <time>2026-08-14T09:04:24.540Z</time>
      </trkpt>
      <trkpt lat="45.78827" lon="6.72416">
        <ele>1604</ele>
        <time>2026-08-14T09:04:25.540Z</time>
      </trkpt>
      <trkpt lat="45.78827" lon="6.72416">
        <ele>1605</ele>
        <time>2026-08-14T09:04:26.540Z</time>
      </trkpt>
      <trkpt lat="45.78827" lon="6.72415">
        <ele>1606</ele>
        <time>2026-08-14T09:04:27.540Z</time>
      </trkpt>
      <trkpt lat="45.78828" lon="6.72414">
        <ele>1606</ele>
        <time>2026-08-14T09:04:28.540Z</time>
      </trkpt>
      <trkpt lat="45.78829" lon="6.72413">
        <ele>1607</ele>
        <time>2026-08-14T09:04:29.540Z</time>
      </trkpt>
      <trkpt lat="45.78829" lon="6.72414">
        <ele>1607</ele>
        <time>2026-08-14T09:04:30.540Z</time>
      </trkpt>
      <trkpt lat="45.7883" lon="6.72414">
        <ele>1608</ele>
        <time>2026-08-14T09:04:31.540Z</time>
      </trkpt>
      <trkpt lat="45.78831" lon="6.72415">
        <ele>1608</ele>
        <time>2026-08-14T09:04:32.540Z</time>
      </trkpt>
      <trkpt lat="45.78832" lon="6.72415">
        <ele>1609</ele>
        <time>2026-08-14T09:04:33.540Z</time>
      </trkpt>
      <trkpt lat="45.78833" lon="6.72415">
        <ele>1609</ele>
        <time>2026-08-14T09:04:34.540Z</time>
      </trkpt>
      <trkpt lat="45.78833" lon="6.72414">
        <ele>1610</ele>
        <time>2026-08-14T09:04:35.540Z</time>
      </trkpt>
      <trkpt lat="45.78834" lon="6.72413">
        <ele>1610</ele>
        <time>2026-08-14T09:04:36.540Z</time>
      </trkpt>
      <trkpt lat="45.78835" lon="6.72413">
        <ele>1611</ele>
        <time>2026-08-14T09:04:37.540Z</time>
      </trkpt>
      <trkpt lat="45.78836" lon="6.72412">
        <ele>1611</ele>
        <time>2026-08-14T09:04:38.540Z</time>
      </trkpt>
      <trkpt lat="45.78837" lon="6.72411">
        <ele>1612</ele>
        <time>2026-08-14T09:04:39.540Z</time>
      </trkpt>
      <trkpt lat="45.78838" lon="6.72411">
        <ele>1612</ele>
        <time>2026-08-14T09:04:40.540Z</time>
      </trkpt>
      <trkpt lat="45.78839" lon="6.72411">
        <ele>1612</ele>
        <time>2026-08-14T09:04:41.540Z</time>
      </trkpt>
      <trkpt lat="45.7884" lon="6.72411">
        <ele>1612</ele>
        <time>2026-08-14T09:04:42.540Z</time>
      </trkpt>
      <trkpt lat="45.78842" lon="6.72412">
        <ele>1613</ele>
        <time>2026-08-14T09:04:43.540Z</time>
      </trkpt>
      <trkpt lat="45.78842" lon="6.72412">
        <ele>1613</ele>
        <time>2026-08-14T09:04:44.540Z</time>
      </trkpt>
      <trkpt lat="45.78843" lon="6.72412">
        <ele>1613</ele>
        <time>2026-08-14T09:04:45.540Z</time>
      </trkpt>
      <trkpt lat="45.78843" lon="6.72412">
        <ele>1613</ele>
        <time>2026-08-14T09:04:46.540Z</time>
      </trkpt>
      <trkpt lat="45.78844" lon="6.72412">
        <ele>1613</ele>
        <time>2026-08-14T09:04:47.540Z</time>
      </trkpt>
      <trkpt lat="45.78845" lon="6.72411">
        <ele>1613</ele>
        <time>2026-08-14T09:04:48.540Z</time>
      </trkpt>
      <trkpt lat="45.78847" lon="6.72411">
        <ele>1613</ele>
        <time>2026-08-14T09:04:49.540Z</time>
      </trkpt>
      <trkpt lat="45.78848" lon="6.72411">
        <ele>1613</ele>
        <time>2026-08-14T09:04:50.540Z</time>
      </trkpt>
      <trkpt lat="45.78849" lon="6.7241">
        <ele>1613</ele>
        <time>2026-08-14T09:04:51.540Z</time>
      </trkpt>
      <trkpt lat="45.78849" lon="6.7241">
        <ele>1613</ele>
        <time>2026-08-14T09:04:52.540Z</time>
      </trkpt>
      <trkpt lat="45.7885" lon="6.72409">
        <ele>1613</ele>
        <time>2026-08-14T09:04:53.540Z</time>
      </trkpt>
      <trkpt lat="45.7885" lon="6.7241">
        <ele>1613</ele>
        <time>2026-08-14T09:04:54.540Z</time>
      </trkpt>
      <trkpt lat="45.78851" lon="6.72409">
        <ele>1613</ele>
        <time>2026-08-14T09:04:55.540Z</time>
      </trkpt>
      <trkpt lat="45.78851" lon="6.72409">
        <ele>1613</ele>
        <time>2026-08-14T09:04:56.540Z</time>
      </trkpt>
      <trkpt lat="45.78852" lon="6.72409">
        <ele>1613</ele>
        <time>2026-08-14T09:04:57.540Z</time>
      </trkpt>
      <trkpt lat="45.78852" lon="6.72409">
        <ele>1612</ele>
        <time>2026-08-14T09:04:58.540Z</time>
      </trkpt>
      <trkpt lat="45.78852" lon="6.72409">
        <ele>1612</ele>
        <time>2026-08-14T09:04:59.540Z</time>
      </trkpt>
      <trkpt lat="45.78852" lon="6.72409">
        <ele>1612</ele>
        <time>2026-08-14T09:05:00.540Z</time>
      </trkpt>
      <trkpt lat="45.78853" lon="6.72408">
        <ele>1612</ele>
        <time>2026-08-14T09:05:01.540Z</time>
      </trkpt>
      <trkpt lat="45.78855" lon="6.72407">
        <ele>1612</ele>
        <time>2026-08-14T09:05:02.540Z</time>
      </trkpt>
      <trkpt lat="45.78856" lon="6.72407">
        <ele>1612</ele>
        <time>2026-08-14T09:05:03.540Z</time>
      </trkpt>
      <trkpt lat="45.78858" lon="6.72407">
        <ele>1612</ele>
        <time>2026-08-14T09:05:04.540Z</time>
      </trkpt>
      <trkpt lat="45.78859" lon="6.72407">
        <ele>1612</ele>
        <time>2026-08-14T09:05:05.540Z</time>
      </trkpt>
      <trkpt lat="45.7886" lon="6.72407">
        <ele>1613</ele>
        <time>2026-08-14T09:05:06.540Z</time>
      </trkpt>
      <trkpt lat="45.78862" lon="6.72407">
        <ele>1613</ele>
        <time>2026-08-14T09:05:07.540Z</time>
      </trkpt>
      <trkpt lat="45.78863" lon="6.72407">
        <ele>1614</ele>
        <time>2026-08-14T09:05:08.540Z</time>
      </trkpt>
      <trkpt lat="45.78864" lon="6.72407">
        <ele>1614</ele>
        <time>2026-08-14T09:05:09.540Z</time>
      </trkpt>
      <trkpt lat="45.78865" lon="6.72408">
        <ele>1615</ele>
        <time>2026-08-14T09:05:10.540Z</time>
      </trkpt>
      <trkpt lat="45.78866" lon="6.72408">
        <ele>1615</ele>
        <time>2026-08-14T09:05:11.540Z</time>
      </trkpt>
      <trkpt lat="45.78867" lon="6.72408">
        <ele>1615</ele>
        <time>2026-08-14T09:05:12.540Z</time>
      </trkpt>
      <trkpt lat="45.78868" lon="6.72408">
        <ele>1616</ele>
        <time>2026-08-14T09:05:13.540Z</time>
      </trkpt>
      <trkpt lat="45.78868" lon="6.72406">
        <ele>1616</ele>
        <time>2026-08-14T09:05:14.540Z</time>
      </trkpt>
      <trkpt lat="45.78869" lon="6.72406">
        <ele>1616</ele>
        <time>2026-08-14T09:05:15.540Z</time>
      </trkpt>
      <trkpt lat="45.78871" lon="6.72406">
        <ele>1616</ele>
        <time>2026-08-14T09:05:16.540Z</time>
      </trkpt>
      <trkpt lat="45.78873" lon="6.72406">
        <ele>1616</ele>
        <time>2026-08-14T09:05:17.540Z</time>
      </trkpt>
      <trkpt lat="45.78875" lon="6.72405">
        <ele>1616</ele>
        <time>2026-08-14T09:05:18.540Z</time>
      </trkpt>
      <trkpt lat="45.78876" lon="6.72405">
        <ele>1616</ele>
        <time>2026-08-14T09:05:19.540Z</time>
      </trkpt>
      <trkpt lat="45.78878" lon="6.72403">
        <ele>1616</ele>
        <time>2026-08-14T09:05:20.540Z</time>
      </trkpt>
      <trkpt lat="45.7888" lon="6.72402">
        <ele>1615</ele>
        <time>2026-08-14T09:05:21.540Z</time>
      </trkpt>
      <trkpt lat="45.78882" lon="6.72401">
        <ele>1615</ele>
        <time>2026-08-14T09:05:22.540Z</time>
      </trkpt>
      <trkpt lat="45.78884" lon="6.724">
        <ele>1614</ele>
        <time>2026-08-14T09:05:23.540Z</time>
      </trkpt>
      <trkpt lat="45.78887" lon="6.724">
        <ele>1614</ele>
        <time>2026-08-14T09:05:24.540Z</time>
      </trkpt>
      <trkpt lat="45.78889" lon="6.72399">
        <ele>1614</ele>
        <time>2026-08-14T09:05:25.540Z</time>
      </trkpt>
      <trkpt lat="45.78891" lon="6.72399">
        <ele>1614</ele>
        <time>2026-08-14T09:05:26.540Z</time>
      </trkpt>
      <trkpt lat="45.78893" lon="6.72399">
        <ele>1614</ele>
        <time>2026-08-14T09:05:27.540Z</time>
      </trkpt>
      <trkpt lat="45.78894" lon="6.72398">
        <ele>1613</ele>
        <time>2026-08-14T09:05:28.540Z</time>
      </trkpt>
      <trkpt lat="45.78895" lon="6.72398">
        <ele>1613</ele>
        <time>2026-08-14T09:05:29.540Z</time>
      </trkpt>
      <trkpt lat="45.78896" lon="6.72397">
        <ele>1613</ele>
        <time>2026-08-14T09:05:30.540Z</time>
      </trkpt>
      <trkpt lat="45.78898" lon="6.72398">
        <ele>1613</ele>
        <time>2026-08-14T09:05:31.540Z</time>
      </trkpt>
      <trkpt lat="45.78899" lon="6.72399">
        <ele>1613</ele>
        <time>2026-08-14T09:05:32.540Z</time>
      </trkpt>
      <trkpt lat="45.789" lon="6.72399">
        <ele>1613</ele>
        <time>2026-08-14T09:05:33.540Z</time>
      </trkpt>
      <trkpt lat="45.78901" lon="6.72399">
        <ele>1613</ele>
        <time>2026-08-14T09:05:34.540Z</time>
      </trkpt>
      <trkpt lat="45.78901" lon="6.724">
        <ele>1613</ele>
        <time>2026-08-14T09:05:35.540Z</time>
      </trkpt>
      <trkpt lat="45.78903" lon="6.724">
        <ele>1613</ele>
        <time>2026-08-14T09:05:36.540Z</time>
      </trkpt>
      <trkpt lat="45.78904" lon="6.724">
        <ele>1613</ele>
        <time>2026-08-14T09:05:37.540Z</time>
      </trkpt>
      <trkpt lat="45.78905" lon="6.724">
        <ele>1613</ele>
        <time>2026-08-14T09:05:38.540Z</time>
      </trkpt>
      <trkpt lat="45.78906" lon="6.724">
        <ele>1612</ele>
        <time>2026-08-14T09:05:39.540Z</time>
      </trkpt>
      <trkpt lat="45.78907" lon="6.724">
        <ele>1612</ele>
        <time>2026-08-14T09:05:40.540Z</time>
      </trkpt>
      <trkpt lat="45.78908" lon="6.724">
        <ele>1612</ele>
        <time>2026-08-14T09:05:41.540Z</time>
      </trkpt>
      <trkpt lat="45.78909" lon="6.724">
        <ele>1612</ele>
        <time>2026-08-14T09:05:42.540Z</time>
      </trkpt>
      <trkpt lat="45.7891" lon="6.72399">
        <ele>1612</ele>
        <time>2026-08-14T09:05:43.540Z</time>
      </trkpt>
      <trkpt lat="45.78911" lon="6.724">
        <ele>1612</ele>
        <time>2026-08-14T09:05:44.540Z</time>
      </trkpt>
      <trkpt lat="45.78912" lon="6.724">
        <ele>1612</ele>
        <time>2026-08-14T09:05:45.540Z</time>
      </trkpt>
      <trkpt lat="45.78913" lon="6.724">
        <ele>1612</ele>
        <time>2026-08-14T09:05:46.540Z</time>
      </trkpt>
      <trkpt lat="45.78914" lon="6.72401">
        <ele>1612</ele>
        <time>2026-08-14T09:05:47.540Z</time>
      </trkpt>
      <trkpt lat="45.78915" lon="6.72402">
        <ele>1612</ele>
        <time>2026-08-14T09:05:48.540Z</time>
      </trkpt>
      <trkpt lat="45.78915" lon="6.72402">
        <ele>1612</ele>
        <time>2026-08-14T09:05:49.540Z</time>
      </trkpt>
      <trkpt lat="45.78916" lon="6.72403">
        <ele>1611</ele>
        <time>2026-08-14T09:05:50.540Z</time>
      </trkpt>
      <trkpt lat="45.78916" lon="6.72404">
        <ele>1611</ele>
        <time>2026-08-14T09:05:51.540Z</time>
      </trkpt>
      <trkpt lat="45.78917" lon="6.72405">
        <ele>1611</ele>
        <time>2026-08-14T09:05:52.540Z</time>
      </trkpt>
      <trkpt lat="45.78917" lon="6.72406">
        <ele>1611</ele>
        <time>2026-08-14T09:05:53.540Z</time>
      </trkpt>
      <trkpt lat="45.78917" lon="6.72407">
        <ele>1611</ele>
        <time>2026-08-14T09:05:54.540Z</time>
      </trkpt>
      <trkpt lat="45.78917" lon="6.72409">
        <ele>1611</ele>
        <time>2026-08-14T09:05:55.540Z</time>
      </trkpt>
      <trkpt lat="45.78917" lon="6.7241">
        <ele>1610</ele>
        <time>2026-08-14T09:05:56.540Z</time>
      </trkpt>
      <trkpt lat="45.78917" lon="6.72411">
        <ele>1610</ele>
        <time>2026-08-14T09:05:57.540Z</time>
      </trkpt>
      <trkpt lat="45.78918" lon="6.72412">
        <ele>1610</ele>
        <time>2026-08-14T09:05:58.540Z</time>
      </trkpt>
      <trkpt lat="45.78919" lon="6.72412">
        <ele>1610</ele>
        <time>2026-08-14T09:05:59.540Z</time>
      </trkpt>
      <trkpt lat="45.7892" lon="6.72413">
        <ele>1609</ele>
        <time>2026-08-14T09:06:00.540Z</time>
      </trkpt>
      <trkpt lat="45.78921" lon="6.72413">
        <ele>1609</ele>
        <time>2026-08-14T09:06:01.540Z</time>
      </trkpt>
      <trkpt lat="45.78922" lon="6.72414">
        <ele>1609</ele>
        <time>2026-08-14T09:06:02.540Z</time>
      </trkpt>
      <trkpt lat="45.78923" lon="6.72415">
        <ele>1609</ele>
        <time>2026-08-14T09:06:03.540Z</time>
      </trkpt>
      <trkpt lat="45.78924" lon="6.72417">
        <ele>1609</ele>
        <time>2026-08-14T09:06:04.540Z</time>
      </trkpt>
      <trkpt lat="45.78925" lon="6.72419">
        <ele>1609</ele>
        <time>2026-08-14T09:06:05.540Z</time>
      </trkpt>
      <trkpt lat="45.78926" lon="6.7242">
        <ele>1609</ele>
        <time>2026-08-14T09:06:06.540Z</time>
      </trkpt>
      <trkpt lat="45.78927" lon="6.72422">
        <ele>1609</ele>
        <time>2026-08-14T09:06:07.540Z</time>
      </trkpt>
      <trkpt lat="45.78929" lon="6.72424">
        <ele>1609</ele>
        <time>2026-08-14T09:06:08.540Z</time>
      </trkpt>
      <trkpt lat="45.7893" lon="6.72426">
        <ele>1609</ele>
        <time>2026-08-14T09:06:09.540Z</time>
      </trkpt>
      <trkpt lat="45.78932" lon="6.72428">
        <ele>1609</ele>
        <time>2026-08-14T09:06:10.540Z</time>
      </trkpt>
      <trkpt lat="45.78933" lon="6.7243">
        <ele>1609</ele>
        <time>2026-08-14T09:06:11.540Z</time>
      </trkpt>
      <trkpt lat="45.78935" lon="6.72431">
        <ele>1609</ele>
        <time>2026-08-14T09:06:12.540Z</time>
      </trkpt>
      <trkpt lat="45.78936" lon="6.72433">
        <ele>1610</ele>
        <time>2026-08-14T09:06:13.540Z</time>
      </trkpt>
      <trkpt lat="45.78937" lon="6.72435">
        <ele>1610</ele>
        <time>2026-08-14T09:06:14.540Z</time>
      </trkpt>
      <trkpt lat="45.78939" lon="6.72437">
        <ele>1610</ele>
        <time>2026-08-14T09:06:15.540Z</time>
      </trkpt>
      <trkpt lat="45.78939" lon="6.72439">
        <ele>1610</ele>
        <time>2026-08-14T09:06:16.540Z</time>
      </trkpt>
      <trkpt lat="45.7894" lon="6.72441">
        <ele>1610</ele>
        <time>2026-08-14T09:06:17.540Z</time>
      </trkpt>
      <trkpt lat="45.78941" lon="6.72443">
        <ele>1610</ele>
        <time>2026-08-14T09:06:18.540Z</time>
      </trkpt>
      <trkpt lat="45.78942" lon="6.72445">
        <ele>1610</ele>
        <time>2026-08-14T09:06:19.540Z</time>
      </trkpt>
      <trkpt lat="45.78943" lon="6.72446">
        <ele>1610</ele>
        <time>2026-08-14T09:06:20.540Z</time>
      </trkpt>
      <trkpt lat="45.78944" lon="6.72448">
        <ele>1611</ele>
        <time>2026-08-14T09:06:21.540Z</time>
      </trkpt>
      <trkpt lat="45.78945" lon="6.72449">
        <ele>1611</ele>
        <time>2026-08-14T09:06:22.540Z</time>
      </trkpt>
      <trkpt lat="45.78946" lon="6.72449">
        <ele>1611</ele>
        <time>2026-08-14T09:06:23.540Z</time>
      </trkpt>
      <trkpt lat="45.78947" lon="6.72451">
        <ele>1612</ele>
        <time>2026-08-14T09:06:24.540Z</time>
      </trkpt>
      <trkpt lat="45.78949" lon="6.72452">
        <ele>1612</ele>
        <time>2026-08-14T09:06:25.540Z</time>
      </trkpt>
      <trkpt lat="45.7895" lon="6.72454">
        <ele>1612</ele>
        <time>2026-08-14T09:06:26.540Z</time>
      </trkpt>
      <trkpt lat="45.78951" lon="6.72455">
        <ele>1613</ele>
        <time>2026-08-14T09:06:27.540Z</time>
      </trkpt>
      <trkpt lat="45.78953" lon="6.72457">
        <ele>1613</ele>
        <time>2026-08-14T09:06:28.540Z</time>
      </trkpt>
      <trkpt lat="45.78955" lon="6.72458">
        <ele>1614</ele>
        <time>2026-08-14T09:06:29.540Z</time>
      </trkpt>
      <trkpt lat="45.78956" lon="6.72459">
        <ele>1614</ele>
        <time>2026-08-14T09:06:30.540Z</time>
      </trkpt>
      <trkpt lat="45.78958" lon="6.7246">
        <ele>1614</ele>
        <time>2026-08-14T09:06:31.540Z</time>
      </trkpt>
      <trkpt lat="45.78959" lon="6.72461">
        <ele>1614</ele>
        <time>2026-08-14T09:06:32.540Z</time>
      </trkpt>
      <trkpt lat="45.78961" lon="6.72462">
        <ele>1614</ele>
        <time>2026-08-14T09:06:33.540Z</time>
      </trkpt>
      <trkpt lat="45.78962" lon="6.72462">
        <ele>1614</ele>
        <time>2026-08-14T09:06:34.540Z</time>
      </trkpt>
      <trkpt lat="45.78963" lon="6.72463">
        <ele>1614</ele>
        <time>2026-08-14T09:06:35.540Z</time>
      </trkpt>
      <trkpt lat="45.78965" lon="6.72464">
        <ele>1614</ele>
        <time>2026-08-14T09:06:36.540Z</time>
      </trkpt>
      <trkpt lat="45.78966" lon="6.72464">
        <ele>1614</ele>
        <time>2026-08-14T09:06:37.540Z</time>
      </trkpt>
      <trkpt lat="45.78968" lon="6.72465">
        <ele>1614</ele>
        <time>2026-08-14T09:06:38.540Z</time>
      </trkpt>
      <trkpt lat="45.78969" lon="6.72466">
        <ele>1614</ele>
        <time>2026-08-14T09:06:39.540Z</time>
      </trkpt>
      <trkpt lat="45.78971" lon="6.72467">
        <ele>1614</ele>
        <time>2026-08-14T09:06:40.540Z</time>
      </trkpt>
      <trkpt lat="45.78973" lon="6.72468">
        <ele>1614</ele>
        <time>2026-08-14T09:06:41.540Z</time>
      </trkpt>
      <trkpt lat="45.78974" lon="6.72467">
        <ele>1614</ele>
        <time>2026-08-14T09:06:42.540Z</time>
      </trkpt>
      <trkpt lat="45.78976" lon="6.72467">
        <ele>1614</ele>
        <time>2026-08-14T09:06:43.540Z</time>
      </trkpt>
      <trkpt lat="45.78978" lon="6.72466">
        <ele>1614</ele>
        <time>2026-08-14T09:06:44.540Z</time>
      </trkpt>
      <trkpt lat="45.7898" lon="6.72466">
        <ele>1614</ele>
        <time>2026-08-14T09:06:45.540Z</time>
      </trkpt>
      <trkpt lat="45.78982" lon="6.72465">
        <ele>1615</ele>
        <time>2026-08-14T09:06:46.540Z</time>
      </trkpt>
      <trkpt lat="45.78983" lon="6.72462">
        <ele>1615</ele>
        <time>2026-08-14T09:06:47.540Z</time>
      </trkpt>
      <trkpt lat="45.78984" lon="6.72461">
        <ele>1615</ele>
        <time>2026-08-14T09:06:48.540Z</time>
      </trkpt>
      <trkpt lat="45.78986" lon="6.72461">
        <ele>1615</ele>
        <time>2026-08-14T09:06:49.540Z</time>
      </trkpt>
      <trkpt lat="45.78987" lon="6.72462">
        <ele>1615</ele>
        <time>2026-08-14T09:06:50.540Z</time>
      </trkpt>
      <trkpt lat="45.78989" lon="6.72463">
        <ele>1615</ele>
        <time>2026-08-14T09:06:51.540Z</time>
      </trkpt>
      <trkpt lat="45.78991" lon="6.72464">
        <ele>1615</ele>
        <time>2026-08-14T09:06:52.540Z</time>
      </trkpt>
      <trkpt lat="45.78992" lon="6.72465">
        <ele>1615</ele>
        <time>2026-08-14T09:06:53.540Z</time>
      </trkpt>
      <trkpt lat="45.78994" lon="6.72466">
        <ele>1615</ele>
        <time>2026-08-14T09:06:54.540Z</time>
      </trkpt>
      <trkpt lat="45.78996" lon="6.72467">
        <ele>1615</ele>
        <time>2026-08-14T09:06:55.540Z</time>
      </trkpt>
      <trkpt lat="45.78997" lon="6.72469">
        <ele>1616</ele>
        <time>2026-08-14T09:06:56.540Z</time>
      </trkpt>
      <trkpt lat="45.78998" lon="6.7247">
        <ele>1616</ele>
        <time>2026-08-14T09:06:57.540Z</time>
      </trkpt>
      <trkpt lat="45.79" lon="6.72471">
        <ele>1617</ele>
        <time>2026-08-14T09:06:58.540Z</time>
      </trkpt>
      <trkpt lat="45.79001" lon="6.72473">
        <ele>1617</ele>
        <time>2026-08-14T09:06:59.540Z</time>
      </trkpt>
      <trkpt lat="45.79002" lon="6.72474">
        <ele>1617</ele>
        <time>2026-08-14T09:07:00.540Z</time>
      </trkpt>
      <trkpt lat="45.79004" lon="6.72476">
        <ele>1618</ele>
        <time>2026-08-14T09:07:01.540Z</time>
      </trkpt>
      <trkpt lat="45.79005" lon="6.72479">
        <ele>1618</ele>
        <time>2026-08-14T09:07:02.540Z</time>
      </trkpt>
      <trkpt lat="45.79006" lon="6.72481">
        <ele>1618</ele>
        <time>2026-08-14T09:07:03.540Z</time>
      </trkpt>
      <trkpt lat="45.79006" lon="6.72483">
        <ele>1619</ele>
        <time>2026-08-14T09:07:04.540Z</time>
      </trkpt>
      <trkpt lat="45.79006" lon="6.72485">
        <ele>1619</ele>
        <time>2026-08-14T09:07:05.540Z</time>
      </trkpt>
      <trkpt lat="45.79007" lon="6.72487">
        <ele>1619</ele>
        <time>2026-08-14T09:07:06.540Z</time>
      </trkpt>
      <trkpt lat="45.79007" lon="6.72489">
        <ele>1620</ele>
        <time>2026-08-14T09:07:07.540Z</time>
      </trkpt>
      <trkpt lat="45.79007" lon="6.72491">
        <ele>1620</ele>
        <time>2026-08-14T09:07:08.540Z</time>
      </trkpt>
      <trkpt lat="45.79007" lon="6.72493">
        <ele>1620</ele>
        <time>2026-08-14T09:07:09.540Z</time>
      </trkpt>
      <trkpt lat="45.79007" lon="6.72494">
        <ele>1620</ele>
        <time>2026-08-14T09:07:10.540Z</time>
      </trkpt>
      <trkpt lat="45.79007" lon="6.72494">
        <ele>1621</ele>
        <time>2026-08-14T09:07:11.540Z</time>
      </trkpt>
      <trkpt lat="45.79008" lon="6.72495">
        <ele>1621</ele>
        <time>2026-08-14T09:07:12.540Z</time>
      </trkpt>
      <trkpt lat="45.79009" lon="6.72496">
        <ele>1622</ele>
        <time>2026-08-14T09:07:13.540Z</time>
      </trkpt>
      <trkpt lat="45.79011" lon="6.72497">
        <ele>1622</ele>
        <time>2026-08-14T09:07:14.540Z</time>
      </trkpt>
      <trkpt lat="45.79012" lon="6.72498">
        <ele>1623</ele>
        <time>2026-08-14T09:07:15.540Z</time>
      </trkpt>
      <trkpt lat="45.79013" lon="6.725">
        <ele>1623</ele>
        <time>2026-08-14T09:07:16.540Z</time>
      </trkpt>
      <trkpt lat="45.79013" lon="6.72501">
        <ele>1623</ele>
        <time>2026-08-14T09:07:17.540Z</time>
      </trkpt>
      <trkpt lat="45.79013" lon="6.72503">
        <ele>1623</ele>
        <time>2026-08-14T09:07:18.540Z</time>
      </trkpt>
      <trkpt lat="45.79013" lon="6.72505">
        <ele>1623</ele>
        <time>2026-08-14T09:07:19.540Z</time>
      </trkpt>
      <trkpt lat="45.79014" lon="6.72506">
        <ele>1623</ele>
        <time>2026-08-14T09:07:20.540Z</time>
      </trkpt>
      <trkpt lat="45.79015" lon="6.72507">
        <ele>1623</ele>
        <time>2026-08-14T09:07:21.540Z</time>
      </trkpt>
      <trkpt lat="45.79015" lon="6.72509">
        <ele>1623</ele>
        <time>2026-08-14T09:07:22.540Z</time>
      </trkpt>
      <trkpt lat="45.79016" lon="6.7251">
        <ele>1624</ele>
        <time>2026-08-14T09:07:23.540Z</time>
      </trkpt>
      <trkpt lat="45.79017" lon="6.7251">
        <ele>1624</ele>
        <time>2026-08-14T09:07:24.540Z</time>
      </trkpt>
      <trkpt lat="45.79017" lon="6.72511">
        <ele>1623</ele>
        <time>2026-08-14T09:07:25.540Z</time>
      </trkpt>
      <trkpt lat="45.79017" lon="6.72511">
        <ele>1623</ele>
        <time>2026-08-14T09:07:26.540Z</time>
      </trkpt>
      <trkpt lat="45.79017" lon="6.72512">
        <ele>1623</ele>
        <time>2026-08-14T09:07:27.540Z</time>
      </trkpt>
      <trkpt lat="45.79017" lon="6.72512">
        <ele>1623</ele>
        <time>2026-08-14T09:07:28.540Z</time>
      </trkpt>
      <trkpt lat="45.79017" lon="6.72513">
        <ele>1623</ele>
        <time>2026-08-14T09:07:29.540Z</time>
      </trkpt>
      <trkpt lat="45.79018" lon="6.72513">
        <ele>1623</ele>
        <time>2026-08-14T09:07:30.540Z</time>
      </trkpt>
      <trkpt lat="45.79018" lon="6.72512">
        <ele>1623</ele>
        <time>2026-08-14T09:07:31.540Z</time>
      </trkpt>
      <trkpt lat="45.79019" lon="6.72512">
        <ele>1623</ele>
        <time>2026-08-14T09:07:32.540Z</time>
      </trkpt>
      <trkpt lat="45.79019" lon="6.72511">
        <ele>1623</ele>
        <time>2026-08-14T09:07:33.540Z</time>
      </trkpt>
      <trkpt lat="45.7902" lon="6.72511">
        <ele>1622</ele>
        <time>2026-08-14T09:07:34.540Z</time>
      </trkpt>
      <trkpt lat="45.79021" lon="6.72512">
        <ele>1622</ele>
        <time>2026-08-14T09:07:35.540Z</time>
      </trkpt>
      <trkpt lat="45.79022" lon="6.72513">
        <ele>1622</ele>
        <time>2026-08-14T09:07:36.540Z</time>
      </trkpt>
      <trkpt lat="45.79024" lon="6.72514">
        <ele>1622</ele>
        <time>2026-08-14T09:07:37.540Z</time>
      </trkpt>
      <trkpt lat="45.79025" lon="6.72516">
        <ele>1622</ele>
        <time>2026-08-14T09:07:38.540Z</time>
      </trkpt>
      <trkpt lat="45.79026" lon="6.72517">
        <ele>1623</ele>
        <time>2026-08-14T09:07:39.540Z</time>
      </trkpt>
      <trkpt lat="45.79027" lon="6.72517">
        <ele>1623</ele>
        <time>2026-08-14T09:07:40.540Z</time>
      </trkpt>
      <trkpt lat="45.79028" lon="6.72518">
        <ele>1623</ele>
        <time>2026-08-14T09:07:41.540Z</time>
      </trkpt>
      <trkpt lat="45.79029" lon="6.72519">
        <ele>1623</ele>
        <time>2026-08-14T09:07:42.540Z</time>
      </trkpt>
      <trkpt lat="45.79031" lon="6.7252">
        <ele>1624</ele>
        <time>2026-08-14T09:07:43.540Z</time>
      </trkpt>
      <trkpt lat="45.79032" lon="6.72521">
        <ele>1624</ele>
        <time>2026-08-14T09:07:44.540Z</time>
      </trkpt>
      <trkpt lat="45.79033" lon="6.72522">
        <ele>1625</ele>
        <time>2026-08-14T09:07:45.540Z</time>
      </trkpt>
      <trkpt lat="45.79033" lon="6.72523">
        <ele>1625</ele>
        <time>2026-08-14T09:07:46.540Z</time>
      </trkpt>
      <trkpt lat="45.79034" lon="6.72524">
        <ele>1625</ele>
        <time>2026-08-14T09:07:47.540Z</time>
      </trkpt>
      <trkpt lat="45.79034" lon="6.72524">
        <ele>1626</ele>
        <time>2026-08-14T09:07:48.540Z</time>
      </trkpt>
      <trkpt lat="45.79034" lon="6.72524">
        <ele>1626</ele>
        <time>2026-08-14T09:07:49.540Z</time>
      </trkpt>
      <trkpt lat="45.79035" lon="6.72524">
        <ele>1627</ele>
        <time>2026-08-14T09:07:50.540Z</time>
      </trkpt>
      <trkpt lat="45.79036" lon="6.72524">
        <ele>1627</ele>
        <time>2026-08-14T09:07:51.540Z</time>
      </trkpt>
      <trkpt lat="45.79036" lon="6.72524">
        <ele>1628</ele>
        <time>2026-08-14T09:07:52.540Z</time>
      </trkpt>
      <trkpt lat="45.79036" lon="6.72524">
        <ele>1628</ele>
        <time>2026-08-14T09:07:53.540Z</time>
      </trkpt>
      <trkpt lat="45.79037" lon="6.72526">
        <ele>1628</ele>
        <time>2026-08-14T09:07:54.540Z</time>
      </trkpt>
      <trkpt lat="45.79038" lon="6.72529">
        <ele>1628</ele>
        <time>2026-08-14T09:07:55.540Z</time>
      </trkpt>
      <trkpt lat="45.79038" lon="6.7253">
        <ele>1628</ele>
        <time>2026-08-14T09:07:56.540Z</time>
      </trkpt>
      <trkpt lat="45.79039" lon="6.72532">
        <ele>1628</ele>
        <time>2026-08-14T09:07:57.540Z</time>
      </trkpt>
      <trkpt lat="45.79039" lon="6.72533">
        <ele>1628</ele>
        <time>2026-08-14T09:07:58.540Z</time>
      </trkpt>
      <trkpt lat="45.79039" lon="6.72533">
        <ele>1628</ele>
        <time>2026-08-14T09:07:59.540Z</time>
      </trkpt>
      <trkpt lat="45.79039" lon="6.72532">
        <ele>1628</ele>
        <time>2026-08-14T09:08:00.540Z</time>
      </trkpt>
      <trkpt lat="45.79039" lon="6.72532">
        <ele>1629</ele>
        <time>2026-08-14T09:08:01.540Z</time>
      </trkpt>
      <trkpt lat="45.79038" lon="6.72532">
        <ele>1629</ele>
        <time>2026-08-14T09:08:02.540Z</time>
      </trkpt>
      <trkpt lat="45.79038" lon="6.72532">
        <ele>1629</ele>
        <time>2026-08-14T09:08:03.540Z</time>
      </trkpt>
      <trkpt lat="45.79038" lon="6.72532">
        <ele>1629</ele>
        <time>2026-08-14T09:08:04.540Z</time>
      </trkpt>
      <trkpt lat="45.79038" lon="6.72533">
        <ele>1629</ele>
        <time>2026-08-14T09:08:05.540Z</time>
      </trkpt>
      <trkpt lat="45.79039" lon="6.72533">
        <ele>1629</ele>
        <time>2026-08-14T09:08:06.540Z</time>
      </trkpt>
      <trkpt lat="45.79039" lon="6.72533">
        <ele>1629</ele>
        <time>2026-08-14T09:08:07.540Z</time>
      </trkpt>
      <trkpt lat="45.79039" lon="6.72533">
        <ele>1628</ele>
        <time>2026-08-14T09:08:08.540Z</time>
      </trkpt>
      <trkpt lat="45.7904" lon="6.72533">
        <ele>1627</ele>
        <time>2026-08-14T09:08:09.540Z</time>
      </trkpt>
      <trkpt lat="45.79041" lon="6.72532">
        <ele>1626</ele>
        <time>2026-08-14T09:08:10.540Z</time>
      </trkpt>
      <trkpt lat="45.79042" lon="6.72531">
        <ele>1626</ele>
        <time>2026-08-14T09:08:11.540Z</time>
      </trkpt>
      <trkpt lat="45.79043" lon="6.72531">
        <ele>1625</ele>
        <time>2026-08-14T09:08:12.540Z</time>
      </trkpt>
      <trkpt lat="45.79045" lon="6.7253">
        <ele>1624</ele>
        <time>2026-08-14T09:08:13.540Z</time>
      </trkpt>
      <trkpt lat="45.79047" lon="6.7253">
        <ele>1624</ele>
        <time>2026-08-14T09:08:14.540Z</time>
      </trkpt>
      <trkpt lat="45.79048" lon="6.72531">
        <ele>1623</ele>
        <time>2026-08-14T09:08:15.540Z</time>
      </trkpt>
      <trkpt lat="45.79049" lon="6.72532">
        <ele>1623</ele>
        <time>2026-08-14T09:08:16.540Z</time>
      </trkpt>
      <trkpt lat="45.79051" lon="6.72534">
        <ele>1623</ele>
        <time>2026-08-14T09:08:17.540Z</time>
      </trkpt>
      <trkpt lat="45.79052" lon="6.72535">
        <ele>1623</ele>
        <time>2026-08-14T09:08:18.540Z</time>
      </trkpt>
      <trkpt lat="45.79054" lon="6.72536">
        <ele>1622</ele>
        <time>2026-08-14T09:08:19.540Z</time>
      </trkpt>
      <trkpt lat="45.79056" lon="6.72537">
        <ele>1622</ele>
        <time>2026-08-14T09:08:20.540Z</time>
      </trkpt>
      <trkpt lat="45.79058" lon="6.72538">
        <ele>1622</ele>
        <time>2026-08-14T09:08:21.540Z</time>
      </trkpt>
      <trkpt lat="45.7906" lon="6.72539">
        <ele>1622</ele>
        <time>2026-08-14T09:08:22.540Z</time>
      </trkpt>
      <trkpt lat="45.79062" lon="6.7254">
        <ele>1622</ele>
        <time>2026-08-14T09:08:23.540Z</time>
      </trkpt>
      <trkpt lat="45.79064" lon="6.72542">
        <ele>1621</ele>
        <time>2026-08-14T09:08:24.540Z</time>
      </trkpt>
      <trkpt lat="45.79066" lon="6.72543">
        <ele>1621</ele>
        <time>2026-08-14T09:08:25.540Z</time>
      </trkpt>
      <trkpt lat="45.79067" lon="6.72544">
        <ele>1621</ele>
        <time>2026-08-14T09:08:26.540Z</time>
      </trkpt>
      <trkpt lat="45.79067" lon="6.72545">
        <ele>1621</ele>
        <time>2026-08-14T09:08:27.540Z</time>
      </trkpt>
      <trkpt lat="45.79068" lon="6.72546">
        <ele>1621</ele>
        <time>2026-08-14T09:08:28.540Z</time>
      </trkpt>
      <trkpt lat="45.7907" lon="6.72547">
        <ele>1620</ele>
        <time>2026-08-14T09:08:29.540Z</time>
      </trkpt>
      <trkpt lat="45.79072" lon="6.72547">
        <ele>1620</ele>
        <time>2026-08-14T09:08:30.540Z</time>
      </trkpt>
      <trkpt lat="45.79073" lon="6.72546">
        <ele>1620</ele>
        <time>2026-08-14T09:08:31.540Z</time>
      </trkpt>
      <trkpt lat="45.79074" lon="6.72546">
        <ele>1620</ele>
        <time>2026-08-14T09:08:32.540Z</time>
      </trkpt>
      <trkpt lat="45.79075" lon="6.72546">
        <ele>1619</ele>
        <time>2026-08-14T09:08:33.540Z</time>
      </trkpt>
      <trkpt lat="45.79076" lon="6.72546">
        <ele>1619</ele>
        <time>2026-08-14T09:08:34.540Z</time>
      </trkpt>
      <trkpt lat="45.79077" lon="6.72545">
        <ele>1619</ele>
        <time>2026-08-14T09:08:35.540Z</time>
      </trkpt>
      <trkpt lat="45.79077" lon="6.72545">
        <ele>1619</ele>
        <time>2026-08-14T09:08:36.540Z</time>
      </trkpt>
      <trkpt lat="45.79077" lon="6.72544">
        <ele>1619</ele>
        <time>2026-08-14T09:08:37.540Z</time>
      </trkpt>
      <trkpt lat="45.79078" lon="6.72545">
        <ele>1619</ele>
        <time>2026-08-14T09:08:38.540Z</time>
      </trkpt>
      <trkpt lat="45.79079" lon="6.72545">
        <ele>1618</ele>
        <time>2026-08-14T09:08:39.540Z</time>
      </trkpt>
      <trkpt lat="45.79081" lon="6.72545">
        <ele>1618</ele>
        <time>2026-08-14T09:08:40.540Z</time>
      </trkpt>
      <trkpt lat="45.79083" lon="6.72544">
        <ele>1618</ele>
        <time>2026-08-14T09:08:41.540Z</time>
      </trkpt>
      <trkpt lat="45.79085" lon="6.72543">
        <ele>1618</ele>
        <time>2026-08-14T09:08:42.540Z</time>
      </trkpt>
      <trkpt lat="45.79086" lon="6.72542">
        <ele>1618</ele>
        <time>2026-08-14T09:08:43.540Z</time>
      </trkpt>
      <trkpt lat="45.79088" lon="6.72542">
        <ele>1618</ele>
        <time>2026-08-14T09:08:44.540Z</time>
      </trkpt>
      <trkpt lat="45.79091" lon="6.72543">
        <ele>1618</ele>
        <time>2026-08-14T09:08:45.540Z</time>
      </trkpt>
      <trkpt lat="45.79093" lon="6.72544">
        <ele>1618</ele>
        <time>2026-08-14T09:08:46.540Z</time>
      </trkpt>
      <trkpt lat="45.79094" lon="6.72545">
        <ele>1618</ele>
        <time>2026-08-14T09:08:47.540Z</time>
      </trkpt>
      <trkpt lat="45.79095" lon="6.72546">
        <ele>1618</ele>
        <time>2026-08-14T09:08:48.540Z</time>
      </trkpt>
      <trkpt lat="45.79096" lon="6.72547">
        <ele>1618</ele>
        <time>2026-08-14T09:08:49.540Z</time>
      </trkpt>
      <trkpt lat="45.79097" lon="6.72547">
        <ele>1619</ele>
        <time>2026-08-14T09:08:50.540Z</time>
      </trkpt>
      <trkpt lat="45.79098" lon="6.72548">
        <ele>1619</ele>
        <time>2026-08-14T09:08:51.540Z</time>
      </trkpt>
      <trkpt lat="45.79099" lon="6.72549">
        <ele>1619</ele>
        <time>2026-08-14T09:08:52.540Z</time>
      </trkpt>
      <trkpt lat="45.791" lon="6.72549">
        <ele>1620</ele>
        <time>2026-08-14T09:08:53.540Z</time>
      </trkpt>
      <trkpt lat="45.79102" lon="6.7255">
        <ele>1620</ele>
        <time>2026-08-14T09:08:54.540Z</time>
      </trkpt>
      <trkpt lat="45.79103" lon="6.72551">
        <ele>1620</ele>
        <time>2026-08-14T09:08:55.540Z</time>
      </trkpt>
      <trkpt lat="45.79105" lon="6.72552">
        <ele>1621</ele>
        <time>2026-08-14T09:08:56.540Z</time>
      </trkpt>
      <trkpt lat="45.79106" lon="6.72553">
        <ele>1621</ele>
        <time>2026-08-14T09:08:57.540Z</time>
      </trkpt>
      <trkpt lat="45.79108" lon="6.72554">
        <ele>1621</ele>
        <time>2026-08-14T09:08:58.540Z</time>
      </trkpt>
      <trkpt lat="45.7911" lon="6.72554">
        <ele>1622</ele>
        <time>2026-08-14T09:08:59.540Z</time>
      </trkpt>
      <trkpt lat="45.79112" lon="6.72555">
        <ele>1622</ele>
        <time>2026-08-14T09:09:00.540Z</time>
      </trkpt>
      <trkpt lat="45.79114" lon="6.72557">
        <ele>1622</ele>
        <time>2026-08-14T09:09:01.540Z</time>
      </trkpt>
      <trkpt lat="45.79115" lon="6.72558">
        <ele>1622</ele>
        <time>2026-08-14T09:09:02.540Z</time>
      </trkpt>
      <trkpt lat="45.79115" lon="6.72561">
        <ele>1622</ele>
        <time>2026-08-14T09:09:03.540Z</time>
      </trkpt>
      <trkpt lat="45.79115" lon="6.72562">
        <ele>1622</ele>
        <time>2026-08-14T09:09:04.540Z</time>
      </trkpt>
      <trkpt lat="45.79116" lon="6.72564">
        <ele>1622</ele>
        <time>2026-08-14T09:09:05.540Z</time>
      </trkpt>
      <trkpt lat="45.79117" lon="6.72565">
        <ele>1622</ele>
        <time>2026-08-14T09:09:06.540Z</time>
      </trkpt>
      <trkpt lat="45.79118" lon="6.72565">
        <ele>1622</ele>
        <time>2026-08-14T09:09:07.540Z</time>
      </trkpt>
      <trkpt lat="45.79119" lon="6.72565">
        <ele>1621</ele>
        <time>2026-08-14T09:09:08.540Z</time>
      </trkpt>
      <trkpt lat="45.7912" lon="6.72565">
        <ele>1621</ele>
        <time>2026-08-14T09:09:09.540Z</time>
      </trkpt>
      <trkpt lat="45.79121" lon="6.72565">
        <ele>1621</ele>
        <time>2026-08-14T09:09:10.540Z</time>
      </trkpt>
      <trkpt lat="45.79121" lon="6.72566">
        <ele>1621</ele>
        <time>2026-08-14T09:09:11.540Z</time>
      </trkpt>
      <trkpt lat="45.79122" lon="6.72566">
        <ele>1621</ele>
        <time>2026-08-14T09:09:12.540Z</time>
      </trkpt>
      <trkpt lat="45.79123" lon="6.72568">
        <ele>1621</ele>
        <time>2026-08-14T09:09:13.540Z</time>
      </trkpt>
      <trkpt lat="45.79124" lon="6.72569">
        <ele>1621</ele>
        <time>2026-08-14T09:09:14.540Z</time>
      </trkpt>
      <trkpt lat="45.79124" lon="6.7257">
        <ele>1621</ele>
        <time>2026-08-14T09:09:15.540Z</time>
      </trkpt>
      <trkpt lat="45.79125" lon="6.72572">
        <ele>1621</ele>
        <time>2026-08-14T09:09:16.540Z</time>
      </trkpt>
      <trkpt lat="45.79126" lon="6.72573">
        <ele>1622</ele>
        <time>2026-08-14T09:09:17.540Z</time>
      </trkpt>
      <trkpt lat="45.79127" lon="6.72575">
        <ele>1622</ele>
        <time>2026-08-14T09:09:18.540Z</time>
      </trkpt>
      <trkpt lat="45.79128" lon="6.72576">
        <ele>1622</ele>
        <time>2026-08-14T09:09:19.540Z</time>
      </trkpt>
      <trkpt lat="45.79129" lon="6.72577">
        <ele>1622</ele>
        <time>2026-08-14T09:09:20.540Z</time>
      </trkpt>
      <trkpt lat="45.7913" lon="6.72577">
        <ele>1623</ele>
        <time>2026-08-14T09:09:21.540Z</time>
      </trkpt>
      <trkpt lat="45.79132" lon="6.72577">
        <ele>1623</ele>
        <time>2026-08-14T09:09:22.540Z</time>
      </trkpt>
      <trkpt lat="45.79134" lon="6.72578">
        <ele>1623</ele>
        <time>2026-08-14T09:09:23.540Z</time>
      </trkpt>
      <trkpt lat="45.79136" lon="6.72578">
        <ele>1623</ele>
        <time>2026-08-14T09:09:24.540Z</time>
      </trkpt>
      <trkpt lat="45.79137" lon="6.72578">
        <ele>1624</ele>
        <time>2026-08-14T09:09:25.540Z</time>
      </trkpt>
      <trkpt lat="45.79138" lon="6.72578">
        <ele>1624</ele>
        <time>2026-08-14T09:09:26.540Z</time>
      </trkpt>
      <trkpt lat="45.7914" lon="6.72579">
        <ele>1624</ele>
        <time>2026-08-14T09:09:27.540Z</time>
      </trkpt>
      <trkpt lat="45.79141" lon="6.72578">
        <ele>1624</ele>
        <time>2026-08-14T09:09:28.540Z</time>
      </trkpt>
      <trkpt lat="45.79142" lon="6.72579">
        <ele>1624</ele>
        <time>2026-08-14T09:09:29.540Z</time>
      </trkpt>
      <trkpt lat="45.79144" lon="6.7258">
        <ele>1624</ele>
        <time>2026-08-14T09:09:30.540Z</time>
      </trkpt>
      <trkpt lat="45.79146" lon="6.72581">
        <ele>1624</ele>
        <time>2026-08-14T09:09:31.540Z</time>
      </trkpt>
      <trkpt lat="45.79147" lon="6.72581">
        <ele>1624</ele>
        <time>2026-08-14T09:09:32.540Z</time>
      </trkpt>
      <trkpt lat="45.79147" lon="6.72581">
        <ele>1624</ele>
        <time>2026-08-14T09:09:33.540Z</time>
      </trkpt>
      <trkpt lat="45.79147" lon="6.7258">
        <ele>1625</ele>
        <time>2026-08-14T09:09:34.540Z</time>
      </trkpt>
      <trkpt lat="45.79148" lon="6.7258">
        <ele>1625</ele>
        <time>2026-08-14T09:09:35.540Z</time>
      </trkpt>
      <trkpt lat="45.79149" lon="6.7258">
        <ele>1625</ele>
        <time>2026-08-14T09:09:36.540Z</time>
      </trkpt>
      <trkpt lat="45.79151" lon="6.7258">
        <ele>1625</ele>
        <time>2026-08-14T09:09:37.540Z</time>
      </trkpt>
      <trkpt lat="45.79153" lon="6.7258">
        <ele>1625</ele>
        <time>2026-08-14T09:09:38.540Z</time>
      </trkpt>
      <trkpt lat="45.79155" lon="6.7258">
        <ele>1626</ele>
        <time>2026-08-14T09:09:39.540Z</time>
      </trkpt>
      <trkpt lat="45.79156" lon="6.7258">
        <ele>1626</ele>
        <time>2026-08-14T09:09:40.540Z</time>
      </trkpt>
      <trkpt lat="45.79158" lon="6.72581">
        <ele>1627</ele>
        <time>2026-08-14T09:09:41.540Z</time>
      </trkpt>
      <trkpt lat="45.79159" lon="6.72582">
        <ele>1627</ele>
        <time>2026-08-14T09:09:42.540Z</time>
      </trkpt>
      <trkpt lat="45.7916" lon="6.72582">
        <ele>1627</ele>
        <time>2026-08-14T09:09:43.540Z</time>
      </trkpt>
      <trkpt lat="45.79161" lon="6.72581">
        <ele>1627</ele>
        <time>2026-08-14T09:09:44.540Z</time>
      </trkpt>
      <trkpt lat="45.79162" lon="6.72581">
        <ele>1627</ele>
        <time>2026-08-14T09:09:45.540Z</time>
      </trkpt>
      <trkpt lat="45.79164" lon="6.72581">
        <ele>1626</ele>
        <time>2026-08-14T09:09:46.540Z</time>
      </trkpt>
      <trkpt lat="45.79166" lon="6.72582">
        <ele>1626</ele>
        <time>2026-08-14T09:09:47.540Z</time>
      </trkpt>
      <trkpt lat="45.79168" lon="6.72582">
        <ele>1626</ele>
        <time>2026-08-14T09:09:48.540Z</time>
      </trkpt>
      <trkpt lat="45.79169" lon="6.72583">
        <ele>1625</ele>
        <time>2026-08-14T09:09:49.540Z</time>
      </trkpt>
      <trkpt lat="45.79171" lon="6.72583">
        <ele>1625</ele>
        <time>2026-08-14T09:09:50.540Z</time>
      </trkpt>
      <trkpt lat="45.79172" lon="6.72584">
        <ele>1625</ele>
        <time>2026-08-14T09:09:51.540Z</time>
      </trkpt>
      <trkpt lat="45.79173" lon="6.72584">
        <ele>1624</ele>
        <time>2026-08-14T09:09:52.540Z</time>
      </trkpt>
      <trkpt lat="45.79174" lon="6.72584">
        <ele>1623</ele>
        <time>2026-08-14T09:09:53.540Z</time>
      </trkpt>
      <trkpt lat="45.79175" lon="6.72584">
        <ele>1622</ele>
        <time>2026-08-14T09:09:54.540Z</time>
      </trkpt>
      <trkpt lat="45.79176" lon="6.72585">
        <ele>1622</ele>
        <time>2026-08-14T09:09:55.540Z</time>
      </trkpt>
      <trkpt lat="45.79177" lon="6.72586">
        <ele>1621</ele>
        <time>2026-08-14T09:09:56.540Z</time>
      </trkpt>
      <trkpt lat="45.79177" lon="6.72586">
        <ele>1621</ele>
        <time>2026-08-14T09:09:57.540Z</time>
      </trkpt>
      <trkpt lat="45.79178" lon="6.72587">
        <ele>1620</ele>
        <time>2026-08-14T09:09:58.540Z</time>
      </trkpt>
      <trkpt lat="45.79179" lon="6.72587">
        <ele>1620</ele>
        <time>2026-08-14T09:09:59.540Z</time>
      </trkpt>
      <trkpt lat="45.7918" lon="6.72588">
        <ele>1620</ele>
        <time>2026-08-14T09:10:00.540Z</time>
      </trkpt>
      <trkpt lat="45.7918" lon="6.72589">
        <ele>1620</ele>
        <time>2026-08-14T09:10:01.540Z</time>
      </trkpt>
      <trkpt lat="45.79181" lon="6.72589">
        <ele>1620</ele>
        <time>2026-08-14T09:10:02.540Z</time>
      </trkpt>
      <trkpt lat="45.79182" lon="6.7259">
        <ele>1620</ele>
        <time>2026-08-14T09:10:03.540Z</time>
      </trkpt>
      <trkpt lat="45.79182" lon="6.7259">
        <ele>1620</ele>
        <time>2026-08-14T09:10:04.540Z</time>
      </trkpt>
      <trkpt lat="45.79183" lon="6.7259">
        <ele>1619</ele>
        <time>2026-08-14T09:10:05.540Z</time>
      </trkpt>
      <trkpt lat="45.79184" lon="6.72589">
        <ele>1619</ele>
        <time>2026-08-14T09:10:06.540Z</time>
      </trkpt>
      <trkpt lat="45.79185" lon="6.72589">
        <ele>1619</ele>
        <time>2026-08-14T09:10:07.540Z</time>
      </trkpt>
      <trkpt lat="45.79186" lon="6.72588">
        <ele>1619</ele>
        <time>2026-08-14T09:10:08.540Z</time>
      </trkpt>
      <trkpt lat="45.79187" lon="6.72589">
        <ele>1619</ele>
        <time>2026-08-14T09:10:09.540Z</time>
      </trkpt>
      <trkpt lat="45.79188" lon="6.72589">
        <ele>1619</ele>
        <time>2026-08-14T09:10:10.540Z</time>
      </trkpt>
      <trkpt lat="45.79189" lon="6.7259">
        <ele>1619</ele>
        <time>2026-08-14T09:10:11.540Z</time>
      </trkpt>
      <trkpt lat="45.7919" lon="6.72591">
        <ele>1619</ele>
        <time>2026-08-14T09:10:12.540Z</time>
      </trkpt>
      <trkpt lat="45.79192" lon="6.72592">
        <ele>1620</ele>
        <time>2026-08-14T09:10:13.540Z</time>
      </trkpt>
      <trkpt lat="45.79193" lon="6.72592">
        <ele>1620</ele>
        <time>2026-08-14T09:10:14.540Z</time>
      </trkpt>
      <trkpt lat="45.79194" lon="6.72593">
        <ele>1621</ele>
        <time>2026-08-14T09:10:15.540Z</time>
      </trkpt>
      <trkpt lat="45.79195" lon="6.72593">
        <ele>1622</ele>
        <time>2026-08-14T09:10:16.540Z</time>
      </trkpt>
      <trkpt lat="45.79196" lon="6.72593">
        <ele>1622</ele>
        <time>2026-08-14T09:10:17.540Z</time>
      </trkpt>
      <trkpt lat="45.79198" lon="6.72593">
        <ele>1623</ele>
        <time>2026-08-14T09:10:18.540Z</time>
      </trkpt>
      <trkpt lat="45.792" lon="6.72593">
        <ele>1623</ele>
        <time>2026-08-14T09:10:19.540Z</time>
      </trkpt>
      <trkpt lat="45.79201" lon="6.72594">
        <ele>1623</ele>
        <time>2026-08-14T09:10:20.540Z</time>
      </trkpt>
      <trkpt lat="45.79202" lon="6.72595">
        <ele>1623</ele>
        <time>2026-08-14T09:10:21.540Z</time>
      </trkpt>
      <trkpt lat="45.79203" lon="6.72596">
        <ele>1624</ele>
        <time>2026-08-14T09:10:22.540Z</time>
      </trkpt>
      <trkpt lat="45.79204" lon="6.72597">
        <ele>1624</ele>
        <time>2026-08-14T09:10:23.540Z</time>
      </trkpt>
      <trkpt lat="45.79205" lon="6.72598">
        <ele>1624</ele>
        <time>2026-08-14T09:10:24.540Z</time>
      </trkpt>
      <trkpt lat="45.79206" lon="6.72599">
        <ele>1624</ele>
        <time>2026-08-14T09:10:25.540Z</time>
      </trkpt>
      <trkpt lat="45.79207" lon="6.726">
        <ele>1625</ele>
        <time>2026-08-14T09:10:26.540Z</time>
      </trkpt>
      <trkpt lat="45.79209" lon="6.726">
        <ele>1625</ele>
        <time>2026-08-14T09:10:27.540Z</time>
      </trkpt>
      <trkpt lat="45.79211" lon="6.72601">
        <ele>1625</ele>
        <time>2026-08-14T09:10:28.540Z</time>
      </trkpt>
      <trkpt lat="45.79212" lon="6.72601">
        <ele>1625</ele>
        <time>2026-08-14T09:10:29.540Z</time>
      </trkpt>
      <trkpt lat="45.79214" lon="6.72603">
        <ele>1625</ele>
        <time>2026-08-14T09:10:30.540Z</time>
      </trkpt>
      <trkpt lat="45.79215" lon="6.72604">
        <ele>1625</ele>
        <time>2026-08-14T09:10:31.540Z</time>
      </trkpt>
      <trkpt lat="45.79216" lon="6.72605">
        <ele>1625</ele>
        <time>2026-08-14T09:10:32.540Z</time>
      </trkpt>
      <trkpt lat="45.79218" lon="6.72606">
        <ele>1625</ele>
        <time>2026-08-14T09:10:33.540Z</time>
      </trkpt>
      <trkpt lat="45.79219" lon="6.72605">
        <ele>1625</ele>
        <time>2026-08-14T09:10:34.540Z</time>
      </trkpt>
      <trkpt lat="45.7922" lon="6.72605">
        <ele>1625</ele>
        <time>2026-08-14T09:10:35.540Z</time>
      </trkpt>
      <trkpt lat="45.79221" lon="6.72605">
        <ele>1624</ele>
        <time>2026-08-14T09:10:36.540Z</time>
      </trkpt>
      <trkpt lat="45.79222" lon="6.72605">
        <ele>1625</ele>
        <time>2026-08-14T09:10:37.540Z</time>
      </trkpt>
      <trkpt lat="45.79223" lon="6.72605">
        <ele>1625</ele>
        <time>2026-08-14T09:10:38.540Z</time>
      </trkpt>
      <trkpt lat="45.79225" lon="6.72606">
        <ele>1625</ele>
        <time>2026-08-14T09:10:39.540Z</time>
      </trkpt>
      <trkpt lat="45.79226" lon="6.72607">
        <ele>1626</ele>
        <time>2026-08-14T09:10:40.540Z</time>
      </trkpt>
      <trkpt lat="45.79226" lon="6.72607">
        <ele>1626</ele>
        <time>2026-08-14T09:10:41.540Z</time>
      </trkpt>
      <trkpt lat="45.79228" lon="6.72609">
        <ele>1626</ele>
        <time>2026-08-14T09:10:42.540Z</time>
      </trkpt>
      <trkpt lat="45.79229" lon="6.72609">
        <ele>1626</ele>
        <time>2026-08-14T09:10:43.540Z</time>
      </trkpt>
      <trkpt lat="45.7923" lon="6.72609">
        <ele>1626</ele>
        <time>2026-08-14T09:10:44.540Z</time>
      </trkpt>
      <trkpt lat="45.79231" lon="6.72608">
        <ele>1626</ele>
        <time>2026-08-14T09:10:45.540Z</time>
      </trkpt>
      <trkpt lat="45.79232" lon="6.72609">
        <ele>1626</ele>
        <time>2026-08-14T09:10:46.540Z</time>
      </trkpt>
      <trkpt lat="45.79233" lon="6.72609">
        <ele>1626</ele>
        <time>2026-08-14T09:10:47.540Z</time>
      </trkpt>
      <trkpt lat="45.79234" lon="6.72609">
        <ele>1626</ele>
        <time>2026-08-14T09:10:48.540Z</time>
      </trkpt>
      <trkpt lat="45.79235" lon="6.72609">
        <ele>1625</ele>
        <time>2026-08-14T09:10:49.540Z</time>
      </trkpt>
      <trkpt lat="45.79237" lon="6.72611">
        <ele>1626</ele>
        <time>2026-08-14T09:10:50.540Z</time>
      </trkpt>
      <trkpt lat="45.79238" lon="6.72612">
        <ele>1626</ele>
        <time>2026-08-14T09:10:51.540Z</time>
      </trkpt>
      <trkpt lat="45.79239" lon="6.72612">
        <ele>1626</ele>
        <time>2026-08-14T09:10:52.540Z</time>
      </trkpt>
      <trkpt lat="45.7924" lon="6.72612">
        <ele>1626</ele>
        <time>2026-08-14T09:10:53.540Z</time>
      </trkpt>
      <trkpt lat="45.79241" lon="6.72613">
        <ele>1627</ele>
        <time>2026-08-14T09:10:54.540Z</time>
      </trkpt>
      <trkpt lat="45.79243" lon="6.72613">
        <ele>1627</ele>
        <time>2026-08-14T09:10:55.540Z</time>
      </trkpt>
      <trkpt lat="45.79244" lon="6.72614">
        <ele>1626</ele>
        <time>2026-08-14T09:10:56.540Z</time>
      </trkpt>
      <trkpt lat="45.79246" lon="6.72615">
        <ele>1626</ele>
        <time>2026-08-14T09:10:57.540Z</time>
      </trkpt>
      <trkpt lat="45.79248" lon="6.72615">
        <ele>1626</ele>
        <time>2026-08-14T09:10:58.540Z</time>
      </trkpt>
      <trkpt lat="45.7925" lon="6.72616">
        <ele>1627</ele>
        <time>2026-08-14T09:10:59.540Z</time>
      </trkpt>
      <trkpt lat="45.79251" lon="6.72615">
        <ele>1627</ele>
        <time>2026-08-14T09:11:00.540Z</time>
      </trkpt>
      <trkpt lat="45.79254" lon="6.72616">
        <ele>1627</ele>
        <time>2026-08-14T09:11:01.540Z</time>
      </trkpt>
      <trkpt lat="45.79256" lon="6.72616">
        <ele>1628</ele>
        <time>2026-08-14T09:11:02.540Z</time>
      </trkpt>
      <trkpt lat="45.79257" lon="6.72617">
        <ele>1628</ele>
        <time>2026-08-14T09:11:03.540Z</time>
      </trkpt>
      <trkpt lat="45.79258" lon="6.72617">
        <ele>1628</ele>
        <time>2026-08-14T09:11:04.540Z</time>
      </trkpt>
      <trkpt lat="45.79259" lon="6.72617">
        <ele>1628</ele>
        <time>2026-08-14T09:11:05.540Z</time>
      </trkpt>
      <trkpt lat="45.7926" lon="6.72618">
        <ele>1628</ele>
        <time>2026-08-14T09:11:06.540Z</time>
      </trkpt>
      <trkpt lat="45.79261" lon="6.72617">
        <ele>1629</ele>
        <time>2026-08-14T09:11:07.540Z</time>
      </trkpt>
      <trkpt lat="45.79262" lon="6.72617">
        <ele>1629</ele>
        <time>2026-08-14T09:11:08.540Z</time>
      </trkpt>
      <trkpt lat="45.79264" lon="6.72617">
        <ele>1630</ele>
        <time>2026-08-14T09:11:09.540Z</time>
      </trkpt>
      <trkpt lat="45.79266" lon="6.72617">
        <ele>1630</ele>
        <time>2026-08-14T09:11:10.540Z</time>
      </trkpt>
      <trkpt lat="45.79268" lon="6.72616">
        <ele>1630</ele>
        <time>2026-08-14T09:11:11.540Z</time>
      </trkpt>
      <trkpt lat="45.79269" lon="6.72616">
        <ele>1630</ele>
        <time>2026-08-14T09:11:12.540Z</time>
      </trkpt>
      <trkpt lat="45.79271" lon="6.72615">
        <ele>1630</ele>
        <time>2026-08-14T09:11:13.540Z</time>
      </trkpt>
      <trkpt lat="45.79272" lon="6.72616">
        <ele>1630</ele>
        <time>2026-08-14T09:11:14.540Z</time>
      </trkpt>
      <trkpt lat="45.79272" lon="6.72616">
        <ele>1630</ele>
        <time>2026-08-14T09:11:15.540Z</time>
      </trkpt>
      <trkpt lat="45.79273" lon="6.72615">
        <ele>1630</ele>
        <time>2026-08-14T09:11:16.540Z</time>
      </trkpt>
      <trkpt lat="45.79273" lon="6.72616">
        <ele>1629</ele>
        <time>2026-08-14T09:11:17.540Z</time>
      </trkpt>
      <trkpt lat="45.79274" lon="6.72616">
        <ele>1629</ele>
        <time>2026-08-14T09:11:18.540Z</time>
      </trkpt>
      <trkpt lat="45.79274" lon="6.72617">
        <ele>1629</ele>
        <time>2026-08-14T09:11:19.540Z</time>
      </trkpt>
      <trkpt lat="45.79274" lon="6.72619">
        <ele>1629</ele>
        <time>2026-08-14T09:11:20.540Z</time>
      </trkpt>
      <trkpt lat="45.79275" lon="6.7262">
        <ele>1629</ele>
        <time>2026-08-14T09:11:21.540Z</time>
      </trkpt>
      <trkpt lat="45.79276" lon="6.7262">
        <ele>1629</ele>
        <time>2026-08-14T09:11:22.540Z</time>
      </trkpt>
      <trkpt lat="45.79277" lon="6.72621">
        <ele>1629</ele>
        <time>2026-08-14T09:11:23.540Z</time>
      </trkpt>
      <trkpt lat="45.79278" lon="6.72621">
        <ele>1629</ele>
        <time>2026-08-14T09:11:24.540Z</time>
      </trkpt>
      <trkpt lat="45.79279" lon="6.72622">
        <ele>1629</ele>
        <time>2026-08-14T09:11:25.540Z</time>
      </trkpt>
      <trkpt lat="45.79279" lon="6.72623">
        <ele>1629</ele>
        <time>2026-08-14T09:11:26.540Z</time>
      </trkpt>
      <trkpt lat="45.79279" lon="6.72624">
        <ele>1629</ele>
        <time>2026-08-14T09:11:27.540Z</time>
      </trkpt>
      <trkpt lat="45.79279" lon="6.72626">
        <ele>1629</ele>
        <time>2026-08-14T09:11:28.540Z</time>
      </trkpt>
      <trkpt lat="45.79278" lon="6.72626">
        <ele>1629</ele>
        <time>2026-08-14T09:11:29.540Z</time>
      </trkpt>
      <trkpt lat="45.79277" lon="6.72627">
        <ele>1629</ele>
        <time>2026-08-14T09:11:30.540Z</time>
      </trkpt>
      <trkpt lat="45.79277" lon="6.72628">
        <ele>1629</ele>
        <time>2026-08-14T09:11:31.540Z</time>
      </trkpt>
      <trkpt lat="45.79276" lon="6.72628">
        <ele>1628</ele>
        <time>2026-08-14T09:11:32.540Z</time>
      </trkpt>
      <trkpt lat="45.79276" lon="6.72629">
        <ele>1628</ele>
        <time>2026-08-14T09:11:33.540Z</time>
      </trkpt>
      <trkpt lat="45.79276" lon="6.7263">
        <ele>1629</ele>
        <time>2026-08-14T09:11:34.540Z</time>
      </trkpt>
      <trkpt lat="45.79275" lon="6.7263">
        <ele>1628</ele>
        <time>2026-08-14T09:11:35.540Z</time>
      </trkpt>
      <trkpt lat="45.79275" lon="6.7263">
        <ele>1628</ele>
        <time>2026-08-14T09:11:36.540Z</time>
      </trkpt>
      <trkpt lat="45.79275" lon="6.72629">
        <ele>1628</ele>
        <time>2026-08-14T09:11:37.540Z</time>
      </trkpt>
      <trkpt lat="45.79275" lon="6.72629">
        <ele>1628</ele>
        <time>2026-08-14T09:11:38.540Z</time>
      </trkpt>
      <trkpt lat="45.79276" lon="6.7263">
        <ele>1628</ele>
        <time>2026-08-14T09:11:39.540Z</time>
      </trkpt>
      <trkpt lat="45.79276" lon="6.72631">
        <ele>1628</ele>
        <time>2026-08-14T09:11:40.540Z</time>
      </trkpt>
      <trkpt lat="45.79276" lon="6.72631">
        <ele>1628</ele>
        <time>2026-08-14T09:11:41.540Z</time>
      </trkpt>
      <trkpt lat="45.79276" lon="6.72631">
        <ele>1628</ele>
        <time>2026-08-14T09:11:42.540Z</time>
      </trkpt>
      <trkpt lat="45.79276" lon="6.72632">
        <ele>1627</ele>
        <time>2026-08-14T09:11:43.540Z</time>
      </trkpt>
      <trkpt lat="45.79278" lon="6.72633">
        <ele>1628</ele>
        <time>2026-08-14T09:11:44.540Z</time>
      </trkpt>
      <trkpt lat="45.79279" lon="6.72635">
        <ele>1628</ele>
        <time>2026-08-14T09:11:45.540Z</time>
      </trkpt>
      <trkpt lat="45.79279" lon="6.72635">
        <ele>1628</ele>
        <time>2026-08-14T09:11:46.540Z</time>
      </trkpt>
      <trkpt lat="45.7928" lon="6.72636">
        <ele>1629</ele>
        <time>2026-08-14T09:11:47.540Z</time>
      </trkpt>
      <trkpt lat="45.79281" lon="6.72637">
        <ele>1629</ele>
        <time>2026-08-14T09:11:48.540Z</time>
      </trkpt>
      <trkpt lat="45.79282" lon="6.72638">
        <ele>1629</ele>
        <time>2026-08-14T09:11:49.540Z</time>
      </trkpt>
      <trkpt lat="45.79283" lon="6.72639">
        <ele>1630</ele>
        <time>2026-08-14T09:11:50.540Z</time>
      </trkpt>
      <trkpt lat="45.79283" lon="6.7264">
        <ele>1630</ele>
        <time>2026-08-14T09:11:51.540Z</time>
      </trkpt>
      <trkpt lat="45.79284" lon="6.72641">
        <ele>1630</ele>
        <time>2026-08-14T09:11:52.540Z</time>
      </trkpt>
      <trkpt lat="45.79286" lon="6.72642">
        <ele>1631</ele>
        <time>2026-08-14T09:11:53.540Z</time>
      </trkpt>
      <trkpt lat="45.79288" lon="6.72643">
        <ele>1631</ele>
        <time>2026-08-14T09:11:54.540Z</time>
      </trkpt>
      <trkpt lat="45.79289" lon="6.72643">
        <ele>1631</ele>
        <time>2026-08-14T09:11:55.540Z</time>
      </trkpt>
      <trkpt lat="45.79289" lon="6.72643">
        <ele>1631</ele>
        <time>2026-08-14T09:11:56.540Z</time>
      </trkpt>
      <trkpt lat="45.79289" lon="6.72643">
        <ele>1631</ele>
        <time>2026-08-14T09:11:57.540Z</time>
      </trkpt>
      <trkpt lat="45.7929" lon="6.72644">
        <ele>1631</ele>
        <time>2026-08-14T09:11:58.540Z</time>
      </trkpt>
      <trkpt lat="45.79291" lon="6.72646">
        <ele>1631</ele>
        <time>2026-08-14T09:11:59.540Z</time>
      </trkpt>
      <trkpt lat="45.79291" lon="6.72647">
        <ele>1631</ele>
        <time>2026-08-14T09:12:00.540Z</time>
      </trkpt>
      <trkpt lat="45.79291" lon="6.72648">
        <ele>1631</ele>
        <time>2026-08-14T09:12:01.540Z</time>
      </trkpt>
      <trkpt lat="45.79292" lon="6.72649">
        <ele>1631</ele>
        <time>2026-08-14T09:12:02.540Z</time>
      </trkpt>
      <trkpt lat="45.79293" lon="6.7265">
        <ele>1631</ele>
        <time>2026-08-14T09:12:03.540Z</time>
      </trkpt>
      <trkpt lat="45.79293" lon="6.72652">
        <ele>1631</ele>
        <time>2026-08-14T09:12:04.540Z</time>
      </trkpt>
      <trkpt lat="45.79294" lon="6.72653">
        <ele>1631</ele>
        <time>2026-08-14T09:12:05.540Z</time>
      </trkpt>
      <trkpt lat="45.79295" lon="6.72654">
        <ele>1630</ele>
        <time>2026-08-14T09:12:06.540Z</time>
      </trkpt>
      <trkpt lat="45.79295" lon="6.72656">
        <ele>1630</ele>
        <time>2026-08-14T09:12:07.540Z</time>
      </trkpt>
      <trkpt lat="45.79295" lon="6.72657">
        <ele>1630</ele>
        <time>2026-08-14T09:12:08.540Z</time>
      </trkpt>
      <trkpt lat="45.79296" lon="6.72658">
        <ele>1630</ele>
        <time>2026-08-14T09:12:09.540Z</time>
      </trkpt>
      <trkpt lat="45.79296" lon="6.72658">
        <ele>1630</ele>
        <time>2026-08-14T09:12:10.540Z</time>
      </trkpt>
      <trkpt lat="45.79296" lon="6.72659">
        <ele>1630</ele>
        <time>2026-08-14T09:12:11.540Z</time>
      </trkpt>
      <trkpt lat="45.79297" lon="6.7266">
        <ele>1630</ele>
        <time>2026-08-14T09:12:12.540Z</time>
      </trkpt>
      <trkpt lat="45.79298" lon="6.72661">
        <ele>1630</ele>
        <time>2026-08-14T09:12:13.540Z</time>
      </trkpt>
      <trkpt lat="45.79299" lon="6.72662">
        <ele>1630</ele>
        <time>2026-08-14T09:12:14.540Z</time>
      </trkpt>
      <trkpt lat="45.79299" lon="6.72663">
        <ele>1630</ele>
        <time>2026-08-14T09:12:15.540Z</time>
      </trkpt>
      <trkpt lat="45.793" lon="6.72665">
        <ele>1630</ele>
        <time>2026-08-14T09:12:16.540Z</time>
      </trkpt>
      <trkpt lat="45.793" lon="6.72666">
        <ele>1630</ele>
        <time>2026-08-14T09:12:17.540Z</time>
      </trkpt>
      <trkpt lat="45.793" lon="6.72667">
        <ele>1630</ele>
        <time>2026-08-14T09:12:18.540Z</time>
      </trkpt>
      <trkpt lat="45.79299" lon="6.72668">
        <ele>1630</ele>
        <time>2026-08-14T09:12:19.540Z</time>
      </trkpt>
      <trkpt lat="45.79299" lon="6.72669">
        <ele>1630</ele>
        <time>2026-08-14T09:12:20.540Z</time>
      </trkpt>
      <trkpt lat="45.793" lon="6.72669">
        <ele>1630</ele>
        <time>2026-08-14T09:12:21.540Z</time>
      </trkpt>
      <trkpt lat="45.79301" lon="6.7267">
        <ele>1630</ele>
        <time>2026-08-14T09:12:22.540Z</time>
      </trkpt>
      <trkpt lat="45.79302" lon="6.72671">
        <ele>1630</ele>
        <time>2026-08-14T09:12:23.540Z</time>
      </trkpt>
      <trkpt lat="45.79302" lon="6.72673">
        <ele>1630</ele>
        <time>2026-08-14T09:12:24.540Z</time>
      </trkpt>
      <trkpt lat="45.79303" lon="6.72673">
        <ele>1631</ele>
        <time>2026-08-14T09:12:25.540Z</time>
      </trkpt>
      <trkpt lat="45.79303" lon="6.72674">
        <ele>1631</ele>
        <time>2026-08-14T09:12:26.540Z</time>
      </trkpt>
      <trkpt lat="45.79304" lon="6.72675">
        <ele>1631</ele>
        <time>2026-08-14T09:12:27.540Z</time>
      </trkpt>
      <trkpt lat="45.79306" lon="6.72676">
        <ele>1632</ele>
        <time>2026-08-14T09:12:28.540Z</time>
      </trkpt>
      <trkpt lat="45.79308" lon="6.72677">
        <ele>1632</ele>
        <time>2026-08-14T09:12:29.540Z</time>
      </trkpt>
      <trkpt lat="45.79309" lon="6.72678">
        <ele>1632</ele>
        <time>2026-08-14T09:12:30.540Z</time>
      </trkpt>
      <trkpt lat="45.79311" lon="6.7268">
        <ele>1633</ele>
        <time>2026-08-14T09:12:31.540Z</time>
      </trkpt>
      <trkpt lat="45.79312" lon="6.72681">
        <ele>1634</ele>
        <time>2026-08-14T09:12:32.540Z</time>
      </trkpt>
      <trkpt lat="45.79313" lon="6.72682">
        <ele>1635</ele>
        <time>2026-08-14T09:12:33.540Z</time>
      </trkpt>
      <trkpt lat="45.79313" lon="6.72683">
        <ele>1635</ele>
        <time>2026-08-14T09:12:34.540Z</time>
      </trkpt>
      <trkpt lat="45.79314" lon="6.72684">
        <ele>1636</ele>
        <time>2026-08-14T09:12:35.540Z</time>
      </trkpt>
      <trkpt lat="45.79315" lon="6.72685">
        <ele>1637</ele>
        <time>2026-08-14T09:12:36.540Z</time>
      </trkpt>
      <trkpt lat="45.79315" lon="6.72685">
        <ele>1637</ele>
        <time>2026-08-14T09:12:37.540Z</time>
      </trkpt>
      <trkpt lat="45.79316" lon="6.72685">
        <ele>1637</ele>
        <time>2026-08-14T09:12:38.540Z</time>
      </trkpt>
      <trkpt lat="45.79316" lon="6.72686">
        <ele>1637</ele>
        <time>2026-08-14T09:12:39.540Z</time>
      </trkpt>
      <trkpt lat="45.79317" lon="6.72686">
        <ele>1638</ele>
        <time>2026-08-14T09:12:40.540Z</time>
      </trkpt>
      <trkpt lat="45.79317" lon="6.72687">
        <ele>1638</ele>
        <time>2026-08-14T09:12:41.540Z</time>
      </trkpt>
      <trkpt lat="45.79318" lon="6.72689">
        <ele>1638</ele>
        <time>2026-08-14T09:12:42.540Z</time>
      </trkpt>
      <trkpt lat="45.79318" lon="6.7269">
        <ele>1638</ele>
        <time>2026-08-14T09:12:43.540Z</time>
      </trkpt>
      <trkpt lat="45.79319" lon="6.72691">
        <ele>1637</ele>
        <time>2026-08-14T09:12:44.540Z</time>
      </trkpt>
      <trkpt lat="45.7932" lon="6.72692">
        <ele>1637</ele>
        <time>2026-08-14T09:12:45.540Z</time>
      </trkpt>
      <trkpt lat="45.7932" lon="6.72693">
        <ele>1637</ele>
        <time>2026-08-14T09:12:46.540Z</time>
      </trkpt>
      <trkpt lat="45.79321" lon="6.72694">
        <ele>1637</ele>
        <time>2026-08-14T09:12:47.540Z</time>
      </trkpt>
      <trkpt lat="45.79322" lon="6.72695">
        <ele>1637</ele>
        <time>2026-08-14T09:12:48.540Z</time>
      </trkpt>
      <trkpt lat="45.79323" lon="6.72696">
        <ele>1637</ele>
        <time>2026-08-14T09:12:49.540Z</time>
      </trkpt>
      <trkpt lat="45.79324" lon="6.72697">
        <ele>1637</ele>
        <time>2026-08-14T09:12:50.540Z</time>
      </trkpt>
      <trkpt lat="45.79324" lon="6.72698">
        <ele>1637</ele>
        <time>2026-08-14T09:12:51.540Z</time>
      </trkpt>
      <trkpt lat="45.79325" lon="6.727">
        <ele>1637</ele>
        <time>2026-08-14T09:12:52.540Z</time>
      </trkpt>
      <trkpt lat="45.79325" lon="6.72701">
        <ele>1637</ele>
        <time>2026-08-14T09:12:53.540Z</time>
      </trkpt>
      <trkpt lat="45.79325" lon="6.72702">
        <ele>1637</ele>
        <time>2026-08-14T09:12:54.540Z</time>
      </trkpt>
      <trkpt lat="45.79326" lon="6.72703">
        <ele>1637</ele>
        <time>2026-08-14T09:12:55.540Z</time>
      </trkpt>
      <trkpt lat="45.79326" lon="6.72703">
        <ele>1637</ele>
        <time>2026-08-14T09:12:56.540Z</time>
      </trkpt>
      <trkpt lat="45.79326" lon="6.72703">
        <ele>1637</ele>
        <time>2026-08-14T09:12:57.540Z</time>
      </trkpt>
      <trkpt lat="45.79326" lon="6.72704">
        <ele>1637</ele>
        <time>2026-08-14T09:12:58.540Z</time>
      </trkpt>
      <trkpt lat="45.79326" lon="6.72704">
        <ele>1637</ele>
        <time>2026-08-14T09:12:59.540Z</time>
      </trkpt>
      <trkpt lat="45.79327" lon="6.72705">
        <ele>1637</ele>
        <time>2026-08-14T09:13:00.540Z</time>
      </trkpt>
      <trkpt lat="45.79327" lon="6.72706">
        <ele>1637</ele>
        <time>2026-08-14T09:13:01.540Z</time>
      </trkpt>
      <trkpt lat="45.79328" lon="6.72707">
        <ele>1637</ele>
        <time>2026-08-14T09:13:02.540Z</time>
      </trkpt>
      <trkpt lat="45.79329" lon="6.72709">
        <ele>1638</ele>
        <time>2026-08-14T09:13:03.540Z</time>
      </trkpt>
      <trkpt lat="45.7933" lon="6.72711">
        <ele>1638</ele>
        <time>2026-08-14T09:13:04.540Z</time>
      </trkpt>
      <trkpt lat="45.7933" lon="6.72712">
        <ele>1638</ele>
        <time>2026-08-14T09:13:05.540Z</time>
      </trkpt>
      <trkpt lat="45.79331" lon="6.72714">
        <ele>1638</ele>
        <time>2026-08-14T09:13:06.540Z</time>
      </trkpt>
      <trkpt lat="45.79332" lon="6.72715">
        <ele>1637</ele>
        <time>2026-08-14T09:13:07.540Z</time>
      </trkpt>
      <trkpt lat="45.79333" lon="6.72716">
        <ele>1637</ele>
        <time>2026-08-14T09:13:08.540Z</time>
      </trkpt>
      <trkpt lat="45.79334" lon="6.72717">
        <ele>1637</ele>
        <time>2026-08-14T09:13:09.540Z</time>
      </trkpt>
      <trkpt lat="45.79336" lon="6.72717">
        <ele>1637</ele>
        <time>2026-08-14T09:13:10.540Z</time>
      </trkpt>
      <trkpt lat="45.79337" lon="6.72718">
        <ele>1637</ele>
        <time>2026-08-14T09:13:11.540Z</time>
      </trkpt>
      <trkpt lat="45.79338" lon="6.72719">
        <ele>1637</ele>
        <time>2026-08-14T09:13:12.540Z</time>
      </trkpt>
      <trkpt lat="45.79338" lon="6.72719">
        <ele>1637</ele>
        <time>2026-08-14T09:13:13.540Z</time>
      </trkpt>
      <trkpt lat="45.79339" lon="6.7272">
        <ele>1637</ele>
        <time>2026-08-14T09:13:14.540Z</time>
      </trkpt>
      <trkpt lat="45.79339" lon="6.72721">
        <ele>1637</ele>
        <time>2026-08-14T09:13:15.540Z</time>
      </trkpt>
      <trkpt lat="45.79339" lon="6.72721">
        <ele>1637</ele>
        <time>2026-08-14T09:13:16.540Z</time>
      </trkpt>
      <trkpt lat="45.79339" lon="6.72721">
        <ele>1637</ele>
        <time>2026-08-14T09:13:17.540Z</time>
      </trkpt>
      <trkpt lat="45.79339" lon="6.72721">
        <ele>1637</ele>
        <time>2026-08-14T09:13:18.540Z</time>
      </trkpt>
      <trkpt lat="45.79338" lon="6.72721">
        <ele>1637</ele>
        <time>2026-08-14T09:13:19.540Z</time>
      </trkpt>
      <trkpt lat="45.79338" lon="6.72721">
        <ele>1638</ele>
        <time>2026-08-14T09:13:20.540Z</time>
      </trkpt>
      <trkpt lat="45.79338" lon="6.72722">
        <ele>1638</ele>
        <time>2026-08-14T09:13:21.540Z</time>
      </trkpt>
      <trkpt lat="45.79339" lon="6.72722">
        <ele>1638</ele>
        <time>2026-08-14T09:13:22.540Z</time>
      </trkpt>
      <trkpt lat="45.79339" lon="6.72724">
        <ele>1638</ele>
        <time>2026-08-14T09:13:23.540Z</time>
      </trkpt>
      <trkpt lat="45.7934" lon="6.72725">
        <ele>1638</ele>
        <time>2026-08-14T09:13:24.540Z</time>
      </trkpt>
      <trkpt lat="45.7934" lon="6.72725">
        <ele>1639</ele>
        <time>2026-08-14T09:13:25.540Z</time>
      </trkpt>
      <trkpt lat="45.7934" lon="6.72725">
        <ele>1640</ele>
        <time>2026-08-14T09:13:26.540Z</time>
      </trkpt>
      <trkpt lat="45.7934" lon="6.72726">
        <ele>1640</ele>
        <time>2026-08-14T09:13:27.540Z</time>
      </trkpt>
      <trkpt lat="45.79341" lon="6.72727">
        <ele>1641</ele>
        <time>2026-08-14T09:13:28.540Z</time>
      </trkpt>
      <trkpt lat="45.79342" lon="6.72728">
        <ele>1641</ele>
        <time>2026-08-14T09:13:29.540Z</time>
      </trkpt>
      <trkpt lat="45.79341" lon="6.7273">
        <ele>1641</ele>
        <time>2026-08-14T09:13:30.540Z</time>
      </trkpt>
      <trkpt lat="45.79341" lon="6.7273">
        <ele>1642</ele>
        <time>2026-08-14T09:13:31.540Z</time>
      </trkpt>
      <trkpt lat="45.79341" lon="6.7273">
        <ele>1642</ele>
        <time>2026-08-14T09:13:32.540Z</time>
      </trkpt>
      <trkpt lat="45.79342" lon="6.72732">
        <ele>1642</ele>
        <time>2026-08-14T09:13:33.540Z</time>
      </trkpt>
      <trkpt lat="45.79342" lon="6.72734">
        <ele>1642</ele>
        <time>2026-08-14T09:13:34.540Z</time>
      </trkpt>
      <trkpt lat="45.79343" lon="6.72736">
        <ele>1642</ele>
        <time>2026-08-14T09:13:35.540Z</time>
      </trkpt>
      <trkpt lat="45.79343" lon="6.72738">
        <ele>1642</ele>
        <time>2026-08-14T09:13:36.540Z</time>
      </trkpt>
      <trkpt lat="45.79344" lon="6.7274">
        <ele>1642</ele>
        <time>2026-08-14T09:13:37.540Z</time>
      </trkpt>
      <trkpt lat="45.79345" lon="6.72741">
        <ele>1643</ele>
        <time>2026-08-14T09:13:38.540Z</time>
      </trkpt>
      <trkpt lat="45.79346" lon="6.72743">
        <ele>1643</ele>
        <time>2026-08-14T09:13:39.540Z</time>
      </trkpt>
      <trkpt lat="45.79347" lon="6.72744">
        <ele>1644</ele>
        <time>2026-08-14T09:13:40.540Z</time>
      </trkpt>
      <trkpt lat="45.79348" lon="6.72745">
        <ele>1644</ele>
        <time>2026-08-14T09:13:41.540Z</time>
      </trkpt>
      <trkpt lat="45.79348" lon="6.72747">
        <ele>1644</ele>
        <time>2026-08-14T09:13:42.540Z</time>
      </trkpt>
      <trkpt lat="45.7935" lon="6.72748">
        <ele>1644</ele>
        <time>2026-08-14T09:13:43.540Z</time>
      </trkpt>
      <trkpt lat="45.79351" lon="6.72748">
        <ele>1644</ele>
        <time>2026-08-14T09:13:44.540Z</time>
      </trkpt>
      <trkpt lat="45.79351" lon="6.7275">
        <ele>1645</ele>
        <time>2026-08-14T09:13:45.540Z</time>
      </trkpt>
      <trkpt lat="45.79352" lon="6.72751">
        <ele>1645</ele>
        <time>2026-08-14T09:13:46.540Z</time>
      </trkpt>
      <trkpt lat="45.79353" lon="6.72752">
        <ele>1646</ele>
        <time>2026-08-14T09:13:47.540Z</time>
      </trkpt>
      <trkpt lat="45.79354" lon="6.72753">
        <ele>1646</ele>
        <time>2026-08-14T09:13:48.540Z</time>
      </trkpt>
      <trkpt lat="45.79354" lon="6.72754">
        <ele>1646</ele>
        <time>2026-08-14T09:13:49.540Z</time>
      </trkpt>
      <trkpt lat="45.79355" lon="6.72756">
        <ele>1646</ele>
        <time>2026-08-14T09:13:50.540Z</time>
      </trkpt>
      <trkpt lat="45.79354" lon="6.72759">
        <ele>1646</ele>
        <time>2026-08-14T09:13:51.540Z</time>
      </trkpt>
      <trkpt lat="45.79354" lon="6.72761">
        <ele>1646</ele>
        <time>2026-08-14T09:13:52.540Z</time>
      </trkpt>
      <trkpt lat="45.79354" lon="6.72763">
        <ele>1646</ele>
        <time>2026-08-14T09:13:53.540Z</time>
      </trkpt>
      <trkpt lat="45.79353" lon="6.72765">
        <ele>1646</ele>
        <time>2026-08-14T09:13:54.540Z</time>
      </trkpt>
      <trkpt lat="45.79354" lon="6.72766">
        <ele>1646</ele>
        <time>2026-08-14T09:13:55.540Z</time>
      </trkpt>
      <trkpt lat="45.79354" lon="6.72767">
        <ele>1647</ele>
        <time>2026-08-14T09:13:56.540Z</time>
      </trkpt>
      <trkpt lat="45.79354" lon="6.72768">
        <ele>1646</ele>
        <time>2026-08-14T09:13:57.540Z</time>
      </trkpt>
      <trkpt lat="45.79355" lon="6.72769">
        <ele>1646</ele>
        <time>2026-08-14T09:13:58.540Z</time>
      </trkpt>
      <trkpt lat="45.79355" lon="6.72771">
        <ele>1646</ele>
        <time>2026-08-14T09:13:59.540Z</time>
      </trkpt>
      <trkpt lat="45.79355" lon="6.72772">
        <ele>1646</ele>
        <time>2026-08-14T09:14:00.540Z</time>
      </trkpt>
      <trkpt lat="45.79356" lon="6.72773">
        <ele>1646</ele>
        <time>2026-08-14T09:14:01.540Z</time>
      </trkpt>
      <trkpt lat="45.79356" lon="6.72775">
        <ele>1646</ele>
        <time>2026-08-14T09:14:02.540Z</time>
      </trkpt>
      <trkpt lat="45.79357" lon="6.72775">
        <ele>1646</ele>
        <time>2026-08-14T09:14:03.540Z</time>
      </trkpt>
      <trkpt lat="45.79358" lon="6.72776">
        <ele>1646</ele>
        <time>2026-08-14T09:14:04.540Z</time>
      </trkpt>
      <trkpt lat="45.7936" lon="6.72777">
        <ele>1646</ele>
        <time>2026-08-14T09:14:05.540Z</time>
      </trkpt>
      <trkpt lat="45.79362" lon="6.72778">
        <ele>1646</ele>
        <time>2026-08-14T09:14:06.540Z</time>
      </trkpt>
      <trkpt lat="45.79364" lon="6.7278">
        <ele>1646</ele>
        <time>2026-08-14T09:14:07.540Z</time>
      </trkpt>
      <trkpt lat="45.79366" lon="6.72781">
        <ele>1646</ele>
        <time>2026-08-14T09:14:08.540Z</time>
      </trkpt>
      <trkpt lat="45.79367" lon="6.72783">
        <ele>1646</ele>
        <time>2026-08-14T09:14:09.540Z</time>
      </trkpt>
      <trkpt lat="45.79368" lon="6.72784">
        <ele>1646</ele>
        <time>2026-08-14T09:14:10.540Z</time>
      </trkpt>
      <trkpt lat="45.7937" lon="6.72787">
        <ele>1646</ele>
        <time>2026-08-14T09:14:11.540Z</time>
      </trkpt>
      <trkpt lat="45.79371" lon="6.72789">
        <ele>1646</ele>
        <time>2026-08-14T09:14:12.540Z</time>
      </trkpt>
      <trkpt lat="45.79371" lon="6.72791">
        <ele>1645</ele>
        <time>2026-08-14T09:14:13.540Z</time>
      </trkpt>
      <trkpt lat="45.79372" lon="6.72793">
        <ele>1645</ele>
        <time>2026-08-14T09:14:14.540Z</time>
      </trkpt>
      <trkpt lat="45.79373" lon="6.72794">
        <ele>1644</ele>
        <time>2026-08-14T09:14:15.540Z</time>
      </trkpt>
      <trkpt lat="45.79373" lon="6.72796">
        <ele>1644</ele>
        <time>2026-08-14T09:14:16.540Z</time>
      </trkpt>
      <trkpt lat="45.79374" lon="6.72798">
        <ele>1644</ele>
        <time>2026-08-14T09:14:17.540Z</time>
      </trkpt>
      <trkpt lat="45.79375" lon="6.72799">
        <ele>1644</ele>
        <time>2026-08-14T09:14:18.540Z</time>
      </trkpt>
      <trkpt lat="45.79376" lon="6.72801">
        <ele>1644</ele>
        <time>2026-08-14T09:14:19.540Z</time>
      </trkpt>
      <trkpt lat="45.79377" lon="6.72804">
        <ele>1644</ele>
        <time>2026-08-14T09:14:20.540Z</time>
      </trkpt>
      <trkpt lat="45.79377" lon="6.72807">
        <ele>1644</ele>
        <time>2026-08-14T09:14:21.540Z</time>
      </trkpt>
      <trkpt lat="45.79377" lon="6.7281">
        <ele>1644</ele>
        <time>2026-08-14T09:14:22.540Z</time>
      </trkpt>
      <trkpt lat="45.79377" lon="6.72811">
        <ele>1644</ele>
        <time>2026-08-14T09:14:23.540Z</time>
      </trkpt>
      <trkpt lat="45.79377" lon="6.72813">
        <ele>1644</ele>
        <time>2026-08-14T09:14:24.540Z</time>
      </trkpt>
      <trkpt lat="45.79377" lon="6.72815">
        <ele>1644</ele>
        <time>2026-08-14T09:14:25.540Z</time>
      </trkpt>
      <trkpt lat="45.79378" lon="6.72817">
        <ele>1644</ele>
        <time>2026-08-14T09:14:26.540Z</time>
      </trkpt>
      <trkpt lat="45.79379" lon="6.72818">
        <ele>1644</ele>
        <time>2026-08-14T09:14:27.540Z</time>
      </trkpt>
      <trkpt lat="45.7938" lon="6.7282">
        <ele>1644</ele>
        <time>2026-08-14T09:14:28.540Z</time>
      </trkpt>
      <trkpt lat="45.79381" lon="6.72821">
        <ele>1644</ele>
        <time>2026-08-14T09:14:29.540Z</time>
      </trkpt>
      <trkpt lat="45.79381" lon="6.72821">
        <ele>1644</ele>
        <time>2026-08-14T09:14:30.540Z</time>
      </trkpt>
      <trkpt lat="45.79381" lon="6.72821">
        <ele>1644</ele>
        <time>2026-08-14T09:14:31.540Z</time>
      </trkpt>
      <trkpt lat="45.79382" lon="6.72822">
        <ele>1644</ele>
        <time>2026-08-14T09:14:32.540Z</time>
      </trkpt>
      <trkpt lat="45.79382" lon="6.72822">
        <ele>1644</ele>
        <time>2026-08-14T09:14:33.540Z</time>
      </trkpt>
      <trkpt lat="45.79381" lon="6.72822">
        <ele>1645</ele>
        <time>2026-08-14T09:14:34.540Z</time>
      </trkpt>
      <trkpt lat="45.79382" lon="6.72823">
        <ele>1645</ele>
        <time>2026-08-14T09:14:35.540Z</time>
      </trkpt>
      <trkpt lat="45.79382" lon="6.72824">
        <ele>1645</ele>
        <time>2026-08-14T09:14:36.540Z</time>
      </trkpt>
      <trkpt lat="45.79381" lon="6.72825">
        <ele>1645</ele>
        <time>2026-08-14T09:14:37.540Z</time>
      </trkpt>
      <trkpt lat="45.79381" lon="6.72826">
        <ele>1645</ele>
        <time>2026-08-14T09:14:38.540Z</time>
      </trkpt>
      <trkpt lat="45.79381" lon="6.72827">
        <ele>1645</ele>
        <time>2026-08-14T09:14:39.540Z</time>
      </trkpt>
      <trkpt lat="45.79381" lon="6.72828">
        <ele>1645</ele>
        <time>2026-08-14T09:14:40.540Z</time>
      </trkpt>
      <trkpt lat="45.79381" lon="6.72829">
        <ele>1645</ele>
        <time>2026-08-14T09:14:41.540Z</time>
      </trkpt>
      <trkpt lat="45.79381" lon="6.7283">
        <ele>1645</ele>
        <time>2026-08-14T09:14:42.540Z</time>
      </trkpt>
      <trkpt lat="45.79381" lon="6.72832">
        <ele>1645</ele>
        <time>2026-08-14T09:14:43.540Z</time>
      </trkpt>
      <trkpt lat="45.79382" lon="6.72833">
        <ele>1646</ele>
        <time>2026-08-14T09:14:44.540Z</time>
      </trkpt>
      <trkpt lat="45.79383" lon="6.72835">
        <ele>1646</ele>
        <time>2026-08-14T09:14:45.540Z</time>
      </trkpt>
      <trkpt lat="45.79384" lon="6.72836">
        <ele>1646</ele>
        <time>2026-08-14T09:14:46.540Z</time>
      </trkpt>
      <trkpt lat="45.79384" lon="6.72838">
        <ele>1646</ele>
        <time>2026-08-14T09:14:47.540Z</time>
      </trkpt>
      <trkpt lat="45.79384" lon="6.72839">
        <ele>1647</ele>
        <time>2026-08-14T09:14:48.540Z</time>
      </trkpt>
      <trkpt lat="45.79384" lon="6.72841">
        <ele>1647</ele>
        <time>2026-08-14T09:14:49.540Z</time>
      </trkpt>
      <trkpt lat="45.79384" lon="6.72843">
        <ele>1647</ele>
        <time>2026-08-14T09:14:50.540Z</time>
      </trkpt>
      <trkpt lat="45.79385" lon="6.72845">
        <ele>1647</ele>
        <time>2026-08-14T09:14:51.540Z</time>
      </trkpt>
      <trkpt lat="45.79385" lon="6.72846">
        <ele>1647</ele>
        <time>2026-08-14T09:14:52.540Z</time>
      </trkpt>
      <trkpt lat="45.79386" lon="6.72848">
        <ele>1648</ele>
        <time>2026-08-14T09:14:53.540Z</time>
      </trkpt>
      <trkpt lat="45.79386" lon="6.7285">
        <ele>1648</ele>
        <time>2026-08-14T09:14:54.540Z</time>
      </trkpt>
      <trkpt lat="45.79386" lon="6.72851">
        <ele>1648</ele>
        <time>2026-08-14T09:14:55.540Z</time>
      </trkpt>
      <trkpt lat="45.79386" lon="6.72853">
        <ele>1648</ele>
        <time>2026-08-14T09:14:56.540Z</time>
      </trkpt>
      <trkpt lat="45.79387" lon="6.72855">
        <ele>1648</ele>
        <time>2026-08-14T09:14:57.540Z</time>
      </trkpt>
      <trkpt lat="45.79387" lon="6.72857">
        <ele>1648</ele>
        <time>2026-08-14T09:14:58.540Z</time>
      </trkpt>
      <trkpt lat="45.79387" lon="6.72859">
        <ele>1649</ele>
        <time>2026-08-14T09:14:59.540Z</time>
      </trkpt>
      <trkpt lat="45.79387" lon="6.72861">
        <ele>1649</ele>
        <time>2026-08-14T09:15:00.540Z</time>
      </trkpt>
      <trkpt lat="45.79387" lon="6.72862">
        <ele>1649</ele>
        <time>2026-08-14T09:15:01.540Z</time>
      </trkpt>
      <trkpt lat="45.79387" lon="6.72863">
        <ele>1649</ele>
        <time>2026-08-14T09:15:02.540Z</time>
      </trkpt>
      <trkpt lat="45.79388" lon="6.72864">
        <ele>1649</ele>
        <time>2026-08-14T09:15:03.540Z</time>
      </trkpt>
      <trkpt lat="45.79389" lon="6.72865">
        <ele>1650</ele>
        <time>2026-08-14T09:15:04.540Z</time>
      </trkpt>
      <trkpt lat="45.7939" lon="6.72866">
        <ele>1650</ele>
        <time>2026-08-14T09:15:05.540Z</time>
      </trkpt>
      <trkpt lat="45.79391" lon="6.72867">
        <ele>1651</ele>
        <time>2026-08-14T09:15:06.540Z</time>
      </trkpt>
      <trkpt lat="45.79392" lon="6.72868">
        <ele>1651</ele>
        <time>2026-08-14T09:15:07.540Z</time>
      </trkpt>
      <trkpt lat="45.79392" lon="6.72868">
        <ele>1652</ele>
        <time>2026-08-14T09:15:08.540Z</time>
      </trkpt>
      <trkpt lat="45.79393" lon="6.72868">
        <ele>1652</ele>
        <time>2026-08-14T09:15:09.540Z</time>
      </trkpt>
      <trkpt lat="45.79393" lon="6.72868">
        <ele>1652</ele>
        <time>2026-08-14T09:15:10.540Z</time>
      </trkpt>
      <trkpt lat="45.79394" lon="6.72868">
        <ele>1651</ele>
        <time>2026-08-14T09:15:11.540Z</time>
      </trkpt>
      <trkpt lat="45.79394" lon="6.72868">
        <ele>1651</ele>
        <time>2026-08-14T09:15:12.540Z</time>
      </trkpt>
      <trkpt lat="45.79395" lon="6.72868">
        <ele>1650</ele>
        <time>2026-08-14T09:15:13.540Z</time>
      </trkpt>
      <trkpt lat="45.79395" lon="6.72869">
        <ele>1650</ele>
        <time>2026-08-14T09:15:14.540Z</time>
      </trkpt>
      <trkpt lat="45.79395" lon="6.7287">
        <ele>1649</ele>
        <time>2026-08-14T09:15:15.540Z</time>
      </trkpt>
      <trkpt lat="45.79395" lon="6.72871">
        <ele>1649</ele>
        <time>2026-08-14T09:15:16.540Z</time>
      </trkpt>
      <trkpt lat="45.79395" lon="6.72872">
        <ele>1648</ele>
        <time>2026-08-14T09:15:17.540Z</time>
      </trkpt>
      <trkpt lat="45.79396" lon="6.72872">
        <ele>1648</ele>
        <time>2026-08-14T09:15:18.540Z</time>
      </trkpt>
      <trkpt lat="45.79396" lon="6.72872">
        <ele>1648</ele>
        <time>2026-08-14T09:15:19.540Z</time>
      </trkpt>
      <trkpt lat="45.79396" lon="6.72872">
        <ele>1648</ele>
        <time>2026-08-14T09:15:20.540Z</time>
      </trkpt>
      <trkpt lat="45.79397" lon="6.72872">
        <ele>1649</ele>
        <time>2026-08-14T09:15:21.540Z</time>
      </trkpt>
      <trkpt lat="45.79397" lon="6.72872">
        <ele>1649</ele>
        <time>2026-08-14T09:15:22.540Z</time>
      </trkpt>
      <trkpt lat="45.79397" lon="6.72872">
        <ele>1649</ele>
        <time>2026-08-14T09:15:23.540Z</time>
      </trkpt>
      <trkpt lat="45.79397" lon="6.72872">
        <ele>1649</ele>
        <time>2026-08-14T09:15:24.540Z</time>
      </trkpt>
      <trkpt lat="45.79397" lon="6.72872">
        <ele>1649</ele>
        <time>2026-08-14T09:15:25.540Z</time>
      </trkpt>
      <trkpt lat="45.79397" lon="6.72872">
        <ele>1649</ele>
        <time>2026-08-14T09:15:26.540Z</time>
      </trkpt>
      <trkpt lat="45.79398" lon="6.72873">
        <ele>1649</ele>
        <time>2026-08-14T09:15:27.540Z</time>
      </trkpt>
      <trkpt lat="45.79398" lon="6.72873">
        <ele>1649</ele>
        <time>2026-08-14T09:15:28.540Z</time>
      </trkpt>
      <trkpt lat="45.79399" lon="6.72873">
        <ele>1649</ele>
        <time>2026-08-14T09:15:29.540Z</time>
      </trkpt>
      <trkpt lat="45.794" lon="6.72874">
        <ele>1649</ele>
        <time>2026-08-14T09:15:30.540Z</time>
      </trkpt>
      <trkpt lat="45.79401" lon="6.72875">
        <ele>1649</ele>
        <time>2026-08-14T09:15:31.540Z</time>
      </trkpt>
      <trkpt lat="45.79401" lon="6.72876">
        <ele>1649</ele>
        <time>2026-08-14T09:15:32.540Z</time>
      </trkpt>
      <trkpt lat="45.79402" lon="6.72878">
        <ele>1648</ele>
        <time>2026-08-14T09:15:33.540Z</time>
      </trkpt>
      <trkpt lat="45.79403" lon="6.72879">
        <ele>1648</ele>
        <time>2026-08-14T09:15:34.540Z</time>
      </trkpt>
      <trkpt lat="45.79404" lon="6.72881">
        <ele>1647</ele>
        <time>2026-08-14T09:15:35.540Z</time>
      </trkpt>
      <trkpt lat="45.79405" lon="6.72883">
        <ele>1647</ele>
        <time>2026-08-14T09:15:36.540Z</time>
      </trkpt>
      <trkpt lat="45.79406" lon="6.72884">
        <ele>1647</ele>
        <time>2026-08-14T09:15:37.540Z</time>
      </trkpt>
      <trkpt lat="45.79407" lon="6.72884">
        <ele>1647</ele>
        <time>2026-08-14T09:15:38.540Z</time>
      </trkpt>
      <trkpt lat="45.79408" lon="6.72885">
        <ele>1646</ele>
        <time>2026-08-14T09:15:39.540Z</time>
      </trkpt>
      <trkpt lat="45.79408" lon="6.72886">
        <ele>1646</ele>
        <time>2026-08-14T09:15:40.540Z</time>
      </trkpt>
      <trkpt lat="45.79409" lon="6.72886">
        <ele>1645</ele>
        <time>2026-08-14T09:15:41.540Z</time>
      </trkpt>
      <trkpt lat="45.79409" lon="6.72886">
        <ele>1645</ele>
        <time>2026-08-14T09:15:42.540Z</time>
      </trkpt>
      <trkpt lat="45.7941" lon="6.72887">
        <ele>1645</ele>
        <time>2026-08-14T09:15:43.540Z</time>
      </trkpt>
      <trkpt lat="45.7941" lon="6.72887">
        <ele>1645</ele>
        <time>2026-08-14T09:15:44.540Z</time>
      </trkpt>
      <trkpt lat="45.79411" lon="6.72888">
        <ele>1645</ele>
        <time>2026-08-14T09:15:45.540Z</time>
      </trkpt>
      <trkpt lat="45.79412" lon="6.72889">
        <ele>1645</ele>
        <time>2026-08-14T09:15:46.540Z</time>
      </trkpt>
      <trkpt lat="45.79412" lon="6.72889">
        <ele>1645</ele>
        <time>2026-08-14T09:15:47.540Z</time>
      </trkpt>
      <trkpt lat="45.79412" lon="6.7289">
        <ele>1645</ele>
        <time>2026-08-14T09:15:48.540Z</time>
      </trkpt>
      <trkpt lat="45.79412" lon="6.7289">
        <ele>1644</ele>
        <time>2026-08-14T09:15:49.540Z</time>
      </trkpt>
      <trkpt lat="45.79413" lon="6.7289">
        <ele>1643</ele>
        <time>2026-08-14T09:15:50.540Z</time>
      </trkpt>
      <trkpt lat="45.79413" lon="6.72891">
        <ele>1643</ele>
        <time>2026-08-14T09:15:51.540Z</time>
      </trkpt>
      <trkpt lat="45.79414" lon="6.72893">
        <ele>1642</ele>
        <time>2026-08-14T09:15:52.540Z</time>
      </trkpt>
      <trkpt lat="45.79416" lon="6.72894">
        <ele>1642</ele>
        <time>2026-08-14T09:15:53.540Z</time>
      </trkpt>
      <trkpt lat="45.79417" lon="6.72895">
        <ele>1641</ele>
        <time>2026-08-14T09:15:54.540Z</time>
      </trkpt>
      <trkpt lat="45.79418" lon="6.72897">
        <ele>1641</ele>
        <time>2026-08-14T09:15:55.540Z</time>
      </trkpt>
      <trkpt lat="45.79418" lon="6.72898">
        <ele>1641</ele>
        <time>2026-08-14T09:15:56.540Z</time>
      </trkpt>
      <trkpt lat="45.79418" lon="6.72899">
        <ele>1640</ele>
        <time>2026-08-14T09:15:57.540Z</time>
      </trkpt>
      <trkpt lat="45.79419" lon="6.72899">
        <ele>1640</ele>
        <time>2026-08-14T09:15:58.540Z</time>
      </trkpt>
      <trkpt lat="45.79419" lon="6.729">
        <ele>1640</ele>
        <time>2026-08-14T09:15:59.540Z</time>
      </trkpt>
      <trkpt lat="45.79419" lon="6.729">
        <ele>1640</ele>
        <time>2026-08-14T09:16:00.540Z</time>
      </trkpt>
      <trkpt lat="45.79419" lon="6.729">
        <ele>1640</ele>
        <time>2026-08-14T09:16:01.540Z</time>
      </trkpt>
      <trkpt lat="45.7942" lon="6.72901">
        <ele>1640</ele>
        <time>2026-08-14T09:16:02.540Z</time>
      </trkpt>
      <trkpt lat="45.79421" lon="6.72903">
        <ele>1640</ele>
        <time>2026-08-14T09:16:03.540Z</time>
      </trkpt>
      <trkpt lat="45.79422" lon="6.72904">
        <ele>1640</ele>
        <time>2026-08-14T09:16:04.540Z</time>
      </trkpt>
      <trkpt lat="45.79423" lon="6.72905">
        <ele>1640</ele>
        <time>2026-08-14T09:16:05.540Z</time>
      </trkpt>
      <trkpt lat="45.79424" lon="6.72906">
        <ele>1640</ele>
        <time>2026-08-14T09:16:06.540Z</time>
      </trkpt>
      <trkpt lat="45.79425" lon="6.72908">
        <ele>1640</ele>
        <time>2026-08-14T09:16:07.540Z</time>
      </trkpt>
      <trkpt lat="45.79425" lon="6.7291">
        <ele>1640</ele>
        <time>2026-08-14T09:16:08.540Z</time>
      </trkpt>
      <trkpt lat="45.79425" lon="6.72912">
        <ele>1640</ele>
        <time>2026-08-14T09:16:09.540Z</time>
      </trkpt>
      <trkpt lat="45.79425" lon="6.72913">
        <ele>1639</ele>
        <time>2026-08-14T09:16:10.540Z</time>
      </trkpt>
      <trkpt lat="45.79425" lon="6.72915">
        <ele>1639</ele>
        <time>2026-08-14T09:16:11.540Z</time>
      </trkpt>
      <trkpt lat="45.79425" lon="6.72917">
        <ele>1639</ele>
        <time>2026-08-14T09:16:12.540Z</time>
      </trkpt>
      <trkpt lat="45.79426" lon="6.72919">
        <ele>1639</ele>
        <time>2026-08-14T09:16:13.540Z</time>
      </trkpt>
      <trkpt lat="45.79425" lon="6.7292">
        <ele>1639</ele>
        <time>2026-08-14T09:16:14.540Z</time>
      </trkpt>
      <trkpt lat="45.79425" lon="6.72921">
        <ele>1638</ele>
        <time>2026-08-14T09:16:15.540Z</time>
      </trkpt>
      <trkpt lat="45.79426" lon="6.72923">
        <ele>1638</ele>
        <time>2026-08-14T09:16:16.540Z</time>
      </trkpt>
      <trkpt lat="45.79426" lon="6.72924">
        <ele>1638</ele>
        <time>2026-08-14T09:16:17.540Z</time>
      </trkpt>
      <trkpt lat="45.79427" lon="6.72924">
        <ele>1638</ele>
        <time>2026-08-14T09:16:18.540Z</time>
      </trkpt>
      <trkpt lat="45.79427" lon="6.72924">
        <ele>1638</ele>
        <time>2026-08-14T09:16:19.540Z</time>
      </trkpt>
      <trkpt lat="45.79428" lon="6.72924">
        <ele>1638</ele>
        <time>2026-08-14T09:16:20.540Z</time>
      </trkpt>
      <trkpt lat="45.79429" lon="6.72924">
        <ele>1638</ele>
        <time>2026-08-14T09:16:21.540Z</time>
      </trkpt>
      <trkpt lat="45.79429" lon="6.72925">
        <ele>1638</ele>
        <time>2026-08-14T09:16:22.540Z</time>
      </trkpt>
      <trkpt lat="45.7943" lon="6.72926">
        <ele>1638</ele>
        <time>2026-08-14T09:16:23.540Z</time>
      </trkpt>
      <trkpt lat="45.79431" lon="6.72927">
        <ele>1637</ele>
        <time>2026-08-14T09:16:24.540Z</time>
      </trkpt>
      <trkpt lat="45.79432" lon="6.72928">
        <ele>1637</ele>
        <time>2026-08-14T09:16:25.540Z</time>
      </trkpt>
      <trkpt lat="45.79432" lon="6.7293">
        <ele>1637</ele>
        <time>2026-08-14T09:16:26.540Z</time>
      </trkpt>
      <trkpt lat="45.79432" lon="6.72931">
        <ele>1636</ele>
        <time>2026-08-14T09:16:27.540Z</time>
      </trkpt>
      <trkpt lat="45.79432" lon="6.72931">
        <ele>1636</ele>
        <time>2026-08-14T09:16:28.540Z</time>
      </trkpt>
      <trkpt lat="45.79433" lon="6.72933">
        <ele>1636</ele>
        <time>2026-08-14T09:16:29.540Z</time>
      </trkpt>
      <trkpt lat="45.79434" lon="6.72934">
        <ele>1636</ele>
        <time>2026-08-14T09:16:30.540Z</time>
      </trkpt>
      <trkpt lat="45.79435" lon="6.72935">
        <ele>1636</ele>
        <time>2026-08-14T09:16:31.540Z</time>
      </trkpt>
      <trkpt lat="45.79435" lon="6.72936">
        <ele>1635</ele>
        <time>2026-08-14T09:16:32.540Z</time>
      </trkpt>
      <trkpt lat="45.79436" lon="6.72937">
        <ele>1635</ele>
        <time>2026-08-14T09:16:33.540Z</time>
      </trkpt>
      <trkpt lat="45.79436" lon="6.72938">
        <ele>1635</ele>
        <time>2026-08-14T09:16:34.540Z</time>
      </trkpt>
      <trkpt lat="45.79437" lon="6.72939">
        <ele>1635</ele>
        <time>2026-08-14T09:16:35.540Z</time>
      </trkpt>
      <trkpt lat="45.79438" lon="6.7294">
        <ele>1635</ele>
        <time>2026-08-14T09:16:36.540Z</time>
      </trkpt>
      <trkpt lat="45.79438" lon="6.72941">
        <ele>1635</ele>
        <time>2026-08-14T09:16:37.540Z</time>
      </trkpt>
      <trkpt lat="45.79439" lon="6.72941">
        <ele>1635</ele>
        <time>2026-08-14T09:16:38.540Z</time>
      </trkpt>
      <trkpt lat="45.79439" lon="6.72942">
        <ele>1635</ele>
        <time>2026-08-14T09:16:39.540Z</time>
      </trkpt>
      <trkpt lat="45.7944" lon="6.72942">
        <ele>1635</ele>
        <time>2026-08-14T09:16:40.540Z</time>
      </trkpt>
      <trkpt lat="45.7944" lon="6.72942">
        <ele>1635</ele>
        <time>2026-08-14T09:16:41.540Z</time>
      </trkpt>
      <trkpt lat="45.7944" lon="6.72943">
        <ele>1636</ele>
        <time>2026-08-14T09:16:42.540Z</time>
      </trkpt>
      <trkpt lat="45.7944" lon="6.72943">
        <ele>1636</ele>
        <time>2026-08-14T09:16:43.540Z</time>
      </trkpt>
      <trkpt lat="45.79441" lon="6.72943">
        <ele>1636</ele>
        <time>2026-08-14T09:16:44.540Z</time>
      </trkpt>
      <trkpt lat="45.79443" lon="6.72943">
        <ele>1636</ele>
        <time>2026-08-14T09:16:45.540Z</time>
      </trkpt>
      <trkpt lat="45.79444" lon="6.72943">
        <ele>1636</ele>
        <time>2026-08-14T09:16:46.540Z</time>
      </trkpt>
      <trkpt lat="45.79445" lon="6.72944">
        <ele>1636</ele>
        <time>2026-08-14T09:16:47.540Z</time>
      </trkpt>
      <trkpt lat="45.79446" lon="6.72946">
        <ele>1636</ele>
        <time>2026-08-14T09:16:48.540Z</time>
      </trkpt>
      <trkpt lat="45.79446" lon="6.72948">
        <ele>1636</ele>
        <time>2026-08-14T09:16:49.540Z</time>
      </trkpt>
      <trkpt lat="45.79445" lon="6.7295">
        <ele>1635</ele>
        <time>2026-08-14T09:16:50.540Z</time>
      </trkpt>
      <trkpt lat="45.79445" lon="6.72952">
        <ele>1635</ele>
        <time>2026-08-14T09:16:51.540Z</time>
      </trkpt>
      <trkpt lat="45.79446" lon="6.72953">
        <ele>1634</ele>
        <time>2026-08-14T09:16:52.540Z</time>
      </trkpt>
      <trkpt lat="45.79446" lon="6.72953">
        <ele>1634</ele>
        <time>2026-08-14T09:16:53.540Z</time>
      </trkpt>
      <trkpt lat="45.79447" lon="6.72954">
        <ele>1634</ele>
        <time>2026-08-14T09:16:54.540Z</time>
      </trkpt>
      <trkpt lat="45.79447" lon="6.72956">
        <ele>1633</ele>
        <time>2026-08-14T09:16:55.540Z</time>
      </trkpt>
      <trkpt lat="45.79446" lon="6.72957">
        <ele>1633</ele>
        <time>2026-08-14T09:16:56.540Z</time>
      </trkpt>
      <trkpt lat="45.79446" lon="6.72959">
        <ele>1632</ele>
        <time>2026-08-14T09:16:57.540Z</time>
      </trkpt>
      <trkpt lat="45.79446" lon="6.72961">
        <ele>1632</ele>
        <time>2026-08-14T09:16:58.540Z</time>
      </trkpt>
      <trkpt lat="45.79447" lon="6.72963">
        <ele>1631</ele>
        <time>2026-08-14T09:16:59.540Z</time>
      </trkpt>
      <trkpt lat="45.79448" lon="6.72964">
        <ele>1631</ele>
        <time>2026-08-14T09:17:00.540Z</time>
      </trkpt>
      <trkpt lat="45.79449" lon="6.72966">
        <ele>1631</ele>
        <time>2026-08-14T09:17:01.540Z</time>
      </trkpt>
      <trkpt lat="45.79449" lon="6.72966">
        <ele>1630</ele>
        <time>2026-08-14T09:17:02.540Z</time>
      </trkpt>
      <trkpt lat="45.7945" lon="6.72967">
        <ele>1630</ele>
        <time>2026-08-14T09:17:03.540Z</time>
      </trkpt>
      <trkpt lat="45.79451" lon="6.72968">
        <ele>1630</ele>
        <time>2026-08-14T09:17:04.540Z</time>
      </trkpt>
      <trkpt lat="45.79451" lon="6.72969">
        <ele>1630</ele>
        <time>2026-08-14T09:17:05.540Z</time>
      </trkpt>
      <trkpt lat="45.79451" lon="6.72971">
        <ele>1630</ele>
        <time>2026-08-14T09:17:06.540Z</time>
      </trkpt>
      <trkpt lat="45.79451" lon="6.72973">
        <ele>1630</ele>
        <time>2026-08-14T09:17:07.540Z</time>
      </trkpt>
      <trkpt lat="45.79451" lon="6.72975">
        <ele>1630</ele>
        <time>2026-08-14T09:17:08.540Z</time>
      </trkpt>
      <trkpt lat="45.79451" lon="6.72976">
        <ele>1630</ele>
        <time>2026-08-14T09:17:09.540Z</time>
      </trkpt>
      <trkpt lat="45.79452" lon="6.72978">
        <ele>1630</ele>
        <time>2026-08-14T09:17:10.540Z</time>
      </trkpt>
      <trkpt lat="45.79452" lon="6.72979">
        <ele>1630</ele>
        <time>2026-08-14T09:17:11.540Z</time>
      </trkpt>
      <trkpt lat="45.79452" lon="6.7298">
        <ele>1630</ele>
        <time>2026-08-14T09:17:12.540Z</time>
      </trkpt>
      <trkpt lat="45.79452" lon="6.72982">
        <ele>1630</ele>
        <time>2026-08-14T09:17:13.540Z</time>
      </trkpt>
      <trkpt lat="45.79452" lon="6.72983">
        <ele>1629</ele>
        <time>2026-08-14T09:17:14.540Z</time>
      </trkpt>
      <trkpt lat="45.79453" lon="6.72983">
        <ele>1629</ele>
        <time>2026-08-14T09:17:15.540Z</time>
      </trkpt>
      <trkpt lat="45.79453" lon="6.72984">
        <ele>1629</ele>
        <time>2026-08-14T09:17:16.540Z</time>
      </trkpt>
      <trkpt lat="45.79453" lon="6.72984">
        <ele>1629</ele>
        <time>2026-08-14T09:17:17.540Z</time>
      </trkpt>
      <trkpt lat="45.79454" lon="6.72985">
        <ele>1629</ele>
        <time>2026-08-14T09:17:18.540Z</time>
      </trkpt>
      <trkpt lat="45.79454" lon="6.72986">
        <ele>1629</ele>
        <time>2026-08-14T09:17:19.540Z</time>
      </trkpt>
      <trkpt lat="45.79453" lon="6.72987">
        <ele>1629</ele>
        <time>2026-08-14T09:17:20.540Z</time>
      </trkpt>
      <trkpt lat="45.79454" lon="6.72988">
        <ele>1629</ele>
        <time>2026-08-14T09:17:21.540Z</time>
      </trkpt>
      <trkpt lat="45.79455" lon="6.72988">
        <ele>1629</ele>
        <time>2026-08-14T09:17:22.540Z</time>
      </trkpt>
      <trkpt lat="45.79456" lon="6.72989">
        <ele>1629</ele>
        <time>2026-08-14T09:17:23.540Z</time>
      </trkpt>
      <trkpt lat="45.79456" lon="6.72989">
        <ele>1628</ele>
        <time>2026-08-14T09:17:24.540Z</time>
      </trkpt>
      <trkpt lat="45.79457" lon="6.7299">
        <ele>1628</ele>
        <time>2026-08-14T09:17:25.540Z</time>
      </trkpt>
      <trkpt lat="45.79457" lon="6.72991">
        <ele>1627</ele>
        <time>2026-08-14T09:17:26.540Z</time>
      </trkpt>
      <trkpt lat="45.79458" lon="6.72992">
        <ele>1626</ele>
        <time>2026-08-14T09:17:27.540Z</time>
      </trkpt>
      <trkpt lat="45.79459" lon="6.72994">
        <ele>1626</ele>
        <time>2026-08-14T09:17:28.540Z</time>
      </trkpt>
      <trkpt lat="45.79459" lon="6.72995">
        <ele>1625</ele>
        <time>2026-08-14T09:17:29.540Z</time>
      </trkpt>
      <trkpt lat="45.7946" lon="6.72997">
        <ele>1625</ele>
        <time>2026-08-14T09:17:30.540Z</time>
      </trkpt>
      <trkpt lat="45.79461" lon="6.72999">
        <ele>1625</ele>
        <time>2026-08-14T09:17:31.540Z</time>
      </trkpt>
      <trkpt lat="45.79462" lon="6.73">
        <ele>1624</ele>
        <time>2026-08-14T09:17:32.540Z</time>
      </trkpt>
      <trkpt lat="45.79462" lon="6.73001">
        <ele>1624</ele>
        <time>2026-08-14T09:17:33.540Z</time>
      </trkpt>
      <trkpt lat="45.79463" lon="6.73002">
        <ele>1624</ele>
        <time>2026-08-14T09:17:34.540Z</time>
      </trkpt>
      <trkpt lat="45.79465" lon="6.73002">
        <ele>1624</ele>
        <time>2026-08-14T09:17:35.540Z</time>
      </trkpt>
      <trkpt lat="45.79466" lon="6.73004">
        <ele>1624</ele>
        <time>2026-08-14T09:17:36.540Z</time>
      </trkpt>
      <trkpt lat="45.79467" lon="6.73007">
        <ele>1624</ele>
        <time>2026-08-14T09:17:37.540Z</time>
      </trkpt>
      <trkpt lat="45.79468" lon="6.73009">
        <ele>1624</ele>
        <time>2026-08-14T09:17:38.540Z</time>
      </trkpt>
      <trkpt lat="45.79469" lon="6.73011">
        <ele>1624</ele>
        <time>2026-08-14T09:17:39.540Z</time>
      </trkpt>
      <trkpt lat="45.7947" lon="6.73013">
        <ele>1624</ele>
        <time>2026-08-14T09:17:40.540Z</time>
      </trkpt>
      <trkpt lat="45.7947" lon="6.73015">
        <ele>1624</ele>
        <time>2026-08-14T09:17:41.540Z</time>
      </trkpt>
      <trkpt lat="45.7947" lon="6.73017">
        <ele>1623</ele>
        <time>2026-08-14T09:17:42.540Z</time>
      </trkpt>
      <trkpt lat="45.7947" lon="6.73018">
        <ele>1623</ele>
        <time>2026-08-14T09:17:43.540Z</time>
      </trkpt>
      <trkpt lat="45.7947" lon="6.7302">
        <ele>1623</ele>
        <time>2026-08-14T09:17:44.540Z</time>
      </trkpt>
      <trkpt lat="45.7947" lon="6.73022">
        <ele>1623</ele>
        <time>2026-08-14T09:17:45.540Z</time>
      </trkpt>
      <trkpt lat="45.7947" lon="6.73024">
        <ele>1623</ele>
        <time>2026-08-14T09:17:46.540Z</time>
      </trkpt>
      <trkpt lat="45.79471" lon="6.73025">
        <ele>1623</ele>
        <time>2026-08-14T09:17:47.540Z</time>
      </trkpt>
      <trkpt lat="45.79471" lon="6.73027">
        <ele>1622</ele>
        <time>2026-08-14T09:17:48.540Z</time>
      </trkpt>
      <trkpt lat="45.79471" lon="6.73028">
        <ele>1622</ele>
        <time>2026-08-14T09:17:49.540Z</time>
      </trkpt>
      <trkpt lat="45.79472" lon="6.7303">
        <ele>1622</ele>
        <time>2026-08-14T09:17:50.540Z</time>
      </trkpt>
      <trkpt lat="45.79472" lon="6.73031">
        <ele>1622</ele>
        <time>2026-08-14T09:17:51.540Z</time>
      </trkpt>
      <trkpt lat="45.79472" lon="6.73034">
        <ele>1622</ele>
        <time>2026-08-14T09:17:52.540Z</time>
      </trkpt>
      <trkpt lat="45.79473" lon="6.73036">
        <ele>1622</ele>
        <time>2026-08-14T09:17:53.540Z</time>
      </trkpt>
      <trkpt lat="45.79474" lon="6.73038">
        <ele>1622</ele>
        <time>2026-08-14T09:17:54.540Z</time>
      </trkpt>
      <trkpt lat="45.79476" lon="6.7304">
        <ele>1622</ele>
        <time>2026-08-14T09:17:55.540Z</time>
      </trkpt>
      <trkpt lat="45.79477" lon="6.73042">
        <ele>1622</ele>
        <time>2026-08-14T09:17:56.540Z</time>
      </trkpt>
      <trkpt lat="45.79478" lon="6.73044">
        <ele>1622</ele>
        <time>2026-08-14T09:17:57.540Z</time>
      </trkpt>
      <trkpt lat="45.79479" lon="6.73045">
        <ele>1622</ele>
        <time>2026-08-14T09:17:58.540Z</time>
      </trkpt>
      <trkpt lat="45.7948" lon="6.73047">
        <ele>1622</ele>
        <time>2026-08-14T09:17:59.540Z</time>
      </trkpt>
      <trkpt lat="45.79482" lon="6.73048">
        <ele>1622</ele>
        <time>2026-08-14T09:18:00.540Z</time>
      </trkpt>
      <trkpt lat="45.79483" lon="6.7305">
        <ele>1622</ele>
        <time>2026-08-14T09:18:01.540Z</time>
      </trkpt>
      <trkpt lat="45.79484" lon="6.73052">
        <ele>1622</ele>
        <time>2026-08-14T09:18:02.540Z</time>
      </trkpt>
      <trkpt lat="45.79486" lon="6.73055">
        <ele>1622</ele>
        <time>2026-08-14T09:18:03.540Z</time>
      </trkpt>
      <trkpt lat="45.79488" lon="6.73058">
        <ele>1622</ele>
        <time>2026-08-14T09:18:04.540Z</time>
      </trkpt>
      <trkpt lat="45.79489" lon="6.7306">
        <ele>1622</ele>
        <time>2026-08-14T09:18:05.540Z</time>
      </trkpt>
      <trkpt lat="45.7949" lon="6.73062">
        <ele>1622</ele>
        <time>2026-08-14T09:18:06.540Z</time>
      </trkpt>
      <trkpt lat="45.79491" lon="6.73063">
        <ele>1622</ele>
        <time>2026-08-14T09:18:07.540Z</time>
      </trkpt>
      <trkpt lat="45.79491" lon="6.73064">
        <ele>1622</ele>
        <time>2026-08-14T09:18:08.540Z</time>
      </trkpt>
      <trkpt lat="45.79492" lon="6.73064">
        <ele>1622</ele>
        <time>2026-08-14T09:18:09.540Z</time>
      </trkpt>
      <trkpt lat="45.79493" lon="6.73064">
        <ele>1622</ele>
        <time>2026-08-14T09:18:10.540Z</time>
      </trkpt>
      <trkpt lat="45.79493" lon="6.73064">
        <ele>1623</ele>
        <time>2026-08-14T09:18:11.540Z</time>
      </trkpt>
      <trkpt lat="45.79493" lon="6.73065">
        <ele>1623</ele>
        <time>2026-08-14T09:18:12.540Z</time>
      </trkpt>
      <trkpt lat="45.79493" lon="6.73065">
        <ele>1622</ele>
        <time>2026-08-14T09:18:13.540Z</time>
      </trkpt>
      <trkpt lat="45.79493" lon="6.73064">
        <ele>1623</ele>
        <time>2026-08-14T09:18:14.540Z</time>
      </trkpt>
      <trkpt lat="45.79494" lon="6.73064">
        <ele>1623</ele>
        <time>2026-08-14T09:18:15.541Z</time>
      </trkpt>
      <trkpt lat="45.79495" lon="6.73065">
        <ele>1623</ele>
        <time>2026-08-14T09:18:16.540Z</time>
      </trkpt>
      <trkpt lat="45.79496" lon="6.73065">
        <ele>1624</ele>
        <time>2026-08-14T09:18:17.540Z</time>
      </trkpt>
      <trkpt lat="45.79497" lon="6.73064">
        <ele>1624</ele>
        <time>2026-08-14T09:18:18.540Z</time>
      </trkpt>
      <trkpt lat="45.79497" lon="6.73064">
        <ele>1625</ele>
        <time>2026-08-14T09:18:19.540Z</time>
      </trkpt>
      <trkpt lat="45.79498" lon="6.73064">
        <ele>1625</ele>
        <time>2026-08-14T09:18:20.540Z</time>
      </trkpt>
      <trkpt lat="45.79498" lon="6.73063">
        <ele>1625</ele>
        <time>2026-08-14T09:18:21.540Z</time>
      </trkpt>
      <trkpt lat="45.79498" lon="6.7306">
        <ele>1625</ele>
        <time>2026-08-14T09:18:22.540Z</time>
      </trkpt>
      <trkpt lat="45.79499" lon="6.73059">
        <ele>1625</ele>
        <time>2026-08-14T09:18:23.540Z</time>
      </trkpt>
      <trkpt lat="45.79501" lon="6.73058">
        <ele>1625</ele>
        <time>2026-08-14T09:18:24.540Z</time>
      </trkpt>
      <trkpt lat="45.79502" lon="6.73058">
        <ele>1625</ele>
        <time>2026-08-14T09:18:25.540Z</time>
      </trkpt>
      <trkpt lat="45.79503" lon="6.73056">
        <ele>1625</ele>
        <time>2026-08-14T09:18:26.540Z</time>
      </trkpt>
      <trkpt lat="45.79504" lon="6.73056">
        <ele>1624</ele>
        <time>2026-08-14T09:18:27.540Z</time>
      </trkpt>
      <trkpt lat="45.79505" lon="6.73056">
        <ele>1624</ele>
        <time>2026-08-14T09:18:28.540Z</time>
      </trkpt>
      <trkpt lat="45.79507" lon="6.73056">
        <ele>1623</ele>
        <time>2026-08-14T09:18:29.540Z</time>
      </trkpt>
      <trkpt lat="45.79508" lon="6.73057">
        <ele>1623</ele>
        <time>2026-08-14T09:18:30.540Z</time>
      </trkpt>
      <trkpt lat="45.79509" lon="6.73057">
        <ele>1622</ele>
        <time>2026-08-14T09:18:31.540Z</time>
      </trkpt>
      <trkpt lat="45.7951" lon="6.73059">
        <ele>1622</ele>
        <time>2026-08-14T09:18:32.540Z</time>
      </trkpt>
      <trkpt lat="45.79511" lon="6.7306">
        <ele>1621</ele>
        <time>2026-08-14T09:18:33.540Z</time>
      </trkpt>
      <trkpt lat="45.79512" lon="6.73061">
        <ele>1621</ele>
        <time>2026-08-14T09:18:34.540Z</time>
      </trkpt>
      <trkpt lat="45.79514" lon="6.73061">
        <ele>1621</ele>
        <time>2026-08-14T09:18:35.540Z</time>
      </trkpt>
      <trkpt lat="45.79516" lon="6.73062">
        <ele>1621</ele>
        <time>2026-08-14T09:18:36.540Z</time>
      </trkpt>
      <trkpt lat="45.79518" lon="6.73063">
        <ele>1621</ele>
        <time>2026-08-14T09:18:37.540Z</time>
      </trkpt>
      <trkpt lat="45.7952" lon="6.73065">
        <ele>1620</ele>
        <time>2026-08-14T09:18:38.540Z</time>
      </trkpt>
      <trkpt lat="45.79522" lon="6.73066">
        <ele>1620</ele>
        <time>2026-08-14T09:18:39.540Z</time>
      </trkpt>
      <trkpt lat="45.79523" lon="6.73067">
        <ele>1620</ele>
        <time>2026-08-14T09:18:40.540Z</time>
      </trkpt>
      <trkpt lat="45.79524" lon="6.73069">
        <ele>1619</ele>
        <time>2026-08-14T09:18:41.540Z</time>
      </trkpt>
      <trkpt lat="45.79525" lon="6.73072">
        <ele>1619</ele>
        <time>2026-08-14T09:18:42.540Z</time>
      </trkpt>
      <trkpt lat="45.79526" lon="6.73073">
        <ele>1618</ele>
        <time>2026-08-14T09:18:43.540Z</time>
      </trkpt>
      <trkpt lat="45.79527" lon="6.73076">
        <ele>1618</ele>
        <time>2026-08-14T09:18:44.540Z</time>
      </trkpt>
      <trkpt lat="45.79529" lon="6.73077">
        <ele>1617</ele>
        <time>2026-08-14T09:18:45.540Z</time>
      </trkpt>
      <trkpt lat="45.7953" lon="6.73078">
        <ele>1617</ele>
        <time>2026-08-14T09:18:46.540Z</time>
      </trkpt>
      <trkpt lat="45.79531" lon="6.73079">
        <ele>1616</ele>
        <time>2026-08-14T09:18:47.540Z</time>
      </trkpt>
      <trkpt lat="45.79532" lon="6.7308">
        <ele>1616</ele>
        <time>2026-08-14T09:18:48.540Z</time>
      </trkpt>
      <trkpt lat="45.79533" lon="6.73081">
        <ele>1615</ele>
        <time>2026-08-14T09:18:49.540Z</time>
      </trkpt>
      <trkpt lat="45.79534" lon="6.73081">
        <ele>1614</ele>
        <time>2026-08-14T09:18:50.540Z</time>
      </trkpt>
      <trkpt lat="45.79534" lon="6.73082">
        <ele>1613</ele>
        <time>2026-08-14T09:18:51.540Z</time>
      </trkpt>
      <trkpt lat="45.79535" lon="6.73083">
        <ele>1613</ele>
        <time>2026-08-14T09:18:52.540Z</time>
      </trkpt>
      <trkpt lat="45.79536" lon="6.73084">
        <ele>1612</ele>
        <time>2026-08-14T09:18:53.540Z</time>
      </trkpt>
      <trkpt lat="45.79537" lon="6.73085">
        <ele>1611</ele>
        <time>2026-08-14T09:18:54.540Z</time>
      </trkpt>
      <trkpt lat="45.79538" lon="6.73087">
        <ele>1611</ele>
        <time>2026-08-14T09:18:55.540Z</time>
      </trkpt>
      <trkpt lat="45.79539" lon="6.73089">
        <ele>1610</ele>
        <time>2026-08-14T09:18:56.540Z</time>
      </trkpt>
      <trkpt lat="45.7954" lon="6.7309">
        <ele>1610</ele>
        <time>2026-08-14T09:18:57.540Z</time>
      </trkpt>
      <trkpt lat="45.79541" lon="6.73092">
        <ele>1610</ele>
        <time>2026-08-14T09:18:58.540Z</time>
      </trkpt>
      <trkpt lat="45.79542" lon="6.73093">
        <ele>1609</ele>
        <time>2026-08-14T09:18:59.540Z</time>
      </trkpt>
      <trkpt lat="45.79542" lon="6.73094">
        <ele>1609</ele>
        <time>2026-08-14T09:19:00.540Z</time>
      </trkpt>
      <trkpt lat="45.79543" lon="6.73095">
        <ele>1609</ele>
        <time>2026-08-14T09:19:01.540Z</time>
      </trkpt>
      <trkpt lat="45.79544" lon="6.73096">
        <ele>1608</ele>
        <time>2026-08-14T09:19:02.540Z</time>
      </trkpt>
      <trkpt lat="45.79545" lon="6.73097">
        <ele>1608</ele>
        <time>2026-08-14T09:19:03.540Z</time>
      </trkpt>
      <trkpt lat="45.79546" lon="6.73098">
        <ele>1608</ele>
        <time>2026-08-14T09:19:04.540Z</time>
      </trkpt>
      <trkpt lat="45.79547" lon="6.73099">
        <ele>1607</ele>
        <time>2026-08-14T09:19:05.540Z</time>
      </trkpt>
      <trkpt lat="45.79548" lon="6.73098">
        <ele>1607</ele>
        <time>2026-08-14T09:19:06.540Z</time>
      </trkpt>
      <trkpt lat="45.79549" lon="6.73097">
        <ele>1607</ele>
        <time>2026-08-14T09:19:07.540Z</time>
      </trkpt>
      <trkpt lat="45.79549" lon="6.73095">
        <ele>1607</ele>
        <time>2026-08-14T09:19:08.540Z</time>
      </trkpt>
      <trkpt lat="45.79551" lon="6.73094">
        <ele>1606</ele>
        <time>2026-08-14T09:19:09.540Z</time>
      </trkpt>
      <trkpt lat="45.79553" lon="6.73092">
        <ele>1606</ele>
        <time>2026-08-14T09:19:10.540Z</time>
      </trkpt>
      <trkpt lat="45.79555" lon="6.73093">
        <ele>1606</ele>
        <time>2026-08-14T09:19:11.540Z</time>
      </trkpt>
      <trkpt lat="45.79556" lon="6.73093">
        <ele>1606</ele>
        <time>2026-08-14T09:19:12.540Z</time>
      </trkpt>
      <trkpt lat="45.79557" lon="6.73094">
        <ele>1606</ele>
        <time>2026-08-14T09:19:13.540Z</time>
      </trkpt>
      <trkpt lat="45.79558" lon="6.73094">
        <ele>1606</ele>
        <time>2026-08-14T09:19:14.540Z</time>
      </trkpt>
      <trkpt lat="45.79559" lon="6.73095">
        <ele>1606</ele>
        <time>2026-08-14T09:19:15.540Z</time>
      </trkpt>
      <trkpt lat="45.7956" lon="6.73094">
        <ele>1605</ele>
        <time>2026-08-14T09:19:16.540Z</time>
      </trkpt>
      <trkpt lat="45.79561" lon="6.73094">
        <ele>1605</ele>
        <time>2026-08-14T09:19:17.540Z</time>
      </trkpt>
      <trkpt lat="45.79562" lon="6.73093">
        <ele>1604</ele>
        <time>2026-08-14T09:19:18.540Z</time>
      </trkpt>
      <trkpt lat="45.79563" lon="6.73092">
        <ele>1604</ele>
        <time>2026-08-14T09:19:19.540Z</time>
      </trkpt>
      <trkpt lat="45.79564" lon="6.73091">
        <ele>1604</ele>
        <time>2026-08-14T09:19:20.540Z</time>
      </trkpt>
      <trkpt lat="45.79565" lon="6.7309">
        <ele>1604</ele>
        <time>2026-08-14T09:19:21.540Z</time>
      </trkpt>
      <trkpt lat="45.79566" lon="6.73089">
        <ele>1604</ele>
        <time>2026-08-14T09:19:22.540Z</time>
      </trkpt>
      <trkpt lat="45.79567" lon="6.73088">
        <ele>1604</ele>
        <time>2026-08-14T09:19:23.540Z</time>
      </trkpt>
      <trkpt lat="45.79568" lon="6.73088">
        <ele>1604</ele>
        <time>2026-08-14T09:19:24.540Z</time>
      </trkpt>
      <trkpt lat="45.79569" lon="6.73087">
        <ele>1604</ele>
        <time>2026-08-14T09:19:25.540Z</time>
      </trkpt>
      <trkpt lat="45.79571" lon="6.73087">
        <ele>1603</ele>
        <time>2026-08-14T09:19:26.540Z</time>
      </trkpt>
      <trkpt lat="45.79573" lon="6.73088">
        <ele>1603</ele>
        <time>2026-08-14T09:19:27.540Z</time>
      </trkpt>
      <trkpt lat="45.79574" lon="6.73088">
        <ele>1602</ele>
        <time>2026-08-14T09:19:28.540Z</time>
      </trkpt>
      <trkpt lat="45.79575" lon="6.7309">
        <ele>1601</ele>
        <time>2026-08-14T09:19:29.540Z</time>
      </trkpt>
      <trkpt lat="45.79575" lon="6.7309">
        <ele>1600</ele>
        <time>2026-08-14T09:19:30.540Z</time>
      </trkpt>
      <trkpt lat="45.79576" lon="6.7309">
        <ele>1600</ele>
        <time>2026-08-14T09:19:31.540Z</time>
      </trkpt>
      <trkpt lat="45.79576" lon="6.73089">
        <ele>1599</ele>
        <time>2026-08-14T09:19:32.540Z</time>
      </trkpt>
      <trkpt lat="45.79577" lon="6.73089">
        <ele>1598</ele>
        <time>2026-08-14T09:19:33.540Z</time>
      </trkpt>
      <trkpt lat="45.79578" lon="6.73089">
        <ele>1598</ele>
        <time>2026-08-14T09:19:34.540Z</time>
      </trkpt>
      <trkpt lat="45.7958" lon="6.7309">
        <ele>1597</ele>
        <time>2026-08-14T09:19:35.540Z</time>
      </trkpt>
      <trkpt lat="45.79581" lon="6.73092">
        <ele>1597</ele>
        <time>2026-08-14T09:19:36.540Z</time>
      </trkpt>
      <trkpt lat="45.79583" lon="6.73093">
        <ele>1596</ele>
        <time>2026-08-14T09:19:37.540Z</time>
      </trkpt>
      <trkpt lat="45.79584" lon="6.73095">
        <ele>1595</ele>
        <time>2026-08-14T09:19:38.540Z</time>
      </trkpt>
      <trkpt lat="45.79585" lon="6.73096">
        <ele>1594</ele>
        <time>2026-08-14T09:19:39.540Z</time>
      </trkpt>
      <trkpt lat="45.79586" lon="6.73097">
        <ele>1594</ele>
        <time>2026-08-14T09:19:40.540Z</time>
      </trkpt>
      <trkpt lat="45.79588" lon="6.73097">
        <ele>1593</ele>
        <time>2026-08-14T09:19:41.540Z</time>
      </trkpt>
      <trkpt lat="45.79589" lon="6.73098">
        <ele>1593</ele>
        <time>2026-08-14T09:19:42.540Z</time>
      </trkpt>
      <trkpt lat="45.7959" lon="6.73099">
        <ele>1593</ele>
        <time>2026-08-14T09:19:43.540Z</time>
      </trkpt>
      <trkpt lat="45.79591" lon="6.731">
        <ele>1593</ele>
        <time>2026-08-14T09:19:44.540Z</time>
      </trkpt>
      <trkpt lat="45.79592" lon="6.73101">
        <ele>1593</ele>
        <time>2026-08-14T09:19:45.540Z</time>
      </trkpt>
      <trkpt lat="45.79594" lon="6.73102">
        <ele>1592</ele>
        <time>2026-08-14T09:19:46.540Z</time>
      </trkpt>
      <trkpt lat="45.79596" lon="6.73102">
        <ele>1592</ele>
        <time>2026-08-14T09:19:47.540Z</time>
      </trkpt>
      <trkpt lat="45.79597" lon="6.73102">
        <ele>1592</ele>
        <time>2026-08-14T09:19:48.540Z</time>
      </trkpt>
      <trkpt lat="45.79598" lon="6.73101">
        <ele>1593</ele>
        <time>2026-08-14T09:19:49.540Z</time>
      </trkpt>
      <trkpt lat="45.79599" lon="6.73099">
        <ele>1593</ele>
        <time>2026-08-14T09:19:50.540Z</time>
      </trkpt>
      <trkpt lat="45.79601" lon="6.73097">
        <ele>1593</ele>
        <time>2026-08-14T09:19:51.540Z</time>
      </trkpt>
      <trkpt lat="45.79603" lon="6.73097">
        <ele>1594</ele>
        <time>2026-08-14T09:19:52.540Z</time>
      </trkpt>
      <trkpt lat="45.79604" lon="6.73097">
        <ele>1594</ele>
        <time>2026-08-14T09:19:53.540Z</time>
      </trkpt>
      <trkpt lat="45.79605" lon="6.73098">
        <ele>1594</ele>
        <time>2026-08-14T09:19:54.540Z</time>
      </trkpt>
      <trkpt lat="45.79607" lon="6.731">
        <ele>1593</ele>
        <time>2026-08-14T09:19:55.540Z</time>
      </trkpt>
      <trkpt lat="45.79608" lon="6.73101">
        <ele>1593</ele>
        <time>2026-08-14T09:19:56.540Z</time>
      </trkpt>
      <trkpt lat="45.7961" lon="6.73102">
        <ele>1593</ele>
        <time>2026-08-14T09:19:57.540Z</time>
      </trkpt>
      <trkpt lat="45.79612" lon="6.73102">
        <ele>1592</ele>
        <time>2026-08-14T09:19:58.540Z</time>
      </trkpt>
      <trkpt lat="45.79614" lon="6.73102">
        <ele>1592</ele>
        <time>2026-08-14T09:19:59.540Z</time>
      </trkpt>
      <trkpt lat="45.79615" lon="6.73102">
        <ele>1592</ele>
        <time>2026-08-14T09:20:00.540Z</time>
      </trkpt>
      <trkpt lat="45.79617" lon="6.73102">
        <ele>1592</ele>
        <time>2026-08-14T09:20:01.540Z</time>
      </trkpt>
      <trkpt lat="45.79618" lon="6.73102">
        <ele>1592</ele>
        <time>2026-08-14T09:20:02.540Z</time>
      </trkpt>
      <trkpt lat="45.7962" lon="6.73102">
        <ele>1592</ele>
        <time>2026-08-14T09:20:03.540Z</time>
      </trkpt>
      <trkpt lat="45.79621" lon="6.73102">
        <ele>1591</ele>
        <time>2026-08-14T09:20:04.540Z</time>
      </trkpt>
      <trkpt lat="45.79623" lon="6.73102">
        <ele>1591</ele>
        <time>2026-08-14T09:20:05.540Z</time>
      </trkpt>
      <trkpt lat="45.79624" lon="6.73102">
        <ele>1591</ele>
        <time>2026-08-14T09:20:06.540Z</time>
      </trkpt>
      <trkpt lat="45.79626" lon="6.73101">
        <ele>1591</ele>
        <time>2026-08-14T09:20:07.540Z</time>
      </trkpt>
      <trkpt lat="45.79628" lon="6.73101">
        <ele>1590</ele>
        <time>2026-08-14T09:20:08.540Z</time>
      </trkpt>
      <trkpt lat="45.79629" lon="6.73101">
        <ele>1590</ele>
        <time>2026-08-14T09:20:09.540Z</time>
      </trkpt>
      <trkpt lat="45.79631" lon="6.73102">
        <ele>1590</ele>
        <time>2026-08-14T09:20:10.540Z</time>
      </trkpt>
      <trkpt lat="45.79633" lon="6.73103">
        <ele>1589</ele>
        <time>2026-08-14T09:20:11.540Z</time>
      </trkpt>
      <trkpt lat="45.79634" lon="6.73103">
        <ele>1589</ele>
        <time>2026-08-14T09:20:12.540Z</time>
      </trkpt>
      <trkpt lat="45.79636" lon="6.73103">
        <ele>1589</ele>
        <time>2026-08-14T09:20:13.540Z</time>
      </trkpt>
      <trkpt lat="45.79638" lon="6.73103">
        <ele>1588</ele>
        <time>2026-08-14T09:20:14.540Z</time>
      </trkpt>
      <trkpt lat="45.7964" lon="6.73104">
        <ele>1587</ele>
        <time>2026-08-14T09:20:15.540Z</time>
      </trkpt>
      <trkpt lat="45.79642" lon="6.73106">
        <ele>1587</ele>
        <time>2026-08-14T09:20:16.540Z</time>
      </trkpt>
      <trkpt lat="45.79644" lon="6.73107">
        <ele>1586</ele>
        <time>2026-08-14T09:20:17.540Z</time>
      </trkpt>
      <trkpt lat="45.79647" lon="6.73108">
        <ele>1586</ele>
        <time>2026-08-14T09:20:18.540Z</time>
      </trkpt>
      <trkpt lat="45.79648" lon="6.73109">
        <ele>1585</ele>
        <time>2026-08-14T09:20:19.540Z</time>
      </trkpt>
      <trkpt lat="45.7965" lon="6.73109">
        <ele>1584</ele>
        <time>2026-08-14T09:20:20.540Z</time>
      </trkpt>
      <trkpt lat="45.79652" lon="6.7311">
        <ele>1584</ele>
        <time>2026-08-14T09:20:21.540Z</time>
      </trkpt>
      <trkpt lat="45.79654" lon="6.73111">
        <ele>1583</ele>
        <time>2026-08-14T09:20:22.540Z</time>
      </trkpt>
      <trkpt lat="45.79656" lon="6.73111">
        <ele>1583</ele>
        <time>2026-08-14T09:20:23.540Z</time>
      </trkpt>
      <trkpt lat="45.79658" lon="6.73112">
        <ele>1582</ele>
        <time>2026-08-14T09:20:24.540Z</time>
      </trkpt>
      <trkpt lat="45.7966" lon="6.73112">
        <ele>1581</ele>
        <time>2026-08-14T09:20:25.540Z</time>
      </trkpt>
      <trkpt lat="45.79662" lon="6.73113">
        <ele>1581</ele>
        <time>2026-08-14T09:20:26.540Z</time>
      </trkpt>
      <trkpt lat="45.79664" lon="6.73114">
        <ele>1580</ele>
        <time>2026-08-14T09:20:27.540Z</time>
      </trkpt>
      <trkpt lat="45.79666" lon="6.73114">
        <ele>1579</ele>
        <time>2026-08-14T09:20:28.540Z</time>
      </trkpt>
      <trkpt lat="45.79668" lon="6.73115">
        <ele>1579</ele>
        <time>2026-08-14T09:20:29.540Z</time>
      </trkpt>
      <trkpt lat="45.79671" lon="6.73116">
        <ele>1578</ele>
        <time>2026-08-14T09:20:30.540Z</time>
      </trkpt>
      <trkpt lat="45.79673" lon="6.73117">
        <ele>1577</ele>
        <time>2026-08-14T09:20:31.540Z</time>
      </trkpt>
      <trkpt lat="45.79675" lon="6.73117">
        <ele>1577</ele>
        <time>2026-08-14T09:20:32.540Z</time>
      </trkpt>
      <trkpt lat="45.79677" lon="6.73117">
        <ele>1577</ele>
        <time>2026-08-14T09:20:33.540Z</time>
      </trkpt>
      <trkpt lat="45.79678" lon="6.73118">
        <ele>1576</ele>
        <time>2026-08-14T09:20:34.540Z</time>
      </trkpt>
      <trkpt lat="45.79679" lon="6.73118">
        <ele>1576</ele>
        <time>2026-08-14T09:20:35.540Z</time>
      </trkpt>
      <trkpt lat="45.7968" lon="6.73118">
        <ele>1576</ele>
        <time>2026-08-14T09:20:36.540Z</time>
      </trkpt>
      <trkpt lat="45.7968" lon="6.73118">
        <ele>1575</ele>
        <time>2026-08-14T09:20:37.540Z</time>
      </trkpt>
      <trkpt lat="45.79681" lon="6.73118">
        <ele>1575</ele>
        <time>2026-08-14T09:20:38.540Z</time>
      </trkpt>
      <trkpt lat="45.79682" lon="6.73118">
        <ele>1575</ele>
        <time>2026-08-14T09:20:39.540Z</time>
      </trkpt>
      <trkpt lat="45.79682" lon="6.7312">
        <ele>1575</ele>
        <time>2026-08-14T09:20:40.540Z</time>
      </trkpt>
      <trkpt lat="45.79682" lon="6.7312">
        <ele>1575</ele>
        <time>2026-08-14T09:20:41.540Z</time>
      </trkpt>
      <trkpt lat="45.79683" lon="6.73119">
        <ele>1575</ele>
        <time>2026-08-14T09:20:42.540Z</time>
      </trkpt>
      <trkpt lat="45.79684" lon="6.7312">
        <ele>1575</ele>
        <time>2026-08-14T09:20:43.540Z</time>
      </trkpt>
      <trkpt lat="45.79685" lon="6.73121">
        <ele>1576</ele>
        <time>2026-08-14T09:20:44.540Z</time>
      </trkpt>
      <trkpt lat="45.79685" lon="6.73121">
        <ele>1576</ele>
        <time>2026-08-14T09:20:45.540Z</time>
      </trkpt>
      <trkpt lat="45.79686" lon="6.73121">
        <ele>1576</ele>
        <time>2026-08-14T09:20:46.540Z</time>
      </trkpt>
      <trkpt lat="45.79686" lon="6.73121">
        <ele>1576</ele>
        <time>2026-08-14T09:20:47.540Z</time>
      </trkpt>
      <trkpt lat="45.79687" lon="6.7312">
        <ele>1576</ele>
        <time>2026-08-14T09:20:48.540Z</time>
      </trkpt>
      <trkpt lat="45.79688" lon="6.7312">
        <ele>1576</ele>
        <time>2026-08-14T09:20:49.540Z</time>
      </trkpt>
      <trkpt lat="45.79689" lon="6.7312">
        <ele>1575</ele>
        <time>2026-08-14T09:20:50.540Z</time>
      </trkpt>
      <trkpt lat="45.79689" lon="6.7312">
        <ele>1575</ele>
        <time>2026-08-14T09:20:51.540Z</time>
      </trkpt>
      <trkpt lat="45.7969" lon="6.73118">
        <ele>1575</ele>
        <time>2026-08-14T09:20:52.540Z</time>
      </trkpt>
      <trkpt lat="45.79691" lon="6.73117">
        <ele>1575</ele>
        <time>2026-08-14T09:20:53.540Z</time>
      </trkpt>
      <trkpt lat="45.79692" lon="6.73116">
        <ele>1575</ele>
        <time>2026-08-14T09:20:54.540Z</time>
      </trkpt>
      <trkpt lat="45.79694" lon="6.73115">
        <ele>1575</ele>
        <time>2026-08-14T09:20:55.540Z</time>
      </trkpt>
      <trkpt lat="45.79695" lon="6.73114">
        <ele>1575</ele>
        <time>2026-08-14T09:20:56.540Z</time>
      </trkpt>
      <trkpt lat="45.79696" lon="6.73113">
        <ele>1575</ele>
        <time>2026-08-14T09:20:57.540Z</time>
      </trkpt>
      <trkpt lat="45.79698" lon="6.73113">
        <ele>1575</ele>
        <time>2026-08-14T09:20:58.540Z</time>
      </trkpt>
      <trkpt lat="45.797" lon="6.73114">
        <ele>1575</ele>
        <time>2026-08-14T09:20:59.540Z</time>
      </trkpt>
      <trkpt lat="45.79702" lon="6.73114">
        <ele>1575</ele>
        <time>2026-08-14T09:21:00.540Z</time>
      </trkpt>
      <trkpt lat="45.79704" lon="6.73115">
        <ele>1576</ele>
        <time>2026-08-14T09:21:01.540Z</time>
      </trkpt>
      <trkpt lat="45.79705" lon="6.73115">
        <ele>1576</ele>
        <time>2026-08-14T09:21:02.540Z</time>
      </trkpt>
      <trkpt lat="45.79707" lon="6.73117">
        <ele>1576</ele>
        <time>2026-08-14T09:21:03.540Z</time>
      </trkpt>
      <trkpt lat="45.79708" lon="6.73117">
        <ele>1576</ele>
        <time>2026-08-14T09:21:04.540Z</time>
      </trkpt>
      <trkpt lat="45.7971" lon="6.73118">
        <ele>1575</ele>
        <time>2026-08-14T09:21:05.540Z</time>
      </trkpt>
      <trkpt lat="45.79711" lon="6.73118">
        <ele>1575</ele>
        <time>2026-08-14T09:21:06.540Z</time>
      </trkpt>
      <trkpt lat="45.79713" lon="6.73118">
        <ele>1575</ele>
        <time>2026-08-14T09:21:07.540Z</time>
      </trkpt>
      <trkpt lat="45.79714" lon="6.73118">
        <ele>1575</ele>
        <time>2026-08-14T09:21:08.540Z</time>
      </trkpt>
      <trkpt lat="45.79715" lon="6.73119">
        <ele>1574</ele>
        <time>2026-08-14T09:21:09.540Z</time>
      </trkpt>
      <trkpt lat="45.79716" lon="6.7312">
        <ele>1574</ele>
        <time>2026-08-14T09:21:10.540Z</time>
      </trkpt>
      <trkpt lat="45.79716" lon="6.7312">
        <ele>1573</ele>
        <time>2026-08-14T09:21:11.540Z</time>
      </trkpt>
      <trkpt lat="45.79715" lon="6.7312">
        <ele>1573</ele>
        <time>2026-08-14T09:21:12.540Z</time>
      </trkpt>
      <trkpt lat="45.79715" lon="6.73121">
        <ele>1573</ele>
        <time>2026-08-14T09:21:13.540Z</time>
      </trkpt>
      <trkpt lat="45.79714" lon="6.73121">
        <ele>1572</ele>
        <time>2026-08-14T09:21:14.540Z</time>
      </trkpt>
      <trkpt lat="45.79714" lon="6.73121">
        <ele>1572</ele>
        <time>2026-08-14T09:21:15.540Z</time>
      </trkpt>
      <trkpt lat="45.79714" lon="6.73121">
        <ele>1572</ele>
        <time>2026-08-14T09:21:16.540Z</time>
      </trkpt>
      <trkpt lat="45.79713" lon="6.7312">
        <ele>1572</ele>
        <time>2026-08-14T09:21:17.540Z</time>
      </trkpt>
      <trkpt lat="45.79713" lon="6.7312">
        <ele>1572</ele>
        <time>2026-08-14T09:21:18.540Z</time>
      </trkpt>
      <trkpt lat="45.79714" lon="6.73118">
        <ele>1572</ele>
        <time>2026-08-14T09:21:19.540Z</time>
      </trkpt>
      <trkpt lat="45.79715" lon="6.73118">
        <ele>1571</ele>
        <time>2026-08-14T09:21:20.540Z</time>
      </trkpt>
      <trkpt lat="45.79715" lon="6.73117">
        <ele>1571</ele>
        <time>2026-08-14T09:21:21.540Z</time>
      </trkpt>
      <trkpt lat="45.79716" lon="6.73116">
        <ele>1571</ele>
        <time>2026-08-14T09:21:22.540Z</time>
      </trkpt>
      <trkpt lat="45.79718" lon="6.73116">
        <ele>1571</ele>
        <time>2026-08-14T09:21:23.540Z</time>
      </trkpt>
      <trkpt lat="45.79719" lon="6.73115">
        <ele>1570</ele>
        <time>2026-08-14T09:21:24.540Z</time>
      </trkpt>
      <trkpt lat="45.7972" lon="6.73115">
        <ele>1570</ele>
        <time>2026-08-14T09:21:25.540Z</time>
      </trkpt>
      <trkpt lat="45.79721" lon="6.73115">
        <ele>1570</ele>
        <time>2026-08-14T09:21:26.540Z</time>
      </trkpt>
      <trkpt lat="45.79722" lon="6.73114">
        <ele>1570</ele>
        <time>2026-08-14T09:21:27.540Z</time>
      </trkpt>
      <trkpt lat="45.79723" lon="6.73114">
        <ele>1569</ele>
        <time>2026-08-14T09:21:28.540Z</time>
      </trkpt>
      <trkpt lat="45.79723" lon="6.73114">
        <ele>1569</ele>
        <time>2026-08-14T09:21:29.540Z</time>
      </trkpt>
      <trkpt lat="45.79723" lon="6.73114">
        <ele>1569</ele>
        <time>2026-08-14T09:21:30.540Z</time>
      </trkpt>
      <trkpt lat="45.79723" lon="6.73113">
        <ele>1569</ele>
        <time>2026-08-14T09:21:31.540Z</time>
      </trkpt>
      <trkpt lat="45.79723" lon="6.73112">
        <ele>1569</ele>
        <time>2026-08-14T09:21:32.540Z</time>
      </trkpt>
      <trkpt lat="45.79723" lon="6.73111">
        <ele>1569</ele>
        <time>2026-08-14T09:21:33.540Z</time>
      </trkpt>
      <trkpt lat="45.79724" lon="6.7311">
        <ele>1569</ele>
        <time>2026-08-14T09:21:34.540Z</time>
      </trkpt>
      <trkpt lat="45.79726" lon="6.73109">
        <ele>1568</ele>
        <time>2026-08-14T09:21:35.540Z</time>
      </trkpt>
      <trkpt lat="45.79728" lon="6.73108">
        <ele>1568</ele>
        <time>2026-08-14T09:21:36.540Z</time>
      </trkpt>
      <trkpt lat="45.7973" lon="6.73106">
        <ele>1568</ele>
        <time>2026-08-14T09:21:37.540Z</time>
      </trkpt>
      <trkpt lat="45.79731" lon="6.73104">
        <ele>1568</ele>
        <time>2026-08-14T09:21:38.540Z</time>
      </trkpt>
      <trkpt lat="45.79733" lon="6.73102">
        <ele>1567</ele>
        <time>2026-08-14T09:21:39.540Z</time>
      </trkpt>
      <trkpt lat="45.79734" lon="6.731">
        <ele>1567</ele>
        <time>2026-08-14T09:21:40.540Z</time>
      </trkpt>
      <trkpt lat="45.79735" lon="6.73099">
        <ele>1567</ele>
        <time>2026-08-14T09:21:41.540Z</time>
      </trkpt>
      <trkpt lat="45.79737" lon="6.73098">
        <ele>1566</ele>
        <time>2026-08-14T09:21:42.540Z</time>
      </trkpt>
      <trkpt lat="45.79738" lon="6.73096">
        <ele>1566</ele>
        <time>2026-08-14T09:21:43.540Z</time>
      </trkpt>
      <trkpt lat="45.79739" lon="6.73095">
        <ele>1566</ele>
        <time>2026-08-14T09:21:44.540Z</time>
      </trkpt>
      <trkpt lat="45.7974" lon="6.73095">
        <ele>1566</ele>
        <time>2026-08-14T09:21:45.540Z</time>
      </trkpt>
      <trkpt lat="45.79741" lon="6.73095">
        <ele>1566</ele>
        <time>2026-08-14T09:21:46.540Z</time>
      </trkpt>
      <trkpt lat="45.79741" lon="6.73095">
        <ele>1565</ele>
        <time>2026-08-14T09:21:47.540Z</time>
      </trkpt>
      <trkpt lat="45.79741" lon="6.73095">
        <ele>1565</ele>
        <time>2026-08-14T09:21:48.540Z</time>
      </trkpt>
      <trkpt lat="45.79741" lon="6.73095">
        <ele>1565</ele>
        <time>2026-08-14T09:21:49.540Z</time>
      </trkpt>
      <trkpt lat="45.79742" lon="6.73095">
        <ele>1565</ele>
        <time>2026-08-14T09:21:50.540Z</time>
      </trkpt>
      <trkpt lat="45.79743" lon="6.73095">
        <ele>1565</ele>
        <time>2026-08-14T09:21:51.540Z</time>
      </trkpt>
      <trkpt lat="45.79744" lon="6.73094">
        <ele>1565</ele>
        <time>2026-08-14T09:21:52.540Z</time>
      </trkpt>
      <trkpt lat="45.79746" lon="6.73095">
        <ele>1565</ele>
        <time>2026-08-14T09:21:53.540Z</time>
      </trkpt>
      <trkpt lat="45.79747" lon="6.73095">
        <ele>1564</ele>
        <time>2026-08-14T09:21:54.540Z</time>
      </trkpt>
      <trkpt lat="45.79748" lon="6.73096">
        <ele>1564</ele>
        <time>2026-08-14T09:21:55.540Z</time>
      </trkpt>
      <trkpt lat="45.7975" lon="6.73096">
        <ele>1564</ele>
        <time>2026-08-14T09:21:56.540Z</time>
      </trkpt>
      <trkpt lat="45.79751" lon="6.73096">
        <ele>1563</ele>
        <time>2026-08-14T09:21:57.540Z</time>
      </trkpt>
      <trkpt lat="45.79752" lon="6.73096">
        <ele>1563</ele>
        <time>2026-08-14T09:21:58.540Z</time>
      </trkpt>
      <trkpt lat="45.79753" lon="6.73096">
        <ele>1563</ele>
        <time>2026-08-14T09:21:59.540Z</time>
      </trkpt>
      <trkpt lat="45.79753" lon="6.73096">
        <ele>1562</ele>
        <time>2026-08-14T09:22:00.540Z</time>
      </trkpt>
      <trkpt lat="45.79753" lon="6.73096">
        <ele>1562</ele>
        <time>2026-08-14T09:22:01.540Z</time>
      </trkpt>
      <trkpt lat="45.79754" lon="6.73096">
        <ele>1561</ele>
        <time>2026-08-14T09:22:02.540Z</time>
      </trkpt>
      <trkpt lat="45.79755" lon="6.73095">
        <ele>1561</ele>
        <time>2026-08-14T09:22:03.540Z</time>
      </trkpt>
      <trkpt lat="45.79756" lon="6.73094">
        <ele>1561</ele>
        <time>2026-08-14T09:22:04.540Z</time>
      </trkpt>
      <trkpt lat="45.79757" lon="6.73094">
        <ele>1560</ele>
        <time>2026-08-14T09:22:05.540Z</time>
      </trkpt>
      <trkpt lat="45.79758" lon="6.73094">
        <ele>1560</ele>
        <time>2026-08-14T09:22:06.540Z</time>
      </trkpt>
      <trkpt lat="45.79759" lon="6.73093">
        <ele>1560</ele>
        <time>2026-08-14T09:22:07.540Z</time>
      </trkpt>
      <trkpt lat="45.7976" lon="6.73092">
        <ele>1559</ele>
        <time>2026-08-14T09:22:08.540Z</time>
      </trkpt>
      <trkpt lat="45.79761" lon="6.73092">
        <ele>1559</ele>
        <time>2026-08-14T09:22:09.540Z</time>
      </trkpt>
      <trkpt lat="45.79762" lon="6.73091">
        <ele>1559</ele>
        <time>2026-08-14T09:22:10.540Z</time>
      </trkpt>
      <trkpt lat="45.79763" lon="6.7309">
        <ele>1558</ele>
        <time>2026-08-14T09:22:11.540Z</time>
      </trkpt>
      <trkpt lat="45.79764" lon="6.7309">
        <ele>1558</ele>
        <time>2026-08-14T09:22:12.540Z</time>
      </trkpt>
      <trkpt lat="45.79765" lon="6.73089">
        <ele>1557</ele>
        <time>2026-08-14T09:22:13.540Z</time>
      </trkpt>
      <trkpt lat="45.79765" lon="6.73089">
        <ele>1557</ele>
        <time>2026-08-14T09:22:14.540Z</time>
      </trkpt>
      <trkpt lat="45.79766" lon="6.73088">
        <ele>1557</ele>
        <time>2026-08-14T09:22:15.540Z</time>
      </trkpt>
      <trkpt lat="45.79766" lon="6.73086">
        <ele>1556</ele>
        <time>2026-08-14T09:22:16.540Z</time>
      </trkpt>
      <trkpt lat="45.79767" lon="6.73085">
        <ele>1556</ele>
        <time>2026-08-14T09:22:17.540Z</time>
      </trkpt>
      <trkpt lat="45.79768" lon="6.73084">
        <ele>1556</ele>
        <time>2026-08-14T09:22:18.540Z</time>
      </trkpt>
      <trkpt lat="45.79769" lon="6.73083">
        <ele>1556</ele>
        <time>2026-08-14T09:22:19.540Z</time>
      </trkpt>
      <trkpt lat="45.79771" lon="6.73083">
        <ele>1555</ele>
        <time>2026-08-14T09:22:20.540Z</time>
      </trkpt>
      <trkpt lat="45.79772" lon="6.73083">
        <ele>1555</ele>
        <time>2026-08-14T09:22:21.540Z</time>
      </trkpt>
      <trkpt lat="45.79774" lon="6.73083">
        <ele>1554</ele>
        <time>2026-08-14T09:22:22.540Z</time>
      </trkpt>
      <trkpt lat="45.79776" lon="6.73083">
        <ele>1554</ele>
        <time>2026-08-14T09:22:23.540Z</time>
      </trkpt>
      <trkpt lat="45.79777" lon="6.73083">
        <ele>1553</ele>
        <time>2026-08-14T09:22:24.540Z</time>
      </trkpt>
      <trkpt lat="45.79779" lon="6.73083">
        <ele>1553</ele>
        <time>2026-08-14T09:22:25.540Z</time>
      </trkpt>
      <trkpt lat="45.79781" lon="6.73084">
        <ele>1553</ele>
        <time>2026-08-14T09:22:26.540Z</time>
      </trkpt>
      <trkpt lat="45.79781" lon="6.73084">
        <ele>1554</ele>
        <time>2026-08-14T09:22:27.540Z</time>
      </trkpt>
      <trkpt lat="45.79782" lon="6.73084">
        <ele>1554</ele>
        <time>2026-08-14T09:22:28.540Z</time>
      </trkpt>
      <trkpt lat="45.79783" lon="6.73085">
        <ele>1554</ele>
        <time>2026-08-14T09:22:29.540Z</time>
      </trkpt>
      <trkpt lat="45.79783" lon="6.73085">
        <ele>1554</ele>
        <time>2026-08-14T09:22:30.540Z</time>
      </trkpt>
      <trkpt lat="45.79785" lon="6.73085">
        <ele>1554</ele>
        <time>2026-08-14T09:22:31.540Z</time>
      </trkpt>
      <trkpt lat="45.79785" lon="6.73085">
        <ele>1554</ele>
        <time>2026-08-14T09:22:32.540Z</time>
      </trkpt>
      <trkpt lat="45.79786" lon="6.73085">
        <ele>1554</ele>
        <time>2026-08-14T09:22:33.540Z</time>
      </trkpt>
      <trkpt lat="45.79786" lon="6.73085">
        <ele>1554</ele>
        <time>2026-08-14T09:22:34.540Z</time>
      </trkpt>
      <trkpt lat="45.79787" lon="6.73084">
        <ele>1554</ele>
        <time>2026-08-14T09:22:35.540Z</time>
      </trkpt>
      <trkpt lat="45.79789" lon="6.73084">
        <ele>1554</ele>
        <time>2026-08-14T09:22:36.540Z</time>
      </trkpt>
      <trkpt lat="45.7979" lon="6.73085">
        <ele>1554</ele>
        <time>2026-08-14T09:22:37.540Z</time>
      </trkpt>
      <trkpt lat="45.7979" lon="6.73086">
        <ele>1555</ele>
        <time>2026-08-14T09:22:38.540Z</time>
      </trkpt>
      <trkpt lat="45.79792" lon="6.73086">
        <ele>1555</ele>
        <time>2026-08-14T09:22:39.540Z</time>
      </trkpt>
      <trkpt lat="45.79793" lon="6.73086">
        <ele>1555</ele>
        <time>2026-08-14T09:22:40.540Z</time>
      </trkpt>
      <trkpt lat="45.79794" lon="6.73086">
        <ele>1555</ele>
        <time>2026-08-14T09:22:41.540Z</time>
      </trkpt>
      <trkpt lat="45.79795" lon="6.73085">
        <ele>1555</ele>
        <time>2026-08-14T09:22:42.540Z</time>
      </trkpt>
      <trkpt lat="45.79796" lon="6.73084">
        <ele>1555</ele>
        <time>2026-08-14T09:22:43.540Z</time>
      </trkpt>
      <trkpt lat="45.79798" lon="6.73083">
        <ele>1555</ele>
        <time>2026-08-14T09:22:44.540Z</time>
      </trkpt>
      <trkpt lat="45.79799" lon="6.73083">
        <ele>1555</ele>
        <time>2026-08-14T09:22:45.540Z</time>
      </trkpt>
      <trkpt lat="45.798" lon="6.73083">
        <ele>1554</ele>
        <time>2026-08-14T09:22:46.540Z</time>
      </trkpt>
      <trkpt lat="45.79801" lon="6.73083">
        <ele>1554</ele>
        <time>2026-08-14T09:22:47.540Z</time>
      </trkpt>
      <trkpt lat="45.79802" lon="6.73082">
        <ele>1554</ele>
        <time>2026-08-14T09:22:48.540Z</time>
      </trkpt>
      <trkpt lat="45.79803" lon="6.73081">
        <ele>1553</ele>
        <time>2026-08-14T09:22:49.540Z</time>
      </trkpt>
      <trkpt lat="45.79804" lon="6.73081">
        <ele>1553</ele>
        <time>2026-08-14T09:22:50.540Z</time>
      </trkpt>
      <trkpt lat="45.79806" lon="6.7308">
        <ele>1553</ele>
        <time>2026-08-14T09:22:51.540Z</time>
      </trkpt>
      <trkpt lat="45.79808" lon="6.73081">
        <ele>1553</ele>
        <time>2026-08-14T09:22:52.540Z</time>
      </trkpt>
      <trkpt lat="45.7981" lon="6.73082">
        <ele>1553</ele>
        <time>2026-08-14T09:22:53.540Z</time>
      </trkpt>
      <trkpt lat="45.79811" lon="6.73082">
        <ele>1553</ele>
        <time>2026-08-14T09:22:54.540Z</time>
      </trkpt>
      <trkpt lat="45.79813" lon="6.73082">
        <ele>1553</ele>
        <time>2026-08-14T09:22:55.540Z</time>
      </trkpt>
      <trkpt lat="45.79814" lon="6.73081">
        <ele>1553</ele>
        <time>2026-08-14T09:22:56.540Z</time>
      </trkpt>
      <trkpt lat="45.79816" lon="6.7308">
        <ele>1553</ele>
        <time>2026-08-14T09:22:57.540Z</time>
      </trkpt>
      <trkpt lat="45.79817" lon="6.73078">
        <ele>1553</ele>
        <time>2026-08-14T09:22:58.540Z</time>
      </trkpt>
      <trkpt lat="45.79819" lon="6.73076">
        <ele>1553</ele>
        <time>2026-08-14T09:22:59.540Z</time>
      </trkpt>
      <trkpt lat="45.7982" lon="6.73074">
        <ele>1553</ele>
        <time>2026-08-14T09:23:00.540Z</time>
      </trkpt>
      <trkpt lat="45.79822" lon="6.73072">
        <ele>1553</ele>
        <time>2026-08-14T09:23:01.540Z</time>
      </trkpt>
      <trkpt lat="45.79823" lon="6.73072">
        <ele>1553</ele>
        <time>2026-08-14T09:23:02.540Z</time>
      </trkpt>
      <trkpt lat="45.79825" lon="6.73072">
        <ele>1553</ele>
        <time>2026-08-14T09:23:03.540Z</time>
      </trkpt>
      <trkpt lat="45.79827" lon="6.73072">
        <ele>1553</ele>
        <time>2026-08-14T09:23:04.540Z</time>
      </trkpt>
      <trkpt lat="45.79828" lon="6.73072">
        <ele>1553</ele>
        <time>2026-08-14T09:23:05.540Z</time>
      </trkpt>
      <trkpt lat="45.79828" lon="6.73073">
        <ele>1553</ele>
        <time>2026-08-14T09:23:06.540Z</time>
      </trkpt>
      <trkpt lat="45.79829" lon="6.73073">
        <ele>1553</ele>
        <time>2026-08-14T09:23:07.540Z</time>
      </trkpt>
      <trkpt lat="45.7983" lon="6.73073">
        <ele>1553</ele>
        <time>2026-08-14T09:23:08.540Z</time>
      </trkpt>
      <trkpt lat="45.79831" lon="6.73075">
        <ele>1553</ele>
        <time>2026-08-14T09:23:09.540Z</time>
      </trkpt>
      <trkpt lat="45.79833" lon="6.73076">
        <ele>1553</ele>
        <time>2026-08-14T09:23:10.540Z</time>
      </trkpt>
      <trkpt lat="45.79835" lon="6.73078">
        <ele>1553</ele>
        <time>2026-08-14T09:23:11.540Z</time>
      </trkpt>
      <trkpt lat="45.79836" lon="6.73079">
        <ele>1553</ele>
        <time>2026-08-14T09:23:12.540Z</time>
      </trkpt>
      <trkpt lat="45.79838" lon="6.73079">
        <ele>1553</ele>
        <time>2026-08-14T09:23:13.540Z</time>
      </trkpt>
      <trkpt lat="45.79839" lon="6.73078">
        <ele>1553</ele>
        <time>2026-08-14T09:23:14.540Z</time>
      </trkpt>
      <trkpt lat="45.79841" lon="6.73079">
        <ele>1553</ele>
        <time>2026-08-14T09:23:15.540Z</time>
      </trkpt>
      <trkpt lat="45.79842" lon="6.73079">
        <ele>1553</ele>
        <time>2026-08-14T09:23:16.540Z</time>
      </trkpt>
      <trkpt lat="45.79843" lon="6.73079">
        <ele>1553</ele>
        <time>2026-08-14T09:23:17.540Z</time>
      </trkpt>
      <trkpt lat="45.79845" lon="6.7308">
        <ele>1553</ele>
        <time>2026-08-14T09:23:18.540Z</time>
      </trkpt>
      <trkpt lat="45.79847" lon="6.7308">
        <ele>1553</ele>
        <time>2026-08-14T09:23:19.540Z</time>
      </trkpt>
      <trkpt lat="45.79848" lon="6.7308">
        <ele>1553</ele>
        <time>2026-08-14T09:23:20.540Z</time>
      </trkpt>
      <trkpt lat="45.7985" lon="6.7308">
        <ele>1553</ele>
        <time>2026-08-14T09:23:21.540Z</time>
      </trkpt>
      <trkpt lat="45.79851" lon="6.7308">
        <ele>1553</ele>
        <time>2026-08-14T09:23:22.540Z</time>
      </trkpt>
      <trkpt lat="45.79853" lon="6.73081">
        <ele>1553</ele>
        <time>2026-08-14T09:23:23.540Z</time>
      </trkpt>
      <trkpt lat="45.79855" lon="6.73081">
        <ele>1553</ele>
        <time>2026-08-14T09:23:24.540Z</time>
      </trkpt>
      <trkpt lat="45.79856" lon="6.73081">
        <ele>1553</ele>
        <time>2026-08-14T09:23:25.540Z</time>
      </trkpt>
      <trkpt lat="45.79857" lon="6.73081">
        <ele>1553</ele>
        <time>2026-08-14T09:23:26.540Z</time>
      </trkpt>
      <trkpt lat="45.79858" lon="6.73081">
        <ele>1553</ele>
        <time>2026-08-14T09:23:27.540Z</time>
      </trkpt>
      <trkpt lat="45.7986" lon="6.73082">
        <ele>1553</ele>
        <time>2026-08-14T09:23:28.540Z</time>
      </trkpt>
      <trkpt lat="45.79861" lon="6.73082">
        <ele>1553</ele>
        <time>2026-08-14T09:23:29.540Z</time>
      </trkpt>
      <trkpt lat="45.79862" lon="6.73082">
        <ele>1553</ele>
        <time>2026-08-14T09:23:30.540Z</time>
      </trkpt>
      <trkpt lat="45.79864" lon="6.73083">
        <ele>1553</ele>
        <time>2026-08-14T09:23:31.540Z</time>
      </trkpt>
      <trkpt lat="45.79866" lon="6.73083">
        <ele>1552</ele>
        <time>2026-08-14T09:23:32.540Z</time>
      </trkpt>
      <trkpt lat="45.79867" lon="6.73083">
        <ele>1552</ele>
        <time>2026-08-14T09:23:33.540Z</time>
      </trkpt>
      <trkpt lat="45.79869" lon="6.73082">
        <ele>1552</ele>
        <time>2026-08-14T09:23:34.540Z</time>
      </trkpt>
      <trkpt lat="45.7987" lon="6.73081">
        <ele>1552</ele>
        <time>2026-08-14T09:23:35.540Z</time>
      </trkpt>
      <trkpt lat="45.79871" lon="6.73081">
        <ele>1551</ele>
        <time>2026-08-14T09:23:36.540Z</time>
      </trkpt>
      <trkpt lat="45.79873" lon="6.73081">
        <ele>1551</ele>
        <time>2026-08-14T09:23:37.540Z</time>
      </trkpt>
      <trkpt lat="45.79875" lon="6.73082">
        <ele>1550</ele>
        <time>2026-08-14T09:23:38.540Z</time>
      </trkpt>
      <trkpt lat="45.79877" lon="6.73083">
        <ele>1549</ele>
        <time>2026-08-14T09:23:39.540Z</time>
      </trkpt>
      <trkpt lat="45.79879" lon="6.73084">
        <ele>1549</ele>
        <time>2026-08-14T09:23:40.540Z</time>
      </trkpt>
      <trkpt lat="45.79881" lon="6.73085">
        <ele>1548</ele>
        <time>2026-08-14T09:23:41.540Z</time>
      </trkpt>
      <trkpt lat="45.79883" lon="6.73087">
        <ele>1548</ele>
        <time>2026-08-14T09:23:42.540Z</time>
      </trkpt>
      <trkpt lat="45.79885" lon="6.73088">
        <ele>1547</ele>
        <time>2026-08-14T09:23:43.540Z</time>
      </trkpt>
      <trkpt lat="45.79886" lon="6.73089">
        <ele>1547</ele>
        <time>2026-08-14T09:23:44.540Z</time>
      </trkpt>
      <trkpt lat="45.79888" lon="6.7309">
        <ele>1546</ele>
        <time>2026-08-14T09:23:45.540Z</time>
      </trkpt>
      <trkpt lat="45.79889" lon="6.73092">
        <ele>1546</ele>
        <time>2026-08-14T09:23:46.540Z</time>
      </trkpt>
      <trkpt lat="45.79891" lon="6.73093">
        <ele>1545</ele>
        <time>2026-08-14T09:23:47.540Z</time>
      </trkpt>
      <trkpt lat="45.79893" lon="6.73093">
        <ele>1545</ele>
        <time>2026-08-14T09:23:48.540Z</time>
      </trkpt>
      <trkpt lat="45.79895" lon="6.73093">
        <ele>1545</ele>
        <time>2026-08-14T09:23:49.540Z</time>
      </trkpt>
      <trkpt lat="45.79897" lon="6.73094">
        <ele>1544</ele>
        <time>2026-08-14T09:23:50.540Z</time>
      </trkpt>
      <trkpt lat="45.79899" lon="6.73095">
        <ele>1544</ele>
        <time>2026-08-14T09:23:51.540Z</time>
      </trkpt>
      <trkpt lat="45.79901" lon="6.73097">
        <ele>1544</ele>
        <time>2026-08-14T09:23:52.540Z</time>
      </trkpt>
      <trkpt lat="45.79902" lon="6.73098">
        <ele>1543</ele>
        <time>2026-08-14T09:23:53.540Z</time>
      </trkpt>
      <trkpt lat="45.79904" lon="6.73098">
        <ele>1543</ele>
        <time>2026-08-14T09:23:54.540Z</time>
      </trkpt>
      <trkpt lat="45.79906" lon="6.731">
        <ele>1542</ele>
        <time>2026-08-14T09:23:55.540Z</time>
      </trkpt>
      <trkpt lat="45.79908" lon="6.73102">
        <ele>1542</ele>
        <time>2026-08-14T09:23:56.540Z</time>
      </trkpt>
      <trkpt lat="45.7991" lon="6.73103">
        <ele>1542</ele>
        <time>2026-08-14T09:23:57.540Z</time>
      </trkpt>
      <trkpt lat="45.79911" lon="6.73104">
        <ele>1541</ele>
        <time>2026-08-14T09:23:58.540Z</time>
      </trkpt>
      <trkpt lat="45.79913" lon="6.73105">
        <ele>1541</ele>
        <time>2026-08-14T09:23:59.540Z</time>
      </trkpt>
      <trkpt lat="45.79914" lon="6.73107">
        <ele>1540</ele>
        <time>2026-08-14T09:24:00.540Z</time>
      </trkpt>
      <trkpt lat="45.79916" lon="6.73108">
        <ele>1540</ele>
        <time>2026-08-14T09:24:01.540Z</time>
      </trkpt>
      <trkpt lat="45.79917" lon="6.7311">
        <ele>1539</ele>
        <time>2026-08-14T09:24:02.540Z</time>
      </trkpt>
      <trkpt lat="45.79919" lon="6.73112">
        <ele>1539</ele>
        <time>2026-08-14T09:24:03.540Z</time>
      </trkpt>
      <trkpt lat="45.79921" lon="6.73114">
        <ele>1538</ele>
        <time>2026-08-14T09:24:04.540Z</time>
      </trkpt>
      <trkpt lat="45.79922" lon="6.73115">
        <ele>1538</ele>
        <time>2026-08-14T09:24:05.540Z</time>
      </trkpt>
      <trkpt lat="45.79924" lon="6.73115">
        <ele>1538</ele>
        <time>2026-08-14T09:24:06.540Z</time>
      </trkpt>
      <trkpt lat="45.79926" lon="6.73116">
        <ele>1538</ele>
        <time>2026-08-14T09:24:07.540Z</time>
      </trkpt>
      <trkpt lat="45.79928" lon="6.73117">
        <ele>1538</ele>
        <time>2026-08-14T09:24:08.540Z</time>
      </trkpt>
      <trkpt lat="45.7993" lon="6.73118">
        <ele>1538</ele>
        <time>2026-08-14T09:24:09.540Z</time>
      </trkpt>
      <trkpt lat="45.79931" lon="6.73119">
        <ele>1538</ele>
        <time>2026-08-14T09:24:10.540Z</time>
      </trkpt>
      <trkpt lat="45.79933" lon="6.73119">
        <ele>1538</ele>
        <time>2026-08-14T09:24:11.540Z</time>
      </trkpt>
      <trkpt lat="45.79934" lon="6.73119">
        <ele>1538</ele>
        <time>2026-08-14T09:24:12.540Z</time>
      </trkpt>
      <trkpt lat="45.79936" lon="6.7312">
        <ele>1539</ele>
        <time>2026-08-14T09:24:13.540Z</time>
      </trkpt>
      <trkpt lat="45.79937" lon="6.7312">
        <ele>1539</ele>
        <time>2026-08-14T09:24:14.540Z</time>
      </trkpt>
      <trkpt lat="45.79939" lon="6.73121">
        <ele>1539</ele>
        <time>2026-08-14T09:24:15.540Z</time>
      </trkpt>
      <trkpt lat="45.79941" lon="6.73122">
        <ele>1539</ele>
        <time>2026-08-14T09:24:16.540Z</time>
      </trkpt>
      <trkpt lat="45.79943" lon="6.73123">
        <ele>1539</ele>
        <time>2026-08-14T09:24:17.540Z</time>
      </trkpt>
      <trkpt lat="45.79946" lon="6.73123">
        <ele>1539</ele>
        <time>2026-08-14T09:24:18.540Z</time>
      </trkpt>
      <trkpt lat="45.79949" lon="6.73124">
        <ele>1539</ele>
        <time>2026-08-14T09:24:19.540Z</time>
      </trkpt>
      <trkpt lat="45.79951" lon="6.73125">
        <ele>1539</ele>
        <time>2026-08-14T09:24:20.540Z</time>
      </trkpt>
      <trkpt lat="45.79953" lon="6.73125">
        <ele>1538</ele>
        <time>2026-08-14T09:24:21.540Z</time>
      </trkpt>
      <trkpt lat="45.79955" lon="6.73125">
        <ele>1538</ele>
        <time>2026-08-14T09:24:22.540Z</time>
      </trkpt>
      <trkpt lat="45.79956" lon="6.73126">
        <ele>1538</ele>
        <time>2026-08-14T09:24:23.540Z</time>
      </trkpt>
      <trkpt lat="45.79957" lon="6.73126">
        <ele>1538</ele>
        <time>2026-08-14T09:24:24.540Z</time>
      </trkpt>
      <trkpt lat="45.79959" lon="6.73126">
        <ele>1537</ele>
        <time>2026-08-14T09:24:25.540Z</time>
      </trkpt>
      <trkpt lat="45.7996" lon="6.73126">
        <ele>1537</ele>
        <time>2026-08-14T09:24:26.540Z</time>
      </trkpt>
      <trkpt lat="45.79961" lon="6.73126">
        <ele>1537</ele>
        <time>2026-08-14T09:24:27.540Z</time>
      </trkpt>
      <trkpt lat="45.79963" lon="6.73126">
        <ele>1536</ele>
        <time>2026-08-14T09:24:28.540Z</time>
      </trkpt>
      <trkpt lat="45.79964" lon="6.73126">
        <ele>1536</ele>
        <time>2026-08-14T09:24:29.540Z</time>
      </trkpt>
      <trkpt lat="45.79965" lon="6.73126">
        <ele>1536</ele>
        <time>2026-08-14T09:24:30.540Z</time>
      </trkpt>
      <trkpt lat="45.79967" lon="6.73127">
        <ele>1535</ele>
        <time>2026-08-14T09:24:31.540Z</time>
      </trkpt>
      <trkpt lat="45.79968" lon="6.73127">
        <ele>1535</ele>
        <time>2026-08-14T09:24:32.540Z</time>
      </trkpt>
      <trkpt lat="45.7997" lon="6.73129">
        <ele>1535</ele>
        <time>2026-08-14T09:24:33.540Z</time>
      </trkpt>
      <trkpt lat="45.79972" lon="6.73129">
        <ele>1534</ele>
        <time>2026-08-14T09:24:34.540Z</time>
      </trkpt>
      <trkpt lat="45.79974" lon="6.7313">
        <ele>1534</ele>
        <time>2026-08-14T09:24:35.540Z</time>
      </trkpt>
      <trkpt lat="45.79975" lon="6.7313">
        <ele>1533</ele>
        <time>2026-08-14T09:24:36.540Z</time>
      </trkpt>
      <trkpt lat="45.79977" lon="6.7313">
        <ele>1533</ele>
        <time>2026-08-14T09:24:37.540Z</time>
      </trkpt>
      <trkpt lat="45.79979" lon="6.7313">
        <ele>1533</ele>
        <time>2026-08-14T09:24:38.540Z</time>
      </trkpt>
      <trkpt lat="45.7998" lon="6.7313">
        <ele>1532</ele>
        <time>2026-08-14T09:24:39.540Z</time>
      </trkpt>
      <trkpt lat="45.79982" lon="6.7313">
        <ele>1531</ele>
        <time>2026-08-14T09:24:40.540Z</time>
      </trkpt>
      <trkpt lat="45.79984" lon="6.7313">
        <ele>1531</ele>
        <time>2026-08-14T09:24:41.540Z</time>
      </trkpt>
      <trkpt lat="45.79985" lon="6.73131">
        <ele>1531</ele>
        <time>2026-08-14T09:24:42.540Z</time>
      </trkpt>
      <trkpt lat="45.79987" lon="6.73131">
        <ele>1530</ele>
        <time>2026-08-14T09:24:43.540Z</time>
      </trkpt>
      <trkpt lat="45.79988" lon="6.73131">
        <ele>1530</ele>
        <time>2026-08-14T09:24:44.540Z</time>
      </trkpt>
      <trkpt lat="45.79989" lon="6.7313">
        <ele>1530</ele>
        <time>2026-08-14T09:24:45.540Z</time>
      </trkpt>
      <trkpt lat="45.79991" lon="6.7313">
        <ele>1530</ele>
        <time>2026-08-14T09:24:46.540Z</time>
      </trkpt>
      <trkpt lat="45.79993" lon="6.7313">
        <ele>1530</ele>
        <time>2026-08-14T09:24:47.540Z</time>
      </trkpt>
      <trkpt lat="45.79994" lon="6.7313">
        <ele>1529</ele>
        <time>2026-08-14T09:24:48.540Z</time>
      </trkpt>
      <trkpt lat="45.79996" lon="6.73131">
        <ele>1529</ele>
        <time>2026-08-14T09:24:49.540Z</time>
      </trkpt>
      <trkpt lat="45.79997" lon="6.73131">
        <ele>1529</ele>
        <time>2026-08-14T09:24:50.540Z</time>
      </trkpt>
      <trkpt lat="45.79998" lon="6.73131">
        <ele>1529</ele>
        <time>2026-08-14T09:24:51.540Z</time>
      </trkpt>
      <trkpt lat="45.79999" lon="6.73132">
        <ele>1529</ele>
        <time>2026-08-14T09:24:52.540Z</time>
      </trkpt>
      <trkpt lat="45.80001" lon="6.73132">
        <ele>1528</ele>
        <time>2026-08-14T09:24:53.540Z</time>
      </trkpt>
      <trkpt lat="45.80003" lon="6.73133">
        <ele>1528</ele>
        <time>2026-08-14T09:24:54.540Z</time>
      </trkpt>
      <trkpt lat="45.80004" lon="6.73134">
        <ele>1527</ele>
        <time>2026-08-14T09:24:55.540Z</time>
      </trkpt>
      <trkpt lat="45.80006" lon="6.73134">
        <ele>1527</ele>
        <time>2026-08-14T09:24:56.540Z</time>
      </trkpt>
      <trkpt lat="45.80007" lon="6.73134">
        <ele>1527</ele>
        <time>2026-08-14T09:24:57.540Z</time>
      </trkpt>
      <trkpt lat="45.80009" lon="6.73135">
        <ele>1527</ele>
        <time>2026-08-14T09:24:58.540Z</time>
      </trkpt>
      <trkpt lat="45.80011" lon="6.73135">
        <ele>1527</ele>
        <time>2026-08-14T09:24:59.540Z</time>
      </trkpt>
      <trkpt lat="45.80012" lon="6.73136">
        <ele>1527</ele>
        <time>2026-08-14T09:25:00.540Z</time>
      </trkpt>
      <trkpt lat="45.80014" lon="6.73136">
        <ele>1527</ele>
        <time>2026-08-14T09:25:01.540Z</time>
      </trkpt>
      <trkpt lat="45.80015" lon="6.73136">
        <ele>1527</ele>
        <time>2026-08-14T09:25:02.540Z</time>
      </trkpt>
      <trkpt lat="45.80017" lon="6.73136">
        <ele>1527</ele>
        <time>2026-08-14T09:25:03.540Z</time>
      </trkpt>
      <trkpt lat="45.80018" lon="6.73136">
        <ele>1527</ele>
        <time>2026-08-14T09:25:04.540Z</time>
      </trkpt>
      <trkpt lat="45.80019" lon="6.73135">
        <ele>1528</ele>
        <time>2026-08-14T09:25:05.540Z</time>
      </trkpt>
      <trkpt lat="45.8002" lon="6.73135">
        <ele>1528</ele>
        <time>2026-08-14T09:25:06.540Z</time>
      </trkpt>
      <trkpt lat="45.80021" lon="6.73135">
        <ele>1528</ele>
        <time>2026-08-14T09:25:07.540Z</time>
      </trkpt>
      <trkpt lat="45.80023" lon="6.73135">
        <ele>1528</ele>
        <time>2026-08-14T09:25:08.540Z</time>
      </trkpt>
      <trkpt lat="45.80025" lon="6.73136">
        <ele>1528</ele>
        <time>2026-08-14T09:25:09.540Z</time>
      </trkpt>
      <trkpt lat="45.80027" lon="6.73137">
        <ele>1528</ele>
        <time>2026-08-14T09:25:10.540Z</time>
      </trkpt>
      <trkpt lat="45.80029" lon="6.73138">
        <ele>1528</ele>
        <time>2026-08-14T09:25:11.540Z</time>
      </trkpt>
      <trkpt lat="45.80031" lon="6.73137">
        <ele>1528</ele>
        <time>2026-08-14T09:25:12.540Z</time>
      </trkpt>
      <trkpt lat="45.80033" lon="6.73137">
        <ele>1527</ele>
        <time>2026-08-14T09:25:13.540Z</time>
      </trkpt>
      <trkpt lat="45.80035" lon="6.73137">
        <ele>1527</ele>
        <time>2026-08-14T09:25:14.540Z</time>
      </trkpt>
      <trkpt lat="45.80037" lon="6.73136">
        <ele>1527</ele>
        <time>2026-08-14T09:25:15.540Z</time>
      </trkpt>
      <trkpt lat="45.80039" lon="6.73136">
        <ele>1527</ele>
        <time>2026-08-14T09:25:16.540Z</time>
      </trkpt>
      <trkpt lat="45.8004" lon="6.73136">
        <ele>1527</ele>
        <time>2026-08-14T09:25:17.540Z</time>
      </trkpt>
      <trkpt lat="45.80041" lon="6.73136">
        <ele>1526</ele>
        <time>2026-08-14T09:25:18.540Z</time>
      </trkpt>
      <trkpt lat="45.80042" lon="6.73136">
        <ele>1526</ele>
        <time>2026-08-14T09:25:19.540Z</time>
      </trkpt>
      <trkpt lat="45.80043" lon="6.73136">
        <ele>1527</ele>
        <time>2026-08-14T09:25:20.540Z</time>
      </trkpt>
      <trkpt lat="45.80043" lon="6.73136">
        <ele>1527</ele>
        <time>2026-08-14T09:25:21.540Z</time>
      </trkpt>
      <trkpt lat="45.80044" lon="6.73136">
        <ele>1527</ele>
        <time>2026-08-14T09:25:22.540Z</time>
      </trkpt>
      <trkpt lat="45.80045" lon="6.73135">
        <ele>1528</ele>
        <time>2026-08-14T09:25:23.540Z</time>
      </trkpt>
      <trkpt lat="45.80046" lon="6.73135">
        <ele>1528</ele>
        <time>2026-08-14T09:25:24.540Z</time>
      </trkpt>
      <trkpt lat="45.80046" lon="6.73134">
        <ele>1529</ele>
        <time>2026-08-14T09:25:25.540Z</time>
      </trkpt>
      <trkpt lat="45.80047" lon="6.73134">
        <ele>1529</ele>
        <time>2026-08-14T09:25:26.540Z</time>
      </trkpt>
      <trkpt lat="45.80048" lon="6.73133">
        <ele>1529</ele>
        <time>2026-08-14T09:25:27.540Z</time>
      </trkpt>
      <trkpt lat="45.80049" lon="6.73132">
        <ele>1530</ele>
        <time>2026-08-14T09:25:28.540Z</time>
      </trkpt>
      <trkpt lat="45.8005" lon="6.73132">
        <ele>1530</ele>
        <time>2026-08-14T09:25:29.540Z</time>
      </trkpt>
      <trkpt lat="45.80051" lon="6.73132">
        <ele>1531</ele>
        <time>2026-08-14T09:25:30.540Z</time>
      </trkpt>
      <trkpt lat="45.80051" lon="6.73133">
        <ele>1531</ele>
        <time>2026-08-14T09:25:31.540Z</time>
      </trkpt>
      <trkpt lat="45.80052" lon="6.73133">
        <ele>1531</ele>
        <time>2026-08-14T09:25:32.540Z</time>
      </trkpt>
      <trkpt lat="45.80052" lon="6.73133">
        <ele>1532</ele>
        <time>2026-08-14T09:25:33.540Z</time>
      </trkpt>
      <trkpt lat="45.80052" lon="6.73132">
        <ele>1532</ele>
        <time>2026-08-14T09:25:34.540Z</time>
      </trkpt>
      <trkpt lat="45.80052" lon="6.7313">
        <ele>1532</ele>
        <time>2026-08-14T09:25:35.540Z</time>
      </trkpt>
      <trkpt lat="45.80052" lon="6.73129">
        <ele>1532</ele>
        <time>2026-08-14T09:25:36.540Z</time>
      </trkpt>
      <trkpt lat="45.80052" lon="6.73129">
        <ele>1532</ele>
        <time>2026-08-14T09:25:37.540Z</time>
      </trkpt>
      <trkpt lat="45.80052" lon="6.73129">
        <ele>1532</ele>
        <time>2026-08-14T09:25:38.540Z</time>
      </trkpt>
      <trkpt lat="45.80053" lon="6.73129">
        <ele>1532</ele>
        <time>2026-08-14T09:25:39.540Z</time>
      </trkpt>
      <trkpt lat="45.80053" lon="6.73129">
        <ele>1532</ele>
        <time>2026-08-14T09:25:40.540Z</time>
      </trkpt>
      <trkpt lat="45.80053" lon="6.73129">
        <ele>1532</ele>
        <time>2026-08-14T09:25:41.540Z</time>
      </trkpt>
      <trkpt lat="45.80053" lon="6.73129">
        <ele>1532</ele>
        <time>2026-08-14T09:25:42.540Z</time>
      </trkpt>
      <trkpt lat="45.80053" lon="6.73129">
        <ele>1532</ele>
        <time>2026-08-14T09:25:43.540Z</time>
      </trkpt>
      <trkpt lat="45.80053" lon="6.73129">
        <ele>1532</ele>
        <time>2026-08-14T09:25:44.540Z</time>
      </trkpt>
      <trkpt lat="45.80053" lon="6.73128">
        <ele>1532</ele>
        <time>2026-08-14T09:25:45.540Z</time>
      </trkpt>
      <trkpt lat="45.80053" lon="6.73128">
        <ele>1532</ele>
        <time>2026-08-14T09:25:46.540Z</time>
      </trkpt>
      <trkpt lat="45.80053" lon="6.73128">
        <ele>1531</ele>
        <time>2026-08-14T09:25:47.540Z</time>
      </trkpt>
      <trkpt lat="45.80053" lon="6.73128">
        <ele>1531</ele>
        <time>2026-08-14T09:25:48.540Z</time>
      </trkpt>
      <trkpt lat="45.80053" lon="6.73128">
        <ele>1530</ele>
        <time>2026-08-14T09:25:49.540Z</time>
      </trkpt>
      <trkpt lat="45.80053" lon="6.73128">
        <ele>1529</ele>
        <time>2026-08-14T09:25:50.540Z</time>
      </trkpt>
      <trkpt lat="45.80053" lon="6.73128">
        <ele>1529</ele>
        <time>2026-08-14T09:25:51.540Z</time>
      </trkpt>
      <trkpt lat="45.80053" lon="6.73128">
        <ele>1528</ele>
        <time>2026-08-14T09:25:52.540Z</time>
      </trkpt>
      <trkpt lat="45.80053" lon="6.73128">
        <ele>1527</ele>
        <time>2026-08-14T09:25:53.540Z</time>
      </trkpt>
      <trkpt lat="45.80053" lon="6.73128">
        <ele>1527</ele>
        <time>2026-08-14T09:25:54.540Z</time>
      </trkpt>
      <trkpt lat="45.80053" lon="6.73128">
        <ele>1527</ele>
        <time>2026-08-14T09:25:55.540Z</time>
      </trkpt>
      <trkpt lat="45.80053" lon="6.73128">
        <ele>1526</ele>
        <time>2026-08-14T09:25:56.540Z</time>
      </trkpt>
      <trkpt lat="45.80053" lon="6.73128">
        <ele>1526</ele>
        <time>2026-08-14T09:25:57.540Z</time>
      </trkpt>
      <trkpt lat="45.80053" lon="6.73128">
        <ele>1525</ele>
        <time>2026-08-14T09:25:58.540Z</time>
      </trkpt>
      <trkpt lat="45.80053" lon="6.73128">
        <ele>1525</ele>
        <time>2026-08-14T09:25:59.540Z</time>
      </trkpt>
      <trkpt lat="45.80053" lon="6.73128">
        <ele>1525</ele>
        <time>2026-08-14T09:26:00.540Z</time>
      </trkpt>
      <trkpt lat="45.80053" lon="6.73128">
        <ele>1525</ele>
        <time>2026-08-14T09:26:01.540Z</time>
      </trkpt>
      <trkpt lat="45.80053" lon="6.73128">
        <ele>1524</ele>
        <time>2026-08-14T09:26:02.540Z</time>
      </trkpt>
      <trkpt lat="45.80053" lon="6.73128">
        <ele>1524</ele>
        <time>2026-08-14T09:26:03.540Z</time>
      </trkpt>
      <trkpt lat="45.80053" lon="6.73128">
        <ele>1524</ele>
        <time>2026-08-14T09:26:04.540Z</time>
      </trkpt>
      <trkpt lat="45.80053" lon="6.73128">
        <ele>1524</ele>
        <time>2026-08-14T09:26:05.540Z</time>
      </trkpt>
      <trkpt lat="45.80053" lon="6.73128">
        <ele>1524</ele>
        <time>2026-08-14T09:26:06.540Z</time>
      </trkpt>
      <trkpt lat="45.80053" lon="6.73128">
        <ele>1524</ele>
        <time>2026-08-14T09:26:07.540Z</time>
      </trkpt>
      <trkpt lat="45.80053" lon="6.73128">
        <ele>1524</ele>
        <time>2026-08-14T09:26:08.540Z</time>
      </trkpt>
      <trkpt lat="45.80053" lon="6.73128">
        <ele>1524</ele>
        <time>2026-08-14T09:26:09.540Z</time>
      </trkpt>
      <trkpt lat="45.80053" lon="6.73128">
        <ele>1523</ele>
        <time>2026-08-14T09:26:10.540Z</time>
      </trkpt>
      <trkpt lat="45.80054" lon="6.73128">
        <ele>1523</ele>
        <time>2026-08-14T09:26:11.540Z</time>
      </trkpt>
      <trkpt lat="45.80055" lon="6.73128">
        <ele>1523</ele>
        <time>2026-08-14T09:26:12.540Z</time>
      </trkpt>
      <trkpt lat="45.80056" lon="6.73129">
        <ele>1523</ele>
        <time>2026-08-14T09:26:13.540Z</time>
      </trkpt>
      <trkpt lat="45.80057" lon="6.73129">
        <ele>1523</ele>
        <time>2026-08-14T09:26:14.540Z</time>
      </trkpt>
      <trkpt lat="45.80058" lon="6.7313">
        <ele>1523</ele>
        <time>2026-08-14T09:26:15.540Z</time>
      </trkpt>
      <trkpt lat="45.80059" lon="6.73129">
        <ele>1523</ele>
        <time>2026-08-14T09:26:16.540Z</time>
      </trkpt>
      <trkpt lat="45.80061" lon="6.7313">
        <ele>1523</ele>
        <time>2026-08-14T09:26:17.540Z</time>
      </trkpt>
      <trkpt lat="45.80063" lon="6.7313">
        <ele>1523</ele>
        <time>2026-08-14T09:26:18.540Z</time>
      </trkpt>
      <trkpt lat="45.80064" lon="6.73131">
        <ele>1523</ele>
        <time>2026-08-14T09:26:19.540Z</time>
      </trkpt>
      <trkpt lat="45.80065" lon="6.73132">
        <ele>1524</ele>
        <time>2026-08-14T09:26:20.540Z</time>
      </trkpt>
      <trkpt lat="45.80066" lon="6.73133">
        <ele>1524</ele>
        <time>2026-08-14T09:26:21.540Z</time>
      </trkpt>
      <trkpt lat="45.80068" lon="6.73134">
        <ele>1523</ele>
        <time>2026-08-14T09:26:22.540Z</time>
      </trkpt>
      <trkpt lat="45.8007" lon="6.73136">
        <ele>1523</ele>
        <time>2026-08-14T09:26:23.540Z</time>
      </trkpt>
      <trkpt lat="45.80072" lon="6.73139">
        <ele>1523</ele>
        <time>2026-08-14T09:26:24.540Z</time>
      </trkpt>
      <trkpt lat="45.80075" lon="6.73142">
        <ele>1523</ele>
        <time>2026-08-14T09:26:25.540Z</time>
      </trkpt>
      <trkpt lat="45.80076" lon="6.73144">
        <ele>1523</ele>
        <time>2026-08-14T09:26:26.540Z</time>
      </trkpt>
      <trkpt lat="45.80078" lon="6.73145">
        <ele>1523</ele>
        <time>2026-08-14T09:26:27.540Z</time>
      </trkpt>
      <trkpt lat="45.80079" lon="6.73145">
        <ele>1523</ele>
        <time>2026-08-14T09:26:28.540Z</time>
      </trkpt>
      <trkpt lat="45.80081" lon="6.73146">
        <ele>1522</ele>
        <time>2026-08-14T09:26:29.540Z</time>
      </trkpt>
      <trkpt lat="45.80082" lon="6.73146">
        <ele>1522</ele>
        <time>2026-08-14T09:26:30.540Z</time>
      </trkpt>
      <trkpt lat="45.80083" lon="6.73146">
        <ele>1522</ele>
        <time>2026-08-14T09:26:31.540Z</time>
      </trkpt>
      <trkpt lat="45.80084" lon="6.73146">
        <ele>1522</ele>
        <time>2026-08-14T09:26:32.540Z</time>
      </trkpt>
      <trkpt lat="45.80086" lon="6.73146">
        <ele>1522</ele>
        <time>2026-08-14T09:26:33.540Z</time>
      </trkpt>
      <trkpt lat="45.80088" lon="6.73148">
        <ele>1521</ele>
        <time>2026-08-14T09:26:34.540Z</time>
      </trkpt>
      <trkpt lat="45.8009" lon="6.73148">
        <ele>1521</ele>
        <time>2026-08-14T09:26:35.540Z</time>
      </trkpt>
      <trkpt lat="45.80092" lon="6.73149">
        <ele>1520</ele>
        <time>2026-08-14T09:26:36.540Z</time>
      </trkpt>
      <trkpt lat="45.80094" lon="6.7315">
        <ele>1520</ele>
        <time>2026-08-14T09:26:37.540Z</time>
      </trkpt>
      <trkpt lat="45.80096" lon="6.73152">
        <ele>1519</ele>
        <time>2026-08-14T09:26:38.540Z</time>
      </trkpt>
      <trkpt lat="45.80098" lon="6.73153">
        <ele>1519</ele>
        <time>2026-08-14T09:26:39.540Z</time>
      </trkpt>
      <trkpt lat="45.801" lon="6.73155">
        <ele>1518</ele>
        <time>2026-08-14T09:26:40.540Z</time>
      </trkpt>
      <trkpt lat="45.80102" lon="6.73156">
        <ele>1518</ele>
        <time>2026-08-14T09:26:41.540Z</time>
      </trkpt>
      <trkpt lat="45.80104" lon="6.73157">
        <ele>1517</ele>
        <time>2026-08-14T09:26:42.540Z</time>
      </trkpt>
      <trkpt lat="45.80106" lon="6.73158">
        <ele>1517</ele>
        <time>2026-08-14T09:26:43.540Z</time>
      </trkpt>
      <trkpt lat="45.80107" lon="6.73159">
        <ele>1516</ele>
        <time>2026-08-14T09:26:44.540Z</time>
      </trkpt>
      <trkpt lat="45.80109" lon="6.73161">
        <ele>1516</ele>
        <time>2026-08-14T09:26:45.540Z</time>
      </trkpt>
      <trkpt lat="45.80111" lon="6.73162">
        <ele>1515</ele>
        <time>2026-08-14T09:26:46.540Z</time>
      </trkpt>
      <trkpt lat="45.80113" lon="6.73163">
        <ele>1515</ele>
        <time>2026-08-14T09:26:47.540Z</time>
      </trkpt>
      <trkpt lat="45.80115" lon="6.73164">
        <ele>1514</ele>
        <time>2026-08-14T09:26:48.540Z</time>
      </trkpt>
      <trkpt lat="45.80117" lon="6.73164">
        <ele>1514</ele>
        <time>2026-08-14T09:26:49.540Z</time>
      </trkpt>
      <trkpt lat="45.80118" lon="6.73164">
        <ele>1514</ele>
        <time>2026-08-14T09:26:50.540Z</time>
      </trkpt>
      <trkpt lat="45.8012" lon="6.73164">
        <ele>1514</ele>
        <time>2026-08-14T09:26:51.540Z</time>
      </trkpt>
      <trkpt lat="45.80121" lon="6.73164">
        <ele>1514</ele>
        <time>2026-08-14T09:26:52.540Z</time>
      </trkpt>
      <trkpt lat="45.80123" lon="6.73163">
        <ele>1513</ele>
        <time>2026-08-14T09:26:53.540Z</time>
      </trkpt>
      <trkpt lat="45.80124" lon="6.73163">
        <ele>1513</ele>
        <time>2026-08-14T09:26:54.540Z</time>
      </trkpt>
      <trkpt lat="45.80124" lon="6.73163">
        <ele>1512</ele>
        <time>2026-08-14T09:26:55.540Z</time>
      </trkpt>
      <trkpt lat="45.80124" lon="6.73162">
        <ele>1511</ele>
        <time>2026-08-14T09:26:56.540Z</time>
      </trkpt>
      <trkpt lat="45.80123" lon="6.73161">
        <ele>1511</ele>
        <time>2026-08-14T09:26:57.540Z</time>
      </trkpt>
      <trkpt lat="45.80122" lon="6.7316">
        <ele>1511</ele>
        <time>2026-08-14T09:26:58.540Z</time>
      </trkpt>
      <trkpt lat="45.80121" lon="6.73158">
        <ele>1510</ele>
        <time>2026-08-14T09:26:59.540Z</time>
      </trkpt>
      <trkpt lat="45.80119" lon="6.73157">
        <ele>1510</ele>
        <time>2026-08-14T09:27:00.540Z</time>
      </trkpt>
      <trkpt lat="45.80117" lon="6.73157">
        <ele>1510</ele>
        <time>2026-08-14T09:27:01.540Z</time>
      </trkpt>
      <trkpt lat="45.80116" lon="6.73156">
        <ele>1510</ele>
        <time>2026-08-14T09:27:02.540Z</time>
      </trkpt>
      <trkpt lat="45.80115" lon="6.73155">
        <ele>1509</ele>
        <time>2026-08-14T09:27:03.540Z</time>
      </trkpt>
      <trkpt lat="45.80115" lon="6.73154">
        <ele>1509</ele>
        <time>2026-08-14T09:27:04.540Z</time>
      </trkpt>
      <trkpt lat="45.80114" lon="6.73152">
        <ele>1508</ele>
        <time>2026-08-14T09:27:05.540Z</time>
      </trkpt>
      <trkpt lat="45.80113" lon="6.73151">
        <ele>1508</ele>
        <time>2026-08-14T09:27:06.540Z</time>
      </trkpt>
      <trkpt lat="45.80111" lon="6.7315">
        <ele>1508</ele>
        <time>2026-08-14T09:27:07.540Z</time>
      </trkpt>
      <trkpt lat="45.80111" lon="6.73148">
        <ele>1508</ele>
        <time>2026-08-14T09:27:08.540Z</time>
      </trkpt>
      <trkpt lat="45.80112" lon="6.73147">
        <ele>1508</ele>
        <time>2026-08-14T09:27:09.540Z</time>
      </trkpt>
      <trkpt lat="45.80114" lon="6.73146">
        <ele>1507</ele>
        <time>2026-08-14T09:27:10.540Z</time>
      </trkpt>
      <trkpt lat="45.80116" lon="6.73145">
        <ele>1507</ele>
        <time>2026-08-14T09:27:11.540Z</time>
      </trkpt>
      <trkpt lat="45.80118" lon="6.73145">
        <ele>1506</ele>
        <time>2026-08-14T09:27:12.540Z</time>
      </trkpt>
      <trkpt lat="45.8012" lon="6.73145">
        <ele>1506</ele>
        <time>2026-08-14T09:27:13.540Z</time>
      </trkpt>
      <trkpt lat="45.80122" lon="6.73145">
        <ele>1505</ele>
        <time>2026-08-14T09:27:14.540Z</time>
      </trkpt>
      <trkpt lat="45.80124" lon="6.73145">
        <ele>1504</ele>
        <time>2026-08-14T09:27:15.540Z</time>
      </trkpt>
      <trkpt lat="45.80127" lon="6.73144">
        <ele>1503</ele>
        <time>2026-08-14T09:27:16.540Z</time>
      </trkpt>
      <trkpt lat="45.80129" lon="6.73143">
        <ele>1503</ele>
        <time>2026-08-14T09:27:17.540Z</time>
      </trkpt>
      <trkpt lat="45.80131" lon="6.73142">
        <ele>1502</ele>
        <time>2026-08-14T09:27:18.540Z</time>
      </trkpt>
      <trkpt lat="45.80133" lon="6.73142">
        <ele>1502</ele>
        <time>2026-08-14T09:27:19.540Z</time>
      </trkpt>
      <trkpt lat="45.80136" lon="6.73141">
        <ele>1501</ele>
        <time>2026-08-14T09:27:20.540Z</time>
      </trkpt>
      <trkpt lat="45.80138" lon="6.73141">
        <ele>1501</ele>
        <time>2026-08-14T09:27:21.540Z</time>
      </trkpt>
      <trkpt lat="45.8014" lon="6.7314">
        <ele>1500</ele>
        <time>2026-08-14T09:27:22.540Z</time>
      </trkpt>
      <trkpt lat="45.80142" lon="6.7314">
        <ele>1500</ele>
        <time>2026-08-14T09:27:23.540Z</time>
      </trkpt>
      <trkpt lat="45.80143" lon="6.7314">
        <ele>1499</ele>
        <time>2026-08-14T09:27:24.540Z</time>
      </trkpt>
      <trkpt lat="45.80145" lon="6.7314">
        <ele>1498</ele>
        <time>2026-08-14T09:27:25.540Z</time>
      </trkpt>
      <trkpt lat="45.80147" lon="6.73139">
        <ele>1498</ele>
        <time>2026-08-14T09:27:26.540Z</time>
      </trkpt>
      <trkpt lat="45.80149" lon="6.73139">
        <ele>1497</ele>
        <time>2026-08-14T09:27:27.540Z</time>
      </trkpt>
      <trkpt lat="45.80151" lon="6.73138">
        <ele>1496</ele>
        <time>2026-08-14T09:27:28.540Z</time>
      </trkpt>
      <trkpt lat="45.80153" lon="6.73139">
        <ele>1495</ele>
        <time>2026-08-14T09:27:29.540Z</time>
      </trkpt>
      <trkpt lat="45.80155" lon="6.73139">
        <ele>1494</ele>
        <time>2026-08-14T09:27:30.540Z</time>
      </trkpt>
      <trkpt lat="45.80158" lon="6.73139">
        <ele>1493</ele>
        <time>2026-08-14T09:27:31.540Z</time>
      </trkpt>
      <trkpt lat="45.8016" lon="6.73139">
        <ele>1493</ele>
        <time>2026-08-14T09:27:32.540Z</time>
      </trkpt>
      <trkpt lat="45.80162" lon="6.7314">
        <ele>1493</ele>
        <time>2026-08-14T09:27:33.540Z</time>
      </trkpt>
      <trkpt lat="45.80164" lon="6.7314">
        <ele>1492</ele>
        <time>2026-08-14T09:27:34.540Z</time>
      </trkpt>
      <trkpt lat="45.80166" lon="6.73139">
        <ele>1492</ele>
        <time>2026-08-14T09:27:35.540Z</time>
      </trkpt>
      <trkpt lat="45.80168" lon="6.7314">
        <ele>1492</ele>
        <time>2026-08-14T09:27:36.540Z</time>
      </trkpt>
      <trkpt lat="45.8017" lon="6.7314">
        <ele>1491</ele>
        <time>2026-08-14T09:27:37.540Z</time>
      </trkpt>
      <trkpt lat="45.80172" lon="6.7314">
        <ele>1491</ele>
        <time>2026-08-14T09:27:38.540Z</time>
      </trkpt>
      <trkpt lat="45.80174" lon="6.7314">
        <ele>1490</ele>
        <time>2026-08-14T09:27:39.540Z</time>
      </trkpt>
      <trkpt lat="45.80176" lon="6.73141">
        <ele>1490</ele>
        <time>2026-08-14T09:27:40.540Z</time>
      </trkpt>
      <trkpt lat="45.80177" lon="6.73141">
        <ele>1489</ele>
        <time>2026-08-14T09:27:41.540Z</time>
      </trkpt>
      <trkpt lat="45.80178" lon="6.73142">
        <ele>1489</ele>
        <time>2026-08-14T09:27:42.540Z</time>
      </trkpt>
      <trkpt lat="45.8018" lon="6.73143">
        <ele>1488</ele>
        <time>2026-08-14T09:27:43.540Z</time>
      </trkpt>
      <trkpt lat="45.80181" lon="6.73145">
        <ele>1488</ele>
        <time>2026-08-14T09:27:44.540Z</time>
      </trkpt>
      <trkpt lat="45.80183" lon="6.73146">
        <ele>1487</ele>
        <time>2026-08-14T09:27:45.540Z</time>
      </trkpt>
      <trkpt lat="45.80184" lon="6.73146">
        <ele>1487</ele>
        <time>2026-08-14T09:27:46.540Z</time>
      </trkpt>
      <trkpt lat="45.80185" lon="6.73148">
        <ele>1486</ele>
        <time>2026-08-14T09:27:47.540Z</time>
      </trkpt>
      <trkpt lat="45.80186" lon="6.73149">
        <ele>1486</ele>
        <time>2026-08-14T09:27:48.540Z</time>
      </trkpt>
      <trkpt lat="45.80188" lon="6.73151">
        <ele>1486</ele>
        <time>2026-08-14T09:27:49.540Z</time>
      </trkpt>
      <trkpt lat="45.80189" lon="6.73153">
        <ele>1485</ele>
        <time>2026-08-14T09:27:50.540Z</time>
      </trkpt>
      <trkpt lat="45.8019" lon="6.73155">
        <ele>1485</ele>
        <time>2026-08-14T09:27:51.540Z</time>
      </trkpt>
      <trkpt lat="45.80191" lon="6.73156">
        <ele>1484</ele>
        <time>2026-08-14T09:27:52.540Z</time>
      </trkpt>
      <trkpt lat="45.80193" lon="6.73158">
        <ele>1484</ele>
        <time>2026-08-14T09:27:53.540Z</time>
      </trkpt>
      <trkpt lat="45.80195" lon="6.73159">
        <ele>1483</ele>
        <time>2026-08-14T09:27:54.540Z</time>
      </trkpt>
      <trkpt lat="45.80197" lon="6.7316">
        <ele>1483</ele>
        <time>2026-08-14T09:27:55.540Z</time>
      </trkpt>
      <trkpt lat="45.80199" lon="6.73161">
        <ele>1482</ele>
        <time>2026-08-14T09:27:56.540Z</time>
      </trkpt>
      <trkpt lat="45.802" lon="6.73162">
        <ele>1482</ele>
        <time>2026-08-14T09:27:57.540Z</time>
      </trkpt>
      <trkpt lat="45.80202" lon="6.73163">
        <ele>1481</ele>
        <time>2026-08-14T09:27:58.540Z</time>
      </trkpt>
      <trkpt lat="45.80203" lon="6.73164">
        <ele>1481</ele>
        <time>2026-08-14T09:27:59.540Z</time>
      </trkpt>
      <trkpt lat="45.80204" lon="6.73164">
        <ele>1480</ele>
        <time>2026-08-14T09:28:00.540Z</time>
      </trkpt>
      <trkpt lat="45.80206" lon="6.73164">
        <ele>1480</ele>
        <time>2026-08-14T09:28:01.540Z</time>
      </trkpt>
      <trkpt lat="45.80207" lon="6.73165">
        <ele>1479</ele>
        <time>2026-08-14T09:28:02.540Z</time>
      </trkpt>
      <trkpt lat="45.80209" lon="6.73166">
        <ele>1478</ele>
        <time>2026-08-14T09:28:03.540Z</time>
      </trkpt>
      <trkpt lat="45.8021" lon="6.73167">
        <ele>1478</ele>
        <time>2026-08-14T09:28:04.540Z</time>
      </trkpt>
      <trkpt lat="45.80212" lon="6.73169">
        <ele>1477</ele>
        <time>2026-08-14T09:28:05.540Z</time>
      </trkpt>
      <trkpt lat="45.80214" lon="6.7317">
        <ele>1476</ele>
        <time>2026-08-14T09:28:06.540Z</time>
      </trkpt>
      <trkpt lat="45.80215" lon="6.7317">
        <ele>1476</ele>
        <time>2026-08-14T09:28:07.540Z</time>
      </trkpt>
      <trkpt lat="45.80216" lon="6.7317">
        <ele>1475</ele>
        <time>2026-08-14T09:28:08.540Z</time>
      </trkpt>
      <trkpt lat="45.80217" lon="6.73171">
        <ele>1475</ele>
        <time>2026-08-14T09:28:09.540Z</time>
      </trkpt>
      <trkpt lat="45.80219" lon="6.73172">
        <ele>1474</ele>
        <time>2026-08-14T09:28:10.540Z</time>
      </trkpt>
      <trkpt lat="45.80221" lon="6.73173">
        <ele>1474</ele>
        <time>2026-08-14T09:28:11.540Z</time>
      </trkpt>
      <trkpt lat="45.80222" lon="6.73173">
        <ele>1473</ele>
        <time>2026-08-14T09:28:12.540Z</time>
      </trkpt>
      <trkpt lat="45.80224" lon="6.73174">
        <ele>1472</ele>
        <time>2026-08-14T09:28:13.540Z</time>
      </trkpt>
      <trkpt lat="45.80226" lon="6.73175">
        <ele>1472</ele>
        <time>2026-08-14T09:28:14.540Z</time>
      </trkpt>
      <trkpt lat="45.80228" lon="6.73175">
        <ele>1471</ele>
        <time>2026-08-14T09:28:15.540Z</time>
      </trkpt>
      <trkpt lat="45.8023" lon="6.73176">
        <ele>1471</ele>
        <time>2026-08-14T09:28:16.540Z</time>
      </trkpt>
      <trkpt lat="45.80232" lon="6.73175">
        <ele>1471</ele>
        <time>2026-08-14T09:28:17.540Z</time>
      </trkpt>
      <trkpt lat="45.80233" lon="6.73175">
        <ele>1470</ele>
        <time>2026-08-14T09:28:18.540Z</time>
      </trkpt>
      <trkpt lat="45.80235" lon="6.73175">
        <ele>1470</ele>
        <time>2026-08-14T09:28:19.540Z</time>
      </trkpt>
      <trkpt lat="45.80236" lon="6.73175">
        <ele>1470</ele>
        <time>2026-08-14T09:28:20.540Z</time>
      </trkpt>
      <trkpt lat="45.80238" lon="6.73176">
        <ele>1469</ele>
        <time>2026-08-14T09:28:21.540Z</time>
      </trkpt>
      <trkpt lat="45.8024" lon="6.73177">
        <ele>1469</ele>
        <time>2026-08-14T09:28:22.540Z</time>
      </trkpt>
      <trkpt lat="45.80241" lon="6.73177">
        <ele>1468</ele>
        <time>2026-08-14T09:28:23.540Z</time>
      </trkpt>
      <trkpt lat="45.80243" lon="6.73177">
        <ele>1468</ele>
        <time>2026-08-14T09:28:24.540Z</time>
      </trkpt>
      <trkpt lat="45.80246" lon="6.73181">
        <ele>1468</ele>
        <time>2026-08-14T09:28:25.540Z</time>
      </trkpt>
      <trkpt lat="45.80248" lon="6.73182">
        <ele>1467</ele>
        <time>2026-08-14T09:28:26.540Z</time>
      </trkpt>
      <trkpt lat="45.80249" lon="6.73183">
        <ele>1467</ele>
        <time>2026-08-14T09:28:27.540Z</time>
      </trkpt>
      <trkpt lat="45.8025" lon="6.73184">
        <ele>1467</ele>
        <time>2026-08-14T09:28:28.540Z</time>
      </trkpt>
      <trkpt lat="45.80251" lon="6.73184">
        <ele>1466</ele>
        <time>2026-08-14T09:28:29.540Z</time>
      </trkpt>
      <trkpt lat="45.80252" lon="6.73184">
        <ele>1466</ele>
        <time>2026-08-14T09:28:30.540Z</time>
      </trkpt>
      <trkpt lat="45.80253" lon="6.73184">
        <ele>1466</ele>
        <time>2026-08-14T09:28:31.540Z</time>
      </trkpt>
      <trkpt lat="45.80254" lon="6.73184">
        <ele>1465</ele>
        <time>2026-08-14T09:28:32.540Z</time>
      </trkpt>
      <trkpt lat="45.80255" lon="6.73183">
        <ele>1465</ele>
        <time>2026-08-14T09:28:33.540Z</time>
      </trkpt>
      <trkpt lat="45.80256" lon="6.73184">
        <ele>1465</ele>
        <time>2026-08-14T09:28:34.540Z</time>
      </trkpt>
      <trkpt lat="45.80257" lon="6.73184">
        <ele>1465</ele>
        <time>2026-08-14T09:28:35.540Z</time>
      </trkpt>
      <trkpt lat="45.80258" lon="6.73185">
        <ele>1465</ele>
        <time>2026-08-14T09:28:36.540Z</time>
      </trkpt>
      <trkpt lat="45.8026" lon="6.73184">
        <ele>1464</ele>
        <time>2026-08-14T09:28:37.540Z</time>
      </trkpt>
      <trkpt lat="45.80261" lon="6.73185">
        <ele>1464</ele>
        <time>2026-08-14T09:28:38.540Z</time>
      </trkpt>
      <trkpt lat="45.80263" lon="6.73186">
        <ele>1464</ele>
        <time>2026-08-14T09:28:39.540Z</time>
      </trkpt>
      <trkpt lat="45.80263" lon="6.73186">
        <ele>1464</ele>
        <time>2026-08-14T09:28:40.540Z</time>
      </trkpt>
      <trkpt lat="45.80264" lon="6.73187">
        <ele>1463</ele>
        <time>2026-08-14T09:28:41.540Z</time>
      </trkpt>
      <trkpt lat="45.80265" lon="6.73188">
        <ele>1463</ele>
        <time>2026-08-14T09:28:42.540Z</time>
      </trkpt>
      <trkpt lat="45.80266" lon="6.73189">
        <ele>1463</ele>
        <time>2026-08-14T09:28:43.540Z</time>
      </trkpt>
      <trkpt lat="45.80267" lon="6.73189">
        <ele>1462</ele>
        <time>2026-08-14T09:28:44.540Z</time>
      </trkpt>
      <trkpt lat="45.80267" lon="6.7319">
        <ele>1462</ele>
        <time>2026-08-14T09:28:45.540Z</time>
      </trkpt>
      <trkpt lat="45.80268" lon="6.73191">
        <ele>1461</ele>
        <time>2026-08-14T09:28:46.540Z</time>
      </trkpt>
      <trkpt lat="45.80269" lon="6.73192">
        <ele>1461</ele>
        <time>2026-08-14T09:28:47.540Z</time>
      </trkpt>
      <trkpt lat="45.8027" lon="6.73193">
        <ele>1460</ele>
        <time>2026-08-14T09:28:48.540Z</time>
      </trkpt>
      <trkpt lat="45.80271" lon="6.73194">
        <ele>1460</ele>
        <time>2026-08-14T09:28:49.540Z</time>
      </trkpt>
      <trkpt lat="45.80271" lon="6.73195">
        <ele>1459</ele>
        <time>2026-08-14T09:28:50.540Z</time>
      </trkpt>
      <trkpt lat="45.80272" lon="6.73197">
        <ele>1459</ele>
        <time>2026-08-14T09:28:51.540Z</time>
      </trkpt>
      <trkpt lat="45.80272" lon="6.73198">
        <ele>1459</ele>
        <time>2026-08-14T09:28:52.540Z</time>
      </trkpt>
      <trkpt lat="45.80272" lon="6.73199">
        <ele>1458</ele>
        <time>2026-08-14T09:28:53.540Z</time>
      </trkpt>
      <trkpt lat="45.80273" lon="6.73201">
        <ele>1458</ele>
        <time>2026-08-14T09:28:54.540Z</time>
      </trkpt>
      <trkpt lat="45.80273" lon="6.73202">
        <ele>1458</ele>
        <time>2026-08-14T09:28:55.540Z</time>
      </trkpt>
      <trkpt lat="45.80273" lon="6.73203">
        <ele>1458</ele>
        <time>2026-08-14T09:28:56.540Z</time>
      </trkpt>
      <trkpt lat="45.80273" lon="6.73205">
        <ele>1457</ele>
        <time>2026-08-14T09:28:57.540Z</time>
      </trkpt>
      <trkpt lat="45.80274" lon="6.73207">
        <ele>1457</ele>
        <time>2026-08-14T09:28:58.540Z</time>
      </trkpt>
      <trkpt lat="45.80274" lon="6.73209">
        <ele>1457</ele>
        <time>2026-08-14T09:28:59.540Z</time>
      </trkpt>
      <trkpt lat="45.80274" lon="6.7321">
        <ele>1457</ele>
        <time>2026-08-14T09:29:00.540Z</time>
      </trkpt>
      <trkpt lat="45.80275" lon="6.73211">
        <ele>1457</ele>
        <time>2026-08-14T09:29:01.540Z</time>
      </trkpt>
      <trkpt lat="45.80276" lon="6.73212">
        <ele>1456</ele>
        <time>2026-08-14T09:29:02.540Z</time>
      </trkpt>
      <trkpt lat="45.80277" lon="6.73212">
        <ele>1456</ele>
        <time>2026-08-14T09:29:03.540Z</time>
      </trkpt>
      <trkpt lat="45.80278" lon="6.73213">
        <ele>1456</ele>
        <time>2026-08-14T09:29:04.540Z</time>
      </trkpt>
      <trkpt lat="45.80278" lon="6.73213">
        <ele>1456</ele>
        <time>2026-08-14T09:29:05.540Z</time>
      </trkpt>
      <trkpt lat="45.80278" lon="6.73213">
        <ele>1455</ele>
        <time>2026-08-14T09:29:06.540Z</time>
      </trkpt>
      <trkpt lat="45.80278" lon="6.73213">
        <ele>1455</ele>
        <time>2026-08-14T09:29:07.540Z</time>
      </trkpt>
      <trkpt lat="45.80279" lon="6.73214">
        <ele>1454</ele>
        <time>2026-08-14T09:29:08.540Z</time>
      </trkpt>
      <trkpt lat="45.8028" lon="6.73215">
        <ele>1453</ele>
        <time>2026-08-14T09:29:09.540Z</time>
      </trkpt>
      <trkpt lat="45.80281" lon="6.73216">
        <ele>1453</ele>
        <time>2026-08-14T09:29:10.540Z</time>
      </trkpt>
      <trkpt lat="45.80282" lon="6.73216">
        <ele>1453</ele>
        <time>2026-08-14T09:29:11.540Z</time>
      </trkpt>
      <trkpt lat="45.80283" lon="6.73217">
        <ele>1452</ele>
        <time>2026-08-14T09:29:12.540Z</time>
      </trkpt>
      <trkpt lat="45.80283" lon="6.73216">
        <ele>1452</ele>
        <time>2026-08-14T09:29:13.540Z</time>
      </trkpt>
      <trkpt lat="45.80285" lon="6.73217">
        <ele>1452</ele>
        <time>2026-08-14T09:29:14.540Z</time>
      </trkpt>
      <trkpt lat="45.80285" lon="6.73217">
        <ele>1452</ele>
        <time>2026-08-14T09:29:15.540Z</time>
      </trkpt>
      <trkpt lat="45.80286" lon="6.73217">
        <ele>1452</ele>
        <time>2026-08-14T09:29:16.540Z</time>
      </trkpt>
      <trkpt lat="45.80286" lon="6.73217">
        <ele>1452</ele>
        <time>2026-08-14T09:29:17.540Z</time>
      </trkpt>
      <trkpt lat="45.80287" lon="6.73217">
        <ele>1452</ele>
        <time>2026-08-14T09:29:18.540Z</time>
      </trkpt>
      <trkpt lat="45.80287" lon="6.73217">
        <ele>1452</ele>
        <time>2026-08-14T09:29:19.540Z</time>
      </trkpt>
      <trkpt lat="45.80287" lon="6.73218">
        <ele>1452</ele>
        <time>2026-08-14T09:29:20.540Z</time>
      </trkpt>
      <trkpt lat="45.80288" lon="6.73217">
        <ele>1452</ele>
        <time>2026-08-14T09:29:21.540Z</time>
      </trkpt>
      <trkpt lat="45.80288" lon="6.73217">
        <ele>1452</ele>
        <time>2026-08-14T09:29:22.540Z</time>
      </trkpt>
      <trkpt lat="45.80288" lon="6.73217">
        <ele>1452</ele>
        <time>2026-08-14T09:29:23.540Z</time>
      </trkpt>
      <trkpt lat="45.80288" lon="6.73216">
        <ele>1452</ele>
        <time>2026-08-14T09:29:24.540Z</time>
      </trkpt>
      <trkpt lat="45.80289" lon="6.73216">
        <ele>1452</ele>
        <time>2026-08-14T09:29:25.540Z</time>
      </trkpt>
      <trkpt lat="45.8029" lon="6.73216">
        <ele>1452</ele>
        <time>2026-08-14T09:29:26.540Z</time>
      </trkpt>
      <trkpt lat="45.8029" lon="6.73216">
        <ele>1452</ele>
        <time>2026-08-14T09:29:27.540Z</time>
      </trkpt>
      <trkpt lat="45.8029" lon="6.73216">
        <ele>1452</ele>
        <time>2026-08-14T09:29:28.540Z</time>
      </trkpt>
      <trkpt lat="45.80291" lon="6.73216">
        <ele>1452</ele>
        <time>2026-08-14T09:29:29.540Z</time>
      </trkpt>
      <trkpt lat="45.80292" lon="6.73215">
        <ele>1452</ele>
        <time>2026-08-14T09:29:30.540Z</time>
      </trkpt>
      <trkpt lat="45.80292" lon="6.73215">
        <ele>1452</ele>
        <time>2026-08-14T09:29:31.540Z</time>
      </trkpt>
      <trkpt lat="45.80293" lon="6.73215">
        <ele>1451</ele>
        <time>2026-08-14T09:29:32.540Z</time>
      </trkpt>
      <trkpt lat="45.80294" lon="6.73215">
        <ele>1451</ele>
        <time>2026-08-14T09:29:33.540Z</time>
      </trkpt>
      <trkpt lat="45.80294" lon="6.73215">
        <ele>1451</ele>
        <time>2026-08-14T09:29:34.540Z</time>
      </trkpt>
      <trkpt lat="45.80295" lon="6.73215">
        <ele>1451</ele>
        <time>2026-08-14T09:29:35.540Z</time>
      </trkpt>
      <trkpt lat="45.80296" lon="6.73216">
        <ele>1451</ele>
        <time>2026-08-14T09:29:36.540Z</time>
      </trkpt>
      <trkpt lat="45.80297" lon="6.73216">
        <ele>1450</ele>
        <time>2026-08-14T09:29:37.540Z</time>
      </trkpt>
      <trkpt lat="45.80299" lon="6.73216">
        <ele>1450</ele>
        <time>2026-08-14T09:29:38.540Z</time>
      </trkpt>
      <trkpt lat="45.803" lon="6.73216">
        <ele>1450</ele>
        <time>2026-08-14T09:29:39.540Z</time>
      </trkpt>
      <trkpt lat="45.80302" lon="6.73215">
        <ele>1449</ele>
        <time>2026-08-14T09:29:40.540Z</time>
      </trkpt>
      <trkpt lat="45.80302" lon="6.73214">
        <ele>1449</ele>
        <time>2026-08-14T09:29:41.540Z</time>
      </trkpt>
      <trkpt lat="45.80303" lon="6.73214">
        <ele>1449</ele>
        <time>2026-08-14T09:29:42.540Z</time>
      </trkpt>
      <trkpt lat="45.80305" lon="6.73214">
        <ele>1448</ele>
        <time>2026-08-14T09:29:43.540Z</time>
      </trkpt>
      <trkpt lat="45.80306" lon="6.73213">
        <ele>1448</ele>
        <time>2026-08-14T09:29:44.540Z</time>
      </trkpt>
      <trkpt lat="45.80307" lon="6.73213">
        <ele>1448</ele>
        <time>2026-08-14T09:29:45.540Z</time>
      </trkpt>
      <trkpt lat="45.80308" lon="6.73213">
        <ele>1448</ele>
        <time>2026-08-14T09:29:46.540Z</time>
      </trkpt>
      <trkpt lat="45.8031" lon="6.73212">
        <ele>1448</ele>
        <time>2026-08-14T09:29:47.540Z</time>
      </trkpt>
      <trkpt lat="45.80311" lon="6.73212">
        <ele>1448</ele>
        <time>2026-08-14T09:29:48.540Z</time>
      </trkpt>
      <trkpt lat="45.80313" lon="6.73212">
        <ele>1448</ele>
        <time>2026-08-14T09:29:49.540Z</time>
      </trkpt>
      <trkpt lat="45.80314" lon="6.73211">
        <ele>1448</ele>
        <time>2026-08-14T09:29:50.540Z</time>
      </trkpt>
      <trkpt lat="45.80315" lon="6.73209">
        <ele>1448</ele>
        <time>2026-08-14T09:29:51.540Z</time>
      </trkpt>
      <trkpt lat="45.80316" lon="6.73207">
        <ele>1448</ele>
        <time>2026-08-14T09:29:52.540Z</time>
      </trkpt>
      <trkpt lat="45.80317" lon="6.73204">
        <ele>1449</ele>
        <time>2026-08-14T09:29:53.540Z</time>
      </trkpt>
      <trkpt lat="45.80319" lon="6.73202">
        <ele>1449</ele>
        <time>2026-08-14T09:29:54.540Z</time>
      </trkpt>
      <trkpt lat="45.8032" lon="6.732">
        <ele>1449</ele>
        <time>2026-08-14T09:29:55.540Z</time>
      </trkpt>
      <trkpt lat="45.80321" lon="6.73198">
        <ele>1449</ele>
        <time>2026-08-14T09:29:56.540Z</time>
      </trkpt>
      <trkpt lat="45.80322" lon="6.73197">
        <ele>1449</ele>
        <time>2026-08-14T09:29:57.540Z</time>
      </trkpt>
      <trkpt lat="45.80323" lon="6.73196">
        <ele>1449</ele>
        <time>2026-08-14T09:29:58.540Z</time>
      </trkpt>
      <trkpt lat="45.80325" lon="6.73195">
        <ele>1449</ele>
        <time>2026-08-14T09:29:59.540Z</time>
      </trkpt>
      <trkpt lat="45.80327" lon="6.73194">
        <ele>1449</ele>
        <time>2026-08-14T09:30:00.540Z</time>
      </trkpt>
      <trkpt lat="45.80328" lon="6.73193">
        <ele>1449</ele>
        <time>2026-08-14T09:30:01.540Z</time>
      </trkpt>
      <trkpt lat="45.8033" lon="6.73192">
        <ele>1449</ele>
        <time>2026-08-14T09:30:02.540Z</time>
      </trkpt>
      <trkpt lat="45.80332" lon="6.73191">
        <ele>1449</ele>
        <time>2026-08-14T09:30:03.540Z</time>
      </trkpt>
      <trkpt lat="45.80334" lon="6.73191">
        <ele>1449</ele>
        <time>2026-08-14T09:30:04.540Z</time>
      </trkpt>
      <trkpt lat="45.80337" lon="6.73189">
        <ele>1449</ele>
        <time>2026-08-14T09:30:05.540Z</time>
      </trkpt>
      <trkpt lat="45.8034" lon="6.73188">
        <ele>1450</ele>
        <time>2026-08-14T09:30:06.540Z</time>
      </trkpt>
      <trkpt lat="45.80342" lon="6.73186">
        <ele>1450</ele>
        <time>2026-08-14T09:30:07.540Z</time>
      </trkpt>
      <trkpt lat="45.80344" lon="6.73185">
        <ele>1450</ele>
        <time>2026-08-14T09:30:08.540Z</time>
      </trkpt>
      <trkpt lat="45.80346" lon="6.73184">
        <ele>1451</ele>
        <time>2026-08-14T09:30:09.540Z</time>
      </trkpt>
      <trkpt lat="45.80348" lon="6.73184">
        <ele>1451</ele>
        <time>2026-08-14T09:30:10.540Z</time>
      </trkpt>
      <trkpt lat="45.8035" lon="6.73184">
        <ele>1451</ele>
        <time>2026-08-14T09:30:11.540Z</time>
      </trkpt>
      <trkpt lat="45.80352" lon="6.73183">
        <ele>1451</ele>
        <time>2026-08-14T09:30:12.540Z</time>
      </trkpt>
      <trkpt lat="45.80354" lon="6.73183">
        <ele>1451</ele>
        <time>2026-08-14T09:30:13.540Z</time>
      </trkpt>
      <trkpt lat="45.80356" lon="6.73183">
        <ele>1451</ele>
        <time>2026-08-14T09:30:14.540Z</time>
      </trkpt>
      <trkpt lat="45.80358" lon="6.73182">
        <ele>1451</ele>
        <time>2026-08-14T09:30:15.540Z</time>
      </trkpt>
      <trkpt lat="45.80359" lon="6.73182">
        <ele>1451</ele>
        <time>2026-08-14T09:30:16.540Z</time>
      </trkpt>
      <trkpt lat="45.8036" lon="6.73182">
        <ele>1452</ele>
        <time>2026-08-14T09:30:17.540Z</time>
      </trkpt>
      <trkpt lat="45.80362" lon="6.73181">
        <ele>1452</ele>
        <time>2026-08-14T09:30:18.540Z</time>
      </trkpt>
      <trkpt lat="45.80364" lon="6.73181">
        <ele>1452</ele>
        <time>2026-08-14T09:30:19.540Z</time>
      </trkpt>
      <trkpt lat="45.80367" lon="6.7318">
        <ele>1452</ele>
        <time>2026-08-14T09:30:20.540Z</time>
      </trkpt>
      <trkpt lat="45.8037" lon="6.7318">
        <ele>1451</ele>
        <time>2026-08-14T09:30:21.540Z</time>
      </trkpt>
      <trkpt lat="45.80372" lon="6.73179">
        <ele>1451</ele>
        <time>2026-08-14T09:30:22.540Z</time>
      </trkpt>
      <trkpt lat="45.80375" lon="6.73179">
        <ele>1451</ele>
        <time>2026-08-14T09:30:23.540Z</time>
      </trkpt>
      <trkpt lat="45.80377" lon="6.73178">
        <ele>1451</ele>
        <time>2026-08-14T09:30:24.540Z</time>
      </trkpt>
      <trkpt lat="45.8038" lon="6.73178">
        <ele>1451</ele>
        <time>2026-08-14T09:30:25.540Z</time>
      </trkpt>
      <trkpt lat="45.80382" lon="6.73177">
        <ele>1451</ele>
        <time>2026-08-14T09:30:26.540Z</time>
      </trkpt>
      <trkpt lat="45.80384" lon="6.73177">
        <ele>1451</ele>
        <time>2026-08-14T09:30:27.540Z</time>
      </trkpt>
      <trkpt lat="45.80386" lon="6.73176">
        <ele>1451</ele>
        <time>2026-08-14T09:30:28.540Z</time>
      </trkpt>
      <trkpt lat="45.80388" lon="6.73175">
        <ele>1451</ele>
        <time>2026-08-14T09:30:29.540Z</time>
      </trkpt>
      <trkpt lat="45.8039" lon="6.73174">
        <ele>1451</ele>
        <time>2026-08-14T09:30:30.540Z</time>
      </trkpt>
      <trkpt lat="45.80392" lon="6.73173">
        <ele>1451</ele>
        <time>2026-08-14T09:30:31.540Z</time>
      </trkpt>
      <trkpt lat="45.80393" lon="6.73172">
        <ele>1451</ele>
        <time>2026-08-14T09:30:32.540Z</time>
      </trkpt>
      <trkpt lat="45.80395" lon="6.73171">
        <ele>1451</ele>
        <time>2026-08-14T09:30:33.540Z</time>
      </trkpt>
      <trkpt lat="45.80396" lon="6.7317">
        <ele>1451</ele>
        <time>2026-08-14T09:30:34.540Z</time>
      </trkpt>
      <trkpt lat="45.80398" lon="6.73169">
        <ele>1451</ele>
        <time>2026-08-14T09:30:35.540Z</time>
      </trkpt>
      <trkpt lat="45.804" lon="6.73169">
        <ele>1451</ele>
        <time>2026-08-14T09:30:36.540Z</time>
      </trkpt>
      <trkpt lat="45.80401" lon="6.73169">
        <ele>1451</ele>
        <time>2026-08-14T09:30:37.540Z</time>
      </trkpt>
      <trkpt lat="45.80403" lon="6.7317">
        <ele>1451</ele>
        <time>2026-08-14T09:30:38.540Z</time>
      </trkpt>
      <trkpt lat="45.80405" lon="6.73171">
        <ele>1450</ele>
        <time>2026-08-14T09:30:39.540Z</time>
      </trkpt>
      <trkpt lat="45.80407" lon="6.73172">
        <ele>1450</ele>
        <time>2026-08-14T09:30:40.540Z</time>
      </trkpt>
      <trkpt lat="45.80408" lon="6.73173">
        <ele>1449</ele>
        <time>2026-08-14T09:30:41.540Z</time>
      </trkpt>
      <trkpt lat="45.8041" lon="6.73174">
        <ele>1449</ele>
        <time>2026-08-14T09:30:42.540Z</time>
      </trkpt>
      <trkpt lat="45.80411" lon="6.73176">
        <ele>1449</ele>
        <time>2026-08-14T09:30:43.540Z</time>
      </trkpt>
      <trkpt lat="45.80413" lon="6.73178">
        <ele>1448</ele>
        <time>2026-08-14T09:30:44.540Z</time>
      </trkpt>
      <trkpt lat="45.80414" lon="6.7318">
        <ele>1448</ele>
        <time>2026-08-14T09:30:45.540Z</time>
      </trkpt>
      <trkpt lat="45.80415" lon="6.73182">
        <ele>1447</ele>
        <time>2026-08-14T09:30:46.540Z</time>
      </trkpt>
      <trkpt lat="45.80417" lon="6.73183">
        <ele>1447</ele>
        <time>2026-08-14T09:30:47.540Z</time>
      </trkpt>
      <trkpt lat="45.80419" lon="6.73184">
        <ele>1447</ele>
        <time>2026-08-14T09:30:48.540Z</time>
      </trkpt>
      <trkpt lat="45.8042" lon="6.73185">
        <ele>1446</ele>
        <time>2026-08-14T09:30:49.540Z</time>
      </trkpt>
      <trkpt lat="45.80422" lon="6.73187">
        <ele>1446</ele>
        <time>2026-08-14T09:30:50.540Z</time>
      </trkpt>
      <trkpt lat="45.80424" lon="6.73189">
        <ele>1446</ele>
        <time>2026-08-14T09:30:51.540Z</time>
      </trkpt>
      <trkpt lat="45.80426" lon="6.73191">
        <ele>1445</ele>
        <time>2026-08-14T09:30:52.540Z</time>
      </trkpt>
      <trkpt lat="45.80428" lon="6.73193">
        <ele>1445</ele>
        <time>2026-08-14T09:30:53.540Z</time>
      </trkpt>
      <trkpt lat="45.8043" lon="6.73196">
        <ele>1444</ele>
        <time>2026-08-14T09:30:54.540Z</time>
      </trkpt>
      <trkpt lat="45.80431" lon="6.73198">
        <ele>1444</ele>
        <time>2026-08-14T09:30:55.540Z</time>
      </trkpt>
      <trkpt lat="45.80433" lon="6.732">
        <ele>1444</ele>
        <time>2026-08-14T09:30:56.540Z</time>
      </trkpt>
      <trkpt lat="45.80436" lon="6.73203">
        <ele>1443</ele>
        <time>2026-08-14T09:30:57.540Z</time>
      </trkpt>
      <trkpt lat="45.80438" lon="6.73204">
        <ele>1443</ele>
        <time>2026-08-14T09:30:58.540Z</time>
      </trkpt>
      <trkpt lat="45.8044" lon="6.73206">
        <ele>1443</ele>
        <time>2026-08-14T09:30:59.540Z</time>
      </trkpt>
      <trkpt lat="45.80442" lon="6.73207">
        <ele>1443</ele>
        <time>2026-08-14T09:31:00.540Z</time>
      </trkpt>
      <trkpt lat="45.80443" lon="6.73208">
        <ele>1443</ele>
        <time>2026-08-14T09:31:01.540Z</time>
      </trkpt>
      <trkpt lat="45.80445" lon="6.73209">
        <ele>1443</ele>
        <time>2026-08-14T09:31:02.540Z</time>
      </trkpt>
      <trkpt lat="45.80446" lon="6.7321">
        <ele>1443</ele>
        <time>2026-08-14T09:31:03.540Z</time>
      </trkpt>
      <trkpt lat="45.80448" lon="6.7321">
        <ele>1443</ele>
        <time>2026-08-14T09:31:04.540Z</time>
      </trkpt>
      <trkpt lat="45.8045" lon="6.7321">
        <ele>1443</ele>
        <time>2026-08-14T09:31:05.540Z</time>
      </trkpt>
      <trkpt lat="45.80451" lon="6.7321">
        <ele>1443</ele>
        <time>2026-08-14T09:31:06.540Z</time>
      </trkpt>
      <trkpt lat="45.80453" lon="6.7321">
        <ele>1443</ele>
        <time>2026-08-14T09:31:07.540Z</time>
      </trkpt>
      <trkpt lat="45.80454" lon="6.7321">
        <ele>1443</ele>
        <time>2026-08-14T09:31:08.540Z</time>
      </trkpt>
      <trkpt lat="45.80455" lon="6.73211">
        <ele>1443</ele>
        <time>2026-08-14T09:31:09.540Z</time>
      </trkpt>
      <trkpt lat="45.80455" lon="6.73211">
        <ele>1443</ele>
        <time>2026-08-14T09:31:10.540Z</time>
      </trkpt>
      <trkpt lat="45.80455" lon="6.73212">
        <ele>1443</ele>
        <time>2026-08-14T09:31:11.540Z</time>
      </trkpt>
      <trkpt lat="45.80455" lon="6.73212">
        <ele>1443</ele>
        <time>2026-08-14T09:31:12.540Z</time>
      </trkpt>
      <trkpt lat="45.80455" lon="6.73212">
        <ele>1443</ele>
        <time>2026-08-14T09:31:13.540Z</time>
      </trkpt>
      <trkpt lat="45.80455" lon="6.73212">
        <ele>1443</ele>
        <time>2026-08-14T09:31:14.540Z</time>
      </trkpt>
      <trkpt lat="45.80456" lon="6.73211">
        <ele>1444</ele>
        <time>2026-08-14T09:31:15.540Z</time>
      </trkpt>
      <trkpt lat="45.80456" lon="6.73211">
        <ele>1444</ele>
        <time>2026-08-14T09:31:16.540Z</time>
      </trkpt>
      <trkpt lat="45.80457" lon="6.73209">
        <ele>1444</ele>
        <time>2026-08-14T09:31:17.540Z</time>
      </trkpt>
      <trkpt lat="45.80457" lon="6.73208">
        <ele>1445</ele>
        <time>2026-08-14T09:31:18.540Z</time>
      </trkpt>
      <trkpt lat="45.80457" lon="6.73207">
        <ele>1445</ele>
        <time>2026-08-14T09:31:19.540Z</time>
      </trkpt>
      <trkpt lat="45.80457" lon="6.73205">
        <ele>1445</ele>
        <time>2026-08-14T09:31:20.540Z</time>
      </trkpt>
      <trkpt lat="45.80458" lon="6.73202">
        <ele>1446</ele>
        <time>2026-08-14T09:31:21.540Z</time>
      </trkpt>
      <trkpt lat="45.80458" lon="6.732">
        <ele>1446</ele>
        <time>2026-08-14T09:31:22.540Z</time>
      </trkpt>
      <trkpt lat="45.80459" lon="6.73199">
        <ele>1446</ele>
        <time>2026-08-14T09:31:23.540Z</time>
      </trkpt>
      <trkpt lat="45.80459" lon="6.73197">
        <ele>1447</ele>
        <time>2026-08-14T09:31:24.540Z</time>
      </trkpt>
      <trkpt lat="45.80459" lon="6.73196">
        <ele>1447</ele>
        <time>2026-08-14T09:31:25.540Z</time>
      </trkpt>
      <trkpt lat="45.8046" lon="6.73195">
        <ele>1447</ele>
        <time>2026-08-14T09:31:26.540Z</time>
      </trkpt>
      <trkpt lat="45.80461" lon="6.73194">
        <ele>1447</ele>
        <time>2026-08-14T09:31:27.540Z</time>
      </trkpt>
      <trkpt lat="45.80462" lon="6.73193">
        <ele>1447</ele>
        <time>2026-08-14T09:31:28.540Z</time>
      </trkpt>
      <trkpt lat="45.80462" lon="6.73192">
        <ele>1447</ele>
        <time>2026-08-14T09:31:29.540Z</time>
      </trkpt>
      <trkpt lat="45.80463" lon="6.73191">
        <ele>1447</ele>
        <time>2026-08-14T09:31:30.540Z</time>
      </trkpt>
      <trkpt lat="45.80463" lon="6.7319">
        <ele>1447</ele>
        <time>2026-08-14T09:31:31.540Z</time>
      </trkpt>
      <trkpt lat="45.80463" lon="6.7319">
        <ele>1446</ele>
        <time>2026-08-14T09:31:32.540Z</time>
      </trkpt>
      <trkpt lat="45.80463" lon="6.73189">
        <ele>1446</ele>
        <time>2026-08-14T09:31:33.540Z</time>
      </trkpt>
      <trkpt lat="45.80463" lon="6.73188">
        <ele>1446</ele>
        <time>2026-08-14T09:31:34.540Z</time>
      </trkpt>
      <trkpt lat="45.80465" lon="6.73188">
        <ele>1446</ele>
        <time>2026-08-14T09:31:35.540Z</time>
      </trkpt>
      <trkpt lat="45.80465" lon="6.73188">
        <ele>1446</ele>
        <time>2026-08-14T09:31:36.540Z</time>
      </trkpt>
      <trkpt lat="45.80466" lon="6.73187">
        <ele>1446</ele>
        <time>2026-08-14T09:31:37.540Z</time>
      </trkpt>
      <trkpt lat="45.80468" lon="6.73187">
        <ele>1446</ele>
        <time>2026-08-14T09:31:38.540Z</time>
      </trkpt>
      <trkpt lat="45.80469" lon="6.73187">
        <ele>1446</ele>
        <time>2026-08-14T09:31:39.540Z</time>
      </trkpt>
      <trkpt lat="45.8047" lon="6.73186">
        <ele>1446</ele>
        <time>2026-08-14T09:31:40.540Z</time>
      </trkpt>
      <trkpt lat="45.80472" lon="6.73186">
        <ele>1446</ele>
        <time>2026-08-14T09:31:41.540Z</time>
      </trkpt>
      <trkpt lat="45.80473" lon="6.73186">
        <ele>1447</ele>
        <time>2026-08-14T09:31:42.540Z</time>
      </trkpt>
      <trkpt lat="45.80475" lon="6.73186">
        <ele>1447</ele>
        <time>2026-08-14T09:31:43.540Z</time>
      </trkpt>
      <trkpt lat="45.80477" lon="6.73186">
        <ele>1447</ele>
        <time>2026-08-14T09:31:44.540Z</time>
      </trkpt>
      <trkpt lat="45.80478" lon="6.73186">
        <ele>1447</ele>
        <time>2026-08-14T09:31:45.540Z</time>
      </trkpt>
      <trkpt lat="45.80479" lon="6.73187">
        <ele>1447</ele>
        <time>2026-08-14T09:31:46.540Z</time>
      </trkpt>
      <trkpt lat="45.80481" lon="6.73188">
        <ele>1447</ele>
        <time>2026-08-14T09:31:47.540Z</time>
      </trkpt>
      <trkpt lat="45.80482" lon="6.73189">
        <ele>1447</ele>
        <time>2026-08-14T09:31:48.540Z</time>
      </trkpt>
      <trkpt lat="45.80483" lon="6.7319">
        <ele>1447</ele>
        <time>2026-08-14T09:31:49.540Z</time>
      </trkpt>
      <trkpt lat="45.80484" lon="6.7319">
        <ele>1446</ele>
        <time>2026-08-14T09:31:50.540Z</time>
      </trkpt>
      <trkpt lat="45.80486" lon="6.73191">
        <ele>1446</ele>
        <time>2026-08-14T09:31:51.540Z</time>
      </trkpt>
      <trkpt lat="45.80487" lon="6.73192">
        <ele>1446</ele>
        <time>2026-08-14T09:31:52.540Z</time>
      </trkpt>
      <trkpt lat="45.80488" lon="6.73193">
        <ele>1446</ele>
        <time>2026-08-14T09:31:53.540Z</time>
      </trkpt>
      <trkpt lat="45.80489" lon="6.73194">
        <ele>1446</ele>
        <time>2026-08-14T09:31:54.540Z</time>
      </trkpt>
      <trkpt lat="45.8049" lon="6.73194">
        <ele>1445</ele>
        <time>2026-08-14T09:31:55.540Z</time>
      </trkpt>
      <trkpt lat="45.8049" lon="6.73195">
        <ele>1445</ele>
        <time>2026-08-14T09:31:56.540Z</time>
      </trkpt>
      <trkpt lat="45.8049" lon="6.73195">
        <ele>1445</ele>
        <time>2026-08-14T09:31:57.540Z</time>
      </trkpt>
      <trkpt lat="45.8049" lon="6.73195">
        <ele>1445</ele>
        <time>2026-08-14T09:31:58.540Z</time>
      </trkpt>
      <trkpt lat="45.8049" lon="6.73196">
        <ele>1444</ele>
        <time>2026-08-14T09:31:59.540Z</time>
      </trkpt>
      <trkpt lat="45.8049" lon="6.73196">
        <ele>1444</ele>
        <time>2026-08-14T09:32:00.540Z</time>
      </trkpt>
      <trkpt lat="45.80491" lon="6.73196">
        <ele>1444</ele>
        <time>2026-08-14T09:32:01.540Z</time>
      </trkpt>
      <trkpt lat="45.80491" lon="6.73196">
        <ele>1443</ele>
        <time>2026-08-14T09:32:02.540Z</time>
      </trkpt>
      <trkpt lat="45.80491" lon="6.73196">
        <ele>1443</ele>
        <time>2026-08-14T09:32:03.540Z</time>
      </trkpt>
      <trkpt lat="45.80491" lon="6.73195">
        <ele>1442</ele>
        <time>2026-08-14T09:32:04.540Z</time>
      </trkpt>
      <trkpt lat="45.80492" lon="6.73197">
        <ele>1442</ele>
        <time>2026-08-14T09:32:05.540Z</time>
      </trkpt>
      <trkpt lat="45.80493" lon="6.73197">
        <ele>1441</ele>
        <time>2026-08-14T09:32:06.540Z</time>
      </trkpt>
      <trkpt lat="45.80493" lon="6.73198">
        <ele>1441</ele>
        <time>2026-08-14T09:32:07.540Z</time>
      </trkpt>
      <trkpt lat="45.80494" lon="6.73198">
        <ele>1441</ele>
        <time>2026-08-14T09:32:08.540Z</time>
      </trkpt>
      <trkpt lat="45.80495" lon="6.73199">
        <ele>1440</ele>
        <time>2026-08-14T09:32:09.540Z</time>
      </trkpt>
      <trkpt lat="45.80496" lon="6.73199">
        <ele>1440</ele>
        <time>2026-08-14T09:32:10.540Z</time>
      </trkpt>
      <trkpt lat="45.80497" lon="6.73199">
        <ele>1440</ele>
        <time>2026-08-14T09:32:11.540Z</time>
      </trkpt>
      <trkpt lat="45.80497" lon="6.73199">
        <ele>1440</ele>
        <time>2026-08-14T09:32:12.540Z</time>
      </trkpt>
      <trkpt lat="45.80498" lon="6.73199">
        <ele>1439</ele>
        <time>2026-08-14T09:32:13.540Z</time>
      </trkpt>
      <trkpt lat="45.80499" lon="6.73198">
        <ele>1439</ele>
        <time>2026-08-14T09:32:14.540Z</time>
      </trkpt>
      <trkpt lat="45.805" lon="6.73198">
        <ele>1439</ele>
        <time>2026-08-14T09:32:15.540Z</time>
      </trkpt>
      <trkpt lat="45.805" lon="6.73198">
        <ele>1439</ele>
        <time>2026-08-14T09:32:16.540Z</time>
      </trkpt>
      <trkpt lat="45.80501" lon="6.73198">
        <ele>1439</ele>
        <time>2026-08-14T09:32:17.540Z</time>
      </trkpt>
      <trkpt lat="45.80501" lon="6.73198">
        <ele>1439</ele>
        <time>2026-08-14T09:32:18.540Z</time>
      </trkpt>
      <trkpt lat="45.80501" lon="6.73198">
        <ele>1440</ele>
        <time>2026-08-14T09:32:19.540Z</time>
      </trkpt>
      <trkpt lat="45.80502" lon="6.73199">
        <ele>1440</ele>
        <time>2026-08-14T09:32:20.540Z</time>
      </trkpt>
      <trkpt lat="45.80503" lon="6.73199">
        <ele>1441</ele>
        <time>2026-08-14T09:32:21.540Z</time>
      </trkpt>
      <trkpt lat="45.80503" lon="6.732">
        <ele>1441</ele>
        <time>2026-08-14T09:32:22.540Z</time>
      </trkpt>
      <trkpt lat="45.80505" lon="6.732">
        <ele>1442</ele>
        <time>2026-08-14T09:32:23.540Z</time>
      </trkpt>
      <trkpt lat="45.80506" lon="6.73199">
        <ele>1442</ele>
        <time>2026-08-14T09:32:24.540Z</time>
      </trkpt>
      <trkpt lat="45.80507" lon="6.73198">
        <ele>1443</ele>
        <time>2026-08-14T09:32:25.540Z</time>
      </trkpt>
      <trkpt lat="45.80507" lon="6.73196">
        <ele>1443</ele>
        <time>2026-08-14T09:32:26.540Z</time>
      </trkpt>
      <trkpt lat="45.80508" lon="6.73194">
        <ele>1443</ele>
        <time>2026-08-14T09:32:27.540Z</time>
      </trkpt>
      <trkpt lat="45.80509" lon="6.73193">
        <ele>1443</ele>
        <time>2026-08-14T09:32:28.540Z</time>
      </trkpt>
      <trkpt lat="45.8051" lon="6.73193">
        <ele>1443</ele>
        <time>2026-08-14T09:32:29.540Z</time>
      </trkpt>
      <trkpt lat="45.80512" lon="6.73193">
        <ele>1443</ele>
        <time>2026-08-14T09:32:30.540Z</time>
      </trkpt>
      <trkpt lat="45.80513" lon="6.73193">
        <ele>1443</ele>
        <time>2026-08-14T09:32:31.540Z</time>
      </trkpt>
      <trkpt lat="45.80513" lon="6.73194">
        <ele>1444</ele>
        <time>2026-08-14T09:32:32.540Z</time>
      </trkpt>
      <trkpt lat="45.80514" lon="6.73195">
        <ele>1444</ele>
        <time>2026-08-14T09:32:33.540Z</time>
      </trkpt>
      <trkpt lat="45.80514" lon="6.73196">
        <ele>1444</ele>
        <time>2026-08-14T09:32:34.540Z</time>
      </trkpt>
      <trkpt lat="45.80514" lon="6.73196">
        <ele>1445</ele>
        <time>2026-08-14T09:32:35.540Z</time>
      </trkpt>
      <trkpt lat="45.80514" lon="6.73197">
        <ele>1445</ele>
        <time>2026-08-14T09:32:36.540Z</time>
      </trkpt>
      <trkpt lat="45.80515" lon="6.73198">
        <ele>1445</ele>
        <time>2026-08-14T09:32:37.540Z</time>
      </trkpt>
      <trkpt lat="45.80517" lon="6.73199">
        <ele>1445</ele>
        <time>2026-08-14T09:32:38.540Z</time>
      </trkpt>
      <trkpt lat="45.80518" lon="6.73199">
        <ele>1445</ele>
        <time>2026-08-14T09:32:39.540Z</time>
      </trkpt>
      <trkpt lat="45.80518" lon="6.73199">
        <ele>1445</ele>
        <time>2026-08-14T09:32:40.540Z</time>
      </trkpt>
      <trkpt lat="45.80519" lon="6.73199">
        <ele>1446</ele>
        <time>2026-08-14T09:32:41.540Z</time>
      </trkpt>
      <trkpt lat="45.8052" lon="6.732">
        <ele>1446</ele>
        <time>2026-08-14T09:32:42.540Z</time>
      </trkpt>
      <trkpt lat="45.80521" lon="6.73201">
        <ele>1447</ele>
        <time>2026-08-14T09:32:43.540Z</time>
      </trkpt>
      <trkpt lat="45.80522" lon="6.73202">
        <ele>1447</ele>
        <time>2026-08-14T09:32:44.540Z</time>
      </trkpt>
      <trkpt lat="45.80523" lon="6.73203">
        <ele>1447</ele>
        <time>2026-08-14T09:32:45.540Z</time>
      </trkpt>
      <trkpt lat="45.80524" lon="6.73203">
        <ele>1448</ele>
        <time>2026-08-14T09:32:46.540Z</time>
      </trkpt>
      <trkpt lat="45.80525" lon="6.73204">
        <ele>1448</ele>
        <time>2026-08-14T09:32:47.540Z</time>
      </trkpt>
      <trkpt lat="45.80525" lon="6.73205">
        <ele>1448</ele>
        <time>2026-08-14T09:32:48.540Z</time>
      </trkpt>
      <trkpt lat="45.80526" lon="6.73206">
        <ele>1449</ele>
        <time>2026-08-14T09:32:49.540Z</time>
      </trkpt>
      <trkpt lat="45.80527" lon="6.73208">
        <ele>1449</ele>
        <time>2026-08-14T09:32:50.540Z</time>
      </trkpt>
      <trkpt lat="45.80528" lon="6.73209">
        <ele>1449</ele>
        <time>2026-08-14T09:32:51.540Z</time>
      </trkpt>
      <trkpt lat="45.80529" lon="6.73211">
        <ele>1450</ele>
        <time>2026-08-14T09:32:52.540Z</time>
      </trkpt>
      <trkpt lat="45.8053" lon="6.73212">
        <ele>1450</ele>
        <time>2026-08-14T09:32:53.540Z</time>
      </trkpt>
      <trkpt lat="45.8053" lon="6.73213">
        <ele>1450</ele>
        <time>2026-08-14T09:32:54.540Z</time>
      </trkpt>
      <trkpt lat="45.80531" lon="6.73214">
        <ele>1450</ele>
        <time>2026-08-14T09:32:55.540Z</time>
      </trkpt>
      <trkpt lat="45.80531" lon="6.73216">
        <ele>1451</ele>
        <time>2026-08-14T09:32:56.540Z</time>
      </trkpt>
      <trkpt lat="45.80532" lon="6.73218">
        <ele>1451</ele>
        <time>2026-08-14T09:32:57.540Z</time>
      </trkpt>
      <trkpt lat="45.80533" lon="6.73219">
        <ele>1452</ele>
        <time>2026-08-14T09:32:58.540Z</time>
      </trkpt>
      <trkpt lat="45.80533" lon="6.7322">
        <ele>1452</ele>
        <time>2026-08-14T09:32:59.540Z</time>
      </trkpt>
      <trkpt lat="45.80535" lon="6.73221">
        <ele>1452</ele>
        <time>2026-08-14T09:33:00.540Z</time>
      </trkpt>
      <trkpt lat="45.80536" lon="6.73222">
        <ele>1453</ele>
        <time>2026-08-14T09:33:01.540Z</time>
      </trkpt>
      <trkpt lat="45.80537" lon="6.73223">
        <ele>1453</ele>
        <time>2026-08-14T09:33:02.540Z</time>
      </trkpt>
      <trkpt lat="45.80539" lon="6.73224">
        <ele>1453</ele>
        <time>2026-08-14T09:33:03.540Z</time>
      </trkpt>
      <trkpt lat="45.80539" lon="6.73224">
        <ele>1454</ele>
        <time>2026-08-14T09:33:04.540Z</time>
      </trkpt>
      <trkpt lat="45.8054" lon="6.73225">
        <ele>1454</ele>
        <time>2026-08-14T09:33:05.540Z</time>
      </trkpt>
      <trkpt lat="45.80541" lon="6.73227">
        <ele>1454</ele>
        <time>2026-08-14T09:33:06.540Z</time>
      </trkpt>
      <trkpt lat="45.80542" lon="6.73228">
        <ele>1454</ele>
        <time>2026-08-14T09:33:07.540Z</time>
      </trkpt>
      <trkpt lat="45.80543" lon="6.73229">
        <ele>1455</ele>
        <time>2026-08-14T09:33:08.540Z</time>
      </trkpt>
      <trkpt lat="45.80543" lon="6.7323">
        <ele>1455</ele>
        <time>2026-08-14T09:33:09.540Z</time>
      </trkpt>
      <trkpt lat="45.80544" lon="6.73232">
        <ele>1456</ele>
        <time>2026-08-14T09:33:10.540Z</time>
      </trkpt>
      <trkpt lat="45.80546" lon="6.73232">
        <ele>1456</ele>
        <time>2026-08-14T09:33:11.540Z</time>
      </trkpt>
      <trkpt lat="45.80548" lon="6.73233">
        <ele>1456</ele>
        <time>2026-08-14T09:33:12.540Z</time>
      </trkpt>
      <trkpt lat="45.80549" lon="6.73234">
        <ele>1456</ele>
        <time>2026-08-14T09:33:13.540Z</time>
      </trkpt>
      <trkpt lat="45.8055" lon="6.73234">
        <ele>1456</ele>
        <time>2026-08-14T09:33:14.540Z</time>
      </trkpt>
      <trkpt lat="45.80551" lon="6.73235">
        <ele>1456</ele>
        <time>2026-08-14T09:33:15.540Z</time>
      </trkpt>
      <trkpt lat="45.80552" lon="6.73236">
        <ele>1456</ele>
        <time>2026-08-14T09:33:16.540Z</time>
      </trkpt>
      <trkpt lat="45.80553" lon="6.73238">
        <ele>1457</ele>
        <time>2026-08-14T09:33:17.540Z</time>
      </trkpt>
      <trkpt lat="45.80554" lon="6.73239">
        <ele>1457</ele>
        <time>2026-08-14T09:33:18.540Z</time>
      </trkpt>
      <trkpt lat="45.80554" lon="6.7324">
        <ele>1457</ele>
        <time>2026-08-14T09:33:19.540Z</time>
      </trkpt>
      <trkpt lat="45.80554" lon="6.7324">
        <ele>1457</ele>
        <time>2026-08-14T09:33:20.540Z</time>
      </trkpt>
      <trkpt lat="45.80553" lon="6.73241">
        <ele>1457</ele>
        <time>2026-08-14T09:33:21.540Z</time>
      </trkpt>
      <trkpt lat="45.80553" lon="6.73241">
        <ele>1458</ele>
        <time>2026-08-14T09:33:22.540Z</time>
      </trkpt>
      <trkpt lat="45.80552" lon="6.73241">
        <ele>1458</ele>
        <time>2026-08-14T09:33:23.540Z</time>
      </trkpt>
      <trkpt lat="45.80552" lon="6.73241">
        <ele>1458</ele>
        <time>2026-08-14T09:33:24.540Z</time>
      </trkpt>
      <trkpt lat="45.80551" lon="6.7324">
        <ele>1458</ele>
        <time>2026-08-14T09:33:25.540Z</time>
      </trkpt>
      <trkpt lat="45.80551" lon="6.7324">
        <ele>1458</ele>
        <time>2026-08-14T09:33:26.540Z</time>
      </trkpt>
      <trkpt lat="45.8055" lon="6.7324">
        <ele>1459</ele>
        <time>2026-08-14T09:33:27.540Z</time>
      </trkpt>
      <trkpt lat="45.8055" lon="6.7324">
        <ele>1459</ele>
        <time>2026-08-14T09:33:28.540Z</time>
      </trkpt>
      <trkpt lat="45.80549" lon="6.7324">
        <ele>1459</ele>
        <time>2026-08-14T09:33:29.540Z</time>
      </trkpt>
      <trkpt lat="45.80548" lon="6.7324">
        <ele>1460</ele>
        <time>2026-08-14T09:33:30.540Z</time>
      </trkpt>
      <trkpt lat="45.80547" lon="6.7324">
        <ele>1460</ele>
        <time>2026-08-14T09:33:31.540Z</time>
      </trkpt>
      <trkpt lat="45.80546" lon="6.73239">
        <ele>1460</ele>
        <time>2026-08-14T09:33:32.540Z</time>
      </trkpt>
      <trkpt lat="45.80545" lon="6.73239">
        <ele>1460</ele>
        <time>2026-08-14T09:33:33.540Z</time>
      </trkpt>
      <trkpt lat="45.80544" lon="6.73239">
        <ele>1461</ele>
        <time>2026-08-14T09:33:34.540Z</time>
      </trkpt>
      <trkpt lat="45.80542" lon="6.73238">
        <ele>1461</ele>
        <time>2026-08-14T09:33:35.540Z</time>
      </trkpt>
      <trkpt lat="45.80541" lon="6.73237">
        <ele>1461</ele>
        <time>2026-08-14T09:33:36.540Z</time>
      </trkpt>
      <trkpt lat="45.80541" lon="6.73237">
        <ele>1462</ele>
        <time>2026-08-14T09:33:37.540Z</time>
      </trkpt>
      <trkpt lat="45.80539" lon="6.73236">
        <ele>1462</ele>
        <time>2026-08-14T09:33:38.540Z</time>
      </trkpt>
      <trkpt lat="45.80538" lon="6.73236">
        <ele>1463</ele>
        <time>2026-08-14T09:33:39.540Z</time>
      </trkpt>
      <trkpt lat="45.80537" lon="6.73236">
        <ele>1464</ele>
        <time>2026-08-14T09:33:40.540Z</time>
      </trkpt>
      <trkpt lat="45.80535" lon="6.73236">
        <ele>1464</ele>
        <time>2026-08-14T09:33:41.540Z</time>
      </trkpt>
      <trkpt lat="45.80534" lon="6.73236">
        <ele>1465</ele>
        <time>2026-08-14T09:33:42.540Z</time>
      </trkpt>
      <trkpt lat="45.80533" lon="6.73236">
        <ele>1465</ele>
        <time>2026-08-14T09:33:43.540Z</time>
      </trkpt>
      <trkpt lat="45.80532" lon="6.73236">
        <ele>1466</ele>
        <time>2026-08-14T09:33:44.540Z</time>
      </trkpt>
      <trkpt lat="45.80531" lon="6.73236">
        <ele>1466</ele>
        <time>2026-08-14T09:33:45.540Z</time>
      </trkpt>
      <trkpt lat="45.8053" lon="6.73236">
        <ele>1466</ele>
        <time>2026-08-14T09:33:46.540Z</time>
      </trkpt>
      <trkpt lat="45.80529" lon="6.73237">
        <ele>1466</ele>
        <time>2026-08-14T09:33:47.540Z</time>
      </trkpt>
      <trkpt lat="45.80528" lon="6.73237">
        <ele>1467</ele>
        <time>2026-08-14T09:33:48.540Z</time>
      </trkpt>
      <trkpt lat="45.80527" lon="6.73237">
        <ele>1467</ele>
        <time>2026-08-14T09:33:49.540Z</time>
      </trkpt>
      <trkpt lat="45.80526" lon="6.73237">
        <ele>1467</ele>
        <time>2026-08-14T09:33:50.540Z</time>
      </trkpt>
      <trkpt lat="45.80525" lon="6.73237">
        <ele>1467</ele>
        <time>2026-08-14T09:33:51.540Z</time>
      </trkpt>
      <trkpt lat="45.80524" lon="6.73237">
        <ele>1468</ele>
        <time>2026-08-14T09:33:52.540Z</time>
      </trkpt>
      <trkpt lat="45.80523" lon="6.73237">
        <ele>1468</ele>
        <time>2026-08-14T09:33:53.540Z</time>
      </trkpt>
      <trkpt lat="45.80522" lon="6.73238">
        <ele>1468</ele>
        <time>2026-08-14T09:33:54.540Z</time>
      </trkpt>
      <trkpt lat="45.80521" lon="6.73239">
        <ele>1469</ele>
        <time>2026-08-14T09:33:55.540Z</time>
      </trkpt>
      <trkpt lat="45.80519" lon="6.73241">
        <ele>1470</ele>
        <time>2026-08-14T09:33:56.540Z</time>
      </trkpt>
      <trkpt lat="45.80518" lon="6.73242">
        <ele>1470</ele>
        <time>2026-08-14T09:33:57.540Z</time>
      </trkpt>
      <trkpt lat="45.80518" lon="6.73242">
        <ele>1471</ele>
        <time>2026-08-14T09:33:58.540Z</time>
      </trkpt>
      <trkpt lat="45.80517" lon="6.73242">
        <ele>1471</ele>
        <time>2026-08-14T09:33:59.540Z</time>
      </trkpt>
      <trkpt lat="45.80517" lon="6.73243">
        <ele>1472</ele>
        <time>2026-08-14T09:34:00.540Z</time>
      </trkpt>
      <trkpt lat="45.80516" lon="6.73244">
        <ele>1473</ele>
        <time>2026-08-14T09:34:01.540Z</time>
      </trkpt>
      <trkpt lat="45.80515" lon="6.73244">
        <ele>1473</ele>
        <time>2026-08-14T09:34:02.540Z</time>
      </trkpt>
      <trkpt lat="45.80514" lon="6.73244">
        <ele>1474</ele>
        <time>2026-08-14T09:34:03.540Z</time>
      </trkpt>
      <trkpt lat="45.80514" lon="6.73245">
        <ele>1474</ele>
        <time>2026-08-14T09:34:04.540Z</time>
      </trkpt>
      <trkpt lat="45.80513" lon="6.73245">
        <ele>1474</ele>
        <time>2026-08-14T09:34:05.540Z</time>
      </trkpt>
      <trkpt lat="45.80512" lon="6.73246">
        <ele>1474</ele>
        <time>2026-08-14T09:34:06.540Z</time>
      </trkpt>
      <trkpt lat="45.80511" lon="6.73247">
        <ele>1474</ele>
        <time>2026-08-14T09:34:07.540Z</time>
      </trkpt>
      <trkpt lat="45.8051" lon="6.73249">
        <ele>1475</ele>
        <time>2026-08-14T09:34:08.540Z</time>
      </trkpt>
      <trkpt lat="45.80509" lon="6.7325">
        <ele>1475</ele>
        <time>2026-08-14T09:34:09.540Z</time>
      </trkpt>
      <trkpt lat="45.80508" lon="6.73251">
        <ele>1475</ele>
        <time>2026-08-14T09:34:10.540Z</time>
      </trkpt>
      <trkpt lat="45.80507" lon="6.73252">
        <ele>1476</ele>
        <time>2026-08-14T09:34:11.540Z</time>
      </trkpt>
      <trkpt lat="45.80507" lon="6.73254">
        <ele>1476</ele>
        <time>2026-08-14T09:34:12.540Z</time>
      </trkpt>
      <trkpt lat="45.80506" lon="6.73255">
        <ele>1476</ele>
        <time>2026-08-14T09:34:13.540Z</time>
      </trkpt>
      <trkpt lat="45.80505" lon="6.73256">
        <ele>1476</ele>
        <time>2026-08-14T09:34:14.540Z</time>
      </trkpt>
      <trkpt lat="45.80504" lon="6.73257">
        <ele>1476</ele>
        <time>2026-08-14T09:34:15.540Z</time>
      </trkpt>
      <trkpt lat="45.80503" lon="6.73259">
        <ele>1476</ele>
        <time>2026-08-14T09:34:16.540Z</time>
      </trkpt>
      <trkpt lat="45.80502" lon="6.7326">
        <ele>1476</ele>
        <time>2026-08-14T09:34:17.540Z</time>
      </trkpt>
      <trkpt lat="45.80501" lon="6.73261">
        <ele>1476</ele>
        <time>2026-08-14T09:34:18.540Z</time>
      </trkpt>
      <trkpt lat="45.805" lon="6.73263">
        <ele>1476</ele>
        <time>2026-08-14T09:34:19.540Z</time>
      </trkpt>
      <trkpt lat="45.80499" lon="6.73264">
        <ele>1477</ele>
        <time>2026-08-14T09:34:20.540Z</time>
      </trkpt>
      <trkpt lat="45.80498" lon="6.73265">
        <ele>1477</ele>
        <time>2026-08-14T09:34:21.540Z</time>
      </trkpt>
      <trkpt lat="45.80498" lon="6.73266">
        <ele>1477</ele>
        <time>2026-08-14T09:34:22.540Z</time>
      </trkpt>
      <trkpt lat="45.80497" lon="6.73267">
        <ele>1477</ele>
        <time>2026-08-14T09:34:23.540Z</time>
      </trkpt>
      <trkpt lat="45.80497" lon="6.73268">
        <ele>1476</ele>
        <time>2026-08-14T09:34:24.540Z</time>
      </trkpt>
      <trkpt lat="45.80497" lon="6.73269">
        <ele>1476</ele>
        <time>2026-08-14T09:34:25.540Z</time>
      </trkpt>
      <trkpt lat="45.80497" lon="6.73268">
        <ele>1476</ele>
        <time>2026-08-14T09:34:26.540Z</time>
      </trkpt>
      <trkpt lat="45.80495" lon="6.73265">
        <ele>1476</ele>
        <time>2026-08-14T09:34:27.540Z</time>
      </trkpt>
      <trkpt lat="45.80493" lon="6.73263">
        <ele>1475</ele>
        <time>2026-08-14T09:34:28.540Z</time>
      </trkpt>
      <trkpt lat="45.80492" lon="6.73262">
        <ele>1475</ele>
        <time>2026-08-14T09:34:29.540Z</time>
      </trkpt>
      <trkpt lat="45.80491" lon="6.7326">
        <ele>1476</ele>
        <time>2026-08-14T09:34:30.540Z</time>
      </trkpt>
      <trkpt lat="45.80493" lon="6.73259">
        <ele>1476</ele>
        <time>2026-08-14T09:34:31.540Z</time>
      </trkpt>
      <trkpt lat="45.80494" lon="6.73258">
        <ele>1476</ele>
        <time>2026-08-14T09:34:32.540Z</time>
      </trkpt>
      <trkpt lat="45.80495" lon="6.73258">
        <ele>1476</ele>
        <time>2026-08-14T09:34:33.540Z</time>
      </trkpt>
      <trkpt lat="45.80496" lon="6.73259">
        <ele>1476</ele>
        <time>2026-08-14T09:34:34.540Z</time>
      </trkpt>
      <trkpt lat="45.80498" lon="6.73259">
        <ele>1477</ele>
        <time>2026-08-14T09:34:35.540Z</time>
      </trkpt>
      <trkpt lat="45.805" lon="6.73259">
        <ele>1477</ele>
        <time>2026-08-14T09:34:36.540Z</time>
      </trkpt>
      <trkpt lat="45.80501" lon="6.73258">
        <ele>1477</ele>
        <time>2026-08-14T09:34:37.540Z</time>
      </trkpt>
      <trkpt lat="45.80503" lon="6.73258">
        <ele>1477</ele>
        <time>2026-08-14T09:34:38.540Z</time>
      </trkpt>
      <trkpt lat="45.80505" lon="6.73258">
        <ele>1478</ele>
        <time>2026-08-14T09:34:39.540Z</time>
      </trkpt>
      <trkpt lat="45.80507" lon="6.73258">
        <ele>1478</ele>
        <time>2026-08-14T09:34:40.540Z</time>
      </trkpt>
      <trkpt lat="45.80508" lon="6.73257">
        <ele>1479</ele>
        <time>2026-08-14T09:34:41.540Z</time>
      </trkpt>
      <trkpt lat="45.80509" lon="6.73257">
        <ele>1479</ele>
        <time>2026-08-14T09:34:42.540Z</time>
      </trkpt>
      <trkpt lat="45.8051" lon="6.73257">
        <ele>1480</ele>
        <time>2026-08-14T09:34:43.540Z</time>
      </trkpt>
      <trkpt lat="45.80511" lon="6.73257">
        <ele>1480</ele>
        <time>2026-08-14T09:34:44.540Z</time>
      </trkpt>
      <trkpt lat="45.80513" lon="6.73257">
        <ele>1481</ele>
        <time>2026-08-14T09:34:45.540Z</time>
      </trkpt>
      <trkpt lat="45.80514" lon="6.73257">
        <ele>1481</ele>
        <time>2026-08-14T09:34:46.540Z</time>
      </trkpt>
      <trkpt lat="45.80515" lon="6.73256">
        <ele>1481</ele>
        <time>2026-08-14T09:34:47.540Z</time>
      </trkpt>
      <trkpt lat="45.80515" lon="6.73256">
        <ele>1482</ele>
        <time>2026-08-14T09:34:48.540Z</time>
      </trkpt>
      <trkpt lat="45.80516" lon="6.73256">
        <ele>1482</ele>
        <time>2026-08-14T09:34:49.540Z</time>
      </trkpt>
      <trkpt lat="45.80517" lon="6.73257">
        <ele>1482</ele>
        <time>2026-08-14T09:34:50.540Z</time>
      </trkpt>
      <trkpt lat="45.80518" lon="6.73257">
        <ele>1483</ele>
        <time>2026-08-14T09:34:51.540Z</time>
      </trkpt>
      <trkpt lat="45.80519" lon="6.73258">
        <ele>1483</ele>
        <time>2026-08-14T09:34:52.540Z</time>
      </trkpt>
      <trkpt lat="45.80521" lon="6.73259">
        <ele>1483</ele>
        <time>2026-08-14T09:34:53.540Z</time>
      </trkpt>
      <trkpt lat="45.80522" lon="6.73259">
        <ele>1483</ele>
        <time>2026-08-14T09:34:54.540Z</time>
      </trkpt>
      <trkpt lat="45.80523" lon="6.73259">
        <ele>1483</ele>
        <time>2026-08-14T09:34:55.540Z</time>
      </trkpt>
      <trkpt lat="45.80524" lon="6.73258">
        <ele>1484</ele>
        <time>2026-08-14T09:34:56.540Z</time>
      </trkpt>
      <trkpt lat="45.80525" lon="6.73258">
        <ele>1484</ele>
        <time>2026-08-14T09:34:57.540Z</time>
      </trkpt>
      <trkpt lat="45.80526" lon="6.73257">
        <ele>1484</ele>
        <time>2026-08-14T09:34:58.540Z</time>
      </trkpt>
      <trkpt lat="45.80528" lon="6.73257">
        <ele>1485</ele>
        <time>2026-08-14T09:34:59.540Z</time>
      </trkpt>
      <trkpt lat="45.80529" lon="6.73257">
        <ele>1485</ele>
        <time>2026-08-14T09:35:00.540Z</time>
      </trkpt>
      <trkpt lat="45.8053" lon="6.73258">
        <ele>1485</ele>
        <time>2026-08-14T09:35:01.540Z</time>
      </trkpt>
      <trkpt lat="45.80531" lon="6.73258">
        <ele>1486</ele>
        <time>2026-08-14T09:35:02.540Z</time>
      </trkpt>
      <trkpt lat="45.80532" lon="6.73259">
        <ele>1486</ele>
        <time>2026-08-14T09:35:03.540Z</time>
      </trkpt>
      <trkpt lat="45.80532" lon="6.7326">
        <ele>1486</ele>
        <time>2026-08-14T09:35:04.540Z</time>
      </trkpt>
      <trkpt lat="45.80533" lon="6.73261">
        <ele>1486</ele>
        <time>2026-08-14T09:35:05.540Z</time>
      </trkpt>
      <trkpt lat="45.80532" lon="6.73261">
        <ele>1486</ele>
        <time>2026-08-14T09:35:06.540Z</time>
      </trkpt>
      <trkpt lat="45.80533" lon="6.73261">
        <ele>1486</ele>
        <time>2026-08-14T09:35:07.540Z</time>
      </trkpt>
      <trkpt lat="45.80535" lon="6.73262">
        <ele>1486</ele>
        <time>2026-08-14T09:35:08.540Z</time>
      </trkpt>
      <trkpt lat="45.80536" lon="6.73262">
        <ele>1486</ele>
        <time>2026-08-14T09:35:09.540Z</time>
      </trkpt>
      <trkpt lat="45.80538" lon="6.73263">
        <ele>1486</ele>
        <time>2026-08-14T09:35:10.540Z</time>
      </trkpt>
      <trkpt lat="45.80539" lon="6.73264">
        <ele>1485</ele>
        <time>2026-08-14T09:35:11.540Z</time>
      </trkpt>
      <trkpt lat="45.80541" lon="6.73265">
        <ele>1485</ele>
        <time>2026-08-14T09:35:12.540Z</time>
      </trkpt>
      <trkpt lat="45.80541" lon="6.73266">
        <ele>1485</ele>
        <time>2026-08-14T09:35:13.540Z</time>
      </trkpt>
      <trkpt lat="45.80542" lon="6.73267">
        <ele>1485</ele>
        <time>2026-08-14T09:35:14.540Z</time>
      </trkpt>
      <trkpt lat="45.80543" lon="6.73268">
        <ele>1485</ele>
        <time>2026-08-14T09:35:15.540Z</time>
      </trkpt>
      <trkpt lat="45.80543" lon="6.73269">
        <ele>1485</ele>
        <time>2026-08-14T09:35:16.540Z</time>
      </trkpt>
      <trkpt lat="45.80544" lon="6.7327">
        <ele>1485</ele>
        <time>2026-08-14T09:35:17.540Z</time>
      </trkpt>
      <trkpt lat="45.80544" lon="6.73271">
        <ele>1485</ele>
        <time>2026-08-14T09:35:18.540Z</time>
      </trkpt>
      <trkpt lat="45.80545" lon="6.73272">
        <ele>1485</ele>
        <time>2026-08-14T09:35:19.540Z</time>
      </trkpt>
      <trkpt lat="45.80546" lon="6.73273">
        <ele>1484</ele>
        <time>2026-08-14T09:35:20.540Z</time>
      </trkpt>
      <trkpt lat="45.80546" lon="6.73274">
        <ele>1484</ele>
        <time>2026-08-14T09:35:21.540Z</time>
      </trkpt>
      <trkpt lat="45.80547" lon="6.73275">
        <ele>1484</ele>
        <time>2026-08-14T09:35:22.540Z</time>
      </trkpt>
      <trkpt lat="45.80548" lon="6.73276">
        <ele>1484</ele>
        <time>2026-08-14T09:35:23.540Z</time>
      </trkpt>
      <trkpt lat="45.80549" lon="6.73277">
        <ele>1484</ele>
        <time>2026-08-14T09:35:24.540Z</time>
      </trkpt>
      <trkpt lat="45.8055" lon="6.73277">
        <ele>1484</ele>
        <time>2026-08-14T09:35:25.540Z</time>
      </trkpt>
      <trkpt lat="45.80551" lon="6.73279">
        <ele>1484</ele>
        <time>2026-08-14T09:35:26.540Z</time>
      </trkpt>
      <trkpt lat="45.80551" lon="6.7328">
        <ele>1484</ele>
        <time>2026-08-14T09:35:27.540Z</time>
      </trkpt>
      <trkpt lat="45.80552" lon="6.73282">
        <ele>1484</ele>
        <time>2026-08-14T09:35:28.540Z</time>
      </trkpt>
      <trkpt lat="45.80553" lon="6.73284">
        <ele>1484</ele>
        <time>2026-08-14T09:35:29.540Z</time>
      </trkpt>
      <trkpt lat="45.80554" lon="6.73285">
        <ele>1484</ele>
        <time>2026-08-14T09:35:30.540Z</time>
      </trkpt>
      <trkpt lat="45.80554" lon="6.73287">
        <ele>1484</ele>
        <time>2026-08-14T09:35:31.540Z</time>
      </trkpt>
      <trkpt lat="45.80554" lon="6.73289">
        <ele>1484</ele>
        <time>2026-08-14T09:35:32.540Z</time>
      </trkpt>
      <trkpt lat="45.80555" lon="6.7329">
        <ele>1484</ele>
        <time>2026-08-14T09:35:33.540Z</time>
      </trkpt>
      <trkpt lat="45.80555" lon="6.73292">
        <ele>1484</ele>
        <time>2026-08-14T09:35:34.540Z</time>
      </trkpt>
      <trkpt lat="45.80555" lon="6.73294">
        <ele>1484</ele>
        <time>2026-08-14T09:35:35.540Z</time>
      </trkpt>
      <trkpt lat="45.80555" lon="6.73296">
        <ele>1485</ele>
        <time>2026-08-14T09:35:36.540Z</time>
      </trkpt>
      <trkpt lat="45.80556" lon="6.73298">
        <ele>1485</ele>
        <time>2026-08-14T09:35:37.540Z</time>
      </trkpt>
      <trkpt lat="45.80556" lon="6.73299">
        <ele>1485</ele>
        <time>2026-08-14T09:35:38.540Z</time>
      </trkpt>
      <trkpt lat="45.80556" lon="6.73301">
        <ele>1485</ele>
        <time>2026-08-14T09:35:39.540Z</time>
      </trkpt>
      <trkpt lat="45.80557" lon="6.73302">
        <ele>1485</ele>
        <time>2026-08-14T09:35:40.540Z</time>
      </trkpt>
      <trkpt lat="45.80557" lon="6.73303">
        <ele>1485</ele>
        <time>2026-08-14T09:35:41.540Z</time>
      </trkpt>
      <trkpt lat="45.80557" lon="6.73304">
        <ele>1485</ele>
        <time>2026-08-14T09:35:42.540Z</time>
      </trkpt>
      <trkpt lat="45.80557" lon="6.73304">
        <ele>1486</ele>
        <time>2026-08-14T09:35:43.540Z</time>
      </trkpt>
      <trkpt lat="45.80557" lon="6.73303">
        <ele>1486</ele>
        <time>2026-08-14T09:35:44.540Z</time>
      </trkpt>
      <trkpt lat="45.80557" lon="6.73302">
        <ele>1487</ele>
        <time>2026-08-14T09:35:45.540Z</time>
      </trkpt>
      <trkpt lat="45.80556" lon="6.73301">
        <ele>1487</ele>
        <time>2026-08-14T09:35:46.540Z</time>
      </trkpt>
      <trkpt lat="45.80556" lon="6.733">
        <ele>1488</ele>
        <time>2026-08-14T09:35:47.540Z</time>
      </trkpt>
      <trkpt lat="45.80556" lon="6.733">
        <ele>1489</ele>
        <time>2026-08-14T09:35:48.540Z</time>
      </trkpt>
      <trkpt lat="45.80555" lon="6.73299">
        <ele>1490</ele>
        <time>2026-08-14T09:35:49.540Z</time>
      </trkpt>
      <trkpt lat="45.80555" lon="6.73299">
        <ele>1491</ele>
        <time>2026-08-14T09:35:50.540Z</time>
      </trkpt>
      <trkpt lat="45.80554" lon="6.73298">
        <ele>1491</ele>
        <time>2026-08-14T09:35:51.540Z</time>
      </trkpt>
      <trkpt lat="45.80553" lon="6.73297">
        <ele>1492</ele>
        <time>2026-08-14T09:35:52.540Z</time>
      </trkpt>
      <trkpt lat="45.80553" lon="6.73297">
        <ele>1493</ele>
        <time>2026-08-14T09:35:53.540Z</time>
      </trkpt>
      <trkpt lat="45.80553" lon="6.73296">
        <ele>1493</ele>
        <time>2026-08-14T09:35:54.540Z</time>
      </trkpt>
      <trkpt lat="45.80552" lon="6.73296">
        <ele>1494</ele>
        <time>2026-08-14T09:35:55.540Z</time>
      </trkpt>
      <trkpt lat="45.80552" lon="6.73296">
        <ele>1494</ele>
        <time>2026-08-14T09:35:56.540Z</time>
      </trkpt>
      <trkpt lat="45.80551" lon="6.73295">
        <ele>1494</ele>
        <time>2026-08-14T09:35:57.540Z</time>
      </trkpt>
      <trkpt lat="45.8055" lon="6.73295">
        <ele>1494</ele>
        <time>2026-08-14T09:35:58.540Z</time>
      </trkpt>
      <trkpt lat="45.8055" lon="6.73295">
        <ele>1494</ele>
        <time>2026-08-14T09:35:59.540Z</time>
      </trkpt>
      <trkpt lat="45.80549" lon="6.73295">
        <ele>1494</ele>
        <time>2026-08-14T09:36:00.540Z</time>
      </trkpt>
      <trkpt lat="45.80548" lon="6.73295">
        <ele>1494</ele>
        <time>2026-08-14T09:36:01.540Z</time>
      </trkpt>
      <trkpt lat="45.80548" lon="6.73295">
        <ele>1494</ele>
        <time>2026-08-14T09:36:02.540Z</time>
      </trkpt>
      <trkpt lat="45.80546" lon="6.73295">
        <ele>1495</ele>
        <time>2026-08-14T09:36:03.540Z</time>
      </trkpt>
      <trkpt lat="45.80545" lon="6.73295">
        <ele>1495</ele>
        <time>2026-08-14T09:36:04.540Z</time>
      </trkpt>
      <trkpt lat="45.80544" lon="6.73295">
        <ele>1495</ele>
        <time>2026-08-14T09:36:05.540Z</time>
      </trkpt>
      <trkpt lat="45.80544" lon="6.73295">
        <ele>1496</ele>
        <time>2026-08-14T09:36:06.540Z</time>
      </trkpt>
      <trkpt lat="45.80542" lon="6.73295">
        <ele>1497</ele>
        <time>2026-08-14T09:36:07.540Z</time>
      </trkpt>
      <trkpt lat="45.80541" lon="6.73295">
        <ele>1497</ele>
        <time>2026-08-14T09:36:08.540Z</time>
      </trkpt>
      <trkpt lat="45.8054" lon="6.73295">
        <ele>1498</ele>
        <time>2026-08-14T09:36:09.540Z</time>
      </trkpt>
      <trkpt lat="45.8054" lon="6.73295">
        <ele>1498</ele>
        <time>2026-08-14T09:36:10.540Z</time>
      </trkpt>
      <trkpt lat="45.80538" lon="6.73296">
        <ele>1498</ele>
        <time>2026-08-14T09:36:11.540Z</time>
      </trkpt>
      <trkpt lat="45.80538" lon="6.73297">
        <ele>1498</ele>
        <time>2026-08-14T09:36:12.540Z</time>
      </trkpt>
      <trkpt lat="45.80537" lon="6.73298">
        <ele>1498</ele>
        <time>2026-08-14T09:36:13.540Z</time>
      </trkpt>
      <trkpt lat="45.80536" lon="6.73299">
        <ele>1498</ele>
        <time>2026-08-14T09:36:14.540Z</time>
      </trkpt>
      <trkpt lat="45.80535" lon="6.733">
        <ele>1498</ele>
        <time>2026-08-14T09:36:15.540Z</time>
      </trkpt>
      <trkpt lat="45.80535" lon="6.73301">
        <ele>1499</ele>
        <time>2026-08-14T09:36:16.540Z</time>
      </trkpt>
      <trkpt lat="45.80534" lon="6.73302">
        <ele>1499</ele>
        <time>2026-08-14T09:36:17.540Z</time>
      </trkpt>
      <trkpt lat="45.80533" lon="6.73302">
        <ele>1500</ele>
        <time>2026-08-14T09:36:18.540Z</time>
      </trkpt>
      <trkpt lat="45.80533" lon="6.73303">
        <ele>1501</ele>
        <time>2026-08-14T09:36:19.540Z</time>
      </trkpt>
      <trkpt lat="45.80532" lon="6.73303">
        <ele>1501</ele>
        <time>2026-08-14T09:36:20.540Z</time>
      </trkpt>
      <trkpt lat="45.80532" lon="6.73304">
        <ele>1501</ele>
        <time>2026-08-14T09:36:21.540Z</time>
      </trkpt>
      <trkpt lat="45.80531" lon="6.73304">
        <ele>1502</ele>
        <time>2026-08-14T09:36:22.540Z</time>
      </trkpt>
      <trkpt lat="45.8053" lon="6.73306">
        <ele>1502</ele>
        <time>2026-08-14T09:36:23.540Z</time>
      </trkpt>
      <trkpt lat="45.8053" lon="6.73306">
        <ele>1502</ele>
        <time>2026-08-14T09:36:24.540Z</time>
      </trkpt>
      <trkpt lat="45.80529" lon="6.73306">
        <ele>1503</ele>
        <time>2026-08-14T09:36:25.540Z</time>
      </trkpt>
      <trkpt lat="45.80528" lon="6.73307">
        <ele>1503</ele>
        <time>2026-08-14T09:36:26.540Z</time>
      </trkpt>
      <trkpt lat="45.80526" lon="6.73307">
        <ele>1504</ele>
        <time>2026-08-14T09:36:27.540Z</time>
      </trkpt>
      <trkpt lat="45.80524" lon="6.73308">
        <ele>1504</ele>
        <time>2026-08-14T09:36:28.540Z</time>
      </trkpt>
      <trkpt lat="45.80523" lon="6.73308">
        <ele>1504</ele>
        <time>2026-08-14T09:36:29.540Z</time>
      </trkpt>
      <trkpt lat="45.80522" lon="6.73309">
        <ele>1505</ele>
        <time>2026-08-14T09:36:30.540Z</time>
      </trkpt>
      <trkpt lat="45.80521" lon="6.7331">
        <ele>1505</ele>
        <time>2026-08-14T09:36:31.540Z</time>
      </trkpt>
      <trkpt lat="45.80519" lon="6.73311">
        <ele>1505</ele>
        <time>2026-08-14T09:36:32.540Z</time>
      </trkpt>
      <trkpt lat="45.80518" lon="6.73313">
        <ele>1505</ele>
        <time>2026-08-14T09:36:33.540Z</time>
      </trkpt>
      <trkpt lat="45.80518" lon="6.73313">
        <ele>1505</ele>
        <time>2026-08-14T09:36:34.540Z</time>
      </trkpt>
      <trkpt lat="45.80517" lon="6.73313">
        <ele>1505</ele>
        <time>2026-08-14T09:36:35.540Z</time>
      </trkpt>
      <trkpt lat="45.80516" lon="6.73314">
        <ele>1505</ele>
        <time>2026-08-14T09:36:36.540Z</time>
      </trkpt>
      <trkpt lat="45.80515" lon="6.73315">
        <ele>1506</ele>
        <time>2026-08-14T09:36:37.540Z</time>
      </trkpt>
      <trkpt lat="45.80513" lon="6.73315">
        <ele>1506</ele>
        <time>2026-08-14T09:36:38.540Z</time>
      </trkpt>
      <trkpt lat="45.80512" lon="6.73316">
        <ele>1506</ele>
        <time>2026-08-14T09:36:39.540Z</time>
      </trkpt>
      <trkpt lat="45.8051" lon="6.73317">
        <ele>1506</ele>
        <time>2026-08-14T09:36:40.540Z</time>
      </trkpt>
      <trkpt lat="45.80508" lon="6.73318">
        <ele>1506</ele>
        <time>2026-08-14T09:36:41.540Z</time>
      </trkpt>
      <trkpt lat="45.80507" lon="6.73319">
        <ele>1505</ele>
        <time>2026-08-14T09:36:42.540Z</time>
      </trkpt>
      <trkpt lat="45.80506" lon="6.73321">
        <ele>1505</ele>
        <time>2026-08-14T09:36:43.540Z</time>
      </trkpt>
      <trkpt lat="45.80505" lon="6.73322">
        <ele>1505</ele>
        <time>2026-08-14T09:36:44.540Z</time>
      </trkpt>
      <trkpt lat="45.80504" lon="6.73323">
        <ele>1504</ele>
        <time>2026-08-14T09:36:45.540Z</time>
      </trkpt>
      <trkpt lat="45.80503" lon="6.73324">
        <ele>1504</ele>
        <time>2026-08-14T09:36:46.540Z</time>
      </trkpt>
      <trkpt lat="45.80502" lon="6.73325">
        <ele>1504</ele>
        <time>2026-08-14T09:36:47.540Z</time>
      </trkpt>
      <trkpt lat="45.80502" lon="6.73327">
        <ele>1504</ele>
        <time>2026-08-14T09:36:48.540Z</time>
      </trkpt>
      <trkpt lat="45.80501" lon="6.73328">
        <ele>1503</ele>
        <time>2026-08-14T09:36:49.540Z</time>
      </trkpt>
      <trkpt lat="45.805" lon="6.73329">
        <ele>1503</ele>
        <time>2026-08-14T09:36:50.540Z</time>
      </trkpt>
      <trkpt lat="45.80499" lon="6.73331">
        <ele>1503</ele>
        <time>2026-08-14T09:36:51.540Z</time>
      </trkpt>
      <trkpt lat="45.80498" lon="6.73333">
        <ele>1503</ele>
        <time>2026-08-14T09:36:52.540Z</time>
      </trkpt>
      <trkpt lat="45.80497" lon="6.73334">
        <ele>1503</ele>
        <time>2026-08-14T09:36:53.540Z</time>
      </trkpt>
      <trkpt lat="45.80497" lon="6.73335">
        <ele>1503</ele>
        <time>2026-08-14T09:36:54.540Z</time>
      </trkpt>
      <trkpt lat="45.80496" lon="6.73336">
        <ele>1503</ele>
        <time>2026-08-14T09:36:55.540Z</time>
      </trkpt>
      <trkpt lat="45.80496" lon="6.73337">
        <ele>1503</ele>
        <time>2026-08-14T09:36:56.540Z</time>
      </trkpt>
      <trkpt lat="45.80495" lon="6.73338">
        <ele>1503</ele>
        <time>2026-08-14T09:36:57.540Z</time>
      </trkpt>
      <trkpt lat="45.80495" lon="6.73339">
        <ele>1503</ele>
        <time>2026-08-14T09:36:58.540Z</time>
      </trkpt>
      <trkpt lat="45.80495" lon="6.7334">
        <ele>1503</ele>
        <time>2026-08-14T09:36:59.540Z</time>
      </trkpt>
      <trkpt lat="45.80494" lon="6.73342">
        <ele>1503</ele>
        <time>2026-08-14T09:37:00.540Z</time>
      </trkpt>
      <trkpt lat="45.80494" lon="6.73343">
        <ele>1503</ele>
        <time>2026-08-14T09:37:01.540Z</time>
      </trkpt>
      <trkpt lat="45.80493" lon="6.73344">
        <ele>1503</ele>
        <time>2026-08-14T09:37:02.540Z</time>
      </trkpt>
      <trkpt lat="45.80492" lon="6.73345">
        <ele>1503</ele>
        <time>2026-08-14T09:37:03.540Z</time>
      </trkpt>
      <trkpt lat="45.80491" lon="6.73347">
        <ele>1503</ele>
        <time>2026-08-14T09:37:04.540Z</time>
      </trkpt>
      <trkpt lat="45.80491" lon="6.73349">
        <ele>1504</ele>
        <time>2026-08-14T09:37:05.540Z</time>
      </trkpt>
      <trkpt lat="45.80491" lon="6.7335">
        <ele>1504</ele>
        <time>2026-08-14T09:37:06.540Z</time>
      </trkpt>
      <trkpt lat="45.8049" lon="6.73351">
        <ele>1504</ele>
        <time>2026-08-14T09:37:07.540Z</time>
      </trkpt>
      <trkpt lat="45.80489" lon="6.73353">
        <ele>1504</ele>
        <time>2026-08-14T09:37:08.540Z</time>
      </trkpt>
      <trkpt lat="45.80489" lon="6.73354">
        <ele>1504</ele>
        <time>2026-08-14T09:37:09.540Z</time>
      </trkpt>
      <trkpt lat="45.80489" lon="6.73356">
        <ele>1504</ele>
        <time>2026-08-14T09:37:10.540Z</time>
      </trkpt>
      <trkpt lat="45.80488" lon="6.73359">
        <ele>1504</ele>
        <time>2026-08-14T09:37:11.540Z</time>
      </trkpt>
      <trkpt lat="45.80487" lon="6.73361">
        <ele>1504</ele>
        <time>2026-08-14T09:37:12.540Z</time>
      </trkpt>
      <trkpt lat="45.80487" lon="6.73362">
        <ele>1504</ele>
        <time>2026-08-14T09:37:13.540Z</time>
      </trkpt>
      <trkpt lat="45.80487" lon="6.73363">
        <ele>1504</ele>
        <time>2026-08-14T09:37:14.540Z</time>
      </trkpt>
      <trkpt lat="45.80486" lon="6.73366">
        <ele>1505</ele>
        <time>2026-08-14T09:37:15.540Z</time>
      </trkpt>
      <trkpt lat="45.80485" lon="6.73368">
        <ele>1505</ele>
        <time>2026-08-14T09:37:16.540Z</time>
      </trkpt>
      <trkpt lat="45.80485" lon="6.73369">
        <ele>1505</ele>
        <time>2026-08-14T09:37:17.540Z</time>
      </trkpt>
      <trkpt lat="45.80485" lon="6.7337">
        <ele>1506</ele>
        <time>2026-08-14T09:37:18.540Z</time>
      </trkpt>
      <trkpt lat="45.80485" lon="6.73371">
        <ele>1506</ele>
        <time>2026-08-14T09:37:19.540Z</time>
      </trkpt>
      <trkpt lat="45.80484" lon="6.73372">
        <ele>1507</ele>
        <time>2026-08-14T09:37:20.540Z</time>
      </trkpt>
      <trkpt lat="45.80484" lon="6.73373">
        <ele>1507</ele>
        <time>2026-08-14T09:37:21.540Z</time>
      </trkpt>
      <trkpt lat="45.80484" lon="6.73375">
        <ele>1507</ele>
        <time>2026-08-14T09:37:22.540Z</time>
      </trkpt>
      <trkpt lat="45.80483" lon="6.73377">
        <ele>1508</ele>
        <time>2026-08-14T09:37:23.540Z</time>
      </trkpt>
      <trkpt lat="45.80482" lon="6.73378">
        <ele>1508</ele>
        <time>2026-08-14T09:37:24.540Z</time>
      </trkpt>
      <trkpt lat="45.80481" lon="6.73379">
        <ele>1508</ele>
        <time>2026-08-14T09:37:25.540Z</time>
      </trkpt>
      <trkpt lat="45.80481" lon="6.73379">
        <ele>1508</ele>
        <time>2026-08-14T09:37:26.540Z</time>
      </trkpt>
      <trkpt lat="45.8048" lon="6.7338">
        <ele>1509</ele>
        <time>2026-08-14T09:37:27.540Z</time>
      </trkpt>
      <trkpt lat="45.8048" lon="6.73381">
        <ele>1509</ele>
        <time>2026-08-14T09:37:28.540Z</time>
      </trkpt>
      <trkpt lat="45.80479" lon="6.73383">
        <ele>1509</ele>
        <time>2026-08-14T09:37:29.540Z</time>
      </trkpt>
      <trkpt lat="45.80478" lon="6.73384">
        <ele>1509</ele>
        <time>2026-08-14T09:37:30.540Z</time>
      </trkpt>
      <trkpt lat="45.80476" lon="6.73385">
        <ele>1510</ele>
        <time>2026-08-14T09:37:31.540Z</time>
      </trkpt>
      <trkpt lat="45.80475" lon="6.73386">
        <ele>1510</ele>
        <time>2026-08-14T09:37:32.540Z</time>
      </trkpt>
      <trkpt lat="45.80474" lon="6.73387">
        <ele>1510</ele>
        <time>2026-08-14T09:37:33.540Z</time>
      </trkpt>
      <trkpt lat="45.80474" lon="6.73387">
        <ele>1510</ele>
        <time>2026-08-14T09:37:34.540Z</time>
      </trkpt>
      <trkpt lat="45.80474" lon="6.73388">
        <ele>1510</ele>
        <time>2026-08-14T09:37:35.540Z</time>
      </trkpt>
      <trkpt lat="45.80475" lon="6.73388">
        <ele>1511</ele>
        <time>2026-08-14T09:37:36.540Z</time>
      </trkpt>
      <trkpt lat="45.80475" lon="6.73388">
        <ele>1511</ele>
        <time>2026-08-14T09:37:37.540Z</time>
      </trkpt>
      <trkpt lat="45.80475" lon="6.73389">
        <ele>1512</ele>
        <time>2026-08-14T09:37:38.540Z</time>
      </trkpt>
      <trkpt lat="45.80476" lon="6.7339">
        <ele>1512</ele>
        <time>2026-08-14T09:37:39.540Z</time>
      </trkpt>
      <trkpt lat="45.80476" lon="6.73389">
        <ele>1513</ele>
        <time>2026-08-14T09:37:40.540Z</time>
      </trkpt>
      <trkpt lat="45.80477" lon="6.73389">
        <ele>1513</ele>
        <time>2026-08-14T09:37:41.540Z</time>
      </trkpt>
      <trkpt lat="45.80477" lon="6.73389">
        <ele>1513</ele>
        <time>2026-08-14T09:37:42.540Z</time>
      </trkpt>
      <trkpt lat="45.80478" lon="6.73388">
        <ele>1514</ele>
        <time>2026-08-14T09:37:43.540Z</time>
      </trkpt>
      <trkpt lat="45.80479" lon="6.73387">
        <ele>1514</ele>
        <time>2026-08-14T09:37:44.540Z</time>
      </trkpt>
      <trkpt lat="45.80479" lon="6.73386">
        <ele>1515</ele>
        <time>2026-08-14T09:37:45.540Z</time>
      </trkpt>
      <trkpt lat="45.8048" lon="6.73385">
        <ele>1515</ele>
        <time>2026-08-14T09:37:46.540Z</time>
      </trkpt>
      <trkpt lat="45.80481" lon="6.73384">
        <ele>1515</ele>
        <time>2026-08-14T09:37:47.540Z</time>
      </trkpt>
      <trkpt lat="45.80482" lon="6.73384">
        <ele>1515</ele>
        <time>2026-08-14T09:37:48.540Z</time>
      </trkpt>
      <trkpt lat="45.80482" lon="6.73383">
        <ele>1515</ele>
        <time>2026-08-14T09:37:49.540Z</time>
      </trkpt>
      <trkpt lat="45.80483" lon="6.73382">
        <ele>1515</ele>
        <time>2026-08-14T09:37:50.540Z</time>
      </trkpt>
      <trkpt lat="45.80483" lon="6.7338">
        <ele>1515</ele>
        <time>2026-08-14T09:37:51.540Z</time>
      </trkpt>
      <trkpt lat="45.80484" lon="6.73378">
        <ele>1514</ele>
        <time>2026-08-14T09:37:52.540Z</time>
      </trkpt>
      <trkpt lat="45.80484" lon="6.73377">
        <ele>1514</ele>
        <time>2026-08-14T09:37:53.540Z</time>
      </trkpt>
      <trkpt lat="45.80485" lon="6.73375">
        <ele>1514</ele>
        <time>2026-08-14T09:37:54.540Z</time>
      </trkpt>
      <trkpt lat="45.80486" lon="6.73374">
        <ele>1514</ele>
        <time>2026-08-14T09:37:55.540Z</time>
      </trkpt>
      <trkpt lat="45.80487" lon="6.73373">
        <ele>1514</ele>
        <time>2026-08-14T09:37:56.540Z</time>
      </trkpt>
      <trkpt lat="45.80488" lon="6.73372">
        <ele>1515</ele>
        <time>2026-08-14T09:37:57.540Z</time>
      </trkpt>
      <trkpt lat="45.80488" lon="6.73371">
        <ele>1516</ele>
        <time>2026-08-14T09:37:58.540Z</time>
      </trkpt>
      <trkpt lat="45.80489" lon="6.7337">
        <ele>1516</ele>
        <time>2026-08-14T09:37:59.540Z</time>
      </trkpt>
      <trkpt lat="45.8049" lon="6.73369">
        <ele>1516</ele>
        <time>2026-08-14T09:38:00.540Z</time>
      </trkpt>
      <trkpt lat="45.80491" lon="6.73368">
        <ele>1516</ele>
        <time>2026-08-14T09:38:01.540Z</time>
      </trkpt>
      <trkpt lat="45.80491" lon="6.73367">
        <ele>1516</ele>
        <time>2026-08-14T09:38:02.540Z</time>
      </trkpt>
      <trkpt lat="45.80492" lon="6.73366">
        <ele>1517</ele>
        <time>2026-08-14T09:38:03.540Z</time>
      </trkpt>
      <trkpt lat="45.80493" lon="6.73365">
        <ele>1517</ele>
        <time>2026-08-14T09:38:04.540Z</time>
      </trkpt>
      <trkpt lat="45.80494" lon="6.73364">
        <ele>1517</ele>
        <time>2026-08-14T09:38:05.540Z</time>
      </trkpt>
      <trkpt lat="45.80495" lon="6.73364">
        <ele>1517</ele>
        <time>2026-08-14T09:38:06.540Z</time>
      </trkpt>
      <trkpt lat="45.80496" lon="6.73364">
        <ele>1517</ele>
        <time>2026-08-14T09:38:07.540Z</time>
      </trkpt>
      <trkpt lat="45.80497" lon="6.73364">
        <ele>1518</ele>
        <time>2026-08-14T09:38:08.540Z</time>
      </trkpt>
      <trkpt lat="45.80498" lon="6.73364">
        <ele>1518</ele>
        <time>2026-08-14T09:38:09.540Z</time>
      </trkpt>
      <trkpt lat="45.80499" lon="6.73363">
        <ele>1518</ele>
        <time>2026-08-14T09:38:10.540Z</time>
      </trkpt>
      <trkpt lat="45.805" lon="6.73361">
        <ele>1518</ele>
        <time>2026-08-14T09:38:11.540Z</time>
      </trkpt>
      <trkpt lat="45.805" lon="6.7336">
        <ele>1519</ele>
        <time>2026-08-14T09:38:12.540Z</time>
      </trkpt>
      <trkpt lat="45.80501" lon="6.73358">
        <ele>1519</ele>
        <time>2026-08-14T09:38:13.540Z</time>
      </trkpt>
      <trkpt lat="45.80502" lon="6.73356">
        <ele>1519</ele>
        <time>2026-08-14T09:38:14.540Z</time>
      </trkpt>
      <trkpt lat="45.80503" lon="6.73354">
        <ele>1519</ele>
        <time>2026-08-14T09:38:15.540Z</time>
      </trkpt>
      <trkpt lat="45.80504" lon="6.73353">
        <ele>1519</ele>
        <time>2026-08-14T09:38:16.540Z</time>
      </trkpt>
      <trkpt lat="45.80505" lon="6.73352">
        <ele>1519</ele>
        <time>2026-08-14T09:38:17.540Z</time>
      </trkpt>
      <trkpt lat="45.80506" lon="6.73352">
        <ele>1519</ele>
        <time>2026-08-14T09:38:18.540Z</time>
      </trkpt>
      <trkpt lat="45.80508" lon="6.73351">
        <ele>1519</ele>
        <time>2026-08-14T09:38:19.540Z</time>
      </trkpt>
      <trkpt lat="45.80509" lon="6.7335">
        <ele>1518</ele>
        <time>2026-08-14T09:38:20.540Z</time>
      </trkpt>
      <trkpt lat="45.80511" lon="6.7335">
        <ele>1518</ele>
        <time>2026-08-14T09:38:21.540Z</time>
      </trkpt>
      <trkpt lat="45.80512" lon="6.73351">
        <ele>1518</ele>
        <time>2026-08-14T09:38:22.540Z</time>
      </trkpt>
      <trkpt lat="45.80514" lon="6.73351">
        <ele>1518</ele>
        <time>2026-08-14T09:38:23.540Z</time>
      </trkpt>
      <trkpt lat="45.80515" lon="6.73351">
        <ele>1518</ele>
        <time>2026-08-14T09:38:24.540Z</time>
      </trkpt>
      <trkpt lat="45.80516" lon="6.7335">
        <ele>1517</ele>
        <time>2026-08-14T09:38:25.540Z</time>
      </trkpt>
      <trkpt lat="45.80517" lon="6.7335">
        <ele>1517</ele>
        <time>2026-08-14T09:38:26.540Z</time>
      </trkpt>
      <trkpt lat="45.80518" lon="6.7335">
        <ele>1518</ele>
        <time>2026-08-14T09:38:27.540Z</time>
      </trkpt>
      <trkpt lat="45.8052" lon="6.7335">
        <ele>1518</ele>
        <time>2026-08-14T09:38:28.540Z</time>
      </trkpt>
      <trkpt lat="45.80521" lon="6.7335">
        <ele>1518</ele>
        <time>2026-08-14T09:38:29.540Z</time>
      </trkpt>
      <trkpt lat="45.80522" lon="6.7335">
        <ele>1518</ele>
        <time>2026-08-14T09:38:30.540Z</time>
      </trkpt>
      <trkpt lat="45.80523" lon="6.7335">
        <ele>1519</ele>
        <time>2026-08-14T09:38:31.540Z</time>
      </trkpt>
      <trkpt lat="45.80524" lon="6.7335">
        <ele>1519</ele>
        <time>2026-08-14T09:38:32.540Z</time>
      </trkpt>
      <trkpt lat="45.80526" lon="6.73351">
        <ele>1519</ele>
        <time>2026-08-14T09:38:33.540Z</time>
      </trkpt>
      <trkpt lat="45.80527" lon="6.73353">
        <ele>1519</ele>
        <time>2026-08-14T09:38:34.540Z</time>
      </trkpt>
      <trkpt lat="45.80528" lon="6.73354">
        <ele>1519</ele>
        <time>2026-08-14T09:38:35.540Z</time>
      </trkpt>
      <trkpt lat="45.8053" lon="6.73354">
        <ele>1520</ele>
        <time>2026-08-14T09:38:36.540Z</time>
      </trkpt>
      <trkpt lat="45.80531" lon="6.73356">
        <ele>1520</ele>
        <time>2026-08-14T09:38:37.540Z</time>
      </trkpt>
      <trkpt lat="45.80533" lon="6.73357">
        <ele>1520</ele>
        <time>2026-08-14T09:38:38.540Z</time>
      </trkpt>
      <trkpt lat="45.80533" lon="6.73358">
        <ele>1520</ele>
        <time>2026-08-14T09:38:39.540Z</time>
      </trkpt>
      <trkpt lat="45.80534" lon="6.7336">
        <ele>1520</ele>
        <time>2026-08-14T09:38:40.540Z</time>
      </trkpt>
      <trkpt lat="45.80535" lon="6.73361">
        <ele>1520</ele>
        <time>2026-08-14T09:38:41.540Z</time>
      </trkpt>
      <trkpt lat="45.80536" lon="6.73362">
        <ele>1520</ele>
        <time>2026-08-14T09:38:42.540Z</time>
      </trkpt>
      <trkpt lat="45.80536" lon="6.73363">
        <ele>1520</ele>
        <time>2026-08-14T09:38:43.540Z</time>
      </trkpt>
      <trkpt lat="45.80537" lon="6.73364">
        <ele>1520</ele>
        <time>2026-08-14T09:38:44.540Z</time>
      </trkpt>
      <trkpt lat="45.80538" lon="6.73365">
        <ele>1521</ele>
        <time>2026-08-14T09:38:45.540Z</time>
      </trkpt>
      <trkpt lat="45.80538" lon="6.73367">
        <ele>1521</ele>
        <time>2026-08-14T09:38:46.540Z</time>
      </trkpt>
      <trkpt lat="45.80538" lon="6.73368">
        <ele>1521</ele>
        <time>2026-08-14T09:38:47.540Z</time>
      </trkpt>
      <trkpt lat="45.80539" lon="6.73369">
        <ele>1521</ele>
        <time>2026-08-14T09:38:48.540Z</time>
      </trkpt>
      <trkpt lat="45.80539" lon="6.7337">
        <ele>1521</ele>
        <time>2026-08-14T09:38:49.540Z</time>
      </trkpt>
      <trkpt lat="45.80539" lon="6.73371">
        <ele>1522</ele>
        <time>2026-08-14T09:38:50.540Z</time>
      </trkpt>
      <trkpt lat="45.80539" lon="6.73372">
        <ele>1522</ele>
        <time>2026-08-14T09:38:51.540Z</time>
      </trkpt>
      <trkpt lat="45.80539" lon="6.73373">
        <ele>1522</ele>
        <time>2026-08-14T09:38:52.540Z</time>
      </trkpt>
      <trkpt lat="45.80538" lon="6.73374">
        <ele>1523</ele>
        <time>2026-08-14T09:38:53.540Z</time>
      </trkpt>
      <trkpt lat="45.80538" lon="6.73376">
        <ele>1523</ele>
        <time>2026-08-14T09:38:54.540Z</time>
      </trkpt>
      <trkpt lat="45.80538" lon="6.73377">
        <ele>1524</ele>
        <time>2026-08-14T09:38:55.540Z</time>
      </trkpt>
      <trkpt lat="45.80539" lon="6.73378">
        <ele>1524</ele>
        <time>2026-08-14T09:38:56.540Z</time>
      </trkpt>
      <trkpt lat="45.80539" lon="6.73378">
        <ele>1525</ele>
        <time>2026-08-14T09:38:57.540Z</time>
      </trkpt>
      <trkpt lat="45.8054" lon="6.7338">
        <ele>1526</ele>
        <time>2026-08-14T09:38:58.540Z</time>
      </trkpt>
      <trkpt lat="45.8054" lon="6.73381">
        <ele>1526</ele>
        <time>2026-08-14T09:38:59.540Z</time>
      </trkpt>
      <trkpt lat="45.8054" lon="6.73383">
        <ele>1527</ele>
        <time>2026-08-14T09:39:00.540Z</time>
      </trkpt>
      <trkpt lat="45.80541" lon="6.73385">
        <ele>1527</ele>
        <time>2026-08-14T09:39:01.540Z</time>
      </trkpt>
      <trkpt lat="45.80542" lon="6.73387">
        <ele>1528</ele>
        <time>2026-08-14T09:39:02.540Z</time>
      </trkpt>
      <trkpt lat="45.80543" lon="6.7339">
        <ele>1528</ele>
        <time>2026-08-14T09:39:03.540Z</time>
      </trkpt>
      <trkpt lat="45.80544" lon="6.73391">
        <ele>1529</ele>
        <time>2026-08-14T09:39:04.540Z</time>
      </trkpt>
      <trkpt lat="45.80545" lon="6.73394">
        <ele>1529</ele>
        <time>2026-08-14T09:39:05.540Z</time>
      </trkpt>
      <trkpt lat="45.80546" lon="6.73396">
        <ele>1530</ele>
        <time>2026-08-14T09:39:06.540Z</time>
      </trkpt>
      <trkpt lat="45.80547" lon="6.73398">
        <ele>1530</ele>
        <time>2026-08-14T09:39:07.540Z</time>
      </trkpt>
      <trkpt lat="45.80547" lon="6.734">
        <ele>1531</ele>
        <time>2026-08-14T09:39:08.540Z</time>
      </trkpt>
      <trkpt lat="45.80547" lon="6.73401">
        <ele>1531</ele>
        <time>2026-08-14T09:39:09.540Z</time>
      </trkpt>
      <trkpt lat="45.80546" lon="6.73403">
        <ele>1531</ele>
        <time>2026-08-14T09:39:10.540Z</time>
      </trkpt>
      <trkpt lat="45.80545" lon="6.73403">
        <ele>1532</ele>
        <time>2026-08-14T09:39:11.540Z</time>
      </trkpt>
      <trkpt lat="45.80544" lon="6.73402">
        <ele>1532</ele>
        <time>2026-08-14T09:39:12.540Z</time>
      </trkpt>
      <trkpt lat="45.80543" lon="6.73401">
        <ele>1532</ele>
        <time>2026-08-14T09:39:13.540Z</time>
      </trkpt>
      <trkpt lat="45.80542" lon="6.734">
        <ele>1532</ele>
        <time>2026-08-14T09:39:14.540Z</time>
      </trkpt>
      <trkpt lat="45.80541" lon="6.73399">
        <ele>1531</ele>
        <time>2026-08-14T09:39:15.540Z</time>
      </trkpt>
      <trkpt lat="45.8054" lon="6.73398">
        <ele>1531</ele>
        <time>2026-08-14T09:39:16.540Z</time>
      </trkpt>
      <trkpt lat="45.8054" lon="6.73397">
        <ele>1531</ele>
        <time>2026-08-14T09:39:17.540Z</time>
      </trkpt>
      <trkpt lat="45.80539" lon="6.73396">
        <ele>1531</ele>
        <time>2026-08-14T09:39:18.540Z</time>
      </trkpt>
      <trkpt lat="45.80538" lon="6.73395">
        <ele>1530</ele>
        <time>2026-08-14T09:39:19.540Z</time>
      </trkpt>
      <trkpt lat="45.80538" lon="6.73393">
        <ele>1530</ele>
        <time>2026-08-14T09:39:20.540Z</time>
      </trkpt>
      <trkpt lat="45.80537" lon="6.73392">
        <ele>1530</ele>
        <time>2026-08-14T09:39:21.540Z</time>
      </trkpt>
      <trkpt lat="45.80536" lon="6.7339">
        <ele>1530</ele>
        <time>2026-08-14T09:39:22.540Z</time>
      </trkpt>
      <trkpt lat="45.80535" lon="6.73389">
        <ele>1530</ele>
        <time>2026-08-14T09:39:23.540Z</time>
      </trkpt>
      <trkpt lat="45.80534" lon="6.73388">
        <ele>1530</ele>
        <time>2026-08-14T09:39:24.540Z</time>
      </trkpt>
      <trkpt lat="45.80534" lon="6.73388">
        <ele>1530</ele>
        <time>2026-08-14T09:39:25.540Z</time>
      </trkpt>
      <trkpt lat="45.80533" lon="6.73387">
        <ele>1529</ele>
        <time>2026-08-14T09:39:26.540Z</time>
      </trkpt>
      <trkpt lat="45.80532" lon="6.73387">
        <ele>1529</ele>
        <time>2026-08-14T09:39:27.540Z</time>
      </trkpt>
      <trkpt lat="45.80531" lon="6.73386">
        <ele>1529</ele>
        <time>2026-08-14T09:39:28.540Z</time>
      </trkpt>
      <trkpt lat="45.8053" lon="6.73385">
        <ele>1529</ele>
        <time>2026-08-14T09:39:29.540Z</time>
      </trkpt>
      <trkpt lat="45.80529" lon="6.73385">
        <ele>1529</ele>
        <time>2026-08-14T09:39:30.540Z</time>
      </trkpt>
      <trkpt lat="45.80528" lon="6.73384">
        <ele>1529</ele>
        <time>2026-08-14T09:39:31.540Z</time>
      </trkpt>
      <trkpt lat="45.80527" lon="6.73384">
        <ele>1529</ele>
        <time>2026-08-14T09:39:32.540Z</time>
      </trkpt>
      <trkpt lat="45.80525" lon="6.73383">
        <ele>1529</ele>
        <time>2026-08-14T09:39:33.540Z</time>
      </trkpt>
      <trkpt lat="45.80525" lon="6.73383">
        <ele>1529</ele>
        <time>2026-08-14T09:39:34.540Z</time>
      </trkpt>
      <trkpt lat="45.80523" lon="6.73383">
        <ele>1529</ele>
        <time>2026-08-14T09:39:35.540Z</time>
      </trkpt>
      <trkpt lat="45.80522" lon="6.73384">
        <ele>1529</ele>
        <time>2026-08-14T09:39:36.540Z</time>
      </trkpt>
      <trkpt lat="45.80521" lon="6.73384">
        <ele>1529</ele>
        <time>2026-08-14T09:39:37.540Z</time>
      </trkpt>
      <trkpt lat="45.8052" lon="6.73385">
        <ele>1530</ele>
        <time>2026-08-14T09:39:38.540Z</time>
      </trkpt>
      <trkpt lat="45.80519" lon="6.73385">
        <ele>1531</ele>
        <time>2026-08-14T09:39:39.540Z</time>
      </trkpt>
      <trkpt lat="45.80519" lon="6.73385">
        <ele>1531</ele>
        <time>2026-08-14T09:39:40.540Z</time>
      </trkpt>
      <trkpt lat="45.80518" lon="6.73386">
        <ele>1532</ele>
        <time>2026-08-14T09:39:41.540Z</time>
      </trkpt>
      <trkpt lat="45.80518" lon="6.73387">
        <ele>1532</ele>
        <time>2026-08-14T09:39:42.540Z</time>
      </trkpt>
      <trkpt lat="45.80517" lon="6.73388">
        <ele>1532</ele>
        <time>2026-08-14T09:39:43.540Z</time>
      </trkpt>
      <trkpt lat="45.80517" lon="6.7339">
        <ele>1532</ele>
        <time>2026-08-14T09:39:44.540Z</time>
      </trkpt>
      <trkpt lat="45.80516" lon="6.73391">
        <ele>1532</ele>
        <time>2026-08-14T09:39:45.540Z</time>
      </trkpt>
      <trkpt lat="45.80516" lon="6.73392">
        <ele>1532</ele>
        <time>2026-08-14T09:39:46.540Z</time>
      </trkpt>
      <trkpt lat="45.80515" lon="6.73393">
        <ele>1533</ele>
        <time>2026-08-14T09:39:47.540Z</time>
      </trkpt>
      <trkpt lat="45.80514" lon="6.73394">
        <ele>1533</ele>
        <time>2026-08-14T09:39:48.540Z</time>
      </trkpt>
      <trkpt lat="45.80513" lon="6.73395">
        <ele>1534</ele>
        <time>2026-08-14T09:39:49.540Z</time>
      </trkpt>
      <trkpt lat="45.80513" lon="6.73396">
        <ele>1534</ele>
        <time>2026-08-14T09:39:50.540Z</time>
      </trkpt>
      <trkpt lat="45.80512" lon="6.73396">
        <ele>1534</ele>
        <time>2026-08-14T09:39:51.540Z</time>
      </trkpt>
      <trkpt lat="45.80512" lon="6.73397">
        <ele>1535</ele>
        <time>2026-08-14T09:39:52.540Z</time>
      </trkpt>
      <trkpt lat="45.80512" lon="6.73398">
        <ele>1535</ele>
        <time>2026-08-14T09:39:53.540Z</time>
      </trkpt>
      <trkpt lat="45.80511" lon="6.734">
        <ele>1535</ele>
        <time>2026-08-14T09:39:54.540Z</time>
      </trkpt>
      <trkpt lat="45.80511" lon="6.73401">
        <ele>1535</ele>
        <time>2026-08-14T09:39:55.540Z</time>
      </trkpt>
      <trkpt lat="45.8051" lon="6.73403">
        <ele>1535</ele>
        <time>2026-08-14T09:39:56.540Z</time>
      </trkpt>
      <trkpt lat="45.80509" lon="6.73404">
        <ele>1535</ele>
        <time>2026-08-14T09:39:57.540Z</time>
      </trkpt>
      <trkpt lat="45.80508" lon="6.73406">
        <ele>1535</ele>
        <time>2026-08-14T09:39:58.540Z</time>
      </trkpt>
      <trkpt lat="45.80508" lon="6.73406">
        <ele>1534</ele>
        <time>2026-08-14T09:39:59.540Z</time>
      </trkpt>
      <trkpt lat="45.80507" lon="6.73407">
        <ele>1534</ele>
        <time>2026-08-14T09:40:00.540Z</time>
      </trkpt>
      <trkpt lat="45.80506" lon="6.73408">
        <ele>1534</ele>
        <time>2026-08-14T09:40:01.540Z</time>
      </trkpt>
      <trkpt lat="45.80505" lon="6.73409">
        <ele>1534</ele>
        <time>2026-08-14T09:40:02.540Z</time>
      </trkpt>
      <trkpt lat="45.80503" lon="6.73411">
        <ele>1534</ele>
        <time>2026-08-14T09:40:03.540Z</time>
      </trkpt>
      <trkpt lat="45.80503" lon="6.73414">
        <ele>1534</ele>
        <time>2026-08-14T09:40:04.540Z</time>
      </trkpt>
      <trkpt lat="45.80502" lon="6.73415">
        <ele>1534</ele>
        <time>2026-08-14T09:40:05.540Z</time>
      </trkpt>
      <trkpt lat="45.80501" lon="6.73417">
        <ele>1534</ele>
        <time>2026-08-14T09:40:06.540Z</time>
      </trkpt>
      <trkpt lat="45.805" lon="6.73419">
        <ele>1534</ele>
        <time>2026-08-14T09:40:07.540Z</time>
      </trkpt>
      <trkpt lat="45.80499" lon="6.7342">
        <ele>1534</ele>
        <time>2026-08-14T09:40:08.540Z</time>
      </trkpt>
      <trkpt lat="45.80498" lon="6.7342">
        <ele>1535</ele>
        <time>2026-08-14T09:40:09.540Z</time>
      </trkpt>
      <trkpt lat="45.80497" lon="6.73422">
        <ele>1535</ele>
        <time>2026-08-14T09:40:10.540Z</time>
      </trkpt>
      <trkpt lat="45.80497" lon="6.73422">
        <ele>1535</ele>
        <time>2026-08-14T09:40:11.540Z</time>
      </trkpt>
      <trkpt lat="45.80497" lon="6.73423">
        <ele>1536</ele>
        <time>2026-08-14T09:40:12.540Z</time>
      </trkpt>
      <trkpt lat="45.80496" lon="6.73424">
        <ele>1536</ele>
        <time>2026-08-14T09:40:13.540Z</time>
      </trkpt>
      <trkpt lat="45.80496" lon="6.73426">
        <ele>1536</ele>
        <time>2026-08-14T09:40:14.540Z</time>
      </trkpt>
      <trkpt lat="45.80496" lon="6.73427">
        <ele>1536</ele>
        <time>2026-08-14T09:40:15.540Z</time>
      </trkpt>
      <trkpt lat="45.80496" lon="6.73428">
        <ele>1536</ele>
        <time>2026-08-14T09:40:16.540Z</time>
      </trkpt>
      <trkpt lat="45.80495" lon="6.7343">
        <ele>1536</ele>
        <time>2026-08-14T09:40:17.540Z</time>
      </trkpt>
      <trkpt lat="45.80494" lon="6.73431">
        <ele>1537</ele>
        <time>2026-08-14T09:40:18.540Z</time>
      </trkpt>
      <trkpt lat="45.80493" lon="6.73433">
        <ele>1537</ele>
        <time>2026-08-14T09:40:19.540Z</time>
      </trkpt>
      <trkpt lat="45.80492" lon="6.73434">
        <ele>1537</ele>
        <time>2026-08-14T09:40:20.540Z</time>
      </trkpt>
      <trkpt lat="45.80491" lon="6.73434">
        <ele>1537</ele>
        <time>2026-08-14T09:40:21.540Z</time>
      </trkpt>
      <trkpt lat="45.8049" lon="6.73434">
        <ele>1538</ele>
        <time>2026-08-14T09:40:22.540Z</time>
      </trkpt>
      <trkpt lat="45.80489" lon="6.73434">
        <ele>1538</ele>
        <time>2026-08-14T09:40:23.540Z</time>
      </trkpt>
      <trkpt lat="45.80488" lon="6.73435">
        <ele>1539</ele>
        <time>2026-08-14T09:40:24.540Z</time>
      </trkpt>
      <trkpt lat="45.80486" lon="6.73436">
        <ele>1539</ele>
        <time>2026-08-14T09:40:25.540Z</time>
      </trkpt>
      <trkpt lat="45.80484" lon="6.73437">
        <ele>1539</ele>
        <time>2026-08-14T09:40:26.540Z</time>
      </trkpt>
      <trkpt lat="45.80483" lon="6.73437">
        <ele>1539</ele>
        <time>2026-08-14T09:40:27.540Z</time>
      </trkpt>
      <trkpt lat="45.80481" lon="6.73438">
        <ele>1539</ele>
        <time>2026-08-14T09:40:28.540Z</time>
      </trkpt>
      <trkpt lat="45.8048" lon="6.73439">
        <ele>1538</ele>
        <time>2026-08-14T09:40:29.540Z</time>
      </trkpt>
      <trkpt lat="45.80478" lon="6.7344">
        <ele>1538</ele>
        <time>2026-08-14T09:40:30.540Z</time>
      </trkpt>
      <trkpt lat="45.80477" lon="6.73441">
        <ele>1539</ele>
        <time>2026-08-14T09:40:31.540Z</time>
      </trkpt>
      <trkpt lat="45.80475" lon="6.73442">
        <ele>1539</ele>
        <time>2026-08-14T09:40:32.540Z</time>
      </trkpt>
      <trkpt lat="45.80474" lon="6.73444">
        <ele>1538</ele>
        <time>2026-08-14T09:40:33.540Z</time>
      </trkpt>
      <trkpt lat="45.80473" lon="6.73445">
        <ele>1538</ele>
        <time>2026-08-14T09:40:34.540Z</time>
      </trkpt>
      <trkpt lat="45.80472" lon="6.73446">
        <ele>1539</ele>
        <time>2026-08-14T09:40:35.540Z</time>
      </trkpt>
      <trkpt lat="45.80471" lon="6.73447">
        <ele>1540</ele>
        <time>2026-08-14T09:40:36.540Z</time>
      </trkpt>
      <trkpt lat="45.8047" lon="6.73448">
        <ele>1540</ele>
        <time>2026-08-14T09:40:37.540Z</time>
      </trkpt>
      <trkpt lat="45.80469" lon="6.73449">
        <ele>1540</ele>
        <time>2026-08-14T09:40:38.540Z</time>
      </trkpt>
      <trkpt lat="45.80468" lon="6.7345">
        <ele>1541</ele>
        <time>2026-08-14T09:40:39.540Z</time>
      </trkpt>
      <trkpt lat="45.80467" lon="6.73452">
        <ele>1541</ele>
        <time>2026-08-14T09:40:40.540Z</time>
      </trkpt>
      <trkpt lat="45.80467" lon="6.73453">
        <ele>1541</ele>
        <time>2026-08-14T09:40:41.540Z</time>
      </trkpt>
      <trkpt lat="45.80466" lon="6.73454">
        <ele>1541</ele>
        <time>2026-08-14T09:40:42.540Z</time>
      </trkpt>
      <trkpt lat="45.80465" lon="6.73455">
        <ele>1542</ele>
        <time>2026-08-14T09:40:43.540Z</time>
      </trkpt>
      <trkpt lat="45.80465" lon="6.73456">
        <ele>1541</ele>
        <time>2026-08-14T09:40:44.540Z</time>
      </trkpt>
      <trkpt lat="45.80464" lon="6.73457">
        <ele>1541</ele>
        <time>2026-08-14T09:40:45.540Z</time>
      </trkpt>
      <trkpt lat="45.80463" lon="6.73458">
        <ele>1541</ele>
        <time>2026-08-14T09:40:46.540Z</time>
      </trkpt>
      <trkpt lat="45.80463" lon="6.73458">
        <ele>1542</ele>
        <time>2026-08-14T09:40:47.540Z</time>
      </trkpt>
      <trkpt lat="45.80462" lon="6.73459">
        <ele>1542</ele>
        <time>2026-08-14T09:40:48.540Z</time>
      </trkpt>
      <trkpt lat="45.80461" lon="6.7346">
        <ele>1542</ele>
        <time>2026-08-14T09:40:49.540Z</time>
      </trkpt>
      <trkpt lat="45.80461" lon="6.73461">
        <ele>1542</ele>
        <time>2026-08-14T09:40:50.540Z</time>
      </trkpt>
      <trkpt lat="45.8046" lon="6.73462">
        <ele>1542</ele>
        <time>2026-08-14T09:40:51.540Z</time>
      </trkpt>
      <trkpt lat="45.80459" lon="6.73463">
        <ele>1543</ele>
        <time>2026-08-14T09:40:52.540Z</time>
      </trkpt>
      <trkpt lat="45.80458" lon="6.73464">
        <ele>1543</ele>
        <time>2026-08-14T09:40:53.540Z</time>
      </trkpt>
      <trkpt lat="45.80457" lon="6.73464">
        <ele>1544</ele>
        <time>2026-08-14T09:40:54.540Z</time>
      </trkpt>
      <trkpt lat="45.80456" lon="6.73464">
        <ele>1545</ele>
        <time>2026-08-14T09:40:55.540Z</time>
      </trkpt>
      <trkpt lat="45.80455" lon="6.73464">
        <ele>1546</ele>
        <time>2026-08-14T09:40:56.540Z</time>
      </trkpt>
      <trkpt lat="45.80454" lon="6.73464">
        <ele>1546</ele>
        <time>2026-08-14T09:40:57.540Z</time>
      </trkpt>
      <trkpt lat="45.80453" lon="6.73464">
        <ele>1547</ele>
        <time>2026-08-14T09:40:58.540Z</time>
      </trkpt>
      <trkpt lat="45.80453" lon="6.73464">
        <ele>1548</ele>
        <time>2026-08-14T09:40:59.540Z</time>
      </trkpt>
      <trkpt lat="45.80453" lon="6.73464">
        <ele>1548</ele>
        <time>2026-08-14T09:41:00.540Z</time>
      </trkpt>
      <trkpt lat="45.80453" lon="6.73465">
        <ele>1549</ele>
        <time>2026-08-14T09:41:01.540Z</time>
      </trkpt>
      <trkpt lat="45.80454" lon="6.73466">
        <ele>1549</ele>
        <time>2026-08-14T09:41:02.540Z</time>
      </trkpt>
      <trkpt lat="45.80454" lon="6.73468">
        <ele>1550</ele>
        <time>2026-08-14T09:41:03.540Z</time>
      </trkpt>
      <trkpt lat="45.80455" lon="6.73469">
        <ele>1551</ele>
        <time>2026-08-14T09:41:04.540Z</time>
      </trkpt>
      <trkpt lat="45.80456" lon="6.7347">
        <ele>1551</ele>
        <time>2026-08-14T09:41:05.540Z</time>
      </trkpt>
      <trkpt lat="45.80458" lon="6.7347">
        <ele>1552</ele>
        <time>2026-08-14T09:41:06.540Z</time>
      </trkpt>
      <trkpt lat="45.80459" lon="6.7347">
        <ele>1552</ele>
        <time>2026-08-14T09:41:07.540Z</time>
      </trkpt>
      <trkpt lat="45.8046" lon="6.7347">
        <ele>1553</ele>
        <time>2026-08-14T09:41:08.540Z</time>
      </trkpt>
      <trkpt lat="45.80461" lon="6.73471">
        <ele>1553</ele>
        <time>2026-08-14T09:41:09.540Z</time>
      </trkpt>
      <trkpt lat="45.80462" lon="6.73471">
        <ele>1553</ele>
        <time>2026-08-14T09:41:10.540Z</time>
      </trkpt>
      <trkpt lat="45.80463" lon="6.7347">
        <ele>1553</ele>
        <time>2026-08-14T09:41:11.540Z</time>
      </trkpt>
      <trkpt lat="45.80464" lon="6.73469">
        <ele>1553</ele>
        <time>2026-08-14T09:41:12.540Z</time>
      </trkpt>
      <trkpt lat="45.80466" lon="6.73468">
        <ele>1553</ele>
        <time>2026-08-14T09:41:13.540Z</time>
      </trkpt>
      <trkpt lat="45.80467" lon="6.73466">
        <ele>1553</ele>
        <time>2026-08-14T09:41:14.540Z</time>
      </trkpt>
      <trkpt lat="45.80468" lon="6.73466">
        <ele>1553</ele>
        <time>2026-08-14T09:41:15.540Z</time>
      </trkpt>
      <trkpt lat="45.80469" lon="6.73465">
        <ele>1553</ele>
        <time>2026-08-14T09:41:16.540Z</time>
      </trkpt>
      <trkpt lat="45.8047" lon="6.73465">
        <ele>1553</ele>
        <time>2026-08-14T09:41:17.540Z</time>
      </trkpt>
      <trkpt lat="45.80471" lon="6.73464">
        <ele>1553</ele>
        <time>2026-08-14T09:41:18.540Z</time>
      </trkpt>
      <trkpt lat="45.80472" lon="6.73464">
        <ele>1553</ele>
        <time>2026-08-14T09:41:19.540Z</time>
      </trkpt>
      <trkpt lat="45.80473" lon="6.73463">
        <ele>1553</ele>
        <time>2026-08-14T09:41:20.540Z</time>
      </trkpt>
      <trkpt lat="45.80474" lon="6.73462">
        <ele>1553</ele>
        <time>2026-08-14T09:41:21.540Z</time>
      </trkpt>
      <trkpt lat="45.80476" lon="6.73461">
        <ele>1553</ele>
        <time>2026-08-14T09:41:22.540Z</time>
      </trkpt>
      <trkpt lat="45.80477" lon="6.73459">
        <ele>1553</ele>
        <time>2026-08-14T09:41:23.540Z</time>
      </trkpt>
      <trkpt lat="45.80478" lon="6.73458">
        <ele>1554</ele>
        <time>2026-08-14T09:41:24.540Z</time>
      </trkpt>
      <trkpt lat="45.80479" lon="6.73457">
        <ele>1554</ele>
        <time>2026-08-14T09:41:25.540Z</time>
      </trkpt>
      <trkpt lat="45.8048" lon="6.73456">
        <ele>1554</ele>
        <time>2026-08-14T09:41:26.540Z</time>
      </trkpt>
      <trkpt lat="45.80481" lon="6.73456">
        <ele>1554</ele>
        <time>2026-08-14T09:41:27.540Z</time>
      </trkpt>
      <trkpt lat="45.80482" lon="6.73456">
        <ele>1554</ele>
        <time>2026-08-14T09:41:28.540Z</time>
      </trkpt>
      <trkpt lat="45.80483" lon="6.73455">
        <ele>1554</ele>
        <time>2026-08-14T09:41:29.540Z</time>
      </trkpt>
      <trkpt lat="45.80484" lon="6.73455">
        <ele>1555</ele>
        <time>2026-08-14T09:41:30.540Z</time>
      </trkpt>
      <trkpt lat="45.80485" lon="6.73454">
        <ele>1555</ele>
        <time>2026-08-14T09:41:31.540Z</time>
      </trkpt>
      <trkpt lat="45.80486" lon="6.73454">
        <ele>1555</ele>
        <time>2026-08-14T09:41:32.540Z</time>
      </trkpt>
      <trkpt lat="45.80488" lon="6.73454">
        <ele>1555</ele>
        <time>2026-08-14T09:41:33.540Z</time>
      </trkpt>
      <trkpt lat="45.80489" lon="6.73454">
        <ele>1555</ele>
        <time>2026-08-14T09:41:34.540Z</time>
      </trkpt>
      <trkpt lat="45.80491" lon="6.73454">
        <ele>1555</ele>
        <time>2026-08-14T09:41:35.540Z</time>
      </trkpt>
      <trkpt lat="45.80492" lon="6.73453">
        <ele>1555</ele>
        <time>2026-08-14T09:41:36.540Z</time>
      </trkpt>
      <trkpt lat="45.80494" lon="6.73452">
        <ele>1556</ele>
        <time>2026-08-14T09:41:37.540Z</time>
      </trkpt>
      <trkpt lat="45.80495" lon="6.73451">
        <ele>1556</ele>
        <time>2026-08-14T09:41:38.540Z</time>
      </trkpt>
      <trkpt lat="45.80496" lon="6.7345">
        <ele>1556</ele>
        <time>2026-08-14T09:41:39.540Z</time>
      </trkpt>
      <trkpt lat="45.80497" lon="6.7345">
        <ele>1556</ele>
        <time>2026-08-14T09:41:40.540Z</time>
      </trkpt>
      <trkpt lat="45.80499" lon="6.7345">
        <ele>1556</ele>
        <time>2026-08-14T09:41:41.540Z</time>
      </trkpt>
      <trkpt lat="45.805" lon="6.73449">
        <ele>1557</ele>
        <time>2026-08-14T09:41:42.540Z</time>
      </trkpt>
      <trkpt lat="45.80501" lon="6.73448">
        <ele>1557</ele>
        <time>2026-08-14T09:41:43.540Z</time>
      </trkpt>
      <trkpt lat="45.80502" lon="6.73447">
        <ele>1557</ele>
        <time>2026-08-14T09:41:44.540Z</time>
      </trkpt>
      <trkpt lat="45.80503" lon="6.73446">
        <ele>1558</ele>
        <time>2026-08-14T09:41:45.540Z</time>
      </trkpt>
      <trkpt lat="45.80505" lon="6.73446">
        <ele>1558</ele>
        <time>2026-08-14T09:41:46.540Z</time>
      </trkpt>
      <trkpt lat="45.80506" lon="6.73445">
        <ele>1558</ele>
        <time>2026-08-14T09:41:47.540Z</time>
      </trkpt>
      <trkpt lat="45.80507" lon="6.73444">
        <ele>1559</ele>
        <time>2026-08-14T09:41:48.540Z</time>
      </trkpt>
      <trkpt lat="45.80508" lon="6.73444">
        <ele>1559</ele>
        <time>2026-08-14T09:41:49.540Z</time>
      </trkpt>
      <trkpt lat="45.80509" lon="6.73443">
        <ele>1559</ele>
        <time>2026-08-14T09:41:50.540Z</time>
      </trkpt>
      <trkpt lat="45.8051" lon="6.73443">
        <ele>1560</ele>
        <time>2026-08-14T09:41:51.540Z</time>
      </trkpt>
      <trkpt lat="45.80511" lon="6.73442">
        <ele>1560</ele>
        <time>2026-08-14T09:41:52.540Z</time>
      </trkpt>
      <trkpt lat="45.80512" lon="6.73441">
        <ele>1559</ele>
        <time>2026-08-14T09:41:53.540Z</time>
      </trkpt>
      <trkpt lat="45.80513" lon="6.7344">
        <ele>1559</ele>
        <time>2026-08-14T09:41:54.540Z</time>
      </trkpt>
      <trkpt lat="45.80514" lon="6.7344">
        <ele>1558</ele>
        <time>2026-08-14T09:41:55.540Z</time>
      </trkpt>
      <trkpt lat="45.80515" lon="6.7344">
        <ele>1558</ele>
        <time>2026-08-14T09:41:56.540Z</time>
      </trkpt>
      <trkpt lat="45.80515" lon="6.73441">
        <ele>1558</ele>
        <time>2026-08-14T09:41:57.540Z</time>
      </trkpt>
      <trkpt lat="45.80516" lon="6.73441">
        <ele>1557</ele>
        <time>2026-08-14T09:41:58.540Z</time>
      </trkpt>
      <trkpt lat="45.80517" lon="6.73442">
        <ele>1557</ele>
        <time>2026-08-14T09:41:59.540Z</time>
      </trkpt>
      <trkpt lat="45.80519" lon="6.73445">
        <ele>1557</ele>
        <time>2026-08-14T09:42:00.540Z</time>
      </trkpt>
      <trkpt lat="45.80519" lon="6.73445">
        <ele>1557</ele>
        <time>2026-08-14T09:42:01.540Z</time>
      </trkpt>
      <trkpt lat="45.80519" lon="6.73445">
        <ele>1556</ele>
        <time>2026-08-14T09:42:02.540Z</time>
      </trkpt>
      <trkpt lat="45.80519" lon="6.73445">
        <ele>1556</ele>
        <time>2026-08-14T09:42:03.540Z</time>
      </trkpt>
      <trkpt lat="45.80518" lon="6.73446">
        <ele>1556</ele>
        <time>2026-08-14T09:42:04.540Z</time>
      </trkpt>
      <trkpt lat="45.80517" lon="6.73447">
        <ele>1556</ele>
        <time>2026-08-14T09:42:05.540Z</time>
      </trkpt>
      <trkpt lat="45.80516" lon="6.73447">
        <ele>1556</ele>
        <time>2026-08-14T09:42:06.540Z</time>
      </trkpt>
      <trkpt lat="45.80515" lon="6.73447">
        <ele>1556</ele>
        <time>2026-08-14T09:42:07.540Z</time>
      </trkpt>
      <trkpt lat="45.80515" lon="6.73447">
        <ele>1556</ele>
        <time>2026-08-14T09:42:08.540Z</time>
      </trkpt>
      <trkpt lat="45.80515" lon="6.73447">
        <ele>1557</ele>
        <time>2026-08-14T09:42:09.540Z</time>
      </trkpt>
      <trkpt lat="45.80513" lon="6.73447">
        <ele>1557</ele>
        <time>2026-08-14T09:42:10.540Z</time>
      </trkpt>
      <trkpt lat="45.80513" lon="6.73447">
        <ele>1557</ele>
        <time>2026-08-14T09:42:11.540Z</time>
      </trkpt>
      <trkpt lat="45.80512" lon="6.73448">
        <ele>1558</ele>
        <time>2026-08-14T09:42:12.540Z</time>
      </trkpt>
      <trkpt lat="45.80511" lon="6.73449">
        <ele>1558</ele>
        <time>2026-08-14T09:42:13.540Z</time>
      </trkpt>
      <trkpt lat="45.80511" lon="6.73449">
        <ele>1558</ele>
        <time>2026-08-14T09:42:14.540Z</time>
      </trkpt>
      <trkpt lat="45.80511" lon="6.73449">
        <ele>1559</ele>
        <time>2026-08-14T09:42:15.540Z</time>
      </trkpt>
      <trkpt lat="45.80511" lon="6.7345">
        <ele>1559</ele>
        <time>2026-08-14T09:42:16.540Z</time>
      </trkpt>
      <trkpt lat="45.8051" lon="6.73451">
        <ele>1559</ele>
        <time>2026-08-14T09:42:17.540Z</time>
      </trkpt>
      <trkpt lat="45.8051" lon="6.73452">
        <ele>1560</ele>
        <time>2026-08-14T09:42:18.540Z</time>
      </trkpt>
      <trkpt lat="45.80509" lon="6.73453">
        <ele>1560</ele>
        <time>2026-08-14T09:42:19.540Z</time>
      </trkpt>
      <trkpt lat="45.80508" lon="6.73454">
        <ele>1560</ele>
        <time>2026-08-14T09:42:20.540Z</time>
      </trkpt>
      <trkpt lat="45.80507" lon="6.73456">
        <ele>1559</ele>
        <time>2026-08-14T09:42:21.540Z</time>
      </trkpt>
      <trkpt lat="45.80505" lon="6.73457">
        <ele>1559</ele>
        <time>2026-08-14T09:42:22.540Z</time>
      </trkpt>
      <trkpt lat="45.80505" lon="6.73458">
        <ele>1559</ele>
        <time>2026-08-14T09:42:23.540Z</time>
      </trkpt>
      <trkpt lat="45.80503" lon="6.73459">
        <ele>1560</ele>
        <time>2026-08-14T09:42:24.540Z</time>
      </trkpt>
      <trkpt lat="45.80502" lon="6.7346">
        <ele>1560</ele>
        <time>2026-08-14T09:42:25.540Z</time>
      </trkpt>
      <trkpt lat="45.80501" lon="6.73462">
        <ele>1560</ele>
        <time>2026-08-14T09:42:26.540Z</time>
      </trkpt>
      <trkpt lat="45.805" lon="6.73463">
        <ele>1561</ele>
        <time>2026-08-14T09:42:27.540Z</time>
      </trkpt>
      <trkpt lat="45.805" lon="6.73465">
        <ele>1561</ele>
        <time>2026-08-14T09:42:28.540Z</time>
      </trkpt>
      <trkpt lat="45.805" lon="6.73466">
        <ele>1560</ele>
        <time>2026-08-14T09:42:29.540Z</time>
      </trkpt>
      <trkpt lat="45.80499" lon="6.73468">
        <ele>1560</ele>
        <time>2026-08-14T09:42:30.540Z</time>
      </trkpt>
      <trkpt lat="45.80499" lon="6.73469">
        <ele>1560</ele>
        <time>2026-08-14T09:42:31.540Z</time>
      </trkpt>
      <trkpt lat="45.80498" lon="6.7347">
        <ele>1560</ele>
        <time>2026-08-14T09:42:32.540Z</time>
      </trkpt>
      <trkpt lat="45.80497" lon="6.73472">
        <ele>1560</ele>
        <time>2026-08-14T09:42:33.540Z</time>
      </trkpt>
      <trkpt lat="45.80497" lon="6.73473">
        <ele>1560</ele>
        <time>2026-08-14T09:42:34.540Z</time>
      </trkpt>
      <trkpt lat="45.80496" lon="6.73475">
        <ele>1560</ele>
        <time>2026-08-14T09:42:35.540Z</time>
      </trkpt>
      <trkpt lat="45.80495" lon="6.73476">
        <ele>1559</ele>
        <time>2026-08-14T09:42:36.540Z</time>
      </trkpt>
      <trkpt lat="45.80493" lon="6.73477">
        <ele>1559</ele>
        <time>2026-08-14T09:42:37.540Z</time>
      </trkpt>
      <trkpt lat="45.80492" lon="6.73478">
        <ele>1559</ele>
        <time>2026-08-14T09:42:38.540Z</time>
      </trkpt>
      <trkpt lat="45.80491" lon="6.7348">
        <ele>1559</ele>
        <time>2026-08-14T09:42:39.540Z</time>
      </trkpt>
      <trkpt lat="45.80489" lon="6.73481">
        <ele>1559</ele>
        <time>2026-08-14T09:42:40.540Z</time>
      </trkpt>
      <trkpt lat="45.80489" lon="6.73483">
        <ele>1559</ele>
        <time>2026-08-14T09:42:41.540Z</time>
      </trkpt>
      <trkpt lat="45.80487" lon="6.73485">
        <ele>1559</ele>
        <time>2026-08-14T09:42:42.540Z</time>
      </trkpt>
      <trkpt lat="45.80487" lon="6.73486">
        <ele>1559</ele>
        <time>2026-08-14T09:42:43.540Z</time>
      </trkpt>
      <trkpt lat="45.80487" lon="6.73487">
        <ele>1559</ele>
        <time>2026-08-14T09:42:44.540Z</time>
      </trkpt>
      <trkpt lat="45.80486" lon="6.73488">
        <ele>1559</ele>
        <time>2026-08-14T09:42:45.540Z</time>
      </trkpt>
      <trkpt lat="45.80485" lon="6.73489">
        <ele>1559</ele>
        <time>2026-08-14T09:42:46.540Z</time>
      </trkpt>
      <trkpt lat="45.80484" lon="6.7349">
        <ele>1560</ele>
        <time>2026-08-14T09:42:47.540Z</time>
      </trkpt>
      <trkpt lat="45.80483" lon="6.73491">
        <ele>1560</ele>
        <time>2026-08-14T09:42:48.540Z</time>
      </trkpt>
      <trkpt lat="45.80482" lon="6.73492">
        <ele>1561</ele>
        <time>2026-08-14T09:42:49.540Z</time>
      </trkpt>
      <trkpt lat="45.80481" lon="6.73494">
        <ele>1561</ele>
        <time>2026-08-14T09:42:50.540Z</time>
      </trkpt>
      <trkpt lat="45.8048" lon="6.73495">
        <ele>1561</ele>
        <time>2026-08-14T09:42:51.540Z</time>
      </trkpt>
      <trkpt lat="45.8048" lon="6.73496">
        <ele>1562</ele>
        <time>2026-08-14T09:42:52.540Z</time>
      </trkpt>
      <trkpt lat="45.80479" lon="6.73497">
        <ele>1562</ele>
        <time>2026-08-14T09:42:53.540Z</time>
      </trkpt>
      <trkpt lat="45.80478" lon="6.73499">
        <ele>1562</ele>
        <time>2026-08-14T09:42:54.540Z</time>
      </trkpt>
      <trkpt lat="45.80478" lon="6.735">
        <ele>1563</ele>
        <time>2026-08-14T09:42:55.540Z</time>
      </trkpt>
      <trkpt lat="45.80477" lon="6.73501">
        <ele>1563</ele>
        <time>2026-08-14T09:42:56.540Z</time>
      </trkpt>
      <trkpt lat="45.80477" lon="6.73501">
        <ele>1564</ele>
        <time>2026-08-14T09:42:57.540Z</time>
      </trkpt>
      <trkpt lat="45.80477" lon="6.73501">
        <ele>1564</ele>
        <time>2026-08-14T09:42:58.540Z</time>
      </trkpt>
      <trkpt lat="45.80477" lon="6.73501">
        <ele>1564</ele>
        <time>2026-08-14T09:42:59.540Z</time>
      </trkpt>
      <trkpt lat="45.80477" lon="6.73501">
        <ele>1563</ele>
        <time>2026-08-14T09:43:00.540Z</time>
      </trkpt>
      <trkpt lat="45.80477" lon="6.73501">
        <ele>1563</ele>
        <time>2026-08-14T09:43:01.540Z</time>
      </trkpt>
      <trkpt lat="45.80477" lon="6.735">
        <ele>1563</ele>
        <time>2026-08-14T09:43:02.540Z</time>
      </trkpt>
      <trkpt lat="45.80477" lon="6.735">
        <ele>1564</ele>
        <time>2026-08-14T09:43:03.540Z</time>
      </trkpt>
      <trkpt lat="45.80477" lon="6.735">
        <ele>1564</ele>
        <time>2026-08-14T09:43:04.540Z</time>
      </trkpt>
      <trkpt lat="45.80477" lon="6.735">
        <ele>1564</ele>
        <time>2026-08-14T09:43:05.540Z</time>
      </trkpt>
      <trkpt lat="45.80477" lon="6.735">
        <ele>1565</ele>
        <time>2026-08-14T09:43:06.540Z</time>
      </trkpt>
      <trkpt lat="45.80477" lon="6.73502">
        <ele>1565</ele>
        <time>2026-08-14T09:43:07.540Z</time>
      </trkpt>
      <trkpt lat="45.80476" lon="6.73503">
        <ele>1566</ele>
        <time>2026-08-14T09:43:08.540Z</time>
      </trkpt>
      <trkpt lat="45.80476" lon="6.73504">
        <ele>1566</ele>
        <time>2026-08-14T09:43:09.540Z</time>
      </trkpt>
      <trkpt lat="45.80475" lon="6.73505">
        <ele>1567</ele>
        <time>2026-08-14T09:43:10.540Z</time>
      </trkpt>
      <trkpt lat="45.80475" lon="6.73506">
        <ele>1567</ele>
        <time>2026-08-14T09:43:11.540Z</time>
      </trkpt>
      <trkpt lat="45.80474" lon="6.73507">
        <ele>1568</ele>
        <time>2026-08-14T09:43:12.540Z</time>
      </trkpt>
      <trkpt lat="45.80473" lon="6.73507">
        <ele>1568</ele>
        <time>2026-08-14T09:43:13.540Z</time>
      </trkpt>
      <trkpt lat="45.80472" lon="6.73508">
        <ele>1568</ele>
        <time>2026-08-14T09:43:14.540Z</time>
      </trkpt>
      <trkpt lat="45.80471" lon="6.73509">
        <ele>1568</ele>
        <time>2026-08-14T09:43:15.540Z</time>
      </trkpt>
      <trkpt lat="45.8047" lon="6.7351">
        <ele>1569</ele>
        <time>2026-08-14T09:43:16.540Z</time>
      </trkpt>
      <trkpt lat="45.8047" lon="6.73511">
        <ele>1569</ele>
        <time>2026-08-14T09:43:17.540Z</time>
      </trkpt>
      <trkpt lat="45.80469" lon="6.73512">
        <ele>1569</ele>
        <time>2026-08-14T09:43:18.540Z</time>
      </trkpt>
      <trkpt lat="45.80468" lon="6.73513">
        <ele>1569</ele>
        <time>2026-08-14T09:43:19.540Z</time>
      </trkpt>
      <trkpt lat="45.80467" lon="6.73513">
        <ele>1569</ele>
        <time>2026-08-14T09:43:20.540Z</time>
      </trkpt>
      <trkpt lat="45.80467" lon="6.73514">
        <ele>1569</ele>
        <time>2026-08-14T09:43:21.540Z</time>
      </trkpt>
      <trkpt lat="45.80466" lon="6.73515">
        <ele>1569</ele>
        <time>2026-08-14T09:43:22.540Z</time>
      </trkpt>
      <trkpt lat="45.80465" lon="6.73517">
        <ele>1569</ele>
        <time>2026-08-14T09:43:23.540Z</time>
      </trkpt>
      <trkpt lat="45.80464" lon="6.73518">
        <ele>1569</ele>
        <time>2026-08-14T09:43:24.540Z</time>
      </trkpt>
      <trkpt lat="45.80463" lon="6.7352">
        <ele>1569</ele>
        <time>2026-08-14T09:43:25.540Z</time>
      </trkpt>
      <trkpt lat="45.80463" lon="6.73521">
        <ele>1569</ele>
        <time>2026-08-14T09:43:26.540Z</time>
      </trkpt>
      <trkpt lat="45.80462" lon="6.73522">
        <ele>1569</ele>
        <time>2026-08-14T09:43:27.540Z</time>
      </trkpt>
      <trkpt lat="45.80461" lon="6.73522">
        <ele>1569</ele>
        <time>2026-08-14T09:43:28.540Z</time>
      </trkpt>
      <trkpt lat="45.80461" lon="6.73523">
        <ele>1569</ele>
        <time>2026-08-14T09:43:29.540Z</time>
      </trkpt>
      <trkpt lat="45.8046" lon="6.73524">
        <ele>1569</ele>
        <time>2026-08-14T09:43:30.540Z</time>
      </trkpt>
      <trkpt lat="45.80459" lon="6.73524">
        <ele>1569</ele>
        <time>2026-08-14T09:43:31.540Z</time>
      </trkpt>
      <trkpt lat="45.80458" lon="6.73525">
        <ele>1568</ele>
        <time>2026-08-14T09:43:32.540Z</time>
      </trkpt>
      <trkpt lat="45.80456" lon="6.73525">
        <ele>1568</ele>
        <time>2026-08-14T09:43:33.540Z</time>
      </trkpt>
      <trkpt lat="45.80455" lon="6.73526">
        <ele>1568</ele>
        <time>2026-08-14T09:43:34.540Z</time>
      </trkpt>
      <trkpt lat="45.80455" lon="6.73526">
        <ele>1568</ele>
        <time>2026-08-14T09:43:35.540Z</time>
      </trkpt>
      <trkpt lat="45.80454" lon="6.73527">
        <ele>1568</ele>
        <time>2026-08-14T09:43:36.540Z</time>
      </trkpt>
      <trkpt lat="45.80453" lon="6.73528">
        <ele>1568</ele>
        <time>2026-08-14T09:43:37.540Z</time>
      </trkpt>
      <trkpt lat="45.80453" lon="6.73529">
        <ele>1569</ele>
        <time>2026-08-14T09:43:38.540Z</time>
      </trkpt>
      <trkpt lat="45.80452" lon="6.73529">
        <ele>1569</ele>
        <time>2026-08-14T09:43:39.540Z</time>
      </trkpt>
      <trkpt lat="45.8045" lon="6.7353">
        <ele>1569</ele>
        <time>2026-08-14T09:43:40.540Z</time>
      </trkpt>
      <trkpt lat="45.80449" lon="6.73531">
        <ele>1569</ele>
        <time>2026-08-14T09:43:41.540Z</time>
      </trkpt>
      <trkpt lat="45.80449" lon="6.73531">
        <ele>1569</ele>
        <time>2026-08-14T09:43:42.540Z</time>
      </trkpt>
      <trkpt lat="45.80449" lon="6.73532">
        <ele>1569</ele>
        <time>2026-08-14T09:43:43.540Z</time>
      </trkpt>
      <trkpt lat="45.80448" lon="6.73532">
        <ele>1569</ele>
        <time>2026-08-14T09:43:44.540Z</time>
      </trkpt>
      <trkpt lat="45.80447" lon="6.73533">
        <ele>1569</ele>
        <time>2026-08-14T09:43:45.540Z</time>
      </trkpt>
      <trkpt lat="45.80447" lon="6.73533">
        <ele>1570</ele>
        <time>2026-08-14T09:43:46.540Z</time>
      </trkpt>
      <trkpt lat="45.80447" lon="6.73533">
        <ele>1570</ele>
        <time>2026-08-14T09:43:47.540Z</time>
      </trkpt>
      <trkpt lat="45.80447" lon="6.73533">
        <ele>1570</ele>
        <time>2026-08-14T09:43:48.540Z</time>
      </trkpt>
      <trkpt lat="45.80446" lon="6.73534">
        <ele>1570</ele>
        <time>2026-08-14T09:43:49.540Z</time>
      </trkpt>
      <trkpt lat="45.80445" lon="6.73535">
        <ele>1571</ele>
        <time>2026-08-14T09:43:50.540Z</time>
      </trkpt>
      <trkpt lat="45.80443" lon="6.73535">
        <ele>1571</ele>
        <time>2026-08-14T09:43:51.540Z</time>
      </trkpt>
      <trkpt lat="45.80441" lon="6.73534">
        <ele>1571</ele>
        <time>2026-08-14T09:43:52.540Z</time>
      </trkpt>
      <trkpt lat="45.80439" lon="6.73534">
        <ele>1572</ele>
        <time>2026-08-14T09:43:53.540Z</time>
      </trkpt>
      <trkpt lat="45.80438" lon="6.73532">
        <ele>1572</ele>
        <time>2026-08-14T09:43:54.540Z</time>
      </trkpt>
      <trkpt lat="45.80437" lon="6.73532">
        <ele>1572</ele>
        <time>2026-08-14T09:43:55.540Z</time>
      </trkpt>
      <trkpt lat="45.80436" lon="6.73531">
        <ele>1573</ele>
        <time>2026-08-14T09:43:56.540Z</time>
      </trkpt>
      <trkpt lat="45.80435" lon="6.73529">
        <ele>1573</ele>
        <time>2026-08-14T09:43:57.540Z</time>
      </trkpt>
      <trkpt lat="45.80435" lon="6.73528">
        <ele>1573</ele>
        <time>2026-08-14T09:43:58.540Z</time>
      </trkpt>
      <trkpt lat="45.80434" lon="6.73526">
        <ele>1573</ele>
        <time>2026-08-14T09:43:59.540Z</time>
      </trkpt>
      <trkpt lat="45.80433" lon="6.73524">
        <ele>1574</ele>
        <time>2026-08-14T09:44:00.540Z</time>
      </trkpt>
      <trkpt lat="45.80432" lon="6.73522">
        <ele>1574</ele>
        <time>2026-08-14T09:44:01.540Z</time>
      </trkpt>
      <trkpt lat="45.80431" lon="6.73521">
        <ele>1574</ele>
        <time>2026-08-14T09:44:02.540Z</time>
      </trkpt>
      <trkpt lat="45.80431" lon="6.73519">
        <ele>1575</ele>
        <time>2026-08-14T09:44:03.540Z</time>
      </trkpt>
      <trkpt lat="45.8043" lon="6.73518">
        <ele>1575</ele>
        <time>2026-08-14T09:44:04.540Z</time>
      </trkpt>
      <trkpt lat="45.80429" lon="6.73518">
        <ele>1575</ele>
        <time>2026-08-14T09:44:05.540Z</time>
      </trkpt>
      <trkpt lat="45.80427" lon="6.73517">
        <ele>1575</ele>
        <time>2026-08-14T09:44:06.540Z</time>
      </trkpt>
      <trkpt lat="45.80426" lon="6.73516">
        <ele>1575</ele>
        <time>2026-08-14T09:44:07.540Z</time>
      </trkpt>
      <trkpt lat="45.80424" lon="6.73515">
        <ele>1576</ele>
        <time>2026-08-14T09:44:08.540Z</time>
      </trkpt>
      <trkpt lat="45.80424" lon="6.73515">
        <ele>1576</ele>
        <time>2026-08-14T09:44:09.540Z</time>
      </trkpt>
      <trkpt lat="45.80423" lon="6.73514">
        <ele>1576</ele>
        <time>2026-08-14T09:44:10.540Z</time>
      </trkpt>
      <trkpt lat="45.80421" lon="6.73513">
        <ele>1576</ele>
        <time>2026-08-14T09:44:11.540Z</time>
      </trkpt>
      <trkpt lat="45.8042" lon="6.73512">
        <ele>1576</ele>
        <time>2026-08-14T09:44:12.540Z</time>
      </trkpt>
      <trkpt lat="45.80419" lon="6.73511">
        <ele>1576</ele>
        <time>2026-08-14T09:44:13.540Z</time>
      </trkpt>
      <trkpt lat="45.80418" lon="6.73511">
        <ele>1576</ele>
        <time>2026-08-14T09:44:14.540Z</time>
      </trkpt>
      <trkpt lat="45.80417" lon="6.73511">
        <ele>1576</ele>
        <time>2026-08-14T09:44:15.540Z</time>
      </trkpt>
      <trkpt lat="45.80417" lon="6.73511">
        <ele>1576</ele>
        <time>2026-08-14T09:44:16.540Z</time>
      </trkpt>
      <trkpt lat="45.80417" lon="6.73511">
        <ele>1576</ele>
        <time>2026-08-14T09:44:17.540Z</time>
      </trkpt>
      <trkpt lat="45.80417" lon="6.73512">
        <ele>1576</ele>
        <time>2026-08-14T09:44:18.540Z</time>
      </trkpt>
      <trkpt lat="45.80416" lon="6.73513">
        <ele>1576</ele>
        <time>2026-08-14T09:44:19.540Z</time>
      </trkpt>
      <trkpt lat="45.80416" lon="6.73514">
        <ele>1576</ele>
        <time>2026-08-14T09:44:20.540Z</time>
      </trkpt>
      <trkpt lat="45.80417" lon="6.73515">
        <ele>1576</ele>
        <time>2026-08-14T09:44:21.540Z</time>
      </trkpt>
      <trkpt lat="45.80416" lon="6.73516">
        <ele>1576</ele>
        <time>2026-08-14T09:44:22.540Z</time>
      </trkpt>
      <trkpt lat="45.80416" lon="6.73517">
        <ele>1576</ele>
        <time>2026-08-14T09:44:23.540Z</time>
      </trkpt>
      <trkpt lat="45.80415" lon="6.73518">
        <ele>1576</ele>
        <time>2026-08-14T09:44:24.540Z</time>
      </trkpt>
      <trkpt lat="45.80415" lon="6.73519">
        <ele>1576</ele>
        <time>2026-08-14T09:44:25.540Z</time>
      </trkpt>
      <trkpt lat="45.80413" lon="6.73519">
        <ele>1576</ele>
        <time>2026-08-14T09:44:26.540Z</time>
      </trkpt>
      <trkpt lat="45.80413" lon="6.73521">
        <ele>1576</ele>
        <time>2026-08-14T09:44:27.540Z</time>
      </trkpt>
      <trkpt lat="45.80412" lon="6.73522">
        <ele>1576</ele>
        <time>2026-08-14T09:44:28.540Z</time>
      </trkpt>
      <trkpt lat="45.80412" lon="6.73524">
        <ele>1577</ele>
        <time>2026-08-14T09:44:29.540Z</time>
      </trkpt>
      <trkpt lat="45.80411" lon="6.73525">
        <ele>1577</ele>
        <time>2026-08-14T09:44:30.540Z</time>
      </trkpt>
      <trkpt lat="45.80411" lon="6.73525">
        <ele>1578</ele>
        <time>2026-08-14T09:44:31.540Z</time>
      </trkpt>
      <trkpt lat="45.80411" lon="6.73526">
        <ele>1579</ele>
        <time>2026-08-14T09:44:32.540Z</time>
      </trkpt>
      <trkpt lat="45.80412" lon="6.73527">
        <ele>1580</ele>
        <time>2026-08-14T09:44:33.540Z</time>
      </trkpt>
      <trkpt lat="45.80413" lon="6.73529">
        <ele>1580</ele>
        <time>2026-08-14T09:44:34.540Z</time>
      </trkpt>
      <trkpt lat="45.80413" lon="6.7353">
        <ele>1581</ele>
        <time>2026-08-14T09:44:35.540Z</time>
      </trkpt>
      <trkpt lat="45.80414" lon="6.73531">
        <ele>1581</ele>
        <time>2026-08-14T09:44:36.540Z</time>
      </trkpt>
      <trkpt lat="45.80414" lon="6.73533">
        <ele>1582</ele>
        <time>2026-08-14T09:44:37.540Z</time>
      </trkpt>
      <trkpt lat="45.80414" lon="6.73535">
        <ele>1583</ele>
        <time>2026-08-14T09:44:38.540Z</time>
      </trkpt>
      <trkpt lat="45.80414" lon="6.73536">
        <ele>1583</ele>
        <time>2026-08-14T09:44:39.540Z</time>
      </trkpt>
      <trkpt lat="45.80414" lon="6.73538">
        <ele>1584</ele>
        <time>2026-08-14T09:44:40.540Z</time>
      </trkpt>
      <trkpt lat="45.80413" lon="6.7354">
        <ele>1585</ele>
        <time>2026-08-14T09:44:41.540Z</time>
      </trkpt>
      <trkpt lat="45.80413" lon="6.73541">
        <ele>1585</ele>
        <time>2026-08-14T09:44:42.540Z</time>
      </trkpt>
      <trkpt lat="45.80413" lon="6.73542">
        <ele>1586</ele>
        <time>2026-08-14T09:44:43.540Z</time>
      </trkpt>
      <trkpt lat="45.80413" lon="6.73544">
        <ele>1586</ele>
        <time>2026-08-14T09:44:44.540Z</time>
      </trkpt>
      <trkpt lat="45.80414" lon="6.73546">
        <ele>1587</ele>
        <time>2026-08-14T09:44:45.540Z</time>
      </trkpt>
      <trkpt lat="45.80415" lon="6.73548">
        <ele>1588</ele>
        <time>2026-08-14T09:44:46.540Z</time>
      </trkpt>
      <trkpt lat="45.80416" lon="6.73551">
        <ele>1588</ele>
        <time>2026-08-14T09:44:47.540Z</time>
      </trkpt>
      <trkpt lat="45.80416" lon="6.73553">
        <ele>1589</ele>
        <time>2026-08-14T09:44:48.540Z</time>
      </trkpt>
      <trkpt lat="45.80416" lon="6.73555">
        <ele>1590</ele>
        <time>2026-08-14T09:44:49.540Z</time>
      </trkpt>
      <trkpt lat="45.80416" lon="6.73557">
        <ele>1590</ele>
        <time>2026-08-14T09:44:50.540Z</time>
      </trkpt>
      <trkpt lat="45.80416" lon="6.73559">
        <ele>1591</ele>
        <time>2026-08-14T09:44:51.540Z</time>
      </trkpt>
      <trkpt lat="45.80416" lon="6.7356">
        <ele>1591</ele>
        <time>2026-08-14T09:44:52.540Z</time>
      </trkpt>
      <trkpt lat="45.80417" lon="6.73561">
        <ele>1592</ele>
        <time>2026-08-14T09:44:53.540Z</time>
      </trkpt>
      <trkpt lat="45.80418" lon="6.73562">
        <ele>1592</ele>
        <time>2026-08-14T09:44:54.540Z</time>
      </trkpt>
      <trkpt lat="45.80418" lon="6.73561">
        <ele>1592</ele>
        <time>2026-08-14T09:44:55.540Z</time>
      </trkpt>
      <trkpt lat="45.80419" lon="6.73561">
        <ele>1593</ele>
        <time>2026-08-14T09:44:56.540Z</time>
      </trkpt>
      <trkpt lat="45.8042" lon="6.73561">
        <ele>1593</ele>
        <time>2026-08-14T09:44:57.540Z</time>
      </trkpt>
      <trkpt lat="45.80421" lon="6.73561">
        <ele>1593</ele>
        <time>2026-08-14T09:44:58.540Z</time>
      </trkpt>
      <trkpt lat="45.80422" lon="6.7356">
        <ele>1593</ele>
        <time>2026-08-14T09:44:59.540Z</time>
      </trkpt>
      <trkpt lat="45.80423" lon="6.7356">
        <ele>1593</ele>
        <time>2026-08-14T09:45:00.540Z</time>
      </trkpt>
      <trkpt lat="45.80425" lon="6.7356">
        <ele>1594</ele>
        <time>2026-08-14T09:45:01.540Z</time>
      </trkpt>
      <trkpt lat="45.80426" lon="6.73559">
        <ele>1594</ele>
        <time>2026-08-14T09:45:02.540Z</time>
      </trkpt>
      <trkpt lat="45.80427" lon="6.73559">
        <ele>1594</ele>
        <time>2026-08-14T09:45:03.540Z</time>
      </trkpt>
      <trkpt lat="45.80428" lon="6.73558">
        <ele>1594</ele>
        <time>2026-08-14T09:45:04.540Z</time>
      </trkpt>
      <trkpt lat="45.80429" lon="6.73558">
        <ele>1595</ele>
        <time>2026-08-14T09:45:05.540Z</time>
      </trkpt>
      <trkpt lat="45.80431" lon="6.73558">
        <ele>1595</ele>
        <time>2026-08-14T09:45:06.540Z</time>
      </trkpt>
      <trkpt lat="45.80432" lon="6.73557">
        <ele>1595</ele>
        <time>2026-08-14T09:45:07.540Z</time>
      </trkpt>
      <trkpt lat="45.80434" lon="6.73556">
        <ele>1596</ele>
        <time>2026-08-14T09:45:08.540Z</time>
      </trkpt>
      <trkpt lat="45.80435" lon="6.73556">
        <ele>1596</ele>
        <time>2026-08-14T09:45:09.540Z</time>
      </trkpt>
      <trkpt lat="45.80436" lon="6.73557">
        <ele>1596</ele>
        <time>2026-08-14T09:45:10.540Z</time>
      </trkpt>
      <trkpt lat="45.80437" lon="6.73557">
        <ele>1596</ele>
        <time>2026-08-14T09:45:11.540Z</time>
      </trkpt>
      <trkpt lat="45.80438" lon="6.73557">
        <ele>1596</ele>
        <time>2026-08-14T09:45:12.540Z</time>
      </trkpt>
      <trkpt lat="45.80439" lon="6.73557">
        <ele>1596</ele>
        <time>2026-08-14T09:45:13.540Z</time>
      </trkpt>
      <trkpt lat="45.8044" lon="6.73556">
        <ele>1596</ele>
        <time>2026-08-14T09:45:14.540Z</time>
      </trkpt>
      <trkpt lat="45.80441" lon="6.73556">
        <ele>1597</ele>
        <time>2026-08-14T09:45:15.540Z</time>
      </trkpt>
      <trkpt lat="45.80442" lon="6.73556">
        <ele>1597</ele>
        <time>2026-08-14T09:45:16.540Z</time>
      </trkpt>
      <trkpt lat="45.80443" lon="6.73556">
        <ele>1597</ele>
        <time>2026-08-14T09:45:17.540Z</time>
      </trkpt>
      <trkpt lat="45.80444" lon="6.73556">
        <ele>1598</ele>
        <time>2026-08-14T09:45:18.540Z</time>
      </trkpt>
      <trkpt lat="45.80446" lon="6.73557">
        <ele>1598</ele>
        <time>2026-08-14T09:45:19.540Z</time>
      </trkpt>
      <trkpt lat="45.80448" lon="6.73559">
        <ele>1597</ele>
        <time>2026-08-14T09:45:20.540Z</time>
      </trkpt>
      <trkpt lat="45.8045" lon="6.7356">
        <ele>1597</ele>
        <time>2026-08-14T09:45:21.540Z</time>
      </trkpt>
      <trkpt lat="45.80451" lon="6.7356">
        <ele>1598</ele>
        <time>2026-08-14T09:45:22.540Z</time>
      </trkpt>
      <trkpt lat="45.80453" lon="6.73561">
        <ele>1598</ele>
        <time>2026-08-14T09:45:23.540Z</time>
      </trkpt>
      <trkpt lat="45.80454" lon="6.73562">
        <ele>1598</ele>
        <time>2026-08-14T09:45:24.540Z</time>
      </trkpt>
      <trkpt lat="45.80455" lon="6.73564">
        <ele>1598</ele>
        <time>2026-08-14T09:45:25.540Z</time>
      </trkpt>
      <trkpt lat="45.80455" lon="6.73565">
        <ele>1598</ele>
        <time>2026-08-14T09:45:26.540Z</time>
      </trkpt>
      <trkpt lat="45.80455" lon="6.73566">
        <ele>1598</ele>
        <time>2026-08-14T09:45:27.540Z</time>
      </trkpt>
      <trkpt lat="45.80454" lon="6.73567">
        <ele>1598</ele>
        <time>2026-08-14T09:45:28.540Z</time>
      </trkpt>
      <trkpt lat="45.80454" lon="6.73569">
        <ele>1598</ele>
        <time>2026-08-14T09:45:29.540Z</time>
      </trkpt>
      <trkpt lat="45.80453" lon="6.7357">
        <ele>1598</ele>
        <time>2026-08-14T09:45:30.540Z</time>
      </trkpt>
      <trkpt lat="45.80452" lon="6.7357">
        <ele>1598</ele>
        <time>2026-08-14T09:45:31.540Z</time>
      </trkpt>
      <trkpt lat="45.80452" lon="6.7357">
        <ele>1597</ele>
        <time>2026-08-14T09:45:32.540Z</time>
      </trkpt>
      <trkpt lat="45.80451" lon="6.73571">
        <ele>1597</ele>
        <time>2026-08-14T09:45:33.540Z</time>
      </trkpt>
      <trkpt lat="45.80451" lon="6.73571">
        <ele>1597</ele>
        <time>2026-08-14T09:45:34.540Z</time>
      </trkpt>
      <trkpt lat="45.8045" lon="6.73571">
        <ele>1597</ele>
        <time>2026-08-14T09:45:35.540Z</time>
      </trkpt>
      <trkpt lat="45.80451" lon="6.73571">
        <ele>1597</ele>
        <time>2026-08-14T09:45:36.540Z</time>
      </trkpt>
      <trkpt lat="45.80451" lon="6.73572">
        <ele>1597</ele>
        <time>2026-08-14T09:45:37.540Z</time>
      </trkpt>
      <trkpt lat="45.80452" lon="6.73572">
        <ele>1597</ele>
        <time>2026-08-14T09:45:38.540Z</time>
      </trkpt>
      <trkpt lat="45.80453" lon="6.73573">
        <ele>1597</ele>
        <time>2026-08-14T09:45:39.540Z</time>
      </trkpt>
      <trkpt lat="45.80453" lon="6.73573">
        <ele>1597</ele>
        <time>2026-08-14T09:45:40.540Z</time>
      </trkpt>
      <trkpt lat="45.80453" lon="6.73574">
        <ele>1597</ele>
        <time>2026-08-14T09:45:41.540Z</time>
      </trkpt>
      <trkpt lat="45.80453" lon="6.73574">
        <ele>1597</ele>
        <time>2026-08-14T09:45:42.540Z</time>
      </trkpt>
      <trkpt lat="45.80453" lon="6.73575">
        <ele>1597</ele>
        <time>2026-08-14T09:45:43.540Z</time>
      </trkpt>
      <trkpt lat="45.80453" lon="6.73575">
        <ele>1597</ele>
        <time>2026-08-14T09:45:44.540Z</time>
      </trkpt>
      <trkpt lat="45.80452" lon="6.73576">
        <ele>1598</ele>
        <time>2026-08-14T09:45:45.540Z</time>
      </trkpt>
      <trkpt lat="45.80452" lon="6.73577">
        <ele>1598</ele>
        <time>2026-08-14T09:45:46.540Z</time>
      </trkpt>
      <trkpt lat="45.80451" lon="6.73578">
        <ele>1598</ele>
        <time>2026-08-14T09:45:47.540Z</time>
      </trkpt>
      <trkpt lat="45.80449" lon="6.73579">
        <ele>1598</ele>
        <time>2026-08-14T09:45:48.540Z</time>
      </trkpt>
      <trkpt lat="45.80447" lon="6.73579">
        <ele>1598</ele>
        <time>2026-08-14T09:45:49.540Z</time>
      </trkpt>
      <trkpt lat="45.80446" lon="6.7358">
        <ele>1598</ele>
        <time>2026-08-14T09:45:50.540Z</time>
      </trkpt>
      <trkpt lat="45.80446" lon="6.7358">
        <ele>1599</ele>
        <time>2026-08-14T09:45:51.540Z</time>
      </trkpt>
      <trkpt lat="45.80445" lon="6.73579">
        <ele>1599</ele>
        <time>2026-08-14T09:45:52.540Z</time>
      </trkpt>
      <trkpt lat="45.80444" lon="6.73579">
        <ele>1599</ele>
        <time>2026-08-14T09:45:53.540Z</time>
      </trkpt>
      <trkpt lat="45.80443" lon="6.73579">
        <ele>1599</ele>
        <time>2026-08-14T09:45:54.540Z</time>
      </trkpt>
      <trkpt lat="45.80443" lon="6.73579">
        <ele>1599</ele>
        <time>2026-08-14T09:45:55.540Z</time>
      </trkpt>
      <trkpt lat="45.80443" lon="6.73579">
        <ele>1599</ele>
        <time>2026-08-14T09:45:56.540Z</time>
      </trkpt>
      <trkpt lat="45.80442" lon="6.73581">
        <ele>1599</ele>
        <time>2026-08-14T09:45:57.540Z</time>
      </trkpt>
      <trkpt lat="45.80442" lon="6.73581">
        <ele>1599</ele>
        <time>2026-08-14T09:45:58.540Z</time>
      </trkpt>
      <trkpt lat="45.80443" lon="6.73581">
        <ele>1599</ele>
        <time>2026-08-14T09:45:59.540Z</time>
      </trkpt>
      <trkpt lat="45.80443" lon="6.73581">
        <ele>1599</ele>
        <time>2026-08-14T09:46:00.540Z</time>
      </trkpt>
      <trkpt lat="45.80444" lon="6.73581">
        <ele>1599</ele>
        <time>2026-08-14T09:46:01.540Z</time>
      </trkpt>
      <trkpt lat="45.80445" lon="6.73581">
        <ele>1599</ele>
        <time>2026-08-14T09:46:02.540Z</time>
      </trkpt>
      <trkpt lat="45.80447" lon="6.73582">
        <ele>1599</ele>
        <time>2026-08-14T09:46:03.540Z</time>
      </trkpt>
      <trkpt lat="45.80448" lon="6.73582">
        <ele>1599</ele>
        <time>2026-08-14T09:46:04.540Z</time>
      </trkpt>
      <trkpt lat="45.80449" lon="6.73583">
        <ele>1600</ele>
        <time>2026-08-14T09:46:05.540Z</time>
      </trkpt>
      <trkpt lat="45.8045" lon="6.73584">
        <ele>1600</ele>
        <time>2026-08-14T09:46:06.540Z</time>
      </trkpt>
      <trkpt lat="45.8045" lon="6.73585">
        <ele>1600</ele>
        <time>2026-08-14T09:46:07.540Z</time>
      </trkpt>
      <trkpt lat="45.8045" lon="6.73585">
        <ele>1601</ele>
        <time>2026-08-14T09:46:08.540Z</time>
      </trkpt>
      <trkpt lat="45.8045" lon="6.73586">
        <ele>1601</ele>
        <time>2026-08-14T09:46:09.540Z</time>
      </trkpt>
      <trkpt lat="45.80451" lon="6.73586">
        <ele>1602</ele>
        <time>2026-08-14T09:46:10.540Z</time>
      </trkpt>
      <trkpt lat="45.80451" lon="6.73586">
        <ele>1602</ele>
        <time>2026-08-14T09:46:11.540Z</time>
      </trkpt>
      <trkpt lat="45.80451" lon="6.73587">
        <ele>1603</ele>
        <time>2026-08-14T09:46:12.540Z</time>
      </trkpt>
      <trkpt lat="45.80451" lon="6.73587">
        <ele>1603</ele>
        <time>2026-08-14T09:46:13.540Z</time>
      </trkpt>
      <trkpt lat="45.80451" lon="6.73588">
        <ele>1603</ele>
        <time>2026-08-14T09:46:14.540Z</time>
      </trkpt>
      <trkpt lat="45.80452" lon="6.73588">
        <ele>1604</ele>
        <time>2026-08-14T09:46:15.540Z</time>
      </trkpt>
      <trkpt lat="45.80452" lon="6.73589">
        <ele>1604</ele>
        <time>2026-08-14T09:46:16.540Z</time>
      </trkpt>
      <trkpt lat="45.80452" lon="6.7359">
        <ele>1604</ele>
        <time>2026-08-14T09:46:17.540Z</time>
      </trkpt>
      <trkpt lat="45.80452" lon="6.73591">
        <ele>1605</ele>
        <time>2026-08-14T09:46:18.540Z</time>
      </trkpt>
      <trkpt lat="45.80451" lon="6.73591">
        <ele>1605</ele>
        <time>2026-08-14T09:46:19.540Z</time>
      </trkpt>
      <trkpt lat="45.80449" lon="6.73591">
        <ele>1606</ele>
        <time>2026-08-14T09:46:20.540Z</time>
      </trkpt>
      <trkpt lat="45.80448" lon="6.73592">
        <ele>1606</ele>
        <time>2026-08-14T09:46:21.540Z</time>
      </trkpt>
      <trkpt lat="45.80447" lon="6.73592">
        <ele>1607</ele>
        <time>2026-08-14T09:46:22.540Z</time>
      </trkpt>
      <trkpt lat="45.80446" lon="6.73591">
        <ele>1607</ele>
        <time>2026-08-14T09:46:23.540Z</time>
      </trkpt>
      <trkpt lat="45.80446" lon="6.73591">
        <ele>1607</ele>
        <time>2026-08-14T09:46:24.540Z</time>
      </trkpt>
      <trkpt lat="45.80445" lon="6.73591">
        <ele>1607</ele>
        <time>2026-08-14T09:46:25.540Z</time>
      </trkpt>
      <trkpt lat="45.80444" lon="6.7359">
        <ele>1607</ele>
        <time>2026-08-14T09:46:26.540Z</time>
      </trkpt>
      <trkpt lat="45.80443" lon="6.7359">
        <ele>1607</ele>
        <time>2026-08-14T09:46:27.540Z</time>
      </trkpt>
      <trkpt lat="45.80442" lon="6.7359">
        <ele>1608</ele>
        <time>2026-08-14T09:46:28.540Z</time>
      </trkpt>
      <trkpt lat="45.80441" lon="6.7359">
        <ele>1608</ele>
        <time>2026-08-14T09:46:29.540Z</time>
      </trkpt>
      <trkpt lat="45.8044" lon="6.73591">
        <ele>1608</ele>
        <time>2026-08-14T09:46:30.540Z</time>
      </trkpt>
      <trkpt lat="45.80439" lon="6.73592">
        <ele>1608</ele>
        <time>2026-08-14T09:46:31.540Z</time>
      </trkpt>
      <trkpt lat="45.80439" lon="6.73593">
        <ele>1608</ele>
        <time>2026-08-14T09:46:32.540Z</time>
      </trkpt>
      <trkpt lat="45.80438" lon="6.73593">
        <ele>1609</ele>
        <time>2026-08-14T09:46:33.540Z</time>
      </trkpt>
      <trkpt lat="45.80438" lon="6.73594">
        <ele>1609</ele>
        <time>2026-08-14T09:46:34.540Z</time>
      </trkpt>
      <trkpt lat="45.80437" lon="6.73595">
        <ele>1610</ele>
        <time>2026-08-14T09:46:35.540Z</time>
      </trkpt>
      <trkpt lat="45.80436" lon="6.73596">
        <ele>1610</ele>
        <time>2026-08-14T09:46:36.540Z</time>
      </trkpt>
      <trkpt lat="45.80435" lon="6.73597">
        <ele>1611</ele>
        <time>2026-08-14T09:46:37.540Z</time>
      </trkpt>
      <trkpt lat="45.80433" lon="6.73598">
        <ele>1611</ele>
        <time>2026-08-14T09:46:38.540Z</time>
      </trkpt>
      <trkpt lat="45.80432" lon="6.73598">
        <ele>1612</ele>
        <time>2026-08-14T09:46:39.540Z</time>
      </trkpt>
      <trkpt lat="45.8043" lon="6.736">
        <ele>1612</ele>
        <time>2026-08-14T09:46:40.540Z</time>
      </trkpt>
      <trkpt lat="45.80429" lon="6.73601">
        <ele>1613</ele>
        <time>2026-08-14T09:46:41.540Z</time>
      </trkpt>
      <trkpt lat="45.80428" lon="6.73602">
        <ele>1613</ele>
        <time>2026-08-14T09:46:42.540Z</time>
      </trkpt>
      <trkpt lat="45.80427" lon="6.73604">
        <ele>1614</ele>
        <time>2026-08-14T09:46:43.540Z</time>
      </trkpt>
      <trkpt lat="45.80425" lon="6.73606">
        <ele>1614</ele>
        <time>2026-08-14T09:46:44.540Z</time>
      </trkpt>
      <trkpt lat="45.80423" lon="6.73608">
        <ele>1615</ele>
        <time>2026-08-14T09:46:45.540Z</time>
      </trkpt>
      <trkpt lat="45.80422" lon="6.73609">
        <ele>1615</ele>
        <time>2026-08-14T09:46:46.540Z</time>
      </trkpt>
      <trkpt lat="45.8042" lon="6.7361">
        <ele>1615</ele>
        <time>2026-08-14T09:46:47.540Z</time>
      </trkpt>
      <trkpt lat="45.80418" lon="6.73611">
        <ele>1615</ele>
        <time>2026-08-14T09:46:48.540Z</time>
      </trkpt>
      <trkpt lat="45.80416" lon="6.73612">
        <ele>1615</ele>
        <time>2026-08-14T09:46:49.540Z</time>
      </trkpt>
      <trkpt lat="45.80415" lon="6.73613">
        <ele>1615</ele>
        <time>2026-08-14T09:46:50.540Z</time>
      </trkpt>
      <trkpt lat="45.80414" lon="6.73613">
        <ele>1615</ele>
        <time>2026-08-14T09:46:51.540Z</time>
      </trkpt>
      <trkpt lat="45.80413" lon="6.73613">
        <ele>1616</ele>
        <time>2026-08-14T09:46:52.540Z</time>
      </trkpt>
      <trkpt lat="45.80412" lon="6.73613">
        <ele>1616</ele>
        <time>2026-08-14T09:46:53.540Z</time>
      </trkpt>
      <trkpt lat="45.8041" lon="6.73613">
        <ele>1615</ele>
        <time>2026-08-14T09:46:54.540Z</time>
      </trkpt>
      <trkpt lat="45.80409" lon="6.73614">
        <ele>1615</ele>
        <time>2026-08-14T09:46:55.540Z</time>
      </trkpt>
      <trkpt lat="45.80408" lon="6.73615">
        <ele>1615</ele>
        <time>2026-08-14T09:46:56.540Z</time>
      </trkpt>
      <trkpt lat="45.80407" lon="6.73615">
        <ele>1614</ele>
        <time>2026-08-14T09:46:57.540Z</time>
      </trkpt>
      <trkpt lat="45.80406" lon="6.73615">
        <ele>1613</ele>
        <time>2026-08-14T09:46:58.540Z</time>
      </trkpt>
      <trkpt lat="45.80405" lon="6.73615">
        <ele>1613</ele>
        <time>2026-08-14T09:46:59.540Z</time>
      </trkpt>
      <trkpt lat="45.80404" lon="6.73615">
        <ele>1612</ele>
        <time>2026-08-14T09:47:00.540Z</time>
      </trkpt>
      <trkpt lat="45.80402" lon="6.73615">
        <ele>1612</ele>
        <time>2026-08-14T09:47:01.540Z</time>
      </trkpt>
      <trkpt lat="45.80402" lon="6.73615">
        <ele>1612</ele>
        <time>2026-08-14T09:47:02.540Z</time>
      </trkpt>
      <trkpt lat="45.80401" lon="6.73615">
        <ele>1612</ele>
        <time>2026-08-14T09:47:03.540Z</time>
      </trkpt>
      <trkpt lat="45.80401" lon="6.73615">
        <ele>1613</ele>
        <time>2026-08-14T09:47:04.540Z</time>
      </trkpt>
      <trkpt lat="45.80402" lon="6.73616">
        <ele>1613</ele>
        <time>2026-08-14T09:47:05.540Z</time>
      </trkpt>
      <trkpt lat="45.80402" lon="6.73617">
        <ele>1613</ele>
        <time>2026-08-14T09:47:06.540Z</time>
      </trkpt>
      <trkpt lat="45.80403" lon="6.73619">
        <ele>1613</ele>
        <time>2026-08-14T09:47:07.540Z</time>
      </trkpt>
      <trkpt lat="45.80404" lon="6.7362">
        <ele>1612</ele>
        <time>2026-08-14T09:47:08.540Z</time>
      </trkpt>
      <trkpt lat="45.80405" lon="6.7362">
        <ele>1612</ele>
        <time>2026-08-14T09:47:09.540Z</time>
      </trkpt>
      <trkpt lat="45.80407" lon="6.73621">
        <ele>1612</ele>
        <time>2026-08-14T09:47:10.540Z</time>
      </trkpt>
      <trkpt lat="45.80408" lon="6.73621">
        <ele>1613</ele>
        <time>2026-08-14T09:47:11.540Z</time>
      </trkpt>
      <trkpt lat="45.8041" lon="6.73621">
        <ele>1613</ele>
        <time>2026-08-14T09:47:12.540Z</time>
      </trkpt>
      <trkpt lat="45.80412" lon="6.73621">
        <ele>1613</ele>
        <time>2026-08-14T09:47:13.540Z</time>
      </trkpt>
      <trkpt lat="45.80413" lon="6.7362">
        <ele>1613</ele>
        <time>2026-08-14T09:47:14.540Z</time>
      </trkpt>
      <trkpt lat="45.80415" lon="6.73621">
        <ele>1613</ele>
        <time>2026-08-14T09:47:15.540Z</time>
      </trkpt>
      <trkpt lat="45.80416" lon="6.73621">
        <ele>1613</ele>
        <time>2026-08-14T09:47:16.540Z</time>
      </trkpt>
      <trkpt lat="45.80417" lon="6.73621">
        <ele>1614</ele>
        <time>2026-08-14T09:47:17.540Z</time>
      </trkpt>
      <trkpt lat="45.80419" lon="6.73621">
        <ele>1614</ele>
        <time>2026-08-14T09:47:18.540Z</time>
      </trkpt>
      <trkpt lat="45.8042" lon="6.73621">
        <ele>1614</ele>
        <time>2026-08-14T09:47:19.540Z</time>
      </trkpt>
      <trkpt lat="45.80421" lon="6.7362">
        <ele>1614</ele>
        <time>2026-08-14T09:47:20.540Z</time>
      </trkpt>
      <trkpt lat="45.80422" lon="6.7362">
        <ele>1615</ele>
        <time>2026-08-14T09:47:21.540Z</time>
      </trkpt>
      <trkpt lat="45.80423" lon="6.73621">
        <ele>1616</ele>
        <time>2026-08-14T09:47:22.540Z</time>
      </trkpt>
      <trkpt lat="45.80424" lon="6.73622">
        <ele>1616</ele>
        <time>2026-08-14T09:47:23.540Z</time>
      </trkpt>
      <trkpt lat="45.80425" lon="6.73621">
        <ele>1617</ele>
        <time>2026-08-14T09:47:24.540Z</time>
      </trkpt>
      <trkpt lat="45.80426" lon="6.73621">
        <ele>1618</ele>
        <time>2026-08-14T09:47:25.540Z</time>
      </trkpt>
      <trkpt lat="45.80427" lon="6.73621">
        <ele>1618</ele>
        <time>2026-08-14T09:47:26.540Z</time>
      </trkpt>
      <trkpt lat="45.80428" lon="6.73621">
        <ele>1618</ele>
        <time>2026-08-14T09:47:27.540Z</time>
      </trkpt>
      <trkpt lat="45.8043" lon="6.73621">
        <ele>1619</ele>
        <time>2026-08-14T09:47:28.540Z</time>
      </trkpt>
      <trkpt lat="45.80431" lon="6.7362">
        <ele>1619</ele>
        <time>2026-08-14T09:47:29.540Z</time>
      </trkpt>
      <trkpt lat="45.80432" lon="6.73619">
        <ele>1619</ele>
        <time>2026-08-14T09:47:30.540Z</time>
      </trkpt>
      <trkpt lat="45.80433" lon="6.73618">
        <ele>1620</ele>
        <time>2026-08-14T09:47:31.540Z</time>
      </trkpt>
      <trkpt lat="45.80434" lon="6.73618">
        <ele>1620</ele>
        <time>2026-08-14T09:47:32.540Z</time>
      </trkpt>
      <trkpt lat="45.80435" lon="6.73618">
        <ele>1620</ele>
        <time>2026-08-14T09:47:33.540Z</time>
      </trkpt>
      <trkpt lat="45.80435" lon="6.73618">
        <ele>1621</ele>
        <time>2026-08-14T09:47:34.540Z</time>
      </trkpt>
      <trkpt lat="45.80435" lon="6.73618">
        <ele>1621</ele>
        <time>2026-08-14T09:47:35.540Z</time>
      </trkpt>
      <trkpt lat="45.80436" lon="6.73618">
        <ele>1622</ele>
        <time>2026-08-14T09:47:36.540Z</time>
      </trkpt>
      <trkpt lat="45.80437" lon="6.73618">
        <ele>1622</ele>
        <time>2026-08-14T09:47:37.540Z</time>
      </trkpt>
      <trkpt lat="45.80438" lon="6.73619">
        <ele>1622</ele>
        <time>2026-08-14T09:47:38.540Z</time>
      </trkpt>
      <trkpt lat="45.80439" lon="6.7362">
        <ele>1623</ele>
        <time>2026-08-14T09:47:39.540Z</time>
      </trkpt>
      <trkpt lat="45.80441" lon="6.73621">
        <ele>1623</ele>
        <time>2026-08-14T09:47:40.540Z</time>
      </trkpt>
      <trkpt lat="45.80442" lon="6.73622">
        <ele>1623</ele>
        <time>2026-08-14T09:47:41.540Z</time>
      </trkpt>
      <trkpt lat="45.80444" lon="6.73623">
        <ele>1623</ele>
        <time>2026-08-14T09:47:42.540Z</time>
      </trkpt>
      <trkpt lat="45.80445" lon="6.73624">
        <ele>1623</ele>
        <time>2026-08-14T09:47:43.540Z</time>
      </trkpt>
      <trkpt lat="45.80447" lon="6.73624">
        <ele>1623</ele>
        <time>2026-08-14T09:47:44.540Z</time>
      </trkpt>
      <trkpt lat="45.80449" lon="6.73626">
        <ele>1623</ele>
        <time>2026-08-14T09:47:45.540Z</time>
      </trkpt>
      <trkpt lat="45.8045" lon="6.73628">
        <ele>1623</ele>
        <time>2026-08-14T09:47:46.540Z</time>
      </trkpt>
      <trkpt lat="45.80451" lon="6.7363">
        <ele>1623</ele>
        <time>2026-08-14T09:47:47.540Z</time>
      </trkpt>
      <trkpt lat="45.80452" lon="6.73632">
        <ele>1623</ele>
        <time>2026-08-14T09:47:48.540Z</time>
      </trkpt>
      <trkpt lat="45.80452" lon="6.73632">
        <ele>1624</ele>
        <time>2026-08-14T09:47:49.540Z</time>
      </trkpt>
      <trkpt lat="45.80452" lon="6.73632">
        <ele>1623</ele>
        <time>2026-08-14T09:47:50.540Z</time>
      </trkpt>
      <trkpt lat="45.80453" lon="6.73632">
        <ele>1623</ele>
        <time>2026-08-14T09:47:51.540Z</time>
      </trkpt>
      <trkpt lat="45.80454" lon="6.73633">
        <ele>1624</ele>
        <time>2026-08-14T09:47:52.540Z</time>
      </trkpt>
      <trkpt lat="45.80455" lon="6.73633">
        <ele>1624</ele>
        <time>2026-08-14T09:47:53.540Z</time>
      </trkpt>
      <trkpt lat="45.80456" lon="6.73634">
        <ele>1624</ele>
        <time>2026-08-14T09:47:54.540Z</time>
      </trkpt>
      <trkpt lat="45.80458" lon="6.73634">
        <ele>1625</ele>
        <time>2026-08-14T09:47:55.540Z</time>
      </trkpt>
      <trkpt lat="45.80459" lon="6.73635">
        <ele>1625</ele>
        <time>2026-08-14T09:47:56.540Z</time>
      </trkpt>
      <trkpt lat="45.8046" lon="6.73636">
        <ele>1624</ele>
        <time>2026-08-14T09:47:57.540Z</time>
      </trkpt>
      <trkpt lat="45.80461" lon="6.73638">
        <ele>1624</ele>
        <time>2026-08-14T09:47:58.540Z</time>
      </trkpt>
      <trkpt lat="45.80462" lon="6.73639">
        <ele>1624</ele>
        <time>2026-08-14T09:47:59.540Z</time>
      </trkpt>
      <trkpt lat="45.80464" lon="6.73639">
        <ele>1623</ele>
        <time>2026-08-14T09:48:00.540Z</time>
      </trkpt>
      <trkpt lat="45.80465" lon="6.73638">
        <ele>1623</ele>
        <time>2026-08-14T09:48:01.540Z</time>
      </trkpt>
      <trkpt lat="45.80466" lon="6.73639">
        <ele>1623</ele>
        <time>2026-08-14T09:48:02.540Z</time>
      </trkpt>
      <trkpt lat="45.80467" lon="6.73639">
        <ele>1623</ele>
        <time>2026-08-14T09:48:03.540Z</time>
      </trkpt>
      <trkpt lat="45.80468" lon="6.73639">
        <ele>1623</ele>
        <time>2026-08-14T09:48:04.540Z</time>
      </trkpt>
      <trkpt lat="45.80469" lon="6.73639">
        <ele>1623</ele>
        <time>2026-08-14T09:48:05.540Z</time>
      </trkpt>
      <trkpt lat="45.8047" lon="6.7364">
        <ele>1622</ele>
        <time>2026-08-14T09:48:06.540Z</time>
      </trkpt>
      <trkpt lat="45.80471" lon="6.73641">
        <ele>1622</ele>
        <time>2026-08-14T09:48:07.540Z</time>
      </trkpt>
      <trkpt lat="45.80472" lon="6.73642">
        <ele>1622</ele>
        <time>2026-08-14T09:48:08.540Z</time>
      </trkpt>
      <trkpt lat="45.80473" lon="6.73642">
        <ele>1623</ele>
        <time>2026-08-14T09:48:09.540Z</time>
      </trkpt>
      <trkpt lat="45.80474" lon="6.73642">
        <ele>1623</ele>
        <time>2026-08-14T09:48:10.540Z</time>
      </trkpt>
      <trkpt lat="45.80475" lon="6.73642">
        <ele>1623</ele>
        <time>2026-08-14T09:48:11.540Z</time>
      </trkpt>
      <trkpt lat="45.80476" lon="6.73642">
        <ele>1624</ele>
        <time>2026-08-14T09:48:12.540Z</time>
      </trkpt>
      <trkpt lat="45.80477" lon="6.73642">
        <ele>1624</ele>
        <time>2026-08-14T09:48:13.540Z</time>
      </trkpt>
      <trkpt lat="45.80479" lon="6.73642">
        <ele>1625</ele>
        <time>2026-08-14T09:48:14.540Z</time>
      </trkpt>
      <trkpt lat="45.8048" lon="6.73642">
        <ele>1625</ele>
        <time>2026-08-14T09:48:15.540Z</time>
      </trkpt>
      <trkpt lat="45.80481" lon="6.73641">
        <ele>1626</ele>
        <time>2026-08-14T09:48:16.540Z</time>
      </trkpt>
      <trkpt lat="45.80482" lon="6.73641">
        <ele>1626</ele>
        <time>2026-08-14T09:48:17.540Z</time>
      </trkpt>
      <trkpt lat="45.80483" lon="6.7364">
        <ele>1626</ele>
        <time>2026-08-14T09:48:18.540Z</time>
      </trkpt>
      <trkpt lat="45.80485" lon="6.73641">
        <ele>1626</ele>
        <time>2026-08-14T09:48:19.540Z</time>
      </trkpt>
      <trkpt lat="45.80486" lon="6.73641">
        <ele>1627</ele>
        <time>2026-08-14T09:48:20.540Z</time>
      </trkpt>
      <trkpt lat="45.80486" lon="6.7364">
        <ele>1627</ele>
        <time>2026-08-14T09:48:21.540Z</time>
      </trkpt>
      <trkpt lat="45.80487" lon="6.7364">
        <ele>1628</ele>
        <time>2026-08-14T09:48:22.540Z</time>
      </trkpt>
      <trkpt lat="45.80489" lon="6.73641">
        <ele>1628</ele>
        <time>2026-08-14T09:48:23.540Z</time>
      </trkpt>
      <trkpt lat="45.8049" lon="6.73642">
        <ele>1629</ele>
        <time>2026-08-14T09:48:24.540Z</time>
      </trkpt>
      <trkpt lat="45.8049" lon="6.73643">
        <ele>1630</ele>
        <time>2026-08-14T09:48:25.540Z</time>
      </trkpt>
      <trkpt lat="45.80491" lon="6.73645">
        <ele>1630</ele>
        <time>2026-08-14T09:48:26.540Z</time>
      </trkpt>
      <trkpt lat="45.80492" lon="6.73648">
        <ele>1630</ele>
        <time>2026-08-14T09:48:27.540Z</time>
      </trkpt>
      <trkpt lat="45.80493" lon="6.73651">
        <ele>1631</ele>
        <time>2026-08-14T09:48:28.540Z</time>
      </trkpt>
      <trkpt lat="45.80493" lon="6.73653">
        <ele>1631</ele>
        <time>2026-08-14T09:48:29.540Z</time>
      </trkpt>
      <trkpt lat="45.80493" lon="6.73654">
        <ele>1631</ele>
        <time>2026-08-14T09:48:30.540Z</time>
      </trkpt>
      <trkpt lat="45.80494" lon="6.73656">
        <ele>1632</ele>
        <time>2026-08-14T09:48:31.540Z</time>
      </trkpt>
      <trkpt lat="45.80493" lon="6.73658">
        <ele>1632</ele>
        <time>2026-08-14T09:48:32.540Z</time>
      </trkpt>
      <trkpt lat="45.80493" lon="6.73661">
        <ele>1632</ele>
        <time>2026-08-14T09:48:33.540Z</time>
      </trkpt>
      <trkpt lat="45.80492" lon="6.73663">
        <ele>1633</ele>
        <time>2026-08-14T09:48:34.540Z</time>
      </trkpt>
      <trkpt lat="45.80492" lon="6.73665">
        <ele>1633</ele>
        <time>2026-08-14T09:48:35.540Z</time>
      </trkpt>
      <trkpt lat="45.80491" lon="6.73667">
        <ele>1634</ele>
        <time>2026-08-14T09:48:36.540Z</time>
      </trkpt>
      <trkpt lat="45.80491" lon="6.73668">
        <ele>1635</ele>
        <time>2026-08-14T09:48:37.540Z</time>
      </trkpt>
      <trkpt lat="45.8049" lon="6.73671">
        <ele>1635</ele>
        <time>2026-08-14T09:48:38.540Z</time>
      </trkpt>
      <trkpt lat="45.80491" lon="6.73673">
        <ele>1636</ele>
        <time>2026-08-14T09:48:39.540Z</time>
      </trkpt>
      <trkpt lat="45.80491" lon="6.73675">
        <ele>1637</ele>
        <time>2026-08-14T09:48:40.540Z</time>
      </trkpt>
      <trkpt lat="45.80491" lon="6.73677">
        <ele>1638</ele>
        <time>2026-08-14T09:48:41.540Z</time>
      </trkpt>
      <trkpt lat="45.80491" lon="6.73679">
        <ele>1639</ele>
        <time>2026-08-14T09:48:42.540Z</time>
      </trkpt>
      <trkpt lat="45.80491" lon="6.73681">
        <ele>1639</ele>
        <time>2026-08-14T09:48:43.540Z</time>
      </trkpt>
      <trkpt lat="45.80491" lon="6.73683">
        <ele>1639</ele>
        <time>2026-08-14T09:48:44.540Z</time>
      </trkpt>
      <trkpt lat="45.8049" lon="6.73684">
        <ele>1639</ele>
        <time>2026-08-14T09:48:45.540Z</time>
      </trkpt>
      <trkpt lat="45.8049" lon="6.73686">
        <ele>1640</ele>
        <time>2026-08-14T09:48:46.540Z</time>
      </trkpt>
      <trkpt lat="45.8049" lon="6.73688">
        <ele>1640</ele>
        <time>2026-08-14T09:48:47.540Z</time>
      </trkpt>
      <trkpt lat="45.80491" lon="6.7369">
        <ele>1640</ele>
        <time>2026-08-14T09:48:48.540Z</time>
      </trkpt>
      <trkpt lat="45.80491" lon="6.73691">
        <ele>1640</ele>
        <time>2026-08-14T09:48:49.540Z</time>
      </trkpt>
      <trkpt lat="45.80491" lon="6.73693">
        <ele>1640</ele>
        <time>2026-08-14T09:48:50.540Z</time>
      </trkpt>
      <trkpt lat="45.80492" lon="6.73695">
        <ele>1640</ele>
        <time>2026-08-14T09:48:51.540Z</time>
      </trkpt>
      <trkpt lat="45.80492" lon="6.73697">
        <ele>1640</ele>
        <time>2026-08-14T09:48:52.540Z</time>
      </trkpt>
      <trkpt lat="45.80492" lon="6.73699">
        <ele>1640</ele>
        <time>2026-08-14T09:48:53.540Z</time>
      </trkpt>
      <trkpt lat="45.80492" lon="6.73701">
        <ele>1640</ele>
        <time>2026-08-14T09:48:54.540Z</time>
      </trkpt>
      <trkpt lat="45.80492" lon="6.73703">
        <ele>1641</ele>
        <time>2026-08-14T09:48:55.540Z</time>
      </trkpt>
      <trkpt lat="45.80492" lon="6.73705">
        <ele>1641</ele>
        <time>2026-08-14T09:48:56.540Z</time>
      </trkpt>
      <trkpt lat="45.80491" lon="6.73707">
        <ele>1641</ele>
        <time>2026-08-14T09:48:57.540Z</time>
      </trkpt>
      <trkpt lat="45.80491" lon="6.73709">
        <ele>1641</ele>
        <time>2026-08-14T09:48:58.540Z</time>
      </trkpt>
      <trkpt lat="45.80491" lon="6.7371">
        <ele>1640</ele>
        <time>2026-08-14T09:48:59.540Z</time>
      </trkpt>
      <trkpt lat="45.80491" lon="6.73712">
        <ele>1640</ele>
        <time>2026-08-14T09:49:00.540Z</time>
      </trkpt>
      <trkpt lat="45.8049" lon="6.73713">
        <ele>1640</ele>
        <time>2026-08-14T09:49:01.540Z</time>
      </trkpt>
      <trkpt lat="45.80489" lon="6.73713">
        <ele>1640</ele>
        <time>2026-08-14T09:49:02.540Z</time>
      </trkpt>
      <trkpt lat="45.80488" lon="6.73714">
        <ele>1640</ele>
        <time>2026-08-14T09:49:03.540Z</time>
      </trkpt>
      <trkpt lat="45.80487" lon="6.73716">
        <ele>1641</ele>
        <time>2026-08-14T09:49:04.540Z</time>
      </trkpt>
      <trkpt lat="45.80487" lon="6.73717">
        <ele>1641</ele>
        <time>2026-08-14T09:49:05.540Z</time>
      </trkpt>
      <trkpt lat="45.80487" lon="6.73719">
        <ele>1641</ele>
        <time>2026-08-14T09:49:06.540Z</time>
      </trkpt>
      <trkpt lat="45.80487" lon="6.7372">
        <ele>1642</ele>
        <time>2026-08-14T09:49:07.540Z</time>
      </trkpt>
      <trkpt lat="45.80489" lon="6.73721">
        <ele>1642</ele>
        <time>2026-08-14T09:49:08.540Z</time>
      </trkpt>
      <trkpt lat="45.80489" lon="6.73723">
        <ele>1642</ele>
        <time>2026-08-14T09:49:09.540Z</time>
      </trkpt>
      <trkpt lat="45.8049" lon="6.73724">
        <ele>1643</ele>
        <time>2026-08-14T09:49:10.540Z</time>
      </trkpt>
      <trkpt lat="45.80491" lon="6.73725">
        <ele>1643</ele>
        <time>2026-08-14T09:49:11.540Z</time>
      </trkpt>
      <trkpt lat="45.80491" lon="6.73726">
        <ele>1643</ele>
        <time>2026-08-14T09:49:12.540Z</time>
      </trkpt>
      <trkpt lat="45.80492" lon="6.73727">
        <ele>1643</ele>
        <time>2026-08-14T09:49:13.540Z</time>
      </trkpt>
      <trkpt lat="45.80492" lon="6.73728">
        <ele>1644</ele>
        <time>2026-08-14T09:49:14.540Z</time>
      </trkpt>
      <trkpt lat="45.80492" lon="6.73729">
        <ele>1644</ele>
        <time>2026-08-14T09:49:15.540Z</time>
      </trkpt>
      <trkpt lat="45.80491" lon="6.73731">
        <ele>1644</ele>
        <time>2026-08-14T09:49:16.540Z</time>
      </trkpt>
      <trkpt lat="45.80491" lon="6.73731">
        <ele>1644</ele>
        <time>2026-08-14T09:49:17.540Z</time>
      </trkpt>
      <trkpt lat="45.80491" lon="6.73732">
        <ele>1644</ele>
        <time>2026-08-14T09:49:18.540Z</time>
      </trkpt>
      <trkpt lat="45.80491" lon="6.73733">
        <ele>1644</ele>
        <time>2026-08-14T09:49:19.540Z</time>
      </trkpt>
      <trkpt lat="45.8049" lon="6.73733">
        <ele>1644</ele>
        <time>2026-08-14T09:49:20.540Z</time>
      </trkpt>
      <trkpt lat="45.80491" lon="6.73733">
        <ele>1643</ele>
        <time>2026-08-14T09:49:21.540Z</time>
      </trkpt>
      <trkpt lat="45.80491" lon="6.73733">
        <ele>1643</ele>
        <time>2026-08-14T09:49:22.540Z</time>
      </trkpt>
      <trkpt lat="45.80492" lon="6.73734">
        <ele>1643</ele>
        <time>2026-08-14T09:49:23.540Z</time>
      </trkpt>
      <trkpt lat="45.80493" lon="6.73734">
        <ele>1643</ele>
        <time>2026-08-14T09:49:24.540Z</time>
      </trkpt>
      <trkpt lat="45.80494" lon="6.73735">
        <ele>1642</ele>
        <time>2026-08-14T09:49:25.540Z</time>
      </trkpt>
      <trkpt lat="45.80495" lon="6.73736">
        <ele>1642</ele>
        <time>2026-08-14T09:49:26.540Z</time>
      </trkpt>
      <trkpt lat="45.80497" lon="6.73737">
        <ele>1641</ele>
        <time>2026-08-14T09:49:27.540Z</time>
      </trkpt>
      <trkpt lat="45.80498" lon="6.73739">
        <ele>1640</ele>
        <time>2026-08-14T09:49:28.540Z</time>
      </trkpt>
      <trkpt lat="45.805" lon="6.7374">
        <ele>1640</ele>
        <time>2026-08-14T09:49:29.540Z</time>
      </trkpt>
      <trkpt lat="45.80501" lon="6.73742">
        <ele>1640</ele>
        <time>2026-08-14T09:49:30.540Z</time>
      </trkpt>
      <trkpt lat="45.80501" lon="6.73743">
        <ele>1640</ele>
        <time>2026-08-14T09:49:31.540Z</time>
      </trkpt>
      <trkpt lat="45.80502" lon="6.73745">
        <ele>1640</ele>
        <time>2026-08-14T09:49:32.540Z</time>
      </trkpt>
      <trkpt lat="45.80502" lon="6.73746">
        <ele>1640</ele>
        <time>2026-08-14T09:49:33.540Z</time>
      </trkpt>
      <trkpt lat="45.80503" lon="6.73747">
        <ele>1640</ele>
        <time>2026-08-14T09:49:34.540Z</time>
      </trkpt>
      <trkpt lat="45.80504" lon="6.73748">
        <ele>1640</ele>
        <time>2026-08-14T09:49:35.540Z</time>
      </trkpt>
      <trkpt lat="45.80504" lon="6.73748">
        <ele>1640</ele>
        <time>2026-08-14T09:49:36.540Z</time>
      </trkpt>
      <trkpt lat="45.80505" lon="6.73748">
        <ele>1641</ele>
        <time>2026-08-14T09:49:37.540Z</time>
      </trkpt>
      <trkpt lat="45.80505" lon="6.73747">
        <ele>1641</ele>
        <time>2026-08-14T09:49:38.540Z</time>
      </trkpt>
      <trkpt lat="45.80505" lon="6.73747">
        <ele>1641</ele>
        <time>2026-08-14T09:49:39.540Z</time>
      </trkpt>
      <trkpt lat="45.80506" lon="6.73746">
        <ele>1641</ele>
        <time>2026-08-14T09:49:40.540Z</time>
      </trkpt>
      <trkpt lat="45.80507" lon="6.73747">
        <ele>1640</ele>
        <time>2026-08-14T09:49:41.540Z</time>
      </trkpt>
      <trkpt lat="45.80508" lon="6.73747">
        <ele>1640</ele>
        <time>2026-08-14T09:49:42.540Z</time>
      </trkpt>
      <trkpt lat="45.80509" lon="6.73747">
        <ele>1639</ele>
        <time>2026-08-14T09:49:43.540Z</time>
      </trkpt>
      <trkpt lat="45.8051" lon="6.73747">
        <ele>1639</ele>
        <time>2026-08-14T09:49:44.540Z</time>
      </trkpt>
      <trkpt lat="45.80511" lon="6.73747">
        <ele>1638</ele>
        <time>2026-08-14T09:49:45.540Z</time>
      </trkpt>
      <trkpt lat="45.80513" lon="6.73746">
        <ele>1638</ele>
        <time>2026-08-14T09:49:46.540Z</time>
      </trkpt>
      <trkpt lat="45.80514" lon="6.73747">
        <ele>1638</ele>
        <time>2026-08-14T09:49:47.540Z</time>
      </trkpt>
      <trkpt lat="45.80515" lon="6.73747">
        <ele>1638</ele>
        <time>2026-08-14T09:49:48.540Z</time>
      </trkpt>
      <trkpt lat="45.80516" lon="6.73748">
        <ele>1638</ele>
        <time>2026-08-14T09:49:49.540Z</time>
      </trkpt>
      <trkpt lat="45.80517" lon="6.73748">
        <ele>1637</ele>
        <time>2026-08-14T09:49:50.540Z</time>
      </trkpt>
      <trkpt lat="45.80517" lon="6.73748">
        <ele>1637</ele>
        <time>2026-08-14T09:49:51.540Z</time>
      </trkpt>
      <trkpt lat="45.80518" lon="6.73747">
        <ele>1637</ele>
        <time>2026-08-14T09:49:52.540Z</time>
      </trkpt>
      <trkpt lat="45.80519" lon="6.73746">
        <ele>1637</ele>
        <time>2026-08-14T09:49:53.540Z</time>
      </trkpt>
      <trkpt lat="45.8052" lon="6.73745">
        <ele>1637</ele>
        <time>2026-08-14T09:49:54.540Z</time>
      </trkpt>
      <trkpt lat="45.80521" lon="6.73744">
        <ele>1637</ele>
        <time>2026-08-14T09:49:55.540Z</time>
      </trkpt>
      <trkpt lat="45.80521" lon="6.73742">
        <ele>1637</ele>
        <time>2026-08-14T09:49:56.540Z</time>
      </trkpt>
      <trkpt lat="45.80522" lon="6.73741">
        <ele>1637</ele>
        <time>2026-08-14T09:49:57.540Z</time>
      </trkpt>
      <trkpt lat="45.80522" lon="6.7374">
        <ele>1637</ele>
        <time>2026-08-14T09:49:58.540Z</time>
      </trkpt>
      <trkpt lat="45.80524" lon="6.73739">
        <ele>1636</ele>
        <time>2026-08-14T09:49:59.540Z</time>
      </trkpt>
      <trkpt lat="45.80525" lon="6.73738">
        <ele>1636</ele>
        <time>2026-08-14T09:50:00.540Z</time>
      </trkpt>
      <trkpt lat="45.80526" lon="6.73737">
        <ele>1636</ele>
        <time>2026-08-14T09:50:01.540Z</time>
      </trkpt>
      <trkpt lat="45.80527" lon="6.73736">
        <ele>1635</ele>
        <time>2026-08-14T09:50:02.540Z</time>
      </trkpt>
      <trkpt lat="45.80529" lon="6.73735">
        <ele>1635</ele>
        <time>2026-08-14T09:50:03.540Z</time>
      </trkpt>
      <trkpt lat="45.80529" lon="6.73734">
        <ele>1634</ele>
        <time>2026-08-14T09:50:04.540Z</time>
      </trkpt>
      <trkpt lat="45.8053" lon="6.73733">
        <ele>1634</ele>
        <time>2026-08-14T09:50:05.540Z</time>
      </trkpt>
      <trkpt lat="45.80531" lon="6.73732">
        <ele>1633</ele>
        <time>2026-08-14T09:50:06.540Z</time>
      </trkpt>
      <trkpt lat="45.80532" lon="6.7373">
        <ele>1633</ele>
        <time>2026-08-14T09:50:07.540Z</time>
      </trkpt>
      <trkpt lat="45.80533" lon="6.73729">
        <ele>1632</ele>
        <time>2026-08-14T09:50:08.540Z</time>
      </trkpt>
      <trkpt lat="45.80534" lon="6.73728">
        <ele>1631</ele>
        <time>2026-08-14T09:50:09.540Z</time>
      </trkpt>
      <trkpt lat="45.80535" lon="6.73727">
        <ele>1631</ele>
        <time>2026-08-14T09:50:10.540Z</time>
      </trkpt>
      <trkpt lat="45.80536" lon="6.73726">
        <ele>1630</ele>
        <time>2026-08-14T09:50:11.540Z</time>
      </trkpt>
      <trkpt lat="45.80537" lon="6.73725">
        <ele>1630</ele>
        <time>2026-08-14T09:50:12.540Z</time>
      </trkpt>
      <trkpt lat="45.80539" lon="6.73724">
        <ele>1629</ele>
        <time>2026-08-14T09:50:13.540Z</time>
      </trkpt>
      <trkpt lat="45.8054" lon="6.73724">
        <ele>1629</ele>
        <time>2026-08-14T09:50:14.540Z</time>
      </trkpt>
      <trkpt lat="45.8054" lon="6.73723">
        <ele>1629</ele>
        <time>2026-08-14T09:50:15.540Z</time>
      </trkpt>
      <trkpt lat="45.80541" lon="6.73723">
        <ele>1629</ele>
        <time>2026-08-14T09:50:16.540Z</time>
      </trkpt>
      <trkpt lat="45.80541" lon="6.73721">
        <ele>1629</ele>
        <time>2026-08-14T09:50:17.540Z</time>
      </trkpt>
      <trkpt lat="45.80541" lon="6.7372">
        <ele>1628</ele>
        <time>2026-08-14T09:50:18.540Z</time>
      </trkpt>
      <trkpt lat="45.80542" lon="6.73719">
        <ele>1628</ele>
        <time>2026-08-14T09:50:19.540Z</time>
      </trkpt>
      <trkpt lat="45.80542" lon="6.73718">
        <ele>1628</ele>
        <time>2026-08-14T09:50:20.540Z</time>
      </trkpt>
      <trkpt lat="45.80543" lon="6.73716">
        <ele>1628</ele>
        <time>2026-08-14T09:50:21.540Z</time>
      </trkpt>
      <trkpt lat="45.80544" lon="6.73716">
        <ele>1627</ele>
        <time>2026-08-14T09:50:22.540Z</time>
      </trkpt>
      <trkpt lat="45.80544" lon="6.73716">
        <ele>1627</ele>
        <time>2026-08-14T09:50:23.540Z</time>
      </trkpt>
      <trkpt lat="45.80544" lon="6.73715">
        <ele>1627</ele>
        <time>2026-08-14T09:50:24.540Z</time>
      </trkpt>
      <trkpt lat="45.80545" lon="6.73714">
        <ele>1627</ele>
        <time>2026-08-14T09:50:25.540Z</time>
      </trkpt>
      <trkpt lat="45.80546" lon="6.73712">
        <ele>1626</ele>
        <time>2026-08-14T09:50:26.540Z</time>
      </trkpt>
      <trkpt lat="45.80547" lon="6.7371">
        <ele>1626</ele>
        <time>2026-08-14T09:50:27.540Z</time>
      </trkpt>
      <trkpt lat="45.80548" lon="6.73708">
        <ele>1625</ele>
        <time>2026-08-14T09:50:28.540Z</time>
      </trkpt>
      <trkpt lat="45.80549" lon="6.73706">
        <ele>1625</ele>
        <time>2026-08-14T09:50:29.540Z</time>
      </trkpt>
      <trkpt lat="45.8055" lon="6.73705">
        <ele>1624</ele>
        <time>2026-08-14T09:50:30.540Z</time>
      </trkpt>
      <trkpt lat="45.80551" lon="6.73703">
        <ele>1624</ele>
        <time>2026-08-14T09:50:31.540Z</time>
      </trkpt>
      <trkpt lat="45.80552" lon="6.737">
        <ele>1623</ele>
        <time>2026-08-14T09:50:32.540Z</time>
      </trkpt>
      <trkpt lat="45.80553" lon="6.73699">
        <ele>1623</ele>
        <time>2026-08-14T09:50:33.540Z</time>
      </trkpt>
      <trkpt lat="45.80554" lon="6.73697">
        <ele>1623</ele>
        <time>2026-08-14T09:50:34.540Z</time>
      </trkpt>
      <trkpt lat="45.80554" lon="6.73695">
        <ele>1623</ele>
        <time>2026-08-14T09:50:35.540Z</time>
      </trkpt>
      <trkpt lat="45.80555" lon="6.73694">
        <ele>1623</ele>
        <time>2026-08-14T09:50:36.540Z</time>
      </trkpt>
      <trkpt lat="45.80555" lon="6.73692">
        <ele>1623</ele>
        <time>2026-08-14T09:50:37.540Z</time>
      </trkpt>
      <trkpt lat="45.80555" lon="6.73691">
        <ele>1622</ele>
        <time>2026-08-14T09:50:38.540Z</time>
      </trkpt>
      <trkpt lat="45.80556" lon="6.7369">
        <ele>1622</ele>
        <time>2026-08-14T09:50:39.540Z</time>
      </trkpt>
      <trkpt lat="45.80556" lon="6.73688">
        <ele>1622</ele>
        <time>2026-08-14T09:50:40.540Z</time>
      </trkpt>
      <trkpt lat="45.80556" lon="6.73687">
        <ele>1621</ele>
        <time>2026-08-14T09:50:41.540Z</time>
      </trkpt>
      <trkpt lat="45.80557" lon="6.73685">
        <ele>1620</ele>
        <time>2026-08-14T09:50:42.540Z</time>
      </trkpt>
      <trkpt lat="45.80558" lon="6.73683">
        <ele>1619</ele>
        <time>2026-08-14T09:50:43.540Z</time>
      </trkpt>
      <trkpt lat="45.80558" lon="6.73681">
        <ele>1618</ele>
        <time>2026-08-14T09:50:44.540Z</time>
      </trkpt>
      <trkpt lat="45.80559" lon="6.73679">
        <ele>1617</ele>
        <time>2026-08-14T09:50:45.540Z</time>
      </trkpt>
      <trkpt lat="45.8056" lon="6.73678">
        <ele>1617</ele>
        <time>2026-08-14T09:50:46.540Z</time>
      </trkpt>
      <trkpt lat="45.80562" lon="6.73676">
        <ele>1617</ele>
        <time>2026-08-14T09:50:47.540Z</time>
      </trkpt>
      <trkpt lat="45.80563" lon="6.73675">
        <ele>1616</ele>
        <time>2026-08-14T09:50:48.540Z</time>
      </trkpt>
      <trkpt lat="45.80566" lon="6.73671">
        <ele>1616</ele>
        <time>2026-08-14T09:50:49.540Z</time>
      </trkpt>
      <trkpt lat="45.80567" lon="6.73667">
        <ele>1616</ele>
        <time>2026-08-14T09:50:50.540Z</time>
      </trkpt>
      <trkpt lat="45.80568" lon="6.73664">
        <ele>1615</ele>
        <time>2026-08-14T09:50:51.540Z</time>
      </trkpt>
      <trkpt lat="45.80569" lon="6.73661">
        <ele>1615</ele>
        <time>2026-08-14T09:50:52.540Z</time>
      </trkpt>
      <trkpt lat="45.8057" lon="6.73659">
        <ele>1614</ele>
        <time>2026-08-14T09:50:53.540Z</time>
      </trkpt>
      <trkpt lat="45.80571" lon="6.73658">
        <ele>1614</ele>
        <time>2026-08-14T09:50:54.540Z</time>
      </trkpt>
      <trkpt lat="45.80572" lon="6.73656">
        <ele>1614</ele>
        <time>2026-08-14T09:50:55.540Z</time>
      </trkpt>
      <trkpt lat="45.80573" lon="6.73655">
        <ele>1613</ele>
        <time>2026-08-14T09:50:56.540Z</time>
      </trkpt>
      <trkpt lat="45.80573" lon="6.73655">
        <ele>1613</ele>
        <time>2026-08-14T09:50:57.540Z</time>
      </trkpt>
      <trkpt lat="45.80573" lon="6.73655">
        <ele>1613</ele>
        <time>2026-08-14T09:50:58.540Z</time>
      </trkpt>
      <trkpt lat="45.80573" lon="6.73655">
        <ele>1613</ele>
        <time>2026-08-14T09:50:59.540Z</time>
      </trkpt>
      <trkpt lat="45.80573" lon="6.73654">
        <ele>1612</ele>
        <time>2026-08-14T09:51:00.540Z</time>
      </trkpt>
      <trkpt lat="45.80574" lon="6.73654">
        <ele>1612</ele>
        <time>2026-08-14T09:51:01.540Z</time>
      </trkpt>
      <trkpt lat="45.80574" lon="6.73653">
        <ele>1612</ele>
        <time>2026-08-14T09:51:02.540Z</time>
      </trkpt>
      <trkpt lat="45.80575" lon="6.73653">
        <ele>1611</ele>
        <time>2026-08-14T09:51:03.540Z</time>
      </trkpt>
      <trkpt lat="45.80575" lon="6.73652">
        <ele>1611</ele>
        <time>2026-08-14T09:51:04.540Z</time>
      </trkpt>
      <trkpt lat="45.80576" lon="6.7365">
        <ele>1610</ele>
        <time>2026-08-14T09:51:05.540Z</time>
      </trkpt>
      <trkpt lat="45.80577" lon="6.73649">
        <ele>1610</ele>
        <time>2026-08-14T09:51:06.540Z</time>
      </trkpt>
      <trkpt lat="45.80577" lon="6.73647">
        <ele>1609</ele>
        <time>2026-08-14T09:51:07.540Z</time>
      </trkpt>
      <trkpt lat="45.80577" lon="6.73646">
        <ele>1609</ele>
        <time>2026-08-14T09:51:08.540Z</time>
      </trkpt>
      <trkpt lat="45.80578" lon="6.73643">
        <ele>1609</ele>
        <time>2026-08-14T09:51:09.540Z</time>
      </trkpt>
      <trkpt lat="45.80579" lon="6.73642">
        <ele>1609</ele>
        <time>2026-08-14T09:51:10.540Z</time>
      </trkpt>
      <trkpt lat="45.8058" lon="6.7364">
        <ele>1609</ele>
        <time>2026-08-14T09:51:11.540Z</time>
      </trkpt>
      <trkpt lat="45.8058" lon="6.73639">
        <ele>1610</ele>
        <time>2026-08-14T09:51:12.540Z</time>
      </trkpt>
      <trkpt lat="45.80581" lon="6.73637">
        <ele>1610</ele>
        <time>2026-08-14T09:51:13.540Z</time>
      </trkpt>
      <trkpt lat="45.80583" lon="6.73635">
        <ele>1610</ele>
        <time>2026-08-14T09:51:14.540Z</time>
      </trkpt>
      <trkpt lat="45.80583" lon="6.73633">
        <ele>1611</ele>
        <time>2026-08-14T09:51:15.540Z</time>
      </trkpt>
      <trkpt lat="45.80584" lon="6.73631">
        <ele>1611</ele>
        <time>2026-08-14T09:51:16.540Z</time>
      </trkpt>
      <trkpt lat="45.80585" lon="6.73629">
        <ele>1612</ele>
        <time>2026-08-14T09:51:17.540Z</time>
      </trkpt>
      <trkpt lat="45.80586" lon="6.73628">
        <ele>1612</ele>
        <time>2026-08-14T09:51:18.540Z</time>
      </trkpt>
      <trkpt lat="45.80586" lon="6.73626">
        <ele>1612</ele>
        <time>2026-08-14T09:51:19.540Z</time>
      </trkpt>
      <trkpt lat="45.80587" lon="6.73624">
        <ele>1613</ele>
        <time>2026-08-14T09:51:20.540Z</time>
      </trkpt>
      <trkpt lat="45.80587" lon="6.73623">
        <ele>1613</ele>
        <time>2026-08-14T09:51:21.540Z</time>
      </trkpt>
      <trkpt lat="45.80587" lon="6.73621">
        <ele>1614</ele>
        <time>2026-08-14T09:51:22.540Z</time>
      </trkpt>
      <trkpt lat="45.80587" lon="6.73621">
        <ele>1614</ele>
        <time>2026-08-14T09:51:23.540Z</time>
      </trkpt>
      <trkpt lat="45.80587" lon="6.73621">
        <ele>1614</ele>
        <time>2026-08-14T09:51:24.540Z</time>
      </trkpt>
      <trkpt lat="45.80588" lon="6.73621">
        <ele>1614</ele>
        <time>2026-08-14T09:51:25.540Z</time>
      </trkpt>
      <trkpt lat="45.80587" lon="6.73621">
        <ele>1615</ele>
        <time>2026-08-14T09:51:26.540Z</time>
      </trkpt>
      <trkpt lat="45.80587" lon="6.73621">
        <ele>1615</ele>
        <time>2026-08-14T09:51:27.540Z</time>
      </trkpt>
      <trkpt lat="45.80587" lon="6.73621">
        <ele>1615</ele>
        <time>2026-08-14T09:51:28.540Z</time>
      </trkpt>
      <trkpt lat="45.80587" lon="6.73621">
        <ele>1615</ele>
        <time>2026-08-14T09:51:29.540Z</time>
      </trkpt>
      <trkpt lat="45.80587" lon="6.73621">
        <ele>1615</ele>
        <time>2026-08-14T09:51:30.540Z</time>
      </trkpt>
      <trkpt lat="45.80588" lon="6.7362">
        <ele>1615</ele>
        <time>2026-08-14T09:51:31.540Z</time>
      </trkpt>
      <trkpt lat="45.80588" lon="6.7362">
        <ele>1614</ele>
        <time>2026-08-14T09:51:32.540Z</time>
      </trkpt>
      <trkpt lat="45.80589" lon="6.73619">
        <ele>1614</ele>
        <time>2026-08-14T09:51:33.540Z</time>
      </trkpt>
      <trkpt lat="45.8059" lon="6.73619">
        <ele>1614</ele>
        <time>2026-08-14T09:51:34.540Z</time>
      </trkpt>
      <trkpt lat="45.8059" lon="6.73618">
        <ele>1613</ele>
        <time>2026-08-14T09:51:35.540Z</time>
      </trkpt>
      <trkpt lat="45.80591" lon="6.73617">
        <ele>1612</ele>
        <time>2026-08-14T09:51:36.540Z</time>
      </trkpt>
      <trkpt lat="45.80591" lon="6.73616">
        <ele>1612</ele>
        <time>2026-08-14T09:51:37.540Z</time>
      </trkpt>
      <trkpt lat="45.80592" lon="6.73615">
        <ele>1612</ele>
        <time>2026-08-14T09:51:38.540Z</time>
      </trkpt>
      <trkpt lat="45.80593" lon="6.73615">
        <ele>1612</ele>
        <time>2026-08-14T09:51:39.540Z</time>
      </trkpt>
      <trkpt lat="45.80594" lon="6.73614">
        <ele>1611</ele>
        <time>2026-08-14T09:51:40.540Z</time>
      </trkpt>
      <trkpt lat="45.80595" lon="6.73613">
        <ele>1611</ele>
        <time>2026-08-14T09:51:41.540Z</time>
      </trkpt>
      <trkpt lat="45.80596" lon="6.73613">
        <ele>1612</ele>
        <time>2026-08-14T09:51:42.540Z</time>
      </trkpt>
      <trkpt lat="45.80596" lon="6.73611">
        <ele>1612</ele>
        <time>2026-08-14T09:51:43.540Z</time>
      </trkpt>
      <trkpt lat="45.80596" lon="6.7361">
        <ele>1611</ele>
        <time>2026-08-14T09:51:44.540Z</time>
      </trkpt>
      <trkpt lat="45.80597" lon="6.73608">
        <ele>1611</ele>
        <time>2026-08-14T09:51:45.540Z</time>
      </trkpt>
      <trkpt lat="45.80598" lon="6.73606">
        <ele>1610</ele>
        <time>2026-08-14T09:51:46.540Z</time>
      </trkpt>
      <trkpt lat="45.80599" lon="6.73603">
        <ele>1609</ele>
        <time>2026-08-14T09:51:47.540Z</time>
      </trkpt>
      <trkpt lat="45.806" lon="6.73601">
        <ele>1609</ele>
        <time>2026-08-14T09:51:48.540Z</time>
      </trkpt>
      <trkpt lat="45.80602" lon="6.73599">
        <ele>1608</ele>
        <time>2026-08-14T09:51:49.540Z</time>
      </trkpt>
      <trkpt lat="45.80603" lon="6.73598">
        <ele>1607</ele>
        <time>2026-08-14T09:51:50.540Z</time>
      </trkpt>
      <trkpt lat="45.80604" lon="6.73596">
        <ele>1606</ele>
        <time>2026-08-14T09:51:51.540Z</time>
      </trkpt>
      <trkpt lat="45.80605" lon="6.73594">
        <ele>1606</ele>
        <time>2026-08-14T09:51:52.540Z</time>
      </trkpt>
      <trkpt lat="45.80607" lon="6.73593">
        <ele>1605</ele>
        <time>2026-08-14T09:51:53.540Z</time>
      </trkpt>
      <trkpt lat="45.80608" lon="6.73592">
        <ele>1604</ele>
        <time>2026-08-14T09:51:54.540Z</time>
      </trkpt>
      <trkpt lat="45.80609" lon="6.73591">
        <ele>1604</ele>
        <time>2026-08-14T09:51:55.540Z</time>
      </trkpt>
      <trkpt lat="45.80611" lon="6.73591">
        <ele>1604</ele>
        <time>2026-08-14T09:51:56.540Z</time>
      </trkpt>
      <trkpt lat="45.80612" lon="6.73591">
        <ele>1604</ele>
        <time>2026-08-14T09:51:57.540Z</time>
      </trkpt>
      <trkpt lat="45.80613" lon="6.73591">
        <ele>1604</ele>
        <time>2026-08-14T09:51:58.540Z</time>
      </trkpt>
      <trkpt lat="45.80613" lon="6.73591">
        <ele>1604</ele>
        <time>2026-08-14T09:51:59.540Z</time>
      </trkpt>
      <trkpt lat="45.80613" lon="6.7359">
        <ele>1604</ele>
        <time>2026-08-14T09:52:00.540Z</time>
      </trkpt>
      <trkpt lat="45.80612" lon="6.73589">
        <ele>1603</ele>
        <time>2026-08-14T09:52:01.540Z</time>
      </trkpt>
      <trkpt lat="45.80611" lon="6.73588">
        <ele>1603</ele>
        <time>2026-08-14T09:52:02.540Z</time>
      </trkpt>
      <trkpt lat="45.80611" lon="6.73586">
        <ele>1603</ele>
        <time>2026-08-14T09:52:03.540Z</time>
      </trkpt>
      <trkpt lat="45.80611" lon="6.73585">
        <ele>1602</ele>
        <time>2026-08-14T09:52:04.540Z</time>
      </trkpt>
      <trkpt lat="45.80612" lon="6.73583">
        <ele>1601</ele>
        <time>2026-08-14T09:52:05.540Z</time>
      </trkpt>
      <trkpt lat="45.80614" lon="6.73583">
        <ele>1601</ele>
        <time>2026-08-14T09:52:06.540Z</time>
      </trkpt>
      <trkpt lat="45.80615" lon="6.73584">
        <ele>1600</ele>
        <time>2026-08-14T09:52:07.540Z</time>
      </trkpt>
      <trkpt lat="45.80617" lon="6.73584">
        <ele>1599</ele>
        <time>2026-08-14T09:52:08.540Z</time>
      </trkpt>
      <trkpt lat="45.80619" lon="6.73585">
        <ele>1599</ele>
        <time>2026-08-14T09:52:09.540Z</time>
      </trkpt>
      <trkpt lat="45.8062" lon="6.73585">
        <ele>1598</ele>
        <time>2026-08-14T09:52:10.540Z</time>
      </trkpt>
      <trkpt lat="45.80622" lon="6.73586">
        <ele>1598</ele>
        <time>2026-08-14T09:52:11.540Z</time>
      </trkpt>
      <trkpt lat="45.80624" lon="6.73586">
        <ele>1598</ele>
        <time>2026-08-14T09:52:12.540Z</time>
      </trkpt>
      <trkpt lat="45.80626" lon="6.73586">
        <ele>1598</ele>
        <time>2026-08-14T09:52:13.540Z</time>
      </trkpt>
      <trkpt lat="45.80627" lon="6.73586">
        <ele>1599</ele>
        <time>2026-08-14T09:52:14.540Z</time>
      </trkpt>
      <trkpt lat="45.80629" lon="6.73585">
        <ele>1599</ele>
        <time>2026-08-14T09:52:15.540Z</time>
      </trkpt>
      <trkpt lat="45.80631" lon="6.73585">
        <ele>1600</ele>
        <time>2026-08-14T09:52:16.540Z</time>
      </trkpt>
      <trkpt lat="45.80633" lon="6.73585">
        <ele>1600</ele>
        <time>2026-08-14T09:52:17.540Z</time>
      </trkpt>
      <trkpt lat="45.80635" lon="6.73584">
        <ele>1600</ele>
        <time>2026-08-14T09:52:18.540Z</time>
      </trkpt>
      <trkpt lat="45.80637" lon="6.73582">
        <ele>1600</ele>
        <time>2026-08-14T09:52:19.540Z</time>
      </trkpt>
      <trkpt lat="45.80639" lon="6.73582">
        <ele>1600</ele>
        <time>2026-08-14T09:52:20.540Z</time>
      </trkpt>
      <trkpt lat="45.8064" lon="6.73582">
        <ele>1600</ele>
        <time>2026-08-14T09:52:21.540Z</time>
      </trkpt>
      <trkpt lat="45.80642" lon="6.73581">
        <ele>1601</ele>
        <time>2026-08-14T09:52:22.540Z</time>
      </trkpt>
      <trkpt lat="45.80643" lon="6.7358">
        <ele>1601</ele>
        <time>2026-08-14T09:52:23.540Z</time>
      </trkpt>
      <trkpt lat="45.80644" lon="6.73579">
        <ele>1601</ele>
        <time>2026-08-14T09:52:24.540Z</time>
      </trkpt>
      <trkpt lat="45.80646" lon="6.73578">
        <ele>1601</ele>
        <time>2026-08-14T09:52:25.540Z</time>
      </trkpt>
      <trkpt lat="45.80647" lon="6.73577">
        <ele>1601</ele>
        <time>2026-08-14T09:52:26.540Z</time>
      </trkpt>
      <trkpt lat="45.80649" lon="6.73577">
        <ele>1601</ele>
        <time>2026-08-14T09:52:27.540Z</time>
      </trkpt>
      <trkpt lat="45.80651" lon="6.73576">
        <ele>1601</ele>
        <time>2026-08-14T09:52:28.540Z</time>
      </trkpt>
      <trkpt lat="45.80652" lon="6.73576">
        <ele>1601</ele>
        <time>2026-08-14T09:52:29.540Z</time>
      </trkpt>
      <trkpt lat="45.80655" lon="6.73575">
        <ele>1601</ele>
        <time>2026-08-14T09:52:30.540Z</time>
      </trkpt>
      <trkpt lat="45.80657" lon="6.73573">
        <ele>1601</ele>
        <time>2026-08-14T09:52:31.540Z</time>
      </trkpt>
      <trkpt lat="45.8066" lon="6.73573">
        <ele>1601</ele>
        <time>2026-08-14T09:52:32.540Z</time>
      </trkpt>
      <trkpt lat="45.80662" lon="6.73573">
        <ele>1601</ele>
        <time>2026-08-14T09:52:33.540Z</time>
      </trkpt>
      <trkpt lat="45.80664" lon="6.73574">
        <ele>1600</ele>
        <time>2026-08-14T09:52:34.540Z</time>
      </trkpt>
      <trkpt lat="45.80667" lon="6.73574">
        <ele>1600</ele>
        <time>2026-08-14T09:52:35.540Z</time>
      </trkpt>
      <trkpt lat="45.80668" lon="6.73573">
        <ele>1599</ele>
        <time>2026-08-14T09:52:36.540Z</time>
      </trkpt>
      <trkpt lat="45.8067" lon="6.73572">
        <ele>1599</ele>
        <time>2026-08-14T09:52:37.540Z</time>
      </trkpt>
      <trkpt lat="45.80671" lon="6.73571">
        <ele>1599</ele>
        <time>2026-08-14T09:52:38.540Z</time>
      </trkpt>
      <trkpt lat="45.80672" lon="6.7357">
        <ele>1598</ele>
        <time>2026-08-14T09:52:39.540Z</time>
      </trkpt>
      <trkpt lat="45.80673" lon="6.7357">
        <ele>1598</ele>
        <time>2026-08-14T09:52:40.540Z</time>
      </trkpt>
      <trkpt lat="45.80675" lon="6.7357">
        <ele>1598</ele>
        <time>2026-08-14T09:52:41.540Z</time>
      </trkpt>
      <trkpt lat="45.80676" lon="6.7357">
        <ele>1597</ele>
        <time>2026-08-14T09:52:42.540Z</time>
      </trkpt>
      <trkpt lat="45.80678" lon="6.73569">
        <ele>1596</ele>
        <time>2026-08-14T09:52:43.540Z</time>
      </trkpt>
      <trkpt lat="45.8068" lon="6.73569">
        <ele>1595</ele>
        <time>2026-08-14T09:52:44.540Z</time>
      </trkpt>
      <trkpt lat="45.80681" lon="6.73569">
        <ele>1595</ele>
        <time>2026-08-14T09:52:45.540Z</time>
      </trkpt>
      <trkpt lat="45.80682" lon="6.73569">
        <ele>1595</ele>
        <time>2026-08-14T09:52:46.540Z</time>
      </trkpt>
      <trkpt lat="45.80683" lon="6.73568">
        <ele>1595</ele>
        <time>2026-08-14T09:52:47.540Z</time>
      </trkpt>
      <trkpt lat="45.80684" lon="6.73567">
        <ele>1595</ele>
        <time>2026-08-14T09:52:48.540Z</time>
      </trkpt>
      <trkpt lat="45.80684" lon="6.73566">
        <ele>1594</ele>
        <time>2026-08-14T09:52:49.540Z</time>
      </trkpt>
      <trkpt lat="45.80685" lon="6.73565">
        <ele>1594</ele>
        <time>2026-08-14T09:52:50.540Z</time>
      </trkpt>
      <trkpt lat="45.80687" lon="6.73563">
        <ele>1593</ele>
        <time>2026-08-14T09:52:51.540Z</time>
      </trkpt>
      <trkpt lat="45.80688" lon="6.73563">
        <ele>1593</ele>
        <time>2026-08-14T09:52:52.540Z</time>
      </trkpt>
      <trkpt lat="45.80689" lon="6.73563">
        <ele>1593</ele>
        <time>2026-08-14T09:52:53.540Z</time>
      </trkpt>
      <trkpt lat="45.80691" lon="6.73563">
        <ele>1593</ele>
        <time>2026-08-14T09:52:54.540Z</time>
      </trkpt>
      <trkpt lat="45.80692" lon="6.73563">
        <ele>1593</ele>
        <time>2026-08-14T09:52:55.540Z</time>
      </trkpt>
      <trkpt lat="45.80694" lon="6.73563">
        <ele>1593</ele>
        <time>2026-08-14T09:52:56.540Z</time>
      </trkpt>
      <trkpt lat="45.80696" lon="6.73563">
        <ele>1593</ele>
        <time>2026-08-14T09:52:57.540Z</time>
      </trkpt>
      <trkpt lat="45.80698" lon="6.73563">
        <ele>1592</ele>
        <time>2026-08-14T09:52:58.540Z</time>
      </trkpt>
      <trkpt lat="45.807" lon="6.73564">
        <ele>1592</ele>
        <time>2026-08-14T09:52:59.540Z</time>
      </trkpt>
      <trkpt lat="45.80701" lon="6.73564">
        <ele>1591</ele>
        <time>2026-08-14T09:53:00.540Z</time>
      </trkpt>
      <trkpt lat="45.80703" lon="6.73563">
        <ele>1591</ele>
        <time>2026-08-14T09:53:01.540Z</time>
      </trkpt>
      <trkpt lat="45.80705" lon="6.73563">
        <ele>1590</ele>
        <time>2026-08-14T09:53:02.540Z</time>
      </trkpt>
      <trkpt lat="45.80707" lon="6.73562">
        <ele>1590</ele>
        <time>2026-08-14T09:53:03.540Z</time>
      </trkpt>
      <trkpt lat="45.80708" lon="6.7356">
        <ele>1590</ele>
        <time>2026-08-14T09:53:04.540Z</time>
      </trkpt>
      <trkpt lat="45.8071" lon="6.73559">
        <ele>1590</ele>
        <time>2026-08-14T09:53:05.540Z</time>
      </trkpt>
      <trkpt lat="45.80711" lon="6.73558">
        <ele>1589</ele>
        <time>2026-08-14T09:53:06.540Z</time>
      </trkpt>
      <trkpt lat="45.80713" lon="6.73558">
        <ele>1589</ele>
        <time>2026-08-14T09:53:07.540Z</time>
      </trkpt>
      <trkpt lat="45.80715" lon="6.73558">
        <ele>1589</ele>
        <time>2026-08-14T09:53:08.540Z</time>
      </trkpt>
      <trkpt lat="45.80717" lon="6.73558">
        <ele>1589</ele>
        <time>2026-08-14T09:53:09.540Z</time>
      </trkpt>
      <trkpt lat="45.80719" lon="6.73558">
        <ele>1588</ele>
        <time>2026-08-14T09:53:10.540Z</time>
      </trkpt>
      <trkpt lat="45.80721" lon="6.73557">
        <ele>1588</ele>
        <time>2026-08-14T09:53:11.540Z</time>
      </trkpt>
      <trkpt lat="45.80723" lon="6.73557">
        <ele>1588</ele>
        <time>2026-08-14T09:53:12.540Z</time>
      </trkpt>
      <trkpt lat="45.80725" lon="6.73557">
        <ele>1587</ele>
        <time>2026-08-14T09:53:13.540Z</time>
      </trkpt>
      <trkpt lat="45.80727" lon="6.73559">
        <ele>1587</ele>
        <time>2026-08-14T09:53:14.540Z</time>
      </trkpt>
      <trkpt lat="45.80729" lon="6.7356">
        <ele>1587</ele>
        <time>2026-08-14T09:53:15.540Z</time>
      </trkpt>
      <trkpt lat="45.8073" lon="6.7356">
        <ele>1586</ele>
        <time>2026-08-14T09:53:16.540Z</time>
      </trkpt>
      <trkpt lat="45.80732" lon="6.73561">
        <ele>1585</ele>
        <time>2026-08-14T09:53:17.540Z</time>
      </trkpt>
      <trkpt lat="45.80733" lon="6.73561">
        <ele>1585</ele>
        <time>2026-08-14T09:53:18.540Z</time>
      </trkpt>
      <trkpt lat="45.80735" lon="6.73561">
        <ele>1584</ele>
        <time>2026-08-14T09:53:19.540Z</time>
      </trkpt>
      <trkpt lat="45.80737" lon="6.7356">
        <ele>1583</ele>
        <time>2026-08-14T09:53:20.540Z</time>
      </trkpt>
      <trkpt lat="45.80739" lon="6.7356">
        <ele>1582</ele>
        <time>2026-08-14T09:53:21.540Z</time>
      </trkpt>
      <trkpt lat="45.80741" lon="6.73561">
        <ele>1581</ele>
        <time>2026-08-14T09:53:22.540Z</time>
      </trkpt>
      <trkpt lat="45.80743" lon="6.73561">
        <ele>1580</ele>
        <time>2026-08-14T09:53:23.540Z</time>
      </trkpt>
      <trkpt lat="45.80745" lon="6.73562">
        <ele>1580</ele>
        <time>2026-08-14T09:53:24.540Z</time>
      </trkpt>
      <trkpt lat="45.80747" lon="6.73563">
        <ele>1579</ele>
        <time>2026-08-14T09:53:25.540Z</time>
      </trkpt>
      <trkpt lat="45.80748" lon="6.73563">
        <ele>1578</ele>
        <time>2026-08-14T09:53:26.540Z</time>
      </trkpt>
      <trkpt lat="45.8075" lon="6.73562">
        <ele>1578</ele>
        <time>2026-08-14T09:53:27.540Z</time>
      </trkpt>
      <trkpt lat="45.80752" lon="6.73562">
        <ele>1577</ele>
        <time>2026-08-14T09:53:28.540Z</time>
      </trkpt>
      <trkpt lat="45.80753" lon="6.73562">
        <ele>1576</ele>
        <time>2026-08-14T09:53:29.540Z</time>
      </trkpt>
      <trkpt lat="45.80755" lon="6.73562">
        <ele>1575</ele>
        <time>2026-08-14T09:53:30.540Z</time>
      </trkpt>
      <trkpt lat="45.80756" lon="6.73561">
        <ele>1575</ele>
        <time>2026-08-14T09:53:31.540Z</time>
      </trkpt>
      <trkpt lat="45.80758" lon="6.73561">
        <ele>1574</ele>
        <time>2026-08-14T09:53:32.540Z</time>
      </trkpt>
      <trkpt lat="45.8076" lon="6.73561">
        <ele>1574</ele>
        <time>2026-08-14T09:53:33.540Z</time>
      </trkpt>
      <trkpt lat="45.80762" lon="6.73561">
        <ele>1573</ele>
        <time>2026-08-14T09:53:34.540Z</time>
      </trkpt>
      <trkpt lat="45.80763" lon="6.73561">
        <ele>1572</ele>
        <time>2026-08-14T09:53:35.540Z</time>
      </trkpt>
      <trkpt lat="45.80765" lon="6.73561">
        <ele>1572</ele>
        <time>2026-08-14T09:53:36.540Z</time>
      </trkpt>
      <trkpt lat="45.80767" lon="6.73561">
        <ele>1571</ele>
        <time>2026-08-14T09:53:37.540Z</time>
      </trkpt>
      <trkpt lat="45.80769" lon="6.73561">
        <ele>1570</ele>
        <time>2026-08-14T09:53:38.540Z</time>
      </trkpt>
      <trkpt lat="45.8077" lon="6.7356">
        <ele>1570</ele>
        <time>2026-08-14T09:53:39.540Z</time>
      </trkpt>
      <trkpt lat="45.80772" lon="6.7356">
        <ele>1569</ele>
        <time>2026-08-14T09:53:40.540Z</time>
      </trkpt>
      <trkpt lat="45.80774" lon="6.7356">
        <ele>1569</ele>
        <time>2026-08-14T09:53:41.540Z</time>
      </trkpt>
      <trkpt lat="45.80776" lon="6.7356">
        <ele>1569</ele>
        <time>2026-08-14T09:53:42.540Z</time>
      </trkpt>
      <trkpt lat="45.80778" lon="6.73559">
        <ele>1569</ele>
        <time>2026-08-14T09:53:43.540Z</time>
      </trkpt>
      <trkpt lat="45.8078" lon="6.7356">
        <ele>1568</ele>
        <time>2026-08-14T09:53:44.540Z</time>
      </trkpt>
      <trkpt lat="45.80781" lon="6.73561">
        <ele>1568</ele>
        <time>2026-08-14T09:53:45.540Z</time>
      </trkpt>
      <trkpt lat="45.80783" lon="6.73561">
        <ele>1568</ele>
        <time>2026-08-14T09:53:46.540Z</time>
      </trkpt>
      <trkpt lat="45.80785" lon="6.73561">
        <ele>1567</ele>
        <time>2026-08-14T09:53:47.540Z</time>
      </trkpt>
      <trkpt lat="45.80787" lon="6.73561">
        <ele>1566</ele>
        <time>2026-08-14T09:53:48.540Z</time>
      </trkpt>
      <trkpt lat="45.8079" lon="6.7356">
        <ele>1566</ele>
        <time>2026-08-14T09:53:49.540Z</time>
      </trkpt>
      <trkpt lat="45.80792" lon="6.7356">
        <ele>1565</ele>
        <time>2026-08-14T09:53:50.540Z</time>
      </trkpt>
      <trkpt lat="45.80794" lon="6.7356">
        <ele>1565</ele>
        <time>2026-08-14T09:53:51.540Z</time>
      </trkpt>
      <trkpt lat="45.80796" lon="6.7356">
        <ele>1564</ele>
        <time>2026-08-14T09:53:52.540Z</time>
      </trkpt>
      <trkpt lat="45.80799" lon="6.7356">
        <ele>1564</ele>
        <time>2026-08-14T09:53:53.540Z</time>
      </trkpt>
      <trkpt lat="45.80801" lon="6.7356">
        <ele>1564</ele>
        <time>2026-08-14T09:53:54.540Z</time>
      </trkpt>
      <trkpt lat="45.80803" lon="6.7356">
        <ele>1564</ele>
        <time>2026-08-14T09:53:55.540Z</time>
      </trkpt>
      <trkpt lat="45.80805" lon="6.73559">
        <ele>1563</ele>
        <time>2026-08-14T09:53:56.540Z</time>
      </trkpt>
      <trkpt lat="45.80807" lon="6.73559">
        <ele>1563</ele>
        <time>2026-08-14T09:53:57.540Z</time>
      </trkpt>
      <trkpt lat="45.80809" lon="6.73559">
        <ele>1563</ele>
        <time>2026-08-14T09:53:58.540Z</time>
      </trkpt>
      <trkpt lat="45.80811" lon="6.73558">
        <ele>1563</ele>
        <time>2026-08-14T09:53:59.540Z</time>
      </trkpt>
      <trkpt lat="45.80813" lon="6.73557">
        <ele>1563</ele>
        <time>2026-08-14T09:54:00.540Z</time>
      </trkpt>
      <trkpt lat="45.80816" lon="6.73556">
        <ele>1563</ele>
        <time>2026-08-14T09:54:01.540Z</time>
      </trkpt>
      <trkpt lat="45.80818" lon="6.73556">
        <ele>1563</ele>
        <time>2026-08-14T09:54:02.540Z</time>
      </trkpt>
      <trkpt lat="45.80819" lon="6.73556">
        <ele>1562</ele>
        <time>2026-08-14T09:54:03.540Z</time>
      </trkpt>
      <trkpt lat="45.80821" lon="6.73555">
        <ele>1562</ele>
        <time>2026-08-14T09:54:04.540Z</time>
      </trkpt>
      <trkpt lat="45.80823" lon="6.73555">
        <ele>1562</ele>
        <time>2026-08-14T09:54:05.540Z</time>
      </trkpt>
      <trkpt lat="45.80825" lon="6.73555">
        <ele>1561</ele>
        <time>2026-08-14T09:54:06.540Z</time>
      </trkpt>
      <trkpt lat="45.80827" lon="6.73554">
        <ele>1561</ele>
        <time>2026-08-14T09:54:07.540Z</time>
      </trkpt>
      <trkpt lat="45.80828" lon="6.73554">
        <ele>1561</ele>
        <time>2026-08-14T09:54:08.540Z</time>
      </trkpt>
      <trkpt lat="45.80831" lon="6.73553">
        <ele>1560</ele>
        <time>2026-08-14T09:54:09.540Z</time>
      </trkpt>
      <trkpt lat="45.80833" lon="6.73552">
        <ele>1560</ele>
        <time>2026-08-14T09:54:10.540Z</time>
      </trkpt>
      <trkpt lat="45.80835" lon="6.73552">
        <ele>1560</ele>
        <time>2026-08-14T09:54:11.540Z</time>
      </trkpt>
      <trkpt lat="45.80838" lon="6.73553">
        <ele>1560</ele>
        <time>2026-08-14T09:54:12.540Z</time>
      </trkpt>
      <trkpt lat="45.8084" lon="6.73553">
        <ele>1560</ele>
        <time>2026-08-14T09:54:13.540Z</time>
      </trkpt>
      <trkpt lat="45.80843" lon="6.73554">
        <ele>1560</ele>
        <time>2026-08-14T09:54:14.540Z</time>
      </trkpt>
      <trkpt lat="45.80845" lon="6.73555">
        <ele>1560</ele>
        <time>2026-08-14T09:54:15.540Z</time>
      </trkpt>
      <trkpt lat="45.80847" lon="6.73556">
        <ele>1561</ele>
        <time>2026-08-14T09:54:16.540Z</time>
      </trkpt>
      <trkpt lat="45.80849" lon="6.73556">
        <ele>1561</ele>
        <time>2026-08-14T09:54:17.540Z</time>
      </trkpt>
      <trkpt lat="45.80851" lon="6.73557">
        <ele>1561</ele>
        <time>2026-08-14T09:54:18.540Z</time>
      </trkpt>
      <trkpt lat="45.80853" lon="6.73558">
        <ele>1561</ele>
        <time>2026-08-14T09:54:19.540Z</time>
      </trkpt>
      <trkpt lat="45.80855" lon="6.7356">
        <ele>1562</ele>
        <time>2026-08-14T09:54:20.540Z</time>
      </trkpt>
      <trkpt lat="45.80856" lon="6.73561">
        <ele>1562</ele>
        <time>2026-08-14T09:54:21.540Z</time>
      </trkpt>
      <trkpt lat="45.80858" lon="6.73562">
        <ele>1562</ele>
        <time>2026-08-14T09:54:22.540Z</time>
      </trkpt>
      <trkpt lat="45.80861" lon="6.73562">
        <ele>1562</ele>
        <time>2026-08-14T09:54:23.540Z</time>
      </trkpt>
      <trkpt lat="45.80863" lon="6.73562">
        <ele>1562</ele>
        <time>2026-08-14T09:54:24.540Z</time>
      </trkpt>
      <trkpt lat="45.80865" lon="6.73563">
        <ele>1562</ele>
        <time>2026-08-14T09:54:25.540Z</time>
      </trkpt>
      <trkpt lat="45.80868" lon="6.73564">
        <ele>1562</ele>
        <time>2026-08-14T09:54:26.540Z</time>
      </trkpt>
      <trkpt lat="45.80871" lon="6.73565">
        <ele>1562</ele>
        <time>2026-08-14T09:54:27.540Z</time>
      </trkpt>
      <trkpt lat="45.80874" lon="6.73567">
        <ele>1561</ele>
        <time>2026-08-14T09:54:28.540Z</time>
      </trkpt>
      <trkpt lat="45.80877" lon="6.73568">
        <ele>1561</ele>
        <time>2026-08-14T09:54:29.540Z</time>
      </trkpt>
      <trkpt lat="45.8088" lon="6.73568">
        <ele>1561</ele>
        <time>2026-08-14T09:54:30.540Z</time>
      </trkpt>
      <trkpt lat="45.80882" lon="6.73569">
        <ele>1561</ele>
        <time>2026-08-14T09:54:31.540Z</time>
      </trkpt>
      <trkpt lat="45.80884" lon="6.73569">
        <ele>1560</ele>
        <time>2026-08-14T09:54:32.540Z</time>
      </trkpt>
      <trkpt lat="45.80886" lon="6.73568">
        <ele>1560</ele>
        <time>2026-08-14T09:54:33.540Z</time>
      </trkpt>
      <trkpt lat="45.80887" lon="6.73568">
        <ele>1560</ele>
        <time>2026-08-14T09:54:34.540Z</time>
      </trkpt>
      <trkpt lat="45.80889" lon="6.73567">
        <ele>1559</ele>
        <time>2026-08-14T09:54:35.540Z</time>
      </trkpt>
      <trkpt lat="45.8089" lon="6.73567">
        <ele>1559</ele>
        <time>2026-08-14T09:54:36.540Z</time>
      </trkpt>
      <trkpt lat="45.80892" lon="6.73567">
        <ele>1559</ele>
        <time>2026-08-14T09:54:37.540Z</time>
      </trkpt>
      <trkpt lat="45.80894" lon="6.73567">
        <ele>1559</ele>
        <time>2026-08-14T09:54:38.540Z</time>
      </trkpt>
      <trkpt lat="45.80895" lon="6.73566">
        <ele>1559</ele>
        <time>2026-08-14T09:54:39.540Z</time>
      </trkpt>
      <trkpt lat="45.80897" lon="6.73566">
        <ele>1559</ele>
        <time>2026-08-14T09:54:40.540Z</time>
      </trkpt>
      <trkpt lat="45.80899" lon="6.73567">
        <ele>1558</ele>
        <time>2026-08-14T09:54:41.540Z</time>
      </trkpt>
      <trkpt lat="45.80901" lon="6.73567">
        <ele>1558</ele>
        <time>2026-08-14T09:54:42.540Z</time>
      </trkpt>
      <trkpt lat="45.80903" lon="6.73567">
        <ele>1557</ele>
        <time>2026-08-14T09:54:43.540Z</time>
      </trkpt>
      <trkpt lat="45.80906" lon="6.73566">
        <ele>1557</ele>
        <time>2026-08-14T09:54:44.540Z</time>
      </trkpt>
      <trkpt lat="45.80907" lon="6.73566">
        <ele>1557</ele>
        <time>2026-08-14T09:54:45.540Z</time>
      </trkpt>
      <trkpt lat="45.80909" lon="6.73566">
        <ele>1557</ele>
        <time>2026-08-14T09:54:46.540Z</time>
      </trkpt>
      <trkpt lat="45.80912" lon="6.73566">
        <ele>1557</ele>
        <time>2026-08-14T09:54:47.540Z</time>
      </trkpt>
      <trkpt lat="45.80914" lon="6.73567">
        <ele>1558</ele>
        <time>2026-08-14T09:54:48.540Z</time>
      </trkpt>
      <trkpt lat="45.80915" lon="6.73568">
        <ele>1558</ele>
        <time>2026-08-14T09:54:49.540Z</time>
      </trkpt>
      <trkpt lat="45.80915" lon="6.73569">
        <ele>1558</ele>
        <time>2026-08-14T09:54:50.540Z</time>
      </trkpt>
      <trkpt lat="45.80916" lon="6.73569">
        <ele>1559</ele>
        <time>2026-08-14T09:54:51.540Z</time>
      </trkpt>
      <trkpt lat="45.80916" lon="6.73569">
        <ele>1559</ele>
        <time>2026-08-14T09:54:52.540Z</time>
      </trkpt>
      <trkpt lat="45.80917" lon="6.7357">
        <ele>1559</ele>
        <time>2026-08-14T09:54:53.540Z</time>
      </trkpt>
      <trkpt lat="45.80917" lon="6.73571">
        <ele>1559</ele>
        <time>2026-08-14T09:54:54.540Z</time>
      </trkpt>
      <trkpt lat="45.80917" lon="6.73571">
        <ele>1559</ele>
        <time>2026-08-14T09:54:55.540Z</time>
      </trkpt>
      <trkpt lat="45.80917" lon="6.73571">
        <ele>1559</ele>
        <time>2026-08-14T09:54:56.540Z</time>
      </trkpt>
      <trkpt lat="45.80917" lon="6.73571">
        <ele>1558</ele>
        <time>2026-08-14T09:54:57.540Z</time>
      </trkpt>
      <trkpt lat="45.80918" lon="6.73572">
        <ele>1557</ele>
        <time>2026-08-14T09:54:58.540Z</time>
      </trkpt>
      <trkpt lat="45.80919" lon="6.73572">
        <ele>1557</ele>
        <time>2026-08-14T09:54:59.540Z</time>
      </trkpt>
      <trkpt lat="45.80919" lon="6.73571">
        <ele>1557</ele>
        <time>2026-08-14T09:55:00.540Z</time>
      </trkpt>
      <trkpt lat="45.8092" lon="6.73571">
        <ele>1556</ele>
        <time>2026-08-14T09:55:01.540Z</time>
      </trkpt>
      <trkpt lat="45.80922" lon="6.73571">
        <ele>1556</ele>
        <time>2026-08-14T09:55:02.540Z</time>
      </trkpt>
      <trkpt lat="45.80924" lon="6.73572">
        <ele>1555</ele>
        <time>2026-08-14T09:55:03.540Z</time>
      </trkpt>
      <trkpt lat="45.80926" lon="6.73574">
        <ele>1554</ele>
        <time>2026-08-14T09:55:04.540Z</time>
      </trkpt>
      <trkpt lat="45.80927" lon="6.73575">
        <ele>1553</ele>
        <time>2026-08-14T09:55:05.540Z</time>
      </trkpt>
      <trkpt lat="45.80928" lon="6.73576">
        <ele>1553</ele>
        <time>2026-08-14T09:55:06.540Z</time>
      </trkpt>
      <trkpt lat="45.8093" lon="6.73577">
        <ele>1552</ele>
        <time>2026-08-14T09:55:07.540Z</time>
      </trkpt>
      <trkpt lat="45.80932" lon="6.73577">
        <ele>1551</ele>
        <time>2026-08-14T09:55:08.540Z</time>
      </trkpt>
      <trkpt lat="45.80934" lon="6.73576">
        <ele>1551</ele>
        <time>2026-08-14T09:55:09.540Z</time>
      </trkpt>
      <trkpt lat="45.80936" lon="6.73576">
        <ele>1550</ele>
        <time>2026-08-14T09:55:10.540Z</time>
      </trkpt>
      <trkpt lat="45.80938" lon="6.73576">
        <ele>1550</ele>
        <time>2026-08-14T09:55:11.540Z</time>
      </trkpt>
      <trkpt lat="45.80941" lon="6.73576">
        <ele>1549</ele>
        <time>2026-08-14T09:55:12.540Z</time>
      </trkpt>
      <trkpt lat="45.80943" lon="6.73577">
        <ele>1549</ele>
        <time>2026-08-14T09:55:13.540Z</time>
      </trkpt>
      <trkpt lat="45.80945" lon="6.73577">
        <ele>1548</ele>
        <time>2026-08-14T09:55:14.540Z</time>
      </trkpt>
      <trkpt lat="45.80946" lon="6.73577">
        <ele>1547</ele>
        <time>2026-08-14T09:55:15.540Z</time>
      </trkpt>
      <trkpt lat="45.80946" lon="6.73576">
        <ele>1547</ele>
        <time>2026-08-14T09:55:16.540Z</time>
      </trkpt>
      <trkpt lat="45.80946" lon="6.73576">
        <ele>1546</ele>
        <time>2026-08-14T09:55:17.540Z</time>
      </trkpt>
      <trkpt lat="45.80946" lon="6.73576">
        <ele>1546</ele>
        <time>2026-08-14T09:55:18.540Z</time>
      </trkpt>
      <trkpt lat="45.80945" lon="6.73578">
        <ele>1545</ele>
        <time>2026-08-14T09:55:19.540Z</time>
      </trkpt>
      <trkpt lat="45.80945" lon="6.73579">
        <ele>1545</ele>
        <time>2026-08-14T09:55:20.540Z</time>
      </trkpt>
      <trkpt lat="45.80944" lon="6.73581">
        <ele>1545</ele>
        <time>2026-08-14T09:55:21.540Z</time>
      </trkpt>
      <trkpt lat="45.80942" lon="6.73582">
        <ele>1545</ele>
        <time>2026-08-14T09:55:22.540Z</time>
      </trkpt>
      <trkpt lat="45.80941" lon="6.73582">
        <ele>1545</ele>
        <time>2026-08-14T09:55:23.540Z</time>
      </trkpt>
      <trkpt lat="45.80941" lon="6.73582">
        <ele>1545</ele>
        <time>2026-08-14T09:55:24.540Z</time>
      </trkpt>
      <trkpt lat="45.8094" lon="6.73583">
        <ele>1545</ele>
        <time>2026-08-14T09:55:25.540Z</time>
      </trkpt>
      <trkpt lat="45.8094" lon="6.73582">
        <ele>1545</ele>
        <time>2026-08-14T09:55:26.540Z</time>
      </trkpt>
      <trkpt lat="45.80939" lon="6.73582">
        <ele>1545</ele>
        <time>2026-08-14T09:55:27.540Z</time>
      </trkpt>
      <trkpt lat="45.80938" lon="6.73582">
        <ele>1545</ele>
        <time>2026-08-14T09:55:28.540Z</time>
      </trkpt>
      <trkpt lat="45.80937" lon="6.73582">
        <ele>1545</ele>
        <time>2026-08-14T09:55:29.540Z</time>
      </trkpt>
      <trkpt lat="45.80935" lon="6.73582">
        <ele>1545</ele>
        <time>2026-08-14T09:55:30.540Z</time>
      </trkpt>
      <trkpt lat="45.80935" lon="6.73581">
        <ele>1545</ele>
        <time>2026-08-14T09:55:31.540Z</time>
      </trkpt>
      <trkpt lat="45.80934" lon="6.7358">
        <ele>1545</ele>
        <time>2026-08-14T09:55:32.540Z</time>
      </trkpt>
      <trkpt lat="45.80933" lon="6.7358">
        <ele>1545</ele>
        <time>2026-08-14T09:55:33.540Z</time>
      </trkpt>
      <trkpt lat="45.80932" lon="6.7358">
        <ele>1545</ele>
        <time>2026-08-14T09:55:34.540Z</time>
      </trkpt>
      <trkpt lat="45.80931" lon="6.7358">
        <ele>1545</ele>
        <time>2026-08-14T09:55:35.540Z</time>
      </trkpt>
      <trkpt lat="45.80931" lon="6.7358">
        <ele>1545</ele>
        <time>2026-08-14T09:55:36.540Z</time>
      </trkpt>
      <trkpt lat="45.80931" lon="6.73581">
        <ele>1544</ele>
        <time>2026-08-14T09:55:37.540Z</time>
      </trkpt>
      <trkpt lat="45.80929" lon="6.73581">
        <ele>1544</ele>
        <time>2026-08-14T09:55:38.540Z</time>
      </trkpt>
      <trkpt lat="45.80928" lon="6.73582">
        <ele>1545</ele>
        <time>2026-08-14T09:55:39.540Z</time>
      </trkpt>
      <trkpt lat="45.80927" lon="6.73583">
        <ele>1545</ele>
        <time>2026-08-14T09:55:40.540Z</time>
      </trkpt>
      <trkpt lat="45.80925" lon="6.73583">
        <ele>1545</ele>
        <time>2026-08-14T09:55:41.540Z</time>
      </trkpt>
      <trkpt lat="45.80924" lon="6.73583">
        <ele>1545</ele>
        <time>2026-08-14T09:55:42.540Z</time>
      </trkpt>
      <trkpt lat="45.80924" lon="6.73583">
        <ele>1545</ele>
        <time>2026-08-14T09:55:43.540Z</time>
      </trkpt>
      <trkpt lat="45.80924" lon="6.73583">
        <ele>1545</ele>
        <time>2026-08-14T09:55:44.540Z</time>
      </trkpt>
      <trkpt lat="45.80925" lon="6.73583">
        <ele>1545</ele>
        <time>2026-08-14T09:55:45.540Z</time>
      </trkpt>
      <trkpt lat="45.80925" lon="6.73583">
        <ele>1545</ele>
        <time>2026-08-14T09:55:46.540Z</time>
      </trkpt>
      <trkpt lat="45.80925" lon="6.73583">
        <ele>1545</ele>
        <time>2026-08-14T09:55:47.540Z</time>
      </trkpt>
      <trkpt lat="45.80926" lon="6.73583">
        <ele>1544</ele>
        <time>2026-08-14T09:55:48.540Z</time>
      </trkpt>
      <trkpt lat="45.80927" lon="6.73583">
        <ele>1544</ele>
        <time>2026-08-14T09:55:49.540Z</time>
      </trkpt>
      <trkpt lat="45.80927" lon="6.73583">
        <ele>1544</ele>
        <time>2026-08-14T09:55:50.540Z</time>
      </trkpt>
      <trkpt lat="45.80925" lon="6.73581">
        <ele>1544</ele>
        <time>2026-08-14T09:55:51.540Z</time>
      </trkpt>
      <trkpt lat="45.80925" lon="6.7358">
        <ele>1544</ele>
        <time>2026-08-14T09:55:52.540Z</time>
      </trkpt>
      <trkpt lat="45.80925" lon="6.73579">
        <ele>1544</ele>
        <time>2026-08-14T09:55:53.540Z</time>
      </trkpt>
      <trkpt lat="45.80926" lon="6.7358">
        <ele>1544</ele>
        <time>2026-08-14T09:55:54.540Z</time>
      </trkpt>
      <trkpt lat="45.80926" lon="6.7358">
        <ele>1544</ele>
        <time>2026-08-14T09:55:55.540Z</time>
      </trkpt>
      <trkpt lat="45.80926" lon="6.7358">
        <ele>1543</ele>
        <time>2026-08-14T09:55:56.540Z</time>
      </trkpt>
      <trkpt lat="45.80927" lon="6.7358">
        <ele>1542</ele>
        <time>2026-08-14T09:55:57.540Z</time>
      </trkpt>
      <trkpt lat="45.80928" lon="6.7358">
        <ele>1542</ele>
        <time>2026-08-14T09:55:58.540Z</time>
      </trkpt>
      <trkpt lat="45.80929" lon="6.73581">
        <ele>1541</ele>
        <time>2026-08-14T09:55:59.540Z</time>
      </trkpt>
      <trkpt lat="45.80932" lon="6.73581">
        <ele>1541</ele>
        <time>2026-08-14T09:56:00.540Z</time>
      </trkpt>
      <trkpt lat="45.80934" lon="6.73581">
        <ele>1540</ele>
        <time>2026-08-14T09:56:01.540Z</time>
      </trkpt>
      <trkpt lat="45.80935" lon="6.73584">
        <ele>1541</ele>
        <time>2026-08-14T09:56:02.540Z</time>
      </trkpt>
      <trkpt lat="45.80937" lon="6.73586">
        <ele>1541</ele>
        <time>2026-08-14T09:56:03.540Z</time>
      </trkpt>
      <trkpt lat="45.8094" lon="6.73589">
        <ele>1541</ele>
        <time>2026-08-14T09:56:04.540Z</time>
      </trkpt>
      <trkpt lat="45.80942" lon="6.73591">
        <ele>1541</ele>
        <time>2026-08-14T09:56:05.540Z</time>
      </trkpt>
      <trkpt lat="45.80944" lon="6.73593">
        <ele>1541</ele>
        <time>2026-08-14T09:56:06.540Z</time>
      </trkpt>
      <trkpt lat="45.80947" lon="6.73596">
        <ele>1541</ele>
        <time>2026-08-14T09:56:07.540Z</time>
      </trkpt>
      <trkpt lat="45.80949" lon="6.73599">
        <ele>1540</ele>
        <time>2026-08-14T09:56:08.540Z</time>
      </trkpt>
      <trkpt lat="45.80951" lon="6.73602">
        <ele>1540</ele>
        <time>2026-08-14T09:56:09.540Z</time>
      </trkpt>
      <trkpt lat="45.80952" lon="6.73604">
        <ele>1540</ele>
        <time>2026-08-14T09:56:10.540Z</time>
      </trkpt>
      <trkpt lat="45.80954" lon="6.73605">
        <ele>1540</ele>
        <time>2026-08-14T09:56:11.540Z</time>
      </trkpt>
      <trkpt lat="45.80955" lon="6.73605">
        <ele>1540</ele>
        <time>2026-08-14T09:56:12.540Z</time>
      </trkpt>
      <trkpt lat="45.80957" lon="6.73606">
        <ele>1539</ele>
        <time>2026-08-14T09:56:13.540Z</time>
      </trkpt>
      <trkpt lat="45.80959" lon="6.73606">
        <ele>1539</ele>
        <time>2026-08-14T09:56:14.540Z</time>
      </trkpt>
      <trkpt lat="45.80961" lon="6.73606">
        <ele>1539</ele>
        <time>2026-08-14T09:56:15.540Z</time>
      </trkpt>
      <trkpt lat="45.80962" lon="6.73607">
        <ele>1539</ele>
        <time>2026-08-14T09:56:16.540Z</time>
      </trkpt>
      <trkpt lat="45.80964" lon="6.73607">
        <ele>1540</ele>
        <time>2026-08-14T09:56:17.540Z</time>
      </trkpt>
      <trkpt lat="45.80965" lon="6.73606">
        <ele>1540</ele>
        <time>2026-08-14T09:56:18.540Z</time>
      </trkpt>
      <trkpt lat="45.80968" lon="6.73605">
        <ele>1541</ele>
        <time>2026-08-14T09:56:19.540Z</time>
      </trkpt>
      <trkpt lat="45.8097" lon="6.73605">
        <ele>1542</ele>
        <time>2026-08-14T09:56:20.540Z</time>
      </trkpt>
      <trkpt lat="45.80972" lon="6.73606">
        <ele>1543</ele>
        <time>2026-08-14T09:56:21.540Z</time>
      </trkpt>
      <trkpt lat="45.80974" lon="6.73607">
        <ele>1544</ele>
        <time>2026-08-14T09:56:22.540Z</time>
      </trkpt>
      <trkpt lat="45.80976" lon="6.73608">
        <ele>1545</ele>
        <time>2026-08-14T09:56:23.540Z</time>
      </trkpt>
      <trkpt lat="45.80977" lon="6.73608">
        <ele>1545</ele>
        <time>2026-08-14T09:56:24.540Z</time>
      </trkpt>
      <trkpt lat="45.80979" lon="6.73608">
        <ele>1546</ele>
        <time>2026-08-14T09:56:25.540Z</time>
      </trkpt>
      <trkpt lat="45.8098" lon="6.73609">
        <ele>1547</ele>
        <time>2026-08-14T09:56:26.540Z</time>
      </trkpt>
      <trkpt lat="45.80982" lon="6.73608">
        <ele>1547</ele>
        <time>2026-08-14T09:56:27.540Z</time>
      </trkpt>
      <trkpt lat="45.80984" lon="6.73608">
        <ele>1548</ele>
        <time>2026-08-14T09:56:28.540Z</time>
      </trkpt>
      <trkpt lat="45.80985" lon="6.73609">
        <ele>1548</ele>
        <time>2026-08-14T09:56:29.540Z</time>
      </trkpt>
      <trkpt lat="45.80987" lon="6.7361">
        <ele>1548</ele>
        <time>2026-08-14T09:56:30.540Z</time>
      </trkpt>
      <trkpt lat="45.8099" lon="6.73611">
        <ele>1548</ele>
        <time>2026-08-14T09:56:31.540Z</time>
      </trkpt>
      <trkpt lat="45.80992" lon="6.73612">
        <ele>1548</ele>
        <time>2026-08-14T09:56:32.540Z</time>
      </trkpt>
      <trkpt lat="45.80996" lon="6.73614">
        <ele>1548</ele>
        <time>2026-08-14T09:56:33.540Z</time>
      </trkpt>
      <trkpt lat="45.80999" lon="6.73616">
        <ele>1548</ele>
        <time>2026-08-14T09:56:34.540Z</time>
      </trkpt>
      <trkpt lat="45.81001" lon="6.73617">
        <ele>1548</ele>
        <time>2026-08-14T09:56:35.540Z</time>
      </trkpt>
      <trkpt lat="45.81003" lon="6.73618">
        <ele>1548</ele>
        <time>2026-08-14T09:56:36.540Z</time>
      </trkpt>
      <trkpt lat="45.81005" lon="6.73618">
        <ele>1548</ele>
        <time>2026-08-14T09:56:37.540Z</time>
      </trkpt>
      <trkpt lat="45.81007" lon="6.73619">
        <ele>1548</ele>
        <time>2026-08-14T09:56:38.540Z</time>
      </trkpt>
      <trkpt lat="45.81009" lon="6.73619">
        <ele>1548</ele>
        <time>2026-08-14T09:56:39.540Z</time>
      </trkpt>
      <trkpt lat="45.81011" lon="6.73619">
        <ele>1548</ele>
        <time>2026-08-14T09:56:40.540Z</time>
      </trkpt>
      <trkpt lat="45.81013" lon="6.73618">
        <ele>1548</ele>
        <time>2026-08-14T09:56:41.540Z</time>
      </trkpt>
      <trkpt lat="45.81015" lon="6.73618">
        <ele>1548</ele>
        <time>2026-08-14T09:56:42.540Z</time>
      </trkpt>
      <trkpt lat="45.81017" lon="6.73618">
        <ele>1548</ele>
        <time>2026-08-14T09:56:43.540Z</time>
      </trkpt>
      <trkpt lat="45.8102" lon="6.73618">
        <ele>1548</ele>
        <time>2026-08-14T09:56:44.540Z</time>
      </trkpt>
      <trkpt lat="45.81022" lon="6.73617">
        <ele>1548</ele>
        <time>2026-08-14T09:56:45.540Z</time>
      </trkpt>
      <trkpt lat="45.81024" lon="6.73616">
        <ele>1548</ele>
        <time>2026-08-14T09:56:46.540Z</time>
      </trkpt>
      <trkpt lat="45.81026" lon="6.73615">
        <ele>1549</ele>
        <time>2026-08-14T09:56:47.540Z</time>
      </trkpt>
      <trkpt lat="45.81027" lon="6.73614">
        <ele>1549</ele>
        <time>2026-08-14T09:56:48.540Z</time>
      </trkpt>
      <trkpt lat="45.81029" lon="6.73615">
        <ele>1549</ele>
        <time>2026-08-14T09:56:49.540Z</time>
      </trkpt>
      <trkpt lat="45.81031" lon="6.73615">
        <ele>1549</ele>
        <time>2026-08-14T09:56:50.540Z</time>
      </trkpt>
      <trkpt lat="45.81032" lon="6.73614">
        <ele>1549</ele>
        <time>2026-08-14T09:56:51.540Z</time>
      </trkpt>
      <trkpt lat="45.81033" lon="6.73613">
        <ele>1549</ele>
        <time>2026-08-14T09:56:52.540Z</time>
      </trkpt>
      <trkpt lat="45.81034" lon="6.73613">
        <ele>1549</ele>
        <time>2026-08-14T09:56:53.540Z</time>
      </trkpt>
      <trkpt lat="45.81035" lon="6.73612">
        <ele>1550</ele>
        <time>2026-08-14T09:56:54.540Z</time>
      </trkpt>
      <trkpt lat="45.81036" lon="6.73611">
        <ele>1550</ele>
        <time>2026-08-14T09:56:55.540Z</time>
      </trkpt>
      <trkpt lat="45.81038" lon="6.73612">
        <ele>1550</ele>
        <time>2026-08-14T09:56:56.540Z</time>
      </trkpt>
      <trkpt lat="45.81039" lon="6.73612">
        <ele>1550</ele>
        <time>2026-08-14T09:56:57.540Z</time>
      </trkpt>
      <trkpt lat="45.8104" lon="6.73612">
        <ele>1550</ele>
        <time>2026-08-14T09:56:58.540Z</time>
      </trkpt>
      <trkpt lat="45.81042" lon="6.73613">
        <ele>1550</ele>
        <time>2026-08-14T09:56:59.540Z</time>
      </trkpt>
      <trkpt lat="45.81043" lon="6.73613">
        <ele>1550</ele>
        <time>2026-08-14T09:57:00.540Z</time>
      </trkpt>
      <trkpt lat="45.81045" lon="6.73614">
        <ele>1549</ele>
        <time>2026-08-14T09:57:01.540Z</time>
      </trkpt>
      <trkpt lat="45.81047" lon="6.73614">
        <ele>1549</ele>
        <time>2026-08-14T09:57:02.540Z</time>
      </trkpt>
      <trkpt lat="45.81049" lon="6.73616">
        <ele>1548</ele>
        <time>2026-08-14T09:57:03.540Z</time>
      </trkpt>
      <trkpt lat="45.81051" lon="6.73616">
        <ele>1547</ele>
        <time>2026-08-14T09:57:04.540Z</time>
      </trkpt>
      <trkpt lat="45.81053" lon="6.73617">
        <ele>1546</ele>
        <time>2026-08-14T09:57:05.540Z</time>
      </trkpt>
      <trkpt lat="45.81054" lon="6.73619">
        <ele>1545</ele>
        <time>2026-08-14T09:57:06.540Z</time>
      </trkpt>
      <trkpt lat="45.81057" lon="6.73621">
        <ele>1544</ele>
        <time>2026-08-14T09:57:07.540Z</time>
      </trkpt>
      <trkpt lat="45.81058" lon="6.73621">
        <ele>1543</ele>
        <time>2026-08-14T09:57:08.540Z</time>
      </trkpt>
      <trkpt lat="45.81059" lon="6.73621">
        <ele>1542</ele>
        <time>2026-08-14T09:57:09.540Z</time>
      </trkpt>
      <trkpt lat="45.8106" lon="6.73623">
        <ele>1541</ele>
        <time>2026-08-14T09:57:10.540Z</time>
      </trkpt>
      <trkpt lat="45.81061" lon="6.73625">
        <ele>1541</ele>
        <time>2026-08-14T09:57:11.540Z</time>
      </trkpt>
      <trkpt lat="45.81063" lon="6.73626">
        <ele>1541</ele>
        <time>2026-08-14T09:57:12.540Z</time>
      </trkpt>
      <trkpt lat="45.81064" lon="6.73627">
        <ele>1540</ele>
        <time>2026-08-14T09:57:13.540Z</time>
      </trkpt>
      <trkpt lat="45.81065" lon="6.73629">
        <ele>1540</ele>
        <time>2026-08-14T09:57:14.540Z</time>
      </trkpt>
      <trkpt lat="45.81067" lon="6.73629">
        <ele>1540</ele>
        <time>2026-08-14T09:57:15.540Z</time>
      </trkpt>
      <trkpt lat="45.81068" lon="6.7363">
        <ele>1539</ele>
        <time>2026-08-14T09:57:16.540Z</time>
      </trkpt>
      <trkpt lat="45.81069" lon="6.73632">
        <ele>1539</ele>
        <time>2026-08-14T09:57:17.540Z</time>
      </trkpt>
      <trkpt lat="45.81071" lon="6.73633">
        <ele>1538</ele>
        <time>2026-08-14T09:57:18.540Z</time>
      </trkpt>
      <trkpt lat="45.81072" lon="6.73636">
        <ele>1538</ele>
        <time>2026-08-14T09:57:19.540Z</time>
      </trkpt>
      <trkpt lat="45.81074" lon="6.73638">
        <ele>1537</ele>
        <time>2026-08-14T09:57:20.540Z</time>
      </trkpt>
      <trkpt lat="45.81076" lon="6.73641">
        <ele>1537</ele>
        <time>2026-08-14T09:57:21.540Z</time>
      </trkpt>
      <trkpt lat="45.81077" lon="6.73644">
        <ele>1536</ele>
        <time>2026-08-14T09:57:22.540Z</time>
      </trkpt>
      <trkpt lat="45.81079" lon="6.73647">
        <ele>1536</ele>
        <time>2026-08-14T09:57:23.540Z</time>
      </trkpt>
      <trkpt lat="45.8108" lon="6.7365">
        <ele>1536</ele>
        <time>2026-08-14T09:57:24.540Z</time>
      </trkpt>
      <trkpt lat="45.81081" lon="6.73652">
        <ele>1536</ele>
        <time>2026-08-14T09:57:25.540Z</time>
      </trkpt>
      <trkpt lat="45.81082" lon="6.73654">
        <ele>1535</ele>
        <time>2026-08-14T09:57:26.540Z</time>
      </trkpt>
      <trkpt lat="45.81083" lon="6.73655">
        <ele>1535</ele>
        <time>2026-08-14T09:57:27.540Z</time>
      </trkpt>
      <trkpt lat="45.81084" lon="6.73656">
        <ele>1535</ele>
        <time>2026-08-14T09:57:28.540Z</time>
      </trkpt>
      <trkpt lat="45.81086" lon="6.73657">
        <ele>1535</ele>
        <time>2026-08-14T09:57:29.540Z</time>
      </trkpt>
      <trkpt lat="45.81088" lon="6.73659">
        <ele>1535</ele>
        <time>2026-08-14T09:57:30.540Z</time>
      </trkpt>
      <trkpt lat="45.8109" lon="6.73661">
        <ele>1535</ele>
        <time>2026-08-14T09:57:31.540Z</time>
      </trkpt>
      <trkpt lat="45.81092" lon="6.73662">
        <ele>1535</ele>
        <time>2026-08-14T09:57:32.540Z</time>
      </trkpt>
      <trkpt lat="45.81094" lon="6.73663">
        <ele>1534</ele>
        <time>2026-08-14T09:57:33.540Z</time>
      </trkpt>
      <trkpt lat="45.81096" lon="6.73665">
        <ele>1534</ele>
        <time>2026-08-14T09:57:34.540Z</time>
      </trkpt>
      <trkpt lat="45.81098" lon="6.73666">
        <ele>1533</ele>
        <time>2026-08-14T09:57:35.540Z</time>
      </trkpt>
      <trkpt lat="45.811" lon="6.73667">
        <ele>1533</ele>
        <time>2026-08-14T09:57:36.540Z</time>
      </trkpt>
      <trkpt lat="45.81102" lon="6.73667">
        <ele>1532</ele>
        <time>2026-08-14T09:57:37.540Z</time>
      </trkpt>
      <trkpt lat="45.81104" lon="6.73667">
        <ele>1532</ele>
        <time>2026-08-14T09:57:38.540Z</time>
      </trkpt>
      <trkpt lat="45.81106" lon="6.73668">
        <ele>1531</ele>
        <time>2026-08-14T09:57:39.540Z</time>
      </trkpt>
      <trkpt lat="45.81108" lon="6.73668">
        <ele>1531</ele>
        <time>2026-08-14T09:57:40.540Z</time>
      </trkpt>
      <trkpt lat="45.8111" lon="6.73668">
        <ele>1530</ele>
        <time>2026-08-14T09:57:41.540Z</time>
      </trkpt>
      <trkpt lat="45.81112" lon="6.73668">
        <ele>1530</ele>
        <time>2026-08-14T09:57:42.540Z</time>
      </trkpt>
      <trkpt lat="45.81113" lon="6.73668">
        <ele>1529</ele>
        <time>2026-08-14T09:57:43.540Z</time>
      </trkpt>
      <trkpt lat="45.81115" lon="6.73667">
        <ele>1529</ele>
        <time>2026-08-14T09:57:44.540Z</time>
      </trkpt>
      <trkpt lat="45.81117" lon="6.73666">
        <ele>1529</ele>
        <time>2026-08-14T09:57:45.540Z</time>
      </trkpt>
      <trkpt lat="45.81119" lon="6.73666">
        <ele>1529</ele>
        <time>2026-08-14T09:57:46.540Z</time>
      </trkpt>
      <trkpt lat="45.8112" lon="6.73666">
        <ele>1528</ele>
        <time>2026-08-14T09:57:47.540Z</time>
      </trkpt>
      <trkpt lat="45.81122" lon="6.73666">
        <ele>1528</ele>
        <time>2026-08-14T09:57:48.540Z</time>
      </trkpt>
      <trkpt lat="45.81124" lon="6.73666">
        <ele>1528</ele>
        <time>2026-08-14T09:57:49.540Z</time>
      </trkpt>
      <trkpt lat="45.81126" lon="6.73666">
        <ele>1528</ele>
        <time>2026-08-14T09:57:50.540Z</time>
      </trkpt>
      <trkpt lat="45.81128" lon="6.73665">
        <ele>1527</ele>
        <time>2026-08-14T09:57:51.540Z</time>
      </trkpt>
      <trkpt lat="45.81129" lon="6.73666">
        <ele>1527</ele>
        <time>2026-08-14T09:57:52.540Z</time>
      </trkpt>
      <trkpt lat="45.81132" lon="6.73666">
        <ele>1527</ele>
        <time>2026-08-14T09:57:53.540Z</time>
      </trkpt>
      <trkpt lat="45.81134" lon="6.73667">
        <ele>1526</ele>
        <time>2026-08-14T09:57:54.540Z</time>
      </trkpt>
      <trkpt lat="45.81136" lon="6.73667">
        <ele>1526</ele>
        <time>2026-08-14T09:57:55.540Z</time>
      </trkpt>
      <trkpt lat="45.81138" lon="6.73668">
        <ele>1527</ele>
        <time>2026-08-14T09:57:56.540Z</time>
      </trkpt>
      <trkpt lat="45.8114" lon="6.7367">
        <ele>1527</ele>
        <time>2026-08-14T09:57:57.540Z</time>
      </trkpt>
      <trkpt lat="45.81142" lon="6.73672">
        <ele>1527</ele>
        <time>2026-08-14T09:57:58.540Z</time>
      </trkpt>
      <trkpt lat="45.81144" lon="6.73675">
        <ele>1527</ele>
        <time>2026-08-14T09:57:59.540Z</time>
      </trkpt>
      <trkpt lat="45.81146" lon="6.73678">
        <ele>1528</ele>
        <time>2026-08-14T09:58:00.540Z</time>
      </trkpt>
      <trkpt lat="45.81147" lon="6.73681">
        <ele>1528</ele>
        <time>2026-08-14T09:58:01.540Z</time>
      </trkpt>
      <trkpt lat="45.81149" lon="6.73683">
        <ele>1528</ele>
        <time>2026-08-14T09:58:02.540Z</time>
      </trkpt>
      <trkpt lat="45.8115" lon="6.73685">
        <ele>1528</ele>
        <time>2026-08-14T09:58:03.540Z</time>
      </trkpt>
      <trkpt lat="45.8115" lon="6.73688">
        <ele>1528</ele>
        <time>2026-08-14T09:58:04.540Z</time>
      </trkpt>
      <trkpt lat="45.81151" lon="6.73691">
        <ele>1528</ele>
        <time>2026-08-14T09:58:05.540Z</time>
      </trkpt>
      <trkpt lat="45.81151" lon="6.73694">
        <ele>1528</ele>
        <time>2026-08-14T09:58:06.540Z</time>
      </trkpt>
      <trkpt lat="45.81152" lon="6.73698">
        <ele>1528</ele>
        <time>2026-08-14T09:58:07.540Z</time>
      </trkpt>
      <trkpt lat="45.81152" lon="6.73701">
        <ele>1528</ele>
        <time>2026-08-14T09:58:08.540Z</time>
      </trkpt>
      <trkpt lat="45.81153" lon="6.73705">
        <ele>1528</ele>
        <time>2026-08-14T09:58:09.540Z</time>
      </trkpt>
      <trkpt lat="45.81154" lon="6.73708">
        <ele>1527</ele>
        <time>2026-08-14T09:58:10.540Z</time>
      </trkpt>
      <trkpt lat="45.81154" lon="6.7371">
        <ele>1527</ele>
        <time>2026-08-14T09:58:11.540Z</time>
      </trkpt>
      <trkpt lat="45.81154" lon="6.73713">
        <ele>1526</ele>
        <time>2026-08-14T09:58:12.540Z</time>
      </trkpt>
      <trkpt lat="45.81155" lon="6.73716">
        <ele>1526</ele>
        <time>2026-08-14T09:58:13.540Z</time>
      </trkpt>
      <trkpt lat="45.81156" lon="6.73718">
        <ele>1525</ele>
        <time>2026-08-14T09:58:14.540Z</time>
      </trkpt>
      <trkpt lat="45.81157" lon="6.7372">
        <ele>1525</ele>
        <time>2026-08-14T09:58:15.540Z</time>
      </trkpt>
      <trkpt lat="45.81158" lon="6.73723">
        <ele>1524</ele>
        <time>2026-08-14T09:58:16.540Z</time>
      </trkpt>
      <trkpt lat="45.81159" lon="6.73724">
        <ele>1524</ele>
        <time>2026-08-14T09:58:17.540Z</time>
      </trkpt>
      <trkpt lat="45.8116" lon="6.73726">
        <ele>1524</ele>
        <time>2026-08-14T09:58:18.540Z</time>
      </trkpt>
      <trkpt lat="45.81161" lon="6.73728">
        <ele>1524</ele>
        <time>2026-08-14T09:58:19.540Z</time>
      </trkpt>
      <trkpt lat="45.81162" lon="6.7373">
        <ele>1524</ele>
        <time>2026-08-14T09:58:20.540Z</time>
      </trkpt>
      <trkpt lat="45.81164" lon="6.73731">
        <ele>1524</ele>
        <time>2026-08-14T09:58:21.540Z</time>
      </trkpt>
      <trkpt lat="45.81165" lon="6.73733">
        <ele>1524</ele>
        <time>2026-08-14T09:58:22.540Z</time>
      </trkpt>
      <trkpt lat="45.81166" lon="6.73735">
        <ele>1524</ele>
        <time>2026-08-14T09:58:23.540Z</time>
      </trkpt>
      <trkpt lat="45.81166" lon="6.73737">
        <ele>1524</ele>
        <time>2026-08-14T09:58:24.540Z</time>
      </trkpt>
      <trkpt lat="45.81167" lon="6.73738">
        <ele>1524</ele>
        <time>2026-08-14T09:58:25.540Z</time>
      </trkpt>
      <trkpt lat="45.81167" lon="6.7374">
        <ele>1524</ele>
        <time>2026-08-14T09:58:26.540Z</time>
      </trkpt>
      <trkpt lat="45.81168" lon="6.73742">
        <ele>1524</ele>
        <time>2026-08-14T09:58:27.540Z</time>
      </trkpt>
      <trkpt lat="45.81168" lon="6.73744">
        <ele>1525</ele>
        <time>2026-08-14T09:58:28.540Z</time>
      </trkpt>
      <trkpt lat="45.81169" lon="6.73746">
        <ele>1525</ele>
        <time>2026-08-14T09:58:29.540Z</time>
      </trkpt>
      <trkpt lat="45.8117" lon="6.73748">
        <ele>1525</ele>
        <time>2026-08-14T09:58:30.540Z</time>
      </trkpt>
      <trkpt lat="45.81171" lon="6.7375">
        <ele>1525</ele>
        <time>2026-08-14T09:58:31.540Z</time>
      </trkpt>
      <trkpt lat="45.81173" lon="6.73752">
        <ele>1525</ele>
        <time>2026-08-14T09:58:32.540Z</time>
      </trkpt>
      <trkpt lat="45.81174" lon="6.73754">
        <ele>1525</ele>
        <time>2026-08-14T09:58:33.540Z</time>
      </trkpt>
      <trkpt lat="45.81175" lon="6.73756">
        <ele>1524</ele>
        <time>2026-08-14T09:58:34.540Z</time>
      </trkpt>
      <trkpt lat="45.81177" lon="6.73757">
        <ele>1524</ele>
        <time>2026-08-14T09:58:35.540Z</time>
      </trkpt>
      <trkpt lat="45.81178" lon="6.73758">
        <ele>1524</ele>
        <time>2026-08-14T09:58:36.540Z</time>
      </trkpt>
      <trkpt lat="45.8118" lon="6.7376">
        <ele>1524</ele>
        <time>2026-08-14T09:58:37.540Z</time>
      </trkpt>
      <trkpt lat="45.81183" lon="6.73761">
        <ele>1524</ele>
        <time>2026-08-14T09:58:38.540Z</time>
      </trkpt>
      <trkpt lat="45.81186" lon="6.73762">
        <ele>1524</ele>
        <time>2026-08-14T09:58:39.540Z</time>
      </trkpt>
      <trkpt lat="45.81188" lon="6.73763">
        <ele>1524</ele>
        <time>2026-08-14T09:58:40.540Z</time>
      </trkpt>
      <trkpt lat="45.81191" lon="6.73764">
        <ele>1525</ele>
        <time>2026-08-14T09:58:41.540Z</time>
      </trkpt>
      <trkpt lat="45.81192" lon="6.73765">
        <ele>1524</ele>
        <time>2026-08-14T09:58:42.540Z</time>
      </trkpt>
      <trkpt lat="45.81194" lon="6.73766">
        <ele>1524</ele>
        <time>2026-08-14T09:58:43.540Z</time>
      </trkpt>
      <trkpt lat="45.81195" lon="6.73767">
        <ele>1524</ele>
        <time>2026-08-14T09:58:44.540Z</time>
      </trkpt>
      <trkpt lat="45.81196" lon="6.73768">
        <ele>1524</ele>
        <time>2026-08-14T09:58:45.540Z</time>
      </trkpt>
      <trkpt lat="45.81197" lon="6.7377">
        <ele>1523</ele>
        <time>2026-08-14T09:58:46.540Z</time>
      </trkpt>
      <trkpt lat="45.81198" lon="6.73771">
        <ele>1523</ele>
        <time>2026-08-14T09:58:47.540Z</time>
      </trkpt>
      <trkpt lat="45.812" lon="6.73773">
        <ele>1522</ele>
        <time>2026-08-14T09:58:48.540Z</time>
      </trkpt>
      <trkpt lat="45.81202" lon="6.73776">
        <ele>1522</ele>
        <time>2026-08-14T09:58:49.540Z</time>
      </trkpt>
      <trkpt lat="45.81203" lon="6.73777">
        <ele>1522</ele>
        <time>2026-08-14T09:58:50.540Z</time>
      </trkpt>
      <trkpt lat="45.81204" lon="6.73779">
        <ele>1521</ele>
        <time>2026-08-14T09:58:51.540Z</time>
      </trkpt>
      <trkpt lat="45.81205" lon="6.7378">
        <ele>1521</ele>
        <time>2026-08-14T09:58:52.540Z</time>
      </trkpt>
      <trkpt lat="45.81206" lon="6.73781">
        <ele>1521</ele>
        <time>2026-08-14T09:58:53.540Z</time>
      </trkpt>
      <trkpt lat="45.81207" lon="6.73782">
        <ele>1520</ele>
        <time>2026-08-14T09:58:54.540Z</time>
      </trkpt>
      <trkpt lat="45.81208" lon="6.73784">
        <ele>1520</ele>
        <time>2026-08-14T09:58:55.540Z</time>
      </trkpt>
      <trkpt lat="45.81209" lon="6.73786">
        <ele>1520</ele>
        <time>2026-08-14T09:58:56.540Z</time>
      </trkpt>
      <trkpt lat="45.8121" lon="6.73788">
        <ele>1519</ele>
        <time>2026-08-14T09:58:57.540Z</time>
      </trkpt>
      <trkpt lat="45.81211" lon="6.7379">
        <ele>1519</ele>
        <time>2026-08-14T09:58:58.540Z</time>
      </trkpt>
      <trkpt lat="45.81212" lon="6.73792">
        <ele>1520</ele>
        <time>2026-08-14T09:58:59.540Z</time>
      </trkpt>
      <trkpt lat="45.81213" lon="6.73794">
        <ele>1520</ele>
        <time>2026-08-14T09:59:00.540Z</time>
      </trkpt>
      <trkpt lat="45.81213" lon="6.73796">
        <ele>1520</ele>
        <time>2026-08-14T09:59:01.540Z</time>
      </trkpt>
      <trkpt lat="45.81214" lon="6.73799">
        <ele>1519</ele>
        <time>2026-08-14T09:59:02.540Z</time>
      </trkpt>
      <trkpt lat="45.81215" lon="6.73802">
        <ele>1519</ele>
        <time>2026-08-14T09:59:03.540Z</time>
      </trkpt>
      <trkpt lat="45.81216" lon="6.73804">
        <ele>1519</ele>
        <time>2026-08-14T09:59:04.540Z</time>
      </trkpt>
      <trkpt lat="45.81216" lon="6.73805">
        <ele>1519</ele>
        <time>2026-08-14T09:59:05.540Z</time>
      </trkpt>
      <trkpt lat="45.81217" lon="6.73808">
        <ele>1519</ele>
        <time>2026-08-14T09:59:06.540Z</time>
      </trkpt>
      <trkpt lat="45.81217" lon="6.73811">
        <ele>1519</ele>
        <time>2026-08-14T09:59:07.540Z</time>
      </trkpt>
      <trkpt lat="45.81218" lon="6.73814">
        <ele>1519</ele>
        <time>2026-08-14T09:59:08.540Z</time>
      </trkpt>
      <trkpt lat="45.81218" lon="6.73817">
        <ele>1519</ele>
        <time>2026-08-14T09:59:09.540Z</time>
      </trkpt>
      <trkpt lat="45.8122" lon="6.7382">
        <ele>1519</ele>
        <time>2026-08-14T09:59:10.540Z</time>
      </trkpt>
      <trkpt lat="45.81221" lon="6.73823">
        <ele>1519</ele>
        <time>2026-08-14T09:59:11.540Z</time>
      </trkpt>
      <trkpt lat="45.81222" lon="6.73827">
        <ele>1518</ele>
        <time>2026-08-14T09:59:12.540Z</time>
      </trkpt>
      <trkpt lat="45.81223" lon="6.7383">
        <ele>1519</ele>
        <time>2026-08-14T09:59:13.540Z</time>
      </trkpt>
      <trkpt lat="45.81223" lon="6.73832">
        <ele>1519</ele>
        <time>2026-08-14T09:59:14.540Z</time>
      </trkpt>
      <trkpt lat="45.81224" lon="6.73835">
        <ele>1519</ele>
        <time>2026-08-14T09:59:15.540Z</time>
      </trkpt>
      <trkpt lat="45.81224" lon="6.73837">
        <ele>1519</ele>
        <time>2026-08-14T09:59:16.540Z</time>
      </trkpt>
      <trkpt lat="45.81224" lon="6.73839">
        <ele>1519</ele>
        <time>2026-08-14T09:59:17.540Z</time>
      </trkpt>
      <trkpt lat="45.81225" lon="6.73841">
        <ele>1519</ele>
        <time>2026-08-14T09:59:18.540Z</time>
      </trkpt>
      <trkpt lat="45.81226" lon="6.73842">
        <ele>1519</ele>
        <time>2026-08-14T09:59:19.540Z</time>
      </trkpt>
      <trkpt lat="45.81227" lon="6.73844">
        <ele>1520</ele>
        <time>2026-08-14T09:59:20.540Z</time>
      </trkpt>
      <trkpt lat="45.81228" lon="6.73846">
        <ele>1520</ele>
        <time>2026-08-14T09:59:21.540Z</time>
      </trkpt>
      <trkpt lat="45.81229" lon="6.7385">
        <ele>1519</ele>
        <time>2026-08-14T09:59:22.540Z</time>
      </trkpt>
      <trkpt lat="45.81231" lon="6.73854">
        <ele>1519</ele>
        <time>2026-08-14T09:59:23.540Z</time>
      </trkpt>
      <trkpt lat="45.81232" lon="6.73856">
        <ele>1519</ele>
        <time>2026-08-14T09:59:24.540Z</time>
      </trkpt>
      <trkpt lat="45.81233" lon="6.73859">
        <ele>1518</ele>
        <time>2026-08-14T09:59:25.540Z</time>
      </trkpt>
      <trkpt lat="45.81235" lon="6.73862">
        <ele>1517</ele>
        <time>2026-08-14T09:59:26.540Z</time>
      </trkpt>
      <trkpt lat="45.81236" lon="6.73865">
        <ele>1517</ele>
        <time>2026-08-14T09:59:27.540Z</time>
      </trkpt>
      <trkpt lat="45.81237" lon="6.73868">
        <ele>1517</ele>
        <time>2026-08-14T09:59:28.540Z</time>
      </trkpt>
      <trkpt lat="45.81239" lon="6.73871">
        <ele>1516</ele>
        <time>2026-08-14T09:59:29.540Z</time>
      </trkpt>
      <trkpt lat="45.81239" lon="6.73873">
        <ele>1516</ele>
        <time>2026-08-14T09:59:30.540Z</time>
      </trkpt>
      <trkpt lat="45.81241" lon="6.73876">
        <ele>1516</ele>
        <time>2026-08-14T09:59:31.540Z</time>
      </trkpt>
      <trkpt lat="45.81242" lon="6.73878">
        <ele>1516</ele>
        <time>2026-08-14T09:59:32.540Z</time>
      </trkpt>
      <trkpt lat="45.81243" lon="6.73879">
        <ele>1516</ele>
        <time>2026-08-14T09:59:33.540Z</time>
      </trkpt>
      <trkpt lat="45.81243" lon="6.7388">
        <ele>1516</ele>
        <time>2026-08-14T09:59:34.540Z</time>
      </trkpt>
      <trkpt lat="45.81244" lon="6.73881">
        <ele>1516</ele>
        <time>2026-08-14T09:59:35.540Z</time>
      </trkpt>
      <trkpt lat="45.81245" lon="6.73882">
        <ele>1517</ele>
        <time>2026-08-14T09:59:36.540Z</time>
      </trkpt>
      <trkpt lat="45.81246" lon="6.73884">
        <ele>1517</ele>
        <time>2026-08-14T09:59:37.540Z</time>
      </trkpt>
      <trkpt lat="45.81248" lon="6.73885">
        <ele>1517</ele>
        <time>2026-08-14T09:59:38.540Z</time>
      </trkpt>
      <trkpt lat="45.81249" lon="6.73887">
        <ele>1517</ele>
        <time>2026-08-14T09:59:39.540Z</time>
      </trkpt>
      <trkpt lat="45.8125" lon="6.73888">
        <ele>1517</ele>
        <time>2026-08-14T09:59:40.540Z</time>
      </trkpt>
      <trkpt lat="45.81252" lon="6.73888">
        <ele>1517</ele>
        <time>2026-08-14T09:59:41.540Z</time>
      </trkpt>
      <trkpt lat="45.81253" lon="6.73889">
        <ele>1517</ele>
        <time>2026-08-14T09:59:42.540Z</time>
      </trkpt>
      <trkpt lat="45.81255" lon="6.7389">
        <ele>1516</ele>
        <time>2026-08-14T09:59:43.540Z</time>
      </trkpt>
      <trkpt lat="45.81256" lon="6.73891">
        <ele>1516</ele>
        <time>2026-08-14T09:59:44.540Z</time>
      </trkpt>
      <trkpt lat="45.81257" lon="6.73892">
        <ele>1516</ele>
        <time>2026-08-14T09:59:45.540Z</time>
      </trkpt>
      <trkpt lat="45.81258" lon="6.73891">
        <ele>1516</ele>
        <time>2026-08-14T09:59:46.540Z</time>
      </trkpt>
      <trkpt lat="45.81259" lon="6.7389">
        <ele>1516</ele>
        <time>2026-08-14T09:59:47.540Z</time>
      </trkpt>
      <trkpt lat="45.81261" lon="6.73889">
        <ele>1516</ele>
        <time>2026-08-14T09:59:48.540Z</time>
      </trkpt>
      <trkpt lat="45.81263" lon="6.73888">
        <ele>1516</ele>
        <time>2026-08-14T09:59:49.540Z</time>
      </trkpt>
      <trkpt lat="45.81265" lon="6.73886">
        <ele>1516</ele>
        <time>2026-08-14T09:59:50.540Z</time>
      </trkpt>
      <trkpt lat="45.81267" lon="6.73886">
        <ele>1516</ele>
        <time>2026-08-14T09:59:51.540Z</time>
      </trkpt>
      <trkpt lat="45.81269" lon="6.73886">
        <ele>1516</ele>
        <time>2026-08-14T09:59:52.540Z</time>
      </trkpt>
      <trkpt lat="45.81271" lon="6.73886">
        <ele>1515</ele>
        <time>2026-08-14T09:59:53.540Z</time>
      </trkpt>
      <trkpt lat="45.81273" lon="6.73886">
        <ele>1515</ele>
        <time>2026-08-14T09:59:54.540Z</time>
      </trkpt>
      <trkpt lat="45.81275" lon="6.73886">
        <ele>1515</ele>
        <time>2026-08-14T09:59:55.540Z</time>
      </trkpt>
      <trkpt lat="45.81277" lon="6.73886">
        <ele>1515</ele>
        <time>2026-08-14T09:59:56.540Z</time>
      </trkpt>
      <trkpt lat="45.81279" lon="6.73886">
        <ele>1514</ele>
        <time>2026-08-14T09:59:57.540Z</time>
      </trkpt>
      <trkpt lat="45.81281" lon="6.73886">
        <ele>1514</ele>
        <time>2026-08-14T09:59:58.540Z</time>
      </trkpt>
      <trkpt lat="45.81283" lon="6.73886">
        <ele>1514</ele>
        <time>2026-08-14T09:59:59.540Z</time>
      </trkpt>
      <trkpt lat="45.81285" lon="6.73886">
        <ele>1514</ele>
        <time>2026-08-14T10:00:00.540Z</time>
      </trkpt>
      <trkpt lat="45.81287" lon="6.73887">
        <ele>1513</ele>
        <time>2026-08-14T10:00:01.540Z</time>
      </trkpt>
      <trkpt lat="45.81289" lon="6.73887">
        <ele>1514</ele>
        <time>2026-08-14T10:00:02.540Z</time>
      </trkpt>
      <trkpt lat="45.81291" lon="6.73887">
        <ele>1514</ele>
        <time>2026-08-14T10:00:03.540Z</time>
      </trkpt>
      <trkpt lat="45.81293" lon="6.73887">
        <ele>1514</ele>
        <time>2026-08-14T10:00:04.540Z</time>
      </trkpt>
      <trkpt lat="45.81294" lon="6.73887">
        <ele>1514</ele>
        <time>2026-08-14T10:00:05.540Z</time>
      </trkpt>
      <trkpt lat="45.81296" lon="6.73887">
        <ele>1513</ele>
        <time>2026-08-14T10:00:06.540Z</time>
      </trkpt>
      <trkpt lat="45.81297" lon="6.73887">
        <ele>1513</ele>
        <time>2026-08-14T10:00:07.540Z</time>
      </trkpt>
      <trkpt lat="45.81298" lon="6.73887">
        <ele>1514</ele>
        <time>2026-08-14T10:00:08.540Z</time>
      </trkpt>
      <trkpt lat="45.813" lon="6.73887">
        <ele>1514</ele>
        <time>2026-08-14T10:00:09.540Z</time>
      </trkpt>
      <trkpt lat="45.81301" lon="6.73887">
        <ele>1514</ele>
        <time>2026-08-14T10:00:10.540Z</time>
      </trkpt>
      <trkpt lat="45.81303" lon="6.73887">
        <ele>1514</ele>
        <time>2026-08-14T10:00:11.540Z</time>
      </trkpt>
      <trkpt lat="45.81305" lon="6.73886">
        <ele>1514</ele>
        <time>2026-08-14T10:00:12.540Z</time>
      </trkpt>
      <trkpt lat="45.81307" lon="6.73887">
        <ele>1514</ele>
        <time>2026-08-14T10:00:13.540Z</time>
      </trkpt>
      <trkpt lat="45.81308" lon="6.73888">
        <ele>1514</ele>
        <time>2026-08-14T10:00:14.540Z</time>
      </trkpt>
      <trkpt lat="45.8131" lon="6.7389">
        <ele>1513</ele>
        <time>2026-08-14T10:00:15.540Z</time>
      </trkpt>
      <trkpt lat="45.81312" lon="6.73892">
        <ele>1513</ele>
        <time>2026-08-14T10:00:16.540Z</time>
      </trkpt>
      <trkpt lat="45.81314" lon="6.73895">
        <ele>1513</ele>
        <time>2026-08-14T10:00:17.540Z</time>
      </trkpt>
      <trkpt lat="45.81315" lon="6.73898">
        <ele>1513</ele>
        <time>2026-08-14T10:00:18.540Z</time>
      </trkpt>
      <trkpt lat="45.81317" lon="6.739">
        <ele>1513</ele>
        <time>2026-08-14T10:00:19.540Z</time>
      </trkpt>
      <trkpt lat="45.81318" lon="6.73903">
        <ele>1512</ele>
        <time>2026-08-14T10:00:20.540Z</time>
      </trkpt>
      <trkpt lat="45.8132" lon="6.73906">
        <ele>1512</ele>
        <time>2026-08-14T10:00:21.540Z</time>
      </trkpt>
      <trkpt lat="45.81321" lon="6.73908">
        <ele>1511</ele>
        <time>2026-08-14T10:00:22.540Z</time>
      </trkpt>
      <trkpt lat="45.81322" lon="6.73911">
        <ele>1511</ele>
        <time>2026-08-14T10:00:23.540Z</time>
      </trkpt>
      <trkpt lat="45.81323" lon="6.73913">
        <ele>1510</ele>
        <time>2026-08-14T10:00:24.540Z</time>
      </trkpt>
      <trkpt lat="45.81325" lon="6.73915">
        <ele>1510</ele>
        <time>2026-08-14T10:00:25.540Z</time>
      </trkpt>
      <trkpt lat="45.81326" lon="6.73918">
        <ele>1509</ele>
        <time>2026-08-14T10:00:26.540Z</time>
      </trkpt>
      <trkpt lat="45.81327" lon="6.73921">
        <ele>1509</ele>
        <time>2026-08-14T10:00:27.540Z</time>
      </trkpt>
      <trkpt lat="45.81328" lon="6.73924">
        <ele>1508</ele>
        <time>2026-08-14T10:00:28.540Z</time>
      </trkpt>
      <trkpt lat="45.8133" lon="6.73927">
        <ele>1507</ele>
        <time>2026-08-14T10:00:29.540Z</time>
      </trkpt>
      <trkpt lat="45.81331" lon="6.7393">
        <ele>1506</ele>
        <time>2026-08-14T10:00:30.540Z</time>
      </trkpt>
      <trkpt lat="45.81332" lon="6.73933">
        <ele>1505</ele>
        <time>2026-08-14T10:00:31.540Z</time>
      </trkpt>
      <trkpt lat="45.81333" lon="6.73935">
        <ele>1504</ele>
        <time>2026-08-14T10:00:32.540Z</time>
      </trkpt>
      <trkpt lat="45.81334" lon="6.73937">
        <ele>1503</ele>
        <time>2026-08-14T10:00:33.540Z</time>
      </trkpt>
      <trkpt lat="45.81334" lon="6.7394">
        <ele>1503</ele>
        <time>2026-08-14T10:00:34.540Z</time>
      </trkpt>
      <trkpt lat="45.81334" lon="6.73942">
        <ele>1502</ele>
        <time>2026-08-14T10:00:35.540Z</time>
      </trkpt>
      <trkpt lat="45.81334" lon="6.73945">
        <ele>1502</ele>
        <time>2026-08-14T10:00:36.540Z</time>
      </trkpt>
      <trkpt lat="45.81334" lon="6.73947">
        <ele>1501</ele>
        <time>2026-08-14T10:00:37.540Z</time>
      </trkpt>
      <trkpt lat="45.81335" lon="6.73948">
        <ele>1501</ele>
        <time>2026-08-14T10:00:38.540Z</time>
      </trkpt>
      <trkpt lat="45.81335" lon="6.73948">
        <ele>1500</ele>
        <time>2026-08-14T10:00:39.540Z</time>
      </trkpt>
      <trkpt lat="45.81335" lon="6.73948">
        <ele>1500</ele>
        <time>2026-08-14T10:00:40.540Z</time>
      </trkpt>
      <trkpt lat="45.81335" lon="6.73948">
        <ele>1499</ele>
        <time>2026-08-14T10:00:41.540Z</time>
      </trkpt>
      <trkpt lat="45.81334" lon="6.73949">
        <ele>1499</ele>
        <time>2026-08-14T10:00:42.540Z</time>
      </trkpt>
      <trkpt lat="45.81334" lon="6.73949">
        <ele>1498</ele>
        <time>2026-08-14T10:00:43.540Z</time>
      </trkpt>
      <trkpt lat="45.81334" lon="6.73948">
        <ele>1498</ele>
        <time>2026-08-14T10:00:44.540Z</time>
      </trkpt>
      <trkpt lat="45.81334" lon="6.73949">
        <ele>1497</ele>
        <time>2026-08-14T10:00:45.540Z</time>
      </trkpt>
      <trkpt lat="45.81334" lon="6.73949">
        <ele>1497</ele>
        <time>2026-08-14T10:00:46.540Z</time>
      </trkpt>
      <trkpt lat="45.81334" lon="6.73949">
        <ele>1497</ele>
        <time>2026-08-14T10:00:47.540Z</time>
      </trkpt>
      <trkpt lat="45.81334" lon="6.73949">
        <ele>1497</ele>
        <time>2026-08-14T10:00:48.540Z</time>
      </trkpt>
      <trkpt lat="45.81334" lon="6.73949">
        <ele>1497</ele>
        <time>2026-08-14T10:00:49.540Z</time>
      </trkpt>
      <trkpt lat="45.81335" lon="6.73951">
        <ele>1497</ele>
        <time>2026-08-14T10:00:50.540Z</time>
      </trkpt>
      <trkpt lat="45.81335" lon="6.73952">
        <ele>1497</ele>
        <time>2026-08-14T10:00:51.540Z</time>
      </trkpt>
      <trkpt lat="45.81336" lon="6.73954">
        <ele>1497</ele>
        <time>2026-08-14T10:00:52.540Z</time>
      </trkpt>
      <trkpt lat="45.81336" lon="6.73956">
        <ele>1497</ele>
        <time>2026-08-14T10:00:53.540Z</time>
      </trkpt>
      <trkpt lat="45.81337" lon="6.73958">
        <ele>1497</ele>
        <time>2026-08-14T10:00:54.540Z</time>
      </trkpt>
      <trkpt lat="45.81337" lon="6.7396">
        <ele>1497</ele>
        <time>2026-08-14T10:00:55.540Z</time>
      </trkpt>
      <trkpt lat="45.81338" lon="6.73963">
        <ele>1497</ele>
        <time>2026-08-14T10:00:56.540Z</time>
      </trkpt>
      <trkpt lat="45.81338" lon="6.73966">
        <ele>1498</ele>
        <time>2026-08-14T10:00:57.540Z</time>
      </trkpt>
      <trkpt lat="45.81338" lon="6.73969">
        <ele>1498</ele>
        <time>2026-08-14T10:00:58.540Z</time>
      </trkpt>
      <trkpt lat="45.81338" lon="6.73971">
        <ele>1498</ele>
        <time>2026-08-14T10:00:59.540Z</time>
      </trkpt>
      <trkpt lat="45.81338" lon="6.73974">
        <ele>1498</ele>
        <time>2026-08-14T10:01:00.540Z</time>
      </trkpt>
      <trkpt lat="45.81338" lon="6.73977">
        <ele>1498</ele>
        <time>2026-08-14T10:01:01.540Z</time>
      </trkpt>
      <trkpt lat="45.81338" lon="6.7398">
        <ele>1498</ele>
        <time>2026-08-14T10:01:02.540Z</time>
      </trkpt>
      <trkpt lat="45.81338" lon="6.73982">
        <ele>1498</ele>
        <time>2026-08-14T10:01:03.540Z</time>
      </trkpt>
      <trkpt lat="45.81338" lon="6.73984">
        <ele>1499</ele>
        <time>2026-08-14T10:01:04.540Z</time>
      </trkpt>
      <trkpt lat="45.81338" lon="6.73986">
        <ele>1499</ele>
        <time>2026-08-14T10:01:05.540Z</time>
      </trkpt>
      <trkpt lat="45.81337" lon="6.73988">
        <ele>1499</ele>
        <time>2026-08-14T10:01:06.540Z</time>
      </trkpt>
      <trkpt lat="45.81336" lon="6.7399">
        <ele>1499</ele>
        <time>2026-08-14T10:01:07.540Z</time>
      </trkpt>
      <trkpt lat="45.81336" lon="6.73992">
        <ele>1499</ele>
        <time>2026-08-14T10:01:08.540Z</time>
      </trkpt>
      <trkpt lat="45.81337" lon="6.73995">
        <ele>1499</ele>
        <time>2026-08-14T10:01:09.540Z</time>
      </trkpt>
      <trkpt lat="45.81337" lon="6.73998">
        <ele>1499</ele>
        <time>2026-08-14T10:01:10.540Z</time>
      </trkpt>
      <trkpt lat="45.81338" lon="6.74">
        <ele>1499</ele>
        <time>2026-08-14T10:01:11.540Z</time>
      </trkpt>
      <trkpt lat="45.81338" lon="6.74003">
        <ele>1499</ele>
        <time>2026-08-14T10:01:12.540Z</time>
      </trkpt>
      <trkpt lat="45.81337" lon="6.74005">
        <ele>1499</ele>
        <time>2026-08-14T10:01:13.540Z</time>
      </trkpt>
      <trkpt lat="45.81337" lon="6.74008">
        <ele>1500</ele>
        <time>2026-08-14T10:01:14.540Z</time>
      </trkpt>
      <trkpt lat="45.81336" lon="6.7401">
        <ele>1500</ele>
        <time>2026-08-14T10:01:15.540Z</time>
      </trkpt>
      <trkpt lat="45.81336" lon="6.74013">
        <ele>1500</ele>
        <time>2026-08-14T10:01:16.540Z</time>
      </trkpt>
      <trkpt lat="45.81336" lon="6.74015">
        <ele>1500</ele>
        <time>2026-08-14T10:01:17.540Z</time>
      </trkpt>
      <trkpt lat="45.81336" lon="6.74018">
        <ele>1500</ele>
        <time>2026-08-14T10:01:18.540Z</time>
      </trkpt>
      <trkpt lat="45.81336" lon="6.74021">
        <ele>1500</ele>
        <time>2026-08-14T10:01:19.540Z</time>
      </trkpt>
      <trkpt lat="45.81336" lon="6.74024">
        <ele>1500</ele>
        <time>2026-08-14T10:01:20.540Z</time>
      </trkpt>
      <trkpt lat="45.81336" lon="6.74027">
        <ele>1501</ele>
        <time>2026-08-14T10:01:21.540Z</time>
      </trkpt>
      <trkpt lat="45.81337" lon="6.7403">
        <ele>1501</ele>
        <time>2026-08-14T10:01:22.540Z</time>
      </trkpt>
      <trkpt lat="45.81337" lon="6.74032">
        <ele>1501</ele>
        <time>2026-08-14T10:01:23.540Z</time>
      </trkpt>
      <trkpt lat="45.81337" lon="6.74035">
        <ele>1502</ele>
        <time>2026-08-14T10:01:24.540Z</time>
      </trkpt>
      <trkpt lat="45.81337" lon="6.74038">
        <ele>1503</ele>
        <time>2026-08-14T10:01:25.540Z</time>
      </trkpt>
      <trkpt lat="45.81337" lon="6.7404">
        <ele>1503</ele>
        <time>2026-08-14T10:01:26.540Z</time>
      </trkpt>
      <trkpt lat="45.81336" lon="6.74043">
        <ele>1504</ele>
        <time>2026-08-14T10:01:27.540Z</time>
      </trkpt>
      <trkpt lat="45.81336" lon="6.74046">
        <ele>1504</ele>
        <time>2026-08-14T10:01:28.540Z</time>
      </trkpt>
      <trkpt lat="45.81336" lon="6.74048">
        <ele>1505</ele>
        <time>2026-08-14T10:01:29.540Z</time>
      </trkpt>
      <trkpt lat="45.81335" lon="6.74051">
        <ele>1505</ele>
        <time>2026-08-14T10:01:30.540Z</time>
      </trkpt>
      <trkpt lat="45.81334" lon="6.74053">
        <ele>1505</ele>
        <time>2026-08-14T10:01:31.540Z</time>
      </trkpt>
      <trkpt lat="45.81334" lon="6.74055">
        <ele>1506</ele>
        <time>2026-08-14T10:01:32.540Z</time>
      </trkpt>
      <trkpt lat="45.81333" lon="6.74057">
        <ele>1506</ele>
        <time>2026-08-14T10:01:33.540Z</time>
      </trkpt>
      <trkpt lat="45.81333" lon="6.74058">
        <ele>1507</ele>
        <time>2026-08-14T10:01:34.540Z</time>
      </trkpt>
      <trkpt lat="45.81333" lon="6.7406">
        <ele>1507</ele>
        <time>2026-08-14T10:01:35.540Z</time>
      </trkpt>
      <trkpt lat="45.81332" lon="6.74062">
        <ele>1508</ele>
        <time>2026-08-14T10:01:36.540Z</time>
      </trkpt>
      <trkpt lat="45.81332" lon="6.74064">
        <ele>1508</ele>
        <time>2026-08-14T10:01:37.540Z</time>
      </trkpt>
      <trkpt lat="45.81333" lon="6.74065">
        <ele>1508</ele>
        <time>2026-08-14T10:01:38.540Z</time>
      </trkpt>
      <trkpt lat="45.81333" lon="6.74067">
        <ele>1508</ele>
        <time>2026-08-14T10:01:39.540Z</time>
      </trkpt>
      <trkpt lat="45.81333" lon="6.74069">
        <ele>1508</ele>
        <time>2026-08-14T10:01:40.540Z</time>
      </trkpt>
      <trkpt lat="45.81332" lon="6.74071">
        <ele>1508</ele>
        <time>2026-08-14T10:01:41.540Z</time>
      </trkpt>
      <trkpt lat="45.81331" lon="6.74073">
        <ele>1508</ele>
        <time>2026-08-14T10:01:42.540Z</time>
      </trkpt>
      <trkpt lat="45.81331" lon="6.74075">
        <ele>1508</ele>
        <time>2026-08-14T10:01:43.540Z</time>
      </trkpt>
      <trkpt lat="45.8133" lon="6.74075">
        <ele>1508</ele>
        <time>2026-08-14T10:01:44.540Z</time>
      </trkpt>
      <trkpt lat="45.8133" lon="6.74075">
        <ele>1508</ele>
        <time>2026-08-14T10:01:45.540Z</time>
      </trkpt>
      <trkpt lat="45.8133" lon="6.74076">
        <ele>1508</ele>
        <time>2026-08-14T10:01:46.540Z</time>
      </trkpt>
      <trkpt lat="45.81328" lon="6.74078">
        <ele>1508</ele>
        <time>2026-08-14T10:01:47.540Z</time>
      </trkpt>
      <trkpt lat="45.81328" lon="6.74079">
        <ele>1509</ele>
        <time>2026-08-14T10:01:48.540Z</time>
      </trkpt>
      <trkpt lat="45.81329" lon="6.74081">
        <ele>1509</ele>
        <time>2026-08-14T10:01:49.540Z</time>
      </trkpt>
      <trkpt lat="45.8133" lon="6.74082">
        <ele>1509</ele>
        <time>2026-08-14T10:01:50.540Z</time>
      </trkpt>
      <trkpt lat="45.8133" lon="6.74083">
        <ele>1510</ele>
        <time>2026-08-14T10:01:51.540Z</time>
      </trkpt>
      <trkpt lat="45.8133" lon="6.74085">
        <ele>1511</ele>
        <time>2026-08-14T10:01:52.540Z</time>
      </trkpt>
      <trkpt lat="45.8133" lon="6.74086">
        <ele>1512</ele>
        <time>2026-08-14T10:01:53.540Z</time>
      </trkpt>
      <trkpt lat="45.81329" lon="6.74089">
        <ele>1513</ele>
        <time>2026-08-14T10:01:54.540Z</time>
      </trkpt>
      <trkpt lat="45.81329" lon="6.74091">
        <ele>1513</ele>
        <time>2026-08-14T10:01:55.540Z</time>
      </trkpt>
      <trkpt lat="45.81328" lon="6.74093">
        <ele>1514</ele>
        <time>2026-08-14T10:01:56.540Z</time>
      </trkpt>
      <trkpt lat="45.81328" lon="6.74094">
        <ele>1515</ele>
        <time>2026-08-14T10:01:57.540Z</time>
      </trkpt>
      <trkpt lat="45.81328" lon="6.74095">
        <ele>1515</ele>
        <time>2026-08-14T10:01:58.540Z</time>
      </trkpt>
      <trkpt lat="45.81328" lon="6.74095">
        <ele>1515</ele>
        <time>2026-08-14T10:01:59.540Z</time>
      </trkpt>
      <trkpt lat="45.81328" lon="6.74096">
        <ele>1515</ele>
        <time>2026-08-14T10:02:00.540Z</time>
      </trkpt>
      <trkpt lat="45.81328" lon="6.74098">
        <ele>1516</ele>
        <time>2026-08-14T10:02:01.540Z</time>
      </trkpt>
      <trkpt lat="45.81328" lon="6.74099">
        <ele>1516</ele>
        <time>2026-08-14T10:02:02.540Z</time>
      </trkpt>
      <trkpt lat="45.81328" lon="6.741">
        <ele>1517</ele>
        <time>2026-08-14T10:02:03.540Z</time>
      </trkpt>
      <trkpt lat="45.81328" lon="6.74101">
        <ele>1517</ele>
        <time>2026-08-14T10:02:04.540Z</time>
      </trkpt>
      <trkpt lat="45.81328" lon="6.74102">
        <ele>1518</ele>
        <time>2026-08-14T10:02:05.540Z</time>
      </trkpt>
      <trkpt lat="45.81328" lon="6.74104">
        <ele>1519</ele>
        <time>2026-08-14T10:02:06.540Z</time>
      </trkpt>
      <trkpt lat="45.81327" lon="6.74105">
        <ele>1520</ele>
        <time>2026-08-14T10:02:07.540Z</time>
      </trkpt>
      <trkpt lat="45.81327" lon="6.74106">
        <ele>1521</ele>
        <time>2026-08-14T10:02:08.540Z</time>
      </trkpt>
      <trkpt lat="45.81327" lon="6.74108">
        <ele>1521</ele>
        <time>2026-08-14T10:02:09.540Z</time>
      </trkpt>
      <trkpt lat="45.81327" lon="6.74109">
        <ele>1522</ele>
        <time>2026-08-14T10:02:10.540Z</time>
      </trkpt>
      <trkpt lat="45.81327" lon="6.74111">
        <ele>1522</ele>
        <time>2026-08-14T10:02:11.540Z</time>
      </trkpt>
      <trkpt lat="45.81327" lon="6.74112">
        <ele>1523</ele>
        <time>2026-08-14T10:02:12.540Z</time>
      </trkpt>
      <trkpt lat="45.81326" lon="6.74114">
        <ele>1524</ele>
        <time>2026-08-14T10:02:13.540Z</time>
      </trkpt>
      <trkpt lat="45.81326" lon="6.74115">
        <ele>1524</ele>
        <time>2026-08-14T10:02:14.540Z</time>
      </trkpt>
      <trkpt lat="45.81325" lon="6.74116">
        <ele>1525</ele>
        <time>2026-08-14T10:02:15.540Z</time>
      </trkpt>
      <trkpt lat="45.81325" lon="6.74117">
        <ele>1526</ele>
        <time>2026-08-14T10:02:16.540Z</time>
      </trkpt>
      <trkpt lat="45.81324" lon="6.74118">
        <ele>1526</ele>
        <time>2026-08-14T10:02:17.540Z</time>
      </trkpt>
      <trkpt lat="45.81324" lon="6.74119">
        <ele>1526</ele>
        <time>2026-08-14T10:02:18.540Z</time>
      </trkpt>
      <trkpt lat="45.81323" lon="6.7412">
        <ele>1526</ele>
        <time>2026-08-14T10:02:19.540Z</time>
      </trkpt>
      <trkpt lat="45.81324" lon="6.74121">
        <ele>1526</ele>
        <time>2026-08-14T10:02:20.540Z</time>
      </trkpt>
      <trkpt lat="45.81324" lon="6.74122">
        <ele>1526</ele>
        <time>2026-08-14T10:02:21.540Z</time>
      </trkpt>
      <trkpt lat="45.81323" lon="6.74123">
        <ele>1527</ele>
        <time>2026-08-14T10:02:22.540Z</time>
      </trkpt>
      <trkpt lat="45.81323" lon="6.74124">
        <ele>1527</ele>
        <time>2026-08-14T10:02:23.540Z</time>
      </trkpt>
      <trkpt lat="45.81323" lon="6.74126">
        <ele>1527</ele>
        <time>2026-08-14T10:02:24.540Z</time>
      </trkpt>
      <trkpt lat="45.81323" lon="6.74127">
        <ele>1527</ele>
        <time>2026-08-14T10:02:25.540Z</time>
      </trkpt>
      <trkpt lat="45.81323" lon="6.74129">
        <ele>1527</ele>
        <time>2026-08-14T10:02:26.540Z</time>
      </trkpt>
      <trkpt lat="45.81323" lon="6.7413">
        <ele>1527</ele>
        <time>2026-08-14T10:02:27.540Z</time>
      </trkpt>
      <trkpt lat="45.81322" lon="6.74131">
        <ele>1527</ele>
        <time>2026-08-14T10:02:28.540Z</time>
      </trkpt>
      <trkpt lat="45.81322" lon="6.74131">
        <ele>1527</ele>
        <time>2026-08-14T10:02:29.540Z</time>
      </trkpt>
      <trkpt lat="45.81322" lon="6.74131">
        <ele>1526</ele>
        <time>2026-08-14T10:02:30.540Z</time>
      </trkpt>
      <trkpt lat="45.81322" lon="6.74131">
        <ele>1526</ele>
        <time>2026-08-14T10:02:31.540Z</time>
      </trkpt>
      <trkpt lat="45.81322" lon="6.74132">
        <ele>1526</ele>
        <time>2026-08-14T10:02:32.540Z</time>
      </trkpt>
      <trkpt lat="45.81321" lon="6.74132">
        <ele>1526</ele>
        <time>2026-08-14T10:02:33.540Z</time>
      </trkpt>
      <trkpt lat="45.81321" lon="6.74132">
        <ele>1525</ele>
        <time>2026-08-14T10:02:34.540Z</time>
      </trkpt>
      <trkpt lat="45.81321" lon="6.74133">
        <ele>1525</ele>
        <time>2026-08-14T10:02:35.540Z</time>
      </trkpt>
      <trkpt lat="45.81321" lon="6.74133">
        <ele>1525</ele>
        <time>2026-08-14T10:02:36.540Z</time>
      </trkpt>
      <trkpt lat="45.81321" lon="6.74133">
        <ele>1524</ele>
        <time>2026-08-14T10:02:37.540Z</time>
      </trkpt>
      <trkpt lat="45.8132" lon="6.74133">
        <ele>1524</ele>
        <time>2026-08-14T10:02:38.540Z</time>
      </trkpt>
      <trkpt lat="45.8132" lon="6.74134">
        <ele>1524</ele>
        <time>2026-08-14T10:02:39.540Z</time>
      </trkpt>
      <trkpt lat="45.8132" lon="6.74133">
        <ele>1525</ele>
        <time>2026-08-14T10:02:40.540Z</time>
      </trkpt>
      <trkpt lat="45.8132" lon="6.74133">
        <ele>1525</ele>
        <time>2026-08-14T10:02:41.540Z</time>
      </trkpt>
      <trkpt lat="45.8132" lon="6.74133">
        <ele>1525</ele>
        <time>2026-08-14T10:02:42.540Z</time>
      </trkpt>
      <trkpt lat="45.8132" lon="6.74133">
        <ele>1525</ele>
        <time>2026-08-14T10:02:43.540Z</time>
      </trkpt>
      <trkpt lat="45.81319" lon="6.74134">
        <ele>1525</ele>
        <time>2026-08-14T10:02:44.540Z</time>
      </trkpt>
      <trkpt lat="45.81318" lon="6.74135">
        <ele>1526</ele>
        <time>2026-08-14T10:02:45.540Z</time>
      </trkpt>
      <trkpt lat="45.81317" lon="6.74135">
        <ele>1526</ele>
        <time>2026-08-14T10:02:46.540Z</time>
      </trkpt>
      <trkpt lat="45.81317" lon="6.74135">
        <ele>1526</ele>
        <time>2026-08-14T10:02:47.540Z</time>
      </trkpt>
      <trkpt lat="45.81317" lon="6.74136">
        <ele>1527</ele>
        <time>2026-08-14T10:02:48.540Z</time>
      </trkpt>
      <trkpt lat="45.81316" lon="6.74136">
        <ele>1527</ele>
        <time>2026-08-14T10:02:49.540Z</time>
      </trkpt>
      <trkpt lat="45.81316" lon="6.74136">
        <ele>1528</ele>
        <time>2026-08-14T10:02:50.540Z</time>
      </trkpt>
      <trkpt lat="45.81316" lon="6.74137">
        <ele>1528</ele>
        <time>2026-08-14T10:02:51.540Z</time>
      </trkpt>
      <trkpt lat="45.81317" lon="6.74137">
        <ele>1528</ele>
        <time>2026-08-14T10:02:52.540Z</time>
      </trkpt>
      <trkpt lat="45.81317" lon="6.74138">
        <ele>1528</ele>
        <time>2026-08-14T10:02:53.540Z</time>
      </trkpt>
      <trkpt lat="45.81317" lon="6.74139">
        <ele>1529</ele>
        <time>2026-08-14T10:02:54.540Z</time>
      </trkpt>
      <trkpt lat="45.81317" lon="6.7414">
        <ele>1529</ele>
        <time>2026-08-14T10:02:55.540Z</time>
      </trkpt>
      <trkpt lat="45.81317" lon="6.74141">
        <ele>1529</ele>
        <time>2026-08-14T10:02:56.540Z</time>
      </trkpt>
      <trkpt lat="45.81317" lon="6.74142">
        <ele>1530</ele>
        <time>2026-08-14T10:02:57.540Z</time>
      </trkpt>
      <trkpt lat="45.81317" lon="6.74143">
        <ele>1530</ele>
        <time>2026-08-14T10:02:58.540Z</time>
      </trkpt>
      <trkpt lat="45.81316" lon="6.74145">
        <ele>1531</ele>
        <time>2026-08-14T10:02:59.540Z</time>
      </trkpt>
      <trkpt lat="45.81316" lon="6.74147">
        <ele>1531</ele>
        <time>2026-08-14T10:03:00.540Z</time>
      </trkpt>
      <trkpt lat="45.81316" lon="6.74149">
        <ele>1531</ele>
        <time>2026-08-14T10:03:01.540Z</time>
      </trkpt>
      <trkpt lat="45.81317" lon="6.74151">
        <ele>1531</ele>
        <time>2026-08-14T10:03:02.540Z</time>
      </trkpt>
      <trkpt lat="45.81317" lon="6.74153">
        <ele>1532</ele>
        <time>2026-08-14T10:03:03.540Z</time>
      </trkpt>
      <trkpt lat="45.81316" lon="6.74155">
        <ele>1532</ele>
        <time>2026-08-14T10:03:04.540Z</time>
      </trkpt>
      <trkpt lat="45.81316" lon="6.74156">
        <ele>1532</ele>
        <time>2026-08-14T10:03:05.540Z</time>
      </trkpt>
      <trkpt lat="45.81316" lon="6.74156">
        <ele>1532</ele>
        <time>2026-08-14T10:03:06.540Z</time>
      </trkpt>
      <trkpt lat="45.81316" lon="6.74156">
        <ele>1532</ele>
        <time>2026-08-14T10:03:07.540Z</time>
      </trkpt>
      <trkpt lat="45.81316" lon="6.74156">
        <ele>1533</ele>
        <time>2026-08-14T10:03:08.540Z</time>
      </trkpt>
      <trkpt lat="45.81316" lon="6.74156">
        <ele>1533</ele>
        <time>2026-08-14T10:03:09.540Z</time>
      </trkpt>
      <trkpt lat="45.81315" lon="6.74159">
        <ele>1533</ele>
        <time>2026-08-14T10:03:10.540Z</time>
      </trkpt>
      <trkpt lat="45.81315" lon="6.74161">
        <ele>1533</ele>
        <time>2026-08-14T10:03:11.540Z</time>
      </trkpt>
      <trkpt lat="45.81315" lon="6.74161">
        <ele>1533</ele>
        <time>2026-08-14T10:03:12.540Z</time>
      </trkpt>
      <trkpt lat="45.81314" lon="6.74163">
        <ele>1533</ele>
        <time>2026-08-14T10:03:13.540Z</time>
      </trkpt>
      <trkpt lat="45.81314" lon="6.74164">
        <ele>1534</ele>
        <time>2026-08-14T10:03:14.540Z</time>
      </trkpt>
      <trkpt lat="45.81313" lon="6.74166">
        <ele>1534</ele>
        <time>2026-08-14T10:03:15.540Z</time>
      </trkpt>
      <trkpt lat="45.81313" lon="6.74168">
        <ele>1535</ele>
        <time>2026-08-14T10:03:16.540Z</time>
      </trkpt>
      <trkpt lat="45.81312" lon="6.7417">
        <ele>1535</ele>
        <time>2026-08-14T10:03:17.540Z</time>
      </trkpt>
      <trkpt lat="45.81311" lon="6.74172">
        <ele>1536</ele>
        <time>2026-08-14T10:03:18.540Z</time>
      </trkpt>
      <trkpt lat="45.8131" lon="6.74174">
        <ele>1536</ele>
        <time>2026-08-14T10:03:19.540Z</time>
      </trkpt>
      <trkpt lat="45.8131" lon="6.74176">
        <ele>1537</ele>
        <time>2026-08-14T10:03:20.540Z</time>
      </trkpt>
      <trkpt lat="45.81309" lon="6.74178">
        <ele>1537</ele>
        <time>2026-08-14T10:03:21.540Z</time>
      </trkpt>
      <trkpt lat="45.81309" lon="6.7418">
        <ele>1538</ele>
        <time>2026-08-14T10:03:22.540Z</time>
      </trkpt>
      <trkpt lat="45.81309" lon="6.74183">
        <ele>1538</ele>
        <time>2026-08-14T10:03:23.540Z</time>
      </trkpt>
      <trkpt lat="45.81309" lon="6.74185">
        <ele>1539</ele>
        <time>2026-08-14T10:03:24.540Z</time>
      </trkpt>
      <trkpt lat="45.8131" lon="6.74188">
        <ele>1539</ele>
        <time>2026-08-14T10:03:25.540Z</time>
      </trkpt>
      <trkpt lat="45.81309" lon="6.74191">
        <ele>1540</ele>
        <time>2026-08-14T10:03:26.540Z</time>
      </trkpt>
      <trkpt lat="45.81309" lon="6.74193">
        <ele>1541</ele>
        <time>2026-08-14T10:03:27.540Z</time>
      </trkpt>
      <trkpt lat="45.81309" lon="6.74195">
        <ele>1541</ele>
        <time>2026-08-14T10:03:28.540Z</time>
      </trkpt>
      <trkpt lat="45.81309" lon="6.74197">
        <ele>1542</ele>
        <time>2026-08-14T10:03:29.540Z</time>
      </trkpt>
      <trkpt lat="45.81309" lon="6.74199">
        <ele>1542</ele>
        <time>2026-08-14T10:03:30.540Z</time>
      </trkpt>
      <trkpt lat="45.81309" lon="6.74201">
        <ele>1542</ele>
        <time>2026-08-14T10:03:31.540Z</time>
      </trkpt>
      <trkpt lat="45.81309" lon="6.74202">
        <ele>1543</ele>
        <time>2026-08-14T10:03:32.540Z</time>
      </trkpt>
      <trkpt lat="45.81309" lon="6.74204">
        <ele>1543</ele>
        <time>2026-08-14T10:03:33.540Z</time>
      </trkpt>
      <trkpt lat="45.8131" lon="6.74206">
        <ele>1544</ele>
        <time>2026-08-14T10:03:34.540Z</time>
      </trkpt>
      <trkpt lat="45.81311" lon="6.74207">
        <ele>1545</ele>
        <time>2026-08-14T10:03:35.540Z</time>
      </trkpt>
      <trkpt lat="45.81311" lon="6.74209">
        <ele>1545</ele>
        <time>2026-08-14T10:03:36.540Z</time>
      </trkpt>
      <trkpt lat="45.81311" lon="6.7421">
        <ele>1546</ele>
        <time>2026-08-14T10:03:37.540Z</time>
      </trkpt>
      <trkpt lat="45.81311" lon="6.74212">
        <ele>1546</ele>
        <time>2026-08-14T10:03:38.540Z</time>
      </trkpt>
      <trkpt lat="45.8131" lon="6.74214">
        <ele>1546</ele>
        <time>2026-08-14T10:03:39.540Z</time>
      </trkpt>
      <trkpt lat="45.8131" lon="6.74216">
        <ele>1546</ele>
        <time>2026-08-14T10:03:40.540Z</time>
      </trkpt>
      <trkpt lat="45.81309" lon="6.74218">
        <ele>1545</ele>
        <time>2026-08-14T10:03:41.540Z</time>
      </trkpt>
      <trkpt lat="45.81309" lon="6.7422">
        <ele>1545</ele>
        <time>2026-08-14T10:03:42.540Z</time>
      </trkpt>
      <trkpt lat="45.81308" lon="6.74222">
        <ele>1544</ele>
        <time>2026-08-14T10:03:43.540Z</time>
      </trkpt>
      <trkpt lat="45.81307" lon="6.74225">
        <ele>1543</ele>
        <time>2026-08-14T10:03:44.540Z</time>
      </trkpt>
      <trkpt lat="45.81307" lon="6.74226">
        <ele>1543</ele>
        <time>2026-08-14T10:03:45.540Z</time>
      </trkpt>
      <trkpt lat="45.81306" lon="6.74228">
        <ele>1542</ele>
        <time>2026-08-14T10:03:46.540Z</time>
      </trkpt>
      <trkpt lat="45.81306" lon="6.7423">
        <ele>1541</ele>
        <time>2026-08-14T10:03:47.540Z</time>
      </trkpt>
      <trkpt lat="45.81306" lon="6.74231">
        <ele>1541</ele>
        <time>2026-08-14T10:03:48.540Z</time>
      </trkpt>
      <trkpt lat="45.81306" lon="6.74233">
        <ele>1540</ele>
        <time>2026-08-14T10:03:49.540Z</time>
      </trkpt>
      <trkpt lat="45.81306" lon="6.74234">
        <ele>1539</ele>
        <time>2026-08-14T10:03:50.540Z</time>
      </trkpt>
      <trkpt lat="45.81306" lon="6.74236">
        <ele>1539</ele>
        <time>2026-08-14T10:03:51.540Z</time>
      </trkpt>
      <trkpt lat="45.81307" lon="6.74237">
        <ele>1539</ele>
        <time>2026-08-14T10:03:52.540Z</time>
      </trkpt>
      <trkpt lat="45.81307" lon="6.74239">
        <ele>1538</ele>
        <time>2026-08-14T10:03:53.540Z</time>
      </trkpt>
      <trkpt lat="45.81308" lon="6.74241">
        <ele>1538</ele>
        <time>2026-08-14T10:03:54.540Z</time>
      </trkpt>
      <trkpt lat="45.81309" lon="6.74242">
        <ele>1537</ele>
        <time>2026-08-14T10:03:55.540Z</time>
      </trkpt>
      <trkpt lat="45.81311" lon="6.74244">
        <ele>1537</ele>
        <time>2026-08-14T10:03:56.540Z</time>
      </trkpt>
      <trkpt lat="45.81312" lon="6.74247">
        <ele>1537</ele>
        <time>2026-08-14T10:03:57.540Z</time>
      </trkpt>
      <trkpt lat="45.81313" lon="6.74249">
        <ele>1537</ele>
        <time>2026-08-14T10:03:58.540Z</time>
      </trkpt>
      <trkpt lat="45.81314" lon="6.74251">
        <ele>1536</ele>
        <time>2026-08-14T10:03:59.540Z</time>
      </trkpt>
      <trkpt lat="45.81314" lon="6.74254">
        <ele>1536</ele>
        <time>2026-08-14T10:04:00.540Z</time>
      </trkpt>
      <trkpt lat="45.81315" lon="6.74255">
        <ele>1536</ele>
        <time>2026-08-14T10:04:01.540Z</time>
      </trkpt>
      <trkpt lat="45.81315" lon="6.74257">
        <ele>1536</ele>
        <time>2026-08-14T10:04:02.540Z</time>
      </trkpt>
      <trkpt lat="45.81316" lon="6.74259">
        <ele>1535</ele>
        <time>2026-08-14T10:04:03.540Z</time>
      </trkpt>
      <trkpt lat="45.81318" lon="6.74262">
        <ele>1535</ele>
        <time>2026-08-14T10:04:04.540Z</time>
      </trkpt>
      <trkpt lat="45.81319" lon="6.74265">
        <ele>1535</ele>
        <time>2026-08-14T10:04:05.540Z</time>
      </trkpt>
      <trkpt lat="45.81319" lon="6.74268">
        <ele>1535</ele>
        <time>2026-08-14T10:04:06.540Z</time>
      </trkpt>
      <trkpt lat="45.8132" lon="6.74271">
        <ele>1534</ele>
        <time>2026-08-14T10:04:07.540Z</time>
      </trkpt>
      <trkpt lat="45.81321" lon="6.74274">
        <ele>1533</ele>
        <time>2026-08-14T10:04:08.540Z</time>
      </trkpt>
      <trkpt lat="45.81322" lon="6.74277">
        <ele>1533</ele>
        <time>2026-08-14T10:04:09.540Z</time>
      </trkpt>
      <trkpt lat="45.81323" lon="6.74279">
        <ele>1532</ele>
        <time>2026-08-14T10:04:10.540Z</time>
      </trkpt>
      <trkpt lat="45.81324" lon="6.74281">
        <ele>1532</ele>
        <time>2026-08-14T10:04:11.540Z</time>
      </trkpt>
      <trkpt lat="45.81325" lon="6.74282">
        <ele>1532</ele>
        <time>2026-08-14T10:04:12.540Z</time>
      </trkpt>
      <trkpt lat="45.81326" lon="6.74284">
        <ele>1532</ele>
        <time>2026-08-14T10:04:13.540Z</time>
      </trkpt>
      <trkpt lat="45.81327" lon="6.74285">
        <ele>1532</ele>
        <time>2026-08-14T10:04:14.540Z</time>
      </trkpt>
      <trkpt lat="45.81328" lon="6.74287">
        <ele>1532</ele>
        <time>2026-08-14T10:04:15.540Z</time>
      </trkpt>
      <trkpt lat="45.81329" lon="6.74288">
        <ele>1532</ele>
        <time>2026-08-14T10:04:16.540Z</time>
      </trkpt>
      <trkpt lat="45.8133" lon="6.74288">
        <ele>1532</ele>
        <time>2026-08-14T10:04:17.540Z</time>
      </trkpt>
      <trkpt lat="45.81332" lon="6.74288">
        <ele>1532</ele>
        <time>2026-08-14T10:04:18.540Z</time>
      </trkpt>
      <trkpt lat="45.81333" lon="6.7429">
        <ele>1532</ele>
        <time>2026-08-14T10:04:19.540Z</time>
      </trkpt>
      <trkpt lat="45.81334" lon="6.74291">
        <ele>1532</ele>
        <time>2026-08-14T10:04:20.540Z</time>
      </trkpt>
      <trkpt lat="45.81335" lon="6.74293">
        <ele>1532</ele>
        <time>2026-08-14T10:04:21.540Z</time>
      </trkpt>
      <trkpt lat="45.81336" lon="6.74295">
        <ele>1532</ele>
        <time>2026-08-14T10:04:22.540Z</time>
      </trkpt>
      <trkpt lat="45.81337" lon="6.74297">
        <ele>1532</ele>
        <time>2026-08-14T10:04:23.540Z</time>
      </trkpt>
      <trkpt lat="45.81338" lon="6.743">
        <ele>1532</ele>
        <time>2026-08-14T10:04:24.540Z</time>
      </trkpt>
      <trkpt lat="45.81338" lon="6.74303">
        <ele>1531</ele>
        <time>2026-08-14T10:04:25.540Z</time>
      </trkpt>
      <trkpt lat="45.81339" lon="6.74306">
        <ele>1531</ele>
        <time>2026-08-14T10:04:26.540Z</time>
      </trkpt>
      <trkpt lat="45.8134" lon="6.74308">
        <ele>1531</ele>
        <time>2026-08-14T10:04:27.540Z</time>
      </trkpt>
      <trkpt lat="45.81341" lon="6.7431">
        <ele>1530</ele>
        <time>2026-08-14T10:04:28.540Z</time>
      </trkpt>
      <trkpt lat="45.81342" lon="6.74312">
        <ele>1530</ele>
        <time>2026-08-14T10:04:29.540Z</time>
      </trkpt>
      <trkpt lat="45.81343" lon="6.74315">
        <ele>1530</ele>
        <time>2026-08-14T10:04:30.540Z</time>
      </trkpt>
      <trkpt lat="45.81344" lon="6.74317">
        <ele>1530</ele>
        <time>2026-08-14T10:04:31.540Z</time>
      </trkpt>
      <trkpt lat="45.81345" lon="6.7432">
        <ele>1530</ele>
        <time>2026-08-14T10:04:32.540Z</time>
      </trkpt>
      <trkpt lat="45.81345" lon="6.74322">
        <ele>1530</ele>
        <time>2026-08-14T10:04:33.540Z</time>
      </trkpt>
      <trkpt lat="45.81345" lon="6.74325">
        <ele>1530</ele>
        <time>2026-08-14T10:04:34.540Z</time>
      </trkpt>
      <trkpt lat="45.81345" lon="6.74327">
        <ele>1530</ele>
        <time>2026-08-14T10:04:35.540Z</time>
      </trkpt>
      <trkpt lat="45.81345" lon="6.74329">
        <ele>1531</ele>
        <time>2026-08-14T10:04:36.540Z</time>
      </trkpt>
      <trkpt lat="45.81346" lon="6.7433">
        <ele>1531</ele>
        <time>2026-08-14T10:04:37.540Z</time>
      </trkpt>
      <trkpt lat="45.81346" lon="6.74333">
        <ele>1532</ele>
        <time>2026-08-14T10:04:38.540Z</time>
      </trkpt>
      <trkpt lat="45.81346" lon="6.74335">
        <ele>1533</ele>
        <time>2026-08-14T10:04:39.540Z</time>
      </trkpt>
      <trkpt lat="45.81347" lon="6.74338">
        <ele>1534</ele>
        <time>2026-08-14T10:04:40.540Z</time>
      </trkpt>
      <trkpt lat="45.81347" lon="6.7434">
        <ele>1535</ele>
        <time>2026-08-14T10:04:41.540Z</time>
      </trkpt>
      <trkpt lat="45.81347" lon="6.74342">
        <ele>1535</ele>
        <time>2026-08-14T10:04:42.540Z</time>
      </trkpt>
      <trkpt lat="45.81348" lon="6.74342">
        <ele>1536</ele>
        <time>2026-08-14T10:04:43.540Z</time>
      </trkpt>
      <trkpt lat="45.81347" lon="6.74345">
        <ele>1537</ele>
        <time>2026-08-14T10:04:44.540Z</time>
      </trkpt>
      <trkpt lat="45.81347" lon="6.74346">
        <ele>1537</ele>
        <time>2026-08-14T10:04:45.540Z</time>
      </trkpt>
      <trkpt lat="45.81346" lon="6.74348">
        <ele>1538</ele>
        <time>2026-08-14T10:04:46.540Z</time>
      </trkpt>
      <trkpt lat="45.81346" lon="6.7435">
        <ele>1539</ele>
        <time>2026-08-14T10:04:47.540Z</time>
      </trkpt>
      <trkpt lat="45.81347" lon="6.74352">
        <ele>1540</ele>
        <time>2026-08-14T10:04:48.540Z</time>
      </trkpt>
      <trkpt lat="45.81347" lon="6.74354">
        <ele>1540</ele>
        <time>2026-08-14T10:04:49.540Z</time>
      </trkpt>
      <trkpt lat="45.81347" lon="6.74356">
        <ele>1541</ele>
        <time>2026-08-14T10:04:50.540Z</time>
      </trkpt>
      <trkpt lat="45.81348" lon="6.74357">
        <ele>1542</ele>
        <time>2026-08-14T10:04:51.540Z</time>
      </trkpt>
      <trkpt lat="45.81348" lon="6.74359">
        <ele>1543</ele>
        <time>2026-08-14T10:04:52.540Z</time>
      </trkpt>
      <trkpt lat="45.81349" lon="6.74361">
        <ele>1544</ele>
        <time>2026-08-14T10:04:53.540Z</time>
      </trkpt>
      <trkpt lat="45.81349" lon="6.74362">
        <ele>1545</ele>
        <time>2026-08-14T10:04:54.540Z</time>
      </trkpt>
      <trkpt lat="45.81349" lon="6.74363">
        <ele>1545</ele>
        <time>2026-08-14T10:04:55.540Z</time>
      </trkpt>
      <trkpt lat="45.81349" lon="6.74365">
        <ele>1546</ele>
        <time>2026-08-14T10:04:56.540Z</time>
      </trkpt>
      <trkpt lat="45.81349" lon="6.74366">
        <ele>1547</ele>
        <time>2026-08-14T10:04:57.540Z</time>
      </trkpt>
      <trkpt lat="45.81349" lon="6.74368">
        <ele>1548</ele>
        <time>2026-08-14T10:04:58.540Z</time>
      </trkpt>
      <trkpt lat="45.81349" lon="6.74369">
        <ele>1548</ele>
        <time>2026-08-14T10:04:59.540Z</time>
      </trkpt>
      <trkpt lat="45.81349" lon="6.7437">
        <ele>1549</ele>
        <time>2026-08-14T10:05:00.540Z</time>
      </trkpt>
      <trkpt lat="45.8135" lon="6.74372">
        <ele>1549</ele>
        <time>2026-08-14T10:05:01.540Z</time>
      </trkpt>
      <trkpt lat="45.81351" lon="6.74373">
        <ele>1549</ele>
        <time>2026-08-14T10:05:02.540Z</time>
      </trkpt>
      <trkpt lat="45.81352" lon="6.74375">
        <ele>1550</ele>
        <time>2026-08-14T10:05:03.540Z</time>
      </trkpt>
      <trkpt lat="45.81352" lon="6.74377">
        <ele>1550</ele>
        <time>2026-08-14T10:05:04.540Z</time>
      </trkpt>
      <trkpt lat="45.81351" lon="6.74378">
        <ele>1550</ele>
        <time>2026-08-14T10:05:05.540Z</time>
      </trkpt>
      <trkpt lat="45.81351" lon="6.7438">
        <ele>1551</ele>
        <time>2026-08-14T10:05:06.540Z</time>
      </trkpt>
      <trkpt lat="45.81351" lon="6.74382">
        <ele>1551</ele>
        <time>2026-08-14T10:05:07.540Z</time>
      </trkpt>
      <trkpt lat="45.81351" lon="6.74384">
        <ele>1551</ele>
        <time>2026-08-14T10:05:08.540Z</time>
      </trkpt>
      <trkpt lat="45.81352" lon="6.74386">
        <ele>1551</ele>
        <time>2026-08-14T10:05:09.540Z</time>
      </trkpt>
      <trkpt lat="45.81352" lon="6.74387">
        <ele>1552</ele>
        <time>2026-08-14T10:05:10.540Z</time>
      </trkpt>
      <trkpt lat="45.81352" lon="6.74389">
        <ele>1552</ele>
        <time>2026-08-14T10:05:11.540Z</time>
      </trkpt>
      <trkpt lat="45.81352" lon="6.74391">
        <ele>1551</ele>
        <time>2026-08-14T10:05:12.540Z</time>
      </trkpt>
      <trkpt lat="45.81352" lon="6.74392">
        <ele>1551</ele>
        <time>2026-08-14T10:05:13.540Z</time>
      </trkpt>
      <trkpt lat="45.81352" lon="6.74394">
        <ele>1551</ele>
        <time>2026-08-14T10:05:14.540Z</time>
      </trkpt>
      <trkpt lat="45.81352" lon="6.74396">
        <ele>1550</ele>
        <time>2026-08-14T10:05:15.540Z</time>
      </trkpt>
      <trkpt lat="45.81352" lon="6.74397">
        <ele>1550</ele>
        <time>2026-08-14T10:05:16.540Z</time>
      </trkpt>
      <trkpt lat="45.81352" lon="6.74399">
        <ele>1550</ele>
        <time>2026-08-14T10:05:17.540Z</time>
      </trkpt>
      <trkpt lat="45.81353" lon="6.744">
        <ele>1551</ele>
        <time>2026-08-14T10:05:18.540Z</time>
      </trkpt>
      <trkpt lat="45.81353" lon="6.74401">
        <ele>1551</ele>
        <time>2026-08-14T10:05:19.540Z</time>
      </trkpt>
      <trkpt lat="45.81353" lon="6.74403">
        <ele>1551</ele>
        <time>2026-08-14T10:05:20.540Z</time>
      </trkpt>
      <trkpt lat="45.81354" lon="6.74404">
        <ele>1551</ele>
        <time>2026-08-14T10:05:21.540Z</time>
      </trkpt>
      <trkpt lat="45.81354" lon="6.74406">
        <ele>1551</ele>
        <time>2026-08-14T10:05:22.540Z</time>
      </trkpt>
      <trkpt lat="45.81354" lon="6.74408">
        <ele>1551</ele>
        <time>2026-08-14T10:05:23.540Z</time>
      </trkpt>
      <trkpt lat="45.81355" lon="6.7441">
        <ele>1551</ele>
        <time>2026-08-14T10:05:24.540Z</time>
      </trkpt>
      <trkpt lat="45.81355" lon="6.74412">
        <ele>1551</ele>
        <time>2026-08-14T10:05:25.540Z</time>
      </trkpt>
      <trkpt lat="45.81355" lon="6.74414">
        <ele>1551</ele>
        <time>2026-08-14T10:05:26.540Z</time>
      </trkpt>
      <trkpt lat="45.81355" lon="6.74416">
        <ele>1552</ele>
        <time>2026-08-14T10:05:27.540Z</time>
      </trkpt>
      <trkpt lat="45.81355" lon="6.74417">
        <ele>1552</ele>
        <time>2026-08-14T10:05:28.540Z</time>
      </trkpt>
      <trkpt lat="45.81355" lon="6.74419">
        <ele>1552</ele>
        <time>2026-08-14T10:05:29.540Z</time>
      </trkpt>
      <trkpt lat="45.81356" lon="6.74421">
        <ele>1553</ele>
        <time>2026-08-14T10:05:30.540Z</time>
      </trkpt>
      <trkpt lat="45.81356" lon="6.74422">
        <ele>1553</ele>
        <time>2026-08-14T10:05:31.540Z</time>
      </trkpt>
      <trkpt lat="45.81355" lon="6.74423">
        <ele>1553</ele>
        <time>2026-08-14T10:05:32.540Z</time>
      </trkpt>
      <trkpt lat="45.81356" lon="6.74425">
        <ele>1554</ele>
        <time>2026-08-14T10:05:33.540Z</time>
      </trkpt>
      <trkpt lat="45.81356" lon="6.74427">
        <ele>1554</ele>
        <time>2026-08-14T10:05:34.540Z</time>
      </trkpt>
      <trkpt lat="45.81356" lon="6.74428">
        <ele>1554</ele>
        <time>2026-08-14T10:05:35.540Z</time>
      </trkpt>
      <trkpt lat="45.81355" lon="6.74429">
        <ele>1555</ele>
        <time>2026-08-14T10:05:36.540Z</time>
      </trkpt>
      <trkpt lat="45.81355" lon="6.7443">
        <ele>1556</ele>
        <time>2026-08-14T10:05:37.540Z</time>
      </trkpt>
      <trkpt lat="45.81354" lon="6.74432">
        <ele>1556</ele>
        <time>2026-08-14T10:05:38.540Z</time>
      </trkpt>
      <trkpt lat="45.81354" lon="6.74433">
        <ele>1557</ele>
        <time>2026-08-14T10:05:39.540Z</time>
      </trkpt>
      <trkpt lat="45.81353" lon="6.74435">
        <ele>1557</ele>
        <time>2026-08-14T10:05:40.540Z</time>
      </trkpt>
      <trkpt lat="45.81352" lon="6.74436">
        <ele>1558</ele>
        <time>2026-08-14T10:05:41.540Z</time>
      </trkpt>
      <trkpt lat="45.81352" lon="6.74436">
        <ele>1558</ele>
        <time>2026-08-14T10:05:42.540Z</time>
      </trkpt>
      <trkpt lat="45.81352" lon="6.74437">
        <ele>1559</ele>
        <time>2026-08-14T10:05:43.540Z</time>
      </trkpt>
      <trkpt lat="45.81351" lon="6.74438">
        <ele>1559</ele>
        <time>2026-08-14T10:05:44.540Z</time>
      </trkpt>
      <trkpt lat="45.81351" lon="6.74439">
        <ele>1559</ele>
        <time>2026-08-14T10:05:45.540Z</time>
      </trkpt>
      <trkpt lat="45.81351" lon="6.7444">
        <ele>1560</ele>
        <time>2026-08-14T10:05:46.540Z</time>
      </trkpt>
      <trkpt lat="45.81351" lon="6.74441">
        <ele>1560</ele>
        <time>2026-08-14T10:05:47.540Z</time>
      </trkpt>
      <trkpt lat="45.8135" lon="6.74443">
        <ele>1561</ele>
        <time>2026-08-14T10:05:48.540Z</time>
      </trkpt>
      <trkpt lat="45.81351" lon="6.74443">
        <ele>1561</ele>
        <time>2026-08-14T10:05:49.540Z</time>
      </trkpt>
      <trkpt lat="45.81351" lon="6.74444">
        <ele>1562</ele>
        <time>2026-08-14T10:05:50.540Z</time>
      </trkpt>
      <trkpt lat="45.81352" lon="6.74445">
        <ele>1562</ele>
        <time>2026-08-14T10:05:51.540Z</time>
      </trkpt>
      <trkpt lat="45.81351" lon="6.74445">
        <ele>1563</ele>
        <time>2026-08-14T10:05:52.540Z</time>
      </trkpt>
      <trkpt lat="45.81352" lon="6.74446">
        <ele>1563</ele>
        <time>2026-08-14T10:05:53.540Z</time>
      </trkpt>
      <trkpt lat="45.81351" lon="6.74448">
        <ele>1564</ele>
        <time>2026-08-14T10:05:54.540Z</time>
      </trkpt>
      <trkpt lat="45.81351" lon="6.74449">
        <ele>1564</ele>
        <time>2026-08-14T10:05:55.540Z</time>
      </trkpt>
      <trkpt lat="45.81351" lon="6.7445">
        <ele>1564</ele>
        <time>2026-08-14T10:05:56.540Z</time>
      </trkpt>
      <trkpt lat="45.81351" lon="6.74452">
        <ele>1565</ele>
        <time>2026-08-14T10:05:57.540Z</time>
      </trkpt>
      <trkpt lat="45.81352" lon="6.74455">
        <ele>1565</ele>
        <time>2026-08-14T10:05:58.540Z</time>
      </trkpt>
      <trkpt lat="45.81352" lon="6.74457">
        <ele>1565</ele>
        <time>2026-08-14T10:05:59.540Z</time>
      </trkpt>
      <trkpt lat="45.81352" lon="6.74458">
        <ele>1565</ele>
        <time>2026-08-14T10:06:00.540Z</time>
      </trkpt>
      <trkpt lat="45.81353" lon="6.74457">
        <ele>1565</ele>
        <time>2026-08-14T10:06:01.540Z</time>
      </trkpt>
      <trkpt lat="45.81354" lon="6.74458">
        <ele>1565</ele>
        <time>2026-08-14T10:06:02.540Z</time>
      </trkpt>
      <trkpt lat="45.81355" lon="6.74458">
        <ele>1565</ele>
        <time>2026-08-14T10:06:03.540Z</time>
      </trkpt>
      <trkpt lat="45.81356" lon="6.74458">
        <ele>1565</ele>
        <time>2026-08-14T10:06:04.540Z</time>
      </trkpt>
      <trkpt lat="45.81357" lon="6.74459">
        <ele>1565</ele>
        <time>2026-08-14T10:06:05.540Z</time>
      </trkpt>
      <trkpt lat="45.81358" lon="6.74459">
        <ele>1565</ele>
        <time>2026-08-14T10:06:06.540Z</time>
      </trkpt>
      <trkpt lat="45.81359" lon="6.74459">
        <ele>1565</ele>
        <time>2026-08-14T10:06:07.540Z</time>
      </trkpt>
      <trkpt lat="45.8136" lon="6.74459">
        <ele>1565</ele>
        <time>2026-08-14T10:06:08.540Z</time>
      </trkpt>
      <trkpt lat="45.81361" lon="6.74458">
        <ele>1564</ele>
        <time>2026-08-14T10:06:09.540Z</time>
      </trkpt>
      <trkpt lat="45.81362" lon="6.74458">
        <ele>1564</ele>
        <time>2026-08-14T10:06:10.540Z</time>
      </trkpt>
      <trkpt lat="45.81362" lon="6.74459">
        <ele>1564</ele>
        <time>2026-08-14T10:06:11.540Z</time>
      </trkpt>
      <trkpt lat="45.81362" lon="6.74459">
        <ele>1565</ele>
        <time>2026-08-14T10:06:12.540Z</time>
      </trkpt>
      <trkpt lat="45.81362" lon="6.74459">
        <ele>1565</ele>
        <time>2026-08-14T10:06:13.540Z</time>
      </trkpt>
      <trkpt lat="45.81362" lon="6.74459">
        <ele>1564</ele>
        <time>2026-08-14T10:06:14.540Z</time>
      </trkpt>
      <trkpt lat="45.81362" lon="6.74459">
        <ele>1564</ele>
        <time>2026-08-14T10:06:15.540Z</time>
      </trkpt>
      <trkpt lat="45.81361" lon="6.74459">
        <ele>1564</ele>
        <time>2026-08-14T10:06:16.540Z</time>
      </trkpt>
      <trkpt lat="45.8136" lon="6.7446">
        <ele>1563</ele>
        <time>2026-08-14T10:06:17.540Z</time>
      </trkpt>
      <trkpt lat="45.8136" lon="6.7446">
        <ele>1563</ele>
        <time>2026-08-14T10:06:18.540Z</time>
      </trkpt>
      <trkpt lat="45.8136" lon="6.7446">
        <ele>1563</ele>
        <time>2026-08-14T10:06:19.540Z</time>
      </trkpt>
      <trkpt lat="45.8136" lon="6.74461">
        <ele>1562</ele>
        <time>2026-08-14T10:06:20.540Z</time>
      </trkpt>
      <trkpt lat="45.8136" lon="6.74461">
        <ele>1562</ele>
        <time>2026-08-14T10:06:21.540Z</time>
      </trkpt>
      <trkpt lat="45.8136" lon="6.74461">
        <ele>1560</ele>
        <time>2026-08-14T10:06:22.540Z</time>
      </trkpt>
      <trkpt lat="45.8136" lon="6.74461">
        <ele>1559</ele>
        <time>2026-08-14T10:06:23.540Z</time>
      </trkpt>
      <trkpt lat="45.81361" lon="6.74461">
        <ele>1558</ele>
        <time>2026-08-14T10:06:24.540Z</time>
      </trkpt>
      <trkpt lat="45.81362" lon="6.7446">
        <ele>1558</ele>
        <time>2026-08-14T10:06:25.540Z</time>
      </trkpt>
      <trkpt lat="45.81363" lon="6.7446">
        <ele>1557</ele>
        <time>2026-08-14T10:06:26.540Z</time>
      </trkpt>
      <trkpt lat="45.81364" lon="6.74459">
        <ele>1557</ele>
        <time>2026-08-14T10:06:27.540Z</time>
      </trkpt>
      <trkpt lat="45.81365" lon="6.74458">
        <ele>1556</ele>
        <time>2026-08-14T10:06:28.540Z</time>
      </trkpt>
      <trkpt lat="45.81366" lon="6.74457">
        <ele>1556</ele>
        <time>2026-08-14T10:06:29.540Z</time>
      </trkpt>
      <trkpt lat="45.81368" lon="6.74457">
        <ele>1555</ele>
        <time>2026-08-14T10:06:30.540Z</time>
      </trkpt>
      <trkpt lat="45.81369" lon="6.74456">
        <ele>1555</ele>
        <time>2026-08-14T10:06:31.540Z</time>
      </trkpt>
      <trkpt lat="45.8137" lon="6.74455">
        <ele>1554</ele>
        <time>2026-08-14T10:06:32.540Z</time>
      </trkpt>
      <trkpt lat="45.81371" lon="6.74455">
        <ele>1554</ele>
        <time>2026-08-14T10:06:33.540Z</time>
      </trkpt>
      <trkpt lat="45.81372" lon="6.74454">
        <ele>1554</ele>
        <time>2026-08-14T10:06:34.540Z</time>
      </trkpt>
      <trkpt lat="45.81373" lon="6.74454">
        <ele>1553</ele>
        <time>2026-08-14T10:06:35.540Z</time>
      </trkpt>
      <trkpt lat="45.81373" lon="6.74454">
        <ele>1553</ele>
        <time>2026-08-14T10:06:36.540Z</time>
      </trkpt>
      <trkpt lat="45.81374" lon="6.74454">
        <ele>1553</ele>
        <time>2026-08-14T10:06:37.540Z</time>
      </trkpt>
      <trkpt lat="45.81375" lon="6.74454">
        <ele>1553</ele>
        <time>2026-08-14T10:06:38.540Z</time>
      </trkpt>
      <trkpt lat="45.81376" lon="6.74454">
        <ele>1552</ele>
        <time>2026-08-14T10:06:39.540Z</time>
      </trkpt>
      <trkpt lat="45.81377" lon="6.74454">
        <ele>1551</ele>
        <time>2026-08-14T10:06:40.540Z</time>
      </trkpt>
      <trkpt lat="45.81379" lon="6.74453">
        <ele>1551</ele>
        <time>2026-08-14T10:06:41.540Z</time>
      </trkpt>
      <trkpt lat="45.8138" lon="6.74452">
        <ele>1550</ele>
        <time>2026-08-14T10:06:42.540Z</time>
      </trkpt>
      <trkpt lat="45.81382" lon="6.74452">
        <ele>1550</ele>
        <time>2026-08-14T10:06:43.540Z</time>
      </trkpt>
      <trkpt lat="45.81385" lon="6.74452">
        <ele>1550</ele>
        <time>2026-08-14T10:06:44.540Z</time>
      </trkpt>
      <trkpt lat="45.81386" lon="6.74453">
        <ele>1550</ele>
        <time>2026-08-14T10:06:45.540Z</time>
      </trkpt>
      <trkpt lat="45.81388" lon="6.74452">
        <ele>1551</ele>
        <time>2026-08-14T10:06:46.540Z</time>
      </trkpt>
      <trkpt lat="45.81389" lon="6.74451">
        <ele>1551</ele>
        <time>2026-08-14T10:06:47.540Z</time>
      </trkpt>
      <trkpt lat="45.81391" lon="6.7445">
        <ele>1552</ele>
        <time>2026-08-14T10:06:48.540Z</time>
      </trkpt>
      <trkpt lat="45.81392" lon="6.74449">
        <ele>1552</ele>
        <time>2026-08-14T10:06:49.540Z</time>
      </trkpt>
      <trkpt lat="45.81394" lon="6.74449">
        <ele>1552</ele>
        <time>2026-08-14T10:06:50.540Z</time>
      </trkpt>
      <trkpt lat="45.81396" lon="6.74451">
        <ele>1551</ele>
        <time>2026-08-14T10:06:51.540Z</time>
      </trkpt>
      <trkpt lat="45.81397" lon="6.74452">
        <ele>1551</ele>
        <time>2026-08-14T10:06:52.540Z</time>
      </trkpt>
      <trkpt lat="45.81398" lon="6.74453">
        <ele>1551</ele>
        <time>2026-08-14T10:06:53.540Z</time>
      </trkpt>
      <trkpt lat="45.814" lon="6.74455">
        <ele>1551</ele>
        <time>2026-08-14T10:06:54.540Z</time>
      </trkpt>
      <trkpt lat="45.81401" lon="6.74455">
        <ele>1551</ele>
        <time>2026-08-14T10:06:55.540Z</time>
      </trkpt>
      <trkpt lat="45.81403" lon="6.74455">
        <ele>1552</ele>
        <time>2026-08-14T10:06:56.540Z</time>
      </trkpt>
      <trkpt lat="45.81406" lon="6.74457">
        <ele>1552</ele>
        <time>2026-08-14T10:06:57.540Z</time>
      </trkpt>
      <trkpt lat="45.81407" lon="6.74459">
        <ele>1551</ele>
        <time>2026-08-14T10:06:58.540Z</time>
      </trkpt>
      <trkpt lat="45.81409" lon="6.7446">
        <ele>1551</ele>
        <time>2026-08-14T10:06:59.540Z</time>
      </trkpt>
      <trkpt lat="45.81409" lon="6.74462">
        <ele>1551</ele>
        <time>2026-08-14T10:07:00.540Z</time>
      </trkpt>
      <trkpt lat="45.8141" lon="6.74463">
        <ele>1551</ele>
        <time>2026-08-14T10:07:01.540Z</time>
      </trkpt>
      <trkpt lat="45.8141" lon="6.74465">
        <ele>1551</ele>
        <time>2026-08-14T10:07:02.540Z</time>
      </trkpt>
      <trkpt lat="45.81411" lon="6.74467">
        <ele>1551</ele>
        <time>2026-08-14T10:07:03.540Z</time>
      </trkpt>
      <trkpt lat="45.81411" lon="6.74469">
        <ele>1551</ele>
        <time>2026-08-14T10:07:04.540Z</time>
      </trkpt>
      <trkpt lat="45.81411" lon="6.74471">
        <ele>1551</ele>
        <time>2026-08-14T10:07:05.540Z</time>
      </trkpt>
      <trkpt lat="45.81411" lon="6.74473">
        <ele>1551</ele>
        <time>2026-08-14T10:07:06.540Z</time>
      </trkpt>
      <trkpt lat="45.81411" lon="6.74475">
        <ele>1551</ele>
        <time>2026-08-14T10:07:07.540Z</time>
      </trkpt>
      <trkpt lat="45.81411" lon="6.74477">
        <ele>1551</ele>
        <time>2026-08-14T10:07:08.540Z</time>
      </trkpt>
      <trkpt lat="45.81411" lon="6.74478">
        <ele>1551</ele>
        <time>2026-08-14T10:07:09.540Z</time>
      </trkpt>
      <trkpt lat="45.81411" lon="6.7448">
        <ele>1551</ele>
        <time>2026-08-14T10:07:10.540Z</time>
      </trkpt>
      <trkpt lat="45.81411" lon="6.74482">
        <ele>1551</ele>
        <time>2026-08-14T10:07:11.540Z</time>
      </trkpt>
      <trkpt lat="45.81411" lon="6.74484">
        <ele>1550</ele>
        <time>2026-08-14T10:07:12.540Z</time>
      </trkpt>
      <trkpt lat="45.81411" lon="6.74486">
        <ele>1550</ele>
        <time>2026-08-14T10:07:13.540Z</time>
      </trkpt>
      <trkpt lat="45.81411" lon="6.74489">
        <ele>1550</ele>
        <time>2026-08-14T10:07:14.540Z</time>
      </trkpt>
      <trkpt lat="45.81411" lon="6.74492">
        <ele>1550</ele>
        <time>2026-08-14T10:07:15.540Z</time>
      </trkpt>
      <trkpt lat="45.81411" lon="6.74495">
        <ele>1549</ele>
        <time>2026-08-14T10:07:16.540Z</time>
      </trkpt>
      <trkpt lat="45.81411" lon="6.74498">
        <ele>1549</ele>
        <time>2026-08-14T10:07:17.540Z</time>
      </trkpt>
      <trkpt lat="45.81411" lon="6.74501">
        <ele>1549</ele>
        <time>2026-08-14T10:07:18.540Z</time>
      </trkpt>
      <trkpt lat="45.81411" lon="6.74504">
        <ele>1549</ele>
        <time>2026-08-14T10:07:19.540Z</time>
      </trkpt>
      <trkpt lat="45.81411" lon="6.74507">
        <ele>1549</ele>
        <time>2026-08-14T10:07:20.540Z</time>
      </trkpt>
      <trkpt lat="45.81411" lon="6.7451">
        <ele>1550</ele>
        <time>2026-08-14T10:07:21.540Z</time>
      </trkpt>
      <trkpt lat="45.81412" lon="6.74513">
        <ele>1550</ele>
        <time>2026-08-14T10:07:22.540Z</time>
      </trkpt>
      <trkpt lat="45.81412" lon="6.74517">
        <ele>1550</ele>
        <time>2026-08-14T10:07:23.540Z</time>
      </trkpt>
      <trkpt lat="45.81412" lon="6.7452">
        <ele>1550</ele>
        <time>2026-08-14T10:07:24.540Z</time>
      </trkpt>
      <trkpt lat="45.81413" lon="6.74524">
        <ele>1550</ele>
        <time>2026-08-14T10:07:25.540Z</time>
      </trkpt>
      <trkpt lat="45.81413" lon="6.74527">
        <ele>1550</ele>
        <time>2026-08-14T10:07:26.540Z</time>
      </trkpt>
      <trkpt lat="45.81413" lon="6.7453">
        <ele>1549</ele>
        <time>2026-08-14T10:07:27.540Z</time>
      </trkpt>
      <trkpt lat="45.81413" lon="6.74533">
        <ele>1549</ele>
        <time>2026-08-14T10:07:28.540Z</time>
      </trkpt>
      <trkpt lat="45.81413" lon="6.74536">
        <ele>1548</ele>
        <time>2026-08-14T10:07:29.540Z</time>
      </trkpt>
      <trkpt lat="45.81414" lon="6.74539">
        <ele>1547</ele>
        <time>2026-08-14T10:07:30.540Z</time>
      </trkpt>
      <trkpt lat="45.81415" lon="6.74541">
        <ele>1547</ele>
        <time>2026-08-14T10:07:31.540Z</time>
      </trkpt>
      <trkpt lat="45.81416" lon="6.74544">
        <ele>1546</ele>
        <time>2026-08-14T10:07:32.540Z</time>
      </trkpt>
      <trkpt lat="45.81417" lon="6.74546">
        <ele>1546</ele>
        <time>2026-08-14T10:07:33.540Z</time>
      </trkpt>
      <trkpt lat="45.81418" lon="6.74549">
        <ele>1545</ele>
        <time>2026-08-14T10:07:34.540Z</time>
      </trkpt>
      <trkpt lat="45.8142" lon="6.74551">
        <ele>1545</ele>
        <time>2026-08-14T10:07:35.540Z</time>
      </trkpt>
      <trkpt lat="45.81421" lon="6.74554">
        <ele>1544</ele>
        <time>2026-08-14T10:07:36.540Z</time>
      </trkpt>
      <trkpt lat="45.81422" lon="6.74557">
        <ele>1543</ele>
        <time>2026-08-14T10:07:37.540Z</time>
      </trkpt>
      <trkpt lat="45.81423" lon="6.7456">
        <ele>1543</ele>
        <time>2026-08-14T10:07:38.540Z</time>
      </trkpt>
      <trkpt lat="45.81423" lon="6.74563">
        <ele>1542</ele>
        <time>2026-08-14T10:07:39.540Z</time>
      </trkpt>
      <trkpt lat="45.81424" lon="6.74565">
        <ele>1542</ele>
        <time>2026-08-14T10:07:40.540Z</time>
      </trkpt>
      <trkpt lat="45.81425" lon="6.74566">
        <ele>1541</ele>
        <time>2026-08-14T10:07:41.540Z</time>
      </trkpt>
      <trkpt lat="45.81425" lon="6.74568">
        <ele>1541</ele>
        <time>2026-08-14T10:07:42.540Z</time>
      </trkpt>
      <trkpt lat="45.81425" lon="6.74569">
        <ele>1541</ele>
        <time>2026-08-14T10:07:43.540Z</time>
      </trkpt>
      <trkpt lat="45.81426" lon="6.74569">
        <ele>1541</ele>
        <time>2026-08-14T10:07:44.540Z</time>
      </trkpt>
      <trkpt lat="45.81426" lon="6.74569">
        <ele>1541</ele>
        <time>2026-08-14T10:07:45.540Z</time>
      </trkpt>
      <trkpt lat="45.81426" lon="6.74569">
        <ele>1540</ele>
        <time>2026-08-14T10:07:46.540Z</time>
      </trkpt>
      <trkpt lat="45.81426" lon="6.74569">
        <ele>1540</ele>
        <time>2026-08-14T10:07:47.540Z</time>
      </trkpt>
      <trkpt lat="45.81426" lon="6.74569">
        <ele>1540</ele>
        <time>2026-08-14T10:07:48.540Z</time>
      </trkpt>
      <trkpt lat="45.81427" lon="6.74569">
        <ele>1540</ele>
        <time>2026-08-14T10:07:49.540Z</time>
      </trkpt>
      <trkpt lat="45.81427" lon="6.7457">
        <ele>1540</ele>
        <time>2026-08-14T10:07:50.540Z</time>
      </trkpt>
      <trkpt lat="45.81428" lon="6.7457">
        <ele>1540</ele>
        <time>2026-08-14T10:07:51.540Z</time>
      </trkpt>
      <trkpt lat="45.81428" lon="6.74571">
        <ele>1539</ele>
        <time>2026-08-14T10:07:52.540Z</time>
      </trkpt>
      <trkpt lat="45.81428" lon="6.74572">
        <ele>1540</ele>
        <time>2026-08-14T10:07:53.540Z</time>
      </trkpt>
      <trkpt lat="45.81429" lon="6.74572">
        <ele>1540</ele>
        <time>2026-08-14T10:07:54.540Z</time>
      </trkpt>
      <trkpt lat="45.81429" lon="6.74573">
        <ele>1540</ele>
        <time>2026-08-14T10:07:55.540Z</time>
      </trkpt>
      <trkpt lat="45.8143" lon="6.74572">
        <ele>1540</ele>
        <time>2026-08-14T10:07:56.540Z</time>
      </trkpt>
      <trkpt lat="45.8143" lon="6.74571">
        <ele>1540</ele>
        <time>2026-08-14T10:07:57.540Z</time>
      </trkpt>
      <trkpt lat="45.8143" lon="6.74569">
        <ele>1541</ele>
        <time>2026-08-14T10:07:58.540Z</time>
      </trkpt>
      <trkpt lat="45.81429" lon="6.74568">
        <ele>1541</ele>
        <time>2026-08-14T10:07:59.540Z</time>
      </trkpt>
      <trkpt lat="45.81429" lon="6.74567">
        <ele>1540</ele>
        <time>2026-08-14T10:08:00.540Z</time>
      </trkpt>
      <trkpt lat="45.81429" lon="6.74565">
        <ele>1540</ele>
        <time>2026-08-14T10:08:01.540Z</time>
      </trkpt>
      <trkpt lat="45.8143" lon="6.74565">
        <ele>1540</ele>
        <time>2026-08-14T10:08:02.540Z</time>
      </trkpt>
      <trkpt lat="45.8143" lon="6.74565">
        <ele>1540</ele>
        <time>2026-08-14T10:08:03.540Z</time>
      </trkpt>
      <trkpt lat="45.81431" lon="6.74565">
        <ele>1539</ele>
        <time>2026-08-14T10:08:04.540Z</time>
      </trkpt>
      <trkpt lat="45.81432" lon="6.74566">
        <ele>1539</ele>
        <time>2026-08-14T10:08:05.540Z</time>
      </trkpt>
      <trkpt lat="45.81433" lon="6.74566">
        <ele>1539</ele>
        <time>2026-08-14T10:08:06.540Z</time>
      </trkpt>
      <trkpt lat="45.81434" lon="6.74566">
        <ele>1538</ele>
        <time>2026-08-14T10:08:07.540Z</time>
      </trkpt>
      <trkpt lat="45.81435" lon="6.74567">
        <ele>1538</ele>
        <time>2026-08-14T10:08:08.540Z</time>
      </trkpt>
      <trkpt lat="45.81436" lon="6.74567">
        <ele>1538</ele>
        <time>2026-08-14T10:08:09.540Z</time>
      </trkpt>
      <trkpt lat="45.81437" lon="6.74567">
        <ele>1538</ele>
        <time>2026-08-14T10:08:10.540Z</time>
      </trkpt>
      <trkpt lat="45.81439" lon="6.74568">
        <ele>1538</ele>
        <time>2026-08-14T10:08:11.540Z</time>
      </trkpt>
      <trkpt lat="45.8144" lon="6.74568">
        <ele>1538</ele>
        <time>2026-08-14T10:08:12.540Z</time>
      </trkpt>
      <trkpt lat="45.81441" lon="6.74569">
        <ele>1537</ele>
        <time>2026-08-14T10:08:13.540Z</time>
      </trkpt>
      <trkpt lat="45.81441" lon="6.74569">
        <ele>1537</ele>
        <time>2026-08-14T10:08:14.540Z</time>
      </trkpt>
      <trkpt lat="45.81441" lon="6.74568">
        <ele>1537</ele>
        <time>2026-08-14T10:08:15.540Z</time>
      </trkpt>
      <trkpt lat="45.81441" lon="6.74568">
        <ele>1537</ele>
        <time>2026-08-14T10:08:16.540Z</time>
      </trkpt>
      <trkpt lat="45.81442" lon="6.74567">
        <ele>1537</ele>
        <time>2026-08-14T10:08:17.540Z</time>
      </trkpt>
      <trkpt lat="45.81442" lon="6.74566">
        <ele>1537</ele>
        <time>2026-08-14T10:08:18.540Z</time>
      </trkpt>
      <trkpt lat="45.81443" lon="6.74565">
        <ele>1537</ele>
        <time>2026-08-14T10:08:19.540Z</time>
      </trkpt>
      <trkpt lat="45.81443" lon="6.74563">
        <ele>1537</ele>
        <time>2026-08-14T10:08:20.540Z</time>
      </trkpt>
      <trkpt lat="45.81444" lon="6.74562">
        <ele>1537</ele>
        <time>2026-08-14T10:08:21.540Z</time>
      </trkpt>
      <trkpt lat="45.81444" lon="6.7456">
        <ele>1537</ele>
        <time>2026-08-14T10:08:22.540Z</time>
      </trkpt>
      <trkpt lat="45.81444" lon="6.74559">
        <ele>1537</ele>
        <time>2026-08-14T10:08:23.540Z</time>
      </trkpt>
      <trkpt lat="45.81444" lon="6.74557">
        <ele>1538</ele>
        <time>2026-08-14T10:08:24.540Z</time>
      </trkpt>
      <trkpt lat="45.81445" lon="6.74556">
        <ele>1538</ele>
        <time>2026-08-14T10:08:25.540Z</time>
      </trkpt>
      <trkpt lat="45.81445" lon="6.74554">
        <ele>1539</ele>
        <time>2026-08-14T10:08:26.540Z</time>
      </trkpt>
      <trkpt lat="45.81447" lon="6.74552">
        <ele>1539</ele>
        <time>2026-08-14T10:08:27.540Z</time>
      </trkpt>
      <trkpt lat="45.81448" lon="6.74552">
        <ele>1540</ele>
        <time>2026-08-14T10:08:28.540Z</time>
      </trkpt>
      <trkpt lat="45.81449" lon="6.74551">
        <ele>1540</ele>
        <time>2026-08-14T10:08:29.540Z</time>
      </trkpt>
      <trkpt lat="45.8145" lon="6.74549">
        <ele>1540</ele>
        <time>2026-08-14T10:08:30.540Z</time>
      </trkpt>
      <trkpt lat="45.81452" lon="6.74548">
        <ele>1540</ele>
        <time>2026-08-14T10:08:31.540Z</time>
      </trkpt>
      <trkpt lat="45.81452" lon="6.74547">
        <ele>1541</ele>
        <time>2026-08-14T10:08:32.540Z</time>
      </trkpt>
      <trkpt lat="45.81453" lon="6.74546">
        <ele>1541</ele>
        <time>2026-08-14T10:08:33.540Z</time>
      </trkpt>
      <trkpt lat="45.81454" lon="6.74545">
        <ele>1541</ele>
        <time>2026-08-14T10:08:34.540Z</time>
      </trkpt>
      <trkpt lat="45.81455" lon="6.74544">
        <ele>1540</ele>
        <time>2026-08-14T10:08:35.540Z</time>
      </trkpt>
      <trkpt lat="45.81455" lon="6.74543">
        <ele>1540</ele>
        <time>2026-08-14T10:08:36.540Z</time>
      </trkpt>
      <trkpt lat="45.81456" lon="6.74541">
        <ele>1540</ele>
        <time>2026-08-14T10:08:37.540Z</time>
      </trkpt>
      <trkpt lat="45.81457" lon="6.7454">
        <ele>1539</ele>
        <time>2026-08-14T10:08:38.540Z</time>
      </trkpt>
      <trkpt lat="45.81459" lon="6.74539">
        <ele>1539</ele>
        <time>2026-08-14T10:08:39.540Z</time>
      </trkpt>
      <trkpt lat="45.8146" lon="6.74538">
        <ele>1539</ele>
        <time>2026-08-14T10:08:40.540Z</time>
      </trkpt>
      <trkpt lat="45.81461" lon="6.74537">
        <ele>1539</ele>
        <time>2026-08-14T10:08:41.540Z</time>
      </trkpt>
      <trkpt lat="45.81463" lon="6.74537">
        <ele>1538</ele>
        <time>2026-08-14T10:08:42.540Z</time>
      </trkpt>
      <trkpt lat="45.81465" lon="6.74536">
        <ele>1538</ele>
        <time>2026-08-14T10:08:43.540Z</time>
      </trkpt>
      <trkpt lat="45.81467" lon="6.74536">
        <ele>1538</ele>
        <time>2026-08-14T10:08:44.540Z</time>
      </trkpt>
      <trkpt lat="45.81469" lon="6.74536">
        <ele>1537</ele>
        <time>2026-08-14T10:08:45.540Z</time>
      </trkpt>
      <trkpt lat="45.81471" lon="6.74536">
        <ele>1537</ele>
        <time>2026-08-14T10:08:46.540Z</time>
      </trkpt>
      <trkpt lat="45.81473" lon="6.74537">
        <ele>1537</ele>
        <time>2026-08-14T10:08:47.540Z</time>
      </trkpt>
      <trkpt lat="45.81475" lon="6.74537">
        <ele>1537</ele>
        <time>2026-08-14T10:08:48.540Z</time>
      </trkpt>
      <trkpt lat="45.81477" lon="6.74536">
        <ele>1537</ele>
        <time>2026-08-14T10:08:49.540Z</time>
      </trkpt>
      <trkpt lat="45.81479" lon="6.74536">
        <ele>1536</ele>
        <time>2026-08-14T10:08:50.540Z</time>
      </trkpt>
      <trkpt lat="45.81481" lon="6.74535">
        <ele>1536</ele>
        <time>2026-08-14T10:08:51.540Z</time>
      </trkpt>
      <trkpt lat="45.81483" lon="6.74534">
        <ele>1536</ele>
        <time>2026-08-14T10:08:52.540Z</time>
      </trkpt>
      <trkpt lat="45.81485" lon="6.74532">
        <ele>1536</ele>
        <time>2026-08-14T10:08:53.540Z</time>
      </trkpt>
      <trkpt lat="45.81487" lon="6.74531">
        <ele>1536</ele>
        <time>2026-08-14T10:08:54.540Z</time>
      </trkpt>
      <trkpt lat="45.81489" lon="6.7453">
        <ele>1536</ele>
        <time>2026-08-14T10:08:55.540Z</time>
      </trkpt>
      <trkpt lat="45.81491" lon="6.74529">
        <ele>1536</ele>
        <time>2026-08-14T10:08:56.540Z</time>
      </trkpt>
      <trkpt lat="45.81493" lon="6.74527">
        <ele>1536</ele>
        <time>2026-08-14T10:08:57.540Z</time>
      </trkpt>
      <trkpt lat="45.81494" lon="6.74526">
        <ele>1535</ele>
        <time>2026-08-14T10:08:58.540Z</time>
      </trkpt>
      <trkpt lat="45.81496" lon="6.74524">
        <ele>1535</ele>
        <time>2026-08-14T10:08:59.540Z</time>
      </trkpt>
      <trkpt lat="45.81498" lon="6.74523">
        <ele>1534</ele>
        <time>2026-08-14T10:09:00.540Z</time>
      </trkpt>
      <trkpt lat="45.815" lon="6.74522">
        <ele>1534</ele>
        <time>2026-08-14T10:09:01.540Z</time>
      </trkpt>
      <trkpt lat="45.81502" lon="6.74521">
        <ele>1533</ele>
        <time>2026-08-14T10:09:02.540Z</time>
      </trkpt>
      <trkpt lat="45.81503" lon="6.74519">
        <ele>1532</ele>
        <time>2026-08-14T10:09:03.540Z</time>
      </trkpt>
      <trkpt lat="45.81505" lon="6.74518">
        <ele>1532</ele>
        <time>2026-08-14T10:09:04.540Z</time>
      </trkpt>
      <trkpt lat="45.81507" lon="6.74517">
        <ele>1532</ele>
        <time>2026-08-14T10:09:05.540Z</time>
      </trkpt>
      <trkpt lat="45.81509" lon="6.74516">
        <ele>1532</ele>
        <time>2026-08-14T10:09:06.540Z</time>
      </trkpt>
      <trkpt lat="45.8151" lon="6.74515">
        <ele>1531</ele>
        <time>2026-08-14T10:09:07.540Z</time>
      </trkpt>
      <trkpt lat="45.81512" lon="6.74514">
        <ele>1531</ele>
        <time>2026-08-14T10:09:08.540Z</time>
      </trkpt>
      <trkpt lat="45.81512" lon="6.74513">
        <ele>1531</ele>
        <time>2026-08-14T10:09:09.540Z</time>
      </trkpt>
      <trkpt lat="45.81513" lon="6.74512">
        <ele>1531</ele>
        <time>2026-08-14T10:09:10.540Z</time>
      </trkpt>
      <trkpt lat="45.81513" lon="6.74511">
        <ele>1531</ele>
        <time>2026-08-14T10:09:11.540Z</time>
      </trkpt>
      <trkpt lat="45.81513" lon="6.74509">
        <ele>1531</ele>
        <time>2026-08-14T10:09:12.540Z</time>
      </trkpt>
      <trkpt lat="45.81513" lon="6.74507">
        <ele>1530</ele>
        <time>2026-08-14T10:09:13.540Z</time>
      </trkpt>
      <trkpt lat="45.81514" lon="6.74505">
        <ele>1530</ele>
        <time>2026-08-14T10:09:14.540Z</time>
      </trkpt>
      <trkpt lat="45.81515" lon="6.74502">
        <ele>1529</ele>
        <time>2026-08-14T10:09:15.540Z</time>
      </trkpt>
      <trkpt lat="45.81516" lon="6.74499">
        <ele>1529</ele>
        <time>2026-08-14T10:09:16.540Z</time>
      </trkpt>
      <trkpt lat="45.81517" lon="6.74496">
        <ele>1529</ele>
        <time>2026-08-14T10:09:17.540Z</time>
      </trkpt>
      <trkpt lat="45.81519" lon="6.74493">
        <ele>1529</ele>
        <time>2026-08-14T10:09:18.540Z</time>
      </trkpt>
      <trkpt lat="45.8152" lon="6.7449">
        <ele>1529</ele>
        <time>2026-08-14T10:09:19.540Z</time>
      </trkpt>
      <trkpt lat="45.81521" lon="6.74487">
        <ele>1529</ele>
        <time>2026-08-14T10:09:20.540Z</time>
      </trkpt>
      <trkpt lat="45.81522" lon="6.74484">
        <ele>1529</ele>
        <time>2026-08-14T10:09:21.540Z</time>
      </trkpt>
      <trkpt lat="45.81523" lon="6.74481">
        <ele>1529</ele>
        <time>2026-08-14T10:09:22.540Z</time>
      </trkpt>
      <trkpt lat="45.81524" lon="6.74479">
        <ele>1529</ele>
        <time>2026-08-14T10:09:23.540Z</time>
      </trkpt>
      <trkpt lat="45.81525" lon="6.74476">
        <ele>1530</ele>
        <time>2026-08-14T10:09:24.540Z</time>
      </trkpt>
      <trkpt lat="45.81526" lon="6.74474">
        <ele>1530</ele>
        <time>2026-08-14T10:09:25.540Z</time>
      </trkpt>
      <trkpt lat="45.81527" lon="6.74471">
        <ele>1530</ele>
        <time>2026-08-14T10:09:26.540Z</time>
      </trkpt>
      <trkpt lat="45.81528" lon="6.74469">
        <ele>1530</ele>
        <time>2026-08-14T10:09:27.540Z</time>
      </trkpt>
      <trkpt lat="45.81529" lon="6.74467">
        <ele>1531</ele>
        <time>2026-08-14T10:09:28.540Z</time>
      </trkpt>
      <trkpt lat="45.8153" lon="6.74466">
        <ele>1531</ele>
        <time>2026-08-14T10:09:29.540Z</time>
      </trkpt>
      <trkpt lat="45.81531" lon="6.74465">
        <ele>1531</ele>
        <time>2026-08-14T10:09:30.540Z</time>
      </trkpt>
      <trkpt lat="45.81532" lon="6.74463">
        <ele>1532</ele>
        <time>2026-08-14T10:09:31.540Z</time>
      </trkpt>
      <trkpt lat="45.81533" lon="6.74461">
        <ele>1532</ele>
        <time>2026-08-14T10:09:32.540Z</time>
      </trkpt>
      <trkpt lat="45.81534" lon="6.74459">
        <ele>1532</ele>
        <time>2026-08-14T10:09:33.540Z</time>
      </trkpt>
      <trkpt lat="45.81534" lon="6.74456">
        <ele>1532</ele>
        <time>2026-08-14T10:09:34.540Z</time>
      </trkpt>
      <trkpt lat="45.81535" lon="6.74454">
        <ele>1532</ele>
        <time>2026-08-14T10:09:35.540Z</time>
      </trkpt>
      <trkpt lat="45.81536" lon="6.74451">
        <ele>1533</ele>
        <time>2026-08-14T10:09:36.540Z</time>
      </trkpt>
      <trkpt lat="45.81537" lon="6.74449">
        <ele>1533</ele>
        <time>2026-08-14T10:09:37.540Z</time>
      </trkpt>
      <trkpt lat="45.81538" lon="6.74446">
        <ele>1533</ele>
        <time>2026-08-14T10:09:38.540Z</time>
      </trkpt>
      <trkpt lat="45.81539" lon="6.74444">
        <ele>1533</ele>
        <time>2026-08-14T10:09:39.540Z</time>
      </trkpt>
      <trkpt lat="45.8154" lon="6.74442">
        <ele>1533</ele>
        <time>2026-08-14T10:09:40.540Z</time>
      </trkpt>
      <trkpt lat="45.81541" lon="6.7444">
        <ele>1533</ele>
        <time>2026-08-14T10:09:41.540Z</time>
      </trkpt>
      <trkpt lat="45.81542" lon="6.74437">
        <ele>1532</ele>
        <time>2026-08-14T10:09:42.540Z</time>
      </trkpt>
      <trkpt lat="45.81543" lon="6.74434">
        <ele>1532</ele>
        <time>2026-08-14T10:09:43.540Z</time>
      </trkpt>
      <trkpt lat="45.81544" lon="6.74431">
        <ele>1532</ele>
        <time>2026-08-14T10:09:44.540Z</time>
      </trkpt>
      <trkpt lat="45.81545" lon="6.74429">
        <ele>1532</ele>
        <time>2026-08-14T10:09:45.540Z</time>
      </trkpt>
      <trkpt lat="45.81546" lon="6.74427">
        <ele>1532</ele>
        <time>2026-08-14T10:09:46.540Z</time>
      </trkpt>
      <trkpt lat="45.81547" lon="6.74424">
        <ele>1533</ele>
        <time>2026-08-14T10:09:47.540Z</time>
      </trkpt>
      <trkpt lat="45.81548" lon="6.74421">
        <ele>1533</ele>
        <time>2026-08-14T10:09:48.540Z</time>
      </trkpt>
      <trkpt lat="45.81549" lon="6.74418">
        <ele>1533</ele>
        <time>2026-08-14T10:09:49.540Z</time>
      </trkpt>
      <trkpt lat="45.8155" lon="6.74416">
        <ele>1533</ele>
        <time>2026-08-14T10:09:50.540Z</time>
      </trkpt>
      <trkpt lat="45.81552" lon="6.74413">
        <ele>1532</ele>
        <time>2026-08-14T10:09:51.540Z</time>
      </trkpt>
      <trkpt lat="45.81553" lon="6.74411">
        <ele>1532</ele>
        <time>2026-08-14T10:09:52.540Z</time>
      </trkpt>
      <trkpt lat="45.81555" lon="6.7441">
        <ele>1531</ele>
        <time>2026-08-14T10:09:53.540Z</time>
      </trkpt>
      <trkpt lat="45.81556" lon="6.74408">
        <ele>1531</ele>
        <time>2026-08-14T10:09:54.540Z</time>
      </trkpt>
      <trkpt lat="45.81557" lon="6.74406">
        <ele>1531</ele>
        <time>2026-08-14T10:09:55.540Z</time>
      </trkpt>
      <trkpt lat="45.81558" lon="6.74404">
        <ele>1530</ele>
        <time>2026-08-14T10:09:56.540Z</time>
      </trkpt>
      <trkpt lat="45.8156" lon="6.74402">
        <ele>1530</ele>
        <time>2026-08-14T10:09:57.540Z</time>
      </trkpt>
      <trkpt lat="45.81561" lon="6.74401">
        <ele>1529</ele>
        <time>2026-08-14T10:09:58.540Z</time>
      </trkpt>
      <trkpt lat="45.81562" lon="6.744">
        <ele>1529</ele>
        <time>2026-08-14T10:09:59.540Z</time>
      </trkpt>
      <trkpt lat="45.81563" lon="6.74398">
        <ele>1528</ele>
        <time>2026-08-14T10:10:00.540Z</time>
      </trkpt>
      <trkpt lat="45.81564" lon="6.74397">
        <ele>1528</ele>
        <time>2026-08-14T10:10:01.540Z</time>
      </trkpt>
      <trkpt lat="45.81566" lon="6.74396">
        <ele>1528</ele>
        <time>2026-08-14T10:10:02.540Z</time>
      </trkpt>
      <trkpt lat="45.81567" lon="6.74396">
        <ele>1528</ele>
        <time>2026-08-14T10:10:03.540Z</time>
      </trkpt>
      <trkpt lat="45.81569" lon="6.74395">
        <ele>1529</ele>
        <time>2026-08-14T10:10:04.540Z</time>
      </trkpt>
      <trkpt lat="45.8157" lon="6.74394">
        <ele>1529</ele>
        <time>2026-08-14T10:10:05.540Z</time>
      </trkpt>
      <trkpt lat="45.81572" lon="6.74393">
        <ele>1529</ele>
        <time>2026-08-14T10:10:06.540Z</time>
      </trkpt>
      <trkpt lat="45.81573" lon="6.74392">
        <ele>1529</ele>
        <time>2026-08-14T10:10:07.540Z</time>
      </trkpt>
      <trkpt lat="45.81575" lon="6.74391">
        <ele>1529</ele>
        <time>2026-08-14T10:10:08.540Z</time>
      </trkpt>
      <trkpt lat="45.81577" lon="6.7439">
        <ele>1530</ele>
        <time>2026-08-14T10:10:09.540Z</time>
      </trkpt>
      <trkpt lat="45.81579" lon="6.74389">
        <ele>1530</ele>
        <time>2026-08-14T10:10:10.540Z</time>
      </trkpt>
      <trkpt lat="45.81581" lon="6.74389">
        <ele>1530</ele>
        <time>2026-08-14T10:10:11.540Z</time>
      </trkpt>
      <trkpt lat="45.81583" lon="6.74389">
        <ele>1530</ele>
        <time>2026-08-14T10:10:12.540Z</time>
      </trkpt>
      <trkpt lat="45.81584" lon="6.74388">
        <ele>1530</ele>
        <time>2026-08-14T10:10:13.540Z</time>
      </trkpt>
      <trkpt lat="45.81586" lon="6.74388">
        <ele>1531</ele>
        <time>2026-08-14T10:10:14.540Z</time>
      </trkpt>
      <trkpt lat="45.81588" lon="6.74387">
        <ele>1531</ele>
        <time>2026-08-14T10:10:15.540Z</time>
      </trkpt>
      <trkpt lat="45.81589" lon="6.74385">
        <ele>1532</ele>
        <time>2026-08-14T10:10:16.540Z</time>
      </trkpt>
      <trkpt lat="45.81591" lon="6.74384">
        <ele>1532</ele>
        <time>2026-08-14T10:10:17.540Z</time>
      </trkpt>
      <trkpt lat="45.81594" lon="6.74383">
        <ele>1532</ele>
        <time>2026-08-14T10:10:18.540Z</time>
      </trkpt>
      <trkpt lat="45.81596" lon="6.74383">
        <ele>1532</ele>
        <time>2026-08-14T10:10:19.540Z</time>
      </trkpt>
      <trkpt lat="45.81598" lon="6.74383">
        <ele>1533</ele>
        <time>2026-08-14T10:10:20.540Z</time>
      </trkpt>
      <trkpt lat="45.816" lon="6.74384">
        <ele>1533</ele>
        <time>2026-08-14T10:10:21.540Z</time>
      </trkpt>
      <trkpt lat="45.81602" lon="6.74385">
        <ele>1533</ele>
        <time>2026-08-14T10:10:22.540Z</time>
      </trkpt>
      <trkpt lat="45.81604" lon="6.74385">
        <ele>1533</ele>
        <time>2026-08-14T10:10:23.540Z</time>
      </trkpt>
      <trkpt lat="45.81606" lon="6.74386">
        <ele>1533</ele>
        <time>2026-08-14T10:10:24.540Z</time>
      </trkpt>
      <trkpt lat="45.81608" lon="6.74387">
        <ele>1533</ele>
        <time>2026-08-14T10:10:25.540Z</time>
      </trkpt>
      <trkpt lat="45.81609" lon="6.74387">
        <ele>1533</ele>
        <time>2026-08-14T10:10:26.540Z</time>
      </trkpt>
      <trkpt lat="45.81611" lon="6.74388">
        <ele>1533</ele>
        <time>2026-08-14T10:10:27.540Z</time>
      </trkpt>
      <trkpt lat="45.81613" lon="6.74388">
        <ele>1533</ele>
        <time>2026-08-14T10:10:28.540Z</time>
      </trkpt>
      <trkpt lat="45.81614" lon="6.74388">
        <ele>1533</ele>
        <time>2026-08-14T10:10:29.540Z</time>
      </trkpt>
      <trkpt lat="45.81615" lon="6.74389">
        <ele>1533</ele>
        <time>2026-08-14T10:10:30.540Z</time>
      </trkpt>
      <trkpt lat="45.81615" lon="6.74388">
        <ele>1533</ele>
        <time>2026-08-14T10:10:31.540Z</time>
      </trkpt>
      <trkpt lat="45.81616" lon="6.74387">
        <ele>1534</ele>
        <time>2026-08-14T10:10:32.540Z</time>
      </trkpt>
      <trkpt lat="45.81616" lon="6.74386">
        <ele>1534</ele>
        <time>2026-08-14T10:10:33.540Z</time>
      </trkpt>
      <trkpt lat="45.81616" lon="6.74384">
        <ele>1534</ele>
        <time>2026-08-14T10:10:34.540Z</time>
      </trkpt>
      <trkpt lat="45.81617" lon="6.74383">
        <ele>1534</ele>
        <time>2026-08-14T10:10:35.540Z</time>
      </trkpt>
      <trkpt lat="45.81617" lon="6.74381">
        <ele>1534</ele>
        <time>2026-08-14T10:10:36.540Z</time>
      </trkpt>
      <trkpt lat="45.81617" lon="6.74379">
        <ele>1535</ele>
        <time>2026-08-14T10:10:37.540Z</time>
      </trkpt>
      <trkpt lat="45.81618" lon="6.74378">
        <ele>1535</ele>
        <time>2026-08-14T10:10:38.540Z</time>
      </trkpt>
      <trkpt lat="45.81618" lon="6.74375">
        <ele>1535</ele>
        <time>2026-08-14T10:10:39.540Z</time>
      </trkpt>
      <trkpt lat="45.81618" lon="6.74374">
        <ele>1536</ele>
        <time>2026-08-14T10:10:40.540Z</time>
      </trkpt>
      <trkpt lat="45.81619" lon="6.74372">
        <ele>1536</ele>
        <time>2026-08-14T10:10:41.540Z</time>
      </trkpt>
      <trkpt lat="45.81619" lon="6.7437">
        <ele>1536</ele>
        <time>2026-08-14T10:10:42.540Z</time>
      </trkpt>
      <trkpt lat="45.81618" lon="6.74367">
        <ele>1536</ele>
        <time>2026-08-14T10:10:43.540Z</time>
      </trkpt>
      <trkpt lat="45.81617" lon="6.74365">
        <ele>1536</ele>
        <time>2026-08-14T10:10:44.540Z</time>
      </trkpt>
      <trkpt lat="45.81615" lon="6.74364">
        <ele>1536</ele>
        <time>2026-08-14T10:10:45.540Z</time>
      </trkpt>
      <trkpt lat="45.81614" lon="6.74362">
        <ele>1536</ele>
        <time>2026-08-14T10:10:46.540Z</time>
      </trkpt>
      <trkpt lat="45.81612" lon="6.7436">
        <ele>1537</ele>
        <time>2026-08-14T10:10:47.540Z</time>
      </trkpt>
      <trkpt lat="45.81612" lon="6.74358">
        <ele>1536</ele>
        <time>2026-08-14T10:10:48.540Z</time>
      </trkpt>
      <trkpt lat="45.81611" lon="6.74356">
        <ele>1536</ele>
        <time>2026-08-14T10:10:49.540Z</time>
      </trkpt>
      <trkpt lat="45.81611" lon="6.74354">
        <ele>1536</ele>
        <time>2026-08-14T10:10:50.540Z</time>
      </trkpt>
      <trkpt lat="45.8161" lon="6.74352">
        <ele>1536</ele>
        <time>2026-08-14T10:10:51.540Z</time>
      </trkpt>
      <trkpt lat="45.8161" lon="6.74349">
        <ele>1536</ele>
        <time>2026-08-14T10:10:52.540Z</time>
      </trkpt>
      <trkpt lat="45.81611" lon="6.74347">
        <ele>1535</ele>
        <time>2026-08-14T10:10:53.540Z</time>
      </trkpt>
      <trkpt lat="45.81611" lon="6.74345">
        <ele>1535</ele>
        <time>2026-08-14T10:10:54.540Z</time>
      </trkpt>
      <trkpt lat="45.81611" lon="6.74344">
        <ele>1534</ele>
        <time>2026-08-14T10:10:55.540Z</time>
      </trkpt>
      <trkpt lat="45.81611" lon="6.74342">
        <ele>1533</ele>
        <time>2026-08-14T10:10:56.540Z</time>
      </trkpt>
      <trkpt lat="45.81611" lon="6.74339">
        <ele>1533</ele>
        <time>2026-08-14T10:10:57.540Z</time>
      </trkpt>
      <trkpt lat="45.81611" lon="6.74337">
        <ele>1532</ele>
        <time>2026-08-14T10:10:58.540Z</time>
      </trkpt>
      <trkpt lat="45.81611" lon="6.74334">
        <ele>1532</ele>
        <time>2026-08-14T10:10:59.540Z</time>
      </trkpt>
      <trkpt lat="45.81611" lon="6.74332">
        <ele>1531</ele>
        <time>2026-08-14T10:11:00.540Z</time>
      </trkpt>
      <trkpt lat="45.81612" lon="6.74328">
        <ele>1531</ele>
        <time>2026-08-14T10:11:01.540Z</time>
      </trkpt>
      <trkpt lat="45.81612" lon="6.74326">
        <ele>1530</ele>
        <time>2026-08-14T10:11:02.540Z</time>
      </trkpt>
      <trkpt lat="45.81612" lon="6.74324">
        <ele>1530</ele>
        <time>2026-08-14T10:11:03.540Z</time>
      </trkpt>
      <trkpt lat="45.81613" lon="6.74323">
        <ele>1530</ele>
        <time>2026-08-14T10:11:04.540Z</time>
      </trkpt>
      <trkpt lat="45.81613" lon="6.74321">
        <ele>1529</ele>
        <time>2026-08-14T10:11:05.540Z</time>
      </trkpt>
      <trkpt lat="45.81615" lon="6.74319">
        <ele>1529</ele>
        <time>2026-08-14T10:11:06.540Z</time>
      </trkpt>
      <trkpt lat="45.81616" lon="6.74318">
        <ele>1528</ele>
        <time>2026-08-14T10:11:07.540Z</time>
      </trkpt>
      <trkpt lat="45.81616" lon="6.74317">
        <ele>1528</ele>
        <time>2026-08-14T10:11:08.540Z</time>
      </trkpt>
      <trkpt lat="45.81616" lon="6.74316">
        <ele>1527</ele>
        <time>2026-08-14T10:11:09.540Z</time>
      </trkpt>
      <trkpt lat="45.81615" lon="6.74315">
        <ele>1527</ele>
        <time>2026-08-14T10:11:10.540Z</time>
      </trkpt>
      <trkpt lat="45.81614" lon="6.74314">
        <ele>1526</ele>
        <time>2026-08-14T10:11:11.540Z</time>
      </trkpt>
      <trkpt lat="45.81614" lon="6.74313">
        <ele>1526</ele>
        <time>2026-08-14T10:11:12.540Z</time>
      </trkpt>
      <trkpt lat="45.81614" lon="6.74311">
        <ele>1525</ele>
        <time>2026-08-14T10:11:13.540Z</time>
      </trkpt>
      <trkpt lat="45.81614" lon="6.74309">
        <ele>1525</ele>
        <time>2026-08-14T10:11:14.540Z</time>
      </trkpt>
      <trkpt lat="45.81615" lon="6.74307">
        <ele>1524</ele>
        <time>2026-08-14T10:11:15.540Z</time>
      </trkpt>
      <trkpt lat="45.81615" lon="6.74305">
        <ele>1524</ele>
        <time>2026-08-14T10:11:16.540Z</time>
      </trkpt>
      <trkpt lat="45.81616" lon="6.74303">
        <ele>1523</ele>
        <time>2026-08-14T10:11:17.540Z</time>
      </trkpt>
      <trkpt lat="45.81616" lon="6.74301">
        <ele>1523</ele>
        <time>2026-08-14T10:11:18.540Z</time>
      </trkpt>
      <trkpt lat="45.81615" lon="6.74299">
        <ele>1523</ele>
        <time>2026-08-14T10:11:19.540Z</time>
      </trkpt>
      <trkpt lat="45.81614" lon="6.74297">
        <ele>1522</ele>
        <time>2026-08-14T10:11:20.540Z</time>
      </trkpt>
      <trkpt lat="45.81614" lon="6.74295">
        <ele>1521</ele>
        <time>2026-08-14T10:11:21.540Z</time>
      </trkpt>
      <trkpt lat="45.81614" lon="6.74293">
        <ele>1521</ele>
        <time>2026-08-14T10:11:22.540Z</time>
      </trkpt>
      <trkpt lat="45.81614" lon="6.74292">
        <ele>1520</ele>
        <time>2026-08-14T10:11:23.540Z</time>
      </trkpt>
      <trkpt lat="45.81614" lon="6.74291">
        <ele>1520</ele>
        <time>2026-08-14T10:11:24.540Z</time>
      </trkpt>
      <trkpt lat="45.81615" lon="6.74289">
        <ele>1519</ele>
        <time>2026-08-14T10:11:25.540Z</time>
      </trkpt>
      <trkpt lat="45.81616" lon="6.74288">
        <ele>1519</ele>
        <time>2026-08-14T10:11:26.540Z</time>
      </trkpt>
      <trkpt lat="45.81617" lon="6.74286">
        <ele>1519</ele>
        <time>2026-08-14T10:11:27.540Z</time>
      </trkpt>
      <trkpt lat="45.81618" lon="6.74285">
        <ele>1518</ele>
        <time>2026-08-14T10:11:28.540Z</time>
      </trkpt>
      <trkpt lat="45.81618" lon="6.74283">
        <ele>1518</ele>
        <time>2026-08-14T10:11:29.540Z</time>
      </trkpt>
      <trkpt lat="45.81618" lon="6.74281">
        <ele>1517</ele>
        <time>2026-08-14T10:11:30.540Z</time>
      </trkpt>
      <trkpt lat="45.81619" lon="6.74279">
        <ele>1517</ele>
        <time>2026-08-14T10:11:31.540Z</time>
      </trkpt>
      <trkpt lat="45.81619" lon="6.74277">
        <ele>1516</ele>
        <time>2026-08-14T10:11:32.540Z</time>
      </trkpt>
      <trkpt lat="45.8162" lon="6.74275">
        <ele>1515</ele>
        <time>2026-08-14T10:11:33.540Z</time>
      </trkpt>
      <trkpt lat="45.81619" lon="6.74273">
        <ele>1515</ele>
        <time>2026-08-14T10:11:34.540Z</time>
      </trkpt>
      <trkpt lat="45.81617" lon="6.74272">
        <ele>1514</ele>
        <time>2026-08-14T10:11:35.540Z</time>
      </trkpt>
      <trkpt lat="45.81616" lon="6.74271">
        <ele>1514</ele>
        <time>2026-08-14T10:11:36.540Z</time>
      </trkpt>
      <trkpt lat="45.81615" lon="6.74269">
        <ele>1513</ele>
        <time>2026-08-14T10:11:37.540Z</time>
      </trkpt>
      <trkpt lat="45.81614" lon="6.74267">
        <ele>1513</ele>
        <time>2026-08-14T10:11:38.540Z</time>
      </trkpt>
      <trkpt lat="45.81613" lon="6.74266">
        <ele>1513</ele>
        <time>2026-08-14T10:11:39.540Z</time>
      </trkpt>
      <trkpt lat="45.81611" lon="6.74265">
        <ele>1512</ele>
        <time>2026-08-14T10:11:40.540Z</time>
      </trkpt>
      <trkpt lat="45.8161" lon="6.74263">
        <ele>1512</ele>
        <time>2026-08-14T10:11:41.540Z</time>
      </trkpt>
      <trkpt lat="45.81608" lon="6.74262">
        <ele>1512</ele>
        <time>2026-08-14T10:11:42.540Z</time>
      </trkpt>
      <trkpt lat="45.81607" lon="6.74261">
        <ele>1512</ele>
        <time>2026-08-14T10:11:43.540Z</time>
      </trkpt>
      <trkpt lat="45.81604" lon="6.7426">
        <ele>1512</ele>
        <time>2026-08-14T10:11:44.540Z</time>
      </trkpt>
      <trkpt lat="45.81601" lon="6.74259">
        <ele>1512</ele>
        <time>2026-08-14T10:11:45.540Z</time>
      </trkpt>
      <trkpt lat="45.81599" lon="6.74257">
        <ele>1512</ele>
        <time>2026-08-14T10:11:46.540Z</time>
      </trkpt>
      <trkpt lat="45.81598" lon="6.74255">
        <ele>1511</ele>
        <time>2026-08-14T10:11:47.540Z</time>
      </trkpt>
      <trkpt lat="45.81598" lon="6.74252">
        <ele>1511</ele>
        <time>2026-08-14T10:11:48.540Z</time>
      </trkpt>
      <trkpt lat="45.81598" lon="6.74248">
        <ele>1511</ele>
        <time>2026-08-14T10:11:49.540Z</time>
      </trkpt>
      <trkpt lat="45.81598" lon="6.74245">
        <ele>1510</ele>
        <time>2026-08-14T10:11:50.540Z</time>
      </trkpt>
      <trkpt lat="45.81598" lon="6.74242">
        <ele>1510</ele>
        <time>2026-08-14T10:11:51.540Z</time>
      </trkpt>
      <trkpt lat="45.81598" lon="6.7424">
        <ele>1509</ele>
        <time>2026-08-14T10:11:52.540Z</time>
      </trkpt>
      <trkpt lat="45.81599" lon="6.74237">
        <ele>1509</ele>
        <time>2026-08-14T10:11:53.540Z</time>
      </trkpt>
      <trkpt lat="45.81601" lon="6.74233">
        <ele>1508</ele>
        <time>2026-08-14T10:11:54.540Z</time>
      </trkpt>
      <trkpt lat="45.81603" lon="6.74229">
        <ele>1508</ele>
        <time>2026-08-14T10:11:55.540Z</time>
      </trkpt>
      <trkpt lat="45.81604" lon="6.74225">
        <ele>1507</ele>
        <time>2026-08-14T10:11:56.540Z</time>
      </trkpt>
      <trkpt lat="45.81606" lon="6.74222">
        <ele>1507</ele>
        <time>2026-08-14T10:11:57.540Z</time>
      </trkpt>
      <trkpt lat="45.81607" lon="6.74219">
        <ele>1507</ele>
        <time>2026-08-14T10:11:58.540Z</time>
      </trkpt>
      <trkpt lat="45.81609" lon="6.74217">
        <ele>1506</ele>
        <time>2026-08-14T10:11:59.540Z</time>
      </trkpt>
      <trkpt lat="45.8161" lon="6.74213">
        <ele>1506</ele>
        <time>2026-08-14T10:12:00.540Z</time>
      </trkpt>
      <trkpt lat="45.81611" lon="6.74209">
        <ele>1505</ele>
        <time>2026-08-14T10:12:01.540Z</time>
      </trkpt>
      <trkpt lat="45.81613" lon="6.74204">
        <ele>1504</ele>
        <time>2026-08-14T10:12:02.540Z</time>
      </trkpt>
      <trkpt lat="45.81615" lon="6.74201">
        <ele>1503</ele>
        <time>2026-08-14T10:12:03.540Z</time>
      </trkpt>
      <trkpt lat="45.81616" lon="6.74197">
        <ele>1503</ele>
        <time>2026-08-14T10:12:04.540Z</time>
      </trkpt>
      <trkpt lat="45.81616" lon="6.74193">
        <ele>1502</ele>
        <time>2026-08-14T10:12:05.540Z</time>
      </trkpt>
      <trkpt lat="45.81616" lon="6.7419">
        <ele>1501</ele>
        <time>2026-08-14T10:12:06.540Z</time>
      </trkpt>
      <trkpt lat="45.81617" lon="6.74185">
        <ele>1501</ele>
        <time>2026-08-14T10:12:07.540Z</time>
      </trkpt>
      <trkpt lat="45.81617" lon="6.7418">
        <ele>1500</ele>
        <time>2026-08-14T10:12:08.540Z</time>
      </trkpt>
      <trkpt lat="45.81619" lon="6.74176">
        <ele>1500</ele>
        <time>2026-08-14T10:12:09.540Z</time>
      </trkpt>
      <trkpt lat="45.8162" lon="6.74171">
        <ele>1499</ele>
        <time>2026-08-14T10:12:10.540Z</time>
      </trkpt>
      <trkpt lat="45.81622" lon="6.74166">
        <ele>1499</ele>
        <time>2026-08-14T10:12:11.540Z</time>
      </trkpt>
      <trkpt lat="45.81624" lon="6.74161">
        <ele>1499</ele>
        <time>2026-08-14T10:12:12.540Z</time>
      </trkpt>
      <trkpt lat="45.81626" lon="6.74155">
        <ele>1498</ele>
        <time>2026-08-14T10:12:13.540Z</time>
      </trkpt>
      <trkpt lat="45.81626" lon="6.74152">
        <ele>1498</ele>
        <time>2026-08-14T10:12:14.540Z</time>
      </trkpt>
      <trkpt lat="45.81627" lon="6.74148">
        <ele>1498</ele>
        <time>2026-08-14T10:12:15.540Z</time>
      </trkpt>
      <trkpt lat="45.81627" lon="6.74144">
        <ele>1497</ele>
        <time>2026-08-14T10:12:16.540Z</time>
      </trkpt>
      <trkpt lat="45.81627" lon="6.74139">
        <ele>1497</ele>
        <time>2026-08-14T10:12:17.540Z</time>
      </trkpt>
      <trkpt lat="45.81627" lon="6.74136">
        <ele>1497</ele>
        <time>2026-08-14T10:12:18.540Z</time>
      </trkpt>
      <trkpt lat="45.81627" lon="6.74132">
        <ele>1496</ele>
        <time>2026-08-14T10:12:19.540Z</time>
      </trkpt>
      <trkpt lat="45.81627" lon="6.74128">
        <ele>1496</ele>
        <time>2026-08-14T10:12:20.540Z</time>
      </trkpt>
      <trkpt lat="45.81627" lon="6.74124">
        <ele>1495</ele>
        <time>2026-08-14T10:12:21.540Z</time>
      </trkpt>
      <trkpt lat="45.81627" lon="6.7412">
        <ele>1495</ele>
        <time>2026-08-14T10:12:22.540Z</time>
      </trkpt>
      <trkpt lat="45.81628" lon="6.74116">
        <ele>1495</ele>
        <time>2026-08-14T10:12:23.540Z</time>
      </trkpt>
      <trkpt lat="45.81628" lon="6.74112">
        <ele>1494</ele>
        <time>2026-08-14T10:12:24.540Z</time>
      </trkpt>
      <trkpt lat="45.81628" lon="6.74109">
        <ele>1493</ele>
        <time>2026-08-14T10:12:25.540Z</time>
      </trkpt>
      <trkpt lat="45.81628" lon="6.74105">
        <ele>1493</ele>
        <time>2026-08-14T10:12:26.540Z</time>
      </trkpt>
      <trkpt lat="45.81629" lon="6.74102">
        <ele>1492</ele>
        <time>2026-08-14T10:12:27.540Z</time>
      </trkpt>
      <trkpt lat="45.81629" lon="6.74098">
        <ele>1491</ele>
        <time>2026-08-14T10:12:28.540Z</time>
      </trkpt>
      <trkpt lat="45.8163" lon="6.74094">
        <ele>1491</ele>
        <time>2026-08-14T10:12:29.540Z</time>
      </trkpt>
      <trkpt lat="45.8163" lon="6.74091">
        <ele>1490</ele>
        <time>2026-08-14T10:12:30.540Z</time>
      </trkpt>
      <trkpt lat="45.81631" lon="6.74087">
        <ele>1490</ele>
        <time>2026-08-14T10:12:31.540Z</time>
      </trkpt>
      <trkpt lat="45.81632" lon="6.74083">
        <ele>1489</ele>
        <time>2026-08-14T10:12:32.540Z</time>
      </trkpt>
      <trkpt lat="45.81633" lon="6.7408">
        <ele>1489</ele>
        <time>2026-08-14T10:12:33.540Z</time>
      </trkpt>
      <trkpt lat="45.81635" lon="6.74076">
        <ele>1489</ele>
        <time>2026-08-14T10:12:34.540Z</time>
      </trkpt>
      <trkpt lat="45.81636" lon="6.74073">
        <ele>1488</ele>
        <time>2026-08-14T10:12:35.540Z</time>
      </trkpt>
      <trkpt lat="45.81638" lon="6.74069">
        <ele>1488</ele>
        <time>2026-08-14T10:12:36.540Z</time>
      </trkpt>
      <trkpt lat="45.81639" lon="6.74066">
        <ele>1488</ele>
        <time>2026-08-14T10:12:37.540Z</time>
      </trkpt>
      <trkpt lat="45.81641" lon="6.74064">
        <ele>1488</ele>
        <time>2026-08-14T10:12:38.540Z</time>
      </trkpt>
      <trkpt lat="45.81641" lon="6.74062">
        <ele>1487</ele>
        <time>2026-08-14T10:12:39.540Z</time>
      </trkpt>
      <trkpt lat="45.81642" lon="6.74061">
        <ele>1487</ele>
        <time>2026-08-14T10:12:40.540Z</time>
      </trkpt>
      <trkpt lat="45.81644" lon="6.74058">
        <ele>1487</ele>
        <time>2026-08-14T10:12:41.540Z</time>
      </trkpt>
      <trkpt lat="45.81645" lon="6.74055">
        <ele>1486</ele>
        <time>2026-08-14T10:12:42.540Z</time>
      </trkpt>
      <trkpt lat="45.81646" lon="6.74053">
        <ele>1486</ele>
        <time>2026-08-14T10:12:43.540Z</time>
      </trkpt>
      <trkpt lat="45.81647" lon="6.74051">
        <ele>1485</ele>
        <time>2026-08-14T10:12:44.540Z</time>
      </trkpt>
      <trkpt lat="45.81647" lon="6.74048">
        <ele>1485</ele>
        <time>2026-08-14T10:12:45.540Z</time>
      </trkpt>
      <trkpt lat="45.81647" lon="6.74046">
        <ele>1485</ele>
        <time>2026-08-14T10:12:46.540Z</time>
      </trkpt>
      <trkpt lat="45.81647" lon="6.74044">
        <ele>1485</ele>
        <time>2026-08-14T10:12:47.540Z</time>
      </trkpt>
      <trkpt lat="45.81647" lon="6.74041">
        <ele>1485</ele>
        <time>2026-08-14T10:12:48.540Z</time>
      </trkpt>
      <trkpt lat="45.81647" lon="6.74038">
        <ele>1485</ele>
        <time>2026-08-14T10:12:49.540Z</time>
      </trkpt>
      <trkpt lat="45.81647" lon="6.74035">
        <ele>1486</ele>
        <time>2026-08-14T10:12:50.540Z</time>
      </trkpt>
      <trkpt lat="45.81647" lon="6.74032">
        <ele>1486</ele>
        <time>2026-08-14T10:12:51.540Z</time>
      </trkpt>
      <trkpt lat="45.81646" lon="6.74029">
        <ele>1487</ele>
        <time>2026-08-14T10:12:52.540Z</time>
      </trkpt>
      <trkpt lat="45.81647" lon="6.74025">
        <ele>1487</ele>
        <time>2026-08-14T10:12:53.540Z</time>
      </trkpt>
      <trkpt lat="45.81647" lon="6.74022">
        <ele>1488</ele>
        <time>2026-08-14T10:12:54.540Z</time>
      </trkpt>
      <trkpt lat="45.81647" lon="6.74019">
        <ele>1488</ele>
        <time>2026-08-14T10:12:55.540Z</time>
      </trkpt>
      <trkpt lat="45.81647" lon="6.74016">
        <ele>1489</ele>
        <time>2026-08-14T10:12:56.540Z</time>
      </trkpt>
      <trkpt lat="45.81647" lon="6.74013">
        <ele>1489</ele>
        <time>2026-08-14T10:12:57.540Z</time>
      </trkpt>
      <trkpt lat="45.81647" lon="6.74009">
        <ele>1490</ele>
        <time>2026-08-14T10:12:58.540Z</time>
      </trkpt>
      <trkpt lat="45.81647" lon="6.74007">
        <ele>1490</ele>
        <time>2026-08-14T10:12:59.540Z</time>
      </trkpt>
      <trkpt lat="45.81647" lon="6.74004">
        <ele>1490</ele>
        <time>2026-08-14T10:13:00.540Z</time>
      </trkpt>
      <trkpt lat="45.81647" lon="6.74002">
        <ele>1490</ele>
        <time>2026-08-14T10:13:01.540Z</time>
      </trkpt>
      <trkpt lat="45.81646" lon="6.73999">
        <ele>1490</ele>
        <time>2026-08-14T10:13:02.540Z</time>
      </trkpt>
      <trkpt lat="45.81645" lon="6.73997">
        <ele>1490</ele>
        <time>2026-08-14T10:13:03.540Z</time>
      </trkpt>
      <trkpt lat="45.81644" lon="6.73995">
        <ele>1490</ele>
        <time>2026-08-14T10:13:04.540Z</time>
      </trkpt>
      <trkpt lat="45.81644" lon="6.73992">
        <ele>1490</ele>
        <time>2026-08-14T10:13:05.540Z</time>
      </trkpt>
      <trkpt lat="45.81643" lon="6.73989">
        <ele>1490</ele>
        <time>2026-08-14T10:13:06.540Z</time>
      </trkpt>
      <trkpt lat="45.81644" lon="6.73985">
        <ele>1490</ele>
        <time>2026-08-14T10:13:07.540Z</time>
      </trkpt>
      <trkpt lat="45.81644" lon="6.73981">
        <ele>1490</ele>
        <time>2026-08-14T10:13:08.540Z</time>
      </trkpt>
      <trkpt lat="45.81644" lon="6.73977">
        <ele>1490</ele>
        <time>2026-08-14T10:13:09.540Z</time>
      </trkpt>
      <trkpt lat="45.81645" lon="6.73972">
        <ele>1489</ele>
        <time>2026-08-14T10:13:10.540Z</time>
      </trkpt>
      <trkpt lat="45.81646" lon="6.73967">
        <ele>1489</ele>
        <time>2026-08-14T10:13:11.540Z</time>
      </trkpt>
      <trkpt lat="45.81647" lon="6.73963">
        <ele>1489</ele>
        <time>2026-08-14T10:13:12.540Z</time>
      </trkpt>
      <trkpt lat="45.81648" lon="6.7396">
        <ele>1488</ele>
        <time>2026-08-14T10:13:13.540Z</time>
      </trkpt>
      <trkpt lat="45.81648" lon="6.73956">
        <ele>1488</ele>
        <time>2026-08-14T10:13:14.540Z</time>
      </trkpt>
      <trkpt lat="45.8165" lon="6.73952">
        <ele>1487</ele>
        <time>2026-08-14T10:13:15.540Z</time>
      </trkpt>
      <trkpt lat="45.81651" lon="6.73949">
        <ele>1487</ele>
        <time>2026-08-14T10:13:16.540Z</time>
      </trkpt>
      <trkpt lat="45.81653" lon="6.73944">
        <ele>1486</ele>
        <time>2026-08-14T10:13:17.540Z</time>
      </trkpt>
      <trkpt lat="45.81654" lon="6.73941">
        <ele>1486</ele>
        <time>2026-08-14T10:13:18.540Z</time>
      </trkpt>
      <trkpt lat="45.81656" lon="6.73937">
        <ele>1486</ele>
        <time>2026-08-14T10:13:19.540Z</time>
      </trkpt>
      <trkpt lat="45.81657" lon="6.73934">
        <ele>1486</ele>
        <time>2026-08-14T10:13:20.540Z</time>
      </trkpt>
      <trkpt lat="45.81659" lon="6.73931">
        <ele>1486</ele>
        <time>2026-08-14T10:13:21.540Z</time>
      </trkpt>
      <trkpt lat="45.81661" lon="6.73928">
        <ele>1486</ele>
        <time>2026-08-14T10:13:22.540Z</time>
      </trkpt>
      <trkpt lat="45.81663" lon="6.73925">
        <ele>1486</ele>
        <time>2026-08-14T10:13:23.540Z</time>
      </trkpt>
      <trkpt lat="45.81666" lon="6.73923">
        <ele>1486</ele>
        <time>2026-08-14T10:13:24.540Z</time>
      </trkpt>
      <trkpt lat="45.81668" lon="6.73921">
        <ele>1487</ele>
        <time>2026-08-14T10:13:25.540Z</time>
      </trkpt>
      <trkpt lat="45.81671" lon="6.73919">
        <ele>1487</ele>
        <time>2026-08-14T10:13:26.540Z</time>
      </trkpt>
      <trkpt lat="45.81673" lon="6.73918">
        <ele>1487</ele>
        <time>2026-08-14T10:13:27.540Z</time>
      </trkpt>
      <trkpt lat="45.81676" lon="6.73916">
        <ele>1487</ele>
        <time>2026-08-14T10:13:28.540Z</time>
      </trkpt>
      <trkpt lat="45.81678" lon="6.73914">
        <ele>1488</ele>
        <time>2026-08-14T10:13:29.540Z</time>
      </trkpt>
      <trkpt lat="45.81681" lon="6.73912">
        <ele>1487</ele>
        <time>2026-08-14T10:13:30.540Z</time>
      </trkpt>
      <trkpt lat="45.81684" lon="6.7391">
        <ele>1487</ele>
        <time>2026-08-14T10:13:31.540Z</time>
      </trkpt>
      <trkpt lat="45.81686" lon="6.73908">
        <ele>1487</ele>
        <time>2026-08-14T10:13:32.540Z</time>
      </trkpt>
      <trkpt lat="45.81688" lon="6.73906">
        <ele>1487</ele>
        <time>2026-08-14T10:13:33.540Z</time>
      </trkpt>
      <trkpt lat="45.8169" lon="6.73904">
        <ele>1487</ele>
        <time>2026-08-14T10:13:34.540Z</time>
      </trkpt>
      <trkpt lat="45.81691" lon="6.73902">
        <ele>1488</ele>
        <time>2026-08-14T10:13:35.540Z</time>
      </trkpt>
      <trkpt lat="45.81692" lon="6.739">
        <ele>1488</ele>
        <time>2026-08-14T10:13:36.540Z</time>
      </trkpt>
      <trkpt lat="45.81692" lon="6.73897">
        <ele>1488</ele>
        <time>2026-08-14T10:13:37.540Z</time>
      </trkpt>
      <trkpt lat="45.81692" lon="6.73894">
        <ele>1488</ele>
        <time>2026-08-14T10:13:38.540Z</time>
      </trkpt>
      <trkpt lat="45.81693" lon="6.73892">
        <ele>1488</ele>
        <time>2026-08-14T10:13:39.540Z</time>
      </trkpt>
      <trkpt lat="45.81693" lon="6.73889">
        <ele>1488</ele>
        <time>2026-08-14T10:13:40.540Z</time>
      </trkpt>
      <trkpt lat="45.81694" lon="6.73887">
        <ele>1487</ele>
        <time>2026-08-14T10:13:41.540Z</time>
      </trkpt>
      <trkpt lat="45.81694" lon="6.73885">
        <ele>1487</ele>
        <time>2026-08-14T10:13:42.540Z</time>
      </trkpt>
      <trkpt lat="45.81693" lon="6.73883">
        <ele>1486</ele>
        <time>2026-08-14T10:13:43.540Z</time>
      </trkpt>
      <trkpt lat="45.81693" lon="6.73882">
        <ele>1486</ele>
        <time>2026-08-14T10:13:44.540Z</time>
      </trkpt>
      <trkpt lat="45.81693" lon="6.7388">
        <ele>1485</ele>
        <time>2026-08-14T10:13:45.540Z</time>
      </trkpt>
      <trkpt lat="45.81692" lon="6.73878">
        <ele>1484</ele>
        <time>2026-08-14T10:13:46.540Z</time>
      </trkpt>
      <trkpt lat="45.81691" lon="6.73877">
        <ele>1484</ele>
        <time>2026-08-14T10:13:47.540Z</time>
      </trkpt>
      <trkpt lat="45.81691" lon="6.73876">
        <ele>1483</ele>
        <time>2026-08-14T10:13:48.540Z</time>
      </trkpt>
      <trkpt lat="45.81691" lon="6.73875">
        <ele>1483</ele>
        <time>2026-08-14T10:13:49.540Z</time>
      </trkpt>
      <trkpt lat="45.81691" lon="6.73872">
        <ele>1483</ele>
        <time>2026-08-14T10:13:50.540Z</time>
      </trkpt>
      <trkpt lat="45.81692" lon="6.73869">
        <ele>1482</ele>
        <time>2026-08-14T10:13:51.540Z</time>
      </trkpt>
      <trkpt lat="45.81692" lon="6.73866">
        <ele>1482</ele>
        <time>2026-08-14T10:13:52.540Z</time>
      </trkpt>
      <trkpt lat="45.81692" lon="6.73864">
        <ele>1481</ele>
        <time>2026-08-14T10:13:53.540Z</time>
      </trkpt>
      <trkpt lat="45.81693" lon="6.73861">
        <ele>1481</ele>
        <time>2026-08-14T10:13:54.540Z</time>
      </trkpt>
      <trkpt lat="45.81693" lon="6.73858">
        <ele>1480</ele>
        <time>2026-08-14T10:13:55.540Z</time>
      </trkpt>
      <trkpt lat="45.81693" lon="6.73856">
        <ele>1479</ele>
        <time>2026-08-14T10:13:56.540Z</time>
      </trkpt>
      <trkpt lat="45.81694" lon="6.73853">
        <ele>1479</ele>
        <time>2026-08-14T10:13:57.540Z</time>
      </trkpt>
      <trkpt lat="45.81694" lon="6.7385">
        <ele>1478</ele>
        <time>2026-08-14T10:13:58.540Z</time>
      </trkpt>
      <trkpt lat="45.81693" lon="6.73848">
        <ele>1478</ele>
        <time>2026-08-14T10:13:59.540Z</time>
      </trkpt>
      <trkpt lat="45.81693" lon="6.73846">
        <ele>1478</ele>
        <time>2026-08-14T10:14:00.540Z</time>
      </trkpt>
      <trkpt lat="45.81693" lon="6.73843">
        <ele>1478</ele>
        <time>2026-08-14T10:14:01.540Z</time>
      </trkpt>
      <trkpt lat="45.81693" lon="6.7384">
        <ele>1478</ele>
        <time>2026-08-14T10:14:02.540Z</time>
      </trkpt>
      <trkpt lat="45.81694" lon="6.73837">
        <ele>1478</ele>
        <time>2026-08-14T10:14:03.540Z</time>
      </trkpt>
      <trkpt lat="45.81694" lon="6.73833">
        <ele>1477</ele>
        <time>2026-08-14T10:14:04.540Z</time>
      </trkpt>
      <trkpt lat="45.81694" lon="6.7383">
        <ele>1477</ele>
        <time>2026-08-14T10:14:05.540Z</time>
      </trkpt>
      <trkpt lat="45.81694" lon="6.73827">
        <ele>1477</ele>
        <time>2026-08-14T10:14:06.540Z</time>
      </trkpt>
      <trkpt lat="45.81693" lon="6.73825">
        <ele>1477</ele>
        <time>2026-08-14T10:14:07.540Z</time>
      </trkpt>
      <trkpt lat="45.81693" lon="6.73823">
        <ele>1477</ele>
        <time>2026-08-14T10:14:08.540Z</time>
      </trkpt>
      <trkpt lat="45.81692" lon="6.73821">
        <ele>1476</ele>
        <time>2026-08-14T10:14:09.540Z</time>
      </trkpt>
      <trkpt lat="45.81691" lon="6.73819">
        <ele>1476</ele>
        <time>2026-08-14T10:14:10.540Z</time>
      </trkpt>
      <trkpt lat="45.81691" lon="6.73817">
        <ele>1476</ele>
        <time>2026-08-14T10:14:11.540Z</time>
      </trkpt>
      <trkpt lat="45.8169" lon="6.73814">
        <ele>1476</ele>
        <time>2026-08-14T10:14:12.540Z</time>
      </trkpt>
      <trkpt lat="45.8169" lon="6.73811">
        <ele>1476</ele>
        <time>2026-08-14T10:14:13.540Z</time>
      </trkpt>
      <trkpt lat="45.8169" lon="6.73807">
        <ele>1476</ele>
        <time>2026-08-14T10:14:14.540Z</time>
      </trkpt>
      <trkpt lat="45.81691" lon="6.73803">
        <ele>1475</ele>
        <time>2026-08-14T10:14:15.540Z</time>
      </trkpt>
      <trkpt lat="45.81692" lon="6.73798">
        <ele>1475</ele>
        <time>2026-08-14T10:14:16.540Z</time>
      </trkpt>
      <trkpt lat="45.81693" lon="6.73793">
        <ele>1474</ele>
        <time>2026-08-14T10:14:17.540Z</time>
      </trkpt>
      <trkpt lat="45.81695" lon="6.73789">
        <ele>1473</ele>
        <time>2026-08-14T10:14:18.540Z</time>
      </trkpt>
      <trkpt lat="45.81696" lon="6.73784">
        <ele>1472</ele>
        <time>2026-08-14T10:14:19.540Z</time>
      </trkpt>
      <trkpt lat="45.81697" lon="6.7378">
        <ele>1471</ele>
        <time>2026-08-14T10:14:20.540Z</time>
      </trkpt>
      <trkpt lat="45.81699" lon="6.73776">
        <ele>1471</ele>
        <time>2026-08-14T10:14:21.540Z</time>
      </trkpt>
      <trkpt lat="45.817" lon="6.73772">
        <ele>1470</ele>
        <time>2026-08-14T10:14:22.540Z</time>
      </trkpt>
      <trkpt lat="45.81702" lon="6.73768">
        <ele>1469</ele>
        <time>2026-08-14T10:14:23.540Z</time>
      </trkpt>
      <trkpt lat="45.81703" lon="6.73764">
        <ele>1469</ele>
        <time>2026-08-14T10:14:24.540Z</time>
      </trkpt>
      <trkpt lat="45.81705" lon="6.73761">
        <ele>1469</ele>
        <time>2026-08-14T10:14:25.540Z</time>
      </trkpt>
      <trkpt lat="45.81706" lon="6.73757">
        <ele>1468</ele>
        <time>2026-08-14T10:14:26.540Z</time>
      </trkpt>
      <trkpt lat="45.81706" lon="6.73754">
        <ele>1468</ele>
        <time>2026-08-14T10:14:27.540Z</time>
      </trkpt>
      <trkpt lat="45.81706" lon="6.73751">
        <ele>1468</ele>
        <time>2026-08-14T10:14:28.540Z</time>
      </trkpt>
      <trkpt lat="45.81707" lon="6.73748">
        <ele>1468</ele>
        <time>2026-08-14T10:14:29.540Z</time>
      </trkpt>
      <trkpt lat="45.81707" lon="6.73746">
        <ele>1468</ele>
        <time>2026-08-14T10:14:30.540Z</time>
      </trkpt>
      <trkpt lat="45.81707" lon="6.73744">
        <ele>1468</ele>
        <time>2026-08-14T10:14:31.540Z</time>
      </trkpt>
      <trkpt lat="45.81707" lon="6.73741">
        <ele>1468</ele>
        <time>2026-08-14T10:14:32.540Z</time>
      </trkpt>
      <trkpt lat="45.81707" lon="6.73739">
        <ele>1468</ele>
        <time>2026-08-14T10:14:33.540Z</time>
      </trkpt>
      <trkpt lat="45.81708" lon="6.73737">
        <ele>1468</ele>
        <time>2026-08-14T10:14:34.540Z</time>
      </trkpt>
      <trkpt lat="45.81709" lon="6.73735">
        <ele>1468</ele>
        <time>2026-08-14T10:14:35.540Z</time>
      </trkpt>
      <trkpt lat="45.81709" lon="6.73732">
        <ele>1468</ele>
        <time>2026-08-14T10:14:36.540Z</time>
      </trkpt>
      <trkpt lat="45.8171" lon="6.73728">
        <ele>1468</ele>
        <time>2026-08-14T10:14:37.540Z</time>
      </trkpt>
      <trkpt lat="45.81712" lon="6.73725">
        <ele>1468</ele>
        <time>2026-08-14T10:14:38.540Z</time>
      </trkpt>
      <trkpt lat="45.81715" lon="6.7372">
        <ele>1468</ele>
        <time>2026-08-14T10:14:39.540Z</time>
      </trkpt>
      <trkpt lat="45.81717" lon="6.73715">
        <ele>1468</ele>
        <time>2026-08-14T10:14:40.540Z</time>
      </trkpt>
      <trkpt lat="45.81718" lon="6.73711">
        <ele>1467</ele>
        <time>2026-08-14T10:14:41.540Z</time>
      </trkpt>
      <trkpt lat="45.8172" lon="6.73707">
        <ele>1467</ele>
        <time>2026-08-14T10:14:42.540Z</time>
      </trkpt>
      <trkpt lat="45.81721" lon="6.73704">
        <ele>1466</ele>
        <time>2026-08-14T10:14:43.540Z</time>
      </trkpt>
      <trkpt lat="45.81723" lon="6.73701">
        <ele>1466</ele>
        <time>2026-08-14T10:14:44.540Z</time>
      </trkpt>
      <trkpt lat="45.81726" lon="6.73697">
        <ele>1465</ele>
        <time>2026-08-14T10:14:45.540Z</time>
      </trkpt>
      <trkpt lat="45.81728" lon="6.73694">
        <ele>1465</ele>
        <time>2026-08-14T10:14:46.540Z</time>
      </trkpt>
      <trkpt lat="45.8173" lon="6.73691">
        <ele>1465</ele>
        <time>2026-08-14T10:14:47.540Z</time>
      </trkpt>
      <trkpt lat="45.81732" lon="6.73688">
        <ele>1465</ele>
        <time>2026-08-14T10:14:48.540Z</time>
      </trkpt>
      <trkpt lat="45.81734" lon="6.73685">
        <ele>1465</ele>
        <time>2026-08-14T10:14:49.540Z</time>
      </trkpt>
      <trkpt lat="45.81736" lon="6.73681">
        <ele>1464</ele>
        <time>2026-08-14T10:14:50.540Z</time>
      </trkpt>
      <trkpt lat="45.81739" lon="6.73677">
        <ele>1464</ele>
        <time>2026-08-14T10:14:51.540Z</time>
      </trkpt>
      <trkpt lat="45.81742" lon="6.73674">
        <ele>1464</ele>
        <time>2026-08-14T10:14:52.540Z</time>
      </trkpt>
      <trkpt lat="45.81744" lon="6.73671">
        <ele>1464</ele>
        <time>2026-08-14T10:14:53.540Z</time>
      </trkpt>
      <trkpt lat="45.81745" lon="6.73669">
        <ele>1464</ele>
        <time>2026-08-14T10:14:54.540Z</time>
      </trkpt>
      <trkpt lat="45.81747" lon="6.73666">
        <ele>1464</ele>
        <time>2026-08-14T10:14:55.540Z</time>
      </trkpt>
      <trkpt lat="45.81749" lon="6.73664">
        <ele>1463</ele>
        <time>2026-08-14T10:14:56.540Z</time>
      </trkpt>
      <trkpt lat="45.81751" lon="6.73663">
        <ele>1463</ele>
        <time>2026-08-14T10:14:57.540Z</time>
      </trkpt>
      <trkpt lat="45.81753" lon="6.73661">
        <ele>1463</ele>
        <time>2026-08-14T10:14:58.540Z</time>
      </trkpt>
      <trkpt lat="45.81755" lon="6.73659">
        <ele>1463</ele>
        <time>2026-08-14T10:14:59.540Z</time>
      </trkpt>
      <trkpt lat="45.81757" lon="6.73657">
        <ele>1463</ele>
        <time>2026-08-14T10:15:00.540Z</time>
      </trkpt>
      <trkpt lat="45.81758" lon="6.73655">
        <ele>1463</ele>
        <time>2026-08-14T10:15:01.540Z</time>
      </trkpt>
      <trkpt lat="45.8176" lon="6.73655">
        <ele>1463</ele>
        <time>2026-08-14T10:15:02.540Z</time>
      </trkpt>
      <trkpt lat="45.81764" lon="6.73653">
        <ele>1463</ele>
        <time>2026-08-14T10:15:03.540Z</time>
      </trkpt>
      <trkpt lat="45.81766" lon="6.73652">
        <ele>1463</ele>
        <time>2026-08-14T10:15:04.540Z</time>
      </trkpt>
      <trkpt lat="45.81768" lon="6.73652">
        <ele>1463</ele>
        <time>2026-08-14T10:15:05.540Z</time>
      </trkpt>
      <trkpt lat="45.8177" lon="6.73652">
        <ele>1463</ele>
        <time>2026-08-14T10:15:06.540Z</time>
      </trkpt>
      <trkpt lat="45.81772" lon="6.73652">
        <ele>1463</ele>
        <time>2026-08-14T10:15:07.540Z</time>
      </trkpt>
      <trkpt lat="45.81774" lon="6.73652">
        <ele>1464</ele>
        <time>2026-08-14T10:15:08.540Z</time>
      </trkpt>
      <trkpt lat="45.81776" lon="6.73653">
        <ele>1464</ele>
        <time>2026-08-14T10:15:09.540Z</time>
      </trkpt>
      <trkpt lat="45.81778" lon="6.73654">
        <ele>1464</ele>
        <time>2026-08-14T10:15:10.540Z</time>
      </trkpt>
      <trkpt lat="45.8178" lon="6.73654">
        <ele>1465</ele>
        <time>2026-08-14T10:15:11.540Z</time>
      </trkpt>
      <trkpt lat="45.81782" lon="6.73655">
        <ele>1465</ele>
        <time>2026-08-14T10:15:12.540Z</time>
      </trkpt>
      <trkpt lat="45.81784" lon="6.73657">
        <ele>1465</ele>
        <time>2026-08-14T10:15:13.540Z</time>
      </trkpt>
      <trkpt lat="45.81786" lon="6.73658">
        <ele>1465</ele>
        <time>2026-08-14T10:15:14.540Z</time>
      </trkpt>
      <trkpt lat="45.81788" lon="6.73658">
        <ele>1465</ele>
        <time>2026-08-14T10:15:15.540Z</time>
      </trkpt>
      <trkpt lat="45.8179" lon="6.7366">
        <ele>1465</ele>
        <time>2026-08-14T10:15:16.540Z</time>
      </trkpt>
      <trkpt lat="45.81791" lon="6.73661">
        <ele>1465</ele>
        <time>2026-08-14T10:15:17.540Z</time>
      </trkpt>
      <trkpt lat="45.81793" lon="6.73663">
        <ele>1464</ele>
        <time>2026-08-14T10:15:18.540Z</time>
      </trkpt>
      <trkpt lat="45.81795" lon="6.73665">
        <ele>1464</ele>
        <time>2026-08-14T10:15:19.540Z</time>
      </trkpt>
      <trkpt lat="45.81797" lon="6.73667">
        <ele>1463</ele>
        <time>2026-08-14T10:15:20.540Z</time>
      </trkpt>
      <trkpt lat="45.81799" lon="6.73669">
        <ele>1463</ele>
        <time>2026-08-14T10:15:21.540Z</time>
      </trkpt>
      <trkpt lat="45.81801" lon="6.73671">
        <ele>1463</ele>
        <time>2026-08-14T10:15:22.540Z</time>
      </trkpt>
      <trkpt lat="45.81803" lon="6.73672">
        <ele>1462</ele>
        <time>2026-08-14T10:15:23.540Z</time>
      </trkpt>
      <trkpt lat="45.81806" lon="6.73673">
        <ele>1462</ele>
        <time>2026-08-14T10:15:24.540Z</time>
      </trkpt>
      <trkpt lat="45.81808" lon="6.73673">
        <ele>1463</ele>
        <time>2026-08-14T10:15:25.540Z</time>
      </trkpt>
      <trkpt lat="45.81811" lon="6.73674">
        <ele>1463</ele>
        <time>2026-08-14T10:15:26.540Z</time>
      </trkpt>
      <trkpt lat="45.81813" lon="6.73675">
        <ele>1463</ele>
        <time>2026-08-14T10:15:27.540Z</time>
      </trkpt>
      <trkpt lat="45.81816" lon="6.73676">
        <ele>1462</ele>
        <time>2026-08-14T10:15:28.540Z</time>
      </trkpt>
      <trkpt lat="45.81819" lon="6.73678">
        <ele>1462</ele>
        <time>2026-08-14T10:15:29.540Z</time>
      </trkpt>
      <trkpt lat="45.81821" lon="6.7368">
        <ele>1462</ele>
        <time>2026-08-14T10:15:30.540Z</time>
      </trkpt>
      <trkpt lat="45.81823" lon="6.73681">
        <ele>1462</ele>
        <time>2026-08-14T10:15:31.540Z</time>
      </trkpt>
      <trkpt lat="45.81826" lon="6.73683">
        <ele>1462</ele>
        <time>2026-08-14T10:15:32.540Z</time>
      </trkpt>
      <trkpt lat="45.81828" lon="6.73684">
        <ele>1462</ele>
        <time>2026-08-14T10:15:33.540Z</time>
      </trkpt>
      <trkpt lat="45.81831" lon="6.73685">
        <ele>1462</ele>
        <time>2026-08-14T10:15:34.540Z</time>
      </trkpt>
      <trkpt lat="45.81833" lon="6.73687">
        <ele>1462</ele>
        <time>2026-08-14T10:15:35.540Z</time>
      </trkpt>
      <trkpt lat="45.81836" lon="6.73689">
        <ele>1462</ele>
        <time>2026-08-14T10:15:36.540Z</time>
      </trkpt>
      <trkpt lat="45.81838" lon="6.73692">
        <ele>1461</ele>
        <time>2026-08-14T10:15:37.540Z</time>
      </trkpt>
      <trkpt lat="45.8184" lon="6.73694">
        <ele>1461</ele>
        <time>2026-08-14T10:15:38.540Z</time>
      </trkpt>
      <trkpt lat="45.81842" lon="6.73696">
        <ele>1460</ele>
        <time>2026-08-14T10:15:39.540Z</time>
      </trkpt>
      <trkpt lat="45.81845" lon="6.73699">
        <ele>1459</ele>
        <time>2026-08-14T10:15:40.540Z</time>
      </trkpt>
      <trkpt lat="45.81847" lon="6.73701">
        <ele>1458</ele>
        <time>2026-08-14T10:15:41.540Z</time>
      </trkpt>
      <trkpt lat="45.81849" lon="6.73703">
        <ele>1457</ele>
        <time>2026-08-14T10:15:42.540Z</time>
      </trkpt>
      <trkpt lat="45.81852" lon="6.73705">
        <ele>1456</ele>
        <time>2026-08-14T10:15:43.540Z</time>
      </trkpt>
      <trkpt lat="45.81854" lon="6.73707">
        <ele>1455</ele>
        <time>2026-08-14T10:15:44.540Z</time>
      </trkpt>
      <trkpt lat="45.81857" lon="6.73708">
        <ele>1454</ele>
        <time>2026-08-14T10:15:45.540Z</time>
      </trkpt>
      <trkpt lat="45.8186" lon="6.73709">
        <ele>1454</ele>
        <time>2026-08-14T10:15:46.540Z</time>
      </trkpt>
      <trkpt lat="45.81862" lon="6.73709">
        <ele>1453</ele>
        <time>2026-08-14T10:15:47.540Z</time>
      </trkpt>
      <trkpt lat="45.81865" lon="6.7371">
        <ele>1453</ele>
        <time>2026-08-14T10:15:48.540Z</time>
      </trkpt>
      <trkpt lat="45.81867" lon="6.7371">
        <ele>1453</ele>
        <time>2026-08-14T10:15:49.540Z</time>
      </trkpt>
      <trkpt lat="45.8187" lon="6.7371">
        <ele>1452</ele>
        <time>2026-08-14T10:15:50.540Z</time>
      </trkpt>
      <trkpt lat="45.81873" lon="6.73711">
        <ele>1452</ele>
        <time>2026-08-14T10:15:51.540Z</time>
      </trkpt>
      <trkpt lat="45.81875" lon="6.73712">
        <ele>1452</ele>
        <time>2026-08-14T10:15:52.540Z</time>
      </trkpt>
      <trkpt lat="45.81877" lon="6.73712">
        <ele>1451</ele>
        <time>2026-08-14T10:15:53.540Z</time>
      </trkpt>
      <trkpt lat="45.8188" lon="6.73714">
        <ele>1451</ele>
        <time>2026-08-14T10:15:54.540Z</time>
      </trkpt>
      <trkpt lat="45.81882" lon="6.73715">
        <ele>1451</ele>
        <time>2026-08-14T10:15:55.540Z</time>
      </trkpt>
      <trkpt lat="45.81884" lon="6.73717">
        <ele>1450</ele>
        <time>2026-08-14T10:15:56.540Z</time>
      </trkpt>
      <trkpt lat="45.81886" lon="6.73718">
        <ele>1450</ele>
        <time>2026-08-14T10:15:57.540Z</time>
      </trkpt>
      <trkpt lat="45.81888" lon="6.73719">
        <ele>1450</ele>
        <time>2026-08-14T10:15:58.540Z</time>
      </trkpt>
      <trkpt lat="45.8189" lon="6.7372">
        <ele>1450</ele>
        <time>2026-08-14T10:15:59.540Z</time>
      </trkpt>
      <trkpt lat="45.81892" lon="6.73721">
        <ele>1450</ele>
        <time>2026-08-14T10:16:00.540Z</time>
      </trkpt>
      <trkpt lat="45.81894" lon="6.73722">
        <ele>1450</ele>
        <time>2026-08-14T10:16:01.540Z</time>
      </trkpt>
      <trkpt lat="45.81896" lon="6.73723">
        <ele>1449</ele>
        <time>2026-08-14T10:16:02.540Z</time>
      </trkpt>
      <trkpt lat="45.81898" lon="6.73724">
        <ele>1449</ele>
        <time>2026-08-14T10:16:03.540Z</time>
      </trkpt>
      <trkpt lat="45.819" lon="6.73724">
        <ele>1448</ele>
        <time>2026-08-14T10:16:04.540Z</time>
      </trkpt>
      <trkpt lat="45.81902" lon="6.73725">
        <ele>1448</ele>
        <time>2026-08-14T10:16:05.540Z</time>
      </trkpt>
      <trkpt lat="45.81904" lon="6.73725">
        <ele>1447</ele>
        <time>2026-08-14T10:16:06.540Z</time>
      </trkpt>
      <trkpt lat="45.81906" lon="6.73726">
        <ele>1446</ele>
        <time>2026-08-14T10:16:07.540Z</time>
      </trkpt>
      <trkpt lat="45.81908" lon="6.73726">
        <ele>1446</ele>
        <time>2026-08-14T10:16:08.540Z</time>
      </trkpt>
      <trkpt lat="45.8191" lon="6.73727">
        <ele>1445</ele>
        <time>2026-08-14T10:16:09.540Z</time>
      </trkpt>
      <trkpt lat="45.81912" lon="6.73728">
        <ele>1445</ele>
        <time>2026-08-14T10:16:10.540Z</time>
      </trkpt>
      <trkpt lat="45.81914" lon="6.73729">
        <ele>1445</ele>
        <time>2026-08-14T10:16:11.540Z</time>
      </trkpt>
      <trkpt lat="45.81915" lon="6.73729">
        <ele>1444</ele>
        <time>2026-08-14T10:16:12.540Z</time>
      </trkpt>
      <trkpt lat="45.81917" lon="6.7373">
        <ele>1443</ele>
        <time>2026-08-14T10:16:13.540Z</time>
      </trkpt>
      <trkpt lat="45.81919" lon="6.73731">
        <ele>1442</ele>
        <time>2026-08-14T10:16:14.540Z</time>
      </trkpt>
      <trkpt lat="45.81921" lon="6.73732">
        <ele>1441</ele>
        <time>2026-08-14T10:16:15.540Z</time>
      </trkpt>
      <trkpt lat="45.81924" lon="6.73733">
        <ele>1441</ele>
        <time>2026-08-14T10:16:16.540Z</time>
      </trkpt>
      <trkpt lat="45.81926" lon="6.73733">
        <ele>1440</ele>
        <time>2026-08-14T10:16:17.540Z</time>
      </trkpt>
      <trkpt lat="45.81928" lon="6.73733">
        <ele>1439</ele>
        <time>2026-08-14T10:16:18.540Z</time>
      </trkpt>
      <trkpt lat="45.8193" lon="6.73734">
        <ele>1438</ele>
        <time>2026-08-14T10:16:19.540Z</time>
      </trkpt>
      <trkpt lat="45.81932" lon="6.73734">
        <ele>1437</ele>
        <time>2026-08-14T10:16:20.540Z</time>
      </trkpt>
      <trkpt lat="45.81934" lon="6.73734">
        <ele>1437</ele>
        <time>2026-08-14T10:16:21.540Z</time>
      </trkpt>
      <trkpt lat="45.81936" lon="6.73734">
        <ele>1436</ele>
        <time>2026-08-14T10:16:22.540Z</time>
      </trkpt>
      <trkpt lat="45.81939" lon="6.73735">
        <ele>1435</ele>
        <time>2026-08-14T10:16:23.540Z</time>
      </trkpt>
      <trkpt lat="45.81941" lon="6.73736">
        <ele>1435</ele>
        <time>2026-08-14T10:16:24.540Z</time>
      </trkpt>
      <trkpt lat="45.81944" lon="6.73737">
        <ele>1434</ele>
        <time>2026-08-14T10:16:25.540Z</time>
      </trkpt>
      <trkpt lat="45.81946" lon="6.73738">
        <ele>1433</ele>
        <time>2026-08-14T10:16:26.540Z</time>
      </trkpt>
      <trkpt lat="45.81948" lon="6.73739">
        <ele>1432</ele>
        <time>2026-08-14T10:16:27.540Z</time>
      </trkpt>
      <trkpt lat="45.81951" lon="6.7374">
        <ele>1431</ele>
        <time>2026-08-14T10:16:28.540Z</time>
      </trkpt>
      <trkpt lat="45.81953" lon="6.7374">
        <ele>1431</ele>
        <time>2026-08-14T10:16:29.540Z</time>
      </trkpt>
      <trkpt lat="45.81955" lon="6.7374">
        <ele>1430</ele>
        <time>2026-08-14T10:16:30.540Z</time>
      </trkpt>
      <trkpt lat="45.81957" lon="6.73741">
        <ele>1429</ele>
        <time>2026-08-14T10:16:31.540Z</time>
      </trkpt>
      <trkpt lat="45.8196" lon="6.73743">
        <ele>1428</ele>
        <time>2026-08-14T10:16:32.540Z</time>
      </trkpt>
      <trkpt lat="45.81962" lon="6.73743">
        <ele>1428</ele>
        <time>2026-08-14T10:16:33.540Z</time>
      </trkpt>
      <trkpt lat="45.81964" lon="6.73743">
        <ele>1428</ele>
        <time>2026-08-14T10:16:34.540Z</time>
      </trkpt>
      <trkpt lat="45.81966" lon="6.73742">
        <ele>1427</ele>
        <time>2026-08-14T10:16:35.540Z</time>
      </trkpt>
      <trkpt lat="45.81969" lon="6.73742">
        <ele>1427</ele>
        <time>2026-08-14T10:16:36.540Z</time>
      </trkpt>
      <trkpt lat="45.81971" lon="6.73742">
        <ele>1427</ele>
        <time>2026-08-14T10:16:37.540Z</time>
      </trkpt>
      <trkpt lat="45.81973" lon="6.73742">
        <ele>1427</ele>
        <time>2026-08-14T10:16:38.540Z</time>
      </trkpt>
      <trkpt lat="45.81976" lon="6.73741">
        <ele>1427</ele>
        <time>2026-08-14T10:16:39.540Z</time>
      </trkpt>
      <trkpt lat="45.81978" lon="6.7374">
        <ele>1427</ele>
        <time>2026-08-14T10:16:40.540Z</time>
      </trkpt>
      <trkpt lat="45.8198" lon="6.73739">
        <ele>1427</ele>
        <time>2026-08-14T10:16:41.540Z</time>
      </trkpt>
      <trkpt lat="45.81982" lon="6.73737">
        <ele>1426</ele>
        <time>2026-08-14T10:16:42.540Z</time>
      </trkpt>
      <trkpt lat="45.81985" lon="6.73736">
        <ele>1426</ele>
        <time>2026-08-14T10:16:43.540Z</time>
      </trkpt>
      <trkpt lat="45.81987" lon="6.73736">
        <ele>1426</ele>
        <time>2026-08-14T10:16:44.540Z</time>
      </trkpt>
      <trkpt lat="45.81989" lon="6.73735">
        <ele>1426</ele>
        <time>2026-08-14T10:16:45.540Z</time>
      </trkpt>
      <trkpt lat="45.81991" lon="6.73734">
        <ele>1426</ele>
        <time>2026-08-14T10:16:46.540Z</time>
      </trkpt>
      <trkpt lat="45.81992" lon="6.73732">
        <ele>1426</ele>
        <time>2026-08-14T10:16:47.540Z</time>
      </trkpt>
      <trkpt lat="45.81994" lon="6.73731">
        <ele>1426</ele>
        <time>2026-08-14T10:16:48.540Z</time>
      </trkpt>
      <trkpt lat="45.81996" lon="6.7373">
        <ele>1426</ele>
        <time>2026-08-14T10:16:49.540Z</time>
      </trkpt>
      <trkpt lat="45.81998" lon="6.73729">
        <ele>1425</ele>
        <time>2026-08-14T10:16:50.540Z</time>
      </trkpt>
      <trkpt lat="45.82001" lon="6.7373">
        <ele>1425</ele>
        <time>2026-08-14T10:16:51.540Z</time>
      </trkpt>
      <trkpt lat="45.82004" lon="6.7373">
        <ele>1424</ele>
        <time>2026-08-14T10:16:52.540Z</time>
      </trkpt>
      <trkpt lat="45.82007" lon="6.7373">
        <ele>1424</ele>
        <time>2026-08-14T10:16:53.540Z</time>
      </trkpt>
      <trkpt lat="45.82009" lon="6.7373">
        <ele>1423</ele>
        <time>2026-08-14T10:16:54.540Z</time>
      </trkpt>
      <trkpt lat="45.82011" lon="6.7373">
        <ele>1423</ele>
        <time>2026-08-14T10:16:55.540Z</time>
      </trkpt>
      <trkpt lat="45.82013" lon="6.7373">
        <ele>1422</ele>
        <time>2026-08-14T10:16:56.540Z</time>
      </trkpt>
      <trkpt lat="45.82015" lon="6.73729">
        <ele>1421</ele>
        <time>2026-08-14T10:16:57.540Z</time>
      </trkpt>
      <trkpt lat="45.82017" lon="6.73727">
        <ele>1421</ele>
        <time>2026-08-14T10:16:58.540Z</time>
      </trkpt>
      <trkpt lat="45.8202" lon="6.73726">
        <ele>1420</ele>
        <time>2026-08-14T10:16:59.540Z</time>
      </trkpt>
      <trkpt lat="45.82022" lon="6.73724">
        <ele>1420</ele>
        <time>2026-08-14T10:17:00.540Z</time>
      </trkpt>
      <trkpt lat="45.82024" lon="6.73722">
        <ele>1419</ele>
        <time>2026-08-14T10:17:01.540Z</time>
      </trkpt>
      <trkpt lat="45.82027" lon="6.73721">
        <ele>1418</ele>
        <time>2026-08-14T10:17:02.540Z</time>
      </trkpt>
      <trkpt lat="45.82029" lon="6.73719">
        <ele>1418</ele>
        <time>2026-08-14T10:17:03.540Z</time>
      </trkpt>
      <trkpt lat="45.8203" lon="6.73717">
        <ele>1417</ele>
        <time>2026-08-14T10:17:04.540Z</time>
      </trkpt>
      <trkpt lat="45.82032" lon="6.73715">
        <ele>1417</ele>
        <time>2026-08-14T10:17:05.540Z</time>
      </trkpt>
      <trkpt lat="45.82034" lon="6.73713">
        <ele>1416</ele>
        <time>2026-08-14T10:17:06.540Z</time>
      </trkpt>
      <trkpt lat="45.82036" lon="6.73712">
        <ele>1416</ele>
        <time>2026-08-14T10:17:07.540Z</time>
      </trkpt>
      <trkpt lat="45.82037" lon="6.73712">
        <ele>1415</ele>
        <time>2026-08-14T10:17:08.540Z</time>
      </trkpt>
      <trkpt lat="45.82039" lon="6.73711">
        <ele>1414</ele>
        <time>2026-08-14T10:17:09.540Z</time>
      </trkpt>
      <trkpt lat="45.8204" lon="6.73709">
        <ele>1413</ele>
        <time>2026-08-14T10:17:10.540Z</time>
      </trkpt>
      <trkpt lat="45.82041" lon="6.73708">
        <ele>1412</ele>
        <time>2026-08-14T10:17:11.540Z</time>
      </trkpt>
      <trkpt lat="45.82042" lon="6.73707">
        <ele>1411</ele>
        <time>2026-08-14T10:17:12.540Z</time>
      </trkpt>
      <trkpt lat="45.82044" lon="6.73706">
        <ele>1410</ele>
        <time>2026-08-14T10:17:13.540Z</time>
      </trkpt>
      <trkpt lat="45.82045" lon="6.73704">
        <ele>1409</ele>
        <time>2026-08-14T10:17:14.540Z</time>
      </trkpt>
      <trkpt lat="45.82046" lon="6.73703">
        <ele>1408</ele>
        <time>2026-08-14T10:17:15.540Z</time>
      </trkpt>
      <trkpt lat="45.82048" lon="6.73702">
        <ele>1407</ele>
        <time>2026-08-14T10:17:16.540Z</time>
      </trkpt>
      <trkpt lat="45.8205" lon="6.73701">
        <ele>1407</ele>
        <time>2026-08-14T10:17:17.540Z</time>
      </trkpt>
      <trkpt lat="45.82052" lon="6.73699">
        <ele>1406</ele>
        <time>2026-08-14T10:17:18.540Z</time>
      </trkpt>
      <trkpt lat="45.82053" lon="6.73699">
        <ele>1406</ele>
        <time>2026-08-14T10:17:19.540Z</time>
      </trkpt>
      <trkpt lat="45.82055" lon="6.73698">
        <ele>1405</ele>
        <time>2026-08-14T10:17:20.540Z</time>
      </trkpt>
      <trkpt lat="45.82056" lon="6.73697">
        <ele>1405</ele>
        <time>2026-08-14T10:17:21.540Z</time>
      </trkpt>
      <trkpt lat="45.82057" lon="6.73695">
        <ele>1405</ele>
        <time>2026-08-14T10:17:22.540Z</time>
      </trkpt>
      <trkpt lat="45.82059" lon="6.73694">
        <ele>1404</ele>
        <time>2026-08-14T10:17:23.540Z</time>
      </trkpt>
      <trkpt lat="45.8206" lon="6.73693">
        <ele>1404</ele>
        <time>2026-08-14T10:17:24.540Z</time>
      </trkpt>
      <trkpt lat="45.82062" lon="6.73692">
        <ele>1404</ele>
        <time>2026-08-14T10:17:25.540Z</time>
      </trkpt>
      <trkpt lat="45.82064" lon="6.73691">
        <ele>1403</ele>
        <time>2026-08-14T10:17:26.540Z</time>
      </trkpt>
      <trkpt lat="45.82066" lon="6.73691">
        <ele>1402</ele>
        <time>2026-08-14T10:17:27.540Z</time>
      </trkpt>
      <trkpt lat="45.82068" lon="6.73691">
        <ele>1402</ele>
        <time>2026-08-14T10:17:28.540Z</time>
      </trkpt>
      <trkpt lat="45.82069" lon="6.73691">
        <ele>1401</ele>
        <time>2026-08-14T10:17:29.540Z</time>
      </trkpt>
      <trkpt lat="45.8207" lon="6.73691">
        <ele>1401</ele>
        <time>2026-08-14T10:17:30.540Z</time>
      </trkpt>
      <trkpt lat="45.82071" lon="6.73691">
        <ele>1400</ele>
        <time>2026-08-14T10:17:31.540Z</time>
      </trkpt>
      <trkpt lat="45.82073" lon="6.7369">
        <ele>1400</ele>
        <time>2026-08-14T10:17:32.540Z</time>
      </trkpt>
      <trkpt lat="45.82074" lon="6.7369">
        <ele>1399</ele>
        <time>2026-08-14T10:17:33.540Z</time>
      </trkpt>
      <trkpt lat="45.82075" lon="6.73689">
        <ele>1399</ele>
        <time>2026-08-14T10:17:34.540Z</time>
      </trkpt>
      <trkpt lat="45.82076" lon="6.73688">
        <ele>1398</ele>
        <time>2026-08-14T10:17:35.540Z</time>
      </trkpt>
      <trkpt lat="45.82078" lon="6.73687">
        <ele>1398</ele>
        <time>2026-08-14T10:17:36.540Z</time>
      </trkpt>
      <trkpt lat="45.82079" lon="6.73686">
        <ele>1398</ele>
        <time>2026-08-14T10:17:37.540Z</time>
      </trkpt>
      <trkpt lat="45.82079" lon="6.73687">
        <ele>1397</ele>
        <time>2026-08-14T10:17:38.540Z</time>
      </trkpt>
      <trkpt lat="45.8208" lon="6.73687">
        <ele>1397</ele>
        <time>2026-08-14T10:17:39.540Z</time>
      </trkpt>
      <trkpt lat="45.82083" lon="6.73686">
        <ele>1397</ele>
        <time>2026-08-14T10:17:40.540Z</time>
      </trkpt>
      <trkpt lat="45.82085" lon="6.73685">
        <ele>1397</ele>
        <time>2026-08-14T10:17:41.540Z</time>
      </trkpt>
      <trkpt lat="45.82086" lon="6.73685">
        <ele>1397</ele>
        <time>2026-08-14T10:17:42.540Z</time>
      </trkpt>
      <trkpt lat="45.82088" lon="6.73684">
        <ele>1397</ele>
        <time>2026-08-14T10:17:43.540Z</time>
      </trkpt>
      <trkpt lat="45.82089" lon="6.73684">
        <ele>1397</ele>
        <time>2026-08-14T10:17:44.540Z</time>
      </trkpt>
      <trkpt lat="45.82091" lon="6.73683">
        <ele>1397</ele>
        <time>2026-08-14T10:17:45.540Z</time>
      </trkpt>
      <trkpt lat="45.82093" lon="6.73683">
        <ele>1397</ele>
        <time>2026-08-14T10:17:46.540Z</time>
      </trkpt>
      <trkpt lat="45.82094" lon="6.73682">
        <ele>1396</ele>
        <time>2026-08-14T10:17:47.540Z</time>
      </trkpt>
      <trkpt lat="45.82096" lon="6.73681">
        <ele>1397</ele>
        <time>2026-08-14T10:17:48.540Z</time>
      </trkpt>
      <trkpt lat="45.82098" lon="6.7368">
        <ele>1397</ele>
        <time>2026-08-14T10:17:49.540Z</time>
      </trkpt>
      <trkpt lat="45.821" lon="6.73679">
        <ele>1397</ele>
        <time>2026-08-14T10:17:50.540Z</time>
      </trkpt>
      <trkpt lat="45.82101" lon="6.73678">
        <ele>1397</ele>
        <time>2026-08-14T10:17:51.540Z</time>
      </trkpt>
      <trkpt lat="45.82102" lon="6.73678">
        <ele>1398</ele>
        <time>2026-08-14T10:17:52.540Z</time>
      </trkpt>
      <trkpt lat="45.82103" lon="6.73677">
        <ele>1398</ele>
        <time>2026-08-14T10:17:53.540Z</time>
      </trkpt>
      <trkpt lat="45.82104" lon="6.73677">
        <ele>1398</ele>
        <time>2026-08-14T10:17:54.540Z</time>
      </trkpt>
      <trkpt lat="45.82104" lon="6.73677">
        <ele>1397</ele>
        <time>2026-08-14T10:17:55.540Z</time>
      </trkpt>
      <trkpt lat="45.82105" lon="6.73678">
        <ele>1396</ele>
        <time>2026-08-14T10:17:56.540Z</time>
      </trkpt>
      <trkpt lat="45.82106" lon="6.73678">
        <ele>1395</ele>
        <time>2026-08-14T10:17:57.540Z</time>
      </trkpt>
      <trkpt lat="45.82107" lon="6.73678">
        <ele>1394</ele>
        <time>2026-08-14T10:17:58.540Z</time>
      </trkpt>
      <trkpt lat="45.82108" lon="6.73678">
        <ele>1394</ele>
        <time>2026-08-14T10:17:59.540Z</time>
      </trkpt>
      <trkpt lat="45.8211" lon="6.73678">
        <ele>1393</ele>
        <time>2026-08-14T10:18:00.540Z</time>
      </trkpt>
      <trkpt lat="45.82111" lon="6.73678">
        <ele>1393</ele>
        <time>2026-08-14T10:18:01.540Z</time>
      </trkpt>
      <trkpt lat="45.82113" lon="6.73678">
        <ele>1392</ele>
        <time>2026-08-14T10:18:02.540Z</time>
      </trkpt>
      <trkpt lat="45.82115" lon="6.73677">
        <ele>1392</ele>
        <time>2026-08-14T10:18:03.540Z</time>
      </trkpt>
      <trkpt lat="45.82116" lon="6.73676">
        <ele>1391</ele>
        <time>2026-08-14T10:18:04.540Z</time>
      </trkpt>
      <trkpt lat="45.82118" lon="6.73676">
        <ele>1391</ele>
        <time>2026-08-14T10:18:05.540Z</time>
      </trkpt>
      <trkpt lat="45.82119" lon="6.73677">
        <ele>1390</ele>
        <time>2026-08-14T10:18:06.540Z</time>
      </trkpt>
      <trkpt lat="45.82121" lon="6.73677">
        <ele>1390</ele>
        <time>2026-08-14T10:18:07.540Z</time>
      </trkpt>
      <trkpt lat="45.82122" lon="6.73676">
        <ele>1390</ele>
        <time>2026-08-14T10:18:08.540Z</time>
      </trkpt>
      <trkpt lat="45.82124" lon="6.73676">
        <ele>1389</ele>
        <time>2026-08-14T10:18:09.540Z</time>
      </trkpt>
      <trkpt lat="45.82125" lon="6.73675">
        <ele>1389</ele>
        <time>2026-08-14T10:18:10.540Z</time>
      </trkpt>
      <trkpt lat="45.82126" lon="6.73674">
        <ele>1389</ele>
        <time>2026-08-14T10:18:11.540Z</time>
      </trkpt>
      <trkpt lat="45.82128" lon="6.73673">
        <ele>1388</ele>
        <time>2026-08-14T10:18:12.540Z</time>
      </trkpt>
      <trkpt lat="45.8213" lon="6.73673">
        <ele>1388</ele>
        <time>2026-08-14T10:18:13.540Z</time>
      </trkpt>
      <trkpt lat="45.82132" lon="6.73672">
        <ele>1388</ele>
        <time>2026-08-14T10:18:14.540Z</time>
      </trkpt>
      <trkpt lat="45.82133" lon="6.73671">
        <ele>1388</ele>
        <time>2026-08-14T10:18:15.540Z</time>
      </trkpt>
      <trkpt lat="45.82135" lon="6.7367">
        <ele>1388</ele>
        <time>2026-08-14T10:18:16.540Z</time>
      </trkpt>
      <trkpt lat="45.82138" lon="6.73669">
        <ele>1388</ele>
        <time>2026-08-14T10:18:17.540Z</time>
      </trkpt>
      <trkpt lat="45.8214" lon="6.73669">
        <ele>1388</ele>
        <time>2026-08-14T10:18:18.540Z</time>
      </trkpt>
      <trkpt lat="45.82143" lon="6.73669">
        <ele>1387</ele>
        <time>2026-08-14T10:18:19.540Z</time>
      </trkpt>
      <trkpt lat="45.82145" lon="6.73669">
        <ele>1387</ele>
        <time>2026-08-14T10:18:20.540Z</time>
      </trkpt>
      <trkpt lat="45.82147" lon="6.73668">
        <ele>1387</ele>
        <time>2026-08-14T10:18:21.540Z</time>
      </trkpt>
      <trkpt lat="45.82149" lon="6.73669">
        <ele>1386</ele>
        <time>2026-08-14T10:18:22.540Z</time>
      </trkpt>
      <trkpt lat="45.82152" lon="6.73669">
        <ele>1386</ele>
        <time>2026-08-14T10:18:23.540Z</time>
      </trkpt>
      <trkpt lat="45.82154" lon="6.73669">
        <ele>1386</ele>
        <time>2026-08-14T10:18:24.540Z</time>
      </trkpt>
      <trkpt lat="45.82156" lon="6.73668">
        <ele>1385</ele>
        <time>2026-08-14T10:18:25.540Z</time>
      </trkpt>
      <trkpt lat="45.82158" lon="6.73668">
        <ele>1385</ele>
        <time>2026-08-14T10:18:26.540Z</time>
      </trkpt>
      <trkpt lat="45.82161" lon="6.73668">
        <ele>1385</ele>
        <time>2026-08-14T10:18:27.540Z</time>
      </trkpt>
      <trkpt lat="45.82163" lon="6.73667">
        <ele>1384</ele>
        <time>2026-08-14T10:18:28.540Z</time>
      </trkpt>
      <trkpt lat="45.82165" lon="6.73667">
        <ele>1384</ele>
        <time>2026-08-14T10:18:29.540Z</time>
      </trkpt>
      <trkpt lat="45.82167" lon="6.73667">
        <ele>1383</ele>
        <time>2026-08-14T10:18:30.540Z</time>
      </trkpt>
      <trkpt lat="45.82168" lon="6.73667">
        <ele>1382</ele>
        <time>2026-08-14T10:18:31.540Z</time>
      </trkpt>
      <trkpt lat="45.8217" lon="6.73668">
        <ele>1381</ele>
        <time>2026-08-14T10:18:32.540Z</time>
      </trkpt>
      <trkpt lat="45.82172" lon="6.73669">
        <ele>1380</ele>
        <time>2026-08-14T10:18:33.540Z</time>
      </trkpt>
      <trkpt lat="45.82173" lon="6.7367">
        <ele>1378</ele>
        <time>2026-08-14T10:18:34.540Z</time>
      </trkpt>
      <trkpt lat="45.82175" lon="6.73671">
        <ele>1377</ele>
        <time>2026-08-14T10:18:35.540Z</time>
      </trkpt>
      <trkpt lat="45.82176" lon="6.73673">
        <ele>1376</ele>
        <time>2026-08-14T10:18:36.540Z</time>
      </trkpt>
      <trkpt lat="45.82178" lon="6.73675">
        <ele>1375</ele>
        <time>2026-08-14T10:18:37.540Z</time>
      </trkpt>
      <trkpt lat="45.8218" lon="6.73678">
        <ele>1374</ele>
        <time>2026-08-14T10:18:38.540Z</time>
      </trkpt>
      <trkpt lat="45.82182" lon="6.73682">
        <ele>1373</ele>
        <time>2026-08-14T10:18:39.540Z</time>
      </trkpt>
      <trkpt lat="45.82184" lon="6.73687">
        <ele>1371</ele>
        <time>2026-08-14T10:18:40.540Z</time>
      </trkpt>
      <trkpt lat="45.82186" lon="6.73693">
        <ele>1369</ele>
        <time>2026-08-14T10:18:41.540Z</time>
      </trkpt>
      <trkpt lat="45.82187" lon="6.73697">
        <ele>1368</ele>
        <time>2026-08-14T10:18:42.540Z</time>
      </trkpt>
      <trkpt lat="45.82188" lon="6.73701">
        <ele>1367</ele>
        <time>2026-08-14T10:18:43.540Z</time>
      </trkpt>
      <trkpt lat="45.82189" lon="6.73704">
        <ele>1366</ele>
        <time>2026-08-14T10:18:44.540Z</time>
      </trkpt>
      <trkpt lat="45.8219" lon="6.73707">
        <ele>1364</ele>
        <time>2026-08-14T10:18:45.540Z</time>
      </trkpt>
      <trkpt lat="45.82191" lon="6.7371">
        <ele>1363</ele>
        <time>2026-08-14T10:18:46.540Z</time>
      </trkpt>
      <trkpt lat="45.82193" lon="6.73714">
        <ele>1362</ele>
        <time>2026-08-14T10:18:47.540Z</time>
      </trkpt>
      <trkpt lat="45.82195" lon="6.73718">
        <ele>1361</ele>
        <time>2026-08-14T10:18:48.540Z</time>
      </trkpt>
      <trkpt lat="45.82196" lon="6.7372">
        <ele>1360</ele>
        <time>2026-08-14T10:18:49.540Z</time>
      </trkpt>
      <trkpt lat="45.82198" lon="6.73723">
        <ele>1359</ele>
        <time>2026-08-14T10:18:50.540Z</time>
      </trkpt>
      <trkpt lat="45.822" lon="6.73725">
        <ele>1359</ele>
        <time>2026-08-14T10:18:51.540Z</time>
      </trkpt>
      <trkpt lat="45.82202" lon="6.73728">
        <ele>1358</ele>
        <time>2026-08-14T10:18:52.540Z</time>
      </trkpt>
      <trkpt lat="45.82203" lon="6.7373">
        <ele>1358</ele>
        <time>2026-08-14T10:18:53.540Z</time>
      </trkpt>
      <trkpt lat="45.82205" lon="6.73732">
        <ele>1357</ele>
        <time>2026-08-14T10:18:54.540Z</time>
      </trkpt>
      <trkpt lat="45.82206" lon="6.73734">
        <ele>1357</ele>
        <time>2026-08-14T10:18:55.540Z</time>
      </trkpt>
      <trkpt lat="45.82208" lon="6.73737">
        <ele>1357</ele>
        <time>2026-08-14T10:18:56.540Z</time>
      </trkpt>
      <trkpt lat="45.8221" lon="6.7374">
        <ele>1356</ele>
        <time>2026-08-14T10:18:57.540Z</time>
      </trkpt>
      <trkpt lat="45.82212" lon="6.73744">
        <ele>1356</ele>
        <time>2026-08-14T10:18:58.540Z</time>
      </trkpt>
      <trkpt lat="45.82213" lon="6.73746">
        <ele>1355</ele>
        <time>2026-08-14T10:18:59.540Z</time>
      </trkpt>
      <trkpt lat="45.82215" lon="6.73748">
        <ele>1355</ele>
        <time>2026-08-14T10:19:00.540Z</time>
      </trkpt>
      <trkpt lat="45.82217" lon="6.7375">
        <ele>1355</ele>
        <time>2026-08-14T10:19:01.540Z</time>
      </trkpt>
      <trkpt lat="45.82218" lon="6.73752">
        <ele>1354</ele>
        <time>2026-08-14T10:19:02.540Z</time>
      </trkpt>
      <trkpt lat="45.8222" lon="6.73754">
        <ele>1354</ele>
        <time>2026-08-14T10:19:03.540Z</time>
      </trkpt>
      <trkpt lat="45.82222" lon="6.73755">
        <ele>1354</ele>
        <time>2026-08-14T10:19:04.540Z</time>
      </trkpt>
      <trkpt lat="45.82223" lon="6.73757">
        <ele>1353</ele>
        <time>2026-08-14T10:19:05.540Z</time>
      </trkpt>
      <trkpt lat="45.82224" lon="6.73759">
        <ele>1353</ele>
        <time>2026-08-14T10:19:06.540Z</time>
      </trkpt>
      <trkpt lat="45.82225" lon="6.73762">
        <ele>1353</ele>
        <time>2026-08-14T10:19:07.540Z</time>
      </trkpt>
      <trkpt lat="45.82227" lon="6.73764">
        <ele>1353</ele>
        <time>2026-08-14T10:19:08.540Z</time>
      </trkpt>
      <trkpt lat="45.82228" lon="6.73765">
        <ele>1353</ele>
        <time>2026-08-14T10:19:09.540Z</time>
      </trkpt>
      <trkpt lat="45.82229" lon="6.73766">
        <ele>1353</ele>
        <time>2026-08-14T10:19:10.540Z</time>
      </trkpt>
      <trkpt lat="45.8223" lon="6.73768">
        <ele>1353</ele>
        <time>2026-08-14T10:19:11.540Z</time>
      </trkpt>
      <trkpt lat="45.82231" lon="6.7377">
        <ele>1353</ele>
        <time>2026-08-14T10:19:12.540Z</time>
      </trkpt>
      <trkpt lat="45.82233" lon="6.73772">
        <ele>1353</ele>
        <time>2026-08-14T10:19:13.540Z</time>
      </trkpt>
      <trkpt lat="45.82234" lon="6.73774">
        <ele>1353</ele>
        <time>2026-08-14T10:19:14.540Z</time>
      </trkpt>
      <trkpt lat="45.82235" lon="6.73776">
        <ele>1352</ele>
        <time>2026-08-14T10:19:15.540Z</time>
      </trkpt>
      <trkpt lat="45.82237" lon="6.73778">
        <ele>1352</ele>
        <time>2026-08-14T10:19:16.540Z</time>
      </trkpt>
      <trkpt lat="45.82238" lon="6.7378">
        <ele>1352</ele>
        <time>2026-08-14T10:19:17.540Z</time>
      </trkpt>
      <trkpt lat="45.8224" lon="6.73782">
        <ele>1352</ele>
        <time>2026-08-14T10:19:18.540Z</time>
      </trkpt>
      <trkpt lat="45.82241" lon="6.73785">
        <ele>1351</ele>
        <time>2026-08-14T10:19:19.540Z</time>
      </trkpt>
      <trkpt lat="45.82242" lon="6.73788">
        <ele>1351</ele>
        <time>2026-08-14T10:19:20.540Z</time>
      </trkpt>
      <trkpt lat="45.82244" lon="6.73791">
        <ele>1350</ele>
        <time>2026-08-14T10:19:21.540Z</time>
      </trkpt>
      <trkpt lat="45.82245" lon="6.73793">
        <ele>1350</ele>
        <time>2026-08-14T10:19:22.540Z</time>
      </trkpt>
      <trkpt lat="45.82246" lon="6.73796">
        <ele>1351</ele>
        <time>2026-08-14T10:19:23.540Z</time>
      </trkpt>
      <trkpt lat="45.82248" lon="6.73798">
        <ele>1351</ele>
        <time>2026-08-14T10:19:24.540Z</time>
      </trkpt>
      <trkpt lat="45.82249" lon="6.738">
        <ele>1351</ele>
        <time>2026-08-14T10:19:25.540Z</time>
      </trkpt>
      <trkpt lat="45.82251" lon="6.73802">
        <ele>1351</ele>
        <time>2026-08-14T10:19:26.540Z</time>
      </trkpt>
      <trkpt lat="45.82252" lon="6.73805">
        <ele>1351</ele>
        <time>2026-08-14T10:19:27.540Z</time>
      </trkpt>
      <trkpt lat="45.82254" lon="6.73807">
        <ele>1351</ele>
        <time>2026-08-14T10:19:28.540Z</time>
      </trkpt>
      <trkpt lat="45.82255" lon="6.7381">
        <ele>1351</ele>
        <time>2026-08-14T10:19:29.540Z</time>
      </trkpt>
      <trkpt lat="45.82256" lon="6.73813">
        <ele>1350</ele>
        <time>2026-08-14T10:19:30.540Z</time>
      </trkpt>
      <trkpt lat="45.82257" lon="6.73816">
        <ele>1350</ele>
        <time>2026-08-14T10:19:31.540Z</time>
      </trkpt>
      <trkpt lat="45.82258" lon="6.7382">
        <ele>1350</ele>
        <time>2026-08-14T10:19:32.540Z</time>
      </trkpt>
      <trkpt lat="45.82259" lon="6.73823">
        <ele>1350</ele>
        <time>2026-08-14T10:19:33.540Z</time>
      </trkpt>
      <trkpt lat="45.82259" lon="6.73827">
        <ele>1350</ele>
        <time>2026-08-14T10:19:34.540Z</time>
      </trkpt>
      <trkpt lat="45.8226" lon="6.73831">
        <ele>1349</ele>
        <time>2026-08-14T10:19:35.540Z</time>
      </trkpt>
      <trkpt lat="45.8226" lon="6.73834">
        <ele>1349</ele>
        <time>2026-08-14T10:19:36.540Z</time>
      </trkpt>
      <trkpt lat="45.82261" lon="6.73837">
        <ele>1349</ele>
        <time>2026-08-14T10:19:37.540Z</time>
      </trkpt>
      <trkpt lat="45.82262" lon="6.7384">
        <ele>1349</ele>
        <time>2026-08-14T10:19:38.540Z</time>
      </trkpt>
      <trkpt lat="45.82264" lon="6.73844">
        <ele>1349</ele>
        <time>2026-08-14T10:19:39.540Z</time>
      </trkpt>
      <trkpt lat="45.82265" lon="6.73847">
        <ele>1349</ele>
        <time>2026-08-14T10:19:40.540Z</time>
      </trkpt>
      <trkpt lat="45.82266" lon="6.7385">
        <ele>1349</ele>
        <time>2026-08-14T10:19:41.540Z</time>
      </trkpt>
      <trkpt lat="45.82267" lon="6.73854">
        <ele>1349</ele>
        <time>2026-08-14T10:19:42.540Z</time>
      </trkpt>
      <trkpt lat="45.82268" lon="6.73857">
        <ele>1349</ele>
        <time>2026-08-14T10:19:43.540Z</time>
      </trkpt>
      <trkpt lat="45.82269" lon="6.73861">
        <ele>1349</ele>
        <time>2026-08-14T10:19:44.540Z</time>
      </trkpt>
      <trkpt lat="45.8227" lon="6.73866">
        <ele>1350</ele>
        <time>2026-08-14T10:19:45.540Z</time>
      </trkpt>
      <trkpt lat="45.82271" lon="6.73869">
        <ele>1350</ele>
        <time>2026-08-14T10:19:46.540Z</time>
      </trkpt>
      <trkpt lat="45.82272" lon="6.73873">
        <ele>1350</ele>
        <time>2026-08-14T10:19:47.540Z</time>
      </trkpt>
      <trkpt lat="45.82273" lon="6.73877">
        <ele>1350</ele>
        <time>2026-08-14T10:19:48.540Z</time>
      </trkpt>
      <trkpt lat="45.82275" lon="6.7388">
        <ele>1350</ele>
        <time>2026-08-14T10:19:49.540Z</time>
      </trkpt>
      <trkpt lat="45.82276" lon="6.73883">
        <ele>1350</ele>
        <time>2026-08-14T10:19:50.540Z</time>
      </trkpt>
      <trkpt lat="45.82277" lon="6.73886">
        <ele>1350</ele>
        <time>2026-08-14T10:19:51.540Z</time>
      </trkpt>
      <trkpt lat="45.82277" lon="6.73889">
        <ele>1350</ele>
        <time>2026-08-14T10:19:52.540Z</time>
      </trkpt>
      <trkpt lat="45.82278" lon="6.73892">
        <ele>1350</ele>
        <time>2026-08-14T10:19:53.540Z</time>
      </trkpt>
      <trkpt lat="45.82279" lon="6.73895">
        <ele>1349</ele>
        <time>2026-08-14T10:19:54.540Z</time>
      </trkpt>
      <trkpt lat="45.8228" lon="6.73898">
        <ele>1349</ele>
        <time>2026-08-14T10:19:55.540Z</time>
      </trkpt>
      <trkpt lat="45.82281" lon="6.73901">
        <ele>1349</ele>
        <time>2026-08-14T10:19:56.540Z</time>
      </trkpt>
      <trkpt lat="45.82281" lon="6.73904">
        <ele>1348</ele>
        <time>2026-08-14T10:19:57.540Z</time>
      </trkpt>
      <trkpt lat="45.82282" lon="6.73907">
        <ele>1348</ele>
        <time>2026-08-14T10:19:58.540Z</time>
      </trkpt>
      <trkpt lat="45.82282" lon="6.73911">
        <ele>1347</ele>
        <time>2026-08-14T10:19:59.540Z</time>
      </trkpt>
      <trkpt lat="45.82283" lon="6.73914">
        <ele>1346</ele>
        <time>2026-08-14T10:20:00.540Z</time>
      </trkpt>
      <trkpt lat="45.82283" lon="6.73918">
        <ele>1346</ele>
        <time>2026-08-14T10:20:01.540Z</time>
      </trkpt>
      <trkpt lat="45.82284" lon="6.73921">
        <ele>1346</ele>
        <time>2026-08-14T10:20:02.540Z</time>
      </trkpt>
      <trkpt lat="45.82285" lon="6.73925">
        <ele>1346</ele>
        <time>2026-08-14T10:20:03.540Z</time>
      </trkpt>
      <trkpt lat="45.82286" lon="6.73928">
        <ele>1347</ele>
        <time>2026-08-14T10:20:04.540Z</time>
      </trkpt>
      <trkpt lat="45.82287" lon="6.73931">
        <ele>1347</ele>
        <time>2026-08-14T10:20:05.540Z</time>
      </trkpt>
      <trkpt lat="45.82288" lon="6.73933">
        <ele>1348</ele>
        <time>2026-08-14T10:20:06.540Z</time>
      </trkpt>
      <trkpt lat="45.82289" lon="6.73936">
        <ele>1348</ele>
        <time>2026-08-14T10:20:07.540Z</time>
      </trkpt>
      <trkpt lat="45.8229" lon="6.73939">
        <ele>1349</ele>
        <time>2026-08-14T10:20:08.540Z</time>
      </trkpt>
      <trkpt lat="45.82291" lon="6.73942">
        <ele>1349</ele>
        <time>2026-08-14T10:20:09.540Z</time>
      </trkpt>
      <trkpt lat="45.82292" lon="6.73946">
        <ele>1349</ele>
        <time>2026-08-14T10:20:10.540Z</time>
      </trkpt>
      <trkpt lat="45.82293" lon="6.73949">
        <ele>1349</ele>
        <time>2026-08-14T10:20:11.540Z</time>
      </trkpt>
      <trkpt lat="45.82294" lon="6.73951">
        <ele>1349</ele>
        <time>2026-08-14T10:20:12.540Z</time>
      </trkpt>
      <trkpt lat="45.82294" lon="6.73952">
        <ele>1348</ele>
        <time>2026-08-14T10:20:13.540Z</time>
      </trkpt>
      <trkpt lat="45.82294" lon="6.73954">
        <ele>1348</ele>
        <time>2026-08-14T10:20:14.540Z</time>
      </trkpt>
      <trkpt lat="45.82295" lon="6.73955">
        <ele>1348</ele>
        <time>2026-08-14T10:20:15.540Z</time>
      </trkpt>
      <trkpt lat="45.82295" lon="6.73956">
        <ele>1348</ele>
        <time>2026-08-14T10:20:16.540Z</time>
      </trkpt>
      <trkpt lat="45.82295" lon="6.73957">
        <ele>1348</ele>
        <time>2026-08-14T10:20:17.540Z</time>
      </trkpt>
      <trkpt lat="45.82295" lon="6.73957">
        <ele>1348</ele>
        <time>2026-08-14T10:20:18.540Z</time>
      </trkpt>
      <trkpt lat="45.82295" lon="6.73958">
        <ele>1348</ele>
        <time>2026-08-14T10:20:19.540Z</time>
      </trkpt>
      <trkpt lat="45.82296" lon="6.73959">
        <ele>1348</ele>
        <time>2026-08-14T10:20:20.540Z</time>
      </trkpt>
      <trkpt lat="45.82296" lon="6.7396">
        <ele>1348</ele>
        <time>2026-08-14T10:20:21.540Z</time>
      </trkpt>
      <trkpt lat="45.82297" lon="6.73961">
        <ele>1348</ele>
        <time>2026-08-14T10:20:22.540Z</time>
      </trkpt>
      <trkpt lat="45.82297" lon="6.73961">
        <ele>1348</ele>
        <time>2026-08-14T10:20:23.540Z</time>
      </trkpt>
      <trkpt lat="45.82296" lon="6.73961">
        <ele>1348</ele>
        <time>2026-08-14T10:20:24.540Z</time>
      </trkpt>
      <trkpt lat="45.82295" lon="6.73961">
        <ele>1349</ele>
        <time>2026-08-14T10:20:25.540Z</time>
      </trkpt>
      <trkpt lat="45.82294" lon="6.7396">
        <ele>1349</ele>
        <time>2026-08-14T10:20:26.540Z</time>
      </trkpt>
      <trkpt lat="45.82293" lon="6.7396">
        <ele>1349</ele>
        <time>2026-08-14T10:20:27.540Z</time>
      </trkpt>
      <trkpt lat="45.82293" lon="6.7396">
        <ele>1349</ele>
        <time>2026-08-14T10:20:28.540Z</time>
      </trkpt>
      <trkpt lat="45.82292" lon="6.7396">
        <ele>1350</ele>
        <time>2026-08-14T10:20:29.540Z</time>
      </trkpt>
      <trkpt lat="45.82293" lon="6.7396">
        <ele>1350</ele>
        <time>2026-08-14T10:20:30.540Z</time>
      </trkpt>
      <trkpt lat="45.82293" lon="6.7396">
        <ele>1350</ele>
        <time>2026-08-14T10:20:31.540Z</time>
      </trkpt>
      <trkpt lat="45.82293" lon="6.7396">
        <ele>1351</ele>
        <time>2026-08-14T10:20:32.540Z</time>
      </trkpt>
      <trkpt lat="45.82293" lon="6.7396">
        <ele>1351</ele>
        <time>2026-08-14T10:20:33.540Z</time>
      </trkpt>
      <trkpt lat="45.82293" lon="6.73961">
        <ele>1351</ele>
        <time>2026-08-14T10:20:34.540Z</time>
      </trkpt>
      <trkpt lat="45.82293" lon="6.73961">
        <ele>1351</ele>
        <time>2026-08-14T10:20:35.540Z</time>
      </trkpt>
      <trkpt lat="45.82293" lon="6.73961">
        <ele>1351</ele>
        <time>2026-08-14T10:20:36.540Z</time>
      </trkpt>
      <trkpt lat="45.82293" lon="6.73961">
        <ele>1352</ele>
        <time>2026-08-14T10:20:37.540Z</time>
      </trkpt>
      <trkpt lat="45.82293" lon="6.73961">
        <ele>1352</ele>
        <time>2026-08-14T10:20:38.540Z</time>
      </trkpt>
      <trkpt lat="45.82293" lon="6.73961">
        <ele>1352</ele>
        <time>2026-08-14T10:20:39.540Z</time>
      </trkpt>
      <trkpt lat="45.82293" lon="6.73961">
        <ele>1353</ele>
        <time>2026-08-14T10:20:40.540Z</time>
      </trkpt>
      <trkpt lat="45.82293" lon="6.73961">
        <ele>1353</ele>
        <time>2026-08-14T10:20:41.540Z</time>
      </trkpt>
      <trkpt lat="45.82293" lon="6.73961">
        <ele>1353</ele>
        <time>2026-08-14T10:20:42.540Z</time>
      </trkpt>
      <trkpt lat="45.82293" lon="6.73961">
        <ele>1353</ele>
        <time>2026-08-14T10:20:43.540Z</time>
      </trkpt>
      <trkpt lat="45.82293" lon="6.73961">
        <ele>1353</ele>
        <time>2026-08-14T10:20:44.540Z</time>
      </trkpt>
      <trkpt lat="45.82294" lon="6.73961">
        <ele>1354</ele>
        <time>2026-08-14T10:20:45.540Z</time>
      </trkpt>
      <trkpt lat="45.82295" lon="6.73962">
        <ele>1354</ele>
        <time>2026-08-14T10:20:46.540Z</time>
      </trkpt>
      <trkpt lat="45.82296" lon="6.73964">
        <ele>1354</ele>
        <time>2026-08-14T10:20:47.540Z</time>
      </trkpt>
      <trkpt lat="45.82297" lon="6.73966">
        <ele>1355</ele>
        <time>2026-08-14T10:20:48.540Z</time>
      </trkpt>
      <trkpt lat="45.82298" lon="6.73968">
        <ele>1355</ele>
        <time>2026-08-14T10:20:49.540Z</time>
      </trkpt>
      <trkpt lat="45.82299" lon="6.73969">
        <ele>1355</ele>
        <time>2026-08-14T10:20:50.540Z</time>
      </trkpt>
      <trkpt lat="45.823" lon="6.73971">
        <ele>1355</ele>
        <time>2026-08-14T10:20:51.540Z</time>
      </trkpt>
      <trkpt lat="45.823" lon="6.73973">
        <ele>1355</ele>
        <time>2026-08-14T10:20:52.540Z</time>
      </trkpt>
      <trkpt lat="45.823" lon="6.73974">
        <ele>1355</ele>
        <time>2026-08-14T10:20:53.540Z</time>
      </trkpt>
      <trkpt lat="45.82301" lon="6.73976">
        <ele>1355</ele>
        <time>2026-08-14T10:20:54.540Z</time>
      </trkpt>
      <trkpt lat="45.823" lon="6.73979">
        <ele>1355</ele>
        <time>2026-08-14T10:20:57.540Z</time>
      </trkpt>
      <trkpt lat="45.82301" lon="6.73979">
        <ele>1355</ele>
        <time>2026-08-14T10:20:58.540Z</time>
      </trkpt>
      <trkpt lat="45.82301" lon="6.73978">
        <ele>1355</ele>
        <time>2026-08-14T10:20:59.540Z</time>
      </trkpt>
      <trkpt lat="45.82302" lon="6.73979">
        <ele>1355</ele>
        <time>2026-08-14T10:21:00.540Z</time>
      </trkpt>
      <trkpt lat="45.82302" lon="6.73979">
        <ele>1355</ele>
        <time>2026-08-14T10:21:01.540Z</time>
      </trkpt>
      <trkpt lat="45.82303" lon="6.7398">
        <ele>1355</ele>
        <time>2026-08-14T10:21:02.540Z</time>
      </trkpt>
      <trkpt lat="45.82302" lon="6.73981">
        <ele>1356</ele>
        <time>2026-08-14T10:21:03.540Z</time>
      </trkpt>
      <trkpt lat="45.82302" lon="6.73981">
        <ele>1356</ele>
        <time>2026-08-14T10:21:04.540Z</time>
      </trkpt>
      <trkpt lat="45.82302" lon="6.73981">
        <ele>1357</ele>
        <time>2026-08-14T10:21:05.540Z</time>
      </trkpt>
      <trkpt lat="45.82301" lon="6.73982">
        <ele>1357</ele>
        <time>2026-08-14T10:21:06.540Z</time>
      </trkpt>
      <trkpt lat="45.82302" lon="6.73983">
        <ele>1358</ele>
        <time>2026-08-14T10:21:07.540Z</time>
      </trkpt>
      <trkpt lat="45.82302" lon="6.73984">
        <ele>1358</ele>
        <time>2026-08-14T10:21:08.540Z</time>
      </trkpt>
      <trkpt lat="45.82302" lon="6.73985">
        <ele>1359</ele>
        <time>2026-08-14T10:21:09.540Z</time>
      </trkpt>
      <trkpt lat="45.82303" lon="6.73986">
        <ele>1360</ele>
        <time>2026-08-14T10:21:10.540Z</time>
      </trkpt>
      <trkpt lat="45.82303" lon="6.73987">
        <ele>1360</ele>
        <time>2026-08-14T10:21:11.540Z</time>
      </trkpt>
      <trkpt lat="45.82303" lon="6.73988">
        <ele>1361</ele>
        <time>2026-08-14T10:21:12.540Z</time>
      </trkpt>
      <trkpt lat="45.82303" lon="6.73989">
        <ele>1361</ele>
        <time>2026-08-14T10:21:13.540Z</time>
      </trkpt>
      <trkpt lat="45.82303" lon="6.7399">
        <ele>1361</ele>
        <time>2026-08-14T10:21:14.540Z</time>
      </trkpt>
      <trkpt lat="45.82304" lon="6.7399">
        <ele>1362</ele>
        <time>2026-08-14T10:21:15.540Z</time>
      </trkpt>
      <trkpt lat="45.82304" lon="6.73992">
        <ele>1362</ele>
        <time>2026-08-14T10:21:16.540Z</time>
      </trkpt>
      <trkpt lat="45.82305" lon="6.73991">
        <ele>1363</ele>
        <time>2026-08-14T10:21:17.540Z</time>
      </trkpt>
      <trkpt lat="45.82306" lon="6.73991">
        <ele>1363</ele>
        <time>2026-08-14T10:21:18.540Z</time>
      </trkpt>
      <trkpt lat="45.82307" lon="6.73992">
        <ele>1364</ele>
        <time>2026-08-14T10:21:19.540Z</time>
      </trkpt>
      <trkpt lat="45.82309" lon="6.73994">
        <ele>1364</ele>
        <time>2026-08-14T10:21:20.540Z</time>
      </trkpt>
      <trkpt lat="45.8231" lon="6.73997">
        <ele>1365</ele>
        <time>2026-08-14T10:21:21.540Z</time>
      </trkpt>
      <trkpt lat="45.82312" lon="6.73999">
        <ele>1365</ele>
        <time>2026-08-14T10:21:22.540Z</time>
      </trkpt>
      <trkpt lat="45.82313" lon="6.74">
        <ele>1366</ele>
        <time>2026-08-14T10:21:23.540Z</time>
      </trkpt>
      <trkpt lat="45.82314" lon="6.74002">
        <ele>1366</ele>
        <time>2026-08-14T10:21:24.540Z</time>
      </trkpt>
      <trkpt lat="45.82315" lon="6.74003">
        <ele>1366</ele>
        <time>2026-08-14T10:21:25.540Z</time>
      </trkpt>
      <trkpt lat="45.82315" lon="6.74003">
        <ele>1366</ele>
        <time>2026-08-14T10:21:26.540Z</time>
      </trkpt>
      <trkpt lat="45.82315" lon="6.74004">
        <ele>1366</ele>
        <time>2026-08-14T10:21:27.540Z</time>
      </trkpt>
      <trkpt lat="45.82315" lon="6.74004">
        <ele>1366</ele>
        <time>2026-08-14T10:21:28.540Z</time>
      </trkpt>
      <trkpt lat="45.82315" lon="6.74005">
        <ele>1366</ele>
        <time>2026-08-14T10:21:29.540Z</time>
      </trkpt>
      <trkpt lat="45.82314" lon="6.74005">
        <ele>1367</ele>
        <time>2026-08-14T10:21:30.540Z</time>
      </trkpt>
      <trkpt lat="45.82313" lon="6.74005">
        <ele>1367</ele>
        <time>2026-08-14T10:21:31.540Z</time>
      </trkpt>
      <trkpt lat="45.82313" lon="6.74006">
        <ele>1367</ele>
        <time>2026-08-14T10:21:32.540Z</time>
      </trkpt>
      <trkpt lat="45.82313" lon="6.74007">
        <ele>1367</ele>
        <time>2026-08-14T10:21:33.540Z</time>
      </trkpt>
      <trkpt lat="45.82313" lon="6.74008">
        <ele>1367</ele>
        <time>2026-08-14T10:21:34.540Z</time>
      </trkpt>
      <trkpt lat="45.82313" lon="6.74009">
        <ele>1368</ele>
        <time>2026-08-14T10:21:35.540Z</time>
      </trkpt>
      <trkpt lat="45.82313" lon="6.7401">
        <ele>1368</ele>
        <time>2026-08-14T10:21:36.540Z</time>
      </trkpt>
      <trkpt lat="45.82312" lon="6.7401">
        <ele>1368</ele>
        <time>2026-08-14T10:21:37.540Z</time>
      </trkpt>
      <trkpt lat="45.82312" lon="6.74011">
        <ele>1369</ele>
        <time>2026-08-14T10:21:38.540Z</time>
      </trkpt>
      <trkpt lat="45.82312" lon="6.74012">
        <ele>1369</ele>
        <time>2026-08-14T10:21:39.540Z</time>
      </trkpt>
      <trkpt lat="45.82313" lon="6.74014">
        <ele>1369</ele>
        <time>2026-08-14T10:21:40.540Z</time>
      </trkpt>
      <trkpt lat="45.82313" lon="6.74016">
        <ele>1369</ele>
        <time>2026-08-14T10:21:41.540Z</time>
      </trkpt>
      <trkpt lat="45.82313" lon="6.74017">
        <ele>1369</ele>
        <time>2026-08-14T10:21:42.540Z</time>
      </trkpt>
      <trkpt lat="45.82313" lon="6.74019">
        <ele>1369</ele>
        <time>2026-08-14T10:21:43.540Z</time>
      </trkpt>
      <trkpt lat="45.82313" lon="6.7402">
        <ele>1369</ele>
        <time>2026-08-14T10:21:44.540Z</time>
      </trkpt>
      <trkpt lat="45.82314" lon="6.74022">
        <ele>1369</ele>
        <time>2026-08-14T10:21:45.540Z</time>
      </trkpt>
      <trkpt lat="45.82316" lon="6.74024">
        <ele>1370</ele>
        <time>2026-08-14T10:21:46.540Z</time>
      </trkpt>
      <trkpt lat="45.82317" lon="6.74026">
        <ele>1370</ele>
        <time>2026-08-14T10:21:47.540Z</time>
      </trkpt>
      <trkpt lat="45.82318" lon="6.74028">
        <ele>1370</ele>
        <time>2026-08-14T10:21:48.540Z</time>
      </trkpt>
      <trkpt lat="45.82319" lon="6.7403">
        <ele>1370</ele>
        <time>2026-08-14T10:21:49.540Z</time>
      </trkpt>
      <trkpt lat="45.8232" lon="6.74031">
        <ele>1370</ele>
        <time>2026-08-14T10:21:50.540Z</time>
      </trkpt>
      <trkpt lat="45.82321" lon="6.74033">
        <ele>1370</ele>
        <time>2026-08-14T10:21:51.540Z</time>
      </trkpt>
      <trkpt lat="45.82322" lon="6.74034">
        <ele>1370</ele>
        <time>2026-08-14T10:21:52.540Z</time>
      </trkpt>
      <trkpt lat="45.82322" lon="6.74035">
        <ele>1370</ele>
        <time>2026-08-14T10:21:53.540Z</time>
      </trkpt>
      <trkpt lat="45.82323" lon="6.74037">
        <ele>1370</ele>
        <time>2026-08-14T10:21:54.540Z</time>
      </trkpt>
      <trkpt lat="45.82324" lon="6.74038">
        <ele>1371</ele>
        <time>2026-08-14T10:21:55.540Z</time>
      </trkpt>
      <trkpt lat="45.82325" lon="6.74039">
        <ele>1371</ele>
        <time>2026-08-14T10:21:56.540Z</time>
      </trkpt>
      <trkpt lat="45.82326" lon="6.74041">
        <ele>1372</ele>
        <time>2026-08-14T10:21:57.540Z</time>
      </trkpt>
      <trkpt lat="45.82326" lon="6.74042">
        <ele>1373</ele>
        <time>2026-08-14T10:21:58.540Z</time>
      </trkpt>
      <trkpt lat="45.82327" lon="6.74044">
        <ele>1373</ele>
        <time>2026-08-14T10:21:59.540Z</time>
      </trkpt>
      <trkpt lat="45.82328" lon="6.74045">
        <ele>1374</ele>
        <time>2026-08-14T10:22:00.540Z</time>
      </trkpt>
      <trkpt lat="45.82329" lon="6.74047">
        <ele>1374</ele>
        <time>2026-08-14T10:22:01.540Z</time>
      </trkpt>
      <trkpt lat="45.8233" lon="6.74048">
        <ele>1375</ele>
        <time>2026-08-14T10:22:02.540Z</time>
      </trkpt>
      <trkpt lat="45.82331" lon="6.7405">
        <ele>1375</ele>
        <time>2026-08-14T10:22:03.540Z</time>
      </trkpt>
      <trkpt lat="45.82331" lon="6.74051">
        <ele>1375</ele>
        <time>2026-08-14T10:22:04.540Z</time>
      </trkpt>
      <trkpt lat="45.82332" lon="6.74053">
        <ele>1376</ele>
        <time>2026-08-14T10:22:05.540Z</time>
      </trkpt>
      <trkpt lat="45.82332" lon="6.74054">
        <ele>1376</ele>
        <time>2026-08-14T10:22:06.540Z</time>
      </trkpt>
      <trkpt lat="45.82333" lon="6.74056">
        <ele>1376</ele>
        <time>2026-08-14T10:22:07.540Z</time>
      </trkpt>
      <trkpt lat="45.82333" lon="6.74058">
        <ele>1376</ele>
        <time>2026-08-14T10:22:08.540Z</time>
      </trkpt>
      <trkpt lat="45.82334" lon="6.7406">
        <ele>1377</ele>
        <time>2026-08-14T10:22:09.540Z</time>
      </trkpt>
      <trkpt lat="45.82335" lon="6.74062">
        <ele>1377</ele>
        <time>2026-08-14T10:22:10.540Z</time>
      </trkpt>
      <trkpt lat="45.82336" lon="6.74064">
        <ele>1376</ele>
        <time>2026-08-14T10:22:11.540Z</time>
      </trkpt>
      <trkpt lat="45.82338" lon="6.74066">
        <ele>1376</ele>
        <time>2026-08-14T10:22:12.540Z</time>
      </trkpt>
      <trkpt lat="45.82339" lon="6.74068">
        <ele>1376</ele>
        <time>2026-08-14T10:22:13.540Z</time>
      </trkpt>
      <trkpt lat="45.8234" lon="6.7407">
        <ele>1376</ele>
        <time>2026-08-14T10:22:14.540Z</time>
      </trkpt>
      <trkpt lat="45.8234" lon="6.74072">
        <ele>1376</ele>
        <time>2026-08-14T10:22:15.540Z</time>
      </trkpt>
      <trkpt lat="45.8234" lon="6.74074">
        <ele>1377</ele>
        <time>2026-08-14T10:22:16.540Z</time>
      </trkpt>
      <trkpt lat="45.82341" lon="6.74076">
        <ele>1377</ele>
        <time>2026-08-14T10:22:17.540Z</time>
      </trkpt>
      <trkpt lat="45.82342" lon="6.74079">
        <ele>1377</ele>
        <time>2026-08-14T10:22:18.540Z</time>
      </trkpt>
      <trkpt lat="45.82343" lon="6.74081">
        <ele>1377</ele>
        <time>2026-08-14T10:22:19.540Z</time>
      </trkpt>
      <trkpt lat="45.82343" lon="6.74083">
        <ele>1376</ele>
        <time>2026-08-14T10:22:20.540Z</time>
      </trkpt>
      <trkpt lat="45.82344" lon="6.74085">
        <ele>1376</ele>
        <time>2026-08-14T10:22:21.540Z</time>
      </trkpt>
      <trkpt lat="45.82344" lon="6.74086">
        <ele>1376</ele>
        <time>2026-08-14T10:22:22.540Z</time>
      </trkpt>
      <trkpt lat="45.82344" lon="6.74088">
        <ele>1376</ele>
        <time>2026-08-14T10:22:23.540Z</time>
      </trkpt>
      <trkpt lat="45.82345" lon="6.7409">
        <ele>1375</ele>
        <time>2026-08-14T10:22:24.540Z</time>
      </trkpt>
      <trkpt lat="45.82345" lon="6.74093">
        <ele>1375</ele>
        <time>2026-08-14T10:22:25.540Z</time>
      </trkpt>
      <trkpt lat="45.82346" lon="6.74095">
        <ele>1375</ele>
        <time>2026-08-14T10:22:26.540Z</time>
      </trkpt>
      <trkpt lat="45.82345" lon="6.74097">
        <ele>1374</ele>
        <time>2026-08-14T10:22:27.540Z</time>
      </trkpt>
      <trkpt lat="45.82345" lon="6.74098">
        <ele>1374</ele>
        <time>2026-08-14T10:22:28.540Z</time>
      </trkpt>
      <trkpt lat="45.82345" lon="6.741">
        <ele>1374</ele>
        <time>2026-08-14T10:22:29.540Z</time>
      </trkpt>
      <trkpt lat="45.82345" lon="6.74102">
        <ele>1374</ele>
        <time>2026-08-14T10:22:30.540Z</time>
      </trkpt>
      <trkpt lat="45.82345" lon="6.74103">
        <ele>1375</ele>
        <time>2026-08-14T10:22:31.540Z</time>
      </trkpt>
      <trkpt lat="45.82346" lon="6.74105">
        <ele>1375</ele>
        <time>2026-08-14T10:22:32.540Z</time>
      </trkpt>
      <trkpt lat="45.82346" lon="6.74106">
        <ele>1376</ele>
        <time>2026-08-14T10:22:33.540Z</time>
      </trkpt>
      <trkpt lat="45.82346" lon="6.74108">
        <ele>1377</ele>
        <time>2026-08-14T10:22:34.540Z</time>
      </trkpt>
      <trkpt lat="45.82346" lon="6.74109">
        <ele>1377</ele>
        <time>2026-08-14T10:22:35.540Z</time>
      </trkpt>
      <trkpt lat="45.82347" lon="6.74111">
        <ele>1378</ele>
        <time>2026-08-14T10:22:36.540Z</time>
      </trkpt>
      <trkpt lat="45.82347" lon="6.74112">
        <ele>1379</ele>
        <time>2026-08-14T10:22:37.540Z</time>
      </trkpt>
      <trkpt lat="45.82347" lon="6.74114">
        <ele>1379</ele>
        <time>2026-08-14T10:22:38.540Z</time>
      </trkpt>
      <trkpt lat="45.82347" lon="6.74116">
        <ele>1380</ele>
        <time>2026-08-14T10:22:39.540Z</time>
      </trkpt>
      <trkpt lat="45.82347" lon="6.74118">
        <ele>1380</ele>
        <time>2026-08-14T10:22:40.540Z</time>
      </trkpt>
      <trkpt lat="45.82346" lon="6.74119">
        <ele>1381</ele>
        <time>2026-08-14T10:22:41.540Z</time>
      </trkpt>
      <trkpt lat="45.82347" lon="6.74121">
        <ele>1381</ele>
        <time>2026-08-14T10:22:42.540Z</time>
      </trkpt>
      <trkpt lat="45.82347" lon="6.74122">
        <ele>1381</ele>
        <time>2026-08-14T10:22:43.540Z</time>
      </trkpt>
      <trkpt lat="45.82348" lon="6.74123">
        <ele>1382</ele>
        <time>2026-08-14T10:22:44.540Z</time>
      </trkpt>
      <trkpt lat="45.82348" lon="6.74124">
        <ele>1382</ele>
        <time>2026-08-14T10:22:45.540Z</time>
      </trkpt>
      <trkpt lat="45.82348" lon="6.74126">
        <ele>1382</ele>
        <time>2026-08-14T10:22:46.540Z</time>
      </trkpt>
      <trkpt lat="45.82349" lon="6.74127">
        <ele>1383</ele>
        <time>2026-08-14T10:22:47.540Z</time>
      </trkpt>
      <trkpt lat="45.8235" lon="6.74129">
        <ele>1383</ele>
        <time>2026-08-14T10:22:48.540Z</time>
      </trkpt>
      <trkpt lat="45.8235" lon="6.7413">
        <ele>1383</ele>
        <time>2026-08-14T10:22:49.540Z</time>
      </trkpt>
      <trkpt lat="45.82351" lon="6.74132">
        <ele>1383</ele>
        <time>2026-08-14T10:22:50.540Z</time>
      </trkpt>
      <trkpt lat="45.82351" lon="6.74132">
        <ele>1383</ele>
        <time>2026-08-14T10:22:51.540Z</time>
      </trkpt>
      <trkpt lat="45.82351" lon="6.74134">
        <ele>1383</ele>
        <time>2026-08-14T10:22:52.540Z</time>
      </trkpt>
      <trkpt lat="45.82351" lon="6.74134">
        <ele>1382</ele>
        <time>2026-08-14T10:22:53.540Z</time>
      </trkpt>
      <trkpt lat="45.82352" lon="6.74135">
        <ele>1382</ele>
        <time>2026-08-14T10:22:54.540Z</time>
      </trkpt>
      <trkpt lat="45.82353" lon="6.74136">
        <ele>1382</ele>
        <time>2026-08-14T10:22:55.540Z</time>
      </trkpt>
      <trkpt lat="45.82354" lon="6.74138">
        <ele>1382</ele>
        <time>2026-08-14T10:22:56.540Z</time>
      </trkpt>
      <trkpt lat="45.82355" lon="6.74139">
        <ele>1381</ele>
        <time>2026-08-14T10:22:57.540Z</time>
      </trkpt>
      <trkpt lat="45.82355" lon="6.7414">
        <ele>1381</ele>
        <time>2026-08-14T10:22:58.540Z</time>
      </trkpt>
      <trkpt lat="45.82356" lon="6.74142">
        <ele>1380</ele>
        <time>2026-08-14T10:22:59.540Z</time>
      </trkpt>
      <trkpt lat="45.82356" lon="6.74143">
        <ele>1380</ele>
        <time>2026-08-14T10:23:00.540Z</time>
      </trkpt>
      <trkpt lat="45.82356" lon="6.74144">
        <ele>1380</ele>
        <time>2026-08-14T10:23:01.540Z</time>
      </trkpt>
      <trkpt lat="45.82356" lon="6.74145">
        <ele>1380</ele>
        <time>2026-08-14T10:23:02.540Z</time>
      </trkpt>
      <trkpt lat="45.82356" lon="6.74146">
        <ele>1379</ele>
        <time>2026-08-14T10:23:03.540Z</time>
      </trkpt>
      <trkpt lat="45.82356" lon="6.74148">
        <ele>1380</ele>
        <time>2026-08-14T10:23:04.540Z</time>
      </trkpt>
      <trkpt lat="45.82356" lon="6.74148">
        <ele>1380</ele>
        <time>2026-08-14T10:23:05.540Z</time>
      </trkpt>
      <trkpt lat="45.82357" lon="6.74149">
        <ele>1380</ele>
        <time>2026-08-14T10:23:06.540Z</time>
      </trkpt>
      <trkpt lat="45.82358" lon="6.7415">
        <ele>1381</ele>
        <time>2026-08-14T10:23:07.540Z</time>
      </trkpt>
      <trkpt lat="45.82359" lon="6.74151">
        <ele>1381</ele>
        <time>2026-08-14T10:23:08.540Z</time>
      </trkpt>
      <trkpt lat="45.82359" lon="6.74152">
        <ele>1382</ele>
        <time>2026-08-14T10:23:09.540Z</time>
      </trkpt>
      <trkpt lat="45.8236" lon="6.74153">
        <ele>1383</ele>
        <time>2026-08-14T10:23:10.540Z</time>
      </trkpt>
      <trkpt lat="45.8236" lon="6.74155">
        <ele>1383</ele>
        <time>2026-08-14T10:23:11.540Z</time>
      </trkpt>
      <trkpt lat="45.8236" lon="6.74156">
        <ele>1383</ele>
        <time>2026-08-14T10:23:12.540Z</time>
      </trkpt>
      <trkpt lat="45.82361" lon="6.74158">
        <ele>1383</ele>
        <time>2026-08-14T10:23:13.540Z</time>
      </trkpt>
      <trkpt lat="45.8236" lon="6.74158">
        <ele>1384</ele>
        <time>2026-08-14T10:23:14.540Z</time>
      </trkpt>
      <trkpt lat="45.82361" lon="6.7416">
        <ele>1384</ele>
        <time>2026-08-14T10:23:15.540Z</time>
      </trkpt>
      <trkpt lat="45.82361" lon="6.7416">
        <ele>1384</ele>
        <time>2026-08-14T10:23:16.540Z</time>
      </trkpt>
      <trkpt lat="45.82362" lon="6.74162">
        <ele>1384</ele>
        <time>2026-08-14T10:23:17.540Z</time>
      </trkpt>
      <trkpt lat="45.82361" lon="6.74164">
        <ele>1385</ele>
        <time>2026-08-14T10:23:18.540Z</time>
      </trkpt>
      <trkpt lat="45.8236" lon="6.74166">
        <ele>1385</ele>
        <time>2026-08-14T10:23:19.540Z</time>
      </trkpt>
      <trkpt lat="45.8236" lon="6.74168">
        <ele>1385</ele>
        <time>2026-08-14T10:23:20.540Z</time>
      </trkpt>
      <trkpt lat="45.8236" lon="6.74169">
        <ele>1386</ele>
        <time>2026-08-14T10:23:21.540Z</time>
      </trkpt>
      <trkpt lat="45.8236" lon="6.7417">
        <ele>1386</ele>
        <time>2026-08-14T10:23:22.540Z</time>
      </trkpt>
      <trkpt lat="45.82361" lon="6.74171">
        <ele>1387</ele>
        <time>2026-08-14T10:23:23.540Z</time>
      </trkpt>
      <trkpt lat="45.8236" lon="6.74171">
        <ele>1387</ele>
        <time>2026-08-14T10:23:24.540Z</time>
      </trkpt>
      <trkpt lat="45.8236" lon="6.74171">
        <ele>1388</ele>
        <time>2026-08-14T10:23:25.540Z</time>
      </trkpt>
      <trkpt lat="45.8236" lon="6.74172">
        <ele>1388</ele>
        <time>2026-08-14T10:23:26.540Z</time>
      </trkpt>
      <trkpt lat="45.82359" lon="6.74173">
        <ele>1389</ele>
        <time>2026-08-14T10:23:27.540Z</time>
      </trkpt>
      <trkpt lat="45.82359" lon="6.74174">
        <ele>1389</ele>
        <time>2026-08-14T10:23:28.540Z</time>
      </trkpt>
      <trkpt lat="45.82359" lon="6.74174">
        <ele>1390</ele>
        <time>2026-08-14T10:23:29.540Z</time>
      </trkpt>
      <trkpt lat="45.8236" lon="6.74175">
        <ele>1390</ele>
        <time>2026-08-14T10:23:30.540Z</time>
      </trkpt>
      <trkpt lat="45.8236" lon="6.74176">
        <ele>1390</ele>
        <time>2026-08-14T10:23:31.540Z</time>
      </trkpt>
      <trkpt lat="45.82361" lon="6.74177">
        <ele>1391</ele>
        <time>2026-08-14T10:23:32.540Z</time>
      </trkpt>
      <trkpt lat="45.82361" lon="6.74178">
        <ele>1391</ele>
        <time>2026-08-14T10:23:33.540Z</time>
      </trkpt>
      <trkpt lat="45.82361" lon="6.7418">
        <ele>1392</ele>
        <time>2026-08-14T10:23:34.540Z</time>
      </trkpt>
      <trkpt lat="45.82361" lon="6.74181">
        <ele>1393</ele>
        <time>2026-08-14T10:23:35.540Z</time>
      </trkpt>
      <trkpt lat="45.82362" lon="6.74182">
        <ele>1393</ele>
        <time>2026-08-14T10:23:36.540Z</time>
      </trkpt>
      <trkpt lat="45.82362" lon="6.74183">
        <ele>1393</ele>
        <time>2026-08-14T10:23:37.540Z</time>
      </trkpt>
      <trkpt lat="45.82362" lon="6.74184">
        <ele>1394</ele>
        <time>2026-08-14T10:23:38.540Z</time>
      </trkpt>
      <trkpt lat="45.82362" lon="6.74185">
        <ele>1394</ele>
        <time>2026-08-14T10:23:39.540Z</time>
      </trkpt>
      <trkpt lat="45.82362" lon="6.74187">
        <ele>1394</ele>
        <time>2026-08-14T10:23:40.540Z</time>
      </trkpt>
      <trkpt lat="45.82362" lon="6.74188">
        <ele>1395</ele>
        <time>2026-08-14T10:23:41.540Z</time>
      </trkpt>
      <trkpt lat="45.82362" lon="6.74189">
        <ele>1395</ele>
        <time>2026-08-14T10:23:42.540Z</time>
      </trkpt>
      <trkpt lat="45.82363" lon="6.7419">
        <ele>1396</ele>
        <time>2026-08-14T10:23:43.540Z</time>
      </trkpt>
      <trkpt lat="45.82364" lon="6.74191">
        <ele>1396</ele>
        <time>2026-08-14T10:23:44.540Z</time>
      </trkpt>
      <trkpt lat="45.82366" lon="6.74193">
        <ele>1397</ele>
        <time>2026-08-14T10:23:45.540Z</time>
      </trkpt>
      <trkpt lat="45.82367" lon="6.74194">
        <ele>1397</ele>
        <time>2026-08-14T10:23:46.540Z</time>
      </trkpt>
      <trkpt lat="45.82368" lon="6.74196">
        <ele>1397</ele>
        <time>2026-08-14T10:23:47.540Z</time>
      </trkpt>
      <trkpt lat="45.82368" lon="6.74197">
        <ele>1397</ele>
        <time>2026-08-14T10:23:48.540Z</time>
      </trkpt>
      <trkpt lat="45.82369" lon="6.74198">
        <ele>1397</ele>
        <time>2026-08-14T10:23:49.540Z</time>
      </trkpt>
      <trkpt lat="45.8237" lon="6.74199">
        <ele>1397</ele>
        <time>2026-08-14T10:23:50.540Z</time>
      </trkpt>
      <trkpt lat="45.82371" lon="6.742">
        <ele>1396</ele>
        <time>2026-08-14T10:23:51.540Z</time>
      </trkpt>
      <trkpt lat="45.82371" lon="6.74201">
        <ele>1396</ele>
        <time>2026-08-14T10:23:52.540Z</time>
      </trkpt>
      <trkpt lat="45.82372" lon="6.74202">
        <ele>1396</ele>
        <time>2026-08-14T10:23:53.540Z</time>
      </trkpt>
      <trkpt lat="45.82372" lon="6.74203">
        <ele>1395</ele>
        <time>2026-08-14T10:23:54.540Z</time>
      </trkpt>
      <trkpt lat="45.82373" lon="6.74204">
        <ele>1395</ele>
        <time>2026-08-14T10:23:55.540Z</time>
      </trkpt>
      <trkpt lat="45.82374" lon="6.74205">
        <ele>1395</ele>
        <time>2026-08-14T10:23:56.540Z</time>
      </trkpt>
      <trkpt lat="45.82375" lon="6.74206">
        <ele>1395</ele>
        <time>2026-08-14T10:23:57.540Z</time>
      </trkpt>
      <trkpt lat="45.82375" lon="6.74207">
        <ele>1395</ele>
        <time>2026-08-14T10:23:58.540Z</time>
      </trkpt>
      <trkpt lat="45.82376" lon="6.74208">
        <ele>1395</ele>
        <time>2026-08-14T10:23:59.540Z</time>
      </trkpt>
      <trkpt lat="45.82377" lon="6.7421">
        <ele>1395</ele>
        <time>2026-08-14T10:24:00.540Z</time>
      </trkpt>
      <trkpt lat="45.82379" lon="6.74211">
        <ele>1396</ele>
        <time>2026-08-14T10:24:01.540Z</time>
      </trkpt>
      <trkpt lat="45.8238" lon="6.74213">
        <ele>1396</ele>
        <time>2026-08-14T10:24:02.540Z</time>
      </trkpt>
      <trkpt lat="45.82381" lon="6.74214">
        <ele>1397</ele>
        <time>2026-08-14T10:24:03.540Z</time>
      </trkpt>
      <trkpt lat="45.82381" lon="6.74215">
        <ele>1397</ele>
        <time>2026-08-14T10:24:04.540Z</time>
      </trkpt>
      <trkpt lat="45.82382" lon="6.74216">
        <ele>1398</ele>
        <time>2026-08-14T10:24:05.540Z</time>
      </trkpt>
      <trkpt lat="45.82383" lon="6.74217">
        <ele>1398</ele>
        <time>2026-08-14T10:24:06.540Z</time>
      </trkpt>
      <trkpt lat="45.82383" lon="6.74218">
        <ele>1398</ele>
        <time>2026-08-14T10:24:07.540Z</time>
      </trkpt>
      <trkpt lat="45.82384" lon="6.7422">
        <ele>1398</ele>
        <time>2026-08-14T10:24:08.540Z</time>
      </trkpt>
      <trkpt lat="45.82385" lon="6.74222">
        <ele>1399</ele>
        <time>2026-08-14T10:24:09.540Z</time>
      </trkpt>
      <trkpt lat="45.82385" lon="6.74223">
        <ele>1399</ele>
        <time>2026-08-14T10:24:10.540Z</time>
      </trkpt>
      <trkpt lat="45.82386" lon="6.74225">
        <ele>1400</ele>
        <time>2026-08-14T10:24:11.540Z</time>
      </trkpt>
      <trkpt lat="45.82386" lon="6.74227">
        <ele>1400</ele>
        <time>2026-08-14T10:24:12.540Z</time>
      </trkpt>
      <trkpt lat="45.82388" lon="6.74227">
        <ele>1401</ele>
        <time>2026-08-14T10:24:13.540Z</time>
      </trkpt>
      <trkpt lat="45.82388" lon="6.74228">
        <ele>1402</ele>
        <time>2026-08-14T10:24:14.540Z</time>
      </trkpt>
      <trkpt lat="45.82388" lon="6.74231">
        <ele>1402</ele>
        <time>2026-08-14T10:24:15.540Z</time>
      </trkpt>
      <trkpt lat="45.82388" lon="6.74235">
        <ele>1403</ele>
        <time>2026-08-14T10:24:16.540Z</time>
      </trkpt>
      <trkpt lat="45.82387" lon="6.74238">
        <ele>1403</ele>
        <time>2026-08-14T10:24:17.540Z</time>
      </trkpt>
      <trkpt lat="45.82384" lon="6.74244">
        <ele>1404</ele>
        <time>2026-08-14T10:24:18.540Z</time>
      </trkpt>
      <trkpt lat="45.82383" lon="6.74249">
        <ele>1404</ele>
        <time>2026-08-14T10:24:19.540Z</time>
      </trkpt>
      <trkpt lat="45.82384" lon="6.74251">
        <ele>1405</ele>
        <time>2026-08-14T10:24:20.540Z</time>
      </trkpt>
      <trkpt lat="45.82386" lon="6.74254">
        <ele>1405</ele>
        <time>2026-08-14T10:24:21.540Z</time>
      </trkpt>
      <trkpt lat="45.82386" lon="6.74255">
        <ele>1406</ele>
        <time>2026-08-14T10:24:22.540Z</time>
      </trkpt>
      <trkpt lat="45.82386" lon="6.74257">
        <ele>1406</ele>
        <time>2026-08-14T10:24:23.540Z</time>
      </trkpt>
      <trkpt lat="45.82387" lon="6.74258">
        <ele>1407</ele>
        <time>2026-08-14T10:24:24.540Z</time>
      </trkpt>
      <trkpt lat="45.82388" lon="6.74259">
        <ele>1407</ele>
        <time>2026-08-14T10:24:25.540Z</time>
      </trkpt>
      <trkpt lat="45.82389" lon="6.74259">
        <ele>1407</ele>
        <time>2026-08-14T10:24:26.540Z</time>
      </trkpt>
      <trkpt lat="45.82391" lon="6.74258">
        <ele>1407</ele>
        <time>2026-08-14T10:24:27.540Z</time>
      </trkpt>
      <trkpt lat="45.82393" lon="6.74257">
        <ele>1407</ele>
        <time>2026-08-14T10:24:28.540Z</time>
      </trkpt>
      <trkpt lat="45.82393" lon="6.74257">
        <ele>1408</ele>
        <time>2026-08-14T10:24:29.540Z</time>
      </trkpt>
      <trkpt lat="45.82393" lon="6.74257">
        <ele>1408</ele>
        <time>2026-08-14T10:24:30.540Z</time>
      </trkpt>
      <trkpt lat="45.82395" lon="6.74255">
        <ele>1408</ele>
        <time>2026-08-14T10:24:31.540Z</time>
      </trkpt>
      <trkpt lat="45.82395" lon="6.74255">
        <ele>1409</ele>
        <time>2026-08-14T10:24:32.540Z</time>
      </trkpt>
      <trkpt lat="45.82395" lon="6.74258">
        <ele>1409</ele>
        <time>2026-08-14T10:24:33.540Z</time>
      </trkpt>
      <trkpt lat="45.82396" lon="6.74259">
        <ele>1410</ele>
        <time>2026-08-14T10:24:34.540Z</time>
      </trkpt>
      <trkpt lat="45.82399" lon="6.74257">
        <ele>1410</ele>
        <time>2026-08-14T10:24:35.540Z</time>
      </trkpt>
      <trkpt lat="45.824" lon="6.74257">
        <ele>1411</ele>
        <time>2026-08-14T10:24:36.540Z</time>
      </trkpt>
      <trkpt lat="45.824" lon="6.74257">
        <ele>1411</ele>
        <time>2026-08-14T10:24:37.540Z</time>
      </trkpt>
      <trkpt lat="45.824" lon="6.74257">
        <ele>1411</ele>
        <time>2026-08-14T10:24:38.540Z</time>
      </trkpt>
      <trkpt lat="45.824" lon="6.74257">
        <ele>1412</ele>
        <time>2026-08-14T10:24:39.540Z</time>
      </trkpt>
      <trkpt lat="45.82401" lon="6.74257">
        <ele>1412</ele>
        <time>2026-08-14T10:24:40.540Z</time>
      </trkpt>
      <trkpt lat="45.82401" lon="6.74261">
        <ele>1412</ele>
        <time>2026-08-14T10:24:41.540Z</time>
      </trkpt>
      <trkpt lat="45.82403" lon="6.74263">
        <ele>1412</ele>
        <time>2026-08-14T10:24:42.540Z</time>
      </trkpt>
      <trkpt lat="45.82404" lon="6.74266">
        <ele>1411</ele>
        <time>2026-08-14T10:24:43.540Z</time>
      </trkpt>
      <trkpt lat="45.82404" lon="6.74268">
        <ele>1411</ele>
        <time>2026-08-14T10:24:44.540Z</time>
      </trkpt>
      <trkpt lat="45.82405" lon="6.74268">
        <ele>1411</ele>
        <time>2026-08-14T10:24:45.540Z</time>
      </trkpt>
      <trkpt lat="45.82406" lon="6.74269">
        <ele>1411</ele>
        <time>2026-08-14T10:24:46.540Z</time>
      </trkpt>
      <trkpt lat="45.82407" lon="6.7427">
        <ele>1411</ele>
        <time>2026-08-14T10:24:47.540Z</time>
      </trkpt>
      <trkpt lat="45.82407" lon="6.74272">
        <ele>1411</ele>
        <time>2026-08-14T10:24:48.540Z</time>
      </trkpt>
      <trkpt lat="45.82406" lon="6.74274">
        <ele>1411</ele>
        <time>2026-08-14T10:24:49.540Z</time>
      </trkpt>
      <trkpt lat="45.82406" lon="6.74275">
        <ele>1411</ele>
        <time>2026-08-14T10:24:50.540Z</time>
      </trkpt>
      <trkpt lat="45.82406" lon="6.74276">
        <ele>1411</ele>
        <time>2026-08-14T10:24:51.540Z</time>
      </trkpt>
      <trkpt lat="45.82407" lon="6.74276">
        <ele>1411</ele>
        <time>2026-08-14T10:24:52.540Z</time>
      </trkpt>
      <trkpt lat="45.82406" lon="6.74276">
        <ele>1412</ele>
        <time>2026-08-14T10:24:53.540Z</time>
      </trkpt>
      <trkpt lat="45.82406" lon="6.74276">
        <ele>1412</ele>
        <time>2026-08-14T10:24:54.540Z</time>
      </trkpt>
      <trkpt lat="45.82407" lon="6.74276">
        <ele>1412</ele>
        <time>2026-08-14T10:24:55.540Z</time>
      </trkpt>
      <trkpt lat="45.82407" lon="6.74277">
        <ele>1412</ele>
        <time>2026-08-14T10:24:56.540Z</time>
      </trkpt>
      <trkpt lat="45.82408" lon="6.74277">
        <ele>1412</ele>
        <time>2026-08-14T10:24:57.540Z</time>
      </trkpt>
      <trkpt lat="45.82409" lon="6.74278">
        <ele>1413</ele>
        <time>2026-08-14T10:24:58.540Z</time>
      </trkpt>
      <trkpt lat="45.82409" lon="6.74279">
        <ele>1413</ele>
        <time>2026-08-14T10:24:59.540Z</time>
      </trkpt>
      <trkpt lat="45.82409" lon="6.7428">
        <ele>1413</ele>
        <time>2026-08-14T10:25:00.540Z</time>
      </trkpt>
      <trkpt lat="45.8241" lon="6.74281">
        <ele>1413</ele>
        <time>2026-08-14T10:25:01.540Z</time>
      </trkpt>
      <trkpt lat="45.82411" lon="6.74281">
        <ele>1413</ele>
        <time>2026-08-14T10:25:02.540Z</time>
      </trkpt>
      <trkpt lat="45.82412" lon="6.74282">
        <ele>1413</ele>
        <time>2026-08-14T10:25:03.540Z</time>
      </trkpt>
      <trkpt lat="45.82413" lon="6.74282">
        <ele>1413</ele>
        <time>2026-08-14T10:25:04.540Z</time>
      </trkpt>
      <trkpt lat="45.82414" lon="6.74283">
        <ele>1413</ele>
        <time>2026-08-14T10:25:05.540Z</time>
      </trkpt>
      <trkpt lat="45.82414" lon="6.74284">
        <ele>1413</ele>
        <time>2026-08-14T10:25:06.540Z</time>
      </trkpt>
      <trkpt lat="45.82415" lon="6.74285">
        <ele>1413</ele>
        <time>2026-08-14T10:25:07.540Z</time>
      </trkpt>
      <trkpt lat="45.82416" lon="6.74286">
        <ele>1414</ele>
        <time>2026-08-14T10:25:08.540Z</time>
      </trkpt>
      <trkpt lat="45.82417" lon="6.74286">
        <ele>1414</ele>
        <time>2026-08-14T10:25:09.540Z</time>
      </trkpt>
      <trkpt lat="45.82417" lon="6.74287">
        <ele>1414</ele>
        <time>2026-08-14T10:25:10.540Z</time>
      </trkpt>
      <trkpt lat="45.82418" lon="6.74288">
        <ele>1414</ele>
        <time>2026-08-14T10:25:11.540Z</time>
      </trkpt>
      <trkpt lat="45.82418" lon="6.7429">
        <ele>1414</ele>
        <time>2026-08-14T10:25:12.540Z</time>
      </trkpt>
      <trkpt lat="45.82418" lon="6.7429">
        <ele>1415</ele>
        <time>2026-08-14T10:25:13.540Z</time>
      </trkpt>
      <trkpt lat="45.82419" lon="6.74291">
        <ele>1415</ele>
        <time>2026-08-14T10:25:14.540Z</time>
      </trkpt>
      <trkpt lat="45.82419" lon="6.74292">
        <ele>1416</ele>
        <time>2026-08-14T10:25:15.540Z</time>
      </trkpt>
      <trkpt lat="45.8242" lon="6.74293">
        <ele>1416</ele>
        <time>2026-08-14T10:25:16.540Z</time>
      </trkpt>
      <trkpt lat="45.8242" lon="6.74295">
        <ele>1416</ele>
        <time>2026-08-14T10:25:17.540Z</time>
      </trkpt>
      <trkpt lat="45.82421" lon="6.74296">
        <ele>1416</ele>
        <time>2026-08-14T10:25:18.540Z</time>
      </trkpt>
      <trkpt lat="45.82421" lon="6.74297">
        <ele>1416</ele>
        <time>2026-08-14T10:25:19.540Z</time>
      </trkpt>
      <trkpt lat="45.82422" lon="6.74298">
        <ele>1416</ele>
        <time>2026-08-14T10:25:20.540Z</time>
      </trkpt>
      <trkpt lat="45.82423" lon="6.743">
        <ele>1416</ele>
        <time>2026-08-14T10:25:21.540Z</time>
      </trkpt>
      <trkpt lat="45.82424" lon="6.74301">
        <ele>1416</ele>
        <time>2026-08-14T10:25:22.540Z</time>
      </trkpt>
      <trkpt lat="45.82424" lon="6.74302">
        <ele>1416</ele>
        <time>2026-08-14T10:25:23.540Z</time>
      </trkpt>
      <trkpt lat="45.82425" lon="6.74303">
        <ele>1416</ele>
        <time>2026-08-14T10:25:24.540Z</time>
      </trkpt>
      <trkpt lat="45.82425" lon="6.74304">
        <ele>1417</ele>
        <time>2026-08-14T10:25:25.540Z</time>
      </trkpt>
      <trkpt lat="45.82425" lon="6.74306">
        <ele>1417</ele>
        <time>2026-08-14T10:25:26.540Z</time>
      </trkpt>
      <trkpt lat="45.82426" lon="6.74307">
        <ele>1417</ele>
        <time>2026-08-14T10:25:27.540Z</time>
      </trkpt>
      <trkpt lat="45.82426" lon="6.74308">
        <ele>1417</ele>
        <time>2026-08-14T10:25:28.540Z</time>
      </trkpt>
      <trkpt lat="45.82426" lon="6.74308">
        <ele>1418</ele>
        <time>2026-08-14T10:25:29.540Z</time>
      </trkpt>
      <trkpt lat="45.82427" lon="6.7431">
        <ele>1418</ele>
        <time>2026-08-14T10:25:30.540Z</time>
      </trkpt>
      <trkpt lat="45.82427" lon="6.74311">
        <ele>1418</ele>
        <time>2026-08-14T10:25:31.540Z</time>
      </trkpt>
      <trkpt lat="45.82427" lon="6.74312">
        <ele>1419</ele>
        <time>2026-08-14T10:25:32.540Z</time>
      </trkpt>
      <trkpt lat="45.82426" lon="6.74314">
        <ele>1419</ele>
        <time>2026-08-14T10:25:33.540Z</time>
      </trkpt>
      <trkpt lat="45.82426" lon="6.74315">
        <ele>1420</ele>
        <time>2026-08-14T10:25:34.540Z</time>
      </trkpt>
      <trkpt lat="45.82427" lon="6.74316">
        <ele>1421</ele>
        <time>2026-08-14T10:25:35.540Z</time>
      </trkpt>
      <trkpt lat="45.82427" lon="6.74316">
        <ele>1421</ele>
        <time>2026-08-14T10:25:36.540Z</time>
      </trkpt>
      <trkpt lat="45.82427" lon="6.74317">
        <ele>1422</ele>
        <time>2026-08-14T10:25:37.540Z</time>
      </trkpt>
      <trkpt lat="45.82428" lon="6.74319">
        <ele>1422</ele>
        <time>2026-08-14T10:25:38.540Z</time>
      </trkpt>
      <trkpt lat="45.82428" lon="6.7432">
        <ele>1423</ele>
        <time>2026-08-14T10:25:39.540Z</time>
      </trkpt>
      <trkpt lat="45.82428" lon="6.74321">
        <ele>1423</ele>
        <time>2026-08-14T10:25:40.540Z</time>
      </trkpt>
      <trkpt lat="45.82428" lon="6.74323">
        <ele>1423</ele>
        <time>2026-08-14T10:25:41.540Z</time>
      </trkpt>
      <trkpt lat="45.82427" lon="6.74325">
        <ele>1423</ele>
        <time>2026-08-14T10:25:42.540Z</time>
      </trkpt>
      <trkpt lat="45.82427" lon="6.74326">
        <ele>1423</ele>
        <time>2026-08-14T10:25:43.540Z</time>
      </trkpt>
      <trkpt lat="45.82428" lon="6.74327">
        <ele>1423</ele>
        <time>2026-08-14T10:25:44.540Z</time>
      </trkpt>
      <trkpt lat="45.82428" lon="6.74329">
        <ele>1423</ele>
        <time>2026-08-14T10:25:45.540Z</time>
      </trkpt>
      <trkpt lat="45.82428" lon="6.7433">
        <ele>1423</ele>
        <time>2026-08-14T10:25:46.540Z</time>
      </trkpt>
      <trkpt lat="45.82428" lon="6.74332">
        <ele>1423</ele>
        <time>2026-08-14T10:25:47.540Z</time>
      </trkpt>
      <trkpt lat="45.82428" lon="6.74333">
        <ele>1423</ele>
        <time>2026-08-14T10:25:48.540Z</time>
      </trkpt>
      <trkpt lat="45.82428" lon="6.74334">
        <ele>1423</ele>
        <time>2026-08-14T10:25:49.540Z</time>
      </trkpt>
      <trkpt lat="45.82428" lon="6.74336">
        <ele>1422</ele>
        <time>2026-08-14T10:25:50.540Z</time>
      </trkpt>
      <trkpt lat="45.82428" lon="6.74338">
        <ele>1422</ele>
        <time>2026-08-14T10:25:51.540Z</time>
      </trkpt>
      <trkpt lat="45.82428" lon="6.74339">
        <ele>1422</ele>
        <time>2026-08-14T10:25:52.540Z</time>
      </trkpt>
      <trkpt lat="45.82429" lon="6.74341">
        <ele>1422</ele>
        <time>2026-08-14T10:25:53.540Z</time>
      </trkpt>
      <trkpt lat="45.8243" lon="6.74342">
        <ele>1423</ele>
        <time>2026-08-14T10:25:54.540Z</time>
      </trkpt>
      <trkpt lat="45.82429" lon="6.74342">
        <ele>1423</ele>
        <time>2026-08-14T10:25:55.540Z</time>
      </trkpt>
      <trkpt lat="45.8243" lon="6.74343">
        <ele>1423</ele>
        <time>2026-08-14T10:25:56.540Z</time>
      </trkpt>
      <trkpt lat="45.8243" lon="6.74344">
        <ele>1423</ele>
        <time>2026-08-14T10:25:57.540Z</time>
      </trkpt>
      <trkpt lat="45.82431" lon="6.74345">
        <ele>1424</ele>
        <time>2026-08-14T10:25:58.540Z</time>
      </trkpt>
      <trkpt lat="45.82431" lon="6.74346">
        <ele>1424</ele>
        <time>2026-08-14T10:25:59.540Z</time>
      </trkpt>
      <trkpt lat="45.82431" lon="6.74347">
        <ele>1424</ele>
        <time>2026-08-14T10:26:00.540Z</time>
      </trkpt>
      <trkpt lat="45.82431" lon="6.74348">
        <ele>1425</ele>
        <time>2026-08-14T10:26:01.540Z</time>
      </trkpt>
      <trkpt lat="45.82431" lon="6.74348">
        <ele>1425</ele>
        <time>2026-08-14T10:26:02.540Z</time>
      </trkpt>
      <trkpt lat="45.82432" lon="6.74349">
        <ele>1426</ele>
        <time>2026-08-14T10:26:03.540Z</time>
      </trkpt>
      <trkpt lat="45.82432" lon="6.7435">
        <ele>1426</ele>
        <time>2026-08-14T10:26:04.540Z</time>
      </trkpt>
      <trkpt lat="45.82432" lon="6.7435">
        <ele>1427</ele>
        <time>2026-08-14T10:26:05.540Z</time>
      </trkpt>
      <trkpt lat="45.82432" lon="6.74351">
        <ele>1427</ele>
        <time>2026-08-14T10:26:06.540Z</time>
      </trkpt>
      <trkpt lat="45.82432" lon="6.74351">
        <ele>1428</ele>
        <time>2026-08-14T10:26:07.540Z</time>
      </trkpt>
      <trkpt lat="45.82433" lon="6.74352">
        <ele>1428</ele>
        <time>2026-08-14T10:26:08.540Z</time>
      </trkpt>
      <trkpt lat="45.82433" lon="6.74353">
        <ele>1429</ele>
        <time>2026-08-14T10:26:09.540Z</time>
      </trkpt>
      <trkpt lat="45.82434" lon="6.74354">
        <ele>1429</ele>
        <time>2026-08-14T10:26:10.540Z</time>
      </trkpt>
      <trkpt lat="45.82434" lon="6.74356">
        <ele>1429</ele>
        <time>2026-08-14T10:26:11.540Z</time>
      </trkpt>
      <trkpt lat="45.82435" lon="6.74357">
        <ele>1430</ele>
        <time>2026-08-14T10:26:12.540Z</time>
      </trkpt>
      <trkpt lat="45.82435" lon="6.74359">
        <ele>1430</ele>
        <time>2026-08-14T10:26:13.540Z</time>
      </trkpt>
      <trkpt lat="45.82436" lon="6.74361">
        <ele>1431</ele>
        <time>2026-08-14T10:26:14.540Z</time>
      </trkpt>
      <trkpt lat="45.82437" lon="6.74362">
        <ele>1431</ele>
        <time>2026-08-14T10:26:15.540Z</time>
      </trkpt>
      <trkpt lat="45.82439" lon="6.74363">
        <ele>1431</ele>
        <time>2026-08-14T10:26:16.540Z</time>
      </trkpt>
      <trkpt lat="45.8244" lon="6.74363">
        <ele>1432</ele>
        <time>2026-08-14T10:26:17.540Z</time>
      </trkpt>
      <trkpt lat="45.8244" lon="6.74364">
        <ele>1432</ele>
        <time>2026-08-14T10:26:18.540Z</time>
      </trkpt>
      <trkpt lat="45.82441" lon="6.74364">
        <ele>1432</ele>
        <time>2026-08-14T10:26:19.540Z</time>
      </trkpt>
      <trkpt lat="45.82442" lon="6.74365">
        <ele>1433</ele>
        <time>2026-08-14T10:26:20.540Z</time>
      </trkpt>
      <trkpt lat="45.82442" lon="6.74365">
        <ele>1433</ele>
        <time>2026-08-14T10:26:21.540Z</time>
      </trkpt>
      <trkpt lat="45.82444" lon="6.74365">
        <ele>1433</ele>
        <time>2026-08-14T10:26:22.540Z</time>
      </trkpt>
      <trkpt lat="45.82444" lon="6.74366">
        <ele>1433</ele>
        <time>2026-08-14T10:26:23.540Z</time>
      </trkpt>
      <trkpt lat="45.82445" lon="6.74367">
        <ele>1434</ele>
        <time>2026-08-14T10:26:24.540Z</time>
      </trkpt>
      <trkpt lat="45.82446" lon="6.74367">
        <ele>1434</ele>
        <time>2026-08-14T10:26:25.540Z</time>
      </trkpt>
      <trkpt lat="45.82447" lon="6.74367">
        <ele>1434</ele>
        <time>2026-08-14T10:26:26.540Z</time>
      </trkpt>
      <trkpt lat="45.82448" lon="6.74368">
        <ele>1435</ele>
        <time>2026-08-14T10:26:27.540Z</time>
      </trkpt>
      <trkpt lat="45.82449" lon="6.74369">
        <ele>1435</ele>
        <time>2026-08-14T10:26:28.540Z</time>
      </trkpt>
      <trkpt lat="45.8245" lon="6.7437">
        <ele>1436</ele>
        <time>2026-08-14T10:26:29.540Z</time>
      </trkpt>
      <trkpt lat="45.8245" lon="6.74371">
        <ele>1437</ele>
        <time>2026-08-14T10:26:30.540Z</time>
      </trkpt>
      <trkpt lat="45.82452" lon="6.74371">
        <ele>1437</ele>
        <time>2026-08-14T10:26:31.540Z</time>
      </trkpt>
      <trkpt lat="45.82453" lon="6.74372">
        <ele>1438</ele>
        <time>2026-08-14T10:26:32.540Z</time>
      </trkpt>
      <trkpt lat="45.82455" lon="6.74373">
        <ele>1438</ele>
        <time>2026-08-14T10:26:33.540Z</time>
      </trkpt>
      <trkpt lat="45.82456" lon="6.74373">
        <ele>1439</ele>
        <time>2026-08-14T10:26:34.540Z</time>
      </trkpt>
      <trkpt lat="45.82457" lon="6.74374">
        <ele>1439</ele>
        <time>2026-08-14T10:26:35.540Z</time>
      </trkpt>
      <trkpt lat="45.82459" lon="6.74374">
        <ele>1439</ele>
        <time>2026-08-14T10:26:36.540Z</time>
      </trkpt>
      <trkpt lat="45.8246" lon="6.74375">
        <ele>1440</ele>
        <time>2026-08-14T10:26:37.540Z</time>
      </trkpt>
      <trkpt lat="45.82461" lon="6.74375">
        <ele>1440</ele>
        <time>2026-08-14T10:26:38.540Z</time>
      </trkpt>
      <trkpt lat="45.82462" lon="6.74376">
        <ele>1440</ele>
        <time>2026-08-14T10:26:39.540Z</time>
      </trkpt>
      <trkpt lat="45.82462" lon="6.74377">
        <ele>1440</ele>
        <time>2026-08-14T10:26:40.540Z</time>
      </trkpt>
      <trkpt lat="45.82463" lon="6.74378">
        <ele>1440</ele>
        <time>2026-08-14T10:26:41.540Z</time>
      </trkpt>
      <trkpt lat="45.82464" lon="6.74379">
        <ele>1440</ele>
        <time>2026-08-14T10:26:42.540Z</time>
      </trkpt>
      <trkpt lat="45.82465" lon="6.74379">
        <ele>1440</ele>
        <time>2026-08-14T10:26:43.540Z</time>
      </trkpt>
      <trkpt lat="45.82466" lon="6.7438">
        <ele>1440</ele>
        <time>2026-08-14T10:26:44.540Z</time>
      </trkpt>
      <trkpt lat="45.82467" lon="6.74381">
        <ele>1441</ele>
        <time>2026-08-14T10:26:45.540Z</time>
      </trkpt>
      <trkpt lat="45.82468" lon="6.74382">
        <ele>1441</ele>
        <time>2026-08-14T10:26:46.540Z</time>
      </trkpt>
      <trkpt lat="45.82469" lon="6.74383">
        <ele>1441</ele>
        <time>2026-08-14T10:26:47.540Z</time>
      </trkpt>
      <trkpt lat="45.8247" lon="6.74384">
        <ele>1442</ele>
        <time>2026-08-14T10:26:48.540Z</time>
      </trkpt>
      <trkpt lat="45.82471" lon="6.74384">
        <ele>1442</ele>
        <time>2026-08-14T10:26:49.540Z</time>
      </trkpt>
      <trkpt lat="45.82473" lon="6.74384">
        <ele>1443</ele>
        <time>2026-08-14T10:26:50.540Z</time>
      </trkpt>
      <trkpt lat="45.82475" lon="6.74385">
        <ele>1443</ele>
        <time>2026-08-14T10:26:51.540Z</time>
      </trkpt>
      <trkpt lat="45.82476" lon="6.74385">
        <ele>1443</ele>
        <time>2026-08-14T10:26:52.540Z</time>
      </trkpt>
      <trkpt lat="45.82477" lon="6.74385">
        <ele>1443</ele>
        <time>2026-08-14T10:26:53.540Z</time>
      </trkpt>
      <trkpt lat="45.82478" lon="6.74386">
        <ele>1444</ele>
        <time>2026-08-14T10:26:54.540Z</time>
      </trkpt>
      <trkpt lat="45.8248" lon="6.74386">
        <ele>1444</ele>
        <time>2026-08-14T10:26:55.540Z</time>
      </trkpt>
      <trkpt lat="45.82481" lon="6.74386">
        <ele>1444</ele>
        <time>2026-08-14T10:26:56.540Z</time>
      </trkpt>
      <trkpt lat="45.82482" lon="6.74385">
        <ele>1443</ele>
        <time>2026-08-14T10:26:57.540Z</time>
      </trkpt>
      <trkpt lat="45.82483" lon="6.74386">
        <ele>1443</ele>
        <time>2026-08-14T10:26:58.540Z</time>
      </trkpt>
      <trkpt lat="45.82484" lon="6.74385">
        <ele>1444</ele>
        <time>2026-08-14T10:26:59.540Z</time>
      </trkpt>
      <trkpt lat="45.82485" lon="6.74385">
        <ele>1444</ele>
        <time>2026-08-14T10:27:00.540Z</time>
      </trkpt>
      <trkpt lat="45.82487" lon="6.74385">
        <ele>1444</ele>
        <time>2026-08-14T10:27:01.540Z</time>
      </trkpt>
      <trkpt lat="45.82488" lon="6.74385">
        <ele>1444</ele>
        <time>2026-08-14T10:27:02.540Z</time>
      </trkpt>
      <trkpt lat="45.82489" lon="6.74385">
        <ele>1445</ele>
        <time>2026-08-14T10:27:03.540Z</time>
      </trkpt>
      <trkpt lat="45.8249" lon="6.74384">
        <ele>1445</ele>
        <time>2026-08-14T10:27:04.540Z</time>
      </trkpt>
      <trkpt lat="45.82491" lon="6.74384">
        <ele>1445</ele>
        <time>2026-08-14T10:27:05.540Z</time>
      </trkpt>
      <trkpt lat="45.82492" lon="6.74383">
        <ele>1445</ele>
        <time>2026-08-14T10:27:06.540Z</time>
      </trkpt>
      <trkpt lat="45.82493" lon="6.74382">
        <ele>1445</ele>
        <time>2026-08-14T10:27:07.540Z</time>
      </trkpt>
      <trkpt lat="45.82494" lon="6.74381">
        <ele>1446</ele>
        <time>2026-08-14T10:27:08.540Z</time>
      </trkpt>
      <trkpt lat="45.82495" lon="6.7438">
        <ele>1446</ele>
        <time>2026-08-14T10:27:09.540Z</time>
      </trkpt>
      <trkpt lat="45.82496" lon="6.74379">
        <ele>1445</ele>
        <time>2026-08-14T10:27:10.540Z</time>
      </trkpt>
      <trkpt lat="45.82498" lon="6.74378">
        <ele>1445</ele>
        <time>2026-08-14T10:27:11.540Z</time>
      </trkpt>
      <trkpt lat="45.82499" lon="6.74377">
        <ele>1445</ele>
        <time>2026-08-14T10:27:12.540Z</time>
      </trkpt>
      <trkpt lat="45.825" lon="6.74376">
        <ele>1445</ele>
        <time>2026-08-14T10:27:13.540Z</time>
      </trkpt>
      <trkpt lat="45.82501" lon="6.74375">
        <ele>1445</ele>
        <time>2026-08-14T10:27:14.540Z</time>
      </trkpt>
      <trkpt lat="45.82502" lon="6.74373">
        <ele>1445</ele>
        <time>2026-08-14T10:27:15.540Z</time>
      </trkpt>
      <trkpt lat="45.82503" lon="6.74371">
        <ele>1445</ele>
        <time>2026-08-14T10:27:16.540Z</time>
      </trkpt>
      <trkpt lat="45.82503" lon="6.7437">
        <ele>1445</ele>
        <time>2026-08-14T10:27:17.540Z</time>
      </trkpt>
      <trkpt lat="45.82504" lon="6.74369">
        <ele>1444</ele>
        <time>2026-08-14T10:27:18.540Z</time>
      </trkpt>
      <trkpt lat="45.82505" lon="6.74367">
        <ele>1444</ele>
        <time>2026-08-14T10:27:19.540Z</time>
      </trkpt>
      <trkpt lat="45.82505" lon="6.74366">
        <ele>1444</ele>
        <time>2026-08-14T10:27:20.540Z</time>
      </trkpt>
      <trkpt lat="45.82506" lon="6.74364">
        <ele>1444</ele>
        <time>2026-08-14T10:27:21.540Z</time>
      </trkpt>
      <trkpt lat="45.82506" lon="6.74362">
        <ele>1444</ele>
        <time>2026-08-14T10:27:22.540Z</time>
      </trkpt>
      <trkpt lat="45.82506" lon="6.7436">
        <ele>1444</ele>
        <time>2026-08-14T10:27:23.540Z</time>
      </trkpt>
      <trkpt lat="45.82506" lon="6.74358">
        <ele>1444</ele>
        <time>2026-08-14T10:27:24.540Z</time>
      </trkpt>
      <trkpt lat="45.82507" lon="6.74357">
        <ele>1444</ele>
        <time>2026-08-14T10:27:25.540Z</time>
      </trkpt>
      <trkpt lat="45.82508" lon="6.74355">
        <ele>1444</ele>
        <time>2026-08-14T10:27:26.540Z</time>
      </trkpt>
      <trkpt lat="45.82508" lon="6.74354">
        <ele>1444</ele>
        <time>2026-08-14T10:27:27.540Z</time>
      </trkpt>
      <trkpt lat="45.82509" lon="6.74353">
        <ele>1445</ele>
        <time>2026-08-14T10:27:28.540Z</time>
      </trkpt>
      <trkpt lat="45.82509" lon="6.74352">
        <ele>1445</ele>
        <time>2026-08-14T10:27:29.540Z</time>
      </trkpt>
      <trkpt lat="45.8251" lon="6.74351">
        <ele>1445</ele>
        <time>2026-08-14T10:27:30.540Z</time>
      </trkpt>
      <trkpt lat="45.8251" lon="6.7435">
        <ele>1446</ele>
        <time>2026-08-14T10:27:31.540Z</time>
      </trkpt>
      <trkpt lat="45.82511" lon="6.74348">
        <ele>1446</ele>
        <time>2026-08-14T10:27:32.540Z</time>
      </trkpt>
      <trkpt lat="45.82511" lon="6.74347">
        <ele>1447</ele>
        <time>2026-08-14T10:27:33.540Z</time>
      </trkpt>
      <trkpt lat="45.82511" lon="6.74345">
        <ele>1448</ele>
        <time>2026-08-14T10:27:34.540Z</time>
      </trkpt>
      <trkpt lat="45.82511" lon="6.74343">
        <ele>1448</ele>
        <time>2026-08-14T10:27:35.540Z</time>
      </trkpt>
      <trkpt lat="45.82512" lon="6.74341">
        <ele>1449</ele>
        <time>2026-08-14T10:27:36.540Z</time>
      </trkpt>
      <trkpt lat="45.82512" lon="6.7434">
        <ele>1449</ele>
        <time>2026-08-14T10:27:37.540Z</time>
      </trkpt>
      <trkpt lat="45.82513" lon="6.74338">
        <ele>1450</ele>
        <time>2026-08-14T10:27:38.540Z</time>
      </trkpt>
      <trkpt lat="45.82514" lon="6.74337">
        <ele>1450</ele>
        <time>2026-08-14T10:27:39.540Z</time>
      </trkpt>
      <trkpt lat="45.82514" lon="6.74336">
        <ele>1451</ele>
        <time>2026-08-14T10:27:40.540Z</time>
      </trkpt>
      <trkpt lat="45.82515" lon="6.74334">
        <ele>1452</ele>
        <time>2026-08-14T10:27:41.540Z</time>
      </trkpt>
      <trkpt lat="45.82515" lon="6.74333">
        <ele>1452</ele>
        <time>2026-08-14T10:27:42.540Z</time>
      </trkpt>
      <trkpt lat="45.82516" lon="6.74331">
        <ele>1453</ele>
        <time>2026-08-14T10:27:43.540Z</time>
      </trkpt>
      <trkpt lat="45.82516" lon="6.74329">
        <ele>1453</ele>
        <time>2026-08-14T10:27:44.540Z</time>
      </trkpt>
      <trkpt lat="45.82517" lon="6.74328">
        <ele>1454</ele>
        <time>2026-08-14T10:27:45.540Z</time>
      </trkpt>
      <trkpt lat="45.82518" lon="6.74326">
        <ele>1455</ele>
        <time>2026-08-14T10:27:46.540Z</time>
      </trkpt>
      <trkpt lat="45.82519" lon="6.74325">
        <ele>1455</ele>
        <time>2026-08-14T10:27:47.540Z</time>
      </trkpt>
      <trkpt lat="45.82519" lon="6.74323">
        <ele>1456</ele>
        <time>2026-08-14T10:27:48.540Z</time>
      </trkpt>
      <trkpt lat="45.82519" lon="6.74322">
        <ele>1457</ele>
        <time>2026-08-14T10:27:49.540Z</time>
      </trkpt>
      <trkpt lat="45.8252" lon="6.74321">
        <ele>1457</ele>
        <time>2026-08-14T10:27:50.540Z</time>
      </trkpt>
      <trkpt lat="45.82521" lon="6.74319">
        <ele>1458</ele>
        <time>2026-08-14T10:27:51.540Z</time>
      </trkpt>
      <trkpt lat="45.82522" lon="6.74317">
        <ele>1458</ele>
        <time>2026-08-14T10:27:52.540Z</time>
      </trkpt>
      <trkpt lat="45.82523" lon="6.74316">
        <ele>1458</ele>
        <time>2026-08-14T10:27:53.540Z</time>
      </trkpt>
      <trkpt lat="45.82523" lon="6.74314">
        <ele>1458</ele>
        <time>2026-08-14T10:27:54.540Z</time>
      </trkpt>
      <trkpt lat="45.82524" lon="6.74312">
        <ele>1459</ele>
        <time>2026-08-14T10:27:55.540Z</time>
      </trkpt>
      <trkpt lat="45.82524" lon="6.7431">
        <ele>1459</ele>
        <time>2026-08-14T10:27:56.540Z</time>
      </trkpt>
      <trkpt lat="45.82524" lon="6.74306">
        <ele>1459</ele>
        <time>2026-08-14T10:27:57.540Z</time>
      </trkpt>
      <trkpt lat="45.82524" lon="6.74305">
        <ele>1459</ele>
        <time>2026-08-14T10:27:58.540Z</time>
      </trkpt>
      <trkpt lat="45.82525" lon="6.74303">
        <ele>1459</ele>
        <time>2026-08-14T10:27:59.540Z</time>
      </trkpt>
      <trkpt lat="45.82525" lon="6.74302">
        <ele>1459</ele>
        <time>2026-08-14T10:28:00.540Z</time>
      </trkpt>
      <trkpt lat="45.82526" lon="6.74301">
        <ele>1459</ele>
        <time>2026-08-14T10:28:01.540Z</time>
      </trkpt>
      <trkpt lat="45.82527" lon="6.74299">
        <ele>1460</ele>
        <time>2026-08-14T10:28:02.540Z</time>
      </trkpt>
      <trkpt lat="45.82527" lon="6.74298">
        <ele>1460</ele>
        <time>2026-08-14T10:28:03.540Z</time>
      </trkpt>
      <trkpt lat="45.82528" lon="6.74297">
        <ele>1460</ele>
        <time>2026-08-14T10:28:04.540Z</time>
      </trkpt>
      <trkpt lat="45.82529" lon="6.74296">
        <ele>1460</ele>
        <time>2026-08-14T10:28:05.540Z</time>
      </trkpt>
      <trkpt lat="45.82529" lon="6.74295">
        <ele>1460</ele>
        <time>2026-08-14T10:28:06.540Z</time>
      </trkpt>
      <trkpt lat="45.8253" lon="6.74295">
        <ele>1460</ele>
        <time>2026-08-14T10:28:07.540Z</time>
      </trkpt>
      <trkpt lat="45.82531" lon="6.74295">
        <ele>1460</ele>
        <time>2026-08-14T10:28:08.540Z</time>
      </trkpt>
      <trkpt lat="45.82531" lon="6.74294">
        <ele>1460</ele>
        <time>2026-08-14T10:28:09.540Z</time>
      </trkpt>
      <trkpt lat="45.82532" lon="6.74293">
        <ele>1459</ele>
        <time>2026-08-14T10:28:10.540Z</time>
      </trkpt>
      <trkpt lat="45.82533" lon="6.74293">
        <ele>1459</ele>
        <time>2026-08-14T10:28:11.540Z</time>
      </trkpt>
      <trkpt lat="45.82534" lon="6.74291">
        <ele>1459</ele>
        <time>2026-08-14T10:28:12.540Z</time>
      </trkpt>
      <trkpt lat="45.82535" lon="6.7429">
        <ele>1458</ele>
        <time>2026-08-14T10:28:13.540Z</time>
      </trkpt>
      <trkpt lat="45.82536" lon="6.74289">
        <ele>1458</ele>
        <time>2026-08-14T10:28:14.540Z</time>
      </trkpt>
      <trkpt lat="45.82537" lon="6.74288">
        <ele>1458</ele>
        <time>2026-08-14T10:28:15.540Z</time>
      </trkpt>
      <trkpt lat="45.82537" lon="6.74288">
        <ele>1458</ele>
        <time>2026-08-14T10:28:16.540Z</time>
      </trkpt>
      <trkpt lat="45.82538" lon="6.74287">
        <ele>1457</ele>
        <time>2026-08-14T10:28:17.540Z</time>
      </trkpt>
      <trkpt lat="45.82538" lon="6.74286">
        <ele>1457</ele>
        <time>2026-08-14T10:28:18.540Z</time>
      </trkpt>
      <trkpt lat="45.82539" lon="6.74284">
        <ele>1456</ele>
        <time>2026-08-14T10:28:19.540Z</time>
      </trkpt>
      <trkpt lat="45.82538" lon="6.74283">
        <ele>1456</ele>
        <time>2026-08-14T10:28:20.540Z</time>
      </trkpt>
      <trkpt lat="45.82539" lon="6.74281">
        <ele>1456</ele>
        <time>2026-08-14T10:28:21.540Z</time>
      </trkpt>
      <trkpt lat="45.82539" lon="6.74279">
        <ele>1456</ele>
        <time>2026-08-14T10:28:22.540Z</time>
      </trkpt>
      <trkpt lat="45.82539" lon="6.74278">
        <ele>1456</ele>
        <time>2026-08-14T10:28:23.540Z</time>
      </trkpt>
      <trkpt lat="45.82539" lon="6.74277">
        <ele>1455</ele>
        <time>2026-08-14T10:28:24.540Z</time>
      </trkpt>
      <trkpt lat="45.82539" lon="6.74275">
        <ele>1455</ele>
        <time>2026-08-14T10:28:25.540Z</time>
      </trkpt>
      <trkpt lat="45.82539" lon="6.74273">
        <ele>1455</ele>
        <time>2026-08-14T10:28:26.540Z</time>
      </trkpt>
      <trkpt lat="45.82539" lon="6.74271">
        <ele>1455</ele>
        <time>2026-08-14T10:28:27.540Z</time>
      </trkpt>
      <trkpt lat="45.82539" lon="6.74269">
        <ele>1456</ele>
        <time>2026-08-14T10:28:28.540Z</time>
      </trkpt>
      <trkpt lat="45.82539" lon="6.74267">
        <ele>1456</ele>
        <time>2026-08-14T10:28:29.540Z</time>
      </trkpt>
      <trkpt lat="45.82539" lon="6.74266">
        <ele>1457</ele>
        <time>2026-08-14T10:28:30.540Z</time>
      </trkpt>
      <trkpt lat="45.82539" lon="6.74264">
        <ele>1457</ele>
        <time>2026-08-14T10:28:31.540Z</time>
      </trkpt>
      <trkpt lat="45.82539" lon="6.74263">
        <ele>1458</ele>
        <time>2026-08-14T10:28:32.540Z</time>
      </trkpt>
      <trkpt lat="45.82538" lon="6.7426">
        <ele>1458</ele>
        <time>2026-08-14T10:28:33.540Z</time>
      </trkpt>
      <trkpt lat="45.82537" lon="6.74258">
        <ele>1459</ele>
        <time>2026-08-14T10:28:34.540Z</time>
      </trkpt>
      <trkpt lat="45.82536" lon="6.74256">
        <ele>1459</ele>
        <time>2026-08-14T10:28:35.540Z</time>
      </trkpt>
      <trkpt lat="45.82535" lon="6.74255">
        <ele>1460</ele>
        <time>2026-08-14T10:28:36.540Z</time>
      </trkpt>
      <trkpt lat="45.82535" lon="6.74254">
        <ele>1460</ele>
        <time>2026-08-14T10:28:37.540Z</time>
      </trkpt>
      <trkpt lat="45.82534" lon="6.74254">
        <ele>1461</ele>
        <time>2026-08-14T10:28:38.540Z</time>
      </trkpt>
      <trkpt lat="45.82534" lon="6.74253">
        <ele>1461</ele>
        <time>2026-08-14T10:28:39.540Z</time>
      </trkpt>
      <trkpt lat="45.82533" lon="6.74252">
        <ele>1462</ele>
        <time>2026-08-14T10:28:40.540Z</time>
      </trkpt>
      <trkpt lat="45.82533" lon="6.74251">
        <ele>1462</ele>
        <time>2026-08-14T10:28:41.540Z</time>
      </trkpt>
      <trkpt lat="45.82533" lon="6.74249">
        <ele>1462</ele>
        <time>2026-08-14T10:28:42.540Z</time>
      </trkpt>
      <trkpt lat="45.82533" lon="6.74247">
        <ele>1462</ele>
        <time>2026-08-14T10:28:43.540Z</time>
      </trkpt>
      <trkpt lat="45.82534" lon="6.74245">
        <ele>1462</ele>
        <time>2026-08-14T10:28:44.540Z</time>
      </trkpt>
      <trkpt lat="45.82534" lon="6.74244">
        <ele>1462</ele>
        <time>2026-08-14T10:28:45.540Z</time>
      </trkpt>
      <trkpt lat="45.82534" lon="6.74242">
        <ele>1462</ele>
        <time>2026-08-14T10:28:46.540Z</time>
      </trkpt>
      <trkpt lat="45.82535" lon="6.74241">
        <ele>1462</ele>
        <time>2026-08-14T10:28:47.540Z</time>
      </trkpt>
      <trkpt lat="45.82535" lon="6.74239">
        <ele>1462</ele>
        <time>2026-08-14T10:28:48.540Z</time>
      </trkpt>
      <trkpt lat="45.82535" lon="6.74237">
        <ele>1462</ele>
        <time>2026-08-14T10:28:49.540Z</time>
      </trkpt>
      <trkpt lat="45.82536" lon="6.74234">
        <ele>1463</ele>
        <time>2026-08-14T10:28:50.540Z</time>
      </trkpt>
      <trkpt lat="45.82536" lon="6.74232">
        <ele>1463</ele>
        <time>2026-08-14T10:28:51.540Z</time>
      </trkpt>
      <trkpt lat="45.82537" lon="6.74231">
        <ele>1464</ele>
        <time>2026-08-14T10:28:52.540Z</time>
      </trkpt>
      <trkpt lat="45.82537" lon="6.74229">
        <ele>1464</ele>
        <time>2026-08-14T10:28:53.540Z</time>
      </trkpt>
      <trkpt lat="45.82537" lon="6.74227">
        <ele>1464</ele>
        <time>2026-08-14T10:28:54.540Z</time>
      </trkpt>
      <trkpt lat="45.82537" lon="6.74225">
        <ele>1465</ele>
        <time>2026-08-14T10:28:55.540Z</time>
      </trkpt>
      <trkpt lat="45.82538" lon="6.74223">
        <ele>1465</ele>
        <time>2026-08-14T10:28:56.540Z</time>
      </trkpt>
      <trkpt lat="45.82538" lon="6.74222">
        <ele>1465</ele>
        <time>2026-08-14T10:28:57.540Z</time>
      </trkpt>
      <trkpt lat="45.82539" lon="6.74221">
        <ele>1465</ele>
        <time>2026-08-14T10:28:58.540Z</time>
      </trkpt>
      <trkpt lat="45.82539" lon="6.74219">
        <ele>1465</ele>
        <time>2026-08-14T10:28:59.540Z</time>
      </trkpt>
      <trkpt lat="45.82539" lon="6.74218">
        <ele>1465</ele>
        <time>2026-08-14T10:29:00.540Z</time>
      </trkpt>
      <trkpt lat="45.8254" lon="6.74217">
        <ele>1465</ele>
        <time>2026-08-14T10:29:01.540Z</time>
      </trkpt>
      <trkpt lat="45.8254" lon="6.74216">
        <ele>1465</ele>
        <time>2026-08-14T10:29:02.540Z</time>
      </trkpt>
      <trkpt lat="45.82541" lon="6.74214">
        <ele>1465</ele>
        <time>2026-08-14T10:29:03.540Z</time>
      </trkpt>
      <trkpt lat="45.82541" lon="6.74213">
        <ele>1465</ele>
        <time>2026-08-14T10:29:04.540Z</time>
      </trkpt>
      <trkpt lat="45.82541" lon="6.74211">
        <ele>1465</ele>
        <time>2026-08-14T10:29:05.540Z</time>
      </trkpt>
      <trkpt lat="45.82541" lon="6.74209">
        <ele>1465</ele>
        <time>2026-08-14T10:29:06.540Z</time>
      </trkpt>
      <trkpt lat="45.82541" lon="6.74208">
        <ele>1466</ele>
        <time>2026-08-14T10:29:07.540Z</time>
      </trkpt>
      <trkpt lat="45.8254" lon="6.74206">
        <ele>1466</ele>
        <time>2026-08-14T10:29:08.540Z</time>
      </trkpt>
      <trkpt lat="45.82539" lon="6.74204">
        <ele>1466</ele>
        <time>2026-08-14T10:29:09.540Z</time>
      </trkpt>
      <trkpt lat="45.82539" lon="6.74202">
        <ele>1467</ele>
        <time>2026-08-14T10:29:10.540Z</time>
      </trkpt>
      <trkpt lat="45.82538" lon="6.74201">
        <ele>1467</ele>
        <time>2026-08-14T10:29:11.540Z</time>
      </trkpt>
      <trkpt lat="45.82538" lon="6.742">
        <ele>1468</ele>
        <time>2026-08-14T10:29:12.540Z</time>
      </trkpt>
      <trkpt lat="45.82537" lon="6.74199">
        <ele>1468</ele>
        <time>2026-08-14T10:29:13.540Z</time>
      </trkpt>
      <trkpt lat="45.82537" lon="6.74197">
        <ele>1468</ele>
        <time>2026-08-14T10:29:14.540Z</time>
      </trkpt>
      <trkpt lat="45.82536" lon="6.74196">
        <ele>1468</ele>
        <time>2026-08-14T10:29:15.540Z</time>
      </trkpt>
      <trkpt lat="45.82536" lon="6.74194">
        <ele>1468</ele>
        <time>2026-08-14T10:29:16.540Z</time>
      </trkpt>
      <trkpt lat="45.82535" lon="6.74193">
        <ele>1468</ele>
        <time>2026-08-14T10:29:17.540Z</time>
      </trkpt>
      <trkpt lat="45.82534" lon="6.74192">
        <ele>1469</ele>
        <time>2026-08-14T10:29:18.540Z</time>
      </trkpt>
      <trkpt lat="45.82533" lon="6.74191">
        <ele>1469</ele>
        <time>2026-08-14T10:29:19.540Z</time>
      </trkpt>
      <trkpt lat="45.82532" lon="6.7419">
        <ele>1469</ele>
        <time>2026-08-14T10:29:20.540Z</time>
      </trkpt>
      <trkpt lat="45.82531" lon="6.74189">
        <ele>1469</ele>
        <time>2026-08-14T10:29:21.540Z</time>
      </trkpt>
      <trkpt lat="45.82529" lon="6.74188">
        <ele>1469</ele>
        <time>2026-08-14T10:29:22.540Z</time>
      </trkpt>
      <trkpt lat="45.82528" lon="6.74188">
        <ele>1469</ele>
        <time>2026-08-14T10:29:23.540Z</time>
      </trkpt>
      <trkpt lat="45.82527" lon="6.74187">
        <ele>1470</ele>
        <time>2026-08-14T10:29:24.540Z</time>
      </trkpt>
      <trkpt lat="45.82526" lon="6.74186">
        <ele>1470</ele>
        <time>2026-08-14T10:29:25.540Z</time>
      </trkpt>
      <trkpt lat="45.82526" lon="6.74184">
        <ele>1470</ele>
        <time>2026-08-14T10:29:26.540Z</time>
      </trkpt>
      <trkpt lat="45.82526" lon="6.74182">
        <ele>1470</ele>
        <time>2026-08-14T10:29:27.540Z</time>
      </trkpt>
      <trkpt lat="45.82526" lon="6.74181">
        <ele>1471</ele>
        <time>2026-08-14T10:29:28.540Z</time>
      </trkpt>
      <trkpt lat="45.82526" lon="6.74179">
        <ele>1471</ele>
        <time>2026-08-14T10:29:29.540Z</time>
      </trkpt>
      <trkpt lat="45.82526" lon="6.74178">
        <ele>1471</ele>
        <time>2026-08-14T10:29:30.540Z</time>
      </trkpt>
      <trkpt lat="45.82526" lon="6.74177">
        <ele>1471</ele>
        <time>2026-08-14T10:29:31.540Z</time>
      </trkpt>
      <trkpt lat="45.82526" lon="6.74175">
        <ele>1471</ele>
        <time>2026-08-14T10:29:32.540Z</time>
      </trkpt>
      <trkpt lat="45.82526" lon="6.74173">
        <ele>1470</ele>
        <time>2026-08-14T10:29:33.540Z</time>
      </trkpt>
      <trkpt lat="45.82527" lon="6.74171">
        <ele>1470</ele>
        <time>2026-08-14T10:29:34.540Z</time>
      </trkpt>
      <trkpt lat="45.82527" lon="6.74169">
        <ele>1470</ele>
        <time>2026-08-14T10:29:35.540Z</time>
      </trkpt>
      <trkpt lat="45.82527" lon="6.74168">
        <ele>1470</ele>
        <time>2026-08-14T10:29:36.540Z</time>
      </trkpt>
      <trkpt lat="45.82527" lon="6.74166">
        <ele>1470</ele>
        <time>2026-08-14T10:29:37.540Z</time>
      </trkpt>
      <trkpt lat="45.82527" lon="6.74164">
        <ele>1470</ele>
        <time>2026-08-14T10:29:38.540Z</time>
      </trkpt>
      <trkpt lat="45.82528" lon="6.74162">
        <ele>1470</ele>
        <time>2026-08-14T10:29:39.540Z</time>
      </trkpt>
      <trkpt lat="45.82527" lon="6.74161">
        <ele>1470</ele>
        <time>2026-08-14T10:29:40.540Z</time>
      </trkpt>
      <trkpt lat="45.82527" lon="6.74159">
        <ele>1470</ele>
        <time>2026-08-14T10:29:41.540Z</time>
      </trkpt>
      <trkpt lat="45.82527" lon="6.74158">
        <ele>1470</ele>
        <time>2026-08-14T10:29:42.540Z</time>
      </trkpt>
      <trkpt lat="45.82526" lon="6.74156">
        <ele>1471</ele>
        <time>2026-08-14T10:29:43.540Z</time>
      </trkpt>
      <trkpt lat="45.82527" lon="6.74154">
        <ele>1471</ele>
        <time>2026-08-14T10:29:44.540Z</time>
      </trkpt>
      <trkpt lat="45.82526" lon="6.74153">
        <ele>1471</ele>
        <time>2026-08-14T10:29:45.540Z</time>
      </trkpt>
      <trkpt lat="45.82526" lon="6.74151">
        <ele>1471</ele>
        <time>2026-08-14T10:29:46.540Z</time>
      </trkpt>
      <trkpt lat="45.82526" lon="6.7415">
        <ele>1471</ele>
        <time>2026-08-14T10:29:47.540Z</time>
      </trkpt>
      <trkpt lat="45.82525" lon="6.74149">
        <ele>1471</ele>
        <time>2026-08-14T10:29:48.540Z</time>
      </trkpt>
      <trkpt lat="45.82524" lon="6.74148">
        <ele>1471</ele>
        <time>2026-08-14T10:29:49.540Z</time>
      </trkpt>
      <trkpt lat="45.82523" lon="6.74146">
        <ele>1471</ele>
        <time>2026-08-14T10:29:50.540Z</time>
      </trkpt>
      <trkpt lat="45.82522" lon="6.74145">
        <ele>1471</ele>
        <time>2026-08-14T10:29:51.540Z</time>
      </trkpt>
      <trkpt lat="45.82523" lon="6.74145">
        <ele>1471</ele>
        <time>2026-08-14T10:29:52.540Z</time>
      </trkpt>
      <trkpt lat="45.82523" lon="6.74145">
        <ele>1471</ele>
        <time>2026-08-14T10:29:53.540Z</time>
      </trkpt>
      <trkpt lat="45.82522" lon="6.74144">
        <ele>1472</ele>
        <time>2026-08-14T10:29:54.540Z</time>
      </trkpt>
      <trkpt lat="45.82522" lon="6.74144">
        <ele>1472</ele>
        <time>2026-08-14T10:29:55.540Z</time>
      </trkpt>
      <trkpt lat="45.82522" lon="6.74145">
        <ele>1472</ele>
        <time>2026-08-14T10:29:56.540Z</time>
      </trkpt>
      <trkpt lat="45.82522" lon="6.74145">
        <ele>1472</ele>
        <time>2026-08-14T10:29:57.540Z</time>
      </trkpt>
      <trkpt lat="45.82522" lon="6.74145">
        <ele>1472</ele>
        <time>2026-08-14T10:29:58.540Z</time>
      </trkpt>
      <trkpt lat="45.82523" lon="6.74144">
        <ele>1472</ele>
        <time>2026-08-14T10:29:59.540Z</time>
      </trkpt>
      <trkpt lat="45.82524" lon="6.74144">
        <ele>1471</ele>
        <time>2026-08-14T10:30:00.540Z</time>
      </trkpt>
      <trkpt lat="45.82525" lon="6.74143">
        <ele>1471</ele>
        <time>2026-08-14T10:30:01.540Z</time>
      </trkpt>
      <trkpt lat="45.82525" lon="6.74143">
        <ele>1471</ele>
        <time>2026-08-14T10:30:02.540Z</time>
      </trkpt>
      <trkpt lat="45.82526" lon="6.74143">
        <ele>1471</ele>
        <time>2026-08-14T10:30:03.540Z</time>
      </trkpt>
      <trkpt lat="45.82527" lon="6.74144">
        <ele>1471</ele>
        <time>2026-08-14T10:30:04.540Z</time>
      </trkpt>
      <trkpt lat="45.82528" lon="6.74144">
        <ele>1472</ele>
        <time>2026-08-14T10:30:05.540Z</time>
      </trkpt>
      <trkpt lat="45.82529" lon="6.74144">
        <ele>1472</ele>
        <time>2026-08-14T10:30:06.540Z</time>
      </trkpt>
      <trkpt lat="45.8253" lon="6.74144">
        <ele>1472</ele>
        <time>2026-08-14T10:30:07.540Z</time>
      </trkpt>
      <trkpt lat="45.82531" lon="6.74144">
        <ele>1472</ele>
        <time>2026-08-14T10:30:08.540Z</time>
      </trkpt>
      <trkpt lat="45.82532" lon="6.74145">
        <ele>1472</ele>
        <time>2026-08-14T10:30:09.540Z</time>
      </trkpt>
      <trkpt lat="45.82533" lon="6.74144">
        <ele>1472</ele>
        <time>2026-08-14T10:30:10.540Z</time>
      </trkpt>
      <trkpt lat="45.82534" lon="6.74144">
        <ele>1472</ele>
        <time>2026-08-14T10:30:11.540Z</time>
      </trkpt>
      <trkpt lat="45.82534" lon="6.74144">
        <ele>1472</ele>
        <time>2026-08-14T10:30:12.540Z</time>
      </trkpt>
      <trkpt lat="45.82534" lon="6.74144">
        <ele>1473</ele>
        <time>2026-08-14T10:30:13.540Z</time>
      </trkpt>
      <trkpt lat="45.82535" lon="6.74143">
        <ele>1473</ele>
        <time>2026-08-14T10:30:14.540Z</time>
      </trkpt>
      <trkpt lat="45.82535" lon="6.74143">
        <ele>1473</ele>
        <time>2026-08-14T10:30:15.540Z</time>
      </trkpt>
      <trkpt lat="45.82535" lon="6.74142">
        <ele>1473</ele>
        <time>2026-08-14T10:30:16.540Z</time>
      </trkpt>
      <trkpt lat="45.82535" lon="6.74141">
        <ele>1473</ele>
        <time>2026-08-14T10:30:17.540Z</time>
      </trkpt>
      <trkpt lat="45.82535" lon="6.74141">
        <ele>1473</ele>
        <time>2026-08-14T10:30:18.540Z</time>
      </trkpt>
      <trkpt lat="45.82535" lon="6.7414">
        <ele>1474</ele>
        <time>2026-08-14T10:30:19.540Z</time>
      </trkpt>
      <trkpt lat="45.82535" lon="6.7414">
        <ele>1474</ele>
        <time>2026-08-14T10:30:20.540Z</time>
      </trkpt>
      <trkpt lat="45.82535" lon="6.7414">
        <ele>1475</ele>
        <time>2026-08-14T10:30:21.540Z</time>
      </trkpt>
      <trkpt lat="45.82535" lon="6.74139">
        <ele>1475</ele>
        <time>2026-08-14T10:30:22.540Z</time>
      </trkpt>
      <trkpt lat="45.82536" lon="6.74139">
        <ele>1475</ele>
        <time>2026-08-14T10:30:23.540Z</time>
      </trkpt>
      <trkpt lat="45.82536" lon="6.74139">
        <ele>1476</ele>
        <time>2026-08-14T10:30:24.540Z</time>
      </trkpt>
      <trkpt lat="45.82537" lon="6.74139">
        <ele>1476</ele>
        <time>2026-08-14T10:30:25.540Z</time>
      </trkpt>
      <trkpt lat="45.82537" lon="6.74138">
        <ele>1476</ele>
        <time>2026-08-14T10:30:26.540Z</time>
      </trkpt>
      <trkpt lat="45.82537" lon="6.74138">
        <ele>1476</ele>
        <time>2026-08-14T10:30:27.540Z</time>
      </trkpt>
      <trkpt lat="45.82537" lon="6.74137">
        <ele>1477</ele>
        <time>2026-08-14T10:30:28.540Z</time>
      </trkpt>
      <trkpt lat="45.82536" lon="6.74137">
        <ele>1477</ele>
        <time>2026-08-14T10:30:29.540Z</time>
      </trkpt>
      <trkpt lat="45.82535" lon="6.74137">
        <ele>1477</ele>
        <time>2026-08-14T10:30:30.540Z</time>
      </trkpt>
      <trkpt lat="45.82535" lon="6.74136">
        <ele>1477</ele>
        <time>2026-08-14T10:30:31.540Z</time>
      </trkpt>
      <trkpt lat="45.82535" lon="6.74135">
        <ele>1477</ele>
        <time>2026-08-14T10:30:32.540Z</time>
      </trkpt>
      <trkpt lat="45.82535" lon="6.74135">
        <ele>1477</ele>
        <time>2026-08-14T10:30:33.540Z</time>
      </trkpt>
      <trkpt lat="45.82535" lon="6.74134">
        <ele>1477</ele>
        <time>2026-08-14T10:30:34.540Z</time>
      </trkpt>
      <trkpt lat="45.82536" lon="6.74133">
        <ele>1478</ele>
        <time>2026-08-14T10:30:35.540Z</time>
      </trkpt>
      <trkpt lat="45.82536" lon="6.74131">
        <ele>1478</ele>
        <time>2026-08-14T10:30:36.540Z</time>
      </trkpt>
      <trkpt lat="45.82537" lon="6.7413">
        <ele>1478</ele>
        <time>2026-08-14T10:30:37.540Z</time>
      </trkpt>
      <trkpt lat="45.82537" lon="6.74128">
        <ele>1479</ele>
        <time>2026-08-14T10:30:38.540Z</time>
      </trkpt>
      <trkpt lat="45.82537" lon="6.74128">
        <ele>1479</ele>
        <time>2026-08-14T10:30:39.540Z</time>
      </trkpt>
      <trkpt lat="45.82537" lon="6.74128">
        <ele>1480</ele>
        <time>2026-08-14T10:30:40.540Z</time>
      </trkpt>
      <trkpt lat="45.82537" lon="6.74127">
        <ele>1480</ele>
        <time>2026-08-14T10:30:41.540Z</time>
      </trkpt>
      <trkpt lat="45.82538" lon="6.74127">
        <ele>1480</ele>
        <time>2026-08-14T10:30:42.540Z</time>
      </trkpt>
      <trkpt lat="45.82537" lon="6.74127">
        <ele>1481</ele>
        <time>2026-08-14T10:30:43.540Z</time>
      </trkpt>
      <trkpt lat="45.82537" lon="6.74126">
        <ele>1481</ele>
        <time>2026-08-14T10:30:44.540Z</time>
      </trkpt>
      <trkpt lat="45.82536" lon="6.74125">
        <ele>1481</ele>
        <time>2026-08-14T10:30:45.540Z</time>
      </trkpt>
      <trkpt lat="45.82535" lon="6.74124">
        <ele>1481</ele>
        <time>2026-08-14T10:30:46.540Z</time>
      </trkpt>
      <trkpt lat="45.82535" lon="6.74122">
        <ele>1482</ele>
        <time>2026-08-14T10:30:47.540Z</time>
      </trkpt>
      <trkpt lat="45.82535" lon="6.7412">
        <ele>1482</ele>
        <time>2026-08-14T10:30:48.540Z</time>
      </trkpt>
      <trkpt lat="45.82535" lon="6.74119">
        <ele>1483</ele>
        <time>2026-08-14T10:30:49.540Z</time>
      </trkpt>
      <trkpt lat="45.82535" lon="6.74118">
        <ele>1484</ele>
        <time>2026-08-14T10:30:50.540Z</time>
      </trkpt>
      <trkpt lat="45.82535" lon="6.74117">
        <ele>1484</ele>
        <time>2026-08-14T10:30:51.540Z</time>
      </trkpt>
      <trkpt lat="45.82534" lon="6.74115">
        <ele>1484</ele>
        <time>2026-08-14T10:30:52.540Z</time>
      </trkpt>
      <trkpt lat="45.82534" lon="6.74114">
        <ele>1484</ele>
        <time>2026-08-14T10:30:53.540Z</time>
      </trkpt>
      <trkpt lat="45.82533" lon="6.74112">
        <ele>1485</ele>
        <time>2026-08-14T10:30:54.540Z</time>
      </trkpt>
      <trkpt lat="45.82533" lon="6.7411">
        <ele>1485</ele>
        <time>2026-08-14T10:30:55.540Z</time>
      </trkpt>
      <trkpt lat="45.82532" lon="6.74108">
        <ele>1486</ele>
        <time>2026-08-14T10:30:56.540Z</time>
      </trkpt>
      <trkpt lat="45.82532" lon="6.74106">
        <ele>1486</ele>
        <time>2026-08-14T10:30:57.540Z</time>
      </trkpt>
      <trkpt lat="45.82532" lon="6.74104">
        <ele>1487</ele>
        <time>2026-08-14T10:30:58.540Z</time>
      </trkpt>
      <trkpt lat="45.82532" lon="6.74103">
        <ele>1487</ele>
        <time>2026-08-14T10:30:59.540Z</time>
      </trkpt>
      <trkpt lat="45.82532" lon="6.74101">
        <ele>1488</ele>
        <time>2026-08-14T10:31:00.540Z</time>
      </trkpt>
      <trkpt lat="45.82533" lon="6.741">
        <ele>1488</ele>
        <time>2026-08-14T10:31:01.540Z</time>
      </trkpt>
      <trkpt lat="45.82533" lon="6.74099">
        <ele>1488</ele>
        <time>2026-08-14T10:31:02.540Z</time>
      </trkpt>
      <trkpt lat="45.82534" lon="6.74098">
        <ele>1489</ele>
        <time>2026-08-14T10:31:03.540Z</time>
      </trkpt>
      <trkpt lat="45.82535" lon="6.74097">
        <ele>1489</ele>
        <time>2026-08-14T10:31:04.540Z</time>
      </trkpt>
      <trkpt lat="45.82535" lon="6.74095">
        <ele>1489</ele>
        <time>2026-08-14T10:31:05.540Z</time>
      </trkpt>
      <trkpt lat="45.82536" lon="6.74094">
        <ele>1490</ele>
        <time>2026-08-14T10:31:06.540Z</time>
      </trkpt>
      <trkpt lat="45.82536" lon="6.74094">
        <ele>1490</ele>
        <time>2026-08-14T10:31:07.540Z</time>
      </trkpt>
      <trkpt lat="45.82537" lon="6.74093">
        <ele>1491</ele>
        <time>2026-08-14T10:31:08.540Z</time>
      </trkpt>
      <trkpt lat="45.82538" lon="6.74092">
        <ele>1491</ele>
        <time>2026-08-14T10:31:09.540Z</time>
      </trkpt>
      <trkpt lat="45.82539" lon="6.74092">
        <ele>1491</ele>
        <time>2026-08-14T10:31:10.540Z</time>
      </trkpt>
      <trkpt lat="45.82541" lon="6.74092">
        <ele>1492</ele>
        <time>2026-08-14T10:31:11.540Z</time>
      </trkpt>
      <trkpt lat="45.82542" lon="6.74092">
        <ele>1492</ele>
        <time>2026-08-14T10:31:12.540Z</time>
      </trkpt>
      <trkpt lat="45.82543" lon="6.74092">
        <ele>1493</ele>
        <time>2026-08-14T10:31:13.540Z</time>
      </trkpt>
      <trkpt lat="45.82544" lon="6.74092">
        <ele>1493</ele>
        <time>2026-08-14T10:31:14.540Z</time>
      </trkpt>
      <trkpt lat="45.82545" lon="6.74093">
        <ele>1493</ele>
        <time>2026-08-14T10:31:15.540Z</time>
      </trkpt>
      <trkpt lat="45.82546" lon="6.74094">
        <ele>1494</ele>
        <time>2026-08-14T10:31:16.540Z</time>
      </trkpt>
      <trkpt lat="45.82547" lon="6.74095">
        <ele>1494</ele>
        <time>2026-08-14T10:31:17.540Z</time>
      </trkpt>
      <trkpt lat="45.82547" lon="6.74096">
        <ele>1494</ele>
        <time>2026-08-14T10:31:18.540Z</time>
      </trkpt>
      <trkpt lat="45.82549" lon="6.74096">
        <ele>1494</ele>
        <time>2026-08-14T10:31:19.540Z</time>
      </trkpt>
      <trkpt lat="45.82549" lon="6.74097">
        <ele>1495</ele>
        <time>2026-08-14T10:31:20.540Z</time>
      </trkpt>
      <trkpt lat="45.82549" lon="6.74097">
        <ele>1495</ele>
        <time>2026-08-14T10:31:21.540Z</time>
      </trkpt>
      <trkpt lat="45.82549" lon="6.74097">
        <ele>1496</ele>
        <time>2026-08-14T10:31:22.540Z</time>
      </trkpt>
      <trkpt lat="45.82549" lon="6.74098">
        <ele>1497</ele>
        <time>2026-08-14T10:31:23.540Z</time>
      </trkpt>
      <trkpt lat="45.8255" lon="6.74099">
        <ele>1497</ele>
        <time>2026-08-14T10:31:24.540Z</time>
      </trkpt>
      <trkpt lat="45.8255" lon="6.741">
        <ele>1497</ele>
        <time>2026-08-14T10:31:25.540Z</time>
      </trkpt>
      <trkpt lat="45.8255" lon="6.741">
        <ele>1498</ele>
        <time>2026-08-14T10:31:26.540Z</time>
      </trkpt>
      <trkpt lat="45.8255" lon="6.74101">
        <ele>1498</ele>
        <time>2026-08-14T10:31:27.540Z</time>
      </trkpt>
      <trkpt lat="45.8255" lon="6.74101">
        <ele>1498</ele>
        <time>2026-08-14T10:31:28.540Z</time>
      </trkpt>
      <trkpt lat="45.82551" lon="6.74101">
        <ele>1498</ele>
        <time>2026-08-14T10:31:29.540Z</time>
      </trkpt>
      <trkpt lat="45.82551" lon="6.74101">
        <ele>1498</ele>
        <time>2026-08-14T10:31:30.540Z</time>
      </trkpt>
      <trkpt lat="45.82551" lon="6.74101">
        <ele>1498</ele>
        <time>2026-08-14T10:31:31.540Z</time>
      </trkpt>
      <trkpt lat="45.82551" lon="6.74101">
        <ele>1498</ele>
        <time>2026-08-14T10:31:32.540Z</time>
      </trkpt>
      <trkpt lat="45.8255" lon="6.74101">
        <ele>1498</ele>
        <time>2026-08-14T10:31:33.540Z</time>
      </trkpt>
      <trkpt lat="45.82549" lon="6.741">
        <ele>1498</ele>
        <time>2026-08-14T10:31:34.540Z</time>
      </trkpt>
      <trkpt lat="45.82549" lon="6.741">
        <ele>1498</ele>
        <time>2026-08-14T10:31:35.540Z</time>
      </trkpt>
      <trkpt lat="45.82547" lon="6.741">
        <ele>1498</ele>
        <time>2026-08-14T10:31:36.540Z</time>
      </trkpt>
      <trkpt lat="45.82546" lon="6.74099">
        <ele>1498</ele>
        <time>2026-08-14T10:31:37.540Z</time>
      </trkpt>
      <trkpt lat="45.82545" lon="6.74098">
        <ele>1498</ele>
        <time>2026-08-14T10:31:38.540Z</time>
      </trkpt>
      <trkpt lat="45.82544" lon="6.74098">
        <ele>1498</ele>
        <time>2026-08-14T10:31:39.540Z</time>
      </trkpt>
      <trkpt lat="45.82542" lon="6.74097">
        <ele>1498</ele>
        <time>2026-08-14T10:31:40.540Z</time>
      </trkpt>
      <trkpt lat="45.82541" lon="6.74096">
        <ele>1498</ele>
        <time>2026-08-14T10:31:41.540Z</time>
      </trkpt>
      <trkpt lat="45.8254" lon="6.74096">
        <ele>1498</ele>
        <time>2026-08-14T10:31:42.540Z</time>
      </trkpt>
      <trkpt lat="45.82538" lon="6.74096">
        <ele>1499</ele>
        <time>2026-08-14T10:31:43.540Z</time>
      </trkpt>
      <trkpt lat="45.82537" lon="6.74095">
        <ele>1499</ele>
        <time>2026-08-14T10:31:44.540Z</time>
      </trkpt>
      <trkpt lat="45.82537" lon="6.74094">
        <ele>1499</ele>
        <time>2026-08-14T10:31:45.540Z</time>
      </trkpt>
      <trkpt lat="45.82536" lon="6.74093">
        <ele>1498</ele>
        <time>2026-08-14T10:31:46.540Z</time>
      </trkpt>
      <trkpt lat="45.82536" lon="6.74092">
        <ele>1498</ele>
        <time>2026-08-14T10:31:47.540Z</time>
      </trkpt>
      <trkpt lat="45.82536" lon="6.7409">
        <ele>1498</ele>
        <time>2026-08-14T10:31:48.540Z</time>
      </trkpt>
      <trkpt lat="45.82537" lon="6.74089">
        <ele>1497</ele>
        <time>2026-08-14T10:31:49.540Z</time>
      </trkpt>
      <trkpt lat="45.82537" lon="6.74089">
        <ele>1497</ele>
        <time>2026-08-14T10:31:50.540Z</time>
      </trkpt>
      <trkpt lat="45.82538" lon="6.74087">
        <ele>1497</ele>
        <time>2026-08-14T10:31:51.540Z</time>
      </trkpt>
      <trkpt lat="45.82539" lon="6.74087">
        <ele>1496</ele>
        <time>2026-08-14T10:31:52.540Z</time>
      </trkpt>
      <trkpt lat="45.8254" lon="6.74086">
        <ele>1495</ele>
        <time>2026-08-14T10:31:53.540Z</time>
      </trkpt>
      <trkpt lat="45.82542" lon="6.74086">
        <ele>1495</ele>
        <time>2026-08-14T10:31:54.540Z</time>
      </trkpt>
      <trkpt lat="45.82544" lon="6.74086">
        <ele>1495</ele>
        <time>2026-08-14T10:31:55.540Z</time>
      </trkpt>
      <trkpt lat="45.82547" lon="6.74085">
        <ele>1494</ele>
        <time>2026-08-14T10:31:56.540Z</time>
      </trkpt>
      <trkpt lat="45.82548" lon="6.74086">
        <ele>1494</ele>
        <time>2026-08-14T10:31:57.540Z</time>
      </trkpt>
      <trkpt lat="45.8255" lon="6.74086">
        <ele>1494</ele>
        <time>2026-08-14T10:31:58.540Z</time>
      </trkpt>
      <trkpt lat="45.82551" lon="6.74086">
        <ele>1494</ele>
        <time>2026-08-14T10:31:59.540Z</time>
      </trkpt>
      <trkpt lat="45.82553" lon="6.74086">
        <ele>1494</ele>
        <time>2026-08-14T10:32:00.540Z</time>
      </trkpt>
      <trkpt lat="45.82554" lon="6.74085">
        <ele>1494</ele>
        <time>2026-08-14T10:32:01.540Z</time>
      </trkpt>
      <trkpt lat="45.82556" lon="6.74084">
        <ele>1494</ele>
        <time>2026-08-14T10:32:02.540Z</time>
      </trkpt>
      <trkpt lat="45.82557" lon="6.74083">
        <ele>1494</ele>
        <time>2026-08-14T10:32:03.540Z</time>
      </trkpt>
      <trkpt lat="45.82558" lon="6.74083">
        <ele>1494</ele>
        <time>2026-08-14T10:32:04.540Z</time>
      </trkpt>
      <trkpt lat="45.82558" lon="6.74083">
        <ele>1494</ele>
        <time>2026-08-14T10:32:05.540Z</time>
      </trkpt>
      <trkpt lat="45.82558" lon="6.74083">
        <ele>1494</ele>
        <time>2026-08-14T10:32:06.540Z</time>
      </trkpt>
      <trkpt lat="45.82558" lon="6.74083">
        <ele>1494</ele>
        <time>2026-08-14T10:32:07.540Z</time>
      </trkpt>
      <trkpt lat="45.82558" lon="6.74084">
        <ele>1494</ele>
        <time>2026-08-14T10:32:08.540Z</time>
      </trkpt>
      <trkpt lat="45.82558" lon="6.74084">
        <ele>1494</ele>
        <time>2026-08-14T10:32:09.540Z</time>
      </trkpt>
      <trkpt lat="45.82558" lon="6.74084">
        <ele>1494</ele>
        <time>2026-08-14T10:32:10.540Z</time>
      </trkpt>
      <trkpt lat="45.82558" lon="6.74084">
        <ele>1494</ele>
        <time>2026-08-14T10:32:11.540Z</time>
      </trkpt>
      <trkpt lat="45.82558" lon="6.74082">
        <ele>1494</ele>
        <time>2026-08-14T10:32:12.540Z</time>
      </trkpt>
      <trkpt lat="45.82557" lon="6.74079">
        <ele>1494</ele>
        <time>2026-08-14T10:32:13.540Z</time>
      </trkpt>
      <trkpt lat="45.82557" lon="6.74079">
        <ele>1495</ele>
        <time>2026-08-14T10:32:14.540Z</time>
      </trkpt>
      <trkpt lat="45.82558" lon="6.74078">
        <ele>1496</ele>
        <time>2026-08-14T10:32:15.540Z</time>
      </trkpt>
      <trkpt lat="45.82558" lon="6.74078">
        <ele>1496</ele>
        <time>2026-08-14T10:32:16.540Z</time>
      </trkpt>
      <trkpt lat="45.82559" lon="6.74079">
        <ele>1496</ele>
        <time>2026-08-14T10:32:17.540Z</time>
      </trkpt>
      <trkpt lat="45.82559" lon="6.74078">
        <ele>1496</ele>
        <time>2026-08-14T10:32:18.540Z</time>
      </trkpt>
      <trkpt lat="45.8256" lon="6.74078">
        <ele>1496</ele>
        <time>2026-08-14T10:32:19.540Z</time>
      </trkpt>
      <trkpt lat="45.82561" lon="6.74077">
        <ele>1496</ele>
        <time>2026-08-14T10:32:20.540Z</time>
      </trkpt>
      <trkpt lat="45.82561" lon="6.74079">
        <ele>1496</ele>
        <time>2026-08-14T10:32:21.540Z</time>
      </trkpt>
      <trkpt lat="45.82562" lon="6.74079">
        <ele>1497</ele>
        <time>2026-08-14T10:32:22.540Z</time>
      </trkpt>
      <trkpt lat="45.82562" lon="6.7408">
        <ele>1497</ele>
        <time>2026-08-14T10:32:23.540Z</time>
      </trkpt>
      <trkpt lat="45.82563" lon="6.7408">
        <ele>1497</ele>
        <time>2026-08-14T10:32:24.540Z</time>
      </trkpt>
      <trkpt lat="45.82563" lon="6.7408">
        <ele>1497</ele>
        <time>2026-08-14T10:32:25.540Z</time>
      </trkpt>
      <trkpt lat="45.82563" lon="6.7408">
        <ele>1496</ele>
        <time>2026-08-14T10:32:26.540Z</time>
      </trkpt>
      <trkpt lat="45.82563" lon="6.7408">
        <ele>1496</ele>
        <time>2026-08-14T10:32:27.540Z</time>
      </trkpt>
      <trkpt lat="45.82563" lon="6.7408">
        <ele>1495</ele>
        <time>2026-08-14T10:32:28.540Z</time>
      </trkpt>
      <trkpt lat="45.82563" lon="6.7408">
        <ele>1495</ele>
        <time>2026-08-14T10:32:29.540Z</time>
      </trkpt>
      <trkpt lat="45.82562" lon="6.7408">
        <ele>1495</ele>
        <time>2026-08-14T10:32:30.540Z</time>
      </trkpt>
      <trkpt lat="45.82562" lon="6.7408">
        <ele>1495</ele>
        <time>2026-08-14T10:32:31.540Z</time>
      </trkpt>
      <trkpt lat="45.82562" lon="6.7408">
        <ele>1495</ele>
        <time>2026-08-14T10:32:32.540Z</time>
      </trkpt>
      <trkpt lat="45.82562" lon="6.7408">
        <ele>1494</ele>
        <time>2026-08-14T10:32:33.540Z</time>
      </trkpt>
      <trkpt lat="45.82561" lon="6.74081">
        <ele>1494</ele>
        <time>2026-08-14T10:32:34.540Z</time>
      </trkpt>
      <trkpt lat="45.82561" lon="6.74081">
        <ele>1494</ele>
        <time>2026-08-14T10:32:35.540Z</time>
      </trkpt>
      <trkpt lat="45.8256" lon="6.74081">
        <ele>1494</ele>
        <time>2026-08-14T10:32:36.540Z</time>
      </trkpt>
      <trkpt lat="45.8256" lon="6.74081">
        <ele>1494</ele>
        <time>2026-08-14T10:32:37.540Z</time>
      </trkpt>
      <trkpt lat="45.82559" lon="6.74081">
        <ele>1494</ele>
        <time>2026-08-14T10:32:38.540Z</time>
      </trkpt>
      <trkpt lat="45.82559" lon="6.74081">
        <ele>1494</ele>
        <time>2026-08-14T10:32:39.540Z</time>
      </trkpt>
      <trkpt lat="45.82558" lon="6.74081">
        <ele>1494</ele>
        <time>2026-08-14T10:32:40.540Z</time>
      </trkpt>
      <trkpt lat="45.82557" lon="6.74082">
        <ele>1494</ele>
        <time>2026-08-14T10:32:41.540Z</time>
      </trkpt>
      <trkpt lat="45.82556" lon="6.74083">
        <ele>1494</ele>
        <time>2026-08-14T10:32:42.540Z</time>
      </trkpt>
      <trkpt lat="45.82556" lon="6.74084">
        <ele>1494</ele>
        <time>2026-08-14T10:32:43.540Z</time>
      </trkpt>
      <trkpt lat="45.82556" lon="6.74084">
        <ele>1494</ele>
        <time>2026-08-14T10:32:44.540Z</time>
      </trkpt>
      <trkpt lat="45.82555" lon="6.74085">
        <ele>1494</ele>
        <time>2026-08-14T10:32:45.540Z</time>
      </trkpt>
      <trkpt lat="45.82554" lon="6.74087">
        <ele>1494</ele>
        <time>2026-08-14T10:32:46.540Z</time>
      </trkpt>
      <trkpt lat="45.82554" lon="6.74088">
        <ele>1493</ele>
        <time>2026-08-14T10:32:47.540Z</time>
      </trkpt>
      <trkpt lat="45.82553" lon="6.74088">
        <ele>1493</ele>
        <time>2026-08-14T10:32:48.540Z</time>
      </trkpt>
      <trkpt lat="45.82553" lon="6.74089">
        <ele>1494</ele>
        <time>2026-08-14T10:32:49.540Z</time>
      </trkpt>
      <trkpt lat="45.82553" lon="6.74091">
        <ele>1494</ele>
        <time>2026-08-14T10:32:50.540Z</time>
      </trkpt>
      <trkpt lat="45.82553" lon="6.74092">
        <ele>1494</ele>
        <time>2026-08-14T10:32:51.540Z</time>
      </trkpt>
      <trkpt lat="45.82553" lon="6.74094">
        <ele>1494</ele>
        <time>2026-08-14T10:32:52.540Z</time>
      </trkpt>
      <trkpt lat="45.82553" lon="6.74096">
        <ele>1494</ele>
        <time>2026-08-14T10:32:53.540Z</time>
      </trkpt>
      <trkpt lat="45.82554" lon="6.74098">
        <ele>1494</ele>
        <time>2026-08-14T10:32:54.540Z</time>
      </trkpt>
      <trkpt lat="45.82554" lon="6.741">
        <ele>1495</ele>
        <time>2026-08-14T10:32:55.540Z</time>
      </trkpt>
      <trkpt lat="45.82555" lon="6.74101">
        <ele>1495</ele>
        <time>2026-08-14T10:32:56.540Z</time>
      </trkpt>
      <trkpt lat="45.82556" lon="6.74102">
        <ele>1495</ele>
        <time>2026-08-14T10:32:57.540Z</time>
      </trkpt>
      <trkpt lat="45.82558" lon="6.74103">
        <ele>1495</ele>
        <time>2026-08-14T10:32:58.540Z</time>
      </trkpt>
      <trkpt lat="45.82558" lon="6.74103">
        <ele>1496</ele>
        <time>2026-08-14T10:32:59.540Z</time>
      </trkpt>
      <trkpt lat="45.82559" lon="6.74103">
        <ele>1496</ele>
        <time>2026-08-14T10:33:00.540Z</time>
      </trkpt>
      <trkpt lat="45.82559" lon="6.74104">
        <ele>1496</ele>
        <time>2026-08-14T10:33:01.540Z</time>
      </trkpt>
      <trkpt lat="45.82559" lon="6.74105">
        <ele>1496</ele>
        <time>2026-08-14T10:33:02.540Z</time>
      </trkpt>
      <trkpt lat="45.82559" lon="6.74105">
        <ele>1497</ele>
        <time>2026-08-14T10:33:03.540Z</time>
      </trkpt>
      <trkpt lat="45.82559" lon="6.74106">
        <ele>1497</ele>
        <time>2026-08-14T10:33:04.540Z</time>
      </trkpt>
      <trkpt lat="45.82559" lon="6.74107">
        <ele>1497</ele>
        <time>2026-08-14T10:33:05.540Z</time>
      </trkpt>
      <trkpt lat="45.8256" lon="6.74107">
        <ele>1498</ele>
        <time>2026-08-14T10:33:06.540Z</time>
      </trkpt>
      <trkpt lat="45.82561" lon="6.74108">
        <ele>1498</ele>
        <time>2026-08-14T10:33:07.540Z</time>
      </trkpt>
      <trkpt lat="45.82563" lon="6.74109">
        <ele>1498</ele>
        <time>2026-08-14T10:33:08.540Z</time>
      </trkpt>
      <trkpt lat="45.82563" lon="6.7411">
        <ele>1498</ele>
        <time>2026-08-14T10:33:09.540Z</time>
      </trkpt>
      <trkpt lat="45.82564" lon="6.74111">
        <ele>1499</ele>
        <time>2026-08-14T10:33:10.540Z</time>
      </trkpt>
      <trkpt lat="45.82565" lon="6.74113">
        <ele>1499</ele>
        <time>2026-08-14T10:33:11.540Z</time>
      </trkpt>
      <trkpt lat="45.82565" lon="6.74113">
        <ele>1500</ele>
        <time>2026-08-14T10:33:12.540Z</time>
      </trkpt>
      <trkpt lat="45.82566" lon="6.74114">
        <ele>1501</ele>
        <time>2026-08-14T10:33:13.540Z</time>
      </trkpt>
      <trkpt lat="45.82566" lon="6.74114">
        <ele>1502</ele>
        <time>2026-08-14T10:33:14.540Z</time>
      </trkpt>
      <trkpt lat="45.82567" lon="6.74115">
        <ele>1502</ele>
        <time>2026-08-14T10:33:15.540Z</time>
      </trkpt>
      <trkpt lat="45.82567" lon="6.74115">
        <ele>1502</ele>
        <time>2026-08-14T10:33:16.540Z</time>
      </trkpt>
      <trkpt lat="45.82568" lon="6.74116">
        <ele>1502</ele>
        <time>2026-08-14T10:33:17.540Z</time>
      </trkpt>
      <trkpt lat="45.82568" lon="6.74115">
        <ele>1503</ele>
        <time>2026-08-14T10:33:18.540Z</time>
      </trkpt>
      <trkpt lat="45.82569" lon="6.74115">
        <ele>1503</ele>
        <time>2026-08-14T10:33:19.540Z</time>
      </trkpt>
      <trkpt lat="45.82571" lon="6.74115">
        <ele>1503</ele>
        <time>2026-08-14T10:33:20.540Z</time>
      </trkpt>
      <trkpt lat="45.82572" lon="6.74116">
        <ele>1504</ele>
        <time>2026-08-14T10:33:21.540Z</time>
      </trkpt>
      <trkpt lat="45.82573" lon="6.74116">
        <ele>1504</ele>
        <time>2026-08-14T10:33:22.540Z</time>
      </trkpt>
      <trkpt lat="45.82574" lon="6.74117">
        <ele>1504</ele>
        <time>2026-08-14T10:33:23.540Z</time>
      </trkpt>
      <trkpt lat="45.82574" lon="6.74118">
        <ele>1504</ele>
        <time>2026-08-14T10:33:24.540Z</time>
      </trkpt>
      <trkpt lat="45.82575" lon="6.74119">
        <ele>1504</ele>
        <time>2026-08-14T10:33:25.540Z</time>
      </trkpt>
      <trkpt lat="45.82575" lon="6.7412">
        <ele>1505</ele>
        <time>2026-08-14T10:33:26.540Z</time>
      </trkpt>
      <trkpt lat="45.82575" lon="6.74121">
        <ele>1505</ele>
        <time>2026-08-14T10:33:27.540Z</time>
      </trkpt>
      <trkpt lat="45.82575" lon="6.74122">
        <ele>1505</ele>
        <time>2026-08-14T10:33:28.540Z</time>
      </trkpt>
      <trkpt lat="45.82575" lon="6.74123">
        <ele>1506</ele>
        <time>2026-08-14T10:33:29.540Z</time>
      </trkpt>
      <trkpt lat="45.82575" lon="6.74123">
        <ele>1506</ele>
        <time>2026-08-14T10:33:30.540Z</time>
      </trkpt>
      <trkpt lat="45.82576" lon="6.74124">
        <ele>1507</ele>
        <time>2026-08-14T10:33:31.540Z</time>
      </trkpt>
      <trkpt lat="45.82576" lon="6.74124">
        <ele>1507</ele>
        <time>2026-08-14T10:33:32.540Z</time>
      </trkpt>
      <trkpt lat="45.82577" lon="6.74124">
        <ele>1508</ele>
        <time>2026-08-14T10:33:33.540Z</time>
      </trkpt>
      <trkpt lat="45.82577" lon="6.74123">
        <ele>1508</ele>
        <time>2026-08-14T10:33:34.540Z</time>
      </trkpt>
      <trkpt lat="45.82578" lon="6.74123">
        <ele>1508</ele>
        <time>2026-08-14T10:33:35.540Z</time>
      </trkpt>
      <trkpt lat="45.82578" lon="6.74123">
        <ele>1509</ele>
        <time>2026-08-14T10:33:36.540Z</time>
      </trkpt>
      <trkpt lat="45.82579" lon="6.74123">
        <ele>1509</ele>
        <time>2026-08-14T10:33:37.540Z</time>
      </trkpt>
      <trkpt lat="45.8258" lon="6.74122">
        <ele>1509</ele>
        <time>2026-08-14T10:33:38.540Z</time>
      </trkpt>
      <trkpt lat="45.82581" lon="6.74122">
        <ele>1509</ele>
        <time>2026-08-14T10:33:39.540Z</time>
      </trkpt>
      <trkpt lat="45.82581" lon="6.74122">
        <ele>1509</ele>
        <time>2026-08-14T10:33:40.540Z</time>
      </trkpt>
      <trkpt lat="45.82582" lon="6.74122">
        <ele>1509</ele>
        <time>2026-08-14T10:33:41.540Z</time>
      </trkpt>
      <trkpt lat="45.82582" lon="6.74122">
        <ele>1509</ele>
        <time>2026-08-14T10:33:42.540Z</time>
      </trkpt>
      <trkpt lat="45.82583" lon="6.74121">
        <ele>1509</ele>
        <time>2026-08-14T10:33:43.540Z</time>
      </trkpt>
      <trkpt lat="45.82585" lon="6.7412">
        <ele>1509</ele>
        <time>2026-08-14T10:33:44.540Z</time>
      </trkpt>
      <trkpt lat="45.82586" lon="6.7412">
        <ele>1509</ele>
        <time>2026-08-14T10:33:45.540Z</time>
      </trkpt>
      <trkpt lat="45.82588" lon="6.74119">
        <ele>1509</ele>
        <time>2026-08-14T10:33:46.540Z</time>
      </trkpt>
      <trkpt lat="45.82588" lon="6.74119">
        <ele>1509</ele>
        <time>2026-08-14T10:33:47.540Z</time>
      </trkpt>
      <trkpt lat="45.82588" lon="6.7412">
        <ele>1509</ele>
        <time>2026-08-14T10:33:48.540Z</time>
      </trkpt>
      <trkpt lat="45.82589" lon="6.7412">
        <ele>1509</ele>
        <time>2026-08-14T10:33:49.540Z</time>
      </trkpt>
      <trkpt lat="45.82589" lon="6.7412">
        <ele>1509</ele>
        <time>2026-08-14T10:33:50.540Z</time>
      </trkpt>
      <trkpt lat="45.8259" lon="6.74121">
        <ele>1509</ele>
        <time>2026-08-14T10:33:51.540Z</time>
      </trkpt>
      <trkpt lat="45.82591" lon="6.74122">
        <ele>1509</ele>
        <time>2026-08-14T10:33:52.540Z</time>
      </trkpt>
      <trkpt lat="45.82592" lon="6.74124">
        <ele>1509</ele>
        <time>2026-08-14T10:33:53.540Z</time>
      </trkpt>
      <trkpt lat="45.82593" lon="6.74125">
        <ele>1509</ele>
        <time>2026-08-14T10:33:54.540Z</time>
      </trkpt>
      <trkpt lat="45.82594" lon="6.74126">
        <ele>1509</ele>
        <time>2026-08-14T10:33:55.540Z</time>
      </trkpt>
      <trkpt lat="45.82595" lon="6.74126">
        <ele>1509</ele>
        <time>2026-08-14T10:33:56.540Z</time>
      </trkpt>
      <trkpt lat="45.82596" lon="6.74126">
        <ele>1510</ele>
        <time>2026-08-14T10:33:57.540Z</time>
      </trkpt>
      <trkpt lat="45.82597" lon="6.74127">
        <ele>1510</ele>
        <time>2026-08-14T10:33:58.540Z</time>
      </trkpt>
      <trkpt lat="45.82598" lon="6.74128">
        <ele>1510</ele>
        <time>2026-08-14T10:33:59.540Z</time>
      </trkpt>
      <trkpt lat="45.82599" lon="6.74128">
        <ele>1510</ele>
        <time>2026-08-14T10:34:00.540Z</time>
      </trkpt>
      <trkpt lat="45.82599" lon="6.74129">
        <ele>1511</ele>
        <time>2026-08-14T10:34:01.540Z</time>
      </trkpt>
      <trkpt lat="45.826" lon="6.7413">
        <ele>1511</ele>
        <time>2026-08-14T10:34:02.540Z</time>
      </trkpt>
      <trkpt lat="45.82601" lon="6.74132">
        <ele>1511</ele>
        <time>2026-08-14T10:34:03.540Z</time>
      </trkpt>
      <trkpt lat="45.82601" lon="6.74133">
        <ele>1511</ele>
        <time>2026-08-14T10:34:04.540Z</time>
      </trkpt>
      <trkpt lat="45.82603" lon="6.74132">
        <ele>1512</ele>
        <time>2026-08-14T10:34:05.540Z</time>
      </trkpt>
      <trkpt lat="45.82605" lon="6.74132">
        <ele>1513</ele>
        <time>2026-08-14T10:34:06.540Z</time>
      </trkpt>
      <trkpt lat="45.82605" lon="6.74133">
        <ele>1514</ele>
        <time>2026-08-14T10:34:07.540Z</time>
      </trkpt>
      <trkpt lat="45.82606" lon="6.74133">
        <ele>1514</ele>
        <time>2026-08-14T10:34:08.540Z</time>
      </trkpt>
      <trkpt lat="45.82607" lon="6.74134">
        <ele>1514</ele>
        <time>2026-08-14T10:34:09.540Z</time>
      </trkpt>
      <trkpt lat="45.82608" lon="6.74135">
        <ele>1515</ele>
        <time>2026-08-14T10:34:10.540Z</time>
      </trkpt>
      <trkpt lat="45.82609" lon="6.74136">
        <ele>1515</ele>
        <time>2026-08-14T10:34:11.540Z</time>
      </trkpt>
      <trkpt lat="45.8261" lon="6.74136">
        <ele>1515</ele>
        <time>2026-08-14T10:34:12.540Z</time>
      </trkpt>
      <trkpt lat="45.8261" lon="6.74136">
        <ele>1515</ele>
        <time>2026-08-14T10:34:13.540Z</time>
      </trkpt>
      <trkpt lat="45.82611" lon="6.74136">
        <ele>1516</ele>
        <time>2026-08-14T10:34:14.540Z</time>
      </trkpt>
      <trkpt lat="45.82612" lon="6.74137">
        <ele>1516</ele>
        <time>2026-08-14T10:34:15.540Z</time>
      </trkpt>
      <trkpt lat="45.82612" lon="6.74137">
        <ele>1516</ele>
        <time>2026-08-14T10:34:16.540Z</time>
      </trkpt>
      <trkpt lat="45.82613" lon="6.74138">
        <ele>1516</ele>
        <time>2026-08-14T10:34:17.540Z</time>
      </trkpt>
      <trkpt lat="45.82613" lon="6.74138">
        <ele>1516</ele>
        <time>2026-08-14T10:34:18.540Z</time>
      </trkpt>
      <trkpt lat="45.82614" lon="6.74138">
        <ele>1516</ele>
        <time>2026-08-14T10:34:19.540Z</time>
      </trkpt>
      <trkpt lat="45.82615" lon="6.74138">
        <ele>1516</ele>
        <time>2026-08-14T10:34:20.540Z</time>
      </trkpt>
      <trkpt lat="45.82615" lon="6.74138">
        <ele>1516</ele>
        <time>2026-08-14T10:34:21.540Z</time>
      </trkpt>
      <trkpt lat="45.82615" lon="6.74138">
        <ele>1516</ele>
        <time>2026-08-14T10:34:22.540Z</time>
      </trkpt>
      <trkpt lat="45.82616" lon="6.74138">
        <ele>1517</ele>
        <time>2026-08-14T10:34:23.540Z</time>
      </trkpt>
      <trkpt lat="45.82617" lon="6.74138">
        <ele>1517</ele>
        <time>2026-08-14T10:34:24.540Z</time>
      </trkpt>
      <trkpt lat="45.82618" lon="6.74138">
        <ele>1517</ele>
        <time>2026-08-14T10:34:25.540Z</time>
      </trkpt>
      <trkpt lat="45.82618" lon="6.74137">
        <ele>1518</ele>
        <time>2026-08-14T10:34:26.540Z</time>
      </trkpt>
      <trkpt lat="45.82619" lon="6.74136">
        <ele>1518</ele>
        <time>2026-08-14T10:34:27.540Z</time>
      </trkpt>
      <trkpt lat="45.8262" lon="6.74135">
        <ele>1518</ele>
        <time>2026-08-14T10:34:28.540Z</time>
      </trkpt>
      <trkpt lat="45.8262" lon="6.74134">
        <ele>1518</ele>
        <time>2026-08-14T10:34:29.540Z</time>
      </trkpt>
      <trkpt lat="45.8262" lon="6.74134">
        <ele>1519</ele>
        <time>2026-08-14T10:34:30.540Z</time>
      </trkpt>
      <trkpt lat="45.8262" lon="6.74134">
        <ele>1519</ele>
        <time>2026-08-14T10:34:31.540Z</time>
      </trkpt>
      <trkpt lat="45.82621" lon="6.74133">
        <ele>1519</ele>
        <time>2026-08-14T10:34:32.540Z</time>
      </trkpt>
      <trkpt lat="45.82622" lon="6.74132">
        <ele>1520</ele>
        <time>2026-08-14T10:34:33.540Z</time>
      </trkpt>
      <trkpt lat="45.82623" lon="6.74132">
        <ele>1520</ele>
        <time>2026-08-14T10:34:34.540Z</time>
      </trkpt>
      <trkpt lat="45.82624" lon="6.74133">
        <ele>1521</ele>
        <time>2026-08-14T10:34:35.540Z</time>
      </trkpt>
      <trkpt lat="45.82625" lon="6.74135">
        <ele>1521</ele>
        <time>2026-08-14T10:34:36.540Z</time>
      </trkpt>
      <trkpt lat="45.82626" lon="6.74137">
        <ele>1521</ele>
        <time>2026-08-14T10:34:37.540Z</time>
      </trkpt>
      <trkpt lat="45.82627" lon="6.74138">
        <ele>1520</ele>
        <time>2026-08-14T10:34:38.540Z</time>
      </trkpt>
      <trkpt lat="45.82627" lon="6.74139">
        <ele>1520</ele>
        <time>2026-08-14T10:34:39.540Z</time>
      </trkpt>
      <trkpt lat="45.82628" lon="6.7414">
        <ele>1520</ele>
        <time>2026-08-14T10:34:40.540Z</time>
      </trkpt>
      <trkpt lat="45.82629" lon="6.74141">
        <ele>1520</ele>
        <time>2026-08-14T10:34:41.540Z</time>
      </trkpt>
      <trkpt lat="45.8263" lon="6.74142">
        <ele>1520</ele>
        <time>2026-08-14T10:34:42.540Z</time>
      </trkpt>
      <trkpt lat="45.82631" lon="6.74143">
        <ele>1519</ele>
        <time>2026-08-14T10:34:43.540Z</time>
      </trkpt>
      <trkpt lat="45.82632" lon="6.74143">
        <ele>1519</ele>
        <time>2026-08-14T10:34:44.540Z</time>
      </trkpt>
      <trkpt lat="45.82633" lon="6.74142">
        <ele>1519</ele>
        <time>2026-08-14T10:34:45.540Z</time>
      </trkpt>
      <trkpt lat="45.82634" lon="6.74143">
        <ele>1519</ele>
        <time>2026-08-14T10:34:46.540Z</time>
      </trkpt>
      <trkpt lat="45.82635" lon="6.74143">
        <ele>1519</ele>
        <time>2026-08-14T10:34:47.540Z</time>
      </trkpt>
      <trkpt lat="45.82636" lon="6.74143">
        <ele>1519</ele>
        <time>2026-08-14T10:34:48.540Z</time>
      </trkpt>
      <trkpt lat="45.82637" lon="6.74144">
        <ele>1518</ele>
        <time>2026-08-14T10:34:49.540Z</time>
      </trkpt>
      <trkpt lat="45.82638" lon="6.74143">
        <ele>1518</ele>
        <time>2026-08-14T10:34:50.540Z</time>
      </trkpt>
      <trkpt lat="45.8264" lon="6.74144">
        <ele>1517</ele>
        <time>2026-08-14T10:34:51.540Z</time>
      </trkpt>
      <trkpt lat="45.82641" lon="6.74144">
        <ele>1517</ele>
        <time>2026-08-14T10:34:52.540Z</time>
      </trkpt>
      <trkpt lat="45.82642" lon="6.74143">
        <ele>1517</ele>
        <time>2026-08-14T10:34:53.540Z</time>
      </trkpt>
      <trkpt lat="45.82643" lon="6.74143">
        <ele>1517</ele>
        <time>2026-08-14T10:34:54.540Z</time>
      </trkpt>
      <trkpt lat="45.82643" lon="6.74143">
        <ele>1517</ele>
        <time>2026-08-14T10:34:55.540Z</time>
      </trkpt>
      <trkpt lat="45.82643" lon="6.74143">
        <ele>1517</ele>
        <time>2026-08-14T10:34:56.540Z</time>
      </trkpt>
      <trkpt lat="45.82644" lon="6.74143">
        <ele>1516</ele>
        <time>2026-08-14T10:34:57.540Z</time>
      </trkpt>
      <trkpt lat="45.82644" lon="6.74143">
        <ele>1516</ele>
        <time>2026-08-14T10:34:58.540Z</time>
      </trkpt>
      <trkpt lat="45.82644" lon="6.74143">
        <ele>1516</ele>
        <time>2026-08-14T10:34:59.540Z</time>
      </trkpt>
      <trkpt lat="45.82644" lon="6.74143">
        <ele>1516</ele>
        <time>2026-08-14T10:35:00.540Z</time>
      </trkpt>
      <trkpt lat="45.82644" lon="6.74142">
        <ele>1516</ele>
        <time>2026-08-14T10:35:01.540Z</time>
      </trkpt>
      <trkpt lat="45.82645" lon="6.74142">
        <ele>1515</ele>
        <time>2026-08-14T10:35:02.540Z</time>
      </trkpt>
      <trkpt lat="45.82645" lon="6.74142">
        <ele>1515</ele>
        <time>2026-08-14T10:35:03.540Z</time>
      </trkpt>
      <trkpt lat="45.82646" lon="6.74142">
        <ele>1515</ele>
        <time>2026-08-14T10:35:04.540Z</time>
      </trkpt>
      <trkpt lat="45.82646" lon="6.74142">
        <ele>1516</ele>
        <time>2026-08-14T10:35:05.540Z</time>
      </trkpt>
      <trkpt lat="45.82647" lon="6.74142">
        <ele>1516</ele>
        <time>2026-08-14T10:35:06.540Z</time>
      </trkpt>
      <trkpt lat="45.82648" lon="6.74141">
        <ele>1517</ele>
        <time>2026-08-14T10:35:07.540Z</time>
      </trkpt>
      <trkpt lat="45.82648" lon="6.7414">
        <ele>1518</ele>
        <time>2026-08-14T10:35:08.540Z</time>
      </trkpt>
      <trkpt lat="45.82649" lon="6.7414">
        <ele>1519</ele>
        <time>2026-08-14T10:35:09.540Z</time>
      </trkpt>
      <trkpt lat="45.82651" lon="6.74139">
        <ele>1520</ele>
        <time>2026-08-14T10:35:10.540Z</time>
      </trkpt>
      <trkpt lat="45.82652" lon="6.74139">
        <ele>1521</ele>
        <time>2026-08-14T10:35:11.540Z</time>
      </trkpt>
      <trkpt lat="45.82653" lon="6.74139">
        <ele>1521</ele>
        <time>2026-08-14T10:35:12.540Z</time>
      </trkpt>
      <trkpt lat="45.82654" lon="6.74138">
        <ele>1522</ele>
        <time>2026-08-14T10:35:13.540Z</time>
      </trkpt>
      <trkpt lat="45.82655" lon="6.74138">
        <ele>1522</ele>
        <time>2026-08-14T10:35:14.540Z</time>
      </trkpt>
      <trkpt lat="45.82656" lon="6.74138">
        <ele>1522</ele>
        <time>2026-08-14T10:35:15.540Z</time>
      </trkpt>
      <trkpt lat="45.82657" lon="6.74138">
        <ele>1523</ele>
        <time>2026-08-14T10:35:16.540Z</time>
      </trkpt>
      <trkpt lat="45.82658" lon="6.74138">
        <ele>1523</ele>
        <time>2026-08-14T10:35:17.540Z</time>
      </trkpt>
      <trkpt lat="45.82659" lon="6.74137">
        <ele>1524</ele>
        <time>2026-08-14T10:35:18.540Z</time>
      </trkpt>
      <trkpt lat="45.82659" lon="6.74136">
        <ele>1524</ele>
        <time>2026-08-14T10:35:19.540Z</time>
      </trkpt>
      <trkpt lat="45.82659" lon="6.74134">
        <ele>1525</ele>
        <time>2026-08-14T10:35:20.540Z</time>
      </trkpt>
      <trkpt lat="45.8266" lon="6.74133">
        <ele>1525</ele>
        <time>2026-08-14T10:35:21.540Z</time>
      </trkpt>
      <trkpt lat="45.82661" lon="6.74133">
        <ele>1525</ele>
        <time>2026-08-14T10:35:22.540Z</time>
      </trkpt>
      <trkpt lat="45.82662" lon="6.74134">
        <ele>1526</ele>
        <time>2026-08-14T10:35:23.540Z</time>
      </trkpt>
      <trkpt lat="45.82663" lon="6.74133">
        <ele>1526</ele>
        <time>2026-08-14T10:35:24.540Z</time>
      </trkpt>
      <trkpt lat="45.82664" lon="6.74132">
        <ele>1526</ele>
        <time>2026-08-14T10:35:25.540Z</time>
      </trkpt>
      <trkpt lat="45.82665" lon="6.74131">
        <ele>1526</ele>
        <time>2026-08-14T10:35:26.540Z</time>
      </trkpt>
      <trkpt lat="45.82666" lon="6.7413">
        <ele>1525</ele>
        <time>2026-08-14T10:35:27.540Z</time>
      </trkpt>
      <trkpt lat="45.82667" lon="6.74129">
        <ele>1525</ele>
        <time>2026-08-14T10:35:28.540Z</time>
      </trkpt>
      <trkpt lat="45.82668" lon="6.74129">
        <ele>1525</ele>
        <time>2026-08-14T10:35:29.540Z</time>
      </trkpt>
      <trkpt lat="45.82668" lon="6.74128">
        <ele>1524</ele>
        <time>2026-08-14T10:35:30.540Z</time>
      </trkpt>
      <trkpt lat="45.82669" lon="6.74127">
        <ele>1524</ele>
        <time>2026-08-14T10:35:31.540Z</time>
      </trkpt>
      <trkpt lat="45.8267" lon="6.74127">
        <ele>1524</ele>
        <time>2026-08-14T10:35:32.540Z</time>
      </trkpt>
      <trkpt lat="45.82671" lon="6.74126">
        <ele>1524</ele>
        <time>2026-08-14T10:35:33.540Z</time>
      </trkpt>
      <trkpt lat="45.82672" lon="6.74127">
        <ele>1523</ele>
        <time>2026-08-14T10:35:34.540Z</time>
      </trkpt>
      <trkpt lat="45.82674" lon="6.74127">
        <ele>1523</ele>
        <time>2026-08-14T10:35:35.540Z</time>
      </trkpt>
      <trkpt lat="45.82675" lon="6.74126">
        <ele>1523</ele>
        <time>2026-08-14T10:35:36.540Z</time>
      </trkpt>
      <trkpt lat="45.82676" lon="6.74127">
        <ele>1524</ele>
        <time>2026-08-14T10:35:37.540Z</time>
      </trkpt>
      <trkpt lat="45.82677" lon="6.74126">
        <ele>1524</ele>
        <time>2026-08-14T10:35:38.540Z</time>
      </trkpt>
      <trkpt lat="45.82678" lon="6.74126">
        <ele>1524</ele>
        <time>2026-08-14T10:35:39.540Z</time>
      </trkpt>
      <trkpt lat="45.8268" lon="6.74125">
        <ele>1524</ele>
        <time>2026-08-14T10:35:40.540Z</time>
      </trkpt>
      <trkpt lat="45.82681" lon="6.74124">
        <ele>1524</ele>
        <time>2026-08-14T10:35:41.540Z</time>
      </trkpt>
      <trkpt lat="45.82682" lon="6.74123">
        <ele>1524</ele>
        <time>2026-08-14T10:35:42.540Z</time>
      </trkpt>
      <trkpt lat="45.82683" lon="6.74121">
        <ele>1524</ele>
        <time>2026-08-14T10:35:43.540Z</time>
      </trkpt>
      <trkpt lat="45.82683" lon="6.7412">
        <ele>1525</ele>
        <time>2026-08-14T10:35:44.540Z</time>
      </trkpt>
      <trkpt lat="45.82684" lon="6.7412">
        <ele>1526</ele>
        <time>2026-08-14T10:35:45.540Z</time>
      </trkpt>
      <trkpt lat="45.82685" lon="6.74119">
        <ele>1526</ele>
        <time>2026-08-14T10:35:46.540Z</time>
      </trkpt>
      <trkpt lat="45.82686" lon="6.74119">
        <ele>1527</ele>
        <time>2026-08-14T10:35:47.540Z</time>
      </trkpt>
      <trkpt lat="45.82687" lon="6.74118">
        <ele>1527</ele>
        <time>2026-08-14T10:35:48.540Z</time>
      </trkpt>
      <trkpt lat="45.82688" lon="6.74119">
        <ele>1527</ele>
        <time>2026-08-14T10:35:49.540Z</time>
      </trkpt>
      <trkpt lat="45.82689" lon="6.74118">
        <ele>1528</ele>
        <time>2026-08-14T10:35:50.540Z</time>
      </trkpt>
      <trkpt lat="45.82689" lon="6.74117">
        <ele>1529</ele>
        <time>2026-08-14T10:35:51.540Z</time>
      </trkpt>
      <trkpt lat="45.8269" lon="6.74117">
        <ele>1529</ele>
        <time>2026-08-14T10:35:52.540Z</time>
      </trkpt>
      <trkpt lat="45.82691" lon="6.74116">
        <ele>1530</ele>
        <time>2026-08-14T10:35:53.540Z</time>
      </trkpt>
      <trkpt lat="45.82692" lon="6.74116">
        <ele>1531</ele>
        <time>2026-08-14T10:35:54.540Z</time>
      </trkpt>
      <trkpt lat="45.82692" lon="6.74115">
        <ele>1531</ele>
        <time>2026-08-14T10:35:55.540Z</time>
      </trkpt>
      <trkpt lat="45.82694" lon="6.74114">
        <ele>1532</ele>
        <time>2026-08-14T10:35:56.540Z</time>
      </trkpt>
      <trkpt lat="45.82694" lon="6.74113">
        <ele>1532</ele>
        <time>2026-08-14T10:35:57.540Z</time>
      </trkpt>
      <trkpt lat="45.82695" lon="6.74112">
        <ele>1533</ele>
        <time>2026-08-14T10:35:58.540Z</time>
      </trkpt>
      <trkpt lat="45.82696" lon="6.74112">
        <ele>1533</ele>
        <time>2026-08-14T10:35:59.540Z</time>
      </trkpt>
      <trkpt lat="45.82696" lon="6.74111">
        <ele>1534</ele>
        <time>2026-08-14T10:36:00.540Z</time>
      </trkpt>
      <trkpt lat="45.82696" lon="6.74111">
        <ele>1534</ele>
        <time>2026-08-14T10:36:01.540Z</time>
      </trkpt>
      <trkpt lat="45.82696" lon="6.74111">
        <ele>1534</ele>
        <time>2026-08-14T10:36:02.540Z</time>
      </trkpt>
      <trkpt lat="45.82697" lon="6.7411">
        <ele>1534</ele>
        <time>2026-08-14T10:36:03.540Z</time>
      </trkpt>
      <trkpt lat="45.82697" lon="6.74109">
        <ele>1535</ele>
        <time>2026-08-14T10:36:04.540Z</time>
      </trkpt>
      <trkpt lat="45.82698" lon="6.74108">
        <ele>1535</ele>
        <time>2026-08-14T10:36:05.540Z</time>
      </trkpt>
      <trkpt lat="45.82698" lon="6.74107">
        <ele>1535</ele>
        <time>2026-08-14T10:36:06.540Z</time>
      </trkpt>
      <trkpt lat="45.82699" lon="6.74106">
        <ele>1536</ele>
        <time>2026-08-14T10:36:07.540Z</time>
      </trkpt>
      <trkpt lat="45.82699" lon="6.74106">
        <ele>1536</ele>
        <time>2026-08-14T10:36:08.540Z</time>
      </trkpt>
      <trkpt lat="45.827" lon="6.74105">
        <ele>1536</ele>
        <time>2026-08-14T10:36:09.540Z</time>
      </trkpt>
      <trkpt lat="45.82701" lon="6.74104">
        <ele>1537</ele>
        <time>2026-08-14T10:36:10.540Z</time>
      </trkpt>
      <trkpt lat="45.82702" lon="6.74103">
        <ele>1537</ele>
        <time>2026-08-14T10:36:11.540Z</time>
      </trkpt>
      <trkpt lat="45.82703" lon="6.74102">
        <ele>1537</ele>
        <time>2026-08-14T10:36:12.540Z</time>
      </trkpt>
      <trkpt lat="45.82704" lon="6.74102">
        <ele>1538</ele>
        <time>2026-08-14T10:36:13.540Z</time>
      </trkpt>
      <trkpt lat="45.82704" lon="6.74102">
        <ele>1538</ele>
        <time>2026-08-14T10:36:14.540Z</time>
      </trkpt>
      <trkpt lat="45.82705" lon="6.74102">
        <ele>1538</ele>
        <time>2026-08-14T10:36:15.540Z</time>
      </trkpt>
      <trkpt lat="45.82705" lon="6.74101">
        <ele>1539</ele>
        <time>2026-08-14T10:36:16.540Z</time>
      </trkpt>
      <trkpt lat="45.82705" lon="6.74101">
        <ele>1539</ele>
        <time>2026-08-14T10:36:17.540Z</time>
      </trkpt>
      <trkpt lat="45.82706" lon="6.74101">
        <ele>1539</ele>
        <time>2026-08-14T10:36:18.540Z</time>
      </trkpt>
      <trkpt lat="45.82706" lon="6.74101">
        <ele>1539</ele>
        <time>2026-08-14T10:36:19.540Z</time>
      </trkpt>
      <trkpt lat="45.82707" lon="6.74101">
        <ele>1539</ele>
        <time>2026-08-14T10:36:20.540Z</time>
      </trkpt>
      <trkpt lat="45.82708" lon="6.74101">
        <ele>1540</ele>
        <time>2026-08-14T10:36:21.540Z</time>
      </trkpt>
      <trkpt lat="45.82708" lon="6.74101">
        <ele>1540</ele>
        <time>2026-08-14T10:36:22.540Z</time>
      </trkpt>
      <trkpt lat="45.82709" lon="6.74101">
        <ele>1540</ele>
        <time>2026-08-14T10:36:23.540Z</time>
      </trkpt>
      <trkpt lat="45.82709" lon="6.74101">
        <ele>1540</ele>
        <time>2026-08-14T10:36:24.540Z</time>
      </trkpt>
      <trkpt lat="45.82709" lon="6.74101">
        <ele>1540</ele>
        <time>2026-08-14T10:36:25.540Z</time>
      </trkpt>
      <trkpt lat="45.8271" lon="6.74101">
        <ele>1540</ele>
        <time>2026-08-14T10:36:26.540Z</time>
      </trkpt>
      <trkpt lat="45.82711" lon="6.74102">
        <ele>1540</ele>
        <time>2026-08-14T10:36:27.540Z</time>
      </trkpt>
      <trkpt lat="45.82712" lon="6.74101">
        <ele>1541</ele>
        <time>2026-08-14T10:36:28.540Z</time>
      </trkpt>
      <trkpt lat="45.82713" lon="6.74101">
        <ele>1541</ele>
        <time>2026-08-14T10:36:29.540Z</time>
      </trkpt>
      <trkpt lat="45.82714" lon="6.741">
        <ele>1541</ele>
        <time>2026-08-14T10:36:30.540Z</time>
      </trkpt>
      <trkpt lat="45.82715" lon="6.741">
        <ele>1541</ele>
        <time>2026-08-14T10:36:31.540Z</time>
      </trkpt>
      <trkpt lat="45.82715" lon="6.74099">
        <ele>1541</ele>
        <time>2026-08-14T10:36:32.540Z</time>
      </trkpt>
      <trkpt lat="45.82716" lon="6.74099">
        <ele>1542</ele>
        <time>2026-08-14T10:36:33.540Z</time>
      </trkpt>
      <trkpt lat="45.82717" lon="6.741">
        <ele>1542</ele>
        <time>2026-08-14T10:36:34.540Z</time>
      </trkpt>
      <trkpt lat="45.82717" lon="6.741">
        <ele>1542</ele>
        <time>2026-08-14T10:36:35.540Z</time>
      </trkpt>
      <trkpt lat="45.82718" lon="6.741">
        <ele>1542</ele>
        <time>2026-08-14T10:36:36.540Z</time>
      </trkpt>
      <trkpt lat="45.82719" lon="6.741">
        <ele>1542</ele>
        <time>2026-08-14T10:36:37.540Z</time>
      </trkpt>
      <trkpt lat="45.82719" lon="6.74101">
        <ele>1542</ele>
        <time>2026-08-14T10:36:38.540Z</time>
      </trkpt>
      <trkpt lat="45.82719" lon="6.74101">
        <ele>1542</ele>
        <time>2026-08-14T10:36:39.540Z</time>
      </trkpt>
      <trkpt lat="45.82721" lon="6.74101">
        <ele>1542</ele>
        <time>2026-08-14T10:36:40.540Z</time>
      </trkpt>
      <trkpt lat="45.82722" lon="6.74103">
        <ele>1542</ele>
        <time>2026-08-14T10:36:41.540Z</time>
      </trkpt>
      <trkpt lat="45.82722" lon="6.74104">
        <ele>1542</ele>
        <time>2026-08-14T10:36:42.540Z</time>
      </trkpt>
      <trkpt lat="45.82723" lon="6.74104">
        <ele>1542</ele>
        <time>2026-08-14T10:36:43.540Z</time>
      </trkpt>
      <trkpt lat="45.82723" lon="6.74106">
        <ele>1542</ele>
        <time>2026-08-14T10:36:44.540Z</time>
      </trkpt>
      <trkpt lat="45.82723" lon="6.74108">
        <ele>1542</ele>
        <time>2026-08-14T10:36:45.540Z</time>
      </trkpt>
      <trkpt lat="45.82724" lon="6.7411">
        <ele>1542</ele>
        <time>2026-08-14T10:36:46.540Z</time>
      </trkpt>
      <trkpt lat="45.82724" lon="6.74112">
        <ele>1543</ele>
        <time>2026-08-14T10:36:47.540Z</time>
      </trkpt>
      <trkpt lat="45.82724" lon="6.74113">
        <ele>1543</ele>
        <time>2026-08-14T10:36:48.540Z</time>
      </trkpt>
      <trkpt lat="45.82723" lon="6.74114">
        <ele>1543</ele>
        <time>2026-08-14T10:36:49.540Z</time>
      </trkpt>
      <trkpt lat="45.82724" lon="6.74115">
        <ele>1543</ele>
        <time>2026-08-14T10:36:50.540Z</time>
      </trkpt>
      <trkpt lat="45.82725" lon="6.74116">
        <ele>1543</ele>
        <time>2026-08-14T10:36:51.540Z</time>
      </trkpt>
      <trkpt lat="45.82726" lon="6.74116">
        <ele>1543</ele>
        <time>2026-08-14T10:36:52.540Z</time>
      </trkpt>
      <trkpt lat="45.82727" lon="6.74117">
        <ele>1543</ele>
        <time>2026-08-14T10:36:53.540Z</time>
      </trkpt>
      <trkpt lat="45.82728" lon="6.74118">
        <ele>1543</ele>
        <time>2026-08-14T10:36:54.540Z</time>
      </trkpt>
      <trkpt lat="45.82728" lon="6.74119">
        <ele>1543</ele>
        <time>2026-08-14T10:36:55.540Z</time>
      </trkpt>
      <trkpt lat="45.82728" lon="6.7412">
        <ele>1543</ele>
        <time>2026-08-14T10:36:56.540Z</time>
      </trkpt>
      <trkpt lat="45.82729" lon="6.7412">
        <ele>1543</ele>
        <time>2026-08-14T10:36:57.540Z</time>
      </trkpt>
      <trkpt lat="45.82729" lon="6.74121">
        <ele>1543</ele>
        <time>2026-08-14T10:36:58.540Z</time>
      </trkpt>
      <trkpt lat="45.8273" lon="6.74122">
        <ele>1543</ele>
        <time>2026-08-14T10:36:59.540Z</time>
      </trkpt>
      <trkpt lat="45.8273" lon="6.74122">
        <ele>1544</ele>
        <time>2026-08-14T10:37:00.540Z</time>
      </trkpt>
      <trkpt lat="45.82731" lon="6.74123">
        <ele>1544</ele>
        <time>2026-08-14T10:37:01.540Z</time>
      </trkpt>
      <trkpt lat="45.82732" lon="6.74124">
        <ele>1544</ele>
        <time>2026-08-14T10:37:02.540Z</time>
      </trkpt>
      <trkpt lat="45.82732" lon="6.74124">
        <ele>1545</ele>
        <time>2026-08-14T10:37:03.540Z</time>
      </trkpt>
      <trkpt lat="45.82733" lon="6.74125">
        <ele>1545</ele>
        <time>2026-08-14T10:37:04.540Z</time>
      </trkpt>
      <trkpt lat="45.82733" lon="6.74125">
        <ele>1545</ele>
        <time>2026-08-14T10:37:05.540Z</time>
      </trkpt>
      <trkpt lat="45.82734" lon="6.74125">
        <ele>1546</ele>
        <time>2026-08-14T10:37:06.540Z</time>
      </trkpt>
      <trkpt lat="45.82734" lon="6.74125">
        <ele>1546</ele>
        <time>2026-08-14T10:37:07.540Z</time>
      </trkpt>
      <trkpt lat="45.82735" lon="6.74126">
        <ele>1546</ele>
        <time>2026-08-14T10:37:08.540Z</time>
      </trkpt>
      <trkpt lat="45.82736" lon="6.74127">
        <ele>1546</ele>
        <time>2026-08-14T10:37:09.540Z</time>
      </trkpt>
      <trkpt lat="45.82736" lon="6.74129">
        <ele>1546</ele>
        <time>2026-08-14T10:37:10.540Z</time>
      </trkpt>
      <trkpt lat="45.82736" lon="6.7413">
        <ele>1547</ele>
        <time>2026-08-14T10:37:11.540Z</time>
      </trkpt>
      <trkpt lat="45.82737" lon="6.74131">
        <ele>1547</ele>
        <time>2026-08-14T10:37:12.540Z</time>
      </trkpt>
      <trkpt lat="45.82737" lon="6.74131">
        <ele>1547</ele>
        <time>2026-08-14T10:37:13.540Z</time>
      </trkpt>
      <trkpt lat="45.82737" lon="6.74132">
        <ele>1548</ele>
        <time>2026-08-14T10:37:14.540Z</time>
      </trkpt>
      <trkpt lat="45.82737" lon="6.74133">
        <ele>1549</ele>
        <time>2026-08-14T10:37:15.540Z</time>
      </trkpt>
      <trkpt lat="45.82738" lon="6.74134">
        <ele>1549</ele>
        <time>2026-08-14T10:37:16.540Z</time>
      </trkpt>
      <trkpt lat="45.82738" lon="6.74135">
        <ele>1550</ele>
        <time>2026-08-14T10:37:17.540Z</time>
      </trkpt>
      <trkpt lat="45.82738" lon="6.74135">
        <ele>1550</ele>
        <time>2026-08-14T10:37:18.540Z</time>
      </trkpt>
      <trkpt lat="45.82739" lon="6.74136">
        <ele>1551</ele>
        <time>2026-08-14T10:37:19.540Z</time>
      </trkpt>
      <trkpt lat="45.82739" lon="6.74136">
        <ele>1551</ele>
        <time>2026-08-14T10:37:20.540Z</time>
      </trkpt>
      <trkpt lat="45.82739" lon="6.74136">
        <ele>1551</ele>
        <time>2026-08-14T10:37:21.540Z</time>
      </trkpt>
      <trkpt lat="45.82739" lon="6.74136">
        <ele>1551</ele>
        <time>2026-08-14T10:37:22.540Z</time>
      </trkpt>
      <trkpt lat="45.82739" lon="6.74136">
        <ele>1551</ele>
        <time>2026-08-14T10:37:23.540Z</time>
      </trkpt>
      <trkpt lat="45.82739" lon="6.74136">
        <ele>1551</ele>
        <time>2026-08-14T10:37:24.540Z</time>
      </trkpt>
      <trkpt lat="45.82739" lon="6.74136">
        <ele>1551</ele>
        <time>2026-08-14T10:37:25.540Z</time>
      </trkpt>
      <trkpt lat="45.82739" lon="6.74136">
        <ele>1551</ele>
        <time>2026-08-14T10:37:26.540Z</time>
      </trkpt>
      <trkpt lat="45.82739" lon="6.74136">
        <ele>1551</ele>
        <time>2026-08-14T10:37:27.540Z</time>
      </trkpt>
      <trkpt lat="45.82739" lon="6.74136">
        <ele>1551</ele>
        <time>2026-08-14T10:37:28.540Z</time>
      </trkpt>
      <trkpt lat="45.82739" lon="6.74136">
        <ele>1551</ele>
        <time>2026-08-14T10:37:29.540Z</time>
      </trkpt>
      <trkpt lat="45.82739" lon="6.74136">
        <ele>1550</ele>
        <time>2026-08-14T10:37:30.540Z</time>
      </trkpt>
      <trkpt lat="45.82739" lon="6.74136">
        <ele>1550</ele>
        <time>2026-08-14T10:37:31.540Z</time>
      </trkpt>
      <trkpt lat="45.82739" lon="6.74136">
        <ele>1550</ele>
        <time>2026-08-14T10:37:32.540Z</time>
      </trkpt>
      <trkpt lat="45.82739" lon="6.74136">
        <ele>1550</ele>
        <time>2026-08-14T10:37:33.540Z</time>
      </trkpt>
      <trkpt lat="45.82739" lon="6.74136">
        <ele>1549</ele>
        <time>2026-08-14T10:37:34.540Z</time>
      </trkpt>
      <trkpt lat="45.82739" lon="6.74136">
        <ele>1549</ele>
        <time>2026-08-14T10:37:35.540Z</time>
      </trkpt>
      <trkpt lat="45.82739" lon="6.74136">
        <ele>1549</ele>
        <time>2026-08-14T10:37:36.540Z</time>
      </trkpt>
      <trkpt lat="45.82739" lon="6.74136">
        <ele>1549</ele>
        <time>2026-08-14T10:37:37.540Z</time>
      </trkpt>
      <trkpt lat="45.82739" lon="6.74136">
        <ele>1549</ele>
        <time>2026-08-14T10:37:38.540Z</time>
      </trkpt>
      <trkpt lat="45.82739" lon="6.74136">
        <ele>1549</ele>
        <time>2026-08-14T10:37:39.540Z</time>
      </trkpt>
      <trkpt lat="45.82739" lon="6.74136">
        <ele>1549</ele>
        <time>2026-08-14T10:37:40.540Z</time>
      </trkpt>
      <trkpt lat="45.82739" lon="6.74136">
        <ele>1548</ele>
        <time>2026-08-14T10:37:41.540Z</time>
      </trkpt>
      <trkpt lat="45.82739" lon="6.74136">
        <ele>1548</ele>
        <time>2026-08-14T10:37:42.540Z</time>
      </trkpt>
      <trkpt lat="45.82739" lon="6.74136">
        <ele>1548</ele>
        <time>2026-08-14T10:37:43.540Z</time>
      </trkpt>
      <trkpt lat="45.82739" lon="6.74136">
        <ele>1548</ele>
        <time>2026-08-14T10:37:44.540Z</time>
      </trkpt>
      <trkpt lat="45.82739" lon="6.74136">
        <ele>1548</ele>
        <time>2026-08-14T10:37:45.540Z</time>
      </trkpt>
      <trkpt lat="45.82739" lon="6.74136">
        <ele>1548</ele>
        <time>2026-08-14T10:37:46.540Z</time>
      </trkpt>
      <trkpt lat="45.82739" lon="6.74136">
        <ele>1548</ele>
        <time>2026-08-14T10:37:47.540Z</time>
      </trkpt>
      <trkpt lat="45.82739" lon="6.74136">
        <ele>1548</ele>
        <time>2026-08-14T10:37:48.540Z</time>
      </trkpt>
      <trkpt lat="45.82739" lon="6.74136">
        <ele>1548</ele>
        <time>2026-08-14T10:37:49.540Z</time>
      </trkpt>
      <trkpt lat="45.82739" lon="6.74136">
        <ele>1548</ele>
        <time>2026-08-14T10:37:50.540Z</time>
      </trkpt>
      <trkpt lat="45.82739" lon="6.74136">
        <ele>1548</ele>
        <time>2026-08-14T10:37:51.540Z</time>
      </trkpt>
      <trkpt lat="45.82739" lon="6.74136">
        <ele>1548</ele>
        <time>2026-08-14T10:37:52.540Z</time>
      </trkpt>
      <trkpt lat="45.82739" lon="6.74136">
        <ele>1548</ele>
        <time>2026-08-14T10:37:53.540Z</time>
      </trkpt>
      <trkpt lat="45.82739" lon="6.74136">
        <ele>1548</ele>
        <time>2026-08-14T10:37:54.540Z</time>
      </trkpt>
      <trkpt lat="45.82739" lon="6.74136">
        <ele>1548</ele>
        <time>2026-08-14T10:37:55.540Z</time>
      </trkpt>
      <trkpt lat="45.82739" lon="6.74136">
        <ele>1548</ele>
        <time>2026-08-14T10:37:56.540Z</time>
      </trkpt>
      <trkpt lat="45.82739" lon="6.74136">
        <ele>1548</ele>
        <time>2026-08-14T10:37:57.540Z</time>
      </trkpt>
      <trkpt lat="45.82741" lon="6.74136">
        <ele>1548</ele>
        <time>2026-08-14T10:37:58.540Z</time>
      </trkpt>
      <trkpt lat="45.82742" lon="6.74136">
        <ele>1548</ele>
        <time>2026-08-14T10:37:59.540Z</time>
      </trkpt>
      <trkpt lat="45.82744" lon="6.74136">
        <ele>1548</ele>
        <time>2026-08-14T10:38:00.540Z</time>
      </trkpt>
      <trkpt lat="45.82745" lon="6.74136">
        <ele>1548</ele>
        <time>2026-08-14T10:38:01.540Z</time>
      </trkpt>
      <trkpt lat="45.82746" lon="6.74136">
        <ele>1548</ele>
        <time>2026-08-14T10:38:02.540Z</time>
      </trkpt>
      <trkpt lat="45.82747" lon="6.74136">
        <ele>1549</ele>
        <time>2026-08-14T10:38:03.540Z</time>
      </trkpt>
      <trkpt lat="45.82748" lon="6.74136">
        <ele>1549</ele>
        <time>2026-08-14T10:38:04.540Z</time>
      </trkpt>
      <trkpt lat="45.82749" lon="6.74136">
        <ele>1549</ele>
        <time>2026-08-14T10:38:05.540Z</time>
      </trkpt>
      <trkpt lat="45.8275" lon="6.74137">
        <ele>1549</ele>
        <time>2026-08-14T10:38:06.540Z</time>
      </trkpt>
      <trkpt lat="45.8275" lon="6.74137">
        <ele>1550</ele>
        <time>2026-08-14T10:38:07.540Z</time>
      </trkpt>
      <trkpt lat="45.8275" lon="6.74139">
        <ele>1550</ele>
        <time>2026-08-14T10:38:08.540Z</time>
      </trkpt>
      <trkpt lat="45.82751" lon="6.7414">
        <ele>1550</ele>
        <time>2026-08-14T10:38:09.540Z</time>
      </trkpt>
      <trkpt lat="45.82751" lon="6.7414">
        <ele>1550</ele>
        <time>2026-08-14T10:38:10.540Z</time>
      </trkpt>
      <trkpt lat="45.82751" lon="6.7414">
        <ele>1550</ele>
        <time>2026-08-14T10:38:11.540Z</time>
      </trkpt>
      <trkpt lat="45.82751" lon="6.7414">
        <ele>1550</ele>
        <time>2026-08-14T10:38:12.540Z</time>
      </trkpt>
      <trkpt lat="45.82751" lon="6.7414">
        <ele>1551</ele>
        <time>2026-08-14T10:38:13.540Z</time>
      </trkpt>
      <trkpt lat="45.82751" lon="6.7414">
        <ele>1551</ele>
        <time>2026-08-14T10:38:14.540Z</time>
      </trkpt>
      <trkpt lat="45.82752" lon="6.7414">
        <ele>1551</ele>
        <time>2026-08-14T10:38:15.540Z</time>
      </trkpt>
      <trkpt lat="45.82752" lon="6.74141">
        <ele>1552</ele>
        <time>2026-08-14T10:38:16.540Z</time>
      </trkpt>
      <trkpt lat="45.82753" lon="6.74143">
        <ele>1553</ele>
        <time>2026-08-14T10:38:17.540Z</time>
      </trkpt>
      <trkpt lat="45.82753" lon="6.74144">
        <ele>1553</ele>
        <time>2026-08-14T10:38:18.540Z</time>
      </trkpt>
      <trkpt lat="45.82753" lon="6.74145">
        <ele>1554</ele>
        <time>2026-08-14T10:38:19.540Z</time>
      </trkpt>
      <trkpt lat="45.82754" lon="6.74146">
        <ele>1554</ele>
        <time>2026-08-14T10:38:20.540Z</time>
      </trkpt>
      <trkpt lat="45.82754" lon="6.74148">
        <ele>1554</ele>
        <time>2026-08-14T10:38:21.540Z</time>
      </trkpt>
      <trkpt lat="45.82755" lon="6.74149">
        <ele>1554</ele>
        <time>2026-08-14T10:38:22.540Z</time>
      </trkpt>
      <trkpt lat="45.82755" lon="6.74151">
        <ele>1554</ele>
        <time>2026-08-14T10:38:23.540Z</time>
      </trkpt>
      <trkpt lat="45.82756" lon="6.74152">
        <ele>1554</ele>
        <time>2026-08-14T10:38:24.540Z</time>
      </trkpt>
      <trkpt lat="45.82756" lon="6.74154">
        <ele>1554</ele>
        <time>2026-08-14T10:38:25.540Z</time>
      </trkpt>
      <trkpt lat="45.82757" lon="6.74156">
        <ele>1555</ele>
        <time>2026-08-14T10:38:26.540Z</time>
      </trkpt>
      <trkpt lat="45.82758" lon="6.74158">
        <ele>1555</ele>
        <time>2026-08-14T10:38:27.540Z</time>
      </trkpt>
      <trkpt lat="45.82758" lon="6.74159">
        <ele>1555</ele>
        <time>2026-08-14T10:38:28.540Z</time>
      </trkpt>
      <trkpt lat="45.82759" lon="6.74161">
        <ele>1556</ele>
        <time>2026-08-14T10:38:29.540Z</time>
      </trkpt>
      <trkpt lat="45.8276" lon="6.74162">
        <ele>1557</ele>
        <time>2026-08-14T10:38:30.540Z</time>
      </trkpt>
      <trkpt lat="45.82761" lon="6.74163">
        <ele>1557</ele>
        <time>2026-08-14T10:38:31.540Z</time>
      </trkpt>
      <trkpt lat="45.82761" lon="6.74165">
        <ele>1558</ele>
        <time>2026-08-14T10:38:32.540Z</time>
      </trkpt>
      <trkpt lat="45.82762" lon="6.74167">
        <ele>1559</ele>
        <time>2026-08-14T10:38:33.540Z</time>
      </trkpt>
      <trkpt lat="45.82763" lon="6.74169">
        <ele>1559</ele>
        <time>2026-08-14T10:38:34.540Z</time>
      </trkpt>
      <trkpt lat="45.82763" lon="6.74171">
        <ele>1560</ele>
        <time>2026-08-14T10:38:35.540Z</time>
      </trkpt>
      <trkpt lat="45.82764" lon="6.74173">
        <ele>1560</ele>
        <time>2026-08-14T10:38:36.540Z</time>
      </trkpt>
      <trkpt lat="45.82764" lon="6.74174">
        <ele>1560</ele>
        <time>2026-08-14T10:38:37.540Z</time>
      </trkpt>
      <trkpt lat="45.82764" lon="6.74176">
        <ele>1561</ele>
        <time>2026-08-14T10:38:38.540Z</time>
      </trkpt>
      <trkpt lat="45.82764" lon="6.74178">
        <ele>1561</ele>
        <time>2026-08-14T10:38:39.540Z</time>
      </trkpt>
      <trkpt lat="45.82764" lon="6.74179">
        <ele>1561</ele>
        <time>2026-08-14T10:38:40.540Z</time>
      </trkpt>
      <trkpt lat="45.82765" lon="6.74181">
        <ele>1561</ele>
        <time>2026-08-14T10:38:41.540Z</time>
      </trkpt>
      <trkpt lat="45.82766" lon="6.74182">
        <ele>1561</ele>
        <time>2026-08-14T10:38:42.540Z</time>
      </trkpt>
      <trkpt lat="45.82766" lon="6.74184">
        <ele>1561</ele>
        <time>2026-08-14T10:38:43.540Z</time>
      </trkpt>
      <trkpt lat="45.82767" lon="6.74186">
        <ele>1562</ele>
        <time>2026-08-14T10:38:44.540Z</time>
      </trkpt>
      <trkpt lat="45.82767" lon="6.74188">
        <ele>1562</ele>
        <time>2026-08-14T10:38:45.540Z</time>
      </trkpt>
      <trkpt lat="45.82768" lon="6.7419">
        <ele>1563</ele>
        <time>2026-08-14T10:38:46.540Z</time>
      </trkpt>
      <trkpt lat="45.82768" lon="6.74191">
        <ele>1563</ele>
        <time>2026-08-14T10:38:47.540Z</time>
      </trkpt>
      <trkpt lat="45.8277" lon="6.74193">
        <ele>1564</ele>
        <time>2026-08-14T10:38:48.540Z</time>
      </trkpt>
      <trkpt lat="45.8277" lon="6.74196">
        <ele>1564</ele>
        <time>2026-08-14T10:38:49.540Z</time>
      </trkpt>
      <trkpt lat="45.82771" lon="6.74198">
        <ele>1564</ele>
        <time>2026-08-14T10:38:50.540Z</time>
      </trkpt>
      <trkpt lat="45.82771" lon="6.742">
        <ele>1564</ele>
        <time>2026-08-14T10:38:51.540Z</time>
      </trkpt>
      <trkpt lat="45.82772" lon="6.74201">
        <ele>1564</ele>
        <time>2026-08-14T10:38:52.540Z</time>
      </trkpt>
      <trkpt lat="45.82773" lon="6.74203">
        <ele>1564</ele>
        <time>2026-08-14T10:38:53.540Z</time>
      </trkpt>
      <trkpt lat="45.82775" lon="6.74205">
        <ele>1564</ele>
        <time>2026-08-14T10:38:54.540Z</time>
      </trkpt>
      <trkpt lat="45.82776" lon="6.74206">
        <ele>1564</ele>
        <time>2026-08-14T10:38:55.540Z</time>
      </trkpt>
      <trkpt lat="45.82778" lon="6.74208">
        <ele>1564</ele>
        <time>2026-08-14T10:38:56.540Z</time>
      </trkpt>
      <trkpt lat="45.82779" lon="6.7421">
        <ele>1564</ele>
        <time>2026-08-14T10:38:57.540Z</time>
      </trkpt>
      <trkpt lat="45.82781" lon="6.74212">
        <ele>1564</ele>
        <time>2026-08-14T10:38:58.540Z</time>
      </trkpt>
      <trkpt lat="45.82782" lon="6.74214">
        <ele>1564</ele>
        <time>2026-08-14T10:38:59.540Z</time>
      </trkpt>
      <trkpt lat="45.82783" lon="6.74216">
        <ele>1563</ele>
        <time>2026-08-14T10:39:00.540Z</time>
      </trkpt>
      <trkpt lat="45.82785" lon="6.74218">
        <ele>1563</ele>
        <time>2026-08-14T10:39:01.540Z</time>
      </trkpt>
      <trkpt lat="45.82787" lon="6.74219">
        <ele>1563</ele>
        <time>2026-08-14T10:39:02.540Z</time>
      </trkpt>
      <trkpt lat="45.8279" lon="6.74221">
        <ele>1563</ele>
        <time>2026-08-14T10:39:03.540Z</time>
      </trkpt>
      <trkpt lat="45.82791" lon="6.74223">
        <ele>1563</ele>
        <time>2026-08-14T10:39:04.540Z</time>
      </trkpt>
      <trkpt lat="45.82791" lon="6.74225">
        <ele>1563</ele>
        <time>2026-08-14T10:39:05.540Z</time>
      </trkpt>
      <trkpt lat="45.82792" lon="6.74228">
        <ele>1562</ele>
        <time>2026-08-14T10:39:06.540Z</time>
      </trkpt>
      <trkpt lat="45.82793" lon="6.74229">
        <ele>1562</ele>
        <time>2026-08-14T10:39:07.540Z</time>
      </trkpt>
      <trkpt lat="45.82793" lon="6.7423">
        <ele>1562</ele>
        <time>2026-08-14T10:39:08.540Z</time>
      </trkpt>
      <trkpt lat="45.82794" lon="6.74231">
        <ele>1563</ele>
        <time>2026-08-14T10:39:09.540Z</time>
      </trkpt>
      <trkpt lat="45.82794" lon="6.74231">
        <ele>1563</ele>
        <time>2026-08-14T10:39:10.540Z</time>
      </trkpt>
      <trkpt lat="45.82795" lon="6.74232">
        <ele>1563</ele>
        <time>2026-08-14T10:39:11.540Z</time>
      </trkpt>
      <trkpt lat="45.82797" lon="6.74231">
        <ele>1563</ele>
        <time>2026-08-14T10:39:12.540Z</time>
      </trkpt>
      <trkpt lat="45.82798" lon="6.74231">
        <ele>1563</ele>
        <time>2026-08-14T10:39:13.540Z</time>
      </trkpt>
      <trkpt lat="45.82799" lon="6.74231">
        <ele>1563</ele>
        <time>2026-08-14T10:39:14.540Z</time>
      </trkpt>
      <trkpt lat="45.828" lon="6.74231">
        <ele>1563</ele>
        <time>2026-08-14T10:39:15.540Z</time>
      </trkpt>
      <trkpt lat="45.82802" lon="6.74232">
        <ele>1564</ele>
        <time>2026-08-14T10:39:16.540Z</time>
      </trkpt>
      <trkpt lat="45.82803" lon="6.74232">
        <ele>1564</ele>
        <time>2026-08-14T10:39:17.540Z</time>
      </trkpt>
      <trkpt lat="45.82804" lon="6.74232">
        <ele>1564</ele>
        <time>2026-08-14T10:39:18.540Z</time>
      </trkpt>
      <trkpt lat="45.82805" lon="6.74232">
        <ele>1565</ele>
        <time>2026-08-14T10:39:19.540Z</time>
      </trkpt>
      <trkpt lat="45.82805" lon="6.74232">
        <ele>1565</ele>
        <time>2026-08-14T10:39:20.540Z</time>
      </trkpt>
      <trkpt lat="45.82807" lon="6.74231">
        <ele>1566</ele>
        <time>2026-08-14T10:39:21.540Z</time>
      </trkpt>
      <trkpt lat="45.82807" lon="6.7423">
        <ele>1566</ele>
        <time>2026-08-14T10:39:22.540Z</time>
      </trkpt>
      <trkpt lat="45.82808" lon="6.7423">
        <ele>1567</ele>
        <time>2026-08-14T10:39:23.540Z</time>
      </trkpt>
      <trkpt lat="45.82809" lon="6.7423">
        <ele>1567</ele>
        <time>2026-08-14T10:39:24.540Z</time>
      </trkpt>
      <trkpt lat="45.82811" lon="6.74229">
        <ele>1567</ele>
        <time>2026-08-14T10:39:25.540Z</time>
      </trkpt>
      <trkpt lat="45.82812" lon="6.74228">
        <ele>1567</ele>
        <time>2026-08-14T10:39:26.540Z</time>
      </trkpt>
      <trkpt lat="45.82814" lon="6.74228">
        <ele>1567</ele>
        <time>2026-08-14T10:39:27.540Z</time>
      </trkpt>
      <trkpt lat="45.82815" lon="6.74228">
        <ele>1566</ele>
        <time>2026-08-14T10:39:28.540Z</time>
      </trkpt>
      <trkpt lat="45.82816" lon="6.74228">
        <ele>1566</ele>
        <time>2026-08-14T10:39:29.540Z</time>
      </trkpt>
      <trkpt lat="45.82818" lon="6.74228">
        <ele>1566</ele>
        <time>2026-08-14T10:39:30.540Z</time>
      </trkpt>
      <trkpt lat="45.82818" lon="6.74227">
        <ele>1565</ele>
        <time>2026-08-14T10:39:31.540Z</time>
      </trkpt>
      <trkpt lat="45.82819" lon="6.74227">
        <ele>1565</ele>
        <time>2026-08-14T10:39:32.540Z</time>
      </trkpt>
      <trkpt lat="45.8282" lon="6.74227">
        <ele>1565</ele>
        <time>2026-08-14T10:39:33.540Z</time>
      </trkpt>
      <trkpt lat="45.8282" lon="6.74227">
        <ele>1565</ele>
        <time>2026-08-14T10:39:34.540Z</time>
      </trkpt>
      <trkpt lat="45.82821" lon="6.74228">
        <ele>1565</ele>
        <time>2026-08-14T10:39:35.540Z</time>
      </trkpt>
      <trkpt lat="45.82823" lon="6.7423">
        <ele>1564</ele>
        <time>2026-08-14T10:39:36.540Z</time>
      </trkpt>
      <trkpt lat="45.82824" lon="6.74233">
        <ele>1564</ele>
        <time>2026-08-14T10:39:37.540Z</time>
      </trkpt>
      <trkpt lat="45.82824" lon="6.74233">
        <ele>1564</ele>
        <time>2026-08-14T10:39:38.540Z</time>
      </trkpt>
      <trkpt lat="45.82824" lon="6.74233">
        <ele>1563</ele>
        <time>2026-08-14T10:39:39.540Z</time>
      </trkpt>
      <trkpt lat="45.82824" lon="6.74233">
        <ele>1563</ele>
        <time>2026-08-14T10:39:40.540Z</time>
      </trkpt>
      <trkpt lat="45.82824" lon="6.74233">
        <ele>1563</ele>
        <time>2026-08-14T10:39:41.540Z</time>
      </trkpt>
      <trkpt lat="45.82825" lon="6.74234">
        <ele>1564</ele>
        <time>2026-08-14T10:39:42.540Z</time>
      </trkpt>
      <trkpt lat="45.82826" lon="6.74234">
        <ele>1564</ele>
        <time>2026-08-14T10:39:43.540Z</time>
      </trkpt>
      <trkpt lat="45.82826" lon="6.74235">
        <ele>1564</ele>
        <time>2026-08-14T10:39:44.540Z</time>
      </trkpt>
      <trkpt lat="45.82827" lon="6.74235">
        <ele>1564</ele>
        <time>2026-08-14T10:39:45.540Z</time>
      </trkpt>
      <trkpt lat="45.82827" lon="6.74235">
        <ele>1565</ele>
        <time>2026-08-14T10:39:46.540Z</time>
      </trkpt>
      <trkpt lat="45.82828" lon="6.74235">
        <ele>1565</ele>
        <time>2026-08-14T10:39:47.540Z</time>
      </trkpt>
      <trkpt lat="45.82829" lon="6.74236">
        <ele>1565</ele>
        <time>2026-08-14T10:39:48.540Z</time>
      </trkpt>
      <trkpt lat="45.8283" lon="6.74237">
        <ele>1565</ele>
        <time>2026-08-14T10:39:49.540Z</time>
      </trkpt>
      <trkpt lat="45.8283" lon="6.74238">
        <ele>1565</ele>
        <time>2026-08-14T10:39:50.540Z</time>
      </trkpt>
      <trkpt lat="45.82831" lon="6.74239">
        <ele>1565</ele>
        <time>2026-08-14T10:39:51.540Z</time>
      </trkpt>
      <trkpt lat="45.82833" lon="6.7424">
        <ele>1565</ele>
        <time>2026-08-14T10:39:52.540Z</time>
      </trkpt>
      <trkpt lat="45.82835" lon="6.74241">
        <ele>1565</ele>
        <time>2026-08-14T10:39:53.540Z</time>
      </trkpt>
      <trkpt lat="45.82836" lon="6.74242">
        <ele>1565</ele>
        <time>2026-08-14T10:39:54.540Z</time>
      </trkpt>
      <trkpt lat="45.82838" lon="6.74244">
        <ele>1566</ele>
        <time>2026-08-14T10:39:55.540Z</time>
      </trkpt>
      <trkpt lat="45.82839" lon="6.74245">
        <ele>1566</ele>
        <time>2026-08-14T10:39:56.540Z</time>
      </trkpt>
      <trkpt lat="45.8284" lon="6.74246">
        <ele>1566</ele>
        <time>2026-08-14T10:39:57.540Z</time>
      </trkpt>
      <trkpt lat="45.8284" lon="6.74248">
        <ele>1566</ele>
        <time>2026-08-14T10:39:58.540Z</time>
      </trkpt>
      <trkpt lat="45.82841" lon="6.7425">
        <ele>1566</ele>
        <time>2026-08-14T10:39:59.540Z</time>
      </trkpt>
      <trkpt lat="45.82842" lon="6.74251">
        <ele>1566</ele>
        <time>2026-08-14T10:40:00.540Z</time>
      </trkpt>
      <trkpt lat="45.82843" lon="6.74252">
        <ele>1566</ele>
        <time>2026-08-14T10:40:01.540Z</time>
      </trkpt>
      <trkpt lat="45.82845" lon="6.74252">
        <ele>1566</ele>
        <time>2026-08-14T10:40:02.540Z</time>
      </trkpt>
      <trkpt lat="45.82846" lon="6.74252">
        <ele>1566</ele>
        <time>2026-08-14T10:40:03.540Z</time>
      </trkpt>
      <trkpt lat="45.82848" lon="6.74252">
        <ele>1566</ele>
        <time>2026-08-14T10:40:04.540Z</time>
      </trkpt>
      <trkpt lat="45.8285" lon="6.74251">
        <ele>1566</ele>
        <time>2026-08-14T10:40:05.540Z</time>
      </trkpt>
      <trkpt lat="45.82853" lon="6.74253">
        <ele>1566</ele>
        <time>2026-08-14T10:40:06.540Z</time>
      </trkpt>
      <trkpt lat="45.82855" lon="6.74255">
        <ele>1566</ele>
        <time>2026-08-14T10:40:07.540Z</time>
      </trkpt>
      <trkpt lat="45.82856" lon="6.74257">
        <ele>1566</ele>
        <time>2026-08-14T10:40:08.540Z</time>
      </trkpt>
      <trkpt lat="45.82858" lon="6.74259">
        <ele>1567</ele>
        <time>2026-08-14T10:40:09.540Z</time>
      </trkpt>
      <trkpt lat="45.82859" lon="6.7426">
        <ele>1567</ele>
        <time>2026-08-14T10:40:10.540Z</time>
      </trkpt>
      <trkpt lat="45.82859" lon="6.74262">
        <ele>1567</ele>
        <time>2026-08-14T10:40:11.540Z</time>
      </trkpt>
      <trkpt lat="45.8286" lon="6.74263">
        <ele>1568</ele>
        <time>2026-08-14T10:40:12.540Z</time>
      </trkpt>
      <trkpt lat="45.82862" lon="6.74265">
        <ele>1568</ele>
        <time>2026-08-14T10:40:13.540Z</time>
      </trkpt>
      <trkpt lat="45.82864" lon="6.74268">
        <ele>1568</ele>
        <time>2026-08-14T10:40:14.540Z</time>
      </trkpt>
      <trkpt lat="45.82865" lon="6.7427">
        <ele>1568</ele>
        <time>2026-08-14T10:40:15.540Z</time>
      </trkpt>
      <trkpt lat="45.82866" lon="6.74272">
        <ele>1568</ele>
        <time>2026-08-14T10:40:16.540Z</time>
      </trkpt>
      <trkpt lat="45.82867" lon="6.74273">
        <ele>1568</ele>
        <time>2026-08-14T10:40:17.540Z</time>
      </trkpt>
      <trkpt lat="45.82867" lon="6.74274">
        <ele>1569</ele>
        <time>2026-08-14T10:40:18.540Z</time>
      </trkpt>
      <trkpt lat="45.82869" lon="6.74276">
        <ele>1569</ele>
        <time>2026-08-14T10:40:19.540Z</time>
      </trkpt>
      <trkpt lat="45.82869" lon="6.74278">
        <ele>1569</ele>
        <time>2026-08-14T10:40:20.540Z</time>
      </trkpt>
      <trkpt lat="45.82869" lon="6.7428">
        <ele>1570</ele>
        <time>2026-08-14T10:40:21.540Z</time>
      </trkpt>
      <trkpt lat="45.8287" lon="6.74282">
        <ele>1570</ele>
        <time>2026-08-14T10:40:22.540Z</time>
      </trkpt>
      <trkpt lat="45.8287" lon="6.74283">
        <ele>1571</ele>
        <time>2026-08-14T10:40:23.540Z</time>
      </trkpt>
      <trkpt lat="45.82871" lon="6.74283">
        <ele>1572</ele>
        <time>2026-08-14T10:40:24.540Z</time>
      </trkpt>
      <trkpt lat="45.82872" lon="6.74284">
        <ele>1572</ele>
        <time>2026-08-14T10:40:25.540Z</time>
      </trkpt>
      <trkpt lat="45.82872" lon="6.74285">
        <ele>1573</ele>
        <time>2026-08-14T10:40:26.540Z</time>
      </trkpt>
      <trkpt lat="45.82873" lon="6.74287">
        <ele>1573</ele>
        <time>2026-08-14T10:40:27.540Z</time>
      </trkpt>
      <trkpt lat="45.82874" lon="6.74288">
        <ele>1574</ele>
        <time>2026-08-14T10:40:28.540Z</time>
      </trkpt>
      <trkpt lat="45.82874" lon="6.7429">
        <ele>1574</ele>
        <time>2026-08-14T10:40:29.540Z</time>
      </trkpt>
      <trkpt lat="45.82874" lon="6.74292">
        <ele>1574</ele>
        <time>2026-08-14T10:40:30.540Z</time>
      </trkpt>
      <trkpt lat="45.82875" lon="6.74294">
        <ele>1574</ele>
        <time>2026-08-14T10:40:31.540Z</time>
      </trkpt>
      <trkpt lat="45.82875" lon="6.74295">
        <ele>1574</ele>
        <time>2026-08-14T10:40:32.540Z</time>
      </trkpt>
      <trkpt lat="45.82876" lon="6.74297">
        <ele>1574</ele>
        <time>2026-08-14T10:40:33.540Z</time>
      </trkpt>
      <trkpt lat="45.82876" lon="6.74299">
        <ele>1574</ele>
        <time>2026-08-14T10:40:34.540Z</time>
      </trkpt>
      <trkpt lat="45.82877" lon="6.743">
        <ele>1574</ele>
        <time>2026-08-14T10:40:35.540Z</time>
      </trkpt>
      <trkpt lat="45.82878" lon="6.74301">
        <ele>1573</ele>
        <time>2026-08-14T10:40:36.540Z</time>
      </trkpt>
      <trkpt lat="45.82879" lon="6.74301">
        <ele>1573</ele>
        <time>2026-08-14T10:40:37.540Z</time>
      </trkpt>
      <trkpt lat="45.82879" lon="6.74302">
        <ele>1573</ele>
        <time>2026-08-14T10:40:38.540Z</time>
      </trkpt>
      <trkpt lat="45.8288" lon="6.74302">
        <ele>1573</ele>
        <time>2026-08-14T10:40:39.540Z</time>
      </trkpt>
      <trkpt lat="45.82881" lon="6.74302">
        <ele>1573</ele>
        <time>2026-08-14T10:40:40.540Z</time>
      </trkpt>
      <trkpt lat="45.82881" lon="6.74301">
        <ele>1573</ele>
        <time>2026-08-14T10:40:41.540Z</time>
      </trkpt>
      <trkpt lat="45.82882" lon="6.74301">
        <ele>1573</ele>
        <time>2026-08-14T10:40:42.540Z</time>
      </trkpt>
      <trkpt lat="45.82883" lon="6.74301">
        <ele>1573</ele>
        <time>2026-08-14T10:40:43.540Z</time>
      </trkpt>
      <trkpt lat="45.82883" lon="6.74301">
        <ele>1573</ele>
        <time>2026-08-14T10:40:44.540Z</time>
      </trkpt>
      <trkpt lat="45.82884" lon="6.74301">
        <ele>1573</ele>
        <time>2026-08-14T10:40:45.540Z</time>
      </trkpt>
      <trkpt lat="45.82885" lon="6.74301">
        <ele>1574</ele>
        <time>2026-08-14T10:40:46.540Z</time>
      </trkpt>
      <trkpt lat="45.82885" lon="6.74301">
        <ele>1574</ele>
        <time>2026-08-14T10:40:47.540Z</time>
      </trkpt>
      <trkpt lat="45.82885" lon="6.74302">
        <ele>1574</ele>
        <time>2026-08-14T10:40:48.540Z</time>
      </trkpt>
      <trkpt lat="45.82885" lon="6.74302">
        <ele>1574</ele>
        <time>2026-08-14T10:40:49.540Z</time>
      </trkpt>
      <trkpt lat="45.82886" lon="6.74302">
        <ele>1575</ele>
        <time>2026-08-14T10:40:50.540Z</time>
      </trkpt>
      <trkpt lat="45.82888" lon="6.74301">
        <ele>1575</ele>
        <time>2026-08-14T10:40:51.540Z</time>
      </trkpt>
      <trkpt lat="45.82889" lon="6.74301">
        <ele>1575</ele>
        <time>2026-08-14T10:40:52.540Z</time>
      </trkpt>
      <trkpt lat="45.8289" lon="6.743">
        <ele>1575</ele>
        <time>2026-08-14T10:40:53.540Z</time>
      </trkpt>
      <trkpt lat="45.82891" lon="6.74299">
        <ele>1575</ele>
        <time>2026-08-14T10:40:54.540Z</time>
      </trkpt>
      <trkpt lat="45.82893" lon="6.74298">
        <ele>1575</ele>
        <time>2026-08-14T10:40:55.540Z</time>
      </trkpt>
      <trkpt lat="45.82895" lon="6.74298">
        <ele>1575</ele>
        <time>2026-08-14T10:40:56.540Z</time>
      </trkpt>
      <trkpt lat="45.82895" lon="6.74296">
        <ele>1575</ele>
        <time>2026-08-14T10:40:57.540Z</time>
      </trkpt>
      <trkpt lat="45.82897" lon="6.74294">
        <ele>1575</ele>
        <time>2026-08-14T10:40:58.540Z</time>
      </trkpt>
      <trkpt lat="45.82898" lon="6.74292">
        <ele>1575</ele>
        <time>2026-08-14T10:40:59.540Z</time>
      </trkpt>
      <trkpt lat="45.82899" lon="6.7429">
        <ele>1575</ele>
        <time>2026-08-14T10:41:00.540Z</time>
      </trkpt>
      <trkpt lat="45.829" lon="6.74289">
        <ele>1576</ele>
        <time>2026-08-14T10:41:01.540Z</time>
      </trkpt>
      <trkpt lat="45.82901" lon="6.74288">
        <ele>1576</ele>
        <time>2026-08-14T10:41:02.540Z</time>
      </trkpt>
      <trkpt lat="45.82903" lon="6.74286">
        <ele>1576</ele>
        <time>2026-08-14T10:41:03.540Z</time>
      </trkpt>
      <trkpt lat="45.82903" lon="6.74286">
        <ele>1576</ele>
        <time>2026-08-14T10:41:04.540Z</time>
      </trkpt>
      <trkpt lat="45.82903" lon="6.74286">
        <ele>1576</ele>
        <time>2026-08-14T10:41:05.540Z</time>
      </trkpt>
      <trkpt lat="45.82904" lon="6.74286">
        <ele>1576</ele>
        <time>2026-08-14T10:41:06.540Z</time>
      </trkpt>
      <trkpt lat="45.82905" lon="6.74286">
        <ele>1576</ele>
        <time>2026-08-14T10:41:07.540Z</time>
      </trkpt>
      <trkpt lat="45.82906" lon="6.74286">
        <ele>1576</ele>
        <time>2026-08-14T10:41:08.540Z</time>
      </trkpt>
      <trkpt lat="45.82907" lon="6.74288">
        <ele>1576</ele>
        <time>2026-08-14T10:41:09.540Z</time>
      </trkpt>
      <trkpt lat="45.82908" lon="6.74289">
        <ele>1576</ele>
        <time>2026-08-14T10:41:10.540Z</time>
      </trkpt>
      <trkpt lat="45.82909" lon="6.74289">
        <ele>1576</ele>
        <time>2026-08-14T10:41:11.540Z</time>
      </trkpt>
      <trkpt lat="45.82909" lon="6.74289">
        <ele>1576</ele>
        <time>2026-08-14T10:41:12.540Z</time>
      </trkpt>
      <trkpt lat="45.82909" lon="6.74289">
        <ele>1576</ele>
        <time>2026-08-14T10:41:13.540Z</time>
      </trkpt>
      <trkpt lat="45.8291" lon="6.74289">
        <ele>1575</ele>
        <time>2026-08-14T10:41:14.540Z</time>
      </trkpt>
      <trkpt lat="45.8291" lon="6.74288">
        <ele>1575</ele>
        <time>2026-08-14T10:41:15.540Z</time>
      </trkpt>
      <trkpt lat="45.8291" lon="6.74288">
        <ele>1575</ele>
        <time>2026-08-14T10:41:16.540Z</time>
      </trkpt>
      <trkpt lat="45.8291" lon="6.74287">
        <ele>1575</ele>
        <time>2026-08-14T10:41:17.540Z</time>
      </trkpt>
      <trkpt lat="45.8291" lon="6.74287">
        <ele>1575</ele>
        <time>2026-08-14T10:41:18.540Z</time>
      </trkpt>
      <trkpt lat="45.82911" lon="6.74286">
        <ele>1575</ele>
        <time>2026-08-14T10:41:19.540Z</time>
      </trkpt>
      <trkpt lat="45.82911" lon="6.74285">
        <ele>1575</ele>
        <time>2026-08-14T10:41:20.540Z</time>
      </trkpt>
      <trkpt lat="45.82912" lon="6.74284">
        <ele>1575</ele>
        <time>2026-08-14T10:41:21.540Z</time>
      </trkpt>
      <trkpt lat="45.82913" lon="6.74283">
        <ele>1574</ele>
        <time>2026-08-14T10:41:22.540Z</time>
      </trkpt>
      <trkpt lat="45.82914" lon="6.74283">
        <ele>1574</ele>
        <time>2026-08-14T10:41:23.540Z</time>
      </trkpt>
      <trkpt lat="45.82914" lon="6.74282">
        <ele>1574</ele>
        <time>2026-08-14T10:41:24.540Z</time>
      </trkpt>
      <trkpt lat="45.82915" lon="6.74281">
        <ele>1575</ele>
        <time>2026-08-14T10:41:25.540Z</time>
      </trkpt>
      <trkpt lat="45.82916" lon="6.74279">
        <ele>1575</ele>
        <time>2026-08-14T10:41:26.540Z</time>
      </trkpt>
      <trkpt lat="45.82917" lon="6.74279">
        <ele>1575</ele>
        <time>2026-08-14T10:41:27.540Z</time>
      </trkpt>
      <trkpt lat="45.82918" lon="6.74278">
        <ele>1575</ele>
        <time>2026-08-14T10:41:28.540Z</time>
      </trkpt>
      <trkpt lat="45.82919" lon="6.74277">
        <ele>1576</ele>
        <time>2026-08-14T10:41:29.540Z</time>
      </trkpt>
      <trkpt lat="45.8292" lon="6.74277">
        <ele>1576</ele>
        <time>2026-08-14T10:41:30.540Z</time>
      </trkpt>
      <trkpt lat="45.8292" lon="6.74277">
        <ele>1576</ele>
        <time>2026-08-14T10:41:31.540Z</time>
      </trkpt>
      <trkpt lat="45.82921" lon="6.74276">
        <ele>1576</ele>
        <time>2026-08-14T10:41:32.540Z</time>
      </trkpt>
      <trkpt lat="45.82922" lon="6.74276">
        <ele>1576</ele>
        <time>2026-08-14T10:41:33.540Z</time>
      </trkpt>
      <trkpt lat="45.82922" lon="6.74276">
        <ele>1576</ele>
        <time>2026-08-14T10:41:34.540Z</time>
      </trkpt>
      <trkpt lat="45.82922" lon="6.74276">
        <ele>1576</ele>
        <time>2026-08-14T10:41:35.540Z</time>
      </trkpt>
      <trkpt lat="45.82923" lon="6.74277">
        <ele>1576</ele>
        <time>2026-08-14T10:41:36.540Z</time>
      </trkpt>
      <trkpt lat="45.82923" lon="6.74277">
        <ele>1576</ele>
        <time>2026-08-14T10:41:37.540Z</time>
      </trkpt>
      <trkpt lat="45.82923" lon="6.74277">
        <ele>1576</ele>
        <time>2026-08-14T10:41:38.540Z</time>
      </trkpt>
      <trkpt lat="45.82924" lon="6.74277">
        <ele>1577</ele>
        <time>2026-08-14T10:41:39.540Z</time>
      </trkpt>
      <trkpt lat="45.82924" lon="6.74277">
        <ele>1577</ele>
        <time>2026-08-14T10:41:40.540Z</time>
      </trkpt>
      <trkpt lat="45.82925" lon="6.74277">
        <ele>1577</ele>
        <time>2026-08-14T10:41:41.540Z</time>
      </trkpt>
      <trkpt lat="45.82926" lon="6.74278">
        <ele>1577</ele>
        <time>2026-08-14T10:41:42.540Z</time>
      </trkpt>
      <trkpt lat="45.82926" lon="6.74278">
        <ele>1577</ele>
        <time>2026-08-14T10:41:43.540Z</time>
      </trkpt>
      <trkpt lat="45.82927" lon="6.74279">
        <ele>1578</ele>
        <time>2026-08-14T10:41:44.540Z</time>
      </trkpt>
      <trkpt lat="45.82928" lon="6.7428">
        <ele>1578</ele>
        <time>2026-08-14T10:41:45.540Z</time>
      </trkpt>
      <trkpt lat="45.82928" lon="6.7428">
        <ele>1578</ele>
        <time>2026-08-14T10:41:46.540Z</time>
      </trkpt>
      <trkpt lat="45.82928" lon="6.74281">
        <ele>1579</ele>
        <time>2026-08-14T10:41:47.540Z</time>
      </trkpt>
      <trkpt lat="45.82928" lon="6.74283">
        <ele>1579</ele>
        <time>2026-08-14T10:41:48.540Z</time>
      </trkpt>
      <trkpt lat="45.82928" lon="6.74284">
        <ele>1579</ele>
        <time>2026-08-14T10:41:49.540Z</time>
      </trkpt>
      <trkpt lat="45.82928" lon="6.74286">
        <ele>1579</ele>
        <time>2026-08-14T10:41:50.540Z</time>
      </trkpt>
      <trkpt lat="45.82928" lon="6.74287">
        <ele>1579</ele>
        <time>2026-08-14T10:41:51.540Z</time>
      </trkpt>
      <trkpt lat="45.82928" lon="6.74288">
        <ele>1579</ele>
        <time>2026-08-14T10:41:52.540Z</time>
      </trkpt>
      <trkpt lat="45.82928" lon="6.74289">
        <ele>1579</ele>
        <time>2026-08-14T10:41:53.540Z</time>
      </trkpt>
      <trkpt lat="45.82928" lon="6.7429">
        <ele>1580</ele>
        <time>2026-08-14T10:41:54.540Z</time>
      </trkpt>
      <trkpt lat="45.82928" lon="6.74292">
        <ele>1580</ele>
        <time>2026-08-14T10:41:55.540Z</time>
      </trkpt>
      <trkpt lat="45.82928" lon="6.74293">
        <ele>1580</ele>
        <time>2026-08-14T10:41:56.540Z</time>
      </trkpt>
      <trkpt lat="45.82928" lon="6.74294">
        <ele>1580</ele>
        <time>2026-08-14T10:41:57.540Z</time>
      </trkpt>
      <trkpt lat="45.82928" lon="6.74295">
        <ele>1580</ele>
        <time>2026-08-14T10:41:58.540Z</time>
      </trkpt>
      <trkpt lat="45.82928" lon="6.74297">
        <ele>1580</ele>
        <time>2026-08-14T10:41:59.540Z</time>
      </trkpt>
      <trkpt lat="45.82928" lon="6.74298">
        <ele>1580</ele>
        <time>2026-08-14T10:42:00.540Z</time>
      </trkpt>
      <trkpt lat="45.82928" lon="6.74298">
        <ele>1580</ele>
        <time>2026-08-14T10:42:01.540Z</time>
      </trkpt>
      <trkpt lat="45.82928" lon="6.74299">
        <ele>1580</ele>
        <time>2026-08-14T10:42:02.540Z</time>
      </trkpt>
      <trkpt lat="45.82928" lon="6.743">
        <ele>1580</ele>
        <time>2026-08-14T10:42:03.540Z</time>
      </trkpt>
      <trkpt lat="45.82928" lon="6.74301">
        <ele>1580</ele>
        <time>2026-08-14T10:42:04.540Z</time>
      </trkpt>
      <trkpt lat="45.82928" lon="6.74303">
        <ele>1580</ele>
        <time>2026-08-14T10:42:05.540Z</time>
      </trkpt>
      <trkpt lat="45.82929" lon="6.74305">
        <ele>1580</ele>
        <time>2026-08-14T10:42:06.540Z</time>
      </trkpt>
      <trkpt lat="45.8293" lon="6.74306">
        <ele>1580</ele>
        <time>2026-08-14T10:42:07.540Z</time>
      </trkpt>
      <trkpt lat="45.82931" lon="6.74307">
        <ele>1580</ele>
        <time>2026-08-14T10:42:08.540Z</time>
      </trkpt>
      <trkpt lat="45.82931" lon="6.74309">
        <ele>1581</ele>
        <time>2026-08-14T10:42:09.540Z</time>
      </trkpt>
      <trkpt lat="45.82931" lon="6.7431">
        <ele>1581</ele>
        <time>2026-08-14T10:42:10.540Z</time>
      </trkpt>
      <trkpt lat="45.82932" lon="6.74312">
        <ele>1581</ele>
        <time>2026-08-14T10:42:11.540Z</time>
      </trkpt>
      <trkpt lat="45.82932" lon="6.74313">
        <ele>1582</ele>
        <time>2026-08-14T10:42:12.540Z</time>
      </trkpt>
      <trkpt lat="45.82933" lon="6.74313">
        <ele>1582</ele>
        <time>2026-08-14T10:42:13.540Z</time>
      </trkpt>
      <trkpt lat="45.82934" lon="6.74314">
        <ele>1583</ele>
        <time>2026-08-14T10:42:14.540Z</time>
      </trkpt>
      <trkpt lat="45.82935" lon="6.74314">
        <ele>1583</ele>
        <time>2026-08-14T10:42:15.540Z</time>
      </trkpt>
      <trkpt lat="45.82936" lon="6.74315">
        <ele>1584</ele>
        <time>2026-08-14T10:42:16.540Z</time>
      </trkpt>
      <trkpt lat="45.82936" lon="6.74315">
        <ele>1584</ele>
        <time>2026-08-14T10:42:17.540Z</time>
      </trkpt>
      <trkpt lat="45.82937" lon="6.74315">
        <ele>1584</ele>
        <time>2026-08-14T10:42:18.540Z</time>
      </trkpt>
      <trkpt lat="45.82938" lon="6.74316">
        <ele>1584</ele>
        <time>2026-08-14T10:42:19.540Z</time>
      </trkpt>
      <trkpt lat="45.82938" lon="6.74317">
        <ele>1585</ele>
        <time>2026-08-14T10:42:20.540Z</time>
      </trkpt>
      <trkpt lat="45.82939" lon="6.74318">
        <ele>1585</ele>
        <time>2026-08-14T10:42:21.540Z</time>
      </trkpt>
      <trkpt lat="45.8294" lon="6.74319">
        <ele>1585</ele>
        <time>2026-08-14T10:42:22.540Z</time>
      </trkpt>
      <trkpt lat="45.8294" lon="6.7432">
        <ele>1586</ele>
        <time>2026-08-14T10:42:23.540Z</time>
      </trkpt>
      <trkpt lat="45.8294" lon="6.74322">
        <ele>1586</ele>
        <time>2026-08-14T10:42:24.540Z</time>
      </trkpt>
      <trkpt lat="45.82941" lon="6.74323">
        <ele>1586</ele>
        <time>2026-08-14T10:42:25.540Z</time>
      </trkpt>
      <trkpt lat="45.82942" lon="6.74324">
        <ele>1587</ele>
        <time>2026-08-14T10:42:26.540Z</time>
      </trkpt>
      <trkpt lat="45.82942" lon="6.74325">
        <ele>1587</ele>
        <time>2026-08-14T10:42:27.540Z</time>
      </trkpt>
      <trkpt lat="45.82942" lon="6.74327">
        <ele>1588</ele>
        <time>2026-08-14T10:42:28.540Z</time>
      </trkpt>
      <trkpt lat="45.82941" lon="6.74328">
        <ele>1588</ele>
        <time>2026-08-14T10:42:29.540Z</time>
      </trkpt>
      <trkpt lat="45.82941" lon="6.74328">
        <ele>1588</ele>
        <time>2026-08-14T10:42:30.540Z</time>
      </trkpt>
      <trkpt lat="45.82942" lon="6.74329">
        <ele>1589</ele>
        <time>2026-08-14T10:42:31.540Z</time>
      </trkpt>
      <trkpt lat="45.82943" lon="6.74329">
        <ele>1589</ele>
        <time>2026-08-14T10:42:32.540Z</time>
      </trkpt>
      <trkpt lat="45.82943" lon="6.74329">
        <ele>1590</ele>
        <time>2026-08-14T10:42:33.540Z</time>
      </trkpt>
      <trkpt lat="45.82944" lon="6.7433">
        <ele>1590</ele>
        <time>2026-08-14T10:42:34.540Z</time>
      </trkpt>
      <trkpt lat="45.82945" lon="6.74331">
        <ele>1590</ele>
        <time>2026-08-14T10:42:35.540Z</time>
      </trkpt>
      <trkpt lat="45.82946" lon="6.74333">
        <ele>1590</ele>
        <time>2026-08-14T10:42:36.540Z</time>
      </trkpt>
      <trkpt lat="45.82947" lon="6.74334">
        <ele>1590</ele>
        <time>2026-08-14T10:42:37.540Z</time>
      </trkpt>
      <trkpt lat="45.82949" lon="6.74335">
        <ele>1590</ele>
        <time>2026-08-14T10:42:38.540Z</time>
      </trkpt>
      <trkpt lat="45.82949" lon="6.74335">
        <ele>1590</ele>
        <time>2026-08-14T10:42:39.540Z</time>
      </trkpt>
      <trkpt lat="45.8295" lon="6.74337">
        <ele>1590</ele>
        <time>2026-08-14T10:42:40.540Z</time>
      </trkpt>
      <trkpt lat="45.8295" lon="6.74339">
        <ele>1590</ele>
        <time>2026-08-14T10:42:41.540Z</time>
      </trkpt>
      <trkpt lat="45.8295" lon="6.74341">
        <ele>1590</ele>
        <time>2026-08-14T10:42:42.540Z</time>
      </trkpt>
      <trkpt lat="45.82951" lon="6.74343">
        <ele>1589</ele>
        <time>2026-08-14T10:42:43.540Z</time>
      </trkpt>
      <trkpt lat="45.82952" lon="6.74345">
        <ele>1589</ele>
        <time>2026-08-14T10:42:44.540Z</time>
      </trkpt>
      <trkpt lat="45.82952" lon="6.74346">
        <ele>1590</ele>
        <time>2026-08-14T10:42:45.540Z</time>
      </trkpt>
      <trkpt lat="45.82952" lon="6.74347">
        <ele>1590</ele>
        <time>2026-08-14T10:42:46.540Z</time>
      </trkpt>
      <trkpt lat="45.82953" lon="6.74349">
        <ele>1590</ele>
        <time>2026-08-14T10:42:47.540Z</time>
      </trkpt>
      <trkpt lat="45.82954" lon="6.7435">
        <ele>1590</ele>
        <time>2026-08-14T10:42:48.540Z</time>
      </trkpt>
      <trkpt lat="45.82955" lon="6.7435">
        <ele>1590</ele>
        <time>2026-08-14T10:42:49.540Z</time>
      </trkpt>
      <trkpt lat="45.82955" lon="6.7435">
        <ele>1590</ele>
        <time>2026-08-14T10:42:50.540Z</time>
      </trkpt>
      <trkpt lat="45.82956" lon="6.7435">
        <ele>1591</ele>
        <time>2026-08-14T10:42:51.540Z</time>
      </trkpt>
      <trkpt lat="45.82957" lon="6.74351">
        <ele>1591</ele>
        <time>2026-08-14T10:42:52.540Z</time>
      </trkpt>
      <trkpt lat="45.82958" lon="6.74351">
        <ele>1591</ele>
        <time>2026-08-14T10:42:53.540Z</time>
      </trkpt>
      <trkpt lat="45.82959" lon="6.74352">
        <ele>1591</ele>
        <time>2026-08-14T10:42:54.540Z</time>
      </trkpt>
      <trkpt lat="45.82959" lon="6.74353">
        <ele>1592</ele>
        <time>2026-08-14T10:42:55.540Z</time>
      </trkpt>
      <trkpt lat="45.82959" lon="6.74354">
        <ele>1592</ele>
        <time>2026-08-14T10:42:56.540Z</time>
      </trkpt>
      <trkpt lat="45.82958" lon="6.74354">
        <ele>1592</ele>
        <time>2026-08-14T10:42:57.540Z</time>
      </trkpt>
      <trkpt lat="45.82958" lon="6.74355">
        <ele>1593</ele>
        <time>2026-08-14T10:42:58.540Z</time>
      </trkpt>
      <trkpt lat="45.82957" lon="6.74356">
        <ele>1593</ele>
        <time>2026-08-14T10:42:59.540Z</time>
      </trkpt>
      <trkpt lat="45.82957" lon="6.74356">
        <ele>1594</ele>
        <time>2026-08-14T10:43:00.540Z</time>
      </trkpt>
      <trkpt lat="45.82957" lon="6.74356">
        <ele>1594</ele>
        <time>2026-08-14T10:43:01.540Z</time>
      </trkpt>
      <trkpt lat="45.82956" lon="6.74356">
        <ele>1595</ele>
        <time>2026-08-14T10:43:02.540Z</time>
      </trkpt>
      <trkpt lat="45.82955" lon="6.74356">
        <ele>1595</ele>
        <time>2026-08-14T10:43:03.540Z</time>
      </trkpt>
      <trkpt lat="45.82954" lon="6.74357">
        <ele>1596</ele>
        <time>2026-08-14T10:43:04.540Z</time>
      </trkpt>
      <trkpt lat="45.82954" lon="6.74357">
        <ele>1597</ele>
        <time>2026-08-14T10:43:05.540Z</time>
      </trkpt>
      <trkpt lat="45.82953" lon="6.74357">
        <ele>1597</ele>
        <time>2026-08-14T10:43:06.540Z</time>
      </trkpt>
      <trkpt lat="45.82953" lon="6.74358">
        <ele>1598</ele>
        <time>2026-08-14T10:43:07.540Z</time>
      </trkpt>
      <trkpt lat="45.82952" lon="6.74357">
        <ele>1598</ele>
        <time>2026-08-14T10:43:08.540Z</time>
      </trkpt>
      <trkpt lat="45.82951" lon="6.74357">
        <ele>1599</ele>
        <time>2026-08-14T10:43:09.540Z</time>
      </trkpt>
      <trkpt lat="45.8295" lon="6.74358">
        <ele>1599</ele>
        <time>2026-08-14T10:43:10.540Z</time>
      </trkpt>
      <trkpt lat="45.82949" lon="6.74358">
        <ele>1599</ele>
        <time>2026-08-14T10:43:11.540Z</time>
      </trkpt>
      <trkpt lat="45.82948" lon="6.74359">
        <ele>1600</ele>
        <time>2026-08-14T10:43:12.540Z</time>
      </trkpt>
      <trkpt lat="45.82948" lon="6.7436">
        <ele>1600</ele>
        <time>2026-08-14T10:43:13.540Z</time>
      </trkpt>
      <trkpt lat="45.82947" lon="6.74361">
        <ele>1600</ele>
        <time>2026-08-14T10:43:14.540Z</time>
      </trkpt>
      <trkpt lat="45.82946" lon="6.74362">
        <ele>1600</ele>
        <time>2026-08-14T10:43:15.540Z</time>
      </trkpt>
      <trkpt lat="45.82945" lon="6.74363">
        <ele>1600</ele>
        <time>2026-08-14T10:43:16.540Z</time>
      </trkpt>
      <trkpt lat="45.82944" lon="6.74363">
        <ele>1601</ele>
        <time>2026-08-14T10:43:17.540Z</time>
      </trkpt>
      <trkpt lat="45.82943" lon="6.74364">
        <ele>1601</ele>
        <time>2026-08-14T10:43:18.540Z</time>
      </trkpt>
      <trkpt lat="45.82942" lon="6.74365">
        <ele>1601</ele>
        <time>2026-08-14T10:43:19.540Z</time>
      </trkpt>
      <trkpt lat="45.82941" lon="6.74366">
        <ele>1601</ele>
        <time>2026-08-14T10:43:20.540Z</time>
      </trkpt>
      <trkpt lat="45.82941" lon="6.74366">
        <ele>1601</ele>
        <time>2026-08-14T10:43:21.540Z</time>
      </trkpt>
      <trkpt lat="45.8294" lon="6.74366">
        <ele>1601</ele>
        <time>2026-08-14T10:43:22.540Z</time>
      </trkpt>
      <trkpt lat="45.82938" lon="6.74367">
        <ele>1602</ele>
        <time>2026-08-14T10:43:23.540Z</time>
      </trkpt>
      <trkpt lat="45.82937" lon="6.74366">
        <ele>1602</ele>
        <time>2026-08-14T10:43:24.540Z</time>
      </trkpt>
      <trkpt lat="45.82936" lon="6.74367">
        <ele>1603</ele>
        <time>2026-08-14T10:43:25.540Z</time>
      </trkpt>
      <trkpt lat="45.82935" lon="6.74368">
        <ele>1603</ele>
        <time>2026-08-14T10:43:26.540Z</time>
      </trkpt>
      <trkpt lat="45.82934" lon="6.74368">
        <ele>1604</ele>
        <time>2026-08-14T10:43:27.540Z</time>
      </trkpt>
      <trkpt lat="45.82932" lon="6.74369">
        <ele>1604</ele>
        <time>2026-08-14T10:43:28.540Z</time>
      </trkpt>
      <trkpt lat="45.82931" lon="6.74369">
        <ele>1605</ele>
        <time>2026-08-14T10:43:29.540Z</time>
      </trkpt>
      <trkpt lat="45.82929" lon="6.7437">
        <ele>1605</ele>
        <time>2026-08-14T10:43:30.540Z</time>
      </trkpt>
      <trkpt lat="45.82927" lon="6.7437">
        <ele>1605</ele>
        <time>2026-08-14T10:43:31.540Z</time>
      </trkpt>
      <trkpt lat="45.82927" lon="6.74369">
        <ele>1605</ele>
        <time>2026-08-14T10:43:32.540Z</time>
      </trkpt>
      <trkpt lat="45.82926" lon="6.7437">
        <ele>1605</ele>
        <time>2026-08-14T10:43:33.540Z</time>
      </trkpt>
      <trkpt lat="45.82925" lon="6.7437">
        <ele>1605</ele>
        <time>2026-08-14T10:43:34.540Z</time>
      </trkpt>
      <trkpt lat="45.82924" lon="6.74371">
        <ele>1606</ele>
        <time>2026-08-14T10:43:35.540Z</time>
      </trkpt>
      <trkpt lat="45.82922" lon="6.74373">
        <ele>1606</ele>
        <time>2026-08-14T10:43:36.540Z</time>
      </trkpt>
      <trkpt lat="45.82919" lon="6.74374">
        <ele>1607</ele>
        <time>2026-08-14T10:43:37.540Z</time>
      </trkpt>
      <trkpt lat="45.82918" lon="6.74375">
        <ele>1608</ele>
        <time>2026-08-14T10:43:38.540Z</time>
      </trkpt>
      <trkpt lat="45.82916" lon="6.74376">
        <ele>1609</ele>
        <time>2026-08-14T10:43:39.540Z</time>
      </trkpt>
      <trkpt lat="45.82915" lon="6.74376">
        <ele>1609</ele>
        <time>2026-08-14T10:43:40.540Z</time>
      </trkpt>
      <trkpt lat="45.82915" lon="6.74377">
        <ele>1609</ele>
        <time>2026-08-14T10:43:41.540Z</time>
      </trkpt>
      <trkpt lat="45.82914" lon="6.74377">
        <ele>1609</ele>
        <time>2026-08-14T10:43:42.540Z</time>
      </trkpt>
      <trkpt lat="45.82914" lon="6.74379">
        <ele>1609</ele>
        <time>2026-08-14T10:43:43.540Z</time>
      </trkpt>
      <trkpt lat="45.82914" lon="6.7438">
        <ele>1609</ele>
        <time>2026-08-14T10:43:44.540Z</time>
      </trkpt>
      <trkpt lat="45.82913" lon="6.74381">
        <ele>1609</ele>
        <time>2026-08-14T10:43:45.540Z</time>
      </trkpt>
      <trkpt lat="45.82913" lon="6.74382">
        <ele>1609</ele>
        <time>2026-08-14T10:43:46.540Z</time>
      </trkpt>
      <trkpt lat="45.82913" lon="6.74383">
        <ele>1608</ele>
        <time>2026-08-14T10:43:47.540Z</time>
      </trkpt>
      <trkpt lat="45.82914" lon="6.74384">
        <ele>1607</ele>
        <time>2026-08-14T10:43:48.540Z</time>
      </trkpt>
      <trkpt lat="45.82914" lon="6.74385">
        <ele>1607</ele>
        <time>2026-08-14T10:43:49.540Z</time>
      </trkpt>
      <trkpt lat="45.82915" lon="6.74386">
        <ele>1606</ele>
        <time>2026-08-14T10:43:50.540Z</time>
      </trkpt>
      <trkpt lat="45.82916" lon="6.74387">
        <ele>1606</ele>
        <time>2026-08-14T10:43:51.540Z</time>
      </trkpt>
      <trkpt lat="45.82916" lon="6.74387">
        <ele>1606</ele>
        <time>2026-08-14T10:43:52.540Z</time>
      </trkpt>
      <trkpt lat="45.82917" lon="6.74388">
        <ele>1605</ele>
        <time>2026-08-14T10:43:53.540Z</time>
      </trkpt>
      <trkpt lat="45.82918" lon="6.74389">
        <ele>1605</ele>
        <time>2026-08-14T10:43:54.540Z</time>
      </trkpt>
      <trkpt lat="45.82919" lon="6.7439">
        <ele>1605</ele>
        <time>2026-08-14T10:43:55.540Z</time>
      </trkpt>
      <trkpt lat="45.8292" lon="6.74391">
        <ele>1604</ele>
        <time>2026-08-14T10:43:56.540Z</time>
      </trkpt>
      <trkpt lat="45.82921" lon="6.74392">
        <ele>1604</ele>
        <time>2026-08-14T10:43:57.540Z</time>
      </trkpt>
      <trkpt lat="45.82923" lon="6.74392">
        <ele>1605</ele>
        <time>2026-08-14T10:43:58.540Z</time>
      </trkpt>
      <trkpt lat="45.82924" lon="6.74393">
        <ele>1605</ele>
        <time>2026-08-14T10:43:59.540Z</time>
      </trkpt>
      <trkpt lat="45.82925" lon="6.74394">
        <ele>1605</ele>
        <time>2026-08-14T10:44:00.540Z</time>
      </trkpt>
      <trkpt lat="45.82926" lon="6.74395">
        <ele>1606</ele>
        <time>2026-08-14T10:44:01.540Z</time>
      </trkpt>
      <trkpt lat="45.82927" lon="6.74395">
        <ele>1606</ele>
        <time>2026-08-14T10:44:02.540Z</time>
      </trkpt>
      <trkpt lat="45.82928" lon="6.74396">
        <ele>1606</ele>
        <time>2026-08-14T10:44:03.540Z</time>
      </trkpt>
      <trkpt lat="45.82929" lon="6.74396">
        <ele>1606</ele>
        <time>2026-08-14T10:44:04.540Z</time>
      </trkpt>
      <trkpt lat="45.8293" lon="6.74397">
        <ele>1607</ele>
        <time>2026-08-14T10:44:05.540Z</time>
      </trkpt>
      <trkpt lat="45.82931" lon="6.74397">
        <ele>1607</ele>
        <time>2026-08-14T10:44:06.540Z</time>
      </trkpt>
      <trkpt lat="45.82932" lon="6.74397">
        <ele>1608</ele>
        <time>2026-08-14T10:44:07.540Z</time>
      </trkpt>
      <trkpt lat="45.82933" lon="6.74398">
        <ele>1608</ele>
        <time>2026-08-14T10:44:08.540Z</time>
      </trkpt>
      <trkpt lat="45.82934" lon="6.74398">
        <ele>1608</ele>
        <time>2026-08-14T10:44:09.540Z</time>
      </trkpt>
      <trkpt lat="45.82935" lon="6.74397">
        <ele>1608</ele>
        <time>2026-08-14T10:44:10.540Z</time>
      </trkpt>
      <trkpt lat="45.82936" lon="6.74397">
        <ele>1609</ele>
        <time>2026-08-14T10:44:11.540Z</time>
      </trkpt>
      <trkpt lat="45.82937" lon="6.74396">
        <ele>1609</ele>
        <time>2026-08-14T10:44:12.540Z</time>
      </trkpt>
      <trkpt lat="45.82938" lon="6.74396">
        <ele>1610</ele>
        <time>2026-08-14T10:44:13.540Z</time>
      </trkpt>
      <trkpt lat="45.82939" lon="6.74396">
        <ele>1610</ele>
        <time>2026-08-14T10:44:14.540Z</time>
      </trkpt>
      <trkpt lat="45.8294" lon="6.74395">
        <ele>1611</ele>
        <time>2026-08-14T10:44:15.540Z</time>
      </trkpt>
      <trkpt lat="45.8294" lon="6.74395">
        <ele>1611</ele>
        <time>2026-08-14T10:44:16.540Z</time>
      </trkpt>
      <trkpt lat="45.82941" lon="6.74395">
        <ele>1612</ele>
        <time>2026-08-14T10:44:17.540Z</time>
      </trkpt>
      <trkpt lat="45.82942" lon="6.74395">
        <ele>1612</ele>
        <time>2026-08-14T10:44:18.540Z</time>
      </trkpt>
      <trkpt lat="45.82943" lon="6.74395">
        <ele>1612</ele>
        <time>2026-08-14T10:44:19.540Z</time>
      </trkpt>
      <trkpt lat="45.82944" lon="6.74396">
        <ele>1611</ele>
        <time>2026-08-14T10:44:20.540Z</time>
      </trkpt>
      <trkpt lat="45.82944" lon="6.74396">
        <ele>1611</ele>
        <time>2026-08-14T10:44:21.540Z</time>
      </trkpt>
      <trkpt lat="45.82946" lon="6.74396">
        <ele>1611</ele>
        <time>2026-08-14T10:44:22.540Z</time>
      </trkpt>
      <trkpt lat="45.82946" lon="6.74397">
        <ele>1611</ele>
        <time>2026-08-14T10:44:23.540Z</time>
      </trkpt>
      <trkpt lat="45.82947" lon="6.74397">
        <ele>1611</ele>
        <time>2026-08-14T10:44:24.540Z</time>
      </trkpt>
      <trkpt lat="45.82948" lon="6.74397">
        <ele>1611</ele>
        <time>2026-08-14T10:44:25.540Z</time>
      </trkpt>
      <trkpt lat="45.82949" lon="6.74397">
        <ele>1612</ele>
        <time>2026-08-14T10:44:26.540Z</time>
      </trkpt>
      <trkpt lat="45.82949" lon="6.74398">
        <ele>1612</ele>
        <time>2026-08-14T10:44:27.540Z</time>
      </trkpt>
      <trkpt lat="45.8295" lon="6.74399">
        <ele>1613</ele>
        <time>2026-08-14T10:44:28.540Z</time>
      </trkpt>
      <trkpt lat="45.82951" lon="6.744">
        <ele>1613</ele>
        <time>2026-08-14T10:44:29.540Z</time>
      </trkpt>
      <trkpt lat="45.82952" lon="6.744">
        <ele>1613</ele>
        <time>2026-08-14T10:44:30.540Z</time>
      </trkpt>
      <trkpt lat="45.82953" lon="6.74401">
        <ele>1613</ele>
        <time>2026-08-14T10:44:31.540Z</time>
      </trkpt>
      <trkpt lat="45.82954" lon="6.74402">
        <ele>1613</ele>
        <time>2026-08-14T10:44:32.540Z</time>
      </trkpt>
      <trkpt lat="45.82955" lon="6.74403">
        <ele>1614</ele>
        <time>2026-08-14T10:44:33.540Z</time>
      </trkpt>
      <trkpt lat="45.82956" lon="6.74404">
        <ele>1614</ele>
        <time>2026-08-14T10:44:34.540Z</time>
      </trkpt>
      <trkpt lat="45.82957" lon="6.74404">
        <ele>1614</ele>
        <time>2026-08-14T10:44:35.540Z</time>
      </trkpt>
      <trkpt lat="45.82957" lon="6.74405">
        <ele>1615</ele>
        <time>2026-08-14T10:44:36.540Z</time>
      </trkpt>
      <trkpt lat="45.82958" lon="6.74406">
        <ele>1615</ele>
        <time>2026-08-14T10:44:37.540Z</time>
      </trkpt>
      <trkpt lat="45.82958" lon="6.74406">
        <ele>1615</ele>
        <time>2026-08-14T10:44:38.540Z</time>
      </trkpt>
      <trkpt lat="45.82958" lon="6.74407">
        <ele>1615</ele>
        <time>2026-08-14T10:44:39.540Z</time>
      </trkpt>
      <trkpt lat="45.82959" lon="6.74407">
        <ele>1616</ele>
        <time>2026-08-14T10:44:40.540Z</time>
      </trkpt>
      <trkpt lat="45.82959" lon="6.74408">
        <ele>1616</ele>
        <time>2026-08-14T10:44:41.540Z</time>
      </trkpt>
      <trkpt lat="45.82959" lon="6.74409">
        <ele>1616</ele>
        <time>2026-08-14T10:44:42.540Z</time>
      </trkpt>
      <trkpt lat="45.8296" lon="6.7441">
        <ele>1616</ele>
        <time>2026-08-14T10:44:43.540Z</time>
      </trkpt>
      <trkpt lat="45.8296" lon="6.74412">
        <ele>1616</ele>
        <time>2026-08-14T10:44:44.540Z</time>
      </trkpt>
      <trkpt lat="45.82961" lon="6.74413">
        <ele>1616</ele>
        <time>2026-08-14T10:44:45.540Z</time>
      </trkpt>
      <trkpt lat="45.82961" lon="6.74414">
        <ele>1616</ele>
        <time>2026-08-14T10:44:46.540Z</time>
      </trkpt>
      <trkpt lat="45.82962" lon="6.74415">
        <ele>1617</ele>
        <time>2026-08-14T10:44:47.540Z</time>
      </trkpt>
      <trkpt lat="45.82962" lon="6.74416">
        <ele>1617</ele>
        <time>2026-08-14T10:44:48.540Z</time>
      </trkpt>
      <trkpt lat="45.82963" lon="6.74417">
        <ele>1618</ele>
        <time>2026-08-14T10:44:49.540Z</time>
      </trkpt>
      <trkpt lat="45.82963" lon="6.74418">
        <ele>1618</ele>
        <time>2026-08-14T10:44:50.540Z</time>
      </trkpt>
      <trkpt lat="45.82964" lon="6.74419">
        <ele>1618</ele>
        <time>2026-08-14T10:44:51.540Z</time>
      </trkpt>
      <trkpt lat="45.82964" lon="6.7442">
        <ele>1618</ele>
        <time>2026-08-14T10:44:52.540Z</time>
      </trkpt>
      <trkpt lat="45.82965" lon="6.74421">
        <ele>1618</ele>
        <time>2026-08-14T10:44:53.540Z</time>
      </trkpt>
      <trkpt lat="45.82965" lon="6.74422">
        <ele>1618</ele>
        <time>2026-08-14T10:44:54.540Z</time>
      </trkpt>
      <trkpt lat="45.82966" lon="6.74423">
        <ele>1618</ele>
        <time>2026-08-14T10:44:55.540Z</time>
      </trkpt>
      <trkpt lat="45.82967" lon="6.74424">
        <ele>1619</ele>
        <time>2026-08-14T10:44:56.540Z</time>
      </trkpt>
      <trkpt lat="45.82968" lon="6.74424">
        <ele>1619</ele>
        <time>2026-08-14T10:44:57.540Z</time>
      </trkpt>
      <trkpt lat="45.82969" lon="6.74425">
        <ele>1619</ele>
        <time>2026-08-14T10:44:58.540Z</time>
      </trkpt>
      <trkpt lat="45.8297" lon="6.74426">
        <ele>1619</ele>
        <time>2026-08-14T10:44:59.540Z</time>
      </trkpt>
      <trkpt lat="45.82971" lon="6.74427">
        <ele>1619</ele>
        <time>2026-08-14T10:45:00.540Z</time>
      </trkpt>
      <trkpt lat="45.82972" lon="6.74428">
        <ele>1619</ele>
        <time>2026-08-14T10:45:01.540Z</time>
      </trkpt>
      <trkpt lat="45.82973" lon="6.74429">
        <ele>1619</ele>
        <time>2026-08-14T10:45:02.540Z</time>
      </trkpt>
      <trkpt lat="45.82974" lon="6.74431">
        <ele>1619</ele>
        <time>2026-08-14T10:45:03.540Z</time>
      </trkpt>
      <trkpt lat="45.82975" lon="6.74432">
        <ele>1619</ele>
        <time>2026-08-14T10:45:04.540Z</time>
      </trkpt>
      <trkpt lat="45.82976" lon="6.74432">
        <ele>1620</ele>
        <time>2026-08-14T10:45:05.540Z</time>
      </trkpt>
      <trkpt lat="45.82977" lon="6.74433">
        <ele>1620</ele>
        <time>2026-08-14T10:45:06.540Z</time>
      </trkpt>
      <trkpt lat="45.82978" lon="6.74434">
        <ele>1620</ele>
        <time>2026-08-14T10:45:07.540Z</time>
      </trkpt>
      <trkpt lat="45.82979" lon="6.74436">
        <ele>1620</ele>
        <time>2026-08-14T10:45:08.540Z</time>
      </trkpt>
      <trkpt lat="45.8298" lon="6.74437">
        <ele>1621</ele>
        <time>2026-08-14T10:45:09.540Z</time>
      </trkpt>
      <trkpt lat="45.82981" lon="6.74438">
        <ele>1621</ele>
        <time>2026-08-14T10:45:10.540Z</time>
      </trkpt>
      <trkpt lat="45.82982" lon="6.74439">
        <ele>1621</ele>
        <time>2026-08-14T10:45:11.540Z</time>
      </trkpt>
      <trkpt lat="45.82983" lon="6.7444">
        <ele>1622</ele>
        <time>2026-08-14T10:45:12.540Z</time>
      </trkpt>
      <trkpt lat="45.82985" lon="6.74441">
        <ele>1622</ele>
        <time>2026-08-14T10:45:13.540Z</time>
      </trkpt>
      <trkpt lat="45.82985" lon="6.74442">
        <ele>1622</ele>
        <time>2026-08-14T10:45:14.540Z</time>
      </trkpt>
      <trkpt lat="45.82986" lon="6.74443">
        <ele>1622</ele>
        <time>2026-08-14T10:45:15.540Z</time>
      </trkpt>
      <trkpt lat="45.82988" lon="6.74445">
        <ele>1623</ele>
        <time>2026-08-14T10:45:16.540Z</time>
      </trkpt>
      <trkpt lat="45.82988" lon="6.74445">
        <ele>1623</ele>
        <time>2026-08-14T10:45:17.540Z</time>
      </trkpt>
      <trkpt lat="45.82989" lon="6.74446">
        <ele>1624</ele>
        <time>2026-08-14T10:45:18.540Z</time>
      </trkpt>
      <trkpt lat="45.8299" lon="6.74447">
        <ele>1624</ele>
        <time>2026-08-14T10:45:19.540Z</time>
      </trkpt>
      <trkpt lat="45.82991" lon="6.74448">
        <ele>1624</ele>
        <time>2026-08-14T10:45:20.540Z</time>
      </trkpt>
      <trkpt lat="45.82992" lon="6.7445">
        <ele>1625</ele>
        <time>2026-08-14T10:45:21.540Z</time>
      </trkpt>
      <trkpt lat="45.82993" lon="6.74451">
        <ele>1625</ele>
        <time>2026-08-14T10:45:22.540Z</time>
      </trkpt>
      <trkpt lat="45.82993" lon="6.74452">
        <ele>1625</ele>
        <time>2026-08-14T10:45:23.540Z</time>
      </trkpt>
      <trkpt lat="45.82994" lon="6.74453">
        <ele>1626</ele>
        <time>2026-08-14T10:45:24.540Z</time>
      </trkpt>
      <trkpt lat="45.82995" lon="6.74454">
        <ele>1626</ele>
        <time>2026-08-14T10:45:25.540Z</time>
      </trkpt>
      <trkpt lat="45.82995" lon="6.74455">
        <ele>1626</ele>
        <time>2026-08-14T10:45:26.540Z</time>
      </trkpt>
      <trkpt lat="45.82996" lon="6.74457">
        <ele>1626</ele>
        <time>2026-08-14T10:45:27.540Z</time>
      </trkpt>
      <trkpt lat="45.82996" lon="6.74458">
        <ele>1626</ele>
        <time>2026-08-14T10:45:28.540Z</time>
      </trkpt>
      <trkpt lat="45.82997" lon="6.74459">
        <ele>1626</ele>
        <time>2026-08-14T10:45:29.540Z</time>
      </trkpt>
      <trkpt lat="45.82998" lon="6.74459">
        <ele>1627</ele>
        <time>2026-08-14T10:45:30.540Z</time>
      </trkpt>
      <trkpt lat="45.82998" lon="6.7446">
        <ele>1627</ele>
        <time>2026-08-14T10:45:31.540Z</time>
      </trkpt>
      <trkpt lat="45.82999" lon="6.74461">
        <ele>1627</ele>
        <time>2026-08-14T10:45:32.540Z</time>
      </trkpt>
      <trkpt lat="45.83" lon="6.74462">
        <ele>1627</ele>
        <time>2026-08-14T10:45:33.540Z</time>
      </trkpt>
      <trkpt lat="45.83" lon="6.74463">
        <ele>1627</ele>
        <time>2026-08-14T10:45:34.540Z</time>
      </trkpt>
      <trkpt lat="45.83001" lon="6.74463">
        <ele>1628</ele>
        <time>2026-08-14T10:45:35.540Z</time>
      </trkpt>
      <trkpt lat="45.83002" lon="6.74464">
        <ele>1628</ele>
        <time>2026-08-14T10:45:36.540Z</time>
      </trkpt>
      <trkpt lat="45.83002" lon="6.74464">
        <ele>1628</ele>
        <time>2026-08-14T10:45:37.540Z</time>
      </trkpt>
      <trkpt lat="45.83004" lon="6.74465">
        <ele>1628</ele>
        <time>2026-08-14T10:45:38.540Z</time>
      </trkpt>
      <trkpt lat="45.83005" lon="6.74465">
        <ele>1628</ele>
        <time>2026-08-14T10:45:39.540Z</time>
      </trkpt>
      <trkpt lat="45.83006" lon="6.74465">
        <ele>1628</ele>
        <time>2026-08-14T10:45:40.540Z</time>
      </trkpt>
      <trkpt lat="45.83007" lon="6.74465">
        <ele>1628</ele>
        <time>2026-08-14T10:45:41.540Z</time>
      </trkpt>
      <trkpt lat="45.83008" lon="6.74465">
        <ele>1628</ele>
        <time>2026-08-14T10:45:42.540Z</time>
      </trkpt>
      <trkpt lat="45.83009" lon="6.74465">
        <ele>1628</ele>
        <time>2026-08-14T10:45:43.540Z</time>
      </trkpt>
      <trkpt lat="45.8301" lon="6.74466">
        <ele>1628</ele>
        <time>2026-08-14T10:45:44.540Z</time>
      </trkpt>
      <trkpt lat="45.83011" lon="6.74466">
        <ele>1628</ele>
        <time>2026-08-14T10:45:45.540Z</time>
      </trkpt>
      <trkpt lat="45.83012" lon="6.74467">
        <ele>1628</ele>
        <time>2026-08-14T10:45:46.540Z</time>
      </trkpt>
      <trkpt lat="45.83013" lon="6.74469">
        <ele>1629</ele>
        <time>2026-08-14T10:45:47.540Z</time>
      </trkpt>
      <trkpt lat="45.83013" lon="6.7447">
        <ele>1629</ele>
        <time>2026-08-14T10:45:48.540Z</time>
      </trkpt>
      <trkpt lat="45.83014" lon="6.7447">
        <ele>1629</ele>
        <time>2026-08-14T10:45:49.540Z</time>
      </trkpt>
      <trkpt lat="45.83015" lon="6.74471">
        <ele>1628</ele>
        <time>2026-08-14T10:45:50.540Z</time>
      </trkpt>
      <trkpt lat="45.83017" lon="6.74474">
        <ele>1628</ele>
        <time>2026-08-14T10:45:51.540Z</time>
      </trkpt>
      <trkpt lat="45.83018" lon="6.74476">
        <ele>1628</ele>
        <time>2026-08-14T10:45:52.540Z</time>
      </trkpt>
      <trkpt lat="45.83019" lon="6.74477">
        <ele>1628</ele>
        <time>2026-08-14T10:45:53.540Z</time>
      </trkpt>
      <trkpt lat="45.83019" lon="6.74478">
        <ele>1628</ele>
        <time>2026-08-14T10:45:54.540Z</time>
      </trkpt>
      <trkpt lat="45.83021" lon="6.74478">
        <ele>1628</ele>
        <time>2026-08-14T10:45:55.540Z</time>
      </trkpt>
      <trkpt lat="45.83022" lon="6.74478">
        <ele>1628</ele>
        <time>2026-08-14T10:45:56.540Z</time>
      </trkpt>
      <trkpt lat="45.83023" lon="6.74479">
        <ele>1629</ele>
        <time>2026-08-14T10:45:57.540Z</time>
      </trkpt>
      <trkpt lat="45.83023" lon="6.74479">
        <ele>1629</ele>
        <time>2026-08-14T10:45:58.540Z</time>
      </trkpt>
      <trkpt lat="45.83024" lon="6.7448">
        <ele>1629</ele>
        <time>2026-08-14T10:45:59.540Z</time>
      </trkpt>
      <trkpt lat="45.83025" lon="6.74481">
        <ele>1630</ele>
        <time>2026-08-14T10:46:00.540Z</time>
      </trkpt>
      <trkpt lat="45.83026" lon="6.74481">
        <ele>1630</ele>
        <time>2026-08-14T10:46:01.540Z</time>
      </trkpt>
      <trkpt lat="45.83027" lon="6.74482">
        <ele>1630</ele>
        <time>2026-08-14T10:46:02.540Z</time>
      </trkpt>
      <trkpt lat="45.83028" lon="6.74483">
        <ele>1631</ele>
        <time>2026-08-14T10:46:03.540Z</time>
      </trkpt>
      <trkpt lat="45.83028" lon="6.74484">
        <ele>1631</ele>
        <time>2026-08-14T10:46:04.540Z</time>
      </trkpt>
      <trkpt lat="45.83029" lon="6.74484">
        <ele>1631</ele>
        <time>2026-08-14T10:46:05.540Z</time>
      </trkpt>
      <trkpt lat="45.83031" lon="6.74485">
        <ele>1631</ele>
        <time>2026-08-14T10:46:06.540Z</time>
      </trkpt>
      <trkpt lat="45.83032" lon="6.74486">
        <ele>1632</ele>
        <time>2026-08-14T10:46:07.540Z</time>
      </trkpt>
      <trkpt lat="45.83033" lon="6.74487">
        <ele>1632</ele>
        <time>2026-08-14T10:46:08.540Z</time>
      </trkpt>
      <trkpt lat="45.83034" lon="6.74488">
        <ele>1632</ele>
        <time>2026-08-14T10:46:09.540Z</time>
      </trkpt>
      <trkpt lat="45.83035" lon="6.74488">
        <ele>1633</ele>
        <time>2026-08-14T10:46:10.540Z</time>
      </trkpt>
      <trkpt lat="45.83037" lon="6.74489">
        <ele>1633</ele>
        <time>2026-08-14T10:46:11.540Z</time>
      </trkpt>
      <trkpt lat="45.83038" lon="6.7449">
        <ele>1633</ele>
        <time>2026-08-14T10:46:12.540Z</time>
      </trkpt>
      <trkpt lat="45.83039" lon="6.7449">
        <ele>1634</ele>
        <time>2026-08-14T10:46:13.540Z</time>
      </trkpt>
      <trkpt lat="45.8304" lon="6.74491">
        <ele>1634</ele>
        <time>2026-08-14T10:46:14.540Z</time>
      </trkpt>
      <trkpt lat="45.8304" lon="6.74491">
        <ele>1635</ele>
        <time>2026-08-14T10:46:15.540Z</time>
      </trkpt>
      <trkpt lat="45.83041" lon="6.74492">
        <ele>1635</ele>
        <time>2026-08-14T10:46:16.540Z</time>
      </trkpt>
      <trkpt lat="45.83042" lon="6.74493">
        <ele>1636</ele>
        <time>2026-08-14T10:46:17.540Z</time>
      </trkpt>
      <trkpt lat="45.83044" lon="6.74493">
        <ele>1636</ele>
        <time>2026-08-14T10:46:18.540Z</time>
      </trkpt>
      <trkpt lat="45.83045" lon="6.74494">
        <ele>1636</ele>
        <time>2026-08-14T10:46:19.540Z</time>
      </trkpt>
      <trkpt lat="45.83047" lon="6.74494">
        <ele>1637</ele>
        <time>2026-08-14T10:46:20.540Z</time>
      </trkpt>
      <trkpt lat="45.83048" lon="6.74495">
        <ele>1637</ele>
        <time>2026-08-14T10:46:21.540Z</time>
      </trkpt>
      <trkpt lat="45.83048" lon="6.74496">
        <ele>1637</ele>
        <time>2026-08-14T10:46:22.540Z</time>
      </trkpt>
      <trkpt lat="45.83049" lon="6.74497">
        <ele>1638</ele>
        <time>2026-08-14T10:46:23.540Z</time>
      </trkpt>
      <trkpt lat="45.8305" lon="6.74497">
        <ele>1638</ele>
        <time>2026-08-14T10:46:24.540Z</time>
      </trkpt>
      <trkpt lat="45.83051" lon="6.74499">
        <ele>1638</ele>
        <time>2026-08-14T10:46:25.540Z</time>
      </trkpt>
      <trkpt lat="45.83052" lon="6.745">
        <ele>1638</ele>
        <time>2026-08-14T10:46:26.540Z</time>
      </trkpt>
      <trkpt lat="45.83054" lon="6.74502">
        <ele>1638</ele>
        <time>2026-08-14T10:46:27.540Z</time>
      </trkpt>
      <trkpt lat="45.83055" lon="6.74503">
        <ele>1638</ele>
        <time>2026-08-14T10:46:28.540Z</time>
      </trkpt>
      <trkpt lat="45.83056" lon="6.74504">
        <ele>1638</ele>
        <time>2026-08-14T10:46:29.540Z</time>
      </trkpt>
      <trkpt lat="45.83056" lon="6.74505">
        <ele>1639</ele>
        <time>2026-08-14T10:46:30.540Z</time>
      </trkpt>
      <trkpt lat="45.83057" lon="6.74506">
        <ele>1639</ele>
        <time>2026-08-14T10:46:31.540Z</time>
      </trkpt>
      <trkpt lat="45.83057" lon="6.74507">
        <ele>1639</ele>
        <time>2026-08-14T10:46:32.540Z</time>
      </trkpt>
      <trkpt lat="45.83057" lon="6.7451">
        <ele>1639</ele>
        <time>2026-08-14T10:46:33.540Z</time>
      </trkpt>
      <trkpt lat="45.83057" lon="6.74512">
        <ele>1639</ele>
        <time>2026-08-14T10:46:34.540Z</time>
      </trkpt>
      <trkpt lat="45.83057" lon="6.74513">
        <ele>1640</ele>
        <time>2026-08-14T10:46:35.540Z</time>
      </trkpt>
      <trkpt lat="45.83057" lon="6.74514">
        <ele>1640</ele>
        <time>2026-08-14T10:46:36.540Z</time>
      </trkpt>
      <trkpt lat="45.83058" lon="6.74516">
        <ele>1640</ele>
        <time>2026-08-14T10:46:37.540Z</time>
      </trkpt>
      <trkpt lat="45.83058" lon="6.74517">
        <ele>1641</ele>
        <time>2026-08-14T10:46:38.540Z</time>
      </trkpt>
      <trkpt lat="45.83059" lon="6.74518">
        <ele>1641</ele>
        <time>2026-08-14T10:46:39.540Z</time>
      </trkpt>
      <trkpt lat="45.83059" lon="6.7452">
        <ele>1641</ele>
        <time>2026-08-14T10:46:40.540Z</time>
      </trkpt>
      <trkpt lat="45.8306" lon="6.74521">
        <ele>1642</ele>
        <time>2026-08-14T10:46:41.540Z</time>
      </trkpt>
      <trkpt lat="45.83061" lon="6.74522">
        <ele>1642</ele>
        <time>2026-08-14T10:46:42.540Z</time>
      </trkpt>
      <trkpt lat="45.83062" lon="6.74524">
        <ele>1643</ele>
        <time>2026-08-14T10:46:43.540Z</time>
      </trkpt>
      <trkpt lat="45.83063" lon="6.74525">
        <ele>1643</ele>
        <time>2026-08-14T10:46:44.540Z</time>
      </trkpt>
      <trkpt lat="45.83064" lon="6.74527">
        <ele>1644</ele>
        <time>2026-08-14T10:46:45.540Z</time>
      </trkpt>
      <trkpt lat="45.83066" lon="6.74529">
        <ele>1644</ele>
        <time>2026-08-14T10:46:46.540Z</time>
      </trkpt>
      <trkpt lat="45.83068" lon="6.74532">
        <ele>1644</ele>
        <time>2026-08-14T10:46:47.540Z</time>
      </trkpt>
      <trkpt lat="45.83069" lon="6.74533">
        <ele>1643</ele>
        <time>2026-08-14T10:46:48.540Z</time>
      </trkpt>
      <trkpt lat="45.8307" lon="6.74535">
        <ele>1643</ele>
        <time>2026-08-14T10:46:49.540Z</time>
      </trkpt>
      <trkpt lat="45.83071" lon="6.74536">
        <ele>1643</ele>
        <time>2026-08-14T10:46:50.540Z</time>
      </trkpt>
      <trkpt lat="45.83071" lon="6.74536">
        <ele>1643</ele>
        <time>2026-08-14T10:46:51.540Z</time>
      </trkpt>
      <trkpt lat="45.83072" lon="6.74537">
        <ele>1643</ele>
        <time>2026-08-14T10:46:52.540Z</time>
      </trkpt>
      <trkpt lat="45.83073" lon="6.74538">
        <ele>1643</ele>
        <time>2026-08-14T10:46:53.540Z</time>
      </trkpt>
      <trkpt lat="45.83073" lon="6.74539">
        <ele>1643</ele>
        <time>2026-08-14T10:46:54.540Z</time>
      </trkpt>
      <trkpt lat="45.83074" lon="6.7454">
        <ele>1643</ele>
        <time>2026-08-14T10:46:55.540Z</time>
      </trkpt>
      <trkpt lat="45.83074" lon="6.74541">
        <ele>1643</ele>
        <time>2026-08-14T10:46:56.540Z</time>
      </trkpt>
      <trkpt lat="45.83074" lon="6.74542">
        <ele>1643</ele>
        <time>2026-08-14T10:46:57.540Z</time>
      </trkpt>
      <trkpt lat="45.83075" lon="6.74543">
        <ele>1643</ele>
        <time>2026-08-14T10:46:58.540Z</time>
      </trkpt>
      <trkpt lat="45.83076" lon="6.74545">
        <ele>1643</ele>
        <time>2026-08-14T10:46:59.540Z</time>
      </trkpt>
      <trkpt lat="45.83076" lon="6.74545">
        <ele>1643</ele>
        <time>2026-08-14T10:47:00.540Z</time>
      </trkpt>
      <trkpt lat="45.83076" lon="6.74547">
        <ele>1643</ele>
        <time>2026-08-14T10:47:01.540Z</time>
      </trkpt>
      <trkpt lat="45.83076" lon="6.74549">
        <ele>1644</ele>
        <time>2026-08-14T10:47:02.540Z</time>
      </trkpt>
      <trkpt lat="45.83076" lon="6.7455">
        <ele>1644</ele>
        <time>2026-08-14T10:47:03.540Z</time>
      </trkpt>
      <trkpt lat="45.83077" lon="6.74552">
        <ele>1644</ele>
        <time>2026-08-14T10:47:04.540Z</time>
      </trkpt>
      <trkpt lat="45.83078" lon="6.74553">
        <ele>1644</ele>
        <time>2026-08-14T10:47:05.540Z</time>
      </trkpt>
      <trkpt lat="45.83079" lon="6.74554">
        <ele>1644</ele>
        <time>2026-08-14T10:47:06.540Z</time>
      </trkpt>
      <trkpt lat="45.83079" lon="6.74555">
        <ele>1645</ele>
        <time>2026-08-14T10:47:07.540Z</time>
      </trkpt>
      <trkpt lat="45.8308" lon="6.74556">
        <ele>1645</ele>
        <time>2026-08-14T10:47:08.540Z</time>
      </trkpt>
      <trkpt lat="45.83081" lon="6.74557">
        <ele>1645</ele>
        <time>2026-08-14T10:47:09.540Z</time>
      </trkpt>
      <trkpt lat="45.83082" lon="6.74558">
        <ele>1645</ele>
        <time>2026-08-14T10:47:10.540Z</time>
      </trkpt>
      <trkpt lat="45.83083" lon="6.74559">
        <ele>1645</ele>
        <time>2026-08-14T10:47:11.540Z</time>
      </trkpt>
      <trkpt lat="45.83084" lon="6.7456">
        <ele>1646</ele>
        <time>2026-08-14T10:47:12.540Z</time>
      </trkpt>
      <trkpt lat="45.83084" lon="6.74561">
        <ele>1646</ele>
        <time>2026-08-14T10:47:13.540Z</time>
      </trkpt>
      <trkpt lat="45.83085" lon="6.74562">
        <ele>1646</ele>
        <time>2026-08-14T10:47:14.540Z</time>
      </trkpt>
      <trkpt lat="45.83086" lon="6.74564">
        <ele>1645</ele>
        <time>2026-08-14T10:47:15.540Z</time>
      </trkpt>
      <trkpt lat="45.83087" lon="6.74565">
        <ele>1645</ele>
        <time>2026-08-14T10:47:16.540Z</time>
      </trkpt>
      <trkpt lat="45.83088" lon="6.74566">
        <ele>1645</ele>
        <time>2026-08-14T10:47:17.540Z</time>
      </trkpt>
      <trkpt lat="45.83089" lon="6.74567">
        <ele>1645</ele>
        <time>2026-08-14T10:47:18.540Z</time>
      </trkpt>
      <trkpt lat="45.8309" lon="6.74568">
        <ele>1645</ele>
        <time>2026-08-14T10:47:19.540Z</time>
      </trkpt>
      <trkpt lat="45.83091" lon="6.74569">
        <ele>1644</ele>
        <time>2026-08-14T10:47:20.540Z</time>
      </trkpt>
      <trkpt lat="45.83091" lon="6.7457">
        <ele>1644</ele>
        <time>2026-08-14T10:47:21.540Z</time>
      </trkpt>
      <trkpt lat="45.83092" lon="6.74572">
        <ele>1645</ele>
        <time>2026-08-14T10:47:22.540Z</time>
      </trkpt>
      <trkpt lat="45.83093" lon="6.74573">
        <ele>1645</ele>
        <time>2026-08-14T10:47:23.540Z</time>
      </trkpt>
      <trkpt lat="45.83094" lon="6.74574">
        <ele>1645</ele>
        <time>2026-08-14T10:47:24.540Z</time>
      </trkpt>
      <trkpt lat="45.83095" lon="6.74575">
        <ele>1646</ele>
        <time>2026-08-14T10:47:25.540Z</time>
      </trkpt>
      <trkpt lat="45.83096" lon="6.74576">
        <ele>1646</ele>
        <time>2026-08-14T10:47:26.540Z</time>
      </trkpt>
      <trkpt lat="45.83097" lon="6.74577">
        <ele>1647</ele>
        <time>2026-08-14T10:47:27.540Z</time>
      </trkpt>
      <trkpt lat="45.83098" lon="6.74578">
        <ele>1647</ele>
        <time>2026-08-14T10:47:28.540Z</time>
      </trkpt>
      <trkpt lat="45.83099" lon="6.74579">
        <ele>1647</ele>
        <time>2026-08-14T10:47:29.540Z</time>
      </trkpt>
      <trkpt lat="45.831" lon="6.74579">
        <ele>1648</ele>
        <time>2026-08-14T10:47:30.540Z</time>
      </trkpt>
      <trkpt lat="45.83101" lon="6.7458">
        <ele>1648</ele>
        <time>2026-08-14T10:47:31.540Z</time>
      </trkpt>
      <trkpt lat="45.83102" lon="6.74581">
        <ele>1648</ele>
        <time>2026-08-14T10:47:32.540Z</time>
      </trkpt>
      <trkpt lat="45.83103" lon="6.74582">
        <ele>1649</ele>
        <time>2026-08-14T10:47:33.540Z</time>
      </trkpt>
      <trkpt lat="45.83104" lon="6.74582">
        <ele>1649</ele>
        <time>2026-08-14T10:47:34.540Z</time>
      </trkpt>
      <trkpt lat="45.83105" lon="6.74583">
        <ele>1649</ele>
        <time>2026-08-14T10:47:35.540Z</time>
      </trkpt>
      <trkpt lat="45.83106" lon="6.74583">
        <ele>1650</ele>
        <time>2026-08-14T10:47:36.540Z</time>
      </trkpt>
      <trkpt lat="45.83107" lon="6.74584">
        <ele>1649</ele>
        <time>2026-08-14T10:47:37.540Z</time>
      </trkpt>
      <trkpt lat="45.83108" lon="6.74584">
        <ele>1650</ele>
        <time>2026-08-14T10:47:38.540Z</time>
      </trkpt>
      <trkpt lat="45.83109" lon="6.74585">
        <ele>1649</ele>
        <time>2026-08-14T10:47:39.540Z</time>
      </trkpt>
      <trkpt lat="45.8311" lon="6.74585">
        <ele>1649</ele>
        <time>2026-08-14T10:47:40.540Z</time>
      </trkpt>
      <trkpt lat="45.83112" lon="6.74585">
        <ele>1649</ele>
        <time>2026-08-14T10:47:41.540Z</time>
      </trkpt>
      <trkpt lat="45.83113" lon="6.74584">
        <ele>1649</ele>
        <time>2026-08-14T10:47:42.540Z</time>
      </trkpt>
      <trkpt lat="45.83114" lon="6.74584">
        <ele>1650</ele>
        <time>2026-08-14T10:47:43.540Z</time>
      </trkpt>
      <trkpt lat="45.83115" lon="6.74584">
        <ele>1650</ele>
        <time>2026-08-14T10:47:44.540Z</time>
      </trkpt>
      <trkpt lat="45.83116" lon="6.74584">
        <ele>1650</ele>
        <time>2026-08-14T10:47:45.540Z</time>
      </trkpt>
      <trkpt lat="45.83117" lon="6.74584">
        <ele>1650</ele>
        <time>2026-08-14T10:47:46.540Z</time>
      </trkpt>
      <trkpt lat="45.83118" lon="6.74584">
        <ele>1650</ele>
        <time>2026-08-14T10:47:47.540Z</time>
      </trkpt>
      <trkpt lat="45.83119" lon="6.74584">
        <ele>1650</ele>
        <time>2026-08-14T10:47:48.540Z</time>
      </trkpt>
      <trkpt lat="45.8312" lon="6.74584">
        <ele>1651</ele>
        <time>2026-08-14T10:47:49.540Z</time>
      </trkpt>
      <trkpt lat="45.83121" lon="6.74584">
        <ele>1651</ele>
        <time>2026-08-14T10:47:50.540Z</time>
      </trkpt>
      <trkpt lat="45.83122" lon="6.74584">
        <ele>1651</ele>
        <time>2026-08-14T10:47:51.540Z</time>
      </trkpt>
      <trkpt lat="45.83123" lon="6.74584">
        <ele>1651</ele>
        <time>2026-08-14T10:47:52.540Z</time>
      </trkpt>
      <trkpt lat="45.83124" lon="6.74583">
        <ele>1652</ele>
        <time>2026-08-14T10:47:53.540Z</time>
      </trkpt>
      <trkpt lat="45.83125" lon="6.74583">
        <ele>1652</ele>
        <time>2026-08-14T10:47:54.540Z</time>
      </trkpt>
      <trkpt lat="45.83126" lon="6.74582">
        <ele>1652</ele>
        <time>2026-08-14T10:47:55.540Z</time>
      </trkpt>
      <trkpt lat="45.83127" lon="6.74582">
        <ele>1652</ele>
        <time>2026-08-14T10:47:56.540Z</time>
      </trkpt>
      <trkpt lat="45.83129" lon="6.74582">
        <ele>1653</ele>
        <time>2026-08-14T10:47:57.540Z</time>
      </trkpt>
      <trkpt lat="45.8313" lon="6.74581">
        <ele>1653</ele>
        <time>2026-08-14T10:47:58.540Z</time>
      </trkpt>
      <trkpt lat="45.83131" lon="6.74581">
        <ele>1653</ele>
        <time>2026-08-14T10:47:59.540Z</time>
      </trkpt>
      <trkpt lat="45.83132" lon="6.74582">
        <ele>1653</ele>
        <time>2026-08-14T10:48:00.540Z</time>
      </trkpt>
      <trkpt lat="45.83133" lon="6.74582">
        <ele>1653</ele>
        <time>2026-08-14T10:48:01.540Z</time>
      </trkpt>
      <trkpt lat="45.83134" lon="6.74583">
        <ele>1653</ele>
        <time>2026-08-14T10:48:02.540Z</time>
      </trkpt>
      <trkpt lat="45.83136" lon="6.74585">
        <ele>1652</ele>
        <time>2026-08-14T10:48:03.540Z</time>
      </trkpt>
      <trkpt lat="45.83137" lon="6.74585">
        <ele>1652</ele>
        <time>2026-08-14T10:48:04.540Z</time>
      </trkpt>
      <trkpt lat="45.83138" lon="6.74585">
        <ele>1653</ele>
        <time>2026-08-14T10:48:05.540Z</time>
      </trkpt>
      <trkpt lat="45.8314" lon="6.74585">
        <ele>1653</ele>
        <time>2026-08-14T10:48:06.540Z</time>
      </trkpt>
      <trkpt lat="45.83141" lon="6.74585">
        <ele>1653</ele>
        <time>2026-08-14T10:48:07.540Z</time>
      </trkpt>
      <trkpt lat="45.83141" lon="6.74586">
        <ele>1653</ele>
        <time>2026-08-14T10:48:08.540Z</time>
      </trkpt>
      <trkpt lat="45.83142" lon="6.74586">
        <ele>1654</ele>
        <time>2026-08-14T10:48:09.540Z</time>
      </trkpt>
      <trkpt lat="45.83144" lon="6.74587">
        <ele>1654</ele>
        <time>2026-08-14T10:48:10.540Z</time>
      </trkpt>
      <trkpt lat="45.83145" lon="6.74587">
        <ele>1654</ele>
        <time>2026-08-14T10:48:11.540Z</time>
      </trkpt>
      <trkpt lat="45.83146" lon="6.74587">
        <ele>1655</ele>
        <time>2026-08-14T10:48:12.540Z</time>
      </trkpt>
      <trkpt lat="45.83147" lon="6.74588">
        <ele>1655</ele>
        <time>2026-08-14T10:48:13.540Z</time>
      </trkpt>
      <trkpt lat="45.83148" lon="6.74588">
        <ele>1655</ele>
        <time>2026-08-14T10:48:14.540Z</time>
      </trkpt>
      <trkpt lat="45.8315" lon="6.7459">
        <ele>1656</ele>
        <time>2026-08-14T10:48:15.540Z</time>
      </trkpt>
      <trkpt lat="45.83151" lon="6.7459">
        <ele>1656</ele>
        <time>2026-08-14T10:48:16.540Z</time>
      </trkpt>
      <trkpt lat="45.83152" lon="6.74591">
        <ele>1656</ele>
        <time>2026-08-14T10:48:17.540Z</time>
      </trkpt>
      <trkpt lat="45.83154" lon="6.74591">
        <ele>1656</ele>
        <time>2026-08-14T10:48:18.540Z</time>
      </trkpt>
      <trkpt lat="45.83155" lon="6.74591">
        <ele>1656</ele>
        <time>2026-08-14T10:48:19.540Z</time>
      </trkpt>
      <trkpt lat="45.83156" lon="6.74592">
        <ele>1656</ele>
        <time>2026-08-14T10:48:20.540Z</time>
      </trkpt>
      <trkpt lat="45.83157" lon="6.74592">
        <ele>1656</ele>
        <time>2026-08-14T10:48:21.540Z</time>
      </trkpt>
      <trkpt lat="45.83158" lon="6.74592">
        <ele>1657</ele>
        <time>2026-08-14T10:48:22.540Z</time>
      </trkpt>
      <trkpt lat="45.83159" lon="6.74592">
        <ele>1657</ele>
        <time>2026-08-14T10:48:23.540Z</time>
      </trkpt>
      <trkpt lat="45.8316" lon="6.74592">
        <ele>1657</ele>
        <time>2026-08-14T10:48:24.540Z</time>
      </trkpt>
      <trkpt lat="45.83161" lon="6.74592">
        <ele>1658</ele>
        <time>2026-08-14T10:48:25.540Z</time>
      </trkpt>
      <trkpt lat="45.83162" lon="6.74591">
        <ele>1658</ele>
        <time>2026-08-14T10:48:26.540Z</time>
      </trkpt>
      <trkpt lat="45.83162" lon="6.74591">
        <ele>1659</ele>
        <time>2026-08-14T10:48:27.540Z</time>
      </trkpt>
      <trkpt lat="45.83163" lon="6.74591">
        <ele>1659</ele>
        <time>2026-08-14T10:48:28.540Z</time>
      </trkpt>
      <trkpt lat="45.83164" lon="6.74592">
        <ele>1659</ele>
        <time>2026-08-14T10:48:29.540Z</time>
      </trkpt>
      <trkpt lat="45.83165" lon="6.74592">
        <ele>1659</ele>
        <time>2026-08-14T10:48:30.540Z</time>
      </trkpt>
      <trkpt lat="45.83166" lon="6.74593">
        <ele>1659</ele>
        <time>2026-08-14T10:48:31.540Z</time>
      </trkpt>
      <trkpt lat="45.83166" lon="6.74593">
        <ele>1659</ele>
        <time>2026-08-14T10:48:32.540Z</time>
      </trkpt>
      <trkpt lat="45.83167" lon="6.74594">
        <ele>1659</ele>
        <time>2026-08-14T10:48:33.540Z</time>
      </trkpt>
      <trkpt lat="45.83168" lon="6.74595">
        <ele>1659</ele>
        <time>2026-08-14T10:48:34.540Z</time>
      </trkpt>
      <trkpt lat="45.83169" lon="6.74595">
        <ele>1659</ele>
        <time>2026-08-14T10:48:35.540Z</time>
      </trkpt>
      <trkpt lat="45.8317" lon="6.74596">
        <ele>1659</ele>
        <time>2026-08-14T10:48:36.540Z</time>
      </trkpt>
      <trkpt lat="45.83172" lon="6.74596">
        <ele>1659</ele>
        <time>2026-08-14T10:48:37.540Z</time>
      </trkpt>
      <trkpt lat="45.83172" lon="6.74596">
        <ele>1659</ele>
        <time>2026-08-14T10:48:38.540Z</time>
      </trkpt>
      <trkpt lat="45.83174" lon="6.74596">
        <ele>1660</ele>
        <time>2026-08-14T10:48:39.540Z</time>
      </trkpt>
      <trkpt lat="45.83175" lon="6.74596">
        <ele>1660</ele>
        <time>2026-08-14T10:48:40.540Z</time>
      </trkpt>
      <trkpt lat="45.83176" lon="6.74596">
        <ele>1660</ele>
        <time>2026-08-14T10:48:41.540Z</time>
      </trkpt>
      <trkpt lat="45.83177" lon="6.74596">
        <ele>1660</ele>
        <time>2026-08-14T10:48:42.540Z</time>
      </trkpt>
      <trkpt lat="45.83178" lon="6.74596">
        <ele>1660</ele>
        <time>2026-08-14T10:48:43.540Z</time>
      </trkpt>
      <trkpt lat="45.83179" lon="6.74595">
        <ele>1661</ele>
        <time>2026-08-14T10:48:44.540Z</time>
      </trkpt>
      <trkpt lat="45.83181" lon="6.74595">
        <ele>1661</ele>
        <time>2026-08-14T10:48:45.540Z</time>
      </trkpt>
      <trkpt lat="45.83182" lon="6.74595">
        <ele>1661</ele>
        <time>2026-08-14T10:48:46.540Z</time>
      </trkpt>
      <trkpt lat="45.83183" lon="6.74596">
        <ele>1662</ele>
        <time>2026-08-14T10:48:47.540Z</time>
      </trkpt>
      <trkpt lat="45.83184" lon="6.74596">
        <ele>1662</ele>
        <time>2026-08-14T10:48:48.540Z</time>
      </trkpt>
      <trkpt lat="45.83185" lon="6.74596">
        <ele>1662</ele>
        <time>2026-08-14T10:48:49.540Z</time>
      </trkpt>
      <trkpt lat="45.83186" lon="6.74596">
        <ele>1662</ele>
        <time>2026-08-14T10:48:50.540Z</time>
      </trkpt>
      <trkpt lat="45.83187" lon="6.74597">
        <ele>1662</ele>
        <time>2026-08-14T10:48:51.540Z</time>
      </trkpt>
      <trkpt lat="45.83188" lon="6.74597">
        <ele>1662</ele>
        <time>2026-08-14T10:48:52.540Z</time>
      </trkpt>
      <trkpt lat="45.83189" lon="6.74598">
        <ele>1662</ele>
        <time>2026-08-14T10:48:53.540Z</time>
      </trkpt>
      <trkpt lat="45.8319" lon="6.74598">
        <ele>1662</ele>
        <time>2026-08-14T10:48:54.540Z</time>
      </trkpt>
      <trkpt lat="45.83191" lon="6.74597">
        <ele>1663</ele>
        <time>2026-08-14T10:48:55.540Z</time>
      </trkpt>
      <trkpt lat="45.83192" lon="6.74597">
        <ele>1663</ele>
        <time>2026-08-14T10:48:56.540Z</time>
      </trkpt>
      <trkpt lat="45.83193" lon="6.74597">
        <ele>1664</ele>
        <time>2026-08-14T10:48:57.540Z</time>
      </trkpt>
      <trkpt lat="45.83194" lon="6.74597">
        <ele>1664</ele>
        <time>2026-08-14T10:48:58.540Z</time>
      </trkpt>
      <trkpt lat="45.83195" lon="6.74597">
        <ele>1664</ele>
        <time>2026-08-14T10:48:59.540Z</time>
      </trkpt>
      <trkpt lat="45.83197" lon="6.74596">
        <ele>1664</ele>
        <time>2026-08-14T10:49:00.540Z</time>
      </trkpt>
      <trkpt lat="45.83198" lon="6.74596">
        <ele>1665</ele>
        <time>2026-08-14T10:49:01.540Z</time>
      </trkpt>
      <trkpt lat="45.83199" lon="6.74595">
        <ele>1665</ele>
        <time>2026-08-14T10:49:02.540Z</time>
      </trkpt>
      <trkpt lat="45.832" lon="6.74595">
        <ele>1665</ele>
        <time>2026-08-14T10:49:03.540Z</time>
      </trkpt>
      <trkpt lat="45.83202" lon="6.74595">
        <ele>1665</ele>
        <time>2026-08-14T10:49:04.540Z</time>
      </trkpt>
      <trkpt lat="45.83203" lon="6.74596">
        <ele>1665</ele>
        <time>2026-08-14T10:49:05.540Z</time>
      </trkpt>
      <trkpt lat="45.83204" lon="6.74597">
        <ele>1665</ele>
        <time>2026-08-14T10:49:06.540Z</time>
      </trkpt>
      <trkpt lat="45.83205" lon="6.74597">
        <ele>1665</ele>
        <time>2026-08-14T10:49:07.540Z</time>
      </trkpt>
      <trkpt lat="45.83206" lon="6.74598">
        <ele>1665</ele>
        <time>2026-08-14T10:49:08.540Z</time>
      </trkpt>
      <trkpt lat="45.83207" lon="6.74599">
        <ele>1665</ele>
        <time>2026-08-14T10:49:09.540Z</time>
      </trkpt>
      <trkpt lat="45.83208" lon="6.74599">
        <ele>1665</ele>
        <time>2026-08-14T10:49:10.540Z</time>
      </trkpt>
      <trkpt lat="45.8321" lon="6.74598">
        <ele>1666</ele>
        <time>2026-08-14T10:49:11.540Z</time>
      </trkpt>
      <trkpt lat="45.83211" lon="6.74597">
        <ele>1666</ele>
        <time>2026-08-14T10:49:12.540Z</time>
      </trkpt>
      <trkpt lat="45.83213" lon="6.74596">
        <ele>1666</ele>
        <time>2026-08-14T10:49:13.540Z</time>
      </trkpt>
      <trkpt lat="45.83214" lon="6.74596">
        <ele>1667</ele>
        <time>2026-08-14T10:49:14.540Z</time>
      </trkpt>
      <trkpt lat="45.83215" lon="6.74596">
        <ele>1667</ele>
        <time>2026-08-14T10:49:15.540Z</time>
      </trkpt>
      <trkpt lat="45.83217" lon="6.74595">
        <ele>1668</ele>
        <time>2026-08-14T10:49:16.540Z</time>
      </trkpt>
      <trkpt lat="45.83218" lon="6.74596">
        <ele>1668</ele>
        <time>2026-08-14T10:49:17.540Z</time>
      </trkpt>
      <trkpt lat="45.8322" lon="6.74595">
        <ele>1668</ele>
        <time>2026-08-14T10:49:18.540Z</time>
      </trkpt>
      <trkpt lat="45.83221" lon="6.74595">
        <ele>1669</ele>
        <time>2026-08-14T10:49:19.540Z</time>
      </trkpt>
      <trkpt lat="45.83222" lon="6.74596">
        <ele>1669</ele>
        <time>2026-08-14T10:49:20.540Z</time>
      </trkpt>
      <trkpt lat="45.83224" lon="6.74597">
        <ele>1669</ele>
        <time>2026-08-14T10:49:21.540Z</time>
      </trkpt>
      <trkpt lat="45.83225" lon="6.74598">
        <ele>1669</ele>
        <time>2026-08-14T10:49:22.540Z</time>
      </trkpt>
      <trkpt lat="45.83226" lon="6.74598">
        <ele>1669</ele>
        <time>2026-08-14T10:49:23.540Z</time>
      </trkpt>
      <trkpt lat="45.83227" lon="6.74599">
        <ele>1669</ele>
        <time>2026-08-14T10:49:24.540Z</time>
      </trkpt>
      <trkpt lat="45.83228" lon="6.74599">
        <ele>1669</ele>
        <time>2026-08-14T10:49:25.540Z</time>
      </trkpt>
      <trkpt lat="45.8323" lon="6.74599">
        <ele>1669</ele>
        <time>2026-08-14T10:49:26.540Z</time>
      </trkpt>
      <trkpt lat="45.83231" lon="6.74599">
        <ele>1669</ele>
        <time>2026-08-14T10:49:27.540Z</time>
      </trkpt>
      <trkpt lat="45.83232" lon="6.746">
        <ele>1669</ele>
        <time>2026-08-14T10:49:28.540Z</time>
      </trkpt>
      <trkpt lat="45.83234" lon="6.74601">
        <ele>1670</ele>
        <time>2026-08-14T10:49:29.540Z</time>
      </trkpt>
      <trkpt lat="45.83235" lon="6.746">
        <ele>1670</ele>
        <time>2026-08-14T10:49:30.540Z</time>
      </trkpt>
      <trkpt lat="45.83236" lon="6.74599">
        <ele>1670</ele>
        <time>2026-08-14T10:49:31.540Z</time>
      </trkpt>
      <trkpt lat="45.83238" lon="6.74598">
        <ele>1670</ele>
        <time>2026-08-14T10:49:32.540Z</time>
      </trkpt>
      <trkpt lat="45.83239" lon="6.74598">
        <ele>1671</ele>
        <time>2026-08-14T10:49:33.540Z</time>
      </trkpt>
      <trkpt lat="45.8324" lon="6.74598">
        <ele>1671</ele>
        <time>2026-08-14T10:49:34.540Z</time>
      </trkpt>
      <trkpt lat="45.83241" lon="6.74599">
        <ele>1671</ele>
        <time>2026-08-14T10:49:35.540Z</time>
      </trkpt>
      <trkpt lat="45.83242" lon="6.74599">
        <ele>1671</ele>
        <time>2026-08-14T10:49:36.540Z</time>
      </trkpt>
      <trkpt lat="45.83244" lon="6.74599">
        <ele>1672</ele>
        <time>2026-08-14T10:49:37.540Z</time>
      </trkpt>
      <trkpt lat="45.83245" lon="6.74599">
        <ele>1672</ele>
        <time>2026-08-14T10:49:38.540Z</time>
      </trkpt>
      <trkpt lat="45.83247" lon="6.74599">
        <ele>1672</ele>
        <time>2026-08-14T10:49:39.540Z</time>
      </trkpt>
      <trkpt lat="45.83248" lon="6.74598">
        <ele>1672</ele>
        <time>2026-08-14T10:49:40.540Z</time>
      </trkpt>
      <trkpt lat="45.8325" lon="6.74598">
        <ele>1672</ele>
        <time>2026-08-14T10:49:41.540Z</time>
      </trkpt>
      <trkpt lat="45.83251" lon="6.74598">
        <ele>1673</ele>
        <time>2026-08-14T10:49:42.540Z</time>
      </trkpt>
      <trkpt lat="45.83253" lon="6.74599">
        <ele>1673</ele>
        <time>2026-08-14T10:49:43.540Z</time>
      </trkpt>
      <trkpt lat="45.83255" lon="6.74599">
        <ele>1673</ele>
        <time>2026-08-14T10:49:44.540Z</time>
      </trkpt>
      <trkpt lat="45.83256" lon="6.74599">
        <ele>1673</ele>
        <time>2026-08-14T10:49:45.540Z</time>
      </trkpt>
      <trkpt lat="45.83258" lon="6.746">
        <ele>1673</ele>
        <time>2026-08-14T10:49:46.540Z</time>
      </trkpt>
      <trkpt lat="45.83259" lon="6.74601">
        <ele>1673</ele>
        <time>2026-08-14T10:49:47.540Z</time>
      </trkpt>
      <trkpt lat="45.8326" lon="6.74602">
        <ele>1673</ele>
        <time>2026-08-14T10:49:48.540Z</time>
      </trkpt>
      <trkpt lat="45.83261" lon="6.74603">
        <ele>1673</ele>
        <time>2026-08-14T10:49:49.540Z</time>
      </trkpt>
      <trkpt lat="45.83263" lon="6.74603">
        <ele>1672</ele>
        <time>2026-08-14T10:49:50.540Z</time>
      </trkpt>
      <trkpt lat="45.83264" lon="6.74604">
        <ele>1672</ele>
        <time>2026-08-14T10:49:51.540Z</time>
      </trkpt>
      <trkpt lat="45.83265" lon="6.74604">
        <ele>1672</ele>
        <time>2026-08-14T10:49:52.540Z</time>
      </trkpt>
      <trkpt lat="45.83266" lon="6.74605">
        <ele>1672</ele>
        <time>2026-08-14T10:49:53.540Z</time>
      </trkpt>
      <trkpt lat="45.83267" lon="6.74605">
        <ele>1672</ele>
        <time>2026-08-14T10:49:54.540Z</time>
      </trkpt>
      <trkpt lat="45.83268" lon="6.74606">
        <ele>1672</ele>
        <time>2026-08-14T10:49:55.540Z</time>
      </trkpt>
      <trkpt lat="45.83269" lon="6.74606">
        <ele>1672</ele>
        <time>2026-08-14T10:49:56.540Z</time>
      </trkpt>
      <trkpt lat="45.8327" lon="6.74608">
        <ele>1672</ele>
        <time>2026-08-14T10:49:57.540Z</time>
      </trkpt>
      <trkpt lat="45.83272" lon="6.74609">
        <ele>1672</ele>
        <time>2026-08-14T10:49:58.540Z</time>
      </trkpt>
      <trkpt lat="45.83273" lon="6.7461">
        <ele>1673</ele>
        <time>2026-08-14T10:49:59.540Z</time>
      </trkpt>
      <trkpt lat="45.83274" lon="6.74611">
        <ele>1673</ele>
        <time>2026-08-14T10:50:00.540Z</time>
      </trkpt>
      <trkpt lat="45.83276" lon="6.74612">
        <ele>1674</ele>
        <time>2026-08-14T10:50:01.540Z</time>
      </trkpt>
      <trkpt lat="45.83277" lon="6.74612">
        <ele>1674</ele>
        <time>2026-08-14T10:50:02.540Z</time>
      </trkpt>
      <trkpt lat="45.83278" lon="6.74613">
        <ele>1674</ele>
        <time>2026-08-14T10:50:03.540Z</time>
      </trkpt>
      <trkpt lat="45.8328" lon="6.74613">
        <ele>1674</ele>
        <time>2026-08-14T10:50:04.540Z</time>
      </trkpt>
      <trkpt lat="45.83281" lon="6.74614">
        <ele>1673</ele>
        <time>2026-08-14T10:50:05.540Z</time>
      </trkpt>
      <trkpt lat="45.83283" lon="6.74614">
        <ele>1673</ele>
        <time>2026-08-14T10:50:06.540Z</time>
      </trkpt>
      <trkpt lat="45.83285" lon="6.74615">
        <ele>1673</ele>
        <time>2026-08-14T10:50:07.540Z</time>
      </trkpt>
      <trkpt lat="45.83286" lon="6.74615">
        <ele>1673</ele>
        <time>2026-08-14T10:50:08.540Z</time>
      </trkpt>
      <trkpt lat="45.83287" lon="6.74616">
        <ele>1673</ele>
        <time>2026-08-14T10:50:09.540Z</time>
      </trkpt>
      <trkpt lat="45.83289" lon="6.74616">
        <ele>1673</ele>
        <time>2026-08-14T10:50:10.540Z</time>
      </trkpt>
      <trkpt lat="45.8329" lon="6.74616">
        <ele>1674</ele>
        <time>2026-08-14T10:50:11.540Z</time>
      </trkpt>
      <trkpt lat="45.83292" lon="6.74617">
        <ele>1674</ele>
        <time>2026-08-14T10:50:12.540Z</time>
      </trkpt>
      <trkpt lat="45.83293" lon="6.74617">
        <ele>1674</ele>
        <time>2026-08-14T10:50:13.540Z</time>
      </trkpt>
      <trkpt lat="45.83295" lon="6.74618">
        <ele>1674</ele>
        <time>2026-08-14T10:50:14.540Z</time>
      </trkpt>
      <trkpt lat="45.83296" lon="6.74618">
        <ele>1674</ele>
        <time>2026-08-14T10:50:15.540Z</time>
      </trkpt>
      <trkpt lat="45.83297" lon="6.74618">
        <ele>1674</ele>
        <time>2026-08-14T10:50:16.540Z</time>
      </trkpt>
      <trkpt lat="45.83299" lon="6.74618">
        <ele>1675</ele>
        <time>2026-08-14T10:50:17.540Z</time>
      </trkpt>
      <trkpt lat="45.833" lon="6.74618">
        <ele>1675</ele>
        <time>2026-08-14T10:50:18.540Z</time>
      </trkpt>
      <trkpt lat="45.83301" lon="6.74619">
        <ele>1675</ele>
        <time>2026-08-14T10:50:19.540Z</time>
      </trkpt>
      <trkpt lat="45.83302" lon="6.74619">
        <ele>1675</ele>
        <time>2026-08-14T10:50:20.540Z</time>
      </trkpt>
      <trkpt lat="45.83304" lon="6.74619">
        <ele>1675</ele>
        <time>2026-08-14T10:50:21.540Z</time>
      </trkpt>
      <trkpt lat="45.83305" lon="6.7462">
        <ele>1675</ele>
        <time>2026-08-14T10:50:22.540Z</time>
      </trkpt>
      <trkpt lat="45.83307" lon="6.74621">
        <ele>1675</ele>
        <time>2026-08-14T10:50:23.540Z</time>
      </trkpt>
      <trkpt lat="45.83308" lon="6.74621">
        <ele>1675</ele>
        <time>2026-08-14T10:50:24.540Z</time>
      </trkpt>
      <trkpt lat="45.8331" lon="6.74621">
        <ele>1675</ele>
        <time>2026-08-14T10:50:25.540Z</time>
      </trkpt>
      <trkpt lat="45.83311" lon="6.74621">
        <ele>1674</ele>
        <time>2026-08-14T10:50:26.540Z</time>
      </trkpt>
      <trkpt lat="45.83313" lon="6.7462">
        <ele>1674</ele>
        <time>2026-08-14T10:50:27.540Z</time>
      </trkpt>
      <trkpt lat="45.83314" lon="6.7462">
        <ele>1675</ele>
        <time>2026-08-14T10:50:28.540Z</time>
      </trkpt>
      <trkpt lat="45.83316" lon="6.7462">
        <ele>1675</ele>
        <time>2026-08-14T10:50:29.540Z</time>
      </trkpt>
      <trkpt lat="45.83317" lon="6.74619">
        <ele>1675</ele>
        <time>2026-08-14T10:50:30.540Z</time>
      </trkpt>
      <trkpt lat="45.83318" lon="6.74619">
        <ele>1675</ele>
        <time>2026-08-14T10:50:31.540Z</time>
      </trkpt>
      <trkpt lat="45.8332" lon="6.74619">
        <ele>1676</ele>
        <time>2026-08-14T10:50:32.540Z</time>
      </trkpt>
      <trkpt lat="45.83321" lon="6.74619">
        <ele>1676</ele>
        <time>2026-08-14T10:50:33.540Z</time>
      </trkpt>
      <trkpt lat="45.83322" lon="6.74618">
        <ele>1676</ele>
        <time>2026-08-14T10:50:34.540Z</time>
      </trkpt>
      <trkpt lat="45.83324" lon="6.74619">
        <ele>1676</ele>
        <time>2026-08-14T10:50:35.540Z</time>
      </trkpt>
      <trkpt lat="45.83326" lon="6.7462">
        <ele>1676</ele>
        <time>2026-08-14T10:50:36.540Z</time>
      </trkpt>
      <trkpt lat="45.83327" lon="6.74621">
        <ele>1675</ele>
        <time>2026-08-14T10:50:37.540Z</time>
      </trkpt>
      <trkpt lat="45.83329" lon="6.74622">
        <ele>1675</ele>
        <time>2026-08-14T10:50:38.540Z</time>
      </trkpt>
      <trkpt lat="45.8333" lon="6.74624">
        <ele>1675</ele>
        <time>2026-08-14T10:50:39.540Z</time>
      </trkpt>
      <trkpt lat="45.83331" lon="6.74624">
        <ele>1674</ele>
        <time>2026-08-14T10:50:40.540Z</time>
      </trkpt>
      <trkpt lat="45.83332" lon="6.74624">
        <ele>1674</ele>
        <time>2026-08-14T10:50:41.540Z</time>
      </trkpt>
      <trkpt lat="45.83334" lon="6.74623">
        <ele>1674</ele>
        <time>2026-08-14T10:50:42.540Z</time>
      </trkpt>
      <trkpt lat="45.83335" lon="6.74623">
        <ele>1674</ele>
        <time>2026-08-14T10:50:43.540Z</time>
      </trkpt>
      <trkpt lat="45.83336" lon="6.74622">
        <ele>1674</ele>
        <time>2026-08-14T10:50:44.540Z</time>
      </trkpt>
      <trkpt lat="45.83338" lon="6.74622">
        <ele>1675</ele>
        <time>2026-08-14T10:50:45.540Z</time>
      </trkpt>
      <trkpt lat="45.83339" lon="6.74622">
        <ele>1675</ele>
        <time>2026-08-14T10:50:46.540Z</time>
      </trkpt>
      <trkpt lat="45.8334" lon="6.74623">
        <ele>1676</ele>
        <time>2026-08-14T10:50:47.540Z</time>
      </trkpt>
      <trkpt lat="45.83342" lon="6.74624">
        <ele>1676</ele>
        <time>2026-08-14T10:50:48.540Z</time>
      </trkpt>
      <trkpt lat="45.83343" lon="6.74625">
        <ele>1676</ele>
        <time>2026-08-14T10:50:49.540Z</time>
      </trkpt>
      <trkpt lat="45.83344" lon="6.74626">
        <ele>1676</ele>
        <time>2026-08-14T10:50:50.540Z</time>
      </trkpt>
      <trkpt lat="45.83345" lon="6.74626">
        <ele>1676</ele>
        <time>2026-08-14T10:50:51.540Z</time>
      </trkpt>
      <trkpt lat="45.83347" lon="6.74627">
        <ele>1677</ele>
        <time>2026-08-14T10:50:52.540Z</time>
      </trkpt>
      <trkpt lat="45.83348" lon="6.74627">
        <ele>1677</ele>
        <time>2026-08-14T10:50:53.540Z</time>
      </trkpt>
      <trkpt lat="45.83349" lon="6.74627">
        <ele>1677</ele>
        <time>2026-08-14T10:50:54.540Z</time>
      </trkpt>
      <trkpt lat="45.8335" lon="6.74627">
        <ele>1678</ele>
        <time>2026-08-14T10:50:55.540Z</time>
      </trkpt>
      <trkpt lat="45.83352" lon="6.74626">
        <ele>1679</ele>
        <time>2026-08-14T10:50:56.540Z</time>
      </trkpt>
      <trkpt lat="45.83354" lon="6.74627">
        <ele>1679</ele>
        <time>2026-08-14T10:50:57.540Z</time>
      </trkpt>
      <trkpt lat="45.83355" lon="6.74628">
        <ele>1679</ele>
        <time>2026-08-14T10:50:58.540Z</time>
      </trkpt>
      <trkpt lat="45.83357" lon="6.74629">
        <ele>1679</ele>
        <time>2026-08-14T10:50:59.540Z</time>
      </trkpt>
      <trkpt lat="45.83359" lon="6.74629">
        <ele>1680</ele>
        <time>2026-08-14T10:51:00.540Z</time>
      </trkpt>
      <trkpt lat="45.83361" lon="6.74631">
        <ele>1680</ele>
        <time>2026-08-14T10:51:01.540Z</time>
      </trkpt>
      <trkpt lat="45.83362" lon="6.74631">
        <ele>1680</ele>
        <time>2026-08-14T10:51:02.540Z</time>
      </trkpt>
      <trkpt lat="45.83364" lon="6.74632">
        <ele>1680</ele>
        <time>2026-08-14T10:51:03.540Z</time>
      </trkpt>
      <trkpt lat="45.83366" lon="6.74633">
        <ele>1679</ele>
        <time>2026-08-14T10:51:04.540Z</time>
      </trkpt>
      <trkpt lat="45.83368" lon="6.74633">
        <ele>1679</ele>
        <time>2026-08-14T10:51:05.540Z</time>
      </trkpt>
      <trkpt lat="45.8337" lon="6.74633">
        <ele>1680</ele>
        <time>2026-08-14T10:51:06.540Z</time>
      </trkpt>
      <trkpt lat="45.83372" lon="6.74634">
        <ele>1680</ele>
        <time>2026-08-14T10:51:07.540Z</time>
      </trkpt>
      <trkpt lat="45.83374" lon="6.74634">
        <ele>1680</ele>
        <time>2026-08-14T10:51:08.540Z</time>
      </trkpt>
      <trkpt lat="45.83376" lon="6.74635">
        <ele>1680</ele>
        <time>2026-08-14T10:51:09.540Z</time>
      </trkpt>
      <trkpt lat="45.83377" lon="6.74636">
        <ele>1680</ele>
        <time>2026-08-14T10:51:10.540Z</time>
      </trkpt>
      <trkpt lat="45.83379" lon="6.74638">
        <ele>1681</ele>
        <time>2026-08-14T10:51:11.540Z</time>
      </trkpt>
      <trkpt lat="45.83381" lon="6.74639">
        <ele>1681</ele>
        <time>2026-08-14T10:51:12.540Z</time>
      </trkpt>
      <trkpt lat="45.83382" lon="6.7464">
        <ele>1681</ele>
        <time>2026-08-14T10:51:13.540Z</time>
      </trkpt>
      <trkpt lat="45.83384" lon="6.74641">
        <ele>1681</ele>
        <time>2026-08-14T10:51:14.540Z</time>
      </trkpt>
      <trkpt lat="45.83385" lon="6.74642">
        <ele>1681</ele>
        <time>2026-08-14T10:51:15.540Z</time>
      </trkpt>
      <trkpt lat="45.83387" lon="6.74643">
        <ele>1681</ele>
        <time>2026-08-14T10:51:16.540Z</time>
      </trkpt>
      <trkpt lat="45.83388" lon="6.74644">
        <ele>1681</ele>
        <time>2026-08-14T10:51:17.540Z</time>
      </trkpt>
      <trkpt lat="45.83389" lon="6.74644">
        <ele>1681</ele>
        <time>2026-08-14T10:51:18.540Z</time>
      </trkpt>
      <trkpt lat="45.8339" lon="6.74645">
        <ele>1681</ele>
        <time>2026-08-14T10:51:19.540Z</time>
      </trkpt>
      <trkpt lat="45.83391" lon="6.74646">
        <ele>1682</ele>
        <time>2026-08-14T10:51:20.540Z</time>
      </trkpt>
      <trkpt lat="45.83392" lon="6.74647">
        <ele>1682</ele>
        <time>2026-08-14T10:51:21.540Z</time>
      </trkpt>
      <trkpt lat="45.83393" lon="6.74648">
        <ele>1682</ele>
        <time>2026-08-14T10:51:22.540Z</time>
      </trkpt>
      <trkpt lat="45.83394" lon="6.74649">
        <ele>1682</ele>
        <time>2026-08-14T10:51:23.540Z</time>
      </trkpt>
      <trkpt lat="45.83395" lon="6.74648">
        <ele>1683</ele>
        <time>2026-08-14T10:51:24.540Z</time>
      </trkpt>
      <trkpt lat="45.83396" lon="6.74649">
        <ele>1683</ele>
        <time>2026-08-14T10:51:25.540Z</time>
      </trkpt>
      <trkpt lat="45.83396" lon="6.74649">
        <ele>1684</ele>
        <time>2026-08-14T10:51:26.540Z</time>
      </trkpt>
      <trkpt lat="45.83398" lon="6.7465">
        <ele>1684</ele>
        <time>2026-08-14T10:51:27.540Z</time>
      </trkpt>
      <trkpt lat="45.83398" lon="6.74651">
        <ele>1684</ele>
        <time>2026-08-14T10:51:28.540Z</time>
      </trkpt>
      <trkpt lat="45.83399" lon="6.74652">
        <ele>1685</ele>
        <time>2026-08-14T10:51:29.540Z</time>
      </trkpt>
      <trkpt lat="45.834" lon="6.74653">
        <ele>1685</ele>
        <time>2026-08-14T10:51:30.540Z</time>
      </trkpt>
      <trkpt lat="45.83402" lon="6.74653">
        <ele>1685</ele>
        <time>2026-08-14T10:51:31.540Z</time>
      </trkpt>
      <trkpt lat="45.83403" lon="6.74654">
        <ele>1685</ele>
        <time>2026-08-14T10:51:32.540Z</time>
      </trkpt>
      <trkpt lat="45.83406" lon="6.74655">
        <ele>1685</ele>
        <time>2026-08-14T10:51:33.540Z</time>
      </trkpt>
      <trkpt lat="45.83408" lon="6.74656">
        <ele>1685</ele>
        <time>2026-08-14T10:51:34.540Z</time>
      </trkpt>
      <trkpt lat="45.83409" lon="6.74657">
        <ele>1685</ele>
        <time>2026-08-14T10:51:35.540Z</time>
      </trkpt>
      <trkpt lat="45.8341" lon="6.74658">
        <ele>1686</ele>
        <time>2026-08-14T10:51:36.540Z</time>
      </trkpt>
      <trkpt lat="45.83412" lon="6.74659">
        <ele>1686</ele>
        <time>2026-08-14T10:51:37.540Z</time>
      </trkpt>
      <trkpt lat="45.83413" lon="6.7466">
        <ele>1686</ele>
        <time>2026-08-14T10:51:38.540Z</time>
      </trkpt>
      <trkpt lat="45.83415" lon="6.74661">
        <ele>1686</ele>
        <time>2026-08-14T10:51:39.540Z</time>
      </trkpt>
      <trkpt lat="45.83416" lon="6.74662">
        <ele>1685</ele>
        <time>2026-08-14T10:51:40.540Z</time>
      </trkpt>
      <trkpt lat="45.83417" lon="6.74663">
        <ele>1685</ele>
        <time>2026-08-14T10:51:41.540Z</time>
      </trkpt>
      <trkpt lat="45.83418" lon="6.74664">
        <ele>1685</ele>
        <time>2026-08-14T10:51:42.540Z</time>
      </trkpt>
      <trkpt lat="45.8342" lon="6.74664">
        <ele>1686</ele>
        <time>2026-08-14T10:51:43.540Z</time>
      </trkpt>
      <trkpt lat="45.83421" lon="6.74664">
        <ele>1686</ele>
        <time>2026-08-14T10:51:44.540Z</time>
      </trkpt>
      <trkpt lat="45.83422" lon="6.74664">
        <ele>1687</ele>
        <time>2026-08-14T10:51:45.540Z</time>
      </trkpt>
      <trkpt lat="45.83423" lon="6.74664">
        <ele>1687</ele>
        <time>2026-08-14T10:51:46.540Z</time>
      </trkpt>
      <trkpt lat="45.83424" lon="6.74665">
        <ele>1687</ele>
        <time>2026-08-14T10:51:47.540Z</time>
      </trkpt>
      <trkpt lat="45.83425" lon="6.74666">
        <ele>1688</ele>
        <time>2026-08-14T10:51:48.540Z</time>
      </trkpt>
      <trkpt lat="45.83426" lon="6.74667">
        <ele>1689</ele>
        <time>2026-08-14T10:51:49.540Z</time>
      </trkpt>
      <trkpt lat="45.83427" lon="6.74668">
        <ele>1689</ele>
        <time>2026-08-14T10:51:50.540Z</time>
      </trkpt>
      <trkpt lat="45.83428" lon="6.74669">
        <ele>1689</ele>
        <time>2026-08-14T10:51:51.540Z</time>
      </trkpt>
      <trkpt lat="45.8343" lon="6.74669">
        <ele>1690</ele>
        <time>2026-08-14T10:51:52.540Z</time>
      </trkpt>
      <trkpt lat="45.83431" lon="6.7467">
        <ele>1690</ele>
        <time>2026-08-14T10:51:53.540Z</time>
      </trkpt>
      <trkpt lat="45.83432" lon="6.7467">
        <ele>1690</ele>
        <time>2026-08-14T10:51:54.540Z</time>
      </trkpt>
      <trkpt lat="45.83433" lon="6.74671">
        <ele>1690</ele>
        <time>2026-08-14T10:51:55.540Z</time>
      </trkpt>
      <trkpt lat="45.83435" lon="6.74672">
        <ele>1690</ele>
        <time>2026-08-14T10:51:56.540Z</time>
      </trkpt>
      <trkpt lat="45.83436" lon="6.74674">
        <ele>1691</ele>
        <time>2026-08-14T10:51:57.540Z</time>
      </trkpt>
      <trkpt lat="45.83437" lon="6.74675">
        <ele>1691</ele>
        <time>2026-08-14T10:51:58.540Z</time>
      </trkpt>
      <trkpt lat="45.83438" lon="6.74677">
        <ele>1691</ele>
        <time>2026-08-14T10:51:59.540Z</time>
      </trkpt>
      <trkpt lat="45.83439" lon="6.74678">
        <ele>1691</ele>
        <time>2026-08-14T10:52:00.540Z</time>
      </trkpt>
      <trkpt lat="45.8344" lon="6.74679">
        <ele>1691</ele>
        <time>2026-08-14T10:52:01.540Z</time>
      </trkpt>
      <trkpt lat="45.83441" lon="6.7468">
        <ele>1691</ele>
        <time>2026-08-14T10:52:02.540Z</time>
      </trkpt>
      <trkpt lat="45.83443" lon="6.74681">
        <ele>1691</ele>
        <time>2026-08-14T10:52:03.540Z</time>
      </trkpt>
      <trkpt lat="45.83445" lon="6.74681">
        <ele>1691</ele>
        <time>2026-08-14T10:52:04.540Z</time>
      </trkpt>
      <trkpt lat="45.83447" lon="6.74682">
        <ele>1692</ele>
        <time>2026-08-14T10:52:05.540Z</time>
      </trkpt>
      <trkpt lat="45.83448" lon="6.74682">
        <ele>1692</ele>
        <time>2026-08-14T10:52:06.540Z</time>
      </trkpt>
      <trkpt lat="45.83449" lon="6.74684">
        <ele>1692</ele>
        <time>2026-08-14T10:52:07.540Z</time>
      </trkpt>
      <trkpt lat="45.8345" lon="6.74686">
        <ele>1692</ele>
        <time>2026-08-14T10:52:08.540Z</time>
      </trkpt>
      <trkpt lat="45.8345" lon="6.74687">
        <ele>1691</ele>
        <time>2026-08-14T10:52:09.540Z</time>
      </trkpt>
      <trkpt lat="45.83452" lon="6.74688">
        <ele>1691</ele>
        <time>2026-08-14T10:52:10.540Z</time>
      </trkpt>
      <trkpt lat="45.83453" lon="6.74689">
        <ele>1691</ele>
        <time>2026-08-14T10:52:11.540Z</time>
      </trkpt>
      <trkpt lat="45.83455" lon="6.74691">
        <ele>1691</ele>
        <time>2026-08-14T10:52:12.540Z</time>
      </trkpt>
      <trkpt lat="45.83456" lon="6.74692">
        <ele>1691</ele>
        <time>2026-08-14T10:52:13.540Z</time>
      </trkpt>
      <trkpt lat="45.83457" lon="6.74693">
        <ele>1691</ele>
        <time>2026-08-14T10:52:14.540Z</time>
      </trkpt>
      <trkpt lat="45.83459" lon="6.74694">
        <ele>1691</ele>
        <time>2026-08-14T10:52:15.540Z</time>
      </trkpt>
      <trkpt lat="45.8346" lon="6.74696">
        <ele>1691</ele>
        <time>2026-08-14T10:52:16.540Z</time>
      </trkpt>
      <trkpt lat="45.83461" lon="6.74696">
        <ele>1692</ele>
        <time>2026-08-14T10:52:17.540Z</time>
      </trkpt>
      <trkpt lat="45.83462" lon="6.74697">
        <ele>1692</ele>
        <time>2026-08-14T10:52:18.540Z</time>
      </trkpt>
      <trkpt lat="45.83463" lon="6.74698">
        <ele>1693</ele>
        <time>2026-08-14T10:52:19.540Z</time>
      </trkpt>
      <trkpt lat="45.83465" lon="6.747">
        <ele>1693</ele>
        <time>2026-08-14T10:52:20.540Z</time>
      </trkpt>
      <trkpt lat="45.83466" lon="6.74701">
        <ele>1693</ele>
        <time>2026-08-14T10:52:21.540Z</time>
      </trkpt>
      <trkpt lat="45.83467" lon="6.74702">
        <ele>1694</ele>
        <time>2026-08-14T10:52:22.540Z</time>
      </trkpt>
      <trkpt lat="45.83468" lon="6.74703">
        <ele>1694</ele>
        <time>2026-08-14T10:52:23.540Z</time>
      </trkpt>
      <trkpt lat="45.83469" lon="6.74704">
        <ele>1694</ele>
        <time>2026-08-14T10:52:24.540Z</time>
      </trkpt>
      <trkpt lat="45.8347" lon="6.74706">
        <ele>1694</ele>
        <time>2026-08-14T10:52:25.540Z</time>
      </trkpt>
      <trkpt lat="45.8347" lon="6.74708">
        <ele>1694</ele>
        <time>2026-08-14T10:52:26.540Z</time>
      </trkpt>
      <trkpt lat="45.83471" lon="6.74709">
        <ele>1694</ele>
        <time>2026-08-14T10:52:27.540Z</time>
      </trkpt>
      <trkpt lat="45.83473" lon="6.74711">
        <ele>1694</ele>
        <time>2026-08-14T10:52:28.540Z</time>
      </trkpt>
      <trkpt lat="45.83473" lon="6.74712">
        <ele>1694</ele>
        <time>2026-08-14T10:52:29.540Z</time>
      </trkpt>
      <trkpt lat="45.83474" lon="6.74713">
        <ele>1694</ele>
        <time>2026-08-14T10:52:30.540Z</time>
      </trkpt>
      <trkpt lat="45.83476" lon="6.74715">
        <ele>1695</ele>
        <time>2026-08-14T10:52:31.540Z</time>
      </trkpt>
      <trkpt lat="45.83477" lon="6.74716">
        <ele>1695</ele>
        <time>2026-08-14T10:52:32.540Z</time>
      </trkpt>
      <trkpt lat="45.83478" lon="6.74718">
        <ele>1695</ele>
        <time>2026-08-14T10:52:33.540Z</time>
      </trkpt>
      <trkpt lat="45.83479" lon="6.7472">
        <ele>1695</ele>
        <time>2026-08-14T10:52:34.540Z</time>
      </trkpt>
      <trkpt lat="45.8348" lon="6.74721">
        <ele>1696</ele>
        <time>2026-08-14T10:52:35.540Z</time>
      </trkpt>
      <trkpt lat="45.83481" lon="6.74723">
        <ele>1696</ele>
        <time>2026-08-14T10:52:36.540Z</time>
      </trkpt>
      <trkpt lat="45.83482" lon="6.74725">
        <ele>1696</ele>
        <time>2026-08-14T10:52:37.540Z</time>
      </trkpt>
      <trkpt lat="45.83482" lon="6.74726">
        <ele>1696</ele>
        <time>2026-08-14T10:52:38.540Z</time>
      </trkpt>
      <trkpt lat="45.83483" lon="6.74728">
        <ele>1696</ele>
        <time>2026-08-14T10:52:39.540Z</time>
      </trkpt>
      <trkpt lat="45.83484" lon="6.74729">
        <ele>1696</ele>
        <time>2026-08-14T10:52:40.540Z</time>
      </trkpt>
      <trkpt lat="45.83484" lon="6.74731">
        <ele>1697</ele>
        <time>2026-08-14T10:52:41.540Z</time>
      </trkpt>
      <trkpt lat="45.83485" lon="6.74733">
        <ele>1697</ele>
        <time>2026-08-14T10:52:42.540Z</time>
      </trkpt>
      <trkpt lat="45.83485" lon="6.74735">
        <ele>1697</ele>
        <time>2026-08-14T10:52:43.540Z</time>
      </trkpt>
      <trkpt lat="45.83486" lon="6.74738">
        <ele>1698</ele>
        <time>2026-08-14T10:52:44.540Z</time>
      </trkpt>
      <trkpt lat="45.83486" lon="6.7474">
        <ele>1698</ele>
        <time>2026-08-14T10:52:45.540Z</time>
      </trkpt>
      <trkpt lat="45.83487" lon="6.74741">
        <ele>1698</ele>
        <time>2026-08-14T10:52:46.540Z</time>
      </trkpt>
      <trkpt lat="45.83487" lon="6.74743">
        <ele>1698</ele>
        <time>2026-08-14T10:52:47.540Z</time>
      </trkpt>
      <trkpt lat="45.83488" lon="6.74744">
        <ele>1699</ele>
        <time>2026-08-14T10:52:48.540Z</time>
      </trkpt>
      <trkpt lat="45.8349" lon="6.74746">
        <ele>1699</ele>
        <time>2026-08-14T10:52:49.540Z</time>
      </trkpt>
      <trkpt lat="45.83491" lon="6.74747">
        <ele>1699</ele>
        <time>2026-08-14T10:52:50.540Z</time>
      </trkpt>
      <trkpt lat="45.83492" lon="6.74749">
        <ele>1699</ele>
        <time>2026-08-14T10:52:51.540Z</time>
      </trkpt>
      <trkpt lat="45.83493" lon="6.74749">
        <ele>1699</ele>
        <time>2026-08-14T10:52:52.540Z</time>
      </trkpt>
      <trkpt lat="45.83494" lon="6.7475">
        <ele>1699</ele>
        <time>2026-08-14T10:52:53.540Z</time>
      </trkpt>
      <trkpt lat="45.83495" lon="6.74751">
        <ele>1700</ele>
        <time>2026-08-14T10:52:54.540Z</time>
      </trkpt>
      <trkpt lat="45.83496" lon="6.74753">
        <ele>1700</ele>
        <time>2026-08-14T10:52:55.540Z</time>
      </trkpt>
      <trkpt lat="45.83496" lon="6.74754">
        <ele>1701</ele>
        <time>2026-08-14T10:52:56.540Z</time>
      </trkpt>
      <trkpt lat="45.83497" lon="6.74756">
        <ele>1702</ele>
        <time>2026-08-14T10:52:57.540Z</time>
      </trkpt>
      <trkpt lat="45.83497" lon="6.74757">
        <ele>1702</ele>
        <time>2026-08-14T10:52:58.540Z</time>
      </trkpt>
      <trkpt lat="45.83498" lon="6.74759">
        <ele>1703</ele>
        <time>2026-08-14T10:52:59.540Z</time>
      </trkpt>
      <trkpt lat="45.83499" lon="6.7476">
        <ele>1703</ele>
        <time>2026-08-14T10:53:00.540Z</time>
      </trkpt>
      <trkpt lat="45.83499" lon="6.74762">
        <ele>1703</ele>
        <time>2026-08-14T10:53:01.540Z</time>
      </trkpt>
      <trkpt lat="45.835" lon="6.74763">
        <ele>1704</ele>
        <time>2026-08-14T10:53:02.540Z</time>
      </trkpt>
      <trkpt lat="45.835" lon="6.74765">
        <ele>1704</ele>
        <time>2026-08-14T10:53:03.540Z</time>
      </trkpt>
      <trkpt lat="45.83501" lon="6.74766">
        <ele>1704</ele>
        <time>2026-08-14T10:53:04.540Z</time>
      </trkpt>
      <trkpt lat="45.83501" lon="6.74767">
        <ele>1704</ele>
        <time>2026-08-14T10:53:05.540Z</time>
      </trkpt>
      <trkpt lat="45.83502" lon="6.74769">
        <ele>1705</ele>
        <time>2026-08-14T10:53:06.540Z</time>
      </trkpt>
      <trkpt lat="45.83503" lon="6.7477">
        <ele>1705</ele>
        <time>2026-08-14T10:53:07.540Z</time>
      </trkpt>
      <trkpt lat="45.83504" lon="6.74771">
        <ele>1705</ele>
        <time>2026-08-14T10:53:08.540Z</time>
      </trkpt>
      <trkpt lat="45.83504" lon="6.74772">
        <ele>1706</ele>
        <time>2026-08-14T10:53:09.540Z</time>
      </trkpt>
      <trkpt lat="45.83505" lon="6.74773">
        <ele>1706</ele>
        <time>2026-08-14T10:53:10.540Z</time>
      </trkpt>
      <trkpt lat="45.83507" lon="6.74774">
        <ele>1706</ele>
        <time>2026-08-14T10:53:11.540Z</time>
      </trkpt>
      <trkpt lat="45.83507" lon="6.74775">
        <ele>1706</ele>
        <time>2026-08-14T10:53:12.540Z</time>
      </trkpt>
      <trkpt lat="45.83508" lon="6.74777">
        <ele>1707</ele>
        <time>2026-08-14T10:53:13.540Z</time>
      </trkpt>
      <trkpt lat="45.83509" lon="6.74778">
        <ele>1707</ele>
        <time>2026-08-14T10:53:14.540Z</time>
      </trkpt>
      <trkpt lat="45.8351" lon="6.74779">
        <ele>1707</ele>
        <time>2026-08-14T10:53:15.540Z</time>
      </trkpt>
      <trkpt lat="45.83511" lon="6.7478">
        <ele>1708</ele>
        <time>2026-08-14T10:53:16.540Z</time>
      </trkpt>
      <trkpt lat="45.83512" lon="6.74781">
        <ele>1708</ele>
        <time>2026-08-14T10:53:17.540Z</time>
      </trkpt>
      <trkpt lat="45.83512" lon="6.74783">
        <ele>1709</ele>
        <time>2026-08-14T10:53:18.540Z</time>
      </trkpt>
      <trkpt lat="45.83513" lon="6.74784">
        <ele>1709</ele>
        <time>2026-08-14T10:53:19.540Z</time>
      </trkpt>
      <trkpt lat="45.83514" lon="6.74785">
        <ele>1710</ele>
        <time>2026-08-14T10:53:20.540Z</time>
      </trkpt>
      <trkpt lat="45.83515" lon="6.74786">
        <ele>1710</ele>
        <time>2026-08-14T10:53:21.540Z</time>
      </trkpt>
      <trkpt lat="45.83516" lon="6.74787">
        <ele>1711</ele>
        <time>2026-08-14T10:53:22.540Z</time>
      </trkpt>
      <trkpt lat="45.83517" lon="6.74788">
        <ele>1711</ele>
        <time>2026-08-14T10:53:23.540Z</time>
      </trkpt>
      <trkpt lat="45.83519" lon="6.74789">
        <ele>1711</ele>
        <time>2026-08-14T10:53:24.540Z</time>
      </trkpt>
      <trkpt lat="45.8352" lon="6.74791">
        <ele>1711</ele>
        <time>2026-08-14T10:53:25.540Z</time>
      </trkpt>
      <trkpt lat="45.8352" lon="6.74792">
        <ele>1712</ele>
        <time>2026-08-14T10:53:26.540Z</time>
      </trkpt>
      <trkpt lat="45.83521" lon="6.74794">
        <ele>1712</ele>
        <time>2026-08-14T10:53:27.540Z</time>
      </trkpt>
      <trkpt lat="45.83522" lon="6.74794">
        <ele>1712</ele>
        <time>2026-08-14T10:53:28.540Z</time>
      </trkpt>
      <trkpt lat="45.83523" lon="6.74795">
        <ele>1712</ele>
        <time>2026-08-14T10:53:29.540Z</time>
      </trkpt>
      <trkpt lat="45.83525" lon="6.74796">
        <ele>1712</ele>
        <time>2026-08-14T10:53:30.540Z</time>
      </trkpt>
      <trkpt lat="45.83525" lon="6.74797">
        <ele>1712</ele>
        <time>2026-08-14T10:53:31.540Z</time>
      </trkpt>
      <trkpt lat="45.83526" lon="6.74797">
        <ele>1713</ele>
        <time>2026-08-14T10:53:32.540Z</time>
      </trkpt>
      <trkpt lat="45.83528" lon="6.74797">
        <ele>1713</ele>
        <time>2026-08-14T10:53:33.540Z</time>
      </trkpt>
      <trkpt lat="45.83529" lon="6.74798">
        <ele>1713</ele>
        <time>2026-08-14T10:53:34.540Z</time>
      </trkpt>
      <trkpt lat="45.83531" lon="6.74799">
        <ele>1713</ele>
        <time>2026-08-14T10:53:35.540Z</time>
      </trkpt>
      <trkpt lat="45.83532" lon="6.74801">
        <ele>1713</ele>
        <time>2026-08-14T10:53:36.540Z</time>
      </trkpt>
      <trkpt lat="45.83533" lon="6.74802">
        <ele>1713</ele>
        <time>2026-08-14T10:53:37.540Z</time>
      </trkpt>
      <trkpt lat="45.83534" lon="6.74803">
        <ele>1713</ele>
        <time>2026-08-14T10:53:38.540Z</time>
      </trkpt>
      <trkpt lat="45.83535" lon="6.74803">
        <ele>1713</ele>
        <time>2026-08-14T10:53:39.540Z</time>
      </trkpt>
      <trkpt lat="45.83536" lon="6.74803">
        <ele>1713</ele>
        <time>2026-08-14T10:53:40.540Z</time>
      </trkpt>
      <trkpt lat="45.83538" lon="6.74804">
        <ele>1713</ele>
        <time>2026-08-14T10:53:41.540Z</time>
      </trkpt>
      <trkpt lat="45.83538" lon="6.74804">
        <ele>1713</ele>
        <time>2026-08-14T10:53:42.540Z</time>
      </trkpt>
      <trkpt lat="45.8354" lon="6.74803">
        <ele>1713</ele>
        <time>2026-08-14T10:53:43.540Z</time>
      </trkpt>
      <trkpt lat="45.83542" lon="6.74804">
        <ele>1714</ele>
        <time>2026-08-14T10:53:44.540Z</time>
      </trkpt>
      <trkpt lat="45.83544" lon="6.74805">
        <ele>1714</ele>
        <time>2026-08-14T10:53:45.540Z</time>
      </trkpt>
      <trkpt lat="45.83545" lon="6.74806">
        <ele>1714</ele>
        <time>2026-08-14T10:53:46.540Z</time>
      </trkpt>
      <trkpt lat="45.83546" lon="6.74807">
        <ele>1714</ele>
        <time>2026-08-14T10:53:47.540Z</time>
      </trkpt>
      <trkpt lat="45.83547" lon="6.74808">
        <ele>1714</ele>
        <time>2026-08-14T10:53:48.540Z</time>
      </trkpt>
      <trkpt lat="45.83548" lon="6.74809">
        <ele>1714</ele>
        <time>2026-08-14T10:53:49.540Z</time>
      </trkpt>
      <trkpt lat="45.8355" lon="6.7481">
        <ele>1714</ele>
        <time>2026-08-14T10:53:50.540Z</time>
      </trkpt>
      <trkpt lat="45.83551" lon="6.7481">
        <ele>1714</ele>
        <time>2026-08-14T10:53:51.540Z</time>
      </trkpt>
      <trkpt lat="45.83552" lon="6.74811">
        <ele>1714</ele>
        <time>2026-08-14T10:53:52.540Z</time>
      </trkpt>
      <trkpt lat="45.83553" lon="6.74812">
        <ele>1715</ele>
        <time>2026-08-14T10:53:53.540Z</time>
      </trkpt>
      <trkpt lat="45.83555" lon="6.74812">
        <ele>1715</ele>
        <time>2026-08-14T10:53:54.540Z</time>
      </trkpt>
      <trkpt lat="45.83556" lon="6.74813">
        <ele>1716</ele>
        <time>2026-08-14T10:53:55.540Z</time>
      </trkpt>
      <trkpt lat="45.83556" lon="6.74814">
        <ele>1716</ele>
        <time>2026-08-14T10:53:56.540Z</time>
      </trkpt>
      <trkpt lat="45.83557" lon="6.74815">
        <ele>1717</ele>
        <time>2026-08-14T10:53:57.540Z</time>
      </trkpt>
      <trkpt lat="45.83558" lon="6.74815">
        <ele>1717</ele>
        <time>2026-08-14T10:53:58.540Z</time>
      </trkpt>
      <trkpt lat="45.83559" lon="6.74815">
        <ele>1717</ele>
        <time>2026-08-14T10:53:59.540Z</time>
      </trkpt>
      <trkpt lat="45.8356" lon="6.74815">
        <ele>1717</ele>
        <time>2026-08-14T10:54:00.540Z</time>
      </trkpt>
      <trkpt lat="45.83561" lon="6.74816">
        <ele>1717</ele>
        <time>2026-08-14T10:54:01.540Z</time>
      </trkpt>
      <trkpt lat="45.83562" lon="6.74816">
        <ele>1717</ele>
        <time>2026-08-14T10:54:02.540Z</time>
      </trkpt>
      <trkpt lat="45.83563" lon="6.74817">
        <ele>1717</ele>
        <time>2026-08-14T10:54:03.540Z</time>
      </trkpt>
      <trkpt lat="45.83564" lon="6.74818">
        <ele>1718</ele>
        <time>2026-08-14T10:54:04.540Z</time>
      </trkpt>
      <trkpt lat="45.83565" lon="6.7482">
        <ele>1718</ele>
        <time>2026-08-14T10:54:05.540Z</time>
      </trkpt>
      <trkpt lat="45.83566" lon="6.74821">
        <ele>1718</ele>
        <time>2026-08-14T10:54:06.540Z</time>
      </trkpt>
      <trkpt lat="45.83568" lon="6.74822">
        <ele>1718</ele>
        <time>2026-08-14T10:54:07.540Z</time>
      </trkpt>
      <trkpt lat="45.83569" lon="6.74824">
        <ele>1718</ele>
        <time>2026-08-14T10:54:08.540Z</time>
      </trkpt>
      <trkpt lat="45.8357" lon="6.74826">
        <ele>1718</ele>
        <time>2026-08-14T10:54:09.540Z</time>
      </trkpt>
      <trkpt lat="45.83571" lon="6.74827">
        <ele>1717</ele>
        <time>2026-08-14T10:54:10.540Z</time>
      </trkpt>
      <trkpt lat="45.83572" lon="6.74829">
        <ele>1717</ele>
        <time>2026-08-14T10:54:11.540Z</time>
      </trkpt>
      <trkpt lat="45.83572" lon="6.7483">
        <ele>1716</ele>
        <time>2026-08-14T10:54:12.540Z</time>
      </trkpt>
      <trkpt lat="45.83573" lon="6.74831">
        <ele>1716</ele>
        <time>2026-08-14T10:54:13.540Z</time>
      </trkpt>
      <trkpt lat="45.83574" lon="6.74833">
        <ele>1716</ele>
        <time>2026-08-14T10:54:14.540Z</time>
      </trkpt>
      <trkpt lat="45.83574" lon="6.74835">
        <ele>1716</ele>
        <time>2026-08-14T10:54:15.540Z</time>
      </trkpt>
      <trkpt lat="45.83574" lon="6.74836">
        <ele>1715</ele>
        <time>2026-08-14T10:54:16.540Z</time>
      </trkpt>
      <trkpt lat="45.83576" lon="6.74838">
        <ele>1716</ele>
        <time>2026-08-14T10:54:17.540Z</time>
      </trkpt>
      <trkpt lat="45.83577" lon="6.74839">
        <ele>1716</ele>
        <time>2026-08-14T10:54:18.540Z</time>
      </trkpt>
      <trkpt lat="45.83578" lon="6.7484">
        <ele>1716</ele>
        <time>2026-08-14T10:54:19.540Z</time>
      </trkpt>
      <trkpt lat="45.8358" lon="6.74842">
        <ele>1716</ele>
        <time>2026-08-14T10:54:20.540Z</time>
      </trkpt>
      <trkpt lat="45.83581" lon="6.74844">
        <ele>1716</ele>
        <time>2026-08-14T10:54:21.540Z</time>
      </trkpt>
      <trkpt lat="45.83581" lon="6.74845">
        <ele>1716</ele>
        <time>2026-08-14T10:54:22.540Z</time>
      </trkpt>
      <trkpt lat="45.83582" lon="6.74847">
        <ele>1716</ele>
        <time>2026-08-14T10:54:23.540Z</time>
      </trkpt>
      <trkpt lat="45.83583" lon="6.74848">
        <ele>1716</ele>
        <time>2026-08-14T10:54:24.540Z</time>
      </trkpt>
      <trkpt lat="45.83584" lon="6.7485">
        <ele>1715</ele>
        <time>2026-08-14T10:54:25.540Z</time>
      </trkpt>
      <trkpt lat="45.83585" lon="6.74851">
        <ele>1715</ele>
        <time>2026-08-14T10:54:26.540Z</time>
      </trkpt>
      <trkpt lat="45.83585" lon="6.74853">
        <ele>1715</ele>
        <time>2026-08-14T10:54:27.540Z</time>
      </trkpt>
      <trkpt lat="45.83586" lon="6.74855">
        <ele>1715</ele>
        <time>2026-08-14T10:54:28.540Z</time>
      </trkpt>
      <trkpt lat="45.83587" lon="6.74856">
        <ele>1715</ele>
        <time>2026-08-14T10:54:29.540Z</time>
      </trkpt>
      <trkpt lat="45.83589" lon="6.74858">
        <ele>1715</ele>
        <time>2026-08-14T10:54:30.540Z</time>
      </trkpt>
      <trkpt lat="45.8359" lon="6.74859">
        <ele>1715</ele>
        <time>2026-08-14T10:54:31.540Z</time>
      </trkpt>
      <trkpt lat="45.83591" lon="6.74861">
        <ele>1715</ele>
        <time>2026-08-14T10:54:32.540Z</time>
      </trkpt>
      <trkpt lat="45.83593" lon="6.74862">
        <ele>1715</ele>
        <time>2026-08-14T10:54:33.540Z</time>
      </trkpt>
      <trkpt lat="45.83594" lon="6.74863">
        <ele>1715</ele>
        <time>2026-08-14T10:54:34.540Z</time>
      </trkpt>
      <trkpt lat="45.83596" lon="6.74864">
        <ele>1716</ele>
        <time>2026-08-14T10:54:35.540Z</time>
      </trkpt>
      <trkpt lat="45.83597" lon="6.74865">
        <ele>1716</ele>
        <time>2026-08-14T10:54:36.540Z</time>
      </trkpt>
      <trkpt lat="45.83599" lon="6.74866">
        <ele>1716</ele>
        <time>2026-08-14T10:54:37.540Z</time>
      </trkpt>
      <trkpt lat="45.836" lon="6.74867">
        <ele>1716</ele>
        <time>2026-08-14T10:54:38.540Z</time>
      </trkpt>
      <trkpt lat="45.83602" lon="6.74869">
        <ele>1716</ele>
        <time>2026-08-14T10:54:39.540Z</time>
      </trkpt>
      <trkpt lat="45.83603" lon="6.7487">
        <ele>1716</ele>
        <time>2026-08-14T10:54:40.540Z</time>
      </trkpt>
      <trkpt lat="45.83604" lon="6.74872">
        <ele>1716</ele>
        <time>2026-08-14T10:54:41.540Z</time>
      </trkpt>
      <trkpt lat="45.83606" lon="6.74873">
        <ele>1716</ele>
        <time>2026-08-14T10:54:42.540Z</time>
      </trkpt>
      <trkpt lat="45.83607" lon="6.74875">
        <ele>1716</ele>
        <time>2026-08-14T10:54:43.540Z</time>
      </trkpt>
      <trkpt lat="45.83609" lon="6.74876">
        <ele>1717</ele>
        <time>2026-08-14T10:54:44.540Z</time>
      </trkpt>
      <trkpt lat="45.8361" lon="6.74878">
        <ele>1717</ele>
        <time>2026-08-14T10:54:45.540Z</time>
      </trkpt>
      <trkpt lat="45.83611" lon="6.7488">
        <ele>1717</ele>
        <time>2026-08-14T10:54:46.540Z</time>
      </trkpt>
      <trkpt lat="45.83613" lon="6.74881">
        <ele>1717</ele>
        <time>2026-08-14T10:54:47.540Z</time>
      </trkpt>
      <trkpt lat="45.83614" lon="6.74883">
        <ele>1717</ele>
        <time>2026-08-14T10:54:48.540Z</time>
      </trkpt>
      <trkpt lat="45.83615" lon="6.74885">
        <ele>1717</ele>
        <time>2026-08-14T10:54:49.540Z</time>
      </trkpt>
      <trkpt lat="45.83616" lon="6.74887">
        <ele>1717</ele>
        <time>2026-08-14T10:54:50.540Z</time>
      </trkpt>
      <trkpt lat="45.83617" lon="6.74889">
        <ele>1717</ele>
        <time>2026-08-14T10:54:51.540Z</time>
      </trkpt>
      <trkpt lat="45.83618" lon="6.74891">
        <ele>1717</ele>
        <time>2026-08-14T10:54:52.540Z</time>
      </trkpt>
      <trkpt lat="45.83618" lon="6.74893">
        <ele>1717</ele>
        <time>2026-08-14T10:54:53.540Z</time>
      </trkpt>
      <trkpt lat="45.83619" lon="6.74895">
        <ele>1717</ele>
        <time>2026-08-14T10:54:54.540Z</time>
      </trkpt>
      <trkpt lat="45.8362" lon="6.74898">
        <ele>1717</ele>
        <time>2026-08-14T10:54:55.540Z</time>
      </trkpt>
      <trkpt lat="45.83621" lon="6.749">
        <ele>1717</ele>
        <time>2026-08-14T10:54:56.540Z</time>
      </trkpt>
      <trkpt lat="45.83621" lon="6.74903">
        <ele>1717</ele>
        <time>2026-08-14T10:54:57.540Z</time>
      </trkpt>
      <trkpt lat="45.83622" lon="6.74905">
        <ele>1717</ele>
        <time>2026-08-14T10:54:58.540Z</time>
      </trkpt>
      <trkpt lat="45.83622" lon="6.74908">
        <ele>1717</ele>
        <time>2026-08-14T10:54:59.540Z</time>
      </trkpt>
      <trkpt lat="45.83623" lon="6.7491">
        <ele>1717</ele>
        <time>2026-08-14T10:55:00.540Z</time>
      </trkpt>
      <trkpt lat="45.83623" lon="6.74913">
        <ele>1717</ele>
        <time>2026-08-14T10:55:01.540Z</time>
      </trkpt>
      <trkpt lat="45.83623" lon="6.74915">
        <ele>1717</ele>
        <time>2026-08-14T10:55:02.540Z</time>
      </trkpt>
      <trkpt lat="45.83623" lon="6.74917">
        <ele>1717</ele>
        <time>2026-08-14T10:55:03.540Z</time>
      </trkpt>
      <trkpt lat="45.83623" lon="6.74918">
        <ele>1717</ele>
        <time>2026-08-14T10:55:04.540Z</time>
      </trkpt>
      <trkpt lat="45.83623" lon="6.7492">
        <ele>1717</ele>
        <time>2026-08-14T10:55:05.540Z</time>
      </trkpt>
      <trkpt lat="45.83622" lon="6.74922">
        <ele>1717</ele>
        <time>2026-08-14T10:55:06.540Z</time>
      </trkpt>
      <trkpt lat="45.83623" lon="6.74923">
        <ele>1717</ele>
        <time>2026-08-14T10:55:07.540Z</time>
      </trkpt>
      <trkpt lat="45.83623" lon="6.74925">
        <ele>1718</ele>
        <time>2026-08-14T10:55:08.540Z</time>
      </trkpt>
      <trkpt lat="45.83623" lon="6.74927">
        <ele>1718</ele>
        <time>2026-08-14T10:55:09.540Z</time>
      </trkpt>
      <trkpt lat="45.83623" lon="6.74929">
        <ele>1718</ele>
        <time>2026-08-14T10:55:10.540Z</time>
      </trkpt>
      <trkpt lat="45.83622" lon="6.7493">
        <ele>1718</ele>
        <time>2026-08-14T10:55:11.540Z</time>
      </trkpt>
      <trkpt lat="45.83621" lon="6.74932">
        <ele>1718</ele>
        <time>2026-08-14T10:55:12.541Z</time>
      </trkpt>
      <trkpt lat="45.83621" lon="6.74934">
        <ele>1719</ele>
        <time>2026-08-14T10:55:13.540Z</time>
      </trkpt>
      <trkpt lat="45.8362" lon="6.74935">
        <ele>1719</ele>
        <time>2026-08-14T10:55:14.540Z</time>
      </trkpt>
      <trkpt lat="45.8362" lon="6.74937">
        <ele>1719</ele>
        <time>2026-08-14T10:55:15.540Z</time>
      </trkpt>
      <trkpt lat="45.83619" lon="6.74939">
        <ele>1719</ele>
        <time>2026-08-14T10:55:16.540Z</time>
      </trkpt>
      <trkpt lat="45.83618" lon="6.7494">
        <ele>1719</ele>
        <time>2026-08-14T10:55:17.540Z</time>
      </trkpt>
      <trkpt lat="45.83617" lon="6.74941">
        <ele>1719</ele>
        <time>2026-08-14T10:55:18.540Z</time>
      </trkpt>
      <trkpt lat="45.83616" lon="6.74943">
        <ele>1719</ele>
        <time>2026-08-14T10:55:19.540Z</time>
      </trkpt>
      <trkpt lat="45.83615" lon="6.74944">
        <ele>1719</ele>
        <time>2026-08-14T10:55:20.540Z</time>
      </trkpt>
      <trkpt lat="45.83614" lon="6.74946">
        <ele>1719</ele>
        <time>2026-08-14T10:55:21.540Z</time>
      </trkpt>
      <trkpt lat="45.83613" lon="6.74947">
        <ele>1720</ele>
        <time>2026-08-14T10:55:22.540Z</time>
      </trkpt>
      <trkpt lat="45.83612" lon="6.74948">
        <ele>1720</ele>
        <time>2026-08-14T10:55:23.540Z</time>
      </trkpt>
      <trkpt lat="45.83611" lon="6.74949">
        <ele>1720</ele>
        <time>2026-08-14T10:55:24.540Z</time>
      </trkpt>
      <trkpt lat="45.8361" lon="6.74951">
        <ele>1720</ele>
        <time>2026-08-14T10:55:25.540Z</time>
      </trkpt>
      <trkpt lat="45.83609" lon="6.74953">
        <ele>1720</ele>
        <time>2026-08-14T10:55:26.540Z</time>
      </trkpt>
      <trkpt lat="45.83608" lon="6.74955">
        <ele>1720</ele>
        <time>2026-08-14T10:55:27.540Z</time>
      </trkpt>
      <trkpt lat="45.83607" lon="6.74957">
        <ele>1720</ele>
        <time>2026-08-14T10:55:28.540Z</time>
      </trkpt>
      <trkpt lat="45.83606" lon="6.74958">
        <ele>1720</ele>
        <time>2026-08-14T10:55:29.540Z</time>
      </trkpt>
      <trkpt lat="45.83606" lon="6.7496">
        <ele>1719</ele>
        <time>2026-08-14T10:55:30.540Z</time>
      </trkpt>
      <trkpt lat="45.83605" lon="6.74962">
        <ele>1720</ele>
        <time>2026-08-14T10:55:31.540Z</time>
      </trkpt>
      <trkpt lat="45.83604" lon="6.74964">
        <ele>1720</ele>
        <time>2026-08-14T10:55:32.540Z</time>
      </trkpt>
      <trkpt lat="45.83604" lon="6.74965">
        <ele>1720</ele>
        <time>2026-08-14T10:55:33.540Z</time>
      </trkpt>
      <trkpt lat="45.83603" lon="6.74967">
        <ele>1721</ele>
        <time>2026-08-14T10:55:34.540Z</time>
      </trkpt>
      <trkpt lat="45.83603" lon="6.74969">
        <ele>1721</ele>
        <time>2026-08-14T10:55:35.540Z</time>
      </trkpt>
      <trkpt lat="45.83602" lon="6.74971">
        <ele>1721</ele>
        <time>2026-08-14T10:55:36.540Z</time>
      </trkpt>
      <trkpt lat="45.83601" lon="6.74972">
        <ele>1721</ele>
        <time>2026-08-14T10:55:37.540Z</time>
      </trkpt>
      <trkpt lat="45.83601" lon="6.74974">
        <ele>1722</ele>
        <time>2026-08-14T10:55:38.540Z</time>
      </trkpt>
      <trkpt lat="45.836" lon="6.74976">
        <ele>1722</ele>
        <time>2026-08-14T10:55:39.540Z</time>
      </trkpt>
      <trkpt lat="45.83599" lon="6.74978">
        <ele>1722</ele>
        <time>2026-08-14T10:55:40.540Z</time>
      </trkpt>
      <trkpt lat="45.83598" lon="6.7498">
        <ele>1722</ele>
        <time>2026-08-14T10:55:41.540Z</time>
      </trkpt>
      <trkpt lat="45.83597" lon="6.74982">
        <ele>1722</ele>
        <time>2026-08-14T10:55:42.540Z</time>
      </trkpt>
      <trkpt lat="45.83596" lon="6.74984">
        <ele>1723</ele>
        <time>2026-08-14T10:55:43.540Z</time>
      </trkpt>
      <trkpt lat="45.83596" lon="6.74985">
        <ele>1723</ele>
        <time>2026-08-14T10:55:44.540Z</time>
      </trkpt>
      <trkpt lat="45.83595" lon="6.74987">
        <ele>1723</ele>
        <time>2026-08-14T10:55:45.540Z</time>
      </trkpt>
      <trkpt lat="45.83595" lon="6.74988">
        <ele>1723</ele>
        <time>2026-08-14T10:55:46.540Z</time>
      </trkpt>
      <trkpt lat="45.83594" lon="6.7499">
        <ele>1724</ele>
        <time>2026-08-14T10:55:47.540Z</time>
      </trkpt>
      <trkpt lat="45.83594" lon="6.74992">
        <ele>1724</ele>
        <time>2026-08-14T10:55:48.540Z</time>
      </trkpt>
      <trkpt lat="45.83593" lon="6.74994">
        <ele>1725</ele>
        <time>2026-08-14T10:55:49.540Z</time>
      </trkpt>
      <trkpt lat="45.83593" lon="6.74995">
        <ele>1725</ele>
        <time>2026-08-14T10:55:50.540Z</time>
      </trkpt>
      <trkpt lat="45.83592" lon="6.74996">
        <ele>1725</ele>
        <time>2026-08-14T10:55:51.540Z</time>
      </trkpt>
      <trkpt lat="45.83591" lon="6.74998">
        <ele>1725</ele>
        <time>2026-08-14T10:55:52.540Z</time>
      </trkpt>
      <trkpt lat="45.8359" lon="6.74999">
        <ele>1725</ele>
        <time>2026-08-14T10:55:53.540Z</time>
      </trkpt>
      <trkpt lat="45.8359" lon="6.75001">
        <ele>1725</ele>
        <time>2026-08-14T10:55:54.540Z</time>
      </trkpt>
      <trkpt lat="45.83589" lon="6.75003">
        <ele>1725</ele>
        <time>2026-08-14T10:55:55.540Z</time>
      </trkpt>
      <trkpt lat="45.83588" lon="6.75004">
        <ele>1725</ele>
        <time>2026-08-14T10:55:56.540Z</time>
      </trkpt>
      <trkpt lat="45.83587" lon="6.75006">
        <ele>1725</ele>
        <time>2026-08-14T10:55:57.540Z</time>
      </trkpt>
      <trkpt lat="45.83586" lon="6.75007">
        <ele>1725</ele>
        <time>2026-08-14T10:55:58.540Z</time>
      </trkpt>
      <trkpt lat="45.83585" lon="6.75008">
        <ele>1725</ele>
        <time>2026-08-14T10:55:59.540Z</time>
      </trkpt>
      <trkpt lat="45.83585" lon="6.75009">
        <ele>1725</ele>
        <time>2026-08-14T10:56:00.540Z</time>
      </trkpt>
      <trkpt lat="45.83584" lon="6.75011">
        <ele>1725</ele>
        <time>2026-08-14T10:56:01.540Z</time>
      </trkpt>
      <trkpt lat="45.83583" lon="6.75012">
        <ele>1725</ele>
        <time>2026-08-14T10:56:02.540Z</time>
      </trkpt>
      <trkpt lat="45.83582" lon="6.75013">
        <ele>1725</ele>
        <time>2026-08-14T10:56:03.540Z</time>
      </trkpt>
      <trkpt lat="45.83581" lon="6.75015">
        <ele>1725</ele>
        <time>2026-08-14T10:56:04.540Z</time>
      </trkpt>
      <trkpt lat="45.83579" lon="6.75016">
        <ele>1725</ele>
        <time>2026-08-14T10:56:05.540Z</time>
      </trkpt>
      <trkpt lat="45.83578" lon="6.75018">
        <ele>1725</ele>
        <time>2026-08-14T10:56:06.540Z</time>
      </trkpt>
      <trkpt lat="45.83577" lon="6.7502">
        <ele>1725</ele>
        <time>2026-08-14T10:56:07.540Z</time>
      </trkpt>
      <trkpt lat="45.83575" lon="6.75022">
        <ele>1726</ele>
        <time>2026-08-14T10:56:08.540Z</time>
      </trkpt>
      <trkpt lat="45.83574" lon="6.75024">
        <ele>1726</ele>
        <time>2026-08-14T10:56:09.540Z</time>
      </trkpt>
      <trkpt lat="45.83572" lon="6.75026">
        <ele>1726</ele>
        <time>2026-08-14T10:56:10.540Z</time>
      </trkpt>
      <trkpt lat="45.83571" lon="6.75027">
        <ele>1727</ele>
        <time>2026-08-14T10:56:11.540Z</time>
      </trkpt>
      <trkpt lat="45.83569" lon="6.75029">
        <ele>1727</ele>
        <time>2026-08-14T10:56:12.540Z</time>
      </trkpt>
      <trkpt lat="45.83568" lon="6.75031">
        <ele>1727</ele>
        <time>2026-08-14T10:56:13.540Z</time>
      </trkpt>
      <trkpt lat="45.83567" lon="6.75033">
        <ele>1727</ele>
        <time>2026-08-14T10:56:14.540Z</time>
      </trkpt>
      <trkpt lat="45.83566" lon="6.75035">
        <ele>1727</ele>
        <time>2026-08-14T10:56:15.540Z</time>
      </trkpt>
      <trkpt lat="45.83565" lon="6.75036">
        <ele>1727</ele>
        <time>2026-08-14T10:56:16.540Z</time>
      </trkpt>
      <trkpt lat="45.83564" lon="6.75038">
        <ele>1727</ele>
        <time>2026-08-14T10:56:17.540Z</time>
      </trkpt>
      <trkpt lat="45.83563" lon="6.75039">
        <ele>1727</ele>
        <time>2026-08-14T10:56:18.540Z</time>
      </trkpt>
      <trkpt lat="45.83562" lon="6.75041">
        <ele>1728</ele>
        <time>2026-08-14T10:56:19.540Z</time>
      </trkpt>
      <trkpt lat="45.83562" lon="6.75042">
        <ele>1728</ele>
        <time>2026-08-14T10:56:20.540Z</time>
      </trkpt>
      <trkpt lat="45.83561" lon="6.75043">
        <ele>1728</ele>
        <time>2026-08-14T10:56:21.540Z</time>
      </trkpt>
      <trkpt lat="45.8356" lon="6.75045">
        <ele>1728</ele>
        <time>2026-08-14T10:56:22.540Z</time>
      </trkpt>
      <trkpt lat="45.83559" lon="6.75046">
        <ele>1728</ele>
        <time>2026-08-14T10:56:23.540Z</time>
      </trkpt>
      <trkpt lat="45.83558" lon="6.75047">
        <ele>1728</ele>
        <time>2026-08-14T10:56:24.540Z</time>
      </trkpt>
      <trkpt lat="45.83557" lon="6.75049">
        <ele>1728</ele>
        <time>2026-08-14T10:56:25.540Z</time>
      </trkpt>
      <trkpt lat="45.83556" lon="6.7505">
        <ele>1729</ele>
        <time>2026-08-14T10:56:26.540Z</time>
      </trkpt>
      <trkpt lat="45.83555" lon="6.75051">
        <ele>1729</ele>
        <time>2026-08-14T10:56:27.540Z</time>
      </trkpt>
      <trkpt lat="45.83554" lon="6.75052">
        <ele>1729</ele>
        <time>2026-08-14T10:56:28.540Z</time>
      </trkpt>
      <trkpt lat="45.83554" lon="6.75054">
        <ele>1729</ele>
        <time>2026-08-14T10:56:29.540Z</time>
      </trkpt>
      <trkpt lat="45.83553" lon="6.75055">
        <ele>1729</ele>
        <time>2026-08-14T10:56:30.540Z</time>
      </trkpt>
      <trkpt lat="45.83552" lon="6.75057">
        <ele>1730</ele>
        <time>2026-08-14T10:56:31.540Z</time>
      </trkpt>
      <trkpt lat="45.83551" lon="6.75058">
        <ele>1730</ele>
        <time>2026-08-14T10:56:32.540Z</time>
      </trkpt>
      <trkpt lat="45.8355" lon="6.75059">
        <ele>1730</ele>
        <time>2026-08-14T10:56:33.540Z</time>
      </trkpt>
      <trkpt lat="45.83549" lon="6.75061">
        <ele>1730</ele>
        <time>2026-08-14T10:56:34.540Z</time>
      </trkpt>
      <trkpt lat="45.83548" lon="6.75062">
        <ele>1730</ele>
        <time>2026-08-14T10:56:35.540Z</time>
      </trkpt>
      <trkpt lat="45.83547" lon="6.75064">
        <ele>1730</ele>
        <time>2026-08-14T10:56:36.540Z</time>
      </trkpt>
      <trkpt lat="45.83546" lon="6.75066">
        <ele>1730</ele>
        <time>2026-08-14T10:56:37.540Z</time>
      </trkpt>
      <trkpt lat="45.83545" lon="6.75067">
        <ele>1730</ele>
        <time>2026-08-14T10:56:38.540Z</time>
      </trkpt>
      <trkpt lat="45.83544" lon="6.75069">
        <ele>1730</ele>
        <time>2026-08-14T10:56:39.540Z</time>
      </trkpt>
      <trkpt lat="45.83544" lon="6.75071">
        <ele>1730</ele>
        <time>2026-08-14T10:56:40.540Z</time>
      </trkpt>
      <trkpt lat="45.83544" lon="6.75073">
        <ele>1730</ele>
        <time>2026-08-14T10:56:41.540Z</time>
      </trkpt>
      <trkpt lat="45.83544" lon="6.75074">
        <ele>1730</ele>
        <time>2026-08-14T10:56:42.540Z</time>
      </trkpt>
      <trkpt lat="45.83544" lon="6.75076">
        <ele>1731</ele>
        <time>2026-08-14T10:56:43.540Z</time>
      </trkpt>
      <trkpt lat="45.83544" lon="6.75078">
        <ele>1731</ele>
        <time>2026-08-14T10:56:44.540Z</time>
      </trkpt>
      <trkpt lat="45.83544" lon="6.75079">
        <ele>1731</ele>
        <time>2026-08-14T10:56:45.540Z</time>
      </trkpt>
      <trkpt lat="45.83545" lon="6.75081">
        <ele>1731</ele>
        <time>2026-08-14T10:56:46.540Z</time>
      </trkpt>
      <trkpt lat="45.83545" lon="6.75083">
        <ele>1731</ele>
        <time>2026-08-14T10:56:47.540Z</time>
      </trkpt>
      <trkpt lat="45.83545" lon="6.75084">
        <ele>1732</ele>
        <time>2026-08-14T10:56:48.540Z</time>
      </trkpt>
      <trkpt lat="45.83545" lon="6.75086">
        <ele>1732</ele>
        <time>2026-08-14T10:56:49.540Z</time>
      </trkpt>
      <trkpt lat="45.83545" lon="6.75088">
        <ele>1732</ele>
        <time>2026-08-14T10:56:50.540Z</time>
      </trkpt>
      <trkpt lat="45.83546" lon="6.7509">
        <ele>1732</ele>
        <time>2026-08-14T10:56:51.540Z</time>
      </trkpt>
      <trkpt lat="45.83546" lon="6.75092">
        <ele>1732</ele>
        <time>2026-08-14T10:56:52.540Z</time>
      </trkpt>
      <trkpt lat="45.83545" lon="6.75094">
        <ele>1733</ele>
        <time>2026-08-14T10:56:53.540Z</time>
      </trkpt>
      <trkpt lat="45.83545" lon="6.75096">
        <ele>1733</ele>
        <time>2026-08-14T10:56:54.540Z</time>
      </trkpt>
      <trkpt lat="45.83545" lon="6.75098">
        <ele>1733</ele>
        <time>2026-08-14T10:56:55.540Z</time>
      </trkpt>
      <trkpt lat="45.83545" lon="6.751">
        <ele>1734</ele>
        <time>2026-08-14T10:56:56.540Z</time>
      </trkpt>
      <trkpt lat="45.83545" lon="6.75103">
        <ele>1734</ele>
        <time>2026-08-14T10:56:57.540Z</time>
      </trkpt>
      <trkpt lat="45.83545" lon="6.75105">
        <ele>1734</ele>
        <time>2026-08-14T10:56:58.540Z</time>
      </trkpt>
      <trkpt lat="45.83545" lon="6.75107">
        <ele>1734</ele>
        <time>2026-08-14T10:56:59.540Z</time>
      </trkpt>
      <trkpt lat="45.83546" lon="6.75109">
        <ele>1735</ele>
        <time>2026-08-14T10:57:00.540Z</time>
      </trkpt>
      <trkpt lat="45.83546" lon="6.7511">
        <ele>1735</ele>
        <time>2026-08-14T10:57:01.540Z</time>
      </trkpt>
      <trkpt lat="45.83546" lon="6.75112">
        <ele>1735</ele>
        <time>2026-08-14T10:57:02.540Z</time>
      </trkpt>
      <trkpt lat="45.83546" lon="6.75114">
        <ele>1735</ele>
        <time>2026-08-14T10:57:03.540Z</time>
      </trkpt>
      <trkpt lat="45.83546" lon="6.75116">
        <ele>1735</ele>
        <time>2026-08-14T10:57:04.540Z</time>
      </trkpt>
      <trkpt lat="45.83546" lon="6.75117">
        <ele>1735</ele>
        <time>2026-08-14T10:57:05.540Z</time>
      </trkpt>
      <trkpt lat="45.83547" lon="6.75119">
        <ele>1735</ele>
        <time>2026-08-14T10:57:06.540Z</time>
      </trkpt>
      <trkpt lat="45.83547" lon="6.75121">
        <ele>1735</ele>
        <time>2026-08-14T10:57:07.540Z</time>
      </trkpt>
      <trkpt lat="45.83547" lon="6.75123">
        <ele>1736</ele>
        <time>2026-08-14T10:57:08.540Z</time>
      </trkpt>
      <trkpt lat="45.83547" lon="6.75125">
        <ele>1736</ele>
        <time>2026-08-14T10:57:09.540Z</time>
      </trkpt>
      <trkpt lat="45.83547" lon="6.75127">
        <ele>1735</ele>
        <time>2026-08-14T10:57:10.540Z</time>
      </trkpt>
      <trkpt lat="45.83548" lon="6.75129">
        <ele>1735</ele>
        <time>2026-08-14T10:57:11.540Z</time>
      </trkpt>
      <trkpt lat="45.83548" lon="6.75131">
        <ele>1735</ele>
        <time>2026-08-14T10:57:12.540Z</time>
      </trkpt>
      <trkpt lat="45.83548" lon="6.75133">
        <ele>1735</ele>
        <time>2026-08-14T10:57:13.540Z</time>
      </trkpt>
      <trkpt lat="45.83548" lon="6.75135">
        <ele>1735</ele>
        <time>2026-08-14T10:57:14.540Z</time>
      </trkpt>
      <trkpt lat="45.83548" lon="6.75137">
        <ele>1735</ele>
        <time>2026-08-14T10:57:15.540Z</time>
      </trkpt>
      <trkpt lat="45.83548" lon="6.75139">
        <ele>1736</ele>
        <time>2026-08-14T10:57:16.540Z</time>
      </trkpt>
      <trkpt lat="45.83548" lon="6.7514">
        <ele>1736</ele>
        <time>2026-08-14T10:57:17.540Z</time>
      </trkpt>
      <trkpt lat="45.83548" lon="6.75142">
        <ele>1737</ele>
        <time>2026-08-14T10:57:18.540Z</time>
      </trkpt>
      <trkpt lat="45.83547" lon="6.75144">
        <ele>1737</ele>
        <time>2026-08-14T10:57:19.540Z</time>
      </trkpt>
      <trkpt lat="45.83548" lon="6.75146">
        <ele>1737</ele>
        <time>2026-08-14T10:57:20.540Z</time>
      </trkpt>
      <trkpt lat="45.83548" lon="6.75148">
        <ele>1737</ele>
        <time>2026-08-14T10:57:21.540Z</time>
      </trkpt>
      <trkpt lat="45.83548" lon="6.7515">
        <ele>1737</ele>
        <time>2026-08-14T10:57:22.540Z</time>
      </trkpt>
      <trkpt lat="45.83548" lon="6.75151">
        <ele>1738</ele>
        <time>2026-08-14T10:57:23.540Z</time>
      </trkpt>
      <trkpt lat="45.83548" lon="6.75153">
        <ele>1738</ele>
        <time>2026-08-14T10:57:24.540Z</time>
      </trkpt>
      <trkpt lat="45.83549" lon="6.75155">
        <ele>1738</ele>
        <time>2026-08-14T10:57:25.540Z</time>
      </trkpt>
      <trkpt lat="45.8355" lon="6.75157">
        <ele>1739</ele>
        <time>2026-08-14T10:57:26.540Z</time>
      </trkpt>
      <trkpt lat="45.83551" lon="6.75159">
        <ele>1739</ele>
        <time>2026-08-14T10:57:27.540Z</time>
      </trkpt>
      <trkpt lat="45.83552" lon="6.7516">
        <ele>1739</ele>
        <time>2026-08-14T10:57:28.540Z</time>
      </trkpt>
      <trkpt lat="45.83553" lon="6.75162">
        <ele>1739</ele>
        <time>2026-08-14T10:57:29.540Z</time>
      </trkpt>
      <trkpt lat="45.83554" lon="6.75163">
        <ele>1739</ele>
        <time>2026-08-14T10:57:30.540Z</time>
      </trkpt>
      <trkpt lat="45.83554" lon="6.75165">
        <ele>1739</ele>
        <time>2026-08-14T10:57:31.540Z</time>
      </trkpt>
      <trkpt lat="45.83555" lon="6.75167">
        <ele>1739</ele>
        <time>2026-08-14T10:57:32.540Z</time>
      </trkpt>
      <trkpt lat="45.83556" lon="6.75169">
        <ele>1739</ele>
        <time>2026-08-14T10:57:33.540Z</time>
      </trkpt>
      <trkpt lat="45.83556" lon="6.75171">
        <ele>1739</ele>
        <time>2026-08-14T10:57:34.540Z</time>
      </trkpt>
      <trkpt lat="45.83556" lon="6.75173">
        <ele>1739</ele>
        <time>2026-08-14T10:57:35.540Z</time>
      </trkpt>
      <trkpt lat="45.83557" lon="6.75175">
        <ele>1739</ele>
        <time>2026-08-14T10:57:36.540Z</time>
      </trkpt>
      <trkpt lat="45.83557" lon="6.75176">
        <ele>1739</ele>
        <time>2026-08-14T10:57:37.540Z</time>
      </trkpt>
      <trkpt lat="45.83558" lon="6.75178">
        <ele>1739</ele>
        <time>2026-08-14T10:57:38.540Z</time>
      </trkpt>
      <trkpt lat="45.83559" lon="6.7518">
        <ele>1739</ele>
        <time>2026-08-14T10:57:39.540Z</time>
      </trkpt>
      <trkpt lat="45.8356" lon="6.75181">
        <ele>1740</ele>
        <time>2026-08-14T10:57:40.540Z</time>
      </trkpt>
      <trkpt lat="45.83561" lon="6.75183">
        <ele>1740</ele>
        <time>2026-08-14T10:57:41.540Z</time>
      </trkpt>
      <trkpt lat="45.83562" lon="6.75184">
        <ele>1741</ele>
        <time>2026-08-14T10:57:42.540Z</time>
      </trkpt>
      <trkpt lat="45.83563" lon="6.75185">
        <ele>1741</ele>
        <time>2026-08-14T10:57:43.540Z</time>
      </trkpt>
      <trkpt lat="45.83564" lon="6.75186">
        <ele>1741</ele>
        <time>2026-08-14T10:57:44.540Z</time>
      </trkpt>
      <trkpt lat="45.83565" lon="6.75187">
        <ele>1741</ele>
        <time>2026-08-14T10:57:45.540Z</time>
      </trkpt>
      <trkpt lat="45.83566" lon="6.75189">
        <ele>1741</ele>
        <time>2026-08-14T10:57:46.540Z</time>
      </trkpt>
      <trkpt lat="45.83567" lon="6.7519">
        <ele>1741</ele>
        <time>2026-08-14T10:57:47.540Z</time>
      </trkpt>
      <trkpt lat="45.83569" lon="6.75191">
        <ele>1742</ele>
        <time>2026-08-14T10:57:48.540Z</time>
      </trkpt>
      <trkpt lat="45.8357" lon="6.75192">
        <ele>1742</ele>
        <time>2026-08-14T10:57:49.540Z</time>
      </trkpt>
      <trkpt lat="45.83571" lon="6.75193">
        <ele>1742</ele>
        <time>2026-08-14T10:57:50.540Z</time>
      </trkpt>
      <trkpt lat="45.83572" lon="6.75194">
        <ele>1742</ele>
        <time>2026-08-14T10:57:51.540Z</time>
      </trkpt>
      <trkpt lat="45.83574" lon="6.75195">
        <ele>1742</ele>
        <time>2026-08-14T10:57:52.540Z</time>
      </trkpt>
      <trkpt lat="45.83575" lon="6.75196">
        <ele>1742</ele>
        <time>2026-08-14T10:57:53.540Z</time>
      </trkpt>
      <trkpt lat="45.83576" lon="6.75196">
        <ele>1743</ele>
        <time>2026-08-14T10:57:54.540Z</time>
      </trkpt>
      <trkpt lat="45.83577" lon="6.75197">
        <ele>1743</ele>
        <time>2026-08-14T10:57:55.540Z</time>
      </trkpt>
      <trkpt lat="45.83579" lon="6.75198">
        <ele>1743</ele>
        <time>2026-08-14T10:57:56.540Z</time>
      </trkpt>
      <trkpt lat="45.8358" lon="6.75198">
        <ele>1743</ele>
        <time>2026-08-14T10:57:57.540Z</time>
      </trkpt>
      <trkpt lat="45.83581" lon="6.75199">
        <ele>1743</ele>
        <time>2026-08-14T10:57:58.540Z</time>
      </trkpt>
      <trkpt lat="45.83583" lon="6.75201">
        <ele>1743</ele>
        <time>2026-08-14T10:57:59.540Z</time>
      </trkpt>
      <trkpt lat="45.83584" lon="6.75202">
        <ele>1744</ele>
        <time>2026-08-14T10:58:00.540Z</time>
      </trkpt>
      <trkpt lat="45.83585" lon="6.75203">
        <ele>1744</ele>
        <time>2026-08-14T10:58:01.540Z</time>
      </trkpt>
      <trkpt lat="45.83587" lon="6.75204">
        <ele>1744</ele>
        <time>2026-08-14T10:58:02.540Z</time>
      </trkpt>
      <trkpt lat="45.83588" lon="6.75205">
        <ele>1744</ele>
        <time>2026-08-14T10:58:03.540Z</time>
      </trkpt>
      <trkpt lat="45.83589" lon="6.75206">
        <ele>1745</ele>
        <time>2026-08-14T10:58:04.540Z</time>
      </trkpt>
      <trkpt lat="45.8359" lon="6.75207">
        <ele>1745</ele>
        <time>2026-08-14T10:58:05.540Z</time>
      </trkpt>
      <trkpt lat="45.83592" lon="6.75207">
        <ele>1745</ele>
        <time>2026-08-14T10:58:06.540Z</time>
      </trkpt>
      <trkpt lat="45.83593" lon="6.75208">
        <ele>1745</ele>
        <time>2026-08-14T10:58:07.540Z</time>
      </trkpt>
      <trkpt lat="45.83594" lon="6.7521">
        <ele>1745</ele>
        <time>2026-08-14T10:58:08.540Z</time>
      </trkpt>
      <trkpt lat="45.83595" lon="6.75211">
        <ele>1745</ele>
        <time>2026-08-14T10:58:09.540Z</time>
      </trkpt>
      <trkpt lat="45.83596" lon="6.75212">
        <ele>1745</ele>
        <time>2026-08-14T10:58:10.540Z</time>
      </trkpt>
      <trkpt lat="45.83597" lon="6.75214">
        <ele>1746</ele>
        <time>2026-08-14T10:58:11.540Z</time>
      </trkpt>
      <trkpt lat="45.83597" lon="6.75215">
        <ele>1746</ele>
        <time>2026-08-14T10:58:12.540Z</time>
      </trkpt>
      <trkpt lat="45.83598" lon="6.75217">
        <ele>1746</ele>
        <time>2026-08-14T10:58:13.540Z</time>
      </trkpt>
      <trkpt lat="45.83599" lon="6.75219">
        <ele>1746</ele>
        <time>2026-08-14T10:58:14.540Z</time>
      </trkpt>
      <trkpt lat="45.836" lon="6.7522">
        <ele>1746</ele>
        <time>2026-08-14T10:58:15.540Z</time>
      </trkpt>
      <trkpt lat="45.83602" lon="6.75222">
        <ele>1746</ele>
        <time>2026-08-14T10:58:16.540Z</time>
      </trkpt>
      <trkpt lat="45.83603" lon="6.75222">
        <ele>1746</ele>
        <time>2026-08-14T10:58:17.540Z</time>
      </trkpt>
      <trkpt lat="45.83604" lon="6.75223">
        <ele>1746</ele>
        <time>2026-08-14T10:58:18.540Z</time>
      </trkpt>
      <trkpt lat="45.83605" lon="6.75225">
        <ele>1746</ele>
        <time>2026-08-14T10:58:19.540Z</time>
      </trkpt>
      <trkpt lat="45.83607" lon="6.75226">
        <ele>1746</ele>
        <time>2026-08-14T10:58:20.540Z</time>
      </trkpt>
      <trkpt lat="45.83608" lon="6.75228">
        <ele>1746</ele>
        <time>2026-08-14T10:58:21.540Z</time>
      </trkpt>
      <trkpt lat="45.8361" lon="6.7523">
        <ele>1746</ele>
        <time>2026-08-14T10:58:22.540Z</time>
      </trkpt>
      <trkpt lat="45.83611" lon="6.75231">
        <ele>1745</ele>
        <time>2026-08-14T10:58:23.540Z</time>
      </trkpt>
      <trkpt lat="45.83613" lon="6.75233">
        <ele>1745</ele>
        <time>2026-08-14T10:58:24.540Z</time>
      </trkpt>
      <trkpt lat="45.83615" lon="6.75234">
        <ele>1745</ele>
        <time>2026-08-14T10:58:25.540Z</time>
      </trkpt>
      <trkpt lat="45.83617" lon="6.75235">
        <ele>1744</ele>
        <time>2026-08-14T10:58:26.540Z</time>
      </trkpt>
      <trkpt lat="45.83619" lon="6.75236">
        <ele>1744</ele>
        <time>2026-08-14T10:58:27.540Z</time>
      </trkpt>
      <trkpt lat="45.83621" lon="6.75237">
        <ele>1744</ele>
        <time>2026-08-14T10:58:28.540Z</time>
      </trkpt>
      <trkpt lat="45.83622" lon="6.75238">
        <ele>1744</ele>
        <time>2026-08-14T10:58:29.540Z</time>
      </trkpt>
      <trkpt lat="45.83624" lon="6.75238">
        <ele>1744</ele>
        <time>2026-08-14T10:58:30.540Z</time>
      </trkpt>
      <trkpt lat="45.83626" lon="6.75239">
        <ele>1744</ele>
        <time>2026-08-14T10:58:31.540Z</time>
      </trkpt>
      <trkpt lat="45.83628" lon="6.7524">
        <ele>1745</ele>
        <time>2026-08-14T10:58:32.540Z</time>
      </trkpt>
      <trkpt lat="45.8363" lon="6.75241">
        <ele>1745</ele>
        <time>2026-08-14T10:58:33.540Z</time>
      </trkpt>
      <trkpt lat="45.83632" lon="6.75241">
        <ele>1745</ele>
        <time>2026-08-14T10:58:34.540Z</time>
      </trkpt>
      <trkpt lat="45.83634" lon="6.75241">
        <ele>1745</ele>
        <time>2026-08-14T10:58:35.540Z</time>
      </trkpt>
      <trkpt lat="45.83636" lon="6.75242">
        <ele>1744</ele>
        <time>2026-08-14T10:58:36.540Z</time>
      </trkpt>
      <trkpt lat="45.83639" lon="6.75243">
        <ele>1744</ele>
        <time>2026-08-14T10:58:37.540Z</time>
      </trkpt>
      <trkpt lat="45.8364" lon="6.75243">
        <ele>1744</ele>
        <time>2026-08-14T10:58:38.540Z</time>
      </trkpt>
      <trkpt lat="45.83642" lon="6.75244">
        <ele>1744</ele>
        <time>2026-08-14T10:58:39.540Z</time>
      </trkpt>
      <trkpt lat="45.83644" lon="6.75246">
        <ele>1743</ele>
        <time>2026-08-14T10:58:40.540Z</time>
      </trkpt>
      <trkpt lat="45.83645" lon="6.75248">
        <ele>1743</ele>
        <time>2026-08-14T10:58:41.540Z</time>
      </trkpt>
      <trkpt lat="45.83647" lon="6.7525">
        <ele>1743</ele>
        <time>2026-08-14T10:58:42.540Z</time>
      </trkpt>
      <trkpt lat="45.83648" lon="6.75252">
        <ele>1743</ele>
        <time>2026-08-14T10:58:43.540Z</time>
      </trkpt>
      <trkpt lat="45.83649" lon="6.75255">
        <ele>1743</ele>
        <time>2026-08-14T10:58:44.540Z</time>
      </trkpt>
      <trkpt lat="45.83649" lon="6.75258">
        <ele>1743</ele>
        <time>2026-08-14T10:58:45.540Z</time>
      </trkpt>
      <trkpt lat="45.83649" lon="6.75261">
        <ele>1743</ele>
        <time>2026-08-14T10:58:46.540Z</time>
      </trkpt>
      <trkpt lat="45.83649" lon="6.75263">
        <ele>1743</ele>
        <time>2026-08-14T10:58:47.540Z</time>
      </trkpt>
      <trkpt lat="45.83649" lon="6.75266">
        <ele>1743</ele>
        <time>2026-08-14T10:58:48.540Z</time>
      </trkpt>
      <trkpt lat="45.83649" lon="6.75268">
        <ele>1743</ele>
        <time>2026-08-14T10:58:49.540Z</time>
      </trkpt>
      <trkpt lat="45.83648" lon="6.75271">
        <ele>1743</ele>
        <time>2026-08-14T10:58:50.540Z</time>
      </trkpt>
      <trkpt lat="45.83647" lon="6.75273">
        <ele>1743</ele>
        <time>2026-08-14T10:58:51.540Z</time>
      </trkpt>
      <trkpt lat="45.83647" lon="6.75276">
        <ele>1743</ele>
        <time>2026-08-14T10:58:52.540Z</time>
      </trkpt>
      <trkpt lat="45.83645" lon="6.75279">
        <ele>1742</ele>
        <time>2026-08-14T10:58:53.540Z</time>
      </trkpt>
      <trkpt lat="45.83645" lon="6.75281">
        <ele>1742</ele>
        <time>2026-08-14T10:58:54.540Z</time>
      </trkpt>
      <trkpt lat="45.83644" lon="6.75284">
        <ele>1742</ele>
        <time>2026-08-14T10:58:55.540Z</time>
      </trkpt>
      <trkpt lat="45.83643" lon="6.75287">
        <ele>1742</ele>
        <time>2026-08-14T10:58:56.540Z</time>
      </trkpt>
      <trkpt lat="45.83642" lon="6.75289">
        <ele>1742</ele>
        <time>2026-08-14T10:58:57.540Z</time>
      </trkpt>
      <trkpt lat="45.83641" lon="6.75292">
        <ele>1742</ele>
        <time>2026-08-14T10:58:58.540Z</time>
      </trkpt>
      <trkpt lat="45.8364" lon="6.75295">
        <ele>1742</ele>
        <time>2026-08-14T10:58:59.540Z</time>
      </trkpt>
      <trkpt lat="45.83639" lon="6.75297">
        <ele>1742</ele>
        <time>2026-08-14T10:59:00.540Z</time>
      </trkpt>
      <trkpt lat="45.83637" lon="6.753">
        <ele>1742</ele>
        <time>2026-08-14T10:59:01.540Z</time>
      </trkpt>
      <trkpt lat="45.83636" lon="6.75303">
        <ele>1742</ele>
        <time>2026-08-14T10:59:02.540Z</time>
      </trkpt>
      <trkpt lat="45.83635" lon="6.75306">
        <ele>1742</ele>
        <time>2026-08-14T10:59:03.540Z</time>
      </trkpt>
      <trkpt lat="45.83634" lon="6.75308">
        <ele>1742</ele>
        <time>2026-08-14T10:59:04.540Z</time>
      </trkpt>
      <trkpt lat="45.83633" lon="6.75311">
        <ele>1742</ele>
        <time>2026-08-14T10:59:05.540Z</time>
      </trkpt>
      <trkpt lat="45.83632" lon="6.75314">
        <ele>1742</ele>
        <time>2026-08-14T10:59:06.540Z</time>
      </trkpt>
      <trkpt lat="45.83632" lon="6.75317">
        <ele>1742</ele>
        <time>2026-08-14T10:59:07.540Z</time>
      </trkpt>
      <trkpt lat="45.83631" lon="6.7532">
        <ele>1742</ele>
        <time>2026-08-14T10:59:08.540Z</time>
      </trkpt>
      <trkpt lat="45.83631" lon="6.75322">
        <ele>1741</ele>
        <time>2026-08-14T10:59:09.540Z</time>
      </trkpt>
      <trkpt lat="45.8363" lon="6.75325">
        <ele>1741</ele>
        <time>2026-08-14T10:59:10.540Z</time>
      </trkpt>
      <trkpt lat="45.8363" lon="6.75327">
        <ele>1741</ele>
        <time>2026-08-14T10:59:11.540Z</time>
      </trkpt>
      <trkpt lat="45.8363" lon="6.7533">
        <ele>1741</ele>
        <time>2026-08-14T10:59:12.540Z</time>
      </trkpt>
      <trkpt lat="45.83629" lon="6.75333">
        <ele>1741</ele>
        <time>2026-08-14T10:59:13.540Z</time>
      </trkpt>
      <trkpt lat="45.83629" lon="6.75336">
        <ele>1741</ele>
        <time>2026-08-14T10:59:14.540Z</time>
      </trkpt>
      <trkpt lat="45.83629" lon="6.75339">
        <ele>1741</ele>
        <time>2026-08-14T10:59:15.540Z</time>
      </trkpt>
      <trkpt lat="45.83629" lon="6.75342">
        <ele>1741</ele>
        <time>2026-08-14T10:59:16.540Z</time>
      </trkpt>
      <trkpt lat="45.83629" lon="6.75345">
        <ele>1741</ele>
        <time>2026-08-14T10:59:17.540Z</time>
      </trkpt>
      <trkpt lat="45.83628" lon="6.75348">
        <ele>1740</ele>
        <time>2026-08-14T10:59:18.540Z</time>
      </trkpt>
      <trkpt lat="45.83627" lon="6.75351">
        <ele>1740</ele>
        <time>2026-08-14T10:59:19.540Z</time>
      </trkpt>
      <trkpt lat="45.83625" lon="6.75353">
        <ele>1740</ele>
        <time>2026-08-14T10:59:20.540Z</time>
      </trkpt>
      <trkpt lat="45.83623" lon="6.75356">
        <ele>1740</ele>
        <time>2026-08-14T10:59:21.540Z</time>
      </trkpt>
      <trkpt lat="45.83622" lon="6.75359">
        <ele>1739</ele>
        <time>2026-08-14T10:59:22.540Z</time>
      </trkpt>
      <trkpt lat="45.83621" lon="6.75361">
        <ele>1739</ele>
        <time>2026-08-14T10:59:23.540Z</time>
      </trkpt>
      <trkpt lat="45.8362" lon="6.75364">
        <ele>1738</ele>
        <time>2026-08-14T10:59:24.540Z</time>
      </trkpt>
      <trkpt lat="45.8362" lon="6.75367">
        <ele>1738</ele>
        <time>2026-08-14T10:59:25.540Z</time>
      </trkpt>
      <trkpt lat="45.83619" lon="6.7537">
        <ele>1738</ele>
        <time>2026-08-14T10:59:26.540Z</time>
      </trkpt>
      <trkpt lat="45.83619" lon="6.75373">
        <ele>1738</ele>
        <time>2026-08-14T10:59:27.540Z</time>
      </trkpt>
      <trkpt lat="45.83618" lon="6.75375">
        <ele>1738</ele>
        <time>2026-08-14T10:59:28.540Z</time>
      </trkpt>
      <trkpt lat="45.83618" lon="6.75377">
        <ele>1738</ele>
        <time>2026-08-14T10:59:29.540Z</time>
      </trkpt>
      <trkpt lat="45.83617" lon="6.75379">
        <ele>1738</ele>
        <time>2026-08-14T10:59:30.540Z</time>
      </trkpt>
      <trkpt lat="45.83617" lon="6.75381">
        <ele>1738</ele>
        <time>2026-08-14T10:59:31.540Z</time>
      </trkpt>
      <trkpt lat="45.83616" lon="6.75384">
        <ele>1738</ele>
        <time>2026-08-14T10:59:32.540Z</time>
      </trkpt>
      <trkpt lat="45.83616" lon="6.75386">
        <ele>1738</ele>
        <time>2026-08-14T10:59:33.540Z</time>
      </trkpt>
      <trkpt lat="45.83615" lon="6.75389">
        <ele>1738</ele>
        <time>2026-08-14T10:59:34.540Z</time>
      </trkpt>
      <trkpt lat="45.83614" lon="6.75392">
        <ele>1739</ele>
        <time>2026-08-14T10:59:35.540Z</time>
      </trkpt>
      <trkpt lat="45.83613" lon="6.75394">
        <ele>1738</ele>
        <time>2026-08-14T10:59:36.540Z</time>
      </trkpt>
      <trkpt lat="45.83612" lon="6.75397">
        <ele>1738</ele>
        <time>2026-08-14T10:59:37.540Z</time>
      </trkpt>
      <trkpt lat="45.83611" lon="6.754">
        <ele>1738</ele>
        <time>2026-08-14T10:59:38.540Z</time>
      </trkpt>
      <trkpt lat="45.8361" lon="6.75402">
        <ele>1738</ele>
        <time>2026-08-14T10:59:39.540Z</time>
      </trkpt>
      <trkpt lat="45.83609" lon="6.75404">
        <ele>1738</ele>
        <time>2026-08-14T10:59:40.540Z</time>
      </trkpt>
      <trkpt lat="45.83608" lon="6.75407">
        <ele>1738</ele>
        <time>2026-08-14T10:59:41.540Z</time>
      </trkpt>
      <trkpt lat="45.83607" lon="6.7541">
        <ele>1738</ele>
        <time>2026-08-14T10:59:42.540Z</time>
      </trkpt>
      <trkpt lat="45.83606" lon="6.75414">
        <ele>1738</ele>
        <time>2026-08-14T10:59:43.540Z</time>
      </trkpt>
      <trkpt lat="45.83606" lon="6.75416">
        <ele>1737</ele>
        <time>2026-08-14T10:59:44.540Z</time>
      </trkpt>
      <trkpt lat="45.83605" lon="6.75419">
        <ele>1737</ele>
        <time>2026-08-14T10:59:45.540Z</time>
      </trkpt>
      <trkpt lat="45.83604" lon="6.75422">
        <ele>1737</ele>
        <time>2026-08-14T10:59:46.540Z</time>
      </trkpt>
      <trkpt lat="45.83604" lon="6.75425">
        <ele>1737</ele>
        <time>2026-08-14T10:59:47.540Z</time>
      </trkpt>
      <trkpt lat="45.83604" lon="6.75427">
        <ele>1737</ele>
        <time>2026-08-14T10:59:48.540Z</time>
      </trkpt>
      <trkpt lat="45.83604" lon="6.75429">
        <ele>1737</ele>
        <time>2026-08-14T10:59:49.540Z</time>
      </trkpt>
      <trkpt lat="45.83604" lon="6.75431">
        <ele>1737</ele>
        <time>2026-08-14T10:59:50.540Z</time>
      </trkpt>
      <trkpt lat="45.83604" lon="6.75433">
        <ele>1737</ele>
        <time>2026-08-14T10:59:51.540Z</time>
      </trkpt>
      <trkpt lat="45.83605" lon="6.75434">
        <ele>1737</ele>
        <time>2026-08-14T10:59:52.540Z</time>
      </trkpt>
      <trkpt lat="45.83605" lon="6.75435">
        <ele>1737</ele>
        <time>2026-08-14T10:59:53.540Z</time>
      </trkpt>
      <trkpt lat="45.83605" lon="6.75437">
        <ele>1737</ele>
        <time>2026-08-14T10:59:54.540Z</time>
      </trkpt>
      <trkpt lat="45.83605" lon="6.75439">
        <ele>1737</ele>
        <time>2026-08-14T10:59:55.540Z</time>
      </trkpt>
      <trkpt lat="45.83605" lon="6.75441">
        <ele>1738</ele>
        <time>2026-08-14T10:59:56.540Z</time>
      </trkpt>
      <trkpt lat="45.83605" lon="6.75444">
        <ele>1738</ele>
        <time>2026-08-14T10:59:57.540Z</time>
      </trkpt>
      <trkpt lat="45.83605" lon="6.75446">
        <ele>1738</ele>
        <time>2026-08-14T10:59:58.540Z</time>
      </trkpt>
      <trkpt lat="45.83605" lon="6.75449">
        <ele>1738</ele>
        <time>2026-08-14T10:59:59.540Z</time>
      </trkpt>
      <trkpt lat="45.83605" lon="6.75451">
        <ele>1738</ele>
        <time>2026-08-14T11:00:00.540Z</time>
      </trkpt>
      <trkpt lat="45.83606" lon="6.75454">
        <ele>1738</ele>
        <time>2026-08-14T11:00:01.540Z</time>
      </trkpt>
      <trkpt lat="45.83606" lon="6.75456">
        <ele>1738</ele>
        <time>2026-08-14T11:00:02.540Z</time>
      </trkpt>
      <trkpt lat="45.83607" lon="6.75458">
        <ele>1738</ele>
        <time>2026-08-14T11:00:03.540Z</time>
      </trkpt>
      <trkpt lat="45.83609" lon="6.7546">
        <ele>1738</ele>
        <time>2026-08-14T11:00:04.540Z</time>
      </trkpt>
      <trkpt lat="45.8361" lon="6.75462">
        <ele>1739</ele>
        <time>2026-08-14T11:00:05.540Z</time>
      </trkpt>
      <trkpt lat="45.83611" lon="6.75464">
        <ele>1739</ele>
        <time>2026-08-14T11:00:06.540Z</time>
      </trkpt>
      <trkpt lat="45.83611" lon="6.75466">
        <ele>1739</ele>
        <time>2026-08-14T11:00:07.540Z</time>
      </trkpt>
      <trkpt lat="45.83612" lon="6.75467">
        <ele>1738</ele>
        <time>2026-08-14T11:00:08.540Z</time>
      </trkpt>
      <trkpt lat="45.83613" lon="6.75468">
        <ele>1738</ele>
        <time>2026-08-14T11:00:09.540Z</time>
      </trkpt>
      <trkpt lat="45.83613" lon="6.75469">
        <ele>1738</ele>
        <time>2026-08-14T11:00:10.540Z</time>
      </trkpt>
      <trkpt lat="45.83614" lon="6.75471">
        <ele>1739</ele>
        <time>2026-08-14T11:00:11.540Z</time>
      </trkpt>
      <trkpt lat="45.83615" lon="6.75472">
        <ele>1739</ele>
        <time>2026-08-14T11:00:12.540Z</time>
      </trkpt>
      <trkpt lat="45.83616" lon="6.75472">
        <ele>1739</ele>
        <time>2026-08-14T11:00:13.540Z</time>
      </trkpt>
      <trkpt lat="45.83616" lon="6.75473">
        <ele>1739</ele>
        <time>2026-08-14T11:00:14.540Z</time>
      </trkpt>
      <trkpt lat="45.83617" lon="6.75473">
        <ele>1739</ele>
        <time>2026-08-14T11:00:15.540Z</time>
      </trkpt>
      <trkpt lat="45.83618" lon="6.75474">
        <ele>1739</ele>
        <time>2026-08-14T11:00:16.540Z</time>
      </trkpt>
      <trkpt lat="45.83619" lon="6.75475">
        <ele>1739</ele>
        <time>2026-08-14T11:00:17.540Z</time>
      </trkpt>
      <trkpt lat="45.8362" lon="6.75477">
        <ele>1738</ele>
        <time>2026-08-14T11:00:18.540Z</time>
      </trkpt>
      <trkpt lat="45.83621" lon="6.75478">
        <ele>1738</ele>
        <time>2026-08-14T11:00:19.540Z</time>
      </trkpt>
      <trkpt lat="45.83623" lon="6.75479">
        <ele>1738</ele>
        <time>2026-08-14T11:00:20.540Z</time>
      </trkpt>
      <trkpt lat="45.83624" lon="6.7548">
        <ele>1738</ele>
        <time>2026-08-14T11:00:21.540Z</time>
      </trkpt>
      <trkpt lat="45.83625" lon="6.7548">
        <ele>1738</ele>
        <time>2026-08-14T11:00:22.540Z</time>
      </trkpt>
      <trkpt lat="45.83626" lon="6.75481">
        <ele>1737</ele>
        <time>2026-08-14T11:00:23.540Z</time>
      </trkpt>
      <trkpt lat="45.83626" lon="6.75482">
        <ele>1737</ele>
        <time>2026-08-14T11:00:24.540Z</time>
      </trkpt>
      <trkpt lat="45.83627" lon="6.75482">
        <ele>1737</ele>
        <time>2026-08-14T11:00:25.540Z</time>
      </trkpt>
      <trkpt lat="45.83628" lon="6.75482">
        <ele>1737</ele>
        <time>2026-08-14T11:00:26.540Z</time>
      </trkpt>
      <trkpt lat="45.83629" lon="6.75482">
        <ele>1737</ele>
        <time>2026-08-14T11:00:27.540Z</time>
      </trkpt>
      <trkpt lat="45.8363" lon="6.75482">
        <ele>1737</ele>
        <time>2026-08-14T11:00:28.540Z</time>
      </trkpt>
      <trkpt lat="45.83631" lon="6.75482">
        <ele>1736</ele>
        <time>2026-08-14T11:00:29.540Z</time>
      </trkpt>
      <trkpt lat="45.83631" lon="6.75482">
        <ele>1736</ele>
        <time>2026-08-14T11:00:30.540Z</time>
      </trkpt>
      <trkpt lat="45.83632" lon="6.75482">
        <ele>1736</ele>
        <time>2026-08-14T11:00:31.540Z</time>
      </trkpt>
      <trkpt lat="45.83633" lon="6.75482">
        <ele>1736</ele>
        <time>2026-08-14T11:00:32.540Z</time>
      </trkpt>
      <trkpt lat="45.83634" lon="6.75482">
        <ele>1736</ele>
        <time>2026-08-14T11:00:33.540Z</time>
      </trkpt>
      <trkpt lat="45.83635" lon="6.75483">
        <ele>1736</ele>
        <time>2026-08-14T11:00:34.540Z</time>
      </trkpt>
      <trkpt lat="45.83636" lon="6.75484">
        <ele>1735</ele>
        <time>2026-08-14T11:00:35.540Z</time>
      </trkpt>
      <trkpt lat="45.83636" lon="6.75485">
        <ele>1735</ele>
        <time>2026-08-14T11:00:36.540Z</time>
      </trkpt>
      <trkpt lat="45.83637" lon="6.75486">
        <ele>1735</ele>
        <time>2026-08-14T11:00:37.540Z</time>
      </trkpt>
      <trkpt lat="45.83637" lon="6.75487">
        <ele>1734</ele>
        <time>2026-08-14T11:00:38.540Z</time>
      </trkpt>
      <trkpt lat="45.83637" lon="6.75488">
        <ele>1734</ele>
        <time>2026-08-14T11:00:39.540Z</time>
      </trkpt>
      <trkpt lat="45.83637" lon="6.75489">
        <ele>1733</ele>
        <time>2026-08-14T11:00:40.540Z</time>
      </trkpt>
      <trkpt lat="45.83637" lon="6.7549">
        <ele>1732</ele>
        <time>2026-08-14T11:00:41.540Z</time>
      </trkpt>
      <trkpt lat="45.83638" lon="6.75491">
        <ele>1732</ele>
        <time>2026-08-14T11:00:42.540Z</time>
      </trkpt>
      <trkpt lat="45.83637" lon="6.75492">
        <ele>1732</ele>
        <time>2026-08-14T11:00:43.540Z</time>
      </trkpt>
      <trkpt lat="45.83637" lon="6.75494">
        <ele>1732</ele>
        <time>2026-08-14T11:00:44.540Z</time>
      </trkpt>
      <trkpt lat="45.83637" lon="6.75496">
        <ele>1731</ele>
        <time>2026-08-14T11:00:45.540Z</time>
      </trkpt>
      <trkpt lat="45.83637" lon="6.75497">
        <ele>1731</ele>
        <time>2026-08-14T11:00:46.540Z</time>
      </trkpt>
      <trkpt lat="45.83636" lon="6.75499">
        <ele>1730</ele>
        <time>2026-08-14T11:00:47.540Z</time>
      </trkpt>
      <trkpt lat="45.83635" lon="6.75501">
        <ele>1730</ele>
        <time>2026-08-14T11:00:48.540Z</time>
      </trkpt>
      <trkpt lat="45.83635" lon="6.75502">
        <ele>1729</ele>
        <time>2026-08-14T11:00:49.540Z</time>
      </trkpt>
      <trkpt lat="45.83634" lon="6.75504">
        <ele>1729</ele>
        <time>2026-08-14T11:00:50.540Z</time>
      </trkpt>
      <trkpt lat="45.83634" lon="6.75506">
        <ele>1729</ele>
        <time>2026-08-14T11:00:51.540Z</time>
      </trkpt>
      <trkpt lat="45.83634" lon="6.75508">
        <ele>1729</ele>
        <time>2026-08-14T11:00:52.540Z</time>
      </trkpt>
      <trkpt lat="45.83635" lon="6.75509">
        <ele>1729</ele>
        <time>2026-08-14T11:00:53.540Z</time>
      </trkpt>
      <trkpt lat="45.83635" lon="6.7551">
        <ele>1730</ele>
        <time>2026-08-14T11:00:54.540Z</time>
      </trkpt>
      <trkpt lat="45.83636" lon="6.7551">
        <ele>1730</ele>
        <time>2026-08-14T11:00:55.540Z</time>
      </trkpt>
      <trkpt lat="45.83638" lon="6.75511">
        <ele>1730</ele>
        <time>2026-08-14T11:00:56.540Z</time>
      </trkpt>
      <trkpt lat="45.83639" lon="6.75512">
        <ele>1730</ele>
        <time>2026-08-14T11:00:57.540Z</time>
      </trkpt>
      <trkpt lat="45.8364" lon="6.75513">
        <ele>1730</ele>
        <time>2026-08-14T11:00:58.540Z</time>
      </trkpt>
      <trkpt lat="45.83641" lon="6.75515">
        <ele>1730</ele>
        <time>2026-08-14T11:00:59.540Z</time>
      </trkpt>
      <trkpt lat="45.83641" lon="6.75516">
        <ele>1729</ele>
        <time>2026-08-14T11:01:00.540Z</time>
      </trkpt>
      <trkpt lat="45.83642" lon="6.75517">
        <ele>1729</ele>
        <time>2026-08-14T11:01:01.540Z</time>
      </trkpt>
      <trkpt lat="45.83642" lon="6.75518">
        <ele>1728</ele>
        <time>2026-08-14T11:01:02.540Z</time>
      </trkpt>
      <trkpt lat="45.83643" lon="6.75518">
        <ele>1727</ele>
        <time>2026-08-14T11:01:03.540Z</time>
      </trkpt>
      <trkpt lat="45.83644" lon="6.75519">
        <ele>1727</ele>
        <time>2026-08-14T11:01:04.540Z</time>
      </trkpt>
      <trkpt lat="45.83644" lon="6.7552">
        <ele>1726</ele>
        <time>2026-08-14T11:01:05.540Z</time>
      </trkpt>
      <trkpt lat="45.83645" lon="6.7552">
        <ele>1726</ele>
        <time>2026-08-14T11:01:06.540Z</time>
      </trkpt>
      <trkpt lat="45.83646" lon="6.7552">
        <ele>1726</ele>
        <time>2026-08-14T11:01:07.540Z</time>
      </trkpt>
      <trkpt lat="45.83647" lon="6.75519">
        <ele>1726</ele>
        <time>2026-08-14T11:01:08.540Z</time>
      </trkpt>
      <trkpt lat="45.83648" lon="6.75518">
        <ele>1726</ele>
        <time>2026-08-14T11:01:09.540Z</time>
      </trkpt>
      <trkpt lat="45.83649" lon="6.75518">
        <ele>1726</ele>
        <time>2026-08-14T11:01:10.540Z</time>
      </trkpt>
      <trkpt lat="45.8365" lon="6.75518">
        <ele>1727</ele>
        <time>2026-08-14T11:01:11.540Z</time>
      </trkpt>
      <trkpt lat="45.83651" lon="6.75518">
        <ele>1727</ele>
        <time>2026-08-14T11:01:12.540Z</time>
      </trkpt>
      <trkpt lat="45.83652" lon="6.75518">
        <ele>1727</ele>
        <time>2026-08-14T11:01:13.540Z</time>
      </trkpt>
      <trkpt lat="45.83653" lon="6.75518">
        <ele>1727</ele>
        <time>2026-08-14T11:01:14.540Z</time>
      </trkpt>
      <trkpt lat="45.83654" lon="6.75519">
        <ele>1727</ele>
        <time>2026-08-14T11:01:15.540Z</time>
      </trkpt>
      <trkpt lat="45.83655" lon="6.75519">
        <ele>1727</ele>
        <time>2026-08-14T11:01:16.540Z</time>
      </trkpt>
      <trkpt lat="45.83656" lon="6.75518">
        <ele>1727</ele>
        <time>2026-08-14T11:01:17.540Z</time>
      </trkpt>
      <trkpt lat="45.83657" lon="6.75518">
        <ele>1727</ele>
        <time>2026-08-14T11:01:18.540Z</time>
      </trkpt>
      <trkpt lat="45.83658" lon="6.75518">
        <ele>1726</ele>
        <time>2026-08-14T11:01:19.540Z</time>
      </trkpt>
      <trkpt lat="45.83659" lon="6.75519">
        <ele>1726</ele>
        <time>2026-08-14T11:01:20.540Z</time>
      </trkpt>
      <trkpt lat="45.83659" lon="6.75519">
        <ele>1725</ele>
        <time>2026-08-14T11:01:21.540Z</time>
      </trkpt>
      <trkpt lat="45.8366" lon="6.7552">
        <ele>1725</ele>
        <time>2026-08-14T11:01:22.540Z</time>
      </trkpt>
      <trkpt lat="45.83661" lon="6.7552">
        <ele>1724</ele>
        <time>2026-08-14T11:01:23.540Z</time>
      </trkpt>
      <trkpt lat="45.83662" lon="6.75521">
        <ele>1724</ele>
        <time>2026-08-14T11:01:24.540Z</time>
      </trkpt>
      <trkpt lat="45.83663" lon="6.75522">
        <ele>1723</ele>
        <time>2026-08-14T11:01:25.540Z</time>
      </trkpt>
      <trkpt lat="45.83664" lon="6.75522">
        <ele>1723</ele>
        <time>2026-08-14T11:01:26.540Z</time>
      </trkpt>
      <trkpt lat="45.83665" lon="6.75522">
        <ele>1723</ele>
        <time>2026-08-14T11:01:27.540Z</time>
      </trkpt>
      <trkpt lat="45.83666" lon="6.75522">
        <ele>1722</ele>
        <time>2026-08-14T11:01:28.540Z</time>
      </trkpt>
      <trkpt lat="45.83667" lon="6.75522">
        <ele>1722</ele>
        <time>2026-08-14T11:01:29.540Z</time>
      </trkpt>
      <trkpt lat="45.83668" lon="6.75522">
        <ele>1722</ele>
        <time>2026-08-14T11:01:30.540Z</time>
      </trkpt>
      <trkpt lat="45.83669" lon="6.75522">
        <ele>1722</ele>
        <time>2026-08-14T11:01:31.540Z</time>
      </trkpt>
      <trkpt lat="45.8367" lon="6.75521">
        <ele>1722</ele>
        <time>2026-08-14T11:01:32.540Z</time>
      </trkpt>
      <trkpt lat="45.8367" lon="6.75521">
        <ele>1722</ele>
        <time>2026-08-14T11:01:33.540Z</time>
      </trkpt>
      <trkpt lat="45.83672" lon="6.7552">
        <ele>1722</ele>
        <time>2026-08-14T11:01:34.540Z</time>
      </trkpt>
      <trkpt lat="45.83673" lon="6.7552">
        <ele>1722</ele>
        <time>2026-08-14T11:01:35.540Z</time>
      </trkpt>
      <trkpt lat="45.83674" lon="6.7552">
        <ele>1722</ele>
        <time>2026-08-14T11:01:36.540Z</time>
      </trkpt>
      <trkpt lat="45.83675" lon="6.75521">
        <ele>1722</ele>
        <time>2026-08-14T11:01:37.540Z</time>
      </trkpt>
      <trkpt lat="45.83675" lon="6.75522">
        <ele>1722</ele>
        <time>2026-08-14T11:01:38.540Z</time>
      </trkpt>
      <trkpt lat="45.83676" lon="6.75522">
        <ele>1722</ele>
        <time>2026-08-14T11:01:39.540Z</time>
      </trkpt>
      <trkpt lat="45.83677" lon="6.75522">
        <ele>1722</ele>
        <time>2026-08-14T11:01:40.540Z</time>
      </trkpt>
      <trkpt lat="45.83678" lon="6.75522">
        <ele>1722</ele>
        <time>2026-08-14T11:01:41.540Z</time>
      </trkpt>
      <trkpt lat="45.83679" lon="6.75523">
        <ele>1722</ele>
        <time>2026-08-14T11:01:42.540Z</time>
      </trkpt>
      <trkpt lat="45.8368" lon="6.75523">
        <ele>1722</ele>
        <time>2026-08-14T11:01:43.540Z</time>
      </trkpt>
      <trkpt lat="45.83681" lon="6.75525">
        <ele>1722</ele>
        <time>2026-08-14T11:01:44.540Z</time>
      </trkpt>
      <trkpt lat="45.8368" lon="6.75526">
        <ele>1721</ele>
        <time>2026-08-14T11:01:45.540Z</time>
      </trkpt>
      <trkpt lat="45.8368" lon="6.75527">
        <ele>1720</ele>
        <time>2026-08-14T11:01:46.540Z</time>
      </trkpt>
      <trkpt lat="45.83681" lon="6.75528">
        <ele>1719</ele>
        <time>2026-08-14T11:01:47.540Z</time>
      </trkpt>
      <trkpt lat="45.83682" lon="6.7553">
        <ele>1718</ele>
        <time>2026-08-14T11:01:48.540Z</time>
      </trkpt>
      <trkpt lat="45.83684" lon="6.75531">
        <ele>1718</ele>
        <time>2026-08-14T11:01:49.540Z</time>
      </trkpt>
      <trkpt lat="45.83684" lon="6.75532">
        <ele>1717</ele>
        <time>2026-08-14T11:01:50.540Z</time>
      </trkpt>
      <trkpt lat="45.83684" lon="6.75533">
        <ele>1717</ele>
        <time>2026-08-14T11:01:51.540Z</time>
      </trkpt>
      <trkpt lat="45.83683" lon="6.75535">
        <ele>1716</ele>
        <time>2026-08-14T11:01:52.540Z</time>
      </trkpt>
      <trkpt lat="45.83684" lon="6.75536">
        <ele>1716</ele>
        <time>2026-08-14T11:01:53.540Z</time>
      </trkpt>
      <trkpt lat="45.83684" lon="6.75537">
        <ele>1716</ele>
        <time>2026-08-14T11:01:54.540Z</time>
      </trkpt>
      <trkpt lat="45.83684" lon="6.75537">
        <ele>1715</ele>
        <time>2026-08-14T11:01:55.540Z</time>
      </trkpt>
      <trkpt lat="45.83684" lon="6.75538">
        <ele>1715</ele>
        <time>2026-08-14T11:01:56.540Z</time>
      </trkpt>
      <trkpt lat="45.83684" lon="6.75538">
        <ele>1715</ele>
        <time>2026-08-14T11:01:57.540Z</time>
      </trkpt>
      <trkpt lat="45.83684" lon="6.75538">
        <ele>1715</ele>
        <time>2026-08-14T11:01:58.540Z</time>
      </trkpt>
      <trkpt lat="45.83684" lon="6.75539">
        <ele>1715</ele>
        <time>2026-08-14T11:01:59.540Z</time>
      </trkpt>
      <trkpt lat="45.83684" lon="6.7554">
        <ele>1715</ele>
        <time>2026-08-14T11:02:00.540Z</time>
      </trkpt>
      <trkpt lat="45.83684" lon="6.75542">
        <ele>1715</ele>
        <time>2026-08-14T11:02:01.540Z</time>
      </trkpt>
      <trkpt lat="45.83685" lon="6.75543">
        <ele>1715</ele>
        <time>2026-08-14T11:02:02.540Z</time>
      </trkpt>
      <trkpt lat="45.83685" lon="6.75544">
        <ele>1714</ele>
        <time>2026-08-14T11:02:03.540Z</time>
      </trkpt>
      <trkpt lat="45.83687" lon="6.75544">
        <ele>1714</ele>
        <time>2026-08-14T11:02:04.540Z</time>
      </trkpt>
      <trkpt lat="45.83688" lon="6.75546">
        <ele>1714</ele>
        <time>2026-08-14T11:02:05.540Z</time>
      </trkpt>
      <trkpt lat="45.83689" lon="6.75547">
        <ele>1713</ele>
        <time>2026-08-14T11:02:06.540Z</time>
      </trkpt>
      <trkpt lat="45.8369" lon="6.75548">
        <ele>1713</ele>
        <time>2026-08-14T11:02:07.540Z</time>
      </trkpt>
      <trkpt lat="45.83691" lon="6.75549">
        <ele>1713</ele>
        <time>2026-08-14T11:02:08.540Z</time>
      </trkpt>
      <trkpt lat="45.83692" lon="6.7555">
        <ele>1713</ele>
        <time>2026-08-14T11:02:09.540Z</time>
      </trkpt>
      <trkpt lat="45.83693" lon="6.75551">
        <ele>1713</ele>
        <time>2026-08-14T11:02:10.540Z</time>
      </trkpt>
      <trkpt lat="45.83695" lon="6.75552">
        <ele>1712</ele>
        <time>2026-08-14T11:02:11.540Z</time>
      </trkpt>
      <trkpt lat="45.83696" lon="6.75553">
        <ele>1712</ele>
        <time>2026-08-14T11:02:12.540Z</time>
      </trkpt>
      <trkpt lat="45.83698" lon="6.75554">
        <ele>1712</ele>
        <time>2026-08-14T11:02:13.540Z</time>
      </trkpt>
      <trkpt lat="45.83699" lon="6.75553">
        <ele>1712</ele>
        <time>2026-08-14T11:02:14.540Z</time>
      </trkpt>
      <trkpt lat="45.837" lon="6.75553">
        <ele>1711</ele>
        <time>2026-08-14T11:02:15.540Z</time>
      </trkpt>
      <trkpt lat="45.83702" lon="6.75552">
        <ele>1710</ele>
        <time>2026-08-14T11:02:16.540Z</time>
      </trkpt>
      <trkpt lat="45.83703" lon="6.75552">
        <ele>1709</ele>
        <time>2026-08-14T11:02:17.540Z</time>
      </trkpt>
      <trkpt lat="45.83703" lon="6.75552">
        <ele>1708</ele>
        <time>2026-08-14T11:02:18.540Z</time>
      </trkpt>
      <trkpt lat="45.83704" lon="6.75551">
        <ele>1707</ele>
        <time>2026-08-14T11:02:19.540Z</time>
      </trkpt>
      <trkpt lat="45.83705" lon="6.75551">
        <ele>1706</ele>
        <time>2026-08-14T11:02:20.540Z</time>
      </trkpt>
      <trkpt lat="45.83706" lon="6.75552">
        <ele>1705</ele>
        <time>2026-08-14T11:02:21.540Z</time>
      </trkpt>
      <trkpt lat="45.83707" lon="6.75552">
        <ele>1705</ele>
        <time>2026-08-14T11:02:22.540Z</time>
      </trkpt>
      <trkpt lat="45.83707" lon="6.75554">
        <ele>1705</ele>
        <time>2026-08-14T11:02:23.540Z</time>
      </trkpt>
      <trkpt lat="45.83709" lon="6.75556">
        <ele>1704</ele>
        <time>2026-08-14T11:02:24.540Z</time>
      </trkpt>
      <trkpt lat="45.8371" lon="6.75557">
        <ele>1704</ele>
        <time>2026-08-14T11:02:25.540Z</time>
      </trkpt>
      <trkpt lat="45.83711" lon="6.75558">
        <ele>1704</ele>
        <time>2026-08-14T11:02:26.540Z</time>
      </trkpt>
      <trkpt lat="45.83711" lon="6.75558">
        <ele>1703</ele>
        <time>2026-08-14T11:02:27.540Z</time>
      </trkpt>
      <trkpt lat="45.83712" lon="6.75558">
        <ele>1703</ele>
        <time>2026-08-14T11:02:28.540Z</time>
      </trkpt>
      <trkpt lat="45.83713" lon="6.75557">
        <ele>1702</ele>
        <time>2026-08-14T11:02:29.540Z</time>
      </trkpt>
      <trkpt lat="45.83714" lon="6.75558">
        <ele>1702</ele>
        <time>2026-08-14T11:02:30.540Z</time>
      </trkpt>
      <trkpt lat="45.83715" lon="6.75558">
        <ele>1701</ele>
        <time>2026-08-14T11:02:31.540Z</time>
      </trkpt>
      <trkpt lat="45.83717" lon="6.75558">
        <ele>1701</ele>
        <time>2026-08-14T11:02:32.540Z</time>
      </trkpt>
      <trkpt lat="45.83718" lon="6.75558">
        <ele>1700</ele>
        <time>2026-08-14T11:02:33.540Z</time>
      </trkpt>
      <trkpt lat="45.83719" lon="6.75557">
        <ele>1700</ele>
        <time>2026-08-14T11:02:34.540Z</time>
      </trkpt>
      <trkpt lat="45.8372" lon="6.75556">
        <ele>1699</ele>
        <time>2026-08-14T11:02:35.540Z</time>
      </trkpt>
      <trkpt lat="45.83721" lon="6.75555">
        <ele>1698</ele>
        <time>2026-08-14T11:02:36.540Z</time>
      </trkpt>
      <trkpt lat="45.83722" lon="6.75555">
        <ele>1697</ele>
        <time>2026-08-14T11:02:37.540Z</time>
      </trkpt>
      <trkpt lat="45.83724" lon="6.75556">
        <ele>1697</ele>
        <time>2026-08-14T11:02:38.540Z</time>
      </trkpt>
      <trkpt lat="45.83726" lon="6.75556">
        <ele>1696</ele>
        <time>2026-08-14T11:02:39.540Z</time>
      </trkpt>
      <trkpt lat="45.83727" lon="6.75556">
        <ele>1695</ele>
        <time>2026-08-14T11:02:40.540Z</time>
      </trkpt>
      <trkpt lat="45.83728" lon="6.75554">
        <ele>1695</ele>
        <time>2026-08-14T11:02:41.540Z</time>
      </trkpt>
      <trkpt lat="45.83729" lon="6.75553">
        <ele>1694</ele>
        <time>2026-08-14T11:02:42.540Z</time>
      </trkpt>
      <trkpt lat="45.8373" lon="6.75553">
        <ele>1694</ele>
        <time>2026-08-14T11:02:43.540Z</time>
      </trkpt>
      <trkpt lat="45.83731" lon="6.75553">
        <ele>1693</ele>
        <time>2026-08-14T11:02:44.540Z</time>
      </trkpt>
      <trkpt lat="45.83732" lon="6.75553">
        <ele>1693</ele>
        <time>2026-08-14T11:02:45.540Z</time>
      </trkpt>
      <trkpt lat="45.83732" lon="6.75552">
        <ele>1692</ele>
        <time>2026-08-14T11:02:46.540Z</time>
      </trkpt>
      <trkpt lat="45.83733" lon="6.75551">
        <ele>1691</ele>
        <time>2026-08-14T11:02:47.540Z</time>
      </trkpt>
      <trkpt lat="45.83733" lon="6.7555">
        <ele>1690</ele>
        <time>2026-08-14T11:02:48.540Z</time>
      </trkpt>
      <trkpt lat="45.83734" lon="6.7555">
        <ele>1690</ele>
        <time>2026-08-14T11:02:49.540Z</time>
      </trkpt>
      <trkpt lat="45.83735" lon="6.7555">
        <ele>1689</ele>
        <time>2026-08-14T11:02:50.540Z</time>
      </trkpt>
      <trkpt lat="45.83737" lon="6.75551">
        <ele>1689</ele>
        <time>2026-08-14T11:02:51.540Z</time>
      </trkpt>
      <trkpt lat="45.8374" lon="6.75552">
        <ele>1689</ele>
        <time>2026-08-14T11:02:52.540Z</time>
      </trkpt>
      <trkpt lat="45.83742" lon="6.75552">
        <ele>1689</ele>
        <time>2026-08-14T11:02:53.540Z</time>
      </trkpt>
      <trkpt lat="45.83743" lon="6.75553">
        <ele>1688</ele>
        <time>2026-08-14T11:02:54.540Z</time>
      </trkpt>
      <trkpt lat="45.83744" lon="6.75553">
        <ele>1688</ele>
        <time>2026-08-14T11:02:55.540Z</time>
      </trkpt>
      <trkpt lat="45.83744" lon="6.75553">
        <ele>1688</ele>
        <time>2026-08-14T11:02:56.540Z</time>
      </trkpt>
      <trkpt lat="45.83745" lon="6.75552">
        <ele>1688</ele>
        <time>2026-08-14T11:02:57.540Z</time>
      </trkpt>
      <trkpt lat="45.83745" lon="6.75552">
        <ele>1688</ele>
        <time>2026-08-14T11:02:58.540Z</time>
      </trkpt>
      <trkpt lat="45.83746" lon="6.75552">
        <ele>1688</ele>
        <time>2026-08-14T11:02:59.540Z</time>
      </trkpt>
      <trkpt lat="45.83747" lon="6.75551">
        <ele>1688</ele>
        <time>2026-08-14T11:03:00.540Z</time>
      </trkpt>
      <trkpt lat="45.83747" lon="6.75551">
        <ele>1688</ele>
        <time>2026-08-14T11:03:01.540Z</time>
      </trkpt>
      <trkpt lat="45.83748" lon="6.75551">
        <ele>1688</ele>
        <time>2026-08-14T11:03:02.540Z</time>
      </trkpt>
      <trkpt lat="45.8375" lon="6.75551">
        <ele>1688</ele>
        <time>2026-08-14T11:03:03.540Z</time>
      </trkpt>
      <trkpt lat="45.83751" lon="6.7555">
        <ele>1687</ele>
        <time>2026-08-14T11:03:04.540Z</time>
      </trkpt>
      <trkpt lat="45.83752" lon="6.75549">
        <ele>1687</ele>
        <time>2026-08-14T11:03:05.540Z</time>
      </trkpt>
      <trkpt lat="45.83753" lon="6.75548">
        <ele>1686</ele>
        <time>2026-08-14T11:03:06.540Z</time>
      </trkpt>
      <trkpt lat="45.83754" lon="6.75549">
        <ele>1686</ele>
        <time>2026-08-14T11:03:07.540Z</time>
      </trkpt>
      <trkpt lat="45.83756" lon="6.75549">
        <ele>1685</ele>
        <time>2026-08-14T11:03:08.540Z</time>
      </trkpt>
      <trkpt lat="45.83757" lon="6.75549">
        <ele>1685</ele>
        <time>2026-08-14T11:03:09.540Z</time>
      </trkpt>
      <trkpt lat="45.83758" lon="6.75549">
        <ele>1685</ele>
        <time>2026-08-14T11:03:10.540Z</time>
      </trkpt>
      <trkpt lat="45.8376" lon="6.75549">
        <ele>1685</ele>
        <time>2026-08-14T11:03:11.540Z</time>
      </trkpt>
      <trkpt lat="45.83762" lon="6.75548">
        <ele>1684</ele>
        <time>2026-08-14T11:03:12.540Z</time>
      </trkpt>
      <trkpt lat="45.83763" lon="6.75548">
        <ele>1684</ele>
        <time>2026-08-14T11:03:13.540Z</time>
      </trkpt>
      <trkpt lat="45.83764" lon="6.75547">
        <ele>1683</ele>
        <time>2026-08-14T11:03:14.540Z</time>
      </trkpt>
      <trkpt lat="45.83765" lon="6.75547">
        <ele>1683</ele>
        <time>2026-08-14T11:03:15.540Z</time>
      </trkpt>
      <trkpt lat="45.83766" lon="6.75547">
        <ele>1683</ele>
        <time>2026-08-14T11:03:16.540Z</time>
      </trkpt>
      <trkpt lat="45.83766" lon="6.75547">
        <ele>1683</ele>
        <time>2026-08-14T11:03:17.540Z</time>
      </trkpt>
      <trkpt lat="45.83767" lon="6.75547">
        <ele>1682</ele>
        <time>2026-08-14T11:03:18.540Z</time>
      </trkpt>
      <trkpt lat="45.83768" lon="6.75546">
        <ele>1682</ele>
        <time>2026-08-14T11:03:19.540Z</time>
      </trkpt>
      <trkpt lat="45.83768" lon="6.75545">
        <ele>1682</ele>
        <time>2026-08-14T11:03:20.540Z</time>
      </trkpt>
      <trkpt lat="45.83769" lon="6.75545">
        <ele>1682</ele>
        <time>2026-08-14T11:03:21.540Z</time>
      </trkpt>
      <trkpt lat="45.8377" lon="6.75545">
        <ele>1681</ele>
        <time>2026-08-14T11:03:22.540Z</time>
      </trkpt>
      <trkpt lat="45.83772" lon="6.75545">
        <ele>1681</ele>
        <time>2026-08-14T11:03:23.540Z</time>
      </trkpt>
      <trkpt lat="45.83773" lon="6.75545">
        <ele>1681</ele>
        <time>2026-08-14T11:03:24.540Z</time>
      </trkpt>
      <trkpt lat="45.83774" lon="6.75545">
        <ele>1680</ele>
        <time>2026-08-14T11:03:25.540Z</time>
      </trkpt>
      <trkpt lat="45.83776" lon="6.75545">
        <ele>1680</ele>
        <time>2026-08-14T11:03:26.540Z</time>
      </trkpt>
      <trkpt lat="45.83777" lon="6.75544">
        <ele>1680</ele>
        <time>2026-08-14T11:03:27.540Z</time>
      </trkpt>
      <trkpt lat="45.83778" lon="6.75544">
        <ele>1680</ele>
        <time>2026-08-14T11:03:28.540Z</time>
      </trkpt>
      <trkpt lat="45.83779" lon="6.75544">
        <ele>1680</ele>
        <time>2026-08-14T11:03:29.540Z</time>
      </trkpt>
      <trkpt lat="45.83781" lon="6.75544">
        <ele>1680</ele>
        <time>2026-08-14T11:03:30.540Z</time>
      </trkpt>
      <trkpt lat="45.83783" lon="6.75544">
        <ele>1680</ele>
        <time>2026-08-14T11:03:31.540Z</time>
      </trkpt>
      <trkpt lat="45.83785" lon="6.75544">
        <ele>1680</ele>
        <time>2026-08-14T11:03:32.540Z</time>
      </trkpt>
      <trkpt lat="45.83786" lon="6.75545">
        <ele>1679</ele>
        <time>2026-08-14T11:03:33.540Z</time>
      </trkpt>
      <trkpt lat="45.83788" lon="6.75546">
        <ele>1679</ele>
        <time>2026-08-14T11:03:34.540Z</time>
      </trkpt>
      <trkpt lat="45.83789" lon="6.75547">
        <ele>1678</ele>
        <time>2026-08-14T11:03:35.540Z</time>
      </trkpt>
      <trkpt lat="45.83791" lon="6.75547">
        <ele>1678</ele>
        <time>2026-08-14T11:03:36.540Z</time>
      </trkpt>
      <trkpt lat="45.83792" lon="6.75548">
        <ele>1677</ele>
        <time>2026-08-14T11:03:37.540Z</time>
      </trkpt>
      <trkpt lat="45.83793" lon="6.75549">
        <ele>1677</ele>
        <time>2026-08-14T11:03:38.540Z</time>
      </trkpt>
      <trkpt lat="45.83794" lon="6.7555">
        <ele>1677</ele>
        <time>2026-08-14T11:03:39.540Z</time>
      </trkpt>
      <trkpt lat="45.83796" lon="6.75551">
        <ele>1677</ele>
        <time>2026-08-14T11:03:40.540Z</time>
      </trkpt>
      <trkpt lat="45.83796" lon="6.75552">
        <ele>1676</ele>
        <time>2026-08-14T11:03:41.540Z</time>
      </trkpt>
      <trkpt lat="45.83797" lon="6.75553">
        <ele>1676</ele>
        <time>2026-08-14T11:03:42.540Z</time>
      </trkpt>
      <trkpt lat="45.83799" lon="6.75553">
        <ele>1676</ele>
        <time>2026-08-14T11:03:43.540Z</time>
      </trkpt>
      <trkpt lat="45.838" lon="6.75553">
        <ele>1675</ele>
        <time>2026-08-14T11:03:44.540Z</time>
      </trkpt>
      <trkpt lat="45.83801" lon="6.75554">
        <ele>1675</ele>
        <time>2026-08-14T11:03:45.540Z</time>
      </trkpt>
      <trkpt lat="45.83802" lon="6.75555">
        <ele>1674</ele>
        <time>2026-08-14T11:03:46.540Z</time>
      </trkpt>
      <trkpt lat="45.83804" lon="6.75557">
        <ele>1674</ele>
        <time>2026-08-14T11:03:47.540Z</time>
      </trkpt>
      <trkpt lat="45.83805" lon="6.75558">
        <ele>1673</ele>
        <time>2026-08-14T11:03:48.540Z</time>
      </trkpt>
      <trkpt lat="45.83806" lon="6.75559">
        <ele>1673</ele>
        <time>2026-08-14T11:03:49.540Z</time>
      </trkpt>
      <trkpt lat="45.83807" lon="6.75559">
        <ele>1673</ele>
        <time>2026-08-14T11:03:50.540Z</time>
      </trkpt>
      <trkpt lat="45.83808" lon="6.75559">
        <ele>1672</ele>
        <time>2026-08-14T11:03:51.540Z</time>
      </trkpt>
      <trkpt lat="45.8381" lon="6.75559">
        <ele>1672</ele>
        <time>2026-08-14T11:03:52.540Z</time>
      </trkpt>
      <trkpt lat="45.83811" lon="6.7556">
        <ele>1672</ele>
        <time>2026-08-14T11:03:53.540Z</time>
      </trkpt>
      <trkpt lat="45.83812" lon="6.7556">
        <ele>1671</ele>
        <time>2026-08-14T11:03:54.540Z</time>
      </trkpt>
      <trkpt lat="45.83813" lon="6.7556">
        <ele>1671</ele>
        <time>2026-08-14T11:03:55.540Z</time>
      </trkpt>
      <trkpt lat="45.83814" lon="6.75561">
        <ele>1670</ele>
        <time>2026-08-14T11:03:56.540Z</time>
      </trkpt>
      <trkpt lat="45.83816" lon="6.75562">
        <ele>1670</ele>
        <time>2026-08-14T11:03:57.540Z</time>
      </trkpt>
      <trkpt lat="45.83818" lon="6.75563">
        <ele>1669</ele>
        <time>2026-08-14T11:03:58.540Z</time>
      </trkpt>
      <trkpt lat="45.83819" lon="6.75563">
        <ele>1669</ele>
        <time>2026-08-14T11:03:59.540Z</time>
      </trkpt>
      <trkpt lat="45.83821" lon="6.75563">
        <ele>1668</ele>
        <time>2026-08-14T11:04:00.540Z</time>
      </trkpt>
      <trkpt lat="45.83822" lon="6.75564">
        <ele>1668</ele>
        <time>2026-08-14T11:04:01.540Z</time>
      </trkpt>
      <trkpt lat="45.83824" lon="6.75565">
        <ele>1667</ele>
        <time>2026-08-14T11:04:02.540Z</time>
      </trkpt>
      <trkpt lat="45.83825" lon="6.75566">
        <ele>1667</ele>
        <time>2026-08-14T11:04:03.540Z</time>
      </trkpt>
      <trkpt lat="45.83826" lon="6.75567">
        <ele>1667</ele>
        <time>2026-08-14T11:04:04.540Z</time>
      </trkpt>
      <trkpt lat="45.83828" lon="6.75567">
        <ele>1667</ele>
        <time>2026-08-14T11:04:05.540Z</time>
      </trkpt>
      <trkpt lat="45.83829" lon="6.75567">
        <ele>1666</ele>
        <time>2026-08-14T11:04:06.540Z</time>
      </trkpt>
      <trkpt lat="45.83831" lon="6.75567">
        <ele>1666</ele>
        <time>2026-08-14T11:04:07.540Z</time>
      </trkpt>
      <trkpt lat="45.83833" lon="6.75567">
        <ele>1665</ele>
        <time>2026-08-14T11:04:08.540Z</time>
      </trkpt>
      <trkpt lat="45.83834" lon="6.75567">
        <ele>1663</ele>
        <time>2026-08-14T11:04:09.540Z</time>
      </trkpt>
      <trkpt lat="45.83836" lon="6.75568">
        <ele>1662</ele>
        <time>2026-08-14T11:04:10.540Z</time>
      </trkpt>
      <trkpt lat="45.83837" lon="6.75569">
        <ele>1661</ele>
        <time>2026-08-14T11:04:11.540Z</time>
      </trkpt>
      <trkpt lat="45.83839" lon="6.7557">
        <ele>1659</ele>
        <time>2026-08-14T11:04:12.540Z</time>
      </trkpt>
      <trkpt lat="45.83841" lon="6.7557">
        <ele>1658</ele>
        <time>2026-08-14T11:04:13.540Z</time>
      </trkpt>
      <trkpt lat="45.83843" lon="6.75571">
        <ele>1657</ele>
        <time>2026-08-14T11:04:14.540Z</time>
      </trkpt>
      <trkpt lat="45.83845" lon="6.75571">
        <ele>1656</ele>
        <time>2026-08-14T11:04:15.540Z</time>
      </trkpt>
      <trkpt lat="45.83848" lon="6.75572">
        <ele>1655</ele>
        <time>2026-08-14T11:04:16.540Z</time>
      </trkpt>
      <trkpt lat="45.8385" lon="6.75572">
        <ele>1655</ele>
        <time>2026-08-14T11:04:17.540Z</time>
      </trkpt>
      <trkpt lat="45.83853" lon="6.75573">
        <ele>1654</ele>
        <time>2026-08-14T11:04:18.540Z</time>
      </trkpt>
      <trkpt lat="45.83855" lon="6.75574">
        <ele>1653</ele>
        <time>2026-08-14T11:04:19.540Z</time>
      </trkpt>
      <trkpt lat="45.83858" lon="6.75575">
        <ele>1653</ele>
        <time>2026-08-14T11:04:20.540Z</time>
      </trkpt>
      <trkpt lat="45.8386" lon="6.75577">
        <ele>1652</ele>
        <time>2026-08-14T11:04:21.540Z</time>
      </trkpt>
      <trkpt lat="45.83862" lon="6.75578">
        <ele>1652</ele>
        <time>2026-08-14T11:04:22.540Z</time>
      </trkpt>
      <trkpt lat="45.83865" lon="6.75578">
        <ele>1652</ele>
        <time>2026-08-14T11:04:23.540Z</time>
      </trkpt>
      <trkpt lat="45.83867" lon="6.75579">
        <ele>1651</ele>
        <time>2026-08-14T11:04:24.540Z</time>
      </trkpt>
      <trkpt lat="45.83869" lon="6.75579">
        <ele>1650</ele>
        <time>2026-08-14T11:04:25.540Z</time>
      </trkpt>
      <trkpt lat="45.83871" lon="6.75579">
        <ele>1649</ele>
        <time>2026-08-14T11:04:26.540Z</time>
      </trkpt>
      <trkpt lat="45.83873" lon="6.75579">
        <ele>1648</ele>
        <time>2026-08-14T11:04:27.540Z</time>
      </trkpt>
      <trkpt lat="45.83874" lon="6.75579">
        <ele>1647</ele>
        <time>2026-08-14T11:04:28.540Z</time>
      </trkpt>
      <trkpt lat="45.83876" lon="6.75579">
        <ele>1647</ele>
        <time>2026-08-14T11:04:29.540Z</time>
      </trkpt>
      <trkpt lat="45.83877" lon="6.75578">
        <ele>1646</ele>
        <time>2026-08-14T11:04:30.540Z</time>
      </trkpt>
      <trkpt lat="45.83879" lon="6.75577">
        <ele>1645</ele>
        <time>2026-08-14T11:04:31.540Z</time>
      </trkpt>
      <trkpt lat="45.83881" lon="6.75577">
        <ele>1645</ele>
        <time>2026-08-14T11:04:32.540Z</time>
      </trkpt>
      <trkpt lat="45.83882" lon="6.75577">
        <ele>1644</ele>
        <time>2026-08-14T11:04:33.540Z</time>
      </trkpt>
      <trkpt lat="45.83884" lon="6.75577">
        <ele>1644</ele>
        <time>2026-08-14T11:04:34.540Z</time>
      </trkpt>
      <trkpt lat="45.83886" lon="6.75577">
        <ele>1643</ele>
        <time>2026-08-14T11:04:35.540Z</time>
      </trkpt>
      <trkpt lat="45.83888" lon="6.75577">
        <ele>1643</ele>
        <time>2026-08-14T11:04:36.540Z</time>
      </trkpt>
      <trkpt lat="45.83889" lon="6.75576">
        <ele>1642</ele>
        <time>2026-08-14T11:04:37.540Z</time>
      </trkpt>
      <trkpt lat="45.83891" lon="6.75576">
        <ele>1642</ele>
        <time>2026-08-14T11:04:38.540Z</time>
      </trkpt>
      <trkpt lat="45.83893" lon="6.75576">
        <ele>1641</ele>
        <time>2026-08-14T11:04:39.540Z</time>
      </trkpt>
      <trkpt lat="45.83895" lon="6.75575">
        <ele>1641</ele>
        <time>2026-08-14T11:04:40.540Z</time>
      </trkpt>
      <trkpt lat="45.83896" lon="6.75575">
        <ele>1640</ele>
        <time>2026-08-14T11:04:41.540Z</time>
      </trkpt>
      <trkpt lat="45.83898" lon="6.75575">
        <ele>1639</ele>
        <time>2026-08-14T11:04:42.540Z</time>
      </trkpt>
      <trkpt lat="45.83899" lon="6.75576">
        <ele>1639</ele>
        <time>2026-08-14T11:04:43.540Z</time>
      </trkpt>
      <trkpt lat="45.83901" lon="6.75576">
        <ele>1638</ele>
        <time>2026-08-14T11:04:44.540Z</time>
      </trkpt>
      <trkpt lat="45.83904" lon="6.75577">
        <ele>1637</ele>
        <time>2026-08-14T11:04:45.540Z</time>
      </trkpt>
      <trkpt lat="45.83908" lon="6.7558">
        <ele>1637</ele>
        <time>2026-08-14T11:04:46.540Z</time>
      </trkpt>
      <trkpt lat="45.8391" lon="6.75582">
        <ele>1636</ele>
        <time>2026-08-14T11:04:47.540Z</time>
      </trkpt>
      <trkpt lat="45.83912" lon="6.75582">
        <ele>1636</ele>
        <time>2026-08-14T11:04:48.540Z</time>
      </trkpt>
      <trkpt lat="45.83913" lon="6.75582">
        <ele>1636</ele>
        <time>2026-08-14T11:04:49.540Z</time>
      </trkpt>
      <trkpt lat="45.83915" lon="6.75583">
        <ele>1636</ele>
        <time>2026-08-14T11:04:50.540Z</time>
      </trkpt>
      <trkpt lat="45.83917" lon="6.75583">
        <ele>1636</ele>
        <time>2026-08-14T11:04:51.540Z</time>
      </trkpt>
      <trkpt lat="45.8392" lon="6.75583">
        <ele>1636</ele>
        <time>2026-08-14T11:04:52.540Z</time>
      </trkpt>
      <trkpt lat="45.83922" lon="6.75583">
        <ele>1636</ele>
        <time>2026-08-14T11:04:53.540Z</time>
      </trkpt>
      <trkpt lat="45.83925" lon="6.75583">
        <ele>1636</ele>
        <time>2026-08-14T11:04:54.540Z</time>
      </trkpt>
      <trkpt lat="45.83927" lon="6.75583">
        <ele>1635</ele>
        <time>2026-08-14T11:04:55.540Z</time>
      </trkpt>
      <trkpt lat="45.83929" lon="6.75584">
        <ele>1635</ele>
        <time>2026-08-14T11:04:56.540Z</time>
      </trkpt>
      <trkpt lat="45.83931" lon="6.75585">
        <ele>1634</ele>
        <time>2026-08-14T11:04:57.540Z</time>
      </trkpt>
      <trkpt lat="45.83932" lon="6.75586">
        <ele>1634</ele>
        <time>2026-08-14T11:04:58.540Z</time>
      </trkpt>
      <trkpt lat="45.83933" lon="6.75587">
        <ele>1633</ele>
        <time>2026-08-14T11:04:59.540Z</time>
      </trkpt>
      <trkpt lat="45.83934" lon="6.75588">
        <ele>1633</ele>
        <time>2026-08-14T11:05:00.540Z</time>
      </trkpt>
      <trkpt lat="45.83936" lon="6.75589">
        <ele>1633</ele>
        <time>2026-08-14T11:05:01.540Z</time>
      </trkpt>
      <trkpt lat="45.83937" lon="6.75591">
        <ele>1633</ele>
        <time>2026-08-14T11:05:02.540Z</time>
      </trkpt>
      <trkpt lat="45.83939" lon="6.75592">
        <ele>1633</ele>
        <time>2026-08-14T11:05:03.540Z</time>
      </trkpt>
      <trkpt lat="45.8394" lon="6.75593">
        <ele>1633</ele>
        <time>2026-08-14T11:05:04.540Z</time>
      </trkpt>
      <trkpt lat="45.83942" lon="6.75594">
        <ele>1633</ele>
        <time>2026-08-14T11:05:05.540Z</time>
      </trkpt>
      <trkpt lat="45.83943" lon="6.75594">
        <ele>1633</ele>
        <time>2026-08-14T11:05:06.540Z</time>
      </trkpt>
      <trkpt lat="45.83945" lon="6.75595">
        <ele>1633</ele>
        <time>2026-08-14T11:05:07.540Z</time>
      </trkpt>
      <trkpt lat="45.83946" lon="6.75595">
        <ele>1632</ele>
        <time>2026-08-14T11:05:08.540Z</time>
      </trkpt>
      <trkpt lat="45.83948" lon="6.75594">
        <ele>1631</ele>
        <time>2026-08-14T11:05:09.540Z</time>
      </trkpt>
      <trkpt lat="45.83949" lon="6.75594">
        <ele>1631</ele>
        <time>2026-08-14T11:05:10.540Z</time>
      </trkpt>
      <trkpt lat="45.8395" lon="6.75595">
        <ele>1631</ele>
        <time>2026-08-14T11:05:11.540Z</time>
      </trkpt>
      <trkpt lat="45.83951" lon="6.75595">
        <ele>1630</ele>
        <time>2026-08-14T11:05:12.540Z</time>
      </trkpt>
      <trkpt lat="45.83952" lon="6.75595">
        <ele>1630</ele>
        <time>2026-08-14T11:05:13.540Z</time>
      </trkpt>
      <trkpt lat="45.83953" lon="6.75596">
        <ele>1630</ele>
        <time>2026-08-14T11:05:14.540Z</time>
      </trkpt>
      <trkpt lat="45.83953" lon="6.75596">
        <ele>1630</ele>
        <time>2026-08-14T11:05:15.540Z</time>
      </trkpt>
      <trkpt lat="45.83954" lon="6.75596">
        <ele>1630</ele>
        <time>2026-08-14T11:05:16.540Z</time>
      </trkpt>
      <trkpt lat="45.83955" lon="6.75596">
        <ele>1630</ele>
        <time>2026-08-14T11:05:17.540Z</time>
      </trkpt>
      <trkpt lat="45.83957" lon="6.75595">
        <ele>1630</ele>
        <time>2026-08-14T11:05:18.540Z</time>
      </trkpt>
      <trkpt lat="45.83958" lon="6.75595">
        <ele>1630</ele>
        <time>2026-08-14T11:05:19.540Z</time>
      </trkpt>
      <trkpt lat="45.8396" lon="6.75594">
        <ele>1629</ele>
        <time>2026-08-14T11:05:20.540Z</time>
      </trkpt>
      <trkpt lat="45.83961" lon="6.75594">
        <ele>1629</ele>
        <time>2026-08-14T11:05:21.540Z</time>
      </trkpt>
      <trkpt lat="45.83963" lon="6.75593">
        <ele>1629</ele>
        <time>2026-08-14T11:05:22.540Z</time>
      </trkpt>
      <trkpt lat="45.83964" lon="6.75593">
        <ele>1629</ele>
        <time>2026-08-14T11:05:23.540Z</time>
      </trkpt>
      <trkpt lat="45.83965" lon="6.75592">
        <ele>1628</ele>
        <time>2026-08-14T11:05:24.540Z</time>
      </trkpt>
      <trkpt lat="45.83967" lon="6.75592">
        <ele>1628</ele>
        <time>2026-08-14T11:05:25.540Z</time>
      </trkpt>
      <trkpt lat="45.83967" lon="6.75593">
        <ele>1627</ele>
        <time>2026-08-14T11:05:26.540Z</time>
      </trkpt>
      <trkpt lat="45.83968" lon="6.75594">
        <ele>1626</ele>
        <time>2026-08-14T11:05:27.540Z</time>
      </trkpt>
      <trkpt lat="45.83968" lon="6.75595">
        <ele>1626</ele>
        <time>2026-08-14T11:05:28.540Z</time>
      </trkpt>
      <trkpt lat="45.83968" lon="6.75596">
        <ele>1625</ele>
        <time>2026-08-14T11:05:29.540Z</time>
      </trkpt>
      <trkpt lat="45.83967" lon="6.75598">
        <ele>1624</ele>
        <time>2026-08-14T11:05:30.540Z</time>
      </trkpt>
      <trkpt lat="45.83967" lon="6.756">
        <ele>1624</ele>
        <time>2026-08-14T11:05:31.540Z</time>
      </trkpt>
      <trkpt lat="45.83967" lon="6.75601">
        <ele>1623</ele>
        <time>2026-08-14T11:05:32.540Z</time>
      </trkpt>
      <trkpt lat="45.83967" lon="6.75603">
        <ele>1623</ele>
        <time>2026-08-14T11:05:33.540Z</time>
      </trkpt>
      <trkpt lat="45.83966" lon="6.75604">
        <ele>1622</ele>
        <time>2026-08-14T11:05:34.540Z</time>
      </trkpt>
      <trkpt lat="45.83966" lon="6.75605">
        <ele>1622</ele>
        <time>2026-08-14T11:05:35.540Z</time>
      </trkpt>
      <trkpt lat="45.83966" lon="6.75606">
        <ele>1621</ele>
        <time>2026-08-14T11:05:36.540Z</time>
      </trkpt>
      <trkpt lat="45.83965" lon="6.75607">
        <ele>1620</ele>
        <time>2026-08-14T11:05:37.540Z</time>
      </trkpt>
      <trkpt lat="45.83965" lon="6.75607">
        <ele>1619</ele>
        <time>2026-08-14T11:05:38.540Z</time>
      </trkpt>
      <trkpt lat="45.83965" lon="6.75608">
        <ele>1619</ele>
        <time>2026-08-14T11:05:39.540Z</time>
      </trkpt>
      <trkpt lat="45.83964" lon="6.75609">
        <ele>1618</ele>
        <time>2026-08-14T11:05:40.540Z</time>
      </trkpt>
      <trkpt lat="45.83963" lon="6.7561">
        <ele>1618</ele>
        <time>2026-08-14T11:05:41.540Z</time>
      </trkpt>
      <trkpt lat="45.83963" lon="6.75611">
        <ele>1618</ele>
        <time>2026-08-14T11:05:42.540Z</time>
      </trkpt>
      <trkpt lat="45.83962" lon="6.75612">
        <ele>1618</ele>
        <time>2026-08-14T11:05:43.540Z</time>
      </trkpt>
      <trkpt lat="45.83962" lon="6.75614">
        <ele>1617</ele>
        <time>2026-08-14T11:05:44.540Z</time>
      </trkpt>
      <trkpt lat="45.83962" lon="6.75616">
        <ele>1617</ele>
        <time>2026-08-14T11:05:45.540Z</time>
      </trkpt>
      <trkpt lat="45.83961" lon="6.75618">
        <ele>1616</ele>
        <time>2026-08-14T11:05:46.540Z</time>
      </trkpt>
      <trkpt lat="45.8396" lon="6.7562">
        <ele>1616</ele>
        <time>2026-08-14T11:05:47.540Z</time>
      </trkpt>
      <trkpt lat="45.8396" lon="6.75622">
        <ele>1616</ele>
        <time>2026-08-14T11:05:48.540Z</time>
      </trkpt>
      <trkpt lat="45.83959" lon="6.75623">
        <ele>1615</ele>
        <time>2026-08-14T11:05:49.540Z</time>
      </trkpt>
      <trkpt lat="45.83958" lon="6.75625">
        <ele>1615</ele>
        <time>2026-08-14T11:05:50.540Z</time>
      </trkpt>
      <trkpt lat="45.83957" lon="6.75626">
        <ele>1614</ele>
        <time>2026-08-14T11:05:51.540Z</time>
      </trkpt>
      <trkpt lat="45.83956" lon="6.75627">
        <ele>1614</ele>
        <time>2026-08-14T11:05:52.540Z</time>
      </trkpt>
      <trkpt lat="45.83956" lon="6.75628">
        <ele>1613</ele>
        <time>2026-08-14T11:05:53.540Z</time>
      </trkpt>
      <trkpt lat="45.83954" lon="6.7563">
        <ele>1612</ele>
        <time>2026-08-14T11:05:54.540Z</time>
      </trkpt>
      <trkpt lat="45.83952" lon="6.75631">
        <ele>1612</ele>
        <time>2026-08-14T11:05:55.540Z</time>
      </trkpt>
      <trkpt lat="45.83951" lon="6.75632">
        <ele>1613</ele>
        <time>2026-08-14T11:05:56.540Z</time>
      </trkpt>
      <trkpt lat="45.83949" lon="6.75633">
        <ele>1613</ele>
        <time>2026-08-14T11:05:57.540Z</time>
      </trkpt>
      <trkpt lat="45.83948" lon="6.75634">
        <ele>1613</ele>
        <time>2026-08-14T11:05:58.540Z</time>
      </trkpt>
      <trkpt lat="45.83947" lon="6.75635">
        <ele>1612</ele>
        <time>2026-08-14T11:05:59.540Z</time>
      </trkpt>
      <trkpt lat="45.83945" lon="6.75635">
        <ele>1612</ele>
        <time>2026-08-14T11:06:00.540Z</time>
      </trkpt>
      <trkpt lat="45.83944" lon="6.75636">
        <ele>1612</ele>
        <time>2026-08-14T11:06:01.540Z</time>
      </trkpt>
      <trkpt lat="45.83942" lon="6.75637">
        <ele>1612</ele>
        <time>2026-08-14T11:06:02.540Z</time>
      </trkpt>
      <trkpt lat="45.83941" lon="6.75638">
        <ele>1611</ele>
        <time>2026-08-14T11:06:03.540Z</time>
      </trkpt>
      <trkpt lat="45.8394" lon="6.75639">
        <ele>1610</ele>
        <time>2026-08-14T11:06:04.540Z</time>
      </trkpt>
      <trkpt lat="45.83938" lon="6.7564">
        <ele>1609</ele>
        <time>2026-08-14T11:06:05.540Z</time>
      </trkpt>
      <trkpt lat="45.83936" lon="6.75641">
        <ele>1609</ele>
        <time>2026-08-14T11:06:06.540Z</time>
      </trkpt>
      <trkpt lat="45.83934" lon="6.75641">
        <ele>1608</ele>
        <time>2026-08-14T11:06:07.540Z</time>
      </trkpt>
      <trkpt lat="45.83932" lon="6.75642">
        <ele>1607</ele>
        <time>2026-08-14T11:06:08.540Z</time>
      </trkpt>
      <trkpt lat="45.8393" lon="6.75643">
        <ele>1607</ele>
        <time>2026-08-14T11:06:09.540Z</time>
      </trkpt>
      <trkpt lat="45.83929" lon="6.75645">
        <ele>1606</ele>
        <time>2026-08-14T11:06:10.540Z</time>
      </trkpt>
      <trkpt lat="45.83927" lon="6.75646">
        <ele>1606</ele>
        <time>2026-08-14T11:06:11.540Z</time>
      </trkpt>
      <trkpt lat="45.83926" lon="6.75647">
        <ele>1605</ele>
        <time>2026-08-14T11:06:12.540Z</time>
      </trkpt>
      <trkpt lat="45.83925" lon="6.75648">
        <ele>1604</ele>
        <time>2026-08-14T11:06:13.540Z</time>
      </trkpt>
      <trkpt lat="45.83924" lon="6.75648">
        <ele>1603</ele>
        <time>2026-08-14T11:06:14.540Z</time>
      </trkpt>
      <trkpt lat="45.83922" lon="6.75648">
        <ele>1602</ele>
        <time>2026-08-14T11:06:15.540Z</time>
      </trkpt>
      <trkpt lat="45.83921" lon="6.75649">
        <ele>1601</ele>
        <time>2026-08-14T11:06:16.540Z</time>
      </trkpt>
      <trkpt lat="45.83919" lon="6.75649">
        <ele>1600</ele>
        <time>2026-08-14T11:06:17.540Z</time>
      </trkpt>
      <trkpt lat="45.83917" lon="6.7565">
        <ele>1599</ele>
        <time>2026-08-14T11:06:18.540Z</time>
      </trkpt>
      <trkpt lat="45.83916" lon="6.75652">
        <ele>1599</ele>
        <time>2026-08-14T11:06:19.540Z</time>
      </trkpt>
      <trkpt lat="45.83914" lon="6.75653">
        <ele>1598</ele>
        <time>2026-08-14T11:06:20.540Z</time>
      </trkpt>
      <trkpt lat="45.83913" lon="6.75654">
        <ele>1598</ele>
        <time>2026-08-14T11:06:21.540Z</time>
      </trkpt>
      <trkpt lat="45.83912" lon="6.75655">
        <ele>1598</ele>
        <time>2026-08-14T11:06:22.540Z</time>
      </trkpt>
      <trkpt lat="45.83911" lon="6.75657">
        <ele>1598</ele>
        <time>2026-08-14T11:06:23.540Z</time>
      </trkpt>
      <trkpt lat="45.8391" lon="6.75658">
        <ele>1598</ele>
        <time>2026-08-14T11:06:24.540Z</time>
      </trkpt>
      <trkpt lat="45.83908" lon="6.7566">
        <ele>1597</ele>
        <time>2026-08-14T11:06:25.540Z</time>
      </trkpt>
      <trkpt lat="45.83906" lon="6.75661">
        <ele>1597</ele>
        <time>2026-08-14T11:06:26.540Z</time>
      </trkpt>
      <trkpt lat="45.83905" lon="6.75663">
        <ele>1596</ele>
        <time>2026-08-14T11:06:27.540Z</time>
      </trkpt>
      <trkpt lat="45.83903" lon="6.75663">
        <ele>1596</ele>
        <time>2026-08-14T11:06:28.540Z</time>
      </trkpt>
      <trkpt lat="45.83902" lon="6.75664">
        <ele>1595</ele>
        <time>2026-08-14T11:06:29.540Z</time>
      </trkpt>
      <trkpt lat="45.83901" lon="6.75665">
        <ele>1595</ele>
        <time>2026-08-14T11:06:30.540Z</time>
      </trkpt>
      <trkpt lat="45.83901" lon="6.75666">
        <ele>1594</ele>
        <time>2026-08-14T11:06:31.540Z</time>
      </trkpt>
      <trkpt lat="45.83902" lon="6.75667">
        <ele>1594</ele>
        <time>2026-08-14T11:06:32.540Z</time>
      </trkpt>
      <trkpt lat="45.83903" lon="6.75668">
        <ele>1594</ele>
        <time>2026-08-14T11:06:33.540Z</time>
      </trkpt>
      <trkpt lat="45.83904" lon="6.75669">
        <ele>1594</ele>
        <time>2026-08-14T11:06:34.540Z</time>
      </trkpt>
      <trkpt lat="45.83905" lon="6.75671">
        <ele>1594</ele>
        <time>2026-08-14T11:06:35.540Z</time>
      </trkpt>
      <trkpt lat="45.83906" lon="6.75672">
        <ele>1594</ele>
        <time>2026-08-14T11:06:36.540Z</time>
      </trkpt>
      <trkpt lat="45.83907" lon="6.75673">
        <ele>1594</ele>
        <time>2026-08-14T11:06:37.540Z</time>
      </trkpt>
      <trkpt lat="45.83908" lon="6.75674">
        <ele>1594</ele>
        <time>2026-08-14T11:06:38.540Z</time>
      </trkpt>
      <trkpt lat="45.8391" lon="6.75675">
        <ele>1595</ele>
        <time>2026-08-14T11:06:39.540Z</time>
      </trkpt>
      <trkpt lat="45.8391" lon="6.75676">
        <ele>1595</ele>
        <time>2026-08-14T11:06:40.540Z</time>
      </trkpt>
      <trkpt lat="45.83911" lon="6.75677">
        <ele>1595</ele>
        <time>2026-08-14T11:06:41.540Z</time>
      </trkpt>
      <trkpt lat="45.83912" lon="6.75678">
        <ele>1595</ele>
        <time>2026-08-14T11:06:42.540Z</time>
      </trkpt>
      <trkpt lat="45.83913" lon="6.75679">
        <ele>1595</ele>
        <time>2026-08-14T11:06:43.540Z</time>
      </trkpt>
      <trkpt lat="45.83914" lon="6.75679">
        <ele>1595</ele>
        <time>2026-08-14T11:06:44.540Z</time>
      </trkpt>
      <trkpt lat="45.83916" lon="6.7568">
        <ele>1595</ele>
        <time>2026-08-14T11:06:45.540Z</time>
      </trkpt>
      <trkpt lat="45.83917" lon="6.7568">
        <ele>1595</ele>
        <time>2026-08-14T11:06:46.540Z</time>
      </trkpt>
      <trkpt lat="45.83918" lon="6.75681">
        <ele>1595</ele>
        <time>2026-08-14T11:06:47.540Z</time>
      </trkpt>
      <trkpt lat="45.83919" lon="6.75682">
        <ele>1594</ele>
        <time>2026-08-14T11:06:48.540Z</time>
      </trkpt>
      <trkpt lat="45.8392" lon="6.75684">
        <ele>1594</ele>
        <time>2026-08-14T11:06:49.540Z</time>
      </trkpt>
      <trkpt lat="45.8392" lon="6.75685">
        <ele>1593</ele>
        <time>2026-08-14T11:06:50.540Z</time>
      </trkpt>
      <trkpt lat="45.83919" lon="6.75687">
        <ele>1592</ele>
        <time>2026-08-14T11:06:51.540Z</time>
      </trkpt>
      <trkpt lat="45.83918" lon="6.75689">
        <ele>1591</ele>
        <time>2026-08-14T11:06:52.540Z</time>
      </trkpt>
      <trkpt lat="45.83916" lon="6.7569">
        <ele>1591</ele>
        <time>2026-08-14T11:06:53.540Z</time>
      </trkpt>
      <trkpt lat="45.83915" lon="6.75691">
        <ele>1590</ele>
        <time>2026-08-14T11:06:54.540Z</time>
      </trkpt>
      <trkpt lat="45.83913" lon="6.75693">
        <ele>1589</ele>
        <time>2026-08-14T11:06:55.540Z</time>
      </trkpt>
      <trkpt lat="45.83912" lon="6.75695">
        <ele>1589</ele>
        <time>2026-08-14T11:06:56.540Z</time>
      </trkpt>
      <trkpt lat="45.8391" lon="6.75696">
        <ele>1588</ele>
        <time>2026-08-14T11:06:57.540Z</time>
      </trkpt>
      <trkpt lat="45.83908" lon="6.75699">
        <ele>1588</ele>
        <time>2026-08-14T11:06:58.540Z</time>
      </trkpt>
      <trkpt lat="45.83906" lon="6.75701">
        <ele>1587</ele>
        <time>2026-08-14T11:06:59.540Z</time>
      </trkpt>
      <trkpt lat="45.83904" lon="6.75703">
        <ele>1586</ele>
        <time>2026-08-14T11:07:00.540Z</time>
      </trkpt>
      <trkpt lat="45.83903" lon="6.75705">
        <ele>1585</ele>
        <time>2026-08-14T11:07:01.540Z</time>
      </trkpt>
      <trkpt lat="45.83901" lon="6.75707">
        <ele>1585</ele>
        <time>2026-08-14T11:07:02.540Z</time>
      </trkpt>
      <trkpt lat="45.83899" lon="6.75709">
        <ele>1585</ele>
        <time>2026-08-14T11:07:03.540Z</time>
      </trkpt>
      <trkpt lat="45.83897" lon="6.75711">
        <ele>1584</ele>
        <time>2026-08-14T11:07:04.540Z</time>
      </trkpt>
      <trkpt lat="45.83896" lon="6.75712">
        <ele>1583</ele>
        <time>2026-08-14T11:07:05.540Z</time>
      </trkpt>
      <trkpt lat="45.83894" lon="6.75714">
        <ele>1583</ele>
        <time>2026-08-14T11:07:06.540Z</time>
      </trkpt>
      <trkpt lat="45.83893" lon="6.75716">
        <ele>1582</ele>
        <time>2026-08-14T11:07:07.540Z</time>
      </trkpt>
      <trkpt lat="45.83891" lon="6.75717">
        <ele>1582</ele>
        <time>2026-08-14T11:07:08.540Z</time>
      </trkpt>
      <trkpt lat="45.8389" lon="6.75719">
        <ele>1581</ele>
        <time>2026-08-14T11:07:09.540Z</time>
      </trkpt>
      <trkpt lat="45.83889" lon="6.7572">
        <ele>1580</ele>
        <time>2026-08-14T11:07:10.540Z</time>
      </trkpt>
      <trkpt lat="45.83888" lon="6.75721">
        <ele>1580</ele>
        <time>2026-08-14T11:07:11.540Z</time>
      </trkpt>
      <trkpt lat="45.83888" lon="6.75722">
        <ele>1579</ele>
        <time>2026-08-14T11:07:12.540Z</time>
      </trkpt>
      <trkpt lat="45.83889" lon="6.75723">
        <ele>1578</ele>
        <time>2026-08-14T11:07:13.540Z</time>
      </trkpt>
      <trkpt lat="45.8389" lon="6.75723">
        <ele>1578</ele>
        <time>2026-08-14T11:07:14.540Z</time>
      </trkpt>
      <trkpt lat="45.83892" lon="6.75724">
        <ele>1577</ele>
        <time>2026-08-14T11:07:15.540Z</time>
      </trkpt>
      <trkpt lat="45.83893" lon="6.75725">
        <ele>1577</ele>
        <time>2026-08-14T11:07:16.540Z</time>
      </trkpt>
      <trkpt lat="45.83895" lon="6.75726">
        <ele>1577</ele>
        <time>2026-08-14T11:07:17.540Z</time>
      </trkpt>
      <trkpt lat="45.83896" lon="6.75726">
        <ele>1576</ele>
        <time>2026-08-14T11:07:18.540Z</time>
      </trkpt>
      <trkpt lat="45.83898" lon="6.75726">
        <ele>1576</ele>
        <time>2026-08-14T11:07:19.540Z</time>
      </trkpt>
      <trkpt lat="45.839" lon="6.75727">
        <ele>1576</ele>
        <time>2026-08-14T11:07:20.540Z</time>
      </trkpt>
      <trkpt lat="45.83903" lon="6.75728">
        <ele>1575</ele>
        <time>2026-08-14T11:07:21.540Z</time>
      </trkpt>
      <trkpt lat="45.83904" lon="6.75729">
        <ele>1575</ele>
        <time>2026-08-14T11:07:22.540Z</time>
      </trkpt>
      <trkpt lat="45.83906" lon="6.75729">
        <ele>1574</ele>
        <time>2026-08-14T11:07:23.540Z</time>
      </trkpt>
      <trkpt lat="45.83908" lon="6.75729">
        <ele>1574</ele>
        <time>2026-08-14T11:07:24.540Z</time>
      </trkpt>
      <trkpt lat="45.8391" lon="6.7573">
        <ele>1573</ele>
        <time>2026-08-14T11:07:25.540Z</time>
      </trkpt>
      <trkpt lat="45.83911" lon="6.7573">
        <ele>1573</ele>
        <time>2026-08-14T11:07:26.540Z</time>
      </trkpt>
      <trkpt lat="45.83913" lon="6.7573">
        <ele>1572</ele>
        <time>2026-08-14T11:07:27.540Z</time>
      </trkpt>
      <trkpt lat="45.83915" lon="6.7573">
        <ele>1572</ele>
        <time>2026-08-14T11:07:28.540Z</time>
      </trkpt>
      <trkpt lat="45.83916" lon="6.75731">
        <ele>1572</ele>
        <time>2026-08-14T11:07:29.540Z</time>
      </trkpt>
      <trkpt lat="45.83917" lon="6.75731">
        <ele>1572</ele>
        <time>2026-08-14T11:07:30.540Z</time>
      </trkpt>
      <trkpt lat="45.83918" lon="6.75732">
        <ele>1571</ele>
        <time>2026-08-14T11:07:31.540Z</time>
      </trkpt>
      <trkpt lat="45.83919" lon="6.75733">
        <ele>1571</ele>
        <time>2026-08-14T11:07:32.540Z</time>
      </trkpt>
      <trkpt lat="45.83919" lon="6.75734">
        <ele>1570</ele>
        <time>2026-08-14T11:07:33.540Z</time>
      </trkpt>
      <trkpt lat="45.83918" lon="6.75736">
        <ele>1570</ele>
        <time>2026-08-14T11:07:34.540Z</time>
      </trkpt>
      <trkpt lat="45.83917" lon="6.75739">
        <ele>1569</ele>
        <time>2026-08-14T11:07:35.540Z</time>
      </trkpt>
      <trkpt lat="45.83916" lon="6.75741">
        <ele>1569</ele>
        <time>2026-08-14T11:07:36.540Z</time>
      </trkpt>
      <trkpt lat="45.83914" lon="6.75743">
        <ele>1568</ele>
        <time>2026-08-14T11:07:37.540Z</time>
      </trkpt>
      <trkpt lat="45.83913" lon="6.75745">
        <ele>1568</ele>
        <time>2026-08-14T11:07:38.540Z</time>
      </trkpt>
      <trkpt lat="45.83911" lon="6.75747">
        <ele>1568</ele>
        <time>2026-08-14T11:07:39.540Z</time>
      </trkpt>
      <trkpt lat="45.83909" lon="6.75749">
        <ele>1567</ele>
        <time>2026-08-14T11:07:40.540Z</time>
      </trkpt>
      <trkpt lat="45.83907" lon="6.75751">
        <ele>1567</ele>
        <time>2026-08-14T11:07:41.540Z</time>
      </trkpt>
      <trkpt lat="45.83905" lon="6.75753">
        <ele>1566</ele>
        <time>2026-08-14T11:07:42.540Z</time>
      </trkpt>
      <trkpt lat="45.83903" lon="6.75755">
        <ele>1566</ele>
        <time>2026-08-14T11:07:43.540Z</time>
      </trkpt>
      <trkpt lat="45.83902" lon="6.75758">
        <ele>1565</ele>
        <time>2026-08-14T11:07:44.540Z</time>
      </trkpt>
      <trkpt lat="45.83901" lon="6.7576">
        <ele>1565</ele>
        <time>2026-08-14T11:07:45.540Z</time>
      </trkpt>
      <trkpt lat="45.839" lon="6.75763">
        <ele>1565</ele>
        <time>2026-08-14T11:07:46.540Z</time>
      </trkpt>
      <trkpt lat="45.83899" lon="6.75765">
        <ele>1565</ele>
        <time>2026-08-14T11:07:47.540Z</time>
      </trkpt>
      <trkpt lat="45.83898" lon="6.75767">
        <ele>1565</ele>
        <time>2026-08-14T11:07:48.540Z</time>
      </trkpt>
      <trkpt lat="45.83897" lon="6.75769">
        <ele>1564</ele>
        <time>2026-08-14T11:07:49.540Z</time>
      </trkpt>
      <trkpt lat="45.83896" lon="6.75771">
        <ele>1564</ele>
        <time>2026-08-14T11:07:50.540Z</time>
      </trkpt>
      <trkpt lat="45.83896" lon="6.75774">
        <ele>1563</ele>
        <time>2026-08-14T11:07:51.540Z</time>
      </trkpt>
      <trkpt lat="45.83895" lon="6.75776">
        <ele>1563</ele>
        <time>2026-08-14T11:07:52.540Z</time>
      </trkpt>
      <trkpt lat="45.83895" lon="6.75778">
        <ele>1562</ele>
        <time>2026-08-14T11:07:53.540Z</time>
      </trkpt>
      <trkpt lat="45.83894" lon="6.7578">
        <ele>1562</ele>
        <time>2026-08-14T11:07:54.540Z</time>
      </trkpt>
      <trkpt lat="45.83893" lon="6.75782">
        <ele>1561</ele>
        <time>2026-08-14T11:07:55.540Z</time>
      </trkpt>
      <trkpt lat="45.83892" lon="6.75784">
        <ele>1561</ele>
        <time>2026-08-14T11:07:56.540Z</time>
      </trkpt>
      <trkpt lat="45.83891" lon="6.75786">
        <ele>1561</ele>
        <time>2026-08-14T11:07:57.540Z</time>
      </trkpt>
      <trkpt lat="45.8389" lon="6.75787">
        <ele>1560</ele>
        <time>2026-08-14T11:07:58.540Z</time>
      </trkpt>
      <trkpt lat="45.8389" lon="6.75789">
        <ele>1560</ele>
        <time>2026-08-14T11:07:59.540Z</time>
      </trkpt>
      <trkpt lat="45.83889" lon="6.75791">
        <ele>1559</ele>
        <time>2026-08-14T11:08:00.540Z</time>
      </trkpt>
      <trkpt lat="45.83888" lon="6.75792">
        <ele>1559</ele>
        <time>2026-08-14T11:08:01.540Z</time>
      </trkpt>
      <trkpt lat="45.83888" lon="6.75795">
        <ele>1559</ele>
        <time>2026-08-14T11:08:02.540Z</time>
      </trkpt>
      <trkpt lat="45.83888" lon="6.75798">
        <ele>1558</ele>
        <time>2026-08-14T11:08:03.540Z</time>
      </trkpt>
      <trkpt lat="45.83889" lon="6.758">
        <ele>1558</ele>
        <time>2026-08-14T11:08:04.540Z</time>
      </trkpt>
      <trkpt lat="45.83889" lon="6.75803">
        <ele>1558</ele>
        <time>2026-08-14T11:08:05.540Z</time>
      </trkpt>
      <trkpt lat="45.8389" lon="6.75806">
        <ele>1557</ele>
        <time>2026-08-14T11:08:06.540Z</time>
      </trkpt>
      <trkpt lat="45.8389" lon="6.75809">
        <ele>1557</ele>
        <time>2026-08-14T11:08:07.540Z</time>
      </trkpt>
      <trkpt lat="45.83889" lon="6.75812">
        <ele>1557</ele>
        <time>2026-08-14T11:08:08.540Z</time>
      </trkpt>
      <trkpt lat="45.83889" lon="6.75814">
        <ele>1557</ele>
        <time>2026-08-14T11:08:09.540Z</time>
      </trkpt>
      <trkpt lat="45.83889" lon="6.75817">
        <ele>1557</ele>
        <time>2026-08-14T11:08:10.540Z</time>
      </trkpt>
      <trkpt lat="45.83888" lon="6.7582">
        <ele>1557</ele>
        <time>2026-08-14T11:08:11.540Z</time>
      </trkpt>
      <trkpt lat="45.83888" lon="6.75823">
        <ele>1557</ele>
        <time>2026-08-14T11:08:12.540Z</time>
      </trkpt>
      <trkpt lat="45.83888" lon="6.75826">
        <ele>1557</ele>
        <time>2026-08-14T11:08:13.540Z</time>
      </trkpt>
      <trkpt lat="45.83888" lon="6.75829">
        <ele>1557</ele>
        <time>2026-08-14T11:08:14.540Z</time>
      </trkpt>
      <trkpt lat="45.83888" lon="6.75831">
        <ele>1557</ele>
        <time>2026-08-14T11:08:15.540Z</time>
      </trkpt>
      <trkpt lat="45.83888" lon="6.75834">
        <ele>1558</ele>
        <time>2026-08-14T11:08:16.540Z</time>
      </trkpt>
      <trkpt lat="45.83888" lon="6.75837">
        <ele>1558</ele>
        <time>2026-08-14T11:08:17.540Z</time>
      </trkpt>
      <trkpt lat="45.83888" lon="6.7584">
        <ele>1558</ele>
        <time>2026-08-14T11:08:18.540Z</time>
      </trkpt>
      <trkpt lat="45.83888" lon="6.75843">
        <ele>1558</ele>
        <time>2026-08-14T11:08:19.540Z</time>
      </trkpt>
      <trkpt lat="45.83888" lon="6.75845">
        <ele>1558</ele>
        <time>2026-08-14T11:08:20.540Z</time>
      </trkpt>
      <trkpt lat="45.83888" lon="6.75848">
        <ele>1557</ele>
        <time>2026-08-14T11:08:21.540Z</time>
      </trkpt>
      <trkpt lat="45.83887" lon="6.75851">
        <ele>1557</ele>
        <time>2026-08-14T11:08:22.540Z</time>
      </trkpt>
      <trkpt lat="45.83887" lon="6.75853">
        <ele>1557</ele>
        <time>2026-08-14T11:08:23.540Z</time>
      </trkpt>
      <trkpt lat="45.83887" lon="6.75856">
        <ele>1557</ele>
        <time>2026-08-14T11:08:24.540Z</time>
      </trkpt>
      <trkpt lat="45.83887" lon="6.75859">
        <ele>1557</ele>
        <time>2026-08-14T11:08:25.540Z</time>
      </trkpt>
      <trkpt lat="45.83887" lon="6.75862">
        <ele>1557</ele>
        <time>2026-08-14T11:08:26.540Z</time>
      </trkpt>
      <trkpt lat="45.83887" lon="6.75864">
        <ele>1557</ele>
        <time>2026-08-14T11:08:27.540Z</time>
      </trkpt>
      <trkpt lat="45.83887" lon="6.75867">
        <ele>1557</ele>
        <time>2026-08-14T11:08:28.540Z</time>
      </trkpt>
      <trkpt lat="45.83888" lon="6.7587">
        <ele>1557</ele>
        <time>2026-08-14T11:08:29.540Z</time>
      </trkpt>
      <trkpt lat="45.83888" lon="6.75872">
        <ele>1557</ele>
        <time>2026-08-14T11:08:30.540Z</time>
      </trkpt>
      <trkpt lat="45.83888" lon="6.75875">
        <ele>1557</ele>
        <time>2026-08-14T11:08:31.540Z</time>
      </trkpt>
      <trkpt lat="45.83889" lon="6.75878">
        <ele>1557</ele>
        <time>2026-08-14T11:08:32.540Z</time>
      </trkpt>
      <trkpt lat="45.8389" lon="6.75881">
        <ele>1557</ele>
        <time>2026-08-14T11:08:33.540Z</time>
      </trkpt>
      <trkpt lat="45.8389" lon="6.75883">
        <ele>1557</ele>
        <time>2026-08-14T11:08:34.540Z</time>
      </trkpt>
      <trkpt lat="45.83891" lon="6.75885">
        <ele>1557</ele>
        <time>2026-08-14T11:08:35.540Z</time>
      </trkpt>
      <trkpt lat="45.83891" lon="6.75887">
        <ele>1557</ele>
        <time>2026-08-14T11:08:36.540Z</time>
      </trkpt>
      <trkpt lat="45.83891" lon="6.75889">
        <ele>1557</ele>
        <time>2026-08-14T11:08:37.540Z</time>
      </trkpt>
      <trkpt lat="45.83891" lon="6.7589">
        <ele>1556</ele>
        <time>2026-08-14T11:08:38.540Z</time>
      </trkpt>
      <trkpt lat="45.83891" lon="6.75891">
        <ele>1556</ele>
        <time>2026-08-14T11:08:39.540Z</time>
      </trkpt>
      <trkpt lat="45.83891" lon="6.75892">
        <ele>1556</ele>
        <time>2026-08-14T11:08:40.540Z</time>
      </trkpt>
      <trkpt lat="45.83891" lon="6.75893">
        <ele>1556</ele>
        <time>2026-08-14T11:08:41.540Z</time>
      </trkpt>
      <trkpt lat="45.83892" lon="6.75894">
        <ele>1555</ele>
        <time>2026-08-14T11:08:42.540Z</time>
      </trkpt>
      <trkpt lat="45.83892" lon="6.75895">
        <ele>1555</ele>
        <time>2026-08-14T11:08:43.540Z</time>
      </trkpt>
      <trkpt lat="45.83893" lon="6.75896">
        <ele>1555</ele>
        <time>2026-08-14T11:08:44.540Z</time>
      </trkpt>
      <trkpt lat="45.83893" lon="6.75897">
        <ele>1555</ele>
        <time>2026-08-14T11:08:45.540Z</time>
      </trkpt>
      <trkpt lat="45.83893" lon="6.75898">
        <ele>1555</ele>
        <time>2026-08-14T11:08:46.540Z</time>
      </trkpt>
      <trkpt lat="45.83893" lon="6.759">
        <ele>1555</ele>
        <time>2026-08-14T11:08:47.540Z</time>
      </trkpt>
      <trkpt lat="45.83892" lon="6.75901">
        <ele>1555</ele>
        <time>2026-08-14T11:08:48.540Z</time>
      </trkpt>
      <trkpt lat="45.83892" lon="6.75901">
        <ele>1555</ele>
        <time>2026-08-14T11:08:49.540Z</time>
      </trkpt>
      <trkpt lat="45.83891" lon="6.75902">
        <ele>1555</ele>
        <time>2026-08-14T11:08:50.540Z</time>
      </trkpt>
      <trkpt lat="45.8389" lon="6.75903">
        <ele>1555</ele>
        <time>2026-08-14T11:08:51.540Z</time>
      </trkpt>
      <trkpt lat="45.8389" lon="6.75904">
        <ele>1555</ele>
        <time>2026-08-14T11:08:52.540Z</time>
      </trkpt>
      <trkpt lat="45.8389" lon="6.75905">
        <ele>1555</ele>
        <time>2026-08-14T11:08:53.540Z</time>
      </trkpt>
      <trkpt lat="45.8389" lon="6.75906">
        <ele>1555</ele>
        <time>2026-08-14T11:08:54.540Z</time>
      </trkpt>
      <trkpt lat="45.8389" lon="6.75908">
        <ele>1554</ele>
        <time>2026-08-14T11:08:55.540Z</time>
      </trkpt>
      <trkpt lat="45.8389" lon="6.75909">
        <ele>1554</ele>
        <time>2026-08-14T11:08:56.540Z</time>
      </trkpt>
      <trkpt lat="45.83891" lon="6.75911">
        <ele>1555</ele>
        <time>2026-08-14T11:08:57.540Z</time>
      </trkpt>
      <trkpt lat="45.83891" lon="6.75912">
        <ele>1555</ele>
        <time>2026-08-14T11:08:58.540Z</time>
      </trkpt>
      <trkpt lat="45.83892" lon="6.75914">
        <ele>1555</ele>
        <time>2026-08-14T11:08:59.540Z</time>
      </trkpt>
      <trkpt lat="45.83893" lon="6.75915">
        <ele>1555</ele>
        <time>2026-08-14T11:09:00.540Z</time>
      </trkpt>
      <trkpt lat="45.83894" lon="6.75916">
        <ele>1555</ele>
        <time>2026-08-14T11:09:01.540Z</time>
      </trkpt>
      <trkpt lat="45.83894" lon="6.75917">
        <ele>1554</ele>
        <time>2026-08-14T11:09:02.540Z</time>
      </trkpt>
      <trkpt lat="45.83895" lon="6.75918">
        <ele>1554</ele>
        <time>2026-08-14T11:09:03.540Z</time>
      </trkpt>
      <trkpt lat="45.83895" lon="6.7592">
        <ele>1554</ele>
        <time>2026-08-14T11:09:04.540Z</time>
      </trkpt>
      <trkpt lat="45.83894" lon="6.75921">
        <ele>1554</ele>
        <time>2026-08-14T11:09:05.540Z</time>
      </trkpt>
      <trkpt lat="45.83892" lon="6.75923">
        <ele>1553</ele>
        <time>2026-08-14T11:09:06.540Z</time>
      </trkpt>
      <trkpt lat="45.83891" lon="6.75925">
        <ele>1553</ele>
        <time>2026-08-14T11:09:07.540Z</time>
      </trkpt>
      <trkpt lat="45.8389" lon="6.75927">
        <ele>1554</ele>
        <time>2026-08-14T11:09:08.540Z</time>
      </trkpt>
      <trkpt lat="45.83889" lon="6.75929">
        <ele>1554</ele>
        <time>2026-08-14T11:09:09.540Z</time>
      </trkpt>
      <trkpt lat="45.83888" lon="6.75931">
        <ele>1554</ele>
        <time>2026-08-14T11:09:10.540Z</time>
      </trkpt>
      <trkpt lat="45.83887" lon="6.75933">
        <ele>1554</ele>
        <time>2026-08-14T11:09:11.540Z</time>
      </trkpt>
      <trkpt lat="45.83886" lon="6.75934">
        <ele>1554</ele>
        <time>2026-08-14T11:09:12.540Z</time>
      </trkpt>
      <trkpt lat="45.83886" lon="6.75936">
        <ele>1554</ele>
        <time>2026-08-14T11:09:13.540Z</time>
      </trkpt>
      <trkpt lat="45.83886" lon="6.75937">
        <ele>1554</ele>
        <time>2026-08-14T11:09:14.540Z</time>
      </trkpt>
      <trkpt lat="45.83886" lon="6.75937">
        <ele>1555</ele>
        <time>2026-08-14T11:09:15.540Z</time>
      </trkpt>
      <trkpt lat="45.83886" lon="6.75938">
        <ele>1555</ele>
        <time>2026-08-14T11:09:16.540Z</time>
      </trkpt>
      <trkpt lat="45.83885" lon="6.75938">
        <ele>1554</ele>
        <time>2026-08-14T11:09:17.540Z</time>
      </trkpt>
      <trkpt lat="45.83886" lon="6.75938">
        <ele>1554</ele>
        <time>2026-08-14T11:09:18.540Z</time>
      </trkpt>
      <trkpt lat="45.83886" lon="6.75938">
        <ele>1554</ele>
        <time>2026-08-14T11:09:19.540Z</time>
      </trkpt>
      <trkpt lat="45.83885" lon="6.75938">
        <ele>1554</ele>
        <time>2026-08-14T11:09:20.540Z</time>
      </trkpt>
      <trkpt lat="45.83885" lon="6.75938">
        <ele>1554</ele>
        <time>2026-08-14T11:09:21.540Z</time>
      </trkpt>
      <trkpt lat="45.83885" lon="6.75938">
        <ele>1554</ele>
        <time>2026-08-14T11:09:22.540Z</time>
      </trkpt>
      <trkpt lat="45.83885" lon="6.75939">
        <ele>1554</ele>
        <time>2026-08-14T11:09:23.540Z</time>
      </trkpt>
      <trkpt lat="45.83885" lon="6.75939">
        <ele>1554</ele>
        <time>2026-08-14T11:09:24.540Z</time>
      </trkpt>
      <trkpt lat="45.83886" lon="6.7594">
        <ele>1554</ele>
        <time>2026-08-14T11:09:25.540Z</time>
      </trkpt>
      <trkpt lat="45.83887" lon="6.75941">
        <ele>1554</ele>
        <time>2026-08-14T11:09:26.540Z</time>
      </trkpt>
      <trkpt lat="45.83888" lon="6.75942">
        <ele>1555</ele>
        <time>2026-08-14T11:09:27.540Z</time>
      </trkpt>
      <trkpt lat="45.83888" lon="6.75943">
        <ele>1555</ele>
        <time>2026-08-14T11:09:28.540Z</time>
      </trkpt>
      <trkpt lat="45.83889" lon="6.75944">
        <ele>1555</ele>
        <time>2026-08-14T11:09:29.540Z</time>
      </trkpt>
      <trkpt lat="45.83889" lon="6.75945">
        <ele>1555</ele>
        <time>2026-08-14T11:09:30.540Z</time>
      </trkpt>
      <trkpt lat="45.8389" lon="6.75946">
        <ele>1555</ele>
        <time>2026-08-14T11:09:31.540Z</time>
      </trkpt>
      <trkpt lat="45.8389" lon="6.75947">
        <ele>1556</ele>
        <time>2026-08-14T11:09:32.540Z</time>
      </trkpt>
      <trkpt lat="45.83891" lon="6.75949">
        <ele>1556</ele>
        <time>2026-08-14T11:09:33.540Z</time>
      </trkpt>
      <trkpt lat="45.83891" lon="6.7595">
        <ele>1556</ele>
        <time>2026-08-14T11:09:34.540Z</time>
      </trkpt>
      <trkpt lat="45.83891" lon="6.75951">
        <ele>1556</ele>
        <time>2026-08-14T11:09:35.540Z</time>
      </trkpt>
      <trkpt lat="45.83892" lon="6.75953">
        <ele>1556</ele>
        <time>2026-08-14T11:09:36.540Z</time>
      </trkpt>
      <trkpt lat="45.83892" lon="6.75954">
        <ele>1556</ele>
        <time>2026-08-14T11:09:37.540Z</time>
      </trkpt>
      <trkpt lat="45.83892" lon="6.75955">
        <ele>1556</ele>
        <time>2026-08-14T11:09:38.540Z</time>
      </trkpt>
      <trkpt lat="45.83893" lon="6.75957">
        <ele>1556</ele>
        <time>2026-08-14T11:09:39.540Z</time>
      </trkpt>
      <trkpt lat="45.83893" lon="6.75958">
        <ele>1556</ele>
        <time>2026-08-14T11:09:40.540Z</time>
      </trkpt>
      <trkpt lat="45.83893" lon="6.75959">
        <ele>1556</ele>
        <time>2026-08-14T11:09:41.540Z</time>
      </trkpt>
      <trkpt lat="45.83893" lon="6.75961">
        <ele>1556</ele>
        <time>2026-08-14T11:09:42.540Z</time>
      </trkpt>
      <trkpt lat="45.83893" lon="6.75962">
        <ele>1557</ele>
        <time>2026-08-14T11:09:43.540Z</time>
      </trkpt>
      <trkpt lat="45.83893" lon="6.75964">
        <ele>1557</ele>
        <time>2026-08-14T11:09:44.540Z</time>
      </trkpt>
      <trkpt lat="45.83893" lon="6.75965">
        <ele>1558</ele>
        <time>2026-08-14T11:09:45.540Z</time>
      </trkpt>
      <trkpt lat="45.83893" lon="6.75967">
        <ele>1558</ele>
        <time>2026-08-14T11:09:46.540Z</time>
      </trkpt>
      <trkpt lat="45.83893" lon="6.75968">
        <ele>1558</ele>
        <time>2026-08-14T11:09:47.540Z</time>
      </trkpt>
      <trkpt lat="45.83894" lon="6.7597">
        <ele>1558</ele>
        <time>2026-08-14T11:09:48.540Z</time>
      </trkpt>
      <trkpt lat="45.83894" lon="6.75971">
        <ele>1558</ele>
        <time>2026-08-14T11:09:49.540Z</time>
      </trkpt>
      <trkpt lat="45.83894" lon="6.75971">
        <ele>1559</ele>
        <time>2026-08-14T11:09:50.540Z</time>
      </trkpt>
      <trkpt lat="45.83894" lon="6.7597">
        <ele>1559</ele>
        <time>2026-08-14T11:09:51.540Z</time>
      </trkpt>
      <trkpt lat="45.83894" lon="6.7597">
        <ele>1559</ele>
        <time>2026-08-14T11:09:52.540Z</time>
      </trkpt>
      <trkpt lat="45.83893" lon="6.75969">
        <ele>1560</ele>
        <time>2026-08-14T11:09:53.540Z</time>
      </trkpt>
      <trkpt lat="45.83893" lon="6.75969">
        <ele>1560</ele>
        <time>2026-08-14T11:09:54.540Z</time>
      </trkpt>
      <trkpt lat="45.83893" lon="6.75969">
        <ele>1561</ele>
        <time>2026-08-14T11:09:55.540Z</time>
      </trkpt>
      <trkpt lat="45.83893" lon="6.75969">
        <ele>1561</ele>
        <time>2026-08-14T11:09:56.540Z</time>
      </trkpt>
      <trkpt lat="45.83893" lon="6.75969">
        <ele>1561</ele>
        <time>2026-08-14T11:09:57.540Z</time>
      </trkpt>
      <trkpt lat="45.83893" lon="6.75969">
        <ele>1561</ele>
        <time>2026-08-14T11:09:58.540Z</time>
      </trkpt>
      <trkpt lat="45.83894" lon="6.75969">
        <ele>1561</ele>
        <time>2026-08-14T11:09:59.540Z</time>
      </trkpt>
      <trkpt lat="45.83894" lon="6.7597">
        <ele>1561</ele>
        <time>2026-08-14T11:10:00.540Z</time>
      </trkpt>
      <trkpt lat="45.83894" lon="6.75971">
        <ele>1561</ele>
        <time>2026-08-14T11:10:01.540Z</time>
      </trkpt>
      <trkpt lat="45.83894" lon="6.75972">
        <ele>1561</ele>
        <time>2026-08-14T11:10:02.540Z</time>
      </trkpt>
      <trkpt lat="45.83894" lon="6.75974">
        <ele>1561</ele>
        <time>2026-08-14T11:10:03.540Z</time>
      </trkpt>
      <trkpt lat="45.83894" lon="6.75976">
        <ele>1561</ele>
        <time>2026-08-14T11:10:04.540Z</time>
      </trkpt>
      <trkpt lat="45.83894" lon="6.75978">
        <ele>1561</ele>
        <time>2026-08-14T11:10:05.540Z</time>
      </trkpt>
      <trkpt lat="45.83893" lon="6.7598">
        <ele>1561</ele>
        <time>2026-08-14T11:10:06.540Z</time>
      </trkpt>
      <trkpt lat="45.83893" lon="6.75982">
        <ele>1561</ele>
        <time>2026-08-14T11:10:07.540Z</time>
      </trkpt>
      <trkpt lat="45.83893" lon="6.75984">
        <ele>1561</ele>
        <time>2026-08-14T11:10:08.540Z</time>
      </trkpt>
      <trkpt lat="45.83893" lon="6.75986">
        <ele>1561</ele>
        <time>2026-08-14T11:10:09.540Z</time>
      </trkpt>
      <trkpt lat="45.83893" lon="6.75988">
        <ele>1561</ele>
        <time>2026-08-14T11:10:10.540Z</time>
      </trkpt>
      <trkpt lat="45.83892" lon="6.7599">
        <ele>1561</ele>
        <time>2026-08-14T11:10:11.540Z</time>
      </trkpt>
      <trkpt lat="45.83892" lon="6.75992">
        <ele>1561</ele>
        <time>2026-08-14T11:10:12.540Z</time>
      </trkpt>
      <trkpt lat="45.83891" lon="6.75994">
        <ele>1561</ele>
        <time>2026-08-14T11:10:13.540Z</time>
      </trkpt>
      <trkpt lat="45.83891" lon="6.75996">
        <ele>1561</ele>
        <time>2026-08-14T11:10:14.540Z</time>
      </trkpt>
      <trkpt lat="45.83891" lon="6.75998">
        <ele>1561</ele>
        <time>2026-08-14T11:10:15.540Z</time>
      </trkpt>
      <trkpt lat="45.83891" lon="6.76">
        <ele>1561</ele>
        <time>2026-08-14T11:10:16.540Z</time>
      </trkpt>
      <trkpt lat="45.83891" lon="6.76002">
        <ele>1561</ele>
        <time>2026-08-14T11:10:17.540Z</time>
      </trkpt>
      <trkpt lat="45.83892" lon="6.76004">
        <ele>1562</ele>
        <time>2026-08-14T11:10:18.540Z</time>
      </trkpt>
      <trkpt lat="45.83893" lon="6.76005">
        <ele>1562</ele>
        <time>2026-08-14T11:10:19.540Z</time>
      </trkpt>
      <trkpt lat="45.83894" lon="6.76007">
        <ele>1562</ele>
        <time>2026-08-14T11:10:20.540Z</time>
      </trkpt>
      <trkpt lat="45.83895" lon="6.76008">
        <ele>1562</ele>
        <time>2026-08-14T11:10:21.540Z</time>
      </trkpt>
      <trkpt lat="45.83896" lon="6.76009">
        <ele>1562</ele>
        <time>2026-08-14T11:10:22.540Z</time>
      </trkpt>
      <trkpt lat="45.83896" lon="6.7601">
        <ele>1563</ele>
        <time>2026-08-14T11:10:23.540Z</time>
      </trkpt>
      <trkpt lat="45.83896" lon="6.76012">
        <ele>1563</ele>
        <time>2026-08-14T11:10:24.540Z</time>
      </trkpt>
      <trkpt lat="45.83897" lon="6.76013">
        <ele>1562</ele>
        <time>2026-08-14T11:10:25.540Z</time>
      </trkpt>
      <trkpt lat="45.83897" lon="6.76014">
        <ele>1562</ele>
        <time>2026-08-14T11:10:26.540Z</time>
      </trkpt>
      <trkpt lat="45.83897" lon="6.76016">
        <ele>1562</ele>
        <time>2026-08-14T11:10:27.540Z</time>
      </trkpt>
      <trkpt lat="45.83896" lon="6.76016">
        <ele>1562</ele>
        <time>2026-08-14T11:10:28.540Z</time>
      </trkpt>
      <trkpt lat="45.83896" lon="6.76017">
        <ele>1561</ele>
        <time>2026-08-14T11:10:29.540Z</time>
      </trkpt>
      <trkpt lat="45.83895" lon="6.76017">
        <ele>1561</ele>
        <time>2026-08-14T11:10:30.540Z</time>
      </trkpt>
      <trkpt lat="45.83894" lon="6.76017">
        <ele>1561</ele>
        <time>2026-08-14T11:10:31.540Z</time>
      </trkpt>
      <trkpt lat="45.83893" lon="6.76018">
        <ele>1560</ele>
        <time>2026-08-14T11:10:32.540Z</time>
      </trkpt>
      <trkpt lat="45.83893" lon="6.76019">
        <ele>1560</ele>
        <time>2026-08-14T11:10:33.540Z</time>
      </trkpt>
      <trkpt lat="45.83893" lon="6.76019">
        <ele>1560</ele>
        <time>2026-08-14T11:10:34.540Z</time>
      </trkpt>
      <trkpt lat="45.83892" lon="6.76019">
        <ele>1559</ele>
        <time>2026-08-14T11:10:35.540Z</time>
      </trkpt>
      <trkpt lat="45.83892" lon="6.76019">
        <ele>1559</ele>
        <time>2026-08-14T11:10:36.540Z</time>
      </trkpt>
      <trkpt lat="45.83892" lon="6.76019">
        <ele>1559</ele>
        <time>2026-08-14T11:10:37.540Z</time>
      </trkpt>
      <trkpt lat="45.83892" lon="6.76019">
        <ele>1559</ele>
        <time>2026-08-14T11:10:38.540Z</time>
      </trkpt>
      <trkpt lat="45.83892" lon="6.76019">
        <ele>1559</ele>
        <time>2026-08-14T11:10:39.540Z</time>
      </trkpt>
      <trkpt lat="45.83892" lon="6.76019">
        <ele>1559</ele>
        <time>2026-08-14T11:10:40.540Z</time>
      </trkpt>
      <trkpt lat="45.83892" lon="6.76018">
        <ele>1559</ele>
        <time>2026-08-14T11:10:41.540Z</time>
      </trkpt>
      <trkpt lat="45.83892" lon="6.76018">
        <ele>1559</ele>
        <time>2026-08-14T11:10:42.540Z</time>
      </trkpt>
      <trkpt lat="45.83892" lon="6.76017">
        <ele>1559</ele>
        <time>2026-08-14T11:10:43.540Z</time>
      </trkpt>
      <trkpt lat="45.83892" lon="6.76016">
        <ele>1559</ele>
        <time>2026-08-14T11:10:44.540Z</time>
      </trkpt>
      <trkpt lat="45.83892" lon="6.76016">
        <ele>1559</ele>
        <time>2026-08-14T11:10:45.540Z</time>
      </trkpt>
      <trkpt lat="45.83892" lon="6.76016">
        <ele>1559</ele>
        <time>2026-08-14T11:10:46.540Z</time>
      </trkpt>
      <trkpt lat="45.83892" lon="6.76016">
        <ele>1559</ele>
        <time>2026-08-14T11:10:47.540Z</time>
      </trkpt>
      <trkpt lat="45.83892" lon="6.76016">
        <ele>1559</ele>
        <time>2026-08-14T11:10:48.540Z</time>
      </trkpt>
      <trkpt lat="45.83892" lon="6.76016">
        <ele>1559</ele>
        <time>2026-08-14T11:10:49.540Z</time>
      </trkpt>
      <trkpt lat="45.83892" lon="6.76016">
        <ele>1559</ele>
        <time>2026-08-14T11:10:50.540Z</time>
      </trkpt>
      <trkpt lat="45.83892" lon="6.76016">
        <ele>1559</ele>
        <time>2026-08-14T11:10:51.540Z</time>
      </trkpt>
      <trkpt lat="45.83893" lon="6.76016">
        <ele>1559</ele>
        <time>2026-08-14T11:10:52.540Z</time>
      </trkpt>
      <trkpt lat="45.83894" lon="6.76018">
        <ele>1559</ele>
        <time>2026-08-14T11:10:53.540Z</time>
      </trkpt>
      <trkpt lat="45.83894" lon="6.7602">
        <ele>1559</ele>
        <time>2026-08-14T11:10:54.540Z</time>
      </trkpt>
      <trkpt lat="45.83895" lon="6.76022">
        <ele>1558</ele>
        <time>2026-08-14T11:10:55.540Z</time>
      </trkpt>
      <trkpt lat="45.83896" lon="6.76023">
        <ele>1559</ele>
        <time>2026-08-14T11:10:56.540Z</time>
      </trkpt>
      <trkpt lat="45.83897" lon="6.76025">
        <ele>1559</ele>
        <time>2026-08-14T11:10:57.540Z</time>
      </trkpt>
      <trkpt lat="45.83897" lon="6.76027">
        <ele>1559</ele>
        <time>2026-08-14T11:10:58.540Z</time>
      </trkpt>
      <trkpt lat="45.83897" lon="6.76029">
        <ele>1559</ele>
        <time>2026-08-14T11:10:59.540Z</time>
      </trkpt>
      <trkpt lat="45.83898" lon="6.76031">
        <ele>1559</ele>
        <time>2026-08-14T11:11:00.540Z</time>
      </trkpt>
      <trkpt lat="45.83898" lon="6.76033">
        <ele>1560</ele>
        <time>2026-08-14T11:11:01.540Z</time>
      </trkpt>
      <trkpt lat="45.83898" lon="6.76034">
        <ele>1560</ele>
        <time>2026-08-14T11:11:02.540Z</time>
      </trkpt>
      <trkpt lat="45.83898" lon="6.76035">
        <ele>1560</ele>
        <time>2026-08-14T11:11:03.540Z</time>
      </trkpt>
      <trkpt lat="45.83899" lon="6.76036">
        <ele>1560</ele>
        <time>2026-08-14T11:11:04.540Z</time>
      </trkpt>
      <trkpt lat="45.839" lon="6.76037">
        <ele>1561</ele>
        <time>2026-08-14T11:11:05.540Z</time>
      </trkpt>
      <trkpt lat="45.83901" lon="6.76037">
        <ele>1561</ele>
        <time>2026-08-14T11:11:06.540Z</time>
      </trkpt>
      <trkpt lat="45.83902" lon="6.76037">
        <ele>1562</ele>
        <time>2026-08-14T11:11:07.540Z</time>
      </trkpt>
      <trkpt lat="45.83903" lon="6.76037">
        <ele>1562</ele>
        <time>2026-08-14T11:11:08.540Z</time>
      </trkpt>
      <trkpt lat="45.83904" lon="6.76036">
        <ele>1562</ele>
        <time>2026-08-14T11:11:09.540Z</time>
      </trkpt>
      <trkpt lat="45.83905" lon="6.76036">
        <ele>1562</ele>
        <time>2026-08-14T11:11:10.540Z</time>
      </trkpt>
      <trkpt lat="45.83907" lon="6.76035">
        <ele>1562</ele>
        <time>2026-08-14T11:11:11.540Z</time>
      </trkpt>
      <trkpt lat="45.83908" lon="6.76034">
        <ele>1562</ele>
        <time>2026-08-14T11:11:12.540Z</time>
      </trkpt>
      <trkpt lat="45.83909" lon="6.76033">
        <ele>1562</ele>
        <time>2026-08-14T11:11:13.540Z</time>
      </trkpt>
      <trkpt lat="45.8391" lon="6.76032">
        <ele>1562</ele>
        <time>2026-08-14T11:11:14.540Z</time>
      </trkpt>
      <trkpt lat="45.83912" lon="6.76031">
        <ele>1562</ele>
        <time>2026-08-14T11:11:15.540Z</time>
      </trkpt>
      <trkpt lat="45.83913" lon="6.7603">
        <ele>1562</ele>
        <time>2026-08-14T11:11:16.540Z</time>
      </trkpt>
      <trkpt lat="45.83914" lon="6.76028">
        <ele>1563</ele>
        <time>2026-08-14T11:11:17.540Z</time>
      </trkpt>
      <trkpt lat="45.83915" lon="6.76027">
        <ele>1563</ele>
        <time>2026-08-14T11:11:18.540Z</time>
      </trkpt>
      <trkpt lat="45.83916" lon="6.76026">
        <ele>1563</ele>
        <time>2026-08-14T11:11:19.540Z</time>
      </trkpt>
      <trkpt lat="45.83917" lon="6.76025">
        <ele>1563</ele>
        <time>2026-08-14T11:11:20.540Z</time>
      </trkpt>
      <trkpt lat="45.83918" lon="6.76024">
        <ele>1563</ele>
        <time>2026-08-14T11:11:21.540Z</time>
      </trkpt>
      <trkpt lat="45.8392" lon="6.76023">
        <ele>1563</ele>
        <time>2026-08-14T11:11:22.540Z</time>
      </trkpt>
      <trkpt lat="45.83921" lon="6.76021">
        <ele>1562</ele>
        <time>2026-08-14T11:11:23.540Z</time>
      </trkpt>
      <trkpt lat="45.83922" lon="6.7602">
        <ele>1562</ele>
        <time>2026-08-14T11:11:24.540Z</time>
      </trkpt>
      <trkpt lat="45.83923" lon="6.7602">
        <ele>1562</ele>
        <time>2026-08-14T11:11:25.540Z</time>
      </trkpt>
      <trkpt lat="45.83925" lon="6.76019">
        <ele>1562</ele>
        <time>2026-08-14T11:11:26.540Z</time>
      </trkpt>
      <trkpt lat="45.83927" lon="6.76018">
        <ele>1562</ele>
        <time>2026-08-14T11:11:27.540Z</time>
      </trkpt>
      <trkpt lat="45.83929" lon="6.76017">
        <ele>1562</ele>
        <time>2026-08-14T11:11:28.540Z</time>
      </trkpt>
      <trkpt lat="45.83931" lon="6.76017">
        <ele>1563</ele>
        <time>2026-08-14T11:11:29.540Z</time>
      </trkpt>
      <trkpt lat="45.83933" lon="6.76016">
        <ele>1563</ele>
        <time>2026-08-14T11:11:30.540Z</time>
      </trkpt>
      <trkpt lat="45.83935" lon="6.76015">
        <ele>1563</ele>
        <time>2026-08-14T11:11:31.540Z</time>
      </trkpt>
      <trkpt lat="45.83937" lon="6.76015">
        <ele>1563</ele>
        <time>2026-08-14T11:11:32.540Z</time>
      </trkpt>
      <trkpt lat="45.83938" lon="6.76015">
        <ele>1563</ele>
        <time>2026-08-14T11:11:33.540Z</time>
      </trkpt>
      <trkpt lat="45.8394" lon="6.76015">
        <ele>1564</ele>
        <time>2026-08-14T11:11:34.540Z</time>
      </trkpt>
      <trkpt lat="45.83942" lon="6.76015">
        <ele>1564</ele>
        <time>2026-08-14T11:11:35.540Z</time>
      </trkpt>
      <trkpt lat="45.83944" lon="6.76015">
        <ele>1564</ele>
        <time>2026-08-14T11:11:36.540Z</time>
      </trkpt>
      <trkpt lat="45.83945" lon="6.76016">
        <ele>1565</ele>
        <time>2026-08-14T11:11:37.540Z</time>
      </trkpt>
      <trkpt lat="45.83947" lon="6.76016">
        <ele>1565</ele>
        <time>2026-08-14T11:11:38.540Z</time>
      </trkpt>
      <trkpt lat="45.83948" lon="6.76016">
        <ele>1565</ele>
        <time>2026-08-14T11:11:39.540Z</time>
      </trkpt>
      <trkpt lat="45.83949" lon="6.76017">
        <ele>1565</ele>
        <time>2026-08-14T11:11:40.540Z</time>
      </trkpt>
      <trkpt lat="45.8395" lon="6.76018">
        <ele>1565</ele>
        <time>2026-08-14T11:11:41.540Z</time>
      </trkpt>
      <trkpt lat="45.83952" lon="6.76019">
        <ele>1564</ele>
        <time>2026-08-14T11:11:42.540Z</time>
      </trkpt>
      <trkpt lat="45.83953" lon="6.7602">
        <ele>1564</ele>
        <time>2026-08-14T11:11:43.540Z</time>
      </trkpt>
      <trkpt lat="45.83954" lon="6.76021">
        <ele>1564</ele>
        <time>2026-08-14T11:11:44.540Z</time>
      </trkpt>
      <trkpt lat="45.83955" lon="6.76022">
        <ele>1565</ele>
        <time>2026-08-14T11:11:45.540Z</time>
      </trkpt>
      <trkpt lat="45.83956" lon="6.76023">
        <ele>1565</ele>
        <time>2026-08-14T11:11:46.540Z</time>
      </trkpt>
      <trkpt lat="45.83957" lon="6.76025">
        <ele>1565</ele>
        <time>2026-08-14T11:11:47.540Z</time>
      </trkpt>
      <trkpt lat="45.83958" lon="6.76026">
        <ele>1565</ele>
        <time>2026-08-14T11:11:48.540Z</time>
      </trkpt>
      <trkpt lat="45.83959" lon="6.76027">
        <ele>1566</ele>
        <time>2026-08-14T11:11:49.540Z</time>
      </trkpt>
      <trkpt lat="45.8396" lon="6.76029">
        <ele>1566</ele>
        <time>2026-08-14T11:11:50.540Z</time>
      </trkpt>
      <trkpt lat="45.83961" lon="6.76029">
        <ele>1566</ele>
        <time>2026-08-14T11:11:51.540Z</time>
      </trkpt>
      <trkpt lat="45.83963" lon="6.7603">
        <ele>1566</ele>
        <time>2026-08-14T11:11:52.540Z</time>
      </trkpt>
      <trkpt lat="45.83964" lon="6.76029">
        <ele>1565</ele>
        <time>2026-08-14T11:11:53.540Z</time>
      </trkpt>
      <trkpt lat="45.83965" lon="6.76029">
        <ele>1566</ele>
        <time>2026-08-14T11:11:54.540Z</time>
      </trkpt>
      <trkpt lat="45.83967" lon="6.76029">
        <ele>1566</ele>
        <time>2026-08-14T11:11:55.540Z</time>
      </trkpt>
      <trkpt lat="45.83968" lon="6.76028">
        <ele>1566</ele>
        <time>2026-08-14T11:11:56.540Z</time>
      </trkpt>
      <trkpt lat="45.83969" lon="6.76027">
        <ele>1567</ele>
        <time>2026-08-14T11:11:57.540Z</time>
      </trkpt>
      <trkpt lat="45.8397" lon="6.76027">
        <ele>1567</ele>
        <time>2026-08-14T11:11:58.540Z</time>
      </trkpt>
      <trkpt lat="45.83971" lon="6.76025">
        <ele>1567</ele>
        <time>2026-08-14T11:11:59.540Z</time>
      </trkpt>
      <trkpt lat="45.83972" lon="6.76024">
        <ele>1567</ele>
        <time>2026-08-14T11:12:00.540Z</time>
      </trkpt>
      <trkpt lat="45.83973" lon="6.76023">
        <ele>1567</ele>
        <time>2026-08-14T11:12:01.540Z</time>
      </trkpt>
      <trkpt lat="45.83974" lon="6.76022">
        <ele>1567</ele>
        <time>2026-08-14T11:12:02.540Z</time>
      </trkpt>
      <trkpt lat="45.83976" lon="6.76021">
        <ele>1567</ele>
        <time>2026-08-14T11:12:03.540Z</time>
      </trkpt>
      <trkpt lat="45.83977" lon="6.7602">
        <ele>1568</ele>
        <time>2026-08-14T11:12:04.540Z</time>
      </trkpt>
      <trkpt lat="45.83979" lon="6.76019">
        <ele>1568</ele>
        <time>2026-08-14T11:12:05.540Z</time>
      </trkpt>
      <trkpt lat="45.83981" lon="6.76018">
        <ele>1568</ele>
        <time>2026-08-14T11:12:06.540Z</time>
      </trkpt>
      <trkpt lat="45.83982" lon="6.76017">
        <ele>1568</ele>
        <time>2026-08-14T11:12:07.540Z</time>
      </trkpt>
      <trkpt lat="45.83984" lon="6.76017">
        <ele>1568</ele>
        <time>2026-08-14T11:12:08.540Z</time>
      </trkpt>
      <trkpt lat="45.83986" lon="6.76017">
        <ele>1568</ele>
        <time>2026-08-14T11:12:09.540Z</time>
      </trkpt>
      <trkpt lat="45.83988" lon="6.76016">
        <ele>1568</ele>
        <time>2026-08-14T11:12:10.540Z</time>
      </trkpt>
      <trkpt lat="45.8399" lon="6.76016">
        <ele>1569</ele>
        <time>2026-08-14T11:12:11.540Z</time>
      </trkpt>
      <trkpt lat="45.83992" lon="6.76015">
        <ele>1569</ele>
        <time>2026-08-14T11:12:12.540Z</time>
      </trkpt>
      <trkpt lat="45.83994" lon="6.76015">
        <ele>1569</ele>
        <time>2026-08-14T11:12:13.540Z</time>
      </trkpt>
      <trkpt lat="45.83996" lon="6.76014">
        <ele>1569</ele>
        <time>2026-08-14T11:12:14.540Z</time>
      </trkpt>
      <trkpt lat="45.83998" lon="6.76014">
        <ele>1569</ele>
        <time>2026-08-14T11:12:15.540Z</time>
      </trkpt>
      <trkpt lat="45.84" lon="6.76014">
        <ele>1569</ele>
        <time>2026-08-14T11:12:16.540Z</time>
      </trkpt>
      <trkpt lat="45.84003" lon="6.76013">
        <ele>1569</ele>
        <time>2026-08-14T11:12:17.540Z</time>
      </trkpt>
      <trkpt lat="45.84005" lon="6.76013">
        <ele>1569</ele>
        <time>2026-08-14T11:12:18.540Z</time>
      </trkpt>
      <trkpt lat="45.84007" lon="6.76012">
        <ele>1570</ele>
        <time>2026-08-14T11:12:19.540Z</time>
      </trkpt>
      <trkpt lat="45.84009" lon="6.76012">
        <ele>1570</ele>
        <time>2026-08-14T11:12:20.540Z</time>
      </trkpt>
      <trkpt lat="45.84011" lon="6.76011">
        <ele>1570</ele>
        <time>2026-08-14T11:12:21.540Z</time>
      </trkpt>
      <trkpt lat="45.84013" lon="6.76011">
        <ele>1570</ele>
        <time>2026-08-14T11:12:22.540Z</time>
      </trkpt>
      <trkpt lat="45.84015" lon="6.76011">
        <ele>1570</ele>
        <time>2026-08-14T11:12:23.540Z</time>
      </trkpt>
      <trkpt lat="45.84017" lon="6.76011">
        <ele>1570</ele>
        <time>2026-08-14T11:12:24.540Z</time>
      </trkpt>
      <trkpt lat="45.84019" lon="6.76011">
        <ele>1570</ele>
        <time>2026-08-14T11:12:25.540Z</time>
      </trkpt>
      <trkpt lat="45.84021" lon="6.76011">
        <ele>1570</ele>
        <time>2026-08-14T11:12:26.540Z</time>
      </trkpt>
      <trkpt lat="45.84023" lon="6.76012">
        <ele>1571</ele>
        <time>2026-08-14T11:12:27.540Z</time>
      </trkpt>
      <trkpt lat="45.84025" lon="6.76012">
        <ele>1571</ele>
        <time>2026-08-14T11:12:28.540Z</time>
      </trkpt>
      <trkpt lat="45.84026" lon="6.76011">
        <ele>1571</ele>
        <time>2026-08-14T11:12:29.540Z</time>
      </trkpt>
      <trkpt lat="45.84027" lon="6.76011">
        <ele>1571</ele>
        <time>2026-08-14T11:12:30.540Z</time>
      </trkpt>
      <trkpt lat="45.84029" lon="6.76011">
        <ele>1571</ele>
        <time>2026-08-14T11:12:31.540Z</time>
      </trkpt>
      <trkpt lat="45.8403" lon="6.76011">
        <ele>1571</ele>
        <time>2026-08-14T11:12:32.540Z</time>
      </trkpt>
      <trkpt lat="45.84031" lon="6.76011">
        <ele>1572</ele>
        <time>2026-08-14T11:12:33.540Z</time>
      </trkpt>
      <trkpt lat="45.84033" lon="6.7601">
        <ele>1572</ele>
        <time>2026-08-14T11:12:34.540Z</time>
      </trkpt>
      <trkpt lat="45.84034" lon="6.7601">
        <ele>1572</ele>
        <time>2026-08-14T11:12:35.540Z</time>
      </trkpt>
      <trkpt lat="45.84035" lon="6.7601">
        <ele>1573</ele>
        <time>2026-08-14T11:12:36.540Z</time>
      </trkpt>
      <trkpt lat="45.84037" lon="6.76009">
        <ele>1573</ele>
        <time>2026-08-14T11:12:37.540Z</time>
      </trkpt>
      <trkpt lat="45.84038" lon="6.76009">
        <ele>1573</ele>
        <time>2026-08-14T11:12:38.540Z</time>
      </trkpt>
      <trkpt lat="45.84039" lon="6.76009">
        <ele>1573</ele>
        <time>2026-08-14T11:12:39.540Z</time>
      </trkpt>
      <trkpt lat="45.84041" lon="6.76009">
        <ele>1574</ele>
        <time>2026-08-14T11:12:40.540Z</time>
      </trkpt>
      <trkpt lat="45.84042" lon="6.76008">
        <ele>1574</ele>
        <time>2026-08-14T11:12:41.540Z</time>
      </trkpt>
      <trkpt lat="45.84043" lon="6.76007">
        <ele>1574</ele>
        <time>2026-08-14T11:12:42.540Z</time>
      </trkpt>
      <trkpt lat="45.84044" lon="6.76007">
        <ele>1574</ele>
        <time>2026-08-14T11:12:43.540Z</time>
      </trkpt>
      <trkpt lat="45.84046" lon="6.76006">
        <ele>1574</ele>
        <time>2026-08-14T11:12:44.540Z</time>
      </trkpt>
      <trkpt lat="45.84047" lon="6.76006">
        <ele>1574</ele>
        <time>2026-08-14T11:12:45.540Z</time>
      </trkpt>
      <trkpt lat="45.84049" lon="6.76006">
        <ele>1575</ele>
        <time>2026-08-14T11:12:46.540Z</time>
      </trkpt>
      <trkpt lat="45.8405" lon="6.76007">
        <ele>1575</ele>
        <time>2026-08-14T11:12:47.540Z</time>
      </trkpt>
      <trkpt lat="45.84052" lon="6.76007">
        <ele>1575</ele>
        <time>2026-08-14T11:12:48.540Z</time>
      </trkpt>
      <trkpt lat="45.84054" lon="6.76008">
        <ele>1575</ele>
        <time>2026-08-14T11:12:49.540Z</time>
      </trkpt>
      <trkpt lat="45.84056" lon="6.76008">
        <ele>1575</ele>
        <time>2026-08-14T11:12:50.540Z</time>
      </trkpt>
      <trkpt lat="45.84057" lon="6.76008">
        <ele>1575</ele>
        <time>2026-08-14T11:12:51.540Z</time>
      </trkpt>
      <trkpt lat="45.84059" lon="6.76008">
        <ele>1575</ele>
        <time>2026-08-14T11:12:52.540Z</time>
      </trkpt>
      <trkpt lat="45.84061" lon="6.76008">
        <ele>1575</ele>
        <time>2026-08-14T11:12:53.540Z</time>
      </trkpt>
      <trkpt lat="45.84063" lon="6.76008">
        <ele>1575</ele>
        <time>2026-08-14T11:12:54.540Z</time>
      </trkpt>
      <trkpt lat="45.84065" lon="6.76008">
        <ele>1575</ele>
        <time>2026-08-14T11:12:55.540Z</time>
      </trkpt>
      <trkpt lat="45.84067" lon="6.76007">
        <ele>1576</ele>
        <time>2026-08-14T11:12:56.540Z</time>
      </trkpt>
      <trkpt lat="45.84069" lon="6.76007">
        <ele>1576</ele>
        <time>2026-08-14T11:12:57.540Z</time>
      </trkpt>
      <trkpt lat="45.84071" lon="6.76006">
        <ele>1576</ele>
        <time>2026-08-14T11:12:58.540Z</time>
      </trkpt>
      <trkpt lat="45.84072" lon="6.76006">
        <ele>1576</ele>
        <time>2026-08-14T11:12:59.540Z</time>
      </trkpt>
      <trkpt lat="45.84074" lon="6.76007">
        <ele>1576</ele>
        <time>2026-08-14T11:13:00.540Z</time>
      </trkpt>
      <trkpt lat="45.84076" lon="6.76007">
        <ele>1577</ele>
        <time>2026-08-14T11:13:01.540Z</time>
      </trkpt>
      <trkpt lat="45.84077" lon="6.76007">
        <ele>1577</ele>
        <time>2026-08-14T11:13:02.540Z</time>
      </trkpt>
      <trkpt lat="45.84078" lon="6.76007">
        <ele>1577</ele>
        <time>2026-08-14T11:13:03.540Z</time>
      </trkpt>
      <trkpt lat="45.84079" lon="6.76007">
        <ele>1577</ele>
        <time>2026-08-14T11:13:04.540Z</time>
      </trkpt>
      <trkpt lat="45.8408" lon="6.76006">
        <ele>1578</ele>
        <time>2026-08-14T11:13:05.540Z</time>
      </trkpt>
      <trkpt lat="45.84081" lon="6.76006">
        <ele>1578</ele>
        <time>2026-08-14T11:13:06.540Z</time>
      </trkpt>
      <trkpt lat="45.84082" lon="6.76006">
        <ele>1578</ele>
        <time>2026-08-14T11:13:07.540Z</time>
      </trkpt>
      <trkpt lat="45.84083" lon="6.76006">
        <ele>1578</ele>
        <time>2026-08-14T11:13:08.540Z</time>
      </trkpt>
      <trkpt lat="45.84085" lon="6.76006">
        <ele>1578</ele>
        <time>2026-08-14T11:13:09.540Z</time>
      </trkpt>
      <trkpt lat="45.84086" lon="6.76005">
        <ele>1578</ele>
        <time>2026-08-14T11:13:10.540Z</time>
      </trkpt>
      <trkpt lat="45.84088" lon="6.76004">
        <ele>1578</ele>
        <time>2026-08-14T11:13:11.540Z</time>
      </trkpt>
      <trkpt lat="45.8409" lon="6.76003">
        <ele>1578</ele>
        <time>2026-08-14T11:13:12.540Z</time>
      </trkpt>
      <trkpt lat="45.84091" lon="6.76002">
        <ele>1578</ele>
        <time>2026-08-14T11:13:13.540Z</time>
      </trkpt>
      <trkpt lat="45.84093" lon="6.76">
        <ele>1578</ele>
        <time>2026-08-14T11:13:14.540Z</time>
      </trkpt>
      <trkpt lat="45.84094" lon="6.75999">
        <ele>1578</ele>
        <time>2026-08-14T11:13:15.540Z</time>
      </trkpt>
      <trkpt lat="45.84096" lon="6.75998">
        <ele>1578</ele>
        <time>2026-08-14T11:13:16.540Z</time>
      </trkpt>
      <trkpt lat="45.84098" lon="6.75997">
        <ele>1578</ele>
        <time>2026-08-14T11:13:17.540Z</time>
      </trkpt>
      <trkpt lat="45.84099" lon="6.75996">
        <ele>1578</ele>
        <time>2026-08-14T11:13:18.540Z</time>
      </trkpt>
      <trkpt lat="45.84101" lon="6.75995">
        <ele>1578</ele>
        <time>2026-08-14T11:13:19.540Z</time>
      </trkpt>
      <trkpt lat="45.84103" lon="6.75994">
        <ele>1577</ele>
        <time>2026-08-14T11:13:20.540Z</time>
      </trkpt>
      <trkpt lat="45.84105" lon="6.75993">
        <ele>1577</ele>
        <time>2026-08-14T11:13:21.540Z</time>
      </trkpt>
      <trkpt lat="45.84106" lon="6.75991">
        <ele>1577</ele>
        <time>2026-08-14T11:13:22.540Z</time>
      </trkpt>
      <trkpt lat="45.84108" lon="6.75989">
        <ele>1576</ele>
        <time>2026-08-14T11:13:23.540Z</time>
      </trkpt>
      <trkpt lat="45.84109" lon="6.75988">
        <ele>1576</ele>
        <time>2026-08-14T11:13:24.540Z</time>
      </trkpt>
      <trkpt lat="45.84111" lon="6.75986">
        <ele>1576</ele>
        <time>2026-08-14T11:13:25.540Z</time>
      </trkpt>
      <trkpt lat="45.84112" lon="6.75985">
        <ele>1576</ele>
        <time>2026-08-14T11:13:26.540Z</time>
      </trkpt>
      <trkpt lat="45.84114" lon="6.75983">
        <ele>1576</ele>
        <time>2026-08-14T11:13:27.540Z</time>
      </trkpt>
      <trkpt lat="45.84115" lon="6.75981">
        <ele>1576</ele>
        <time>2026-08-14T11:13:28.540Z</time>
      </trkpt>
      <trkpt lat="45.84117" lon="6.75979">
        <ele>1576</ele>
        <time>2026-08-14T11:13:29.540Z</time>
      </trkpt>
      <trkpt lat="45.84119" lon="6.75978">
        <ele>1576</ele>
        <time>2026-08-14T11:13:30.540Z</time>
      </trkpt>
      <trkpt lat="45.84121" lon="6.75976">
        <ele>1576</ele>
        <time>2026-08-14T11:13:31.540Z</time>
      </trkpt>
      <trkpt lat="45.84123" lon="6.75974">
        <ele>1575</ele>
        <time>2026-08-14T11:13:32.540Z</time>
      </trkpt>
      <trkpt lat="45.84125" lon="6.75973">
        <ele>1575</ele>
        <time>2026-08-14T11:13:33.540Z</time>
      </trkpt>
      <trkpt lat="45.84126" lon="6.75971">
        <ele>1574</ele>
        <time>2026-08-14T11:13:34.540Z</time>
      </trkpt>
      <trkpt lat="45.84128" lon="6.7597">
        <ele>1574</ele>
        <time>2026-08-14T11:13:35.540Z</time>
      </trkpt>
      <trkpt lat="45.8413" lon="6.75969">
        <ele>1573</ele>
        <time>2026-08-14T11:13:36.540Z</time>
      </trkpt>
      <trkpt lat="45.84132" lon="6.75968">
        <ele>1573</ele>
        <time>2026-08-14T11:13:37.540Z</time>
      </trkpt>
      <trkpt lat="45.84133" lon="6.75966">
        <ele>1573</ele>
        <time>2026-08-14T11:13:38.540Z</time>
      </trkpt>
      <trkpt lat="45.84135" lon="6.75965">
        <ele>1572</ele>
        <time>2026-08-14T11:13:39.540Z</time>
      </trkpt>
      <trkpt lat="45.84136" lon="6.75963">
        <ele>1572</ele>
        <time>2026-08-14T11:13:40.540Z</time>
      </trkpt>
      <trkpt lat="45.84137" lon="6.75961">
        <ele>1572</ele>
        <time>2026-08-14T11:13:41.540Z</time>
      </trkpt>
      <trkpt lat="45.84138" lon="6.75959">
        <ele>1572</ele>
        <time>2026-08-14T11:13:42.540Z</time>
      </trkpt>
      <trkpt lat="45.84139" lon="6.75957">
        <ele>1572</ele>
        <time>2026-08-14T11:13:43.540Z</time>
      </trkpt>
      <trkpt lat="45.8414" lon="6.75956">
        <ele>1571</ele>
        <time>2026-08-14T11:13:44.540Z</time>
      </trkpt>
      <trkpt lat="45.84141" lon="6.75955">
        <ele>1571</ele>
        <time>2026-08-14T11:13:45.540Z</time>
      </trkpt>
      <trkpt lat="45.84142" lon="6.75954">
        <ele>1571</ele>
        <time>2026-08-14T11:13:46.540Z</time>
      </trkpt>
      <trkpt lat="45.84143" lon="6.75953">
        <ele>1571</ele>
        <time>2026-08-14T11:13:47.540Z</time>
      </trkpt>
      <trkpt lat="45.84145" lon="6.75952">
        <ele>1571</ele>
        <time>2026-08-14T11:13:48.540Z</time>
      </trkpt>
      <trkpt lat="45.84146" lon="6.75952">
        <ele>1570</ele>
        <time>2026-08-14T11:13:49.540Z</time>
      </trkpt>
      <trkpt lat="45.84147" lon="6.75951">
        <ele>1570</ele>
        <time>2026-08-14T11:13:50.540Z</time>
      </trkpt>
      <trkpt lat="45.84149" lon="6.7595">
        <ele>1570</ele>
        <time>2026-08-14T11:13:51.540Z</time>
      </trkpt>
      <trkpt lat="45.8415" lon="6.75949">
        <ele>1570</ele>
        <time>2026-08-14T11:13:52.540Z</time>
      </trkpt>
      <trkpt lat="45.84151" lon="6.75949">
        <ele>1570</ele>
        <time>2026-08-14T11:13:53.540Z</time>
      </trkpt>
      <trkpt lat="45.84152" lon="6.75948">
        <ele>1570</ele>
        <time>2026-08-14T11:13:54.540Z</time>
      </trkpt>
      <trkpt lat="45.84153" lon="6.75948">
        <ele>1569</ele>
        <time>2026-08-14T11:13:55.540Z</time>
      </trkpt>
      <trkpt lat="45.84154" lon="6.75947">
        <ele>1569</ele>
        <time>2026-08-14T11:13:56.540Z</time>
      </trkpt>
      <trkpt lat="45.84155" lon="6.75946">
        <ele>1569</ele>
        <time>2026-08-14T11:13:57.540Z</time>
      </trkpt>
      <trkpt lat="45.84156" lon="6.75945">
        <ele>1569</ele>
        <time>2026-08-14T11:13:58.540Z</time>
      </trkpt>
      <trkpt lat="45.84158" lon="6.75945">
        <ele>1569</ele>
        <time>2026-08-14T11:13:59.540Z</time>
      </trkpt>
      <trkpt lat="45.84159" lon="6.75944">
        <ele>1569</ele>
        <time>2026-08-14T11:14:00.540Z</time>
      </trkpt>
      <trkpt lat="45.84161" lon="6.75944">
        <ele>1569</ele>
        <time>2026-08-14T11:14:01.540Z</time>
      </trkpt>
      <trkpt lat="45.84162" lon="6.75944">
        <ele>1569</ele>
        <time>2026-08-14T11:14:02.540Z</time>
      </trkpt>
      <trkpt lat="45.84163" lon="6.75943">
        <ele>1569</ele>
        <time>2026-08-14T11:14:03.540Z</time>
      </trkpt>
      <trkpt lat="45.84165" lon="6.75942">
        <ele>1569</ele>
        <time>2026-08-14T11:14:04.540Z</time>
      </trkpt>
      <trkpt lat="45.84166" lon="6.75941">
        <ele>1569</ele>
        <time>2026-08-14T11:14:05.540Z</time>
      </trkpt>
      <trkpt lat="45.84168" lon="6.75941">
        <ele>1569</ele>
        <time>2026-08-14T11:14:06.540Z</time>
      </trkpt>
      <trkpt lat="45.84169" lon="6.7594">
        <ele>1569</ele>
        <time>2026-08-14T11:14:07.540Z</time>
      </trkpt>
      <trkpt lat="45.8417" lon="6.7594">
        <ele>1569</ele>
        <time>2026-08-14T11:14:08.540Z</time>
      </trkpt>
      <trkpt lat="45.84172" lon="6.7594">
        <ele>1569</ele>
        <time>2026-08-14T11:14:09.540Z</time>
      </trkpt>
      <trkpt lat="45.84173" lon="6.75939">
        <ele>1568</ele>
        <time>2026-08-14T11:14:10.540Z</time>
      </trkpt>
      <trkpt lat="45.84174" lon="6.75938">
        <ele>1568</ele>
        <time>2026-08-14T11:14:11.540Z</time>
      </trkpt>
      <trkpt lat="45.84175" lon="6.75937">
        <ele>1568</ele>
        <time>2026-08-14T11:14:12.540Z</time>
      </trkpt>
      <trkpt lat="45.84177" lon="6.75937">
        <ele>1568</ele>
        <time>2026-08-14T11:14:13.540Z</time>
      </trkpt>
      <trkpt lat="45.84179" lon="6.75936">
        <ele>1568</ele>
        <time>2026-08-14T11:14:14.540Z</time>
      </trkpt>
      <trkpt lat="45.84181" lon="6.75935">
        <ele>1568</ele>
        <time>2026-08-14T11:14:15.540Z</time>
      </trkpt>
      <trkpt lat="45.84183" lon="6.75934">
        <ele>1567</ele>
        <time>2026-08-14T11:14:16.540Z</time>
      </trkpt>
      <trkpt lat="45.84185" lon="6.75933">
        <ele>1567</ele>
        <time>2026-08-14T11:14:17.540Z</time>
      </trkpt>
      <trkpt lat="45.84187" lon="6.75933">
        <ele>1567</ele>
        <time>2026-08-14T11:14:18.540Z</time>
      </trkpt>
      <trkpt lat="45.84189" lon="6.75932">
        <ele>1567</ele>
        <time>2026-08-14T11:14:19.541Z</time>
      </trkpt>
      <trkpt lat="45.8419" lon="6.75931">
        <ele>1567</ele>
        <time>2026-08-14T11:14:20.540Z</time>
      </trkpt>
      <trkpt lat="45.84192" lon="6.75931">
        <ele>1567</ele>
        <time>2026-08-14T11:14:21.540Z</time>
      </trkpt>
      <trkpt lat="45.84193" lon="6.75931">
        <ele>1567</ele>
        <time>2026-08-14T11:14:22.540Z</time>
      </trkpt>
      <trkpt lat="45.84195" lon="6.75931">
        <ele>1567</ele>
        <time>2026-08-14T11:14:23.540Z</time>
      </trkpt>
      <trkpt lat="45.84196" lon="6.75933">
        <ele>1567</ele>
        <time>2026-08-14T11:14:24.540Z</time>
      </trkpt>
      <trkpt lat="45.84198" lon="6.75934">
        <ele>1567</ele>
        <time>2026-08-14T11:14:25.540Z</time>
      </trkpt>
      <trkpt lat="45.84199" lon="6.75935">
        <ele>1568</ele>
        <time>2026-08-14T11:14:26.540Z</time>
      </trkpt>
      <trkpt lat="45.84201" lon="6.75936">
        <ele>1568</ele>
        <time>2026-08-14T11:14:27.540Z</time>
      </trkpt>
      <trkpt lat="45.84202" lon="6.75936">
        <ele>1568</ele>
        <time>2026-08-14T11:14:28.540Z</time>
      </trkpt>
      <trkpt lat="45.84203" lon="6.75937">
        <ele>1568</ele>
        <time>2026-08-14T11:14:29.540Z</time>
      </trkpt>
      <trkpt lat="45.84205" lon="6.75937">
        <ele>1568</ele>
        <time>2026-08-14T11:14:30.540Z</time>
      </trkpt>
      <trkpt lat="45.84206" lon="6.75938">
        <ele>1568</ele>
        <time>2026-08-14T11:14:31.540Z</time>
      </trkpt>
      <trkpt lat="45.84207" lon="6.75938">
        <ele>1569</ele>
        <time>2026-08-14T11:14:32.540Z</time>
      </trkpt>
      <trkpt lat="45.84208" lon="6.75938">
        <ele>1569</ele>
        <time>2026-08-14T11:14:33.540Z</time>
      </trkpt>
      <trkpt lat="45.84209" lon="6.75939">
        <ele>1569</ele>
        <time>2026-08-14T11:14:34.540Z</time>
      </trkpt>
      <trkpt lat="45.84209" lon="6.7594">
        <ele>1569</ele>
        <time>2026-08-14T11:14:35.540Z</time>
      </trkpt>
      <trkpt lat="45.8421" lon="6.7594">
        <ele>1570</ele>
        <time>2026-08-14T11:14:36.540Z</time>
      </trkpt>
      <trkpt lat="45.8421" lon="6.7594">
        <ele>1570</ele>
        <time>2026-08-14T11:14:37.540Z</time>
      </trkpt>
      <trkpt lat="45.8421" lon="6.7594">
        <ele>1570</ele>
        <time>2026-08-14T11:14:38.540Z</time>
      </trkpt>
      <trkpt lat="45.8421" lon="6.75939">
        <ele>1570</ele>
        <time>2026-08-14T11:14:39.540Z</time>
      </trkpt>
      <trkpt lat="45.84211" lon="6.75938">
        <ele>1570</ele>
        <time>2026-08-14T11:14:40.540Z</time>
      </trkpt>
      <trkpt lat="45.84211" lon="6.75938">
        <ele>1569</ele>
        <time>2026-08-14T11:14:41.540Z</time>
      </trkpt>
      <trkpt lat="45.84211" lon="6.75937">
        <ele>1569</ele>
        <time>2026-08-14T11:14:42.540Z</time>
      </trkpt>
      <trkpt lat="45.84212" lon="6.75936">
        <ele>1569</ele>
        <time>2026-08-14T11:14:43.540Z</time>
      </trkpt>
      <trkpt lat="45.84213" lon="6.75936">
        <ele>1568</ele>
        <time>2026-08-14T11:14:44.540Z</time>
      </trkpt>
      <trkpt lat="45.84214" lon="6.75935">
        <ele>1568</ele>
        <time>2026-08-14T11:14:45.540Z</time>
      </trkpt>
      <trkpt lat="45.84214" lon="6.75935">
        <ele>1568</ele>
        <time>2026-08-14T11:14:46.540Z</time>
      </trkpt>
      <trkpt lat="45.84215" lon="6.75935">
        <ele>1569</ele>
        <time>2026-08-14T11:14:47.540Z</time>
      </trkpt>
      <trkpt lat="45.84216" lon="6.75936">
        <ele>1569</ele>
        <time>2026-08-14T11:14:48.540Z</time>
      </trkpt>
      <trkpt lat="45.84217" lon="6.75937">
        <ele>1569</ele>
        <time>2026-08-14T11:14:49.540Z</time>
      </trkpt>
      <trkpt lat="45.84218" lon="6.75938">
        <ele>1569</ele>
        <time>2026-08-14T11:14:50.540Z</time>
      </trkpt>
      <trkpt lat="45.84219" lon="6.75939">
        <ele>1568</ele>
        <time>2026-08-14T11:14:51.540Z</time>
      </trkpt>
      <trkpt lat="45.8422" lon="6.7594">
        <ele>1568</ele>
        <time>2026-08-14T11:14:52.540Z</time>
      </trkpt>
      <trkpt lat="45.84221" lon="6.75941">
        <ele>1568</ele>
        <time>2026-08-14T11:14:53.540Z</time>
      </trkpt>
      <trkpt lat="45.84221" lon="6.75941">
        <ele>1569</ele>
        <time>2026-08-14T11:14:54.540Z</time>
      </trkpt>
      <trkpt lat="45.84222" lon="6.75942">
        <ele>1569</ele>
        <time>2026-08-14T11:14:55.540Z</time>
      </trkpt>
      <trkpt lat="45.84223" lon="6.75943">
        <ele>1570</ele>
        <time>2026-08-14T11:14:56.540Z</time>
      </trkpt>
      <trkpt lat="45.84224" lon="6.75943">
        <ele>1570</ele>
        <time>2026-08-14T11:14:57.540Z</time>
      </trkpt>
      <trkpt lat="45.84225" lon="6.75944">
        <ele>1570</ele>
        <time>2026-08-14T11:14:58.540Z</time>
      </trkpt>
      <trkpt lat="45.84226" lon="6.75944">
        <ele>1570</ele>
        <time>2026-08-14T11:14:59.540Z</time>
      </trkpt>
      <trkpt lat="45.84227" lon="6.75943">
        <ele>1570</ele>
        <time>2026-08-14T11:15:00.540Z</time>
      </trkpt>
      <trkpt lat="45.84228" lon="6.75942">
        <ele>1570</ele>
        <time>2026-08-14T11:15:01.540Z</time>
      </trkpt>
      <trkpt lat="45.84228" lon="6.75941">
        <ele>1570</ele>
        <time>2026-08-14T11:15:02.540Z</time>
      </trkpt>
      <trkpt lat="45.84229" lon="6.7594">
        <ele>1570</ele>
        <time>2026-08-14T11:15:03.540Z</time>
      </trkpt>
      <trkpt lat="45.8423" lon="6.75938">
        <ele>1570</ele>
        <time>2026-08-14T11:15:04.540Z</time>
      </trkpt>
      <trkpt lat="45.8423" lon="6.75938">
        <ele>1570</ele>
        <time>2026-08-14T11:15:05.540Z</time>
      </trkpt>
      <trkpt lat="45.84231" lon="6.75937">
        <ele>1570</ele>
        <time>2026-08-14T11:15:06.540Z</time>
      </trkpt>
      <trkpt lat="45.84231" lon="6.75936">
        <ele>1570</ele>
        <time>2026-08-14T11:15:07.540Z</time>
      </trkpt>
      <trkpt lat="45.84232" lon="6.75935">
        <ele>1570</ele>
        <time>2026-08-14T11:15:08.540Z</time>
      </trkpt>
      <trkpt lat="45.84232" lon="6.75933">
        <ele>1570</ele>
        <time>2026-08-14T11:15:09.540Z</time>
      </trkpt>
      <trkpt lat="45.84232" lon="6.75931">
        <ele>1570</ele>
        <time>2026-08-14T11:15:10.540Z</time>
      </trkpt>
      <trkpt lat="45.84232" lon="6.75928">
        <ele>1570</ele>
        <time>2026-08-14T11:15:11.540Z</time>
      </trkpt>
      <trkpt lat="45.84233" lon="6.75926">
        <ele>1570</ele>
        <time>2026-08-14T11:15:12.540Z</time>
      </trkpt>
      <trkpt lat="45.84233" lon="6.75924">
        <ele>1570</ele>
        <time>2026-08-14T11:15:13.540Z</time>
      </trkpt>
      <trkpt lat="45.84234" lon="6.75921">
        <ele>1569</ele>
        <time>2026-08-14T11:15:14.540Z</time>
      </trkpt>
      <trkpt lat="45.84234" lon="6.75918">
        <ele>1569</ele>
        <time>2026-08-14T11:15:15.540Z</time>
      </trkpt>
      <trkpt lat="45.84235" lon="6.75915">
        <ele>1569</ele>
        <time>2026-08-14T11:15:16.540Z</time>
      </trkpt>
      <trkpt lat="45.84235" lon="6.75912">
        <ele>1569</ele>
        <time>2026-08-14T11:15:17.540Z</time>
      </trkpt>
      <trkpt lat="45.84235" lon="6.75909">
        <ele>1569</ele>
        <time>2026-08-14T11:15:18.540Z</time>
      </trkpt>
      <trkpt lat="45.84235" lon="6.75905">
        <ele>1568</ele>
        <time>2026-08-14T11:15:19.540Z</time>
      </trkpt>
      <trkpt lat="45.84236" lon="6.75902">
        <ele>1568</ele>
        <time>2026-08-14T11:15:20.540Z</time>
      </trkpt>
      <trkpt lat="45.84236" lon="6.75899">
        <ele>1568</ele>
        <time>2026-08-14T11:15:21.540Z</time>
      </trkpt>
      <trkpt lat="45.84237" lon="6.75897">
        <ele>1567</ele>
        <time>2026-08-14T11:15:22.540Z</time>
      </trkpt>
      <trkpt lat="45.84238" lon="6.75894">
        <ele>1567</ele>
        <time>2026-08-14T11:15:23.540Z</time>
      </trkpt>
      <trkpt lat="45.84239" lon="6.75892">
        <ele>1568</ele>
        <time>2026-08-14T11:15:24.540Z</time>
      </trkpt>
      <trkpt lat="45.84241" lon="6.75889">
        <ele>1568</ele>
        <time>2026-08-14T11:15:25.540Z</time>
      </trkpt>
      <trkpt lat="45.84242" lon="6.75887">
        <ele>1568</ele>
        <time>2026-08-14T11:15:26.540Z</time>
      </trkpt>
      <trkpt lat="45.84244" lon="6.75885">
        <ele>1568</ele>
        <time>2026-08-14T11:15:27.540Z</time>
      </trkpt>
      <trkpt lat="45.84246" lon="6.75883">
        <ele>1568</ele>
        <time>2026-08-14T11:15:28.540Z</time>
      </trkpt>
      <trkpt lat="45.84247" lon="6.7588">
        <ele>1568</ele>
        <time>2026-08-14T11:15:29.540Z</time>
      </trkpt>
      <trkpt lat="45.84249" lon="6.75877">
        <ele>1568</ele>
        <time>2026-08-14T11:15:30.540Z</time>
      </trkpt>
      <trkpt lat="45.8425" lon="6.75874">
        <ele>1568</ele>
        <time>2026-08-14T11:15:31.540Z</time>
      </trkpt>
      <trkpt lat="45.84251" lon="6.75871">
        <ele>1568</ele>
        <time>2026-08-14T11:15:32.540Z</time>
      </trkpt>
      <trkpt lat="45.84251" lon="6.75868">
        <ele>1568</ele>
        <time>2026-08-14T11:15:33.540Z</time>
      </trkpt>
      <trkpt lat="45.84251" lon="6.75864">
        <ele>1568</ele>
        <time>2026-08-14T11:15:34.540Z</time>
      </trkpt>
      <trkpt lat="45.84252" lon="6.75862">
        <ele>1567</ele>
        <time>2026-08-14T11:15:35.540Z</time>
      </trkpt>
      <trkpt lat="45.84253" lon="6.75859">
        <ele>1568</ele>
        <time>2026-08-14T11:15:36.540Z</time>
      </trkpt>
      <trkpt lat="45.84254" lon="6.75856">
        <ele>1568</ele>
        <time>2026-08-14T11:15:37.540Z</time>
      </trkpt>
      <trkpt lat="45.84254" lon="6.75853">
        <ele>1567</ele>
        <time>2026-08-14T11:15:38.540Z</time>
      </trkpt>
      <trkpt lat="45.84256" lon="6.75851">
        <ele>1567</ele>
        <time>2026-08-14T11:15:39.540Z</time>
      </trkpt>
      <trkpt lat="45.84257" lon="6.75849">
        <ele>1567</ele>
        <time>2026-08-14T11:15:40.540Z</time>
      </trkpt>
      <trkpt lat="45.84258" lon="6.75846">
        <ele>1567</ele>
        <time>2026-08-14T11:15:41.540Z</time>
      </trkpt>
      <trkpt lat="45.8426" lon="6.75844">
        <ele>1568</ele>
        <time>2026-08-14T11:15:42.540Z</time>
      </trkpt>
      <trkpt lat="45.84261" lon="6.75843">
        <ele>1568</ele>
        <time>2026-08-14T11:15:43.540Z</time>
      </trkpt>
      <trkpt lat="45.84262" lon="6.75841">
        <ele>1568</ele>
        <time>2026-08-14T11:15:44.540Z</time>
      </trkpt>
      <trkpt lat="45.84263" lon="6.7584">
        <ele>1569</ele>
        <time>2026-08-14T11:15:45.540Z</time>
      </trkpt>
      <trkpt lat="45.84264" lon="6.75839">
        <ele>1569</ele>
        <time>2026-08-14T11:15:46.540Z</time>
      </trkpt>
      <trkpt lat="45.84265" lon="6.75838">
        <ele>1569</ele>
        <time>2026-08-14T11:15:47.540Z</time>
      </trkpt>
      <trkpt lat="45.84266" lon="6.75837">
        <ele>1570</ele>
        <time>2026-08-14T11:15:48.540Z</time>
      </trkpt>
      <trkpt lat="45.84267" lon="6.75836">
        <ele>1570</ele>
        <time>2026-08-14T11:15:49.540Z</time>
      </trkpt>
      <trkpt lat="45.84268" lon="6.75835">
        <ele>1571</ele>
        <time>2026-08-14T11:15:50.540Z</time>
      </trkpt>
      <trkpt lat="45.84268" lon="6.75834">
        <ele>1571</ele>
        <time>2026-08-14T11:15:51.540Z</time>
      </trkpt>
      <trkpt lat="45.84269" lon="6.75833">
        <ele>1572</ele>
        <time>2026-08-14T11:15:52.540Z</time>
      </trkpt>
      <trkpt lat="45.84269" lon="6.75832">
        <ele>1572</ele>
        <time>2026-08-14T11:15:53.540Z</time>
      </trkpt>
      <trkpt lat="45.8427" lon="6.75831">
        <ele>1572</ele>
        <time>2026-08-14T11:15:54.540Z</time>
      </trkpt>
      <trkpt lat="45.8427" lon="6.7583">
        <ele>1572</ele>
        <time>2026-08-14T11:15:55.540Z</time>
      </trkpt>
      <trkpt lat="45.84271" lon="6.75829">
        <ele>1572</ele>
        <time>2026-08-14T11:15:56.540Z</time>
      </trkpt>
      <trkpt lat="45.84271" lon="6.75829">
        <ele>1572</ele>
        <time>2026-08-14T11:15:57.540Z</time>
      </trkpt>
      <trkpt lat="45.84271" lon="6.75829">
        <ele>1572</ele>
        <time>2026-08-14T11:15:58.540Z</time>
      </trkpt>
      <trkpt lat="45.84271" lon="6.75829">
        <ele>1572</ele>
        <time>2026-08-14T11:15:59.540Z</time>
      </trkpt>
      <trkpt lat="45.84271" lon="6.75829">
        <ele>1573</ele>
        <time>2026-08-14T11:16:00.540Z</time>
      </trkpt>
      <trkpt lat="45.84271" lon="6.75829">
        <ele>1574</ele>
        <time>2026-08-14T11:16:01.540Z</time>
      </trkpt>
      <trkpt lat="45.84271" lon="6.75829">
        <ele>1574</ele>
        <time>2026-08-14T11:16:02.540Z</time>
      </trkpt>
      <trkpt lat="45.84271" lon="6.75828">
        <ele>1575</ele>
        <time>2026-08-14T11:16:03.540Z</time>
      </trkpt>
      <trkpt lat="45.84272" lon="6.75827">
        <ele>1575</ele>
        <time>2026-08-14T11:16:04.540Z</time>
      </trkpt>
      <trkpt lat="45.84272" lon="6.75826">
        <ele>1575</ele>
        <time>2026-08-14T11:16:05.540Z</time>
      </trkpt>
      <trkpt lat="45.84273" lon="6.75824">
        <ele>1575</ele>
        <time>2026-08-14T11:16:06.540Z</time>
      </trkpt>
      <trkpt lat="45.84273" lon="6.75823">
        <ele>1575</ele>
        <time>2026-08-14T11:16:07.540Z</time>
      </trkpt>
      <trkpt lat="45.84274" lon="6.75821">
        <ele>1575</ele>
        <time>2026-08-14T11:16:08.540Z</time>
      </trkpt>
      <trkpt lat="45.84275" lon="6.75819">
        <ele>1575</ele>
        <time>2026-08-14T11:16:09.540Z</time>
      </trkpt>
      <trkpt lat="45.84276" lon="6.75817">
        <ele>1575</ele>
        <time>2026-08-14T11:16:10.540Z</time>
      </trkpt>
      <trkpt lat="45.84277" lon="6.75815">
        <ele>1575</ele>
        <time>2026-08-14T11:16:11.540Z</time>
      </trkpt>
      <trkpt lat="45.84277" lon="6.75813">
        <ele>1575</ele>
        <time>2026-08-14T11:16:12.540Z</time>
      </trkpt>
      <trkpt lat="45.84278" lon="6.75811">
        <ele>1576</ele>
        <time>2026-08-14T11:16:13.540Z</time>
      </trkpt>
      <trkpt lat="45.84278" lon="6.7581">
        <ele>1576</ele>
        <time>2026-08-14T11:16:14.540Z</time>
      </trkpt>
      <trkpt lat="45.84279" lon="6.75808">
        <ele>1576</ele>
        <time>2026-08-14T11:16:15.540Z</time>
      </trkpt>
      <trkpt lat="45.8428" lon="6.75806">
        <ele>1577</ele>
        <time>2026-08-14T11:16:16.540Z</time>
      </trkpt>
      <trkpt lat="45.84281" lon="6.75804">
        <ele>1577</ele>
        <time>2026-08-14T11:16:17.540Z</time>
      </trkpt>
      <trkpt lat="45.84281" lon="6.75802">
        <ele>1577</ele>
        <time>2026-08-14T11:16:18.540Z</time>
      </trkpt>
      <trkpt lat="45.84282" lon="6.758">
        <ele>1577</ele>
        <time>2026-08-14T11:16:19.540Z</time>
      </trkpt>
      <trkpt lat="45.84283" lon="6.75798">
        <ele>1577</ele>
        <time>2026-08-14T11:16:20.540Z</time>
      </trkpt>
      <trkpt lat="45.84284" lon="6.75796">
        <ele>1577</ele>
        <time>2026-08-14T11:16:21.540Z</time>
      </trkpt>
      <trkpt lat="45.84285" lon="6.75794">
        <ele>1578</ele>
        <time>2026-08-14T11:16:22.540Z</time>
      </trkpt>
      <trkpt lat="45.84286" lon="6.75791">
        <ele>1578</ele>
        <time>2026-08-14T11:16:23.540Z</time>
      </trkpt>
      <trkpt lat="45.84287" lon="6.75789">
        <ele>1578</ele>
        <time>2026-08-14T11:16:24.540Z</time>
      </trkpt>
      <trkpt lat="45.84288" lon="6.75786">
        <ele>1578</ele>
        <time>2026-08-14T11:16:25.540Z</time>
      </trkpt>
      <trkpt lat="45.84289" lon="6.75784">
        <ele>1578</ele>
        <time>2026-08-14T11:16:26.540Z</time>
      </trkpt>
      <trkpt lat="45.8429" lon="6.75782">
        <ele>1578</ele>
        <time>2026-08-14T11:16:27.540Z</time>
      </trkpt>
      <trkpt lat="45.84292" lon="6.7578">
        <ele>1578</ele>
        <time>2026-08-14T11:16:28.540Z</time>
      </trkpt>
      <trkpt lat="45.84294" lon="6.75778">
        <ele>1578</ele>
        <time>2026-08-14T11:16:29.540Z</time>
      </trkpt>
      <trkpt lat="45.84295" lon="6.75775">
        <ele>1578</ele>
        <time>2026-08-14T11:16:30.540Z</time>
      </trkpt>
      <trkpt lat="45.84297" lon="6.75773">
        <ele>1578</ele>
        <time>2026-08-14T11:16:31.540Z</time>
      </trkpt>
      <trkpt lat="45.84299" lon="6.75771">
        <ele>1579</ele>
        <time>2026-08-14T11:16:32.540Z</time>
      </trkpt>
      <trkpt lat="45.843" lon="6.7577">
        <ele>1579</ele>
        <time>2026-08-14T11:16:33.540Z</time>
      </trkpt>
      <trkpt lat="45.84302" lon="6.75769">
        <ele>1579</ele>
        <time>2026-08-14T11:16:34.540Z</time>
      </trkpt>
      <trkpt lat="45.84303" lon="6.75767">
        <ele>1579</ele>
        <time>2026-08-14T11:16:35.540Z</time>
      </trkpt>
      <trkpt lat="45.84304" lon="6.75766">
        <ele>1579</ele>
        <time>2026-08-14T11:16:36.540Z</time>
      </trkpt>
      <trkpt lat="45.84305" lon="6.75765">
        <ele>1579</ele>
        <time>2026-08-14T11:16:37.540Z</time>
      </trkpt>
      <trkpt lat="45.84306" lon="6.75764">
        <ele>1580</ele>
        <time>2026-08-14T11:16:38.540Z</time>
      </trkpt>
      <trkpt lat="45.84306" lon="6.75763">
        <ele>1580</ele>
        <time>2026-08-14T11:16:39.540Z</time>
      </trkpt>
      <trkpt lat="45.84308" lon="6.75762">
        <ele>1581</ele>
        <time>2026-08-14T11:16:40.540Z</time>
      </trkpt>
      <trkpt lat="45.84309" lon="6.75761">
        <ele>1581</ele>
        <time>2026-08-14T11:16:41.540Z</time>
      </trkpt>
      <trkpt lat="45.8431" lon="6.7576">
        <ele>1581</ele>
        <time>2026-08-14T11:16:42.540Z</time>
      </trkpt>
      <trkpt lat="45.84311" lon="6.75759">
        <ele>1582</ele>
        <time>2026-08-14T11:16:43.540Z</time>
      </trkpt>
      <trkpt lat="45.84312" lon="6.75758">
        <ele>1582</ele>
        <time>2026-08-14T11:16:44.540Z</time>
      </trkpt>
      <trkpt lat="45.84313" lon="6.75757">
        <ele>1582</ele>
        <time>2026-08-14T11:16:45.540Z</time>
      </trkpt>
      <trkpt lat="45.84314" lon="6.75755">
        <ele>1582</ele>
        <time>2026-08-14T11:16:46.540Z</time>
      </trkpt>
      <trkpt lat="45.84314" lon="6.75753">
        <ele>1583</ele>
        <time>2026-08-14T11:16:47.540Z</time>
      </trkpt>
      <trkpt lat="45.84315" lon="6.75751">
        <ele>1583</ele>
        <time>2026-08-14T11:16:48.540Z</time>
      </trkpt>
      <trkpt lat="45.84315" lon="6.75749">
        <ele>1583</ele>
        <time>2026-08-14T11:16:49.540Z</time>
      </trkpt>
      <trkpt lat="45.84315" lon="6.75747">
        <ele>1584</ele>
        <time>2026-08-14T11:16:50.540Z</time>
      </trkpt>
      <trkpt lat="45.84316" lon="6.75746">
        <ele>1583</ele>
        <time>2026-08-14T11:16:51.540Z</time>
      </trkpt>
      <trkpt lat="45.84316" lon="6.75745">
        <ele>1583</ele>
        <time>2026-08-14T11:16:52.540Z</time>
      </trkpt>
      <trkpt lat="45.84316" lon="6.75743">
        <ele>1583</ele>
        <time>2026-08-14T11:16:53.540Z</time>
      </trkpt>
      <trkpt lat="45.84317" lon="6.75742">
        <ele>1584</ele>
        <time>2026-08-14T11:16:54.540Z</time>
      </trkpt>
      <trkpt lat="45.84317" lon="6.7574">
        <ele>1584</ele>
        <time>2026-08-14T11:16:55.540Z</time>
      </trkpt>
      <trkpt lat="45.84316" lon="6.75737">
        <ele>1584</ele>
        <time>2026-08-14T11:16:56.540Z</time>
      </trkpt>
      <trkpt lat="45.84316" lon="6.75735">
        <ele>1585</ele>
        <time>2026-08-14T11:16:57.540Z</time>
      </trkpt>
      <trkpt lat="45.84316" lon="6.75732">
        <ele>1585</ele>
        <time>2026-08-14T11:16:58.540Z</time>
      </trkpt>
      <trkpt lat="45.84316" lon="6.7573">
        <ele>1585</ele>
        <time>2026-08-14T11:16:59.540Z</time>
      </trkpt>
      <trkpt lat="45.84317" lon="6.75728">
        <ele>1585</ele>
        <time>2026-08-14T11:17:00.540Z</time>
      </trkpt>
      <trkpt lat="45.84317" lon="6.75727">
        <ele>1586</ele>
        <time>2026-08-14T11:17:01.540Z</time>
      </trkpt>
      <trkpt lat="45.84317" lon="6.75725">
        <ele>1586</ele>
        <time>2026-08-14T11:17:02.540Z</time>
      </trkpt>
      <trkpt lat="45.84317" lon="6.75723">
        <ele>1587</ele>
        <time>2026-08-14T11:17:03.540Z</time>
      </trkpt>
      <trkpt lat="45.84318" lon="6.75722">
        <ele>1587</ele>
        <time>2026-08-14T11:17:04.540Z</time>
      </trkpt>
      <trkpt lat="45.84318" lon="6.7572">
        <ele>1587</ele>
        <time>2026-08-14T11:17:05.540Z</time>
      </trkpt>
      <trkpt lat="45.84319" lon="6.75719">
        <ele>1588</ele>
        <time>2026-08-14T11:17:06.540Z</time>
      </trkpt>
      <trkpt lat="45.8432" lon="6.75718">
        <ele>1588</ele>
        <time>2026-08-14T11:17:07.540Z</time>
      </trkpt>
      <trkpt lat="45.84321" lon="6.75717">
        <ele>1588</ele>
        <time>2026-08-14T11:17:08.540Z</time>
      </trkpt>
      <trkpt lat="45.84321" lon="6.75716">
        <ele>1589</ele>
        <time>2026-08-14T11:17:09.540Z</time>
      </trkpt>
      <trkpt lat="45.84322" lon="6.75715">
        <ele>1589</ele>
        <time>2026-08-14T11:17:10.540Z</time>
      </trkpt>
      <trkpt lat="45.84323" lon="6.75714">
        <ele>1589</ele>
        <time>2026-08-14T11:17:11.540Z</time>
      </trkpt>
      <trkpt lat="45.84325" lon="6.75714">
        <ele>1589</ele>
        <time>2026-08-14T11:17:12.540Z</time>
      </trkpt>
      <trkpt lat="45.84326" lon="6.75713">
        <ele>1589</ele>
        <time>2026-08-14T11:17:13.540Z</time>
      </trkpt>
      <trkpt lat="45.84327" lon="6.7571">
        <ele>1590</ele>
        <time>2026-08-14T11:17:14.540Z</time>
      </trkpt>
      <trkpt lat="45.84329" lon="6.75708">
        <ele>1590</ele>
        <time>2026-08-14T11:17:15.540Z</time>
      </trkpt>
      <trkpt lat="45.8433" lon="6.75706">
        <ele>1590</ele>
        <time>2026-08-14T11:17:16.540Z</time>
      </trkpt>
      <trkpt lat="45.84331" lon="6.75705">
        <ele>1590</ele>
        <time>2026-08-14T11:17:17.540Z</time>
      </trkpt>
      <trkpt lat="45.84332" lon="6.75704">
        <ele>1591</ele>
        <time>2026-08-14T11:17:18.540Z</time>
      </trkpt>
      <trkpt lat="45.84334" lon="6.75703">
        <ele>1591</ele>
        <time>2026-08-14T11:17:19.540Z</time>
      </trkpt>
      <trkpt lat="45.84335" lon="6.75704">
        <ele>1591</ele>
        <time>2026-08-14T11:17:20.540Z</time>
      </trkpt>
      <trkpt lat="45.84337" lon="6.75703">
        <ele>1592</ele>
        <time>2026-08-14T11:17:21.540Z</time>
      </trkpt>
      <trkpt lat="45.84339" lon="6.75702">
        <ele>1592</ele>
        <time>2026-08-14T11:17:22.540Z</time>
      </trkpt>
      <trkpt lat="45.8434" lon="6.75701">
        <ele>1593</ele>
        <time>2026-08-14T11:17:23.540Z</time>
      </trkpt>
      <trkpt lat="45.84341" lon="6.75701">
        <ele>1593</ele>
        <time>2026-08-14T11:17:24.540Z</time>
      </trkpt>
      <trkpt lat="45.84342" lon="6.757">
        <ele>1593</ele>
        <time>2026-08-14T11:17:25.540Z</time>
      </trkpt>
      <trkpt lat="45.84342" lon="6.75699">
        <ele>1593</ele>
        <time>2026-08-14T11:17:26.540Z</time>
      </trkpt>
      <trkpt lat="45.84343" lon="6.75698">
        <ele>1593</ele>
        <time>2026-08-14T11:17:27.540Z</time>
      </trkpt>
      <trkpt lat="45.84344" lon="6.75697">
        <ele>1594</ele>
        <time>2026-08-14T11:17:28.540Z</time>
      </trkpt>
      <trkpt lat="45.84345" lon="6.75696">
        <ele>1594</ele>
        <time>2026-08-14T11:17:29.540Z</time>
      </trkpt>
      <trkpt lat="45.84346" lon="6.75696">
        <ele>1594</ele>
        <time>2026-08-14T11:17:30.540Z</time>
      </trkpt>
      <trkpt lat="45.84348" lon="6.75697">
        <ele>1594</ele>
        <time>2026-08-14T11:17:31.540Z</time>
      </trkpt>
      <trkpt lat="45.8435" lon="6.75698">
        <ele>1594</ele>
        <time>2026-08-14T11:17:32.540Z</time>
      </trkpt>
      <trkpt lat="45.84352" lon="6.75698">
        <ele>1594</ele>
        <time>2026-08-14T11:17:33.540Z</time>
      </trkpt>
      <trkpt lat="45.84354" lon="6.75697">
        <ele>1594</ele>
        <time>2026-08-14T11:17:34.540Z</time>
      </trkpt>
      <trkpt lat="45.84355" lon="6.75697">
        <ele>1594</ele>
        <time>2026-08-14T11:17:35.540Z</time>
      </trkpt>
      <trkpt lat="45.84356" lon="6.75696">
        <ele>1594</ele>
        <time>2026-08-14T11:17:36.540Z</time>
      </trkpt>
      <trkpt lat="45.84358" lon="6.75695">
        <ele>1594</ele>
        <time>2026-08-14T11:17:37.540Z</time>
      </trkpt>
      <trkpt lat="45.84359" lon="6.75693">
        <ele>1594</ele>
        <time>2026-08-14T11:17:38.540Z</time>
      </trkpt>
      <trkpt lat="45.84361" lon="6.75691">
        <ele>1594</ele>
        <time>2026-08-14T11:17:39.540Z</time>
      </trkpt>
      <trkpt lat="45.84362" lon="6.7569">
        <ele>1594</ele>
        <time>2026-08-14T11:17:40.540Z</time>
      </trkpt>
      <trkpt lat="45.84364" lon="6.75688">
        <ele>1593</ele>
        <time>2026-08-14T11:17:41.540Z</time>
      </trkpt>
      <trkpt lat="45.84365" lon="6.75687">
        <ele>1593</ele>
        <time>2026-08-14T11:17:42.540Z</time>
      </trkpt>
      <trkpt lat="45.84366" lon="6.75686">
        <ele>1593</ele>
        <time>2026-08-14T11:17:43.540Z</time>
      </trkpt>
      <trkpt lat="45.84366" lon="6.75685">
        <ele>1592</ele>
        <time>2026-08-14T11:17:44.540Z</time>
      </trkpt>
      <trkpt lat="45.84367" lon="6.75684">
        <ele>1592</ele>
        <time>2026-08-14T11:17:45.540Z</time>
      </trkpt>
      <trkpt lat="45.84368" lon="6.75683">
        <ele>1592</ele>
        <time>2026-08-14T11:17:46.540Z</time>
      </trkpt>
      <trkpt lat="45.84368" lon="6.75682">
        <ele>1591</ele>
        <time>2026-08-14T11:17:47.540Z</time>
      </trkpt>
      <trkpt lat="45.84369" lon="6.7568">
        <ele>1592</ele>
        <time>2026-08-14T11:17:48.540Z</time>
      </trkpt>
      <trkpt lat="45.84369" lon="6.75678">
        <ele>1592</ele>
        <time>2026-08-14T11:17:49.540Z</time>
      </trkpt>
      <trkpt lat="45.8437" lon="6.75677">
        <ele>1592</ele>
        <time>2026-08-14T11:17:50.540Z</time>
      </trkpt>
      <trkpt lat="45.84371" lon="6.75675">
        <ele>1592</ele>
        <time>2026-08-14T11:17:51.540Z</time>
      </trkpt>
      <trkpt lat="45.84372" lon="6.75673">
        <ele>1592</ele>
        <time>2026-08-14T11:17:52.540Z</time>
      </trkpt>
      <trkpt lat="45.84373" lon="6.75672">
        <ele>1593</ele>
        <time>2026-08-14T11:17:53.540Z</time>
      </trkpt>
      <trkpt lat="45.84374" lon="6.75671">
        <ele>1593</ele>
        <time>2026-08-14T11:17:54.540Z</time>
      </trkpt>
      <trkpt lat="45.84375" lon="6.75669">
        <ele>1593</ele>
        <time>2026-08-14T11:17:55.540Z</time>
      </trkpt>
      <trkpt lat="45.84377" lon="6.75668">
        <ele>1593</ele>
        <time>2026-08-14T11:17:56.540Z</time>
      </trkpt>
      <trkpt lat="45.84378" lon="6.75665">
        <ele>1593</ele>
        <time>2026-08-14T11:17:57.540Z</time>
      </trkpt>
      <trkpt lat="45.84378" lon="6.75663">
        <ele>1593</ele>
        <time>2026-08-14T11:17:58.540Z</time>
      </trkpt>
      <trkpt lat="45.84379" lon="6.75661">
        <ele>1592</ele>
        <time>2026-08-14T11:17:59.540Z</time>
      </trkpt>
      <trkpt lat="45.8438" lon="6.75659">
        <ele>1592</ele>
        <time>2026-08-14T11:18:00.540Z</time>
      </trkpt>
      <trkpt lat="45.8438" lon="6.75657">
        <ele>1592</ele>
        <time>2026-08-14T11:18:01.540Z</time>
      </trkpt>
      <trkpt lat="45.84381" lon="6.75655">
        <ele>1592</ele>
        <time>2026-08-14T11:18:02.540Z</time>
      </trkpt>
      <trkpt lat="45.84382" lon="6.75654">
        <ele>1592</ele>
        <time>2026-08-14T11:18:03.540Z</time>
      </trkpt>
      <trkpt lat="45.84383" lon="6.75653">
        <ele>1592</ele>
        <time>2026-08-14T11:18:04.540Z</time>
      </trkpt>
      <trkpt lat="45.84386" lon="6.75652">
        <ele>1592</ele>
        <time>2026-08-14T11:18:05.540Z</time>
      </trkpt>
      <trkpt lat="45.84388" lon="6.7565">
        <ele>1592</ele>
        <time>2026-08-14T11:18:06.540Z</time>
      </trkpt>
      <trkpt lat="45.8439" lon="6.75649">
        <ele>1592</ele>
        <time>2026-08-14T11:18:07.540Z</time>
      </trkpt>
      <trkpt lat="45.84392" lon="6.75647">
        <ele>1591</ele>
        <time>2026-08-14T11:18:08.540Z</time>
      </trkpt>
      <trkpt lat="45.84393" lon="6.75645">
        <ele>1591</ele>
        <time>2026-08-14T11:18:09.540Z</time>
      </trkpt>
      <trkpt lat="45.84394" lon="6.75643">
        <ele>1591</ele>
        <time>2026-08-14T11:18:10.540Z</time>
      </trkpt>
      <trkpt lat="45.84395" lon="6.75641">
        <ele>1591</ele>
        <time>2026-08-14T11:18:11.540Z</time>
      </trkpt>
      <trkpt lat="45.84396" lon="6.75639">
        <ele>1591</ele>
        <time>2026-08-14T11:18:12.540Z</time>
      </trkpt>
      <trkpt lat="45.84397" lon="6.75637">
        <ele>1591</ele>
        <time>2026-08-14T11:18:13.540Z</time>
      </trkpt>
      <trkpt lat="45.84397" lon="6.75634">
        <ele>1591</ele>
        <time>2026-08-14T11:18:14.540Z</time>
      </trkpt>
      <trkpt lat="45.84397" lon="6.75631">
        <ele>1592</ele>
        <time>2026-08-14T11:18:15.540Z</time>
      </trkpt>
      <trkpt lat="45.84397" lon="6.75629">
        <ele>1592</ele>
        <time>2026-08-14T11:18:16.540Z</time>
      </trkpt>
      <trkpt lat="45.84398" lon="6.75626">
        <ele>1592</ele>
        <time>2026-08-14T11:18:17.540Z</time>
      </trkpt>
      <trkpt lat="45.84398" lon="6.75624">
        <ele>1592</ele>
        <time>2026-08-14T11:18:18.540Z</time>
      </trkpt>
      <trkpt lat="45.84399" lon="6.75621">
        <ele>1592</ele>
        <time>2026-08-14T11:18:19.540Z</time>
      </trkpt>
      <trkpt lat="45.844" lon="6.75619">
        <ele>1592</ele>
        <time>2026-08-14T11:18:20.540Z</time>
      </trkpt>
      <trkpt lat="45.84401" lon="6.75617">
        <ele>1592</ele>
        <time>2026-08-14T11:18:21.540Z</time>
      </trkpt>
      <trkpt lat="45.84402" lon="6.75615">
        <ele>1592</ele>
        <time>2026-08-14T11:18:22.540Z</time>
      </trkpt>
      <trkpt lat="45.84403" lon="6.75614">
        <ele>1592</ele>
        <time>2026-08-14T11:18:23.540Z</time>
      </trkpt>
      <trkpt lat="45.84405" lon="6.75612">
        <ele>1591</ele>
        <time>2026-08-14T11:18:24.540Z</time>
      </trkpt>
      <trkpt lat="45.84406" lon="6.7561">
        <ele>1592</ele>
        <time>2026-08-14T11:18:25.540Z</time>
      </trkpt>
      <trkpt lat="45.84407" lon="6.75608">
        <ele>1592</ele>
        <time>2026-08-14T11:18:26.540Z</time>
      </trkpt>
      <trkpt lat="45.84408" lon="6.75606">
        <ele>1592</ele>
        <time>2026-08-14T11:18:27.540Z</time>
      </trkpt>
      <trkpt lat="45.8441" lon="6.75605">
        <ele>1592</ele>
        <time>2026-08-14T11:18:28.540Z</time>
      </trkpt>
      <trkpt lat="45.84411" lon="6.75604">
        <ele>1592</ele>
        <time>2026-08-14T11:18:29.540Z</time>
      </trkpt>
      <trkpt lat="45.84411" lon="6.75603">
        <ele>1592</ele>
        <time>2026-08-14T11:18:30.540Z</time>
      </trkpt>
      <trkpt lat="45.84411" lon="6.75601">
        <ele>1591</ele>
        <time>2026-08-14T11:18:31.540Z</time>
      </trkpt>
      <trkpt lat="45.84411" lon="6.756">
        <ele>1591</ele>
        <time>2026-08-14T11:18:32.540Z</time>
      </trkpt>
      <trkpt lat="45.84412" lon="6.75598">
        <ele>1590</ele>
        <time>2026-08-14T11:18:33.540Z</time>
      </trkpt>
      <trkpt lat="45.84412" lon="6.75596">
        <ele>1590</ele>
        <time>2026-08-14T11:18:34.540Z</time>
      </trkpt>
      <trkpt lat="45.84412" lon="6.75594">
        <ele>1590</ele>
        <time>2026-08-14T11:18:35.540Z</time>
      </trkpt>
      <trkpt lat="45.84413" lon="6.75593">
        <ele>1590</ele>
        <time>2026-08-14T11:18:36.540Z</time>
      </trkpt>
      <trkpt lat="45.84413" lon="6.75591">
        <ele>1589</ele>
        <time>2026-08-14T11:18:37.540Z</time>
      </trkpt>
      <trkpt lat="45.84413" lon="6.75589">
        <ele>1589</ele>
        <time>2026-08-14T11:18:38.540Z</time>
      </trkpt>
      <trkpt lat="45.84413" lon="6.75587">
        <ele>1588</ele>
        <time>2026-08-14T11:18:39.540Z</time>
      </trkpt>
      <trkpt lat="45.84413" lon="6.75584">
        <ele>1588</ele>
        <time>2026-08-14T11:18:40.540Z</time>
      </trkpt>
      <trkpt lat="45.84413" lon="6.75582">
        <ele>1588</ele>
        <time>2026-08-14T11:18:41.540Z</time>
      </trkpt>
      <trkpt lat="45.84413" lon="6.7558">
        <ele>1587</ele>
        <time>2026-08-14T11:18:42.540Z</time>
      </trkpt>
      <trkpt lat="45.84414" lon="6.75577">
        <ele>1587</ele>
        <time>2026-08-14T11:18:43.540Z</time>
      </trkpt>
      <trkpt lat="45.84414" lon="6.75575">
        <ele>1587</ele>
        <time>2026-08-14T11:18:44.540Z</time>
      </trkpt>
      <trkpt lat="45.84415" lon="6.75572">
        <ele>1587</ele>
        <time>2026-08-14T11:18:45.540Z</time>
      </trkpt>
      <trkpt lat="45.84416" lon="6.75569">
        <ele>1587</ele>
        <time>2026-08-14T11:18:46.540Z</time>
      </trkpt>
      <trkpt lat="45.84417" lon="6.75566">
        <ele>1587</ele>
        <time>2026-08-14T11:18:47.540Z</time>
      </trkpt>
      <trkpt lat="45.84418" lon="6.75563">
        <ele>1587</ele>
        <time>2026-08-14T11:18:48.540Z</time>
      </trkpt>
      <trkpt lat="45.84418" lon="6.7556">
        <ele>1587</ele>
        <time>2026-08-14T11:18:49.540Z</time>
      </trkpt>
      <trkpt lat="45.84418" lon="6.75558">
        <ele>1588</ele>
        <time>2026-08-14T11:18:50.540Z</time>
      </trkpt>
      <trkpt lat="45.84419" lon="6.75555">
        <ele>1588</ele>
        <time>2026-08-14T11:18:51.540Z</time>
      </trkpt>
      <trkpt lat="45.8442" lon="6.75552">
        <ele>1588</ele>
        <time>2026-08-14T11:18:52.540Z</time>
      </trkpt>
      <trkpt lat="45.8442" lon="6.7555">
        <ele>1588</ele>
        <time>2026-08-14T11:18:53.540Z</time>
      </trkpt>
      <trkpt lat="45.84421" lon="6.75548">
        <ele>1588</ele>
        <time>2026-08-14T11:18:54.540Z</time>
      </trkpt>
      <trkpt lat="45.84422" lon="6.75545">
        <ele>1589</ele>
        <time>2026-08-14T11:18:55.540Z</time>
      </trkpt>
      <trkpt lat="45.84422" lon="6.75543">
        <ele>1589</ele>
        <time>2026-08-14T11:18:56.540Z</time>
      </trkpt>
      <trkpt lat="45.84423" lon="6.7554">
        <ele>1589</ele>
        <time>2026-08-14T11:18:57.540Z</time>
      </trkpt>
      <trkpt lat="45.84425" lon="6.75538">
        <ele>1589</ele>
        <time>2026-08-14T11:18:58.540Z</time>
      </trkpt>
      <trkpt lat="45.84426" lon="6.75536">
        <ele>1589</ele>
        <time>2026-08-14T11:18:59.540Z</time>
      </trkpt>
      <trkpt lat="45.84428" lon="6.75535">
        <ele>1589</ele>
        <time>2026-08-14T11:19:00.540Z</time>
      </trkpt>
      <trkpt lat="45.8443" lon="6.75533">
        <ele>1589</ele>
        <time>2026-08-14T11:19:01.540Z</time>
      </trkpt>
      <trkpt lat="45.84431" lon="6.75532">
        <ele>1589</ele>
        <time>2026-08-14T11:19:02.540Z</time>
      </trkpt>
      <trkpt lat="45.84432" lon="6.75531">
        <ele>1590</ele>
        <time>2026-08-14T11:19:03.540Z</time>
      </trkpt>
      <trkpt lat="45.84433" lon="6.75529">
        <ele>1590</ele>
        <time>2026-08-14T11:19:04.540Z</time>
      </trkpt>
      <trkpt lat="45.84434" lon="6.75528">
        <ele>1591</ele>
        <time>2026-08-14T11:19:05.540Z</time>
      </trkpt>
      <trkpt lat="45.84435" lon="6.75527">
        <ele>1591</ele>
        <time>2026-08-14T11:19:06.540Z</time>
      </trkpt>
      <trkpt lat="45.84436" lon="6.75526">
        <ele>1591</ele>
        <time>2026-08-14T11:19:07.540Z</time>
      </trkpt>
      <trkpt lat="45.84436" lon="6.75525">
        <ele>1591</ele>
        <time>2026-08-14T11:19:08.540Z</time>
      </trkpt>
      <trkpt lat="45.84438" lon="6.75524">
        <ele>1590</ele>
        <time>2026-08-14T11:19:09.540Z</time>
      </trkpt>
      <trkpt lat="45.84439" lon="6.75524">
        <ele>1590</ele>
        <time>2026-08-14T11:19:10.540Z</time>
      </trkpt>
      <trkpt lat="45.84441" lon="6.75523">
        <ele>1590</ele>
        <time>2026-08-14T11:19:11.540Z</time>
      </trkpt>
      <trkpt lat="45.84442" lon="6.75523">
        <ele>1590</ele>
        <time>2026-08-14T11:19:12.540Z</time>
      </trkpt>
      <trkpt lat="45.84444" lon="6.75522">
        <ele>1590</ele>
        <time>2026-08-14T11:19:13.540Z</time>
      </trkpt>
      <trkpt lat="45.84446" lon="6.75521">
        <ele>1590</ele>
        <time>2026-08-14T11:19:14.540Z</time>
      </trkpt>
      <trkpt lat="45.84448" lon="6.75519">
        <ele>1590</ele>
        <time>2026-08-14T11:19:15.540Z</time>
      </trkpt>
      <trkpt lat="45.8445" lon="6.75518">
        <ele>1590</ele>
        <time>2026-08-14T11:19:16.540Z</time>
      </trkpt>
      <trkpt lat="45.84451" lon="6.75517">
        <ele>1590</ele>
        <time>2026-08-14T11:19:17.540Z</time>
      </trkpt>
      <trkpt lat="45.84453" lon="6.75516">
        <ele>1590</ele>
        <time>2026-08-14T11:19:18.540Z</time>
      </trkpt>
      <trkpt lat="45.84454" lon="6.75515">
        <ele>1589</ele>
        <time>2026-08-14T11:19:19.540Z</time>
      </trkpt>
      <trkpt lat="45.84456" lon="6.75513">
        <ele>1589</ele>
        <time>2026-08-14T11:19:20.540Z</time>
      </trkpt>
      <trkpt lat="45.84458" lon="6.75512">
        <ele>1588</ele>
        <time>2026-08-14T11:19:21.540Z</time>
      </trkpt>
      <trkpt lat="45.8446" lon="6.75511">
        <ele>1588</ele>
        <time>2026-08-14T11:19:22.540Z</time>
      </trkpt>
      <trkpt lat="45.84462" lon="6.75509">
        <ele>1587</ele>
        <time>2026-08-14T11:19:23.540Z</time>
      </trkpt>
      <trkpt lat="45.84463" lon="6.75507">
        <ele>1587</ele>
        <time>2026-08-14T11:19:24.540Z</time>
      </trkpt>
      <trkpt lat="45.84465" lon="6.75504">
        <ele>1586</ele>
        <time>2026-08-14T11:19:25.540Z</time>
      </trkpt>
      <trkpt lat="45.84467" lon="6.75502">
        <ele>1586</ele>
        <time>2026-08-14T11:19:26.540Z</time>
      </trkpt>
      <trkpt lat="45.84469" lon="6.755">
        <ele>1586</ele>
        <time>2026-08-14T11:19:27.540Z</time>
      </trkpt>
      <trkpt lat="45.8447" lon="6.75498">
        <ele>1586</ele>
        <time>2026-08-14T11:19:28.540Z</time>
      </trkpt>
      <trkpt lat="45.84472" lon="6.75496">
        <ele>1585</ele>
        <time>2026-08-14T11:19:29.540Z</time>
      </trkpt>
      <trkpt lat="45.84473" lon="6.75495">
        <ele>1585</ele>
        <time>2026-08-14T11:19:30.540Z</time>
      </trkpt>
      <trkpt lat="45.84474" lon="6.75494">
        <ele>1585</ele>
        <time>2026-08-14T11:19:31.540Z</time>
      </trkpt>
      <trkpt lat="45.84475" lon="6.75493">
        <ele>1585</ele>
        <time>2026-08-14T11:19:32.540Z</time>
      </trkpt>
      <trkpt lat="45.84476" lon="6.75492">
        <ele>1585</ele>
        <time>2026-08-14T11:19:33.540Z</time>
      </trkpt>
      <trkpt lat="45.84477" lon="6.75491">
        <ele>1585</ele>
        <time>2026-08-14T11:19:34.540Z</time>
      </trkpt>
      <trkpt lat="45.84478" lon="6.75491">
        <ele>1585</ele>
        <time>2026-08-14T11:19:35.540Z</time>
      </trkpt>
      <trkpt lat="45.84479" lon="6.75491">
        <ele>1585</ele>
        <time>2026-08-14T11:19:36.540Z</time>
      </trkpt>
      <trkpt lat="45.84479" lon="6.7549">
        <ele>1585</ele>
        <time>2026-08-14T11:19:37.540Z</time>
      </trkpt>
      <trkpt lat="45.8448" lon="6.7549">
        <ele>1585</ele>
        <time>2026-08-14T11:19:38.540Z</time>
      </trkpt>
      <trkpt lat="45.8448" lon="6.75489">
        <ele>1585</ele>
        <time>2026-08-14T11:19:39.540Z</time>
      </trkpt>
      <trkpt lat="45.84481" lon="6.75489">
        <ele>1585</ele>
        <time>2026-08-14T11:19:40.540Z</time>
      </trkpt>
      <trkpt lat="45.84481" lon="6.75489">
        <ele>1585</ele>
        <time>2026-08-14T11:19:41.540Z</time>
      </trkpt>
      <trkpt lat="45.84481" lon="6.75489">
        <ele>1585</ele>
        <time>2026-08-14T11:19:42.540Z</time>
      </trkpt>
      <trkpt lat="45.84481" lon="6.75488">
        <ele>1585</ele>
        <time>2026-08-14T11:19:43.540Z</time>
      </trkpt>
      <trkpt lat="45.84481" lon="6.75488">
        <ele>1585</ele>
        <time>2026-08-14T11:19:44.540Z</time>
      </trkpt>
      <trkpt lat="45.84481" lon="6.75488">
        <ele>1585</ele>
        <time>2026-08-14T11:19:45.540Z</time>
      </trkpt>
      <trkpt lat="45.8448" lon="6.75488">
        <ele>1585</ele>
        <time>2026-08-14T11:19:46.540Z</time>
      </trkpt>
      <trkpt lat="45.8448" lon="6.75488">
        <ele>1585</ele>
        <time>2026-08-14T11:19:47.540Z</time>
      </trkpt>
      <trkpt lat="45.84479" lon="6.75487">
        <ele>1585</ele>
        <time>2026-08-14T11:19:48.540Z</time>
      </trkpt>
      <trkpt lat="45.84479" lon="6.75486">
        <ele>1585</ele>
        <time>2026-08-14T11:19:49.540Z</time>
      </trkpt>
      <trkpt lat="45.84479" lon="6.75485">
        <ele>1585</ele>
        <time>2026-08-14T11:19:50.540Z</time>
      </trkpt>
      <trkpt lat="45.84479" lon="6.75483">
        <ele>1585</ele>
        <time>2026-08-14T11:19:51.540Z</time>
      </trkpt>
      <trkpt lat="45.8448" lon="6.75482">
        <ele>1584</ele>
        <time>2026-08-14T11:19:52.540Z</time>
      </trkpt>
      <trkpt lat="45.84481" lon="6.7548">
        <ele>1584</ele>
        <time>2026-08-14T11:19:53.540Z</time>
      </trkpt>
      <trkpt lat="45.84482" lon="6.75479">
        <ele>1584</ele>
        <time>2026-08-14T11:19:54.540Z</time>
      </trkpt>
      <trkpt lat="45.84482" lon="6.75477">
        <ele>1583</ele>
        <time>2026-08-14T11:19:55.540Z</time>
      </trkpt>
      <trkpt lat="45.84482" lon="6.75475">
        <ele>1583</ele>
        <time>2026-08-14T11:19:56.540Z</time>
      </trkpt>
      <trkpt lat="45.84483" lon="6.75475">
        <ele>1583</ele>
        <time>2026-08-14T11:19:57.540Z</time>
      </trkpt>
      <trkpt lat="45.84483" lon="6.75474">
        <ele>1583</ele>
        <time>2026-08-14T11:19:58.540Z</time>
      </trkpt>
      <trkpt lat="45.84482" lon="6.75472">
        <ele>1582</ele>
        <time>2026-08-14T11:19:59.540Z</time>
      </trkpt>
      <trkpt lat="45.84483" lon="6.7547">
        <ele>1582</ele>
        <time>2026-08-14T11:20:00.540Z</time>
      </trkpt>
      <trkpt lat="45.84483" lon="6.75468">
        <ele>1582</ele>
        <time>2026-08-14T11:20:01.540Z</time>
      </trkpt>
      <trkpt lat="45.84484" lon="6.75467">
        <ele>1582</ele>
        <time>2026-08-14T11:20:02.540Z</time>
      </trkpt>
      <trkpt lat="45.84484" lon="6.75467">
        <ele>1581</ele>
        <time>2026-08-14T11:20:03.540Z</time>
      </trkpt>
      <trkpt lat="45.84485" lon="6.75466">
        <ele>1581</ele>
        <time>2026-08-14T11:20:04.540Z</time>
      </trkpt>
      <trkpt lat="45.84485" lon="6.75465">
        <ele>1581</ele>
        <time>2026-08-14T11:20:05.540Z</time>
      </trkpt>
      <trkpt lat="45.84486" lon="6.75465">
        <ele>1581</ele>
        <time>2026-08-14T11:20:06.540Z</time>
      </trkpt>
      <trkpt lat="45.84486" lon="6.75463">
        <ele>1581</ele>
        <time>2026-08-14T11:20:07.540Z</time>
      </trkpt>
      <trkpt lat="45.84486" lon="6.75461">
        <ele>1581</ele>
        <time>2026-08-14T11:20:08.540Z</time>
      </trkpt>
      <trkpt lat="45.84486" lon="6.75459">
        <ele>1581</ele>
        <time>2026-08-14T11:20:09.540Z</time>
      </trkpt>
      <trkpt lat="45.84486" lon="6.75457">
        <ele>1580</ele>
        <time>2026-08-14T11:20:10.540Z</time>
      </trkpt>
      <trkpt lat="45.84487" lon="6.75455">
        <ele>1580</ele>
        <time>2026-08-14T11:20:11.540Z</time>
      </trkpt>
      <trkpt lat="45.84487" lon="6.75453">
        <ele>1580</ele>
        <time>2026-08-14T11:20:12.540Z</time>
      </trkpt>
      <trkpt lat="45.84489" lon="6.75452">
        <ele>1580</ele>
        <time>2026-08-14T11:20:13.540Z</time>
      </trkpt>
      <trkpt lat="45.8449" lon="6.75452">
        <ele>1579</ele>
        <time>2026-08-14T11:20:14.540Z</time>
      </trkpt>
      <trkpt lat="45.84491" lon="6.75451">
        <ele>1579</ele>
        <time>2026-08-14T11:20:15.540Z</time>
      </trkpt>
      <trkpt lat="45.84492" lon="6.75449">
        <ele>1579</ele>
        <time>2026-08-14T11:20:16.540Z</time>
      </trkpt>
      <trkpt lat="45.84492" lon="6.75447">
        <ele>1579</ele>
        <time>2026-08-14T11:20:17.540Z</time>
      </trkpt>
      <trkpt lat="45.84493" lon="6.75443">
        <ele>1579</ele>
        <time>2026-08-14T11:20:18.540Z</time>
      </trkpt>
      <trkpt lat="45.84495" lon="6.7544">
        <ele>1579</ele>
        <time>2026-08-14T11:20:19.540Z</time>
      </trkpt>
      <trkpt lat="45.84496" lon="6.75438">
        <ele>1579</ele>
        <time>2026-08-14T11:20:20.540Z</time>
      </trkpt>
      <trkpt lat="45.84498" lon="6.75436">
        <ele>1578</ele>
        <time>2026-08-14T11:20:21.540Z</time>
      </trkpt>
      <trkpt lat="45.84499" lon="6.75434">
        <ele>1578</ele>
        <time>2026-08-14T11:20:22.540Z</time>
      </trkpt>
      <trkpt lat="45.845" lon="6.75432">
        <ele>1578</ele>
        <time>2026-08-14T11:20:23.540Z</time>
      </trkpt>
      <trkpt lat="45.84501" lon="6.7543">
        <ele>1578</ele>
        <time>2026-08-14T11:20:24.540Z</time>
      </trkpt>
      <trkpt lat="45.84502" lon="6.75429">
        <ele>1578</ele>
        <time>2026-08-14T11:20:25.540Z</time>
      </trkpt>
      <trkpt lat="45.84502" lon="6.75429">
        <ele>1578</ele>
        <time>2026-08-14T11:20:26.540Z</time>
      </trkpt>
      <trkpt lat="45.84503" lon="6.75428">
        <ele>1578</ele>
        <time>2026-08-14T11:20:27.540Z</time>
      </trkpt>
      <trkpt lat="45.84503" lon="6.75428">
        <ele>1577</ele>
        <time>2026-08-14T11:20:28.540Z</time>
      </trkpt>
      <trkpt lat="45.84504" lon="6.75427">
        <ele>1577</ele>
        <time>2026-08-14T11:20:29.540Z</time>
      </trkpt>
      <trkpt lat="45.84505" lon="6.75426">
        <ele>1577</ele>
        <time>2026-08-14T11:20:30.540Z</time>
      </trkpt>
      <trkpt lat="45.84506" lon="6.75425">
        <ele>1577</ele>
        <time>2026-08-14T11:20:31.540Z</time>
      </trkpt>
      <trkpt lat="45.84507" lon="6.75425">
        <ele>1577</ele>
        <time>2026-08-14T11:20:32.540Z</time>
      </trkpt>
      <trkpt lat="45.84508" lon="6.75424">
        <ele>1577</ele>
        <time>2026-08-14T11:20:33.540Z</time>
      </trkpt>
      <trkpt lat="45.84508" lon="6.75424">
        <ele>1577</ele>
        <time>2026-08-14T11:20:34.540Z</time>
      </trkpt>
      <trkpt lat="45.84508" lon="6.75422">
        <ele>1577</ele>
        <time>2026-08-14T11:20:35.540Z</time>
      </trkpt>
      <trkpt lat="45.84509" lon="6.7542">
        <ele>1576</ele>
        <time>2026-08-14T11:20:36.540Z</time>
      </trkpt>
      <trkpt lat="45.84509" lon="6.75419">
        <ele>1576</ele>
        <time>2026-08-14T11:20:37.540Z</time>
      </trkpt>
      <trkpt lat="45.84509" lon="6.75417">
        <ele>1576</ele>
        <time>2026-08-14T11:20:38.540Z</time>
      </trkpt>
      <trkpt lat="45.84509" lon="6.75416">
        <ele>1576</ele>
        <time>2026-08-14T11:20:39.540Z</time>
      </trkpt>
      <trkpt lat="45.84509" lon="6.75414">
        <ele>1576</ele>
        <time>2026-08-14T11:20:40.540Z</time>
      </trkpt>
      <trkpt lat="45.84509" lon="6.75412">
        <ele>1577</ele>
        <time>2026-08-14T11:20:41.540Z</time>
      </trkpt>
      <trkpt lat="45.84509" lon="6.7541">
        <ele>1577</ele>
        <time>2026-08-14T11:20:42.540Z</time>
      </trkpt>
      <trkpt lat="45.84509" lon="6.75408">
        <ele>1577</ele>
        <time>2026-08-14T11:20:43.540Z</time>
      </trkpt>
      <trkpt lat="45.8451" lon="6.75407">
        <ele>1577</ele>
        <time>2026-08-14T11:20:44.540Z</time>
      </trkpt>
      <trkpt lat="45.8451" lon="6.75405">
        <ele>1577</ele>
        <time>2026-08-14T11:20:45.540Z</time>
      </trkpt>
      <trkpt lat="45.84511" lon="6.75404">
        <ele>1577</ele>
        <time>2026-08-14T11:20:46.540Z</time>
      </trkpt>
      <trkpt lat="45.84511" lon="6.75403">
        <ele>1576</ele>
        <time>2026-08-14T11:20:47.540Z</time>
      </trkpt>
      <trkpt lat="45.84511" lon="6.75402">
        <ele>1576</ele>
        <time>2026-08-14T11:20:48.540Z</time>
      </trkpt>
      <trkpt lat="45.84511" lon="6.75401">
        <ele>1576</ele>
        <time>2026-08-14T11:20:49.540Z</time>
      </trkpt>
      <trkpt lat="45.84511" lon="6.75399">
        <ele>1576</ele>
        <time>2026-08-14T11:20:50.540Z</time>
      </trkpt>
      <trkpt lat="45.84512" lon="6.75398">
        <ele>1576</ele>
        <time>2026-08-14T11:20:51.540Z</time>
      </trkpt>
      <trkpt lat="45.84512" lon="6.75397">
        <ele>1576</ele>
        <time>2026-08-14T11:20:52.540Z</time>
      </trkpt>
      <trkpt lat="45.84513" lon="6.75394">
        <ele>1576</ele>
        <time>2026-08-14T11:20:53.540Z</time>
      </trkpt>
      <trkpt lat="45.84514" lon="6.75392">
        <ele>1576</ele>
        <time>2026-08-14T11:20:54.540Z</time>
      </trkpt>
      <trkpt lat="45.84516" lon="6.7539">
        <ele>1576</ele>
        <time>2026-08-14T11:20:55.540Z</time>
      </trkpt>
      <trkpt lat="45.84517" lon="6.75388">
        <ele>1576</ele>
        <time>2026-08-14T11:20:56.540Z</time>
      </trkpt>
      <trkpt lat="45.84519" lon="6.75386">
        <ele>1575</ele>
        <time>2026-08-14T11:20:57.540Z</time>
      </trkpt>
      <trkpt lat="45.84521" lon="6.75383">
        <ele>1575</ele>
        <time>2026-08-14T11:20:58.540Z</time>
      </trkpt>
      <trkpt lat="45.84523" lon="6.75381">
        <ele>1575</ele>
        <time>2026-08-14T11:20:59.540Z</time>
      </trkpt>
      <trkpt lat="45.84525" lon="6.75379">
        <ele>1574</ele>
        <time>2026-08-14T11:21:00.540Z</time>
      </trkpt>
      <trkpt lat="45.84526" lon="6.75376">
        <ele>1574</ele>
        <time>2026-08-14T11:21:01.540Z</time>
      </trkpt>
      <trkpt lat="45.84528" lon="6.75374">
        <ele>1573</ele>
        <time>2026-08-14T11:21:02.540Z</time>
      </trkpt>
      <trkpt lat="45.84529" lon="6.75373">
        <ele>1573</ele>
        <time>2026-08-14T11:21:03.540Z</time>
      </trkpt>
      <trkpt lat="45.8453" lon="6.75373">
        <ele>1572</ele>
        <time>2026-08-14T11:21:04.540Z</time>
      </trkpt>
      <trkpt lat="45.8453" lon="6.75372">
        <ele>1572</ele>
        <time>2026-08-14T11:21:05.540Z</time>
      </trkpt>
      <trkpt lat="45.84531" lon="6.75372">
        <ele>1571</ele>
        <time>2026-08-14T11:21:06.540Z</time>
      </trkpt>
      <trkpt lat="45.84531" lon="6.75373">
        <ele>1571</ele>
        <time>2026-08-14T11:21:07.540Z</time>
      </trkpt>
      <trkpt lat="45.84532" lon="6.75372">
        <ele>1571</ele>
        <time>2026-08-14T11:21:08.540Z</time>
      </trkpt>
      <trkpt lat="45.84533" lon="6.75371">
        <ele>1571</ele>
        <time>2026-08-14T11:21:09.540Z</time>
      </trkpt>
      <trkpt lat="45.84534" lon="6.7537">
        <ele>1570</ele>
        <time>2026-08-14T11:21:10.540Z</time>
      </trkpt>
      <trkpt lat="45.84536" lon="6.75367">
        <ele>1570</ele>
        <time>2026-08-14T11:21:11.540Z</time>
      </trkpt>
      <trkpt lat="45.84537" lon="6.75365">
        <ele>1570</ele>
        <time>2026-08-14T11:21:12.540Z</time>
      </trkpt>
      <trkpt lat="45.84539" lon="6.75362">
        <ele>1571</ele>
        <time>2026-08-14T11:21:13.540Z</time>
      </trkpt>
      <trkpt lat="45.8454" lon="6.7536">
        <ele>1571</ele>
        <time>2026-08-14T11:21:14.540Z</time>
      </trkpt>
      <trkpt lat="45.84542" lon="6.75357">
        <ele>1571</ele>
        <time>2026-08-14T11:21:15.540Z</time>
      </trkpt>
      <trkpt lat="45.84544" lon="6.75355">
        <ele>1570</ele>
        <time>2026-08-14T11:21:16.540Z</time>
      </trkpt>
      <trkpt lat="45.84546" lon="6.75355">
        <ele>1570</ele>
        <time>2026-08-14T11:21:17.540Z</time>
      </trkpt>
      <trkpt lat="45.84548" lon="6.75354">
        <ele>1570</ele>
        <time>2026-08-14T11:21:18.540Z</time>
      </trkpt>
      <trkpt lat="45.8455" lon="6.75353">
        <ele>1569</ele>
        <time>2026-08-14T11:21:19.540Z</time>
      </trkpt>
      <trkpt lat="45.84552" lon="6.75352">
        <ele>1569</ele>
        <time>2026-08-14T11:21:20.540Z</time>
      </trkpt>
      <trkpt lat="45.84554" lon="6.75351">
        <ele>1569</ele>
        <time>2026-08-14T11:21:21.540Z</time>
      </trkpt>
      <trkpt lat="45.84556" lon="6.7535">
        <ele>1569</ele>
        <time>2026-08-14T11:21:22.540Z</time>
      </trkpt>
      <trkpt lat="45.84559" lon="6.75348">
        <ele>1569</ele>
        <time>2026-08-14T11:21:23.540Z</time>
      </trkpt>
      <trkpt lat="45.84561" lon="6.75346">
        <ele>1570</ele>
        <time>2026-08-14T11:21:24.540Z</time>
      </trkpt>
      <trkpt lat="45.84563" lon="6.75344">
        <ele>1570</ele>
        <time>2026-08-14T11:21:25.540Z</time>
      </trkpt>
      <trkpt lat="45.84565" lon="6.75342">
        <ele>1570</ele>
        <time>2026-08-14T11:21:26.540Z</time>
      </trkpt>
      <trkpt lat="45.84566" lon="6.7534">
        <ele>1570</ele>
        <time>2026-08-14T11:21:27.540Z</time>
      </trkpt>
      <trkpt lat="45.84567" lon="6.75337">
        <ele>1569</ele>
        <time>2026-08-14T11:21:28.540Z</time>
      </trkpt>
      <trkpt lat="45.84567" lon="6.75335">
        <ele>1569</ele>
        <time>2026-08-14T11:21:29.540Z</time>
      </trkpt>
      <trkpt lat="45.84568" lon="6.75332">
        <ele>1569</ele>
        <time>2026-08-14T11:21:30.540Z</time>
      </trkpt>
      <trkpt lat="45.84569" lon="6.7533">
        <ele>1569</ele>
        <time>2026-08-14T11:21:31.540Z</time>
      </trkpt>
      <trkpt lat="45.8457" lon="6.75327">
        <ele>1569</ele>
        <time>2026-08-14T11:21:32.540Z</time>
      </trkpt>
      <trkpt lat="45.84571" lon="6.75324">
        <ele>1569</ele>
        <time>2026-08-14T11:21:33.540Z</time>
      </trkpt>
      <trkpt lat="45.84571" lon="6.75322">
        <ele>1569</ele>
        <time>2026-08-14T11:21:34.540Z</time>
      </trkpt>
      <trkpt lat="45.84571" lon="6.7532">
        <ele>1569</ele>
        <time>2026-08-14T11:21:35.540Z</time>
      </trkpt>
      <trkpt lat="45.84571" lon="6.75319">
        <ele>1569</ele>
        <time>2026-08-14T11:21:36.540Z</time>
      </trkpt>
      <trkpt lat="45.84572" lon="6.75317">
        <ele>1569</ele>
        <time>2026-08-14T11:21:37.540Z</time>
      </trkpt>
      <trkpt lat="45.84572" lon="6.75316">
        <ele>1568</ele>
        <time>2026-08-14T11:21:38.540Z</time>
      </trkpt>
      <trkpt lat="45.84572" lon="6.75314">
        <ele>1568</ele>
        <time>2026-08-14T11:21:39.540Z</time>
      </trkpt>
      <trkpt lat="45.84572" lon="6.75314">
        <ele>1568</ele>
        <time>2026-08-14T11:21:40.540Z</time>
      </trkpt>
      <trkpt lat="45.84572" lon="6.75313">
        <ele>1568</ele>
        <time>2026-08-14T11:21:41.540Z</time>
      </trkpt>
      <trkpt lat="45.84572" lon="6.75313">
        <ele>1568</ele>
        <time>2026-08-14T11:21:42.540Z</time>
      </trkpt>
      <trkpt lat="45.84572" lon="6.75313">
        <ele>1567</ele>
        <time>2026-08-14T11:21:43.540Z</time>
      </trkpt>
      <trkpt lat="45.84572" lon="6.75312">
        <ele>1567</ele>
        <time>2026-08-14T11:21:44.540Z</time>
      </trkpt>
      <trkpt lat="45.84572" lon="6.75311">
        <ele>1567</ele>
        <time>2026-08-14T11:21:45.540Z</time>
      </trkpt>
      <trkpt lat="45.84572" lon="6.75309">
        <ele>1567</ele>
        <time>2026-08-14T11:21:46.540Z</time>
      </trkpt>
      <trkpt lat="45.84572" lon="6.75307">
        <ele>1567</ele>
        <time>2026-08-14T11:21:47.540Z</time>
      </trkpt>
      <trkpt lat="45.84572" lon="6.75305">
        <ele>1567</ele>
        <time>2026-08-14T11:21:48.540Z</time>
      </trkpt>
      <trkpt lat="45.84572" lon="6.75302">
        <ele>1567</ele>
        <time>2026-08-14T11:21:49.540Z</time>
      </trkpt>
      <trkpt lat="45.84573" lon="6.753">
        <ele>1566</ele>
        <time>2026-08-14T11:21:50.540Z</time>
      </trkpt>
      <trkpt lat="45.84574" lon="6.75298">
        <ele>1566</ele>
        <time>2026-08-14T11:21:51.540Z</time>
      </trkpt>
      <trkpt lat="45.84575" lon="6.75295">
        <ele>1565</ele>
        <time>2026-08-14T11:21:52.540Z</time>
      </trkpt>
      <trkpt lat="45.84576" lon="6.75292">
        <ele>1565</ele>
        <time>2026-08-14T11:21:53.540Z</time>
      </trkpt>
      <trkpt lat="45.84578" lon="6.75289">
        <ele>1565</ele>
        <time>2026-08-14T11:21:54.540Z</time>
      </trkpt>
      <trkpt lat="45.8458" lon="6.75286">
        <ele>1565</ele>
        <time>2026-08-14T11:21:55.540Z</time>
      </trkpt>
      <trkpt lat="45.84582" lon="6.75284">
        <ele>1565</ele>
        <time>2026-08-14T11:21:56.540Z</time>
      </trkpt>
      <trkpt lat="45.84583" lon="6.75282">
        <ele>1564</ele>
        <time>2026-08-14T11:21:57.540Z</time>
      </trkpt>
      <trkpt lat="45.84585" lon="6.75279">
        <ele>1564</ele>
        <time>2026-08-14T11:21:58.540Z</time>
      </trkpt>
      <trkpt lat="45.84587" lon="6.75277">
        <ele>1564</ele>
        <time>2026-08-14T11:21:59.540Z</time>
      </trkpt>
      <trkpt lat="45.84589" lon="6.75275">
        <ele>1563</ele>
        <time>2026-08-14T11:22:00.540Z</time>
      </trkpt>
      <trkpt lat="45.84591" lon="6.75273">
        <ele>1563</ele>
        <time>2026-08-14T11:22:01.540Z</time>
      </trkpt>
      <trkpt lat="45.84592" lon="6.7527">
        <ele>1563</ele>
        <time>2026-08-14T11:22:02.540Z</time>
      </trkpt>
      <trkpt lat="45.84594" lon="6.75267">
        <ele>1563</ele>
        <time>2026-08-14T11:22:03.540Z</time>
      </trkpt>
      <trkpt lat="45.84595" lon="6.75264">
        <ele>1563</ele>
        <time>2026-08-14T11:22:04.540Z</time>
      </trkpt>
      <trkpt lat="45.84597" lon="6.75261">
        <ele>1562</ele>
        <time>2026-08-14T11:22:05.540Z</time>
      </trkpt>
      <trkpt lat="45.84598" lon="6.75258">
        <ele>1562</ele>
        <time>2026-08-14T11:22:06.540Z</time>
      </trkpt>
      <trkpt lat="45.84599" lon="6.75256">
        <ele>1561</ele>
        <time>2026-08-14T11:22:07.540Z</time>
      </trkpt>
      <trkpt lat="45.84601" lon="6.75253">
        <ele>1561</ele>
        <time>2026-08-14T11:22:08.540Z</time>
      </trkpt>
      <trkpt lat="45.84602" lon="6.75251">
        <ele>1561</ele>
        <time>2026-08-14T11:22:09.540Z</time>
      </trkpt>
      <trkpt lat="45.84602" lon="6.75249">
        <ele>1561</ele>
        <time>2026-08-14T11:22:10.540Z</time>
      </trkpt>
      <trkpt lat="45.84603" lon="6.75246">
        <ele>1561</ele>
        <time>2026-08-14T11:22:11.540Z</time>
      </trkpt>
      <trkpt lat="45.84603" lon="6.75243">
        <ele>1561</ele>
        <time>2026-08-14T11:22:12.540Z</time>
      </trkpt>
      <trkpt lat="45.84603" lon="6.75239">
        <ele>1561</ele>
        <time>2026-08-14T11:22:13.540Z</time>
      </trkpt>
      <trkpt lat="45.84604" lon="6.75237">
        <ele>1561</ele>
        <time>2026-08-14T11:22:14.540Z</time>
      </trkpt>
      <trkpt lat="45.84605" lon="6.75235">
        <ele>1561</ele>
        <time>2026-08-14T11:22:15.540Z</time>
      </trkpt>
      <trkpt lat="45.84606" lon="6.75234">
        <ele>1561</ele>
        <time>2026-08-14T11:22:16.540Z</time>
      </trkpt>
      <trkpt lat="45.84607" lon="6.75233">
        <ele>1560</ele>
        <time>2026-08-14T11:22:17.540Z</time>
      </trkpt>
      <trkpt lat="45.84607" lon="6.75231">
        <ele>1560</ele>
        <time>2026-08-14T11:22:18.540Z</time>
      </trkpt>
      <trkpt lat="45.84608" lon="6.7523">
        <ele>1560</ele>
        <time>2026-08-14T11:22:19.540Z</time>
      </trkpt>
      <trkpt lat="45.8461" lon="6.75231">
        <ele>1560</ele>
        <time>2026-08-14T11:22:20.540Z</time>
      </trkpt>
      <trkpt lat="45.84612" lon="6.7523">
        <ele>1559</ele>
        <time>2026-08-14T11:22:21.540Z</time>
      </trkpt>
      <trkpt lat="45.84613" lon="6.75228">
        <ele>1559</ele>
        <time>2026-08-14T11:22:22.540Z</time>
      </trkpt>
      <trkpt lat="45.84614" lon="6.75227">
        <ele>1558</ele>
        <time>2026-08-14T11:22:23.540Z</time>
      </trkpt>
      <trkpt lat="45.84616" lon="6.75226">
        <ele>1558</ele>
        <time>2026-08-14T11:22:24.540Z</time>
      </trkpt>
      <trkpt lat="45.84616" lon="6.75224">
        <ele>1558</ele>
        <time>2026-08-14T11:22:25.540Z</time>
      </trkpt>
      <trkpt lat="45.84616" lon="6.75223">
        <ele>1558</ele>
        <time>2026-08-14T11:22:26.540Z</time>
      </trkpt>
      <trkpt lat="45.84615" lon="6.75221">
        <ele>1558</ele>
        <time>2026-08-14T11:22:27.540Z</time>
      </trkpt>
      <trkpt lat="45.84616" lon="6.7522">
        <ele>1558</ele>
        <time>2026-08-14T11:22:28.540Z</time>
      </trkpt>
      <trkpt lat="45.84616" lon="6.75218">
        <ele>1558</ele>
        <time>2026-08-14T11:22:29.540Z</time>
      </trkpt>
      <trkpt lat="45.84617" lon="6.75216">
        <ele>1558</ele>
        <time>2026-08-14T11:22:30.540Z</time>
      </trkpt>
      <trkpt lat="45.84618" lon="6.75213">
        <ele>1558</ele>
        <time>2026-08-14T11:22:31.540Z</time>
      </trkpt>
      <trkpt lat="45.84619" lon="6.75211">
        <ele>1558</ele>
        <time>2026-08-14T11:22:32.540Z</time>
      </trkpt>
      <trkpt lat="45.8462" lon="6.75207">
        <ele>1557</ele>
        <time>2026-08-14T11:22:33.540Z</time>
      </trkpt>
      <trkpt lat="45.84621" lon="6.75205">
        <ele>1557</ele>
        <time>2026-08-14T11:22:34.540Z</time>
      </trkpt>
      <trkpt lat="45.84622" lon="6.75202">
        <ele>1556</ele>
        <time>2026-08-14T11:22:35.540Z</time>
      </trkpt>
      <trkpt lat="45.84623" lon="6.752">
        <ele>1556</ele>
        <time>2026-08-14T11:22:36.540Z</time>
      </trkpt>
      <trkpt lat="45.84625" lon="6.75197">
        <ele>1555</ele>
        <time>2026-08-14T11:22:37.540Z</time>
      </trkpt>
      <trkpt lat="45.84626" lon="6.75195">
        <ele>1555</ele>
        <time>2026-08-14T11:22:38.540Z</time>
      </trkpt>
      <trkpt lat="45.84627" lon="6.75192">
        <ele>1555</ele>
        <time>2026-08-14T11:22:39.540Z</time>
      </trkpt>
      <trkpt lat="45.84628" lon="6.7519">
        <ele>1554</ele>
        <time>2026-08-14T11:22:40.540Z</time>
      </trkpt>
      <trkpt lat="45.84629" lon="6.75188">
        <ele>1554</ele>
        <time>2026-08-14T11:22:41.540Z</time>
      </trkpt>
      <trkpt lat="45.84629" lon="6.75185">
        <ele>1553</ele>
        <time>2026-08-14T11:22:42.540Z</time>
      </trkpt>
      <trkpt lat="45.8463" lon="6.75183">
        <ele>1553</ele>
        <time>2026-08-14T11:22:43.540Z</time>
      </trkpt>
      <trkpt lat="45.84632" lon="6.7518">
        <ele>1552</ele>
        <time>2026-08-14T11:22:44.540Z</time>
      </trkpt>
      <trkpt lat="45.84633" lon="6.75178">
        <ele>1552</ele>
        <time>2026-08-14T11:22:45.540Z</time>
      </trkpt>
      <trkpt lat="45.84635" lon="6.75176">
        <ele>1551</ele>
        <time>2026-08-14T11:22:46.540Z</time>
      </trkpt>
      <trkpt lat="45.84637" lon="6.75174">
        <ele>1551</ele>
        <time>2026-08-14T11:22:47.540Z</time>
      </trkpt>
      <trkpt lat="45.84639" lon="6.75172">
        <ele>1550</ele>
        <time>2026-08-14T11:22:48.540Z</time>
      </trkpt>
      <trkpt lat="45.84641" lon="6.7517">
        <ele>1550</ele>
        <time>2026-08-14T11:22:49.540Z</time>
      </trkpt>
      <trkpt lat="45.84642" lon="6.75168">
        <ele>1550</ele>
        <time>2026-08-14T11:22:50.540Z</time>
      </trkpt>
      <trkpt lat="45.84644" lon="6.75166">
        <ele>1549</ele>
        <time>2026-08-14T11:22:51.540Z</time>
      </trkpt>
      <trkpt lat="45.84646" lon="6.75163">
        <ele>1549</ele>
        <time>2026-08-14T11:22:52.540Z</time>
      </trkpt>
      <trkpt lat="45.84647" lon="6.75161">
        <ele>1548</ele>
        <time>2026-08-14T11:22:53.540Z</time>
      </trkpt>
      <trkpt lat="45.84648" lon="6.75158">
        <ele>1548</ele>
        <time>2026-08-14T11:22:54.540Z</time>
      </trkpt>
      <trkpt lat="45.8465" lon="6.75155">
        <ele>1547</ele>
        <time>2026-08-14T11:22:55.540Z</time>
      </trkpt>
      <trkpt lat="45.84652" lon="6.75152">
        <ele>1547</ele>
        <time>2026-08-14T11:22:56.540Z</time>
      </trkpt>
      <trkpt lat="45.84654" lon="6.7515">
        <ele>1546</ele>
        <time>2026-08-14T11:22:57.540Z</time>
      </trkpt>
      <trkpt lat="45.84655" lon="6.75147">
        <ele>1546</ele>
        <time>2026-08-14T11:22:58.540Z</time>
      </trkpt>
      <trkpt lat="45.84657" lon="6.75145">
        <ele>1545</ele>
        <time>2026-08-14T11:22:59.540Z</time>
      </trkpt>
      <trkpt lat="45.84658" lon="6.75143">
        <ele>1544</ele>
        <time>2026-08-14T11:23:00.540Z</time>
      </trkpt>
      <trkpt lat="45.84658" lon="6.75141">
        <ele>1543</ele>
        <time>2026-08-14T11:23:01.540Z</time>
      </trkpt>
      <trkpt lat="45.84658" lon="6.7514">
        <ele>1542</ele>
        <time>2026-08-14T11:23:02.540Z</time>
      </trkpt>
      <trkpt lat="45.84659" lon="6.75138">
        <ele>1542</ele>
        <time>2026-08-14T11:23:03.540Z</time>
      </trkpt>
      <trkpt lat="45.84659" lon="6.75136">
        <ele>1541</ele>
        <time>2026-08-14T11:23:04.540Z</time>
      </trkpt>
      <trkpt lat="45.84659" lon="6.75134">
        <ele>1541</ele>
        <time>2026-08-14T11:23:05.540Z</time>
      </trkpt>
      <trkpt lat="45.84659" lon="6.75133">
        <ele>1540</ele>
        <time>2026-08-14T11:23:06.540Z</time>
      </trkpt>
      <trkpt lat="45.84659" lon="6.75132">
        <ele>1540</ele>
        <time>2026-08-14T11:23:07.540Z</time>
      </trkpt>
      <trkpt lat="45.84659" lon="6.7513">
        <ele>1540</ele>
        <time>2026-08-14T11:23:08.540Z</time>
      </trkpt>
      <trkpt lat="45.84659" lon="6.75129">
        <ele>1539</ele>
        <time>2026-08-14T11:23:09.540Z</time>
      </trkpt>
      <trkpt lat="45.84659" lon="6.75127">
        <ele>1539</ele>
        <time>2026-08-14T11:23:10.540Z</time>
      </trkpt>
      <trkpt lat="45.8466" lon="6.75124">
        <ele>1539</ele>
        <time>2026-08-14T11:23:11.540Z</time>
      </trkpt>
      <trkpt lat="45.84661" lon="6.75123">
        <ele>1538</ele>
        <time>2026-08-14T11:23:12.540Z</time>
      </trkpt>
      <trkpt lat="45.84663" lon="6.75121">
        <ele>1538</ele>
        <time>2026-08-14T11:23:13.540Z</time>
      </trkpt>
      <trkpt lat="45.84663" lon="6.75119">
        <ele>1538</ele>
        <time>2026-08-14T11:23:14.540Z</time>
      </trkpt>
      <trkpt lat="45.84664" lon="6.75118">
        <ele>1538</ele>
        <time>2026-08-14T11:23:15.540Z</time>
      </trkpt>
      <trkpt lat="45.84665" lon="6.75117">
        <ele>1537</ele>
        <time>2026-08-14T11:23:16.540Z</time>
      </trkpt>
      <trkpt lat="45.84665" lon="6.75116">
        <ele>1537</ele>
        <time>2026-08-14T11:23:17.540Z</time>
      </trkpt>
      <trkpt lat="45.84666" lon="6.75114">
        <ele>1537</ele>
        <time>2026-08-14T11:23:18.540Z</time>
      </trkpt>
      <trkpt lat="45.84667" lon="6.75112">
        <ele>1537</ele>
        <time>2026-08-14T11:23:19.540Z</time>
      </trkpt>
      <trkpt lat="45.84667" lon="6.75111">
        <ele>1537</ele>
        <time>2026-08-14T11:23:20.540Z</time>
      </trkpt>
      <trkpt lat="45.84668" lon="6.75109">
        <ele>1537</ele>
        <time>2026-08-14T11:23:21.540Z</time>
      </trkpt>
      <trkpt lat="45.84668" lon="6.75106">
        <ele>1537</ele>
        <time>2026-08-14T11:23:22.540Z</time>
      </trkpt>
      <trkpt lat="45.84669" lon="6.75104">
        <ele>1537</ele>
        <time>2026-08-14T11:23:23.540Z</time>
      </trkpt>
      <trkpt lat="45.84669" lon="6.75102">
        <ele>1537</ele>
        <time>2026-08-14T11:23:24.540Z</time>
      </trkpt>
      <trkpt lat="45.84669" lon="6.75099">
        <ele>1537</ele>
        <time>2026-08-14T11:23:25.540Z</time>
      </trkpt>
      <trkpt lat="45.8467" lon="6.75098">
        <ele>1536</ele>
        <time>2026-08-14T11:23:26.540Z</time>
      </trkpt>
      <trkpt lat="45.84671" lon="6.75096">
        <ele>1536</ele>
        <time>2026-08-14T11:23:27.540Z</time>
      </trkpt>
      <trkpt lat="45.84672" lon="6.75095">
        <ele>1536</ele>
        <time>2026-08-14T11:23:28.540Z</time>
      </trkpt>
      <trkpt lat="45.84672" lon="6.75093">
        <ele>1536</ele>
        <time>2026-08-14T11:23:29.540Z</time>
      </trkpt>
      <trkpt lat="45.84673" lon="6.75091">
        <ele>1536</ele>
        <time>2026-08-14T11:23:30.540Z</time>
      </trkpt>
      <trkpt lat="45.84673" lon="6.75089">
        <ele>1536</ele>
        <time>2026-08-14T11:23:31.540Z</time>
      </trkpt>
      <trkpt lat="45.84673" lon="6.75086">
        <ele>1536</ele>
        <time>2026-08-14T11:23:32.540Z</time>
      </trkpt>
      <trkpt lat="45.84674" lon="6.75083">
        <ele>1536</ele>
        <time>2026-08-14T11:23:33.540Z</time>
      </trkpt>
      <trkpt lat="45.84674" lon="6.7508">
        <ele>1535</ele>
        <time>2026-08-14T11:23:34.540Z</time>
      </trkpt>
      <trkpt lat="45.84675" lon="6.75076">
        <ele>1535</ele>
        <time>2026-08-14T11:23:35.540Z</time>
      </trkpt>
      <trkpt lat="45.84676" lon="6.75073">
        <ele>1535</ele>
        <time>2026-08-14T11:23:36.540Z</time>
      </trkpt>
      <trkpt lat="45.84677" lon="6.7507">
        <ele>1534</ele>
        <time>2026-08-14T11:23:37.540Z</time>
      </trkpt>
      <trkpt lat="45.84678" lon="6.75066">
        <ele>1534</ele>
        <time>2026-08-14T11:23:38.540Z</time>
      </trkpt>
      <trkpt lat="45.84679" lon="6.75063">
        <ele>1533</ele>
        <time>2026-08-14T11:23:39.540Z</time>
      </trkpt>
      <trkpt lat="45.8468" lon="6.75059">
        <ele>1532</ele>
        <time>2026-08-14T11:23:40.540Z</time>
      </trkpt>
      <trkpt lat="45.84681" lon="6.75056">
        <ele>1532</ele>
        <time>2026-08-14T11:23:41.540Z</time>
      </trkpt>
      <trkpt lat="45.84682" lon="6.75052">
        <ele>1531</ele>
        <time>2026-08-14T11:23:42.540Z</time>
      </trkpt>
      <trkpt lat="45.84683" lon="6.75049">
        <ele>1531</ele>
        <time>2026-08-14T11:23:43.540Z</time>
      </trkpt>
      <trkpt lat="45.84683" lon="6.75046">
        <ele>1530</ele>
        <time>2026-08-14T11:23:44.540Z</time>
      </trkpt>
      <trkpt lat="45.84684" lon="6.75042">
        <ele>1529</ele>
        <time>2026-08-14T11:23:45.540Z</time>
      </trkpt>
      <trkpt lat="45.84684" lon="6.75039">
        <ele>1529</ele>
        <time>2026-08-14T11:23:46.540Z</time>
      </trkpt>
      <trkpt lat="45.84685" lon="6.75035">
        <ele>1528</ele>
        <time>2026-08-14T11:23:47.540Z</time>
      </trkpt>
      <trkpt lat="45.84686" lon="6.75032">
        <ele>1527</ele>
        <time>2026-08-14T11:23:48.540Z</time>
      </trkpt>
      <trkpt lat="45.84686" lon="6.75028">
        <ele>1527</ele>
        <time>2026-08-14T11:23:49.540Z</time>
      </trkpt>
      <trkpt lat="45.84687" lon="6.75024">
        <ele>1527</ele>
        <time>2026-08-14T11:23:50.540Z</time>
      </trkpt>
      <trkpt lat="45.84688" lon="6.75021">
        <ele>1526</ele>
        <time>2026-08-14T11:23:51.540Z</time>
      </trkpt>
      <trkpt lat="45.84689" lon="6.75017">
        <ele>1526</ele>
        <time>2026-08-14T11:23:52.540Z</time>
      </trkpt>
      <trkpt lat="45.84691" lon="6.75014">
        <ele>1525</ele>
        <time>2026-08-14T11:23:53.540Z</time>
      </trkpt>
      <trkpt lat="45.84693" lon="6.75012">
        <ele>1525</ele>
        <time>2026-08-14T11:23:54.540Z</time>
      </trkpt>
      <trkpt lat="45.84695" lon="6.7501">
        <ele>1525</ele>
        <time>2026-08-14T11:23:55.540Z</time>
      </trkpt>
      <trkpt lat="45.84697" lon="6.75008">
        <ele>1524</ele>
        <time>2026-08-14T11:23:56.540Z</time>
      </trkpt>
      <trkpt lat="45.84698" lon="6.75007">
        <ele>1524</ele>
        <time>2026-08-14T11:23:57.540Z</time>
      </trkpt>
      <trkpt lat="45.847" lon="6.75005">
        <ele>1524</ele>
        <time>2026-08-14T11:23:58.540Z</time>
      </trkpt>
      <trkpt lat="45.84702" lon="6.75004">
        <ele>1524</ele>
        <time>2026-08-14T11:23:59.540Z</time>
      </trkpt>
      <trkpt lat="45.84704" lon="6.75002">
        <ele>1524</ele>
        <time>2026-08-14T11:24:00.540Z</time>
      </trkpt>
      <trkpt lat="45.84706" lon="6.75">
        <ele>1523</ele>
        <time>2026-08-14T11:24:01.540Z</time>
      </trkpt>
      <trkpt lat="45.84708" lon="6.74998">
        <ele>1523</ele>
        <time>2026-08-14T11:24:02.540Z</time>
      </trkpt>
      <trkpt lat="45.8471" lon="6.74995">
        <ele>1522</ele>
        <time>2026-08-14T11:24:03.540Z</time>
      </trkpt>
      <trkpt lat="45.84711" lon="6.74991">
        <ele>1522</ele>
        <time>2026-08-14T11:24:04.540Z</time>
      </trkpt>
      <trkpt lat="45.84712" lon="6.74988">
        <ele>1521</ele>
        <time>2026-08-14T11:24:05.540Z</time>
      </trkpt>
      <trkpt lat="45.84712" lon="6.74984">
        <ele>1521</ele>
        <time>2026-08-14T11:24:06.540Z</time>
      </trkpt>
      <trkpt lat="45.84712" lon="6.74981">
        <ele>1521</ele>
        <time>2026-08-14T11:24:07.540Z</time>
      </trkpt>
      <trkpt lat="45.84712" lon="6.74978">
        <ele>1520</ele>
        <time>2026-08-14T11:24:08.540Z</time>
      </trkpt>
      <trkpt lat="45.84713" lon="6.74974">
        <ele>1520</ele>
        <time>2026-08-14T11:24:09.540Z</time>
      </trkpt>
      <trkpt lat="45.84713" lon="6.74971">
        <ele>1520</ele>
        <time>2026-08-14T11:24:10.540Z</time>
      </trkpt>
      <trkpt lat="45.84713" lon="6.74969">
        <ele>1521</ele>
        <time>2026-08-14T11:24:11.540Z</time>
      </trkpt>
      <trkpt lat="45.84714" lon="6.74967">
        <ele>1521</ele>
        <time>2026-08-14T11:24:12.540Z</time>
      </trkpt>
      <trkpt lat="45.84714" lon="6.74965">
        <ele>1521</ele>
        <time>2026-08-14T11:24:13.540Z</time>
      </trkpt>
      <trkpt lat="45.84715" lon="6.74963">
        <ele>1521</ele>
        <time>2026-08-14T11:24:14.540Z</time>
      </trkpt>
      <trkpt lat="45.84715" lon="6.74961">
        <ele>1521</ele>
        <time>2026-08-14T11:24:15.540Z</time>
      </trkpt>
      <trkpt lat="45.84716" lon="6.74958">
        <ele>1521</ele>
        <time>2026-08-14T11:24:16.540Z</time>
      </trkpt>
      <trkpt lat="45.84716" lon="6.74954">
        <ele>1520</ele>
        <time>2026-08-14T11:24:17.540Z</time>
      </trkpt>
      <trkpt lat="45.84717" lon="6.74951">
        <ele>1520</ele>
        <time>2026-08-14T11:24:18.540Z</time>
      </trkpt>
      <trkpt lat="45.84718" lon="6.74948">
        <ele>1520</ele>
        <time>2026-08-14T11:24:19.540Z</time>
      </trkpt>
      <trkpt lat="45.84718" lon="6.74945">
        <ele>1520</ele>
        <time>2026-08-14T11:24:20.540Z</time>
      </trkpt>
      <trkpt lat="45.84719" lon="6.74942">
        <ele>1520</ele>
        <time>2026-08-14T11:24:21.540Z</time>
      </trkpt>
      <trkpt lat="45.84719" lon="6.74939">
        <ele>1520</ele>
        <time>2026-08-14T11:24:22.540Z</time>
      </trkpt>
      <trkpt lat="45.8472" lon="6.74936">
        <ele>1520</ele>
        <time>2026-08-14T11:24:23.540Z</time>
      </trkpt>
      <trkpt lat="45.84721" lon="6.74933">
        <ele>1520</ele>
        <time>2026-08-14T11:24:24.540Z</time>
      </trkpt>
      <trkpt lat="45.84722" lon="6.7493">
        <ele>1520</ele>
        <time>2026-08-14T11:24:25.540Z</time>
      </trkpt>
      <trkpt lat="45.84723" lon="6.74926">
        <ele>1520</ele>
        <time>2026-08-14T11:24:26.540Z</time>
      </trkpt>
      <trkpt lat="45.84724" lon="6.74923">
        <ele>1520</ele>
        <time>2026-08-14T11:24:27.540Z</time>
      </trkpt>
      <trkpt lat="45.84725" lon="6.7492">
        <ele>1520</ele>
        <time>2026-08-14T11:24:28.540Z</time>
      </trkpt>
      <trkpt lat="45.84726" lon="6.74917">
        <ele>1520</ele>
        <time>2026-08-14T11:24:29.540Z</time>
      </trkpt>
      <trkpt lat="45.84727" lon="6.74914">
        <ele>1520</ele>
        <time>2026-08-14T11:24:30.540Z</time>
      </trkpt>
      <trkpt lat="45.84728" lon="6.74911">
        <ele>1520</ele>
        <time>2026-08-14T11:24:31.540Z</time>
      </trkpt>
      <trkpt lat="45.84728" lon="6.74908">
        <ele>1520</ele>
        <time>2026-08-14T11:24:32.540Z</time>
      </trkpt>
      <trkpt lat="45.84729" lon="6.74905">
        <ele>1520</ele>
        <time>2026-08-14T11:24:33.540Z</time>
      </trkpt>
      <trkpt lat="45.8473" lon="6.74903">
        <ele>1520</ele>
        <time>2026-08-14T11:24:34.540Z</time>
      </trkpt>
      <trkpt lat="45.84731" lon="6.749">
        <ele>1520</ele>
        <time>2026-08-14T11:24:35.540Z</time>
      </trkpt>
      <trkpt lat="45.84732" lon="6.74898">
        <ele>1520</ele>
        <time>2026-08-14T11:24:36.540Z</time>
      </trkpt>
      <trkpt lat="45.84732" lon="6.74896">
        <ele>1520</ele>
        <time>2026-08-14T11:24:37.540Z</time>
      </trkpt>
      <trkpt lat="45.84733" lon="6.74894">
        <ele>1520</ele>
        <time>2026-08-14T11:24:38.540Z</time>
      </trkpt>
      <trkpt lat="45.84733" lon="6.74892">
        <ele>1520</ele>
        <time>2026-08-14T11:24:39.540Z</time>
      </trkpt>
      <trkpt lat="45.84734" lon="6.7489">
        <ele>1520</ele>
        <time>2026-08-14T11:24:40.540Z</time>
      </trkpt>
      <trkpt lat="45.84734" lon="6.74887">
        <ele>1520</ele>
        <time>2026-08-14T11:24:41.540Z</time>
      </trkpt>
      <trkpt lat="45.84734" lon="6.74883">
        <ele>1520</ele>
        <time>2026-08-14T11:24:42.540Z</time>
      </trkpt>
      <trkpt lat="45.84735" lon="6.74879">
        <ele>1520</ele>
        <time>2026-08-14T11:24:43.540Z</time>
      </trkpt>
      <trkpt lat="45.84735" lon="6.74876">
        <ele>1520</ele>
        <time>2026-08-14T11:24:44.540Z</time>
      </trkpt>
      <trkpt lat="45.84735" lon="6.74873">
        <ele>1521</ele>
        <time>2026-08-14T11:24:45.540Z</time>
      </trkpt>
      <trkpt lat="45.84736" lon="6.74869">
        <ele>1521</ele>
        <time>2026-08-14T11:24:46.540Z</time>
      </trkpt>
      <trkpt lat="45.84736" lon="6.74866">
        <ele>1521</ele>
        <time>2026-08-14T11:24:47.540Z</time>
      </trkpt>
      <trkpt lat="45.84736" lon="6.74862">
        <ele>1521</ele>
        <time>2026-08-14T11:24:48.540Z</time>
      </trkpt>
      <trkpt lat="45.84736" lon="6.74859">
        <ele>1521</ele>
        <time>2026-08-14T11:24:49.540Z</time>
      </trkpt>
      <trkpt lat="45.84737" lon="6.74856">
        <ele>1521</ele>
        <time>2026-08-14T11:24:50.540Z</time>
      </trkpt>
      <trkpt lat="45.84737" lon="6.74854">
        <ele>1521</ele>
        <time>2026-08-14T11:24:51.540Z</time>
      </trkpt>
      <trkpt lat="45.84738" lon="6.74851">
        <ele>1521</ele>
        <time>2026-08-14T11:24:52.540Z</time>
      </trkpt>
      <trkpt lat="45.84738" lon="6.74847">
        <ele>1521</ele>
        <time>2026-08-14T11:24:53.540Z</time>
      </trkpt>
      <trkpt lat="45.84737" lon="6.74843">
        <ele>1521</ele>
        <time>2026-08-14T11:24:54.540Z</time>
      </trkpt>
      <trkpt lat="45.84738" lon="6.7484">
        <ele>1522</ele>
        <time>2026-08-14T11:24:55.540Z</time>
      </trkpt>
      <trkpt lat="45.84738" lon="6.74836">
        <ele>1522</ele>
        <time>2026-08-14T11:24:56.540Z</time>
      </trkpt>
      <trkpt lat="45.84739" lon="6.74833">
        <ele>1522</ele>
        <time>2026-08-14T11:24:57.540Z</time>
      </trkpt>
      <trkpt lat="45.84741" lon="6.74831">
        <ele>1522</ele>
        <time>2026-08-14T11:24:58.540Z</time>
      </trkpt>
      <trkpt lat="45.84741" lon="6.74828">
        <ele>1522</ele>
        <time>2026-08-14T11:24:59.540Z</time>
      </trkpt>
      <trkpt lat="45.84742" lon="6.74825">
        <ele>1522</ele>
        <time>2026-08-14T11:25:00.540Z</time>
      </trkpt>
      <trkpt lat="45.84742" lon="6.74821">
        <ele>1521</ele>
        <time>2026-08-14T11:25:01.540Z</time>
      </trkpt>
      <trkpt lat="45.84743" lon="6.74818">
        <ele>1521</ele>
        <time>2026-08-14T11:25:02.540Z</time>
      </trkpt>
      <trkpt lat="45.84744" lon="6.74816">
        <ele>1521</ele>
        <time>2026-08-14T11:25:03.540Z</time>
      </trkpt>
      <trkpt lat="45.84745" lon="6.74814">
        <ele>1521</ele>
        <time>2026-08-14T11:25:04.540Z</time>
      </trkpt>
      <trkpt lat="45.84745" lon="6.74811">
        <ele>1521</ele>
        <time>2026-08-14T11:25:05.540Z</time>
      </trkpt>
      <trkpt lat="45.84745" lon="6.74807">
        <ele>1521</ele>
        <time>2026-08-14T11:25:06.540Z</time>
      </trkpt>
      <trkpt lat="45.84745" lon="6.74803">
        <ele>1521</ele>
        <time>2026-08-14T11:25:07.540Z</time>
      </trkpt>
      <trkpt lat="45.84746" lon="6.748">
        <ele>1521</ele>
        <time>2026-08-14T11:25:08.540Z</time>
      </trkpt>
      <trkpt lat="45.84747" lon="6.74797">
        <ele>1521</ele>
        <time>2026-08-14T11:25:09.540Z</time>
      </trkpt>
      <trkpt lat="45.84749" lon="6.74794">
        <ele>1520</ele>
        <time>2026-08-14T11:25:10.540Z</time>
      </trkpt>
      <trkpt lat="45.84749" lon="6.74792">
        <ele>1519</ele>
        <time>2026-08-14T11:25:11.540Z</time>
      </trkpt>
      <trkpt lat="45.84751" lon="6.74789">
        <ele>1518</ele>
        <time>2026-08-14T11:25:12.540Z</time>
      </trkpt>
      <trkpt lat="45.84751" lon="6.74785">
        <ele>1518</ele>
        <time>2026-08-14T11:25:13.540Z</time>
      </trkpt>
      <trkpt lat="45.84752" lon="6.74782">
        <ele>1517</ele>
        <time>2026-08-14T11:25:14.540Z</time>
      </trkpt>
      <trkpt lat="45.84752" lon="6.74779">
        <ele>1517</ele>
        <time>2026-08-14T11:25:15.540Z</time>
      </trkpt>
      <trkpt lat="45.84752" lon="6.74777">
        <ele>1517</ele>
        <time>2026-08-14T11:25:16.540Z</time>
      </trkpt>
      <trkpt lat="45.84752" lon="6.74774">
        <ele>1517</ele>
        <time>2026-08-14T11:25:17.540Z</time>
      </trkpt>
      <trkpt lat="45.84752" lon="6.74772">
        <ele>1517</ele>
        <time>2026-08-14T11:25:18.540Z</time>
      </trkpt>
      <trkpt lat="45.84753" lon="6.74769">
        <ele>1517</ele>
        <time>2026-08-14T11:25:19.540Z</time>
      </trkpt>
      <trkpt lat="45.84753" lon="6.74767">
        <ele>1518</ele>
        <time>2026-08-14T11:25:20.540Z</time>
      </trkpt>
      <trkpt lat="45.84753" lon="6.74764">
        <ele>1518</ele>
        <time>2026-08-14T11:25:21.540Z</time>
      </trkpt>
      <trkpt lat="45.84753" lon="6.74762">
        <ele>1518</ele>
        <time>2026-08-14T11:25:22.540Z</time>
      </trkpt>
      <trkpt lat="45.84754" lon="6.74759">
        <ele>1519</ele>
        <time>2026-08-14T11:25:23.540Z</time>
      </trkpt>
      <trkpt lat="45.84754" lon="6.74756">
        <ele>1519</ele>
        <time>2026-08-14T11:25:24.540Z</time>
      </trkpt>
      <trkpt lat="45.84755" lon="6.74754">
        <ele>1520</ele>
        <time>2026-08-14T11:25:25.540Z</time>
      </trkpt>
      <trkpt lat="45.84756" lon="6.74751">
        <ele>1520</ele>
        <time>2026-08-14T11:25:26.540Z</time>
      </trkpt>
      <trkpt lat="45.84757" lon="6.74748">
        <ele>1520</ele>
        <time>2026-08-14T11:25:27.540Z</time>
      </trkpt>
      <trkpt lat="45.84757" lon="6.74746">
        <ele>1520</ele>
        <time>2026-08-14T11:25:28.540Z</time>
      </trkpt>
      <trkpt lat="45.84758" lon="6.74744">
        <ele>1520</ele>
        <time>2026-08-14T11:25:29.540Z</time>
      </trkpt>
      <trkpt lat="45.84758" lon="6.74741">
        <ele>1521</ele>
        <time>2026-08-14T11:25:30.540Z</time>
      </trkpt>
      <trkpt lat="45.84758" lon="6.74739">
        <ele>1521</ele>
        <time>2026-08-14T11:25:31.540Z</time>
      </trkpt>
      <trkpt lat="45.84758" lon="6.74736">
        <ele>1521</ele>
        <time>2026-08-14T11:25:32.540Z</time>
      </trkpt>
      <trkpt lat="45.84759" lon="6.74734">
        <ele>1522</ele>
        <time>2026-08-14T11:25:33.540Z</time>
      </trkpt>
      <trkpt lat="45.8476" lon="6.74732">
        <ele>1522</ele>
        <time>2026-08-14T11:25:34.540Z</time>
      </trkpt>
      <trkpt lat="45.8476" lon="6.74729">
        <ele>1522</ele>
        <time>2026-08-14T11:25:35.540Z</time>
      </trkpt>
      <trkpt lat="45.8476" lon="6.74726">
        <ele>1523</ele>
        <time>2026-08-14T11:25:36.540Z</time>
      </trkpt>
      <trkpt lat="45.84761" lon="6.74724">
        <ele>1524</ele>
        <time>2026-08-14T11:25:37.540Z</time>
      </trkpt>
      <trkpt lat="45.84761" lon="6.74721">
        <ele>1524</ele>
        <time>2026-08-14T11:25:38.540Z</time>
      </trkpt>
      <trkpt lat="45.84761" lon="6.74718">
        <ele>1525</ele>
        <time>2026-08-14T11:25:39.540Z</time>
      </trkpt>
      <trkpt lat="45.84762" lon="6.74715">
        <ele>1525</ele>
        <time>2026-08-14T11:25:40.540Z</time>
      </trkpt>
      <trkpt lat="45.84762" lon="6.74711">
        <ele>1525</ele>
        <time>2026-08-14T11:25:41.540Z</time>
      </trkpt>
      <trkpt lat="45.84762" lon="6.74707">
        <ele>1525</ele>
        <time>2026-08-14T11:25:42.540Z</time>
      </trkpt>
      <trkpt lat="45.84763" lon="6.74704">
        <ele>1525</ele>
        <time>2026-08-14T11:25:43.540Z</time>
      </trkpt>
      <trkpt lat="45.84764" lon="6.74701">
        <ele>1525</ele>
        <time>2026-08-14T11:25:44.540Z</time>
      </trkpt>
      <trkpt lat="45.84765" lon="6.74699">
        <ele>1525</ele>
        <time>2026-08-14T11:25:45.540Z</time>
      </trkpt>
      <trkpt lat="45.84766" lon="6.74697">
        <ele>1525</ele>
        <time>2026-08-14T11:25:46.540Z</time>
      </trkpt>
      <trkpt lat="45.84767" lon="6.74694">
        <ele>1525</ele>
        <time>2026-08-14T11:25:47.540Z</time>
      </trkpt>
      <trkpt lat="45.84768" lon="6.74692">
        <ele>1525</ele>
        <time>2026-08-14T11:25:48.540Z</time>
      </trkpt>
      <trkpt lat="45.84769" lon="6.74689">
        <ele>1524</ele>
        <time>2026-08-14T11:25:49.540Z</time>
      </trkpt>
      <trkpt lat="45.8477" lon="6.74686">
        <ele>1524</ele>
        <time>2026-08-14T11:25:50.540Z</time>
      </trkpt>
      <trkpt lat="45.84772" lon="6.74684">
        <ele>1524</ele>
        <time>2026-08-14T11:25:51.540Z</time>
      </trkpt>
      <trkpt lat="45.84774" lon="6.74683">
        <ele>1523</ele>
        <time>2026-08-14T11:25:52.540Z</time>
      </trkpt>
      <trkpt lat="45.84775" lon="6.7468">
        <ele>1523</ele>
        <time>2026-08-14T11:25:53.540Z</time>
      </trkpt>
      <trkpt lat="45.84776" lon="6.74679">
        <ele>1523</ele>
        <time>2026-08-14T11:25:54.540Z</time>
      </trkpt>
      <trkpt lat="45.84777" lon="6.74677">
        <ele>1523</ele>
        <time>2026-08-14T11:25:55.540Z</time>
      </trkpt>
      <trkpt lat="45.84778" lon="6.74674">
        <ele>1523</ele>
        <time>2026-08-14T11:25:56.540Z</time>
      </trkpt>
      <trkpt lat="45.84779" lon="6.74672">
        <ele>1523</ele>
        <time>2026-08-14T11:25:57.540Z</time>
      </trkpt>
      <trkpt lat="45.84781" lon="6.7467">
        <ele>1523</ele>
        <time>2026-08-14T11:25:58.540Z</time>
      </trkpt>
      <trkpt lat="45.84783" lon="6.74668">
        <ele>1523</ele>
        <time>2026-08-14T11:25:59.540Z</time>
      </trkpt>
      <trkpt lat="45.84785" lon="6.74666">
        <ele>1522</ele>
        <time>2026-08-14T11:26:00.540Z</time>
      </trkpt>
      <trkpt lat="45.84787" lon="6.74664">
        <ele>1522</ele>
        <time>2026-08-14T11:26:01.540Z</time>
      </trkpt>
      <trkpt lat="45.8479" lon="6.74661">
        <ele>1522</ele>
        <time>2026-08-14T11:26:02.540Z</time>
      </trkpt>
      <trkpt lat="45.84792" lon="6.7466">
        <ele>1522</ele>
        <time>2026-08-14T11:26:03.540Z</time>
      </trkpt>
      <trkpt lat="45.84794" lon="6.74658">
        <ele>1521</ele>
        <time>2026-08-14T11:26:04.540Z</time>
      </trkpt>
      <trkpt lat="45.84796" lon="6.74657">
        <ele>1521</ele>
        <time>2026-08-14T11:26:05.540Z</time>
      </trkpt>
      <trkpt lat="45.84798" lon="6.74656">
        <ele>1521</ele>
        <time>2026-08-14T11:26:06.540Z</time>
      </trkpt>
      <trkpt lat="45.848" lon="6.74655">
        <ele>1520</ele>
        <time>2026-08-14T11:26:07.540Z</time>
      </trkpt>
      <trkpt lat="45.84801" lon="6.74653">
        <ele>1520</ele>
        <time>2026-08-14T11:26:08.540Z</time>
      </trkpt>
      <trkpt lat="45.84801" lon="6.74652">
        <ele>1520</ele>
        <time>2026-08-14T11:26:09.540Z</time>
      </trkpt>
      <trkpt lat="45.84801" lon="6.7465">
        <ele>1520</ele>
        <time>2026-08-14T11:26:10.540Z</time>
      </trkpt>
      <trkpt lat="45.84802" lon="6.74648">
        <ele>1520</ele>
        <time>2026-08-14T11:26:11.540Z</time>
      </trkpt>
      <trkpt lat="45.84802" lon="6.74647">
        <ele>1519</ele>
        <time>2026-08-14T11:26:12.540Z</time>
      </trkpt>
      <trkpt lat="45.84802" lon="6.74645">
        <ele>1519</ele>
        <time>2026-08-14T11:26:13.540Z</time>
      </trkpt>
      <trkpt lat="45.84803" lon="6.74644">
        <ele>1519</ele>
        <time>2026-08-14T11:26:14.540Z</time>
      </trkpt>
      <trkpt lat="45.84805" lon="6.74643">
        <ele>1518</ele>
        <time>2026-08-14T11:26:15.540Z</time>
      </trkpt>
      <trkpt lat="45.84805" lon="6.74642">
        <ele>1518</ele>
        <time>2026-08-14T11:26:16.540Z</time>
      </trkpt>
      <trkpt lat="45.84807" lon="6.7464">
        <ele>1518</ele>
        <time>2026-08-14T11:26:17.540Z</time>
      </trkpt>
      <trkpt lat="45.84808" lon="6.74639">
        <ele>1517</ele>
        <time>2026-08-14T11:26:18.540Z</time>
      </trkpt>
      <trkpt lat="45.84808" lon="6.74637">
        <ele>1517</ele>
        <time>2026-08-14T11:26:19.540Z</time>
      </trkpt>
      <trkpt lat="45.84809" lon="6.74635">
        <ele>1517</ele>
        <time>2026-08-14T11:26:20.540Z</time>
      </trkpt>
      <trkpt lat="45.8481" lon="6.74634">
        <ele>1516</ele>
        <time>2026-08-14T11:26:21.540Z</time>
      </trkpt>
      <trkpt lat="45.8481" lon="6.74633">
        <ele>1516</ele>
        <time>2026-08-14T11:26:22.540Z</time>
      </trkpt>
      <trkpt lat="45.84811" lon="6.74632">
        <ele>1516</ele>
        <time>2026-08-14T11:26:23.540Z</time>
      </trkpt>
      <trkpt lat="45.84812" lon="6.74631">
        <ele>1515</ele>
        <time>2026-08-14T11:26:24.540Z</time>
      </trkpt>
      <trkpt lat="45.84813" lon="6.7463">
        <ele>1515</ele>
        <time>2026-08-14T11:26:25.540Z</time>
      </trkpt>
      <trkpt lat="45.84814" lon="6.74629">
        <ele>1515</ele>
        <time>2026-08-14T11:26:26.540Z</time>
      </trkpt>
      <trkpt lat="45.84813" lon="6.74627">
        <ele>1514</ele>
        <time>2026-08-14T11:26:27.540Z</time>
      </trkpt>
      <trkpt lat="45.84813" lon="6.74625">
        <ele>1514</ele>
        <time>2026-08-14T11:26:28.540Z</time>
      </trkpt>
      <trkpt lat="45.84813" lon="6.74624">
        <ele>1513</ele>
        <time>2026-08-14T11:26:29.540Z</time>
      </trkpt>
      <trkpt lat="45.84813" lon="6.74623">
        <ele>1513</ele>
        <time>2026-08-14T11:26:30.540Z</time>
      </trkpt>
      <trkpt lat="45.84814" lon="6.74622">
        <ele>1512</ele>
        <time>2026-08-14T11:26:31.540Z</time>
      </trkpt>
      <trkpt lat="45.84814" lon="6.74622">
        <ele>1512</ele>
        <time>2026-08-14T11:26:32.540Z</time>
      </trkpt>
      <trkpt lat="45.84816" lon="6.7462">
        <ele>1512</ele>
        <time>2026-08-14T11:26:33.540Z</time>
      </trkpt>
      <trkpt lat="45.84817" lon="6.7462">
        <ele>1512</ele>
        <time>2026-08-14T11:26:34.540Z</time>
      </trkpt>
      <trkpt lat="45.84818" lon="6.7462">
        <ele>1512</ele>
        <time>2026-08-14T11:26:35.540Z</time>
      </trkpt>
      <trkpt lat="45.84818" lon="6.74619">
        <ele>1512</ele>
        <time>2026-08-14T11:26:36.540Z</time>
      </trkpt>
      <trkpt lat="45.84819" lon="6.74619">
        <ele>1512</ele>
        <time>2026-08-14T11:26:37.540Z</time>
      </trkpt>
      <trkpt lat="45.8482" lon="6.74618">
        <ele>1511</ele>
        <time>2026-08-14T11:26:38.540Z</time>
      </trkpt>
      <trkpt lat="45.8482" lon="6.74617">
        <ele>1511</ele>
        <time>2026-08-14T11:26:39.540Z</time>
      </trkpt>
      <trkpt lat="45.84821" lon="6.74617">
        <ele>1511</ele>
        <time>2026-08-14T11:26:40.540Z</time>
      </trkpt>
      <trkpt lat="45.84823" lon="6.74616">
        <ele>1511</ele>
        <time>2026-08-14T11:26:41.540Z</time>
      </trkpt>
      <trkpt lat="45.84824" lon="6.74615">
        <ele>1510</ele>
        <time>2026-08-14T11:26:42.540Z</time>
      </trkpt>
      <trkpt lat="45.84826" lon="6.74614">
        <ele>1510</ele>
        <time>2026-08-14T11:26:43.540Z</time>
      </trkpt>
      <trkpt lat="45.84827" lon="6.74613">
        <ele>1510</ele>
        <time>2026-08-14T11:26:44.540Z</time>
      </trkpt>
      <trkpt lat="45.84828" lon="6.74612">
        <ele>1509</ele>
        <time>2026-08-14T11:26:45.540Z</time>
      </trkpt>
      <trkpt lat="45.84829" lon="6.74611">
        <ele>1509</ele>
        <time>2026-08-14T11:26:46.540Z</time>
      </trkpt>
      <trkpt lat="45.84831" lon="6.74611">
        <ele>1508</ele>
        <time>2026-08-14T11:26:47.540Z</time>
      </trkpt>
      <trkpt lat="45.84833" lon="6.7461">
        <ele>1508</ele>
        <time>2026-08-14T11:26:48.540Z</time>
      </trkpt>
      <trkpt lat="45.84834" lon="6.74611">
        <ele>1507</ele>
        <time>2026-08-14T11:26:49.540Z</time>
      </trkpt>
      <trkpt lat="45.84836" lon="6.7461">
        <ele>1506</ele>
        <time>2026-08-14T11:26:50.540Z</time>
      </trkpt>
      <trkpt lat="45.84838" lon="6.7461">
        <ele>1506</ele>
        <time>2026-08-14T11:26:51.540Z</time>
      </trkpt>
      <trkpt lat="45.8484" lon="6.7461">
        <ele>1506</ele>
        <time>2026-08-14T11:26:52.540Z</time>
      </trkpt>
      <trkpt lat="45.84842" lon="6.7461">
        <ele>1505</ele>
        <time>2026-08-14T11:26:53.540Z</time>
      </trkpt>
      <trkpt lat="45.84845" lon="6.7461">
        <ele>1505</ele>
        <time>2026-08-14T11:26:54.540Z</time>
      </trkpt>
      <trkpt lat="45.84846" lon="6.74609">
        <ele>1505</ele>
        <time>2026-08-14T11:26:55.540Z</time>
      </trkpt>
      <trkpt lat="45.84848" lon="6.74609">
        <ele>1505</ele>
        <time>2026-08-14T11:26:56.540Z</time>
      </trkpt>
      <trkpt lat="45.8485" lon="6.74609">
        <ele>1505</ele>
        <time>2026-08-14T11:26:57.540Z</time>
      </trkpt>
      <trkpt lat="45.84851" lon="6.74608">
        <ele>1505</ele>
        <time>2026-08-14T11:26:58.540Z</time>
      </trkpt>
      <trkpt lat="45.84853" lon="6.74606">
        <ele>1505</ele>
        <time>2026-08-14T11:26:59.540Z</time>
      </trkpt>
      <trkpt lat="45.84854" lon="6.74605">
        <ele>1504</ele>
        <time>2026-08-14T11:27:00.540Z</time>
      </trkpt>
      <trkpt lat="45.84857" lon="6.74606">
        <ele>1504</ele>
        <time>2026-08-14T11:27:01.540Z</time>
      </trkpt>
      <trkpt lat="45.84859" lon="6.74605">
        <ele>1504</ele>
        <time>2026-08-14T11:27:02.540Z</time>
      </trkpt>
      <trkpt lat="45.84862" lon="6.74605">
        <ele>1504</ele>
        <time>2026-08-14T11:27:03.540Z</time>
      </trkpt>
      <trkpt lat="45.84866" lon="6.74605">
        <ele>1504</ele>
        <time>2026-08-14T11:27:04.540Z</time>
      </trkpt>
      <trkpt lat="45.84869" lon="6.74604">
        <ele>1504</ele>
        <time>2026-08-14T11:27:05.540Z</time>
      </trkpt>
      <trkpt lat="45.84871" lon="6.74604">
        <ele>1504</ele>
        <time>2026-08-14T11:27:06.540Z</time>
      </trkpt>
      <trkpt lat="45.84873" lon="6.74604">
        <ele>1504</ele>
        <time>2026-08-14T11:27:07.540Z</time>
      </trkpt>
      <trkpt lat="45.84876" lon="6.74603">
        <ele>1503</ele>
        <time>2026-08-14T11:27:08.540Z</time>
      </trkpt>
      <trkpt lat="45.84878" lon="6.74602">
        <ele>1503</ele>
        <time>2026-08-14T11:27:09.540Z</time>
      </trkpt>
      <trkpt lat="45.8488" lon="6.74601">
        <ele>1503</ele>
        <time>2026-08-14T11:27:10.540Z</time>
      </trkpt>
      <trkpt lat="45.84882" lon="6.746">
        <ele>1503</ele>
        <time>2026-08-14T11:27:11.540Z</time>
      </trkpt>
      <trkpt lat="45.84884" lon="6.74599">
        <ele>1503</ele>
        <time>2026-08-14T11:27:12.540Z</time>
      </trkpt>
      <trkpt lat="45.84886" lon="6.74599">
        <ele>1503</ele>
        <time>2026-08-14T11:27:13.540Z</time>
      </trkpt>
      <trkpt lat="45.84889" lon="6.74599">
        <ele>1503</ele>
        <time>2026-08-14T11:27:14.540Z</time>
      </trkpt>
      <trkpt lat="45.84891" lon="6.74599">
        <ele>1503</ele>
        <time>2026-08-14T11:27:15.540Z</time>
      </trkpt>
      <trkpt lat="45.84893" lon="6.746">
        <ele>1503</ele>
        <time>2026-08-14T11:27:16.540Z</time>
      </trkpt>
      <trkpt lat="45.84895" lon="6.74601">
        <ele>1503</ele>
        <time>2026-08-14T11:27:17.540Z</time>
      </trkpt>
      <trkpt lat="45.84897" lon="6.74601">
        <ele>1503</ele>
        <time>2026-08-14T11:27:18.540Z</time>
      </trkpt>
      <trkpt lat="45.84899" lon="6.746">
        <ele>1503</ele>
        <time>2026-08-14T11:27:19.540Z</time>
      </trkpt>
      <trkpt lat="45.84902" lon="6.746">
        <ele>1503</ele>
        <time>2026-08-14T11:27:20.540Z</time>
      </trkpt>
      <trkpt lat="45.84904" lon="6.74599">
        <ele>1502</ele>
        <time>2026-08-14T11:27:21.540Z</time>
      </trkpt>
      <trkpt lat="45.84907" lon="6.74599">
        <ele>1502</ele>
        <time>2026-08-14T11:27:22.540Z</time>
      </trkpt>
      <trkpt lat="45.84909" lon="6.74599">
        <ele>1502</ele>
        <time>2026-08-14T11:27:23.540Z</time>
      </trkpt>
      <trkpt lat="45.84912" lon="6.746">
        <ele>1502</ele>
        <time>2026-08-14T11:27:24.540Z</time>
      </trkpt>
      <trkpt lat="45.84914" lon="6.74601">
        <ele>1502</ele>
        <time>2026-08-14T11:27:25.540Z</time>
      </trkpt>
      <trkpt lat="45.84916" lon="6.74601">
        <ele>1502</ele>
        <time>2026-08-14T11:27:26.540Z</time>
      </trkpt>
      <trkpt lat="45.84918" lon="6.74601">
        <ele>1502</ele>
        <time>2026-08-14T11:27:27.540Z</time>
      </trkpt>
      <trkpt lat="45.84921" lon="6.74602">
        <ele>1502</ele>
        <time>2026-08-14T11:27:28.540Z</time>
      </trkpt>
      <trkpt lat="45.84923" lon="6.74603">
        <ele>1502</ele>
        <time>2026-08-14T11:27:29.540Z</time>
      </trkpt>
      <trkpt lat="45.84926" lon="6.74604">
        <ele>1502</ele>
        <time>2026-08-14T11:27:30.540Z</time>
      </trkpt>
      <trkpt lat="45.84928" lon="6.74604">
        <ele>1503</ele>
        <time>2026-08-14T11:27:31.540Z</time>
      </trkpt>
      <trkpt lat="45.8493" lon="6.74605">
        <ele>1503</ele>
        <time>2026-08-14T11:27:32.540Z</time>
      </trkpt>
      <trkpt lat="45.84932" lon="6.74606">
        <ele>1503</ele>
        <time>2026-08-14T11:27:33.540Z</time>
      </trkpt>
      <trkpt lat="45.84934" lon="6.74607">
        <ele>1503</ele>
        <time>2026-08-14T11:27:34.540Z</time>
      </trkpt>
      <trkpt lat="45.84936" lon="6.74607">
        <ele>1503</ele>
        <time>2026-08-14T11:27:35.540Z</time>
      </trkpt>
      <trkpt lat="45.84939" lon="6.74609">
        <ele>1503</ele>
        <time>2026-08-14T11:27:36.540Z</time>
      </trkpt>
      <trkpt lat="45.84941" lon="6.7461">
        <ele>1503</ele>
        <time>2026-08-14T11:27:37.540Z</time>
      </trkpt>
      <trkpt lat="45.84944" lon="6.7461">
        <ele>1503</ele>
        <time>2026-08-14T11:27:38.540Z</time>
      </trkpt>
      <trkpt lat="45.84946" lon="6.74611">
        <ele>1503</ele>
        <time>2026-08-14T11:27:39.540Z</time>
      </trkpt>
      <trkpt lat="45.84948" lon="6.74611">
        <ele>1503</ele>
        <time>2026-08-14T11:27:40.540Z</time>
      </trkpt>
      <trkpt lat="45.8495" lon="6.74613">
        <ele>1504</ele>
        <time>2026-08-14T11:27:41.540Z</time>
      </trkpt>
      <trkpt lat="45.84951" lon="6.74613">
        <ele>1504</ele>
        <time>2026-08-14T11:27:42.540Z</time>
      </trkpt>
      <trkpt lat="45.84953" lon="6.74614">
        <ele>1505</ele>
        <time>2026-08-14T11:27:43.540Z</time>
      </trkpt>
      <trkpt lat="45.84955" lon="6.74615">
        <ele>1505</ele>
        <time>2026-08-14T11:27:44.540Z</time>
      </trkpt>
      <trkpt lat="45.84956" lon="6.74616">
        <ele>1505</ele>
        <time>2026-08-14T11:27:45.540Z</time>
      </trkpt>
      <trkpt lat="45.84958" lon="6.74617">
        <ele>1505</ele>
        <time>2026-08-14T11:27:46.540Z</time>
      </trkpt>
      <trkpt lat="45.8496" lon="6.74618">
        <ele>1505</ele>
        <time>2026-08-14T11:27:47.540Z</time>
      </trkpt>
      <trkpt lat="45.84962" lon="6.74619">
        <ele>1505</ele>
        <time>2026-08-14T11:27:48.540Z</time>
      </trkpt>
      <trkpt lat="45.84964" lon="6.74619">
        <ele>1506</ele>
        <time>2026-08-14T11:27:49.540Z</time>
      </trkpt>
      <trkpt lat="45.84966" lon="6.74619">
        <ele>1506</ele>
        <time>2026-08-14T11:27:50.540Z</time>
      </trkpt>
      <trkpt lat="45.84967" lon="6.74618">
        <ele>1507</ele>
        <time>2026-08-14T11:27:51.540Z</time>
      </trkpt>
      <trkpt lat="45.84969" lon="6.74619">
        <ele>1507</ele>
        <time>2026-08-14T11:27:52.540Z</time>
      </trkpt>
      <trkpt lat="45.8497" lon="6.74618">
        <ele>1507</ele>
        <time>2026-08-14T11:27:53.540Z</time>
      </trkpt>
      <trkpt lat="45.84971" lon="6.74619">
        <ele>1507</ele>
        <time>2026-08-14T11:27:54.540Z</time>
      </trkpt>
      <trkpt lat="45.84973" lon="6.74619">
        <ele>1507</ele>
        <time>2026-08-14T11:27:55.540Z</time>
      </trkpt>
      <trkpt lat="45.84974" lon="6.7462">
        <ele>1507</ele>
        <time>2026-08-14T11:27:56.540Z</time>
      </trkpt>
      <trkpt lat="45.84975" lon="6.7462">
        <ele>1506</ele>
        <time>2026-08-14T11:27:57.540Z</time>
      </trkpt>
      <trkpt lat="45.84976" lon="6.74621">
        <ele>1506</ele>
        <time>2026-08-14T11:27:58.540Z</time>
      </trkpt>
      <trkpt lat="45.84978" lon="6.7462">
        <ele>1505</ele>
        <time>2026-08-14T11:27:59.540Z</time>
      </trkpt>
      <trkpt lat="45.84978" lon="6.7462">
        <ele>1505</ele>
        <time>2026-08-14T11:28:00.540Z</time>
      </trkpt>
      <trkpt lat="45.8498" lon="6.7462">
        <ele>1505</ele>
        <time>2026-08-14T11:28:01.540Z</time>
      </trkpt>
      <trkpt lat="45.84981" lon="6.74619">
        <ele>1505</ele>
        <time>2026-08-14T11:28:02.540Z</time>
      </trkpt>
      <trkpt lat="45.84983" lon="6.74619">
        <ele>1505</ele>
        <time>2026-08-14T11:28:03.540Z</time>
      </trkpt>
      <trkpt lat="45.84985" lon="6.74619">
        <ele>1505</ele>
        <time>2026-08-14T11:28:04.540Z</time>
      </trkpt>
      <trkpt lat="45.84987" lon="6.7462">
        <ele>1505</ele>
        <time>2026-08-14T11:28:05.540Z</time>
      </trkpt>
      <trkpt lat="45.84989" lon="6.7462">
        <ele>1505</ele>
        <time>2026-08-14T11:28:06.540Z</time>
      </trkpt>
      <trkpt lat="45.8499" lon="6.74621">
        <ele>1505</ele>
        <time>2026-08-14T11:28:07.540Z</time>
      </trkpt>
      <trkpt lat="45.84991" lon="6.74622">
        <ele>1505</ele>
        <time>2026-08-14T11:28:08.540Z</time>
      </trkpt>
      <trkpt lat="45.84992" lon="6.74623">
        <ele>1504</ele>
        <time>2026-08-14T11:28:09.540Z</time>
      </trkpt>
      <trkpt lat="45.84994" lon="6.74623">
        <ele>1504</ele>
        <time>2026-08-14T11:28:10.540Z</time>
      </trkpt>
      <trkpt lat="45.84996" lon="6.74624">
        <ele>1504</ele>
        <time>2026-08-14T11:28:11.540Z</time>
      </trkpt>
      <trkpt lat="45.84999" lon="6.74624">
        <ele>1503</ele>
        <time>2026-08-14T11:28:12.540Z</time>
      </trkpt>
      <trkpt lat="45.85001" lon="6.74623">
        <ele>1503</ele>
        <time>2026-08-14T11:28:13.540Z</time>
      </trkpt>
      <trkpt lat="45.85003" lon="6.74621">
        <ele>1503</ele>
        <time>2026-08-14T11:28:14.540Z</time>
      </trkpt>
      <trkpt lat="45.85006" lon="6.74621">
        <ele>1502</ele>
        <time>2026-08-14T11:28:15.540Z</time>
      </trkpt>
      <trkpt lat="45.85008" lon="6.7462">
        <ele>1502</ele>
        <time>2026-08-14T11:28:16.540Z</time>
      </trkpt>
      <trkpt lat="45.85011" lon="6.7462">
        <ele>1502</ele>
        <time>2026-08-14T11:28:17.540Z</time>
      </trkpt>
      <trkpt lat="45.85014" lon="6.74619">
        <ele>1502</ele>
        <time>2026-08-14T11:28:18.540Z</time>
      </trkpt>
      <trkpt lat="45.85017" lon="6.74618">
        <ele>1502</ele>
        <time>2026-08-14T11:28:19.540Z</time>
      </trkpt>
      <trkpt lat="45.85019" lon="6.74618">
        <ele>1502</ele>
        <time>2026-08-14T11:28:20.540Z</time>
      </trkpt>
      <trkpt lat="45.85021" lon="6.74618">
        <ele>1502</ele>
        <time>2026-08-14T11:28:21.540Z</time>
      </trkpt>
      <trkpt lat="45.85022" lon="6.74618">
        <ele>1503</ele>
        <time>2026-08-14T11:28:22.540Z</time>
      </trkpt>
      <trkpt lat="45.85024" lon="6.74618">
        <ele>1503</ele>
        <time>2026-08-14T11:28:23.540Z</time>
      </trkpt>
      <trkpt lat="45.85026" lon="6.74618">
        <ele>1503</ele>
        <time>2026-08-14T11:28:24.540Z</time>
      </trkpt>
      <trkpt lat="45.85028" lon="6.74619">
        <ele>1503</ele>
        <time>2026-08-14T11:28:25.540Z</time>
      </trkpt>
      <trkpt lat="45.8503" lon="6.74618">
        <ele>1503</ele>
        <time>2026-08-14T11:28:26.540Z</time>
      </trkpt>
      <trkpt lat="45.85032" lon="6.74618">
        <ele>1503</ele>
        <time>2026-08-14T11:28:27.540Z</time>
      </trkpt>
      <trkpt lat="45.85034" lon="6.74618">
        <ele>1503</ele>
        <time>2026-08-14T11:28:28.540Z</time>
      </trkpt>
      <trkpt lat="45.85036" lon="6.74617">
        <ele>1503</ele>
        <time>2026-08-14T11:28:29.540Z</time>
      </trkpt>
      <trkpt lat="45.85038" lon="6.74618">
        <ele>1503</ele>
        <time>2026-08-14T11:28:30.540Z</time>
      </trkpt>
      <trkpt lat="45.8504" lon="6.74618">
        <ele>1503</ele>
        <time>2026-08-14T11:28:31.540Z</time>
      </trkpt>
      <trkpt lat="45.85042" lon="6.74617">
        <ele>1502</ele>
        <time>2026-08-14T11:28:32.540Z</time>
      </trkpt>
      <trkpt lat="45.85044" lon="6.74616">
        <ele>1502</ele>
        <time>2026-08-14T11:28:33.540Z</time>
      </trkpt>
      <trkpt lat="45.85047" lon="6.74616">
        <ele>1502</ele>
        <time>2026-08-14T11:28:34.540Z</time>
      </trkpt>
      <trkpt lat="45.85049" lon="6.74615">
        <ele>1502</ele>
        <time>2026-08-14T11:28:35.540Z</time>
      </trkpt>
      <trkpt lat="45.85051" lon="6.74615">
        <ele>1502</ele>
        <time>2026-08-14T11:28:36.540Z</time>
      </trkpt>
      <trkpt lat="45.85053" lon="6.74614">
        <ele>1502</ele>
        <time>2026-08-14T11:28:37.540Z</time>
      </trkpt>
      <trkpt lat="45.85055" lon="6.74613">
        <ele>1502</ele>
        <time>2026-08-14T11:28:38.540Z</time>
      </trkpt>
      <trkpt lat="45.85056" lon="6.74613">
        <ele>1502</ele>
        <time>2026-08-14T11:28:39.540Z</time>
      </trkpt>
      <trkpt lat="45.85058" lon="6.74613">
        <ele>1502</ele>
        <time>2026-08-14T11:28:40.540Z</time>
      </trkpt>
      <trkpt lat="45.85059" lon="6.74612">
        <ele>1502</ele>
        <time>2026-08-14T11:28:41.540Z</time>
      </trkpt>
      <trkpt lat="45.85061" lon="6.74612">
        <ele>1502</ele>
        <time>2026-08-14T11:28:42.540Z</time>
      </trkpt>
      <trkpt lat="45.85062" lon="6.74612">
        <ele>1502</ele>
        <time>2026-08-14T11:28:43.540Z</time>
      </trkpt>
      <trkpt lat="45.85064" lon="6.74611">
        <ele>1503</ele>
        <time>2026-08-14T11:28:44.540Z</time>
      </trkpt>
      <trkpt lat="45.85066" lon="6.7461">
        <ele>1503</ele>
        <time>2026-08-14T11:28:45.540Z</time>
      </trkpt>
      <trkpt lat="45.85068" lon="6.7461">
        <ele>1503</ele>
        <time>2026-08-14T11:28:46.540Z</time>
      </trkpt>
      <trkpt lat="45.85071" lon="6.7461">
        <ele>1503</ele>
        <time>2026-08-14T11:28:47.540Z</time>
      </trkpt>
      <trkpt lat="45.85073" lon="6.74609">
        <ele>1502</ele>
        <time>2026-08-14T11:28:48.540Z</time>
      </trkpt>
      <trkpt lat="45.85076" lon="6.74608">
        <ele>1502</ele>
        <time>2026-08-14T11:28:49.540Z</time>
      </trkpt>
      <trkpt lat="45.85078" lon="6.74608">
        <ele>1502</ele>
        <time>2026-08-14T11:28:50.540Z</time>
      </trkpt>
      <trkpt lat="45.8508" lon="6.74608">
        <ele>1502</ele>
        <time>2026-08-14T11:28:51.540Z</time>
      </trkpt>
      <trkpt lat="45.85082" lon="6.74608">
        <ele>1503</ele>
        <time>2026-08-14T11:28:52.540Z</time>
      </trkpt>
      <trkpt lat="45.85083" lon="6.74608">
        <ele>1503</ele>
        <time>2026-08-14T11:28:53.540Z</time>
      </trkpt>
      <trkpt lat="45.85085" lon="6.74607">
        <ele>1503</ele>
        <time>2026-08-14T11:28:54.540Z</time>
      </trkpt>
      <trkpt lat="45.85087" lon="6.74607">
        <ele>1503</ele>
        <time>2026-08-14T11:28:55.540Z</time>
      </trkpt>
      <trkpt lat="45.85089" lon="6.74606">
        <ele>1503</ele>
        <time>2026-08-14T11:28:56.540Z</time>
      </trkpt>
      <trkpt lat="45.8509" lon="6.74606">
        <ele>1503</ele>
        <time>2026-08-14T11:28:57.540Z</time>
      </trkpt>
      <trkpt lat="45.85092" lon="6.74605">
        <ele>1503</ele>
        <time>2026-08-14T11:28:58.540Z</time>
      </trkpt>
      <trkpt lat="45.85094" lon="6.74605">
        <ele>1503</ele>
        <time>2026-08-14T11:28:59.540Z</time>
      </trkpt>
      <trkpt lat="45.85095" lon="6.74604">
        <ele>1503</ele>
        <time>2026-08-14T11:29:00.540Z</time>
      </trkpt>
      <trkpt lat="45.85097" lon="6.74603">
        <ele>1503</ele>
        <time>2026-08-14T11:29:01.540Z</time>
      </trkpt>
      <trkpt lat="45.85098" lon="6.74603">
        <ele>1503</ele>
        <time>2026-08-14T11:29:02.540Z</time>
      </trkpt>
      <trkpt lat="45.85099" lon="6.74603">
        <ele>1503</ele>
        <time>2026-08-14T11:29:03.540Z</time>
      </trkpt>
      <trkpt lat="45.851" lon="6.74605">
        <ele>1502</ele>
        <time>2026-08-14T11:29:04.540Z</time>
      </trkpt>
      <trkpt lat="45.85102" lon="6.74606">
        <ele>1502</ele>
        <time>2026-08-14T11:29:05.540Z</time>
      </trkpt>
      <trkpt lat="45.85103" lon="6.74606">
        <ele>1502</ele>
        <time>2026-08-14T11:29:06.540Z</time>
      </trkpt>
      <trkpt lat="45.85104" lon="6.74606">
        <ele>1501</ele>
        <time>2026-08-14T11:29:07.540Z</time>
      </trkpt>
      <trkpt lat="45.85106" lon="6.74607">
        <ele>1501</ele>
        <time>2026-08-14T11:29:08.540Z</time>
      </trkpt>
      <trkpt lat="45.85107" lon="6.74607">
        <ele>1501</ele>
        <time>2026-08-14T11:29:09.540Z</time>
      </trkpt>
      <trkpt lat="45.85108" lon="6.74608">
        <ele>1501</ele>
        <time>2026-08-14T11:29:10.540Z</time>
      </trkpt>
      <trkpt lat="45.85109" lon="6.74609">
        <ele>1501</ele>
        <time>2026-08-14T11:29:11.540Z</time>
      </trkpt>
      <trkpt lat="45.85111" lon="6.7461">
        <ele>1501</ele>
        <time>2026-08-14T11:29:12.540Z</time>
      </trkpt>
      <trkpt lat="45.85113" lon="6.74611">
        <ele>1501</ele>
        <time>2026-08-14T11:29:13.540Z</time>
      </trkpt>
      <trkpt lat="45.85115" lon="6.74612">
        <ele>1500</ele>
        <time>2026-08-14T11:29:14.540Z</time>
      </trkpt>
      <trkpt lat="45.85117" lon="6.74613">
        <ele>1500</ele>
        <time>2026-08-14T11:29:15.540Z</time>
      </trkpt>
      <trkpt lat="45.85119" lon="6.74613">
        <ele>1500</ele>
        <time>2026-08-14T11:29:16.540Z</time>
      </trkpt>
      <trkpt lat="45.85121" lon="6.74615">
        <ele>1500</ele>
        <time>2026-08-14T11:29:17.540Z</time>
      </trkpt>
      <trkpt lat="45.85123" lon="6.74617">
        <ele>1500</ele>
        <time>2026-08-14T11:29:18.540Z</time>
      </trkpt>
      <trkpt lat="45.85125" lon="6.74618">
        <ele>1500</ele>
        <time>2026-08-14T11:29:19.540Z</time>
      </trkpt>
      <trkpt lat="45.85126" lon="6.74619">
        <ele>1500</ele>
        <time>2026-08-14T11:29:20.540Z</time>
      </trkpt>
      <trkpt lat="45.85128" lon="6.7462">
        <ele>1500</ele>
        <time>2026-08-14T11:29:21.540Z</time>
      </trkpt>
      <trkpt lat="45.85129" lon="6.74621">
        <ele>1501</ele>
        <time>2026-08-14T11:29:22.540Z</time>
      </trkpt>
      <trkpt lat="45.85132" lon="6.74623">
        <ele>1501</ele>
        <time>2026-08-14T11:29:23.540Z</time>
      </trkpt>
      <trkpt lat="45.85134" lon="6.74625">
        <ele>1501</ele>
        <time>2026-08-14T11:29:24.540Z</time>
      </trkpt>
      <trkpt lat="45.85136" lon="6.74627">
        <ele>1502</ele>
        <time>2026-08-14T11:29:25.540Z</time>
      </trkpt>
      <trkpt lat="45.85138" lon="6.7463">
        <ele>1502</ele>
        <time>2026-08-14T11:29:26.540Z</time>
      </trkpt>
      <trkpt lat="45.85139" lon="6.74632">
        <ele>1502</ele>
        <time>2026-08-14T11:29:27.540Z</time>
      </trkpt>
      <trkpt lat="45.85141" lon="6.74633">
        <ele>1502</ele>
        <time>2026-08-14T11:29:28.540Z</time>
      </trkpt>
      <trkpt lat="45.85141" lon="6.74636">
        <ele>1502</ele>
        <time>2026-08-14T11:29:29.540Z</time>
      </trkpt>
      <trkpt lat="45.85142" lon="6.74639">
        <ele>1502</ele>
        <time>2026-08-14T11:29:30.540Z</time>
      </trkpt>
      <trkpt lat="45.85143" lon="6.74641">
        <ele>1501</ele>
        <time>2026-08-14T11:29:31.540Z</time>
      </trkpt>
      <trkpt lat="45.85144" lon="6.74643">
        <ele>1501</ele>
        <time>2026-08-14T11:29:32.540Z</time>
      </trkpt>
      <trkpt lat="45.85146" lon="6.74645">
        <ele>1500</ele>
        <time>2026-08-14T11:29:33.540Z</time>
      </trkpt>
      <trkpt lat="45.85146" lon="6.74647">
        <ele>1500</ele>
        <time>2026-08-14T11:29:34.540Z</time>
      </trkpt>
      <trkpt lat="45.85147" lon="6.74649">
        <ele>1499</ele>
        <time>2026-08-14T11:29:35.540Z</time>
      </trkpt>
      <trkpt lat="45.85148" lon="6.74651">
        <ele>1499</ele>
        <time>2026-08-14T11:29:36.540Z</time>
      </trkpt>
      <trkpt lat="45.8515" lon="6.74653">
        <ele>1498</ele>
        <time>2026-08-14T11:29:37.540Z</time>
      </trkpt>
      <trkpt lat="45.8515" lon="6.74654">
        <ele>1497</ele>
        <time>2026-08-14T11:29:38.540Z</time>
      </trkpt>
      <trkpt lat="45.85152" lon="6.74654">
        <ele>1497</ele>
        <time>2026-08-14T11:29:39.540Z</time>
      </trkpt>
      <trkpt lat="45.85154" lon="6.74653">
        <ele>1496</ele>
        <time>2026-08-14T11:29:40.540Z</time>
      </trkpt>
      <trkpt lat="45.85155" lon="6.74652">
        <ele>1496</ele>
        <time>2026-08-14T11:29:41.540Z</time>
      </trkpt>
      <trkpt lat="45.85156" lon="6.74651">
        <ele>1495</ele>
        <time>2026-08-14T11:29:42.540Z</time>
      </trkpt>
      <trkpt lat="45.85156" lon="6.7465">
        <ele>1495</ele>
        <time>2026-08-14T11:29:43.540Z</time>
      </trkpt>
      <trkpt lat="45.85157" lon="6.74648">
        <ele>1495</ele>
        <time>2026-08-14T11:29:44.540Z</time>
      </trkpt>
      <trkpt lat="45.85158" lon="6.74646">
        <ele>1495</ele>
        <time>2026-08-14T11:29:45.540Z</time>
      </trkpt>
      <trkpt lat="45.8516" lon="6.74644">
        <ele>1495</ele>
        <time>2026-08-14T11:29:46.540Z</time>
      </trkpt>
      <trkpt lat="45.85161" lon="6.74642">
        <ele>1495</ele>
        <time>2026-08-14T11:29:47.540Z</time>
      </trkpt>
      <trkpt lat="45.85162" lon="6.7464">
        <ele>1495</ele>
        <time>2026-08-14T11:29:48.540Z</time>
      </trkpt>
      <trkpt lat="45.85163" lon="6.74638">
        <ele>1495</ele>
        <time>2026-08-14T11:29:49.540Z</time>
      </trkpt>
      <trkpt lat="45.85163" lon="6.74636">
        <ele>1495</ele>
        <time>2026-08-14T11:29:50.540Z</time>
      </trkpt>
      <trkpt lat="45.85163" lon="6.74635">
        <ele>1496</ele>
        <time>2026-08-14T11:29:51.540Z</time>
      </trkpt>
      <trkpt lat="45.85163" lon="6.74633">
        <ele>1496</ele>
        <time>2026-08-14T11:29:52.540Z</time>
      </trkpt>
      <trkpt lat="45.85163" lon="6.7463">
        <ele>1496</ele>
        <time>2026-08-14T11:29:53.540Z</time>
      </trkpt>
      <trkpt lat="45.85162" lon="6.74628">
        <ele>1497</ele>
        <time>2026-08-14T11:29:54.540Z</time>
      </trkpt>
      <trkpt lat="45.85162" lon="6.74625">
        <ele>1498</ele>
        <time>2026-08-14T11:29:55.540Z</time>
      </trkpt>
      <trkpt lat="45.85161" lon="6.74623">
        <ele>1499</ele>
        <time>2026-08-14T11:29:56.540Z</time>
      </trkpt>
      <trkpt lat="45.85161" lon="6.7462">
        <ele>1500</ele>
        <time>2026-08-14T11:29:57.540Z</time>
      </trkpt>
      <trkpt lat="45.8516" lon="6.74617">
        <ele>1501</ele>
        <time>2026-08-14T11:29:58.540Z</time>
      </trkpt>
      <trkpt lat="45.8516" lon="6.74615">
        <ele>1501</ele>
        <time>2026-08-14T11:29:59.540Z</time>
      </trkpt>
      <trkpt lat="45.8516" lon="6.74613">
        <ele>1502</ele>
        <time>2026-08-14T11:30:00.540Z</time>
      </trkpt>
      <trkpt lat="45.85159" lon="6.74611">
        <ele>1502</ele>
        <time>2026-08-14T11:30:01.540Z</time>
      </trkpt>
      <trkpt lat="45.85159" lon="6.7461">
        <ele>1503</ele>
        <time>2026-08-14T11:30:02.540Z</time>
      </trkpt>
      <trkpt lat="45.85159" lon="6.74609">
        <ele>1503</ele>
        <time>2026-08-14T11:30:03.540Z</time>
      </trkpt>
      <trkpt lat="45.8516" lon="6.74606">
        <ele>1503</ele>
        <time>2026-08-14T11:30:04.540Z</time>
      </trkpt>
      <trkpt lat="45.8516" lon="6.74604">
        <ele>1503</ele>
        <time>2026-08-14T11:30:05.540Z</time>
      </trkpt>
      <trkpt lat="45.85162" lon="6.74602">
        <ele>1502</ele>
        <time>2026-08-14T11:30:06.540Z</time>
      </trkpt>
      <trkpt lat="45.85163" lon="6.746">
        <ele>1502</ele>
        <time>2026-08-14T11:30:07.540Z</time>
      </trkpt>
      <trkpt lat="45.85164" lon="6.74597">
        <ele>1501</ele>
        <time>2026-08-14T11:30:08.540Z</time>
      </trkpt>
      <trkpt lat="45.85164" lon="6.74595">
        <ele>1501</ele>
        <time>2026-08-14T11:30:09.540Z</time>
      </trkpt>
      <trkpt lat="45.85165" lon="6.74592">
        <ele>1500</ele>
        <time>2026-08-14T11:30:10.540Z</time>
      </trkpt>
      <trkpt lat="45.85165" lon="6.74588">
        <ele>1500</ele>
        <time>2026-08-14T11:30:11.540Z</time>
      </trkpt>
      <trkpt lat="45.85165" lon="6.74586">
        <ele>1499</ele>
        <time>2026-08-14T11:30:12.540Z</time>
      </trkpt>
      <trkpt lat="45.85164" lon="6.74582">
        <ele>1499</ele>
        <time>2026-08-14T11:30:13.540Z</time>
      </trkpt>
      <trkpt lat="45.85164" lon="6.74579">
        <ele>1498</ele>
        <time>2026-08-14T11:30:14.540Z</time>
      </trkpt>
      <trkpt lat="45.85164" lon="6.74577">
        <ele>1498</ele>
        <time>2026-08-14T11:30:15.540Z</time>
      </trkpt>
      <trkpt lat="45.85164" lon="6.74576">
        <ele>1497</ele>
        <time>2026-08-14T11:30:16.540Z</time>
      </trkpt>
      <trkpt lat="45.85164" lon="6.74574">
        <ele>1497</ele>
        <time>2026-08-14T11:30:17.540Z</time>
      </trkpt>
      <trkpt lat="45.85165" lon="6.74573">
        <ele>1497</ele>
        <time>2026-08-14T11:30:18.540Z</time>
      </trkpt>
      <trkpt lat="45.85166" lon="6.74572">
        <ele>1496</ele>
        <time>2026-08-14T11:30:19.540Z</time>
      </trkpt>
      <trkpt lat="45.85166" lon="6.74571">
        <ele>1495</ele>
        <time>2026-08-14T11:30:20.540Z</time>
      </trkpt>
      <trkpt lat="45.85166" lon="6.74569">
        <ele>1494</ele>
        <time>2026-08-14T11:30:21.540Z</time>
      </trkpt>
      <trkpt lat="45.85167" lon="6.74569">
        <ele>1493</ele>
        <time>2026-08-14T11:30:22.540Z</time>
      </trkpt>
      <trkpt lat="45.85167" lon="6.74568">
        <ele>1492</ele>
        <time>2026-08-14T11:30:23.540Z</time>
      </trkpt>
      <trkpt lat="45.85167" lon="6.74567">
        <ele>1491</ele>
        <time>2026-08-14T11:30:24.540Z</time>
      </trkpt>
      <trkpt lat="45.85167" lon="6.74565">
        <ele>1490</ele>
        <time>2026-08-14T11:30:25.540Z</time>
      </trkpt>
      <trkpt lat="45.85168" lon="6.74564">
        <ele>1489</ele>
        <time>2026-08-14T11:30:26.540Z</time>
      </trkpt>
      <trkpt lat="45.85168" lon="6.74562">
        <ele>1489</ele>
        <time>2026-08-14T11:30:27.540Z</time>
      </trkpt>
      <trkpt lat="45.85169" lon="6.74561">
        <ele>1488</ele>
        <time>2026-08-14T11:30:28.540Z</time>
      </trkpt>
      <trkpt lat="45.8517" lon="6.7456">
        <ele>1487</ele>
        <time>2026-08-14T11:30:29.540Z</time>
      </trkpt>
      <trkpt lat="45.85171" lon="6.74559">
        <ele>1486</ele>
        <time>2026-08-14T11:30:30.540Z</time>
      </trkpt>
      <trkpt lat="45.85172" lon="6.74559">
        <ele>1485</ele>
        <time>2026-08-14T11:30:31.540Z</time>
      </trkpt>
      <trkpt lat="45.85173" lon="6.74557">
        <ele>1484</ele>
        <time>2026-08-14T11:30:32.540Z</time>
      </trkpt>
      <trkpt lat="45.85174" lon="6.74556">
        <ele>1484</ele>
        <time>2026-08-14T11:30:33.540Z</time>
      </trkpt>
      <trkpt lat="45.85175" lon="6.74554">
        <ele>1483</ele>
        <time>2026-08-14T11:30:34.540Z</time>
      </trkpt>
      <trkpt lat="45.85176" lon="6.74552">
        <ele>1482</ele>
        <time>2026-08-14T11:30:35.540Z</time>
      </trkpt>
      <trkpt lat="45.85178" lon="6.74551">
        <ele>1481</ele>
        <time>2026-08-14T11:30:36.540Z</time>
      </trkpt>
      <trkpt lat="45.85179" lon="6.7455">
        <ele>1481</ele>
        <time>2026-08-14T11:30:37.540Z</time>
      </trkpt>
      <trkpt lat="45.85182" lon="6.74549">
        <ele>1481</ele>
        <time>2026-08-14T11:30:38.540Z</time>
      </trkpt>
      <trkpt lat="45.85184" lon="6.7455">
        <ele>1480</ele>
        <time>2026-08-14T11:30:39.540Z</time>
      </trkpt>
      <trkpt lat="45.85186" lon="6.7455">
        <ele>1480</ele>
        <time>2026-08-14T11:30:40.540Z</time>
      </trkpt>
      <trkpt lat="45.85188" lon="6.7455">
        <ele>1480</ele>
        <time>2026-08-14T11:30:41.540Z</time>
      </trkpt>
      <trkpt lat="45.8519" lon="6.7455">
        <ele>1480</ele>
        <time>2026-08-14T11:30:42.540Z</time>
      </trkpt>
      <trkpt lat="45.85192" lon="6.74549">
        <ele>1479</ele>
        <time>2026-08-14T11:30:43.540Z</time>
      </trkpt>
      <trkpt lat="45.85193" lon="6.74549">
        <ele>1478</ele>
        <time>2026-08-14T11:30:44.540Z</time>
      </trkpt>
      <trkpt lat="45.85194" lon="6.74548">
        <ele>1478</ele>
        <time>2026-08-14T11:30:45.540Z</time>
      </trkpt>
      <trkpt lat="45.85194" lon="6.74547">
        <ele>1477</ele>
        <time>2026-08-14T11:30:46.540Z</time>
      </trkpt>
      <trkpt lat="45.85194" lon="6.74546">
        <ele>1476</ele>
        <time>2026-08-14T11:30:47.540Z</time>
      </trkpt>
      <trkpt lat="45.85195" lon="6.74545">
        <ele>1476</ele>
        <time>2026-08-14T11:30:48.540Z</time>
      </trkpt>
      <trkpt lat="45.85194" lon="6.74543">
        <ele>1476</ele>
        <time>2026-08-14T11:30:49.540Z</time>
      </trkpt>
      <trkpt lat="45.85196" lon="6.74542">
        <ele>1475</ele>
        <time>2026-08-14T11:30:50.540Z</time>
      </trkpt>
      <trkpt lat="45.85197" lon="6.7454">
        <ele>1475</ele>
        <time>2026-08-14T11:30:51.540Z</time>
      </trkpt>
      <trkpt lat="45.85198" lon="6.74539">
        <ele>1475</ele>
        <time>2026-08-14T11:30:52.540Z</time>
      </trkpt>
      <trkpt lat="45.85199" lon="6.74538">
        <ele>1474</ele>
        <time>2026-08-14T11:30:53.540Z</time>
      </trkpt>
      <trkpt lat="45.852" lon="6.74537">
        <ele>1474</ele>
        <time>2026-08-14T11:30:54.540Z</time>
      </trkpt>
      <trkpt lat="45.852" lon="6.74537">
        <ele>1474</ele>
        <time>2026-08-14T11:30:55.540Z</time>
      </trkpt>
      <trkpt lat="45.852" lon="6.74535">
        <ele>1474</ele>
        <time>2026-08-14T11:30:56.540Z</time>
      </trkpt>
      <trkpt lat="45.852" lon="6.74533">
        <ele>1474</ele>
        <time>2026-08-14T11:30:57.540Z</time>
      </trkpt>
      <trkpt lat="45.852" lon="6.74532">
        <ele>1474</ele>
        <time>2026-08-14T11:30:58.540Z</time>
      </trkpt>
      <trkpt lat="45.85201" lon="6.74532">
        <ele>1473</ele>
        <time>2026-08-14T11:30:59.540Z</time>
      </trkpt>
      <trkpt lat="45.85202" lon="6.74531">
        <ele>1473</ele>
        <time>2026-08-14T11:31:00.540Z</time>
      </trkpt>
      <trkpt lat="45.85204" lon="6.7453">
        <ele>1473</ele>
        <time>2026-08-14T11:31:01.540Z</time>
      </trkpt>
      <trkpt lat="45.85204" lon="6.74528">
        <ele>1473</ele>
        <time>2026-08-14T11:31:02.540Z</time>
      </trkpt>
      <trkpt lat="45.85205" lon="6.74526">
        <ele>1472</ele>
        <time>2026-08-14T11:31:03.540Z</time>
      </trkpt>
      <trkpt lat="45.85207" lon="6.74525">
        <ele>1472</ele>
        <time>2026-08-14T11:31:04.540Z</time>
      </trkpt>
      <trkpt lat="45.85208" lon="6.74523">
        <ele>1472</ele>
        <time>2026-08-14T11:31:05.540Z</time>
      </trkpt>
      <trkpt lat="45.85209" lon="6.74522">
        <ele>1471</ele>
        <time>2026-08-14T11:31:06.540Z</time>
      </trkpt>
      <trkpt lat="45.85209" lon="6.74522">
        <ele>1471</ele>
        <time>2026-08-14T11:31:07.540Z</time>
      </trkpt>
      <trkpt lat="45.85209" lon="6.74521">
        <ele>1471</ele>
        <time>2026-08-14T11:31:08.540Z</time>
      </trkpt>
      <trkpt lat="45.85208" lon="6.7452">
        <ele>1470</ele>
        <time>2026-08-14T11:31:09.540Z</time>
      </trkpt>
      <trkpt lat="45.85208" lon="6.74521">
        <ele>1470</ele>
        <time>2026-08-14T11:31:10.540Z</time>
      </trkpt>
      <trkpt lat="45.85207" lon="6.74522">
        <ele>1470</ele>
        <time>2026-08-14T11:31:11.540Z</time>
      </trkpt>
      <trkpt lat="45.85206" lon="6.74522">
        <ele>1469</ele>
        <time>2026-08-14T11:31:12.540Z</time>
      </trkpt>
      <trkpt lat="45.85205" lon="6.74522">
        <ele>1469</ele>
        <time>2026-08-14T11:31:13.540Z</time>
      </trkpt>
      <trkpt lat="45.85204" lon="6.74521">
        <ele>1469</ele>
        <time>2026-08-14T11:31:14.540Z</time>
      </trkpt>
      <trkpt lat="45.85204" lon="6.7452">
        <ele>1469</ele>
        <time>2026-08-14T11:31:15.540Z</time>
      </trkpt>
      <trkpt lat="45.85204" lon="6.74519">
        <ele>1469</ele>
        <time>2026-08-14T11:31:16.540Z</time>
      </trkpt>
      <trkpt lat="45.85204" lon="6.74517">
        <ele>1469</ele>
        <time>2026-08-14T11:31:17.540Z</time>
      </trkpt>
      <trkpt lat="45.85205" lon="6.74516">
        <ele>1468</ele>
        <time>2026-08-14T11:31:18.540Z</time>
      </trkpt>
      <trkpt lat="45.85206" lon="6.74516">
        <ele>1468</ele>
        <time>2026-08-14T11:31:19.540Z</time>
      </trkpt>
      <trkpt lat="45.85207" lon="6.74515">
        <ele>1467</ele>
        <time>2026-08-14T11:31:20.540Z</time>
      </trkpt>
      <trkpt lat="45.85207" lon="6.74514">
        <ele>1466</ele>
        <time>2026-08-14T11:31:21.540Z</time>
      </trkpt>
      <trkpt lat="45.85208" lon="6.74513">
        <ele>1465</ele>
        <time>2026-08-14T11:31:22.540Z</time>
      </trkpt>
      <trkpt lat="45.85209" lon="6.74512">
        <ele>1465</ele>
        <time>2026-08-14T11:31:23.540Z</time>
      </trkpt>
      <trkpt lat="45.8521" lon="6.74511">
        <ele>1464</ele>
        <time>2026-08-14T11:31:24.540Z</time>
      </trkpt>
      <trkpt lat="45.85211" lon="6.7451">
        <ele>1464</ele>
        <time>2026-08-14T11:31:25.540Z</time>
      </trkpt>
      <trkpt lat="45.85212" lon="6.74509">
        <ele>1463</ele>
        <time>2026-08-14T11:31:26.540Z</time>
      </trkpt>
      <trkpt lat="45.85213" lon="6.74509">
        <ele>1463</ele>
        <time>2026-08-14T11:31:27.540Z</time>
      </trkpt>
      <trkpt lat="45.85213" lon="6.74507">
        <ele>1463</ele>
        <time>2026-08-14T11:31:28.540Z</time>
      </trkpt>
      <trkpt lat="45.85214" lon="6.74506">
        <ele>1462</ele>
        <time>2026-08-14T11:31:29.540Z</time>
      </trkpt>
      <trkpt lat="45.85215" lon="6.74504">
        <ele>1461</ele>
        <time>2026-08-14T11:31:30.540Z</time>
      </trkpt>
      <trkpt lat="45.85216" lon="6.74502">
        <ele>1460</ele>
        <time>2026-08-14T11:31:31.540Z</time>
      </trkpt>
      <trkpt lat="45.85217" lon="6.74499">
        <ele>1460</ele>
        <time>2026-08-14T11:31:32.540Z</time>
      </trkpt>
      <trkpt lat="45.85217" lon="6.74498">
        <ele>1459</ele>
        <time>2026-08-14T11:31:33.540Z</time>
      </trkpt>
      <trkpt lat="45.85218" lon="6.74496">
        <ele>1458</ele>
        <time>2026-08-14T11:31:34.540Z</time>
      </trkpt>
      <trkpt lat="45.85218" lon="6.74496">
        <ele>1458</ele>
        <time>2026-08-14T11:31:35.540Z</time>
      </trkpt>
      <trkpt lat="45.85219" lon="6.74496">
        <ele>1457</ele>
        <time>2026-08-14T11:31:36.540Z</time>
      </trkpt>
      <trkpt lat="45.8522" lon="6.74496">
        <ele>1457</ele>
        <time>2026-08-14T11:31:37.540Z</time>
      </trkpt>
      <trkpt lat="45.85221" lon="6.74496">
        <ele>1456</ele>
        <time>2026-08-14T11:31:38.540Z</time>
      </trkpt>
      <trkpt lat="45.85222" lon="6.74495">
        <ele>1456</ele>
        <time>2026-08-14T11:31:39.540Z</time>
      </trkpt>
      <trkpt lat="45.85223" lon="6.74495">
        <ele>1456</ele>
        <time>2026-08-14T11:31:40.540Z</time>
      </trkpt>
      <trkpt lat="45.85225" lon="6.74496">
        <ele>1455</ele>
        <time>2026-08-14T11:31:41.540Z</time>
      </trkpt>
      <trkpt lat="45.85226" lon="6.74496">
        <ele>1454</ele>
        <time>2026-08-14T11:31:42.540Z</time>
      </trkpt>
      <trkpt lat="45.85227" lon="6.74495">
        <ele>1453</ele>
        <time>2026-08-14T11:31:43.540Z</time>
      </trkpt>
      <trkpt lat="45.85229" lon="6.74495">
        <ele>1452</ele>
        <time>2026-08-14T11:31:44.540Z</time>
      </trkpt>
      <trkpt lat="45.8523" lon="6.74493">
        <ele>1452</ele>
        <time>2026-08-14T11:31:45.540Z</time>
      </trkpt>
      <trkpt lat="45.8523" lon="6.74492">
        <ele>1451</ele>
        <time>2026-08-14T11:31:46.540Z</time>
      </trkpt>
      <trkpt lat="45.85231" lon="6.7449">
        <ele>1451</ele>
        <time>2026-08-14T11:31:47.540Z</time>
      </trkpt>
      <trkpt lat="45.85232" lon="6.74489">
        <ele>1451</ele>
        <time>2026-08-14T11:31:48.540Z</time>
      </trkpt>
      <trkpt lat="45.85233" lon="6.74488">
        <ele>1451</ele>
        <time>2026-08-14T11:31:49.540Z</time>
      </trkpt>
      <trkpt lat="45.85234" lon="6.74487">
        <ele>1451</ele>
        <time>2026-08-14T11:31:50.540Z</time>
      </trkpt>
      <trkpt lat="45.85236" lon="6.74486">
        <ele>1451</ele>
        <time>2026-08-14T11:31:51.540Z</time>
      </trkpt>
      <trkpt lat="45.85238" lon="6.74485">
        <ele>1451</ele>
        <time>2026-08-14T11:31:52.540Z</time>
      </trkpt>
      <trkpt lat="45.85239" lon="6.74483">
        <ele>1451</ele>
        <time>2026-08-14T11:31:53.540Z</time>
      </trkpt>
      <trkpt lat="45.85241" lon="6.74482">
        <ele>1451</ele>
        <time>2026-08-14T11:31:54.540Z</time>
      </trkpt>
      <trkpt lat="45.85243" lon="6.7448">
        <ele>1451</ele>
        <time>2026-08-14T11:31:55.540Z</time>
      </trkpt>
      <trkpt lat="45.85244" lon="6.74476">
        <ele>1451</ele>
        <time>2026-08-14T11:31:56.540Z</time>
      </trkpt>
      <trkpt lat="45.85245" lon="6.74473">
        <ele>1451</ele>
        <time>2026-08-14T11:31:57.540Z</time>
      </trkpt>
      <trkpt lat="45.85247" lon="6.74472">
        <ele>1451</ele>
        <time>2026-08-14T11:31:58.540Z</time>
      </trkpt>
      <trkpt lat="45.85247" lon="6.74471">
        <ele>1451</ele>
        <time>2026-08-14T11:31:59.540Z</time>
      </trkpt>
      <trkpt lat="45.85247" lon="6.7447">
        <ele>1452</ele>
        <time>2026-08-14T11:32:00.540Z</time>
      </trkpt>
      <trkpt lat="45.85246" lon="6.74468">
        <ele>1452</ele>
        <time>2026-08-14T11:32:01.540Z</time>
      </trkpt>
      <trkpt lat="45.85245" lon="6.74467">
        <ele>1452</ele>
        <time>2026-08-14T11:32:02.540Z</time>
      </trkpt>
      <trkpt lat="45.85244" lon="6.74466">
        <ele>1453</ele>
        <time>2026-08-14T11:32:03.540Z</time>
      </trkpt>
      <trkpt lat="45.85244" lon="6.74465">
        <ele>1453</ele>
        <time>2026-08-14T11:32:04.540Z</time>
      </trkpt>
      <trkpt lat="45.85243" lon="6.74465">
        <ele>1454</ele>
        <time>2026-08-14T11:32:05.540Z</time>
      </trkpt>
      <trkpt lat="45.85243" lon="6.74464">
        <ele>1454</ele>
        <time>2026-08-14T11:32:06.540Z</time>
      </trkpt>
      <trkpt lat="45.85243" lon="6.74463">
        <ele>1454</ele>
        <time>2026-08-14T11:32:07.540Z</time>
      </trkpt>
      <trkpt lat="45.85243" lon="6.74462">
        <ele>1454</ele>
        <time>2026-08-14T11:32:08.540Z</time>
      </trkpt>
      <trkpt lat="45.85244" lon="6.74461">
        <ele>1454</ele>
        <time>2026-08-14T11:32:09.540Z</time>
      </trkpt>
      <trkpt lat="45.85244" lon="6.7446">
        <ele>1453</ele>
        <time>2026-08-14T11:32:10.540Z</time>
      </trkpt>
      <trkpt lat="45.85245" lon="6.74458">
        <ele>1452</ele>
        <time>2026-08-14T11:32:11.540Z</time>
      </trkpt>
      <trkpt lat="45.85245" lon="6.74457">
        <ele>1451</ele>
        <time>2026-08-14T11:32:12.540Z</time>
      </trkpt>
      <trkpt lat="45.85245" lon="6.74456">
        <ele>1450</ele>
        <time>2026-08-14T11:32:13.540Z</time>
      </trkpt>
      <trkpt lat="45.85245" lon="6.74455">
        <ele>1449</ele>
        <time>2026-08-14T11:32:14.540Z</time>
      </trkpt>
      <trkpt lat="45.85245" lon="6.74455">
        <ele>1449</ele>
        <time>2026-08-14T11:32:15.540Z</time>
      </trkpt>
      <trkpt lat="45.85246" lon="6.74454">
        <ele>1448</ele>
        <time>2026-08-14T11:32:16.540Z</time>
      </trkpt>
      <trkpt lat="45.85246" lon="6.74453">
        <ele>1447</ele>
        <time>2026-08-14T11:32:17.540Z</time>
      </trkpt>
      <trkpt lat="45.85247" lon="6.74452">
        <ele>1446</ele>
        <time>2026-08-14T11:32:18.540Z</time>
      </trkpt>
      <trkpt lat="45.85247" lon="6.74451">
        <ele>1445</ele>
        <time>2026-08-14T11:32:19.540Z</time>
      </trkpt>
      <trkpt lat="45.85247" lon="6.7445">
        <ele>1444</ele>
        <time>2026-08-14T11:32:20.540Z</time>
      </trkpt>
      <trkpt lat="45.85247" lon="6.74447">
        <ele>1443</ele>
        <time>2026-08-14T11:32:21.540Z</time>
      </trkpt>
      <trkpt lat="45.85247" lon="6.74445">
        <ele>1442</ele>
        <time>2026-08-14T11:32:22.540Z</time>
      </trkpt>
      <trkpt lat="45.85249" lon="6.74443">
        <ele>1441</ele>
        <time>2026-08-14T11:32:23.540Z</time>
      </trkpt>
      <trkpt lat="45.85249" lon="6.74442">
        <ele>1440</ele>
        <time>2026-08-14T11:32:24.540Z</time>
      </trkpt>
      <trkpt lat="45.85249" lon="6.7444">
        <ele>1440</ele>
        <time>2026-08-14T11:32:25.540Z</time>
      </trkpt>
      <trkpt lat="45.8525" lon="6.74438">
        <ele>1439</ele>
        <time>2026-08-14T11:32:26.540Z</time>
      </trkpt>
      <trkpt lat="45.8525" lon="6.74436">
        <ele>1439</ele>
        <time>2026-08-14T11:32:27.540Z</time>
      </trkpt>
      <trkpt lat="45.85251" lon="6.74435">
        <ele>1438</ele>
        <time>2026-08-14T11:32:28.540Z</time>
      </trkpt>
      <trkpt lat="45.85252" lon="6.74433">
        <ele>1437</ele>
        <time>2026-08-14T11:32:29.540Z</time>
      </trkpt>
      <trkpt lat="45.85252" lon="6.74431">
        <ele>1436</ele>
        <time>2026-08-14T11:32:30.540Z</time>
      </trkpt>
      <trkpt lat="45.85252" lon="6.74429">
        <ele>1436</ele>
        <time>2026-08-14T11:32:31.540Z</time>
      </trkpt>
      <trkpt lat="45.85252" lon="6.74426">
        <ele>1436</ele>
        <time>2026-08-14T11:32:32.540Z</time>
      </trkpt>
      <trkpt lat="45.85252" lon="6.74424">
        <ele>1435</ele>
        <time>2026-08-14T11:32:33.540Z</time>
      </trkpt>
      <trkpt lat="45.85253" lon="6.74422">
        <ele>1435</ele>
        <time>2026-08-14T11:32:34.540Z</time>
      </trkpt>
      <trkpt lat="45.85253" lon="6.7442">
        <ele>1435</ele>
        <time>2026-08-14T11:32:35.540Z</time>
      </trkpt>
      <trkpt lat="45.85253" lon="6.74418">
        <ele>1435</ele>
        <time>2026-08-14T11:32:36.540Z</time>
      </trkpt>
      <trkpt lat="45.85254" lon="6.74416">
        <ele>1435</ele>
        <time>2026-08-14T11:32:37.540Z</time>
      </trkpt>
      <trkpt lat="45.85254" lon="6.74415">
        <ele>1434</ele>
        <time>2026-08-14T11:32:38.540Z</time>
      </trkpt>
      <trkpt lat="45.85255" lon="6.74413">
        <ele>1434</ele>
        <time>2026-08-14T11:32:39.540Z</time>
      </trkpt>
      <trkpt lat="45.85256" lon="6.7441">
        <ele>1434</ele>
        <time>2026-08-14T11:32:40.540Z</time>
      </trkpt>
      <trkpt lat="45.85256" lon="6.74407">
        <ele>1434</ele>
        <time>2026-08-14T11:32:41.540Z</time>
      </trkpt>
      <trkpt lat="45.85256" lon="6.74404">
        <ele>1434</ele>
        <time>2026-08-14T11:32:42.540Z</time>
      </trkpt>
      <trkpt lat="45.85256" lon="6.74401">
        <ele>1434</ele>
        <time>2026-08-14T11:32:43.540Z</time>
      </trkpt>
      <trkpt lat="45.85257" lon="6.74397">
        <ele>1434</ele>
        <time>2026-08-14T11:32:44.540Z</time>
      </trkpt>
      <trkpt lat="45.85257" lon="6.74395">
        <ele>1434</ele>
        <time>2026-08-14T11:32:45.540Z</time>
      </trkpt>
      <trkpt lat="45.85257" lon="6.7439">
        <ele>1434</ele>
        <time>2026-08-14T11:32:46.540Z</time>
      </trkpt>
      <trkpt lat="45.85257" lon="6.74387">
        <ele>1434</ele>
        <time>2026-08-14T11:32:47.540Z</time>
      </trkpt>
      <trkpt lat="45.85258" lon="6.74384">
        <ele>1434</ele>
        <time>2026-08-14T11:32:48.540Z</time>
      </trkpt>
      <trkpt lat="45.85258" lon="6.74382">
        <ele>1434</ele>
        <time>2026-08-14T11:32:49.540Z</time>
      </trkpt>
      <trkpt lat="45.85259" lon="6.7438">
        <ele>1433</ele>
        <time>2026-08-14T11:32:50.540Z</time>
      </trkpt>
      <trkpt lat="45.8526" lon="6.74378">
        <ele>1433</ele>
        <time>2026-08-14T11:32:51.540Z</time>
      </trkpt>
      <trkpt lat="45.85261" lon="6.74378">
        <ele>1432</ele>
        <time>2026-08-14T11:32:52.540Z</time>
      </trkpt>
      <trkpt lat="45.85261" lon="6.74376">
        <ele>1432</ele>
        <time>2026-08-14T11:32:53.540Z</time>
      </trkpt>
      <trkpt lat="45.85262" lon="6.74374">
        <ele>1431</ele>
        <time>2026-08-14T11:32:54.540Z</time>
      </trkpt>
      <trkpt lat="45.85263" lon="6.74372">
        <ele>1431</ele>
        <time>2026-08-14T11:32:55.540Z</time>
      </trkpt>
      <trkpt lat="45.85264" lon="6.7437">
        <ele>1430</ele>
        <time>2026-08-14T11:32:56.540Z</time>
      </trkpt>
      <trkpt lat="45.85265" lon="6.74368">
        <ele>1430</ele>
        <time>2026-08-14T11:32:57.540Z</time>
      </trkpt>
      <trkpt lat="45.85266" lon="6.74365">
        <ele>1429</ele>
        <time>2026-08-14T11:32:58.540Z</time>
      </trkpt>
      <trkpt lat="45.85266" lon="6.74363">
        <ele>1428</ele>
        <time>2026-08-14T11:32:59.540Z</time>
      </trkpt>
      <trkpt lat="45.85266" lon="6.74361">
        <ele>1428</ele>
        <time>2026-08-14T11:33:00.540Z</time>
      </trkpt>
      <trkpt lat="45.85268" lon="6.74361">
        <ele>1427</ele>
        <time>2026-08-14T11:33:01.540Z</time>
      </trkpt>
      <trkpt lat="45.85269" lon="6.7436">
        <ele>1427</ele>
        <time>2026-08-14T11:33:02.540Z</time>
      </trkpt>
      <trkpt lat="45.8527" lon="6.74359">
        <ele>1426</ele>
        <time>2026-08-14T11:33:03.540Z</time>
      </trkpt>
      <trkpt lat="45.85271" lon="6.74358">
        <ele>1426</ele>
        <time>2026-08-14T11:33:04.540Z</time>
      </trkpt>
      <trkpt lat="45.85272" lon="6.74357">
        <ele>1425</ele>
        <time>2026-08-14T11:33:05.540Z</time>
      </trkpt>
      <trkpt lat="45.85273" lon="6.74355">
        <ele>1425</ele>
        <time>2026-08-14T11:33:06.540Z</time>
      </trkpt>
      <trkpt lat="45.85273" lon="6.74353">
        <ele>1425</ele>
        <time>2026-08-14T11:33:07.540Z</time>
      </trkpt>
      <trkpt lat="45.85274" lon="6.74351">
        <ele>1424</ele>
        <time>2026-08-14T11:33:08.540Z</time>
      </trkpt>
      <trkpt lat="45.85275" lon="6.74348">
        <ele>1423</ele>
        <time>2026-08-14T11:33:09.540Z</time>
      </trkpt>
      <trkpt lat="45.85277" lon="6.74346">
        <ele>1423</ele>
        <time>2026-08-14T11:33:10.540Z</time>
      </trkpt>
      <trkpt lat="45.85279" lon="6.74344">
        <ele>1422</ele>
        <time>2026-08-14T11:33:11.540Z</time>
      </trkpt>
      <trkpt lat="45.85281" lon="6.74343">
        <ele>1421</ele>
        <time>2026-08-14T11:33:12.540Z</time>
      </trkpt>
      <trkpt lat="45.85283" lon="6.74341">
        <ele>1421</ele>
        <time>2026-08-14T11:33:13.540Z</time>
      </trkpt>
      <trkpt lat="45.85285" lon="6.7434">
        <ele>1420</ele>
        <time>2026-08-14T11:33:14.540Z</time>
      </trkpt>
      <trkpt lat="45.85287" lon="6.74338">
        <ele>1418</ele>
        <time>2026-08-14T11:33:15.540Z</time>
      </trkpt>
      <trkpt lat="45.85289" lon="6.74336">
        <ele>1417</ele>
        <time>2026-08-14T11:33:16.540Z</time>
      </trkpt>
      <trkpt lat="45.8529" lon="6.74334">
        <ele>1416</ele>
        <time>2026-08-14T11:33:17.540Z</time>
      </trkpt>
      <trkpt lat="45.85292" lon="6.74333">
        <ele>1416</ele>
        <time>2026-08-14T11:33:18.540Z</time>
      </trkpt>
      <trkpt lat="45.85294" lon="6.74332">
        <ele>1415</ele>
        <time>2026-08-14T11:33:19.540Z</time>
      </trkpt>
      <trkpt lat="45.85296" lon="6.74331">
        <ele>1414</ele>
        <time>2026-08-14T11:33:20.540Z</time>
      </trkpt>
      <trkpt lat="45.85298" lon="6.74329">
        <ele>1414</ele>
        <time>2026-08-14T11:33:21.540Z</time>
      </trkpt>
      <trkpt lat="45.853" lon="6.74328">
        <ele>1413</ele>
        <time>2026-08-14T11:33:22.540Z</time>
      </trkpt>
      <trkpt lat="45.85303" lon="6.74327">
        <ele>1413</ele>
        <time>2026-08-14T11:33:23.540Z</time>
      </trkpt>
      <trkpt lat="45.85304" lon="6.74326">
        <ele>1412</ele>
        <time>2026-08-14T11:33:24.540Z</time>
      </trkpt>
      <trkpt lat="45.85306" lon="6.74325">
        <ele>1411</ele>
        <time>2026-08-14T11:33:25.540Z</time>
      </trkpt>
      <trkpt lat="45.85307" lon="6.74324">
        <ele>1411</ele>
        <time>2026-08-14T11:33:26.540Z</time>
      </trkpt>
      <trkpt lat="45.85309" lon="6.74323">
        <ele>1410</ele>
        <time>2026-08-14T11:33:27.540Z</time>
      </trkpt>
      <trkpt lat="45.8531" lon="6.74322">
        <ele>1410</ele>
        <time>2026-08-14T11:33:28.540Z</time>
      </trkpt>
      <trkpt lat="45.85312" lon="6.74321">
        <ele>1409</ele>
        <time>2026-08-14T11:33:29.540Z</time>
      </trkpt>
      <trkpt lat="45.85314" lon="6.74322">
        <ele>1409</ele>
        <time>2026-08-14T11:33:30.540Z</time>
      </trkpt>
      <trkpt lat="45.85317" lon="6.74322">
        <ele>1408</ele>
        <time>2026-08-14T11:33:31.540Z</time>
      </trkpt>
      <trkpt lat="45.8532" lon="6.74322">
        <ele>1408</ele>
        <time>2026-08-14T11:33:32.540Z</time>
      </trkpt>
      <trkpt lat="45.85323" lon="6.74323">
        <ele>1408</ele>
        <time>2026-08-14T11:33:33.540Z</time>
      </trkpt>
      <trkpt lat="45.85326" lon="6.74323">
        <ele>1407</ele>
        <time>2026-08-14T11:33:34.540Z</time>
      </trkpt>
      <trkpt lat="45.85327" lon="6.74323">
        <ele>1406</ele>
        <time>2026-08-14T11:33:35.540Z</time>
      </trkpt>
      <trkpt lat="45.85329" lon="6.74323">
        <ele>1406</ele>
        <time>2026-08-14T11:33:36.540Z</time>
      </trkpt>
      <trkpt lat="45.85331" lon="6.74322">
        <ele>1405</ele>
        <time>2026-08-14T11:33:37.540Z</time>
      </trkpt>
      <trkpt lat="45.85332" lon="6.74322">
        <ele>1405</ele>
        <time>2026-08-14T11:33:38.540Z</time>
      </trkpt>
      <trkpt lat="45.85333" lon="6.74321">
        <ele>1404</ele>
        <time>2026-08-14T11:33:39.540Z</time>
      </trkpt>
      <trkpt lat="45.85335" lon="6.7432">
        <ele>1404</ele>
        <time>2026-08-14T11:33:40.540Z</time>
      </trkpt>
      <trkpt lat="45.85337" lon="6.74319">
        <ele>1403</ele>
        <time>2026-08-14T11:33:41.540Z</time>
      </trkpt>
      <trkpt lat="45.8534" lon="6.74319">
        <ele>1402</ele>
        <time>2026-08-14T11:33:42.540Z</time>
      </trkpt>
      <trkpt lat="45.85342" lon="6.74318">
        <ele>1402</ele>
        <time>2026-08-14T11:33:43.540Z</time>
      </trkpt>
      <trkpt lat="45.85345" lon="6.74316">
        <ele>1401</ele>
        <time>2026-08-14T11:33:44.540Z</time>
      </trkpt>
      <trkpt lat="45.85347" lon="6.74315">
        <ele>1401</ele>
        <time>2026-08-14T11:33:45.540Z</time>
      </trkpt>
      <trkpt lat="45.85349" lon="6.74313">
        <ele>1401</ele>
        <time>2026-08-14T11:33:46.540Z</time>
      </trkpt>
      <trkpt lat="45.8535" lon="6.74312">
        <ele>1401</ele>
        <time>2026-08-14T11:33:47.540Z</time>
      </trkpt>
      <trkpt lat="45.85351" lon="6.74311">
        <ele>1401</ele>
        <time>2026-08-14T11:33:48.540Z</time>
      </trkpt>
      <trkpt lat="45.85352" lon="6.7431">
        <ele>1401</ele>
        <time>2026-08-14T11:33:49.540Z</time>
      </trkpt>
      <trkpt lat="45.85352" lon="6.74309">
        <ele>1400</ele>
        <time>2026-08-14T11:33:50.540Z</time>
      </trkpt>
      <trkpt lat="45.85353" lon="6.74307">
        <ele>1400</ele>
        <time>2026-08-14T11:33:51.540Z</time>
      </trkpt>
      <trkpt lat="45.85353" lon="6.74305">
        <ele>1400</ele>
        <time>2026-08-14T11:33:52.540Z</time>
      </trkpt>
      <trkpt lat="45.85353" lon="6.74302">
        <ele>1400</ele>
        <time>2026-08-14T11:33:53.540Z</time>
      </trkpt>
      <trkpt lat="45.85353" lon="6.743">
        <ele>1400</ele>
        <time>2026-08-14T11:33:54.540Z</time>
      </trkpt>
      <trkpt lat="45.85353" lon="6.74297">
        <ele>1401</ele>
        <time>2026-08-14T11:33:55.540Z</time>
      </trkpt>
      <trkpt lat="45.85352" lon="6.74295">
        <ele>1401</ele>
        <time>2026-08-14T11:33:56.540Z</time>
      </trkpt>
      <trkpt lat="45.85351" lon="6.74293">
        <ele>1401</ele>
        <time>2026-08-14T11:33:57.540Z</time>
      </trkpt>
      <trkpt lat="45.85349" lon="6.74292">
        <ele>1402</ele>
        <time>2026-08-14T11:33:58.540Z</time>
      </trkpt>
      <trkpt lat="45.85348" lon="6.74291">
        <ele>1402</ele>
        <time>2026-08-14T11:33:59.540Z</time>
      </trkpt>
      <trkpt lat="45.85347" lon="6.7429">
        <ele>1402</ele>
        <time>2026-08-14T11:34:00.540Z</time>
      </trkpt>
      <trkpt lat="45.85346" lon="6.74289">
        <ele>1402</ele>
        <time>2026-08-14T11:34:01.540Z</time>
      </trkpt>
      <trkpt lat="45.85345" lon="6.74288">
        <ele>1402</ele>
        <time>2026-08-14T11:34:02.540Z</time>
      </trkpt>
      <trkpt lat="45.85345" lon="6.74287">
        <ele>1402</ele>
        <time>2026-08-14T11:34:03.540Z</time>
      </trkpt>
      <trkpt lat="45.85345" lon="6.74287">
        <ele>1402</ele>
        <time>2026-08-14T11:34:04.540Z</time>
      </trkpt>
      <trkpt lat="45.85345" lon="6.74286">
        <ele>1401</ele>
        <time>2026-08-14T11:34:05.540Z</time>
      </trkpt>
      <trkpt lat="45.85344" lon="6.74284">
        <ele>1400</ele>
        <time>2026-08-14T11:34:06.540Z</time>
      </trkpt>
      <trkpt lat="45.85344" lon="6.74282">
        <ele>1399</ele>
        <time>2026-08-14T11:34:07.540Z</time>
      </trkpt>
      <trkpt lat="45.85343" lon="6.7428">
        <ele>1398</ele>
        <time>2026-08-14T11:34:08.540Z</time>
      </trkpt>
      <trkpt lat="45.85342" lon="6.74278">
        <ele>1398</ele>
        <time>2026-08-14T11:34:09.540Z</time>
      </trkpt>
      <trkpt lat="45.85341" lon="6.74276">
        <ele>1397</ele>
        <time>2026-08-14T11:34:10.540Z</time>
      </trkpt>
      <trkpt lat="45.85339" lon="6.74274">
        <ele>1397</ele>
        <time>2026-08-14T11:34:11.540Z</time>
      </trkpt>
      <trkpt lat="45.85338" lon="6.74271">
        <ele>1397</ele>
        <time>2026-08-14T11:34:12.540Z</time>
      </trkpt>
      <trkpt lat="45.85337" lon="6.74268">
        <ele>1397</ele>
        <time>2026-08-14T11:34:13.540Z</time>
      </trkpt>
      <trkpt lat="45.85336" lon="6.74265">
        <ele>1397</ele>
        <time>2026-08-14T11:34:14.540Z</time>
      </trkpt>
      <trkpt lat="45.85336" lon="6.74263">
        <ele>1397</ele>
        <time>2026-08-14T11:34:15.540Z</time>
      </trkpt>
      <trkpt lat="45.85336" lon="6.7426">
        <ele>1396</ele>
        <time>2026-08-14T11:34:16.540Z</time>
      </trkpt>
      <trkpt lat="45.85336" lon="6.74257">
        <ele>1394</ele>
        <time>2026-08-14T11:34:17.540Z</time>
      </trkpt>
      <trkpt lat="45.85335" lon="6.74255">
        <ele>1392</ele>
        <time>2026-08-14T11:34:18.540Z</time>
      </trkpt>
      <trkpt lat="45.85335" lon="6.74253">
        <ele>1391</ele>
        <time>2026-08-14T11:34:19.540Z</time>
      </trkpt>
      <trkpt lat="45.85335" lon="6.74251">
        <ele>1389</ele>
        <time>2026-08-14T11:34:20.540Z</time>
      </trkpt>
      <trkpt lat="45.85334" lon="6.74248">
        <ele>1387</ele>
        <time>2026-08-14T11:34:21.540Z</time>
      </trkpt>
      <trkpt lat="45.85334" lon="6.74247">
        <ele>1385</ele>
        <time>2026-08-14T11:34:22.540Z</time>
      </trkpt>
      <trkpt lat="45.85334" lon="6.74246">
        <ele>1384</ele>
        <time>2026-08-14T11:34:23.540Z</time>
      </trkpt>
      <trkpt lat="45.85334" lon="6.74245">
        <ele>1383</ele>
        <time>2026-08-14T11:34:24.540Z</time>
      </trkpt>
      <trkpt lat="45.85334" lon="6.74245">
        <ele>1383</ele>
        <time>2026-08-14T11:34:25.540Z</time>
      </trkpt>
      <trkpt lat="45.85334" lon="6.74245">
        <ele>1382</ele>
        <time>2026-08-14T11:34:26.540Z</time>
      </trkpt>
      <trkpt lat="45.85334" lon="6.74245">
        <ele>1382</ele>
        <time>2026-08-14T11:34:27.540Z</time>
      </trkpt>
      <trkpt lat="45.85334" lon="6.74245">
        <ele>1381</ele>
        <time>2026-08-14T11:34:28.540Z</time>
      </trkpt>
      <trkpt lat="45.85334" lon="6.74246">
        <ele>1381</ele>
        <time>2026-08-14T11:34:29.540Z</time>
      </trkpt>
      <trkpt lat="45.85335" lon="6.74246">
        <ele>1381</ele>
        <time>2026-08-14T11:34:30.540Z</time>
      </trkpt>
      <trkpt lat="45.85336" lon="6.74246">
        <ele>1381</ele>
        <time>2026-08-14T11:34:31.540Z</time>
      </trkpt>
      <trkpt lat="45.85336" lon="6.74244">
        <ele>1380</ele>
        <time>2026-08-14T11:34:32.540Z</time>
      </trkpt>
      <trkpt lat="45.85336" lon="6.74242">
        <ele>1380</ele>
        <time>2026-08-14T11:34:33.540Z</time>
      </trkpt>
      <trkpt lat="45.85337" lon="6.74241">
        <ele>1380</ele>
        <time>2026-08-14T11:34:34.540Z</time>
      </trkpt>
      <trkpt lat="45.85337" lon="6.74241">
        <ele>1380</ele>
        <time>2026-08-14T11:34:35.540Z</time>
      </trkpt>
      <trkpt lat="45.85338" lon="6.74241">
        <ele>1379</ele>
        <time>2026-08-14T11:34:36.540Z</time>
      </trkpt>
      <trkpt lat="45.85338" lon="6.7424">
        <ele>1379</ele>
        <time>2026-08-14T11:34:37.540Z</time>
      </trkpt>
      <trkpt lat="45.85338" lon="6.74239">
        <ele>1378</ele>
        <time>2026-08-14T11:34:38.540Z</time>
      </trkpt>
      <trkpt lat="45.85339" lon="6.74237">
        <ele>1378</ele>
        <time>2026-08-14T11:34:39.540Z</time>
      </trkpt>
      <trkpt lat="45.85339" lon="6.74236">
        <ele>1377</ele>
        <time>2026-08-14T11:34:40.540Z</time>
      </trkpt>
      <trkpt lat="45.8534" lon="6.74235">
        <ele>1376</ele>
        <time>2026-08-14T11:34:41.540Z</time>
      </trkpt>
      <trkpt lat="45.85341" lon="6.74233">
        <ele>1375</ele>
        <time>2026-08-14T11:34:42.540Z</time>
      </trkpt>
      <trkpt lat="45.85342" lon="6.74231">
        <ele>1374</ele>
        <time>2026-08-14T11:34:43.540Z</time>
      </trkpt>
      <trkpt lat="45.85343" lon="6.74229">
        <ele>1374</ele>
        <time>2026-08-14T11:34:44.540Z</time>
      </trkpt>
      <trkpt lat="45.85345" lon="6.74226">
        <ele>1373</ele>
        <time>2026-08-14T11:34:45.540Z</time>
      </trkpt>
      <trkpt lat="45.85346" lon="6.74224">
        <ele>1373</ele>
        <time>2026-08-14T11:34:46.540Z</time>
      </trkpt>
      <trkpt lat="45.85348" lon="6.74222">
        <ele>1373</ele>
        <time>2026-08-14T11:34:47.540Z</time>
      </trkpt>
      <trkpt lat="45.8535" lon="6.7422">
        <ele>1372</ele>
        <time>2026-08-14T11:34:48.540Z</time>
      </trkpt>
      <trkpt lat="45.85351" lon="6.74217">
        <ele>1372</ele>
        <time>2026-08-14T11:34:49.540Z</time>
      </trkpt>
      <trkpt lat="45.85353" lon="6.74215">
        <ele>1371</ele>
        <time>2026-08-14T11:34:50.540Z</time>
      </trkpt>
      <trkpt lat="45.85355" lon="6.74213">
        <ele>1371</ele>
        <time>2026-08-14T11:34:51.540Z</time>
      </trkpt>
      <trkpt lat="45.85356" lon="6.74211">
        <ele>1370</ele>
        <time>2026-08-14T11:34:52.540Z</time>
      </trkpt>
      <trkpt lat="45.85358" lon="6.74208">
        <ele>1370</ele>
        <time>2026-08-14T11:34:53.540Z</time>
      </trkpt>
      <trkpt lat="45.8536" lon="6.74206">
        <ele>1369</ele>
        <time>2026-08-14T11:34:54.540Z</time>
      </trkpt>
      <trkpt lat="45.85361" lon="6.74204">
        <ele>1369</ele>
        <time>2026-08-14T11:34:55.540Z</time>
      </trkpt>
      <trkpt lat="45.85363" lon="6.74203">
        <ele>1369</ele>
        <time>2026-08-14T11:34:56.540Z</time>
      </trkpt>
      <trkpt lat="45.85365" lon="6.74201">
        <ele>1369</ele>
        <time>2026-08-14T11:34:57.540Z</time>
      </trkpt>
      <trkpt lat="45.85367" lon="6.74199">
        <ele>1369</ele>
        <time>2026-08-14T11:34:58.540Z</time>
      </trkpt>
      <trkpt lat="45.85369" lon="6.74197">
        <ele>1368</ele>
        <time>2026-08-14T11:34:59.540Z</time>
      </trkpt>
      <trkpt lat="45.85371" lon="6.74195">
        <ele>1368</ele>
        <time>2026-08-14T11:35:00.540Z</time>
      </trkpt>
      <trkpt lat="45.85373" lon="6.74194">
        <ele>1368</ele>
        <time>2026-08-14T11:35:01.540Z</time>
      </trkpt>
      <trkpt lat="45.85374" lon="6.74192">
        <ele>1368</ele>
        <time>2026-08-14T11:35:02.540Z</time>
      </trkpt>
      <trkpt lat="45.85376" lon="6.74191">
        <ele>1368</ele>
        <time>2026-08-14T11:35:03.540Z</time>
      </trkpt>
      <trkpt lat="45.85378" lon="6.74188">
        <ele>1368</ele>
        <time>2026-08-14T11:35:04.540Z</time>
      </trkpt>
      <trkpt lat="45.8538" lon="6.74186">
        <ele>1367</ele>
        <time>2026-08-14T11:35:05.540Z</time>
      </trkpt>
      <trkpt lat="45.85382" lon="6.74184">
        <ele>1367</ele>
        <time>2026-08-14T11:35:06.540Z</time>
      </trkpt>
      <trkpt lat="45.85384" lon="6.74182">
        <ele>1367</ele>
        <time>2026-08-14T11:35:07.540Z</time>
      </trkpt>
      <trkpt lat="45.85386" lon="6.7418">
        <ele>1367</ele>
        <time>2026-08-14T11:35:08.540Z</time>
      </trkpt>
      <trkpt lat="45.85388" lon="6.74177">
        <ele>1366</ele>
        <time>2026-08-14T11:35:09.540Z</time>
      </trkpt>
      <trkpt lat="45.8539" lon="6.74174">
        <ele>1366</ele>
        <time>2026-08-14T11:35:10.540Z</time>
      </trkpt>
      <trkpt lat="45.85391" lon="6.74172">
        <ele>1366</ele>
        <time>2026-08-14T11:35:11.540Z</time>
      </trkpt>
      <trkpt lat="45.85393" lon="6.7417">
        <ele>1366</ele>
        <time>2026-08-14T11:35:12.540Z</time>
      </trkpt>
      <trkpt lat="45.85394" lon="6.74167">
        <ele>1366</ele>
        <time>2026-08-14T11:35:13.540Z</time>
      </trkpt>
      <trkpt lat="45.85396" lon="6.74165">
        <ele>1366</ele>
        <time>2026-08-14T11:35:14.540Z</time>
      </trkpt>
      <trkpt lat="45.85398" lon="6.74163">
        <ele>1366</ele>
        <time>2026-08-14T11:35:15.540Z</time>
      </trkpt>
      <trkpt lat="45.85399" lon="6.7416">
        <ele>1366</ele>
        <time>2026-08-14T11:35:16.540Z</time>
      </trkpt>
      <trkpt lat="45.85401" lon="6.74158">
        <ele>1366</ele>
        <time>2026-08-14T11:35:17.540Z</time>
      </trkpt>
      <trkpt lat="45.85402" lon="6.74156">
        <ele>1366</ele>
        <time>2026-08-14T11:35:18.540Z</time>
      </trkpt>
      <trkpt lat="45.85404" lon="6.74153">
        <ele>1366</ele>
        <time>2026-08-14T11:35:19.540Z</time>
      </trkpt>
      <trkpt lat="45.85405" lon="6.74151">
        <ele>1366</ele>
        <time>2026-08-14T11:35:20.540Z</time>
      </trkpt>
      <trkpt lat="45.85406" lon="6.74149">
        <ele>1366</ele>
        <time>2026-08-14T11:35:21.540Z</time>
      </trkpt>
      <trkpt lat="45.85408" lon="6.74148">
        <ele>1366</ele>
        <time>2026-08-14T11:35:22.540Z</time>
      </trkpt>
      <trkpt lat="45.8541" lon="6.74146">
        <ele>1366</ele>
        <time>2026-08-14T11:35:23.540Z</time>
      </trkpt>
      <trkpt lat="45.85411" lon="6.74145">
        <ele>1366</ele>
        <time>2026-08-14T11:35:24.540Z</time>
      </trkpt>
      <trkpt lat="45.85413" lon="6.74143">
        <ele>1366</ele>
        <time>2026-08-14T11:35:25.540Z</time>
      </trkpt>
      <trkpt lat="45.85415" lon="6.74141">
        <ele>1366</ele>
        <time>2026-08-14T11:35:26.540Z</time>
      </trkpt>
      <trkpt lat="45.85416" lon="6.7414">
        <ele>1366</ele>
        <time>2026-08-14T11:35:27.540Z</time>
      </trkpt>
      <trkpt lat="45.85418" lon="6.74138">
        <ele>1366</ele>
        <time>2026-08-14T11:35:28.540Z</time>
      </trkpt>
      <trkpt lat="45.8542" lon="6.74137">
        <ele>1366</ele>
        <time>2026-08-14T11:35:29.540Z</time>
      </trkpt>
      <trkpt lat="45.85422" lon="6.74135">
        <ele>1366</ele>
        <time>2026-08-14T11:35:30.540Z</time>
      </trkpt>
      <trkpt lat="45.85424" lon="6.74133">
        <ele>1366</ele>
        <time>2026-08-14T11:35:31.540Z</time>
      </trkpt>
      <trkpt lat="45.85425" lon="6.74132">
        <ele>1366</ele>
        <time>2026-08-14T11:35:32.540Z</time>
      </trkpt>
      <trkpt lat="45.85427" lon="6.7413">
        <ele>1366</ele>
        <time>2026-08-14T11:35:33.540Z</time>
      </trkpt>
      <trkpt lat="45.85429" lon="6.74129">
        <ele>1366</ele>
        <time>2026-08-14T11:35:34.540Z</time>
      </trkpt>
      <trkpt lat="45.85431" lon="6.74127">
        <ele>1366</ele>
        <time>2026-08-14T11:35:35.540Z</time>
      </trkpt>
      <trkpt lat="45.85433" lon="6.74126">
        <ele>1366</ele>
        <time>2026-08-14T11:35:36.540Z</time>
      </trkpt>
      <trkpt lat="45.85435" lon="6.74126">
        <ele>1366</ele>
        <time>2026-08-14T11:35:37.540Z</time>
      </trkpt>
      <trkpt lat="45.85438" lon="6.74125">
        <ele>1366</ele>
        <time>2026-08-14T11:35:38.540Z</time>
      </trkpt>
      <trkpt lat="45.8544" lon="6.74124">
        <ele>1366</ele>
        <time>2026-08-14T11:35:39.540Z</time>
      </trkpt>
      <trkpt lat="45.85441" lon="6.74125">
        <ele>1366</ele>
        <time>2026-08-14T11:35:40.540Z</time>
      </trkpt>
      <trkpt lat="45.85443" lon="6.74125">
        <ele>1366</ele>
        <time>2026-08-14T11:35:41.540Z</time>
      </trkpt>
      <trkpt lat="45.85444" lon="6.74125">
        <ele>1367</ele>
        <time>2026-08-14T11:35:42.540Z</time>
      </trkpt>
      <trkpt lat="45.85445" lon="6.74125">
        <ele>1367</ele>
        <time>2026-08-14T11:35:43.540Z</time>
      </trkpt>
      <trkpt lat="45.85446" lon="6.74125">
        <ele>1367</ele>
        <time>2026-08-14T11:35:44.540Z</time>
      </trkpt>
      <trkpt lat="45.85447" lon="6.74125">
        <ele>1367</ele>
        <time>2026-08-14T11:35:45.540Z</time>
      </trkpt>
      <trkpt lat="45.85448" lon="6.74125">
        <ele>1367</ele>
        <time>2026-08-14T11:35:46.540Z</time>
      </trkpt>
      <trkpt lat="45.85449" lon="6.74125">
        <ele>1367</ele>
        <time>2026-08-14T11:35:47.540Z</time>
      </trkpt>
      <trkpt lat="45.85449" lon="6.74125">
        <ele>1367</ele>
        <time>2026-08-14T11:35:48.540Z</time>
      </trkpt>
      <trkpt lat="45.8545" lon="6.74125">
        <ele>1368</ele>
        <time>2026-08-14T11:35:49.540Z</time>
      </trkpt>
      <trkpt lat="45.85451" lon="6.74125">
        <ele>1368</ele>
        <time>2026-08-14T11:35:50.540Z</time>
      </trkpt>
      <trkpt lat="45.85452" lon="6.74125">
        <ele>1368</ele>
        <time>2026-08-14T11:35:51.540Z</time>
      </trkpt>
      <trkpt lat="45.85452" lon="6.74124">
        <ele>1368</ele>
        <time>2026-08-14T11:35:52.540Z</time>
      </trkpt>
      <trkpt lat="45.85453" lon="6.74124">
        <ele>1368</ele>
        <time>2026-08-14T11:35:53.540Z</time>
      </trkpt>
      <trkpt lat="45.85454" lon="6.74123">
        <ele>1368</ele>
        <time>2026-08-14T11:35:54.540Z</time>
      </trkpt>
      <trkpt lat="45.85455" lon="6.74122">
        <ele>1368</ele>
        <time>2026-08-14T11:35:55.540Z</time>
      </trkpt>
      <trkpt lat="45.85456" lon="6.74121">
        <ele>1368</ele>
        <time>2026-08-14T11:35:56.540Z</time>
      </trkpt>
      <trkpt lat="45.85458" lon="6.7412">
        <ele>1369</ele>
        <time>2026-08-14T11:35:57.540Z</time>
      </trkpt>
      <trkpt lat="45.85459" lon="6.74119">
        <ele>1369</ele>
        <time>2026-08-14T11:35:58.540Z</time>
      </trkpt>
      <trkpt lat="45.85459" lon="6.74117">
        <ele>1369</ele>
        <time>2026-08-14T11:35:59.540Z</time>
      </trkpt>
      <trkpt lat="45.85461" lon="6.74115">
        <ele>1370</ele>
        <time>2026-08-14T11:36:00.540Z</time>
      </trkpt>
      <trkpt lat="45.85463" lon="6.74112">
        <ele>1370</ele>
        <time>2026-08-14T11:36:01.540Z</time>
      </trkpt>
      <trkpt lat="45.85465" lon="6.7411">
        <ele>1370</ele>
        <time>2026-08-14T11:36:02.540Z</time>
      </trkpt>
      <trkpt lat="45.85467" lon="6.74109">
        <ele>1370</ele>
        <time>2026-08-14T11:36:03.540Z</time>
      </trkpt>
      <trkpt lat="45.85468" lon="6.74107">
        <ele>1370</ele>
        <time>2026-08-14T11:36:04.540Z</time>
      </trkpt>
      <trkpt lat="45.85469" lon="6.74105">
        <ele>1370</ele>
        <time>2026-08-14T11:36:05.540Z</time>
      </trkpt>
      <trkpt lat="45.85471" lon="6.74103">
        <ele>1370</ele>
        <time>2026-08-14T11:36:06.540Z</time>
      </trkpt>
      <trkpt lat="45.85473" lon="6.74102">
        <ele>1370</ele>
        <time>2026-08-14T11:36:07.540Z</time>
      </trkpt>
      <trkpt lat="45.85474" lon="6.74099">
        <ele>1370</ele>
        <time>2026-08-14T11:36:08.540Z</time>
      </trkpt>
      <trkpt lat="45.85476" lon="6.74098">
        <ele>1369</ele>
        <time>2026-08-14T11:36:09.540Z</time>
      </trkpt>
      <trkpt lat="45.85477" lon="6.74096">
        <ele>1369</ele>
        <time>2026-08-14T11:36:10.540Z</time>
      </trkpt>
      <trkpt lat="45.85479" lon="6.74094">
        <ele>1368</ele>
        <time>2026-08-14T11:36:11.540Z</time>
      </trkpt>
      <trkpt lat="45.85481" lon="6.74092">
        <ele>1368</ele>
        <time>2026-08-14T11:36:12.540Z</time>
      </trkpt>
      <trkpt lat="45.85482" lon="6.74091">
        <ele>1368</ele>
        <time>2026-08-14T11:36:13.540Z</time>
      </trkpt>
      <trkpt lat="45.85484" lon="6.7409">
        <ele>1368</ele>
        <time>2026-08-14T11:36:14.540Z</time>
      </trkpt>
      <trkpt lat="45.85486" lon="6.74089">
        <ele>1368</ele>
        <time>2026-08-14T11:36:15.540Z</time>
      </trkpt>
      <trkpt lat="45.85487" lon="6.74088">
        <ele>1368</ele>
        <time>2026-08-14T11:36:16.540Z</time>
      </trkpt>
      <trkpt lat="45.85489" lon="6.74087">
        <ele>1368</ele>
        <time>2026-08-14T11:36:17.540Z</time>
      </trkpt>
      <trkpt lat="45.85491" lon="6.74086">
        <ele>1367</ele>
        <time>2026-08-14T11:36:18.540Z</time>
      </trkpt>
      <trkpt lat="45.85493" lon="6.74086">
        <ele>1367</ele>
        <time>2026-08-14T11:36:19.540Z</time>
      </trkpt>
      <trkpt lat="45.85495" lon="6.74085">
        <ele>1367</ele>
        <time>2026-08-14T11:36:20.540Z</time>
      </trkpt>
      <trkpt lat="45.85497" lon="6.74085">
        <ele>1367</ele>
        <time>2026-08-14T11:36:21.540Z</time>
      </trkpt>
      <trkpt lat="45.85499" lon="6.74085">
        <ele>1367</ele>
        <time>2026-08-14T11:36:22.540Z</time>
      </trkpt>
      <trkpt lat="45.85501" lon="6.74086">
        <ele>1367</ele>
        <time>2026-08-14T11:36:23.540Z</time>
      </trkpt>
      <trkpt lat="45.85502" lon="6.74086">
        <ele>1367</ele>
        <time>2026-08-14T11:36:24.540Z</time>
      </trkpt>
      <trkpt lat="45.85504" lon="6.74086">
        <ele>1367</ele>
        <time>2026-08-14T11:36:25.540Z</time>
      </trkpt>
      <trkpt lat="45.85506" lon="6.74087">
        <ele>1367</ele>
        <time>2026-08-14T11:36:26.540Z</time>
      </trkpt>
      <trkpt lat="45.85508" lon="6.74087">
        <ele>1367</ele>
        <time>2026-08-14T11:36:27.540Z</time>
      </trkpt>
      <trkpt lat="45.8551" lon="6.74086">
        <ele>1368</ele>
        <time>2026-08-14T11:36:28.540Z</time>
      </trkpt>
      <trkpt lat="45.85512" lon="6.74086">
        <ele>1368</ele>
        <time>2026-08-14T11:36:29.540Z</time>
      </trkpt>
      <trkpt lat="45.85513" lon="6.74085">
        <ele>1369</ele>
        <time>2026-08-14T11:36:30.540Z</time>
      </trkpt>
      <trkpt lat="45.85515" lon="6.74084">
        <ele>1369</ele>
        <time>2026-08-14T11:36:31.540Z</time>
      </trkpt>
      <trkpt lat="45.85516" lon="6.74082">
        <ele>1369</ele>
        <time>2026-08-14T11:36:32.540Z</time>
      </trkpt>
      <trkpt lat="45.85517" lon="6.74079">
        <ele>1369</ele>
        <time>2026-08-14T11:36:33.540Z</time>
      </trkpt>
      <trkpt lat="45.85518" lon="6.74077">
        <ele>1370</ele>
        <time>2026-08-14T11:36:34.540Z</time>
      </trkpt>
      <trkpt lat="45.8552" lon="6.74075">
        <ele>1371</ele>
        <time>2026-08-14T11:36:35.540Z</time>
      </trkpt>
      <trkpt lat="45.85522" lon="6.74073">
        <ele>1371</ele>
        <time>2026-08-14T11:36:36.540Z</time>
      </trkpt>
      <trkpt lat="45.85524" lon="6.74072">
        <ele>1371</ele>
        <time>2026-08-14T11:36:37.540Z</time>
      </trkpt>
      <trkpt lat="45.85525" lon="6.74071">
        <ele>1371</ele>
        <time>2026-08-14T11:36:38.540Z</time>
      </trkpt>
      <trkpt lat="45.85526" lon="6.74069">
        <ele>1371</ele>
        <time>2026-08-14T11:36:39.540Z</time>
      </trkpt>
      <trkpt lat="45.85527" lon="6.74066">
        <ele>1371</ele>
        <time>2026-08-14T11:36:40.540Z</time>
      </trkpt>
      <trkpt lat="45.85529" lon="6.74064">
        <ele>1371</ele>
        <time>2026-08-14T11:36:41.540Z</time>
      </trkpt>
      <trkpt lat="45.85531" lon="6.74062">
        <ele>1370</ele>
        <time>2026-08-14T11:36:42.540Z</time>
      </trkpt>
      <trkpt lat="45.85533" lon="6.74061">
        <ele>1370</ele>
        <time>2026-08-14T11:36:43.540Z</time>
      </trkpt>
      <trkpt lat="45.85535" lon="6.7406">
        <ele>1370</ele>
        <time>2026-08-14T11:36:44.540Z</time>
      </trkpt>
      <trkpt lat="45.85539" lon="6.74059">
        <ele>1370</ele>
        <time>2026-08-14T11:36:45.540Z</time>
      </trkpt>
      <trkpt lat="45.85541" lon="6.74058">
        <ele>1370</ele>
        <time>2026-08-14T11:36:46.540Z</time>
      </trkpt>
      <trkpt lat="45.85542" lon="6.74056">
        <ele>1369</ele>
        <time>2026-08-14T11:36:47.540Z</time>
      </trkpt>
      <trkpt lat="45.85544" lon="6.74055">
        <ele>1369</ele>
        <time>2026-08-14T11:36:48.540Z</time>
      </trkpt>
      <trkpt lat="45.85545" lon="6.74054">
        <ele>1369</ele>
        <time>2026-08-14T11:36:49.540Z</time>
      </trkpt>
      <trkpt lat="45.85545" lon="6.74052">
        <ele>1369</ele>
        <time>2026-08-14T11:36:50.540Z</time>
      </trkpt>
      <trkpt lat="45.85546" lon="6.7405">
        <ele>1368</ele>
        <time>2026-08-14T11:36:51.540Z</time>
      </trkpt>
      <trkpt lat="45.85547" lon="6.74048">
        <ele>1368</ele>
        <time>2026-08-14T11:36:52.540Z</time>
      </trkpt>
      <trkpt lat="45.85548" lon="6.74045">
        <ele>1368</ele>
        <time>2026-08-14T11:36:53.540Z</time>
      </trkpt>
      <trkpt lat="45.85549" lon="6.74043">
        <ele>1368</ele>
        <time>2026-08-14T11:36:54.540Z</time>
      </trkpt>
      <trkpt lat="45.8555" lon="6.74041">
        <ele>1368</ele>
        <time>2026-08-14T11:36:55.540Z</time>
      </trkpt>
      <trkpt lat="45.85551" lon="6.74039">
        <ele>1368</ele>
        <time>2026-08-14T11:36:56.540Z</time>
      </trkpt>
      <trkpt lat="45.85552" lon="6.74037">
        <ele>1368</ele>
        <time>2026-08-14T11:36:57.540Z</time>
      </trkpt>
      <trkpt lat="45.85553" lon="6.74034">
        <ele>1367</ele>
        <time>2026-08-14T11:36:58.540Z</time>
      </trkpt>
      <trkpt lat="45.85553" lon="6.74033">
        <ele>1368</ele>
        <time>2026-08-14T11:36:59.540Z</time>
      </trkpt>
      <trkpt lat="45.85554" lon="6.74031">
        <ele>1368</ele>
        <time>2026-08-14T11:37:00.540Z</time>
      </trkpt>
      <trkpt lat="45.85554" lon="6.74029">
        <ele>1367</ele>
        <time>2026-08-14T11:37:01.540Z</time>
      </trkpt>
      <trkpt lat="45.85554" lon="6.74027">
        <ele>1367</ele>
        <time>2026-08-14T11:37:02.540Z</time>
      </trkpt>
      <trkpt lat="45.85555" lon="6.74024">
        <ele>1367</ele>
        <time>2026-08-14T11:37:03.540Z</time>
      </trkpt>
      <trkpt lat="45.85555" lon="6.74022">
        <ele>1367</ele>
        <time>2026-08-14T11:37:04.540Z</time>
      </trkpt>
      <trkpt lat="45.85557" lon="6.74019">
        <ele>1367</ele>
        <time>2026-08-14T11:37:05.540Z</time>
      </trkpt>
      <trkpt lat="45.85558" lon="6.74017">
        <ele>1367</ele>
        <time>2026-08-14T11:37:06.540Z</time>
      </trkpt>
      <trkpt lat="45.85559" lon="6.74014">
        <ele>1367</ele>
        <time>2026-08-14T11:37:07.540Z</time>
      </trkpt>
      <trkpt lat="45.8556" lon="6.74011">
        <ele>1367</ele>
        <time>2026-08-14T11:37:08.540Z</time>
      </trkpt>
      <trkpt lat="45.85561" lon="6.74008">
        <ele>1366</ele>
        <time>2026-08-14T11:37:09.540Z</time>
      </trkpt>
      <trkpt lat="45.85561" lon="6.74005">
        <ele>1366</ele>
        <time>2026-08-14T11:37:10.540Z</time>
      </trkpt>
      <trkpt lat="45.85562" lon="6.74002">
        <ele>1366</ele>
        <time>2026-08-14T11:37:11.540Z</time>
      </trkpt>
      <trkpt lat="45.85563" lon="6.73999">
        <ele>1365</ele>
        <time>2026-08-14T11:37:12.540Z</time>
      </trkpt>
      <trkpt lat="45.85563" lon="6.73997">
        <ele>1365</ele>
        <time>2026-08-14T11:37:13.540Z</time>
      </trkpt>
      <trkpt lat="45.85564" lon="6.73994">
        <ele>1364</ele>
        <time>2026-08-14T11:37:14.540Z</time>
      </trkpt>
      <trkpt lat="45.85564" lon="6.73993">
        <ele>1364</ele>
        <time>2026-08-14T11:37:15.540Z</time>
      </trkpt>
      <trkpt lat="45.85564" lon="6.7399">
        <ele>1364</ele>
        <time>2026-08-14T11:37:16.540Z</time>
      </trkpt>
      <trkpt lat="45.85564" lon="6.73989">
        <ele>1364</ele>
        <time>2026-08-14T11:37:17.540Z</time>
      </trkpt>
      <trkpt lat="45.85564" lon="6.73987">
        <ele>1364</ele>
        <time>2026-08-14T11:37:18.540Z</time>
      </trkpt>
      <trkpt lat="45.85564" lon="6.73987">
        <ele>1364</ele>
        <time>2026-08-14T11:37:19.540Z</time>
      </trkpt>
      <trkpt lat="45.85564" lon="6.73987">
        <ele>1364</ele>
        <time>2026-08-14T11:37:20.540Z</time>
      </trkpt>
      <trkpt lat="45.85563" lon="6.73984">
        <ele>1365</ele>
        <time>2026-08-14T11:37:21.540Z</time>
      </trkpt>
      <trkpt lat="45.85564" lon="6.73983">
        <ele>1364</ele>
        <time>2026-08-14T11:37:22.540Z</time>
      </trkpt>
      <trkpt lat="45.85564" lon="6.73981">
        <ele>1364</ele>
        <time>2026-08-14T11:37:23.540Z</time>
      </trkpt>
      <trkpt lat="45.85565" lon="6.73978">
        <ele>1363</ele>
        <time>2026-08-14T11:37:24.540Z</time>
      </trkpt>
      <trkpt lat="45.85566" lon="6.73975">
        <ele>1363</ele>
        <time>2026-08-14T11:37:25.540Z</time>
      </trkpt>
      <trkpt lat="45.85568" lon="6.73972">
        <ele>1362</ele>
        <time>2026-08-14T11:37:26.540Z</time>
      </trkpt>
      <trkpt lat="45.85568" lon="6.73969">
        <ele>1362</ele>
        <time>2026-08-14T11:37:27.540Z</time>
      </trkpt>
      <trkpt lat="45.8557" lon="6.73966">
        <ele>1361</ele>
        <time>2026-08-14T11:37:28.540Z</time>
      </trkpt>
      <trkpt lat="45.85571" lon="6.73963">
        <ele>1360</ele>
        <time>2026-08-14T11:37:29.540Z</time>
      </trkpt>
      <trkpt lat="45.85571" lon="6.7396">
        <ele>1359</ele>
        <time>2026-08-14T11:37:30.540Z</time>
      </trkpt>
      <trkpt lat="45.85572" lon="6.73958">
        <ele>1359</ele>
        <time>2026-08-14T11:37:31.540Z</time>
      </trkpt>
      <trkpt lat="45.85573" lon="6.73956">
        <ele>1359</ele>
        <time>2026-08-14T11:37:32.540Z</time>
      </trkpt>
      <trkpt lat="45.85573" lon="6.73954">
        <ele>1359</ele>
        <time>2026-08-14T11:37:33.540Z</time>
      </trkpt>
      <trkpt lat="45.85574" lon="6.73952">
        <ele>1359</ele>
        <time>2026-08-14T11:37:34.540Z</time>
      </trkpt>
      <trkpt lat="45.85574" lon="6.7395">
        <ele>1359</ele>
        <time>2026-08-14T11:37:35.540Z</time>
      </trkpt>
      <trkpt lat="45.85575" lon="6.73948">
        <ele>1358</ele>
        <time>2026-08-14T11:37:36.540Z</time>
      </trkpt>
      <trkpt lat="45.85574" lon="6.73945">
        <ele>1358</ele>
        <time>2026-08-14T11:37:37.540Z</time>
      </trkpt>
      <trkpt lat="45.85574" lon="6.73943">
        <ele>1357</ele>
        <time>2026-08-14T11:37:38.540Z</time>
      </trkpt>
      <trkpt lat="45.85574" lon="6.73941">
        <ele>1357</ele>
        <time>2026-08-14T11:37:39.540Z</time>
      </trkpt>
      <trkpt lat="45.85574" lon="6.73939">
        <ele>1356</ele>
        <time>2026-08-14T11:37:40.540Z</time>
      </trkpt>
      <trkpt lat="45.85574" lon="6.73937">
        <ele>1356</ele>
        <time>2026-08-14T11:37:41.540Z</time>
      </trkpt>
      <trkpt lat="45.85573" lon="6.73935">
        <ele>1355</ele>
        <time>2026-08-14T11:37:42.540Z</time>
      </trkpt>
      <trkpt lat="45.85574" lon="6.73932">
        <ele>1354</ele>
        <time>2026-08-14T11:37:43.540Z</time>
      </trkpt>
      <trkpt lat="45.85574" lon="6.73929">
        <ele>1354</ele>
        <time>2026-08-14T11:37:44.540Z</time>
      </trkpt>
      <trkpt lat="45.85575" lon="6.73926">
        <ele>1353</ele>
        <time>2026-08-14T11:37:45.540Z</time>
      </trkpt>
      <trkpt lat="45.85576" lon="6.73923">
        <ele>1352</ele>
        <time>2026-08-14T11:37:46.540Z</time>
      </trkpt>
      <trkpt lat="45.85577" lon="6.73921">
        <ele>1351</ele>
        <time>2026-08-14T11:37:47.540Z</time>
      </trkpt>
      <trkpt lat="45.85579" lon="6.73918">
        <ele>1350</ele>
        <time>2026-08-14T11:37:48.540Z</time>
      </trkpt>
      <trkpt lat="45.8558" lon="6.73917">
        <ele>1350</ele>
        <time>2026-08-14T11:37:49.540Z</time>
      </trkpt>
      <trkpt lat="45.85582" lon="6.73915">
        <ele>1349</ele>
        <time>2026-08-14T11:37:50.540Z</time>
      </trkpt>
      <trkpt lat="45.85583" lon="6.73913">
        <ele>1348</ele>
        <time>2026-08-14T11:37:51.540Z</time>
      </trkpt>
      <trkpt lat="45.85585" lon="6.73913">
        <ele>1348</ele>
        <time>2026-08-14T11:37:52.540Z</time>
      </trkpt>
      <trkpt lat="45.85587" lon="6.73912">
        <ele>1347</ele>
        <time>2026-08-14T11:37:53.540Z</time>
      </trkpt>
      <trkpt lat="45.85589" lon="6.73911">
        <ele>1346</ele>
        <time>2026-08-14T11:37:54.540Z</time>
      </trkpt>
      <trkpt lat="45.8559" lon="6.73911">
        <ele>1345</ele>
        <time>2026-08-14T11:37:55.540Z</time>
      </trkpt>
      <trkpt lat="45.85593" lon="6.73911">
        <ele>1345</ele>
        <time>2026-08-14T11:37:56.540Z</time>
      </trkpt>
      <trkpt lat="45.85595" lon="6.73912">
        <ele>1344</ele>
        <time>2026-08-14T11:37:57.540Z</time>
      </trkpt>
      <trkpt lat="45.85597" lon="6.73913">
        <ele>1343</ele>
        <time>2026-08-14T11:37:58.540Z</time>
      </trkpt>
      <trkpt lat="45.856" lon="6.73914">
        <ele>1342</ele>
        <time>2026-08-14T11:37:59.540Z</time>
      </trkpt>
      <trkpt lat="45.85602" lon="6.73915">
        <ele>1341</ele>
        <time>2026-08-14T11:38:00.540Z</time>
      </trkpt>
      <trkpt lat="45.85604" lon="6.73915">
        <ele>1341</ele>
        <time>2026-08-14T11:38:01.540Z</time>
      </trkpt>
      <trkpt lat="45.85605" lon="6.73915">
        <ele>1340</ele>
        <time>2026-08-14T11:38:02.540Z</time>
      </trkpt>
      <trkpt lat="45.85607" lon="6.73915">
        <ele>1340</ele>
        <time>2026-08-14T11:38:03.540Z</time>
      </trkpt>
      <trkpt lat="45.85609" lon="6.73915">
        <ele>1339</ele>
        <time>2026-08-14T11:38:04.540Z</time>
      </trkpt>
      <trkpt lat="45.8561" lon="6.73914">
        <ele>1339</ele>
        <time>2026-08-14T11:38:05.540Z</time>
      </trkpt>
      <trkpt lat="45.85611" lon="6.73914">
        <ele>1339</ele>
        <time>2026-08-14T11:38:06.540Z</time>
      </trkpt>
      <trkpt lat="45.85612" lon="6.73915">
        <ele>1338</ele>
        <time>2026-08-14T11:38:07.540Z</time>
      </trkpt>
      <trkpt lat="45.85614" lon="6.73916">
        <ele>1338</ele>
        <time>2026-08-14T11:38:08.540Z</time>
      </trkpt>
      <trkpt lat="45.85616" lon="6.73916">
        <ele>1337</ele>
        <time>2026-08-14T11:38:09.540Z</time>
      </trkpt>
      <trkpt lat="45.85618" lon="6.73916">
        <ele>1336</ele>
        <time>2026-08-14T11:38:10.540Z</time>
      </trkpt>
      <trkpt lat="45.8562" lon="6.73915">
        <ele>1336</ele>
        <time>2026-08-14T11:38:11.540Z</time>
      </trkpt>
      <trkpt lat="45.85621" lon="6.73915">
        <ele>1335</ele>
        <time>2026-08-14T11:38:12.540Z</time>
      </trkpt>
      <trkpt lat="45.85623" lon="6.73916">
        <ele>1335</ele>
        <time>2026-08-14T11:38:13.540Z</time>
      </trkpt>
      <trkpt lat="45.85626" lon="6.73917">
        <ele>1335</ele>
        <time>2026-08-14T11:38:14.540Z</time>
      </trkpt>
      <trkpt lat="45.85628" lon="6.73917">
        <ele>1335</ele>
        <time>2026-08-14T11:38:15.540Z</time>
      </trkpt>
      <trkpt lat="45.85629" lon="6.73916">
        <ele>1334</ele>
        <time>2026-08-14T11:38:16.540Z</time>
      </trkpt>
      <trkpt lat="45.85631" lon="6.73916">
        <ele>1334</ele>
        <time>2026-08-14T11:38:17.540Z</time>
      </trkpt>
      <trkpt lat="45.85632" lon="6.73917">
        <ele>1334</ele>
        <time>2026-08-14T11:38:18.540Z</time>
      </trkpt>
      <trkpt lat="45.85634" lon="6.73917">
        <ele>1334</ele>
        <time>2026-08-14T11:38:19.540Z</time>
      </trkpt>
      <trkpt lat="45.85636" lon="6.73919">
        <ele>1335</ele>
        <time>2026-08-14T11:38:20.540Z</time>
      </trkpt>
      <trkpt lat="45.85637" lon="6.73919">
        <ele>1335</ele>
        <time>2026-08-14T11:38:21.540Z</time>
      </trkpt>
      <trkpt lat="45.85639" lon="6.7392">
        <ele>1335</ele>
        <time>2026-08-14T11:38:22.540Z</time>
      </trkpt>
      <trkpt lat="45.85641" lon="6.7392">
        <ele>1334</ele>
        <time>2026-08-14T11:38:23.540Z</time>
      </trkpt>
      <trkpt lat="45.85643" lon="6.7392">
        <ele>1334</ele>
        <time>2026-08-14T11:38:24.540Z</time>
      </trkpt>
      <trkpt lat="45.85644" lon="6.7392">
        <ele>1334</ele>
        <time>2026-08-14T11:38:25.540Z</time>
      </trkpt>
      <trkpt lat="45.85646" lon="6.73919">
        <ele>1333</ele>
        <time>2026-08-14T11:38:26.540Z</time>
      </trkpt>
      <trkpt lat="45.85647" lon="6.73919">
        <ele>1333</ele>
        <time>2026-08-14T11:38:27.540Z</time>
      </trkpt>
      <trkpt lat="45.85648" lon="6.73918">
        <ele>1332</ele>
        <time>2026-08-14T11:38:28.540Z</time>
      </trkpt>
      <trkpt lat="45.85649" lon="6.73916">
        <ele>1332</ele>
        <time>2026-08-14T11:38:29.540Z</time>
      </trkpt>
      <trkpt lat="45.8565" lon="6.73915">
        <ele>1331</ele>
        <time>2026-08-14T11:38:30.540Z</time>
      </trkpt>
      <trkpt lat="45.85651" lon="6.73915">
        <ele>1331</ele>
        <time>2026-08-14T11:38:31.540Z</time>
      </trkpt>
      <trkpt lat="45.85653" lon="6.73916">
        <ele>1330</ele>
        <time>2026-08-14T11:38:32.540Z</time>
      </trkpt>
      <trkpt lat="45.85654" lon="6.73918">
        <ele>1330</ele>
        <time>2026-08-14T11:38:33.540Z</time>
      </trkpt>
      <trkpt lat="45.85656" lon="6.73919">
        <ele>1330</ele>
        <time>2026-08-14T11:38:34.540Z</time>
      </trkpt>
      <trkpt lat="45.85657" lon="6.73919">
        <ele>1329</ele>
        <time>2026-08-14T11:38:35.540Z</time>
      </trkpt>
      <trkpt lat="45.85658" lon="6.73921">
        <ele>1329</ele>
        <time>2026-08-14T11:38:36.540Z</time>
      </trkpt>
      <trkpt lat="45.8566" lon="6.73921">
        <ele>1329</ele>
        <time>2026-08-14T11:38:37.540Z</time>
      </trkpt>
      <trkpt lat="45.85662" lon="6.73921">
        <ele>1329</ele>
        <time>2026-08-14T11:38:38.540Z</time>
      </trkpt>
      <trkpt lat="45.85664" lon="6.73922">
        <ele>1328</ele>
        <time>2026-08-14T11:38:39.540Z</time>
      </trkpt>
      <trkpt lat="45.85665" lon="6.73922">
        <ele>1328</ele>
        <time>2026-08-14T11:38:40.540Z</time>
      </trkpt>
      <trkpt lat="45.85667" lon="6.73922">
        <ele>1327</ele>
        <time>2026-08-14T11:38:41.540Z</time>
      </trkpt>
      <trkpt lat="45.85669" lon="6.73922">
        <ele>1327</ele>
        <time>2026-08-14T11:38:42.540Z</time>
      </trkpt>
      <trkpt lat="45.8567" lon="6.73921">
        <ele>1326</ele>
        <time>2026-08-14T11:38:43.540Z</time>
      </trkpt>
      <trkpt lat="45.85673" lon="6.73922">
        <ele>1326</ele>
        <time>2026-08-14T11:38:44.540Z</time>
      </trkpt>
      <trkpt lat="45.85675" lon="6.73921">
        <ele>1325</ele>
        <time>2026-08-14T11:38:45.540Z</time>
      </trkpt>
      <trkpt lat="45.85677" lon="6.7392">
        <ele>1325</ele>
        <time>2026-08-14T11:38:46.540Z</time>
      </trkpt>
      <trkpt lat="45.85678" lon="6.73919">
        <ele>1324</ele>
        <time>2026-08-14T11:38:47.540Z</time>
      </trkpt>
      <trkpt lat="45.85681" lon="6.73918">
        <ele>1324</ele>
        <time>2026-08-14T11:38:48.540Z</time>
      </trkpt>
      <trkpt lat="45.85682" lon="6.73916">
        <ele>1323</ele>
        <time>2026-08-14T11:38:49.540Z</time>
      </trkpt>
      <trkpt lat="45.85682" lon="6.73913">
        <ele>1323</ele>
        <time>2026-08-14T11:38:50.540Z</time>
      </trkpt>
      <trkpt lat="45.85682" lon="6.73911">
        <ele>1323</ele>
        <time>2026-08-14T11:38:51.540Z</time>
      </trkpt>
      <trkpt lat="45.85683" lon="6.73909">
        <ele>1323</ele>
        <time>2026-08-14T11:38:52.540Z</time>
      </trkpt>
      <trkpt lat="45.85684" lon="6.73908">
        <ele>1322</ele>
        <time>2026-08-14T11:38:53.540Z</time>
      </trkpt>
      <trkpt lat="45.85685" lon="6.73908">
        <ele>1322</ele>
        <time>2026-08-14T11:38:54.540Z</time>
      </trkpt>
      <trkpt lat="45.85687" lon="6.73907">
        <ele>1321</ele>
        <time>2026-08-14T11:38:55.540Z</time>
      </trkpt>
      <trkpt lat="45.85688" lon="6.73907">
        <ele>1321</ele>
        <time>2026-08-14T11:38:56.540Z</time>
      </trkpt>
      <trkpt lat="45.85689" lon="6.73906">
        <ele>1320</ele>
        <time>2026-08-14T11:38:57.540Z</time>
      </trkpt>
      <trkpt lat="45.8569" lon="6.73905">
        <ele>1320</ele>
        <time>2026-08-14T11:38:58.540Z</time>
      </trkpt>
      <trkpt lat="45.8569" lon="6.73903">
        <ele>1319</ele>
        <time>2026-08-14T11:38:59.540Z</time>
      </trkpt>
      <trkpt lat="45.85691" lon="6.73902">
        <ele>1318</ele>
        <time>2026-08-14T11:39:00.540Z</time>
      </trkpt>
      <trkpt lat="45.85692" lon="6.739">
        <ele>1317</ele>
        <time>2026-08-14T11:39:01.540Z</time>
      </trkpt>
      <trkpt lat="45.85693" lon="6.73899">
        <ele>1316</ele>
        <time>2026-08-14T11:39:02.540Z</time>
      </trkpt>
      <trkpt lat="45.85695" lon="6.73898">
        <ele>1315</ele>
        <time>2026-08-14T11:39:03.540Z</time>
      </trkpt>
      <trkpt lat="45.85696" lon="6.73897">
        <ele>1314</ele>
        <time>2026-08-14T11:39:04.540Z</time>
      </trkpt>
      <trkpt lat="45.85698" lon="6.73897">
        <ele>1313</ele>
        <time>2026-08-14T11:39:05.540Z</time>
      </trkpt>
      <trkpt lat="45.85698" lon="6.73896">
        <ele>1311</ele>
        <time>2026-08-14T11:39:06.540Z</time>
      </trkpt>
      <trkpt lat="45.85699" lon="6.73895">
        <ele>1310</ele>
        <time>2026-08-14T11:39:07.540Z</time>
      </trkpt>
      <trkpt lat="45.857" lon="6.73893">
        <ele>1309</ele>
        <time>2026-08-14T11:39:08.540Z</time>
      </trkpt>
      <trkpt lat="45.85701" lon="6.73891">
        <ele>1308</ele>
        <time>2026-08-14T11:39:09.540Z</time>
      </trkpt>
      <trkpt lat="45.85702" lon="6.73891">
        <ele>1307</ele>
        <time>2026-08-14T11:39:10.540Z</time>
      </trkpt>
      <trkpt lat="45.85703" lon="6.7389">
        <ele>1307</ele>
        <time>2026-08-14T11:39:11.540Z</time>
      </trkpt>
      <trkpt lat="45.85704" lon="6.73888">
        <ele>1306</ele>
        <time>2026-08-14T11:39:12.540Z</time>
      </trkpt>
      <trkpt lat="45.85704" lon="6.73885">
        <ele>1305</ele>
        <time>2026-08-14T11:39:13.540Z</time>
      </trkpt>
      <trkpt lat="45.85705" lon="6.73883">
        <ele>1304</ele>
        <time>2026-08-14T11:39:14.540Z</time>
      </trkpt>
      <trkpt lat="45.85706" lon="6.73881">
        <ele>1304</ele>
        <time>2026-08-14T11:39:15.540Z</time>
      </trkpt>
      <trkpt lat="45.85707" lon="6.73879">
        <ele>1303</ele>
        <time>2026-08-14T11:39:16.540Z</time>
      </trkpt>
      <trkpt lat="45.85708" lon="6.73876">
        <ele>1302</ele>
        <time>2026-08-14T11:39:17.540Z</time>
      </trkpt>
      <trkpt lat="45.8571" lon="6.73875">
        <ele>1302</ele>
        <time>2026-08-14T11:39:18.540Z</time>
      </trkpt>
      <trkpt lat="45.85711" lon="6.73873">
        <ele>1301</ele>
        <time>2026-08-14T11:39:19.540Z</time>
      </trkpt>
      <trkpt lat="45.85712" lon="6.73871">
        <ele>1301</ele>
        <time>2026-08-14T11:39:20.540Z</time>
      </trkpt>
      <trkpt lat="45.85712" lon="6.73869">
        <ele>1301</ele>
        <time>2026-08-14T11:39:21.540Z</time>
      </trkpt>
      <trkpt lat="45.85713" lon="6.73868">
        <ele>1300</ele>
        <time>2026-08-14T11:39:22.540Z</time>
      </trkpt>
      <trkpt lat="45.85713" lon="6.73865">
        <ele>1300</ele>
        <time>2026-08-14T11:39:23.540Z</time>
      </trkpt>
      <trkpt lat="45.85714" lon="6.73863">
        <ele>1300</ele>
        <time>2026-08-14T11:39:24.540Z</time>
      </trkpt>
      <trkpt lat="45.85715" lon="6.73861">
        <ele>1299</ele>
        <time>2026-08-14T11:39:25.540Z</time>
      </trkpt>
      <trkpt lat="45.85716" lon="6.73859">
        <ele>1298</ele>
        <time>2026-08-14T11:39:26.540Z</time>
      </trkpt>
      <trkpt lat="45.85716" lon="6.73857">
        <ele>1298</ele>
        <time>2026-08-14T11:39:27.540Z</time>
      </trkpt>
      <trkpt lat="45.85717" lon="6.73855">
        <ele>1297</ele>
        <time>2026-08-14T11:39:28.540Z</time>
      </trkpt>
      <trkpt lat="45.85718" lon="6.73853">
        <ele>1296</ele>
        <time>2026-08-14T11:39:29.540Z</time>
      </trkpt>
      <trkpt lat="45.85719" lon="6.73852">
        <ele>1295</ele>
        <time>2026-08-14T11:39:30.540Z</time>
      </trkpt>
      <trkpt lat="45.8572" lon="6.7385">
        <ele>1294</ele>
        <time>2026-08-14T11:39:31.540Z</time>
      </trkpt>
      <trkpt lat="45.85721" lon="6.73849">
        <ele>1294</ele>
        <time>2026-08-14T11:39:32.540Z</time>
      </trkpt>
      <trkpt lat="45.85722" lon="6.73847">
        <ele>1293</ele>
        <time>2026-08-14T11:39:33.540Z</time>
      </trkpt>
      <trkpt lat="45.85723" lon="6.73846">
        <ele>1292</ele>
        <time>2026-08-14T11:39:34.540Z</time>
      </trkpt>
      <trkpt lat="45.85724" lon="6.73844">
        <ele>1291</ele>
        <time>2026-08-14T11:39:35.540Z</time>
      </trkpt>
      <trkpt lat="45.85724" lon="6.73843">
        <ele>1290</ele>
        <time>2026-08-14T11:39:36.540Z</time>
      </trkpt>
      <trkpt lat="45.85725" lon="6.73841">
        <ele>1290</ele>
        <time>2026-08-14T11:39:37.540Z</time>
      </trkpt>
      <trkpt lat="45.85726" lon="6.73839">
        <ele>1289</ele>
        <time>2026-08-14T11:39:38.540Z</time>
      </trkpt>
      <trkpt lat="45.85727" lon="6.73836">
        <ele>1289</ele>
        <time>2026-08-14T11:39:39.540Z</time>
      </trkpt>
      <trkpt lat="45.85728" lon="6.73834">
        <ele>1288</ele>
        <time>2026-08-14T11:39:40.540Z</time>
      </trkpt>
      <trkpt lat="45.85729" lon="6.73832">
        <ele>1288</ele>
        <time>2026-08-14T11:39:41.540Z</time>
      </trkpt>
      <trkpt lat="45.8573" lon="6.7383">
        <ele>1287</ele>
        <time>2026-08-14T11:39:42.540Z</time>
      </trkpt>
      <trkpt lat="45.85732" lon="6.73827">
        <ele>1286</ele>
        <time>2026-08-14T11:39:43.540Z</time>
      </trkpt>
      <trkpt lat="45.85733" lon="6.73825">
        <ele>1286</ele>
        <time>2026-08-14T11:39:44.540Z</time>
      </trkpt>
      <trkpt lat="45.85735" lon="6.73822">
        <ele>1285</ele>
        <time>2026-08-14T11:39:45.540Z</time>
      </trkpt>
      <trkpt lat="45.85736" lon="6.73819">
        <ele>1284</ele>
        <time>2026-08-14T11:39:46.540Z</time>
      </trkpt>
      <trkpt lat="45.85738" lon="6.73817">
        <ele>1284</ele>
        <time>2026-08-14T11:39:47.540Z</time>
      </trkpt>
      <trkpt lat="45.8574" lon="6.73814">
        <ele>1283</ele>
        <time>2026-08-14T11:39:48.540Z</time>
      </trkpt>
      <trkpt lat="45.85742" lon="6.73812">
        <ele>1283</ele>
        <time>2026-08-14T11:39:49.540Z</time>
      </trkpt>
      <trkpt lat="45.85743" lon="6.73809">
        <ele>1282</ele>
        <time>2026-08-14T11:39:50.540Z</time>
      </trkpt>
      <trkpt lat="45.85745" lon="6.73807">
        <ele>1281</ele>
        <time>2026-08-14T11:39:51.540Z</time>
      </trkpt>
      <trkpt lat="45.85747" lon="6.73805">
        <ele>1281</ele>
        <time>2026-08-14T11:39:52.540Z</time>
      </trkpt>
      <trkpt lat="45.85749" lon="6.73802">
        <ele>1280</ele>
        <time>2026-08-14T11:39:53.540Z</time>
      </trkpt>
      <trkpt lat="45.8575" lon="6.738">
        <ele>1279</ele>
        <time>2026-08-14T11:39:54.540Z</time>
      </trkpt>
      <trkpt lat="45.85752" lon="6.73798">
        <ele>1279</ele>
        <time>2026-08-14T11:39:55.540Z</time>
      </trkpt>
      <trkpt lat="45.85753" lon="6.73796">
        <ele>1278</ele>
        <time>2026-08-14T11:39:56.540Z</time>
      </trkpt>
      <trkpt lat="45.85755" lon="6.73794">
        <ele>1278</ele>
        <time>2026-08-14T11:39:57.540Z</time>
      </trkpt>
      <trkpt lat="45.85756" lon="6.73792">
        <ele>1277</ele>
        <time>2026-08-14T11:39:58.540Z</time>
      </trkpt>
      <trkpt lat="45.85758" lon="6.7379">
        <ele>1277</ele>
        <time>2026-08-14T11:39:59.540Z</time>
      </trkpt>
      <trkpt lat="45.85759" lon="6.73789">
        <ele>1277</ele>
        <time>2026-08-14T11:40:00.540Z</time>
      </trkpt>
      <trkpt lat="45.8576" lon="6.73788">
        <ele>1276</ele>
        <time>2026-08-14T11:40:01.540Z</time>
      </trkpt>
      <trkpt lat="45.85762" lon="6.73788">
        <ele>1276</ele>
        <time>2026-08-14T11:40:02.540Z</time>
      </trkpt>
      <trkpt lat="45.85763" lon="6.73788">
        <ele>1275</ele>
        <time>2026-08-14T11:40:03.540Z</time>
      </trkpt>
      <trkpt lat="45.85764" lon="6.73787">
        <ele>1275</ele>
        <time>2026-08-14T11:40:04.540Z</time>
      </trkpt>
      <trkpt lat="45.85765" lon="6.73785">
        <ele>1275</ele>
        <time>2026-08-14T11:40:05.540Z</time>
      </trkpt>
      <trkpt lat="45.85766" lon="6.73784">
        <ele>1274</ele>
        <time>2026-08-14T11:40:06.540Z</time>
      </trkpt>
      <trkpt lat="45.85767" lon="6.73783">
        <ele>1274</ele>
        <time>2026-08-14T11:40:07.540Z</time>
      </trkpt>
      <trkpt lat="45.85768" lon="6.73782">
        <ele>1273</ele>
        <time>2026-08-14T11:40:08.540Z</time>
      </trkpt>
      <trkpt lat="45.8577" lon="6.73782">
        <ele>1273</ele>
        <time>2026-08-14T11:40:09.540Z</time>
      </trkpt>
      <trkpt lat="45.85771" lon="6.73783">
        <ele>1272</ele>
        <time>2026-08-14T11:40:10.540Z</time>
      </trkpt>
      <trkpt lat="45.85772" lon="6.73783">
        <ele>1272</ele>
        <time>2026-08-14T11:40:11.540Z</time>
      </trkpt>
      <trkpt lat="45.85772" lon="6.73785">
        <ele>1272</ele>
        <time>2026-08-14T11:40:12.540Z</time>
      </trkpt>
      <trkpt lat="45.85772" lon="6.73785">
        <ele>1271</ele>
        <time>2026-08-14T11:40:13.540Z</time>
      </trkpt>
      <trkpt lat="45.85771" lon="6.73786">
        <ele>1271</ele>
        <time>2026-08-14T11:40:14.540Z</time>
      </trkpt>
      <trkpt lat="45.85772" lon="6.73787">
        <ele>1271</ele>
        <time>2026-08-14T11:40:15.540Z</time>
      </trkpt>
      <trkpt lat="45.85773" lon="6.73788">
        <ele>1272</ele>
        <time>2026-08-14T11:40:16.540Z</time>
      </trkpt>
      <trkpt lat="45.85773" lon="6.73788">
        <ele>1272</ele>
        <time>2026-08-14T11:40:17.540Z</time>
      </trkpt>
      <trkpt lat="45.85775" lon="6.73788">
        <ele>1272</ele>
        <time>2026-08-14T11:40:18.540Z</time>
      </trkpt>
      <trkpt lat="45.85775" lon="6.7379">
        <ele>1272</ele>
        <time>2026-08-14T11:40:19.540Z</time>
      </trkpt>
      <trkpt lat="45.85775" lon="6.7379">
        <ele>1271</ele>
        <time>2026-08-14T11:40:20.540Z</time>
      </trkpt>
      <trkpt lat="45.85775" lon="6.7379">
        <ele>1270</ele>
        <time>2026-08-14T11:40:21.540Z</time>
      </trkpt>
      <trkpt lat="45.85776" lon="6.7379">
        <ele>1270</ele>
        <time>2026-08-14T11:40:22.540Z</time>
      </trkpt>
      <trkpt lat="45.85776" lon="6.73791">
        <ele>1269</ele>
        <time>2026-08-14T11:40:23.540Z</time>
      </trkpt>
      <trkpt lat="45.85776" lon="6.73791">
        <ele>1269</ele>
        <time>2026-08-14T11:40:24.540Z</time>
      </trkpt>
      <trkpt lat="45.85776" lon="6.73791">
        <ele>1268</ele>
        <time>2026-08-14T11:40:25.540Z</time>
      </trkpt>
      <trkpt lat="45.85777" lon="6.73792">
        <ele>1268</ele>
        <time>2026-08-14T11:40:26.540Z</time>
      </trkpt>
      <trkpt lat="45.85777" lon="6.73792">
        <ele>1268</ele>
        <time>2026-08-14T11:40:27.540Z</time>
      </trkpt>
      <trkpt lat="45.85778" lon="6.73792">
        <ele>1268</ele>
        <time>2026-08-14T11:40:28.540Z</time>
      </trkpt>
      <trkpt lat="45.85778" lon="6.73792">
        <ele>1269</ele>
        <time>2026-08-14T11:40:29.540Z</time>
      </trkpt>
      <trkpt lat="45.85779" lon="6.73793">
        <ele>1269</ele>
        <time>2026-08-14T11:40:30.540Z</time>
      </trkpt>
      <trkpt lat="45.85781" lon="6.73794">
        <ele>1269</ele>
        <time>2026-08-14T11:40:31.540Z</time>
      </trkpt>
      <trkpt lat="45.85782" lon="6.73794">
        <ele>1269</ele>
        <time>2026-08-14T11:40:32.540Z</time>
      </trkpt>
      <trkpt lat="45.85783" lon="6.73795">
        <ele>1269</ele>
        <time>2026-08-14T11:40:33.540Z</time>
      </trkpt>
      <trkpt lat="45.85783" lon="6.73796">
        <ele>1269</ele>
        <time>2026-08-14T11:40:34.540Z</time>
      </trkpt>
      <trkpt lat="45.85784" lon="6.73796">
        <ele>1268</ele>
        <time>2026-08-14T11:40:35.540Z</time>
      </trkpt>
      <trkpt lat="45.85785" lon="6.73796">
        <ele>1268</ele>
        <time>2026-08-14T11:40:36.540Z</time>
      </trkpt>
      <trkpt lat="45.85785" lon="6.73796">
        <ele>1268</ele>
        <time>2026-08-14T11:40:37.540Z</time>
      </trkpt>
      <trkpt lat="45.85786" lon="6.73796">
        <ele>1267</ele>
        <time>2026-08-14T11:40:38.540Z</time>
      </trkpt>
      <trkpt lat="45.85787" lon="6.73796">
        <ele>1266</ele>
        <time>2026-08-14T11:40:39.540Z</time>
      </trkpt>
      <trkpt lat="45.85788" lon="6.73796">
        <ele>1266</ele>
        <time>2026-08-14T11:40:40.540Z</time>
      </trkpt>
      <trkpt lat="45.85789" lon="6.73797">
        <ele>1266</ele>
        <time>2026-08-14T11:40:41.540Z</time>
      </trkpt>
      <trkpt lat="45.8579" lon="6.73797">
        <ele>1265</ele>
        <time>2026-08-14T11:40:42.540Z</time>
      </trkpt>
      <trkpt lat="45.85792" lon="6.73797">
        <ele>1265</ele>
        <time>2026-08-14T11:40:43.540Z</time>
      </trkpt>
      <trkpt lat="45.85793" lon="6.73798">
        <ele>1265</ele>
        <time>2026-08-14T11:40:44.540Z</time>
      </trkpt>
      <trkpt lat="45.85795" lon="6.73799">
        <ele>1264</ele>
        <time>2026-08-14T11:40:45.540Z</time>
      </trkpt>
      <trkpt lat="45.85797" lon="6.73799">
        <ele>1264</ele>
        <time>2026-08-14T11:40:46.540Z</time>
      </trkpt>
      <trkpt lat="45.85799" lon="6.738">
        <ele>1264</ele>
        <time>2026-08-14T11:40:47.540Z</time>
      </trkpt>
      <trkpt lat="45.858" lon="6.73801">
        <ele>1264</ele>
        <time>2026-08-14T11:40:48.540Z</time>
      </trkpt>
      <trkpt lat="45.85802" lon="6.73801">
        <ele>1264</ele>
        <time>2026-08-14T11:40:49.540Z</time>
      </trkpt>
      <trkpt lat="45.85803" lon="6.73801">
        <ele>1264</ele>
        <time>2026-08-14T11:40:50.540Z</time>
      </trkpt>
      <trkpt lat="45.85804" lon="6.73801">
        <ele>1263</ele>
        <time>2026-08-14T11:40:51.540Z</time>
      </trkpt>
      <trkpt lat="45.85805" lon="6.73801">
        <ele>1263</ele>
        <time>2026-08-14T11:40:52.540Z</time>
      </trkpt>
      <trkpt lat="45.85806" lon="6.73801">
        <ele>1263</ele>
        <time>2026-08-14T11:40:53.540Z</time>
      </trkpt>
      <trkpt lat="45.85807" lon="6.73802">
        <ele>1262</ele>
        <time>2026-08-14T11:40:54.540Z</time>
      </trkpt>
      <trkpt lat="45.85808" lon="6.73802">
        <ele>1262</ele>
        <time>2026-08-14T11:40:55.540Z</time>
      </trkpt>
      <trkpt lat="45.85808" lon="6.73803">
        <ele>1262</ele>
        <time>2026-08-14T11:40:56.540Z</time>
      </trkpt>
      <trkpt lat="45.85809" lon="6.73803">
        <ele>1261</ele>
        <time>2026-08-14T11:40:57.540Z</time>
      </trkpt>
      <trkpt lat="45.85809" lon="6.73804">
        <ele>1261</ele>
        <time>2026-08-14T11:40:58.540Z</time>
      </trkpt>
      <trkpt lat="45.85809" lon="6.73804">
        <ele>1260</ele>
        <time>2026-08-14T11:40:59.540Z</time>
      </trkpt>
      <trkpt lat="45.8581" lon="6.73804">
        <ele>1259</ele>
        <time>2026-08-14T11:41:00.540Z</time>
      </trkpt>
      <trkpt lat="45.85809" lon="6.73805">
        <ele>1259</ele>
        <time>2026-08-14T11:41:01.540Z</time>
      </trkpt>
      <trkpt lat="45.85809" lon="6.73805">
        <ele>1258</ele>
        <time>2026-08-14T11:41:02.540Z</time>
      </trkpt>
      <trkpt lat="45.85809" lon="6.73806">
        <ele>1258</ele>
        <time>2026-08-14T11:41:03.540Z</time>
      </trkpt>
      <trkpt lat="45.85809" lon="6.73807">
        <ele>1257</ele>
        <time>2026-08-14T11:41:04.540Z</time>
      </trkpt>
      <trkpt lat="45.85809" lon="6.73807">
        <ele>1257</ele>
        <time>2026-08-14T11:41:05.540Z</time>
      </trkpt>
      <trkpt lat="45.85809" lon="6.73808">
        <ele>1257</ele>
        <time>2026-08-14T11:41:06.540Z</time>
      </trkpt>
      <trkpt lat="45.85809" lon="6.73807">
        <ele>1257</ele>
        <time>2026-08-14T11:41:07.540Z</time>
      </trkpt>
      <trkpt lat="45.85809" lon="6.73808">
        <ele>1257</ele>
        <time>2026-08-14T11:41:08.540Z</time>
      </trkpt>
      <trkpt lat="45.8581" lon="6.73809">
        <ele>1257</ele>
        <time>2026-08-14T11:41:09.540Z</time>
      </trkpt>
      <trkpt lat="45.8581" lon="6.73809">
        <ele>1257</ele>
        <time>2026-08-14T11:41:10.540Z</time>
      </trkpt>
      <trkpt lat="45.8581" lon="6.73809">
        <ele>1257</ele>
        <time>2026-08-14T11:41:11.540Z</time>
      </trkpt>
      <trkpt lat="45.8581" lon="6.73809">
        <ele>1257</ele>
        <time>2026-08-14T11:41:12.540Z</time>
      </trkpt>
      <trkpt lat="45.8581" lon="6.73809">
        <ele>1257</ele>
        <time>2026-08-14T11:41:13.540Z</time>
      </trkpt>
      <trkpt lat="45.8581" lon="6.7381">
        <ele>1257</ele>
        <time>2026-08-14T11:41:14.540Z</time>
      </trkpt>
      <trkpt lat="45.8581" lon="6.7381">
        <ele>1257</ele>
        <time>2026-08-14T11:41:15.540Z</time>
      </trkpt>
      <trkpt lat="45.8581" lon="6.73811">
        <ele>1257</ele>
        <time>2026-08-14T11:41:16.540Z</time>
      </trkpt>
      <trkpt lat="45.8581" lon="6.73811">
        <ele>1257</ele>
        <time>2026-08-14T11:41:17.540Z</time>
      </trkpt>
      <trkpt lat="45.85809" lon="6.73812">
        <ele>1256</ele>
        <time>2026-08-14T11:41:18.540Z</time>
      </trkpt>
      <trkpt lat="45.8581" lon="6.73814">
        <ele>1256</ele>
        <time>2026-08-14T11:41:19.540Z</time>
      </trkpt>
      <trkpt lat="45.8581" lon="6.73814">
        <ele>1255</ele>
        <time>2026-08-14T11:41:20.540Z</time>
      </trkpt>
      <trkpt lat="45.8581" lon="6.73815">
        <ele>1255</ele>
        <time>2026-08-14T11:41:21.540Z</time>
      </trkpt>
      <trkpt lat="45.85811" lon="6.73816">
        <ele>1255</ele>
        <time>2026-08-14T11:41:22.540Z</time>
      </trkpt>
      <trkpt lat="45.85811" lon="6.73817">
        <ele>1254</ele>
        <time>2026-08-14T11:41:23.540Z</time>
      </trkpt>
      <trkpt lat="45.85811" lon="6.73817">
        <ele>1254</ele>
        <time>2026-08-14T11:41:24.540Z</time>
      </trkpt>
      <trkpt lat="45.85812" lon="6.73818">
        <ele>1254</ele>
        <time>2026-08-14T11:41:25.540Z</time>
      </trkpt>
      <trkpt lat="45.85812" lon="6.73817">
        <ele>1254</ele>
        <time>2026-08-14T11:41:26.540Z</time>
      </trkpt>
      <trkpt lat="45.85812" lon="6.73817">
        <ele>1254</ele>
        <time>2026-08-14T11:41:27.540Z</time>
      </trkpt>
      <trkpt lat="45.85812" lon="6.73818">
        <ele>1254</ele>
        <time>2026-08-14T11:41:28.540Z</time>
      </trkpt>
      <trkpt lat="45.85813" lon="6.73818">
        <ele>1254</ele>
        <time>2026-08-14T11:41:29.540Z</time>
      </trkpt>
      <trkpt lat="45.85813" lon="6.73818">
        <ele>1253</ele>
        <time>2026-08-14T11:41:30.540Z</time>
      </trkpt>
      <trkpt lat="45.85813" lon="6.73818">
        <ele>1253</ele>
        <time>2026-08-14T11:41:31.540Z</time>
      </trkpt>
      <trkpt lat="45.85814" lon="6.73818">
        <ele>1253</ele>
        <time>2026-08-14T11:41:32.540Z</time>
      </trkpt>
      <trkpt lat="45.85815" lon="6.73818">
        <ele>1253</ele>
        <time>2026-08-14T11:41:33.540Z</time>
      </trkpt>
      <trkpt lat="45.85816" lon="6.73816">
        <ele>1253</ele>
        <time>2026-08-14T11:41:34.540Z</time>
      </trkpt>
      <trkpt lat="45.85817" lon="6.73816">
        <ele>1252</ele>
        <time>2026-08-14T11:41:35.540Z</time>
      </trkpt>
      <trkpt lat="45.85818" lon="6.73815">
        <ele>1252</ele>
        <time>2026-08-14T11:41:36.540Z</time>
      </trkpt>
      <trkpt lat="45.85819" lon="6.73814">
        <ele>1252</ele>
        <time>2026-08-14T11:41:37.540Z</time>
      </trkpt>
      <trkpt lat="45.85821" lon="6.73813">
        <ele>1252</ele>
        <time>2026-08-14T11:41:38.540Z</time>
      </trkpt>
      <trkpt lat="45.85822" lon="6.73812">
        <ele>1252</ele>
        <time>2026-08-14T11:41:39.540Z</time>
      </trkpt>
      <trkpt lat="45.85823" lon="6.7381">
        <ele>1252</ele>
        <time>2026-08-14T11:41:40.540Z</time>
      </trkpt>
      <trkpt lat="45.85825" lon="6.73809">
        <ele>1251</ele>
        <time>2026-08-14T11:41:41.540Z</time>
      </trkpt>
      <trkpt lat="45.85826" lon="6.73807">
        <ele>1251</ele>
        <time>2026-08-14T11:41:42.540Z</time>
      </trkpt>
      <trkpt lat="45.85828" lon="6.73805">
        <ele>1250</ele>
        <time>2026-08-14T11:41:43.540Z</time>
      </trkpt>
      <trkpt lat="45.85829" lon="6.73803">
        <ele>1249</ele>
        <time>2026-08-14T11:41:44.540Z</time>
      </trkpt>
      <trkpt lat="45.8583" lon="6.73802">
        <ele>1249</ele>
        <time>2026-08-14T11:41:45.540Z</time>
      </trkpt>
      <trkpt lat="45.85831" lon="6.73799">
        <ele>1248</ele>
        <time>2026-08-14T11:41:46.540Z</time>
      </trkpt>
      <trkpt lat="45.85833" lon="6.73797">
        <ele>1247</ele>
        <time>2026-08-14T11:41:47.540Z</time>
      </trkpt>
      <trkpt lat="45.85834" lon="6.73795">
        <ele>1247</ele>
        <time>2026-08-14T11:41:48.540Z</time>
      </trkpt>
      <trkpt lat="45.85836" lon="6.73794">
        <ele>1246</ele>
        <time>2026-08-14T11:41:49.540Z</time>
      </trkpt>
      <trkpt lat="45.85838" lon="6.73792">
        <ele>1245</ele>
        <time>2026-08-14T11:41:50.540Z</time>
      </trkpt>
      <trkpt lat="45.8584" lon="6.7379">
        <ele>1245</ele>
        <time>2026-08-14T11:41:51.540Z</time>
      </trkpt>
      <trkpt lat="45.85842" lon="6.73788">
        <ele>1244</ele>
        <time>2026-08-14T11:41:52.540Z</time>
      </trkpt>
      <trkpt lat="45.85843" lon="6.73785">
        <ele>1244</ele>
        <time>2026-08-14T11:41:53.540Z</time>
      </trkpt>
      <trkpt lat="45.85844" lon="6.73783">
        <ele>1243</ele>
        <time>2026-08-14T11:41:54.540Z</time>
      </trkpt>
      <trkpt lat="45.85846" lon="6.7378">
        <ele>1242</ele>
        <time>2026-08-14T11:41:55.540Z</time>
      </trkpt>
      <trkpt lat="45.85847" lon="6.73778">
        <ele>1241</ele>
        <time>2026-08-14T11:41:56.540Z</time>
      </trkpt>
      <trkpt lat="45.85849" lon="6.73775">
        <ele>1241</ele>
        <time>2026-08-14T11:41:57.540Z</time>
      </trkpt>
      <trkpt lat="45.8585" lon="6.73773">
        <ele>1240</ele>
        <time>2026-08-14T11:41:58.540Z</time>
      </trkpt>
      <trkpt lat="45.85852" lon="6.7377">
        <ele>1240</ele>
        <time>2026-08-14T11:41:59.540Z</time>
      </trkpt>
      <trkpt lat="45.85853" lon="6.73767">
        <ele>1239</ele>
        <time>2026-08-14T11:42:00.540Z</time>
      </trkpt>
      <trkpt lat="45.85854" lon="6.73765">
        <ele>1239</ele>
        <time>2026-08-14T11:42:01.540Z</time>
      </trkpt>
      <trkpt lat="45.85856" lon="6.73762">
        <ele>1238</ele>
        <time>2026-08-14T11:42:02.540Z</time>
      </trkpt>
      <trkpt lat="45.85858" lon="6.7376">
        <ele>1237</ele>
        <time>2026-08-14T11:42:03.540Z</time>
      </trkpt>
      <trkpt lat="45.85859" lon="6.73757">
        <ele>1237</ele>
        <time>2026-08-14T11:42:04.540Z</time>
      </trkpt>
      <trkpt lat="45.85861" lon="6.73755">
        <ele>1236</ele>
        <time>2026-08-14T11:42:05.540Z</time>
      </trkpt>
      <trkpt lat="45.85863" lon="6.73752">
        <ele>1235</ele>
        <time>2026-08-14T11:42:06.540Z</time>
      </trkpt>
      <trkpt lat="45.85865" lon="6.73749">
        <ele>1235</ele>
        <time>2026-08-14T11:42:07.540Z</time>
      </trkpt>
      <trkpt lat="45.85867" lon="6.73747">
        <ele>1234</ele>
        <time>2026-08-14T11:42:08.540Z</time>
      </trkpt>
      <trkpt lat="45.85868" lon="6.73744">
        <ele>1233</ele>
        <time>2026-08-14T11:42:09.540Z</time>
      </trkpt>
      <trkpt lat="45.8587" lon="6.73741">
        <ele>1233</ele>
        <time>2026-08-14T11:42:10.540Z</time>
      </trkpt>
      <trkpt lat="45.85872" lon="6.73739">
        <ele>1232</ele>
        <time>2026-08-14T11:42:11.540Z</time>
      </trkpt>
      <trkpt lat="45.85874" lon="6.73736">
        <ele>1232</ele>
        <time>2026-08-14T11:42:12.540Z</time>
      </trkpt>
      <trkpt lat="45.85875" lon="6.73733">
        <ele>1231</ele>
        <time>2026-08-14T11:42:13.540Z</time>
      </trkpt>
      <trkpt lat="45.85877" lon="6.73731">
        <ele>1231</ele>
        <time>2026-08-14T11:42:14.540Z</time>
      </trkpt>
      <trkpt lat="45.85879" lon="6.73728">
        <ele>1230</ele>
        <time>2026-08-14T11:42:15.540Z</time>
      </trkpt>
      <trkpt lat="45.85881" lon="6.73726">
        <ele>1230</ele>
        <time>2026-08-14T11:42:16.540Z</time>
      </trkpt>
      <trkpt lat="45.85883" lon="6.73724">
        <ele>1229</ele>
        <time>2026-08-14T11:42:17.540Z</time>
      </trkpt>
      <trkpt lat="45.85885" lon="6.73721">
        <ele>1229</ele>
        <time>2026-08-14T11:42:18.540Z</time>
      </trkpt>
      <trkpt lat="45.85887" lon="6.73719">
        <ele>1229</ele>
        <time>2026-08-14T11:42:19.540Z</time>
      </trkpt>
      <trkpt lat="45.85889" lon="6.73718">
        <ele>1229</ele>
        <time>2026-08-14T11:42:20.540Z</time>
      </trkpt>
      <trkpt lat="45.85892" lon="6.73716">
        <ele>1228</ele>
        <time>2026-08-14T11:42:21.540Z</time>
      </trkpt>
      <trkpt lat="45.85894" lon="6.73715">
        <ele>1228</ele>
        <time>2026-08-14T11:42:22.540Z</time>
      </trkpt>
      <trkpt lat="45.85896" lon="6.73714">
        <ele>1228</ele>
        <time>2026-08-14T11:42:23.540Z</time>
      </trkpt>
      <trkpt lat="45.85898" lon="6.73713">
        <ele>1228</ele>
        <time>2026-08-14T11:42:24.540Z</time>
      </trkpt>
      <trkpt lat="45.85899" lon="6.73712">
        <ele>1227</ele>
        <time>2026-08-14T11:42:25.540Z</time>
      </trkpt>
      <trkpt lat="45.85901" lon="6.73712">
        <ele>1227</ele>
        <time>2026-08-14T11:42:26.540Z</time>
      </trkpt>
      <trkpt lat="45.85903" lon="6.73711">
        <ele>1227</ele>
        <time>2026-08-14T11:42:27.540Z</time>
      </trkpt>
      <trkpt lat="45.85905" lon="6.7371">
        <ele>1227</ele>
        <time>2026-08-14T11:42:28.540Z</time>
      </trkpt>
      <trkpt lat="45.85907" lon="6.73709">
        <ele>1227</ele>
        <time>2026-08-14T11:42:29.540Z</time>
      </trkpt>
      <trkpt lat="45.85909" lon="6.73709">
        <ele>1227</ele>
        <time>2026-08-14T11:42:30.540Z</time>
      </trkpt>
      <trkpt lat="45.8591" lon="6.73708">
        <ele>1227</ele>
        <time>2026-08-14T11:42:31.540Z</time>
      </trkpt>
      <trkpt lat="45.85912" lon="6.73708">
        <ele>1227</ele>
        <time>2026-08-14T11:42:32.540Z</time>
      </trkpt>
      <trkpt lat="45.85913" lon="6.73708">
        <ele>1227</ele>
        <time>2026-08-14T11:42:33.540Z</time>
      </trkpt>
      <trkpt lat="45.85914" lon="6.73709">
        <ele>1227</ele>
        <time>2026-08-14T11:42:34.540Z</time>
      </trkpt>
      <trkpt lat="45.85915" lon="6.7371">
        <ele>1227</ele>
        <time>2026-08-14T11:42:35.540Z</time>
      </trkpt>
      <trkpt lat="45.85917" lon="6.73711">
        <ele>1227</ele>
        <time>2026-08-14T11:42:36.540Z</time>
      </trkpt>
      <trkpt lat="45.85918" lon="6.73712">
        <ele>1227</ele>
        <time>2026-08-14T11:42:37.540Z</time>
      </trkpt>
      <trkpt lat="45.85919" lon="6.73713">
        <ele>1227</ele>
        <time>2026-08-14T11:42:38.540Z</time>
      </trkpt>
      <trkpt lat="45.8592" lon="6.73714">
        <ele>1227</ele>
        <time>2026-08-14T11:42:39.540Z</time>
      </trkpt>
      <trkpt lat="45.85921" lon="6.73716">
        <ele>1227</ele>
        <time>2026-08-14T11:42:40.540Z</time>
      </trkpt>
      <trkpt lat="45.85922" lon="6.73717">
        <ele>1228</ele>
        <time>2026-08-14T11:42:41.540Z</time>
      </trkpt>
      <trkpt lat="45.85923" lon="6.73719">
        <ele>1228</ele>
        <time>2026-08-14T11:42:42.540Z</time>
      </trkpt>
      <trkpt lat="45.85924" lon="6.73721">
        <ele>1228</ele>
        <time>2026-08-14T11:42:43.540Z</time>
      </trkpt>
      <trkpt lat="45.85924" lon="6.73724">
        <ele>1228</ele>
        <time>2026-08-14T11:42:44.540Z</time>
      </trkpt>
      <trkpt lat="45.85924" lon="6.73726">
        <ele>1227</ele>
        <time>2026-08-14T11:42:45.540Z</time>
      </trkpt>
      <trkpt lat="45.85924" lon="6.73729">
        <ele>1227</ele>
        <time>2026-08-14T11:42:46.540Z</time>
      </trkpt>
      <trkpt lat="45.85924" lon="6.73731">
        <ele>1227</ele>
        <time>2026-08-14T11:42:47.540Z</time>
      </trkpt>
      <trkpt lat="45.85924" lon="6.73734">
        <ele>1226</ele>
        <time>2026-08-14T11:42:48.540Z</time>
      </trkpt>
      <trkpt lat="45.85924" lon="6.73736">
        <ele>1226</ele>
        <time>2026-08-14T11:42:49.540Z</time>
      </trkpt>
      <trkpt lat="45.85924" lon="6.73739">
        <ele>1226</ele>
        <time>2026-08-14T11:42:50.540Z</time>
      </trkpt>
      <trkpt lat="45.85924" lon="6.73742">
        <ele>1226</ele>
        <time>2026-08-14T11:42:51.540Z</time>
      </trkpt>
      <trkpt lat="45.85924" lon="6.73744">
        <ele>1225</ele>
        <time>2026-08-14T11:42:52.540Z</time>
      </trkpt>
      <trkpt lat="45.85924" lon="6.73747">
        <ele>1226</ele>
        <time>2026-08-14T11:42:53.540Z</time>
      </trkpt>
      <trkpt lat="45.85923" lon="6.7375">
        <ele>1226</ele>
        <time>2026-08-14T11:42:54.540Z</time>
      </trkpt>
      <trkpt lat="45.85923" lon="6.73752">
        <ele>1226</ele>
        <time>2026-08-14T11:42:55.540Z</time>
      </trkpt>
      <trkpt lat="45.85923" lon="6.73755">
        <ele>1226</ele>
        <time>2026-08-14T11:42:56.540Z</time>
      </trkpt>
      <trkpt lat="45.85923" lon="6.73758">
        <ele>1227</ele>
        <time>2026-08-14T11:42:57.540Z</time>
      </trkpt>
      <trkpt lat="45.85924" lon="6.73761">
        <ele>1227</ele>
        <time>2026-08-14T11:42:58.540Z</time>
      </trkpt>
      <trkpt lat="45.85924" lon="6.73763">
        <ele>1227</ele>
        <time>2026-08-14T11:42:59.540Z</time>
      </trkpt>
      <trkpt lat="45.85924" lon="6.73766">
        <ele>1227</ele>
        <time>2026-08-14T11:43:00.540Z</time>
      </trkpt>
      <trkpt lat="45.85924" lon="6.73769">
        <ele>1227</ele>
        <time>2026-08-14T11:43:01.540Z</time>
      </trkpt>
      <trkpt lat="45.85924" lon="6.73772">
        <ele>1227</ele>
        <time>2026-08-14T11:43:02.540Z</time>
      </trkpt>
      <trkpt lat="45.85924" lon="6.73775">
        <ele>1227</ele>
        <time>2026-08-14T11:43:03.540Z</time>
      </trkpt>
      <trkpt lat="45.85924" lon="6.73778">
        <ele>1227</ele>
        <time>2026-08-14T11:43:04.540Z</time>
      </trkpt>
      <trkpt lat="45.85924" lon="6.7378">
        <ele>1227</ele>
        <time>2026-08-14T11:43:05.540Z</time>
      </trkpt>
      <trkpt lat="45.85923" lon="6.73783">
        <ele>1227</ele>
        <time>2026-08-14T11:43:06.540Z</time>
      </trkpt>
      <trkpt lat="45.85923" lon="6.73786">
        <ele>1227</ele>
        <time>2026-08-14T11:43:07.540Z</time>
      </trkpt>
      <trkpt lat="45.85922" lon="6.73789">
        <ele>1227</ele>
        <time>2026-08-14T11:43:08.540Z</time>
      </trkpt>
      <trkpt lat="45.85922" lon="6.73792">
        <ele>1227</ele>
        <time>2026-08-14T11:43:09.540Z</time>
      </trkpt>
      <trkpt lat="45.85923" lon="6.73794">
        <ele>1227</ele>
        <time>2026-08-14T11:43:10.540Z</time>
      </trkpt>
      <trkpt lat="45.85923" lon="6.73797">
        <ele>1227</ele>
        <time>2026-08-14T11:43:11.540Z</time>
      </trkpt>
      <trkpt lat="45.85923" lon="6.738">
        <ele>1227</ele>
        <time>2026-08-14T11:43:12.540Z</time>
      </trkpt>
      <trkpt lat="45.85923" lon="6.73803">
        <ele>1228</ele>
        <time>2026-08-14T11:43:13.540Z</time>
      </trkpt>
      <trkpt lat="45.85923" lon="6.73806">
        <ele>1228</ele>
        <time>2026-08-14T11:43:14.540Z</time>
      </trkpt>
      <trkpt lat="45.85922" lon="6.73809">
        <ele>1228</ele>
        <time>2026-08-14T11:43:15.540Z</time>
      </trkpt>
      <trkpt lat="45.85922" lon="6.73813">
        <ele>1227</ele>
        <time>2026-08-14T11:43:16.540Z</time>
      </trkpt>
      <trkpt lat="45.85922" lon="6.73816">
        <ele>1227</ele>
        <time>2026-08-14T11:43:17.540Z</time>
      </trkpt>
      <trkpt lat="45.85923" lon="6.73819">
        <ele>1227</ele>
        <time>2026-08-14T11:43:18.540Z</time>
      </trkpt>
      <trkpt lat="45.85923" lon="6.73822">
        <ele>1227</ele>
        <time>2026-08-14T11:43:19.540Z</time>
      </trkpt>
      <trkpt lat="45.85923" lon="6.73824">
        <ele>1227</ele>
        <time>2026-08-14T11:43:20.540Z</time>
      </trkpt>
      <trkpt lat="45.85924" lon="6.73827">
        <ele>1228</ele>
        <time>2026-08-14T11:43:21.540Z</time>
      </trkpt>
      <trkpt lat="45.85924" lon="6.7383">
        <ele>1228</ele>
        <time>2026-08-14T11:43:22.540Z</time>
      </trkpt>
      <trkpt lat="45.85925" lon="6.73832">
        <ele>1228</ele>
        <time>2026-08-14T11:43:23.540Z</time>
      </trkpt>
      <trkpt lat="45.85925" lon="6.73835">
        <ele>1228</ele>
        <time>2026-08-14T11:43:24.540Z</time>
      </trkpt>
      <trkpt lat="45.85926" lon="6.73837">
        <ele>1228</ele>
        <time>2026-08-14T11:43:25.540Z</time>
      </trkpt>
      <trkpt lat="45.85926" lon="6.73839">
        <ele>1228</ele>
        <time>2026-08-14T11:43:26.540Z</time>
      </trkpt>
      <trkpt lat="45.85927" lon="6.73841">
        <ele>1228</ele>
        <time>2026-08-14T11:43:27.540Z</time>
      </trkpt>
      <trkpt lat="45.85927" lon="6.73843">
        <ele>1229</ele>
        <time>2026-08-14T11:43:28.540Z</time>
      </trkpt>
      <trkpt lat="45.85928" lon="6.73845">
        <ele>1229</ele>
        <time>2026-08-14T11:43:29.540Z</time>
      </trkpt>
      <trkpt lat="45.85928" lon="6.73846">
        <ele>1229</ele>
        <time>2026-08-14T11:43:30.540Z</time>
      </trkpt>
      <trkpt lat="45.85929" lon="6.73848">
        <ele>1229</ele>
        <time>2026-08-14T11:43:31.540Z</time>
      </trkpt>
      <trkpt lat="45.85929" lon="6.7385">
        <ele>1229</ele>
        <time>2026-08-14T11:43:32.540Z</time>
      </trkpt>
      <trkpt lat="45.8593" lon="6.73851">
        <ele>1229</ele>
        <time>2026-08-14T11:43:33.540Z</time>
      </trkpt>
      <trkpt lat="45.8593" lon="6.73853">
        <ele>1229</ele>
        <time>2026-08-14T11:43:34.540Z</time>
      </trkpt>
      <trkpt lat="45.85931" lon="6.73854">
        <ele>1229</ele>
        <time>2026-08-14T11:43:35.540Z</time>
      </trkpt>
      <trkpt lat="45.85932" lon="6.73856">
        <ele>1229</ele>
        <time>2026-08-14T11:43:36.540Z</time>
      </trkpt>
      <trkpt lat="45.85932" lon="6.73858">
        <ele>1229</ele>
        <time>2026-08-14T11:43:37.540Z</time>
      </trkpt>
      <trkpt lat="45.85932" lon="6.73859">
        <ele>1229</ele>
        <time>2026-08-14T11:43:38.540Z</time>
      </trkpt>
      <trkpt lat="45.85933" lon="6.73861">
        <ele>1229</ele>
        <time>2026-08-14T11:43:39.540Z</time>
      </trkpt>
      <trkpt lat="45.85933" lon="6.73862">
        <ele>1229</ele>
        <time>2026-08-14T11:43:40.540Z</time>
      </trkpt>
      <trkpt lat="45.85934" lon="6.73864">
        <ele>1229</ele>
        <time>2026-08-14T11:43:41.540Z</time>
      </trkpt>
      <trkpt lat="45.85935" lon="6.73865">
        <ele>1229</ele>
        <time>2026-08-14T11:43:42.540Z</time>
      </trkpt>
      <trkpt lat="45.85935" lon="6.73866">
        <ele>1229</ele>
        <time>2026-08-14T11:43:43.540Z</time>
      </trkpt>
      <trkpt lat="45.85936" lon="6.73868">
        <ele>1229</ele>
        <time>2026-08-14T11:43:44.540Z</time>
      </trkpt>
      <trkpt lat="45.85936" lon="6.7387">
        <ele>1229</ele>
        <time>2026-08-14T11:43:45.540Z</time>
      </trkpt>
      <trkpt lat="45.85937" lon="6.73871">
        <ele>1229</ele>
        <time>2026-08-14T11:43:46.540Z</time>
      </trkpt>
      <trkpt lat="45.85937" lon="6.73872">
        <ele>1229</ele>
        <time>2026-08-14T11:43:47.540Z</time>
      </trkpt>
      <trkpt lat="45.85938" lon="6.73873">
        <ele>1229</ele>
        <time>2026-08-14T11:43:48.540Z</time>
      </trkpt>
      <trkpt lat="45.85938" lon="6.73875">
        <ele>1229</ele>
        <time>2026-08-14T11:43:49.540Z</time>
      </trkpt>
      <trkpt lat="45.85938" lon="6.73876">
        <ele>1229</ele>
        <time>2026-08-14T11:43:50.540Z</time>
      </trkpt>
      <trkpt lat="45.85939" lon="6.73878">
        <ele>1230</ele>
        <time>2026-08-14T11:43:51.540Z</time>
      </trkpt>
      <trkpt lat="45.8594" lon="6.73879">
        <ele>1230</ele>
        <time>2026-08-14T11:43:52.540Z</time>
      </trkpt>
      <trkpt lat="45.8594" lon="6.73881">
        <ele>1230</ele>
        <time>2026-08-14T11:43:53.540Z</time>
      </trkpt>
      <trkpt lat="45.8594" lon="6.73883">
        <ele>1231</ele>
        <time>2026-08-14T11:43:54.540Z</time>
      </trkpt>
      <trkpt lat="45.8594" lon="6.73884">
        <ele>1231</ele>
        <time>2026-08-14T11:43:55.540Z</time>
      </trkpt>
      <trkpt lat="45.8594" lon="6.73886">
        <ele>1232</ele>
        <time>2026-08-14T11:43:56.540Z</time>
      </trkpt>
      <trkpt lat="45.85941" lon="6.73888">
        <ele>1232</ele>
        <time>2026-08-14T11:43:57.540Z</time>
      </trkpt>
      <trkpt lat="45.85942" lon="6.73889">
        <ele>1232</ele>
        <time>2026-08-14T11:43:58.540Z</time>
      </trkpt>
      <trkpt lat="45.85943" lon="6.73891">
        <ele>1232</ele>
        <time>2026-08-14T11:43:59.540Z</time>
      </trkpt>
      <trkpt lat="45.85944" lon="6.73893">
        <ele>1233</ele>
        <time>2026-08-14T11:44:00.540Z</time>
      </trkpt>
      <trkpt lat="45.85944" lon="6.73894">
        <ele>1233</ele>
        <time>2026-08-14T11:44:01.540Z</time>
      </trkpt>
      <trkpt lat="45.85945" lon="6.73896">
        <ele>1234</ele>
        <time>2026-08-14T11:44:02.540Z</time>
      </trkpt>
      <trkpt lat="45.85945" lon="6.73898">
        <ele>1234</ele>
        <time>2026-08-14T11:44:03.540Z</time>
      </trkpt>
      <trkpt lat="45.85946" lon="6.73899">
        <ele>1234</ele>
        <time>2026-08-14T11:44:04.540Z</time>
      </trkpt>
      <trkpt lat="45.85947" lon="6.73901">
        <ele>1234</ele>
        <time>2026-08-14T11:44:05.540Z</time>
      </trkpt>
      <trkpt lat="45.85947" lon="6.73903">
        <ele>1234</ele>
        <time>2026-08-14T11:44:06.540Z</time>
      </trkpt>
      <trkpt lat="45.85947" lon="6.73904">
        <ele>1234</ele>
        <time>2026-08-14T11:44:07.540Z</time>
      </trkpt>
      <trkpt lat="45.85947" lon="6.73906">
        <ele>1234</ele>
        <time>2026-08-14T11:44:08.540Z</time>
      </trkpt>
      <trkpt lat="45.85948" lon="6.73908">
        <ele>1234</ele>
        <time>2026-08-14T11:44:09.540Z</time>
      </trkpt>
      <trkpt lat="45.85948" lon="6.73909">
        <ele>1234</ele>
        <time>2026-08-14T11:44:10.540Z</time>
      </trkpt>
      <trkpt lat="45.85949" lon="6.73911">
        <ele>1234</ele>
        <time>2026-08-14T11:44:11.540Z</time>
      </trkpt>
      <trkpt lat="45.85949" lon="6.73912">
        <ele>1234</ele>
        <time>2026-08-14T11:44:12.540Z</time>
      </trkpt>
      <trkpt lat="45.8595" lon="6.73914">
        <ele>1234</ele>
        <time>2026-08-14T11:44:13.540Z</time>
      </trkpt>
      <trkpt lat="45.8595" lon="6.73915">
        <ele>1234</ele>
        <time>2026-08-14T11:44:14.540Z</time>
      </trkpt>
      <trkpt lat="45.85951" lon="6.73917">
        <ele>1235</ele>
        <time>2026-08-14T11:44:15.540Z</time>
      </trkpt>
      <trkpt lat="45.85953" lon="6.73918">
        <ele>1235</ele>
        <time>2026-08-14T11:44:16.540Z</time>
      </trkpt>
      <trkpt lat="45.85953" lon="6.7392">
        <ele>1236</ele>
        <time>2026-08-14T11:44:17.540Z</time>
      </trkpt>
      <trkpt lat="45.85954" lon="6.73921">
        <ele>1236</ele>
        <time>2026-08-14T11:44:18.540Z</time>
      </trkpt>
      <trkpt lat="45.85955" lon="6.73923">
        <ele>1237</ele>
        <time>2026-08-14T11:44:19.540Z</time>
      </trkpt>
      <trkpt lat="45.85956" lon="6.73925">
        <ele>1237</ele>
        <time>2026-08-14T11:44:20.540Z</time>
      </trkpt>
      <trkpt lat="45.85957" lon="6.73927">
        <ele>1238</ele>
        <time>2026-08-14T11:44:21.540Z</time>
      </trkpt>
      <trkpt lat="45.85958" lon="6.73928">
        <ele>1238</ele>
        <time>2026-08-14T11:44:22.540Z</time>
      </trkpt>
      <trkpt lat="45.85959" lon="6.7393">
        <ele>1238</ele>
        <time>2026-08-14T11:44:23.540Z</time>
      </trkpt>
      <trkpt lat="45.8596" lon="6.73931">
        <ele>1238</ele>
        <time>2026-08-14T11:44:24.540Z</time>
      </trkpt>
      <trkpt lat="45.85961" lon="6.73932">
        <ele>1239</ele>
        <time>2026-08-14T11:44:25.540Z</time>
      </trkpt>
      <trkpt lat="45.85962" lon="6.73934">
        <ele>1239</ele>
        <time>2026-08-14T11:44:26.540Z</time>
      </trkpt>
      <trkpt lat="45.85963" lon="6.73935">
        <ele>1240</ele>
        <time>2026-08-14T11:44:27.540Z</time>
      </trkpt>
      <trkpt lat="45.85964" lon="6.73937">
        <ele>1240</ele>
        <time>2026-08-14T11:44:28.540Z</time>
      </trkpt>
      <trkpt lat="45.85964" lon="6.73938">
        <ele>1240</ele>
        <time>2026-08-14T11:44:29.540Z</time>
      </trkpt>
      <trkpt lat="45.85964" lon="6.7394">
        <ele>1240</ele>
        <time>2026-08-14T11:44:30.540Z</time>
      </trkpt>
      <trkpt lat="45.85965" lon="6.73941">
        <ele>1240</ele>
        <time>2026-08-14T11:44:31.540Z</time>
      </trkpt>
      <trkpt lat="45.85965" lon="6.73943">
        <ele>1240</ele>
        <time>2026-08-14T11:44:32.540Z</time>
      </trkpt>
      <trkpt lat="45.85965" lon="6.73945">
        <ele>1240</ele>
        <time>2026-08-14T11:44:33.540Z</time>
      </trkpt>
      <trkpt lat="45.85965" lon="6.73946">
        <ele>1240</ele>
        <time>2026-08-14T11:44:34.540Z</time>
      </trkpt>
      <trkpt lat="45.85966" lon="6.73948">
        <ele>1240</ele>
        <time>2026-08-14T11:44:35.540Z</time>
      </trkpt>
      <trkpt lat="45.85966" lon="6.73949">
        <ele>1240</ele>
        <time>2026-08-14T11:44:36.540Z</time>
      </trkpt>
      <trkpt lat="45.85967" lon="6.73951">
        <ele>1240</ele>
        <time>2026-08-14T11:44:37.540Z</time>
      </trkpt>
      <trkpt lat="45.85967" lon="6.73952">
        <ele>1240</ele>
        <time>2026-08-14T11:44:38.540Z</time>
      </trkpt>
      <trkpt lat="45.85968" lon="6.73954">
        <ele>1240</ele>
        <time>2026-08-14T11:44:39.540Z</time>
      </trkpt>
      <trkpt lat="45.85969" lon="6.73956">
        <ele>1240</ele>
        <time>2026-08-14T11:44:40.540Z</time>
      </trkpt>
      <trkpt lat="45.85969" lon="6.73958">
        <ele>1240</ele>
        <time>2026-08-14T11:44:41.540Z</time>
      </trkpt>
      <trkpt lat="45.8597" lon="6.73959">
        <ele>1240</ele>
        <time>2026-08-14T11:44:42.540Z</time>
      </trkpt>
      <trkpt lat="45.85971" lon="6.73961">
        <ele>1240</ele>
        <time>2026-08-14T11:44:43.540Z</time>
      </trkpt>
      <trkpt lat="45.85971" lon="6.73963">
        <ele>1240</ele>
        <time>2026-08-14T11:44:44.540Z</time>
      </trkpt>
      <trkpt lat="45.85971" lon="6.73965">
        <ele>1239</ele>
        <time>2026-08-14T11:44:45.540Z</time>
      </trkpt>
      <trkpt lat="45.85972" lon="6.73967">
        <ele>1240</ele>
        <time>2026-08-14T11:44:46.540Z</time>
      </trkpt>
      <trkpt lat="45.85973" lon="6.73969">
        <ele>1240</ele>
        <time>2026-08-14T11:44:47.540Z</time>
      </trkpt>
      <trkpt lat="45.85974" lon="6.73971">
        <ele>1240</ele>
        <time>2026-08-14T11:44:48.540Z</time>
      </trkpt>
      <trkpt lat="45.85975" lon="6.73972">
        <ele>1240</ele>
        <time>2026-08-14T11:44:49.540Z</time>
      </trkpt>
      <trkpt lat="45.85976" lon="6.73974">
        <ele>1241</ele>
        <time>2026-08-14T11:44:50.540Z</time>
      </trkpt>
      <trkpt lat="45.85977" lon="6.73975">
        <ele>1241</ele>
        <time>2026-08-14T11:44:51.540Z</time>
      </trkpt>
      <trkpt lat="45.85978" lon="6.73977">
        <ele>1242</ele>
        <time>2026-08-14T11:44:52.540Z</time>
      </trkpt>
      <trkpt lat="45.85978" lon="6.73978">
        <ele>1242</ele>
        <time>2026-08-14T11:44:53.540Z</time>
      </trkpt>
      <trkpt lat="45.85978" lon="6.7398">
        <ele>1243</ele>
        <time>2026-08-14T11:44:54.540Z</time>
      </trkpt>
      <trkpt lat="45.85978" lon="6.73982">
        <ele>1243</ele>
        <time>2026-08-14T11:44:55.540Z</time>
      </trkpt>
      <trkpt lat="45.85979" lon="6.73983">
        <ele>1244</ele>
        <time>2026-08-14T11:44:56.540Z</time>
      </trkpt>
      <trkpt lat="45.85979" lon="6.73985">
        <ele>1245</ele>
        <time>2026-08-14T11:44:57.540Z</time>
      </trkpt>
      <trkpt lat="45.85981" lon="6.73986">
        <ele>1245</ele>
        <time>2026-08-14T11:44:58.540Z</time>
      </trkpt>
      <trkpt lat="45.85981" lon="6.73987">
        <ele>1246</ele>
        <time>2026-08-14T11:44:59.540Z</time>
      </trkpt>
      <trkpt lat="45.8598" lon="6.73989">
        <ele>1246</ele>
        <time>2026-08-14T11:45:00.540Z</time>
      </trkpt>
      <trkpt lat="45.8598" lon="6.7399">
        <ele>1246</ele>
        <time>2026-08-14T11:45:01.540Z</time>
      </trkpt>
      <trkpt lat="45.8598" lon="6.73992">
        <ele>1246</ele>
        <time>2026-08-14T11:45:02.540Z</time>
      </trkpt>
      <trkpt lat="45.8598" lon="6.73994">
        <ele>1246</ele>
        <time>2026-08-14T11:45:03.540Z</time>
      </trkpt>
      <trkpt lat="45.85981" lon="6.73995">
        <ele>1247</ele>
        <time>2026-08-14T11:45:04.540Z</time>
      </trkpt>
      <trkpt lat="45.85981" lon="6.73996">
        <ele>1247</ele>
        <time>2026-08-14T11:45:05.540Z</time>
      </trkpt>
      <trkpt lat="45.85982" lon="6.73998">
        <ele>1247</ele>
        <time>2026-08-14T11:45:06.540Z</time>
      </trkpt>
      <trkpt lat="45.85983" lon="6.73999">
        <ele>1248</ele>
        <time>2026-08-14T11:45:07.540Z</time>
      </trkpt>
      <trkpt lat="45.85983" lon="6.74001">
        <ele>1248</ele>
        <time>2026-08-14T11:45:08.540Z</time>
      </trkpt>
      <trkpt lat="45.85983" lon="6.74002">
        <ele>1249</ele>
        <time>2026-08-14T11:45:09.540Z</time>
      </trkpt>
      <trkpt lat="45.85984" lon="6.74003">
        <ele>1249</ele>
        <time>2026-08-14T11:45:10.540Z</time>
      </trkpt>
      <trkpt lat="45.85984" lon="6.74004">
        <ele>1250</ele>
        <time>2026-08-14T11:45:11.540Z</time>
      </trkpt>
      <trkpt lat="45.85985" lon="6.74006">
        <ele>1250</ele>
        <time>2026-08-14T11:45:12.540Z</time>
      </trkpt>
      <trkpt lat="45.85985" lon="6.74008">
        <ele>1251</ele>
        <time>2026-08-14T11:45:13.540Z</time>
      </trkpt>
      <trkpt lat="45.85986" lon="6.74009">
        <ele>1251</ele>
        <time>2026-08-14T11:45:14.540Z</time>
      </trkpt>
      <trkpt lat="45.85986" lon="6.74011">
        <ele>1251</ele>
        <time>2026-08-14T11:45:15.540Z</time>
      </trkpt>
      <trkpt lat="45.85986" lon="6.74012">
        <ele>1251</ele>
        <time>2026-08-14T11:45:16.540Z</time>
      </trkpt>
      <trkpt lat="45.85987" lon="6.74014">
        <ele>1251</ele>
        <time>2026-08-14T11:45:17.540Z</time>
      </trkpt>
      <trkpt lat="45.85987" lon="6.74016">
        <ele>1252</ele>
        <time>2026-08-14T11:45:18.540Z</time>
      </trkpt>
      <trkpt lat="45.85988" lon="6.74017">
        <ele>1252</ele>
        <time>2026-08-14T11:45:19.540Z</time>
      </trkpt>
      <trkpt lat="45.85988" lon="6.74019">
        <ele>1252</ele>
        <time>2026-08-14T11:45:20.540Z</time>
      </trkpt>
      <trkpt lat="45.85988" lon="6.7402">
        <ele>1252</ele>
        <time>2026-08-14T11:45:21.540Z</time>
      </trkpt>
      <trkpt lat="45.85988" lon="6.74022">
        <ele>1253</ele>
        <time>2026-08-14T11:45:22.540Z</time>
      </trkpt>
      <trkpt lat="45.85989" lon="6.74023">
        <ele>1252</ele>
        <time>2026-08-14T11:45:23.540Z</time>
      </trkpt>
      <trkpt lat="45.85988" lon="6.74025">
        <ele>1252</ele>
        <time>2026-08-14T11:45:24.540Z</time>
      </trkpt>
      <trkpt lat="45.85988" lon="6.74026">
        <ele>1253</ele>
        <time>2026-08-14T11:45:25.540Z</time>
      </trkpt>
      <trkpt lat="45.85988" lon="6.74028">
        <ele>1253</ele>
        <time>2026-08-14T11:45:26.540Z</time>
      </trkpt>
      <trkpt lat="45.85988" lon="6.74029">
        <ele>1253</ele>
        <time>2026-08-14T11:45:27.540Z</time>
      </trkpt>
      <trkpt lat="45.85988" lon="6.7403">
        <ele>1253</ele>
        <time>2026-08-14T11:45:28.540Z</time>
      </trkpt>
      <trkpt lat="45.85988" lon="6.74032">
        <ele>1254</ele>
        <time>2026-08-14T11:45:29.540Z</time>
      </trkpt>
      <trkpt lat="45.85988" lon="6.74033">
        <ele>1254</ele>
        <time>2026-08-14T11:45:30.540Z</time>
      </trkpt>
      <trkpt lat="45.85989" lon="6.74034">
        <ele>1254</ele>
        <time>2026-08-14T11:45:31.540Z</time>
      </trkpt>
      <trkpt lat="45.85989" lon="6.74036">
        <ele>1254</ele>
        <time>2026-08-14T11:45:32.540Z</time>
      </trkpt>
      <trkpt lat="45.8599" lon="6.74037">
        <ele>1254</ele>
        <time>2026-08-14T11:45:33.540Z</time>
      </trkpt>
      <trkpt lat="45.8599" lon="6.74039">
        <ele>1255</ele>
        <time>2026-08-14T11:45:34.540Z</time>
      </trkpt>
      <trkpt lat="45.85991" lon="6.74041">
        <ele>1256</ele>
        <time>2026-08-14T11:45:35.540Z</time>
      </trkpt>
      <trkpt lat="45.85991" lon="6.74042">
        <ele>1256</ele>
        <time>2026-08-14T11:45:36.540Z</time>
      </trkpt>
      <trkpt lat="45.85992" lon="6.74044">
        <ele>1257</ele>
        <time>2026-08-14T11:45:37.540Z</time>
      </trkpt>
      <trkpt lat="45.85992" lon="6.74046">
        <ele>1257</ele>
        <time>2026-08-14T11:45:38.540Z</time>
      </trkpt>
      <trkpt lat="45.85992" lon="6.74048">
        <ele>1258</ele>
        <time>2026-08-14T11:45:39.540Z</time>
      </trkpt>
      <trkpt lat="45.85993" lon="6.7405">
        <ele>1258</ele>
        <time>2026-08-14T11:45:40.540Z</time>
      </trkpt>
      <trkpt lat="45.85993" lon="6.74052">
        <ele>1259</ele>
        <time>2026-08-14T11:45:41.540Z</time>
      </trkpt>
      <trkpt lat="45.85993" lon="6.74053">
        <ele>1259</ele>
        <time>2026-08-14T11:45:42.540Z</time>
      </trkpt>
      <trkpt lat="45.85994" lon="6.74055">
        <ele>1259</ele>
        <time>2026-08-14T11:45:43.540Z</time>
      </trkpt>
      <trkpt lat="45.85994" lon="6.74057">
        <ele>1259</ele>
        <time>2026-08-14T11:45:44.540Z</time>
      </trkpt>
      <trkpt lat="45.85993" lon="6.74059">
        <ele>1259</ele>
        <time>2026-08-14T11:45:45.540Z</time>
      </trkpt>
      <trkpt lat="45.85993" lon="6.7406">
        <ele>1259</ele>
        <time>2026-08-14T11:45:46.540Z</time>
      </trkpt>
      <trkpt lat="45.85994" lon="6.74062">
        <ele>1259</ele>
        <time>2026-08-14T11:45:47.540Z</time>
      </trkpt>
      <trkpt lat="45.85994" lon="6.74064">
        <ele>1259</ele>
        <time>2026-08-14T11:45:48.540Z</time>
      </trkpt>
      <trkpt lat="45.85995" lon="6.74065">
        <ele>1259</ele>
        <time>2026-08-14T11:45:49.540Z</time>
      </trkpt>
      <trkpt lat="45.85995" lon="6.74067">
        <ele>1259</ele>
        <time>2026-08-14T11:45:50.540Z</time>
      </trkpt>
      <trkpt lat="45.85995" lon="6.74069">
        <ele>1259</ele>
        <time>2026-08-14T11:45:51.540Z</time>
      </trkpt>
      <trkpt lat="45.85994" lon="6.74071">
        <ele>1259</ele>
        <time>2026-08-14T11:45:52.540Z</time>
      </trkpt>
      <trkpt lat="45.85995" lon="6.74073">
        <ele>1258</ele>
        <time>2026-08-14T11:45:53.540Z</time>
      </trkpt>
      <trkpt lat="45.85995" lon="6.74075">
        <ele>1258</ele>
        <time>2026-08-14T11:45:54.540Z</time>
      </trkpt>
      <trkpt lat="45.85995" lon="6.74077">
        <ele>1258</ele>
        <time>2026-08-14T11:45:55.540Z</time>
      </trkpt>
      <trkpt lat="45.85996" lon="6.74078">
        <ele>1258</ele>
        <time>2026-08-14T11:45:56.540Z</time>
      </trkpt>
      <trkpt lat="45.85996" lon="6.7408">
        <ele>1258</ele>
        <time>2026-08-14T11:45:57.540Z</time>
      </trkpt>
      <trkpt lat="45.85996" lon="6.74081">
        <ele>1258</ele>
        <time>2026-08-14T11:45:58.540Z</time>
      </trkpt>
      <trkpt lat="45.85996" lon="6.74083">
        <ele>1259</ele>
        <time>2026-08-14T11:45:59.540Z</time>
      </trkpt>
      <trkpt lat="45.85996" lon="6.74085">
        <ele>1259</ele>
        <time>2026-08-14T11:46:00.540Z</time>
      </trkpt>
      <trkpt lat="45.85996" lon="6.74086">
        <ele>1260</ele>
        <time>2026-08-14T11:46:01.540Z</time>
      </trkpt>
      <trkpt lat="45.85997" lon="6.74088">
        <ele>1260</ele>
        <time>2026-08-14T11:46:02.540Z</time>
      </trkpt>
      <trkpt lat="45.85997" lon="6.7409">
        <ele>1261</ele>
        <time>2026-08-14T11:46:03.540Z</time>
      </trkpt>
      <trkpt lat="45.85998" lon="6.74091">
        <ele>1261</ele>
        <time>2026-08-14T11:46:04.540Z</time>
      </trkpt>
      <trkpt lat="45.85999" lon="6.74093">
        <ele>1261</ele>
        <time>2026-08-14T11:46:05.540Z</time>
      </trkpt>
      <trkpt lat="45.85999" lon="6.74094">
        <ele>1262</ele>
        <time>2026-08-14T11:46:06.540Z</time>
      </trkpt>
      <trkpt lat="45.85999" lon="6.74096">
        <ele>1262</ele>
        <time>2026-08-14T11:46:07.540Z</time>
      </trkpt>
      <trkpt lat="45.85999" lon="6.74098">
        <ele>1262</ele>
        <time>2026-08-14T11:46:08.540Z</time>
      </trkpt>
      <trkpt lat="45.86" lon="6.741">
        <ele>1262</ele>
        <time>2026-08-14T11:46:09.540Z</time>
      </trkpt>
      <trkpt lat="45.86" lon="6.74102">
        <ele>1263</ele>
        <time>2026-08-14T11:46:10.540Z</time>
      </trkpt>
      <trkpt lat="45.86001" lon="6.74103">
        <ele>1263</ele>
        <time>2026-08-14T11:46:11.540Z</time>
      </trkpt>
      <trkpt lat="45.86002" lon="6.74105">
        <ele>1263</ele>
        <time>2026-08-14T11:46:12.540Z</time>
      </trkpt>
      <trkpt lat="45.86003" lon="6.74106">
        <ele>1264</ele>
        <time>2026-08-14T11:46:13.540Z</time>
      </trkpt>
      <trkpt lat="45.86003" lon="6.74107">
        <ele>1265</ele>
        <time>2026-08-14T11:46:14.540Z</time>
      </trkpt>
      <trkpt lat="45.86004" lon="6.74108">
        <ele>1265</ele>
        <time>2026-08-14T11:46:15.540Z</time>
      </trkpt>
      <trkpt lat="45.86005" lon="6.74109">
        <ele>1265</ele>
        <time>2026-08-14T11:46:16.540Z</time>
      </trkpt>
      <trkpt lat="45.86006" lon="6.74111">
        <ele>1265</ele>
        <time>2026-08-14T11:46:17.540Z</time>
      </trkpt>
      <trkpt lat="45.86007" lon="6.74113">
        <ele>1266</ele>
        <time>2026-08-14T11:46:18.540Z</time>
      </trkpt>
      <trkpt lat="45.86008" lon="6.74114">
        <ele>1266</ele>
        <time>2026-08-14T11:46:19.540Z</time>
      </trkpt>
      <trkpt lat="45.86008" lon="6.74115">
        <ele>1266</ele>
        <time>2026-08-14T11:46:20.540Z</time>
      </trkpt>
      <trkpt lat="45.86009" lon="6.74116">
        <ele>1266</ele>
        <time>2026-08-14T11:46:21.540Z</time>
      </trkpt>
      <trkpt lat="45.8601" lon="6.74118">
        <ele>1266</ele>
        <time>2026-08-14T11:46:22.540Z</time>
      </trkpt>
      <trkpt lat="45.86011" lon="6.74119">
        <ele>1267</ele>
        <time>2026-08-14T11:46:23.540Z</time>
      </trkpt>
      <trkpt lat="45.86012" lon="6.7412">
        <ele>1267</ele>
        <time>2026-08-14T11:46:24.540Z</time>
      </trkpt>
      <trkpt lat="45.86013" lon="6.74122">
        <ele>1268</ele>
        <time>2026-08-14T11:46:25.540Z</time>
      </trkpt>
      <trkpt lat="45.86013" lon="6.74123">
        <ele>1268</ele>
        <time>2026-08-14T11:46:26.540Z</time>
      </trkpt>
      <trkpt lat="45.86013" lon="6.74124">
        <ele>1269</ele>
        <time>2026-08-14T11:46:27.540Z</time>
      </trkpt>
      <trkpt lat="45.86013" lon="6.74125">
        <ele>1269</ele>
        <time>2026-08-14T11:46:28.540Z</time>
      </trkpt>
      <trkpt lat="45.86013" lon="6.74126">
        <ele>1270</ele>
        <time>2026-08-14T11:46:29.540Z</time>
      </trkpt>
      <trkpt lat="45.86013" lon="6.74128">
        <ele>1270</ele>
        <time>2026-08-14T11:46:30.540Z</time>
      </trkpt>
      <trkpt lat="45.86014" lon="6.74129">
        <ele>1270</ele>
        <time>2026-08-14T11:46:31.540Z</time>
      </trkpt>
      <trkpt lat="45.86014" lon="6.74131">
        <ele>1271</ele>
        <time>2026-08-14T11:46:32.540Z</time>
      </trkpt>
      <trkpt lat="45.86015" lon="6.74132">
        <ele>1271</ele>
        <time>2026-08-14T11:46:33.540Z</time>
      </trkpt>
      <trkpt lat="45.86015" lon="6.74134">
        <ele>1272</ele>
        <time>2026-08-14T11:46:34.540Z</time>
      </trkpt>
      <trkpt lat="45.86016" lon="6.74135">
        <ele>1272</ele>
        <time>2026-08-14T11:46:35.540Z</time>
      </trkpt>
      <trkpt lat="45.86017" lon="6.74136">
        <ele>1273</ele>
        <time>2026-08-14T11:46:36.540Z</time>
      </trkpt>
      <trkpt lat="45.86018" lon="6.74137">
        <ele>1273</ele>
        <time>2026-08-14T11:46:37.540Z</time>
      </trkpt>
      <trkpt lat="45.86019" lon="6.74138">
        <ele>1274</ele>
        <time>2026-08-14T11:46:38.540Z</time>
      </trkpt>
      <trkpt lat="45.86019" lon="6.7414">
        <ele>1274</ele>
        <time>2026-08-14T11:46:39.540Z</time>
      </trkpt>
      <trkpt lat="45.86019" lon="6.74142">
        <ele>1274</ele>
        <time>2026-08-14T11:46:40.540Z</time>
      </trkpt>
      <trkpt lat="45.8602" lon="6.74144">
        <ele>1274</ele>
        <time>2026-08-14T11:46:41.540Z</time>
      </trkpt>
      <trkpt lat="45.8602" lon="6.74145">
        <ele>1275</ele>
        <time>2026-08-14T11:46:42.540Z</time>
      </trkpt>
      <trkpt lat="45.86021" lon="6.74148">
        <ele>1275</ele>
        <time>2026-08-14T11:46:43.540Z</time>
      </trkpt>
      <trkpt lat="45.86022" lon="6.7415">
        <ele>1275</ele>
        <time>2026-08-14T11:46:44.540Z</time>
      </trkpt>
      <trkpt lat="45.86023" lon="6.74152">
        <ele>1276</ele>
        <time>2026-08-14T11:46:45.540Z</time>
      </trkpt>
      <trkpt lat="45.86024" lon="6.74153">
        <ele>1276</ele>
        <time>2026-08-14T11:46:46.540Z</time>
      </trkpt>
      <trkpt lat="45.86025" lon="6.74155">
        <ele>1276</ele>
        <time>2026-08-14T11:46:47.540Z</time>
      </trkpt>
      <trkpt lat="45.86026" lon="6.74157">
        <ele>1276</ele>
        <time>2026-08-14T11:46:48.540Z</time>
      </trkpt>
      <trkpt lat="45.86027" lon="6.74159">
        <ele>1276</ele>
        <time>2026-08-14T11:46:49.540Z</time>
      </trkpt>
      <trkpt lat="45.86028" lon="6.74161">
        <ele>1276</ele>
        <time>2026-08-14T11:46:50.540Z</time>
      </trkpt>
      <trkpt lat="45.86029" lon="6.74163">
        <ele>1276</ele>
        <time>2026-08-14T11:46:51.540Z</time>
      </trkpt>
      <trkpt lat="45.86029" lon="6.74165">
        <ele>1276</ele>
        <time>2026-08-14T11:46:52.540Z</time>
      </trkpt>
      <trkpt lat="45.86029" lon="6.74167">
        <ele>1276</ele>
        <time>2026-08-14T11:46:53.540Z</time>
      </trkpt>
      <trkpt lat="45.8603" lon="6.74169">
        <ele>1277</ele>
        <time>2026-08-14T11:46:54.540Z</time>
      </trkpt>
      <trkpt lat="45.8603" lon="6.7417">
        <ele>1277</ele>
        <time>2026-08-14T11:46:55.540Z</time>
      </trkpt>
      <trkpt lat="45.8603" lon="6.74172">
        <ele>1277</ele>
        <time>2026-08-14T11:46:56.540Z</time>
      </trkpt>
      <trkpt lat="45.8603" lon="6.74174">
        <ele>1278</ele>
        <time>2026-08-14T11:46:57.540Z</time>
      </trkpt>
      <trkpt lat="45.8603" lon="6.74176">
        <ele>1278</ele>
        <time>2026-08-14T11:46:58.540Z</time>
      </trkpt>
      <trkpt lat="45.86031" lon="6.74178">
        <ele>1278</ele>
        <time>2026-08-14T11:46:59.540Z</time>
      </trkpt>
      <trkpt lat="45.8603" lon="6.74179">
        <ele>1279</ele>
        <time>2026-08-14T11:47:00.540Z</time>
      </trkpt>
      <trkpt lat="45.86031" lon="6.7418">
        <ele>1279</ele>
        <time>2026-08-14T11:47:01.540Z</time>
      </trkpt>
      <trkpt lat="45.86032" lon="6.74182">
        <ele>1280</ele>
        <time>2026-08-14T11:47:02.540Z</time>
      </trkpt>
      <trkpt lat="45.86032" lon="6.74185">
        <ele>1280</ele>
        <time>2026-08-14T11:47:03.540Z</time>
      </trkpt>
      <trkpt lat="45.86032" lon="6.74187">
        <ele>1280</ele>
        <time>2026-08-14T11:47:04.540Z</time>
      </trkpt>
      <trkpt lat="45.86032" lon="6.7419">
        <ele>1280</ele>
        <time>2026-08-14T11:47:05.540Z</time>
      </trkpt>
      <trkpt lat="45.86033" lon="6.74192">
        <ele>1280</ele>
        <time>2026-08-14T11:47:06.540Z</time>
      </trkpt>
      <trkpt lat="45.86034" lon="6.74194">
        <ele>1280</ele>
        <time>2026-08-14T11:47:07.540Z</time>
      </trkpt>
      <trkpt lat="45.86035" lon="6.74196">
        <ele>1280</ele>
        <time>2026-08-14T11:47:08.540Z</time>
      </trkpt>
      <trkpt lat="45.86035" lon="6.74198">
        <ele>1280</ele>
        <time>2026-08-14T11:47:09.540Z</time>
      </trkpt>
      <trkpt lat="45.86036" lon="6.74201">
        <ele>1280</ele>
        <time>2026-08-14T11:47:10.540Z</time>
      </trkpt>
      <trkpt lat="45.86037" lon="6.74203">
        <ele>1280</ele>
        <time>2026-08-14T11:47:11.540Z</time>
      </trkpt>
      <trkpt lat="45.86038" lon="6.74205">
        <ele>1280</ele>
        <time>2026-08-14T11:47:12.540Z</time>
      </trkpt>
      <trkpt lat="45.86039" lon="6.74206">
        <ele>1280</ele>
        <time>2026-08-14T11:47:13.540Z</time>
      </trkpt>
      <trkpt lat="45.8604" lon="6.74208">
        <ele>1280</ele>
        <time>2026-08-14T11:47:14.540Z</time>
      </trkpt>
      <trkpt lat="45.86041" lon="6.7421">
        <ele>1280</ele>
        <time>2026-08-14T11:47:15.540Z</time>
      </trkpt>
      <trkpt lat="45.86042" lon="6.74212">
        <ele>1280</ele>
        <time>2026-08-14T11:47:16.540Z</time>
      </trkpt>
      <trkpt lat="45.86043" lon="6.74214">
        <ele>1280</ele>
        <time>2026-08-14T11:47:17.540Z</time>
      </trkpt>
      <trkpt lat="45.86044" lon="6.74215">
        <ele>1280</ele>
        <time>2026-08-14T11:47:18.540Z</time>
      </trkpt>
      <trkpt lat="45.86046" lon="6.74217">
        <ele>1280</ele>
        <time>2026-08-14T11:47:19.540Z</time>
      </trkpt>
      <trkpt lat="45.86047" lon="6.74218">
        <ele>1280</ele>
        <time>2026-08-14T11:47:20.540Z</time>
      </trkpt>
      <trkpt lat="45.86048" lon="6.7422">
        <ele>1281</ele>
        <time>2026-08-14T11:47:21.540Z</time>
      </trkpt>
      <trkpt lat="45.8605" lon="6.74221">
        <ele>1281</ele>
        <time>2026-08-14T11:47:22.540Z</time>
      </trkpt>
      <trkpt lat="45.86051" lon="6.74223">
        <ele>1282</ele>
        <time>2026-08-14T11:47:23.540Z</time>
      </trkpt>
      <trkpt lat="45.86053" lon="6.74225">
        <ele>1282</ele>
        <time>2026-08-14T11:47:24.540Z</time>
      </trkpt>
      <trkpt lat="45.86054" lon="6.74227">
        <ele>1282</ele>
        <time>2026-08-14T11:47:25.540Z</time>
      </trkpt>
      <trkpt lat="45.86056" lon="6.74229">
        <ele>1282</ele>
        <time>2026-08-14T11:47:26.540Z</time>
      </trkpt>
      <trkpt lat="45.86056" lon="6.74231">
        <ele>1282</ele>
        <time>2026-08-14T11:47:27.540Z</time>
      </trkpt>
      <trkpt lat="45.86057" lon="6.74232">
        <ele>1282</ele>
        <time>2026-08-14T11:47:28.540Z</time>
      </trkpt>
      <trkpt lat="45.86058" lon="6.74233">
        <ele>1282</ele>
        <time>2026-08-14T11:47:29.540Z</time>
      </trkpt>
      <trkpt lat="45.86059" lon="6.74235">
        <ele>1282</ele>
        <time>2026-08-14T11:47:30.540Z</time>
      </trkpt>
      <trkpt lat="45.8606" lon="6.74236">
        <ele>1282</ele>
        <time>2026-08-14T11:47:31.540Z</time>
      </trkpt>
      <trkpt lat="45.86061" lon="6.74239">
        <ele>1282</ele>
        <time>2026-08-14T11:47:32.540Z</time>
      </trkpt>
      <trkpt lat="45.86062" lon="6.74241">
        <ele>1282</ele>
        <time>2026-08-14T11:47:33.540Z</time>
      </trkpt>
      <trkpt lat="45.86064" lon="6.74242">
        <ele>1283</ele>
        <time>2026-08-14T11:47:34.540Z</time>
      </trkpt>
      <trkpt lat="45.86066" lon="6.74243">
        <ele>1283</ele>
        <time>2026-08-14T11:47:35.540Z</time>
      </trkpt>
      <trkpt lat="45.86068" lon="6.74245">
        <ele>1283</ele>
        <time>2026-08-14T11:47:36.540Z</time>
      </trkpt>
      <trkpt lat="45.86069" lon="6.74246">
        <ele>1284</ele>
        <time>2026-08-14T11:47:37.540Z</time>
      </trkpt>
      <trkpt lat="45.86071" lon="6.74248">
        <ele>1285</ele>
        <time>2026-08-14T11:47:38.540Z</time>
      </trkpt>
      <trkpt lat="45.86072" lon="6.74249">
        <ele>1285</ele>
        <time>2026-08-14T11:47:39.540Z</time>
      </trkpt>
      <trkpt lat="45.86074" lon="6.74252">
        <ele>1285</ele>
        <time>2026-08-14T11:47:40.540Z</time>
      </trkpt>
      <trkpt lat="45.86075" lon="6.74254">
        <ele>1286</ele>
        <time>2026-08-14T11:47:41.540Z</time>
      </trkpt>
      <trkpt lat="45.86076" lon="6.74256">
        <ele>1286</ele>
        <time>2026-08-14T11:47:42.540Z</time>
      </trkpt>
      <trkpt lat="45.86078" lon="6.74259">
        <ele>1286</ele>
        <time>2026-08-14T11:47:43.540Z</time>
      </trkpt>
      <trkpt lat="45.86079" lon="6.74261">
        <ele>1286</ele>
        <time>2026-08-14T11:47:44.540Z</time>
      </trkpt>
      <trkpt lat="45.86079" lon="6.74264">
        <ele>1286</ele>
        <time>2026-08-14T11:47:45.540Z</time>
      </trkpt>
      <trkpt lat="45.8608" lon="6.74266">
        <ele>1287</ele>
        <time>2026-08-14T11:47:46.540Z</time>
      </trkpt>
      <trkpt lat="45.86082" lon="6.74268">
        <ele>1287</ele>
        <time>2026-08-14T11:47:47.540Z</time>
      </trkpt>
      <trkpt lat="45.86083" lon="6.7427">
        <ele>1287</ele>
        <time>2026-08-14T11:47:48.540Z</time>
      </trkpt>
      <trkpt lat="45.86085" lon="6.74272">
        <ele>1287</ele>
        <time>2026-08-14T11:47:49.540Z</time>
      </trkpt>
      <trkpt lat="45.86086" lon="6.74274">
        <ele>1287</ele>
        <time>2026-08-14T11:47:50.540Z</time>
      </trkpt>
      <trkpt lat="45.86088" lon="6.74276">
        <ele>1287</ele>
        <time>2026-08-14T11:47:51.540Z</time>
      </trkpt>
      <trkpt lat="45.86089" lon="6.74278">
        <ele>1286</ele>
        <time>2026-08-14T11:47:52.540Z</time>
      </trkpt>
      <trkpt lat="45.86091" lon="6.7428">
        <ele>1286</ele>
        <time>2026-08-14T11:47:53.540Z</time>
      </trkpt>
      <trkpt lat="45.86092" lon="6.74283">
        <ele>1286</ele>
        <time>2026-08-14T11:47:54.540Z</time>
      </trkpt>
      <trkpt lat="45.86094" lon="6.74285">
        <ele>1286</ele>
        <time>2026-08-14T11:47:55.540Z</time>
      </trkpt>
      <trkpt lat="45.86095" lon="6.74287">
        <ele>1285</ele>
        <time>2026-08-14T11:47:56.540Z</time>
      </trkpt>
      <trkpt lat="45.86097" lon="6.7429">
        <ele>1285</ele>
        <time>2026-08-14T11:47:57.540Z</time>
      </trkpt>
      <trkpt lat="45.86098" lon="6.74292">
        <ele>1285</ele>
        <time>2026-08-14T11:47:58.540Z</time>
      </trkpt>
      <trkpt lat="45.86099" lon="6.74294">
        <ele>1284</ele>
        <time>2026-08-14T11:47:59.540Z</time>
      </trkpt>
      <trkpt lat="45.861" lon="6.74296">
        <ele>1284</ele>
        <time>2026-08-14T11:48:00.540Z</time>
      </trkpt>
      <trkpt lat="45.86102" lon="6.74299">
        <ele>1284</ele>
        <time>2026-08-14T11:48:01.540Z</time>
      </trkpt>
      <trkpt lat="45.86102" lon="6.74302">
        <ele>1284</ele>
        <time>2026-08-14T11:48:02.540Z</time>
      </trkpt>
      <trkpt lat="45.86104" lon="6.74304">
        <ele>1284</ele>
        <time>2026-08-14T11:48:03.540Z</time>
      </trkpt>
      <trkpt lat="45.86105" lon="6.74306">
        <ele>1284</ele>
        <time>2026-08-14T11:48:04.540Z</time>
      </trkpt>
      <trkpt lat="45.86106" lon="6.74307">
        <ele>1284</ele>
        <time>2026-08-14T11:48:05.540Z</time>
      </trkpt>
      <trkpt lat="45.86107" lon="6.74309">
        <ele>1285</ele>
        <time>2026-08-14T11:48:06.540Z</time>
      </trkpt>
      <trkpt lat="45.86109" lon="6.74311">
        <ele>1285</ele>
        <time>2026-08-14T11:48:07.540Z</time>
      </trkpt>
      <trkpt lat="45.86109" lon="6.74312">
        <ele>1285</ele>
        <time>2026-08-14T11:48:08.540Z</time>
      </trkpt>
      <trkpt lat="45.86111" lon="6.74314">
        <ele>1285</ele>
        <time>2026-08-14T11:48:09.540Z</time>
      </trkpt>
      <trkpt lat="45.86111" lon="6.74316">
        <ele>1285</ele>
        <time>2026-08-14T11:48:10.540Z</time>
      </trkpt>
      <trkpt lat="45.86112" lon="6.74318">
        <ele>1285</ele>
        <time>2026-08-14T11:48:11.540Z</time>
      </trkpt>
      <trkpt lat="45.86112" lon="6.7432">
        <ele>1285</ele>
        <time>2026-08-14T11:48:12.540Z</time>
      </trkpt>
      <trkpt lat="45.86113" lon="6.74322">
        <ele>1285</ele>
        <time>2026-08-14T11:48:13.540Z</time>
      </trkpt>
      <trkpt lat="45.86115" lon="6.74325">
        <ele>1285</ele>
        <time>2026-08-14T11:48:14.540Z</time>
      </trkpt>
      <trkpt lat="45.86116" lon="6.74327">
        <ele>1285</ele>
        <time>2026-08-14T11:48:15.540Z</time>
      </trkpt>
      <trkpt lat="45.86117" lon="6.74329">
        <ele>1285</ele>
        <time>2026-08-14T11:48:16.540Z</time>
      </trkpt>
      <trkpt lat="45.86118" lon="6.74331">
        <ele>1285</ele>
        <time>2026-08-14T11:48:17.540Z</time>
      </trkpt>
      <trkpt lat="45.86119" lon="6.74334">
        <ele>1286</ele>
        <time>2026-08-14T11:48:18.540Z</time>
      </trkpt>
      <trkpt lat="45.8612" lon="6.74336">
        <ele>1286</ele>
        <time>2026-08-14T11:48:19.540Z</time>
      </trkpt>
      <trkpt lat="45.86121" lon="6.74338">
        <ele>1286</ele>
        <time>2026-08-14T11:48:20.540Z</time>
      </trkpt>
      <trkpt lat="45.86121" lon="6.7434">
        <ele>1286</ele>
        <time>2026-08-14T11:48:21.540Z</time>
      </trkpt>
      <trkpt lat="45.86123" lon="6.74342">
        <ele>1287</ele>
        <time>2026-08-14T11:48:22.540Z</time>
      </trkpt>
      <trkpt lat="45.86124" lon="6.74344">
        <ele>1287</ele>
        <time>2026-08-14T11:48:23.540Z</time>
      </trkpt>
      <trkpt lat="45.86125" lon="6.74346">
        <ele>1287</ele>
        <time>2026-08-14T11:48:24.540Z</time>
      </trkpt>
      <trkpt lat="45.86126" lon="6.74348">
        <ele>1287</ele>
        <time>2026-08-14T11:48:25.540Z</time>
      </trkpt>
      <trkpt lat="45.86127" lon="6.7435">
        <ele>1287</ele>
        <time>2026-08-14T11:48:26.540Z</time>
      </trkpt>
      <trkpt lat="45.86128" lon="6.74351">
        <ele>1286</ele>
        <time>2026-08-14T11:48:27.540Z</time>
      </trkpt>
      <trkpt lat="45.8613" lon="6.74353">
        <ele>1286</ele>
        <time>2026-08-14T11:48:28.540Z</time>
      </trkpt>
      <trkpt lat="45.86131" lon="6.74355">
        <ele>1286</ele>
        <time>2026-08-14T11:48:29.540Z</time>
      </trkpt>
      <trkpt lat="45.86132" lon="6.74357">
        <ele>1286</ele>
        <time>2026-08-14T11:48:30.540Z</time>
      </trkpt>
      <trkpt lat="45.86133" lon="6.74359">
        <ele>1286</ele>
        <time>2026-08-14T11:48:31.540Z</time>
      </trkpt>
      <trkpt lat="45.86134" lon="6.74362">
        <ele>1286</ele>
        <time>2026-08-14T11:48:32.540Z</time>
      </trkpt>
      <trkpt lat="45.86134" lon="6.74365">
        <ele>1286</ele>
        <time>2026-08-14T11:48:33.540Z</time>
      </trkpt>
      <trkpt lat="45.86135" lon="6.74366">
        <ele>1286</ele>
        <time>2026-08-14T11:48:34.540Z</time>
      </trkpt>
      <trkpt lat="45.86136" lon="6.74368">
        <ele>1286</ele>
        <time>2026-08-14T11:48:35.540Z</time>
      </trkpt>
      <trkpt lat="45.86137" lon="6.7437">
        <ele>1286</ele>
        <time>2026-08-14T11:48:36.540Z</time>
      </trkpt>
      <trkpt lat="45.86138" lon="6.74371">
        <ele>1286</ele>
        <time>2026-08-14T11:48:37.540Z</time>
      </trkpt>
      <trkpt lat="45.86139" lon="6.74373">
        <ele>1286</ele>
        <time>2026-08-14T11:48:38.540Z</time>
      </trkpt>
      <trkpt lat="45.8614" lon="6.74375">
        <ele>1286</ele>
        <time>2026-08-14T11:48:39.540Z</time>
      </trkpt>
      <trkpt lat="45.86141" lon="6.74377">
        <ele>1286</ele>
        <time>2026-08-14T11:48:40.540Z</time>
      </trkpt>
      <trkpt lat="45.86142" lon="6.74379">
        <ele>1286</ele>
        <time>2026-08-14T11:48:41.540Z</time>
      </trkpt>
      <trkpt lat="45.86142" lon="6.74381">
        <ele>1287</ele>
        <time>2026-08-14T11:48:42.540Z</time>
      </trkpt>
      <trkpt lat="45.86143" lon="6.74384">
        <ele>1287</ele>
        <time>2026-08-14T11:48:43.540Z</time>
      </trkpt>
      <trkpt lat="45.86144" lon="6.74386">
        <ele>1287</ele>
        <time>2026-08-14T11:48:44.540Z</time>
      </trkpt>
      <trkpt lat="45.86144" lon="6.74389">
        <ele>1287</ele>
        <time>2026-08-14T11:48:45.540Z</time>
      </trkpt>
      <trkpt lat="45.86145" lon="6.74391">
        <ele>1287</ele>
        <time>2026-08-14T11:48:46.540Z</time>
      </trkpt>
      <trkpt lat="45.86146" lon="6.74394">
        <ele>1287</ele>
        <time>2026-08-14T11:48:47.540Z</time>
      </trkpt>
      <trkpt lat="45.86146" lon="6.74396">
        <ele>1287</ele>
        <time>2026-08-14T11:48:48.540Z</time>
      </trkpt>
      <trkpt lat="45.86147" lon="6.74397">
        <ele>1287</ele>
        <time>2026-08-14T11:48:49.540Z</time>
      </trkpt>
      <trkpt lat="45.86148" lon="6.74399">
        <ele>1288</ele>
        <time>2026-08-14T11:48:50.540Z</time>
      </trkpt>
      <trkpt lat="45.86148" lon="6.74402">
        <ele>1287</ele>
        <time>2026-08-14T11:48:51.540Z</time>
      </trkpt>
      <trkpt lat="45.8615" lon="6.74405">
        <ele>1287</ele>
        <time>2026-08-14T11:48:52.540Z</time>
      </trkpt>
      <trkpt lat="45.86151" lon="6.74408">
        <ele>1288</ele>
        <time>2026-08-14T11:48:53.540Z</time>
      </trkpt>
      <trkpt lat="45.86152" lon="6.74411">
        <ele>1287</ele>
        <time>2026-08-14T11:48:54.540Z</time>
      </trkpt>
      <trkpt lat="45.86152" lon="6.74414">
        <ele>1287</ele>
        <time>2026-08-14T11:48:55.540Z</time>
      </trkpt>
      <trkpt lat="45.86153" lon="6.74416">
        <ele>1286</ele>
        <time>2026-08-14T11:48:56.540Z</time>
      </trkpt>
      <trkpt lat="45.86154" lon="6.74419">
        <ele>1286</ele>
        <time>2026-08-14T11:48:57.540Z</time>
      </trkpt>
      <trkpt lat="45.86155" lon="6.74421">
        <ele>1286</ele>
        <time>2026-08-14T11:48:58.540Z</time>
      </trkpt>
      <trkpt lat="45.86156" lon="6.74423">
        <ele>1286</ele>
        <time>2026-08-14T11:48:59.540Z</time>
      </trkpt>
      <trkpt lat="45.86157" lon="6.74424">
        <ele>1286</ele>
        <time>2026-08-14T11:49:00.540Z</time>
      </trkpt>
      <trkpt lat="45.86158" lon="6.74426">
        <ele>1285</ele>
        <time>2026-08-14T11:49:01.540Z</time>
      </trkpt>
      <trkpt lat="45.86158" lon="6.74427">
        <ele>1285</ele>
        <time>2026-08-14T11:49:02.540Z</time>
      </trkpt>
      <trkpt lat="45.86159" lon="6.74428">
        <ele>1284</ele>
        <time>2026-08-14T11:49:03.540Z</time>
      </trkpt>
      <trkpt lat="45.86161" lon="6.74429">
        <ele>1284</ele>
        <time>2026-08-14T11:49:04.540Z</time>
      </trkpt>
      <trkpt lat="45.86162" lon="6.7443">
        <ele>1283</ele>
        <time>2026-08-14T11:49:05.540Z</time>
      </trkpt>
      <trkpt lat="45.86163" lon="6.74432">
        <ele>1283</ele>
        <time>2026-08-14T11:49:06.540Z</time>
      </trkpt>
      <trkpt lat="45.86163" lon="6.74433">
        <ele>1283</ele>
        <time>2026-08-14T11:49:07.540Z</time>
      </trkpt>
      <trkpt lat="45.86164" lon="6.74434">
        <ele>1283</ele>
        <time>2026-08-14T11:49:08.540Z</time>
      </trkpt>
      <trkpt lat="45.86165" lon="6.74435">
        <ele>1283</ele>
        <time>2026-08-14T11:49:09.540Z</time>
      </trkpt>
      <trkpt lat="45.86166" lon="6.74436">
        <ele>1282</ele>
        <time>2026-08-14T11:49:10.540Z</time>
      </trkpt>
      <trkpt lat="45.86167" lon="6.74436">
        <ele>1282</ele>
        <time>2026-08-14T11:49:11.540Z</time>
      </trkpt>
      <trkpt lat="45.86168" lon="6.74437">
        <ele>1281</ele>
        <time>2026-08-14T11:49:12.540Z</time>
      </trkpt>
      <trkpt lat="45.86169" lon="6.74437">
        <ele>1281</ele>
        <time>2026-08-14T11:49:13.540Z</time>
      </trkpt>
      <trkpt lat="45.8617" lon="6.74438">
        <ele>1281</ele>
        <time>2026-08-14T11:49:14.540Z</time>
      </trkpt>
      <trkpt lat="45.86171" lon="6.74439">
        <ele>1281</ele>
        <time>2026-08-14T11:49:15.540Z</time>
      </trkpt>
      <trkpt lat="45.86172" lon="6.74441">
        <ele>1280</ele>
        <time>2026-08-14T11:49:16.540Z</time>
      </trkpt>
      <trkpt lat="45.86173" lon="6.74442">
        <ele>1280</ele>
        <time>2026-08-14T11:49:17.540Z</time>
      </trkpt>
      <trkpt lat="45.86173" lon="6.74444">
        <ele>1280</ele>
        <time>2026-08-14T11:49:18.540Z</time>
      </trkpt>
      <trkpt lat="45.86174" lon="6.74445">
        <ele>1280</ele>
        <time>2026-08-14T11:49:19.540Z</time>
      </trkpt>
      <trkpt lat="45.86175" lon="6.74447">
        <ele>1280</ele>
        <time>2026-08-14T11:49:20.540Z</time>
      </trkpt>
      <trkpt lat="45.86175" lon="6.74449">
        <ele>1280</ele>
        <time>2026-08-14T11:49:21.540Z</time>
      </trkpt>
      <trkpt lat="45.86175" lon="6.7445">
        <ele>1280</ele>
        <time>2026-08-14T11:49:22.540Z</time>
      </trkpt>
      <trkpt lat="45.86176" lon="6.74452">
        <ele>1280</ele>
        <time>2026-08-14T11:49:23.540Z</time>
      </trkpt>
      <trkpt lat="45.86175" lon="6.74454">
        <ele>1280</ele>
        <time>2026-08-14T11:49:24.540Z</time>
      </trkpt>
      <trkpt lat="45.86175" lon="6.74456">
        <ele>1279</ele>
        <time>2026-08-14T11:49:25.540Z</time>
      </trkpt>
      <trkpt lat="45.86175" lon="6.74458">
        <ele>1279</ele>
        <time>2026-08-14T11:49:26.540Z</time>
      </trkpt>
      <trkpt lat="45.86175" lon="6.7446">
        <ele>1280</ele>
        <time>2026-08-14T11:49:27.540Z</time>
      </trkpt>
      <trkpt lat="45.86175" lon="6.74462">
        <ele>1280</ele>
        <time>2026-08-14T11:49:28.540Z</time>
      </trkpt>
      <trkpt lat="45.86175" lon="6.74464">
        <ele>1280</ele>
        <time>2026-08-14T11:49:29.540Z</time>
      </trkpt>
      <trkpt lat="45.86175" lon="6.74466">
        <ele>1281</ele>
        <time>2026-08-14T11:49:30.540Z</time>
      </trkpt>
      <trkpt lat="45.86174" lon="6.74468">
        <ele>1281</ele>
        <time>2026-08-14T11:49:31.540Z</time>
      </trkpt>
      <trkpt lat="45.86174" lon="6.7447">
        <ele>1281</ele>
        <time>2026-08-14T11:49:32.540Z</time>
      </trkpt>
      <trkpt lat="45.86175" lon="6.74473">
        <ele>1281</ele>
        <time>2026-08-14T11:49:33.540Z</time>
      </trkpt>
      <trkpt lat="45.86175" lon="6.74475">
        <ele>1280</ele>
        <time>2026-08-14T11:49:34.540Z</time>
      </trkpt>
      <trkpt lat="45.86175" lon="6.74477">
        <ele>1280</ele>
        <time>2026-08-14T11:49:35.540Z</time>
      </trkpt>
      <trkpt lat="45.86175" lon="6.7448">
        <ele>1280</ele>
        <time>2026-08-14T11:49:36.540Z</time>
      </trkpt>
      <trkpt lat="45.86174" lon="6.74482">
        <ele>1280</ele>
        <time>2026-08-14T11:49:37.540Z</time>
      </trkpt>
      <trkpt lat="45.86174" lon="6.74485">
        <ele>1280</ele>
        <time>2026-08-14T11:49:38.540Z</time>
      </trkpt>
      <trkpt lat="45.86174" lon="6.74488">
        <ele>1281</ele>
        <time>2026-08-14T11:49:39.540Z</time>
      </trkpt>
      <trkpt lat="45.86174" lon="6.74491">
        <ele>1281</ele>
        <time>2026-08-14T11:49:40.540Z</time>
      </trkpt>
      <trkpt lat="45.86174" lon="6.74494">
        <ele>1282</ele>
        <time>2026-08-14T11:49:41.540Z</time>
      </trkpt>
      <trkpt lat="45.86174" lon="6.74497">
        <ele>1283</ele>
        <time>2026-08-14T11:49:42.540Z</time>
      </trkpt>
      <trkpt lat="45.86173" lon="6.74499">
        <ele>1283</ele>
        <time>2026-08-14T11:49:43.540Z</time>
      </trkpt>
      <trkpt lat="45.86172" lon="6.74502">
        <ele>1284</ele>
        <time>2026-08-14T11:49:44.540Z</time>
      </trkpt>
      <trkpt lat="45.8617" lon="6.74505">
        <ele>1284</ele>
        <time>2026-08-14T11:49:45.540Z</time>
      </trkpt>
      <trkpt lat="45.86168" lon="6.74508">
        <ele>1284</ele>
        <time>2026-08-14T11:49:46.540Z</time>
      </trkpt>
      <trkpt lat="45.86167" lon="6.74511">
        <ele>1284</ele>
        <time>2026-08-14T11:49:47.540Z</time>
      </trkpt>
      <trkpt lat="45.86166" lon="6.74513">
        <ele>1284</ele>
        <time>2026-08-14T11:49:48.540Z</time>
      </trkpt>
      <trkpt lat="45.86165" lon="6.74515">
        <ele>1284</ele>
        <time>2026-08-14T11:49:49.540Z</time>
      </trkpt>
      <trkpt lat="45.86165" lon="6.74517">
        <ele>1284</ele>
        <time>2026-08-14T11:49:50.540Z</time>
      </trkpt>
      <trkpt lat="45.86164" lon="6.74519">
        <ele>1284</ele>
        <time>2026-08-14T11:49:51.540Z</time>
      </trkpt>
      <trkpt lat="45.86164" lon="6.74521">
        <ele>1284</ele>
        <time>2026-08-14T11:49:52.540Z</time>
      </trkpt>
      <trkpt lat="45.86164" lon="6.74522">
        <ele>1285</ele>
        <time>2026-08-14T11:49:53.540Z</time>
      </trkpt>
      <trkpt lat="45.86164" lon="6.74524">
        <ele>1285</ele>
        <time>2026-08-14T11:49:54.540Z</time>
      </trkpt>
      <trkpt lat="45.86163" lon="6.74526">
        <ele>1285</ele>
        <time>2026-08-14T11:49:55.540Z</time>
      </trkpt>
      <trkpt lat="45.86162" lon="6.74528">
        <ele>1285</ele>
        <time>2026-08-14T11:49:56.540Z</time>
      </trkpt>
      <trkpt lat="45.8616" lon="6.74531">
        <ele>1286</ele>
        <time>2026-08-14T11:49:57.540Z</time>
      </trkpt>
      <trkpt lat="45.86159" lon="6.74534">
        <ele>1287</ele>
        <time>2026-08-14T11:49:58.540Z</time>
      </trkpt>
      <trkpt lat="45.86158" lon="6.74535">
        <ele>1287</ele>
        <time>2026-08-14T11:49:59.540Z</time>
      </trkpt>
      <trkpt lat="45.86157" lon="6.74537">
        <ele>1287</ele>
        <time>2026-08-14T11:50:00.540Z</time>
      </trkpt>
      <trkpt lat="45.86157" lon="6.7454">
        <ele>1287</ele>
        <time>2026-08-14T11:50:01.540Z</time>
      </trkpt>
      <trkpt lat="45.86156" lon="6.74543">
        <ele>1287</ele>
        <time>2026-08-14T11:50:02.540Z</time>
      </trkpt>
      <trkpt lat="45.86156" lon="6.74546">
        <ele>1288</ele>
        <time>2026-08-14T11:50:03.540Z</time>
      </trkpt>
      <trkpt lat="45.86154" lon="6.74549">
        <ele>1288</ele>
        <time>2026-08-14T11:50:04.540Z</time>
      </trkpt>
      <trkpt lat="45.86154" lon="6.74552">
        <ele>1288</ele>
        <time>2026-08-14T11:50:05.540Z</time>
      </trkpt>
      <trkpt lat="45.86153" lon="6.74555">
        <ele>1289</ele>
        <time>2026-08-14T11:50:06.540Z</time>
      </trkpt>
      <trkpt lat="45.86153" lon="6.74558">
        <ele>1289</ele>
        <time>2026-08-14T11:50:07.540Z</time>
      </trkpt>
      <trkpt lat="45.86152" lon="6.74561">
        <ele>1289</ele>
        <time>2026-08-14T11:50:08.540Z</time>
      </trkpt>
      <trkpt lat="45.86152" lon="6.74564">
        <ele>1290</ele>
        <time>2026-08-14T11:50:09.540Z</time>
      </trkpt>
      <trkpt lat="45.86152" lon="6.74567">
        <ele>1290</ele>
        <time>2026-08-14T11:50:10.540Z</time>
      </trkpt>
      <trkpt lat="45.86151" lon="6.7457">
        <ele>1291</ele>
        <time>2026-08-14T11:50:11.540Z</time>
      </trkpt>
      <trkpt lat="45.86151" lon="6.74573">
        <ele>1291</ele>
        <time>2026-08-14T11:50:12.540Z</time>
      </trkpt>
      <trkpt lat="45.86151" lon="6.74576">
        <ele>1291</ele>
        <time>2026-08-14T11:50:13.540Z</time>
      </trkpt>
      <trkpt lat="45.8615" lon="6.74579">
        <ele>1292</ele>
        <time>2026-08-14T11:50:14.540Z</time>
      </trkpt>
      <trkpt lat="45.8615" lon="6.74582">
        <ele>1292</ele>
        <time>2026-08-14T11:50:15.540Z</time>
      </trkpt>
      <trkpt lat="45.86149" lon="6.74585">
        <ele>1292</ele>
        <time>2026-08-14T11:50:16.540Z</time>
      </trkpt>
      <trkpt lat="45.86149" lon="6.74589">
        <ele>1291</ele>
        <time>2026-08-14T11:50:17.540Z</time>
      </trkpt>
      <trkpt lat="45.86149" lon="6.74592">
        <ele>1291</ele>
        <time>2026-08-14T11:50:18.540Z</time>
      </trkpt>
      <trkpt lat="45.86148" lon="6.74595">
        <ele>1290</ele>
        <time>2026-08-14T11:50:19.540Z</time>
      </trkpt>
      <trkpt lat="45.86148" lon="6.74599">
        <ele>1290</ele>
        <time>2026-08-14T11:50:20.540Z</time>
      </trkpt>
      <trkpt lat="45.86147" lon="6.74602">
        <ele>1289</ele>
        <time>2026-08-14T11:50:21.540Z</time>
      </trkpt>
      <trkpt lat="45.86146" lon="6.74605">
        <ele>1288</ele>
        <time>2026-08-14T11:50:22.540Z</time>
      </trkpt>
      <trkpt lat="45.86145" lon="6.74608">
        <ele>1288</ele>
        <time>2026-08-14T11:50:23.540Z</time>
      </trkpt>
      <trkpt lat="45.86145" lon="6.74612">
        <ele>1287</ele>
        <time>2026-08-14T11:50:24.540Z</time>
      </trkpt>
      <trkpt lat="45.86145" lon="6.74615">
        <ele>1286</ele>
        <time>2026-08-14T11:50:25.540Z</time>
      </trkpt>
      <trkpt lat="45.86144" lon="6.74618">
        <ele>1286</ele>
        <time>2026-08-14T11:50:26.540Z</time>
      </trkpt>
      <trkpt lat="45.86143" lon="6.74622">
        <ele>1285</ele>
        <time>2026-08-14T11:50:27.540Z</time>
      </trkpt>
      <trkpt lat="45.86143" lon="6.74625">
        <ele>1285</ele>
        <time>2026-08-14T11:50:28.540Z</time>
      </trkpt>
      <trkpt lat="45.86142" lon="6.74628">
        <ele>1284</ele>
        <time>2026-08-14T11:50:29.540Z</time>
      </trkpt>
      <trkpt lat="45.86142" lon="6.74631">
        <ele>1284</ele>
        <time>2026-08-14T11:50:30.540Z</time>
      </trkpt>
      <trkpt lat="45.86141" lon="6.74634">
        <ele>1284</ele>
        <time>2026-08-14T11:50:31.540Z</time>
      </trkpt>
      <trkpt lat="45.86141" lon="6.74637">
        <ele>1284</ele>
        <time>2026-08-14T11:50:32.540Z</time>
      </trkpt>
      <trkpt lat="45.8614" lon="6.7464">
        <ele>1284</ele>
        <time>2026-08-14T11:50:33.540Z</time>
      </trkpt>
      <trkpt lat="45.86139" lon="6.74643">
        <ele>1284</ele>
        <time>2026-08-14T11:50:34.540Z</time>
      </trkpt>
      <trkpt lat="45.86139" lon="6.74647">
        <ele>1284</ele>
        <time>2026-08-14T11:50:35.540Z</time>
      </trkpt>
      <trkpt lat="45.86139" lon="6.7465">
        <ele>1283</ele>
        <time>2026-08-14T11:50:36.540Z</time>
      </trkpt>
      <trkpt lat="45.86139" lon="6.74653">
        <ele>1284</ele>
        <time>2026-08-14T11:50:37.540Z</time>
      </trkpt>
      <trkpt lat="45.86139" lon="6.74657">
        <ele>1284</ele>
        <time>2026-08-14T11:50:38.540Z</time>
      </trkpt>
      <trkpt lat="45.86138" lon="6.74661">
        <ele>1284</ele>
        <time>2026-08-14T11:50:39.540Z</time>
      </trkpt>
      <trkpt lat="45.86137" lon="6.74664">
        <ele>1284</ele>
        <time>2026-08-14T11:50:40.540Z</time>
      </trkpt>
      <trkpt lat="45.86136" lon="6.74668">
        <ele>1283</ele>
        <time>2026-08-14T11:50:41.540Z</time>
      </trkpt>
      <trkpt lat="45.86135" lon="6.74672">
        <ele>1283</ele>
        <time>2026-08-14T11:50:42.540Z</time>
      </trkpt>
      <trkpt lat="45.86133" lon="6.74675">
        <ele>1283</ele>
        <time>2026-08-14T11:50:43.540Z</time>
      </trkpt>
      <trkpt lat="45.86133" lon="6.74678">
        <ele>1282</ele>
        <time>2026-08-14T11:50:44.540Z</time>
      </trkpt>
      <trkpt lat="45.86132" lon="6.74681">
        <ele>1282</ele>
        <time>2026-08-14T11:50:45.540Z</time>
      </trkpt>
      <trkpt lat="45.86132" lon="6.74684">
        <ele>1282</ele>
        <time>2026-08-14T11:50:46.540Z</time>
      </trkpt>
      <trkpt lat="45.86131" lon="6.74687">
        <ele>1282</ele>
        <time>2026-08-14T11:50:47.540Z</time>
      </trkpt>
      <trkpt lat="45.8613" lon="6.7469">
        <ele>1281</ele>
        <time>2026-08-14T11:50:48.540Z</time>
      </trkpt>
      <trkpt lat="45.86129" lon="6.74693">
        <ele>1281</ele>
        <time>2026-08-14T11:50:49.540Z</time>
      </trkpt>
      <trkpt lat="45.86129" lon="6.74696">
        <ele>1281</ele>
        <time>2026-08-14T11:50:50.540Z</time>
      </trkpt>
      <trkpt lat="45.86129" lon="6.74698">
        <ele>1281</ele>
        <time>2026-08-14T11:50:51.540Z</time>
      </trkpt>
      <trkpt lat="45.86129" lon="6.74702">
        <ele>1281</ele>
        <time>2026-08-14T11:50:52.540Z</time>
      </trkpt>
      <trkpt lat="45.86128" lon="6.74705">
        <ele>1281</ele>
        <time>2026-08-14T11:50:53.540Z</time>
      </trkpt>
      <trkpt lat="45.86127" lon="6.74708">
        <ele>1281</ele>
        <time>2026-08-14T11:50:54.540Z</time>
      </trkpt>
      <trkpt lat="45.86127" lon="6.74711">
        <ele>1281</ele>
        <time>2026-08-14T11:50:55.540Z</time>
      </trkpt>
      <trkpt lat="45.86126" lon="6.74714">
        <ele>1281</ele>
        <time>2026-08-14T11:50:56.540Z</time>
      </trkpt>
      <trkpt lat="45.86124" lon="6.74717">
        <ele>1282</ele>
        <time>2026-08-14T11:50:57.540Z</time>
      </trkpt>
      <trkpt lat="45.86123" lon="6.7472">
        <ele>1282</ele>
        <time>2026-08-14T11:50:58.540Z</time>
      </trkpt>
      <trkpt lat="45.86123" lon="6.74723">
        <ele>1283</ele>
        <time>2026-08-14T11:50:59.540Z</time>
      </trkpt>
      <trkpt lat="45.86122" lon="6.74725">
        <ele>1284</ele>
        <time>2026-08-14T11:51:00.540Z</time>
      </trkpt>
      <trkpt lat="45.86122" lon="6.74729">
        <ele>1284</ele>
        <time>2026-08-14T11:51:01.540Z</time>
      </trkpt>
      <trkpt lat="45.8612" lon="6.74732">
        <ele>1284</ele>
        <time>2026-08-14T11:51:02.540Z</time>
      </trkpt>
      <trkpt lat="45.86118" lon="6.74735">
        <ele>1284</ele>
        <time>2026-08-14T11:51:03.540Z</time>
      </trkpt>
      <trkpt lat="45.86116" lon="6.74738">
        <ele>1284</ele>
        <time>2026-08-14T11:51:04.540Z</time>
      </trkpt>
      <trkpt lat="45.86114" lon="6.74741">
        <ele>1284</ele>
        <time>2026-08-14T11:51:05.540Z</time>
      </trkpt>
      <trkpt lat="45.86112" lon="6.74744">
        <ele>1284</ele>
        <time>2026-08-14T11:51:06.540Z</time>
      </trkpt>
      <trkpt lat="45.86111" lon="6.74747">
        <ele>1284</ele>
        <time>2026-08-14T11:51:07.540Z</time>
      </trkpt>
      <trkpt lat="45.8611" lon="6.74749">
        <ele>1284</ele>
        <time>2026-08-14T11:51:08.540Z</time>
      </trkpt>
      <trkpt lat="45.86108" lon="6.74751">
        <ele>1284</ele>
        <time>2026-08-14T11:51:09.540Z</time>
      </trkpt>
      <trkpt lat="45.86107" lon="6.74752">
        <ele>1284</ele>
        <time>2026-08-14T11:51:10.540Z</time>
      </trkpt>
      <trkpt lat="45.86108" lon="6.74754">
        <ele>1285</ele>
        <time>2026-08-14T11:51:11.540Z</time>
      </trkpt>
      <trkpt lat="45.86108" lon="6.74757">
        <ele>1285</ele>
        <time>2026-08-14T11:51:12.540Z</time>
      </trkpt>
      <trkpt lat="45.86108" lon="6.7476">
        <ele>1285</ele>
        <time>2026-08-14T11:51:13.540Z</time>
      </trkpt>
      <trkpt lat="45.86108" lon="6.74762">
        <ele>1285</ele>
        <time>2026-08-14T11:51:14.540Z</time>
      </trkpt>
      <trkpt lat="45.86108" lon="6.74765">
        <ele>1285</ele>
        <time>2026-08-14T11:51:15.540Z</time>
      </trkpt>
      <trkpt lat="45.86108" lon="6.74767">
        <ele>1285</ele>
        <time>2026-08-14T11:51:16.540Z</time>
      </trkpt>
      <trkpt lat="45.86108" lon="6.7477">
        <ele>1285</ele>
        <time>2026-08-14T11:51:17.540Z</time>
      </trkpt>
      <trkpt lat="45.86107" lon="6.74773">
        <ele>1284</ele>
        <time>2026-08-14T11:51:18.540Z</time>
      </trkpt>
      <trkpt lat="45.86106" lon="6.74776">
        <ele>1284</ele>
        <time>2026-08-14T11:51:19.540Z</time>
      </trkpt>
      <trkpt lat="45.86105" lon="6.74778">
        <ele>1283</ele>
        <time>2026-08-14T11:51:20.540Z</time>
      </trkpt>
      <trkpt lat="45.86104" lon="6.74781">
        <ele>1283</ele>
        <time>2026-08-14T11:51:21.540Z</time>
      </trkpt>
      <trkpt lat="45.86102" lon="6.74784">
        <ele>1282</ele>
        <time>2026-08-14T11:51:22.540Z</time>
      </trkpt>
      <trkpt lat="45.861" lon="6.74787">
        <ele>1281</ele>
        <time>2026-08-14T11:51:23.540Z</time>
      </trkpt>
      <trkpt lat="45.86099" lon="6.7479">
        <ele>1280</ele>
        <time>2026-08-14T11:51:24.540Z</time>
      </trkpt>
      <trkpt lat="45.86098" lon="6.74793">
        <ele>1280</ele>
        <time>2026-08-14T11:51:25.540Z</time>
      </trkpt>
      <trkpt lat="45.86097" lon="6.74795">
        <ele>1279</ele>
        <time>2026-08-14T11:51:26.540Z</time>
      </trkpt>
      <trkpt lat="45.86096" lon="6.74798">
        <ele>1280</ele>
        <time>2026-08-14T11:51:27.540Z</time>
      </trkpt>
      <trkpt lat="45.86096" lon="6.748">
        <ele>1280</ele>
        <time>2026-08-14T11:51:28.540Z</time>
      </trkpt>
      <trkpt lat="45.86095" lon="6.74802">
        <ele>1280</ele>
        <time>2026-08-14T11:51:29.540Z</time>
      </trkpt>
      <trkpt lat="45.86095" lon="6.74804">
        <ele>1281</ele>
        <time>2026-08-14T11:51:30.540Z</time>
      </trkpt>
      <trkpt lat="45.86095" lon="6.74807">
        <ele>1281</ele>
        <time>2026-08-14T11:51:31.540Z</time>
      </trkpt>
      <trkpt lat="45.86095" lon="6.74811">
        <ele>1281</ele>
        <time>2026-08-14T11:51:32.540Z</time>
      </trkpt>
      <trkpt lat="45.86095" lon="6.74814">
        <ele>1281</ele>
        <time>2026-08-14T11:51:33.540Z</time>
      </trkpt>
      <trkpt lat="45.86095" lon="6.74817">
        <ele>1281</ele>
        <time>2026-08-14T11:51:34.540Z</time>
      </trkpt>
      <trkpt lat="45.86095" lon="6.7482">
        <ele>1281</ele>
        <time>2026-08-14T11:51:35.540Z</time>
      </trkpt>
      <trkpt lat="45.86094" lon="6.74823">
        <ele>1280</ele>
        <time>2026-08-14T11:51:36.540Z</time>
      </trkpt>
      <trkpt lat="45.86093" lon="6.74825">
        <ele>1280</ele>
        <time>2026-08-14T11:51:37.540Z</time>
      </trkpt>
      <trkpt lat="45.86093" lon="6.74827">
        <ele>1280</ele>
        <time>2026-08-14T11:51:38.540Z</time>
      </trkpt>
      <trkpt lat="45.86092" lon="6.74829">
        <ele>1280</ele>
        <time>2026-08-14T11:51:39.540Z</time>
      </trkpt>
      <trkpt lat="45.86092" lon="6.74832">
        <ele>1281</ele>
        <time>2026-08-14T11:51:40.540Z</time>
      </trkpt>
      <trkpt lat="45.86092" lon="6.74834">
        <ele>1281</ele>
        <time>2026-08-14T11:51:41.540Z</time>
      </trkpt>
      <trkpt lat="45.86092" lon="6.74837">
        <ele>1281</ele>
        <time>2026-08-14T11:51:42.540Z</time>
      </trkpt>
      <trkpt lat="45.86093" lon="6.74839">
        <ele>1281</ele>
        <time>2026-08-14T11:51:43.540Z</time>
      </trkpt>
      <trkpt lat="45.86093" lon="6.74842">
        <ele>1281</ele>
        <time>2026-08-14T11:51:44.540Z</time>
      </trkpt>
      <trkpt lat="45.86094" lon="6.74844">
        <ele>1280</ele>
        <time>2026-08-14T11:51:45.540Z</time>
      </trkpt>
      <trkpt lat="45.86095" lon="6.74846">
        <ele>1280</ele>
        <time>2026-08-14T11:51:46.540Z</time>
      </trkpt>
      <trkpt lat="45.86096" lon="6.74847">
        <ele>1280</ele>
        <time>2026-08-14T11:51:47.540Z</time>
      </trkpt>
      <trkpt lat="45.86098" lon="6.74848">
        <ele>1280</ele>
        <time>2026-08-14T11:51:48.540Z</time>
      </trkpt>
      <trkpt lat="45.861" lon="6.7485">
        <ele>1280</ele>
        <time>2026-08-14T11:51:49.540Z</time>
      </trkpt>
      <trkpt lat="45.86101" lon="6.74851">
        <ele>1280</ele>
        <time>2026-08-14T11:51:50.540Z</time>
      </trkpt>
      <trkpt lat="45.86103" lon="6.74853">
        <ele>1280</ele>
        <time>2026-08-14T11:51:51.540Z</time>
      </trkpt>
      <trkpt lat="45.86104" lon="6.74854">
        <ele>1281</ele>
        <time>2026-08-14T11:51:52.540Z</time>
      </trkpt>
      <trkpt lat="45.86105" lon="6.74856">
        <ele>1281</ele>
        <time>2026-08-14T11:51:53.540Z</time>
      </trkpt>
      <trkpt lat="45.86106" lon="6.74859">
        <ele>1281</ele>
        <time>2026-08-14T11:51:54.540Z</time>
      </trkpt>
      <trkpt lat="45.86106" lon="6.74862">
        <ele>1281</ele>
        <time>2026-08-14T11:51:55.540Z</time>
      </trkpt>
      <trkpt lat="45.86106" lon="6.74866">
        <ele>1281</ele>
        <time>2026-08-14T11:51:56.540Z</time>
      </trkpt>
      <trkpt lat="45.86106" lon="6.74869">
        <ele>1281</ele>
        <time>2026-08-14T11:51:57.540Z</time>
      </trkpt>
      <trkpt lat="45.86107" lon="6.74873">
        <ele>1281</ele>
        <time>2026-08-14T11:51:58.540Z</time>
      </trkpt>
      <trkpt lat="45.86108" lon="6.74876">
        <ele>1281</ele>
        <time>2026-08-14T11:51:59.540Z</time>
      </trkpt>
      <trkpt lat="45.86109" lon="6.74879">
        <ele>1281</ele>
        <time>2026-08-14T11:52:00.540Z</time>
      </trkpt>
      <trkpt lat="45.8611" lon="6.74882">
        <ele>1281</ele>
        <time>2026-08-14T11:52:01.540Z</time>
      </trkpt>
      <trkpt lat="45.8611" lon="6.74884">
        <ele>1281</ele>
        <time>2026-08-14T11:52:02.540Z</time>
      </trkpt>
      <trkpt lat="45.86111" lon="6.74886">
        <ele>1282</ele>
        <time>2026-08-14T11:52:03.540Z</time>
      </trkpt>
      <trkpt lat="45.86112" lon="6.74887">
        <ele>1282</ele>
        <time>2026-08-14T11:52:04.540Z</time>
      </trkpt>
      <trkpt lat="45.86113" lon="6.74888">
        <ele>1282</ele>
        <time>2026-08-14T11:52:05.540Z</time>
      </trkpt>
      <trkpt lat="45.86115" lon="6.74888">
        <ele>1283</ele>
        <time>2026-08-14T11:52:06.540Z</time>
      </trkpt>
      <trkpt lat="45.86117" lon="6.74889">
        <ele>1284</ele>
        <time>2026-08-14T11:52:07.540Z</time>
      </trkpt>
      <trkpt lat="45.86118" lon="6.74891">
        <ele>1285</ele>
        <time>2026-08-14T11:52:08.540Z</time>
      </trkpt>
      <trkpt lat="45.8612" lon="6.74892">
        <ele>1285</ele>
        <time>2026-08-14T11:52:09.540Z</time>
      </trkpt>
      <trkpt lat="45.86122" lon="6.74893">
        <ele>1286</ele>
        <time>2026-08-14T11:52:10.540Z</time>
      </trkpt>
      <trkpt lat="45.86124" lon="6.74894">
        <ele>1287</ele>
        <time>2026-08-14T11:52:11.540Z</time>
      </trkpt>
      <trkpt lat="45.86125" lon="6.74896">
        <ele>1288</ele>
        <time>2026-08-14T11:52:12.540Z</time>
      </trkpt>
      <trkpt lat="45.86127" lon="6.74897">
        <ele>1289</ele>
        <time>2026-08-14T11:52:13.540Z</time>
      </trkpt>
      <trkpt lat="45.86128" lon="6.74899">
        <ele>1289</ele>
        <time>2026-08-14T11:52:14.540Z</time>
      </trkpt>
      <trkpt lat="45.8613" lon="6.749">
        <ele>1289</ele>
        <time>2026-08-14T11:52:15.540Z</time>
      </trkpt>
      <trkpt lat="45.86132" lon="6.74903">
        <ele>1289</ele>
        <time>2026-08-14T11:52:16.540Z</time>
      </trkpt>
      <trkpt lat="45.86133" lon="6.74905">
        <ele>1289</ele>
        <time>2026-08-14T11:52:17.540Z</time>
      </trkpt>
      <trkpt lat="45.86135" lon="6.74907">
        <ele>1288</ele>
        <time>2026-08-14T11:52:18.540Z</time>
      </trkpt>
      <trkpt lat="45.86137" lon="6.74909">
        <ele>1288</ele>
        <time>2026-08-14T11:52:19.540Z</time>
      </trkpt>
      <trkpt lat="45.86138" lon="6.74911">
        <ele>1287</ele>
        <time>2026-08-14T11:52:20.540Z</time>
      </trkpt>
      <trkpt lat="45.86139" lon="6.74913">
        <ele>1287</ele>
        <time>2026-08-14T11:52:21.540Z</time>
      </trkpt>
      <trkpt lat="45.8614" lon="6.74916">
        <ele>1286</ele>
        <time>2026-08-14T11:52:22.540Z</time>
      </trkpt>
      <trkpt lat="45.8614" lon="6.74919">
        <ele>1285</ele>
        <time>2026-08-14T11:52:23.540Z</time>
      </trkpt>
      <trkpt lat="45.86141" lon="6.74922">
        <ele>1284</ele>
        <time>2026-08-14T11:52:24.540Z</time>
      </trkpt>
      <trkpt lat="45.86142" lon="6.74925">
        <ele>1284</ele>
        <time>2026-08-14T11:52:25.540Z</time>
      </trkpt>
      <trkpt lat="45.86142" lon="6.74928">
        <ele>1283</ele>
        <time>2026-08-14T11:52:26.540Z</time>
      </trkpt>
      <trkpt lat="45.86143" lon="6.74931">
        <ele>1282</ele>
        <time>2026-08-14T11:52:27.540Z</time>
      </trkpt>
      <trkpt lat="45.86142" lon="6.74934">
        <ele>1282</ele>
        <time>2026-08-14T11:52:28.540Z</time>
      </trkpt>
      <trkpt lat="45.86143" lon="6.74937">
        <ele>1281</ele>
        <time>2026-08-14T11:52:29.540Z</time>
      </trkpt>
      <trkpt lat="45.86142" lon="6.74939">
        <ele>1281</ele>
        <time>2026-08-14T11:52:30.540Z</time>
      </trkpt>
      <trkpt lat="45.86141" lon="6.74942">
        <ele>1280</ele>
        <time>2026-08-14T11:52:31.540Z</time>
      </trkpt>
      <trkpt lat="45.86141" lon="6.74945">
        <ele>1280</ele>
        <time>2026-08-14T11:52:32.540Z</time>
      </trkpt>
      <trkpt lat="45.86142" lon="6.74948">
        <ele>1279</ele>
        <time>2026-08-14T11:52:33.540Z</time>
      </trkpt>
      <trkpt lat="45.86143" lon="6.74951">
        <ele>1279</ele>
        <time>2026-08-14T11:52:34.540Z</time>
      </trkpt>
      <trkpt lat="45.86144" lon="6.74953">
        <ele>1279</ele>
        <time>2026-08-14T11:52:35.540Z</time>
      </trkpt>
      <trkpt lat="45.86144" lon="6.74955">
        <ele>1278</ele>
        <time>2026-08-14T11:52:36.540Z</time>
      </trkpt>
      <trkpt lat="45.86144" lon="6.74958">
        <ele>1278</ele>
        <time>2026-08-14T11:52:37.540Z</time>
      </trkpt>
      <trkpt lat="45.86144" lon="6.74961">
        <ele>1278</ele>
        <time>2026-08-14T11:52:38.540Z</time>
      </trkpt>
      <trkpt lat="45.86144" lon="6.74963">
        <ele>1278</ele>
        <time>2026-08-14T11:52:39.540Z</time>
      </trkpt>
      <trkpt lat="45.86144" lon="6.74966">
        <ele>1278</ele>
        <time>2026-08-14T11:52:40.540Z</time>
      </trkpt>
      <trkpt lat="45.86144" lon="6.74969">
        <ele>1278</ele>
        <time>2026-08-14T11:52:41.540Z</time>
      </trkpt>
      <trkpt lat="45.86145" lon="6.74971">
        <ele>1278</ele>
        <time>2026-08-14T11:52:42.540Z</time>
      </trkpt>
      <trkpt lat="45.86146" lon="6.74974">
        <ele>1278</ele>
        <time>2026-08-14T11:52:43.540Z</time>
      </trkpt>
      <trkpt lat="45.86146" lon="6.74977">
        <ele>1278</ele>
        <time>2026-08-14T11:52:44.540Z</time>
      </trkpt>
      <trkpt lat="45.86146" lon="6.74979">
        <ele>1278</ele>
        <time>2026-08-14T11:52:45.540Z</time>
      </trkpt>
      <trkpt lat="45.86146" lon="6.74982">
        <ele>1278</ele>
        <time>2026-08-14T11:52:46.540Z</time>
      </trkpt>
      <trkpt lat="45.86147" lon="6.74984">
        <ele>1278</ele>
        <time>2026-08-14T11:52:47.540Z</time>
      </trkpt>
      <trkpt lat="45.86147" lon="6.74986">
        <ele>1278</ele>
        <time>2026-08-14T11:52:48.540Z</time>
      </trkpt>
      <trkpt lat="45.86148" lon="6.74989">
        <ele>1278</ele>
        <time>2026-08-14T11:52:49.540Z</time>
      </trkpt>
      <trkpt lat="45.86148" lon="6.74991">
        <ele>1279</ele>
        <time>2026-08-14T11:52:50.540Z</time>
      </trkpt>
      <trkpt lat="45.86148" lon="6.74993">
        <ele>1280</ele>
        <time>2026-08-14T11:52:51.540Z</time>
      </trkpt>
      <trkpt lat="45.86148" lon="6.74995">
        <ele>1280</ele>
        <time>2026-08-14T11:52:52.540Z</time>
      </trkpt>
      <trkpt lat="45.86148" lon="6.74997">
        <ele>1281</ele>
        <time>2026-08-14T11:52:53.540Z</time>
      </trkpt>
      <trkpt lat="45.86148" lon="6.74999">
        <ele>1282</ele>
        <time>2026-08-14T11:52:54.540Z</time>
      </trkpt>
      <trkpt lat="45.86147" lon="6.75001">
        <ele>1282</ele>
        <time>2026-08-14T11:52:55.540Z</time>
      </trkpt>
      <trkpt lat="45.86146" lon="6.75003">
        <ele>1283</ele>
        <time>2026-08-14T11:52:56.540Z</time>
      </trkpt>
      <trkpt lat="45.86146" lon="6.75005">
        <ele>1283</ele>
        <time>2026-08-14T11:52:57.540Z</time>
      </trkpt>
      <trkpt lat="45.86145" lon="6.75007">
        <ele>1284</ele>
        <time>2026-08-14T11:52:58.540Z</time>
      </trkpt>
      <trkpt lat="45.86144" lon="6.75008">
        <ele>1285</ele>
        <time>2026-08-14T11:52:59.540Z</time>
      </trkpt>
      <trkpt lat="45.86144" lon="6.75011">
        <ele>1285</ele>
        <time>2026-08-14T11:53:00.540Z</time>
      </trkpt>
      <trkpt lat="45.86144" lon="6.75013">
        <ele>1285</ele>
        <time>2026-08-14T11:53:01.540Z</time>
      </trkpt>
      <trkpt lat="45.86145" lon="6.75016">
        <ele>1285</ele>
        <time>2026-08-14T11:53:02.540Z</time>
      </trkpt>
      <trkpt lat="45.86145" lon="6.75019">
        <ele>1286</ele>
        <time>2026-08-14T11:53:03.540Z</time>
      </trkpt>
      <trkpt lat="45.86146" lon="6.75021">
        <ele>1286</ele>
        <time>2026-08-14T11:53:04.540Z</time>
      </trkpt>
      <trkpt lat="45.86147" lon="6.75024">
        <ele>1286</ele>
        <time>2026-08-14T11:53:05.540Z</time>
      </trkpt>
      <trkpt lat="45.86148" lon="6.75026">
        <ele>1287</ele>
        <time>2026-08-14T11:53:06.540Z</time>
      </trkpt>
      <trkpt lat="45.86148" lon="6.75028">
        <ele>1287</ele>
        <time>2026-08-14T11:53:07.540Z</time>
      </trkpt>
      <trkpt lat="45.86149" lon="6.7503">
        <ele>1287</ele>
        <time>2026-08-14T11:53:08.540Z</time>
      </trkpt>
      <trkpt lat="45.8615" lon="6.75032">
        <ele>1287</ele>
        <time>2026-08-14T11:53:09.540Z</time>
      </trkpt>
      <trkpt lat="45.8615" lon="6.75035">
        <ele>1288</ele>
        <time>2026-08-14T11:53:10.540Z</time>
      </trkpt>
      <trkpt lat="45.86151" lon="6.75037">
        <ele>1288</ele>
        <time>2026-08-14T11:53:11.540Z</time>
      </trkpt>
      <trkpt lat="45.86151" lon="6.75039">
        <ele>1288</ele>
        <time>2026-08-14T11:53:12.540Z</time>
      </trkpt>
      <trkpt lat="45.86151" lon="6.75042">
        <ele>1288</ele>
        <time>2026-08-14T11:53:13.540Z</time>
      </trkpt>
      <trkpt lat="45.86151" lon="6.75044">
        <ele>1288</ele>
        <time>2026-08-14T11:53:14.540Z</time>
      </trkpt>
      <trkpt lat="45.86151" lon="6.75047">
        <ele>1288</ele>
        <time>2026-08-14T11:53:15.540Z</time>
      </trkpt>
      <trkpt lat="45.86152" lon="6.7505">
        <ele>1288</ele>
        <time>2026-08-14T11:53:16.540Z</time>
      </trkpt>
      <trkpt lat="45.86153" lon="6.75052">
        <ele>1288</ele>
        <time>2026-08-14T11:53:17.540Z</time>
      </trkpt>
      <trkpt lat="45.86154" lon="6.75055">
        <ele>1288</ele>
        <time>2026-08-14T11:53:18.540Z</time>
      </trkpt>
      <trkpt lat="45.86155" lon="6.75057">
        <ele>1288</ele>
        <time>2026-08-14T11:53:19.540Z</time>
      </trkpt>
      <trkpt lat="45.86157" lon="6.7506">
        <ele>1288</ele>
        <time>2026-08-14T11:53:20.540Z</time>
      </trkpt>
      <trkpt lat="45.86158" lon="6.75063">
        <ele>1288</ele>
        <time>2026-08-14T11:53:21.540Z</time>
      </trkpt>
      <trkpt lat="45.8616" lon="6.75065">
        <ele>1288</ele>
        <time>2026-08-14T11:53:22.540Z</time>
      </trkpt>
      <trkpt lat="45.86161" lon="6.75068">
        <ele>1288</ele>
        <time>2026-08-14T11:53:23.540Z</time>
      </trkpt>
      <trkpt lat="45.86161" lon="6.7507">
        <ele>1288</ele>
        <time>2026-08-14T11:53:24.540Z</time>
      </trkpt>
      <trkpt lat="45.86162" lon="6.75072">
        <ele>1288</ele>
        <time>2026-08-14T11:53:25.540Z</time>
      </trkpt>
      <trkpt lat="45.86162" lon="6.75075">
        <ele>1288</ele>
        <time>2026-08-14T11:53:26.540Z</time>
      </trkpt>
      <trkpt lat="45.86162" lon="6.75078">
        <ele>1288</ele>
        <time>2026-08-14T11:53:27.540Z</time>
      </trkpt>
      <trkpt lat="45.86162" lon="6.7508">
        <ele>1288</ele>
        <time>2026-08-14T11:53:28.540Z</time>
      </trkpt>
      <trkpt lat="45.86162" lon="6.75083">
        <ele>1288</ele>
        <time>2026-08-14T11:53:29.540Z</time>
      </trkpt>
      <trkpt lat="45.86163" lon="6.75085">
        <ele>1288</ele>
        <time>2026-08-14T11:53:30.540Z</time>
      </trkpt>
      <trkpt lat="45.86163" lon="6.75087">
        <ele>1288</ele>
        <time>2026-08-14T11:53:31.540Z</time>
      </trkpt>
      <trkpt lat="45.86164" lon="6.75089">
        <ele>1288</ele>
        <time>2026-08-14T11:53:32.540Z</time>
      </trkpt>
      <trkpt lat="45.86165" lon="6.75092">
        <ele>1288</ele>
        <time>2026-08-14T11:53:33.540Z</time>
      </trkpt>
      <trkpt lat="45.86165" lon="6.75094">
        <ele>1288</ele>
        <time>2026-08-14T11:53:34.540Z</time>
      </trkpt>
      <trkpt lat="45.86166" lon="6.75097">
        <ele>1288</ele>
        <time>2026-08-14T11:53:35.540Z</time>
      </trkpt>
      <trkpt lat="45.86167" lon="6.75099">
        <ele>1289</ele>
        <time>2026-08-14T11:53:36.540Z</time>
      </trkpt>
      <trkpt lat="45.86167" lon="6.75102">
        <ele>1289</ele>
        <time>2026-08-14T11:53:37.540Z</time>
      </trkpt>
      <trkpt lat="45.86167" lon="6.75104">
        <ele>1289</ele>
        <time>2026-08-14T11:53:38.540Z</time>
      </trkpt>
      <trkpt lat="45.86168" lon="6.75107">
        <ele>1289</ele>
        <time>2026-08-14T11:53:39.540Z</time>
      </trkpt>
      <trkpt lat="45.86168" lon="6.7511">
        <ele>1289</ele>
        <time>2026-08-14T11:53:40.540Z</time>
      </trkpt>
      <trkpt lat="45.86168" lon="6.75113">
        <ele>1289</ele>
        <time>2026-08-14T11:53:41.540Z</time>
      </trkpt>
      <trkpt lat="45.86169" lon="6.75115">
        <ele>1289</ele>
        <time>2026-08-14T11:53:42.540Z</time>
      </trkpt>
      <trkpt lat="45.86169" lon="6.75118">
        <ele>1289</ele>
        <time>2026-08-14T11:53:43.540Z</time>
      </trkpt>
      <trkpt lat="45.8617" lon="6.75121">
        <ele>1289</ele>
        <time>2026-08-14T11:53:44.540Z</time>
      </trkpt>
      <trkpt lat="45.86171" lon="6.75123">
        <ele>1289</ele>
        <time>2026-08-14T11:53:45.540Z</time>
      </trkpt>
      <trkpt lat="45.86171" lon="6.75126">
        <ele>1289</ele>
        <time>2026-08-14T11:53:46.540Z</time>
      </trkpt>
      <trkpt lat="45.86171" lon="6.75129">
        <ele>1288</ele>
        <time>2026-08-14T11:53:47.540Z</time>
      </trkpt>
      <trkpt lat="45.86171" lon="6.75132">
        <ele>1288</ele>
        <time>2026-08-14T11:53:48.540Z</time>
      </trkpt>
      <trkpt lat="45.86171" lon="6.75135">
        <ele>1288</ele>
        <time>2026-08-14T11:53:49.540Z</time>
      </trkpt>
      <trkpt lat="45.86171" lon="6.75138">
        <ele>1288</ele>
        <time>2026-08-14T11:53:50.540Z</time>
      </trkpt>
      <trkpt lat="45.86171" lon="6.75141">
        <ele>1287</ele>
        <time>2026-08-14T11:53:51.540Z</time>
      </trkpt>
      <trkpt lat="45.86171" lon="6.75145">
        <ele>1287</ele>
        <time>2026-08-14T11:53:52.540Z</time>
      </trkpt>
      <trkpt lat="45.86172" lon="6.75148">
        <ele>1287</ele>
        <time>2026-08-14T11:53:53.540Z</time>
      </trkpt>
      <trkpt lat="45.86171" lon="6.75152">
        <ele>1287</ele>
        <time>2026-08-14T11:53:54.540Z</time>
      </trkpt>
      <trkpt lat="45.86171" lon="6.75155">
        <ele>1287</ele>
        <time>2026-08-14T11:53:55.540Z</time>
      </trkpt>
      <trkpt lat="45.86171" lon="6.75158">
        <ele>1288</ele>
        <time>2026-08-14T11:53:56.540Z</time>
      </trkpt>
      <trkpt lat="45.8617" lon="6.75162">
        <ele>1287</ele>
        <time>2026-08-14T11:53:57.540Z</time>
      </trkpt>
      <trkpt lat="45.86169" lon="6.75165">
        <ele>1287</ele>
        <time>2026-08-14T11:53:58.540Z</time>
      </trkpt>
      <trkpt lat="45.86168" lon="6.75168">
        <ele>1287</ele>
        <time>2026-08-14T11:53:59.540Z</time>
      </trkpt>
      <trkpt lat="45.86167" lon="6.75172">
        <ele>1287</ele>
        <time>2026-08-14T11:54:00.540Z</time>
      </trkpt>
      <trkpt lat="45.86166" lon="6.75175">
        <ele>1287</ele>
        <time>2026-08-14T11:54:01.540Z</time>
      </trkpt>
      <trkpt lat="45.86165" lon="6.75178">
        <ele>1287</ele>
        <time>2026-08-14T11:54:02.540Z</time>
      </trkpt>
      <trkpt lat="45.86165" lon="6.7518">
        <ele>1287</ele>
        <time>2026-08-14T11:54:03.540Z</time>
      </trkpt>
      <trkpt lat="45.86165" lon="6.75182">
        <ele>1287</ele>
        <time>2026-08-14T11:54:04.540Z</time>
      </trkpt>
      <trkpt lat="45.86165" lon="6.75185">
        <ele>1287</ele>
        <time>2026-08-14T11:54:05.540Z</time>
      </trkpt>
      <trkpt lat="45.86165" lon="6.75186">
        <ele>1287</ele>
        <time>2026-08-14T11:54:06.540Z</time>
      </trkpt>
      <trkpt lat="45.86165" lon="6.75188">
        <ele>1287</ele>
        <time>2026-08-14T11:54:07.540Z</time>
      </trkpt>
      <trkpt lat="45.86165" lon="6.7519">
        <ele>1288</ele>
        <time>2026-08-14T11:54:08.540Z</time>
      </trkpt>
      <trkpt lat="45.86164" lon="6.75192">
        <ele>1288</ele>
        <time>2026-08-14T11:54:09.540Z</time>
      </trkpt>
      <trkpt lat="45.86163" lon="6.75194">
        <ele>1288</ele>
        <time>2026-08-14T11:54:10.540Z</time>
      </trkpt>
      <trkpt lat="45.86163" lon="6.75195">
        <ele>1287</ele>
        <time>2026-08-14T11:54:11.540Z</time>
      </trkpt>
      <trkpt lat="45.86162" lon="6.75197">
        <ele>1287</ele>
        <time>2026-08-14T11:54:12.540Z</time>
      </trkpt>
      <trkpt lat="45.86162" lon="6.75198">
        <ele>1287</ele>
        <time>2026-08-14T11:54:13.540Z</time>
      </trkpt>
      <trkpt lat="45.86161" lon="6.752">
        <ele>1287</ele>
        <time>2026-08-14T11:54:14.540Z</time>
      </trkpt>
      <trkpt lat="45.86161" lon="6.75202">
        <ele>1287</ele>
        <time>2026-08-14T11:54:15.540Z</time>
      </trkpt>
      <trkpt lat="45.8616" lon="6.75203">
        <ele>1287</ele>
        <time>2026-08-14T11:54:16.540Z</time>
      </trkpt>
      <trkpt lat="45.8616" lon="6.75205">
        <ele>1287</ele>
        <time>2026-08-14T11:54:17.540Z</time>
      </trkpt>
      <trkpt lat="45.8616" lon="6.75206">
        <ele>1287</ele>
        <time>2026-08-14T11:54:18.540Z</time>
      </trkpt>
      <trkpt lat="45.8616" lon="6.75207">
        <ele>1287</ele>
        <time>2026-08-14T11:54:19.540Z</time>
      </trkpt>
      <trkpt lat="45.86161" lon="6.75208">
        <ele>1286</ele>
        <time>2026-08-14T11:54:20.540Z</time>
      </trkpt>
      <trkpt lat="45.86161" lon="6.75209">
        <ele>1286</ele>
        <time>2026-08-14T11:54:21.540Z</time>
      </trkpt>
      <trkpt lat="45.86161" lon="6.7521">
        <ele>1286</ele>
        <time>2026-08-14T11:54:22.540Z</time>
      </trkpt>
      <trkpt lat="45.8616" lon="6.75211">
        <ele>1286</ele>
        <time>2026-08-14T11:54:23.540Z</time>
      </trkpt>
      <trkpt lat="45.8616" lon="6.75213">
        <ele>1286</ele>
        <time>2026-08-14T11:54:24.540Z</time>
      </trkpt>
      <trkpt lat="45.86159" lon="6.75214">
        <ele>1286</ele>
        <time>2026-08-14T11:54:25.540Z</time>
      </trkpt>
      <trkpt lat="45.86158" lon="6.75215">
        <ele>1286</ele>
        <time>2026-08-14T11:54:26.540Z</time>
      </trkpt>
      <trkpt lat="45.86158" lon="6.75217">
        <ele>1286</ele>
        <time>2026-08-14T11:54:27.540Z</time>
      </trkpt>
      <trkpt lat="45.86158" lon="6.75218">
        <ele>1286</ele>
        <time>2026-08-14T11:54:28.540Z</time>
      </trkpt>
      <trkpt lat="45.86158" lon="6.75218">
        <ele>1286</ele>
        <time>2026-08-14T11:54:29.540Z</time>
      </trkpt>
      <trkpt lat="45.86159" lon="6.7522">
        <ele>1287</ele>
        <time>2026-08-14T11:54:30.540Z</time>
      </trkpt>
      <trkpt lat="45.86159" lon="6.7522">
        <ele>1287</ele>
        <time>2026-08-14T11:54:31.540Z</time>
      </trkpt>
      <trkpt lat="45.86159" lon="6.75221">
        <ele>1287</ele>
        <time>2026-08-14T11:54:32.540Z</time>
      </trkpt>
      <trkpt lat="45.86159" lon="6.75222">
        <ele>1287</ele>
        <time>2026-08-14T11:54:33.540Z</time>
      </trkpt>
      <trkpt lat="45.86158" lon="6.75224">
        <ele>1287</ele>
        <time>2026-08-14T11:54:34.540Z</time>
      </trkpt>
      <trkpt lat="45.86157" lon="6.75226">
        <ele>1287</ele>
        <time>2026-08-14T11:54:35.540Z</time>
      </trkpt>
      <trkpt lat="45.86155" lon="6.75228">
        <ele>1288</ele>
        <time>2026-08-14T11:54:36.540Z</time>
      </trkpt>
      <trkpt lat="45.86154" lon="6.75229">
        <ele>1289</ele>
        <time>2026-08-14T11:54:37.540Z</time>
      </trkpt>
      <trkpt lat="45.86153" lon="6.75229">
        <ele>1289</ele>
        <time>2026-08-14T11:54:38.540Z</time>
      </trkpt>
      <trkpt lat="45.86153" lon="6.7523">
        <ele>1289</ele>
        <time>2026-08-14T11:54:39.540Z</time>
      </trkpt>
      <trkpt lat="45.86152" lon="6.75231">
        <ele>1290</ele>
        <time>2026-08-14T11:54:40.540Z</time>
      </trkpt>
      <trkpt lat="45.86152" lon="6.75232">
        <ele>1290</ele>
        <time>2026-08-14T11:54:41.540Z</time>
      </trkpt>
      <trkpt lat="45.86152" lon="6.75233">
        <ele>1291</ele>
        <time>2026-08-14T11:54:42.540Z</time>
      </trkpt>
      <trkpt lat="45.86151" lon="6.75234">
        <ele>1291</ele>
        <time>2026-08-14T11:54:43.540Z</time>
      </trkpt>
      <trkpt lat="45.86151" lon="6.75235">
        <ele>1292</ele>
        <time>2026-08-14T11:54:44.540Z</time>
      </trkpt>
      <trkpt lat="45.8615" lon="6.75236">
        <ele>1292</ele>
        <time>2026-08-14T11:54:45.540Z</time>
      </trkpt>
      <trkpt lat="45.8615" lon="6.75238">
        <ele>1292</ele>
        <time>2026-08-14T11:54:46.540Z</time>
      </trkpt>
      <trkpt lat="45.86149" lon="6.75239">
        <ele>1292</ele>
        <time>2026-08-14T11:54:47.540Z</time>
      </trkpt>
      <trkpt lat="45.86149" lon="6.7524">
        <ele>1291</ele>
        <time>2026-08-14T11:54:48.540Z</time>
      </trkpt>
      <trkpt lat="45.86149" lon="6.75242">
        <ele>1291</ele>
        <time>2026-08-14T11:54:49.540Z</time>
      </trkpt>
      <trkpt lat="45.86148" lon="6.75243">
        <ele>1291</ele>
        <time>2026-08-14T11:54:50.540Z</time>
      </trkpt>
      <trkpt lat="45.86148" lon="6.75244">
        <ele>1291</ele>
        <time>2026-08-14T11:54:51.540Z</time>
      </trkpt>
      <trkpt lat="45.86148" lon="6.75245">
        <ele>1291</ele>
        <time>2026-08-14T11:54:52.540Z</time>
      </trkpt>
      <trkpt lat="45.86148" lon="6.75246">
        <ele>1291</ele>
        <time>2026-08-14T11:54:53.540Z</time>
      </trkpt>
      <trkpt lat="45.86148" lon="6.75248">
        <ele>1291</ele>
        <time>2026-08-14T11:54:54.540Z</time>
      </trkpt>
      <trkpt lat="45.86147" lon="6.7525">
        <ele>1292</ele>
        <time>2026-08-14T11:54:55.540Z</time>
      </trkpt>
      <trkpt lat="45.86147" lon="6.7525">
        <ele>1292</ele>
        <time>2026-08-14T11:54:56.540Z</time>
      </trkpt>
      <trkpt lat="45.86147" lon="6.7525">
        <ele>1293</ele>
        <time>2026-08-14T11:54:57.540Z</time>
      </trkpt>
      <trkpt lat="45.86147" lon="6.75251">
        <ele>1293</ele>
        <time>2026-08-14T11:54:58.540Z</time>
      </trkpt>
      <trkpt lat="45.86146" lon="6.75252">
        <ele>1293</ele>
        <time>2026-08-14T11:54:59.540Z</time>
      </trkpt>
      <trkpt lat="45.86146" lon="6.75254">
        <ele>1293</ele>
        <time>2026-08-14T11:55:00.540Z</time>
      </trkpt>
      <trkpt lat="45.86145" lon="6.75254">
        <ele>1294</ele>
        <time>2026-08-14T11:55:01.540Z</time>
      </trkpt>
      <trkpt lat="45.86145" lon="6.75255">
        <ele>1294</ele>
        <time>2026-08-14T11:55:02.540Z</time>
      </trkpt>
      <trkpt lat="45.86146" lon="6.75256">
        <ele>1294</ele>
        <time>2026-08-14T11:55:03.540Z</time>
      </trkpt>
      <trkpt lat="45.86147" lon="6.75257">
        <ele>1295</ele>
        <time>2026-08-14T11:55:04.540Z</time>
      </trkpt>
      <trkpt lat="45.86147" lon="6.75258">
        <ele>1296</ele>
        <time>2026-08-14T11:55:05.540Z</time>
      </trkpt>
      <trkpt lat="45.86146" lon="6.75259">
        <ele>1296</ele>
        <time>2026-08-14T11:55:06.540Z</time>
      </trkpt>
      <trkpt lat="45.86145" lon="6.7526">
        <ele>1297</ele>
        <time>2026-08-14T11:55:07.540Z</time>
      </trkpt>
      <trkpt lat="45.86145" lon="6.75262">
        <ele>1298</ele>
        <time>2026-08-14T11:55:08.540Z</time>
      </trkpt>
      <trkpt lat="45.86145" lon="6.75263">
        <ele>1298</ele>
        <time>2026-08-14T11:55:09.540Z</time>
      </trkpt>
      <trkpt lat="45.86145" lon="6.75264">
        <ele>1299</ele>
        <time>2026-08-14T11:55:10.540Z</time>
      </trkpt>
      <trkpt lat="45.86145" lon="6.75265">
        <ele>1299</ele>
        <time>2026-08-14T11:55:11.540Z</time>
      </trkpt>
      <trkpt lat="45.86145" lon="6.75267">
        <ele>1300</ele>
        <time>2026-08-14T11:55:12.540Z</time>
      </trkpt>
      <trkpt lat="45.86145" lon="6.75268">
        <ele>1300</ele>
        <time>2026-08-14T11:55:13.540Z</time>
      </trkpt>
      <trkpt lat="45.86145" lon="6.75269">
        <ele>1300</ele>
        <time>2026-08-14T11:55:14.540Z</time>
      </trkpt>
      <trkpt lat="45.86145" lon="6.7527">
        <ele>1301</ele>
        <time>2026-08-14T11:55:15.540Z</time>
      </trkpt>
      <trkpt lat="45.86145" lon="6.7527">
        <ele>1301</ele>
        <time>2026-08-14T11:55:16.540Z</time>
      </trkpt>
      <trkpt lat="45.86146" lon="6.75271">
        <ele>1302</ele>
        <time>2026-08-14T11:55:17.540Z</time>
      </trkpt>
      <trkpt lat="45.86146" lon="6.75272">
        <ele>1302</ele>
        <time>2026-08-14T11:55:18.540Z</time>
      </trkpt>
      <trkpt lat="45.86145" lon="6.75273">
        <ele>1303</ele>
        <time>2026-08-14T11:55:19.540Z</time>
      </trkpt>
      <trkpt lat="45.86143" lon="6.75275">
        <ele>1304</ele>
        <time>2026-08-14T11:55:20.540Z</time>
      </trkpt>
      <trkpt lat="45.86142" lon="6.75276">
        <ele>1304</ele>
        <time>2026-08-14T11:55:21.540Z</time>
      </trkpt>
      <trkpt lat="45.86142" lon="6.75277">
        <ele>1304</ele>
        <time>2026-08-14T11:55:22.540Z</time>
      </trkpt>
      <trkpt lat="45.86142" lon="6.75278">
        <ele>1304</ele>
        <time>2026-08-14T11:55:23.540Z</time>
      </trkpt>
      <trkpt lat="45.86142" lon="6.75279">
        <ele>1304</ele>
        <time>2026-08-14T11:55:24.540Z</time>
      </trkpt>
      <trkpt lat="45.86142" lon="6.75279">
        <ele>1304</ele>
        <time>2026-08-14T11:55:25.540Z</time>
      </trkpt>
      <trkpt lat="45.86142" lon="6.75279">
        <ele>1304</ele>
        <time>2026-08-14T11:55:26.540Z</time>
      </trkpt>
      <trkpt lat="45.86142" lon="6.75279">
        <ele>1304</ele>
        <time>2026-08-14T11:55:27.540Z</time>
      </trkpt>
      <trkpt lat="45.86142" lon="6.7528">
        <ele>1305</ele>
        <time>2026-08-14T11:55:28.540Z</time>
      </trkpt>
      <trkpt lat="45.86142" lon="6.7528">
        <ele>1305</ele>
        <time>2026-08-14T11:55:29.540Z</time>
      </trkpt>
      <trkpt lat="45.86142" lon="6.7528">
        <ele>1306</ele>
        <time>2026-08-14T11:55:30.540Z</time>
      </trkpt>
      <trkpt lat="45.86142" lon="6.7528">
        <ele>1306</ele>
        <time>2026-08-14T11:55:31.540Z</time>
      </trkpt>
      <trkpt lat="45.86142" lon="6.7528">
        <ele>1306</ele>
        <time>2026-08-14T11:55:32.540Z</time>
      </trkpt>
      <trkpt lat="45.86142" lon="6.7528">
        <ele>1307</ele>
        <time>2026-08-14T11:55:33.540Z</time>
      </trkpt>
      <trkpt lat="45.86143" lon="6.7528">
        <ele>1307</ele>
        <time>2026-08-14T11:55:34.540Z</time>
      </trkpt>
      <trkpt lat="45.86143" lon="6.75279">
        <ele>1308</ele>
        <time>2026-08-14T11:55:35.540Z</time>
      </trkpt>
      <trkpt lat="45.86144" lon="6.75279">
        <ele>1308</ele>
        <time>2026-08-14T11:55:36.540Z</time>
      </trkpt>
      <trkpt lat="45.86145" lon="6.7528">
        <ele>1309</ele>
        <time>2026-08-14T11:55:37.540Z</time>
      </trkpt>
      <trkpt lat="45.86145" lon="6.7528">
        <ele>1309</ele>
        <time>2026-08-14T11:55:38.540Z</time>
      </trkpt>
      <trkpt lat="45.86146" lon="6.75281">
        <ele>1309</ele>
        <time>2026-08-14T11:55:39.540Z</time>
      </trkpt>
      <trkpt lat="45.86147" lon="6.75281">
        <ele>1309</ele>
        <time>2026-08-14T11:55:40.540Z</time>
      </trkpt>
      <trkpt lat="45.86147" lon="6.75282">
        <ele>1309</ele>
        <time>2026-08-14T11:55:41.540Z</time>
      </trkpt>
      <trkpt lat="45.86148" lon="6.75283">
        <ele>1309</ele>
        <time>2026-08-14T11:55:42.540Z</time>
      </trkpt>
      <trkpt lat="45.86149" lon="6.75283">
        <ele>1308</ele>
        <time>2026-08-14T11:55:43.540Z</time>
      </trkpt>
      <trkpt lat="45.8615" lon="6.75284">
        <ele>1308</ele>
        <time>2026-08-14T11:55:44.540Z</time>
      </trkpt>
      <trkpt lat="45.8615" lon="6.75286">
        <ele>1308</ele>
        <time>2026-08-14T11:55:45.540Z</time>
      </trkpt>
      <trkpt lat="45.8615" lon="6.75288">
        <ele>1308</ele>
        <time>2026-08-14T11:55:46.540Z</time>
      </trkpt>
      <trkpt lat="45.86151" lon="6.75289">
        <ele>1308</ele>
        <time>2026-08-14T11:55:47.540Z</time>
      </trkpt>
      <trkpt lat="45.86151" lon="6.75291">
        <ele>1308</ele>
        <time>2026-08-14T11:55:48.540Z</time>
      </trkpt>
      <trkpt lat="45.86151" lon="6.75292">
        <ele>1307</ele>
        <time>2026-08-14T11:55:49.540Z</time>
      </trkpt>
      <trkpt lat="45.86151" lon="6.75294">
        <ele>1307</ele>
        <time>2026-08-14T11:55:50.540Z</time>
      </trkpt>
      <trkpt lat="45.86151" lon="6.75295">
        <ele>1307</ele>
        <time>2026-08-14T11:55:51.540Z</time>
      </trkpt>
      <trkpt lat="45.86152" lon="6.75296">
        <ele>1306</ele>
        <time>2026-08-14T11:55:52.540Z</time>
      </trkpt>
      <trkpt lat="45.86153" lon="6.75298">
        <ele>1306</ele>
        <time>2026-08-14T11:55:53.540Z</time>
      </trkpt>
      <trkpt lat="45.86154" lon="6.75299">
        <ele>1306</ele>
        <time>2026-08-14T11:55:54.540Z</time>
      </trkpt>
      <trkpt lat="45.86154" lon="6.75301">
        <ele>1306</ele>
        <time>2026-08-14T11:55:55.540Z</time>
      </trkpt>
      <trkpt lat="45.86155" lon="6.75302">
        <ele>1306</ele>
        <time>2026-08-14T11:55:56.540Z</time>
      </trkpt>
      <trkpt lat="45.86156" lon="6.75304">
        <ele>1306</ele>
        <time>2026-08-14T11:55:57.540Z</time>
      </trkpt>
      <trkpt lat="45.86156" lon="6.75305">
        <ele>1306</ele>
        <time>2026-08-14T11:55:58.540Z</time>
      </trkpt>
      <trkpt lat="45.86157" lon="6.75307">
        <ele>1306</ele>
        <time>2026-08-14T11:55:59.540Z</time>
      </trkpt>
      <trkpt lat="45.86158" lon="6.75309">
        <ele>1306</ele>
        <time>2026-08-14T11:56:00.540Z</time>
      </trkpt>
      <trkpt lat="45.86159" lon="6.7531">
        <ele>1306</ele>
        <time>2026-08-14T11:56:01.540Z</time>
      </trkpt>
      <trkpt lat="45.8616" lon="6.75312">
        <ele>1306</ele>
        <time>2026-08-14T11:56:02.540Z</time>
      </trkpt>
      <trkpt lat="45.8616" lon="6.75313">
        <ele>1306</ele>
        <time>2026-08-14T11:56:03.540Z</time>
      </trkpt>
      <trkpt lat="45.8616" lon="6.75314">
        <ele>1306</ele>
        <time>2026-08-14T11:56:04.540Z</time>
      </trkpt>
      <trkpt lat="45.86161" lon="6.75316">
        <ele>1306</ele>
        <time>2026-08-14T11:56:05.540Z</time>
      </trkpt>
      <trkpt lat="45.86161" lon="6.75317">
        <ele>1307</ele>
        <time>2026-08-14T11:56:06.540Z</time>
      </trkpt>
      <trkpt lat="45.86162" lon="6.75319">
        <ele>1307</ele>
        <time>2026-08-14T11:56:07.540Z</time>
      </trkpt>
      <trkpt lat="45.86162" lon="6.75321">
        <ele>1307</ele>
        <time>2026-08-14T11:56:08.540Z</time>
      </trkpt>
      <trkpt lat="45.86163" lon="6.75322">
        <ele>1307</ele>
        <time>2026-08-14T11:56:09.540Z</time>
      </trkpt>
      <trkpt lat="45.86163" lon="6.75324">
        <ele>1308</ele>
        <time>2026-08-14T11:56:10.540Z</time>
      </trkpt>
      <trkpt lat="45.86164" lon="6.75326">
        <ele>1308</ele>
        <time>2026-08-14T11:56:11.540Z</time>
      </trkpt>
      <trkpt lat="45.86165" lon="6.75327">
        <ele>1307</ele>
        <time>2026-08-14T11:56:12.540Z</time>
      </trkpt>
      <trkpt lat="45.86166" lon="6.75328">
        <ele>1307</ele>
        <time>2026-08-14T11:56:13.540Z</time>
      </trkpt>
      <trkpt lat="45.86167" lon="6.7533">
        <ele>1307</ele>
        <time>2026-08-14T11:56:14.540Z</time>
      </trkpt>
      <trkpt lat="45.86168" lon="6.75332">
        <ele>1308</ele>
        <time>2026-08-14T11:56:15.540Z</time>
      </trkpt>
      <trkpt lat="45.86168" lon="6.75332">
        <ele>1308</ele>
        <time>2026-08-14T11:56:16.540Z</time>
      </trkpt>
      <trkpt lat="45.86168" lon="6.75334">
        <ele>1308</ele>
        <time>2026-08-14T11:56:17.540Z</time>
      </trkpt>
      <trkpt lat="45.86169" lon="6.75335">
        <ele>1308</ele>
        <time>2026-08-14T11:56:18.540Z</time>
      </trkpt>
      <trkpt lat="45.86169" lon="6.75337">
        <ele>1309</ele>
        <time>2026-08-14T11:56:19.540Z</time>
      </trkpt>
      <trkpt lat="45.8617" lon="6.75338">
        <ele>1309</ele>
        <time>2026-08-14T11:56:20.540Z</time>
      </trkpt>
      <trkpt lat="45.8617" lon="6.75339">
        <ele>1310</ele>
        <time>2026-08-14T11:56:21.540Z</time>
      </trkpt>
      <trkpt lat="45.86172" lon="6.75341">
        <ele>1310</ele>
        <time>2026-08-14T11:56:22.540Z</time>
      </trkpt>
      <trkpt lat="45.86173" lon="6.75342">
        <ele>1311</ele>
        <time>2026-08-14T11:56:23.540Z</time>
      </trkpt>
      <trkpt lat="45.86174" lon="6.75343">
        <ele>1311</ele>
        <time>2026-08-14T11:56:24.540Z</time>
      </trkpt>
      <trkpt lat="45.86174" lon="6.75343">
        <ele>1311</ele>
        <time>2026-08-14T11:56:25.540Z</time>
      </trkpt>
      <trkpt lat="45.86174" lon="6.75344">
        <ele>1311</ele>
        <time>2026-08-14T11:56:26.540Z</time>
      </trkpt>
      <trkpt lat="45.86174" lon="6.75344">
        <ele>1310</ele>
        <time>2026-08-14T11:56:27.540Z</time>
      </trkpt>
      <trkpt lat="45.86173" lon="6.75345">
        <ele>1310</ele>
        <time>2026-08-14T11:56:28.540Z</time>
      </trkpt>
      <trkpt lat="45.86172" lon="6.75347">
        <ele>1309</ele>
        <time>2026-08-14T11:56:29.540Z</time>
      </trkpt>
      <trkpt lat="45.86172" lon="6.75347">
        <ele>1309</ele>
        <time>2026-08-14T11:56:30.540Z</time>
      </trkpt>
      <trkpt lat="45.86172" lon="6.75348">
        <ele>1309</ele>
        <time>2026-08-14T11:56:31.540Z</time>
      </trkpt>
      <trkpt lat="45.86172" lon="6.75348">
        <ele>1308</ele>
        <time>2026-08-14T11:56:32.540Z</time>
      </trkpt>
      <trkpt lat="45.86172" lon="6.75348">
        <ele>1308</ele>
        <time>2026-08-14T11:56:33.540Z</time>
      </trkpt>
      <trkpt lat="45.86172" lon="6.75348">
        <ele>1308</ele>
        <time>2026-08-14T11:56:34.540Z</time>
      </trkpt>
      <trkpt lat="45.86172" lon="6.75348">
        <ele>1308</ele>
        <time>2026-08-14T11:56:35.540Z</time>
      </trkpt>
      <trkpt lat="45.86172" lon="6.75349">
        <ele>1308</ele>
        <time>2026-08-14T11:56:36.540Z</time>
      </trkpt>
      <trkpt lat="45.86172" lon="6.75349">
        <ele>1307</ele>
        <time>2026-08-14T11:56:37.540Z</time>
      </trkpt>
      <trkpt lat="45.86173" lon="6.75349">
        <ele>1307</ele>
        <time>2026-08-14T11:56:38.540Z</time>
      </trkpt>
      <trkpt lat="45.86173" lon="6.7535">
        <ele>1307</ele>
        <time>2026-08-14T11:56:39.540Z</time>
      </trkpt>
      <trkpt lat="45.86173" lon="6.7535">
        <ele>1307</ele>
        <time>2026-08-14T11:56:40.540Z</time>
      </trkpt>
      <trkpt lat="45.86173" lon="6.75351">
        <ele>1307</ele>
        <time>2026-08-14T11:56:41.540Z</time>
      </trkpt>
      <trkpt lat="45.86173" lon="6.75352">
        <ele>1307</ele>
        <time>2026-08-14T11:56:42.540Z</time>
      </trkpt>
      <trkpt lat="45.86173" lon="6.75353">
        <ele>1306</ele>
        <time>2026-08-14T11:56:43.540Z</time>
      </trkpt>
      <trkpt lat="45.86173" lon="6.75355">
        <ele>1306</ele>
        <time>2026-08-14T11:56:44.540Z</time>
      </trkpt>
      <trkpt lat="45.86172" lon="6.75357">
        <ele>1306</ele>
        <time>2026-08-14T11:56:45.540Z</time>
      </trkpt>
      <trkpt lat="45.86172" lon="6.75359">
        <ele>1306</ele>
        <time>2026-08-14T11:56:46.540Z</time>
      </trkpt>
      <trkpt lat="45.86171" lon="6.75361">
        <ele>1306</ele>
        <time>2026-08-14T11:56:47.540Z</time>
      </trkpt>
      <trkpt lat="45.8617" lon="6.75363">
        <ele>1306</ele>
        <time>2026-08-14T11:56:48.540Z</time>
      </trkpt>
      <trkpt lat="45.86169" lon="6.75365">
        <ele>1306</ele>
        <time>2026-08-14T11:56:49.540Z</time>
      </trkpt>
      <trkpt lat="45.86168" lon="6.75366">
        <ele>1305</ele>
        <time>2026-08-14T11:56:50.540Z</time>
      </trkpt>
      <trkpt lat="45.86168" lon="6.75367">
        <ele>1305</ele>
        <time>2026-08-14T11:56:51.540Z</time>
      </trkpt>
      <trkpt lat="45.86168" lon="6.75368">
        <ele>1304</ele>
        <time>2026-08-14T11:56:52.540Z</time>
      </trkpt>
      <trkpt lat="45.86168" lon="6.75369">
        <ele>1304</ele>
        <time>2026-08-14T11:56:53.540Z</time>
      </trkpt>
      <trkpt lat="45.86168" lon="6.7537">
        <ele>1304</ele>
        <time>2026-08-14T11:56:54.540Z</time>
      </trkpt>
      <trkpt lat="45.86169" lon="6.75373">
        <ele>1303</ele>
        <time>2026-08-14T11:56:55.540Z</time>
      </trkpt>
      <trkpt lat="45.86169" lon="6.75374">
        <ele>1303</ele>
        <time>2026-08-14T11:56:56.540Z</time>
      </trkpt>
      <trkpt lat="45.8617" lon="6.75376">
        <ele>1304</ele>
        <time>2026-08-14T11:56:57.540Z</time>
      </trkpt>
      <trkpt lat="45.8617" lon="6.75377">
        <ele>1304</ele>
        <time>2026-08-14T11:56:58.540Z</time>
      </trkpt>
      <trkpt lat="45.86169" lon="6.75379">
        <ele>1304</ele>
        <time>2026-08-14T11:56:59.540Z</time>
      </trkpt>
      <trkpt lat="45.86169" lon="6.7538">
        <ele>1305</ele>
        <time>2026-08-14T11:57:00.540Z</time>
      </trkpt>
      <trkpt lat="45.86169" lon="6.75381">
        <ele>1306</ele>
        <time>2026-08-14T11:57:01.540Z</time>
      </trkpt>
      <trkpt lat="45.86169" lon="6.75382">
        <ele>1306</ele>
        <time>2026-08-14T11:57:02.540Z</time>
      </trkpt>
      <trkpt lat="45.86169" lon="6.75383">
        <ele>1306</ele>
        <time>2026-08-14T11:57:03.540Z</time>
      </trkpt>
      <trkpt lat="45.86169" lon="6.75384">
        <ele>1306</ele>
        <time>2026-08-14T11:57:04.540Z</time>
      </trkpt>
      <trkpt lat="45.86168" lon="6.75386">
        <ele>1306</ele>
        <time>2026-08-14T11:57:05.540Z</time>
      </trkpt>
      <trkpt lat="45.86168" lon="6.75386">
        <ele>1307</ele>
        <time>2026-08-14T11:57:06.540Z</time>
      </trkpt>
      <trkpt lat="45.86168" lon="6.75387">
        <ele>1307</ele>
        <time>2026-08-14T11:57:07.540Z</time>
      </trkpt>
      <trkpt lat="45.86168" lon="6.75388">
        <ele>1307</ele>
        <time>2026-08-14T11:57:08.540Z</time>
      </trkpt>
      <trkpt lat="45.86168" lon="6.7539">
        <ele>1306</ele>
        <time>2026-08-14T11:57:09.540Z</time>
      </trkpt>
      <trkpt lat="45.86168" lon="6.75391">
        <ele>1306</ele>
        <time>2026-08-14T11:57:10.540Z</time>
      </trkpt>
      <trkpt lat="45.86168" lon="6.75392">
        <ele>1306</ele>
        <time>2026-08-14T11:57:11.540Z</time>
      </trkpt>
      <trkpt lat="45.86168" lon="6.75394">
        <ele>1307</ele>
        <time>2026-08-14T11:57:12.540Z</time>
      </trkpt>
      <trkpt lat="45.86168" lon="6.75395">
        <ele>1307</ele>
        <time>2026-08-14T11:57:13.540Z</time>
      </trkpt>
      <trkpt lat="45.86168" lon="6.75396">
        <ele>1308</ele>
        <time>2026-08-14T11:57:14.540Z</time>
      </trkpt>
      <trkpt lat="45.86169" lon="6.75397">
        <ele>1308</ele>
        <time>2026-08-14T11:57:15.540Z</time>
      </trkpt>
      <trkpt lat="45.8617" lon="6.75398">
        <ele>1308</ele>
        <time>2026-08-14T11:57:16.540Z</time>
      </trkpt>
      <trkpt lat="45.8617" lon="6.754">
        <ele>1309</ele>
        <time>2026-08-14T11:57:17.540Z</time>
      </trkpt>
      <trkpt lat="45.8617" lon="6.75401">
        <ele>1309</ele>
        <time>2026-08-14T11:57:18.540Z</time>
      </trkpt>
      <trkpt lat="45.8617" lon="6.75402">
        <ele>1308</ele>
        <time>2026-08-14T11:57:19.540Z</time>
      </trkpt>
      <trkpt lat="45.86169" lon="6.75403">
        <ele>1308</ele>
        <time>2026-08-14T11:57:20.540Z</time>
      </trkpt>
      <trkpt lat="45.86169" lon="6.75404">
        <ele>1308</ele>
        <time>2026-08-14T11:57:21.540Z</time>
      </trkpt>
      <trkpt lat="45.86169" lon="6.75406">
        <ele>1308</ele>
        <time>2026-08-14T11:57:22.540Z</time>
      </trkpt>
      <trkpt lat="45.86168" lon="6.75407">
        <ele>1308</ele>
        <time>2026-08-14T11:57:23.540Z</time>
      </trkpt>
      <trkpt lat="45.86168" lon="6.75408">
        <ele>1309</ele>
        <time>2026-08-14T11:57:24.540Z</time>
      </trkpt>
      <trkpt lat="45.86167" lon="6.75409">
        <ele>1309</ele>
        <time>2026-08-14T11:57:25.540Z</time>
      </trkpt>
      <trkpt lat="45.86167" lon="6.75411">
        <ele>1309</ele>
        <time>2026-08-14T11:57:26.540Z</time>
      </trkpt>
      <trkpt lat="45.86166" lon="6.75412">
        <ele>1310</ele>
        <time>2026-08-14T11:57:27.540Z</time>
      </trkpt>
      <trkpt lat="45.86165" lon="6.75413">
        <ele>1310</ele>
        <time>2026-08-14T11:57:28.540Z</time>
      </trkpt>
      <trkpt lat="45.86165" lon="6.75413">
        <ele>1310</ele>
        <time>2026-08-14T11:57:29.540Z</time>
      </trkpt>
      <trkpt lat="45.86165" lon="6.75414">
        <ele>1310</ele>
        <time>2026-08-14T11:57:30.540Z</time>
      </trkpt>
      <trkpt lat="45.86166" lon="6.75415">
        <ele>1311</ele>
        <time>2026-08-14T11:57:31.540Z</time>
      </trkpt>
      <trkpt lat="45.86165" lon="6.75417">
        <ele>1311</ele>
        <time>2026-08-14T11:57:32.540Z</time>
      </trkpt>
      <trkpt lat="45.86165" lon="6.75418">
        <ele>1312</ele>
        <time>2026-08-14T11:57:33.540Z</time>
      </trkpt>
      <trkpt lat="45.86165" lon="6.75419">
        <ele>1312</ele>
        <time>2026-08-14T11:57:34.540Z</time>
      </trkpt>
      <trkpt lat="45.86164" lon="6.75421">
        <ele>1313</ele>
        <time>2026-08-14T11:57:35.540Z</time>
      </trkpt>
      <trkpt lat="45.86164" lon="6.75422">
        <ele>1314</ele>
        <time>2026-08-14T11:57:36.540Z</time>
      </trkpt>
      <trkpt lat="45.86164" lon="6.75423">
        <ele>1314</ele>
        <time>2026-08-14T11:57:37.540Z</time>
      </trkpt>
      <trkpt lat="45.86165" lon="6.75424">
        <ele>1314</ele>
        <time>2026-08-14T11:57:38.540Z</time>
      </trkpt>
      <trkpt lat="45.86165" lon="6.75425">
        <ele>1315</ele>
        <time>2026-08-14T11:57:39.540Z</time>
      </trkpt>
      <trkpt lat="45.86166" lon="6.75426">
        <ele>1315</ele>
        <time>2026-08-14T11:57:40.540Z</time>
      </trkpt>
      <trkpt lat="45.86167" lon="6.75427">
        <ele>1315</ele>
        <time>2026-08-14T11:57:41.540Z</time>
      </trkpt>
      <trkpt lat="45.86167" lon="6.75428">
        <ele>1316</ele>
        <time>2026-08-14T11:57:42.540Z</time>
      </trkpt>
      <trkpt lat="45.86167" lon="6.75429">
        <ele>1316</ele>
        <time>2026-08-14T11:57:43.540Z</time>
      </trkpt>
      <trkpt lat="45.86167" lon="6.75431">
        <ele>1317</ele>
        <time>2026-08-14T11:57:44.540Z</time>
      </trkpt>
      <trkpt lat="45.86168" lon="6.75432">
        <ele>1317</ele>
        <time>2026-08-14T11:57:45.540Z</time>
      </trkpt>
      <trkpt lat="45.86169" lon="6.75433">
        <ele>1319</ele>
        <time>2026-08-14T11:57:46.540Z</time>
      </trkpt>
      <trkpt lat="45.86169" lon="6.75435">
        <ele>1320</ele>
        <time>2026-08-14T11:57:47.540Z</time>
      </trkpt>
      <trkpt lat="45.86169" lon="6.75436">
        <ele>1320</ele>
        <time>2026-08-14T11:57:48.540Z</time>
      </trkpt>
      <trkpt lat="45.86166" lon="6.75439">
        <ele>1321</ele>
        <time>2026-08-14T11:57:49.540Z</time>
      </trkpt>
      <trkpt lat="45.86165" lon="6.75442">
        <ele>1321</ele>
        <time>2026-08-14T11:57:50.540Z</time>
      </trkpt>
      <trkpt lat="45.86164" lon="6.75444">
        <ele>1322</ele>
        <time>2026-08-14T11:57:51.540Z</time>
      </trkpt>
      <trkpt lat="45.86164" lon="6.75445">
        <ele>1322</ele>
        <time>2026-08-14T11:57:52.540Z</time>
      </trkpt>
      <trkpt lat="45.86163" lon="6.75447">
        <ele>1322</ele>
        <time>2026-08-14T11:57:53.540Z</time>
      </trkpt>
      <trkpt lat="45.86164" lon="6.75448">
        <ele>1322</ele>
        <time>2026-08-14T11:57:54.540Z</time>
      </trkpt>
      <trkpt lat="45.86163" lon="6.75449">
        <ele>1322</ele>
        <time>2026-08-14T11:57:55.540Z</time>
      </trkpt>
      <trkpt lat="45.86163" lon="6.75451">
        <ele>1322</ele>
        <time>2026-08-14T11:57:56.540Z</time>
      </trkpt>
      <trkpt lat="45.86163" lon="6.75452">
        <ele>1322</ele>
        <time>2026-08-14T11:57:57.540Z</time>
      </trkpt>
      <trkpt lat="45.86163" lon="6.75454">
        <ele>1322</ele>
        <time>2026-08-14T11:57:58.540Z</time>
      </trkpt>
      <trkpt lat="45.86163" lon="6.75455">
        <ele>1322</ele>
        <time>2026-08-14T11:57:59.540Z</time>
      </trkpt>
      <trkpt lat="45.86163" lon="6.75457">
        <ele>1322</ele>
        <time>2026-08-14T11:58:00.540Z</time>
      </trkpt>
      <trkpt lat="45.86162" lon="6.75459">
        <ele>1322</ele>
        <time>2026-08-14T11:58:01.540Z</time>
      </trkpt>
      <trkpt lat="45.86161" lon="6.7546">
        <ele>1321</ele>
        <time>2026-08-14T11:58:02.540Z</time>
      </trkpt>
      <trkpt lat="45.8616" lon="6.75462">
        <ele>1321</ele>
        <time>2026-08-14T11:58:03.540Z</time>
      </trkpt>
      <trkpt lat="45.8616" lon="6.75463">
        <ele>1321</ele>
        <time>2026-08-14T11:58:04.540Z</time>
      </trkpt>
      <trkpt lat="45.8616" lon="6.75464">
        <ele>1321</ele>
        <time>2026-08-14T11:58:05.540Z</time>
      </trkpt>
      <trkpt lat="45.8616" lon="6.75465">
        <ele>1321</ele>
        <time>2026-08-14T11:58:06.540Z</time>
      </trkpt>
      <trkpt lat="45.8616" lon="6.75466">
        <ele>1321</ele>
        <time>2026-08-14T11:58:07.540Z</time>
      </trkpt>
      <trkpt lat="45.8616" lon="6.75466">
        <ele>1321</ele>
        <time>2026-08-14T11:58:08.540Z</time>
      </trkpt>
      <trkpt lat="45.86161" lon="6.75467">
        <ele>1321</ele>
        <time>2026-08-14T11:58:09.540Z</time>
      </trkpt>
      <trkpt lat="45.86161" lon="6.75468">
        <ele>1321</ele>
        <time>2026-08-14T11:58:10.540Z</time>
      </trkpt>
      <trkpt lat="45.8616" lon="6.75469">
        <ele>1321</ele>
        <time>2026-08-14T11:58:11.540Z</time>
      </trkpt>
      <trkpt lat="45.86161" lon="6.75471">
        <ele>1321</ele>
        <time>2026-08-14T11:58:12.540Z</time>
      </trkpt>
      <trkpt lat="45.86161" lon="6.75472">
        <ele>1322</ele>
        <time>2026-08-14T11:58:13.540Z</time>
      </trkpt>
      <trkpt lat="45.86162" lon="6.75473">
        <ele>1322</ele>
        <time>2026-08-14T11:58:14.540Z</time>
      </trkpt>
      <trkpt lat="45.86161" lon="6.75474">
        <ele>1322</ele>
        <time>2026-08-14T11:58:15.540Z</time>
      </trkpt>
      <trkpt lat="45.86161" lon="6.75476">
        <ele>1323</ele>
        <time>2026-08-14T11:58:16.540Z</time>
      </trkpt>
      <trkpt lat="45.86161" lon="6.75477">
        <ele>1323</ele>
        <time>2026-08-14T11:58:17.540Z</time>
      </trkpt>
      <trkpt lat="45.86161" lon="6.75479">
        <ele>1323</ele>
        <time>2026-08-14T11:58:18.540Z</time>
      </trkpt>
      <trkpt lat="45.8616" lon="6.75481">
        <ele>1323</ele>
        <time>2026-08-14T11:58:19.540Z</time>
      </trkpt>
      <trkpt lat="45.8616" lon="6.75482">
        <ele>1323</ele>
        <time>2026-08-14T11:58:20.540Z</time>
      </trkpt>
      <trkpt lat="45.8616" lon="6.75484">
        <ele>1323</ele>
        <time>2026-08-14T11:58:21.540Z</time>
      </trkpt>
      <trkpt lat="45.8616" lon="6.75485">
        <ele>1323</ele>
        <time>2026-08-14T11:58:22.540Z</time>
      </trkpt>
      <trkpt lat="45.8616" lon="6.75487">
        <ele>1323</ele>
        <time>2026-08-14T11:58:23.540Z</time>
      </trkpt>
      <trkpt lat="45.8616" lon="6.75489">
        <ele>1323</ele>
        <time>2026-08-14T11:58:24.540Z</time>
      </trkpt>
      <trkpt lat="45.8616" lon="6.75491">
        <ele>1323</ele>
        <time>2026-08-14T11:58:25.540Z</time>
      </trkpt>
      <trkpt lat="45.86161" lon="6.75493">
        <ele>1323</ele>
        <time>2026-08-14T11:58:26.540Z</time>
      </trkpt>
      <trkpt lat="45.86163" lon="6.75494">
        <ele>1323</ele>
        <time>2026-08-14T11:58:27.540Z</time>
      </trkpt>
      <trkpt lat="45.86163" lon="6.75496">
        <ele>1324</ele>
        <time>2026-08-14T11:58:28.540Z</time>
      </trkpt>
      <trkpt lat="45.86164" lon="6.75498">
        <ele>1324</ele>
        <time>2026-08-14T11:58:29.540Z</time>
      </trkpt>
      <trkpt lat="45.86164" lon="6.75499">
        <ele>1325</ele>
        <time>2026-08-14T11:58:30.540Z</time>
      </trkpt>
      <trkpt lat="45.86164" lon="6.755">
        <ele>1325</ele>
        <time>2026-08-14T11:58:31.540Z</time>
      </trkpt>
      <trkpt lat="45.86165" lon="6.75501">
        <ele>1326</ele>
        <time>2026-08-14T11:58:32.540Z</time>
      </trkpt>
      <trkpt lat="45.86165" lon="6.75502">
        <ele>1326</ele>
        <time>2026-08-14T11:58:33.540Z</time>
      </trkpt>
      <trkpt lat="45.86165" lon="6.75504">
        <ele>1326</ele>
        <time>2026-08-14T11:58:34.540Z</time>
      </trkpt>
      <trkpt lat="45.86165" lon="6.75505">
        <ele>1327</ele>
        <time>2026-08-14T11:58:35.540Z</time>
      </trkpt>
      <trkpt lat="45.86165" lon="6.75507">
        <ele>1327</ele>
        <time>2026-08-14T11:58:36.540Z</time>
      </trkpt>
      <trkpt lat="45.86165" lon="6.75509">
        <ele>1327</ele>
        <time>2026-08-14T11:58:37.540Z</time>
      </trkpt>
      <trkpt lat="45.86165" lon="6.7551">
        <ele>1327</ele>
        <time>2026-08-14T11:58:38.540Z</time>
      </trkpt>
      <trkpt lat="45.86165" lon="6.75512">
        <ele>1328</ele>
        <time>2026-08-14T11:58:39.540Z</time>
      </trkpt>
      <trkpt lat="45.86166" lon="6.75514">
        <ele>1328</ele>
        <time>2026-08-14T11:58:40.540Z</time>
      </trkpt>
      <trkpt lat="45.86166" lon="6.75515">
        <ele>1328</ele>
        <time>2026-08-14T11:58:41.540Z</time>
      </trkpt>
      <trkpt lat="45.86166" lon="6.75517">
        <ele>1328</ele>
        <time>2026-08-14T11:58:42.540Z</time>
      </trkpt>
      <trkpt lat="45.86166" lon="6.75519">
        <ele>1328</ele>
        <time>2026-08-14T11:58:43.540Z</time>
      </trkpt>
      <trkpt lat="45.86167" lon="6.7552">
        <ele>1328</ele>
        <time>2026-08-14T11:58:44.540Z</time>
      </trkpt>
      <trkpt lat="45.86167" lon="6.7552">
        <ele>1328</ele>
        <time>2026-08-14T11:58:45.540Z</time>
      </trkpt>
      <trkpt lat="45.86167" lon="6.75521">
        <ele>1328</ele>
        <time>2026-08-14T11:58:46.540Z</time>
      </trkpt>
      <trkpt lat="45.86167" lon="6.75522">
        <ele>1328</ele>
        <time>2026-08-14T11:58:47.540Z</time>
      </trkpt>
      <trkpt lat="45.86167" lon="6.75524">
        <ele>1328</ele>
        <time>2026-08-14T11:58:48.540Z</time>
      </trkpt>
      <trkpt lat="45.86168" lon="6.75527">
        <ele>1328</ele>
        <time>2026-08-14T11:58:49.540Z</time>
      </trkpt>
      <trkpt lat="45.86168" lon="6.75529">
        <ele>1328</ele>
        <time>2026-08-14T11:58:50.540Z</time>
      </trkpt>
      <trkpt lat="45.86169" lon="6.75531">
        <ele>1328</ele>
        <time>2026-08-14T11:58:51.540Z</time>
      </trkpt>
      <trkpt lat="45.86169" lon="6.75532">
        <ele>1328</ele>
        <time>2026-08-14T11:58:52.540Z</time>
      </trkpt>
      <trkpt lat="45.8617" lon="6.75534">
        <ele>1329</ele>
        <time>2026-08-14T11:58:53.540Z</time>
      </trkpt>
      <trkpt lat="45.86171" lon="6.75535">
        <ele>1329</ele>
        <time>2026-08-14T11:58:54.540Z</time>
      </trkpt>
      <trkpt lat="45.86172" lon="6.75536">
        <ele>1330</ele>
        <time>2026-08-14T11:58:55.540Z</time>
      </trkpt>
      <trkpt lat="45.86173" lon="6.75538">
        <ele>1330</ele>
        <time>2026-08-14T11:58:56.540Z</time>
      </trkpt>
      <trkpt lat="45.86174" lon="6.75539">
        <ele>1331</ele>
        <time>2026-08-14T11:58:57.540Z</time>
      </trkpt>
      <trkpt lat="45.86174" lon="6.75541">
        <ele>1332</ele>
        <time>2026-08-14T11:58:58.540Z</time>
      </trkpt>
      <trkpt lat="45.86174" lon="6.75543">
        <ele>1333</ele>
        <time>2026-08-14T11:58:59.540Z</time>
      </trkpt>
      <trkpt lat="45.86174" lon="6.75545">
        <ele>1334</ele>
        <time>2026-08-14T11:59:00.540Z</time>
      </trkpt>
      <trkpt lat="45.86174" lon="6.75546">
        <ele>1334</ele>
        <time>2026-08-14T11:59:01.540Z</time>
      </trkpt>
      <trkpt lat="45.86174" lon="6.75548">
        <ele>1335</ele>
        <time>2026-08-14T11:59:02.540Z</time>
      </trkpt>
      <trkpt lat="45.86174" lon="6.75549">
        <ele>1335</ele>
        <time>2026-08-14T11:59:03.540Z</time>
      </trkpt>
      <trkpt lat="45.86175" lon="6.75551">
        <ele>1335</ele>
        <time>2026-08-14T11:59:04.540Z</time>
      </trkpt>
      <trkpt lat="45.86175" lon="6.75552">
        <ele>1335</ele>
        <time>2026-08-14T11:59:05.540Z</time>
      </trkpt>
      <trkpt lat="45.86176" lon="6.75553">
        <ele>1335</ele>
        <time>2026-08-14T11:59:06.540Z</time>
      </trkpt>
      <trkpt lat="45.86177" lon="6.75554">
        <ele>1336</ele>
        <time>2026-08-14T11:59:07.540Z</time>
      </trkpt>
      <trkpt lat="45.86178" lon="6.75555">
        <ele>1336</ele>
        <time>2026-08-14T11:59:08.540Z</time>
      </trkpt>
      <trkpt lat="45.86178" lon="6.75556">
        <ele>1336</ele>
        <time>2026-08-14T11:59:09.540Z</time>
      </trkpt>
      <trkpt lat="45.86178" lon="6.75558">
        <ele>1337</ele>
        <time>2026-08-14T11:59:10.540Z</time>
      </trkpt>
      <trkpt lat="45.86178" lon="6.75559">
        <ele>1337</ele>
        <time>2026-08-14T11:59:11.540Z</time>
      </trkpt>
      <trkpt lat="45.86177" lon="6.75561">
        <ele>1337</ele>
        <time>2026-08-14T11:59:12.540Z</time>
      </trkpt>
      <trkpt lat="45.86177" lon="6.75563">
        <ele>1337</ele>
        <time>2026-08-14T11:59:13.540Z</time>
      </trkpt>
      <trkpt lat="45.86177" lon="6.75565">
        <ele>1337</ele>
        <time>2026-08-14T11:59:14.540Z</time>
      </trkpt>
      <trkpt lat="45.86176" lon="6.75568">
        <ele>1337</ele>
        <time>2026-08-14T11:59:15.540Z</time>
      </trkpt>
      <trkpt lat="45.86176" lon="6.7557">
        <ele>1337</ele>
        <time>2026-08-14T11:59:16.540Z</time>
      </trkpt>
      <trkpt lat="45.86176" lon="6.75572">
        <ele>1337</ele>
        <time>2026-08-14T11:59:17.540Z</time>
      </trkpt>
      <trkpt lat="45.86176" lon="6.75574">
        <ele>1336</ele>
        <time>2026-08-14T11:59:18.540Z</time>
      </trkpt>
      <trkpt lat="45.86176" lon="6.75576">
        <ele>1336</ele>
        <time>2026-08-14T11:59:19.540Z</time>
      </trkpt>
      <trkpt lat="45.86177" lon="6.75578">
        <ele>1335</ele>
        <time>2026-08-14T11:59:20.540Z</time>
      </trkpt>
      <trkpt lat="45.86177" lon="6.7558">
        <ele>1334</ele>
        <time>2026-08-14T11:59:21.540Z</time>
      </trkpt>
      <trkpt lat="45.86178" lon="6.75582">
        <ele>1334</ele>
        <time>2026-08-14T11:59:22.540Z</time>
      </trkpt>
      <trkpt lat="45.86178" lon="6.75584">
        <ele>1333</ele>
        <time>2026-08-14T11:59:23.540Z</time>
      </trkpt>
      <trkpt lat="45.86178" lon="6.75586">
        <ele>1333</ele>
        <time>2026-08-14T11:59:24.540Z</time>
      </trkpt>
      <trkpt lat="45.86179" lon="6.75588">
        <ele>1333</ele>
        <time>2026-08-14T11:59:25.540Z</time>
      </trkpt>
      <trkpt lat="45.86179" lon="6.7559">
        <ele>1333</ele>
        <time>2026-08-14T11:59:26.540Z</time>
      </trkpt>
      <trkpt lat="45.8618" lon="6.75592">
        <ele>1333</ele>
        <time>2026-08-14T11:59:27.540Z</time>
      </trkpt>
      <trkpt lat="45.86181" lon="6.75593">
        <ele>1333</ele>
        <time>2026-08-14T11:59:28.540Z</time>
      </trkpt>
      <trkpt lat="45.86182" lon="6.75595">
        <ele>1333</ele>
        <time>2026-08-14T11:59:29.540Z</time>
      </trkpt>
      <trkpt lat="45.86183" lon="6.75597">
        <ele>1333</ele>
        <time>2026-08-14T11:59:30.540Z</time>
      </trkpt>
      <trkpt lat="45.86183" lon="6.75599">
        <ele>1333</ele>
        <time>2026-08-14T11:59:31.540Z</time>
      </trkpt>
      <trkpt lat="45.86184" lon="6.756">
        <ele>1333</ele>
        <time>2026-08-14T11:59:32.540Z</time>
      </trkpt>
      <trkpt lat="45.86184" lon="6.75602">
        <ele>1334</ele>
        <time>2026-08-14T11:59:33.540Z</time>
      </trkpt>
      <trkpt lat="45.86184" lon="6.75603">
        <ele>1334</ele>
        <time>2026-08-14T11:59:34.540Z</time>
      </trkpt>
      <trkpt lat="45.86184" lon="6.75605">
        <ele>1334</ele>
        <time>2026-08-14T11:59:35.540Z</time>
      </trkpt>
      <trkpt lat="45.86185" lon="6.75607">
        <ele>1334</ele>
        <time>2026-08-14T11:59:36.540Z</time>
      </trkpt>
      <trkpt lat="45.86185" lon="6.75609">
        <ele>1335</ele>
        <time>2026-08-14T11:59:37.540Z</time>
      </trkpt>
      <trkpt lat="45.86185" lon="6.75612">
        <ele>1335</ele>
        <time>2026-08-14T11:59:38.540Z</time>
      </trkpt>
      <trkpt lat="45.86185" lon="6.75614">
        <ele>1335</ele>
        <time>2026-08-14T11:59:39.540Z</time>
      </trkpt>
      <trkpt lat="45.86186" lon="6.75616">
        <ele>1336</ele>
        <time>2026-08-14T11:59:40.540Z</time>
      </trkpt>
      <trkpt lat="45.86185" lon="6.75618">
        <ele>1336</ele>
        <time>2026-08-14T11:59:41.540Z</time>
      </trkpt>
      <trkpt lat="45.86185" lon="6.7562">
        <ele>1336</ele>
        <time>2026-08-14T11:59:42.540Z</time>
      </trkpt>
      <trkpt lat="45.86185" lon="6.75622">
        <ele>1336</ele>
        <time>2026-08-14T11:59:43.540Z</time>
      </trkpt>
      <trkpt lat="45.86185" lon="6.75625">
        <ele>1336</ele>
        <time>2026-08-14T11:59:44.540Z</time>
      </trkpt>
      <trkpt lat="45.86185" lon="6.75627">
        <ele>1336</ele>
        <time>2026-08-14T11:59:45.540Z</time>
      </trkpt>
      <trkpt lat="45.86186" lon="6.75629">
        <ele>1336</ele>
        <time>2026-08-14T11:59:46.540Z</time>
      </trkpt>
      <trkpt lat="45.86186" lon="6.75631">
        <ele>1336</ele>
        <time>2026-08-14T11:59:47.540Z</time>
      </trkpt>
      <trkpt lat="45.86186" lon="6.75633">
        <ele>1335</ele>
        <time>2026-08-14T11:59:48.540Z</time>
      </trkpt>
      <trkpt lat="45.86187" lon="6.75633">
        <ele>1335</ele>
        <time>2026-08-14T11:59:49.540Z</time>
      </trkpt>
      <trkpt lat="45.86187" lon="6.75634">
        <ele>1335</ele>
        <time>2026-08-14T11:59:50.540Z</time>
      </trkpt>
      <trkpt lat="45.86188" lon="6.75636">
        <ele>1334</ele>
        <time>2026-08-14T11:59:51.540Z</time>
      </trkpt>
      <trkpt lat="45.86188" lon="6.75638">
        <ele>1334</ele>
        <time>2026-08-14T11:59:52.540Z</time>
      </trkpt>
      <trkpt lat="45.86188" lon="6.75639">
        <ele>1333</ele>
        <time>2026-08-14T11:59:53.540Z</time>
      </trkpt>
      <trkpt lat="45.86188" lon="6.75641">
        <ele>1333</ele>
        <time>2026-08-14T11:59:54.540Z</time>
      </trkpt>
      <trkpt lat="45.86189" lon="6.75642">
        <ele>1333</ele>
        <time>2026-08-14T11:59:55.540Z</time>
      </trkpt>
      <trkpt lat="45.86189" lon="6.75644">
        <ele>1333</ele>
        <time>2026-08-14T11:59:56.540Z</time>
      </trkpt>
      <trkpt lat="45.86189" lon="6.75646">
        <ele>1334</ele>
        <time>2026-08-14T11:59:57.540Z</time>
      </trkpt>
      <trkpt lat="45.8619" lon="6.75647">
        <ele>1334</ele>
        <time>2026-08-14T11:59:58.540Z</time>
      </trkpt>
      <trkpt lat="45.8619" lon="6.75649">
        <ele>1334</ele>
        <time>2026-08-14T11:59:59.540Z</time>
      </trkpt>
      <trkpt lat="45.8619" lon="6.75651">
        <ele>1334</ele>
        <time>2026-08-14T12:00:00.540Z</time>
      </trkpt>
      <trkpt lat="45.86191" lon="6.75652">
        <ele>1335</ele>
        <time>2026-08-14T12:00:01.540Z</time>
      </trkpt>
      <trkpt lat="45.86191" lon="6.75653">
        <ele>1335</ele>
        <time>2026-08-14T12:00:02.540Z</time>
      </trkpt>
      <trkpt lat="45.86192" lon="6.75655">
        <ele>1335</ele>
        <time>2026-08-14T12:00:03.540Z</time>
      </trkpt>
      <trkpt lat="45.86194" lon="6.75657">
        <ele>1336</ele>
        <time>2026-08-14T12:00:04.540Z</time>
      </trkpt>
      <trkpt lat="45.86195" lon="6.7566">
        <ele>1336</ele>
        <time>2026-08-14T12:00:05.540Z</time>
      </trkpt>
      <trkpt lat="45.86196" lon="6.75662">
        <ele>1336</ele>
        <time>2026-08-14T12:00:06.540Z</time>
      </trkpt>
      <trkpt lat="45.86197" lon="6.75664">
        <ele>1336</ele>
        <time>2026-08-14T12:00:07.540Z</time>
      </trkpt>
      <trkpt lat="45.86197" lon="6.75665">
        <ele>1337</ele>
        <time>2026-08-14T12:00:08.540Z</time>
      </trkpt>
      <trkpt lat="45.86197" lon="6.75667">
        <ele>1337</ele>
        <time>2026-08-14T12:00:09.540Z</time>
      </trkpt>
      <trkpt lat="45.86198" lon="6.75669">
        <ele>1338</ele>
        <time>2026-08-14T12:00:10.540Z</time>
      </trkpt>
      <trkpt lat="45.86198" lon="6.75671">
        <ele>1338</ele>
        <time>2026-08-14T12:00:11.540Z</time>
      </trkpt>
      <trkpt lat="45.86199" lon="6.75672">
        <ele>1338</ele>
        <time>2026-08-14T12:00:12.540Z</time>
      </trkpt>
      <trkpt lat="45.86199" lon="6.75674">
        <ele>1338</ele>
        <time>2026-08-14T12:00:13.540Z</time>
      </trkpt>
      <trkpt lat="45.86199" lon="6.75675">
        <ele>1337</ele>
        <time>2026-08-14T12:00:14.540Z</time>
      </trkpt>
      <trkpt lat="45.86199" lon="6.75677">
        <ele>1337</ele>
        <time>2026-08-14T12:00:15.540Z</time>
      </trkpt>
      <trkpt lat="45.86199" lon="6.75678">
        <ele>1337</ele>
        <time>2026-08-14T12:00:16.540Z</time>
      </trkpt>
      <trkpt lat="45.86199" lon="6.7568">
        <ele>1337</ele>
        <time>2026-08-14T12:00:17.540Z</time>
      </trkpt>
      <trkpt lat="45.862" lon="6.75681">
        <ele>1337</ele>
        <time>2026-08-14T12:00:18.540Z</time>
      </trkpt>
      <trkpt lat="45.86201" lon="6.75682">
        <ele>1337</ele>
        <time>2026-08-14T12:00:19.540Z</time>
      </trkpt>
      <trkpt lat="45.86202" lon="6.75684">
        <ele>1338</ele>
        <time>2026-08-14T12:00:20.540Z</time>
      </trkpt>
      <trkpt lat="45.86203" lon="6.75685">
        <ele>1338</ele>
        <time>2026-08-14T12:00:21.540Z</time>
      </trkpt>
      <trkpt lat="45.86204" lon="6.75687">
        <ele>1338</ele>
        <time>2026-08-14T12:00:22.540Z</time>
      </trkpt>
      <trkpt lat="45.86204" lon="6.75689">
        <ele>1339</ele>
        <time>2026-08-14T12:00:23.540Z</time>
      </trkpt>
      <trkpt lat="45.86204" lon="6.75691">
        <ele>1339</ele>
        <time>2026-08-14T12:00:24.540Z</time>
      </trkpt>
      <trkpt lat="45.86204" lon="6.75693">
        <ele>1339</ele>
        <time>2026-08-14T12:00:25.540Z</time>
      </trkpt>
      <trkpt lat="45.86204" lon="6.75695">
        <ele>1340</ele>
        <time>2026-08-14T12:00:26.540Z</time>
      </trkpt>
      <trkpt lat="45.86204" lon="6.75697">
        <ele>1340</ele>
        <time>2026-08-14T12:00:27.540Z</time>
      </trkpt>
      <trkpt lat="45.86205" lon="6.75698">
        <ele>1340</ele>
        <time>2026-08-14T12:00:28.540Z</time>
      </trkpt>
      <trkpt lat="45.86205" lon="6.757">
        <ele>1340</ele>
        <time>2026-08-14T12:00:29.540Z</time>
      </trkpt>
      <trkpt lat="45.86205" lon="6.75701">
        <ele>1341</ele>
        <time>2026-08-14T12:00:30.540Z</time>
      </trkpt>
      <trkpt lat="45.86206" lon="6.75703">
        <ele>1341</ele>
        <time>2026-08-14T12:00:31.540Z</time>
      </trkpt>
      <trkpt lat="45.86206" lon="6.75704">
        <ele>1341</ele>
        <time>2026-08-14T12:00:32.540Z</time>
      </trkpt>
      <trkpt lat="45.86207" lon="6.75705">
        <ele>1342</ele>
        <time>2026-08-14T12:00:33.540Z</time>
      </trkpt>
      <trkpt lat="45.86207" lon="6.75705">
        <ele>1342</ele>
        <time>2026-08-14T12:00:34.540Z</time>
      </trkpt>
      <trkpt lat="45.86207" lon="6.75706">
        <ele>1343</ele>
        <time>2026-08-14T12:00:35.540Z</time>
      </trkpt>
      <trkpt lat="45.86207" lon="6.75706">
        <ele>1343</ele>
        <time>2026-08-14T12:00:36.540Z</time>
      </trkpt>
      <trkpt lat="45.86207" lon="6.75706">
        <ele>1343</ele>
        <time>2026-08-14T12:00:37.540Z</time>
      </trkpt>
      <trkpt lat="45.86207" lon="6.75706">
        <ele>1343</ele>
        <time>2026-08-14T12:00:38.540Z</time>
      </trkpt>
      <trkpt lat="45.86208" lon="6.75706">
        <ele>1344</ele>
        <time>2026-08-14T12:00:39.540Z</time>
      </trkpt>
      <trkpt lat="45.86208" lon="6.75706">
        <ele>1344</ele>
        <time>2026-08-14T12:00:40.540Z</time>
      </trkpt>
      <trkpt lat="45.86208" lon="6.75706">
        <ele>1344</ele>
        <time>2026-08-14T12:00:41.540Z</time>
      </trkpt>
      <trkpt lat="45.86208" lon="6.75706">
        <ele>1345</ele>
        <time>2026-08-14T12:00:42.540Z</time>
      </trkpt>
      <trkpt lat="45.86208" lon="6.75706">
        <ele>1345</ele>
        <time>2026-08-14T12:00:43.540Z</time>
      </trkpt>
      <trkpt lat="45.86208" lon="6.75706">
        <ele>1345</ele>
        <time>2026-08-14T12:00:44.540Z</time>
      </trkpt>
      <trkpt lat="45.86208" lon="6.75707">
        <ele>1345</ele>
        <time>2026-08-14T12:00:45.540Z</time>
      </trkpt>
      <trkpt lat="45.86208" lon="6.75707">
        <ele>1345</ele>
        <time>2026-08-14T12:00:46.540Z</time>
      </trkpt>
      <trkpt lat="45.86208" lon="6.75707">
        <ele>1346</ele>
        <time>2026-08-14T12:00:47.540Z</time>
      </trkpt>
      <trkpt lat="45.86208" lon="6.75708">
        <ele>1346</ele>
        <time>2026-08-14T12:00:48.540Z</time>
      </trkpt>
      <trkpt lat="45.86208" lon="6.75709">
        <ele>1346</ele>
        <time>2026-08-14T12:00:49.540Z</time>
      </trkpt>
      <trkpt lat="45.86208" lon="6.75709">
        <ele>1346</ele>
        <time>2026-08-14T12:00:50.540Z</time>
      </trkpt>
      <trkpt lat="45.86209" lon="6.7571">
        <ele>1346</ele>
        <time>2026-08-14T12:00:51.540Z</time>
      </trkpt>
      <trkpt lat="45.86209" lon="6.7571">
        <ele>1345</ele>
        <time>2026-08-14T12:00:52.540Z</time>
      </trkpt>
      <trkpt lat="45.86209" lon="6.75711">
        <ele>1345</ele>
        <time>2026-08-14T12:00:53.540Z</time>
      </trkpt>
      <trkpt lat="45.86209" lon="6.75713">
        <ele>1345</ele>
        <time>2026-08-14T12:00:54.540Z</time>
      </trkpt>
      <trkpt lat="45.86209" lon="6.75714">
        <ele>1345</ele>
        <time>2026-08-14T12:00:55.540Z</time>
      </trkpt>
      <trkpt lat="45.86209" lon="6.75715">
        <ele>1345</ele>
        <time>2026-08-14T12:00:56.540Z</time>
      </trkpt>
      <trkpt lat="45.8621" lon="6.75718">
        <ele>1344</ele>
        <time>2026-08-14T12:00:57.540Z</time>
      </trkpt>
      <trkpt lat="45.8621" lon="6.7572">
        <ele>1344</ele>
        <time>2026-08-14T12:00:58.540Z</time>
      </trkpt>
      <trkpt lat="45.86211" lon="6.75721">
        <ele>1344</ele>
        <time>2026-08-14T12:00:59.540Z</time>
      </trkpt>
      <trkpt lat="45.86211" lon="6.75723">
        <ele>1344</ele>
        <time>2026-08-14T12:01:00.540Z</time>
      </trkpt>
      <trkpt lat="45.86212" lon="6.75725">
        <ele>1345</ele>
        <time>2026-08-14T12:01:01.540Z</time>
      </trkpt>
      <trkpt lat="45.86213" lon="6.75727">
        <ele>1345</ele>
        <time>2026-08-14T12:01:02.540Z</time>
      </trkpt>
      <trkpt lat="45.86213" lon="6.75729">
        <ele>1345</ele>
        <time>2026-08-14T12:01:03.540Z</time>
      </trkpt>
      <trkpt lat="45.86213" lon="6.75731">
        <ele>1345</ele>
        <time>2026-08-14T12:01:04.540Z</time>
      </trkpt>
      <trkpt lat="45.86212" lon="6.75731">
        <ele>1345</ele>
        <time>2026-08-14T12:01:05.540Z</time>
      </trkpt>
      <trkpt lat="45.86212" lon="6.75732">
        <ele>1345</ele>
        <time>2026-08-14T12:01:06.540Z</time>
      </trkpt>
      <trkpt lat="45.86212" lon="6.75732">
        <ele>1345</ele>
        <time>2026-08-14T12:01:07.540Z</time>
      </trkpt>
      <trkpt lat="45.86212" lon="6.75733">
        <ele>1345</ele>
        <time>2026-08-14T12:01:08.540Z</time>
      </trkpt>
      <trkpt lat="45.86213" lon="6.75734">
        <ele>1346</ele>
        <time>2026-08-14T12:01:09.540Z</time>
      </trkpt>
      <trkpt lat="45.86213" lon="6.75735">
        <ele>1346</ele>
        <time>2026-08-14T12:01:10.540Z</time>
      </trkpt>
      <trkpt lat="45.86214" lon="6.75737">
        <ele>1346</ele>
        <time>2026-08-14T12:01:11.540Z</time>
      </trkpt>
      <trkpt lat="45.86214" lon="6.75738">
        <ele>1347</ele>
        <time>2026-08-14T12:01:12.540Z</time>
      </trkpt>
      <trkpt lat="45.86215" lon="6.75739">
        <ele>1348</ele>
        <time>2026-08-14T12:01:13.540Z</time>
      </trkpt>
      <trkpt lat="45.86216" lon="6.75741">
        <ele>1348</ele>
        <time>2026-08-14T12:01:14.540Z</time>
      </trkpt>
      <trkpt lat="45.86217" lon="6.75743">
        <ele>1348</ele>
        <time>2026-08-14T12:01:15.540Z</time>
      </trkpt>
      <trkpt lat="45.86218" lon="6.75745">
        <ele>1348</ele>
        <time>2026-08-14T12:01:16.540Z</time>
      </trkpt>
      <trkpt lat="45.86219" lon="6.75747">
        <ele>1349</ele>
        <time>2026-08-14T12:01:17.540Z</time>
      </trkpt>
      <trkpt lat="45.86219" lon="6.75748">
        <ele>1349</ele>
        <time>2026-08-14T12:01:18.540Z</time>
      </trkpt>
      <trkpt lat="45.86219" lon="6.75751">
        <ele>1350</ele>
        <time>2026-08-14T12:01:19.540Z</time>
      </trkpt>
      <trkpt lat="45.8622" lon="6.75753">
        <ele>1350</ele>
        <time>2026-08-14T12:01:20.540Z</time>
      </trkpt>
      <trkpt lat="45.8622" lon="6.75755">
        <ele>1350</ele>
        <time>2026-08-14T12:01:21.540Z</time>
      </trkpt>
      <trkpt lat="45.86221" lon="6.75757">
        <ele>1350</ele>
        <time>2026-08-14T12:01:22.540Z</time>
      </trkpt>
      <trkpt lat="45.86222" lon="6.75759">
        <ele>1351</ele>
        <time>2026-08-14T12:01:23.540Z</time>
      </trkpt>
      <trkpt lat="45.86224" lon="6.7576">
        <ele>1351</ele>
        <time>2026-08-14T12:01:24.540Z</time>
      </trkpt>
      <trkpt lat="45.86225" lon="6.75762">
        <ele>1351</ele>
        <time>2026-08-14T12:01:25.540Z</time>
      </trkpt>
      <trkpt lat="45.86225" lon="6.75764">
        <ele>1352</ele>
        <time>2026-08-14T12:01:26.540Z</time>
      </trkpt>
      <trkpt lat="45.86225" lon="6.75767">
        <ele>1352</ele>
        <time>2026-08-14T12:01:27.540Z</time>
      </trkpt>
      <trkpt lat="45.86225" lon="6.75769">
        <ele>1352</ele>
        <time>2026-08-14T12:01:28.540Z</time>
      </trkpt>
      <trkpt lat="45.86225" lon="6.75771">
        <ele>1352</ele>
        <time>2026-08-14T12:01:29.540Z</time>
      </trkpt>
      <trkpt lat="45.86225" lon="6.75773">
        <ele>1352</ele>
        <time>2026-08-14T12:01:30.540Z</time>
      </trkpt>
      <trkpt lat="45.86225" lon="6.75775">
        <ele>1352</ele>
        <time>2026-08-14T12:01:31.540Z</time>
      </trkpt>
      <trkpt lat="45.86225" lon="6.75777">
        <ele>1353</ele>
        <time>2026-08-14T12:01:32.540Z</time>
      </trkpt>
      <trkpt lat="45.86225" lon="6.75778">
        <ele>1353</ele>
        <time>2026-08-14T12:01:33.540Z</time>
      </trkpt>
      <trkpt lat="45.86225" lon="6.7578">
        <ele>1353</ele>
        <time>2026-08-14T12:01:34.540Z</time>
      </trkpt>
      <trkpt lat="45.86225" lon="6.75782">
        <ele>1354</ele>
        <time>2026-08-14T12:01:35.540Z</time>
      </trkpt>
      <trkpt lat="45.86225" lon="6.75784">
        <ele>1353</ele>
        <time>2026-08-14T12:01:36.540Z</time>
      </trkpt>
      <trkpt lat="45.86225" lon="6.75785">
        <ele>1353</ele>
        <time>2026-08-14T12:01:37.540Z</time>
      </trkpt>
      <trkpt lat="45.86225" lon="6.75787">
        <ele>1353</ele>
        <time>2026-08-14T12:01:38.540Z</time>
      </trkpt>
      <trkpt lat="45.86225" lon="6.75789">
        <ele>1354</ele>
        <time>2026-08-14T12:01:39.540Z</time>
      </trkpt>
      <trkpt lat="45.86225" lon="6.75791">
        <ele>1354</ele>
        <time>2026-08-14T12:01:40.540Z</time>
      </trkpt>
      <trkpt lat="45.86226" lon="6.75793">
        <ele>1355</ele>
        <time>2026-08-14T12:01:41.540Z</time>
      </trkpt>
      <trkpt lat="45.86226" lon="6.75795">
        <ele>1355</ele>
        <time>2026-08-14T12:01:42.540Z</time>
      </trkpt>
      <trkpt lat="45.86226" lon="6.75796">
        <ele>1356</ele>
        <time>2026-08-14T12:01:43.540Z</time>
      </trkpt>
      <trkpt lat="45.86227" lon="6.75798">
        <ele>1356</ele>
        <time>2026-08-14T12:01:44.540Z</time>
      </trkpt>
      <trkpt lat="45.86228" lon="6.75799">
        <ele>1356</ele>
        <time>2026-08-14T12:01:45.540Z</time>
      </trkpt>
      <trkpt lat="45.86228" lon="6.758">
        <ele>1356</ele>
        <time>2026-08-14T12:01:46.540Z</time>
      </trkpt>
      <trkpt lat="45.86228" lon="6.75802">
        <ele>1356</ele>
        <time>2026-08-14T12:01:47.540Z</time>
      </trkpt>
      <trkpt lat="45.86229" lon="6.75804">
        <ele>1356</ele>
        <time>2026-08-14T12:01:48.540Z</time>
      </trkpt>
      <trkpt lat="45.8623" lon="6.75806">
        <ele>1356</ele>
        <time>2026-08-14T12:01:49.540Z</time>
      </trkpt>
      <trkpt lat="45.86231" lon="6.75808">
        <ele>1356</ele>
        <time>2026-08-14T12:01:50.540Z</time>
      </trkpt>
      <trkpt lat="45.86232" lon="6.75811">
        <ele>1355</ele>
        <time>2026-08-14T12:01:51.540Z</time>
      </trkpt>
      <trkpt lat="45.86232" lon="6.75813">
        <ele>1355</ele>
        <time>2026-08-14T12:01:52.540Z</time>
      </trkpt>
      <trkpt lat="45.86233" lon="6.75814">
        <ele>1355</ele>
        <time>2026-08-14T12:01:53.540Z</time>
      </trkpt>
      <trkpt lat="45.86233" lon="6.75816">
        <ele>1355</ele>
        <time>2026-08-14T12:01:54.540Z</time>
      </trkpt>
      <trkpt lat="45.86234" lon="6.75817">
        <ele>1355</ele>
        <time>2026-08-14T12:01:55.540Z</time>
      </trkpt>
      <trkpt lat="45.86234" lon="6.75819">
        <ele>1355</ele>
        <time>2026-08-14T12:01:56.540Z</time>
      </trkpt>
      <trkpt lat="45.86234" lon="6.75819">
        <ele>1355</ele>
        <time>2026-08-14T12:01:57.540Z</time>
      </trkpt>
      <trkpt lat="45.86233" lon="6.75821">
        <ele>1355</ele>
        <time>2026-08-14T12:01:58.540Z</time>
      </trkpt>
      <trkpt lat="45.86232" lon="6.75823">
        <ele>1355</ele>
        <time>2026-08-14T12:01:59.540Z</time>
      </trkpt>
      <trkpt lat="45.86231" lon="6.75824">
        <ele>1355</ele>
        <time>2026-08-14T12:02:00.540Z</time>
      </trkpt>
      <trkpt lat="45.86231" lon="6.75825">
        <ele>1355</ele>
        <time>2026-08-14T12:02:01.540Z</time>
      </trkpt>
      <trkpt lat="45.86232" lon="6.75827">
        <ele>1355</ele>
        <time>2026-08-14T12:02:02.540Z</time>
      </trkpt>
      <trkpt lat="45.86233" lon="6.75829">
        <ele>1356</ele>
        <time>2026-08-14T12:02:03.540Z</time>
      </trkpt>
      <trkpt lat="45.86234" lon="6.7583">
        <ele>1356</ele>
        <time>2026-08-14T12:02:04.540Z</time>
      </trkpt>
      <trkpt lat="45.86234" lon="6.75832">
        <ele>1357</ele>
        <time>2026-08-14T12:02:05.540Z</time>
      </trkpt>
      <trkpt lat="45.86235" lon="6.75834">
        <ele>1357</ele>
        <time>2026-08-14T12:02:06.540Z</time>
      </trkpt>
      <trkpt lat="45.86235" lon="6.75836">
        <ele>1357</ele>
        <time>2026-08-14T12:02:07.540Z</time>
      </trkpt>
      <trkpt lat="45.86236" lon="6.75838">
        <ele>1357</ele>
        <time>2026-08-14T12:02:08.540Z</time>
      </trkpt>
      <trkpt lat="45.86236" lon="6.75841">
        <ele>1357</ele>
        <time>2026-08-14T12:02:09.540Z</time>
      </trkpt>
      <trkpt lat="45.86237" lon="6.75843">
        <ele>1357</ele>
        <time>2026-08-14T12:02:10.540Z</time>
      </trkpt>
      <trkpt lat="45.86236" lon="6.75846">
        <ele>1357</ele>
        <time>2026-08-14T12:02:11.540Z</time>
      </trkpt>
      <trkpt lat="45.86237" lon="6.75848">
        <ele>1358</ele>
        <time>2026-08-14T12:02:12.540Z</time>
      </trkpt>
      <trkpt lat="45.86238" lon="6.75851">
        <ele>1358</ele>
        <time>2026-08-14T12:02:13.540Z</time>
      </trkpt>
      <trkpt lat="45.86238" lon="6.75854">
        <ele>1358</ele>
        <time>2026-08-14T12:02:14.540Z</time>
      </trkpt>
      <trkpt lat="45.86238" lon="6.75856">
        <ele>1358</ele>
        <time>2026-08-14T12:02:15.540Z</time>
      </trkpt>
      <trkpt lat="45.86238" lon="6.7586">
        <ele>1358</ele>
        <time>2026-08-14T12:02:16.540Z</time>
      </trkpt>
      <trkpt lat="45.86238" lon="6.75863">
        <ele>1357</ele>
        <time>2026-08-14T12:02:17.540Z</time>
      </trkpt>
      <trkpt lat="45.86238" lon="6.75867">
        <ele>1357</ele>
        <time>2026-08-14T12:02:18.540Z</time>
      </trkpt>
      <trkpt lat="45.86237" lon="6.75871">
        <ele>1357</ele>
        <time>2026-08-14T12:02:19.540Z</time>
      </trkpt>
      <trkpt lat="45.86236" lon="6.75874">
        <ele>1356</ele>
        <time>2026-08-14T12:02:20.540Z</time>
      </trkpt>
      <trkpt lat="45.86236" lon="6.75878">
        <ele>1356</ele>
        <time>2026-08-14T12:02:21.540Z</time>
      </trkpt>
      <trkpt lat="45.86236" lon="6.75881">
        <ele>1356</ele>
        <time>2026-08-14T12:02:22.540Z</time>
      </trkpt>
      <trkpt lat="45.86236" lon="6.75883">
        <ele>1356</ele>
        <time>2026-08-14T12:02:23.540Z</time>
      </trkpt>
      <trkpt lat="45.86236" lon="6.75885">
        <ele>1356</ele>
        <time>2026-08-14T12:02:24.540Z</time>
      </trkpt>
      <trkpt lat="45.86236" lon="6.75888">
        <ele>1356</ele>
        <time>2026-08-14T12:02:25.540Z</time>
      </trkpt>
      <trkpt lat="45.86235" lon="6.7589">
        <ele>1357</ele>
        <time>2026-08-14T12:02:26.540Z</time>
      </trkpt>
      <trkpt lat="45.86235" lon="6.75892">
        <ele>1357</ele>
        <time>2026-08-14T12:02:27.540Z</time>
      </trkpt>
      <trkpt lat="45.86235" lon="6.75895">
        <ele>1357</ele>
        <time>2026-08-14T12:02:28.540Z</time>
      </trkpt>
      <trkpt lat="45.86235" lon="6.75897">
        <ele>1357</ele>
        <time>2026-08-14T12:02:29.540Z</time>
      </trkpt>
      <trkpt lat="45.86235" lon="6.759">
        <ele>1357</ele>
        <time>2026-08-14T12:02:30.540Z</time>
      </trkpt>
      <trkpt lat="45.86234" lon="6.75903">
        <ele>1357</ele>
        <time>2026-08-14T12:02:31.540Z</time>
      </trkpt>
      <trkpt lat="45.86235" lon="6.75905">
        <ele>1357</ele>
        <time>2026-08-14T12:02:32.540Z</time>
      </trkpt>
      <trkpt lat="45.86234" lon="6.75908">
        <ele>1358</ele>
        <time>2026-08-14T12:02:33.540Z</time>
      </trkpt>
      <trkpt lat="45.86234" lon="6.75911">
        <ele>1358</ele>
        <time>2026-08-14T12:02:34.540Z</time>
      </trkpt>
      <trkpt lat="45.86232" lon="6.75913">
        <ele>1358</ele>
        <time>2026-08-14T12:02:35.540Z</time>
      </trkpt>
      <trkpt lat="45.8623" lon="6.75916">
        <ele>1358</ele>
        <time>2026-08-14T12:02:36.540Z</time>
      </trkpt>
      <trkpt lat="45.86227" lon="6.75919">
        <ele>1358</ele>
        <time>2026-08-14T12:02:37.540Z</time>
      </trkpt>
      <trkpt lat="45.86225" lon="6.75921">
        <ele>1357</ele>
        <time>2026-08-14T12:02:38.540Z</time>
      </trkpt>
      <trkpt lat="45.86224" lon="6.75924">
        <ele>1357</ele>
        <time>2026-08-14T12:02:39.540Z</time>
      </trkpt>
      <trkpt lat="45.86223" lon="6.75926">
        <ele>1356</ele>
        <time>2026-08-14T12:02:40.540Z</time>
      </trkpt>
      <trkpt lat="45.86221" lon="6.75928">
        <ele>1356</ele>
        <time>2026-08-14T12:02:41.540Z</time>
      </trkpt>
      <trkpt lat="45.8622" lon="6.7593">
        <ele>1356</ele>
        <time>2026-08-14T12:02:42.540Z</time>
      </trkpt>
      <trkpt lat="45.86218" lon="6.75931">
        <ele>1356</ele>
        <time>2026-08-14T12:02:43.540Z</time>
      </trkpt>
      <trkpt lat="45.86217" lon="6.75933">
        <ele>1356</ele>
        <time>2026-08-14T12:02:44.540Z</time>
      </trkpt>
      <trkpt lat="45.86216" lon="6.75934">
        <ele>1356</ele>
        <time>2026-08-14T12:02:45.540Z</time>
      </trkpt>
      <trkpt lat="45.86215" lon="6.75935">
        <ele>1357</ele>
        <time>2026-08-14T12:02:46.540Z</time>
      </trkpt>
      <trkpt lat="45.86214" lon="6.75936">
        <ele>1357</ele>
        <time>2026-08-14T12:02:47.540Z</time>
      </trkpt>
      <trkpt lat="45.86213" lon="6.75938">
        <ele>1358</ele>
        <time>2026-08-14T12:02:48.540Z</time>
      </trkpt>
      <trkpt lat="45.86211" lon="6.75939">
        <ele>1359</ele>
        <time>2026-08-14T12:02:49.540Z</time>
      </trkpt>
      <trkpt lat="45.8621" lon="6.7594">
        <ele>1360</ele>
        <time>2026-08-14T12:02:50.540Z</time>
      </trkpt>
      <trkpt lat="45.86208" lon="6.75942">
        <ele>1361</ele>
        <time>2026-08-14T12:02:51.540Z</time>
      </trkpt>
      <trkpt lat="45.86205" lon="6.75944">
        <ele>1361</ele>
        <time>2026-08-14T12:02:52.540Z</time>
      </trkpt>
      <trkpt lat="45.86203" lon="6.75946">
        <ele>1361</ele>
        <time>2026-08-14T12:02:53.540Z</time>
      </trkpt>
      <trkpt lat="45.86201" lon="6.75948">
        <ele>1362</ele>
        <time>2026-08-14T12:02:54.540Z</time>
      </trkpt>
      <trkpt lat="45.86199" lon="6.7595">
        <ele>1363</ele>
        <time>2026-08-14T12:02:55.540Z</time>
      </trkpt>
      <trkpt lat="45.86198" lon="6.75952">
        <ele>1363</ele>
        <time>2026-08-14T12:02:56.540Z</time>
      </trkpt>
      <trkpt lat="45.86197" lon="6.75954">
        <ele>1364</ele>
        <time>2026-08-14T12:02:57.540Z</time>
      </trkpt>
      <trkpt lat="45.86196" lon="6.75956">
        <ele>1365</ele>
        <time>2026-08-14T12:02:58.540Z</time>
      </trkpt>
      <trkpt lat="45.86195" lon="6.75958">
        <ele>1366</ele>
        <time>2026-08-14T12:02:59.540Z</time>
      </trkpt>
      <trkpt lat="45.86194" lon="6.75959">
        <ele>1367</ele>
        <time>2026-08-14T12:03:00.540Z</time>
      </trkpt>
      <trkpt lat="45.86193" lon="6.75961">
        <ele>1367</ele>
        <time>2026-08-14T12:03:01.540Z</time>
      </trkpt>
      <trkpt lat="45.86193" lon="6.75962">
        <ele>1367</ele>
        <time>2026-08-14T12:03:02.540Z</time>
      </trkpt>
      <trkpt lat="45.86192" lon="6.75964">
        <ele>1366</ele>
        <time>2026-08-14T12:03:03.540Z</time>
      </trkpt>
      <trkpt lat="45.86192" lon="6.75966">
        <ele>1365</ele>
        <time>2026-08-14T12:03:04.540Z</time>
      </trkpt>
      <trkpt lat="45.86193" lon="6.75968">
        <ele>1364</ele>
        <time>2026-08-14T12:03:05.540Z</time>
      </trkpt>
      <trkpt lat="45.86194" lon="6.75969">
        <ele>1363</ele>
        <time>2026-08-14T12:03:06.540Z</time>
      </trkpt>
      <trkpt lat="45.86195" lon="6.7597">
        <ele>1362</ele>
        <time>2026-08-14T12:03:07.540Z</time>
      </trkpt>
      <trkpt lat="45.86196" lon="6.75972">
        <ele>1362</ele>
        <time>2026-08-14T12:03:08.540Z</time>
      </trkpt>
      <trkpt lat="45.86197" lon="6.75973">
        <ele>1362</ele>
        <time>2026-08-14T12:03:09.540Z</time>
      </trkpt>
      <trkpt lat="45.86198" lon="6.75975">
        <ele>1361</ele>
        <time>2026-08-14T12:03:10.540Z</time>
      </trkpt>
      <trkpt lat="45.86199" lon="6.75976">
        <ele>1360</ele>
        <time>2026-08-14T12:03:11.540Z</time>
      </trkpt>
      <trkpt lat="45.862" lon="6.75978">
        <ele>1359</ele>
        <time>2026-08-14T12:03:12.540Z</time>
      </trkpt>
      <trkpt lat="45.86201" lon="6.7598">
        <ele>1359</ele>
        <time>2026-08-14T12:03:13.540Z</time>
      </trkpt>
      <trkpt lat="45.86201" lon="6.75981">
        <ele>1358</ele>
        <time>2026-08-14T12:03:14.540Z</time>
      </trkpt>
      <trkpt lat="45.86201" lon="6.75983">
        <ele>1358</ele>
        <time>2026-08-14T12:03:15.540Z</time>
      </trkpt>
      <trkpt lat="45.86201" lon="6.75985">
        <ele>1357</ele>
        <time>2026-08-14T12:03:16.540Z</time>
      </trkpt>
      <trkpt lat="45.86201" lon="6.75987">
        <ele>1357</ele>
        <time>2026-08-14T12:03:17.540Z</time>
      </trkpt>
      <trkpt lat="45.86202" lon="6.75988">
        <ele>1357</ele>
        <time>2026-08-14T12:03:18.540Z</time>
      </trkpt>
      <trkpt lat="45.86202" lon="6.75989">
        <ele>1357</ele>
        <time>2026-08-14T12:03:19.540Z</time>
      </trkpt>
      <trkpt lat="45.86202" lon="6.75991">
        <ele>1357</ele>
        <time>2026-08-14T12:03:20.540Z</time>
      </trkpt>
      <trkpt lat="45.86202" lon="6.75993">
        <ele>1357</ele>
        <time>2026-08-14T12:03:21.540Z</time>
      </trkpt>
      <trkpt lat="45.86202" lon="6.75995">
        <ele>1357</ele>
        <time>2026-08-14T12:03:22.540Z</time>
      </trkpt>
      <trkpt lat="45.86202" lon="6.75997">
        <ele>1357</ele>
        <time>2026-08-14T12:03:23.540Z</time>
      </trkpt>
      <trkpt lat="45.86202" lon="6.75999">
        <ele>1357</ele>
        <time>2026-08-14T12:03:24.540Z</time>
      </trkpt>
      <trkpt lat="45.86202" lon="6.76001">
        <ele>1357</ele>
        <time>2026-08-14T12:03:25.540Z</time>
      </trkpt>
      <trkpt lat="45.86202" lon="6.76003">
        <ele>1357</ele>
        <time>2026-08-14T12:03:26.540Z</time>
      </trkpt>
      <trkpt lat="45.86202" lon="6.76005">
        <ele>1357</ele>
        <time>2026-08-14T12:03:27.540Z</time>
      </trkpt>
      <trkpt lat="45.86202" lon="6.76006">
        <ele>1358</ele>
        <time>2026-08-14T12:03:28.540Z</time>
      </trkpt>
      <trkpt lat="45.86201" lon="6.76008">
        <ele>1359</ele>
        <time>2026-08-14T12:03:29.540Z</time>
      </trkpt>
      <trkpt lat="45.86201" lon="6.7601">
        <ele>1359</ele>
        <time>2026-08-14T12:03:30.540Z</time>
      </trkpt>
      <trkpt lat="45.862" lon="6.76011">
        <ele>1360</ele>
        <time>2026-08-14T12:03:31.540Z</time>
      </trkpt>
      <trkpt lat="45.86201" lon="6.76013">
        <ele>1360</ele>
        <time>2026-08-14T12:03:32.540Z</time>
      </trkpt>
      <trkpt lat="45.86201" lon="6.76015">
        <ele>1361</ele>
        <time>2026-08-14T12:03:33.540Z</time>
      </trkpt>
      <trkpt lat="45.86201" lon="6.76016">
        <ele>1361</ele>
        <time>2026-08-14T12:03:34.540Z</time>
      </trkpt>
      <trkpt lat="45.862" lon="6.76017">
        <ele>1362</ele>
        <time>2026-08-14T12:03:35.540Z</time>
      </trkpt>
      <trkpt lat="45.862" lon="6.76018">
        <ele>1362</ele>
        <time>2026-08-14T12:03:36.540Z</time>
      </trkpt>
      <trkpt lat="45.862" lon="6.76019">
        <ele>1363</ele>
        <time>2026-08-14T12:03:37.540Z</time>
      </trkpt>
      <trkpt lat="45.862" lon="6.7602">
        <ele>1363</ele>
        <time>2026-08-14T12:03:38.540Z</time>
      </trkpt>
      <trkpt lat="45.862" lon="6.76021">
        <ele>1363</ele>
        <time>2026-08-14T12:03:39.540Z</time>
      </trkpt>
      <trkpt lat="45.86201" lon="6.76023">
        <ele>1363</ele>
        <time>2026-08-14T12:03:40.540Z</time>
      </trkpt>
      <trkpt lat="45.86202" lon="6.76024">
        <ele>1363</ele>
        <time>2026-08-14T12:03:41.540Z</time>
      </trkpt>
      <trkpt lat="45.86202" lon="6.76025">
        <ele>1363</ele>
        <time>2026-08-14T12:03:42.540Z</time>
      </trkpt>
      <trkpt lat="45.86203" lon="6.76026">
        <ele>1364</ele>
        <time>2026-08-14T12:03:43.540Z</time>
      </trkpt>
      <trkpt lat="45.86203" lon="6.76027">
        <ele>1364</ele>
        <time>2026-08-14T12:03:44.540Z</time>
      </trkpt>
      <trkpt lat="45.86204" lon="6.76027">
        <ele>1364</ele>
        <time>2026-08-14T12:03:45.540Z</time>
      </trkpt>
      <trkpt lat="45.86205" lon="6.76028">
        <ele>1364</ele>
        <time>2026-08-14T12:03:46.540Z</time>
      </trkpt>
      <trkpt lat="45.86205" lon="6.76029">
        <ele>1364</ele>
        <time>2026-08-14T12:03:47.540Z</time>
      </trkpt>
      <trkpt lat="45.86206" lon="6.76029">
        <ele>1365</ele>
        <time>2026-08-14T12:03:48.540Z</time>
      </trkpt>
      <trkpt lat="45.86206" lon="6.7603">
        <ele>1365</ele>
        <time>2026-08-14T12:03:49.540Z</time>
      </trkpt>
      <trkpt lat="45.86207" lon="6.76029">
        <ele>1365</ele>
        <time>2026-08-14T12:03:50.540Z</time>
      </trkpt>
      <trkpt lat="45.86208" lon="6.76029">
        <ele>1366</ele>
        <time>2026-08-14T12:03:51.540Z</time>
      </trkpt>
      <trkpt lat="45.86208" lon="6.7603">
        <ele>1366</ele>
        <time>2026-08-14T12:03:52.540Z</time>
      </trkpt>
      <trkpt lat="45.86208" lon="6.76029">
        <ele>1366</ele>
        <time>2026-08-14T12:03:53.540Z</time>
      </trkpt>
      <trkpt lat="45.86208" lon="6.7603">
        <ele>1367</ele>
        <time>2026-08-14T12:03:54.540Z</time>
      </trkpt>
      <trkpt lat="45.86209" lon="6.76031">
        <ele>1367</ele>
        <time>2026-08-14T12:03:55.540Z</time>
      </trkpt>
      <trkpt lat="45.8621" lon="6.76031">
        <ele>1367</ele>
        <time>2026-08-14T12:03:56.540Z</time>
      </trkpt>
      <trkpt lat="45.86211" lon="6.76032">
        <ele>1368</ele>
        <time>2026-08-14T12:03:57.540Z</time>
      </trkpt>
      <trkpt lat="45.86211" lon="6.76032">
        <ele>1368</ele>
        <time>2026-08-14T12:03:58.540Z</time>
      </trkpt>
      <trkpt lat="45.86211" lon="6.76033">
        <ele>1368</ele>
        <time>2026-08-14T12:03:59.540Z</time>
      </trkpt>
      <trkpt lat="45.86211" lon="6.76033">
        <ele>1368</ele>
        <time>2026-08-14T12:04:00.540Z</time>
      </trkpt>
      <trkpt lat="45.86212" lon="6.76034">
        <ele>1369</ele>
        <time>2026-08-14T12:04:01.540Z</time>
      </trkpt>
      <trkpt lat="45.86212" lon="6.76034">
        <ele>1369</ele>
        <time>2026-08-14T12:04:02.540Z</time>
      </trkpt>
      <trkpt lat="45.86213" lon="6.76035">
        <ele>1369</ele>
        <time>2026-08-14T12:04:03.540Z</time>
      </trkpt>
      <trkpt lat="45.86214" lon="6.76036">
        <ele>1369</ele>
        <time>2026-08-14T12:04:04.540Z</time>
      </trkpt>
      <trkpt lat="45.86215" lon="6.76038">
        <ele>1369</ele>
        <time>2026-08-14T12:04:05.540Z</time>
      </trkpt>
      <trkpt lat="45.86216" lon="6.76039">
        <ele>1369</ele>
        <time>2026-08-14T12:04:06.540Z</time>
      </trkpt>
      <trkpt lat="45.86216" lon="6.7604">
        <ele>1369</ele>
        <time>2026-08-14T12:04:07.540Z</time>
      </trkpt>
      <trkpt lat="45.86217" lon="6.7604">
        <ele>1369</ele>
        <time>2026-08-14T12:04:08.540Z</time>
      </trkpt>
      <trkpt lat="45.86217" lon="6.7604">
        <ele>1369</ele>
        <time>2026-08-14T12:04:09.540Z</time>
      </trkpt>
      <trkpt lat="45.86217" lon="6.76041">
        <ele>1369</ele>
        <time>2026-08-14T12:04:10.540Z</time>
      </trkpt>
      <trkpt lat="45.86217" lon="6.76042">
        <ele>1369</ele>
        <time>2026-08-14T12:04:11.540Z</time>
      </trkpt>
      <trkpt lat="45.86218" lon="6.76042">
        <ele>1369</ele>
        <time>2026-08-14T12:04:12.540Z</time>
      </trkpt>
      <trkpt lat="45.86218" lon="6.76043">
        <ele>1369</ele>
        <time>2026-08-14T12:04:13.540Z</time>
      </trkpt>
      <trkpt lat="45.86219" lon="6.76043">
        <ele>1369</ele>
        <time>2026-08-14T12:04:14.540Z</time>
      </trkpt>
      <trkpt lat="45.8622" lon="6.76043">
        <ele>1370</ele>
        <time>2026-08-14T12:04:15.540Z</time>
      </trkpt>
      <trkpt lat="45.86221" lon="6.76044">
        <ele>1370</ele>
        <time>2026-08-14T12:04:16.540Z</time>
      </trkpt>
      <trkpt lat="45.86222" lon="6.76044">
        <ele>1371</ele>
        <time>2026-08-14T12:04:17.540Z</time>
      </trkpt>
      <trkpt lat="45.86223" lon="6.76045">
        <ele>1372</ele>
        <time>2026-08-14T12:04:18.540Z</time>
      </trkpt>
      <trkpt lat="45.86224" lon="6.76045">
        <ele>1372</ele>
        <time>2026-08-14T12:04:19.540Z</time>
      </trkpt>
      <trkpt lat="45.86224" lon="6.76046">
        <ele>1373</ele>
        <time>2026-08-14T12:04:20.540Z</time>
      </trkpt>
      <trkpt lat="45.86224" lon="6.76047">
        <ele>1374</ele>
        <time>2026-08-14T12:04:21.540Z</time>
      </trkpt>
      <trkpt lat="45.86225" lon="6.76048">
        <ele>1375</ele>
        <time>2026-08-14T12:04:22.540Z</time>
      </trkpt>
      <trkpt lat="45.86226" lon="6.76048">
        <ele>1376</ele>
        <time>2026-08-14T12:04:23.540Z</time>
      </trkpt>
      <trkpt lat="45.86227" lon="6.76049">
        <ele>1377</ele>
        <time>2026-08-14T12:04:24.540Z</time>
      </trkpt>
      <trkpt lat="45.86227" lon="6.76049">
        <ele>1377</ele>
        <time>2026-08-14T12:04:25.540Z</time>
      </trkpt>
      <trkpt lat="45.86228" lon="6.7605">
        <ele>1378</ele>
        <time>2026-08-14T12:04:26.540Z</time>
      </trkpt>
      <trkpt lat="45.86228" lon="6.76051">
        <ele>1378</ele>
        <time>2026-08-14T12:04:27.540Z</time>
      </trkpt>
      <trkpt lat="45.8623" lon="6.76051">
        <ele>1378</ele>
        <time>2026-08-14T12:04:28.540Z</time>
      </trkpt>
      <trkpt lat="45.86231" lon="6.76052">
        <ele>1379</ele>
        <time>2026-08-14T12:04:29.540Z</time>
      </trkpt>
      <trkpt lat="45.86231" lon="6.76052">
        <ele>1379</ele>
        <time>2026-08-14T12:04:30.540Z</time>
      </trkpt>
      <trkpt lat="45.86232" lon="6.76052">
        <ele>1380</ele>
        <time>2026-08-14T12:04:31.540Z</time>
      </trkpt>
      <trkpt lat="45.86233" lon="6.76052">
        <ele>1381</ele>
        <time>2026-08-14T12:04:32.540Z</time>
      </trkpt>
      <trkpt lat="45.86233" lon="6.76052">
        <ele>1381</ele>
        <time>2026-08-14T12:04:33.540Z</time>
      </trkpt>
      <trkpt lat="45.86234" lon="6.76053">
        <ele>1382</ele>
        <time>2026-08-14T12:04:34.540Z</time>
      </trkpt>
      <trkpt lat="45.86234" lon="6.76053">
        <ele>1382</ele>
        <time>2026-08-14T12:04:35.540Z</time>
      </trkpt>
      <trkpt lat="45.86235" lon="6.76053">
        <ele>1383</ele>
        <time>2026-08-14T12:04:36.540Z</time>
      </trkpt>
      <trkpt lat="45.86236" lon="6.76053">
        <ele>1383</ele>
        <time>2026-08-14T12:04:37.540Z</time>
      </trkpt>
      <trkpt lat="45.86237" lon="6.76054">
        <ele>1384</ele>
        <time>2026-08-14T12:04:38.540Z</time>
      </trkpt>
      <trkpt lat="45.86237" lon="6.76054">
        <ele>1384</ele>
        <time>2026-08-14T12:04:39.540Z</time>
      </trkpt>
      <trkpt lat="45.86238" lon="6.76054">
        <ele>1385</ele>
        <time>2026-08-14T12:04:40.540Z</time>
      </trkpt>
      <trkpt lat="45.86239" lon="6.76055">
        <ele>1385</ele>
        <time>2026-08-14T12:04:41.540Z</time>
      </trkpt>
      <trkpt lat="45.8624" lon="6.76056">
        <ele>1385</ele>
        <time>2026-08-14T12:04:42.540Z</time>
      </trkpt>
      <trkpt lat="45.86241" lon="6.76056">
        <ele>1385</ele>
        <time>2026-08-14T12:04:43.540Z</time>
      </trkpt>
      <trkpt lat="45.86242" lon="6.76057">
        <ele>1385</ele>
        <time>2026-08-14T12:04:44.540Z</time>
      </trkpt>
      <trkpt lat="45.86243" lon="6.76057">
        <ele>1385</ele>
        <time>2026-08-14T12:04:45.540Z</time>
      </trkpt>
      <trkpt lat="45.86243" lon="6.76057">
        <ele>1385</ele>
        <time>2026-08-14T12:04:46.540Z</time>
      </trkpt>
      <trkpt lat="45.86244" lon="6.76058">
        <ele>1384</ele>
        <time>2026-08-14T12:04:47.540Z</time>
      </trkpt>
      <trkpt lat="45.86245" lon="6.76058">
        <ele>1383</ele>
        <time>2026-08-14T12:04:48.540Z</time>
      </trkpt>
      <trkpt lat="45.86245" lon="6.76059">
        <ele>1383</ele>
        <time>2026-08-14T12:04:49.540Z</time>
      </trkpt>
      <trkpt lat="45.86245" lon="6.76059">
        <ele>1382</ele>
        <time>2026-08-14T12:04:50.540Z</time>
      </trkpt>
      <trkpt lat="45.86246" lon="6.7606">
        <ele>1382</ele>
        <time>2026-08-14T12:04:51.540Z</time>
      </trkpt>
      <trkpt lat="45.86246" lon="6.7606">
        <ele>1382</ele>
        <time>2026-08-14T12:04:52.540Z</time>
      </trkpt>
      <trkpt lat="45.86246" lon="6.76061">
        <ele>1382</ele>
        <time>2026-08-14T12:04:53.540Z</time>
      </trkpt>
      <trkpt lat="45.86247" lon="6.76062">
        <ele>1382</ele>
        <time>2026-08-14T12:04:54.540Z</time>
      </trkpt>
      <trkpt lat="45.86248" lon="6.76062">
        <ele>1382</ele>
        <time>2026-08-14T12:04:55.540Z</time>
      </trkpt>
      <trkpt lat="45.86249" lon="6.76063">
        <ele>1382</ele>
        <time>2026-08-14T12:04:56.540Z</time>
      </trkpt>
      <trkpt lat="45.8625" lon="6.76063">
        <ele>1382</ele>
        <time>2026-08-14T12:04:57.540Z</time>
      </trkpt>
      <trkpt lat="45.8625" lon="6.76065">
        <ele>1382</ele>
        <time>2026-08-14T12:04:58.540Z</time>
      </trkpt>
      <trkpt lat="45.86251" lon="6.76066">
        <ele>1382</ele>
        <time>2026-08-14T12:04:59.540Z</time>
      </trkpt>
      <trkpt lat="45.86252" lon="6.76066">
        <ele>1382</ele>
        <time>2026-08-14T12:05:00.540Z</time>
      </trkpt>
      <trkpt lat="45.86253" lon="6.76067">
        <ele>1382</ele>
        <time>2026-08-14T12:05:01.540Z</time>
      </trkpt>
      <trkpt lat="45.86253" lon="6.76068">
        <ele>1383</ele>
        <time>2026-08-14T12:05:02.540Z</time>
      </trkpt>
      <trkpt lat="45.86254" lon="6.76069">
        <ele>1383</ele>
        <time>2026-08-14T12:05:03.540Z</time>
      </trkpt>
      <trkpt lat="45.86254" lon="6.76069">
        <ele>1383</ele>
        <time>2026-08-14T12:05:04.540Z</time>
      </trkpt>
      <trkpt lat="45.86255" lon="6.7607">
        <ele>1383</ele>
        <time>2026-08-14T12:05:05.540Z</time>
      </trkpt>
      <trkpt lat="45.86256" lon="6.76071">
        <ele>1383</ele>
        <time>2026-08-14T12:05:06.540Z</time>
      </trkpt>
      <trkpt lat="45.86256" lon="6.76071">
        <ele>1384</ele>
        <time>2026-08-14T12:05:07.540Z</time>
      </trkpt>
      <trkpt lat="45.86256" lon="6.76072">
        <ele>1384</ele>
        <time>2026-08-14T12:05:08.540Z</time>
      </trkpt>
      <trkpt lat="45.86257" lon="6.76073">
        <ele>1384</ele>
        <time>2026-08-14T12:05:09.540Z</time>
      </trkpt>
      <trkpt lat="45.86257" lon="6.76074">
        <ele>1384</ele>
        <time>2026-08-14T12:05:10.540Z</time>
      </trkpt>
      <trkpt lat="45.86257" lon="6.76075">
        <ele>1384</ele>
        <time>2026-08-14T12:05:11.540Z</time>
      </trkpt>
      <trkpt lat="45.86258" lon="6.76075">
        <ele>1385</ele>
        <time>2026-08-14T12:05:12.540Z</time>
      </trkpt>
      <trkpt lat="45.86259" lon="6.76076">
        <ele>1385</ele>
        <time>2026-08-14T12:05:13.540Z</time>
      </trkpt>
      <trkpt lat="45.86259" lon="6.76077">
        <ele>1385</ele>
        <time>2026-08-14T12:05:14.540Z</time>
      </trkpt>
      <trkpt lat="45.8626" lon="6.76078">
        <ele>1386</ele>
        <time>2026-08-14T12:05:15.540Z</time>
      </trkpt>
      <trkpt lat="45.86261" lon="6.76079">
        <ele>1386</ele>
        <time>2026-08-14T12:05:16.540Z</time>
      </trkpt>
      <trkpt lat="45.86261" lon="6.76079">
        <ele>1387</ele>
        <time>2026-08-14T12:05:17.540Z</time>
      </trkpt>
      <trkpt lat="45.86262" lon="6.7608">
        <ele>1387</ele>
        <time>2026-08-14T12:05:18.540Z</time>
      </trkpt>
      <trkpt lat="45.86263" lon="6.76081">
        <ele>1387</ele>
        <time>2026-08-14T12:05:19.540Z</time>
      </trkpt>
      <trkpt lat="45.86263" lon="6.76082">
        <ele>1388</ele>
        <time>2026-08-14T12:05:20.540Z</time>
      </trkpt>
      <trkpt lat="45.86264" lon="6.76083">
        <ele>1388</ele>
        <time>2026-08-14T12:05:21.540Z</time>
      </trkpt>
      <trkpt lat="45.86264" lon="6.76084">
        <ele>1389</ele>
        <time>2026-08-14T12:05:22.540Z</time>
      </trkpt>
      <trkpt lat="45.86265" lon="6.76085">
        <ele>1389</ele>
        <time>2026-08-14T12:05:23.540Z</time>
      </trkpt>
      <trkpt lat="45.86265" lon="6.76087">
        <ele>1389</ele>
        <time>2026-08-14T12:05:24.540Z</time>
      </trkpt>
      <trkpt lat="45.86265" lon="6.76089">
        <ele>1389</ele>
        <time>2026-08-14T12:05:25.540Z</time>
      </trkpt>
      <trkpt lat="45.86265" lon="6.7609">
        <ele>1388</ele>
        <time>2026-08-14T12:05:26.540Z</time>
      </trkpt>
      <trkpt lat="45.86265" lon="6.76092">
        <ele>1388</ele>
        <time>2026-08-14T12:05:27.540Z</time>
      </trkpt>
      <trkpt lat="45.86265" lon="6.76093">
        <ele>1388</ele>
        <time>2026-08-14T12:05:28.540Z</time>
      </trkpt>
      <trkpt lat="45.86264" lon="6.76094">
        <ele>1387</ele>
        <time>2026-08-14T12:05:29.540Z</time>
      </trkpt>
      <trkpt lat="45.86264" lon="6.76097">
        <ele>1387</ele>
        <time>2026-08-14T12:05:30.540Z</time>
      </trkpt>
      <trkpt lat="45.86264" lon="6.76097">
        <ele>1387</ele>
        <time>2026-08-14T12:05:31.540Z</time>
      </trkpt>
      <trkpt lat="45.86264" lon="6.761">
        <ele>1386</ele>
        <time>2026-08-14T12:05:32.540Z</time>
      </trkpt>
      <trkpt lat="45.86264" lon="6.76101">
        <ele>1386</ele>
        <time>2026-08-14T12:05:33.540Z</time>
      </trkpt>
      <trkpt lat="45.86264" lon="6.76103">
        <ele>1386</ele>
        <time>2026-08-14T12:05:34.540Z</time>
      </trkpt>
      <trkpt lat="45.86264" lon="6.76105">
        <ele>1386</ele>
        <time>2026-08-14T12:05:35.540Z</time>
      </trkpt>
      <trkpt lat="45.86265" lon="6.76106">
        <ele>1387</ele>
        <time>2026-08-14T12:05:36.540Z</time>
      </trkpt>
      <trkpt lat="45.86265" lon="6.76108">
        <ele>1387</ele>
        <time>2026-08-14T12:05:37.540Z</time>
      </trkpt>
      <trkpt lat="45.86265" lon="6.7611">
        <ele>1387</ele>
        <time>2026-08-14T12:05:38.540Z</time>
      </trkpt>
      <trkpt lat="45.86266" lon="6.76112">
        <ele>1387</ele>
        <time>2026-08-14T12:05:39.540Z</time>
      </trkpt>
      <trkpt lat="45.86266" lon="6.76113">
        <ele>1388</ele>
        <time>2026-08-14T12:05:40.540Z</time>
      </trkpt>
      <trkpt lat="45.86267" lon="6.76115">
        <ele>1388</ele>
        <time>2026-08-14T12:05:41.540Z</time>
      </trkpt>
      <trkpt lat="45.86267" lon="6.76117">
        <ele>1387</ele>
        <time>2026-08-14T12:05:42.540Z</time>
      </trkpt>
      <trkpt lat="45.86267" lon="6.76119">
        <ele>1387</ele>
        <time>2026-08-14T12:05:43.540Z</time>
      </trkpt>
      <trkpt lat="45.86267" lon="6.76121">
        <ele>1387</ele>
        <time>2026-08-14T12:05:44.540Z</time>
      </trkpt>
      <trkpt lat="45.86267" lon="6.76123">
        <ele>1387</ele>
        <time>2026-08-14T12:05:45.540Z</time>
      </trkpt>
      <trkpt lat="45.86267" lon="6.76125">
        <ele>1387</ele>
        <time>2026-08-14T12:05:46.540Z</time>
      </trkpt>
      <trkpt lat="45.86268" lon="6.76127">
        <ele>1386</ele>
        <time>2026-08-14T12:05:47.540Z</time>
      </trkpt>
      <trkpt lat="45.86269" lon="6.76128">
        <ele>1386</ele>
        <time>2026-08-14T12:05:48.540Z</time>
      </trkpt>
      <trkpt lat="45.86269" lon="6.7613">
        <ele>1386</ele>
        <time>2026-08-14T12:05:49.540Z</time>
      </trkpt>
      <trkpt lat="45.8627" lon="6.76132">
        <ele>1386</ele>
        <time>2026-08-14T12:05:50.540Z</time>
      </trkpt>
      <trkpt lat="45.8627" lon="6.76135">
        <ele>1386</ele>
        <time>2026-08-14T12:05:51.540Z</time>
      </trkpt>
      <trkpt lat="45.86271" lon="6.76137">
        <ele>1386</ele>
        <time>2026-08-14T12:05:52.540Z</time>
      </trkpt>
      <trkpt lat="45.86271" lon="6.76139">
        <ele>1386</ele>
        <time>2026-08-14T12:05:53.540Z</time>
      </trkpt>
      <trkpt lat="45.86272" lon="6.76141">
        <ele>1386</ele>
        <time>2026-08-14T12:05:54.540Z</time>
      </trkpt>
      <trkpt lat="45.86273" lon="6.76142">
        <ele>1386</ele>
        <time>2026-08-14T12:05:55.540Z</time>
      </trkpt>
      <trkpt lat="45.86274" lon="6.76145">
        <ele>1386</ele>
        <time>2026-08-14T12:05:56.540Z</time>
      </trkpt>
      <trkpt lat="45.86274" lon="6.76147">
        <ele>1386</ele>
        <time>2026-08-14T12:05:57.540Z</time>
      </trkpt>
      <trkpt lat="45.86275" lon="6.76149">
        <ele>1386</ele>
        <time>2026-08-14T12:05:58.540Z</time>
      </trkpt>
      <trkpt lat="45.86277" lon="6.76151">
        <ele>1387</ele>
        <time>2026-08-14T12:05:59.540Z</time>
      </trkpt>
      <trkpt lat="45.86278" lon="6.76153">
        <ele>1387</ele>
        <time>2026-08-14T12:06:00.540Z</time>
      </trkpt>
      <trkpt lat="45.86279" lon="6.76156">
        <ele>1388</ele>
        <time>2026-08-14T12:06:01.540Z</time>
      </trkpt>
      <trkpt lat="45.86281" lon="6.76158">
        <ele>1389</ele>
        <time>2026-08-14T12:06:02.540Z</time>
      </trkpt>
      <trkpt lat="45.86282" lon="6.7616">
        <ele>1389</ele>
        <time>2026-08-14T12:06:03.540Z</time>
      </trkpt>
      <trkpt lat="45.86283" lon="6.76162">
        <ele>1390</ele>
        <time>2026-08-14T12:06:04.540Z</time>
      </trkpt>
      <trkpt lat="45.86284" lon="6.76164">
        <ele>1391</ele>
        <time>2026-08-14T12:06:05.540Z</time>
      </trkpt>
      <trkpt lat="45.86285" lon="6.76167">
        <ele>1391</ele>
        <time>2026-08-14T12:06:06.540Z</time>
      </trkpt>
      <trkpt lat="45.86285" lon="6.76169">
        <ele>1391</ele>
        <time>2026-08-14T12:06:07.540Z</time>
      </trkpt>
      <trkpt lat="45.86285" lon="6.76172">
        <ele>1391</ele>
        <time>2026-08-14T12:06:08.540Z</time>
      </trkpt>
      <trkpt lat="45.86286" lon="6.76176">
        <ele>1391</ele>
        <time>2026-08-14T12:06:09.540Z</time>
      </trkpt>
      <trkpt lat="45.86286" lon="6.76178">
        <ele>1392</ele>
        <time>2026-08-14T12:06:10.540Z</time>
      </trkpt>
      <trkpt lat="45.86286" lon="6.7618">
        <ele>1392</ele>
        <time>2026-08-14T12:06:11.540Z</time>
      </trkpt>
      <trkpt lat="45.86287" lon="6.76182">
        <ele>1392</ele>
        <time>2026-08-14T12:06:12.540Z</time>
      </trkpt>
      <trkpt lat="45.86287" lon="6.76184">
        <ele>1392</ele>
        <time>2026-08-14T12:06:13.540Z</time>
      </trkpt>
      <trkpt lat="45.86287" lon="6.76186">
        <ele>1392</ele>
        <time>2026-08-14T12:06:14.540Z</time>
      </trkpt>
      <trkpt lat="45.86288" lon="6.76188">
        <ele>1392</ele>
        <time>2026-08-14T12:06:15.540Z</time>
      </trkpt>
      <trkpt lat="45.86288" lon="6.7619">
        <ele>1392</ele>
        <time>2026-08-14T12:06:16.540Z</time>
      </trkpt>
      <trkpt lat="45.86289" lon="6.76192">
        <ele>1392</ele>
        <time>2026-08-14T12:06:17.540Z</time>
      </trkpt>
      <trkpt lat="45.86289" lon="6.76194">
        <ele>1391</ele>
        <time>2026-08-14T12:06:18.540Z</time>
      </trkpt>
      <trkpt lat="45.8629" lon="6.76197">
        <ele>1391</ele>
        <time>2026-08-14T12:06:19.540Z</time>
      </trkpt>
      <trkpt lat="45.86291" lon="6.76199">
        <ele>1391</ele>
        <time>2026-08-14T12:06:20.540Z</time>
      </trkpt>
      <trkpt lat="45.86291" lon="6.76201">
        <ele>1390</ele>
        <time>2026-08-14T12:06:21.540Z</time>
      </trkpt>
      <trkpt lat="45.86292" lon="6.76204">
        <ele>1390</ele>
        <time>2026-08-14T12:06:22.540Z</time>
      </trkpt>
      <trkpt lat="45.86292" lon="6.76207">
        <ele>1389</ele>
        <time>2026-08-14T12:06:23.540Z</time>
      </trkpt>
      <trkpt lat="45.86293" lon="6.76209">
        <ele>1388</ele>
        <time>2026-08-14T12:06:24.540Z</time>
      </trkpt>
      <trkpt lat="45.86294" lon="6.76212">
        <ele>1388</ele>
        <time>2026-08-14T12:06:25.540Z</time>
      </trkpt>
      <trkpt lat="45.86295" lon="6.76215">
        <ele>1388</ele>
        <time>2026-08-14T12:06:26.540Z</time>
      </trkpt>
      <trkpt lat="45.86295" lon="6.76218">
        <ele>1387</ele>
        <time>2026-08-14T12:06:27.540Z</time>
      </trkpt>
      <trkpt lat="45.86296" lon="6.76221">
        <ele>1387</ele>
        <time>2026-08-14T12:06:28.540Z</time>
      </trkpt>
      <trkpt lat="45.86296" lon="6.76224">
        <ele>1387</ele>
        <time>2026-08-14T12:06:29.540Z</time>
      </trkpt>
      <trkpt lat="45.86296" lon="6.76226">
        <ele>1387</ele>
        <time>2026-08-14T12:06:30.540Z</time>
      </trkpt>
      <trkpt lat="45.86297" lon="6.76229">
        <ele>1387</ele>
        <time>2026-08-14T12:06:31.540Z</time>
      </trkpt>
      <trkpt lat="45.86297" lon="6.76232">
        <ele>1386</ele>
        <time>2026-08-14T12:06:32.540Z</time>
      </trkpt>
      <trkpt lat="45.86297" lon="6.76235">
        <ele>1386</ele>
        <time>2026-08-14T12:06:33.540Z</time>
      </trkpt>
      <trkpt lat="45.86298" lon="6.76237">
        <ele>1386</ele>
        <time>2026-08-14T12:06:34.540Z</time>
      </trkpt>
      <trkpt lat="45.86298" lon="6.7624">
        <ele>1386</ele>
        <time>2026-08-14T12:06:35.540Z</time>
      </trkpt>
      <trkpt lat="45.86298" lon="6.76243">
        <ele>1386</ele>
        <time>2026-08-14T12:06:36.540Z</time>
      </trkpt>
      <trkpt lat="45.86299" lon="6.76245">
        <ele>1386</ele>
        <time>2026-08-14T12:06:37.540Z</time>
      </trkpt>
      <trkpt lat="45.86299" lon="6.76248">
        <ele>1386</ele>
        <time>2026-08-14T12:06:38.540Z</time>
      </trkpt>
      <trkpt lat="45.86299" lon="6.76251">
        <ele>1386</ele>
        <time>2026-08-14T12:06:39.540Z</time>
      </trkpt>
      <trkpt lat="45.86299" lon="6.76254">
        <ele>1386</ele>
        <time>2026-08-14T12:06:40.540Z</time>
      </trkpt>
      <trkpt lat="45.86299" lon="6.76257">
        <ele>1386</ele>
        <time>2026-08-14T12:06:41.540Z</time>
      </trkpt>
      <trkpt lat="45.86299" lon="6.7626">
        <ele>1386</ele>
        <time>2026-08-14T12:06:42.540Z</time>
      </trkpt>
      <trkpt lat="45.86299" lon="6.76263">
        <ele>1386</ele>
        <time>2026-08-14T12:06:43.540Z</time>
      </trkpt>
      <trkpt lat="45.863" lon="6.76266">
        <ele>1386</ele>
        <time>2026-08-14T12:06:44.540Z</time>
      </trkpt>
      <trkpt lat="45.863" lon="6.76269">
        <ele>1386</ele>
        <time>2026-08-14T12:06:45.540Z</time>
      </trkpt>
      <trkpt lat="45.863" lon="6.76272">
        <ele>1386</ele>
        <time>2026-08-14T12:06:46.540Z</time>
      </trkpt>
      <trkpt lat="45.863" lon="6.76275">
        <ele>1386</ele>
        <time>2026-08-14T12:06:47.540Z</time>
      </trkpt>
      <trkpt lat="45.86301" lon="6.76278">
        <ele>1387</ele>
        <time>2026-08-14T12:06:48.540Z</time>
      </trkpt>
      <trkpt lat="45.86301" lon="6.7628">
        <ele>1387</ele>
        <time>2026-08-14T12:06:49.540Z</time>
      </trkpt>
      <trkpt lat="45.86302" lon="6.76283">
        <ele>1387</ele>
        <time>2026-08-14T12:06:50.540Z</time>
      </trkpt>
      <trkpt lat="45.86302" lon="6.76286">
        <ele>1387</ele>
        <time>2026-08-14T12:06:51.540Z</time>
      </trkpt>
      <trkpt lat="45.86303" lon="6.76288">
        <ele>1387</ele>
        <time>2026-08-14T12:06:52.540Z</time>
      </trkpt>
      <trkpt lat="45.86304" lon="6.76291">
        <ele>1387</ele>
        <time>2026-08-14T12:06:53.540Z</time>
      </trkpt>
      <trkpt lat="45.86304" lon="6.76293">
        <ele>1387</ele>
        <time>2026-08-14T12:06:54.540Z</time>
      </trkpt>
      <trkpt lat="45.86305" lon="6.76295">
        <ele>1387</ele>
        <time>2026-08-14T12:06:55.540Z</time>
      </trkpt>
      <trkpt lat="45.86306" lon="6.76297">
        <ele>1387</ele>
        <time>2026-08-14T12:06:56.540Z</time>
      </trkpt>
      <trkpt lat="45.86307" lon="6.76299">
        <ele>1387</ele>
        <time>2026-08-14T12:06:57.540Z</time>
      </trkpt>
      <trkpt lat="45.86308" lon="6.76302">
        <ele>1387</ele>
        <time>2026-08-14T12:06:58.540Z</time>
      </trkpt>
      <trkpt lat="45.86309" lon="6.76304">
        <ele>1388</ele>
        <time>2026-08-14T12:06:59.540Z</time>
      </trkpt>
      <trkpt lat="45.8631" lon="6.76306">
        <ele>1388</ele>
        <time>2026-08-14T12:07:00.540Z</time>
      </trkpt>
      <trkpt lat="45.8631" lon="6.76308">
        <ele>1388</ele>
        <time>2026-08-14T12:07:01.540Z</time>
      </trkpt>
      <trkpt lat="45.86311" lon="6.7631">
        <ele>1388</ele>
        <time>2026-08-14T12:07:02.540Z</time>
      </trkpt>
      <trkpt lat="45.86312" lon="6.76312">
        <ele>1388</ele>
        <time>2026-08-14T12:07:03.540Z</time>
      </trkpt>
      <trkpt lat="45.86313" lon="6.76315">
        <ele>1388</ele>
        <time>2026-08-14T12:07:04.540Z</time>
      </trkpt>
      <trkpt lat="45.86314" lon="6.76317">
        <ele>1389</ele>
        <time>2026-08-14T12:07:05.540Z</time>
      </trkpt>
      <trkpt lat="45.86314" lon="6.76319">
        <ele>1389</ele>
        <time>2026-08-14T12:07:06.540Z</time>
      </trkpt>
      <trkpt lat="45.86315" lon="6.76321">
        <ele>1389</ele>
        <time>2026-08-14T12:07:07.540Z</time>
      </trkpt>
      <trkpt lat="45.86316" lon="6.76323">
        <ele>1389</ele>
        <time>2026-08-14T12:07:08.540Z</time>
      </trkpt>
      <trkpt lat="45.86316" lon="6.76326">
        <ele>1389</ele>
        <time>2026-08-14T12:07:09.540Z</time>
      </trkpt>
      <trkpt lat="45.86317" lon="6.76328">
        <ele>1388</ele>
        <time>2026-08-14T12:07:10.540Z</time>
      </trkpt>
      <trkpt lat="45.86318" lon="6.7633">
        <ele>1388</ele>
        <time>2026-08-14T12:07:11.540Z</time>
      </trkpt>
      <trkpt lat="45.86318" lon="6.76333">
        <ele>1388</ele>
        <time>2026-08-14T12:07:12.540Z</time>
      </trkpt>
      <trkpt lat="45.86318" lon="6.76335">
        <ele>1388</ele>
        <time>2026-08-14T12:07:13.540Z</time>
      </trkpt>
      <trkpt lat="45.86318" lon="6.76337">
        <ele>1388</ele>
        <time>2026-08-14T12:07:14.540Z</time>
      </trkpt>
      <trkpt lat="45.86319" lon="6.76339">
        <ele>1388</ele>
        <time>2026-08-14T12:07:15.540Z</time>
      </trkpt>
      <trkpt lat="45.86319" lon="6.76341">
        <ele>1389</ele>
        <time>2026-08-14T12:07:16.540Z</time>
      </trkpt>
      <trkpt lat="45.8632" lon="6.76343">
        <ele>1389</ele>
        <time>2026-08-14T12:07:17.540Z</time>
      </trkpt>
      <trkpt lat="45.8632" lon="6.76344">
        <ele>1390</ele>
        <time>2026-08-14T12:07:18.540Z</time>
      </trkpt>
      <trkpt lat="45.86321" lon="6.76346">
        <ele>1390</ele>
        <time>2026-08-14T12:07:19.540Z</time>
      </trkpt>
      <trkpt lat="45.86321" lon="6.76347">
        <ele>1391</ele>
        <time>2026-08-14T12:07:20.540Z</time>
      </trkpt>
      <trkpt lat="45.86321" lon="6.76349">
        <ele>1391</ele>
        <time>2026-08-14T12:07:21.540Z</time>
      </trkpt>
      <trkpt lat="45.86321" lon="6.7635">
        <ele>1392</ele>
        <time>2026-08-14T12:07:22.540Z</time>
      </trkpt>
      <trkpt lat="45.86321" lon="6.76352">
        <ele>1392</ele>
        <time>2026-08-14T12:07:23.540Z</time>
      </trkpt>
      <trkpt lat="45.86321" lon="6.76353">
        <ele>1393</ele>
        <time>2026-08-14T12:07:24.540Z</time>
      </trkpt>
      <trkpt lat="45.86321" lon="6.76354">
        <ele>1393</ele>
        <time>2026-08-14T12:07:25.540Z</time>
      </trkpt>
      <trkpt lat="45.86321" lon="6.76355">
        <ele>1393</ele>
        <time>2026-08-14T12:07:26.540Z</time>
      </trkpt>
      <trkpt lat="45.8632" lon="6.76357">
        <ele>1394</ele>
        <time>2026-08-14T12:07:27.540Z</time>
      </trkpt>
      <trkpt lat="45.8632" lon="6.76358">
        <ele>1394</ele>
        <time>2026-08-14T12:07:28.540Z</time>
      </trkpt>
      <trkpt lat="45.86319" lon="6.76359">
        <ele>1394</ele>
        <time>2026-08-14T12:07:29.540Z</time>
      </trkpt>
      <trkpt lat="45.86318" lon="6.76361">
        <ele>1394</ele>
        <time>2026-08-14T12:07:30.540Z</time>
      </trkpt>
      <trkpt lat="45.86319" lon="6.76362">
        <ele>1395</ele>
        <time>2026-08-14T12:07:31.540Z</time>
      </trkpt>
      <trkpt lat="45.86319" lon="6.76364">
        <ele>1395</ele>
        <time>2026-08-14T12:07:32.540Z</time>
      </trkpt>
      <trkpt lat="45.86319" lon="6.76365">
        <ele>1395</ele>
        <time>2026-08-14T12:07:33.540Z</time>
      </trkpt>
      <trkpt lat="45.8632" lon="6.76366">
        <ele>1396</ele>
        <time>2026-08-14T12:07:34.540Z</time>
      </trkpt>
      <trkpt lat="45.8632" lon="6.76368">
        <ele>1396</ele>
        <time>2026-08-14T12:07:35.540Z</time>
      </trkpt>
      <trkpt lat="45.8632" lon="6.7637">
        <ele>1396</ele>
        <time>2026-08-14T12:07:36.540Z</time>
      </trkpt>
      <trkpt lat="45.86321" lon="6.76371">
        <ele>1397</ele>
        <time>2026-08-14T12:07:37.540Z</time>
      </trkpt>
      <trkpt lat="45.86321" lon="6.76373">
        <ele>1398</ele>
        <time>2026-08-14T12:07:38.540Z</time>
      </trkpt>
      <trkpt lat="45.86322" lon="6.76374">
        <ele>1398</ele>
        <time>2026-08-14T12:07:39.540Z</time>
      </trkpt>
      <trkpt lat="45.86322" lon="6.76375">
        <ele>1399</ele>
        <time>2026-08-14T12:07:40.540Z</time>
      </trkpt>
      <trkpt lat="45.86323" lon="6.76376">
        <ele>1399</ele>
        <time>2026-08-14T12:07:41.540Z</time>
      </trkpt>
      <trkpt lat="45.86323" lon="6.76377">
        <ele>1399</ele>
        <time>2026-08-14T12:07:42.540Z</time>
      </trkpt>
      <trkpt lat="45.86323" lon="6.76378">
        <ele>1399</ele>
        <time>2026-08-14T12:07:43.540Z</time>
      </trkpt>
      <trkpt lat="45.86324" lon="6.7638">
        <ele>1399</ele>
        <time>2026-08-14T12:07:44.540Z</time>
      </trkpt>
      <trkpt lat="45.86324" lon="6.76381">
        <ele>1400</ele>
        <time>2026-08-14T12:07:45.540Z</time>
      </trkpt>
      <trkpt lat="45.86325" lon="6.76382">
        <ele>1400</ele>
        <time>2026-08-14T12:07:46.540Z</time>
      </trkpt>
      <trkpt lat="45.86325" lon="6.76384">
        <ele>1400</ele>
        <time>2026-08-14T12:07:47.540Z</time>
      </trkpt>
      <trkpt lat="45.86325" lon="6.76385">
        <ele>1400</ele>
        <time>2026-08-14T12:07:48.540Z</time>
      </trkpt>
      <trkpt lat="45.86325" lon="6.76386">
        <ele>1400</ele>
        <time>2026-08-14T12:07:49.540Z</time>
      </trkpt>
      <trkpt lat="45.86325" lon="6.76388">
        <ele>1400</ele>
        <time>2026-08-14T12:07:50.540Z</time>
      </trkpt>
      <trkpt lat="45.86325" lon="6.76389">
        <ele>1401</ele>
        <time>2026-08-14T12:07:51.540Z</time>
      </trkpt>
      <trkpt lat="45.86326" lon="6.76391">
        <ele>1401</ele>
        <time>2026-08-14T12:07:52.540Z</time>
      </trkpt>
      <trkpt lat="45.86326" lon="6.76393">
        <ele>1402</ele>
        <time>2026-08-14T12:07:53.540Z</time>
      </trkpt>
      <trkpt lat="45.86326" lon="6.76395">
        <ele>1402</ele>
        <time>2026-08-14T12:07:54.540Z</time>
      </trkpt>
      <trkpt lat="45.86327" lon="6.76396">
        <ele>1403</ele>
        <time>2026-08-14T12:07:55.540Z</time>
      </trkpt>
      <trkpt lat="45.86327" lon="6.76398">
        <ele>1404</ele>
        <time>2026-08-14T12:07:56.540Z</time>
      </trkpt>
      <trkpt lat="45.86328" lon="6.764">
        <ele>1404</ele>
        <time>2026-08-14T12:07:57.540Z</time>
      </trkpt>
      <trkpt lat="45.86328" lon="6.76402">
        <ele>1405</ele>
        <time>2026-08-14T12:07:58.540Z</time>
      </trkpt>
      <trkpt lat="45.86328" lon="6.76403">
        <ele>1405</ele>
        <time>2026-08-14T12:07:59.540Z</time>
      </trkpt>
      <trkpt lat="45.86328" lon="6.76404">
        <ele>1406</ele>
        <time>2026-08-14T12:08:00.540Z</time>
      </trkpt>
      <trkpt lat="45.86328" lon="6.76405">
        <ele>1406</ele>
        <time>2026-08-14T12:08:01.540Z</time>
      </trkpt>
      <trkpt lat="45.86329" lon="6.76406">
        <ele>1406</ele>
        <time>2026-08-14T12:08:02.540Z</time>
      </trkpt>
      <trkpt lat="45.8633" lon="6.76408">
        <ele>1406</ele>
        <time>2026-08-14T12:08:03.540Z</time>
      </trkpt>
      <trkpt lat="45.8633" lon="6.7641">
        <ele>1407</ele>
        <time>2026-08-14T12:08:04.540Z</time>
      </trkpt>
      <trkpt lat="45.86331" lon="6.76412">
        <ele>1407</ele>
        <time>2026-08-14T12:08:05.540Z</time>
      </trkpt>
      <trkpt lat="45.86331" lon="6.76413">
        <ele>1407</ele>
        <time>2026-08-14T12:08:06.540Z</time>
      </trkpt>
      <trkpt lat="45.86331" lon="6.76414">
        <ele>1408</ele>
        <time>2026-08-14T12:08:07.540Z</time>
      </trkpt>
      <trkpt lat="45.86331" lon="6.76415">
        <ele>1408</ele>
        <time>2026-08-14T12:08:08.540Z</time>
      </trkpt>
      <trkpt lat="45.86332" lon="6.76416">
        <ele>1408</ele>
        <time>2026-08-14T12:08:09.540Z</time>
      </trkpt>
      <trkpt lat="45.86332" lon="6.76417">
        <ele>1409</ele>
        <time>2026-08-14T12:08:10.540Z</time>
      </trkpt>
      <trkpt lat="45.86333" lon="6.76419">
        <ele>1409</ele>
        <time>2026-08-14T12:08:11.540Z</time>
      </trkpt>
      <trkpt lat="45.86333" lon="6.7642">
        <ele>1408</ele>
        <time>2026-08-14T12:08:12.540Z</time>
      </trkpt>
      <trkpt lat="45.86334" lon="6.76421">
        <ele>1408</ele>
        <time>2026-08-14T12:08:13.540Z</time>
      </trkpt>
      <trkpt lat="45.86334" lon="6.76423">
        <ele>1408</ele>
        <time>2026-08-14T12:08:14.540Z</time>
      </trkpt>
      <trkpt lat="45.86335" lon="6.76424">
        <ele>1408</ele>
        <time>2026-08-14T12:08:15.540Z</time>
      </trkpt>
      <trkpt lat="45.86335" lon="6.76426">
        <ele>1407</ele>
        <time>2026-08-14T12:08:16.540Z</time>
      </trkpt>
      <trkpt lat="45.86335" lon="6.76428">
        <ele>1407</ele>
        <time>2026-08-14T12:08:17.540Z</time>
      </trkpt>
      <trkpt lat="45.86335" lon="6.7643">
        <ele>1406</ele>
        <time>2026-08-14T12:08:18.540Z</time>
      </trkpt>
      <trkpt lat="45.86335" lon="6.76432">
        <ele>1406</ele>
        <time>2026-08-14T12:08:19.540Z</time>
      </trkpt>
      <trkpt lat="45.86335" lon="6.76433">
        <ele>1405</ele>
        <time>2026-08-14T12:08:20.540Z</time>
      </trkpt>
      <trkpt lat="45.86335" lon="6.76435">
        <ele>1405</ele>
        <time>2026-08-14T12:08:21.540Z</time>
      </trkpt>
      <trkpt lat="45.86335" lon="6.76437">
        <ele>1404</ele>
        <time>2026-08-14T12:08:22.540Z</time>
      </trkpt>
      <trkpt lat="45.86335" lon="6.76438">
        <ele>1404</ele>
        <time>2026-08-14T12:08:23.540Z</time>
      </trkpt>
      <trkpt lat="45.86335" lon="6.7644">
        <ele>1404</ele>
        <time>2026-08-14T12:08:24.540Z</time>
      </trkpt>
      <trkpt lat="45.86336" lon="6.76442">
        <ele>1404</ele>
        <time>2026-08-14T12:08:25.540Z</time>
      </trkpt>
      <trkpt lat="45.86336" lon="6.76444">
        <ele>1404</ele>
        <time>2026-08-14T12:08:26.540Z</time>
      </trkpt>
      <trkpt lat="45.86337" lon="6.76446">
        <ele>1404</ele>
        <time>2026-08-14T12:08:27.540Z</time>
      </trkpt>
      <trkpt lat="45.86337" lon="6.76448">
        <ele>1405</ele>
        <time>2026-08-14T12:08:28.540Z</time>
      </trkpt>
      <trkpt lat="45.86337" lon="6.7645">
        <ele>1405</ele>
        <time>2026-08-14T12:08:29.540Z</time>
      </trkpt>
      <trkpt lat="45.86338" lon="6.76452">
        <ele>1405</ele>
        <time>2026-08-14T12:08:30.540Z</time>
      </trkpt>
      <trkpt lat="45.86338" lon="6.76454">
        <ele>1405</ele>
        <time>2026-08-14T12:08:31.540Z</time>
      </trkpt>
      <trkpt lat="45.86338" lon="6.76456">
        <ele>1405</ele>
        <time>2026-08-14T12:08:32.540Z</time>
      </trkpt>
      <trkpt lat="45.86339" lon="6.76458">
        <ele>1405</ele>
        <time>2026-08-14T12:08:33.540Z</time>
      </trkpt>
      <trkpt lat="45.8634" lon="6.76459">
        <ele>1406</ele>
        <time>2026-08-14T12:08:34.540Z</time>
      </trkpt>
      <trkpt lat="45.86341" lon="6.7646">
        <ele>1406</ele>
        <time>2026-08-14T12:08:35.540Z</time>
      </trkpt>
      <trkpt lat="45.86342" lon="6.76461">
        <ele>1406</ele>
        <time>2026-08-14T12:08:36.540Z</time>
      </trkpt>
      <trkpt lat="45.86343" lon="6.76462">
        <ele>1406</ele>
        <time>2026-08-14T12:08:37.540Z</time>
      </trkpt>
      <trkpt lat="45.86345" lon="6.76464">
        <ele>1406</ele>
        <time>2026-08-14T12:08:38.540Z</time>
      </trkpt>
      <trkpt lat="45.86346" lon="6.76465">
        <ele>1406</ele>
        <time>2026-08-14T12:08:39.540Z</time>
      </trkpt>
      <trkpt lat="45.86347" lon="6.76466">
        <ele>1406</ele>
        <time>2026-08-14T12:08:40.540Z</time>
      </trkpt>
      <trkpt lat="45.86348" lon="6.76468">
        <ele>1406</ele>
        <time>2026-08-14T12:08:41.540Z</time>
      </trkpt>
      <trkpt lat="45.86348" lon="6.76469">
        <ele>1406</ele>
        <time>2026-08-14T12:08:42.540Z</time>
      </trkpt>
      <trkpt lat="45.86349" lon="6.76471">
        <ele>1406</ele>
        <time>2026-08-14T12:08:43.540Z</time>
      </trkpt>
      <trkpt lat="45.8635" lon="6.76472">
        <ele>1406</ele>
        <time>2026-08-14T12:08:44.540Z</time>
      </trkpt>
      <trkpt lat="45.86351" lon="6.76473">
        <ele>1406</ele>
        <time>2026-08-14T12:08:45.540Z</time>
      </trkpt>
      <trkpt lat="45.86351" lon="6.76475">
        <ele>1406</ele>
        <time>2026-08-14T12:08:46.540Z</time>
      </trkpt>
      <trkpt lat="45.86352" lon="6.76476">
        <ele>1405</ele>
        <time>2026-08-14T12:08:47.540Z</time>
      </trkpt>
      <trkpt lat="45.86353" lon="6.76477">
        <ele>1405</ele>
        <time>2026-08-14T12:08:48.540Z</time>
      </trkpt>
      <trkpt lat="45.86353" lon="6.76479">
        <ele>1405</ele>
        <time>2026-08-14T12:08:49.540Z</time>
      </trkpt>
      <trkpt lat="45.86354" lon="6.76481">
        <ele>1405</ele>
        <time>2026-08-14T12:08:50.540Z</time>
      </trkpt>
      <trkpt lat="45.86355" lon="6.76482">
        <ele>1405</ele>
        <time>2026-08-14T12:08:51.540Z</time>
      </trkpt>
      <trkpt lat="45.86355" lon="6.76483">
        <ele>1405</ele>
        <time>2026-08-14T12:08:52.540Z</time>
      </trkpt>
      <trkpt lat="45.86356" lon="6.76485">
        <ele>1404</ele>
        <time>2026-08-14T12:08:53.540Z</time>
      </trkpt>
      <trkpt lat="45.86357" lon="6.76486">
        <ele>1405</ele>
        <time>2026-08-14T12:08:54.540Z</time>
      </trkpt>
      <trkpt lat="45.86357" lon="6.76488">
        <ele>1405</ele>
        <time>2026-08-14T12:08:55.540Z</time>
      </trkpt>
      <trkpt lat="45.86358" lon="6.7649">
        <ele>1406</ele>
        <time>2026-08-14T12:08:56.540Z</time>
      </trkpt>
      <trkpt lat="45.86358" lon="6.76491">
        <ele>1406</ele>
        <time>2026-08-14T12:08:57.540Z</time>
      </trkpt>
      <trkpt lat="45.86359" lon="6.76493">
        <ele>1407</ele>
        <time>2026-08-14T12:08:58.540Z</time>
      </trkpt>
      <trkpt lat="45.8636" lon="6.76495">
        <ele>1407</ele>
        <time>2026-08-14T12:08:59.540Z</time>
      </trkpt>
      <trkpt lat="45.8636" lon="6.76497">
        <ele>1407</ele>
        <time>2026-08-14T12:09:00.540Z</time>
      </trkpt>
      <trkpt lat="45.8636" lon="6.76499">
        <ele>1407</ele>
        <time>2026-08-14T12:09:01.540Z</time>
      </trkpt>
      <trkpt lat="45.86359" lon="6.765">
        <ele>1407</ele>
        <time>2026-08-14T12:09:02.540Z</time>
      </trkpt>
      <trkpt lat="45.86359" lon="6.76502">
        <ele>1407</ele>
        <time>2026-08-14T12:09:03.540Z</time>
      </trkpt>
      <trkpt lat="45.86359" lon="6.76504">
        <ele>1406</ele>
        <time>2026-08-14T12:09:04.540Z</time>
      </trkpt>
      <trkpt lat="45.86358" lon="6.76506">
        <ele>1406</ele>
        <time>2026-08-14T12:09:05.540Z</time>
      </trkpt>
      <trkpt lat="45.86358" lon="6.76508">
        <ele>1406</ele>
        <time>2026-08-14T12:09:06.540Z</time>
      </trkpt>
      <trkpt lat="45.86359" lon="6.76509">
        <ele>1406</ele>
        <time>2026-08-14T12:09:07.540Z</time>
      </trkpt>
      <trkpt lat="45.86359" lon="6.76511">
        <ele>1407</ele>
        <time>2026-08-14T12:09:08.540Z</time>
      </trkpt>
      <trkpt lat="45.86359" lon="6.76512">
        <ele>1407</ele>
        <time>2026-08-14T12:09:09.540Z</time>
      </trkpt>
      <trkpt lat="45.86359" lon="6.76513">
        <ele>1407</ele>
        <time>2026-08-14T12:09:10.540Z</time>
      </trkpt>
      <trkpt lat="45.86359" lon="6.76515">
        <ele>1407</ele>
        <time>2026-08-14T12:09:11.540Z</time>
      </trkpt>
      <trkpt lat="45.86359" lon="6.76517">
        <ele>1407</ele>
        <time>2026-08-14T12:09:12.540Z</time>
      </trkpt>
      <trkpt lat="45.86358" lon="6.76518">
        <ele>1407</ele>
        <time>2026-08-14T12:09:13.540Z</time>
      </trkpt>
      <trkpt lat="45.86358" lon="6.76519">
        <ele>1407</ele>
        <time>2026-08-14T12:09:14.540Z</time>
      </trkpt>
      <trkpt lat="45.86358" lon="6.7652">
        <ele>1408</ele>
        <time>2026-08-14T12:09:15.540Z</time>
      </trkpt>
      <trkpt lat="45.86358" lon="6.76521">
        <ele>1408</ele>
        <time>2026-08-14T12:09:16.540Z</time>
      </trkpt>
      <trkpt lat="45.86358" lon="6.76522">
        <ele>1408</ele>
        <time>2026-08-14T12:09:17.540Z</time>
      </trkpt>
      <trkpt lat="45.86358" lon="6.76523">
        <ele>1408</ele>
        <time>2026-08-14T12:09:18.540Z</time>
      </trkpt>
      <trkpt lat="45.86358" lon="6.76524">
        <ele>1408</ele>
        <time>2026-08-14T12:09:19.540Z</time>
      </trkpt>
      <trkpt lat="45.86358" lon="6.76525">
        <ele>1408</ele>
        <time>2026-08-14T12:09:20.540Z</time>
      </trkpt>
      <trkpt lat="45.86358" lon="6.76526">
        <ele>1408</ele>
        <time>2026-08-14T12:09:21.540Z</time>
      </trkpt>
      <trkpt lat="45.86358" lon="6.76527">
        <ele>1409</ele>
        <time>2026-08-14T12:09:22.540Z</time>
      </trkpt>
      <trkpt lat="45.86358" lon="6.76528">
        <ele>1409</ele>
        <time>2026-08-14T12:09:23.540Z</time>
      </trkpt>
      <trkpt lat="45.86357" lon="6.7653">
        <ele>1410</ele>
        <time>2026-08-14T12:09:24.540Z</time>
      </trkpt>
      <trkpt lat="45.86357" lon="6.76532">
        <ele>1410</ele>
        <time>2026-08-14T12:09:25.540Z</time>
      </trkpt>
      <trkpt lat="45.86357" lon="6.76533">
        <ele>1411</ele>
        <time>2026-08-14T12:09:26.540Z</time>
      </trkpt>
      <trkpt lat="45.86356" lon="6.76534">
        <ele>1411</ele>
        <time>2026-08-14T12:09:27.540Z</time>
      </trkpt>
      <trkpt lat="45.86356" lon="6.76536">
        <ele>1412</ele>
        <time>2026-08-14T12:09:28.540Z</time>
      </trkpt>
      <trkpt lat="45.86356" lon="6.76538">
        <ele>1412</ele>
        <time>2026-08-14T12:09:29.540Z</time>
      </trkpt>
      <trkpt lat="45.86356" lon="6.76539">
        <ele>1412</ele>
        <time>2026-08-14T12:09:30.540Z</time>
      </trkpt>
      <trkpt lat="45.86355" lon="6.7654">
        <ele>1413</ele>
        <time>2026-08-14T12:09:31.540Z</time>
      </trkpt>
      <trkpt lat="45.86355" lon="6.76541">
        <ele>1413</ele>
        <time>2026-08-14T12:09:32.540Z</time>
      </trkpt>
      <trkpt lat="45.86354" lon="6.76543">
        <ele>1413</ele>
        <time>2026-08-14T12:09:33.540Z</time>
      </trkpt>
      <trkpt lat="45.86354" lon="6.76545">
        <ele>1413</ele>
        <time>2026-08-14T12:09:34.540Z</time>
      </trkpt>
      <trkpt lat="45.86353" lon="6.76545">
        <ele>1414</ele>
        <time>2026-08-14T12:09:35.540Z</time>
      </trkpt>
      <trkpt lat="45.86353" lon="6.76546">
        <ele>1414</ele>
        <time>2026-08-14T12:09:36.540Z</time>
      </trkpt>
      <trkpt lat="45.86353" lon="6.76548">
        <ele>1415</ele>
        <time>2026-08-14T12:09:37.540Z</time>
      </trkpt>
      <trkpt lat="45.86353" lon="6.7655">
        <ele>1415</ele>
        <time>2026-08-14T12:09:38.540Z</time>
      </trkpt>
      <trkpt lat="45.86352" lon="6.76552">
        <ele>1416</ele>
        <time>2026-08-14T12:09:39.540Z</time>
      </trkpt>
      <trkpt lat="45.86352" lon="6.76553">
        <ele>1415</ele>
        <time>2026-08-14T12:09:40.540Z</time>
      </trkpt>
      <trkpt lat="45.86352" lon="6.76554">
        <ele>1415</ele>
        <time>2026-08-14T12:09:41.540Z</time>
      </trkpt>
      <trkpt lat="45.86352" lon="6.76555">
        <ele>1415</ele>
        <time>2026-08-14T12:09:42.540Z</time>
      </trkpt>
      <trkpt lat="45.86352" lon="6.76556">
        <ele>1414</ele>
        <time>2026-08-14T12:09:43.540Z</time>
      </trkpt>
      <trkpt lat="45.86353" lon="6.76557">
        <ele>1414</ele>
        <time>2026-08-14T12:09:44.540Z</time>
      </trkpt>
      <trkpt lat="45.86353" lon="6.76559">
        <ele>1414</ele>
        <time>2026-08-14T12:09:45.540Z</time>
      </trkpt>
      <trkpt lat="45.86353" lon="6.7656">
        <ele>1414</ele>
        <time>2026-08-14T12:09:46.540Z</time>
      </trkpt>
      <trkpt lat="45.86353" lon="6.76561">
        <ele>1415</ele>
        <time>2026-08-14T12:09:47.540Z</time>
      </trkpt>
      <trkpt lat="45.86352" lon="6.76561">
        <ele>1415</ele>
        <time>2026-08-14T12:09:48.540Z</time>
      </trkpt>
      <trkpt lat="45.86352" lon="6.76562">
        <ele>1415</ele>
        <time>2026-08-14T12:09:49.540Z</time>
      </trkpt>
      <trkpt lat="45.86352" lon="6.76562">
        <ele>1416</ele>
        <time>2026-08-14T12:09:50.540Z</time>
      </trkpt>
      <trkpt lat="45.86352" lon="6.76562">
        <ele>1416</ele>
        <time>2026-08-14T12:09:51.540Z</time>
      </trkpt>
      <trkpt lat="45.86352" lon="6.76563">
        <ele>1417</ele>
        <time>2026-08-14T12:09:52.540Z</time>
      </trkpt>
      <trkpt lat="45.86352" lon="6.76563">
        <ele>1417</ele>
        <time>2026-08-14T12:09:53.540Z</time>
      </trkpt>
      <trkpt lat="45.86352" lon="6.76563">
        <ele>1418</ele>
        <time>2026-08-14T12:09:54.540Z</time>
      </trkpt>
      <trkpt lat="45.86352" lon="6.76563">
        <ele>1418</ele>
        <time>2026-08-14T12:09:55.540Z</time>
      </trkpt>
      <trkpt lat="45.86352" lon="6.76563">
        <ele>1419</ele>
        <time>2026-08-14T12:09:56.540Z</time>
      </trkpt>
      <trkpt lat="45.86352" lon="6.76563">
        <ele>1420</ele>
        <time>2026-08-14T12:09:57.540Z</time>
      </trkpt>
      <trkpt lat="45.86353" lon="6.76562">
        <ele>1420</ele>
        <time>2026-08-14T12:09:58.540Z</time>
      </trkpt>
      <trkpt lat="45.86354" lon="6.76561">
        <ele>1421</ele>
        <time>2026-08-14T12:09:59.540Z</time>
      </trkpt>
      <trkpt lat="45.86354" lon="6.76559">
        <ele>1421</ele>
        <time>2026-08-14T12:10:00.540Z</time>
      </trkpt>
      <trkpt lat="45.86354" lon="6.76558">
        <ele>1421</ele>
        <time>2026-08-14T12:10:01.540Z</time>
      </trkpt>
      <trkpt lat="45.86354" lon="6.76558">
        <ele>1421</ele>
        <time>2026-08-14T12:10:02.540Z</time>
      </trkpt>
      <trkpt lat="45.86354" lon="6.76558">
        <ele>1422</ele>
        <time>2026-08-14T12:10:03.540Z</time>
      </trkpt>
      <trkpt lat="45.86354" lon="6.76557">
        <ele>1422</ele>
        <time>2026-08-14T12:10:04.540Z</time>
      </trkpt>
      <trkpt lat="45.86354" lon="6.76557">
        <ele>1422</ele>
        <time>2026-08-14T12:10:05.540Z</time>
      </trkpt>
      <trkpt lat="45.86354" lon="6.76557">
        <ele>1422</ele>
        <time>2026-08-14T12:10:06.540Z</time>
      </trkpt>
      <trkpt lat="45.86354" lon="6.76556">
        <ele>1422</ele>
        <time>2026-08-14T12:10:07.540Z</time>
      </trkpt>
      <trkpt lat="45.86354" lon="6.76556">
        <ele>1422</ele>
        <time>2026-08-14T12:10:08.540Z</time>
      </trkpt>
      <trkpt lat="45.86354" lon="6.76556">
        <ele>1422</ele>
        <time>2026-08-14T12:10:09.540Z</time>
      </trkpt>
      <trkpt lat="45.86354" lon="6.76556">
        <ele>1422</ele>
        <time>2026-08-14T12:10:10.540Z</time>
      </trkpt>
      <trkpt lat="45.86354" lon="6.76556">
        <ele>1422</ele>
        <time>2026-08-14T12:10:11.540Z</time>
      </trkpt>
      <trkpt lat="45.86354" lon="6.76556">
        <ele>1422</ele>
        <time>2026-08-14T12:10:12.540Z</time>
      </trkpt>
      <trkpt lat="45.86354" lon="6.76556">
        <ele>1422</ele>
        <time>2026-08-14T12:10:13.540Z</time>
      </trkpt>
      <trkpt lat="45.86354" lon="6.76556">
        <ele>1422</ele>
        <time>2026-08-14T12:10:14.540Z</time>
      </trkpt>
      <trkpt lat="45.86354" lon="6.76556">
        <ele>1422</ele>
        <time>2026-08-14T12:10:15.540Z</time>
      </trkpt>
      <trkpt lat="45.86354" lon="6.76556">
        <ele>1421</ele>
        <time>2026-08-14T12:10:16.540Z</time>
      </trkpt>
      <trkpt lat="45.86354" lon="6.76557">
        <ele>1421</ele>
        <time>2026-08-14T12:10:17.540Z</time>
      </trkpt>
      <trkpt lat="45.86353" lon="6.76559">
        <ele>1421</ele>
        <time>2026-08-14T12:10:18.540Z</time>
      </trkpt>
      <trkpt lat="45.86352" lon="6.76561">
        <ele>1421</ele>
        <time>2026-08-14T12:10:19.540Z</time>
      </trkpt>
      <trkpt lat="45.86352" lon="6.76563">
        <ele>1421</ele>
        <time>2026-08-14T12:10:20.540Z</time>
      </trkpt>
      <trkpt lat="45.86352" lon="6.76565">
        <ele>1421</ele>
        <time>2026-08-14T12:10:21.540Z</time>
      </trkpt>
      <trkpt lat="45.86352" lon="6.76566">
        <ele>1421</ele>
        <time>2026-08-14T12:10:22.540Z</time>
      </trkpt>
      <trkpt lat="45.86352" lon="6.76567">
        <ele>1421</ele>
        <time>2026-08-14T12:10:23.540Z</time>
      </trkpt>
      <trkpt lat="45.86352" lon="6.76568">
        <ele>1421</ele>
        <time>2026-08-14T12:10:24.540Z</time>
      </trkpt>
      <trkpt lat="45.86351" lon="6.76569">
        <ele>1421</ele>
        <time>2026-08-14T12:10:25.540Z</time>
      </trkpt>
      <trkpt lat="45.86351" lon="6.76569">
        <ele>1421</ele>
        <time>2026-08-14T12:10:26.540Z</time>
      </trkpt>
      <trkpt lat="45.86351" lon="6.76569">
        <ele>1421</ele>
        <time>2026-08-14T12:10:27.540Z</time>
      </trkpt>
      <trkpt lat="45.86351" lon="6.76569">
        <ele>1421</ele>
        <time>2026-08-14T12:10:28.540Z</time>
      </trkpt>
      <trkpt lat="45.86351" lon="6.76569">
        <ele>1421</ele>
        <time>2026-08-14T12:10:29.540Z</time>
      </trkpt>
      <trkpt lat="45.86351" lon="6.76569">
        <ele>1421</ele>
        <time>2026-08-14T12:10:30.540Z</time>
      </trkpt>
      <trkpt lat="45.86351" lon="6.76569">
        <ele>1421</ele>
        <time>2026-08-14T12:10:31.540Z</time>
      </trkpt>
      <trkpt lat="45.86351" lon="6.76569">
        <ele>1421</ele>
        <time>2026-08-14T12:10:32.540Z</time>
      </trkpt>
      <trkpt lat="45.86351" lon="6.76569">
        <ele>1421</ele>
        <time>2026-08-14T12:10:33.540Z</time>
      </trkpt>
      <trkpt lat="45.86351" lon="6.76569">
        <ele>1421</ele>
        <time>2026-08-14T12:10:34.540Z</time>
      </trkpt>
      <trkpt lat="45.86351" lon="6.76569">
        <ele>1421</ele>
        <time>2026-08-14T12:10:35.540Z</time>
      </trkpt>
      <trkpt lat="45.86351" lon="6.76569">
        <ele>1421</ele>
        <time>2026-08-14T12:10:36.540Z</time>
      </trkpt>
      <trkpt lat="45.86351" lon="6.76569">
        <ele>1421</ele>
        <time>2026-08-14T12:10:37.540Z</time>
      </trkpt>
      <trkpt lat="45.86351" lon="6.76569">
        <ele>1421</ele>
        <time>2026-08-14T12:10:38.540Z</time>
      </trkpt>
      <trkpt lat="45.86351" lon="6.76569">
        <ele>1421</ele>
        <time>2026-08-14T12:10:39.540Z</time>
      </trkpt>
      <trkpt lat="45.86351" lon="6.76569">
        <ele>1421</ele>
        <time>2026-08-14T12:10:40.540Z</time>
      </trkpt>
      <trkpt lat="45.86351" lon="6.76569">
        <ele>1421</ele>
        <time>2026-08-14T12:10:41.540Z</time>
      </trkpt>
      <trkpt lat="45.86351" lon="6.76569">
        <ele>1421</ele>
        <time>2026-08-14T12:10:42.540Z</time>
      </trkpt>
      <trkpt lat="45.86351" lon="6.76569">
        <ele>1421</ele>
        <time>2026-08-14T12:10:43.540Z</time>
      </trkpt>
      <trkpt lat="45.86351" lon="6.76569">
        <ele>1421</ele>
        <time>2026-08-14T12:10:44.540Z</time>
      </trkpt>
      <trkpt lat="45.86351" lon="6.76569">
        <ele>1421</ele>
        <time>2026-08-14T12:10:45.540Z</time>
      </trkpt>
      <trkpt lat="45.86351" lon="6.76569">
        <ele>1421</ele>
        <time>2026-08-14T12:10:46.540Z</time>
      </trkpt>
      <trkpt lat="45.86351" lon="6.76569">
        <ele>1421</ele>
        <time>2026-08-14T12:10:47.540Z</time>
      </trkpt>
      <trkpt lat="45.86351" lon="6.76569">
        <ele>1421</ele>
        <time>2026-08-14T12:10:48.540Z</time>
      </trkpt>
      <trkpt lat="45.86351" lon="6.76569">
        <ele>1421</ele>
        <time>2026-08-14T12:10:49.540Z</time>
      </trkpt>
      <trkpt lat="45.86351" lon="6.7657">
        <ele>1421</ele>
        <time>2026-08-14T12:10:50.540Z</time>
      </trkpt>
      <trkpt lat="45.86351" lon="6.7657">
        <ele>1420</ele>
        <time>2026-08-14T12:10:51.540Z</time>
      </trkpt>
      <trkpt lat="45.86351" lon="6.7657">
        <ele>1420</ele>
        <time>2026-08-14T12:10:52.540Z</time>
      </trkpt>
      <trkpt lat="45.86351" lon="6.7657">
        <ele>1420</ele>
        <time>2026-08-14T12:10:53.540Z</time>
      </trkpt>
      <trkpt lat="45.86351" lon="6.7657">
        <ele>1420</ele>
        <time>2026-08-14T12:10:54.540Z</time>
      </trkpt>
      <trkpt lat="45.8635" lon="6.7657">
        <ele>1420</ele>
        <time>2026-08-14T12:10:55.540Z</time>
      </trkpt>
      <trkpt lat="45.8635" lon="6.7657">
        <ele>1420</ele>
        <time>2026-08-14T12:10:56.540Z</time>
      </trkpt>
      <trkpt lat="45.8635" lon="6.7657">
        <ele>1420</ele>
        <time>2026-08-14T12:10:57.540Z</time>
      </trkpt>
      <trkpt lat="45.8635" lon="6.7657">
        <ele>1420</ele>
        <time>2026-08-14T12:10:58.540Z</time>
      </trkpt>
      <trkpt lat="45.8635" lon="6.7657">
        <ele>1420</ele>
        <time>2026-08-14T12:10:59.540Z</time>
      </trkpt>
      <trkpt lat="45.8635" lon="6.7657">
        <ele>1420</ele>
        <time>2026-08-14T12:11:00.540Z</time>
      </trkpt>
      <trkpt lat="45.8635" lon="6.7657">
        <ele>1420</ele>
        <time>2026-08-14T12:11:01.540Z</time>
      </trkpt>
      <trkpt lat="45.86349" lon="6.7657">
        <ele>1420</ele>
        <time>2026-08-14T12:11:02.540Z</time>
      </trkpt>
      <trkpt lat="45.86349" lon="6.7657">
        <ele>1420</ele>
        <time>2026-08-14T12:11:03.540Z</time>
      </trkpt>
      <trkpt lat="45.86349" lon="6.7657">
        <ele>1420</ele>
        <time>2026-08-14T12:11:04.540Z</time>
      </trkpt>
      <trkpt lat="45.86349" lon="6.7657">
        <ele>1420</ele>
        <time>2026-08-14T12:11:05.540Z</time>
      </trkpt>
      <trkpt lat="45.86349" lon="6.76569">
        <ele>1420</ele>
        <time>2026-08-14T12:11:06.540Z</time>
      </trkpt>
      <trkpt lat="45.86349" lon="6.76569">
        <ele>1420</ele>
        <time>2026-08-14T12:11:07.540Z</time>
      </trkpt>
      <trkpt lat="45.86349" lon="6.76569">
        <ele>1420</ele>
        <time>2026-08-14T12:11:08.540Z</time>
      </trkpt>
      <trkpt lat="45.86348" lon="6.76569">
        <ele>1420</ele>
        <time>2026-08-14T12:11:09.540Z</time>
      </trkpt>
      <trkpt lat="45.86348" lon="6.76569">
        <ele>1420</ele>
        <time>2026-08-14T12:11:10.540Z</time>
      </trkpt>
      <trkpt lat="45.86348" lon="6.76569">
        <ele>1420</ele>
        <time>2026-08-14T12:11:11.540Z</time>
      </trkpt>
      <trkpt lat="45.86348" lon="6.76569">
        <ele>1420</ele>
        <time>2026-08-14T12:11:12.540Z</time>
      </trkpt>
      <trkpt lat="45.86348" lon="6.76568">
        <ele>1420</ele>
        <time>2026-08-14T12:11:13.540Z</time>
      </trkpt>
      <trkpt lat="45.86348" lon="6.76568">
        <ele>1420</ele>
        <time>2026-08-14T12:11:14.540Z</time>
      </trkpt>
      <trkpt lat="45.86348" lon="6.76568">
        <ele>1420</ele>
        <time>2026-08-14T12:11:15.540Z</time>
      </trkpt>
      <trkpt lat="45.86349" lon="6.76569">
        <ele>1420</ele>
        <time>2026-08-14T12:11:16.540Z</time>
      </trkpt>
      <trkpt lat="45.8635" lon="6.76572">
        <ele>1420</ele>
        <time>2026-08-14T12:11:17.540Z</time>
      </trkpt>
      <trkpt lat="45.86351" lon="6.76574">
        <ele>1420</ele>
        <time>2026-08-14T12:11:18.540Z</time>
      </trkpt>
      <trkpt lat="45.86351" lon="6.76576">
        <ele>1420</ele>
        <time>2026-08-14T12:11:19.540Z</time>
      </trkpt>
      <trkpt lat="45.86352" lon="6.76579">
        <ele>1420</ele>
        <time>2026-08-14T12:11:20.540Z</time>
      </trkpt>
      <trkpt lat="45.86353" lon="6.76581">
        <ele>1420</ele>
        <time>2026-08-14T12:11:21.540Z</time>
      </trkpt>
      <trkpt lat="45.86353" lon="6.76584">
        <ele>1420</ele>
        <time>2026-08-14T12:11:22.540Z</time>
      </trkpt>
      <trkpt lat="45.86354" lon="6.76586">
        <ele>1420</ele>
        <time>2026-08-14T12:11:23.540Z</time>
      </trkpt>
      <trkpt lat="45.86354" lon="6.76587">
        <ele>1420</ele>
        <time>2026-08-14T12:11:24.540Z</time>
      </trkpt>
      <trkpt lat="45.86355" lon="6.76588">
        <ele>1420</ele>
        <time>2026-08-14T12:11:25.540Z</time>
      </trkpt>
      <trkpt lat="45.86355" lon="6.76589">
        <ele>1420</ele>
        <time>2026-08-14T12:11:26.540Z</time>
      </trkpt>
      <trkpt lat="45.86355" lon="6.76589">
        <ele>1421</ele>
        <time>2026-08-14T12:11:27.540Z</time>
      </trkpt>
      <trkpt lat="45.86355" lon="6.76588">
        <ele>1421</ele>
        <time>2026-08-14T12:11:28.540Z</time>
      </trkpt>
      <trkpt lat="45.86355" lon="6.76589">
        <ele>1422</ele>
        <time>2026-08-14T12:11:29.540Z</time>
      </trkpt>
      <trkpt lat="45.86355" lon="6.7659">
        <ele>1422</ele>
        <time>2026-08-14T12:11:30.540Z</time>
      </trkpt>
      <trkpt lat="45.86355" lon="6.76591">
        <ele>1422</ele>
        <time>2026-08-14T12:11:31.540Z</time>
      </trkpt>
      <trkpt lat="45.86355" lon="6.76593">
        <ele>1422</ele>
        <time>2026-08-14T12:11:32.540Z</time>
      </trkpt>
      <trkpt lat="45.86354" lon="6.76594">
        <ele>1422</ele>
        <time>2026-08-14T12:11:33.540Z</time>
      </trkpt>
      <trkpt lat="45.86354" lon="6.76595">
        <ele>1422</ele>
        <time>2026-08-14T12:11:34.540Z</time>
      </trkpt>
      <trkpt lat="45.86354" lon="6.76597">
        <ele>1422</ele>
        <time>2026-08-14T12:11:35.540Z</time>
      </trkpt>
      <trkpt lat="45.86354" lon="6.76598">
        <ele>1423</ele>
        <time>2026-08-14T12:11:36.540Z</time>
      </trkpt>
      <trkpt lat="45.86354" lon="6.76598">
        <ele>1423</ele>
        <time>2026-08-14T12:11:37.540Z</time>
      </trkpt>
      <trkpt lat="45.86354" lon="6.76599">
        <ele>1424</ele>
        <time>2026-08-14T12:11:38.540Z</time>
      </trkpt>
      <trkpt lat="45.86355" lon="6.76598">
        <ele>1425</ele>
        <time>2026-08-14T12:11:39.540Z</time>
      </trkpt>
      <trkpt lat="45.86355" lon="6.76598">
        <ele>1425</ele>
        <time>2026-08-14T12:11:40.540Z</time>
      </trkpt>
      <trkpt lat="45.86355" lon="6.76598">
        <ele>1426</ele>
        <time>2026-08-14T12:11:41.540Z</time>
      </trkpt>
      <trkpt lat="45.86355" lon="6.76598">
        <ele>1426</ele>
        <time>2026-08-14T12:11:42.540Z</time>
      </trkpt>
      <trkpt lat="45.86355" lon="6.76598">
        <ele>1427</ele>
        <time>2026-08-14T12:11:43.540Z</time>
      </trkpt>
      <trkpt lat="45.86356" lon="6.76598">
        <ele>1427</ele>
        <time>2026-08-14T12:11:44.540Z</time>
      </trkpt>
      <trkpt lat="45.86356" lon="6.76598">
        <ele>1428</ele>
        <time>2026-08-14T12:11:45.540Z</time>
      </trkpt>
      <trkpt lat="45.86356" lon="6.76599">
        <ele>1428</ele>
        <time>2026-08-14T12:11:46.540Z</time>
      </trkpt>
      <trkpt lat="45.86356" lon="6.76599">
        <ele>1428</ele>
        <time>2026-08-14T12:11:47.540Z</time>
      </trkpt>
      <trkpt lat="45.86356" lon="6.766">
        <ele>1428</ele>
        <time>2026-08-14T12:11:48.540Z</time>
      </trkpt>
      <trkpt lat="45.86356" lon="6.76602">
        <ele>1428</ele>
        <time>2026-08-14T12:11:49.540Z</time>
      </trkpt>
      <trkpt lat="45.86356" lon="6.76603">
        <ele>1427</ele>
        <time>2026-08-14T12:11:50.540Z</time>
      </trkpt>
      <trkpt lat="45.86356" lon="6.76604">
        <ele>1427</ele>
        <time>2026-08-14T12:11:51.540Z</time>
      </trkpt>
      <trkpt lat="45.86356" lon="6.76606">
        <ele>1427</ele>
        <time>2026-08-14T12:11:52.540Z</time>
      </trkpt>
      <trkpt lat="45.86356" lon="6.76607">
        <ele>1427</ele>
        <time>2026-08-14T12:11:53.540Z</time>
      </trkpt>
      <trkpt lat="45.86356" lon="6.76609">
        <ele>1427</ele>
        <time>2026-08-14T12:11:54.540Z</time>
      </trkpt>
      <trkpt lat="45.86356" lon="6.76611">
        <ele>1427</ele>
        <time>2026-08-14T12:11:55.540Z</time>
      </trkpt>
      <trkpt lat="45.86357" lon="6.76613">
        <ele>1427</ele>
        <time>2026-08-14T12:11:56.540Z</time>
      </trkpt>
      <trkpt lat="45.86357" lon="6.76615">
        <ele>1428</ele>
        <time>2026-08-14T12:11:57.540Z</time>
      </trkpt>
      <trkpt lat="45.86358" lon="6.76617">
        <ele>1428</ele>
        <time>2026-08-14T12:11:58.540Z</time>
      </trkpt>
      <trkpt lat="45.86358" lon="6.76619">
        <ele>1429</ele>
        <time>2026-08-14T12:11:59.540Z</time>
      </trkpt>
      <trkpt lat="45.86359" lon="6.76621">
        <ele>1429</ele>
        <time>2026-08-14T12:12:00.540Z</time>
      </trkpt>
      <trkpt lat="45.8636" lon="6.76622">
        <ele>1430</ele>
        <time>2026-08-14T12:12:01.540Z</time>
      </trkpt>
      <trkpt lat="45.8636" lon="6.76625">
        <ele>1431</ele>
        <time>2026-08-14T12:12:02.540Z</time>
      </trkpt>
      <trkpt lat="45.86361" lon="6.76627">
        <ele>1431</ele>
        <time>2026-08-14T12:12:03.540Z</time>
      </trkpt>
      <trkpt lat="45.86361" lon="6.76629">
        <ele>1432</ele>
        <time>2026-08-14T12:12:04.540Z</time>
      </trkpt>
      <trkpt lat="45.86361" lon="6.76631">
        <ele>1432</ele>
        <time>2026-08-14T12:12:05.540Z</time>
      </trkpt>
      <trkpt lat="45.86362" lon="6.76633">
        <ele>1432</ele>
        <time>2026-08-14T12:12:06.540Z</time>
      </trkpt>
      <trkpt lat="45.86362" lon="6.76635">
        <ele>1432</ele>
        <time>2026-08-14T12:12:07.540Z</time>
      </trkpt>
      <trkpt lat="45.86362" lon="6.76637">
        <ele>1432</ele>
        <time>2026-08-14T12:12:08.540Z</time>
      </trkpt>
      <trkpt lat="45.86362" lon="6.76639">
        <ele>1432</ele>
        <time>2026-08-14T12:12:09.540Z</time>
      </trkpt>
      <trkpt lat="45.86362" lon="6.76642">
        <ele>1432</ele>
        <time>2026-08-14T12:12:10.540Z</time>
      </trkpt>
      <trkpt lat="45.86363" lon="6.76644">
        <ele>1432</ele>
        <time>2026-08-14T12:12:11.540Z</time>
      </trkpt>
      <trkpt lat="45.86363" lon="6.76646">
        <ele>1431</ele>
        <time>2026-08-14T12:12:12.540Z</time>
      </trkpt>
      <trkpt lat="45.86363" lon="6.76649">
        <ele>1431</ele>
        <time>2026-08-14T12:12:13.540Z</time>
      </trkpt>
      <trkpt lat="45.86364" lon="6.76652">
        <ele>1431</ele>
        <time>2026-08-14T12:12:14.540Z</time>
      </trkpt>
      <trkpt lat="45.86365" lon="6.76655">
        <ele>1431</ele>
        <time>2026-08-14T12:12:15.540Z</time>
      </trkpt>
      <trkpt lat="45.86365" lon="6.76658">
        <ele>1431</ele>
        <time>2026-08-14T12:12:16.540Z</time>
      </trkpt>
      <trkpt lat="45.86366" lon="6.76661">
        <ele>1431</ele>
        <time>2026-08-14T12:12:17.540Z</time>
      </trkpt>
      <trkpt lat="45.86366" lon="6.76664">
        <ele>1431</ele>
        <time>2026-08-14T12:12:18.540Z</time>
      </trkpt>
      <trkpt lat="45.86366" lon="6.76666">
        <ele>1431</ele>
        <time>2026-08-14T12:12:19.540Z</time>
      </trkpt>
      <trkpt lat="45.86367" lon="6.76668">
        <ele>1431</ele>
        <time>2026-08-14T12:12:20.540Z</time>
      </trkpt>
      <trkpt lat="45.86368" lon="6.76671">
        <ele>1431</ele>
        <time>2026-08-14T12:12:21.540Z</time>
      </trkpt>
      <trkpt lat="45.86368" lon="6.76673">
        <ele>1431</ele>
        <time>2026-08-14T12:12:22.540Z</time>
      </trkpt>
      <trkpt lat="45.86368" lon="6.76676">
        <ele>1431</ele>
        <time>2026-08-14T12:12:23.540Z</time>
      </trkpt>
      <trkpt lat="45.86369" lon="6.76678">
        <ele>1431</ele>
        <time>2026-08-14T12:12:24.540Z</time>
      </trkpt>
      <trkpt lat="45.8637" lon="6.7668">
        <ele>1432</ele>
        <time>2026-08-14T12:12:25.540Z</time>
      </trkpt>
      <trkpt lat="45.86371" lon="6.76682">
        <ele>1432</ele>
        <time>2026-08-14T12:12:26.540Z</time>
      </trkpt>
      <trkpt lat="45.86371" lon="6.76684">
        <ele>1432</ele>
        <time>2026-08-14T12:12:27.540Z</time>
      </trkpt>
      <trkpt lat="45.8637" lon="6.76686">
        <ele>1433</ele>
        <time>2026-08-14T12:12:28.540Z</time>
      </trkpt>
      <trkpt lat="45.86369" lon="6.76688">
        <ele>1433</ele>
        <time>2026-08-14T12:12:29.540Z</time>
      </trkpt>
      <trkpt lat="45.86368" lon="6.76691">
        <ele>1433</ele>
        <time>2026-08-14T12:12:30.540Z</time>
      </trkpt>
      <trkpt lat="45.86368" lon="6.76693">
        <ele>1433</ele>
        <time>2026-08-14T12:12:31.540Z</time>
      </trkpt>
      <trkpt lat="45.86368" lon="6.76696">
        <ele>1433</ele>
        <time>2026-08-14T12:12:32.540Z</time>
      </trkpt>
      <trkpt lat="45.86368" lon="6.76699">
        <ele>1433</ele>
        <time>2026-08-14T12:12:33.540Z</time>
      </trkpt>
      <trkpt lat="45.86367" lon="6.76701">
        <ele>1433</ele>
        <time>2026-08-14T12:12:34.540Z</time>
      </trkpt>
      <trkpt lat="45.86367" lon="6.76704">
        <ele>1433</ele>
        <time>2026-08-14T12:12:35.540Z</time>
      </trkpt>
      <trkpt lat="45.86366" lon="6.76706">
        <ele>1433</ele>
        <time>2026-08-14T12:12:36.540Z</time>
      </trkpt>
      <trkpt lat="45.86365" lon="6.76709">
        <ele>1433</ele>
        <time>2026-08-14T12:12:37.540Z</time>
      </trkpt>
      <trkpt lat="45.86365" lon="6.76712">
        <ele>1433</ele>
        <time>2026-08-14T12:12:38.540Z</time>
      </trkpt>
      <trkpt lat="45.86365" lon="6.76715">
        <ele>1433</ele>
        <time>2026-08-14T12:12:39.540Z</time>
      </trkpt>
      <trkpt lat="45.86365" lon="6.76719">
        <ele>1433</ele>
        <time>2026-08-14T12:12:40.540Z</time>
      </trkpt>
      <trkpt lat="45.86365" lon="6.76722">
        <ele>1433</ele>
        <time>2026-08-14T12:12:41.540Z</time>
      </trkpt>
      <trkpt lat="45.86365" lon="6.76725">
        <ele>1433</ele>
        <time>2026-08-14T12:12:42.540Z</time>
      </trkpt>
      <trkpt lat="45.86364" lon="6.76729">
        <ele>1433</ele>
        <time>2026-08-14T12:12:43.540Z</time>
      </trkpt>
      <trkpt lat="45.86365" lon="6.76732">
        <ele>1432</ele>
        <time>2026-08-14T12:12:44.540Z</time>
      </trkpt>
      <trkpt lat="45.86366" lon="6.76735">
        <ele>1432</ele>
        <time>2026-08-14T12:12:45.540Z</time>
      </trkpt>
      <trkpt lat="45.86366" lon="6.76739">
        <ele>1432</ele>
        <time>2026-08-14T12:12:46.540Z</time>
      </trkpt>
      <trkpt lat="45.86366" lon="6.76742">
        <ele>1432</ele>
        <time>2026-08-14T12:12:47.540Z</time>
      </trkpt>
      <trkpt lat="45.86366" lon="6.76746">
        <ele>1432</ele>
        <time>2026-08-14T12:12:48.540Z</time>
      </trkpt>
      <trkpt lat="45.86366" lon="6.7675">
        <ele>1432</ele>
        <time>2026-08-14T12:12:49.540Z</time>
      </trkpt>
      <trkpt lat="45.86366" lon="6.76753">
        <ele>1432</ele>
        <time>2026-08-14T12:12:50.540Z</time>
      </trkpt>
      <trkpt lat="45.86366" lon="6.76756">
        <ele>1431</ele>
        <time>2026-08-14T12:12:51.540Z</time>
      </trkpt>
      <trkpt lat="45.86366" lon="6.76759">
        <ele>1431</ele>
        <time>2026-08-14T12:12:52.540Z</time>
      </trkpt>
      <trkpt lat="45.86366" lon="6.76762">
        <ele>1431</ele>
        <time>2026-08-14T12:12:53.540Z</time>
      </trkpt>
      <trkpt lat="45.86366" lon="6.76765">
        <ele>1431</ele>
        <time>2026-08-14T12:12:54.540Z</time>
      </trkpt>
      <trkpt lat="45.86366" lon="6.76768">
        <ele>1431</ele>
        <time>2026-08-14T12:12:55.540Z</time>
      </trkpt>
      <trkpt lat="45.86366" lon="6.76771">
        <ele>1431</ele>
        <time>2026-08-14T12:12:56.540Z</time>
      </trkpt>
      <trkpt lat="45.86366" lon="6.76773">
        <ele>1430</ele>
        <time>2026-08-14T12:12:57.540Z</time>
      </trkpt>
      <trkpt lat="45.86365" lon="6.76776">
        <ele>1430</ele>
        <time>2026-08-14T12:12:58.540Z</time>
      </trkpt>
      <trkpt lat="45.86365" lon="6.76779">
        <ele>1430</ele>
        <time>2026-08-14T12:12:59.540Z</time>
      </trkpt>
      <trkpt lat="45.86364" lon="6.76782">
        <ele>1430</ele>
        <time>2026-08-14T12:13:00.540Z</time>
      </trkpt>
      <trkpt lat="45.86363" lon="6.76785">
        <ele>1430</ele>
        <time>2026-08-14T12:13:01.540Z</time>
      </trkpt>
      <trkpt lat="45.86363" lon="6.76788">
        <ele>1430</ele>
        <time>2026-08-14T12:13:02.540Z</time>
      </trkpt>
      <trkpt lat="45.86363" lon="6.7679">
        <ele>1430</ele>
        <time>2026-08-14T12:13:03.540Z</time>
      </trkpt>
      <trkpt lat="45.86362" lon="6.76793">
        <ele>1430</ele>
        <time>2026-08-14T12:13:04.540Z</time>
      </trkpt>
      <trkpt lat="45.86362" lon="6.76796">
        <ele>1430</ele>
        <time>2026-08-14T12:13:05.540Z</time>
      </trkpt>
      <trkpt lat="45.86361" lon="6.76798">
        <ele>1430</ele>
        <time>2026-08-14T12:13:06.540Z</time>
      </trkpt>
      <trkpt lat="45.86361" lon="6.76801">
        <ele>1430</ele>
        <time>2026-08-14T12:13:07.540Z</time>
      </trkpt>
      <trkpt lat="45.8636" lon="6.76804">
        <ele>1430</ele>
        <time>2026-08-14T12:13:08.540Z</time>
      </trkpt>
      <trkpt lat="45.8636" lon="6.76806">
        <ele>1430</ele>
        <time>2026-08-14T12:13:09.540Z</time>
      </trkpt>
      <trkpt lat="45.86359" lon="6.76808">
        <ele>1431</ele>
        <time>2026-08-14T12:13:10.540Z</time>
      </trkpt>
      <trkpt lat="45.86359" lon="6.76811">
        <ele>1431</ele>
        <time>2026-08-14T12:13:11.540Z</time>
      </trkpt>
      <trkpt lat="45.86358" lon="6.76814">
        <ele>1431</ele>
        <time>2026-08-14T12:13:12.540Z</time>
      </trkpt>
      <trkpt lat="45.86357" lon="6.76816">
        <ele>1432</ele>
        <time>2026-08-14T12:13:13.540Z</time>
      </trkpt>
      <trkpt lat="45.86357" lon="6.76819">
        <ele>1432</ele>
        <time>2026-08-14T12:13:14.540Z</time>
      </trkpt>
      <trkpt lat="45.86356" lon="6.76821">
        <ele>1432</ele>
        <time>2026-08-14T12:13:15.540Z</time>
      </trkpt>
      <trkpt lat="45.86355" lon="6.76824">
        <ele>1432</ele>
        <time>2026-08-14T12:13:16.540Z</time>
      </trkpt>
      <trkpt lat="45.86354" lon="6.76826">
        <ele>1432</ele>
        <time>2026-08-14T12:13:17.540Z</time>
      </trkpt>
      <trkpt lat="45.86353" lon="6.76828">
        <ele>1432</ele>
        <time>2026-08-14T12:13:18.540Z</time>
      </trkpt>
      <trkpt lat="45.86352" lon="6.76831">
        <ele>1432</ele>
        <time>2026-08-14T12:13:19.540Z</time>
      </trkpt>
      <trkpt lat="45.86351" lon="6.76833">
        <ele>1432</ele>
        <time>2026-08-14T12:13:20.540Z</time>
      </trkpt>
      <trkpt lat="45.86351" lon="6.76836">
        <ele>1432</ele>
        <time>2026-08-14T12:13:21.540Z</time>
      </trkpt>
      <trkpt lat="45.8635" lon="6.76838">
        <ele>1432</ele>
        <time>2026-08-14T12:13:22.540Z</time>
      </trkpt>
      <trkpt lat="45.86349" lon="6.7684">
        <ele>1432</ele>
        <time>2026-08-14T12:13:23.540Z</time>
      </trkpt>
      <trkpt lat="45.86348" lon="6.76842">
        <ele>1432</ele>
        <time>2026-08-14T12:13:24.540Z</time>
      </trkpt>
      <trkpt lat="45.86348" lon="6.76843">
        <ele>1432</ele>
        <time>2026-08-14T12:13:25.540Z</time>
      </trkpt>
      <trkpt lat="45.86347" lon="6.76845">
        <ele>1433</ele>
        <time>2026-08-14T12:13:26.540Z</time>
      </trkpt>
      <trkpt lat="45.86347" lon="6.76847">
        <ele>1433</ele>
        <time>2026-08-14T12:13:27.540Z</time>
      </trkpt>
      <trkpt lat="45.86347" lon="6.76849">
        <ele>1434</ele>
        <time>2026-08-14T12:13:28.540Z</time>
      </trkpt>
      <trkpt lat="45.86347" lon="6.76852">
        <ele>1434</ele>
        <time>2026-08-14T12:13:29.540Z</time>
      </trkpt>
      <trkpt lat="45.86347" lon="6.76855">
        <ele>1434</ele>
        <time>2026-08-14T12:13:30.540Z</time>
      </trkpt>
      <trkpt lat="45.86347" lon="6.76857">
        <ele>1434</ele>
        <time>2026-08-14T12:13:31.540Z</time>
      </trkpt>
      <trkpt lat="45.86348" lon="6.7686">
        <ele>1434</ele>
        <time>2026-08-14T12:13:32.540Z</time>
      </trkpt>
      <trkpt lat="45.86348" lon="6.76863">
        <ele>1434</ele>
        <time>2026-08-14T12:13:33.540Z</time>
      </trkpt>
      <trkpt lat="45.86349" lon="6.76866">
        <ele>1434</ele>
        <time>2026-08-14T12:13:34.540Z</time>
      </trkpt>
      <trkpt lat="45.8635" lon="6.76868">
        <ele>1434</ele>
        <time>2026-08-14T12:13:35.540Z</time>
      </trkpt>
      <trkpt lat="45.8635" lon="6.7687">
        <ele>1434</ele>
        <time>2026-08-14T12:13:36.540Z</time>
      </trkpt>
      <trkpt lat="45.86351" lon="6.76872">
        <ele>1434</ele>
        <time>2026-08-14T12:13:37.540Z</time>
      </trkpt>
      <trkpt lat="45.86351" lon="6.76875">
        <ele>1434</ele>
        <time>2026-08-14T12:13:38.540Z</time>
      </trkpt>
      <trkpt lat="45.86352" lon="6.76877">
        <ele>1433</ele>
        <time>2026-08-14T12:13:39.540Z</time>
      </trkpt>
      <trkpt lat="45.86352" lon="6.7688">
        <ele>1433</ele>
        <time>2026-08-14T12:13:40.540Z</time>
      </trkpt>
      <trkpt lat="45.86352" lon="6.76882">
        <ele>1433</ele>
        <time>2026-08-14T12:13:41.540Z</time>
      </trkpt>
      <trkpt lat="45.86353" lon="6.76884">
        <ele>1433</ele>
        <time>2026-08-14T12:13:42.540Z</time>
      </trkpt>
      <trkpt lat="45.86353" lon="6.76887">
        <ele>1433</ele>
        <time>2026-08-14T12:13:43.540Z</time>
      </trkpt>
      <trkpt lat="45.86353" lon="6.7689">
        <ele>1433</ele>
        <time>2026-08-14T12:13:44.540Z</time>
      </trkpt>
      <trkpt lat="45.86353" lon="6.76892">
        <ele>1433</ele>
        <time>2026-08-14T12:13:45.540Z</time>
      </trkpt>
      <trkpt lat="45.86353" lon="6.76895">
        <ele>1434</ele>
        <time>2026-08-14T12:13:46.540Z</time>
      </trkpt>
      <trkpt lat="45.86353" lon="6.76898">
        <ele>1434</ele>
        <time>2026-08-14T12:13:47.540Z</time>
      </trkpt>
      <trkpt lat="45.86352" lon="6.76901">
        <ele>1434</ele>
        <time>2026-08-14T12:13:48.540Z</time>
      </trkpt>
      <trkpt lat="45.86353" lon="6.76904">
        <ele>1434</ele>
        <time>2026-08-14T12:13:49.540Z</time>
      </trkpt>
      <trkpt lat="45.86353" lon="6.76907">
        <ele>1434</ele>
        <time>2026-08-14T12:13:50.540Z</time>
      </trkpt>
      <trkpt lat="45.86353" lon="6.76909">
        <ele>1434</ele>
        <time>2026-08-14T12:13:51.540Z</time>
      </trkpt>
      <trkpt lat="45.86353" lon="6.76912">
        <ele>1434</ele>
        <time>2026-08-14T12:13:52.540Z</time>
      </trkpt>
      <trkpt lat="45.86353" lon="6.76915">
        <ele>1434</ele>
        <time>2026-08-14T12:13:53.540Z</time>
      </trkpt>
      <trkpt lat="45.86353" lon="6.76917">
        <ele>1434</ele>
        <time>2026-08-14T12:13:54.540Z</time>
      </trkpt>
      <trkpt lat="45.86353" lon="6.7692">
        <ele>1434</ele>
        <time>2026-08-14T12:13:55.540Z</time>
      </trkpt>
      <trkpt lat="45.86353" lon="6.76923">
        <ele>1435</ele>
        <time>2026-08-14T12:13:56.540Z</time>
      </trkpt>
      <trkpt lat="45.86354" lon="6.76925">
        <ele>1435</ele>
        <time>2026-08-14T12:13:57.540Z</time>
      </trkpt>
      <trkpt lat="45.86354" lon="6.76928">
        <ele>1435</ele>
        <time>2026-08-14T12:13:58.540Z</time>
      </trkpt>
      <trkpt lat="45.86355" lon="6.7693">
        <ele>1436</ele>
        <time>2026-08-14T12:13:59.540Z</time>
      </trkpt>
      <trkpt lat="45.86355" lon="6.76933">
        <ele>1435</ele>
        <time>2026-08-14T12:14:00.540Z</time>
      </trkpt>
      <trkpt lat="45.86356" lon="6.76936">
        <ele>1435</ele>
        <time>2026-08-14T12:14:01.540Z</time>
      </trkpt>
      <trkpt lat="45.86356" lon="6.76938">
        <ele>1435</ele>
        <time>2026-08-14T12:14:02.540Z</time>
      </trkpt>
      <trkpt lat="45.86356" lon="6.7694">
        <ele>1436</ele>
        <time>2026-08-14T12:14:03.540Z</time>
      </trkpt>
      <trkpt lat="45.86357" lon="6.76941">
        <ele>1436</ele>
        <time>2026-08-14T12:14:04.540Z</time>
      </trkpt>
      <trkpt lat="45.86359" lon="6.76942">
        <ele>1437</ele>
        <time>2026-08-14T12:14:05.540Z</time>
      </trkpt>
      <trkpt lat="45.8636" lon="6.76944">
        <ele>1437</ele>
        <time>2026-08-14T12:14:06.540Z</time>
      </trkpt>
      <trkpt lat="45.86362" lon="6.76945">
        <ele>1437</ele>
        <time>2026-08-14T12:14:07.540Z</time>
      </trkpt>
      <trkpt lat="45.86363" lon="6.76946">
        <ele>1437</ele>
        <time>2026-08-14T12:14:08.540Z</time>
      </trkpt>
      <trkpt lat="45.86365" lon="6.76947">
        <ele>1438</ele>
        <time>2026-08-14T12:14:09.540Z</time>
      </trkpt>
      <trkpt lat="45.86367" lon="6.76948">
        <ele>1438</ele>
        <time>2026-08-14T12:14:10.540Z</time>
      </trkpt>
      <trkpt lat="45.86369" lon="6.76949">
        <ele>1438</ele>
        <time>2026-08-14T12:14:11.540Z</time>
      </trkpt>
      <trkpt lat="45.8637" lon="6.7695">
        <ele>1438</ele>
        <time>2026-08-14T12:14:12.540Z</time>
      </trkpt>
      <trkpt lat="45.86372" lon="6.76951">
        <ele>1439</ele>
        <time>2026-08-14T12:14:13.540Z</time>
      </trkpt>
      <trkpt lat="45.86374" lon="6.76951">
        <ele>1439</ele>
        <time>2026-08-14T12:14:14.540Z</time>
      </trkpt>
      <trkpt lat="45.86376" lon="6.76951">
        <ele>1439</ele>
        <time>2026-08-14T12:14:15.540Z</time>
      </trkpt>
      <trkpt lat="45.86377" lon="6.76952">
        <ele>1439</ele>
        <time>2026-08-14T12:14:16.540Z</time>
      </trkpt>
      <trkpt lat="45.86379" lon="6.76952">
        <ele>1439</ele>
        <time>2026-08-14T12:14:17.540Z</time>
      </trkpt>
      <trkpt lat="45.86381" lon="6.76952">
        <ele>1440</ele>
        <time>2026-08-14T12:14:18.540Z</time>
      </trkpt>
      <trkpt lat="45.86383" lon="6.76952">
        <ele>1440</ele>
        <time>2026-08-14T12:14:19.540Z</time>
      </trkpt>
      <trkpt lat="45.86385" lon="6.76951">
        <ele>1441</ele>
        <time>2026-08-14T12:14:20.540Z</time>
      </trkpt>
      <trkpt lat="45.86387" lon="6.76951">
        <ele>1441</ele>
        <time>2026-08-14T12:14:21.540Z</time>
      </trkpt>
      <trkpt lat="45.86389" lon="6.7695">
        <ele>1442</ele>
        <time>2026-08-14T12:14:22.540Z</time>
      </trkpt>
      <trkpt lat="45.86391" lon="6.76949">
        <ele>1442</ele>
        <time>2026-08-14T12:14:23.540Z</time>
      </trkpt>
      <trkpt lat="45.86393" lon="6.76949">
        <ele>1442</ele>
        <time>2026-08-14T12:14:24.540Z</time>
      </trkpt>
      <trkpt lat="45.86395" lon="6.76947">
        <ele>1442</ele>
        <time>2026-08-14T12:14:25.540Z</time>
      </trkpt>
      <trkpt lat="45.86397" lon="6.76946">
        <ele>1441</ele>
        <time>2026-08-14T12:14:26.540Z</time>
      </trkpt>
      <trkpt lat="45.86399" lon="6.76944">
        <ele>1441</ele>
        <time>2026-08-14T12:14:27.540Z</time>
      </trkpt>
      <trkpt lat="45.86401" lon="6.76943">
        <ele>1441</ele>
        <time>2026-08-14T12:14:28.540Z</time>
      </trkpt>
      <trkpt lat="45.86403" lon="6.76942">
        <ele>1440</ele>
        <time>2026-08-14T12:14:29.540Z</time>
      </trkpt>
      <trkpt lat="45.86405" lon="6.76941">
        <ele>1440</ele>
        <time>2026-08-14T12:14:30.540Z</time>
      </trkpt>
      <trkpt lat="45.86407" lon="6.7694">
        <ele>1440</ele>
        <time>2026-08-14T12:14:31.540Z</time>
      </trkpt>
      <trkpt lat="45.8641" lon="6.76939">
        <ele>1440</ele>
        <time>2026-08-14T12:14:32.540Z</time>
      </trkpt>
      <trkpt lat="45.86412" lon="6.76938">
        <ele>1440</ele>
        <time>2026-08-14T12:14:33.540Z</time>
      </trkpt>
      <trkpt lat="45.86414" lon="6.76937">
        <ele>1440</ele>
        <time>2026-08-14T12:14:34.540Z</time>
      </trkpt>
      <trkpt lat="45.86416" lon="6.76936">
        <ele>1440</ele>
        <time>2026-08-14T12:14:35.540Z</time>
      </trkpt>
      <trkpt lat="45.86419" lon="6.76935">
        <ele>1440</ele>
        <time>2026-08-14T12:14:36.540Z</time>
      </trkpt>
      <trkpt lat="45.86421" lon="6.76935">
        <ele>1440</ele>
        <time>2026-08-14T12:14:37.540Z</time>
      </trkpt>
      <trkpt lat="45.86423" lon="6.76934">
        <ele>1439</ele>
        <time>2026-08-14T12:14:38.540Z</time>
      </trkpt>
      <trkpt lat="45.86425" lon="6.76933">
        <ele>1439</ele>
        <time>2026-08-14T12:14:39.540Z</time>
      </trkpt>
      <trkpt lat="45.86427" lon="6.76933">
        <ele>1438</ele>
        <time>2026-08-14T12:14:40.540Z</time>
      </trkpt>
      <trkpt lat="45.8643" lon="6.76932">
        <ele>1437</ele>
        <time>2026-08-14T12:14:41.540Z</time>
      </trkpt>
      <trkpt lat="45.86432" lon="6.76932">
        <ele>1437</ele>
        <time>2026-08-14T12:14:42.540Z</time>
      </trkpt>
      <trkpt lat="45.86434" lon="6.76931">
        <ele>1436</ele>
        <time>2026-08-14T12:14:43.540Z</time>
      </trkpt>
      <trkpt lat="45.86435" lon="6.7693">
        <ele>1436</ele>
        <time>2026-08-14T12:14:44.540Z</time>
      </trkpt>
      <trkpt lat="45.86438" lon="6.76929">
        <ele>1435</ele>
        <time>2026-08-14T12:14:45.540Z</time>
      </trkpt>
      <trkpt lat="45.8644" lon="6.76929">
        <ele>1435</ele>
        <time>2026-08-14T12:14:46.540Z</time>
      </trkpt>
      <trkpt lat="45.86442" lon="6.76928">
        <ele>1434</ele>
        <time>2026-08-14T12:14:47.540Z</time>
      </trkpt>
      <trkpt lat="45.86444" lon="6.76927">
        <ele>1434</ele>
        <time>2026-08-14T12:14:48.540Z</time>
      </trkpt>
      <trkpt lat="45.86446" lon="6.76926">
        <ele>1434</ele>
        <time>2026-08-14T12:14:49.540Z</time>
      </trkpt>
      <trkpt lat="45.86449" lon="6.76925">
        <ele>1434</ele>
        <time>2026-08-14T12:14:50.540Z</time>
      </trkpt>
      <trkpt lat="45.86451" lon="6.76924">
        <ele>1434</ele>
        <time>2026-08-14T12:14:51.540Z</time>
      </trkpt>
      <trkpt lat="45.86453" lon="6.76924">
        <ele>1434</ele>
        <time>2026-08-14T12:14:52.540Z</time>
      </trkpt>
      <trkpt lat="45.86455" lon="6.76923">
        <ele>1434</ele>
        <time>2026-08-14T12:14:53.540Z</time>
      </trkpt>
      <trkpt lat="45.86457" lon="6.76922">
        <ele>1434</ele>
        <time>2026-08-14T12:14:54.540Z</time>
      </trkpt>
      <trkpt lat="45.8646" lon="6.76922">
        <ele>1434</ele>
        <time>2026-08-14T12:14:55.540Z</time>
      </trkpt>
      <trkpt lat="45.86462" lon="6.76922">
        <ele>1434</ele>
        <time>2026-08-14T12:14:56.540Z</time>
      </trkpt>
      <trkpt lat="45.86464" lon="6.76922">
        <ele>1434</ele>
        <time>2026-08-14T12:14:57.540Z</time>
      </trkpt>
      <trkpt lat="45.86466" lon="6.76922">
        <ele>1434</ele>
        <time>2026-08-14T12:14:58.540Z</time>
      </trkpt>
      <trkpt lat="45.86469" lon="6.76922">
        <ele>1434</ele>
        <time>2026-08-14T12:14:59.540Z</time>
      </trkpt>
      <trkpt lat="45.86471" lon="6.76922">
        <ele>1434</ele>
        <time>2026-08-14T12:15:00.540Z</time>
      </trkpt>
      <trkpt lat="45.86473" lon="6.76922">
        <ele>1434</ele>
        <time>2026-08-14T12:15:01.540Z</time>
      </trkpt>
      <trkpt lat="45.86475" lon="6.76921">
        <ele>1434</ele>
        <time>2026-08-14T12:15:02.540Z</time>
      </trkpt>
      <trkpt lat="45.86477" lon="6.76921">
        <ele>1433</ele>
        <time>2026-08-14T12:15:03.540Z</time>
      </trkpt>
      <trkpt lat="45.86479" lon="6.7692">
        <ele>1433</ele>
        <time>2026-08-14T12:15:04.540Z</time>
      </trkpt>
      <trkpt lat="45.86481" lon="6.7692">
        <ele>1433</ele>
        <time>2026-08-14T12:15:05.540Z</time>
      </trkpt>
      <trkpt lat="45.86483" lon="6.7692">
        <ele>1432</ele>
        <time>2026-08-14T12:15:06.540Z</time>
      </trkpt>
      <trkpt lat="45.86485" lon="6.76919">
        <ele>1432</ele>
        <time>2026-08-14T12:15:07.540Z</time>
      </trkpt>
      <trkpt lat="45.86487" lon="6.76919">
        <ele>1431</ele>
        <time>2026-08-14T12:15:08.540Z</time>
      </trkpt>
      <trkpt lat="45.86489" lon="6.76919">
        <ele>1431</ele>
        <time>2026-08-14T12:15:09.540Z</time>
      </trkpt>
      <trkpt lat="45.86491" lon="6.76919">
        <ele>1431</ele>
        <time>2026-08-14T12:15:10.540Z</time>
      </trkpt>
      <trkpt lat="45.86493" lon="6.76919">
        <ele>1431</ele>
        <time>2026-08-14T12:15:11.540Z</time>
      </trkpt>
      <trkpt lat="45.86495" lon="6.7692">
        <ele>1431</ele>
        <time>2026-08-14T12:15:12.540Z</time>
      </trkpt>
      <trkpt lat="45.86497" lon="6.76921">
        <ele>1431</ele>
        <time>2026-08-14T12:15:13.540Z</time>
      </trkpt>
      <trkpt lat="45.86499" lon="6.76923">
        <ele>1431</ele>
        <time>2026-08-14T12:15:14.540Z</time>
      </trkpt>
      <trkpt lat="45.86501" lon="6.76925">
        <ele>1431</ele>
        <time>2026-08-14T12:15:15.540Z</time>
      </trkpt>
      <trkpt lat="45.86503" lon="6.76927">
        <ele>1431</ele>
        <time>2026-08-14T12:15:16.540Z</time>
      </trkpt>
      <trkpt lat="45.86504" lon="6.76929">
        <ele>1431</ele>
        <time>2026-08-14T12:15:17.540Z</time>
      </trkpt>
      <trkpt lat="45.86506" lon="6.76932">
        <ele>1431</ele>
        <time>2026-08-14T12:15:18.540Z</time>
      </trkpt>
      <trkpt lat="45.86507" lon="6.76935">
        <ele>1431</ele>
        <time>2026-08-14T12:15:19.540Z</time>
      </trkpt>
      <trkpt lat="45.86508" lon="6.76939">
        <ele>1431</ele>
        <time>2026-08-14T12:15:20.540Z</time>
      </trkpt>
      <trkpt lat="45.86509" lon="6.76944">
        <ele>1431</ele>
        <time>2026-08-14T12:15:21.540Z</time>
      </trkpt>
      <trkpt lat="45.86509" lon="6.76948">
        <ele>1430</ele>
        <time>2026-08-14T12:15:22.540Z</time>
      </trkpt>
      <trkpt lat="45.86509" lon="6.76951">
        <ele>1430</ele>
        <time>2026-08-14T12:15:23.540Z</time>
      </trkpt>
      <trkpt lat="45.86508" lon="6.76954">
        <ele>1430</ele>
        <time>2026-08-14T12:15:24.540Z</time>
      </trkpt>
      <trkpt lat="45.86507" lon="6.76958">
        <ele>1429</ele>
        <time>2026-08-14T12:15:25.540Z</time>
      </trkpt>
      <trkpt lat="45.86506" lon="6.76961">
        <ele>1428</ele>
        <time>2026-08-14T12:15:26.540Z</time>
      </trkpt>
      <trkpt lat="45.86506" lon="6.76964">
        <ele>1428</ele>
        <time>2026-08-14T12:15:27.540Z</time>
      </trkpt>
      <trkpt lat="45.86505" lon="6.76966">
        <ele>1427</ele>
        <time>2026-08-14T12:15:28.540Z</time>
      </trkpt>
      <trkpt lat="45.86504" lon="6.76969">
        <ele>1426</ele>
        <time>2026-08-14T12:15:29.540Z</time>
      </trkpt>
      <trkpt lat="45.86503" lon="6.76971">
        <ele>1426</ele>
        <time>2026-08-14T12:15:30.540Z</time>
      </trkpt>
      <trkpt lat="45.86503" lon="6.76974">
        <ele>1425</ele>
        <time>2026-08-14T12:15:31.540Z</time>
      </trkpt>
      <trkpt lat="45.86502" lon="6.76977">
        <ele>1425</ele>
        <time>2026-08-14T12:15:32.540Z</time>
      </trkpt>
      <trkpt lat="45.86502" lon="6.7698">
        <ele>1424</ele>
        <time>2026-08-14T12:15:33.540Z</time>
      </trkpt>
      <trkpt lat="45.86502" lon="6.76981">
        <ele>1424</ele>
        <time>2026-08-14T12:15:34.540Z</time>
      </trkpt>
      <trkpt lat="45.86502" lon="6.76983">
        <ele>1424</ele>
        <time>2026-08-14T12:15:35.540Z</time>
      </trkpt>
      <trkpt lat="45.86502" lon="6.76986">
        <ele>1424</ele>
        <time>2026-08-14T12:15:36.540Z</time>
      </trkpt>
      <trkpt lat="45.86502" lon="6.76988">
        <ele>1424</ele>
        <time>2026-08-14T12:15:37.540Z</time>
      </trkpt>
      <trkpt lat="45.86501" lon="6.7699">
        <ele>1424</ele>
        <time>2026-08-14T12:15:38.540Z</time>
      </trkpt>
      <trkpt lat="45.865" lon="6.76993">
        <ele>1424</ele>
        <time>2026-08-14T12:15:39.540Z</time>
      </trkpt>
      <trkpt lat="45.865" lon="6.76995">
        <ele>1424</ele>
        <time>2026-08-14T12:15:40.540Z</time>
      </trkpt>
      <trkpt lat="45.86499" lon="6.76998">
        <ele>1424</ele>
        <time>2026-08-14T12:15:41.540Z</time>
      </trkpt>
      <trkpt lat="45.86499" lon="6.77">
        <ele>1424</ele>
        <time>2026-08-14T12:15:42.540Z</time>
      </trkpt>
      <trkpt lat="45.86499" lon="6.77003">
        <ele>1424</ele>
        <time>2026-08-14T12:15:43.540Z</time>
      </trkpt>
      <trkpt lat="45.86499" lon="6.77005">
        <ele>1424</ele>
        <time>2026-08-14T12:15:44.540Z</time>
      </trkpt>
      <trkpt lat="45.86499" lon="6.77008">
        <ele>1424</ele>
        <time>2026-08-14T12:15:45.540Z</time>
      </trkpt>
      <trkpt lat="45.86498" lon="6.7701">
        <ele>1424</ele>
        <time>2026-08-14T12:15:46.540Z</time>
      </trkpt>
      <trkpt lat="45.86498" lon="6.77013">
        <ele>1424</ele>
        <time>2026-08-14T12:15:47.540Z</time>
      </trkpt>
      <trkpt lat="45.86498" lon="6.77016">
        <ele>1424</ele>
        <time>2026-08-14T12:15:48.540Z</time>
      </trkpt>
      <trkpt lat="45.86498" lon="6.77018">
        <ele>1424</ele>
        <time>2026-08-14T12:15:49.540Z</time>
      </trkpt>
      <trkpt lat="45.86498" lon="6.7702">
        <ele>1424</ele>
        <time>2026-08-14T12:15:50.540Z</time>
      </trkpt>
      <trkpt lat="45.86498" lon="6.77022">
        <ele>1424</ele>
        <time>2026-08-14T12:15:51.540Z</time>
      </trkpt>
      <trkpt lat="45.86499" lon="6.77024">
        <ele>1425</ele>
        <time>2026-08-14T12:15:52.540Z</time>
      </trkpt>
      <trkpt lat="45.86499" lon="6.77026">
        <ele>1425</ele>
        <time>2026-08-14T12:15:53.540Z</time>
      </trkpt>
      <trkpt lat="45.865" lon="6.77028">
        <ele>1425</ele>
        <time>2026-08-14T12:15:54.540Z</time>
      </trkpt>
      <trkpt lat="45.865" lon="6.77029">
        <ele>1425</ele>
        <time>2026-08-14T12:15:55.540Z</time>
      </trkpt>
      <trkpt lat="45.86501" lon="6.7703">
        <ele>1425</ele>
        <time>2026-08-14T12:15:56.540Z</time>
      </trkpt>
      <trkpt lat="45.86502" lon="6.77031">
        <ele>1425</ele>
        <time>2026-08-14T12:15:57.540Z</time>
      </trkpt>
      <trkpt lat="45.86504" lon="6.77031">
        <ele>1425</ele>
        <time>2026-08-14T12:15:58.540Z</time>
      </trkpt>
      <trkpt lat="45.86506" lon="6.77033">
        <ele>1425</ele>
        <time>2026-08-14T12:15:59.540Z</time>
      </trkpt>
      <trkpt lat="45.86507" lon="6.77034">
        <ele>1424</ele>
        <time>2026-08-14T12:16:00.540Z</time>
      </trkpt>
      <trkpt lat="45.86508" lon="6.77036">
        <ele>1423</ele>
        <time>2026-08-14T12:16:01.540Z</time>
      </trkpt>
      <trkpt lat="45.86509" lon="6.77038">
        <ele>1423</ele>
        <time>2026-08-14T12:16:02.540Z</time>
      </trkpt>
      <trkpt lat="45.8651" lon="6.77039">
        <ele>1422</ele>
        <time>2026-08-14T12:16:03.540Z</time>
      </trkpt>
      <trkpt lat="45.86512" lon="6.7704">
        <ele>1421</ele>
        <time>2026-08-14T12:16:04.540Z</time>
      </trkpt>
      <trkpt lat="45.86514" lon="6.77041">
        <ele>1421</ele>
        <time>2026-08-14T12:16:05.540Z</time>
      </trkpt>
      <trkpt lat="45.86516" lon="6.77041">
        <ele>1421</ele>
        <time>2026-08-14T12:16:06.540Z</time>
      </trkpt>
      <trkpt lat="45.86517" lon="6.77041">
        <ele>1421</ele>
        <time>2026-08-14T12:16:07.540Z</time>
      </trkpt>
      <trkpt lat="45.86519" lon="6.77039">
        <ele>1420</ele>
        <time>2026-08-14T12:16:08.540Z</time>
      </trkpt>
      <trkpt lat="45.8652" lon="6.77038">
        <ele>1420</ele>
        <time>2026-08-14T12:16:09.540Z</time>
      </trkpt>
      <trkpt lat="45.86521" lon="6.77036">
        <ele>1420</ele>
        <time>2026-08-14T12:16:10.540Z</time>
      </trkpt>
      <trkpt lat="45.86522" lon="6.77034">
        <ele>1420</ele>
        <time>2026-08-14T12:16:11.540Z</time>
      </trkpt>
      <trkpt lat="45.86524" lon="6.77033">
        <ele>1420</ele>
        <time>2026-08-14T12:16:12.540Z</time>
      </trkpt>
      <trkpt lat="45.86525" lon="6.77032">
        <ele>1420</ele>
        <time>2026-08-14T12:16:13.540Z</time>
      </trkpt>
      <trkpt lat="45.86527" lon="6.77031">
        <ele>1420</ele>
        <time>2026-08-14T12:16:14.540Z</time>
      </trkpt>
      <trkpt lat="45.86528" lon="6.7703">
        <ele>1420</ele>
        <time>2026-08-14T12:16:15.540Z</time>
      </trkpt>
      <trkpt lat="45.86529" lon="6.77029">
        <ele>1420</ele>
        <time>2026-08-14T12:16:16.540Z</time>
      </trkpt>
      <trkpt lat="45.8653" lon="6.77028">
        <ele>1420</ele>
        <time>2026-08-14T12:16:17.540Z</time>
      </trkpt>
      <trkpt lat="45.86531" lon="6.77027">
        <ele>1420</ele>
        <time>2026-08-14T12:16:18.540Z</time>
      </trkpt>
      <trkpt lat="45.86533" lon="6.77026">
        <ele>1420</ele>
        <time>2026-08-14T12:16:19.540Z</time>
      </trkpt>
      <trkpt lat="45.86534" lon="6.77025">
        <ele>1420</ele>
        <time>2026-08-14T12:16:20.540Z</time>
      </trkpt>
      <trkpt lat="45.86536" lon="6.77025">
        <ele>1420</ele>
        <time>2026-08-14T12:16:21.540Z</time>
      </trkpt>
      <trkpt lat="45.86538" lon="6.77025">
        <ele>1420</ele>
        <time>2026-08-14T12:16:22.540Z</time>
      </trkpt>
      <trkpt lat="45.8654" lon="6.77025">
        <ele>1420</ele>
        <time>2026-08-14T12:16:23.540Z</time>
      </trkpt>
      <trkpt lat="45.86542" lon="6.77025">
        <ele>1420</ele>
        <time>2026-08-14T12:16:24.540Z</time>
      </trkpt>
      <trkpt lat="45.86544" lon="6.77025">
        <ele>1419</ele>
        <time>2026-08-14T12:16:25.540Z</time>
      </trkpt>
      <trkpt lat="45.86545" lon="6.77024">
        <ele>1419</ele>
        <time>2026-08-14T12:16:26.540Z</time>
      </trkpt>
      <trkpt lat="45.86547" lon="6.77023">
        <ele>1419</ele>
        <time>2026-08-14T12:16:27.540Z</time>
      </trkpt>
      <trkpt lat="45.86548" lon="6.77023">
        <ele>1419</ele>
        <time>2026-08-14T12:16:28.540Z</time>
      </trkpt>
      <trkpt lat="45.8655" lon="6.77022">
        <ele>1419</ele>
        <time>2026-08-14T12:16:29.540Z</time>
      </trkpt>
      <trkpt lat="45.86551" lon="6.77021">
        <ele>1419</ele>
        <time>2026-08-14T12:16:30.540Z</time>
      </trkpt>
      <trkpt lat="45.86553" lon="6.77021">
        <ele>1418</ele>
        <time>2026-08-14T12:16:31.540Z</time>
      </trkpt>
      <trkpt lat="45.86554" lon="6.7702">
        <ele>1419</ele>
        <time>2026-08-14T12:16:32.540Z</time>
      </trkpt>
      <trkpt lat="45.86555" lon="6.7702">
        <ele>1419</ele>
        <time>2026-08-14T12:16:33.540Z</time>
      </trkpt>
      <trkpt lat="45.86557" lon="6.77019">
        <ele>1418</ele>
        <time>2026-08-14T12:16:34.540Z</time>
      </trkpt>
      <trkpt lat="45.86558" lon="6.77019">
        <ele>1418</ele>
        <time>2026-08-14T12:16:35.540Z</time>
      </trkpt>
      <trkpt lat="45.86559" lon="6.77018">
        <ele>1418</ele>
        <time>2026-08-14T12:16:36.540Z</time>
      </trkpt>
      <trkpt lat="45.8656" lon="6.77017">
        <ele>1418</ele>
        <time>2026-08-14T12:16:37.540Z</time>
      </trkpt>
      <trkpt lat="45.86561" lon="6.77015">
        <ele>1418</ele>
        <time>2026-08-14T12:16:38.540Z</time>
      </trkpt>
      <trkpt lat="45.86562" lon="6.77014">
        <ele>1418</ele>
        <time>2026-08-14T12:16:39.540Z</time>
      </trkpt>
      <trkpt lat="45.86563" lon="6.77013">
        <ele>1418</ele>
        <time>2026-08-14T12:16:40.540Z</time>
      </trkpt>
      <trkpt lat="45.86565" lon="6.77011">
        <ele>1418</ele>
        <time>2026-08-14T12:16:41.540Z</time>
      </trkpt>
      <trkpt lat="45.86566" lon="6.7701">
        <ele>1418</ele>
        <time>2026-08-14T12:16:42.540Z</time>
      </trkpt>
      <trkpt lat="45.86567" lon="6.77008">
        <ele>1418</ele>
        <time>2026-08-14T12:16:43.540Z</time>
      </trkpt>
      <trkpt lat="45.86568" lon="6.77007">
        <ele>1418</ele>
        <time>2026-08-14T12:16:44.540Z</time>
      </trkpt>
      <trkpt lat="45.8657" lon="6.77005">
        <ele>1418</ele>
        <time>2026-08-14T12:16:45.540Z</time>
      </trkpt>
      <trkpt lat="45.86571" lon="6.77004">
        <ele>1418</ele>
        <time>2026-08-14T12:16:46.540Z</time>
      </trkpt>
      <trkpt lat="45.86573" lon="6.77003">
        <ele>1418</ele>
        <time>2026-08-14T12:16:47.540Z</time>
      </trkpt>
      <trkpt lat="45.86574" lon="6.77003">
        <ele>1418</ele>
        <time>2026-08-14T12:16:48.540Z</time>
      </trkpt>
      <trkpt lat="45.86575" lon="6.77002">
        <ele>1418</ele>
        <time>2026-08-14T12:16:49.540Z</time>
      </trkpt>
      <trkpt lat="45.86576" lon="6.77001">
        <ele>1417</ele>
        <time>2026-08-14T12:16:50.540Z</time>
      </trkpt>
      <trkpt lat="45.86577" lon="6.77">
        <ele>1417</ele>
        <time>2026-08-14T12:16:51.540Z</time>
      </trkpt>
      <trkpt lat="45.86578" lon="6.76999">
        <ele>1417</ele>
        <time>2026-08-14T12:16:52.540Z</time>
      </trkpt>
      <trkpt lat="45.86579" lon="6.76998">
        <ele>1417</ele>
        <time>2026-08-14T12:16:53.540Z</time>
      </trkpt>
      <trkpt lat="45.8658" lon="6.76997">
        <ele>1417</ele>
        <time>2026-08-14T12:16:54.540Z</time>
      </trkpt>
      <trkpt lat="45.86581" lon="6.76995">
        <ele>1416</ele>
        <time>2026-08-14T12:16:55.540Z</time>
      </trkpt>
      <trkpt lat="45.86582" lon="6.76994">
        <ele>1416</ele>
        <time>2026-08-14T12:16:56.540Z</time>
      </trkpt>
      <trkpt lat="45.86583" lon="6.76993">
        <ele>1416</ele>
        <time>2026-08-14T12:16:57.540Z</time>
      </trkpt>
      <trkpt lat="45.86584" lon="6.76991">
        <ele>1415</ele>
        <time>2026-08-14T12:16:58.540Z</time>
      </trkpt>
      <trkpt lat="45.86585" lon="6.7699">
        <ele>1416</ele>
        <time>2026-08-14T12:16:59.540Z</time>
      </trkpt>
      <trkpt lat="45.86586" lon="6.76989">
        <ele>1416</ele>
        <time>2026-08-14T12:17:00.540Z</time>
      </trkpt>
      <trkpt lat="45.86587" lon="6.76987">
        <ele>1416</ele>
        <time>2026-08-14T12:17:01.540Z</time>
      </trkpt>
      <trkpt lat="45.86587" lon="6.76986">
        <ele>1416</ele>
        <time>2026-08-14T12:17:02.540Z</time>
      </trkpt>
      <trkpt lat="45.86587" lon="6.76985">
        <ele>1416</ele>
        <time>2026-08-14T12:17:03.540Z</time>
      </trkpt>
      <trkpt lat="45.86588" lon="6.76983">
        <ele>1416</ele>
        <time>2026-08-14T12:17:04.540Z</time>
      </trkpt>
      <trkpt lat="45.86588" lon="6.76982">
        <ele>1416</ele>
        <time>2026-08-14T12:17:05.540Z</time>
      </trkpt>
      <trkpt lat="45.86589" lon="6.7698">
        <ele>1416</ele>
        <time>2026-08-14T12:17:06.540Z</time>
      </trkpt>
      <trkpt lat="45.86589" lon="6.76978">
        <ele>1416</ele>
        <time>2026-08-14T12:17:07.540Z</time>
      </trkpt>
      <trkpt lat="45.86589" lon="6.76977">
        <ele>1416</ele>
        <time>2026-08-14T12:17:08.540Z</time>
      </trkpt>
      <trkpt lat="45.86589" lon="6.76975">
        <ele>1417</ele>
        <time>2026-08-14T12:17:09.540Z</time>
      </trkpt>
      <trkpt lat="45.86589" lon="6.76972">
        <ele>1417</ele>
        <time>2026-08-14T12:17:10.540Z</time>
      </trkpt>
      <trkpt lat="45.86589" lon="6.76971">
        <ele>1417</ele>
        <time>2026-08-14T12:17:11.540Z</time>
      </trkpt>
      <trkpt lat="45.8659" lon="6.76969">
        <ele>1418</ele>
        <time>2026-08-14T12:17:12.540Z</time>
      </trkpt>
      <trkpt lat="45.8659" lon="6.76967">
        <ele>1418</ele>
        <time>2026-08-14T12:17:13.540Z</time>
      </trkpt>
      <trkpt lat="45.8659" lon="6.76964">
        <ele>1418</ele>
        <time>2026-08-14T12:17:14.540Z</time>
      </trkpt>
      <trkpt lat="45.86591" lon="6.76963">
        <ele>1418</ele>
        <time>2026-08-14T12:17:15.540Z</time>
      </trkpt>
      <trkpt lat="45.86591" lon="6.76961">
        <ele>1418</ele>
        <time>2026-08-14T12:17:16.540Z</time>
      </trkpt>
      <trkpt lat="45.86591" lon="6.7696">
        <ele>1418</ele>
        <time>2026-08-14T12:17:17.540Z</time>
      </trkpt>
      <trkpt lat="45.86591" lon="6.76958">
        <ele>1418</ele>
        <time>2026-08-14T12:17:18.540Z</time>
      </trkpt>
      <trkpt lat="45.86591" lon="6.76956">
        <ele>1418</ele>
        <time>2026-08-14T12:17:19.540Z</time>
      </trkpt>
      <trkpt lat="45.86592" lon="6.76954">
        <ele>1418</ele>
        <time>2026-08-14T12:17:20.540Z</time>
      </trkpt>
      <trkpt lat="45.86592" lon="6.76952">
        <ele>1418</ele>
        <time>2026-08-14T12:17:21.540Z</time>
      </trkpt>
      <trkpt lat="45.86593" lon="6.76951">
        <ele>1418</ele>
        <time>2026-08-14T12:17:22.540Z</time>
      </trkpt>
      <trkpt lat="45.86594" lon="6.76949">
        <ele>1418</ele>
        <time>2026-08-14T12:17:23.540Z</time>
      </trkpt>
      <trkpt lat="45.86594" lon="6.76948">
        <ele>1418</ele>
        <time>2026-08-14T12:17:24.540Z</time>
      </trkpt>
      <trkpt lat="45.86595" lon="6.76946">
        <ele>1418</ele>
        <time>2026-08-14T12:17:25.540Z</time>
      </trkpt>
      <trkpt lat="45.86595" lon="6.76945">
        <ele>1418</ele>
        <time>2026-08-14T12:17:26.540Z</time>
      </trkpt>
      <trkpt lat="45.86596" lon="6.76943">
        <ele>1418</ele>
        <time>2026-08-14T12:17:27.540Z</time>
      </trkpt>
      <trkpt lat="45.86596" lon="6.76941">
        <ele>1419</ele>
        <time>2026-08-14T12:17:28.540Z</time>
      </trkpt>
      <trkpt lat="45.86597" lon="6.7694">
        <ele>1419</ele>
        <time>2026-08-14T12:17:29.540Z</time>
      </trkpt>
      <trkpt lat="45.86598" lon="6.76939">
        <ele>1420</ele>
        <time>2026-08-14T12:17:30.540Z</time>
      </trkpt>
      <trkpt lat="45.86598" lon="6.76937">
        <ele>1420</ele>
        <time>2026-08-14T12:17:31.540Z</time>
      </trkpt>
      <trkpt lat="45.86599" lon="6.76936">
        <ele>1420</ele>
        <time>2026-08-14T12:17:32.540Z</time>
      </trkpt>
      <trkpt lat="45.866" lon="6.76935">
        <ele>1421</ele>
        <time>2026-08-14T12:17:33.540Z</time>
      </trkpt>
      <trkpt lat="45.86601" lon="6.76934">
        <ele>1421</ele>
        <time>2026-08-14T12:17:34.540Z</time>
      </trkpt>
      <trkpt lat="45.86601" lon="6.76934">
        <ele>1422</ele>
        <time>2026-08-14T12:17:35.540Z</time>
      </trkpt>
      <trkpt lat="45.86602" lon="6.76934">
        <ele>1423</ele>
        <time>2026-08-14T12:17:36.540Z</time>
      </trkpt>
      <trkpt lat="45.86602" lon="6.76934">
        <ele>1423</ele>
        <time>2026-08-14T12:17:37.540Z</time>
      </trkpt>
      <trkpt lat="45.86603" lon="6.76935">
        <ele>1424</ele>
        <time>2026-08-14T12:17:38.540Z</time>
      </trkpt>
      <trkpt lat="45.86602" lon="6.76936">
        <ele>1424</ele>
        <time>2026-08-14T12:17:39.540Z</time>
      </trkpt>
      <trkpt lat="45.86601" lon="6.76937">
        <ele>1424</ele>
        <time>2026-08-14T12:17:40.540Z</time>
      </trkpt>
      <trkpt lat="45.86601" lon="6.76937">
        <ele>1425</ele>
        <time>2026-08-14T12:17:41.540Z</time>
      </trkpt>
      <trkpt lat="45.86601" lon="6.76937">
        <ele>1425</ele>
        <time>2026-08-14T12:17:42.540Z</time>
      </trkpt>
      <trkpt lat="45.86601" lon="6.76936">
        <ele>1425</ele>
        <time>2026-08-14T12:17:43.540Z</time>
      </trkpt>
      <trkpt lat="45.86601" lon="6.76937">
        <ele>1425</ele>
        <time>2026-08-14T12:17:44.540Z</time>
      </trkpt>
      <trkpt lat="45.86601" lon="6.76939">
        <ele>1425</ele>
        <time>2026-08-14T12:17:45.540Z</time>
      </trkpt>
      <trkpt lat="45.86601" lon="6.7694">
        <ele>1425</ele>
        <time>2026-08-14T12:17:46.540Z</time>
      </trkpt>
      <trkpt lat="45.86601" lon="6.76942">
        <ele>1425</ele>
        <time>2026-08-14T12:17:47.540Z</time>
      </trkpt>
      <trkpt lat="45.86601" lon="6.76944">
        <ele>1425</ele>
        <time>2026-08-14T12:17:48.540Z</time>
      </trkpt>
      <trkpt lat="45.86602" lon="6.76946">
        <ele>1425</ele>
        <time>2026-08-14T12:17:49.540Z</time>
      </trkpt>
      <trkpt lat="45.86602" lon="6.76948">
        <ele>1425</ele>
        <time>2026-08-14T12:17:50.540Z</time>
      </trkpt>
      <trkpt lat="45.86602" lon="6.76951">
        <ele>1426</ele>
        <time>2026-08-14T12:17:51.540Z</time>
      </trkpt>
      <trkpt lat="45.86602" lon="6.76953">
        <ele>1426</ele>
        <time>2026-08-14T12:17:52.540Z</time>
      </trkpt>
      <trkpt lat="45.86603" lon="6.76955">
        <ele>1426</ele>
        <time>2026-08-14T12:17:53.540Z</time>
      </trkpt>
      <trkpt lat="45.86604" lon="6.76958">
        <ele>1426</ele>
        <time>2026-08-14T12:17:54.540Z</time>
      </trkpt>
      <trkpt lat="45.86604" lon="6.7696">
        <ele>1427</ele>
        <time>2026-08-14T12:17:55.540Z</time>
      </trkpt>
      <trkpt lat="45.86604" lon="6.76962">
        <ele>1427</ele>
        <time>2026-08-14T12:17:56.540Z</time>
      </trkpt>
      <trkpt lat="45.86605" lon="6.76963">
        <ele>1427</ele>
        <time>2026-08-14T12:17:57.540Z</time>
      </trkpt>
      <trkpt lat="45.86605" lon="6.76964">
        <ele>1428</ele>
        <time>2026-08-14T12:17:58.540Z</time>
      </trkpt>
      <trkpt lat="45.86605" lon="6.76966">
        <ele>1428</ele>
        <time>2026-08-14T12:17:59.540Z</time>
      </trkpt>
      <trkpt lat="45.86606" lon="6.76967">
        <ele>1429</ele>
        <time>2026-08-14T12:18:00.540Z</time>
      </trkpt>
      <trkpt lat="45.86607" lon="6.76969">
        <ele>1429</ele>
        <time>2026-08-14T12:18:01.540Z</time>
      </trkpt>
      <trkpt lat="45.86607" lon="6.7697">
        <ele>1430</ele>
        <time>2026-08-14T12:18:02.540Z</time>
      </trkpt>
      <trkpt lat="45.86606" lon="6.76972">
        <ele>1430</ele>
        <time>2026-08-14T12:18:03.540Z</time>
      </trkpt>
      <trkpt lat="45.86606" lon="6.76973">
        <ele>1430</ele>
        <time>2026-08-14T12:18:04.540Z</time>
      </trkpt>
      <trkpt lat="45.86606" lon="6.76974">
        <ele>1430</ele>
        <time>2026-08-14T12:18:05.540Z</time>
      </trkpt>
      <trkpt lat="45.86606" lon="6.76975">
        <ele>1430</ele>
        <time>2026-08-14T12:18:06.540Z</time>
      </trkpt>
      <trkpt lat="45.86605" lon="6.76976">
        <ele>1430</ele>
        <time>2026-08-14T12:18:07.540Z</time>
      </trkpt>
      <trkpt lat="45.86605" lon="6.76978">
        <ele>1430</ele>
        <time>2026-08-14T12:18:08.540Z</time>
      </trkpt>
      <trkpt lat="45.86604" lon="6.76979">
        <ele>1430</ele>
        <time>2026-08-14T12:18:09.540Z</time>
      </trkpt>
      <trkpt lat="45.86604" lon="6.76981">
        <ele>1430</ele>
        <time>2026-08-14T12:18:10.540Z</time>
      </trkpt>
      <trkpt lat="45.86603" lon="6.76983">
        <ele>1430</ele>
        <time>2026-08-14T12:18:11.540Z</time>
      </trkpt>
      <trkpt lat="45.86603" lon="6.76984">
        <ele>1430</ele>
        <time>2026-08-14T12:18:12.540Z</time>
      </trkpt>
      <trkpt lat="45.86603" lon="6.76986">
        <ele>1430</ele>
        <time>2026-08-14T12:18:13.540Z</time>
      </trkpt>
      <trkpt lat="45.86603" lon="6.76987">
        <ele>1430</ele>
        <time>2026-08-14T12:18:14.540Z</time>
      </trkpt>
      <trkpt lat="45.86604" lon="6.76989">
        <ele>1430</ele>
        <time>2026-08-14T12:18:15.540Z</time>
      </trkpt>
      <trkpt lat="45.86605" lon="6.76991">
        <ele>1430</ele>
        <time>2026-08-14T12:18:16.540Z</time>
      </trkpt>
      <trkpt lat="45.86606" lon="6.76993">
        <ele>1430</ele>
        <time>2026-08-14T12:18:17.540Z</time>
      </trkpt>
      <trkpt lat="45.86606" lon="6.76995">
        <ele>1430</ele>
        <time>2026-08-14T12:18:18.540Z</time>
      </trkpt>
      <trkpt lat="45.86606" lon="6.76997">
        <ele>1431</ele>
        <time>2026-08-14T12:18:19.540Z</time>
      </trkpt>
      <trkpt lat="45.86606" lon="6.76999">
        <ele>1431</ele>
        <time>2026-08-14T12:18:20.540Z</time>
      </trkpt>
      <trkpt lat="45.86606" lon="6.77001">
        <ele>1431</ele>
        <time>2026-08-14T12:18:21.540Z</time>
      </trkpt>
      <trkpt lat="45.86606" lon="6.77002">
        <ele>1432</ele>
        <time>2026-08-14T12:18:22.540Z</time>
      </trkpt>
      <trkpt lat="45.86607" lon="6.77004">
        <ele>1432</ele>
        <time>2026-08-14T12:18:23.540Z</time>
      </trkpt>
      <trkpt lat="45.86607" lon="6.77005">
        <ele>1433</ele>
        <time>2026-08-14T12:18:24.540Z</time>
      </trkpt>
      <trkpt lat="45.86607" lon="6.77007">
        <ele>1434</ele>
        <time>2026-08-14T12:18:25.540Z</time>
      </trkpt>
      <trkpt lat="45.86607" lon="6.77008">
        <ele>1434</ele>
        <time>2026-08-14T12:18:26.540Z</time>
      </trkpt>
      <trkpt lat="45.86607" lon="6.77009">
        <ele>1435</ele>
        <time>2026-08-14T12:18:27.540Z</time>
      </trkpt>
      <trkpt lat="45.86608" lon="6.7701">
        <ele>1435</ele>
        <time>2026-08-14T12:18:28.540Z</time>
      </trkpt>
      <trkpt lat="45.86609" lon="6.77012">
        <ele>1435</ele>
        <time>2026-08-14T12:18:29.540Z</time>
      </trkpt>
      <trkpt lat="45.8661" lon="6.77013">
        <ele>1436</ele>
        <time>2026-08-14T12:18:30.540Z</time>
      </trkpt>
      <trkpt lat="45.86611" lon="6.77013">
        <ele>1436</ele>
        <time>2026-08-14T12:18:31.540Z</time>
      </trkpt>
      <trkpt lat="45.86612" lon="6.77014">
        <ele>1437</ele>
        <time>2026-08-14T12:18:32.540Z</time>
      </trkpt>
      <trkpt lat="45.86613" lon="6.77014">
        <ele>1437</ele>
        <time>2026-08-14T12:18:33.540Z</time>
      </trkpt>
      <trkpt lat="45.86613" lon="6.77015">
        <ele>1438</ele>
        <time>2026-08-14T12:18:34.540Z</time>
      </trkpt>
      <trkpt lat="45.86614" lon="6.77015">
        <ele>1438</ele>
        <time>2026-08-14T12:18:35.540Z</time>
      </trkpt>
      <trkpt lat="45.86615" lon="6.77016">
        <ele>1439</ele>
        <time>2026-08-14T12:18:36.540Z</time>
      </trkpt>
      <trkpt lat="45.86616" lon="6.77018">
        <ele>1440</ele>
        <time>2026-08-14T12:18:37.540Z</time>
      </trkpt>
      <trkpt lat="45.86617" lon="6.77019">
        <ele>1440</ele>
        <time>2026-08-14T12:18:38.540Z</time>
      </trkpt>
      <trkpt lat="45.86617" lon="6.7702">
        <ele>1441</ele>
        <time>2026-08-14T12:18:39.540Z</time>
      </trkpt>
      <trkpt lat="45.86618" lon="6.77021">
        <ele>1441</ele>
        <time>2026-08-14T12:18:40.540Z</time>
      </trkpt>
      <trkpt lat="45.86618" lon="6.77022">
        <ele>1442</ele>
        <time>2026-08-14T12:18:41.540Z</time>
      </trkpt>
      <trkpt lat="45.86618" lon="6.77023">
        <ele>1442</ele>
        <time>2026-08-14T12:18:42.540Z</time>
      </trkpt>
      <trkpt lat="45.86619" lon="6.77025">
        <ele>1443</ele>
        <time>2026-08-14T12:18:43.540Z</time>
      </trkpt>
      <trkpt lat="45.86619" lon="6.77026">
        <ele>1443</ele>
        <time>2026-08-14T12:18:44.540Z</time>
      </trkpt>
      <trkpt lat="45.8662" lon="6.77027">
        <ele>1443</ele>
        <time>2026-08-14T12:18:45.540Z</time>
      </trkpt>
      <trkpt lat="45.86621" lon="6.77029">
        <ele>1444</ele>
        <time>2026-08-14T12:18:46.540Z</time>
      </trkpt>
      <trkpt lat="45.86622" lon="6.7703">
        <ele>1444</ele>
        <time>2026-08-14T12:18:47.540Z</time>
      </trkpt>
      <trkpt lat="45.86622" lon="6.77032">
        <ele>1444</ele>
        <time>2026-08-14T12:18:48.540Z</time>
      </trkpt>
      <trkpt lat="45.86622" lon="6.77033">
        <ele>1444</ele>
        <time>2026-08-14T12:18:49.540Z</time>
      </trkpt>
      <trkpt lat="45.86623" lon="6.77034">
        <ele>1444</ele>
        <time>2026-08-14T12:18:50.540Z</time>
      </trkpt>
      <trkpt lat="45.86623" lon="6.77036">
        <ele>1445</ele>
        <time>2026-08-14T12:18:51.540Z</time>
      </trkpt>
      <trkpt lat="45.86624" lon="6.77037">
        <ele>1445</ele>
        <time>2026-08-14T12:18:52.540Z</time>
      </trkpt>
      <trkpt lat="45.86624" lon="6.77038">
        <ele>1446</ele>
        <time>2026-08-14T12:18:53.540Z</time>
      </trkpt>
      <trkpt lat="45.86625" lon="6.77039">
        <ele>1446</ele>
        <time>2026-08-14T12:18:54.540Z</time>
      </trkpt>
      <trkpt lat="45.86625" lon="6.7704">
        <ele>1446</ele>
        <time>2026-08-14T12:18:55.540Z</time>
      </trkpt>
      <trkpt lat="45.86626" lon="6.77041">
        <ele>1447</ele>
        <time>2026-08-14T12:18:56.540Z</time>
      </trkpt>
      <trkpt lat="45.86626" lon="6.77043">
        <ele>1447</ele>
        <time>2026-08-14T12:18:57.540Z</time>
      </trkpt>
      <trkpt lat="45.86626" lon="6.77043">
        <ele>1448</ele>
        <time>2026-08-14T12:18:58.540Z</time>
      </trkpt>
      <trkpt lat="45.86626" lon="6.77044">
        <ele>1448</ele>
        <time>2026-08-14T12:18:59.540Z</time>
      </trkpt>
      <trkpt lat="45.86626" lon="6.77044">
        <ele>1448</ele>
        <time>2026-08-14T12:19:00.540Z</time>
      </trkpt>
      <trkpt lat="45.86626" lon="6.77045">
        <ele>1449</ele>
        <time>2026-08-14T12:19:01.540Z</time>
      </trkpt>
      <trkpt lat="45.86626" lon="6.77046">
        <ele>1449</ele>
        <time>2026-08-14T12:19:02.540Z</time>
      </trkpt>
      <trkpt lat="45.86626" lon="6.77047">
        <ele>1449</ele>
        <time>2026-08-14T12:19:03.540Z</time>
      </trkpt>
      <trkpt lat="45.86627" lon="6.77049">
        <ele>1450</ele>
        <time>2026-08-14T12:19:04.540Z</time>
      </trkpt>
      <trkpt lat="45.86627" lon="6.7705">
        <ele>1450</ele>
        <time>2026-08-14T12:19:05.540Z</time>
      </trkpt>
      <trkpt lat="45.86627" lon="6.7705">
        <ele>1450</ele>
        <time>2026-08-14T12:19:06.540Z</time>
      </trkpt>
      <trkpt lat="45.86627" lon="6.77052">
        <ele>1451</ele>
        <time>2026-08-14T12:19:07.540Z</time>
      </trkpt>
      <trkpt lat="45.86626" lon="6.77053">
        <ele>1451</ele>
        <time>2026-08-14T12:19:08.540Z</time>
      </trkpt>
      <trkpt lat="45.86626" lon="6.77054">
        <ele>1451</ele>
        <time>2026-08-14T12:19:09.540Z</time>
      </trkpt>
      <trkpt lat="45.86626" lon="6.77054">
        <ele>1451</ele>
        <time>2026-08-14T12:19:10.540Z</time>
      </trkpt>
      <trkpt lat="45.86626" lon="6.77056">
        <ele>1451</ele>
        <time>2026-08-14T12:19:11.540Z</time>
      </trkpt>
      <trkpt lat="45.86626" lon="6.77058">
        <ele>1451</ele>
        <time>2026-08-14T12:19:12.540Z</time>
      </trkpt>
      <trkpt lat="45.86627" lon="6.7706">
        <ele>1451</ele>
        <time>2026-08-14T12:19:13.540Z</time>
      </trkpt>
      <trkpt lat="45.86627" lon="6.77062">
        <ele>1452</ele>
        <time>2026-08-14T12:19:14.540Z</time>
      </trkpt>
      <trkpt lat="45.86627" lon="6.77063">
        <ele>1452</ele>
        <time>2026-08-14T12:19:15.540Z</time>
      </trkpt>
      <trkpt lat="45.86627" lon="6.77065">
        <ele>1452</ele>
        <time>2026-08-14T12:19:16.540Z</time>
      </trkpt>
      <trkpt lat="45.86627" lon="6.77067">
        <ele>1452</ele>
        <time>2026-08-14T12:19:17.540Z</time>
      </trkpt>
      <trkpt lat="45.86627" lon="6.77068">
        <ele>1452</ele>
        <time>2026-08-14T12:19:18.540Z</time>
      </trkpt>
      <trkpt lat="45.86627" lon="6.77069">
        <ele>1452</ele>
        <time>2026-08-14T12:19:19.540Z</time>
      </trkpt>
      <trkpt lat="45.86626" lon="6.7707">
        <ele>1452</ele>
        <time>2026-08-14T12:19:20.540Z</time>
      </trkpt>
      <trkpt lat="45.86626" lon="6.77071">
        <ele>1452</ele>
        <time>2026-08-14T12:19:21.540Z</time>
      </trkpt>
      <trkpt lat="45.86626" lon="6.77072">
        <ele>1452</ele>
        <time>2026-08-14T12:19:22.540Z</time>
      </trkpt>
      <trkpt lat="45.86627" lon="6.77074">
        <ele>1453</ele>
        <time>2026-08-14T12:19:23.540Z</time>
      </trkpt>
      <trkpt lat="45.86627" lon="6.77075">
        <ele>1453</ele>
        <time>2026-08-14T12:19:24.540Z</time>
      </trkpt>
      <trkpt lat="45.86628" lon="6.77076">
        <ele>1453</ele>
        <time>2026-08-14T12:19:25.540Z</time>
      </trkpt>
      <trkpt lat="45.86628" lon="6.77078">
        <ele>1454</ele>
        <time>2026-08-14T12:19:26.540Z</time>
      </trkpt>
      <trkpt lat="45.86629" lon="6.77079">
        <ele>1454</ele>
        <time>2026-08-14T12:19:27.540Z</time>
      </trkpt>
      <trkpt lat="45.86629" lon="6.7708">
        <ele>1455</ele>
        <time>2026-08-14T12:19:28.540Z</time>
      </trkpt>
      <trkpt lat="45.86629" lon="6.77082">
        <ele>1455</ele>
        <time>2026-08-14T12:19:29.540Z</time>
      </trkpt>
      <trkpt lat="45.86629" lon="6.77083">
        <ele>1455</ele>
        <time>2026-08-14T12:19:30.540Z</time>
      </trkpt>
      <trkpt lat="45.86629" lon="6.77084">
        <ele>1456</ele>
        <time>2026-08-14T12:19:31.540Z</time>
      </trkpt>
      <trkpt lat="45.86629" lon="6.77085">
        <ele>1456</ele>
        <time>2026-08-14T12:19:32.540Z</time>
      </trkpt>
      <trkpt lat="45.86628" lon="6.77086">
        <ele>1456</ele>
        <time>2026-08-14T12:19:33.540Z</time>
      </trkpt>
      <trkpt lat="45.86628" lon="6.77087">
        <ele>1456</ele>
        <time>2026-08-14T12:19:34.540Z</time>
      </trkpt>
      <trkpt lat="45.86628" lon="6.77088">
        <ele>1456</ele>
        <time>2026-08-14T12:19:35.540Z</time>
      </trkpt>
      <trkpt lat="45.86628" lon="6.7709">
        <ele>1456</ele>
        <time>2026-08-14T12:19:36.540Z</time>
      </trkpt>
      <trkpt lat="45.86628" lon="6.77091">
        <ele>1457</ele>
        <time>2026-08-14T12:19:37.540Z</time>
      </trkpt>
      <trkpt lat="45.86629" lon="6.77093">
        <ele>1457</ele>
        <time>2026-08-14T12:19:38.540Z</time>
      </trkpt>
      <trkpt lat="45.86629" lon="6.77094">
        <ele>1457</ele>
        <time>2026-08-14T12:19:39.540Z</time>
      </trkpt>
      <trkpt lat="45.8663" lon="6.77096">
        <ele>1457</ele>
        <time>2026-08-14T12:19:40.540Z</time>
      </trkpt>
      <trkpt lat="45.86631" lon="6.77097">
        <ele>1457</ele>
        <time>2026-08-14T12:19:41.540Z</time>
      </trkpt>
      <trkpt lat="45.86631" lon="6.77099">
        <ele>1458</ele>
        <time>2026-08-14T12:19:42.540Z</time>
      </trkpt>
      <trkpt lat="45.86631" lon="6.771">
        <ele>1458</ele>
        <time>2026-08-14T12:19:43.540Z</time>
      </trkpt>
      <trkpt lat="45.86631" lon="6.77101">
        <ele>1458</ele>
        <time>2026-08-14T12:19:44.540Z</time>
      </trkpt>
      <trkpt lat="45.86632" lon="6.77102">
        <ele>1459</ele>
        <time>2026-08-14T12:19:45.540Z</time>
      </trkpt>
      <trkpt lat="45.86632" lon="6.77103">
        <ele>1459</ele>
        <time>2026-08-14T12:19:46.540Z</time>
      </trkpt>
      <trkpt lat="45.86632" lon="6.77105">
        <ele>1459</ele>
        <time>2026-08-14T12:19:47.540Z</time>
      </trkpt>
      <trkpt lat="45.86632" lon="6.77106">
        <ele>1459</ele>
        <time>2026-08-14T12:19:48.540Z</time>
      </trkpt>
      <trkpt lat="45.86632" lon="6.77107">
        <ele>1460</ele>
        <time>2026-08-14T12:19:49.540Z</time>
      </trkpt>
      <trkpt lat="45.86632" lon="6.77108">
        <ele>1460</ele>
        <time>2026-08-14T12:19:50.540Z</time>
      </trkpt>
      <trkpt lat="45.86633" lon="6.7711">
        <ele>1461</ele>
        <time>2026-08-14T12:19:51.540Z</time>
      </trkpt>
      <trkpt lat="45.86633" lon="6.77112">
        <ele>1461</ele>
        <time>2026-08-14T12:19:52.540Z</time>
      </trkpt>
      <trkpt lat="45.86633" lon="6.77113">
        <ele>1461</ele>
        <time>2026-08-14T12:19:53.540Z</time>
      </trkpt>
      <trkpt lat="45.86632" lon="6.77115">
        <ele>1462</ele>
        <time>2026-08-14T12:19:54.540Z</time>
      </trkpt>
      <trkpt lat="45.86632" lon="6.77116">
        <ele>1462</ele>
        <time>2026-08-14T12:19:55.540Z</time>
      </trkpt>
      <trkpt lat="45.86632" lon="6.77117">
        <ele>1462</ele>
        <time>2026-08-14T12:19:56.540Z</time>
      </trkpt>
      <trkpt lat="45.86632" lon="6.77118">
        <ele>1461</ele>
        <time>2026-08-14T12:19:57.540Z</time>
      </trkpt>
      <trkpt lat="45.86633" lon="6.77119">
        <ele>1461</ele>
        <time>2026-08-14T12:19:58.540Z</time>
      </trkpt>
      <trkpt lat="45.86634" lon="6.7712">
        <ele>1461</ele>
        <time>2026-08-14T12:19:59.540Z</time>
      </trkpt>
      <trkpt lat="45.86634" lon="6.77122">
        <ele>1461</ele>
        <time>2026-08-14T12:20:00.540Z</time>
      </trkpt>
      <trkpt lat="45.86635" lon="6.77124">
        <ele>1461</ele>
        <time>2026-08-14T12:20:01.540Z</time>
      </trkpt>
      <trkpt lat="45.86636" lon="6.77125">
        <ele>1461</ele>
        <time>2026-08-14T12:20:02.540Z</time>
      </trkpt>
      <trkpt lat="45.86637" lon="6.77127">
        <ele>1461</ele>
        <time>2026-08-14T12:20:03.540Z</time>
      </trkpt>
      <trkpt lat="45.86638" lon="6.77128">
        <ele>1461</ele>
        <time>2026-08-14T12:20:04.540Z</time>
      </trkpt>
      <trkpt lat="45.86638" lon="6.77129">
        <ele>1462</ele>
        <time>2026-08-14T12:20:05.540Z</time>
      </trkpt>
      <trkpt lat="45.86639" lon="6.77131">
        <ele>1462</ele>
        <time>2026-08-14T12:20:06.540Z</time>
      </trkpt>
      <trkpt lat="45.86639" lon="6.77133">
        <ele>1462</ele>
        <time>2026-08-14T12:20:07.540Z</time>
      </trkpt>
      <trkpt lat="45.86639" lon="6.77135">
        <ele>1462</ele>
        <time>2026-08-14T12:20:08.540Z</time>
      </trkpt>
      <trkpt lat="45.86639" lon="6.77135">
        <ele>1462</ele>
        <time>2026-08-14T12:20:09.540Z</time>
      </trkpt>
      <trkpt lat="45.86639" lon="6.77136">
        <ele>1462</ele>
        <time>2026-08-14T12:20:10.540Z</time>
      </trkpt>
      <trkpt lat="45.86639" lon="6.77137">
        <ele>1462</ele>
        <time>2026-08-14T12:20:11.540Z</time>
      </trkpt>
      <trkpt lat="45.86639" lon="6.77138">
        <ele>1462</ele>
        <time>2026-08-14T12:20:12.540Z</time>
      </trkpt>
      <trkpt lat="45.8664" lon="6.77139">
        <ele>1462</ele>
        <time>2026-08-14T12:20:13.540Z</time>
      </trkpt>
      <trkpt lat="45.8664" lon="6.7714">
        <ele>1462</ele>
        <time>2026-08-14T12:20:14.540Z</time>
      </trkpt>
      <trkpt lat="45.86641" lon="6.77141">
        <ele>1462</ele>
        <time>2026-08-14T12:20:15.540Z</time>
      </trkpt>
      <trkpt lat="45.86641" lon="6.77143">
        <ele>1462</ele>
        <time>2026-08-14T12:20:16.540Z</time>
      </trkpt>
      <trkpt lat="45.86641" lon="6.77145">
        <ele>1461</ele>
        <time>2026-08-14T12:20:17.540Z</time>
      </trkpt>
      <trkpt lat="45.86641" lon="6.77147">
        <ele>1461</ele>
        <time>2026-08-14T12:20:18.540Z</time>
      </trkpt>
      <trkpt lat="45.86641" lon="6.77149">
        <ele>1461</ele>
        <time>2026-08-14T12:20:19.540Z</time>
      </trkpt>
      <trkpt lat="45.86642" lon="6.7715">
        <ele>1461</ele>
        <time>2026-08-14T12:20:20.540Z</time>
      </trkpt>
      <trkpt lat="45.86642" lon="6.77152">
        <ele>1461</ele>
        <time>2026-08-14T12:20:21.540Z</time>
      </trkpt>
      <trkpt lat="45.86643" lon="6.77154">
        <ele>1461</ele>
        <time>2026-08-14T12:20:22.540Z</time>
      </trkpt>
      <trkpt lat="45.86643" lon="6.77156">
        <ele>1461</ele>
        <time>2026-08-14T12:20:23.540Z</time>
      </trkpt>
      <trkpt lat="45.86644" lon="6.77157">
        <ele>1461</ele>
        <time>2026-08-14T12:20:24.540Z</time>
      </trkpt>
      <trkpt lat="45.86643" lon="6.77158">
        <ele>1461</ele>
        <time>2026-08-14T12:20:25.540Z</time>
      </trkpt>
      <trkpt lat="45.86643" lon="6.77159">
        <ele>1461</ele>
        <time>2026-08-14T12:20:26.540Z</time>
      </trkpt>
      <trkpt lat="45.86643" lon="6.7716">
        <ele>1461</ele>
        <time>2026-08-14T12:20:27.540Z</time>
      </trkpt>
      <trkpt lat="45.86644" lon="6.77161">
        <ele>1462</ele>
        <time>2026-08-14T12:20:28.540Z</time>
      </trkpt>
      <trkpt lat="45.86644" lon="6.77161">
        <ele>1462</ele>
        <time>2026-08-14T12:20:29.540Z</time>
      </trkpt>
      <trkpt lat="45.86645" lon="6.77162">
        <ele>1462</ele>
        <time>2026-08-14T12:20:30.540Z</time>
      </trkpt>
      <trkpt lat="45.86646" lon="6.77163">
        <ele>1462</ele>
        <time>2026-08-14T12:20:31.540Z</time>
      </trkpt>
      <trkpt lat="45.86647" lon="6.77165">
        <ele>1463</ele>
        <time>2026-08-14T12:20:32.540Z</time>
      </trkpt>
      <trkpt lat="45.86647" lon="6.77166">
        <ele>1463</ele>
        <time>2026-08-14T12:20:33.540Z</time>
      </trkpt>
      <trkpt lat="45.86648" lon="6.77167">
        <ele>1463</ele>
        <time>2026-08-14T12:20:34.540Z</time>
      </trkpt>
      <trkpt lat="45.86649" lon="6.77168">
        <ele>1463</ele>
        <time>2026-08-14T12:20:35.540Z</time>
      </trkpt>
      <trkpt lat="45.8665" lon="6.77169">
        <ele>1464</ele>
        <time>2026-08-14T12:20:36.540Z</time>
      </trkpt>
      <trkpt lat="45.8665" lon="6.7717">
        <ele>1464</ele>
        <time>2026-08-14T12:20:37.540Z</time>
      </trkpt>
      <trkpt lat="45.8665" lon="6.77171">
        <ele>1464</ele>
        <time>2026-08-14T12:20:38.540Z</time>
      </trkpt>
      <trkpt lat="45.86649" lon="6.77173">
        <ele>1464</ele>
        <time>2026-08-14T12:20:39.540Z</time>
      </trkpt>
      <trkpt lat="45.86649" lon="6.77174">
        <ele>1465</ele>
        <time>2026-08-14T12:20:40.540Z</time>
      </trkpt>
      <trkpt lat="45.86649" lon="6.77175">
        <ele>1465</ele>
        <time>2026-08-14T12:20:41.540Z</time>
      </trkpt>
      <trkpt lat="45.86649" lon="6.77177">
        <ele>1465</ele>
        <time>2026-08-14T12:20:42.540Z</time>
      </trkpt>
      <trkpt lat="45.8665" lon="6.77179">
        <ele>1466</ele>
        <time>2026-08-14T12:20:43.540Z</time>
      </trkpt>
      <trkpt lat="45.8665" lon="6.77181">
        <ele>1466</ele>
        <time>2026-08-14T12:20:44.540Z</time>
      </trkpt>
      <trkpt lat="45.86651" lon="6.77182">
        <ele>1466</ele>
        <time>2026-08-14T12:20:45.540Z</time>
      </trkpt>
      <trkpt lat="45.86651" lon="6.77184">
        <ele>1467</ele>
        <time>2026-08-14T12:20:46.540Z</time>
      </trkpt>
      <trkpt lat="45.86651" lon="6.77185">
        <ele>1467</ele>
        <time>2026-08-14T12:20:47.540Z</time>
      </trkpt>
      <trkpt lat="45.86652" lon="6.77186">
        <ele>1468</ele>
        <time>2026-08-14T12:20:48.540Z</time>
      </trkpt>
      <trkpt lat="45.86652" lon="6.77188">
        <ele>1468</ele>
        <time>2026-08-14T12:20:49.540Z</time>
      </trkpt>
      <trkpt lat="45.86653" lon="6.77189">
        <ele>1468</ele>
        <time>2026-08-14T12:20:50.540Z</time>
      </trkpt>
      <trkpt lat="45.86653" lon="6.77191">
        <ele>1468</ele>
        <time>2026-08-14T12:20:51.540Z</time>
      </trkpt>
      <trkpt lat="45.86653" lon="6.77192">
        <ele>1469</ele>
        <time>2026-08-14T12:20:52.540Z</time>
      </trkpt>
      <trkpt lat="45.86653" lon="6.77194">
        <ele>1469</ele>
        <time>2026-08-14T12:20:53.540Z</time>
      </trkpt>
      <trkpt lat="45.86654" lon="6.77196">
        <ele>1469</ele>
        <time>2026-08-14T12:20:54.540Z</time>
      </trkpt>
      <trkpt lat="45.86654" lon="6.77197">
        <ele>1469</ele>
        <time>2026-08-14T12:20:55.540Z</time>
      </trkpt>
      <trkpt lat="45.86655" lon="6.772">
        <ele>1470</ele>
        <time>2026-08-14T12:20:56.540Z</time>
      </trkpt>
      <trkpt lat="45.86655" lon="6.77203">
        <ele>1470</ele>
        <time>2026-08-14T12:20:57.540Z</time>
      </trkpt>
      <trkpt lat="45.86655" lon="6.77207">
        <ele>1471</ele>
        <time>2026-08-14T12:20:58.540Z</time>
      </trkpt>
      <trkpt lat="45.86655" lon="6.77209">
        <ele>1471</ele>
        <time>2026-08-14T12:20:59.540Z</time>
      </trkpt>
      <trkpt lat="45.86656" lon="6.7721">
        <ele>1472</ele>
        <time>2026-08-14T12:21:00.540Z</time>
      </trkpt>
      <trkpt lat="45.86657" lon="6.77212">
        <ele>1472</ele>
        <time>2026-08-14T12:21:01.540Z</time>
      </trkpt>
      <trkpt lat="45.86658" lon="6.77214">
        <ele>1472</ele>
        <time>2026-08-14T12:21:02.540Z</time>
      </trkpt>
      <trkpt lat="45.86658" lon="6.77218">
        <ele>1472</ele>
        <time>2026-08-14T12:21:03.540Z</time>
      </trkpt>
      <trkpt lat="45.86658" lon="6.77221">
        <ele>1473</ele>
        <time>2026-08-14T12:21:04.540Z</time>
      </trkpt>
      <trkpt lat="45.86658" lon="6.77224">
        <ele>1473</ele>
        <time>2026-08-14T12:21:05.540Z</time>
      </trkpt>
      <trkpt lat="45.86659" lon="6.77227">
        <ele>1473</ele>
        <time>2026-08-14T12:21:06.540Z</time>
      </trkpt>
      <trkpt lat="45.86659" lon="6.7723">
        <ele>1473</ele>
        <time>2026-08-14T12:21:07.540Z</time>
      </trkpt>
      <trkpt lat="45.86661" lon="6.77233">
        <ele>1474</ele>
        <time>2026-08-14T12:21:08.540Z</time>
      </trkpt>
      <trkpt lat="45.86661" lon="6.77237">
        <ele>1474</ele>
        <time>2026-08-14T12:21:09.540Z</time>
      </trkpt>
      <trkpt lat="45.86661" lon="6.77241">
        <ele>1474</ele>
        <time>2026-08-14T12:21:10.540Z</time>
      </trkpt>
      <trkpt lat="45.86662" lon="6.77245">
        <ele>1474</ele>
        <time>2026-08-14T12:21:11.540Z</time>
      </trkpt>
      <trkpt lat="45.86663" lon="6.7725">
        <ele>1474</ele>
        <time>2026-08-14T12:21:12.540Z</time>
      </trkpt>
      <trkpt lat="45.86664" lon="6.77254">
        <ele>1474</ele>
        <time>2026-08-14T12:21:13.540Z</time>
      </trkpt>
      <trkpt lat="45.86665" lon="6.77257">
        <ele>1474</ele>
        <time>2026-08-14T12:21:14.540Z</time>
      </trkpt>
      <trkpt lat="45.86666" lon="6.7726">
        <ele>1473</ele>
        <time>2026-08-14T12:21:15.540Z</time>
      </trkpt>
      <trkpt lat="45.86667" lon="6.77265">
        <ele>1473</ele>
        <time>2026-08-14T12:21:16.540Z</time>
      </trkpt>
      <trkpt lat="45.86669" lon="6.77269">
        <ele>1472</ele>
        <time>2026-08-14T12:21:17.540Z</time>
      </trkpt>
      <trkpt lat="45.8667" lon="6.77274">
        <ele>1472</ele>
        <time>2026-08-14T12:21:18.540Z</time>
      </trkpt>
      <trkpt lat="45.86671" lon="6.77278">
        <ele>1471</ele>
        <time>2026-08-14T12:21:19.540Z</time>
      </trkpt>
      <trkpt lat="45.86672" lon="6.77283">
        <ele>1471</ele>
        <time>2026-08-14T12:21:20.540Z</time>
      </trkpt>
      <trkpt lat="45.86672" lon="6.77288">
        <ele>1471</ele>
        <time>2026-08-14T12:21:21.540Z</time>
      </trkpt>
      <trkpt lat="45.86671" lon="6.7729">
        <ele>1470</ele>
        <time>2026-08-14T12:21:22.540Z</time>
      </trkpt>
      <trkpt lat="45.86672" lon="6.77293">
        <ele>1470</ele>
        <time>2026-08-14T12:21:23.540Z</time>
      </trkpt>
      <trkpt lat="45.86672" lon="6.77297">
        <ele>1469</ele>
        <time>2026-08-14T12:21:24.540Z</time>
      </trkpt>
      <trkpt lat="45.86673" lon="6.773">
        <ele>1469</ele>
        <time>2026-08-14T12:21:25.540Z</time>
      </trkpt>
      <trkpt lat="45.86673" lon="6.77304">
        <ele>1469</ele>
        <time>2026-08-14T12:21:26.540Z</time>
      </trkpt>
      <trkpt lat="45.86672" lon="6.77307">
        <ele>1468</ele>
        <time>2026-08-14T12:21:27.540Z</time>
      </trkpt>
      <trkpt lat="45.86671" lon="6.77309">
        <ele>1468</ele>
        <time>2026-08-14T12:21:28.540Z</time>
      </trkpt>
      <trkpt lat="45.8667" lon="6.77309">
        <ele>1468</ele>
        <time>2026-08-14T12:21:29.540Z</time>
      </trkpt>
      <trkpt lat="45.8667" lon="6.77308">
        <ele>1468</ele>
        <time>2026-08-14T12:21:30.540Z</time>
      </trkpt>
      <trkpt lat="45.8667" lon="6.77307">
        <ele>1468</ele>
        <time>2026-08-14T12:21:31.540Z</time>
      </trkpt>
      <trkpt lat="45.8667" lon="6.77307">
        <ele>1468</ele>
        <time>2026-08-14T12:21:32.540Z</time>
      </trkpt>
      <trkpt lat="45.8667" lon="6.77308">
        <ele>1468</ele>
        <time>2026-08-14T12:21:33.540Z</time>
      </trkpt>
      <trkpt lat="45.86669" lon="6.7731">
        <ele>1468</ele>
        <time>2026-08-14T12:21:34.540Z</time>
      </trkpt>
      <trkpt lat="45.8667" lon="6.77311">
        <ele>1468</ele>
        <time>2026-08-14T12:21:35.540Z</time>
      </trkpt>
      <trkpt lat="45.86672" lon="6.77311">
        <ele>1469</ele>
        <time>2026-08-14T12:21:36.540Z</time>
      </trkpt>
      <trkpt lat="45.86674" lon="6.77311">
        <ele>1469</ele>
        <time>2026-08-14T12:21:37.540Z</time>
      </trkpt>
      <trkpt lat="45.86676" lon="6.77312">
        <ele>1469</ele>
        <time>2026-08-14T12:21:38.540Z</time>
      </trkpt>
      <trkpt lat="45.86677" lon="6.77313">
        <ele>1469</ele>
        <time>2026-08-14T12:21:39.540Z</time>
      </trkpt>
      <trkpt lat="45.86677" lon="6.77314">
        <ele>1470</ele>
        <time>2026-08-14T12:21:40.540Z</time>
      </trkpt>
      <trkpt lat="45.86678" lon="6.77315">
        <ele>1470</ele>
        <time>2026-08-14T12:21:41.540Z</time>
      </trkpt>
      <trkpt lat="45.86681" lon="6.77317">
        <ele>1470</ele>
        <time>2026-08-14T12:21:42.540Z</time>
      </trkpt>
      <trkpt lat="45.86681" lon="6.77318">
        <ele>1470</ele>
        <time>2026-08-14T12:21:43.540Z</time>
      </trkpt>
      <trkpt lat="45.8668" lon="6.77319">
        <ele>1470</ele>
        <time>2026-08-14T12:21:44.540Z</time>
      </trkpt>
      <trkpt lat="45.86678" lon="6.77321">
        <ele>1470</ele>
        <time>2026-08-14T12:21:45.540Z</time>
      </trkpt>
      <trkpt lat="45.86678" lon="6.77322">
        <ele>1470</ele>
        <time>2026-08-14T12:21:46.540Z</time>
      </trkpt>
      <trkpt lat="45.86678" lon="6.77324">
        <ele>1470</ele>
        <time>2026-08-14T12:21:47.540Z</time>
      </trkpt>
      <trkpt lat="45.86679" lon="6.77326">
        <ele>1471</ele>
        <time>2026-08-14T12:21:48.540Z</time>
      </trkpt>
      <trkpt lat="45.86681" lon="6.77328">
        <ele>1471</ele>
        <time>2026-08-14T12:21:49.540Z</time>
      </trkpt>
      <trkpt lat="45.86681" lon="6.77328">
        <ele>1471</ele>
        <time>2026-08-14T12:21:50.540Z</time>
      </trkpt>
      <trkpt lat="45.86681" lon="6.77328">
        <ele>1472</ele>
        <time>2026-08-14T12:21:51.540Z</time>
      </trkpt>
      <trkpt lat="45.86681" lon="6.7733">
        <ele>1472</ele>
        <time>2026-08-14T12:21:52.540Z</time>
      </trkpt>
      <trkpt lat="45.86681" lon="6.77331">
        <ele>1472</ele>
        <time>2026-08-14T12:21:53.540Z</time>
      </trkpt>
      <trkpt lat="45.86681" lon="6.77332">
        <ele>1472</ele>
        <time>2026-08-14T12:21:54.540Z</time>
      </trkpt>
      <trkpt lat="45.86681" lon="6.77334">
        <ele>1473</ele>
        <time>2026-08-14T12:21:55.540Z</time>
      </trkpt>
      <trkpt lat="45.86682" lon="6.77335">
        <ele>1472</ele>
        <time>2026-08-14T12:21:56.540Z</time>
      </trkpt>
      <trkpt lat="45.86683" lon="6.77336">
        <ele>1472</ele>
        <time>2026-08-14T12:21:57.540Z</time>
      </trkpt>
      <trkpt lat="45.86684" lon="6.77338">
        <ele>1472</ele>
        <time>2026-08-14T12:21:58.540Z</time>
      </trkpt>
      <trkpt lat="45.86685" lon="6.77339">
        <ele>1472</ele>
        <time>2026-08-14T12:21:59.540Z</time>
      </trkpt>
      <trkpt lat="45.86686" lon="6.77339">
        <ele>1472</ele>
        <time>2026-08-14T12:22:00.540Z</time>
      </trkpt>
      <trkpt lat="45.86687" lon="6.7734">
        <ele>1473</ele>
        <time>2026-08-14T12:22:01.540Z</time>
      </trkpt>
      <trkpt lat="45.86687" lon="6.77341">
        <ele>1473</ele>
        <time>2026-08-14T12:22:02.540Z</time>
      </trkpt>
      <trkpt lat="45.86687" lon="6.77342">
        <ele>1474</ele>
        <time>2026-08-14T12:22:03.540Z</time>
      </trkpt>
      <trkpt lat="45.86688" lon="6.77342">
        <ele>1474</ele>
        <time>2026-08-14T12:22:04.540Z</time>
      </trkpt>
      <trkpt lat="45.86688" lon="6.77342">
        <ele>1474</ele>
        <time>2026-08-14T12:22:05.540Z</time>
      </trkpt>
      <trkpt lat="45.86689" lon="6.77342">
        <ele>1474</ele>
        <time>2026-08-14T12:22:06.540Z</time>
      </trkpt>
      <trkpt lat="45.86689" lon="6.77342">
        <ele>1475</ele>
        <time>2026-08-14T12:22:07.540Z</time>
      </trkpt>
      <trkpt lat="45.86689" lon="6.77344">
        <ele>1475</ele>
        <time>2026-08-14T12:22:08.540Z</time>
      </trkpt>
      <trkpt lat="45.86689" lon="6.77346">
        <ele>1475</ele>
        <time>2026-08-14T12:22:09.540Z</time>
      </trkpt>
      <trkpt lat="45.8669" lon="6.77347">
        <ele>1475</ele>
        <time>2026-08-14T12:22:10.540Z</time>
      </trkpt>
      <trkpt lat="45.86691" lon="6.77348">
        <ele>1475</ele>
        <time>2026-08-14T12:22:11.540Z</time>
      </trkpt>
      <trkpt lat="45.86692" lon="6.77349">
        <ele>1475</ele>
        <time>2026-08-14T12:22:12.540Z</time>
      </trkpt>
      <trkpt lat="45.86692" lon="6.7735">
        <ele>1475</ele>
        <time>2026-08-14T12:22:13.540Z</time>
      </trkpt>
      <trkpt lat="45.86693" lon="6.77352">
        <ele>1475</ele>
        <time>2026-08-14T12:22:14.540Z</time>
      </trkpt>
      <trkpt lat="45.86693" lon="6.77353">
        <ele>1475</ele>
        <time>2026-08-14T12:22:15.540Z</time>
      </trkpt>
      <trkpt lat="45.86693" lon="6.77355">
        <ele>1475</ele>
        <time>2026-08-14T12:22:16.540Z</time>
      </trkpt>
      <trkpt lat="45.86693" lon="6.77357">
        <ele>1475</ele>
        <time>2026-08-14T12:22:17.540Z</time>
      </trkpt>
      <trkpt lat="45.86693" lon="6.77359">
        <ele>1476</ele>
        <time>2026-08-14T12:22:18.540Z</time>
      </trkpt>
      <trkpt lat="45.86693" lon="6.77359">
        <ele>1476</ele>
        <time>2026-08-14T12:22:19.540Z</time>
      </trkpt>
      <trkpt lat="45.86694" lon="6.77361">
        <ele>1476</ele>
        <time>2026-08-14T12:22:20.540Z</time>
      </trkpt>
      <trkpt lat="45.86694" lon="6.77362">
        <ele>1476</ele>
        <time>2026-08-14T12:22:21.540Z</time>
      </trkpt>
      <trkpt lat="45.86694" lon="6.77362">
        <ele>1476</ele>
        <time>2026-08-14T12:22:22.540Z</time>
      </trkpt>
      <trkpt lat="45.86695" lon="6.77362">
        <ele>1477</ele>
        <time>2026-08-14T12:22:23.540Z</time>
      </trkpt>
      <trkpt lat="45.86696" lon="6.77362">
        <ele>1477</ele>
        <time>2026-08-14T12:22:24.540Z</time>
      </trkpt>
      <trkpt lat="45.86697" lon="6.77362">
        <ele>1477</ele>
        <time>2026-08-14T12:22:25.540Z</time>
      </trkpt>
      <trkpt lat="45.86698" lon="6.77363">
        <ele>1478</ele>
        <time>2026-08-14T12:22:26.540Z</time>
      </trkpt>
      <trkpt lat="45.86699" lon="6.77364">
        <ele>1478</ele>
        <time>2026-08-14T12:22:27.540Z</time>
      </trkpt>
      <trkpt lat="45.867" lon="6.77365">
        <ele>1478</ele>
        <time>2026-08-14T12:22:28.540Z</time>
      </trkpt>
      <trkpt lat="45.867" lon="6.77365">
        <ele>1478</ele>
        <time>2026-08-14T12:22:29.540Z</time>
      </trkpt>
      <trkpt lat="45.867" lon="6.77366">
        <ele>1479</ele>
        <time>2026-08-14T12:22:30.540Z</time>
      </trkpt>
      <trkpt lat="45.867" lon="6.77367">
        <ele>1479</ele>
        <time>2026-08-14T12:22:31.540Z</time>
      </trkpt>
      <trkpt lat="45.867" lon="6.77368">
        <ele>1480</ele>
        <time>2026-08-14T12:22:32.540Z</time>
      </trkpt>
      <trkpt lat="45.86701" lon="6.77369">
        <ele>1480</ele>
        <time>2026-08-14T12:22:33.540Z</time>
      </trkpt>
      <trkpt lat="45.86701" lon="6.77368">
        <ele>1481</ele>
        <time>2026-08-14T12:22:34.540Z</time>
      </trkpt>
      <trkpt lat="45.86702" lon="6.77369">
        <ele>1482</ele>
        <time>2026-08-14T12:22:35.540Z</time>
      </trkpt>
      <trkpt lat="45.86702" lon="6.77369">
        <ele>1482</ele>
        <time>2026-08-14T12:22:36.540Z</time>
      </trkpt>
      <trkpt lat="45.86703" lon="6.77369">
        <ele>1483</ele>
        <time>2026-08-14T12:22:37.540Z</time>
      </trkpt>
      <trkpt lat="45.86704" lon="6.7737">
        <ele>1484</ele>
        <time>2026-08-14T12:22:38.540Z</time>
      </trkpt>
      <trkpt lat="45.86705" lon="6.7737">
        <ele>1484</ele>
        <time>2026-08-14T12:22:39.540Z</time>
      </trkpt>
      <trkpt lat="45.86706" lon="6.77371">
        <ele>1484</ele>
        <time>2026-08-14T12:22:40.540Z</time>
      </trkpt>
      <trkpt lat="45.86707" lon="6.77371">
        <ele>1485</ele>
        <time>2026-08-14T12:22:41.540Z</time>
      </trkpt>
      <trkpt lat="45.86708" lon="6.77371">
        <ele>1485</ele>
        <time>2026-08-14T12:22:42.540Z</time>
      </trkpt>
      <trkpt lat="45.86709" lon="6.77372">
        <ele>1486</ele>
        <time>2026-08-14T12:22:43.540Z</time>
      </trkpt>
      <trkpt lat="45.86711" lon="6.77373">
        <ele>1487</ele>
        <time>2026-08-14T12:22:44.540Z</time>
      </trkpt>
      <trkpt lat="45.86712" lon="6.77373">
        <ele>1488</ele>
        <time>2026-08-14T12:22:45.540Z</time>
      </trkpt>
      <trkpt lat="45.86713" lon="6.77373">
        <ele>1488</ele>
        <time>2026-08-14T12:22:46.540Z</time>
      </trkpt>
      <trkpt lat="45.86714" lon="6.77373">
        <ele>1489</ele>
        <time>2026-08-14T12:22:47.540Z</time>
      </trkpt>
      <trkpt lat="45.86714" lon="6.77373">
        <ele>1489</ele>
        <time>2026-08-14T12:22:48.540Z</time>
      </trkpt>
      <trkpt lat="45.86715" lon="6.77375">
        <ele>1489</ele>
        <time>2026-08-14T12:22:49.540Z</time>
      </trkpt>
      <trkpt lat="45.86715" lon="6.77377">
        <ele>1489</ele>
        <time>2026-08-14T12:22:50.540Z</time>
      </trkpt>
      <trkpt lat="45.86716" lon="6.77378">
        <ele>1489</ele>
        <time>2026-08-14T12:22:51.540Z</time>
      </trkpt>
      <trkpt lat="45.86717" lon="6.77379">
        <ele>1489</ele>
        <time>2026-08-14T12:22:52.540Z</time>
      </trkpt>
      <trkpt lat="45.86717" lon="6.7738">
        <ele>1489</ele>
        <time>2026-08-14T12:22:53.540Z</time>
      </trkpt>
      <trkpt lat="45.86718" lon="6.77381">
        <ele>1489</ele>
        <time>2026-08-14T12:22:54.540Z</time>
      </trkpt>
      <trkpt lat="45.86718" lon="6.77383">
        <ele>1488</ele>
        <time>2026-08-14T12:22:55.540Z</time>
      </trkpt>
      <trkpt lat="45.86719" lon="6.77385">
        <ele>1488</ele>
        <time>2026-08-14T12:22:56.540Z</time>
      </trkpt>
      <trkpt lat="45.8672" lon="6.77386">
        <ele>1488</ele>
        <time>2026-08-14T12:22:57.540Z</time>
      </trkpt>
      <trkpt lat="45.8672" lon="6.77389">
        <ele>1488</ele>
        <time>2026-08-14T12:22:58.540Z</time>
      </trkpt>
      <trkpt lat="45.8672" lon="6.77391">
        <ele>1487</ele>
        <time>2026-08-14T12:22:59.540Z</time>
      </trkpt>
      <trkpt lat="45.86721" lon="6.77393">
        <ele>1487</ele>
        <time>2026-08-14T12:23:00.540Z</time>
      </trkpt>
      <trkpt lat="45.86721" lon="6.77394">
        <ele>1487</ele>
        <time>2026-08-14T12:23:01.540Z</time>
      </trkpt>
      <trkpt lat="45.86722" lon="6.77395">
        <ele>1487</ele>
        <time>2026-08-14T12:23:02.540Z</time>
      </trkpt>
      <trkpt lat="45.86722" lon="6.77397">
        <ele>1487</ele>
        <time>2026-08-14T12:23:03.540Z</time>
      </trkpt>
      <trkpt lat="45.86722" lon="6.77398">
        <ele>1487</ele>
        <time>2026-08-14T12:23:04.540Z</time>
      </trkpt>
      <trkpt lat="45.86723" lon="6.77399">
        <ele>1487</ele>
        <time>2026-08-14T12:23:05.540Z</time>
      </trkpt>
      <trkpt lat="45.86724" lon="6.77401">
        <ele>1487</ele>
        <time>2026-08-14T12:23:06.540Z</time>
      </trkpt>
      <trkpt lat="45.86725" lon="6.77403">
        <ele>1488</ele>
        <time>2026-08-14T12:23:07.540Z</time>
      </trkpt>
      <trkpt lat="45.86726" lon="6.77405">
        <ele>1488</ele>
        <time>2026-08-14T12:23:08.540Z</time>
      </trkpt>
      <trkpt lat="45.86726" lon="6.77407">
        <ele>1488</ele>
        <time>2026-08-14T12:23:09.540Z</time>
      </trkpt>
      <trkpt lat="45.86727" lon="6.77408">
        <ele>1488</ele>
        <time>2026-08-14T12:23:10.540Z</time>
      </trkpt>
      <trkpt lat="45.86728" lon="6.7741">
        <ele>1488</ele>
        <time>2026-08-14T12:23:11.540Z</time>
      </trkpt>
      <trkpt lat="45.86728" lon="6.77412">
        <ele>1489</ele>
        <time>2026-08-14T12:23:12.540Z</time>
      </trkpt>
      <trkpt lat="45.86729" lon="6.77413">
        <ele>1489</ele>
        <time>2026-08-14T12:23:13.540Z</time>
      </trkpt>
      <trkpt lat="45.86729" lon="6.77415">
        <ele>1489</ele>
        <time>2026-08-14T12:23:14.540Z</time>
      </trkpt>
      <trkpt lat="45.86728" lon="6.77417">
        <ele>1490</ele>
        <time>2026-08-14T12:23:15.540Z</time>
      </trkpt>
      <trkpt lat="45.86729" lon="6.77419">
        <ele>1490</ele>
        <time>2026-08-14T12:23:16.540Z</time>
      </trkpt>
      <trkpt lat="45.86729" lon="6.77421">
        <ele>1490</ele>
        <time>2026-08-14T12:23:17.540Z</time>
      </trkpt>
      <trkpt lat="45.86729" lon="6.77422">
        <ele>1490</ele>
        <time>2026-08-14T12:23:18.540Z</time>
      </trkpt>
      <trkpt lat="45.86729" lon="6.77424">
        <ele>1490</ele>
        <time>2026-08-14T12:23:19.540Z</time>
      </trkpt>
      <trkpt lat="45.8673" lon="6.77425">
        <ele>1490</ele>
        <time>2026-08-14T12:23:20.540Z</time>
      </trkpt>
      <trkpt lat="45.8673" lon="6.77426">
        <ele>1490</ele>
        <time>2026-08-14T12:23:21.540Z</time>
      </trkpt>
      <trkpt lat="45.8673" lon="6.77428">
        <ele>1490</ele>
        <time>2026-08-14T12:23:22.540Z</time>
      </trkpt>
      <trkpt lat="45.8673" lon="6.77429">
        <ele>1490</ele>
        <time>2026-08-14T12:23:23.540Z</time>
      </trkpt>
      <trkpt lat="45.8673" lon="6.77429">
        <ele>1490</ele>
        <time>2026-08-14T12:23:24.540Z</time>
      </trkpt>
      <trkpt lat="45.86731" lon="6.7743">
        <ele>1490</ele>
        <time>2026-08-14T12:23:25.540Z</time>
      </trkpt>
      <trkpt lat="45.86731" lon="6.77431">
        <ele>1490</ele>
        <time>2026-08-14T12:23:26.540Z</time>
      </trkpt>
      <trkpt lat="45.86732" lon="6.77432">
        <ele>1490</ele>
        <time>2026-08-14T12:23:27.540Z</time>
      </trkpt>
      <trkpt lat="45.86733" lon="6.77433">
        <ele>1491</ele>
        <time>2026-08-14T12:23:28.540Z</time>
      </trkpt>
      <trkpt lat="45.86734" lon="6.77434">
        <ele>1491</ele>
        <time>2026-08-14T12:23:29.540Z</time>
      </trkpt>
      <trkpt lat="45.86735" lon="6.77436">
        <ele>1491</ele>
        <time>2026-08-14T12:23:30.540Z</time>
      </trkpt>
      <trkpt lat="45.86735" lon="6.77437">
        <ele>1491</ele>
        <time>2026-08-14T12:23:31.540Z</time>
      </trkpt>
      <trkpt lat="45.86736" lon="6.77437">
        <ele>1491</ele>
        <time>2026-08-14T12:23:32.540Z</time>
      </trkpt>
      <trkpt lat="45.86737" lon="6.77439">
        <ele>1491</ele>
        <time>2026-08-14T12:23:33.540Z</time>
      </trkpt>
      <trkpt lat="45.86738" lon="6.7744">
        <ele>1492</ele>
        <time>2026-08-14T12:23:34.540Z</time>
      </trkpt>
      <trkpt lat="45.86738" lon="6.77441">
        <ele>1492</ele>
        <time>2026-08-14T12:23:35.540Z</time>
      </trkpt>
      <trkpt lat="45.86739" lon="6.77443">
        <ele>1492</ele>
        <time>2026-08-14T12:23:36.540Z</time>
      </trkpt>
      <trkpt lat="45.86739" lon="6.77444">
        <ele>1492</ele>
        <time>2026-08-14T12:23:37.540Z</time>
      </trkpt>
      <trkpt lat="45.8674" lon="6.77445">
        <ele>1492</ele>
        <time>2026-08-14T12:23:38.540Z</time>
      </trkpt>
      <trkpt lat="45.8674" lon="6.77446">
        <ele>1492</ele>
        <time>2026-08-14T12:23:39.540Z</time>
      </trkpt>
      <trkpt lat="45.8674" lon="6.77447">
        <ele>1492</ele>
        <time>2026-08-14T12:23:40.540Z</time>
      </trkpt>
      <trkpt lat="45.86741" lon="6.77448">
        <ele>1492</ele>
        <time>2026-08-14T12:23:41.540Z</time>
      </trkpt>
      <trkpt lat="45.86741" lon="6.77449">
        <ele>1492</ele>
        <time>2026-08-14T12:23:42.540Z</time>
      </trkpt>
      <trkpt lat="45.86742" lon="6.7745">
        <ele>1491</ele>
        <time>2026-08-14T12:23:43.540Z</time>
      </trkpt>
      <trkpt lat="45.86743" lon="6.77451">
        <ele>1491</ele>
        <time>2026-08-14T12:23:44.540Z</time>
      </trkpt>
      <trkpt lat="45.86745" lon="6.77453">
        <ele>1491</ele>
        <time>2026-08-14T12:23:45.540Z</time>
      </trkpt>
      <trkpt lat="45.86746" lon="6.77454">
        <ele>1492</ele>
        <time>2026-08-14T12:23:46.540Z</time>
      </trkpt>
      <trkpt lat="45.86747" lon="6.77456">
        <ele>1492</ele>
        <time>2026-08-14T12:23:47.540Z</time>
      </trkpt>
      <trkpt lat="45.86748" lon="6.77458">
        <ele>1492</ele>
        <time>2026-08-14T12:23:48.540Z</time>
      </trkpt>
      <trkpt lat="45.86749" lon="6.7746">
        <ele>1492</ele>
        <time>2026-08-14T12:23:49.540Z</time>
      </trkpt>
      <trkpt lat="45.86749" lon="6.77462">
        <ele>1492</ele>
        <time>2026-08-14T12:23:50.540Z</time>
      </trkpt>
      <trkpt lat="45.8675" lon="6.77463">
        <ele>1492</ele>
        <time>2026-08-14T12:23:51.540Z</time>
      </trkpt>
      <trkpt lat="45.8675" lon="6.77464">
        <ele>1492</ele>
        <time>2026-08-14T12:23:52.540Z</time>
      </trkpt>
      <trkpt lat="45.8675" lon="6.77466">
        <ele>1492</ele>
        <time>2026-08-14T12:23:53.540Z</time>
      </trkpt>
      <trkpt lat="45.8675" lon="6.77468">
        <ele>1492</ele>
        <time>2026-08-14T12:23:54.540Z</time>
      </trkpt>
      <trkpt lat="45.86751" lon="6.7747">
        <ele>1492</ele>
        <time>2026-08-14T12:23:55.540Z</time>
      </trkpt>
      <trkpt lat="45.86751" lon="6.77472">
        <ele>1492</ele>
        <time>2026-08-14T12:23:56.540Z</time>
      </trkpt>
      <trkpt lat="45.86752" lon="6.77474">
        <ele>1493</ele>
        <time>2026-08-14T12:23:57.540Z</time>
      </trkpt>
      <trkpt lat="45.86752" lon="6.77476">
        <ele>1493</ele>
        <time>2026-08-14T12:23:58.540Z</time>
      </trkpt>
      <trkpt lat="45.86753" lon="6.77477">
        <ele>1493</ele>
        <time>2026-08-14T12:23:59.540Z</time>
      </trkpt>
      <trkpt lat="45.86754" lon="6.7748">
        <ele>1492</ele>
        <time>2026-08-14T12:24:00.540Z</time>
      </trkpt>
      <trkpt lat="45.86754" lon="6.77482">
        <ele>1492</ele>
        <time>2026-08-14T12:24:01.540Z</time>
      </trkpt>
      <trkpt lat="45.86755" lon="6.77485">
        <ele>1492</ele>
        <time>2026-08-14T12:24:02.540Z</time>
      </trkpt>
      <trkpt lat="45.86756" lon="6.77487">
        <ele>1492</ele>
        <time>2026-08-14T12:24:03.540Z</time>
      </trkpt>
      <trkpt lat="45.86757" lon="6.77488">
        <ele>1492</ele>
        <time>2026-08-14T12:24:04.540Z</time>
      </trkpt>
      <trkpt lat="45.86758" lon="6.7749">
        <ele>1492</ele>
        <time>2026-08-14T12:24:05.540Z</time>
      </trkpt>
      <trkpt lat="45.86759" lon="6.77493">
        <ele>1492</ele>
        <time>2026-08-14T12:24:06.540Z</time>
      </trkpt>
      <trkpt lat="45.8676" lon="6.77495">
        <ele>1492</ele>
        <time>2026-08-14T12:24:07.540Z</time>
      </trkpt>
      <trkpt lat="45.86761" lon="6.77497">
        <ele>1493</ele>
        <time>2026-08-14T12:24:08.540Z</time>
      </trkpt>
      <trkpt lat="45.86762" lon="6.77499">
        <ele>1493</ele>
        <time>2026-08-14T12:24:09.540Z</time>
      </trkpt>
      <trkpt lat="45.86763" lon="6.77501">
        <ele>1493</ele>
        <time>2026-08-14T12:24:10.540Z</time>
      </trkpt>
      <trkpt lat="45.86764" lon="6.77503">
        <ele>1494</ele>
        <time>2026-08-14T12:24:11.540Z</time>
      </trkpt>
      <trkpt lat="45.86764" lon="6.77505">
        <ele>1494</ele>
        <time>2026-08-14T12:24:12.540Z</time>
      </trkpt>
      <trkpt lat="45.86765" lon="6.77507">
        <ele>1494</ele>
        <time>2026-08-14T12:24:13.540Z</time>
      </trkpt>
      <trkpt lat="45.86765" lon="6.77509">
        <ele>1494</ele>
        <time>2026-08-14T12:24:14.540Z</time>
      </trkpt>
      <trkpt lat="45.86766" lon="6.77511">
        <ele>1494</ele>
        <time>2026-08-14T12:24:15.540Z</time>
      </trkpt>
      <trkpt lat="45.86766" lon="6.77512">
        <ele>1494</ele>
        <time>2026-08-14T12:24:16.540Z</time>
      </trkpt>
      <trkpt lat="45.86766" lon="6.77514">
        <ele>1494</ele>
        <time>2026-08-14T12:24:17.540Z</time>
      </trkpt>
      <trkpt lat="45.86766" lon="6.77516">
        <ele>1493</ele>
        <time>2026-08-14T12:24:18.540Z</time>
      </trkpt>
      <trkpt lat="45.86765" lon="6.77517">
        <ele>1493</ele>
        <time>2026-08-14T12:24:19.540Z</time>
      </trkpt>
      <trkpt lat="45.86765" lon="6.77519">
        <ele>1493</ele>
        <time>2026-08-14T12:24:20.540Z</time>
      </trkpt>
      <trkpt lat="45.86765" lon="6.7752">
        <ele>1493</ele>
        <time>2026-08-14T12:24:21.540Z</time>
      </trkpt>
      <trkpt lat="45.86766" lon="6.77521">
        <ele>1493</ele>
        <time>2026-08-14T12:24:22.540Z</time>
      </trkpt>
      <trkpt lat="45.86767" lon="6.77523">
        <ele>1493</ele>
        <time>2026-08-14T12:24:23.540Z</time>
      </trkpt>
      <trkpt lat="45.86768" lon="6.77525">
        <ele>1493</ele>
        <time>2026-08-14T12:24:24.540Z</time>
      </trkpt>
      <trkpt lat="45.86768" lon="6.77527">
        <ele>1493</ele>
        <time>2026-08-14T12:24:25.540Z</time>
      </trkpt>
      <trkpt lat="45.86768" lon="6.77529">
        <ele>1493</ele>
        <time>2026-08-14T12:24:26.540Z</time>
      </trkpt>
      <trkpt lat="45.86767" lon="6.7753">
        <ele>1494</ele>
        <time>2026-08-14T12:24:27.540Z</time>
      </trkpt>
      <trkpt lat="45.86767" lon="6.7753">
        <ele>1494</ele>
        <time>2026-08-14T12:24:28.540Z</time>
      </trkpt>
      <trkpt lat="45.86768" lon="6.7753">
        <ele>1494</ele>
        <time>2026-08-14T12:24:29.540Z</time>
      </trkpt>
      <trkpt lat="45.86767" lon="6.7753">
        <ele>1495</ele>
        <time>2026-08-14T12:24:30.540Z</time>
      </trkpt>
      <trkpt lat="45.86767" lon="6.7753">
        <ele>1495</ele>
        <time>2026-08-14T12:24:31.540Z</time>
      </trkpt>
      <trkpt lat="45.86767" lon="6.7753">
        <ele>1496</ele>
        <time>2026-08-14T12:24:32.540Z</time>
      </trkpt>
      <trkpt lat="45.86768" lon="6.77531">
        <ele>1496</ele>
        <time>2026-08-14T12:24:33.540Z</time>
      </trkpt>
      <trkpt lat="45.86769" lon="6.77532">
        <ele>1497</ele>
        <time>2026-08-14T12:24:34.540Z</time>
      </trkpt>
      <trkpt lat="45.86769" lon="6.77533">
        <ele>1497</ele>
        <time>2026-08-14T12:24:35.540Z</time>
      </trkpt>
      <trkpt lat="45.86769" lon="6.77534">
        <ele>1497</ele>
        <time>2026-08-14T12:24:36.540Z</time>
      </trkpt>
      <trkpt lat="45.8677" lon="6.77534">
        <ele>1497</ele>
        <time>2026-08-14T12:24:37.540Z</time>
      </trkpt>
      <trkpt lat="45.8677" lon="6.77534">
        <ele>1498</ele>
        <time>2026-08-14T12:24:38.540Z</time>
      </trkpt>
      <trkpt lat="45.8677" lon="6.77534">
        <ele>1498</ele>
        <time>2026-08-14T12:24:39.540Z</time>
      </trkpt>
      <trkpt lat="45.8677" lon="6.77534">
        <ele>1498</ele>
        <time>2026-08-14T12:24:40.540Z</time>
      </trkpt>
      <trkpt lat="45.8677" lon="6.77534">
        <ele>1499</ele>
        <time>2026-08-14T12:24:41.540Z</time>
      </trkpt>
      <trkpt lat="45.8677" lon="6.77533">
        <ele>1500</ele>
        <time>2026-08-14T12:24:42.540Z</time>
      </trkpt>
      <trkpt lat="45.86769" lon="6.77531">
        <ele>1500</ele>
        <time>2026-08-14T12:24:43.540Z</time>
      </trkpt>
      <trkpt lat="45.86769" lon="6.7753">
        <ele>1501</ele>
        <time>2026-08-14T12:24:44.540Z</time>
      </trkpt>
      <trkpt lat="45.86769" lon="6.77528">
        <ele>1501</ele>
        <time>2026-08-14T12:24:45.540Z</time>
      </trkpt>
      <trkpt lat="45.86769" lon="6.77526">
        <ele>1502</ele>
        <time>2026-08-14T12:24:46.540Z</time>
      </trkpt>
      <trkpt lat="45.86769" lon="6.77525">
        <ele>1502</ele>
        <time>2026-08-14T12:24:47.540Z</time>
      </trkpt>
      <trkpt lat="45.86769" lon="6.77525">
        <ele>1503</ele>
        <time>2026-08-14T12:24:48.540Z</time>
      </trkpt>
      <trkpt lat="45.86769" lon="6.77526">
        <ele>1503</ele>
        <time>2026-08-14T12:24:49.540Z</time>
      </trkpt>
      <trkpt lat="45.86769" lon="6.77526">
        <ele>1503</ele>
        <time>2026-08-14T12:24:50.540Z</time>
      </trkpt>
      <trkpt lat="45.86769" lon="6.77527">
        <ele>1503</ele>
        <time>2026-08-14T12:24:51.540Z</time>
      </trkpt>
      <trkpt lat="45.86769" lon="6.77528">
        <ele>1503</ele>
        <time>2026-08-14T12:24:52.540Z</time>
      </trkpt>
      <trkpt lat="45.86769" lon="6.7753">
        <ele>1504</ele>
        <time>2026-08-14T12:24:53.540Z</time>
      </trkpt>
      <trkpt lat="45.86769" lon="6.77532">
        <ele>1504</ele>
        <time>2026-08-14T12:24:54.540Z</time>
      </trkpt>
      <trkpt lat="45.86769" lon="6.77534">
        <ele>1504</ele>
        <time>2026-08-14T12:24:55.540Z</time>
      </trkpt>
      <trkpt lat="45.86769" lon="6.77535">
        <ele>1504</ele>
        <time>2026-08-14T12:24:56.540Z</time>
      </trkpt>
      <trkpt lat="45.8677" lon="6.77537">
        <ele>1504</ele>
        <time>2026-08-14T12:24:57.540Z</time>
      </trkpt>
      <trkpt lat="45.8677" lon="6.77538">
        <ele>1504</ele>
        <time>2026-08-14T12:24:58.540Z</time>
      </trkpt>
      <trkpt lat="45.8677" lon="6.7754">
        <ele>1504</ele>
        <time>2026-08-14T12:24:59.540Z</time>
      </trkpt>
      <trkpt lat="45.8677" lon="6.77542">
        <ele>1505</ele>
        <time>2026-08-14T12:25:00.540Z</time>
      </trkpt>
      <trkpt lat="45.8677" lon="6.77544">
        <ele>1505</ele>
        <time>2026-08-14T12:25:01.540Z</time>
      </trkpt>
      <trkpt lat="45.86771" lon="6.77545">
        <ele>1505</ele>
        <time>2026-08-14T12:25:02.540Z</time>
      </trkpt>
      <trkpt lat="45.86771" lon="6.77545">
        <ele>1505</ele>
        <time>2026-08-14T12:25:03.540Z</time>
      </trkpt>
      <trkpt lat="45.86771" lon="6.77545">
        <ele>1506</ele>
        <time>2026-08-14T12:25:04.540Z</time>
      </trkpt>
      <trkpt lat="45.86771" lon="6.77545">
        <ele>1506</ele>
        <time>2026-08-14T12:25:05.540Z</time>
      </trkpt>
      <trkpt lat="45.8677" lon="6.77544">
        <ele>1506</ele>
        <time>2026-08-14T12:25:06.540Z</time>
      </trkpt>
      <trkpt lat="45.86768" lon="6.77545">
        <ele>1507</ele>
        <time>2026-08-14T12:25:07.540Z</time>
      </trkpt>
      <trkpt lat="45.86768" lon="6.77545">
        <ele>1507</ele>
        <time>2026-08-14T12:25:08.540Z</time>
      </trkpt>
      <trkpt lat="45.86768" lon="6.77545">
        <ele>1507</ele>
        <time>2026-08-14T12:25:09.540Z</time>
      </trkpt>
      <trkpt lat="45.86768" lon="6.77545">
        <ele>1507</ele>
        <time>2026-08-14T12:25:10.540Z</time>
      </trkpt>
      <trkpt lat="45.86768" lon="6.77545">
        <ele>1508</ele>
        <time>2026-08-14T12:25:11.540Z</time>
      </trkpt>
      <trkpt lat="45.86767" lon="6.77545">
        <ele>1508</ele>
        <time>2026-08-14T12:25:12.540Z</time>
      </trkpt>
      <trkpt lat="45.86767" lon="6.77545">
        <ele>1508</ele>
        <time>2026-08-14T12:25:13.540Z</time>
      </trkpt>
      <trkpt lat="45.86767" lon="6.77545">
        <ele>1508</ele>
        <time>2026-08-14T12:25:14.540Z</time>
      </trkpt>
      <trkpt lat="45.86767" lon="6.77544">
        <ele>1509</ele>
        <time>2026-08-14T12:25:15.540Z</time>
      </trkpt>
      <trkpt lat="45.86767" lon="6.77544">
        <ele>1509</ele>
        <time>2026-08-14T12:25:16.540Z</time>
      </trkpt>
      <trkpt lat="45.86767" lon="6.77544">
        <ele>1509</ele>
        <time>2026-08-14T12:25:17.540Z</time>
      </trkpt>
      <trkpt lat="45.86767" lon="6.77544">
        <ele>1509</ele>
        <time>2026-08-14T12:25:18.540Z</time>
      </trkpt>
      <trkpt lat="45.86767" lon="6.77544">
        <ele>1509</ele>
        <time>2026-08-14T12:25:19.540Z</time>
      </trkpt>
      <trkpt lat="45.86767" lon="6.77545">
        <ele>1508</ele>
        <time>2026-08-14T12:25:20.540Z</time>
      </trkpt>
      <trkpt lat="45.86767" lon="6.77546">
        <ele>1508</ele>
        <time>2026-08-14T12:25:21.540Z</time>
      </trkpt>
      <trkpt lat="45.86767" lon="6.77548">
        <ele>1507</ele>
        <time>2026-08-14T12:25:22.540Z</time>
      </trkpt>
      <trkpt lat="45.86768" lon="6.77549">
        <ele>1507</ele>
        <time>2026-08-14T12:25:23.540Z</time>
      </trkpt>
      <trkpt lat="45.86768" lon="6.7755">
        <ele>1506</ele>
        <time>2026-08-14T12:25:24.540Z</time>
      </trkpt>
      <trkpt lat="45.86769" lon="6.77552">
        <ele>1506</ele>
        <time>2026-08-14T12:25:25.540Z</time>
      </trkpt>
      <trkpt lat="45.86769" lon="6.77553">
        <ele>1506</ele>
        <time>2026-08-14T12:25:26.540Z</time>
      </trkpt>
      <trkpt lat="45.86769" lon="6.77555">
        <ele>1506</ele>
        <time>2026-08-14T12:25:27.540Z</time>
      </trkpt>
      <trkpt lat="45.8677" lon="6.77556">
        <ele>1506</ele>
        <time>2026-08-14T12:25:28.540Z</time>
      </trkpt>
      <trkpt lat="45.8677" lon="6.77557">
        <ele>1506</ele>
        <time>2026-08-14T12:25:29.540Z</time>
      </trkpt>
      <trkpt lat="45.86771" lon="6.77558">
        <ele>1506</ele>
        <time>2026-08-14T12:25:30.540Z</time>
      </trkpt>
      <trkpt lat="45.86772" lon="6.77559">
        <ele>1506</ele>
        <time>2026-08-14T12:25:31.540Z</time>
      </trkpt>
      <trkpt lat="45.86773" lon="6.7756">
        <ele>1506</ele>
        <time>2026-08-14T12:25:32.540Z</time>
      </trkpt>
      <trkpt lat="45.86774" lon="6.7756">
        <ele>1507</ele>
        <time>2026-08-14T12:25:33.540Z</time>
      </trkpt>
      <trkpt lat="45.86775" lon="6.77561">
        <ele>1507</ele>
        <time>2026-08-14T12:25:34.540Z</time>
      </trkpt>
      <trkpt lat="45.86777" lon="6.77561">
        <ele>1507</ele>
        <time>2026-08-14T12:25:35.540Z</time>
      </trkpt>
      <trkpt lat="45.86778" lon="6.77562">
        <ele>1508</ele>
        <time>2026-08-14T12:25:36.540Z</time>
      </trkpt>
      <trkpt lat="45.86778" lon="6.77562">
        <ele>1508</ele>
        <time>2026-08-14T12:25:37.540Z</time>
      </trkpt>
      <trkpt lat="45.86779" lon="6.77562">
        <ele>1508</ele>
        <time>2026-08-14T12:25:38.540Z</time>
      </trkpt>
      <trkpt lat="45.86781" lon="6.77562">
        <ele>1508</ele>
        <time>2026-08-14T12:25:39.540Z</time>
      </trkpt>
      <trkpt lat="45.86781" lon="6.77563">
        <ele>1509</ele>
        <time>2026-08-14T12:25:40.540Z</time>
      </trkpt>
      <trkpt lat="45.86782" lon="6.77563">
        <ele>1509</ele>
        <time>2026-08-14T12:25:41.540Z</time>
      </trkpt>
      <trkpt lat="45.86784" lon="6.77564">
        <ele>1509</ele>
        <time>2026-08-14T12:25:42.540Z</time>
      </trkpt>
      <trkpt lat="45.86785" lon="6.77564">
        <ele>1510</ele>
        <time>2026-08-14T12:25:43.540Z</time>
      </trkpt>
      <trkpt lat="45.86786" lon="6.77564">
        <ele>1510</ele>
        <time>2026-08-14T12:25:44.540Z</time>
      </trkpt>
      <trkpt lat="45.86787" lon="6.77563">
        <ele>1510</ele>
        <time>2026-08-14T12:25:45.540Z</time>
      </trkpt>
      <trkpt lat="45.86789" lon="6.77562">
        <ele>1511</ele>
        <time>2026-08-14T12:25:46.540Z</time>
      </trkpt>
      <trkpt lat="45.86789" lon="6.77562">
        <ele>1511</ele>
        <time>2026-08-14T12:25:47.540Z</time>
      </trkpt>
      <trkpt lat="45.8679" lon="6.77562">
        <ele>1511</ele>
        <time>2026-08-14T12:25:48.540Z</time>
      </trkpt>
      <trkpt lat="45.86791" lon="6.77562">
        <ele>1511</ele>
        <time>2026-08-14T12:25:49.540Z</time>
      </trkpt>
      <trkpt lat="45.86791" lon="6.77562">
        <ele>1511</ele>
        <time>2026-08-14T12:25:50.540Z</time>
      </trkpt>
      <trkpt lat="45.86792" lon="6.77561">
        <ele>1512</ele>
        <time>2026-08-14T12:25:51.540Z</time>
      </trkpt>
      <trkpt lat="45.86793" lon="6.7756">
        <ele>1512</ele>
        <time>2026-08-14T12:25:52.540Z</time>
      </trkpt>
      <trkpt lat="45.86793" lon="6.77559">
        <ele>1511</ele>
        <time>2026-08-14T12:25:53.540Z</time>
      </trkpt>
      <trkpt lat="45.86794" lon="6.77559">
        <ele>1511</ele>
        <time>2026-08-14T12:25:54.540Z</time>
      </trkpt>
      <trkpt lat="45.86793" lon="6.77558">
        <ele>1511</ele>
        <time>2026-08-14T12:25:55.540Z</time>
      </trkpt>
      <trkpt lat="45.86794" lon="6.77557">
        <ele>1511</ele>
        <time>2026-08-14T12:25:56.540Z</time>
      </trkpt>
      <trkpt lat="45.86794" lon="6.77555">
        <ele>1511</ele>
        <time>2026-08-14T12:25:57.540Z</time>
      </trkpt>
      <trkpt lat="45.86795" lon="6.77554">
        <ele>1512</ele>
        <time>2026-08-14T12:25:58.540Z</time>
      </trkpt>
      <trkpt lat="45.86796" lon="6.77553">
        <ele>1512</ele>
        <time>2026-08-14T12:25:59.540Z</time>
      </trkpt>
      <trkpt lat="45.86797" lon="6.77552">
        <ele>1512</ele>
        <time>2026-08-14T12:26:00.540Z</time>
      </trkpt>
      <trkpt lat="45.86797" lon="6.77551">
        <ele>1512</ele>
        <time>2026-08-14T12:26:01.540Z</time>
      </trkpt>
      <trkpt lat="45.86798" lon="6.77549">
        <ele>1512</ele>
        <time>2026-08-14T12:26:02.540Z</time>
      </trkpt>
      <trkpt lat="45.86798" lon="6.77548">
        <ele>1512</ele>
        <time>2026-08-14T12:26:03.540Z</time>
      </trkpt>
      <trkpt lat="45.86799" lon="6.77547">
        <ele>1512</ele>
        <time>2026-08-14T12:26:04.540Z</time>
      </trkpt>
      <trkpt lat="45.868" lon="6.77546">
        <ele>1512</ele>
        <time>2026-08-14T12:26:05.540Z</time>
      </trkpt>
      <trkpt lat="45.868" lon="6.77546">
        <ele>1512</ele>
        <time>2026-08-14T12:26:06.540Z</time>
      </trkpt>
      <trkpt lat="45.86801" lon="6.77544">
        <ele>1512</ele>
        <time>2026-08-14T12:26:07.540Z</time>
      </trkpt>
      <trkpt lat="45.86801" lon="6.77543">
        <ele>1512</ele>
        <time>2026-08-14T12:26:08.540Z</time>
      </trkpt>
      <trkpt lat="45.86801" lon="6.77542">
        <ele>1512</ele>
        <time>2026-08-14T12:26:09.540Z</time>
      </trkpt>
      <trkpt lat="45.86802" lon="6.77541">
        <ele>1511</ele>
        <time>2026-08-14T12:26:10.540Z</time>
      </trkpt>
      <trkpt lat="45.86802" lon="6.77539">
        <ele>1511</ele>
        <time>2026-08-14T12:26:11.540Z</time>
      </trkpt>
      <trkpt lat="45.86802" lon="6.77538">
        <ele>1511</ele>
        <time>2026-08-14T12:26:12.540Z</time>
      </trkpt>
      <trkpt lat="45.86802" lon="6.77538">
        <ele>1511</ele>
        <time>2026-08-14T12:26:13.540Z</time>
      </trkpt>
      <trkpt lat="45.86803" lon="6.77537">
        <ele>1512</ele>
        <time>2026-08-14T12:26:14.540Z</time>
      </trkpt>
      <trkpt lat="45.86803" lon="6.77536">
        <ele>1512</ele>
        <time>2026-08-14T12:26:15.540Z</time>
      </trkpt>
      <trkpt lat="45.86804" lon="6.77535">
        <ele>1512</ele>
        <time>2026-08-14T12:26:16.540Z</time>
      </trkpt>
      <trkpt lat="45.86805" lon="6.77534">
        <ele>1512</ele>
        <time>2026-08-14T12:26:17.540Z</time>
      </trkpt>
      <trkpt lat="45.86806" lon="6.77533">
        <ele>1513</ele>
        <time>2026-08-14T12:26:18.540Z</time>
      </trkpt>
      <trkpt lat="45.86807" lon="6.77531">
        <ele>1513</ele>
        <time>2026-08-14T12:26:19.540Z</time>
      </trkpt>
      <trkpt lat="45.86808" lon="6.77529">
        <ele>1514</ele>
        <time>2026-08-14T12:26:20.540Z</time>
      </trkpt>
      <trkpt lat="45.86809" lon="6.77527">
        <ele>1514</ele>
        <time>2026-08-14T12:26:21.540Z</time>
      </trkpt>
      <trkpt lat="45.86809" lon="6.77526">
        <ele>1515</ele>
        <time>2026-08-14T12:26:22.540Z</time>
      </trkpt>
      <trkpt lat="45.8681" lon="6.77524">
        <ele>1515</ele>
        <time>2026-08-14T12:26:23.540Z</time>
      </trkpt>
      <trkpt lat="45.8681" lon="6.77522">
        <ele>1516</ele>
        <time>2026-08-14T12:26:24.540Z</time>
      </trkpt>
      <trkpt lat="45.86812" lon="6.7752">
        <ele>1516</ele>
        <time>2026-08-14T12:26:25.540Z</time>
      </trkpt>
      <trkpt lat="45.86812" lon="6.77519">
        <ele>1517</ele>
        <time>2026-08-14T12:26:26.540Z</time>
      </trkpt>
      <trkpt lat="45.86813" lon="6.77519">
        <ele>1518</ele>
        <time>2026-08-14T12:26:27.540Z</time>
      </trkpt>
      <trkpt lat="45.86814" lon="6.77518">
        <ele>1518</ele>
        <time>2026-08-14T12:26:28.540Z</time>
      </trkpt>
      <trkpt lat="45.86814" lon="6.77517">
        <ele>1519</ele>
        <time>2026-08-14T12:26:29.540Z</time>
      </trkpt>
      <trkpt lat="45.86814" lon="6.77516">
        <ele>1520</ele>
        <time>2026-08-14T12:26:30.540Z</time>
      </trkpt>
      <trkpt lat="45.86815" lon="6.77515">
        <ele>1520</ele>
        <time>2026-08-14T12:26:31.540Z</time>
      </trkpt>
      <trkpt lat="45.86815" lon="6.77514">
        <ele>1521</ele>
        <time>2026-08-14T12:26:32.540Z</time>
      </trkpt>
      <trkpt lat="45.86814" lon="6.77513">
        <ele>1521</ele>
        <time>2026-08-14T12:26:33.540Z</time>
      </trkpt>
      <trkpt lat="45.86814" lon="6.77511">
        <ele>1522</ele>
        <time>2026-08-14T12:26:34.540Z</time>
      </trkpt>
      <trkpt lat="45.86815" lon="6.7751">
        <ele>1523</ele>
        <time>2026-08-14T12:26:35.540Z</time>
      </trkpt>
      <trkpt lat="45.86815" lon="6.77508">
        <ele>1524</ele>
        <time>2026-08-14T12:26:36.540Z</time>
      </trkpt>
      <trkpt lat="45.86816" lon="6.77507">
        <ele>1525</ele>
        <time>2026-08-14T12:26:37.540Z</time>
      </trkpt>
      <trkpt lat="45.86816" lon="6.77506">
        <ele>1526</ele>
        <time>2026-08-14T12:26:38.540Z</time>
      </trkpt>
      <trkpt lat="45.86816" lon="6.77505">
        <ele>1527</ele>
        <time>2026-08-14T12:26:39.540Z</time>
      </trkpt>
      <trkpt lat="45.86817" lon="6.77504">
        <ele>1527</ele>
        <time>2026-08-14T12:26:40.540Z</time>
      </trkpt>
      <trkpt lat="45.86818" lon="6.77503">
        <ele>1528</ele>
        <time>2026-08-14T12:26:41.540Z</time>
      </trkpt>
      <trkpt lat="45.86819" lon="6.77502">
        <ele>1528</ele>
        <time>2026-08-14T12:26:42.540Z</time>
      </trkpt>
      <trkpt lat="45.86819" lon="6.77501">
        <ele>1529</ele>
        <time>2026-08-14T12:26:43.540Z</time>
      </trkpt>
      <trkpt lat="45.8682" lon="6.77499">
        <ele>1529</ele>
        <time>2026-08-14T12:26:44.540Z</time>
      </trkpt>
      <trkpt lat="45.8682" lon="6.77499">
        <ele>1530</ele>
        <time>2026-08-14T12:26:45.540Z</time>
      </trkpt>
      <trkpt lat="45.86821" lon="6.77498">
        <ele>1530</ele>
        <time>2026-08-14T12:26:46.540Z</time>
      </trkpt>
      <trkpt lat="45.86821" lon="6.77497">
        <ele>1531</ele>
        <time>2026-08-14T12:26:47.540Z</time>
      </trkpt>
      <trkpt lat="45.86821" lon="6.77497">
        <ele>1531</ele>
        <time>2026-08-14T12:26:48.540Z</time>
      </trkpt>
      <trkpt lat="45.86821" lon="6.77495">
        <ele>1532</ele>
        <time>2026-08-14T12:26:49.540Z</time>
      </trkpt>
      <trkpt lat="45.86822" lon="6.77494">
        <ele>1532</ele>
        <time>2026-08-14T12:26:50.540Z</time>
      </trkpt>
      <trkpt lat="45.86822" lon="6.77494">
        <ele>1533</ele>
        <time>2026-08-14T12:26:51.540Z</time>
      </trkpt>
      <trkpt lat="45.86823" lon="6.77493">
        <ele>1533</ele>
        <time>2026-08-14T12:26:52.540Z</time>
      </trkpt>
      <trkpt lat="45.86823" lon="6.77493">
        <ele>1533</ele>
        <time>2026-08-14T12:26:53.540Z</time>
      </trkpt>
      <trkpt lat="45.86824" lon="6.77492">
        <ele>1534</ele>
        <time>2026-08-14T12:26:54.540Z</time>
      </trkpt>
      <trkpt lat="45.86824" lon="6.77491">
        <ele>1534</ele>
        <time>2026-08-14T12:26:55.540Z</time>
      </trkpt>
      <trkpt lat="45.86824" lon="6.7749">
        <ele>1534</ele>
        <time>2026-08-14T12:26:56.540Z</time>
      </trkpt>
      <trkpt lat="45.86825" lon="6.7749">
        <ele>1535</ele>
        <time>2026-08-14T12:26:57.540Z</time>
      </trkpt>
      <trkpt lat="45.86826" lon="6.77489">
        <ele>1535</ele>
        <time>2026-08-14T12:26:58.540Z</time>
      </trkpt>
      <trkpt lat="45.86826" lon="6.77488">
        <ele>1536</ele>
        <time>2026-08-14T12:26:59.540Z</time>
      </trkpt>
      <trkpt lat="45.86826" lon="6.77487">
        <ele>1536</ele>
        <time>2026-08-14T12:27:00.540Z</time>
      </trkpt>
      <trkpt lat="45.86826" lon="6.77486">
        <ele>1536</ele>
        <time>2026-08-14T12:27:01.540Z</time>
      </trkpt>
      <trkpt lat="45.86826" lon="6.77484">
        <ele>1536</ele>
        <time>2026-08-14T12:27:02.540Z</time>
      </trkpt>
      <trkpt lat="45.86826" lon="6.77483">
        <ele>1537</ele>
        <time>2026-08-14T12:27:03.540Z</time>
      </trkpt>
      <trkpt lat="45.86825" lon="6.77482">
        <ele>1537</ele>
        <time>2026-08-14T12:27:04.540Z</time>
      </trkpt>
      <trkpt lat="45.86825" lon="6.77481">
        <ele>1537</ele>
        <time>2026-08-14T12:27:05.540Z</time>
      </trkpt>
      <trkpt lat="45.86825" lon="6.77481">
        <ele>1537</ele>
        <time>2026-08-14T12:27:06.540Z</time>
      </trkpt>
      <trkpt lat="45.86826" lon="6.7748">
        <ele>1537</ele>
        <time>2026-08-14T12:27:07.540Z</time>
      </trkpt>
      <trkpt lat="45.86826" lon="6.77479">
        <ele>1538</ele>
        <time>2026-08-14T12:27:08.540Z</time>
      </trkpt>
      <trkpt lat="45.86826" lon="6.77478">
        <ele>1538</ele>
        <time>2026-08-14T12:27:09.540Z</time>
      </trkpt>
      <trkpt lat="45.86826" lon="6.77477">
        <ele>1538</ele>
        <time>2026-08-14T12:27:10.540Z</time>
      </trkpt>
      <trkpt lat="45.86826" lon="6.77475">
        <ele>1539</ele>
        <time>2026-08-14T12:27:11.540Z</time>
      </trkpt>
      <trkpt lat="45.86826" lon="6.77474">
        <ele>1539</ele>
        <time>2026-08-14T12:27:12.540Z</time>
      </trkpt>
      <trkpt lat="45.86826" lon="6.77472">
        <ele>1539</ele>
        <time>2026-08-14T12:27:13.540Z</time>
      </trkpt>
      <trkpt lat="45.86826" lon="6.7747">
        <ele>1540</ele>
        <time>2026-08-14T12:27:14.540Z</time>
      </trkpt>
      <trkpt lat="45.86826" lon="6.77468">
        <ele>1540</ele>
        <time>2026-08-14T12:27:15.540Z</time>
      </trkpt>
      <trkpt lat="45.86827" lon="6.77467">
        <ele>1541</ele>
        <time>2026-08-14T12:27:16.540Z</time>
      </trkpt>
      <trkpt lat="45.86827" lon="6.77466">
        <ele>1541</ele>
        <time>2026-08-14T12:27:17.540Z</time>
      </trkpt>
      <trkpt lat="45.86827" lon="6.77465">
        <ele>1542</ele>
        <time>2026-08-14T12:27:18.540Z</time>
      </trkpt>
      <trkpt lat="45.86828" lon="6.77464">
        <ele>1542</ele>
        <time>2026-08-14T12:27:19.540Z</time>
      </trkpt>
      <trkpt lat="45.86828" lon="6.77463">
        <ele>1543</ele>
        <time>2026-08-14T12:27:20.540Z</time>
      </trkpt>
      <trkpt lat="45.86829" lon="6.77462">
        <ele>1543</ele>
        <time>2026-08-14T12:27:21.540Z</time>
      </trkpt>
      <trkpt lat="45.8683" lon="6.77461">
        <ele>1544</ele>
        <time>2026-08-14T12:27:22.540Z</time>
      </trkpt>
      <trkpt lat="45.86831" lon="6.7746">
        <ele>1545</ele>
        <time>2026-08-14T12:27:23.540Z</time>
      </trkpt>
      <trkpt lat="45.86831" lon="6.77458">
        <ele>1545</ele>
        <time>2026-08-14T12:27:24.540Z</time>
      </trkpt>
      <trkpt lat="45.86832" lon="6.77457">
        <ele>1545</ele>
        <time>2026-08-14T12:27:25.540Z</time>
      </trkpt>
      <trkpt lat="45.86833" lon="6.77455">
        <ele>1546</ele>
        <time>2026-08-14T12:27:26.540Z</time>
      </trkpt>
      <trkpt lat="45.86834" lon="6.77453">
        <ele>1546</ele>
        <time>2026-08-14T12:27:27.540Z</time>
      </trkpt>
      <trkpt lat="45.86834" lon="6.77452">
        <ele>1546</ele>
        <time>2026-08-14T12:27:28.540Z</time>
      </trkpt>
      <trkpt lat="45.86834" lon="6.77451">
        <ele>1547</ele>
        <time>2026-08-14T12:27:29.540Z</time>
      </trkpt>
      <trkpt lat="45.86834" lon="6.77449">
        <ele>1547</ele>
        <time>2026-08-14T12:27:30.540Z</time>
      </trkpt>
      <trkpt lat="45.86834" lon="6.77449">
        <ele>1547</ele>
        <time>2026-08-14T12:27:31.540Z</time>
      </trkpt>
      <trkpt lat="45.86834" lon="6.77448">
        <ele>1547</ele>
        <time>2026-08-14T12:27:32.540Z</time>
      </trkpt>
      <trkpt lat="45.86834" lon="6.77447">
        <ele>1548</ele>
        <time>2026-08-14T12:27:33.540Z</time>
      </trkpt>
      <trkpt lat="45.86834" lon="6.77446">
        <ele>1548</ele>
        <time>2026-08-14T12:27:34.540Z</time>
      </trkpt>
      <trkpt lat="45.86834" lon="6.77445">
        <ele>1548</ele>
        <time>2026-08-14T12:27:35.540Z</time>
      </trkpt>
      <trkpt lat="45.86834" lon="6.77444">
        <ele>1548</ele>
        <time>2026-08-14T12:27:36.540Z</time>
      </trkpt>
      <trkpt lat="45.86834" lon="6.77442">
        <ele>1548</ele>
        <time>2026-08-14T12:27:37.540Z</time>
      </trkpt>
      <trkpt lat="45.86835" lon="6.77441">
        <ele>1547</ele>
        <time>2026-08-14T12:27:38.540Z</time>
      </trkpt>
      <trkpt lat="45.86835" lon="6.77439">
        <ele>1547</ele>
        <time>2026-08-14T12:27:39.540Z</time>
      </trkpt>
      <trkpt lat="45.86836" lon="6.77437">
        <ele>1547</ele>
        <time>2026-08-14T12:27:40.540Z</time>
      </trkpt>
      <trkpt lat="45.86836" lon="6.77436">
        <ele>1547</ele>
        <time>2026-08-14T12:27:41.540Z</time>
      </trkpt>
      <trkpt lat="45.86836" lon="6.77436">
        <ele>1547</ele>
        <time>2026-08-14T12:27:42.540Z</time>
      </trkpt>
      <trkpt lat="45.86836" lon="6.77434">
        <ele>1547</ele>
        <time>2026-08-14T12:27:43.540Z</time>
      </trkpt>
      <trkpt lat="45.86837" lon="6.77433">
        <ele>1547</ele>
        <time>2026-08-14T12:27:44.540Z</time>
      </trkpt>
      <trkpt lat="45.86837" lon="6.77432">
        <ele>1547</ele>
        <time>2026-08-14T12:27:45.540Z</time>
      </trkpt>
      <trkpt lat="45.86837" lon="6.77431">
        <ele>1547</ele>
        <time>2026-08-14T12:27:46.540Z</time>
      </trkpt>
      <trkpt lat="45.86838" lon="6.7743">
        <ele>1547</ele>
        <time>2026-08-14T12:27:47.540Z</time>
      </trkpt>
      <trkpt lat="45.86837" lon="6.77429">
        <ele>1547</ele>
        <time>2026-08-14T12:27:48.540Z</time>
      </trkpt>
      <trkpt lat="45.86837" lon="6.77428">
        <ele>1548</ele>
        <time>2026-08-14T12:27:49.540Z</time>
      </trkpt>
      <trkpt lat="45.86837" lon="6.77427">
        <ele>1548</ele>
        <time>2026-08-14T12:27:50.540Z</time>
      </trkpt>
      <trkpt lat="45.86838" lon="6.77426">
        <ele>1548</ele>
        <time>2026-08-14T12:27:51.540Z</time>
      </trkpt>
      <trkpt lat="45.86839" lon="6.77425">
        <ele>1548</ele>
        <time>2026-08-14T12:27:52.540Z</time>
      </trkpt>
      <trkpt lat="45.86839" lon="6.77424">
        <ele>1548</ele>
        <time>2026-08-14T12:27:53.540Z</time>
      </trkpt>
      <trkpt lat="45.8684" lon="6.77422">
        <ele>1549</ele>
        <time>2026-08-14T12:27:54.540Z</time>
      </trkpt>
      <trkpt lat="45.86841" lon="6.77421">
        <ele>1549</ele>
        <time>2026-08-14T12:27:55.540Z</time>
      </trkpt>
      <trkpt lat="45.86841" lon="6.77418">
        <ele>1549</ele>
        <time>2026-08-14T12:27:56.540Z</time>
      </trkpt>
      <trkpt lat="45.86841" lon="6.77416">
        <ele>1549</ele>
        <time>2026-08-14T12:27:57.540Z</time>
      </trkpt>
      <trkpt lat="45.86841" lon="6.77415">
        <ele>1549</ele>
        <time>2026-08-14T12:27:58.540Z</time>
      </trkpt>
      <trkpt lat="45.86841" lon="6.77413">
        <ele>1550</ele>
        <time>2026-08-14T12:27:59.540Z</time>
      </trkpt>
      <trkpt lat="45.86842" lon="6.77412">
        <ele>1550</ele>
        <time>2026-08-14T12:28:00.540Z</time>
      </trkpt>
      <trkpt lat="45.86842" lon="6.7741">
        <ele>1550</ele>
        <time>2026-08-14T12:28:01.540Z</time>
      </trkpt>
      <trkpt lat="45.86841" lon="6.77408">
        <ele>1550</ele>
        <time>2026-08-14T12:28:02.540Z</time>
      </trkpt>
      <trkpt lat="45.86841" lon="6.77407">
        <ele>1550</ele>
        <time>2026-08-14T12:28:03.540Z</time>
      </trkpt>
      <trkpt lat="45.86841" lon="6.77406">
        <ele>1550</ele>
        <time>2026-08-14T12:28:04.540Z</time>
      </trkpt>
      <trkpt lat="45.86842" lon="6.77405">
        <ele>1549</ele>
        <time>2026-08-14T12:28:05.540Z</time>
      </trkpt>
      <trkpt lat="45.86842" lon="6.77404">
        <ele>1549</ele>
        <time>2026-08-14T12:28:06.540Z</time>
      </trkpt>
      <trkpt lat="45.86843" lon="6.77403">
        <ele>1549</ele>
        <time>2026-08-14T12:28:07.540Z</time>
      </trkpt>
      <trkpt lat="45.86843" lon="6.77402">
        <ele>1549</ele>
        <time>2026-08-14T12:28:08.540Z</time>
      </trkpt>
      <trkpt lat="45.86843" lon="6.77401">
        <ele>1549</ele>
        <time>2026-08-14T12:28:09.540Z</time>
      </trkpt>
      <trkpt lat="45.86843" lon="6.774">
        <ele>1549</ele>
        <time>2026-08-14T12:28:10.540Z</time>
      </trkpt>
      <trkpt lat="45.86843" lon="6.774">
        <ele>1549</ele>
        <time>2026-08-14T12:28:11.540Z</time>
      </trkpt>
      <trkpt lat="45.86843" lon="6.77399">
        <ele>1548</ele>
        <time>2026-08-14T12:28:12.540Z</time>
      </trkpt>
      <trkpt lat="45.86843" lon="6.77398">
        <ele>1548</ele>
        <time>2026-08-14T12:28:13.540Z</time>
      </trkpt>
      <trkpt lat="45.86843" lon="6.77396">
        <ele>1548</ele>
        <time>2026-08-14T12:28:14.540Z</time>
      </trkpt>
      <trkpt lat="45.86843" lon="6.77395">
        <ele>1547</ele>
        <time>2026-08-14T12:28:15.540Z</time>
      </trkpt>
      <trkpt lat="45.86843" lon="6.77394">
        <ele>1547</ele>
        <time>2026-08-14T12:28:16.540Z</time>
      </trkpt>
      <trkpt lat="45.86844" lon="6.77393">
        <ele>1547</ele>
        <time>2026-08-14T12:28:17.540Z</time>
      </trkpt>
      <trkpt lat="45.86844" lon="6.77393">
        <ele>1546</ele>
        <time>2026-08-14T12:28:18.540Z</time>
      </trkpt>
      <trkpt lat="45.86844" lon="6.77392">
        <ele>1546</ele>
        <time>2026-08-14T12:28:19.540Z</time>
      </trkpt>
      <trkpt lat="45.86845" lon="6.77391">
        <ele>1546</ele>
        <time>2026-08-14T12:28:20.540Z</time>
      </trkpt>
      <trkpt lat="45.86845" lon="6.7739">
        <ele>1545</ele>
        <time>2026-08-14T12:28:21.540Z</time>
      </trkpt>
      <trkpt lat="45.86845" lon="6.7739">
        <ele>1545</ele>
        <time>2026-08-14T12:28:22.540Z</time>
      </trkpt>
      <trkpt lat="45.86846" lon="6.77389">
        <ele>1545</ele>
        <time>2026-08-14T12:28:23.540Z</time>
      </trkpt>
      <trkpt lat="45.86847" lon="6.77387">
        <ele>1545</ele>
        <time>2026-08-14T12:28:24.540Z</time>
      </trkpt>
      <trkpt lat="45.86847" lon="6.77385">
        <ele>1545</ele>
        <time>2026-08-14T12:28:25.540Z</time>
      </trkpt>
      <trkpt lat="45.86848" lon="6.77383">
        <ele>1544</ele>
        <time>2026-08-14T12:28:26.540Z</time>
      </trkpt>
      <trkpt lat="45.86848" lon="6.77382">
        <ele>1544</ele>
        <time>2026-08-14T12:28:27.540Z</time>
      </trkpt>
      <trkpt lat="45.86848" lon="6.7738">
        <ele>1544</ele>
        <time>2026-08-14T12:28:28.540Z</time>
      </trkpt>
      <trkpt lat="45.86849" lon="6.77379">
        <ele>1543</ele>
        <time>2026-08-14T12:28:29.540Z</time>
      </trkpt>
      <trkpt lat="45.86849" lon="6.77378">
        <ele>1543</ele>
        <time>2026-08-14T12:28:30.540Z</time>
      </trkpt>
      <trkpt lat="45.8685" lon="6.77376">
        <ele>1543</ele>
        <time>2026-08-14T12:28:31.540Z</time>
      </trkpt>
      <trkpt lat="45.8685" lon="6.77375">
        <ele>1543</ele>
        <time>2026-08-14T12:28:32.540Z</time>
      </trkpt>
      <trkpt lat="45.8685" lon="6.77373">
        <ele>1543</ele>
        <time>2026-08-14T12:28:33.540Z</time>
      </trkpt>
      <trkpt lat="45.86851" lon="6.77372">
        <ele>1543</ele>
        <time>2026-08-14T12:28:34.540Z</time>
      </trkpt>
      <trkpt lat="45.86851" lon="6.77371">
        <ele>1542</ele>
        <time>2026-08-14T12:28:35.540Z</time>
      </trkpt>
      <trkpt lat="45.86851" lon="6.77369">
        <ele>1542</ele>
        <time>2026-08-14T12:28:36.540Z</time>
      </trkpt>
      <trkpt lat="45.86851" lon="6.77368">
        <ele>1542</ele>
        <time>2026-08-14T12:28:37.540Z</time>
      </trkpt>
      <trkpt lat="45.86852" lon="6.77366">
        <ele>1542</ele>
        <time>2026-08-14T12:28:38.540Z</time>
      </trkpt>
      <trkpt lat="45.86853" lon="6.77365">
        <ele>1542</ele>
        <time>2026-08-14T12:28:39.540Z</time>
      </trkpt>
      <trkpt lat="45.86854" lon="6.77365">
        <ele>1542</ele>
        <time>2026-08-14T12:28:40.540Z</time>
      </trkpt>
      <trkpt lat="45.86854" lon="6.77364">
        <ele>1542</ele>
        <time>2026-08-14T12:28:41.540Z</time>
      </trkpt>
      <trkpt lat="45.86854" lon="6.77363">
        <ele>1541</ele>
        <time>2026-08-14T12:28:42.540Z</time>
      </trkpt>
      <trkpt lat="45.86854" lon="6.77361">
        <ele>1541</ele>
        <time>2026-08-14T12:28:43.540Z</time>
      </trkpt>
      <trkpt lat="45.86854" lon="6.7736">
        <ele>1541</ele>
        <time>2026-08-14T12:28:44.540Z</time>
      </trkpt>
      <trkpt lat="45.86855" lon="6.77358">
        <ele>1541</ele>
        <time>2026-08-14T12:28:45.540Z</time>
      </trkpt>
      <trkpt lat="45.86856" lon="6.77358">
        <ele>1541</ele>
        <time>2026-08-14T12:28:46.540Z</time>
      </trkpt>
      <trkpt lat="45.86856" lon="6.77357">
        <ele>1541</ele>
        <time>2026-08-14T12:28:47.540Z</time>
      </trkpt>
      <trkpt lat="45.86857" lon="6.77355">
        <ele>1542</ele>
        <time>2026-08-14T12:28:48.540Z</time>
      </trkpt>
      <trkpt lat="45.86858" lon="6.77355">
        <ele>1542</ele>
        <time>2026-08-14T12:28:49.540Z</time>
      </trkpt>
      <trkpt lat="45.86858" lon="6.77353">
        <ele>1543</ele>
        <time>2026-08-14T12:28:50.540Z</time>
      </trkpt>
      <trkpt lat="45.86858" lon="6.77351">
        <ele>1543</ele>
        <time>2026-08-14T12:28:51.540Z</time>
      </trkpt>
      <trkpt lat="45.86858" lon="6.77349">
        <ele>1544</ele>
        <time>2026-08-14T12:28:52.540Z</time>
      </trkpt>
      <trkpt lat="45.86859" lon="6.77347">
        <ele>1544</ele>
        <time>2026-08-14T12:28:53.540Z</time>
      </trkpt>
      <trkpt lat="45.8686" lon="6.77346">
        <ele>1545</ele>
        <time>2026-08-14T12:28:54.540Z</time>
      </trkpt>
      <trkpt lat="45.8686" lon="6.77344">
        <ele>1545</ele>
        <time>2026-08-14T12:28:55.540Z</time>
      </trkpt>
      <trkpt lat="45.86861" lon="6.77344">
        <ele>1546</ele>
        <time>2026-08-14T12:28:56.540Z</time>
      </trkpt>
      <trkpt lat="45.86861" lon="6.77342">
        <ele>1546</ele>
        <time>2026-08-14T12:28:57.540Z</time>
      </trkpt>
      <trkpt lat="45.86862" lon="6.77341">
        <ele>1546</ele>
        <time>2026-08-14T12:28:58.540Z</time>
      </trkpt>
      <trkpt lat="45.86863" lon="6.7734">
        <ele>1546</ele>
        <time>2026-08-14T12:28:59.540Z</time>
      </trkpt>
      <trkpt lat="45.86863" lon="6.77339">
        <ele>1546</ele>
        <time>2026-08-14T12:29:00.540Z</time>
      </trkpt>
      <trkpt lat="45.86863" lon="6.77337">
        <ele>1546</ele>
        <time>2026-08-14T12:29:01.540Z</time>
      </trkpt>
      <trkpt lat="45.86864" lon="6.77336">
        <ele>1547</ele>
        <time>2026-08-14T12:29:02.540Z</time>
      </trkpt>
      <trkpt lat="45.86864" lon="6.77335">
        <ele>1547</ele>
        <time>2026-08-14T12:29:03.540Z</time>
      </trkpt>
      <trkpt lat="45.86865" lon="6.77333">
        <ele>1547</ele>
        <time>2026-08-14T12:29:04.540Z</time>
      </trkpt>
      <trkpt lat="45.86865" lon="6.77332">
        <ele>1548</ele>
        <time>2026-08-14T12:29:05.540Z</time>
      </trkpt>
      <trkpt lat="45.86866" lon="6.7733">
        <ele>1548</ele>
        <time>2026-08-14T12:29:06.540Z</time>
      </trkpt>
      <trkpt lat="45.86866" lon="6.77329">
        <ele>1548</ele>
        <time>2026-08-14T12:29:07.540Z</time>
      </trkpt>
      <trkpt lat="45.86867" lon="6.77328">
        <ele>1548</ele>
        <time>2026-08-14T12:29:08.540Z</time>
      </trkpt>
      <trkpt lat="45.86868" lon="6.77328">
        <ele>1548</ele>
        <time>2026-08-14T12:29:09.540Z</time>
      </trkpt>
      <trkpt lat="45.86869" lon="6.77327">
        <ele>1548</ele>
        <time>2026-08-14T12:29:10.540Z</time>
      </trkpt>
      <trkpt lat="45.8687" lon="6.77327">
        <ele>1548</ele>
        <time>2026-08-14T12:29:11.540Z</time>
      </trkpt>
      <trkpt lat="45.86871" lon="6.77327">
        <ele>1547</ele>
        <time>2026-08-14T12:29:12.540Z</time>
      </trkpt>
      <trkpt lat="45.86872" lon="6.77326">
        <ele>1547</ele>
        <time>2026-08-14T12:29:13.540Z</time>
      </trkpt>
      <trkpt lat="45.86872" lon="6.77325">
        <ele>1547</ele>
        <time>2026-08-14T12:29:14.540Z</time>
      </trkpt>
      <trkpt lat="45.86873" lon="6.77323">
        <ele>1547</ele>
        <time>2026-08-14T12:29:15.540Z</time>
      </trkpt>
      <trkpt lat="45.86874" lon="6.77323">
        <ele>1547</ele>
        <time>2026-08-14T12:29:16.540Z</time>
      </trkpt>
      <trkpt lat="45.86875" lon="6.77323">
        <ele>1547</ele>
        <time>2026-08-14T12:29:17.540Z</time>
      </trkpt>
      <trkpt lat="45.86876" lon="6.77322">
        <ele>1548</ele>
        <time>2026-08-14T12:29:18.540Z</time>
      </trkpt>
      <trkpt lat="45.86877" lon="6.77322">
        <ele>1548</ele>
        <time>2026-08-14T12:29:19.540Z</time>
      </trkpt>
      <trkpt lat="45.86878" lon="6.77322">
        <ele>1547</ele>
        <time>2026-08-14T12:29:20.540Z</time>
      </trkpt>
      <trkpt lat="45.8688" lon="6.77322">
        <ele>1547</ele>
        <time>2026-08-14T12:29:21.540Z</time>
      </trkpt>
      <trkpt lat="45.86881" lon="6.77322">
        <ele>1546</ele>
        <time>2026-08-14T12:29:22.540Z</time>
      </trkpt>
      <trkpt lat="45.86882" lon="6.77323">
        <ele>1546</ele>
        <time>2026-08-14T12:29:23.540Z</time>
      </trkpt>
      <trkpt lat="45.86883" lon="6.77323">
        <ele>1546</ele>
        <time>2026-08-14T12:29:24.540Z</time>
      </trkpt>
      <trkpt lat="45.86883" lon="6.77323">
        <ele>1545</ele>
        <time>2026-08-14T12:29:25.540Z</time>
      </trkpt>
      <trkpt lat="45.86883" lon="6.77323">
        <ele>1545</ele>
        <time>2026-08-14T12:29:26.540Z</time>
      </trkpt>
      <trkpt lat="45.86883" lon="6.77324">
        <ele>1545</ele>
        <time>2026-08-14T12:29:27.540Z</time>
      </trkpt>
      <trkpt lat="45.86883" lon="6.77324">
        <ele>1545</ele>
        <time>2026-08-14T12:29:28.540Z</time>
      </trkpt>
      <trkpt lat="45.86883" lon="6.77324">
        <ele>1545</ele>
        <time>2026-08-14T12:29:29.540Z</time>
      </trkpt>
      <trkpt lat="45.86884" lon="6.77323">
        <ele>1545</ele>
        <time>2026-08-14T12:29:30.540Z</time>
      </trkpt>
      <trkpt lat="45.86884" lon="6.77323">
        <ele>1545</ele>
        <time>2026-08-14T12:29:31.540Z</time>
      </trkpt>
      <trkpt lat="45.86884" lon="6.77323">
        <ele>1545</ele>
        <time>2026-08-14T12:29:32.540Z</time>
      </trkpt>
      <trkpt lat="45.86884" lon="6.77322">
        <ele>1545</ele>
        <time>2026-08-14T12:29:33.540Z</time>
      </trkpt>
      <trkpt lat="45.86885" lon="6.77321">
        <ele>1545</ele>
        <time>2026-08-14T12:29:34.540Z</time>
      </trkpt>
      <trkpt lat="45.86885" lon="6.77319">
        <ele>1545</ele>
        <time>2026-08-14T12:29:35.540Z</time>
      </trkpt>
      <trkpt lat="45.86885" lon="6.77319">
        <ele>1545</ele>
        <time>2026-08-14T12:29:36.540Z</time>
      </trkpt>
      <trkpt lat="45.86886" lon="6.77318">
        <ele>1545</ele>
        <time>2026-08-14T12:29:37.540Z</time>
      </trkpt>
      <trkpt lat="45.86885" lon="6.77317">
        <ele>1545</ele>
        <time>2026-08-14T12:29:38.540Z</time>
      </trkpt>
      <trkpt lat="45.86885" lon="6.77316">
        <ele>1545</ele>
        <time>2026-08-14T12:29:39.540Z</time>
      </trkpt>
      <trkpt lat="45.86885" lon="6.77315">
        <ele>1545</ele>
        <time>2026-08-14T12:29:40.540Z</time>
      </trkpt>
      <trkpt lat="45.86885" lon="6.77314">
        <ele>1545</ele>
        <time>2026-08-14T12:29:41.540Z</time>
      </trkpt>
      <trkpt lat="45.86884" lon="6.77313">
        <ele>1546</ele>
        <time>2026-08-14T12:29:42.540Z</time>
      </trkpt>
      <trkpt lat="45.86884" lon="6.77312">
        <ele>1546</ele>
        <time>2026-08-14T12:29:43.540Z</time>
      </trkpt>
      <trkpt lat="45.86883" lon="6.77312">
        <ele>1546</ele>
        <time>2026-08-14T12:29:44.540Z</time>
      </trkpt>
      <trkpt lat="45.86883" lon="6.77311">
        <ele>1546</ele>
        <time>2026-08-14T12:29:45.540Z</time>
      </trkpt>
      <trkpt lat="45.86883" lon="6.77311">
        <ele>1545</ele>
        <time>2026-08-14T12:29:46.540Z</time>
      </trkpt>
      <trkpt lat="45.86882" lon="6.7731">
        <ele>1545</ele>
        <time>2026-08-14T12:29:47.540Z</time>
      </trkpt>
      <trkpt lat="45.86882" lon="6.77309">
        <ele>1545</ele>
        <time>2026-08-14T12:29:48.540Z</time>
      </trkpt>
      <trkpt lat="45.86883" lon="6.77308">
        <ele>1545</ele>
        <time>2026-08-14T12:29:49.540Z</time>
      </trkpt>
      <trkpt lat="45.86883" lon="6.77307">
        <ele>1545</ele>
        <time>2026-08-14T12:29:50.540Z</time>
      </trkpt>
      <trkpt lat="45.86883" lon="6.77305">
        <ele>1546</ele>
        <time>2026-08-14T12:29:51.540Z</time>
      </trkpt>
      <trkpt lat="45.86883" lon="6.77304">
        <ele>1546</ele>
        <time>2026-08-14T12:29:52.540Z</time>
      </trkpt>
      <trkpt lat="45.86883" lon="6.77303">
        <ele>1546</ele>
        <time>2026-08-14T12:29:53.540Z</time>
      </trkpt>
      <trkpt lat="45.86883" lon="6.77302">
        <ele>1546</ele>
        <time>2026-08-14T12:29:54.540Z</time>
      </trkpt>
      <trkpt lat="45.86883" lon="6.77301">
        <ele>1546</ele>
        <time>2026-08-14T12:29:55.540Z</time>
      </trkpt>
      <trkpt lat="45.86883" lon="6.773">
        <ele>1546</ele>
        <time>2026-08-14T12:29:56.540Z</time>
      </trkpt>
      <trkpt lat="45.86883" lon="6.77299">
        <ele>1547</ele>
        <time>2026-08-14T12:29:57.540Z</time>
      </trkpt>
      <trkpt lat="45.86883" lon="6.77298">
        <ele>1547</ele>
        <time>2026-08-14T12:29:58.540Z</time>
      </trkpt>
      <trkpt lat="45.86883" lon="6.77297">
        <ele>1547</ele>
        <time>2026-08-14T12:29:59.540Z</time>
      </trkpt>
      <trkpt lat="45.86884" lon="6.77295">
        <ele>1547</ele>
        <time>2026-08-14T12:30:00.540Z</time>
      </trkpt>
      <trkpt lat="45.86884" lon="6.77294">
        <ele>1547</ele>
        <time>2026-08-14T12:30:01.540Z</time>
      </trkpt>
      <trkpt lat="45.86883" lon="6.77293">
        <ele>1547</ele>
        <time>2026-08-14T12:30:02.540Z</time>
      </trkpt>
      <trkpt lat="45.86883" lon="6.77292">
        <ele>1547</ele>
        <time>2026-08-14T12:30:03.540Z</time>
      </trkpt>
      <trkpt lat="45.86883" lon="6.77292">
        <ele>1547</ele>
        <time>2026-08-14T12:30:04.540Z</time>
      </trkpt>
      <trkpt lat="45.86882" lon="6.77291">
        <ele>1547</ele>
        <time>2026-08-14T12:30:05.540Z</time>
      </trkpt>
      <trkpt lat="45.86882" lon="6.7729">
        <ele>1547</ele>
        <time>2026-08-14T12:30:06.540Z</time>
      </trkpt>
      <trkpt lat="45.86881" lon="6.77289">
        <ele>1547</ele>
        <time>2026-08-14T12:30:07.540Z</time>
      </trkpt>
      <trkpt lat="45.8688" lon="6.77288">
        <ele>1547</ele>
        <time>2026-08-14T12:30:08.540Z</time>
      </trkpt>
      <trkpt lat="45.86879" lon="6.77288">
        <ele>1548</ele>
        <time>2026-08-14T12:30:09.540Z</time>
      </trkpt>
      <trkpt lat="45.86877" lon="6.77288">
        <ele>1549</ele>
        <time>2026-08-14T12:30:10.540Z</time>
      </trkpt>
      <trkpt lat="45.86876" lon="6.77287">
        <ele>1549</ele>
        <time>2026-08-14T12:30:11.540Z</time>
      </trkpt>
      <trkpt lat="45.86875" lon="6.77287">
        <ele>1550</ele>
        <time>2026-08-14T12:30:12.540Z</time>
      </trkpt>
      <trkpt lat="45.86874" lon="6.77286">
        <ele>1551</ele>
        <time>2026-08-14T12:30:13.540Z</time>
      </trkpt>
      <trkpt lat="45.86873" lon="6.77285">
        <ele>1551</ele>
        <time>2026-08-14T12:30:14.540Z</time>
      </trkpt>
      <trkpt lat="45.86872" lon="6.77285">
        <ele>1552</ele>
        <time>2026-08-14T12:30:15.540Z</time>
      </trkpt>
      <trkpt lat="45.8687" lon="6.77284">
        <ele>1552</ele>
        <time>2026-08-14T12:30:16.540Z</time>
      </trkpt>
      <trkpt lat="45.86869" lon="6.77282">
        <ele>1552</ele>
        <time>2026-08-14T12:30:17.540Z</time>
      </trkpt>
      <trkpt lat="45.86868" lon="6.7728">
        <ele>1552</ele>
        <time>2026-08-14T12:30:18.540Z</time>
      </trkpt>
      <trkpt lat="45.86868" lon="6.77279">
        <ele>1552</ele>
        <time>2026-08-14T12:30:19.540Z</time>
      </trkpt>
      <trkpt lat="45.86867" lon="6.77277">
        <ele>1552</ele>
        <time>2026-08-14T12:30:20.540Z</time>
      </trkpt>
      <trkpt lat="45.86866" lon="6.77276">
        <ele>1551</ele>
        <time>2026-08-14T12:30:21.540Z</time>
      </trkpt>
      <trkpt lat="45.86866" lon="6.77274">
        <ele>1551</ele>
        <time>2026-08-14T12:30:22.540Z</time>
      </trkpt>
      <trkpt lat="45.86865" lon="6.77272">
        <ele>1551</ele>
        <time>2026-08-14T12:30:23.540Z</time>
      </trkpt>
      <trkpt lat="45.86864" lon="6.77271">
        <ele>1551</ele>
        <time>2026-08-14T12:30:24.540Z</time>
      </trkpt>
      <trkpt lat="45.86863" lon="6.77269">
        <ele>1551</ele>
        <time>2026-08-14T12:30:25.540Z</time>
      </trkpt>
      <trkpt lat="45.86862" lon="6.77268">
        <ele>1550</ele>
        <time>2026-08-14T12:30:26.540Z</time>
      </trkpt>
      <trkpt lat="45.86861" lon="6.77267">
        <ele>1550</ele>
        <time>2026-08-14T12:30:27.540Z</time>
      </trkpt>
      <trkpt lat="45.86859" lon="6.77266">
        <ele>1549</ele>
        <time>2026-08-14T12:30:28.540Z</time>
      </trkpt>
      <trkpt lat="45.86858" lon="6.77264">
        <ele>1548</ele>
        <time>2026-08-14T12:30:29.540Z</time>
      </trkpt>
      <trkpt lat="45.86856" lon="6.77263">
        <ele>1547</ele>
        <time>2026-08-14T12:30:30.540Z</time>
      </trkpt>
      <trkpt lat="45.86854" lon="6.77261">
        <ele>1547</ele>
        <time>2026-08-14T12:30:31.540Z</time>
      </trkpt>
      <trkpt lat="45.86853" lon="6.7726">
        <ele>1546</ele>
        <time>2026-08-14T12:30:32.540Z</time>
      </trkpt>
      <trkpt lat="45.86852" lon="6.77259">
        <ele>1546</ele>
        <time>2026-08-14T12:30:33.540Z</time>
      </trkpt>
      <trkpt lat="45.86851" lon="6.77257">
        <ele>1545</ele>
        <time>2026-08-14T12:30:34.540Z</time>
      </trkpt>
      <trkpt lat="45.86851" lon="6.77255">
        <ele>1545</ele>
        <time>2026-08-14T12:30:35.540Z</time>
      </trkpt>
      <trkpt lat="45.8685" lon="6.77252">
        <ele>1545</ele>
        <time>2026-08-14T12:30:36.540Z</time>
      </trkpt>
      <trkpt lat="45.8685" lon="6.77249">
        <ele>1545</ele>
        <time>2026-08-14T12:30:37.540Z</time>
      </trkpt>
      <trkpt lat="45.86849" lon="6.77246">
        <ele>1545</ele>
        <time>2026-08-14T12:30:38.540Z</time>
      </trkpt>
      <trkpt lat="45.86848" lon="6.77243">
        <ele>1545</ele>
        <time>2026-08-14T12:30:39.540Z</time>
      </trkpt>
      <trkpt lat="45.86848" lon="6.77241">
        <ele>1545</ele>
        <time>2026-08-14T12:30:40.540Z</time>
      </trkpt>
      <trkpt lat="45.86848" lon="6.77238">
        <ele>1544</ele>
        <time>2026-08-14T12:30:41.540Z</time>
      </trkpt>
      <trkpt lat="45.86847" lon="6.77236">
        <ele>1544</ele>
        <time>2026-08-14T12:30:42.540Z</time>
      </trkpt>
      <trkpt lat="45.86847" lon="6.77233">
        <ele>1544</ele>
        <time>2026-08-14T12:30:43.540Z</time>
      </trkpt>
      <trkpt lat="45.86846" lon="6.77231">
        <ele>1544</ele>
        <time>2026-08-14T12:30:44.540Z</time>
      </trkpt>
      <trkpt lat="45.86846" lon="6.77228">
        <ele>1544</ele>
        <time>2026-08-14T12:30:45.540Z</time>
      </trkpt>
      <trkpt lat="45.86845" lon="6.77226">
        <ele>1544</ele>
        <time>2026-08-14T12:30:46.540Z</time>
      </trkpt>
      <trkpt lat="45.86844" lon="6.77223">
        <ele>1543</ele>
        <time>2026-08-14T12:30:47.541Z</time>
      </trkpt>
      <trkpt lat="45.86844" lon="6.7722">
        <ele>1543</ele>
        <time>2026-08-14T12:30:48.540Z</time>
      </trkpt>
      <trkpt lat="45.86844" lon="6.77217">
        <ele>1543</ele>
        <time>2026-08-14T12:30:49.540Z</time>
      </trkpt>
      <trkpt lat="45.86843" lon="6.77214">
        <ele>1542</ele>
        <time>2026-08-14T12:30:50.540Z</time>
      </trkpt>
      <trkpt lat="45.86842" lon="6.77212">
        <ele>1542</ele>
        <time>2026-08-14T12:30:51.540Z</time>
      </trkpt>
      <trkpt lat="45.86843" lon="6.7721">
        <ele>1542</ele>
        <time>2026-08-14T12:30:52.540Z</time>
      </trkpt>
      <trkpt lat="45.86842" lon="6.77208">
        <ele>1542</ele>
        <time>2026-08-14T12:30:53.540Z</time>
      </trkpt>
      <trkpt lat="45.86842" lon="6.77206">
        <ele>1542</ele>
        <time>2026-08-14T12:30:54.540Z</time>
      </trkpt>
      <trkpt lat="45.86842" lon="6.77203">
        <ele>1542</ele>
        <time>2026-08-14T12:30:55.540Z</time>
      </trkpt>
      <trkpt lat="45.86841" lon="6.772">
        <ele>1542</ele>
        <time>2026-08-14T12:30:56.540Z</time>
      </trkpt>
      <trkpt lat="45.86842" lon="6.77197">
        <ele>1543</ele>
        <time>2026-08-14T12:30:57.540Z</time>
      </trkpt>
      <trkpt lat="45.86842" lon="6.77194">
        <ele>1543</ele>
        <time>2026-08-14T12:30:58.540Z</time>
      </trkpt>
      <trkpt lat="45.86842" lon="6.77192">
        <ele>1544</ele>
        <time>2026-08-14T12:30:59.540Z</time>
      </trkpt>
      <trkpt lat="45.86842" lon="6.7719">
        <ele>1544</ele>
        <time>2026-08-14T12:31:00.540Z</time>
      </trkpt>
      <trkpt lat="45.86841" lon="6.77189">
        <ele>1544</ele>
        <time>2026-08-14T12:31:01.540Z</time>
      </trkpt>
      <trkpt lat="45.8684" lon="6.77187">
        <ele>1544</ele>
        <time>2026-08-14T12:31:02.540Z</time>
      </trkpt>
      <trkpt lat="45.86839" lon="6.77186">
        <ele>1544</ele>
        <time>2026-08-14T12:31:03.540Z</time>
      </trkpt>
      <trkpt lat="45.86837" lon="6.77184">
        <ele>1544</ele>
        <time>2026-08-14T12:31:04.540Z</time>
      </trkpt>
      <trkpt lat="45.86836" lon="6.77182">
        <ele>1544</ele>
        <time>2026-08-14T12:31:05.540Z</time>
      </trkpt>
      <trkpt lat="45.86835" lon="6.77178">
        <ele>1545</ele>
        <time>2026-08-14T12:31:06.540Z</time>
      </trkpt>
      <trkpt lat="45.86835" lon="6.77174">
        <ele>1545</ele>
        <time>2026-08-14T12:31:07.540Z</time>
      </trkpt>
      <trkpt lat="45.86835" lon="6.7717">
        <ele>1545</ele>
        <time>2026-08-14T12:31:08.540Z</time>
      </trkpt>
      <trkpt lat="45.86834" lon="6.77166">
        <ele>1545</ele>
        <time>2026-08-14T12:31:09.540Z</time>
      </trkpt>
      <trkpt lat="45.86834" lon="6.77162">
        <ele>1546</ele>
        <time>2026-08-14T12:31:10.540Z</time>
      </trkpt>
      <trkpt lat="45.86835" lon="6.77159">
        <ele>1546</ele>
        <time>2026-08-14T12:31:11.540Z</time>
      </trkpt>
      <trkpt lat="45.86835" lon="6.77157">
        <ele>1545</ele>
        <time>2026-08-14T12:31:12.540Z</time>
      </trkpt>
      <trkpt lat="45.86835" lon="6.77153">
        <ele>1545</ele>
        <time>2026-08-14T12:31:13.540Z</time>
      </trkpt>
      <trkpt lat="45.86835" lon="6.77149">
        <ele>1545</ele>
        <time>2026-08-14T12:31:14.540Z</time>
      </trkpt>
      <trkpt lat="45.86835" lon="6.77145">
        <ele>1545</ele>
        <time>2026-08-14T12:31:15.540Z</time>
      </trkpt>
      <trkpt lat="45.86835" lon="6.77141">
        <ele>1545</ele>
        <time>2026-08-14T12:31:16.540Z</time>
      </trkpt>
      <trkpt lat="45.86834" lon="6.77137">
        <ele>1545</ele>
        <time>2026-08-14T12:31:17.540Z</time>
      </trkpt>
      <trkpt lat="45.86834" lon="6.77134">
        <ele>1544</ele>
        <time>2026-08-14T12:31:18.540Z</time>
      </trkpt>
      <trkpt lat="45.86833" lon="6.77131">
        <ele>1544</ele>
        <time>2026-08-14T12:31:19.540Z</time>
      </trkpt>
      <trkpt lat="45.86832" lon="6.77129">
        <ele>1544</ele>
        <time>2026-08-14T12:31:20.540Z</time>
      </trkpt>
      <trkpt lat="45.86831" lon="6.77127">
        <ele>1544</ele>
        <time>2026-08-14T12:31:21.540Z</time>
      </trkpt>
      <trkpt lat="45.8683" lon="6.77125">
        <ele>1544</ele>
        <time>2026-08-14T12:31:22.540Z</time>
      </trkpt>
      <trkpt lat="45.86828" lon="6.77122">
        <ele>1544</ele>
        <time>2026-08-14T12:31:23.540Z</time>
      </trkpt>
      <trkpt lat="45.86828" lon="6.77119">
        <ele>1544</ele>
        <time>2026-08-14T12:31:24.540Z</time>
      </trkpt>
      <trkpt lat="45.86827" lon="6.77115">
        <ele>1543</ele>
        <time>2026-08-14T12:31:25.540Z</time>
      </trkpt>
      <trkpt lat="45.86827" lon="6.77111">
        <ele>1543</ele>
        <time>2026-08-14T12:31:26.540Z</time>
      </trkpt>
      <trkpt lat="45.86827" lon="6.77107">
        <ele>1542</ele>
        <time>2026-08-14T12:31:27.540Z</time>
      </trkpt>
      <trkpt lat="45.86826" lon="6.77103">
        <ele>1541</ele>
        <time>2026-08-14T12:31:28.540Z</time>
      </trkpt>
      <trkpt lat="45.86826" lon="6.77099">
        <ele>1541</ele>
        <time>2026-08-14T12:31:29.540Z</time>
      </trkpt>
      <trkpt lat="45.86825" lon="6.77096">
        <ele>1541</ele>
        <time>2026-08-14T12:31:30.540Z</time>
      </trkpt>
      <trkpt lat="45.86825" lon="6.77093">
        <ele>1540</ele>
        <time>2026-08-14T12:31:31.540Z</time>
      </trkpt>
      <trkpt lat="45.86824" lon="6.77091">
        <ele>1540</ele>
        <time>2026-08-14T12:31:32.540Z</time>
      </trkpt>
      <trkpt lat="45.86823" lon="6.77088">
        <ele>1540</ele>
        <time>2026-08-14T12:31:33.540Z</time>
      </trkpt>
      <trkpt lat="45.86822" lon="6.77085">
        <ele>1539</ele>
        <time>2026-08-14T12:31:34.540Z</time>
      </trkpt>
      <trkpt lat="45.86821" lon="6.77083">
        <ele>1539</ele>
        <time>2026-08-14T12:31:35.540Z</time>
      </trkpt>
      <trkpt lat="45.86819" lon="6.77081">
        <ele>1539</ele>
        <time>2026-08-14T12:31:36.540Z</time>
      </trkpt>
      <trkpt lat="45.86817" lon="6.77079">
        <ele>1539</ele>
        <time>2026-08-14T12:31:37.540Z</time>
      </trkpt>
      <trkpt lat="45.86815" lon="6.77077">
        <ele>1538</ele>
        <time>2026-08-14T12:31:38.540Z</time>
      </trkpt>
      <trkpt lat="45.86813" lon="6.77074">
        <ele>1538</ele>
        <time>2026-08-14T12:31:39.540Z</time>
      </trkpt>
      <trkpt lat="45.86811" lon="6.77071">
        <ele>1538</ele>
        <time>2026-08-14T12:31:40.540Z</time>
      </trkpt>
      <trkpt lat="45.8681" lon="6.77068">
        <ele>1537</ele>
        <time>2026-08-14T12:31:41.540Z</time>
      </trkpt>
      <trkpt lat="45.86809" lon="6.77066">
        <ele>1537</ele>
        <time>2026-08-14T12:31:42.540Z</time>
      </trkpt>
      <trkpt lat="45.86808" lon="6.77063">
        <ele>1537</ele>
        <time>2026-08-14T12:31:43.540Z</time>
      </trkpt>
      <trkpt lat="45.86806" lon="6.7706">
        <ele>1537</ele>
        <time>2026-08-14T12:31:44.540Z</time>
      </trkpt>
      <trkpt lat="45.86805" lon="6.77058">
        <ele>1537</ele>
        <time>2026-08-14T12:31:45.540Z</time>
      </trkpt>
      <trkpt lat="45.86803" lon="6.77056">
        <ele>1536</ele>
        <time>2026-08-14T12:31:46.540Z</time>
      </trkpt>
      <trkpt lat="45.86802" lon="6.77055">
        <ele>1536</ele>
        <time>2026-08-14T12:31:47.540Z</time>
      </trkpt>
      <trkpt lat="45.868" lon="6.77054">
        <ele>1536</ele>
        <time>2026-08-14T12:31:48.540Z</time>
      </trkpt>
      <trkpt lat="45.86799" lon="6.77052">
        <ele>1536</ele>
        <time>2026-08-14T12:31:49.540Z</time>
      </trkpt>
      <trkpt lat="45.86797" lon="6.77051">
        <ele>1535</ele>
        <time>2026-08-14T12:31:50.540Z</time>
      </trkpt>
      <trkpt lat="45.86796" lon="6.77049">
        <ele>1535</ele>
        <time>2026-08-14T12:31:51.540Z</time>
      </trkpt>
      <trkpt lat="45.86795" lon="6.77047">
        <ele>1535</ele>
        <time>2026-08-14T12:31:52.540Z</time>
      </trkpt>
      <trkpt lat="45.86794" lon="6.77046">
        <ele>1535</ele>
        <time>2026-08-14T12:31:53.540Z</time>
      </trkpt>
      <trkpt lat="45.86792" lon="6.77044">
        <ele>1535</ele>
        <time>2026-08-14T12:31:54.540Z</time>
      </trkpt>
      <trkpt lat="45.86791" lon="6.77043">
        <ele>1535</ele>
        <time>2026-08-14T12:31:55.540Z</time>
      </trkpt>
      <trkpt lat="45.8679" lon="6.77041">
        <ele>1535</ele>
        <time>2026-08-14T12:31:56.540Z</time>
      </trkpt>
      <trkpt lat="45.86789" lon="6.77038">
        <ele>1534</ele>
        <time>2026-08-14T12:31:57.540Z</time>
      </trkpt>
      <trkpt lat="45.86788" lon="6.77035">
        <ele>1534</ele>
        <time>2026-08-14T12:31:58.540Z</time>
      </trkpt>
      <trkpt lat="45.86788" lon="6.77032">
        <ele>1533</ele>
        <time>2026-08-14T12:31:59.540Z</time>
      </trkpt>
      <trkpt lat="45.86787" lon="6.77029">
        <ele>1533</ele>
        <time>2026-08-14T12:32:00.540Z</time>
      </trkpt>
      <trkpt lat="45.86786" lon="6.77027">
        <ele>1532</ele>
        <time>2026-08-14T12:32:01.540Z</time>
      </trkpt>
      <trkpt lat="45.86785" lon="6.77023">
        <ele>1532</ele>
        <time>2026-08-14T12:32:02.540Z</time>
      </trkpt>
      <trkpt lat="45.86784" lon="6.7702">
        <ele>1532</ele>
        <time>2026-08-14T12:32:03.540Z</time>
      </trkpt>
      <trkpt lat="45.86783" lon="6.77017">
        <ele>1532</ele>
        <time>2026-08-14T12:32:04.540Z</time>
      </trkpt>
      <trkpt lat="45.86782" lon="6.77013">
        <ele>1532</ele>
        <time>2026-08-14T12:32:05.540Z</time>
      </trkpt>
      <trkpt lat="45.86782" lon="6.77009">
        <ele>1531</ele>
        <time>2026-08-14T12:32:06.540Z</time>
      </trkpt>
      <trkpt lat="45.86781" lon="6.77007">
        <ele>1531</ele>
        <time>2026-08-14T12:32:07.540Z</time>
      </trkpt>
      <trkpt lat="45.8678" lon="6.77004">
        <ele>1531</ele>
        <time>2026-08-14T12:32:08.540Z</time>
      </trkpt>
      <trkpt lat="45.86779" lon="6.77001">
        <ele>1530</ele>
        <time>2026-08-14T12:32:09.540Z</time>
      </trkpt>
      <trkpt lat="45.86778" lon="6.76998">
        <ele>1530</ele>
        <time>2026-08-14T12:32:10.540Z</time>
      </trkpt>
      <trkpt lat="45.86777" lon="6.76995">
        <ele>1529</ele>
        <time>2026-08-14T12:32:11.540Z</time>
      </trkpt>
      <trkpt lat="45.86776" lon="6.76993">
        <ele>1529</ele>
        <time>2026-08-14T12:32:12.540Z</time>
      </trkpt>
      <trkpt lat="45.86775" lon="6.7699">
        <ele>1528</ele>
        <time>2026-08-14T12:32:13.540Z</time>
      </trkpt>
      <trkpt lat="45.86774" lon="6.76988">
        <ele>1527</ele>
        <time>2026-08-14T12:32:14.540Z</time>
      </trkpt>
      <trkpt lat="45.86773" lon="6.76985">
        <ele>1527</ele>
        <time>2026-08-14T12:32:15.540Z</time>
      </trkpt>
      <trkpt lat="45.86772" lon="6.76982">
        <ele>1526</ele>
        <time>2026-08-14T12:32:16.540Z</time>
      </trkpt>
      <trkpt lat="45.86771" lon="6.76979">
        <ele>1525</ele>
        <time>2026-08-14T12:32:17.540Z</time>
      </trkpt>
      <trkpt lat="45.8677" lon="6.76976">
        <ele>1525</ele>
        <time>2026-08-14T12:32:18.540Z</time>
      </trkpt>
      <trkpt lat="45.8677" lon="6.76973">
        <ele>1524</ele>
        <time>2026-08-14T12:32:19.540Z</time>
      </trkpt>
      <trkpt lat="45.8677" lon="6.7697">
        <ele>1524</ele>
        <time>2026-08-14T12:32:20.540Z</time>
      </trkpt>
      <trkpt lat="45.86769" lon="6.76967">
        <ele>1524</ele>
        <time>2026-08-14T12:32:21.540Z</time>
      </trkpt>
      <trkpt lat="45.86769" lon="6.76964">
        <ele>1523</ele>
        <time>2026-08-14T12:32:22.540Z</time>
      </trkpt>
      <trkpt lat="45.86769" lon="6.76961">
        <ele>1523</ele>
        <time>2026-08-14T12:32:23.540Z</time>
      </trkpt>
      <trkpt lat="45.86768" lon="6.76959">
        <ele>1522</ele>
        <time>2026-08-14T12:32:24.540Z</time>
      </trkpt>
      <trkpt lat="45.86768" lon="6.76956">
        <ele>1522</ele>
        <time>2026-08-14T12:32:25.540Z</time>
      </trkpt>
      <trkpt lat="45.86768" lon="6.76954">
        <ele>1521</ele>
        <time>2026-08-14T12:32:26.540Z</time>
      </trkpt>
      <trkpt lat="45.86767" lon="6.76952">
        <ele>1521</ele>
        <time>2026-08-14T12:32:27.540Z</time>
      </trkpt>
      <trkpt lat="45.86767" lon="6.76951">
        <ele>1520</ele>
        <time>2026-08-14T12:32:28.540Z</time>
      </trkpt>
      <trkpt lat="45.86766" lon="6.76948">
        <ele>1520</ele>
        <time>2026-08-14T12:32:29.540Z</time>
      </trkpt>
      <trkpt lat="45.86766" lon="6.76945">
        <ele>1520</ele>
        <time>2026-08-14T12:32:30.540Z</time>
      </trkpt>
      <trkpt lat="45.86766" lon="6.76943">
        <ele>1519</ele>
        <time>2026-08-14T12:32:31.540Z</time>
      </trkpt>
      <trkpt lat="45.86766" lon="6.7694">
        <ele>1519</ele>
        <time>2026-08-14T12:32:32.540Z</time>
      </trkpt>
      <trkpt lat="45.86766" lon="6.76938">
        <ele>1518</ele>
        <time>2026-08-14T12:32:33.540Z</time>
      </trkpt>
      <trkpt lat="45.86766" lon="6.76934">
        <ele>1517</ele>
        <time>2026-08-14T12:32:34.540Z</time>
      </trkpt>
      <trkpt lat="45.86766" lon="6.76932">
        <ele>1516</ele>
        <time>2026-08-14T12:32:35.540Z</time>
      </trkpt>
      <trkpt lat="45.86766" lon="6.76929">
        <ele>1516</ele>
        <time>2026-08-14T12:32:36.540Z</time>
      </trkpt>
      <trkpt lat="45.86767" lon="6.76926">
        <ele>1515</ele>
        <time>2026-08-14T12:32:37.540Z</time>
      </trkpt>
      <trkpt lat="45.86767" lon="6.76923">
        <ele>1515</ele>
        <time>2026-08-14T12:32:38.540Z</time>
      </trkpt>
      <trkpt lat="45.86767" lon="6.7692">
        <ele>1515</ele>
        <time>2026-08-14T12:32:39.540Z</time>
      </trkpt>
      <trkpt lat="45.86768" lon="6.76916">
        <ele>1514</ele>
        <time>2026-08-14T12:32:40.540Z</time>
      </trkpt>
      <trkpt lat="45.86769" lon="6.76913">
        <ele>1514</ele>
        <time>2026-08-14T12:32:41.540Z</time>
      </trkpt>
      <trkpt lat="45.86769" lon="6.76909">
        <ele>1514</ele>
        <time>2026-08-14T12:32:42.540Z</time>
      </trkpt>
      <trkpt lat="45.8677" lon="6.76906">
        <ele>1515</ele>
        <time>2026-08-14T12:32:43.540Z</time>
      </trkpt>
      <trkpt lat="45.86771" lon="6.76902">
        <ele>1515</ele>
        <time>2026-08-14T12:32:44.540Z</time>
      </trkpt>
      <trkpt lat="45.86772" lon="6.76899">
        <ele>1514</ele>
        <time>2026-08-14T12:32:45.540Z</time>
      </trkpt>
      <trkpt lat="45.86773" lon="6.76896">
        <ele>1514</ele>
        <time>2026-08-14T12:32:46.540Z</time>
      </trkpt>
      <trkpt lat="45.86774" lon="6.76893">
        <ele>1514</ele>
        <time>2026-08-14T12:32:47.540Z</time>
      </trkpt>
      <trkpt lat="45.86774" lon="6.7689">
        <ele>1513</ele>
        <time>2026-08-14T12:32:48.540Z</time>
      </trkpt>
      <trkpt lat="45.86774" lon="6.76888">
        <ele>1513</ele>
        <time>2026-08-14T12:32:49.540Z</time>
      </trkpt>
      <trkpt lat="45.86775" lon="6.76885">
        <ele>1513</ele>
        <time>2026-08-14T12:32:50.540Z</time>
      </trkpt>
      <trkpt lat="45.86775" lon="6.76882">
        <ele>1512</ele>
        <time>2026-08-14T12:32:51.540Z</time>
      </trkpt>
      <trkpt lat="45.86775" lon="6.76879">
        <ele>1512</ele>
        <time>2026-08-14T12:32:52.540Z</time>
      </trkpt>
      <trkpt lat="45.86775" lon="6.76876">
        <ele>1512</ele>
        <time>2026-08-14T12:32:53.540Z</time>
      </trkpt>
      <trkpt lat="45.86775" lon="6.76874">
        <ele>1512</ele>
        <time>2026-08-14T12:32:54.540Z</time>
      </trkpt>
      <trkpt lat="45.86775" lon="6.76871">
        <ele>1512</ele>
        <time>2026-08-14T12:32:55.540Z</time>
      </trkpt>
      <trkpt lat="45.86775" lon="6.76868">
        <ele>1512</ele>
        <time>2026-08-14T12:32:56.540Z</time>
      </trkpt>
      <trkpt lat="45.86775" lon="6.76866">
        <ele>1512</ele>
        <time>2026-08-14T12:32:57.540Z</time>
      </trkpt>
      <trkpt lat="45.86776" lon="6.76864">
        <ele>1512</ele>
        <time>2026-08-14T12:32:58.540Z</time>
      </trkpt>
      <trkpt lat="45.86776" lon="6.76861">
        <ele>1512</ele>
        <time>2026-08-14T12:32:59.540Z</time>
      </trkpt>
      <trkpt lat="45.86777" lon="6.76858">
        <ele>1511</ele>
        <time>2026-08-14T12:33:00.540Z</time>
      </trkpt>
      <trkpt lat="45.86778" lon="6.76855">
        <ele>1510</ele>
        <time>2026-08-14T12:33:01.540Z</time>
      </trkpt>
      <trkpt lat="45.86779" lon="6.76852">
        <ele>1510</ele>
        <time>2026-08-14T12:33:02.540Z</time>
      </trkpt>
      <trkpt lat="45.86779" lon="6.76848">
        <ele>1509</ele>
        <time>2026-08-14T12:33:03.540Z</time>
      </trkpt>
      <trkpt lat="45.86779" lon="6.76845">
        <ele>1508</ele>
        <time>2026-08-14T12:33:04.540Z</time>
      </trkpt>
      <trkpt lat="45.86779" lon="6.76842">
        <ele>1508</ele>
        <time>2026-08-14T12:33:05.540Z</time>
      </trkpt>
      <trkpt lat="45.86779" lon="6.76839">
        <ele>1507</ele>
        <time>2026-08-14T12:33:06.540Z</time>
      </trkpt>
      <trkpt lat="45.86779" lon="6.76835">
        <ele>1507</ele>
        <time>2026-08-14T12:33:07.540Z</time>
      </trkpt>
      <trkpt lat="45.8678" lon="6.76831">
        <ele>1507</ele>
        <time>2026-08-14T12:33:08.540Z</time>
      </trkpt>
      <trkpt lat="45.8678" lon="6.76827">
        <ele>1507</ele>
        <time>2026-08-14T12:33:09.540Z</time>
      </trkpt>
      <trkpt lat="45.86781" lon="6.76823">
        <ele>1507</ele>
        <time>2026-08-14T12:33:10.540Z</time>
      </trkpt>
      <trkpt lat="45.86781" lon="6.76819">
        <ele>1507</ele>
        <time>2026-08-14T12:33:11.540Z</time>
      </trkpt>
      <trkpt lat="45.86782" lon="6.76815">
        <ele>1507</ele>
        <time>2026-08-14T12:33:12.540Z</time>
      </trkpt>
      <trkpt lat="45.86782" lon="6.76811">
        <ele>1506</ele>
        <time>2026-08-14T12:33:13.540Z</time>
      </trkpt>
      <trkpt lat="45.86783" lon="6.76806">
        <ele>1505</ele>
        <time>2026-08-14T12:33:14.540Z</time>
      </trkpt>
      <trkpt lat="45.86783" lon="6.76802">
        <ele>1504</ele>
        <time>2026-08-14T12:33:15.540Z</time>
      </trkpt>
      <trkpt lat="45.86784" lon="6.76798">
        <ele>1503</ele>
        <time>2026-08-14T12:33:16.540Z</time>
      </trkpt>
      <trkpt lat="45.86785" lon="6.76794">
        <ele>1502</ele>
        <time>2026-08-14T12:33:17.540Z</time>
      </trkpt>
      <trkpt lat="45.86786" lon="6.7679">
        <ele>1501</ele>
        <time>2026-08-14T12:33:18.540Z</time>
      </trkpt>
      <trkpt lat="45.86786" lon="6.76786">
        <ele>1500</ele>
        <time>2026-08-14T12:33:19.540Z</time>
      </trkpt>
      <trkpt lat="45.86787" lon="6.76783">
        <ele>1500</ele>
        <time>2026-08-14T12:33:20.540Z</time>
      </trkpt>
      <trkpt lat="45.86788" lon="6.7678">
        <ele>1499</ele>
        <time>2026-08-14T12:33:21.540Z</time>
      </trkpt>
      <trkpt lat="45.86788" lon="6.76776">
        <ele>1499</ele>
        <time>2026-08-14T12:33:22.540Z</time>
      </trkpt>
      <trkpt lat="45.86789" lon="6.76773">
        <ele>1499</ele>
        <time>2026-08-14T12:33:23.540Z</time>
      </trkpt>
      <trkpt lat="45.86789" lon="6.7677">
        <ele>1498</ele>
        <time>2026-08-14T12:33:24.540Z</time>
      </trkpt>
      <trkpt lat="45.8679" lon="6.76767">
        <ele>1498</ele>
        <time>2026-08-14T12:33:25.540Z</time>
      </trkpt>
      <trkpt lat="45.8679" lon="6.76764">
        <ele>1498</ele>
        <time>2026-08-14T12:33:26.540Z</time>
      </trkpt>
      <trkpt lat="45.86791" lon="6.7676">
        <ele>1497</ele>
        <time>2026-08-14T12:33:27.540Z</time>
      </trkpt>
      <trkpt lat="45.86792" lon="6.76757">
        <ele>1497</ele>
        <time>2026-08-14T12:33:28.540Z</time>
      </trkpt>
      <trkpt lat="45.86793" lon="6.76753">
        <ele>1496</ele>
        <time>2026-08-14T12:33:29.540Z</time>
      </trkpt>
      <trkpt lat="45.86793" lon="6.76749">
        <ele>1496</ele>
        <time>2026-08-14T12:33:30.540Z</time>
      </trkpt>
      <trkpt lat="45.86794" lon="6.76746">
        <ele>1495</ele>
        <time>2026-08-14T12:33:31.540Z</time>
      </trkpt>
      <trkpt lat="45.86795" lon="6.76743">
        <ele>1495</ele>
        <time>2026-08-14T12:33:32.540Z</time>
      </trkpt>
      <trkpt lat="45.86796" lon="6.76739">
        <ele>1495</ele>
        <time>2026-08-14T12:33:33.540Z</time>
      </trkpt>
      <trkpt lat="45.86796" lon="6.76735">
        <ele>1494</ele>
        <time>2026-08-14T12:33:34.540Z</time>
      </trkpt>
      <trkpt lat="45.86797" lon="6.76731">
        <ele>1493</ele>
        <time>2026-08-14T12:33:35.540Z</time>
      </trkpt>
      <trkpt lat="45.86797" lon="6.76728">
        <ele>1493</ele>
        <time>2026-08-14T12:33:36.540Z</time>
      </trkpt>
      <trkpt lat="45.86797" lon="6.76724">
        <ele>1492</ele>
        <time>2026-08-14T12:33:37.540Z</time>
      </trkpt>
      <trkpt lat="45.86797" lon="6.76721">
        <ele>1492</ele>
        <time>2026-08-14T12:33:38.540Z</time>
      </trkpt>
      <trkpt lat="45.86797" lon="6.76717">
        <ele>1491</ele>
        <time>2026-08-14T12:33:39.540Z</time>
      </trkpt>
      <trkpt lat="45.86797" lon="6.76714">
        <ele>1490</ele>
        <time>2026-08-14T12:33:40.540Z</time>
      </trkpt>
      <trkpt lat="45.86797" lon="6.7671">
        <ele>1490</ele>
        <time>2026-08-14T12:33:41.540Z</time>
      </trkpt>
      <trkpt lat="45.86796" lon="6.76706">
        <ele>1489</ele>
        <time>2026-08-14T12:33:42.540Z</time>
      </trkpt>
      <trkpt lat="45.86796" lon="6.76701">
        <ele>1488</ele>
        <time>2026-08-14T12:33:43.540Z</time>
      </trkpt>
      <trkpt lat="45.86796" lon="6.76697">
        <ele>1488</ele>
        <time>2026-08-14T12:33:44.540Z</time>
      </trkpt>
      <trkpt lat="45.86795" lon="6.76692">
        <ele>1487</ele>
        <time>2026-08-14T12:33:45.540Z</time>
      </trkpt>
      <trkpt lat="45.86795" lon="6.76688">
        <ele>1487</ele>
        <time>2026-08-14T12:33:46.540Z</time>
      </trkpt>
      <trkpt lat="45.86795" lon="6.76683">
        <ele>1486</ele>
        <time>2026-08-14T12:33:47.540Z</time>
      </trkpt>
      <trkpt lat="45.86794" lon="6.76679">
        <ele>1486</ele>
        <time>2026-08-14T12:33:48.540Z</time>
      </trkpt>
      <trkpt lat="45.86794" lon="6.76675">
        <ele>1486</ele>
        <time>2026-08-14T12:33:49.540Z</time>
      </trkpt>
      <trkpt lat="45.86794" lon="6.76671">
        <ele>1485</ele>
        <time>2026-08-14T12:33:50.540Z</time>
      </trkpt>
      <trkpt lat="45.86794" lon="6.76667">
        <ele>1485</ele>
        <time>2026-08-14T12:33:51.540Z</time>
      </trkpt>
      <trkpt lat="45.86794" lon="6.76663">
        <ele>1484</ele>
        <time>2026-08-14T12:33:52.540Z</time>
      </trkpt>
      <trkpt lat="45.86795" lon="6.7666">
        <ele>1484</ele>
        <time>2026-08-14T12:33:53.540Z</time>
      </trkpt>
      <trkpt lat="45.86795" lon="6.76657">
        <ele>1484</ele>
        <time>2026-08-14T12:33:54.540Z</time>
      </trkpt>
      <trkpt lat="45.86795" lon="6.76653">
        <ele>1483</ele>
        <time>2026-08-14T12:33:55.540Z</time>
      </trkpt>
      <trkpt lat="45.86796" lon="6.76651">
        <ele>1483</ele>
        <time>2026-08-14T12:33:56.540Z</time>
      </trkpt>
      <trkpt lat="45.86796" lon="6.76648">
        <ele>1482</ele>
        <time>2026-08-14T12:33:57.540Z</time>
      </trkpt>
      <trkpt lat="45.86796" lon="6.76645">
        <ele>1482</ele>
        <time>2026-08-14T12:33:58.540Z</time>
      </trkpt>
      <trkpt lat="45.86797" lon="6.76642">
        <ele>1482</ele>
        <time>2026-08-14T12:33:59.540Z</time>
      </trkpt>
      <trkpt lat="45.86798" lon="6.76639">
        <ele>1481</ele>
        <time>2026-08-14T12:34:00.540Z</time>
      </trkpt>
      <trkpt lat="45.86798" lon="6.76636">
        <ele>1481</ele>
        <time>2026-08-14T12:34:01.540Z</time>
      </trkpt>
      <trkpt lat="45.86798" lon="6.76633">
        <ele>1481</ele>
        <time>2026-08-14T12:34:02.540Z</time>
      </trkpt>
      <trkpt lat="45.86797" lon="6.7663">
        <ele>1481</ele>
        <time>2026-08-14T12:34:03.540Z</time>
      </trkpt>
      <trkpt lat="45.86797" lon="6.76628">
        <ele>1480</ele>
        <time>2026-08-14T12:34:04.540Z</time>
      </trkpt>
      <trkpt lat="45.86796" lon="6.76626">
        <ele>1480</ele>
        <time>2026-08-14T12:34:05.540Z</time>
      </trkpt>
      <trkpt lat="45.86795" lon="6.76624">
        <ele>1480</ele>
        <time>2026-08-14T12:34:06.540Z</time>
      </trkpt>
      <trkpt lat="45.86794" lon="6.76622">
        <ele>1479</ele>
        <time>2026-08-14T12:34:07.540Z</time>
      </trkpt>
      <trkpt lat="45.86794" lon="6.7662">
        <ele>1479</ele>
        <time>2026-08-14T12:34:08.540Z</time>
      </trkpt>
      <trkpt lat="45.86795" lon="6.76616">
        <ele>1479</ele>
        <time>2026-08-14T12:34:09.540Z</time>
      </trkpt>
      <trkpt lat="45.86796" lon="6.76612">
        <ele>1478</ele>
        <time>2026-08-14T12:34:10.540Z</time>
      </trkpt>
      <trkpt lat="45.86797" lon="6.76609">
        <ele>1478</ele>
        <time>2026-08-14T12:34:11.540Z</time>
      </trkpt>
      <trkpt lat="45.86799" lon="6.76603">
        <ele>1478</ele>
        <time>2026-08-14T12:34:12.540Z</time>
      </trkpt>
      <trkpt lat="45.868" lon="6.76598">
        <ele>1477</ele>
        <time>2026-08-14T12:34:13.540Z</time>
      </trkpt>
      <trkpt lat="45.86801" lon="6.76595">
        <ele>1477</ele>
        <time>2026-08-14T12:34:14.540Z</time>
      </trkpt>
      <trkpt lat="45.86801" lon="6.76591">
        <ele>1477</ele>
        <time>2026-08-14T12:34:15.540Z</time>
      </trkpt>
      <trkpt lat="45.86801" lon="6.76587">
        <ele>1476</ele>
        <time>2026-08-14T12:34:16.540Z</time>
      </trkpt>
      <trkpt lat="45.86801" lon="6.76583">
        <ele>1476</ele>
        <time>2026-08-14T12:34:17.540Z</time>
      </trkpt>
      <trkpt lat="45.86802" lon="6.7658">
        <ele>1476</ele>
        <time>2026-08-14T12:34:18.540Z</time>
      </trkpt>
      <trkpt lat="45.86801" lon="6.76576">
        <ele>1476</ele>
        <time>2026-08-14T12:34:19.540Z</time>
      </trkpt>
      <trkpt lat="45.86801" lon="6.76573">
        <ele>1475</ele>
        <time>2026-08-14T12:34:20.540Z</time>
      </trkpt>
      <trkpt lat="45.868" lon="6.7657">
        <ele>1475</ele>
        <time>2026-08-14T12:34:21.540Z</time>
      </trkpt>
      <trkpt lat="45.868" lon="6.76567">
        <ele>1474</ele>
        <time>2026-08-14T12:34:22.540Z</time>
      </trkpt>
      <trkpt lat="45.868" lon="6.76563">
        <ele>1474</ele>
        <time>2026-08-14T12:34:23.540Z</time>
      </trkpt>
      <trkpt lat="45.86801" lon="6.76559">
        <ele>1474</ele>
        <time>2026-08-14T12:34:24.540Z</time>
      </trkpt>
      <trkpt lat="45.868" lon="6.76555">
        <ele>1473</ele>
        <time>2026-08-14T12:34:25.540Z</time>
      </trkpt>
      <trkpt lat="45.86801" lon="6.76551">
        <ele>1473</ele>
        <time>2026-08-14T12:34:26.540Z</time>
      </trkpt>
      <trkpt lat="45.86801" lon="6.76547">
        <ele>1472</ele>
        <time>2026-08-14T12:34:27.540Z</time>
      </trkpt>
      <trkpt lat="45.86802" lon="6.76543">
        <ele>1472</ele>
        <time>2026-08-14T12:34:28.540Z</time>
      </trkpt>
      <trkpt lat="45.86802" lon="6.7654">
        <ele>1471</ele>
        <time>2026-08-14T12:34:29.540Z</time>
      </trkpt>
      <trkpt lat="45.86803" lon="6.76537">
        <ele>1470</ele>
        <time>2026-08-14T12:34:30.540Z</time>
      </trkpt>
      <trkpt lat="45.86803" lon="6.76533">
        <ele>1470</ele>
        <time>2026-08-14T12:34:31.540Z</time>
      </trkpt>
      <trkpt lat="45.86804" lon="6.7653">
        <ele>1469</ele>
        <time>2026-08-14T12:34:32.540Z</time>
      </trkpt>
      <trkpt lat="45.86805" lon="6.76526">
        <ele>1469</ele>
        <time>2026-08-14T12:34:33.540Z</time>
      </trkpt>
      <trkpt lat="45.86805" lon="6.76523">
        <ele>1468</ele>
        <time>2026-08-14T12:34:34.540Z</time>
      </trkpt>
      <trkpt lat="45.86806" lon="6.76519">
        <ele>1468</ele>
        <time>2026-08-14T12:34:35.540Z</time>
      </trkpt>
      <trkpt lat="45.86806" lon="6.76516">
        <ele>1468</ele>
        <time>2026-08-14T12:34:36.540Z</time>
      </trkpt>
      <trkpt lat="45.86807" lon="6.76512">
        <ele>1467</ele>
        <time>2026-08-14T12:34:37.540Z</time>
      </trkpt>
      <trkpt lat="45.86807" lon="6.76508">
        <ele>1467</ele>
        <time>2026-08-14T12:34:38.540Z</time>
      </trkpt>
      <trkpt lat="45.86808" lon="6.76505">
        <ele>1466</ele>
        <time>2026-08-14T12:34:39.540Z</time>
      </trkpt>
      <trkpt lat="45.86809" lon="6.76501">
        <ele>1465</ele>
        <time>2026-08-14T12:34:40.540Z</time>
      </trkpt>
      <trkpt lat="45.86809" lon="6.76498">
        <ele>1464</ele>
        <time>2026-08-14T12:34:41.540Z</time>
      </trkpt>
      <trkpt lat="45.86809" lon="6.76494">
        <ele>1463</ele>
        <time>2026-08-14T12:34:42.540Z</time>
      </trkpt>
      <trkpt lat="45.8681" lon="6.7649">
        <ele>1463</ele>
        <time>2026-08-14T12:34:43.540Z</time>
      </trkpt>
      <trkpt lat="45.8681" lon="6.76486">
        <ele>1463</ele>
        <time>2026-08-14T12:34:44.540Z</time>
      </trkpt>
      <trkpt lat="45.8681" lon="6.76483">
        <ele>1462</ele>
        <time>2026-08-14T12:34:45.540Z</time>
      </trkpt>
      <trkpt lat="45.8681" lon="6.76479">
        <ele>1462</ele>
        <time>2026-08-14T12:34:46.540Z</time>
      </trkpt>
      <trkpt lat="45.8681" lon="6.76476">
        <ele>1462</ele>
        <time>2026-08-14T12:34:47.540Z</time>
      </trkpt>
      <trkpt lat="45.8681" lon="6.76473">
        <ele>1462</ele>
        <time>2026-08-14T12:34:48.540Z</time>
      </trkpt>
      <trkpt lat="45.8681" lon="6.76469">
        <ele>1462</ele>
        <time>2026-08-14T12:34:49.540Z</time>
      </trkpt>
      <trkpt lat="45.86811" lon="6.76466">
        <ele>1461</ele>
        <time>2026-08-14T12:34:50.540Z</time>
      </trkpt>
      <trkpt lat="45.86812" lon="6.76463">
        <ele>1461</ele>
        <time>2026-08-14T12:34:51.540Z</time>
      </trkpt>
      <trkpt lat="45.86812" lon="6.7646">
        <ele>1461</ele>
        <time>2026-08-14T12:34:52.540Z</time>
      </trkpt>
      <trkpt lat="45.86813" lon="6.76457">
        <ele>1461</ele>
        <time>2026-08-14T12:34:53.540Z</time>
      </trkpt>
      <trkpt lat="45.86813" lon="6.76453">
        <ele>1461</ele>
        <time>2026-08-14T12:34:54.540Z</time>
      </trkpt>
      <trkpt lat="45.86813" lon="6.7645">
        <ele>1461</ele>
        <time>2026-08-14T12:34:55.540Z</time>
      </trkpt>
      <trkpt lat="45.86813" lon="6.76448">
        <ele>1460</ele>
        <time>2026-08-14T12:34:56.540Z</time>
      </trkpt>
      <trkpt lat="45.86813" lon="6.76445">
        <ele>1460</ele>
        <time>2026-08-14T12:34:57.540Z</time>
      </trkpt>
      <trkpt lat="45.86813" lon="6.76442">
        <ele>1459</ele>
        <time>2026-08-14T12:34:58.540Z</time>
      </trkpt>
      <trkpt lat="45.86812" lon="6.76438">
        <ele>1458</ele>
        <time>2026-08-14T12:34:59.540Z</time>
      </trkpt>
      <trkpt lat="45.86812" lon="6.76434">
        <ele>1458</ele>
        <time>2026-08-14T12:35:00.540Z</time>
      </trkpt>
      <trkpt lat="45.86812" lon="6.7643">
        <ele>1457</ele>
        <time>2026-08-14T12:35:01.540Z</time>
      </trkpt>
      <trkpt lat="45.86812" lon="6.76425">
        <ele>1456</ele>
        <time>2026-08-14T12:35:02.540Z</time>
      </trkpt>
      <trkpt lat="45.86812" lon="6.76422">
        <ele>1456</ele>
        <time>2026-08-14T12:35:03.540Z</time>
      </trkpt>
      <trkpt lat="45.86811" lon="6.76417">
        <ele>1455</ele>
        <time>2026-08-14T12:35:04.540Z</time>
      </trkpt>
      <trkpt lat="45.86812" lon="6.76413">
        <ele>1455</ele>
        <time>2026-08-14T12:35:05.540Z</time>
      </trkpt>
      <trkpt lat="45.86811" lon="6.76409">
        <ele>1455</ele>
        <time>2026-08-14T12:35:06.540Z</time>
      </trkpt>
      <trkpt lat="45.86811" lon="6.76405">
        <ele>1454</ele>
        <time>2026-08-14T12:35:07.540Z</time>
      </trkpt>
      <trkpt lat="45.86811" lon="6.76402">
        <ele>1454</ele>
        <time>2026-08-14T12:35:08.540Z</time>
      </trkpt>
      <trkpt lat="45.8681" lon="6.76399">
        <ele>1454</ele>
        <time>2026-08-14T12:35:09.540Z</time>
      </trkpt>
      <trkpt lat="45.8681" lon="6.76395">
        <ele>1454</ele>
        <time>2026-08-14T12:35:10.540Z</time>
      </trkpt>
      <trkpt lat="45.8681" lon="6.76391">
        <ele>1454</ele>
        <time>2026-08-14T12:35:11.540Z</time>
      </trkpt>
      <trkpt lat="45.8681" lon="6.76388">
        <ele>1454</ele>
        <time>2026-08-14T12:35:12.540Z</time>
      </trkpt>
      <trkpt lat="45.8681" lon="6.76384">
        <ele>1454</ele>
        <time>2026-08-14T12:35:13.540Z</time>
      </trkpt>
      <trkpt lat="45.8681" lon="6.7638">
        <ele>1454</ele>
        <time>2026-08-14T12:35:14.540Z</time>
      </trkpt>
      <trkpt lat="45.8681" lon="6.76376">
        <ele>1454</ele>
        <time>2026-08-14T12:35:15.540Z</time>
      </trkpt>
      <trkpt lat="45.86811" lon="6.76373">
        <ele>1454</ele>
        <time>2026-08-14T12:35:16.540Z</time>
      </trkpt>
      <trkpt lat="45.86811" lon="6.7637">
        <ele>1454</ele>
        <time>2026-08-14T12:35:17.540Z</time>
      </trkpt>
      <trkpt lat="45.86812" lon="6.76367">
        <ele>1454</ele>
        <time>2026-08-14T12:35:18.540Z</time>
      </trkpt>
      <trkpt lat="45.86813" lon="6.76364">
        <ele>1454</ele>
        <time>2026-08-14T12:35:19.540Z</time>
      </trkpt>
      <trkpt lat="45.86814" lon="6.76362">
        <ele>1453</ele>
        <time>2026-08-14T12:35:20.540Z</time>
      </trkpt>
      <trkpt lat="45.86815" lon="6.76359">
        <ele>1453</ele>
        <time>2026-08-14T12:35:21.540Z</time>
      </trkpt>
      <trkpt lat="45.86815" lon="6.76355">
        <ele>1452</ele>
        <time>2026-08-14T12:35:22.540Z</time>
      </trkpt>
      <trkpt lat="45.86816" lon="6.76352">
        <ele>1452</ele>
        <time>2026-08-14T12:35:23.540Z</time>
      </trkpt>
      <trkpt lat="45.86817" lon="6.76349">
        <ele>1451</ele>
        <time>2026-08-14T12:35:24.540Z</time>
      </trkpt>
      <trkpt lat="45.86817" lon="6.76346">
        <ele>1451</ele>
        <time>2026-08-14T12:35:25.540Z</time>
      </trkpt>
      <trkpt lat="45.86818" lon="6.76342">
        <ele>1450</ele>
        <time>2026-08-14T12:35:26.540Z</time>
      </trkpt>
      <trkpt lat="45.86818" lon="6.76339">
        <ele>1449</ele>
        <time>2026-08-14T12:35:27.540Z</time>
      </trkpt>
      <trkpt lat="45.86818" lon="6.76335">
        <ele>1449</ele>
        <time>2026-08-14T12:35:28.540Z</time>
      </trkpt>
      <trkpt lat="45.86818" lon="6.76332">
        <ele>1448</ele>
        <time>2026-08-14T12:35:29.540Z</time>
      </trkpt>
      <trkpt lat="45.86818" lon="6.76329">
        <ele>1447</ele>
        <time>2026-08-14T12:35:30.540Z</time>
      </trkpt>
      <trkpt lat="45.86818" lon="6.76326">
        <ele>1446</ele>
        <time>2026-08-14T12:35:31.540Z</time>
      </trkpt>
      <trkpt lat="45.86818" lon="6.76323">
        <ele>1446</ele>
        <time>2026-08-14T12:35:32.540Z</time>
      </trkpt>
      <trkpt lat="45.86817" lon="6.76319">
        <ele>1445</ele>
        <time>2026-08-14T12:35:33.540Z</time>
      </trkpt>
      <trkpt lat="45.86817" lon="6.76316">
        <ele>1445</ele>
        <time>2026-08-14T12:35:34.540Z</time>
      </trkpt>
      <trkpt lat="45.86818" lon="6.76312">
        <ele>1445</ele>
        <time>2026-08-14T12:35:35.540Z</time>
      </trkpt>
      <trkpt lat="45.86818" lon="6.76308">
        <ele>1445</ele>
        <time>2026-08-14T12:35:36.540Z</time>
      </trkpt>
      <trkpt lat="45.86819" lon="6.76304">
        <ele>1445</ele>
        <time>2026-08-14T12:35:37.540Z</time>
      </trkpt>
      <trkpt lat="45.86819" lon="6.76301">
        <ele>1445</ele>
        <time>2026-08-14T12:35:38.540Z</time>
      </trkpt>
      <trkpt lat="45.8682" lon="6.76298">
        <ele>1445</ele>
        <time>2026-08-14T12:35:39.540Z</time>
      </trkpt>
      <trkpt lat="45.8682" lon="6.76295">
        <ele>1445</ele>
        <time>2026-08-14T12:35:40.540Z</time>
      </trkpt>
      <trkpt lat="45.8682" lon="6.76292">
        <ele>1444</ele>
        <time>2026-08-14T12:35:41.540Z</time>
      </trkpt>
      <trkpt lat="45.8682" lon="6.76288">
        <ele>1444</ele>
        <time>2026-08-14T12:35:42.540Z</time>
      </trkpt>
      <trkpt lat="45.8682" lon="6.76285">
        <ele>1444</ele>
        <time>2026-08-14T12:35:43.540Z</time>
      </trkpt>
      <trkpt lat="45.86821" lon="6.76281">
        <ele>1444</ele>
        <time>2026-08-14T12:35:44.540Z</time>
      </trkpt>
      <trkpt lat="45.86821" lon="6.76278">
        <ele>1444</ele>
        <time>2026-08-14T12:35:45.540Z</time>
      </trkpt>
      <trkpt lat="45.86822" lon="6.76275">
        <ele>1443</ele>
        <time>2026-08-14T12:35:46.540Z</time>
      </trkpt>
      <trkpt lat="45.86822" lon="6.76273">
        <ele>1443</ele>
        <time>2026-08-14T12:35:47.540Z</time>
      </trkpt>
      <trkpt lat="45.86822" lon="6.76269">
        <ele>1443</ele>
        <time>2026-08-14T12:35:48.540Z</time>
      </trkpt>
      <trkpt lat="45.86823" lon="6.76266">
        <ele>1443</ele>
        <time>2026-08-14T12:35:49.540Z</time>
      </trkpt>
      <trkpt lat="45.86823" lon="6.76263">
        <ele>1443</ele>
        <time>2026-08-14T12:35:50.540Z</time>
      </trkpt>
      <trkpt lat="45.86823" lon="6.7626">
        <ele>1443</ele>
        <time>2026-08-14T12:35:51.540Z</time>
      </trkpt>
      <trkpt lat="45.86823" lon="6.76257">
        <ele>1443</ele>
        <time>2026-08-14T12:35:52.540Z</time>
      </trkpt>
      <trkpt lat="45.86822" lon="6.76254">
        <ele>1442</ele>
        <time>2026-08-14T12:35:53.540Z</time>
      </trkpt>
      <trkpt lat="45.86821" lon="6.76251">
        <ele>1442</ele>
        <time>2026-08-14T12:35:54.540Z</time>
      </trkpt>
      <trkpt lat="45.8682" lon="6.76248">
        <ele>1441</ele>
        <time>2026-08-14T12:35:55.540Z</time>
      </trkpt>
      <trkpt lat="45.86819" lon="6.76245">
        <ele>1441</ele>
        <time>2026-08-14T12:35:56.540Z</time>
      </trkpt>
      <trkpt lat="45.86818" lon="6.76243">
        <ele>1441</ele>
        <time>2026-08-14T12:35:57.540Z</time>
      </trkpt>
      <trkpt lat="45.86817" lon="6.7624">
        <ele>1440</ele>
        <time>2026-08-14T12:35:58.540Z</time>
      </trkpt>
      <trkpt lat="45.86816" lon="6.76237">
        <ele>1440</ele>
        <time>2026-08-14T12:35:59.540Z</time>
      </trkpt>
      <trkpt lat="45.86815" lon="6.76234">
        <ele>1439</ele>
        <time>2026-08-14T12:36:00.540Z</time>
      </trkpt>
      <trkpt lat="45.86814" lon="6.76232">
        <ele>1439</ele>
        <time>2026-08-14T12:36:01.540Z</time>
      </trkpt>
      <trkpt lat="45.86813" lon="6.7623">
        <ele>1439</ele>
        <time>2026-08-14T12:36:02.540Z</time>
      </trkpt>
      <trkpt lat="45.86813" lon="6.76227">
        <ele>1439</ele>
        <time>2026-08-14T12:36:03.540Z</time>
      </trkpt>
      <trkpt lat="45.86813" lon="6.76225">
        <ele>1438</ele>
        <time>2026-08-14T12:36:04.540Z</time>
      </trkpt>
      <trkpt lat="45.86812" lon="6.76224">
        <ele>1438</ele>
        <time>2026-08-14T12:36:05.540Z</time>
      </trkpt>
      <trkpt lat="45.86811" lon="6.76222">
        <ele>1437</ele>
        <time>2026-08-14T12:36:06.540Z</time>
      </trkpt>
      <trkpt lat="45.8681" lon="6.7622">
        <ele>1437</ele>
        <time>2026-08-14T12:36:07.540Z</time>
      </trkpt>
      <trkpt lat="45.86809" lon="6.76218">
        <ele>1436</ele>
        <time>2026-08-14T12:36:08.540Z</time>
      </trkpt>
      <trkpt lat="45.86808" lon="6.76216">
        <ele>1436</ele>
        <time>2026-08-14T12:36:09.540Z</time>
      </trkpt>
      <trkpt lat="45.86808" lon="6.76214">
        <ele>1435</ele>
        <time>2026-08-14T12:36:10.540Z</time>
      </trkpt>
      <trkpt lat="45.86807" lon="6.76211">
        <ele>1435</ele>
        <time>2026-08-14T12:36:11.540Z</time>
      </trkpt>
      <trkpt lat="45.86806" lon="6.76208">
        <ele>1434</ele>
        <time>2026-08-14T12:36:12.540Z</time>
      </trkpt>
      <trkpt lat="45.86805" lon="6.76204">
        <ele>1434</ele>
        <time>2026-08-14T12:36:13.540Z</time>
      </trkpt>
      <trkpt lat="45.86803" lon="6.762">
        <ele>1433</ele>
        <time>2026-08-14T12:36:14.540Z</time>
      </trkpt>
      <trkpt lat="45.86803" lon="6.76196">
        <ele>1433</ele>
        <time>2026-08-14T12:36:15.540Z</time>
      </trkpt>
      <trkpt lat="45.86802" lon="6.76193">
        <ele>1433</ele>
        <time>2026-08-14T12:36:16.540Z</time>
      </trkpt>
      <trkpt lat="45.86801" lon="6.76189">
        <ele>1433</ele>
        <time>2026-08-14T12:36:17.540Z</time>
      </trkpt>
      <trkpt lat="45.868" lon="6.76186">
        <ele>1433</ele>
        <time>2026-08-14T12:36:18.540Z</time>
      </trkpt>
      <trkpt lat="45.868" lon="6.76182">
        <ele>1433</ele>
        <time>2026-08-14T12:36:19.540Z</time>
      </trkpt>
      <trkpt lat="45.86799" lon="6.76179">
        <ele>1433</ele>
        <time>2026-08-14T12:36:20.540Z</time>
      </trkpt>
      <trkpt lat="45.868" lon="6.76176">
        <ele>1434</ele>
        <time>2026-08-14T12:36:21.540Z</time>
      </trkpt>
      <trkpt lat="45.868" lon="6.76172">
        <ele>1434</ele>
        <time>2026-08-14T12:36:22.540Z</time>
      </trkpt>
      <trkpt lat="45.868" lon="6.7617">
        <ele>1434</ele>
        <time>2026-08-14T12:36:23.540Z</time>
      </trkpt>
      <trkpt lat="45.868" lon="6.76167">
        <ele>1434</ele>
        <time>2026-08-14T12:36:24.540Z</time>
      </trkpt>
      <trkpt lat="45.86799" lon="6.76165">
        <ele>1434</ele>
        <time>2026-08-14T12:36:25.540Z</time>
      </trkpt>
      <trkpt lat="45.86799" lon="6.76162">
        <ele>1434</ele>
        <time>2026-08-14T12:36:26.540Z</time>
      </trkpt>
      <trkpt lat="45.86798" lon="6.76159">
        <ele>1434</ele>
        <time>2026-08-14T12:36:27.540Z</time>
      </trkpt>
      <trkpt lat="45.86798" lon="6.76157">
        <ele>1434</ele>
        <time>2026-08-14T12:36:28.540Z</time>
      </trkpt>
      <trkpt lat="45.86797" lon="6.76154">
        <ele>1434</ele>
        <time>2026-08-14T12:36:29.540Z</time>
      </trkpt>
      <trkpt lat="45.86797" lon="6.76151">
        <ele>1434</ele>
        <time>2026-08-14T12:36:30.540Z</time>
      </trkpt>
      <trkpt lat="45.86796" lon="6.76148">
        <ele>1434</ele>
        <time>2026-08-14T12:36:31.540Z</time>
      </trkpt>
      <trkpt lat="45.86796" lon="6.76145">
        <ele>1434</ele>
        <time>2026-08-14T12:36:32.540Z</time>
      </trkpt>
      <trkpt lat="45.86797" lon="6.76141">
        <ele>1434</ele>
        <time>2026-08-14T12:36:33.540Z</time>
      </trkpt>
      <trkpt lat="45.86797" lon="6.76139">
        <ele>1434</ele>
        <time>2026-08-14T12:36:34.540Z</time>
      </trkpt>
      <trkpt lat="45.86798" lon="6.76136">
        <ele>1434</ele>
        <time>2026-08-14T12:36:35.540Z</time>
      </trkpt>
      <trkpt lat="45.86798" lon="6.76134">
        <ele>1434</ele>
        <time>2026-08-14T12:36:36.540Z</time>
      </trkpt>
      <trkpt lat="45.86798" lon="6.76132">
        <ele>1434</ele>
        <time>2026-08-14T12:36:37.540Z</time>
      </trkpt>
      <trkpt lat="45.86799" lon="6.7613">
        <ele>1434</ele>
        <time>2026-08-14T12:36:38.540Z</time>
      </trkpt>
      <trkpt lat="45.868" lon="6.76129">
        <ele>1434</ele>
        <time>2026-08-14T12:36:39.540Z</time>
      </trkpt>
      <trkpt lat="45.86801" lon="6.76128">
        <ele>1434</ele>
        <time>2026-08-14T12:36:40.540Z</time>
      </trkpt>
      <trkpt lat="45.86803" lon="6.76128">
        <ele>1434</ele>
        <time>2026-08-14T12:36:41.540Z</time>
      </trkpt>
      <trkpt lat="45.86804" lon="6.76127">
        <ele>1434</ele>
        <time>2026-08-14T12:36:42.540Z</time>
      </trkpt>
      <trkpt lat="45.86804" lon="6.76126">
        <ele>1434</ele>
        <time>2026-08-14T12:36:43.540Z</time>
      </trkpt>
      <trkpt lat="45.86804" lon="6.76126">
        <ele>1434</ele>
        <time>2026-08-14T12:36:44.540Z</time>
      </trkpt>
      <trkpt lat="45.86805" lon="6.76125">
        <ele>1434</ele>
        <time>2026-08-14T12:36:45.540Z</time>
      </trkpt>
      <trkpt lat="45.86806" lon="6.76125">
        <ele>1434</ele>
        <time>2026-08-14T12:36:46.540Z</time>
      </trkpt>
      <trkpt lat="45.86807" lon="6.76124">
        <ele>1434</ele>
        <time>2026-08-14T12:36:47.540Z</time>
      </trkpt>
      <trkpt lat="45.86808" lon="6.76124">
        <ele>1434</ele>
        <time>2026-08-14T12:36:48.540Z</time>
      </trkpt>
      <trkpt lat="45.86808" lon="6.76123">
        <ele>1434</ele>
        <time>2026-08-14T12:36:49.540Z</time>
      </trkpt>
      <trkpt lat="45.86809" lon="6.76123">
        <ele>1434</ele>
        <time>2026-08-14T12:36:50.540Z</time>
      </trkpt>
      <trkpt lat="45.8681" lon="6.76122">
        <ele>1434</ele>
        <time>2026-08-14T12:36:51.540Z</time>
      </trkpt>
      <trkpt lat="45.86811" lon="6.76121">
        <ele>1434</ele>
        <time>2026-08-14T12:36:52.540Z</time>
      </trkpt>
      <trkpt lat="45.86812" lon="6.76119">
        <ele>1433</ele>
        <time>2026-08-14T12:36:53.540Z</time>
      </trkpt>
      <trkpt lat="45.86814" lon="6.76117">
        <ele>1433</ele>
        <time>2026-08-14T12:36:54.540Z</time>
      </trkpt>
      <trkpt lat="45.86815" lon="6.76115">
        <ele>1433</ele>
        <time>2026-08-14T12:36:55.540Z</time>
      </trkpt>
      <trkpt lat="45.86816" lon="6.76114">
        <ele>1432</ele>
        <time>2026-08-14T12:36:56.540Z</time>
      </trkpt>
      <trkpt lat="45.86817" lon="6.76113">
        <ele>1431</ele>
        <time>2026-08-14T12:36:57.540Z</time>
      </trkpt>
      <trkpt lat="45.86818" lon="6.76113">
        <ele>1431</ele>
        <time>2026-08-14T12:36:58.540Z</time>
      </trkpt>
      <trkpt lat="45.86819" lon="6.76113">
        <ele>1431</ele>
        <time>2026-08-14T12:36:59.540Z</time>
      </trkpt>
      <trkpt lat="45.8682" lon="6.76115">
        <ele>1430</ele>
        <time>2026-08-14T12:37:00.540Z</time>
      </trkpt>
      <trkpt lat="45.86821" lon="6.76116">
        <ele>1429</ele>
        <time>2026-08-14T12:37:01.540Z</time>
      </trkpt>
      <trkpt lat="45.86821" lon="6.76117">
        <ele>1429</ele>
        <time>2026-08-14T12:37:02.540Z</time>
      </trkpt>
      <trkpt lat="45.86821" lon="6.76119">
        <ele>1428</ele>
        <time>2026-08-14T12:37:03.540Z</time>
      </trkpt>
      <trkpt lat="45.86821" lon="6.7612">
        <ele>1428</ele>
        <time>2026-08-14T12:37:04.540Z</time>
      </trkpt>
      <trkpt lat="45.8682" lon="6.76121">
        <ele>1427</ele>
        <time>2026-08-14T12:37:05.540Z</time>
      </trkpt>
      <trkpt lat="45.8682" lon="6.76121">
        <ele>1427</ele>
        <time>2026-08-14T12:37:06.540Z</time>
      </trkpt>
      <trkpt lat="45.86819" lon="6.76122">
        <ele>1427</ele>
        <time>2026-08-14T12:37:07.540Z</time>
      </trkpt>
      <trkpt lat="45.86819" lon="6.76123">
        <ele>1426</ele>
        <time>2026-08-14T12:37:08.540Z</time>
      </trkpt>
      <trkpt lat="45.86819" lon="6.76123">
        <ele>1426</ele>
        <time>2026-08-14T12:37:09.540Z</time>
      </trkpt>
      <trkpt lat="45.8682" lon="6.76124">
        <ele>1425</ele>
        <time>2026-08-14T12:37:10.540Z</time>
      </trkpt>
      <trkpt lat="45.86819" lon="6.76124">
        <ele>1425</ele>
        <time>2026-08-14T12:37:11.540Z</time>
      </trkpt>
      <trkpt lat="45.86819" lon="6.76124">
        <ele>1425</ele>
        <time>2026-08-14T12:37:12.540Z</time>
      </trkpt>
      <trkpt lat="45.86818" lon="6.76123">
        <ele>1424</ele>
        <time>2026-08-14T12:37:13.540Z</time>
      </trkpt>
      <trkpt lat="45.86817" lon="6.76122">
        <ele>1424</ele>
        <time>2026-08-14T12:37:14.540Z</time>
      </trkpt>
      <trkpt lat="45.86817" lon="6.76122">
        <ele>1424</ele>
        <time>2026-08-14T12:37:15.540Z</time>
      </trkpt>
      <trkpt lat="45.86818" lon="6.76122">
        <ele>1424</ele>
        <time>2026-08-14T12:37:16.540Z</time>
      </trkpt>
      <trkpt lat="45.86818" lon="6.76122">
        <ele>1423</ele>
        <time>2026-08-14T12:37:17.540Z</time>
      </trkpt>
      <trkpt lat="45.86818" lon="6.76122">
        <ele>1423</ele>
        <time>2026-08-14T12:37:18.540Z</time>
      </trkpt>
      <trkpt lat="45.86818" lon="6.76122">
        <ele>1422</ele>
        <time>2026-08-14T12:37:19.540Z</time>
      </trkpt>
      <trkpt lat="45.86818" lon="6.76122">
        <ele>1422</ele>
        <time>2026-08-14T12:37:20.540Z</time>
      </trkpt>
      <trkpt lat="45.86818" lon="6.76122">
        <ele>1421</ele>
        <time>2026-08-14T12:37:21.540Z</time>
      </trkpt>
      <trkpt lat="45.86818" lon="6.76122">
        <ele>1421</ele>
        <time>2026-08-14T12:37:22.540Z</time>
      </trkpt>
      <trkpt lat="45.86818" lon="6.76122">
        <ele>1421</ele>
        <time>2026-08-14T12:37:23.540Z</time>
      </trkpt>
      <trkpt lat="45.86818" lon="6.76122">
        <ele>1421</ele>
        <time>2026-08-14T12:37:24.540Z</time>
      </trkpt>
      <trkpt lat="45.86818" lon="6.76122">
        <ele>1420</ele>
        <time>2026-08-14T12:37:25.540Z</time>
      </trkpt>
      <trkpt lat="45.86818" lon="6.76122">
        <ele>1420</ele>
        <time>2026-08-14T12:37:26.540Z</time>
      </trkpt>
      <trkpt lat="45.86818" lon="6.76122">
        <ele>1420</ele>
        <time>2026-08-14T12:37:27.540Z</time>
      </trkpt>
      <trkpt lat="45.86818" lon="6.76122">
        <ele>1419</ele>
        <time>2026-08-14T12:37:28.540Z</time>
      </trkpt>
      <trkpt lat="45.86818" lon="6.76122">
        <ele>1419</ele>
        <time>2026-08-14T12:37:29.540Z</time>
      </trkpt>
      <trkpt lat="45.86818" lon="6.76122">
        <ele>1419</ele>
        <time>2026-08-14T12:37:30.540Z</time>
      </trkpt>
      <trkpt lat="45.86818" lon="6.76122">
        <ele>1419</ele>
        <time>2026-08-14T12:37:31.540Z</time>
      </trkpt>
      <trkpt lat="45.86817" lon="6.76122">
        <ele>1418</ele>
        <time>2026-08-14T12:37:32.540Z</time>
      </trkpt>
      <trkpt lat="45.86817" lon="6.76122">
        <ele>1418</ele>
        <time>2026-08-14T12:37:33.540Z</time>
      </trkpt>
      <trkpt lat="45.86817" lon="6.76122">
        <ele>1418</ele>
        <time>2026-08-14T12:37:34.540Z</time>
      </trkpt>
      <trkpt lat="45.86817" lon="6.76122">
        <ele>1418</ele>
        <time>2026-08-14T12:37:35.540Z</time>
      </trkpt>
      <trkpt lat="45.86817" lon="6.76122">
        <ele>1418</ele>
        <time>2026-08-14T12:37:36.540Z</time>
      </trkpt>
      <trkpt lat="45.86817" lon="6.76122">
        <ele>1418</ele>
        <time>2026-08-14T12:37:37.540Z</time>
      </trkpt>
      <trkpt lat="45.86817" lon="6.76122">
        <ele>1418</ele>
        <time>2026-08-14T12:37:38.540Z</time>
      </trkpt>
      <trkpt lat="45.86816" lon="6.76122">
        <ele>1418</ele>
        <time>2026-08-14T12:37:39.540Z</time>
      </trkpt>
      <trkpt lat="45.86816" lon="6.76122">
        <ele>1418</ele>
        <time>2026-08-14T12:37:40.540Z</time>
      </trkpt>
      <trkpt lat="45.86816" lon="6.76122">
        <ele>1418</ele>
        <time>2026-08-14T12:37:41.540Z</time>
      </trkpt>
      <trkpt lat="45.86816" lon="6.76122">
        <ele>1418</ele>
        <time>2026-08-14T12:37:42.540Z</time>
      </trkpt>
      <trkpt lat="45.86816" lon="6.76122">
        <ele>1418</ele>
        <time>2026-08-14T12:37:43.540Z</time>
      </trkpt>
      <trkpt lat="45.86816" lon="6.76122">
        <ele>1418</ele>
        <time>2026-08-14T12:37:44.540Z</time>
      </trkpt>
      <trkpt lat="45.86816" lon="6.76121">
        <ele>1418</ele>
        <time>2026-08-14T12:37:45.540Z</time>
      </trkpt>
      <trkpt lat="45.86816" lon="6.76121">
        <ele>1418</ele>
        <time>2026-08-14T12:37:46.540Z</time>
      </trkpt>
      <trkpt lat="45.86816" lon="6.76121">
        <ele>1418</ele>
        <time>2026-08-14T12:37:47.540Z</time>
      </trkpt>
      <trkpt lat="45.86816" lon="6.76121">
        <ele>1418</ele>
        <time>2026-08-14T12:37:48.540Z</time>
      </trkpt>
      <trkpt lat="45.86816" lon="6.76121">
        <ele>1417</ele>
        <time>2026-08-14T12:37:49.540Z</time>
      </trkpt>
      <trkpt lat="45.86816" lon="6.76121">
        <ele>1417</ele>
        <time>2026-08-14T12:37:50.540Z</time>
      </trkpt>
      <trkpt lat="45.86816" lon="6.76121">
        <ele>1417</ele>
        <time>2026-08-14T12:37:51.540Z</time>
      </trkpt>
      <trkpt lat="45.86816" lon="6.76121">
        <ele>1417</ele>
        <time>2026-08-14T12:37:52.540Z</time>
      </trkpt>
      <trkpt lat="45.86816" lon="6.76121">
        <ele>1417</ele>
        <time>2026-08-14T12:37:53.540Z</time>
      </trkpt>
      <trkpt lat="45.86816" lon="6.76121">
        <ele>1417</ele>
        <time>2026-08-14T12:37:54.540Z</time>
      </trkpt>
      <trkpt lat="45.86816" lon="6.76121">
        <ele>1417</ele>
        <time>2026-08-14T12:37:55.540Z</time>
      </trkpt>
      <trkpt lat="45.86816" lon="6.76121">
        <ele>1417</ele>
        <time>2026-08-14T12:37:56.540Z</time>
      </trkpt>
      <trkpt lat="45.86816" lon="6.76121">
        <ele>1417</ele>
        <time>2026-08-14T12:37:57.540Z</time>
      </trkpt>
      <trkpt lat="45.86816" lon="6.76121">
        <ele>1417</ele>
        <time>2026-08-14T12:37:58.540Z</time>
      </trkpt>
      <trkpt lat="45.86816" lon="6.76121">
        <ele>1417</ele>
        <time>2026-08-14T12:37:59.540Z</time>
      </trkpt>
      <trkpt lat="45.86816" lon="6.76121">
        <ele>1417</ele>
        <time>2026-08-14T12:38:00.540Z</time>
      </trkpt>
      <trkpt lat="45.86816" lon="6.76121">
        <ele>1417</ele>
        <time>2026-08-14T12:38:01.540Z</time>
      </trkpt>
      <trkpt lat="45.86816" lon="6.76121">
        <ele>1417</ele>
        <time>2026-08-14T12:38:02.540Z</time>
      </trkpt>
      <trkpt lat="45.86816" lon="6.76121">
        <ele>1417</ele>
        <time>2026-08-14T12:38:03.540Z</time>
      </trkpt>
      <trkpt lat="45.86816" lon="6.76121">
        <ele>1417</ele>
        <time>2026-08-14T12:38:04.540Z</time>
      </trkpt>
      <trkpt lat="45.86816" lon="6.76121">
        <ele>1417</ele>
        <time>2026-08-14T12:38:05.540Z</time>
      </trkpt>
      <trkpt lat="45.86816" lon="6.76121">
        <ele>1417</ele>
        <time>2026-08-14T12:38:06.540Z</time>
      </trkpt>
      <trkpt lat="45.86816" lon="6.76121">
        <ele>1417</ele>
        <time>2026-08-14T12:38:07.540Z</time>
      </trkpt>
      <trkpt lat="45.86816" lon="6.76121">
        <ele>1417</ele>
        <time>2026-08-14T12:38:08.540Z</time>
      </trkpt>
      <trkpt lat="45.86816" lon="6.76121">
        <ele>1417</ele>
        <time>2026-08-14T12:38:09.540Z</time>
      </trkpt>
      <trkpt lat="45.86816" lon="6.76121">
        <ele>1417</ele>
        <time>2026-08-14T12:38:10.540Z</time>
      </trkpt>
      <trkpt lat="45.86817" lon="6.76121">
        <ele>1417</ele>
        <time>2026-08-14T12:38:11.540Z</time>
      </trkpt>
      <trkpt lat="45.86817" lon="6.76121">
        <ele>1417</ele>
        <time>2026-08-14T12:38:12.540Z</time>
      </trkpt>
      <trkpt lat="45.86817" lon="6.76121">
        <ele>1417</ele>
        <time>2026-08-14T12:38:13.540Z</time>
      </trkpt>
      <trkpt lat="45.86817" lon="6.76121">
        <ele>1417</ele>
        <time>2026-08-14T12:38:14.540Z</time>
      </trkpt>
      <trkpt lat="45.86817" lon="6.76121">
        <ele>1417</ele>
        <time>2026-08-14T12:38:15.540Z</time>
      </trkpt>
      <trkpt lat="45.86817" lon="6.76121">
        <ele>1417</ele>
        <time>2026-08-14T12:38:16.540Z</time>
      </trkpt>
      <trkpt lat="45.86817" lon="6.76121">
        <ele>1417</ele>
        <time>2026-08-14T12:38:17.540Z</time>
      </trkpt>
      <trkpt lat="45.86817" lon="6.76121">
        <ele>1417</ele>
        <time>2026-08-14T12:38:18.540Z</time>
      </trkpt>
      <trkpt lat="45.86817" lon="6.76121">
        <ele>1417</ele>
        <time>2026-08-14T12:38:19.540Z</time>
      </trkpt>
      <trkpt lat="45.86817" lon="6.76121">
        <ele>1417</ele>
        <time>2026-08-14T12:38:20.540Z</time>
      </trkpt>
      <trkpt lat="45.86817" lon="6.76121">
        <ele>1417</ele>
        <time>2026-08-14T12:38:21.540Z</time>
      </trkpt>
      <trkpt lat="45.86817" lon="6.76121">
        <ele>1417</ele>
        <time>2026-08-14T12:38:22.540Z</time>
      </trkpt>
      <trkpt lat="45.86817" lon="6.76121">
        <ele>1417</ele>
        <time>2026-08-14T12:38:23.540Z</time>
      </trkpt>
    </trkseg>
  </trk>
</gpx>